<?xml version="1.0" encoding="UTF-8" standalone="no" ?>
<gpx xmlns="http://www.topografix.com/GPX/1/1" xmlns:xsi="http://www.w3.org/2001/XMLSchema-instance" xsi:schemaLocation="http://www.topografix.com/GPX/1/1 http://www.topografix.com/GPX/1/1/gpx.xsd" version="1.1" creator="VisuGPX - https://www.visugpx.com">
  <metadata>
    <name>voyage total </name>
  </metadata>
  <trk>
    <name><![CDATA[Trace 9]]></name>
    <trkseg>
      <trkpt lat="48.00684" lon="-3.757">
        <ele>143.8</ele>
        <time>2020-06-08T08:02:51Z</time>
      </trkpt>
      <trkpt lat="48.00689" lon="-3.75699">
        <ele>143.9</ele>
        <time>2020-06-08T08:02:52Z</time>
      </trkpt>
      <trkpt lat="48.00689" lon="-3.75699">
        <ele>143.9</ele>
        <time>2020-06-08T08:02:53Z</time>
      </trkpt>
      <trkpt lat="48.0069" lon="-3.757">
        <ele>143.9</ele>
        <time>2020-06-08T08:02:54Z</time>
      </trkpt>
      <trkpt lat="48.0069" lon="-3.757">
        <ele>143.9</ele>
        <time>2020-06-08T08:02:55Z</time>
      </trkpt>
      <trkpt lat="48.0069" lon="-3.757">
        <ele>143.9</ele>
        <time>2020-06-08T08:02:56Z</time>
      </trkpt>
      <trkpt lat="48.0069" lon="-3.75701">
        <ele>143.9</ele>
        <time>2020-06-08T08:02:57Z</time>
      </trkpt>
      <trkpt lat="48.00691" lon="-3.75701">
        <ele>143.9</ele>
        <time>2020-06-08T08:02:58Z</time>
      </trkpt>
      <trkpt lat="48.00691" lon="-3.75701">
        <ele>143.9</ele>
        <time>2020-06-08T08:02:59Z</time>
      </trkpt>
      <trkpt lat="48.00691" lon="-3.75702">
        <ele>143.9</ele>
        <time>2020-06-08T08:03:00Z</time>
      </trkpt>
      <trkpt lat="48.00691" lon="-3.75702">
        <ele>143.9</ele>
        <time>2020-06-08T08:03:01Z</time>
      </trkpt>
      <trkpt lat="48.00692" lon="-3.75702">
        <ele>143.9</ele>
        <time>2020-06-08T08:03:46Z</time>
      </trkpt>
      <trkpt lat="48.00692" lon="-3.75703">
        <ele>143.9</ele>
        <time>2020-06-08T08:03:47Z</time>
      </trkpt>
      <trkpt lat="48.00692" lon="-3.75703">
        <ele>143.9</ele>
        <time>2020-06-08T08:03:48Z</time>
      </trkpt>
      <trkpt lat="48.00692" lon="-3.75704">
        <ele>143.9</ele>
        <time>2020-06-08T08:03:49Z</time>
      </trkpt>
      <trkpt lat="48.00693" lon="-3.75704">
        <ele>143.9</ele>
        <time>2020-06-08T08:03:50Z</time>
      </trkpt>
      <trkpt lat="48.00693" lon="-3.75704">
        <ele>143.9</ele>
        <time>2020-06-08T08:03:51Z</time>
      </trkpt>
      <trkpt lat="48.00693" lon="-3.75705">
        <ele>143.9</ele>
        <time>2020-06-08T08:03:52Z</time>
      </trkpt>
      <trkpt lat="48.00693" lon="-3.75705">
        <ele>143.9</ele>
        <time>2020-06-08T08:03:53Z</time>
      </trkpt>
      <trkpt lat="48.00694" lon="-3.75705">
        <ele>143.9</ele>
        <time>2020-06-08T08:03:54Z</time>
      </trkpt>
      <trkpt lat="48.00694" lon="-3.75706">
        <ele>143.9</ele>
        <time>2020-06-08T08:03:55Z</time>
      </trkpt>
      <trkpt lat="48.00694" lon="-3.75706">
        <ele>143.9</ele>
        <time>2020-06-08T08:03:56Z</time>
      </trkpt>
      <trkpt lat="48.00694" lon="-3.75706">
        <ele>143.9</ele>
        <time>2020-06-08T08:04:24Z</time>
      </trkpt>
      <trkpt lat="48.00695" lon="-3.75707">
        <ele>143.9</ele>
        <time>2020-06-08T08:04:25Z</time>
      </trkpt>
      <trkpt lat="48.00693" lon="-3.75709">
        <ele>144</ele>
        <time>2020-06-08T08:04:26Z</time>
      </trkpt>
      <trkpt lat="48.00693" lon="-3.75711">
        <ele>144</ele>
        <time>2020-06-08T08:04:27Z</time>
      </trkpt>
      <trkpt lat="48.00692" lon="-3.75711">
        <ele>144</ele>
        <time>2020-06-08T08:04:28Z</time>
      </trkpt>
      <trkpt lat="48.00692" lon="-3.75713">
        <ele>144</ele>
        <time>2020-06-08T08:04:29Z</time>
      </trkpt>
      <trkpt lat="48.00692" lon="-3.75715">
        <ele>144</ele>
        <time>2020-06-08T08:04:30Z</time>
      </trkpt>
      <trkpt lat="48.00691" lon="-3.75717">
        <ele>144</ele>
        <time>2020-06-08T08:04:31Z</time>
      </trkpt>
      <trkpt lat="48.00691" lon="-3.75719">
        <ele>144.1</ele>
        <time>2020-06-08T08:04:32Z</time>
      </trkpt>
      <trkpt lat="48.0069" lon="-3.75721">
        <ele>144.1</ele>
        <time>2020-06-08T08:04:33Z</time>
      </trkpt>
      <trkpt lat="48.0069" lon="-3.75724">
        <ele>144.1</ele>
        <time>2020-06-08T08:04:34Z</time>
      </trkpt>
      <trkpt lat="48.00688" lon="-3.75727">
        <ele>144.1</ele>
        <time>2020-06-08T08:04:35Z</time>
      </trkpt>
      <trkpt lat="48.00687" lon="-3.75728">
        <ele>144.2</ele>
        <time>2020-06-08T08:04:36Z</time>
      </trkpt>
      <trkpt lat="48.00687" lon="-3.7573">
        <ele>144.2</ele>
        <time>2020-06-08T08:04:37Z</time>
      </trkpt>
      <trkpt lat="48.00688" lon="-3.75732">
        <ele>144.2</ele>
        <time>2020-06-08T08:04:38Z</time>
      </trkpt>
      <trkpt lat="48.00688" lon="-3.75734">
        <ele>144.2</ele>
        <time>2020-06-08T08:04:39Z</time>
      </trkpt>
      <trkpt lat="48.00688" lon="-3.75736">
        <ele>144.2</ele>
        <time>2020-06-08T08:04:40Z</time>
      </trkpt>
      <trkpt lat="48.00688" lon="-3.75737">
        <ele>144.2</ele>
        <time>2020-06-08T08:04:41Z</time>
      </trkpt>
      <trkpt lat="48.00689" lon="-3.7574">
        <ele>144.3</ele>
        <time>2020-06-08T08:04:42Z</time>
      </trkpt>
      <trkpt lat="48.00688" lon="-3.75742">
        <ele>144.3</ele>
        <time>2020-06-08T08:04:43Z</time>
      </trkpt>
      <trkpt lat="48.00688" lon="-3.75743">
        <ele>144.3</ele>
        <time>2020-06-08T08:04:44Z</time>
      </trkpt>
      <trkpt lat="48.00689" lon="-3.75745">
        <ele>144.3</ele>
        <time>2020-06-08T08:04:45Z</time>
      </trkpt>
      <trkpt lat="48.0069" lon="-3.75746">
        <ele>144.3</ele>
        <time>2020-06-08T08:04:46Z</time>
      </trkpt>
      <trkpt lat="48.00692" lon="-3.75747">
        <ele>144.3</ele>
        <time>2020-06-08T08:04:47Z</time>
      </trkpt>
      <trkpt lat="48.00693" lon="-3.75747">
        <ele>144.3</ele>
        <time>2020-06-08T08:04:48Z</time>
      </trkpt>
      <trkpt lat="48.00694" lon="-3.75748">
        <ele>144.4</ele>
        <time>2020-06-08T08:04:49Z</time>
      </trkpt>
      <trkpt lat="48.00695" lon="-3.75749">
        <ele>144.7</ele>
        <time>2020-06-08T08:04:50Z</time>
      </trkpt>
      <trkpt lat="48.00697" lon="-3.7575">
        <ele>144.8</ele>
        <time>2020-06-08T08:04:51Z</time>
      </trkpt>
      <trkpt lat="48.00698" lon="-3.75751">
        <ele>144.9</ele>
        <time>2020-06-08T08:04:52Z</time>
      </trkpt>
      <trkpt lat="48.007" lon="-3.75751">
        <ele>144.9</ele>
        <time>2020-06-08T08:04:53Z</time>
      </trkpt>
      <trkpt lat="48.00702" lon="-3.75753">
        <ele>145.1</ele>
        <time>2020-06-08T08:04:54Z</time>
      </trkpt>
      <trkpt lat="48.00704" lon="-3.75754">
        <ele>145.1</ele>
        <time>2020-06-08T08:04:55Z</time>
      </trkpt>
      <trkpt lat="48.00705" lon="-3.75755">
        <ele>145.2</ele>
        <time>2020-06-08T08:04:56Z</time>
      </trkpt>
      <trkpt lat="48.00706" lon="-3.75757">
        <ele>145.3</ele>
        <time>2020-06-08T08:04:57Z</time>
      </trkpt>
      <trkpt lat="48.00707" lon="-3.75758">
        <ele>145.4</ele>
        <time>2020-06-08T08:04:58Z</time>
      </trkpt>
      <trkpt lat="48.00709" lon="-3.75759">
        <ele>145.4</ele>
        <time>2020-06-08T08:04:59Z</time>
      </trkpt>
      <trkpt lat="48.00711" lon="-3.75762">
        <ele>145.6</ele>
        <time>2020-06-08T08:05:00Z</time>
      </trkpt>
      <trkpt lat="48.00712" lon="-3.75763">
        <ele>145.6</ele>
        <time>2020-06-08T08:05:01Z</time>
      </trkpt>
      <trkpt lat="48.00713" lon="-3.75763">
        <ele>145.7</ele>
        <time>2020-06-08T08:05:02Z</time>
      </trkpt>
      <trkpt lat="48.00715" lon="-3.75764">
        <ele>145.8</ele>
        <time>2020-06-08T08:05:03Z</time>
      </trkpt>
      <trkpt lat="48.00718" lon="-3.75765">
        <ele>145.9</ele>
        <time>2020-06-08T08:05:04Z</time>
      </trkpt>
      <trkpt lat="48.00719" lon="-3.75766">
        <ele>146</ele>
        <time>2020-06-08T08:05:05Z</time>
      </trkpt>
      <trkpt lat="48.0072" lon="-3.75767">
        <ele>146</ele>
        <time>2020-06-08T08:05:06Z</time>
      </trkpt>
      <trkpt lat="48.00722" lon="-3.75767">
        <ele>146.1</ele>
        <time>2020-06-08T08:05:07Z</time>
      </trkpt>
      <trkpt lat="48.00724" lon="-3.75769">
        <ele>146.2</ele>
        <time>2020-06-08T08:05:08Z</time>
      </trkpt>
      <trkpt lat="48.00725" lon="-3.75769">
        <ele>146.3</ele>
        <time>2020-06-08T08:05:09Z</time>
      </trkpt>
      <trkpt lat="48.00726" lon="-3.75769">
        <ele>146.3</ele>
        <time>2020-06-08T08:05:10Z</time>
      </trkpt>
      <trkpt lat="48.00727" lon="-3.7577">
        <ele>146.4</ele>
        <time>2020-06-08T08:05:11Z</time>
      </trkpt>
      <trkpt lat="48.00729" lon="-3.75771">
        <ele>146.5</ele>
        <time>2020-06-08T08:05:12Z</time>
      </trkpt>
      <trkpt lat="48.0073" lon="-3.75772">
        <ele>146.6</ele>
        <time>2020-06-08T08:05:13Z</time>
      </trkpt>
      <trkpt lat="48.00732" lon="-3.75773">
        <ele>146.6</ele>
        <time>2020-06-08T08:05:14Z</time>
      </trkpt>
      <trkpt lat="48.00734" lon="-3.75774">
        <ele>146.7</ele>
        <time>2020-06-08T08:05:15Z</time>
      </trkpt>
      <trkpt lat="48.00735" lon="-3.75775">
        <ele>146.8</ele>
        <time>2020-06-08T08:05:16Z</time>
      </trkpt>
      <trkpt lat="48.00738" lon="-3.75777">
        <ele>146.9</ele>
        <time>2020-06-08T08:05:17Z</time>
      </trkpt>
      <trkpt lat="48.00739" lon="-3.75778">
        <ele>147</ele>
        <time>2020-06-08T08:05:18Z</time>
      </trkpt>
      <trkpt lat="48.00741" lon="-3.75779">
        <ele>147.1</ele>
        <time>2020-06-08T08:05:19Z</time>
      </trkpt>
      <trkpt lat="48.00742" lon="-3.7578">
        <ele>147.2</ele>
        <time>2020-06-08T08:05:20Z</time>
      </trkpt>
      <trkpt lat="48.00745" lon="-3.75783">
        <ele>147.3</ele>
        <time>2020-06-08T08:05:21Z</time>
      </trkpt>
      <trkpt lat="48.00746" lon="-3.75784">
        <ele>147.4</ele>
        <time>2020-06-08T08:05:22Z</time>
      </trkpt>
      <trkpt lat="48.0075" lon="-3.75787">
        <ele>147.6</ele>
        <time>2020-06-08T08:05:23Z</time>
      </trkpt>
      <trkpt lat="48.0075" lon="-3.75787">
        <ele>147.6</ele>
        <time>2020-06-08T08:05:24Z</time>
      </trkpt>
      <trkpt lat="48.00752" lon="-3.75789">
        <ele>147.7</ele>
        <time>2020-06-08T08:05:25Z</time>
      </trkpt>
      <trkpt lat="48.00753" lon="-3.7579">
        <ele>147.8</ele>
        <time>2020-06-08T08:05:26Z</time>
      </trkpt>
      <trkpt lat="48.00755" lon="-3.75792">
        <ele>147.9</ele>
        <time>2020-06-08T08:05:27Z</time>
      </trkpt>
      <trkpt lat="48.00756" lon="-3.75793">
        <ele>148</ele>
        <time>2020-06-08T08:05:28Z</time>
      </trkpt>
      <trkpt lat="48.00756" lon="-3.75793">
        <ele>148</ele>
        <time>2020-06-08T08:05:29Z</time>
      </trkpt>
      <trkpt lat="48.00757" lon="-3.75794">
        <ele>148</ele>
        <time>2020-06-08T08:05:30Z</time>
      </trkpt>
      <trkpt lat="48.00758" lon="-3.75794">
        <ele>148.1</ele>
        <time>2020-06-08T08:05:31Z</time>
      </trkpt>
      <trkpt lat="48.00758" lon="-3.75795">
        <ele>148.1</ele>
        <time>2020-06-08T08:05:32Z</time>
      </trkpt>
      <trkpt lat="48.00759" lon="-3.75795">
        <ele>148.1</ele>
        <time>2020-06-08T08:05:33Z</time>
      </trkpt>
      <trkpt lat="48.00759" lon="-3.75796">
        <ele>148.2</ele>
        <time>2020-06-08T08:05:34Z</time>
      </trkpt>
      <trkpt lat="48.0076" lon="-3.75796">
        <ele>148.2</ele>
        <time>2020-06-08T08:05:35Z</time>
      </trkpt>
      <trkpt lat="48.00761" lon="-3.75797">
        <ele>148.2</ele>
        <time>2020-06-08T08:05:36Z</time>
      </trkpt>
      <trkpt lat="48.00761" lon="-3.75798">
        <ele>148.3</ele>
        <time>2020-06-08T08:05:37Z</time>
      </trkpt>
      <trkpt lat="48.00762" lon="-3.75798">
        <ele>148.3</ele>
        <time>2020-06-08T08:05:38Z</time>
      </trkpt>
      <trkpt lat="48.00762" lon="-3.75799">
        <ele>148.3</ele>
        <time>2020-06-08T08:05:39Z</time>
      </trkpt>
      <trkpt lat="48.00763" lon="-3.75799">
        <ele>148.4</ele>
        <time>2020-06-08T08:05:47Z</time>
      </trkpt>
      <trkpt lat="48.00763" lon="-3.758">
        <ele>148.4</ele>
        <time>2020-06-08T08:05:48Z</time>
      </trkpt>
      <trkpt lat="48.00766" lon="-3.75801">
        <ele>148.5</ele>
        <time>2020-06-08T08:05:49Z</time>
      </trkpt>
      <trkpt lat="48.00769" lon="-3.75804">
        <ele>148.7</ele>
        <time>2020-06-08T08:05:50Z</time>
      </trkpt>
      <trkpt lat="48.00773" lon="-3.75804">
        <ele>148.9</ele>
        <time>2020-06-08T08:05:51Z</time>
      </trkpt>
      <trkpt lat="48.00774" lon="-3.75805">
        <ele>149</ele>
        <time>2020-06-08T08:05:52Z</time>
      </trkpt>
      <trkpt lat="48.00778" lon="-3.75808">
        <ele>149.2</ele>
        <time>2020-06-08T08:05:53Z</time>
      </trkpt>
      <trkpt lat="48.0078" lon="-3.7581">
        <ele>149.3</ele>
        <time>2020-06-08T08:05:54Z</time>
      </trkpt>
      <trkpt lat="48.00783" lon="-3.75812">
        <ele>149.5</ele>
        <time>2020-06-08T08:05:55Z</time>
      </trkpt>
      <trkpt lat="48.00784" lon="-3.75813">
        <ele>149.5</ele>
        <time>2020-06-08T08:05:56Z</time>
      </trkpt>
      <trkpt lat="48.00787" lon="-3.75816">
        <ele>149.7</ele>
        <time>2020-06-08T08:05:57Z</time>
      </trkpt>
      <trkpt lat="48.0079" lon="-3.75818">
        <ele>149.8</ele>
        <time>2020-06-08T08:05:58Z</time>
      </trkpt>
      <trkpt lat="48.00792" lon="-3.7582">
        <ele>150</ele>
        <time>2020-06-08T08:05:59Z</time>
      </trkpt>
      <trkpt lat="48.00795" lon="-3.75822">
        <ele>150.1</ele>
        <time>2020-06-08T08:06:00Z</time>
      </trkpt>
      <trkpt lat="48.00798" lon="-3.75824">
        <ele>150.3</ele>
        <time>2020-06-08T08:06:01Z</time>
      </trkpt>
      <trkpt lat="48.00801" lon="-3.75826">
        <ele>150.4</ele>
        <time>2020-06-08T08:06:02Z</time>
      </trkpt>
      <trkpt lat="48.00804" lon="-3.75828">
        <ele>150.6</ele>
        <time>2020-06-08T08:06:03Z</time>
      </trkpt>
      <trkpt lat="48.00808" lon="-3.75831">
        <ele>150.8</ele>
        <time>2020-06-08T08:06:04Z</time>
      </trkpt>
      <trkpt lat="48.00809" lon="-3.75831">
        <ele>150.8</ele>
        <time>2020-06-08T08:06:05Z</time>
      </trkpt>
      <trkpt lat="48.00812" lon="-3.75834">
        <ele>151</ele>
        <time>2020-06-08T08:06:06Z</time>
      </trkpt>
      <trkpt lat="48.00815" lon="-3.75836">
        <ele>151.2</ele>
        <time>2020-06-08T08:06:07Z</time>
      </trkpt>
      <trkpt lat="48.00819" lon="-3.75838">
        <ele>151.4</ele>
        <time>2020-06-08T08:06:08Z</time>
      </trkpt>
      <trkpt lat="48.00821" lon="-3.7584">
        <ele>151.5</ele>
        <time>2020-06-08T08:06:09Z</time>
      </trkpt>
      <trkpt lat="48.00824" lon="-3.75842">
        <ele>151.6</ele>
        <time>2020-06-08T08:06:10Z</time>
      </trkpt>
      <trkpt lat="48.00827" lon="-3.75844">
        <ele>151.8</ele>
        <time>2020-06-08T08:06:11Z</time>
      </trkpt>
      <trkpt lat="48.00829" lon="-3.75844">
        <ele>151.9</ele>
        <time>2020-06-08T08:06:12Z</time>
      </trkpt>
      <trkpt lat="48.00831" lon="-3.75846">
        <ele>152</ele>
        <time>2020-06-08T08:06:13Z</time>
      </trkpt>
      <trkpt lat="48.00835" lon="-3.75848">
        <ele>152.2</ele>
        <time>2020-06-08T08:06:14Z</time>
      </trkpt>
      <trkpt lat="48.00836" lon="-3.75849">
        <ele>152.2</ele>
        <time>2020-06-08T08:06:15Z</time>
      </trkpt>
      <trkpt lat="48.00838" lon="-3.75852">
        <ele>152.4</ele>
        <time>2020-06-08T08:06:16Z</time>
      </trkpt>
      <trkpt lat="48.00839" lon="-3.75853">
        <ele>152.5</ele>
        <time>2020-06-08T08:06:17Z</time>
      </trkpt>
      <trkpt lat="48.00843" lon="-3.75854">
        <ele>152.6</ele>
        <time>2020-06-08T08:06:18Z</time>
      </trkpt>
      <trkpt lat="48.00844" lon="-3.75855">
        <ele>152.7</ele>
        <time>2020-06-08T08:06:19Z</time>
      </trkpt>
      <trkpt lat="48.00846" lon="-3.75857">
        <ele>152.8</ele>
        <time>2020-06-08T08:06:20Z</time>
      </trkpt>
      <trkpt lat="48.0085" lon="-3.7586">
        <ele>153</ele>
        <time>2020-06-08T08:06:21Z</time>
      </trkpt>
      <trkpt lat="48.00851" lon="-3.75862">
        <ele>153.1</ele>
        <time>2020-06-08T08:06:22Z</time>
      </trkpt>
      <trkpt lat="48.00855" lon="-3.75864">
        <ele>153.3</ele>
        <time>2020-06-08T08:06:23Z</time>
      </trkpt>
      <trkpt lat="48.00856" lon="-3.75865">
        <ele>153.4</ele>
        <time>2020-06-08T08:06:24Z</time>
      </trkpt>
      <trkpt lat="48.00859" lon="-3.75868">
        <ele>153.5</ele>
        <time>2020-06-08T08:06:25Z</time>
      </trkpt>
      <trkpt lat="48.00861" lon="-3.75871">
        <ele>153.7</ele>
        <time>2020-06-08T08:06:26Z</time>
      </trkpt>
      <trkpt lat="48.00862" lon="-3.75872">
        <ele>153.7</ele>
        <time>2020-06-08T08:06:27Z</time>
      </trkpt>
      <trkpt lat="48.00865" lon="-3.75875">
        <ele>153.9</ele>
        <time>2020-06-08T08:06:28Z</time>
      </trkpt>
      <trkpt lat="48.00866" lon="-3.75876">
        <ele>154</ele>
        <time>2020-06-08T08:06:29Z</time>
      </trkpt>
      <trkpt lat="48.00869" lon="-3.75879">
        <ele>154.1</ele>
        <time>2020-06-08T08:06:30Z</time>
      </trkpt>
      <trkpt lat="48.00872" lon="-3.7588">
        <ele>154.3</ele>
        <time>2020-06-08T08:06:31Z</time>
      </trkpt>
      <trkpt lat="48.00875" lon="-3.75881">
        <ele>154.5</ele>
        <time>2020-06-08T08:06:32Z</time>
      </trkpt>
      <trkpt lat="48.00877" lon="-3.75881">
        <ele>154.5</ele>
        <time>2020-06-08T08:06:33Z</time>
      </trkpt>
      <trkpt lat="48.0088" lon="-3.75884">
        <ele>154.7</ele>
        <time>2020-06-08T08:06:34Z</time>
      </trkpt>
      <trkpt lat="48.00881" lon="-3.75885">
        <ele>154.8</ele>
        <time>2020-06-08T08:06:35Z</time>
      </trkpt>
      <trkpt lat="48.00884" lon="-3.75887">
        <ele>154.9</ele>
        <time>2020-06-08T08:06:36Z</time>
      </trkpt>
      <trkpt lat="48.00886" lon="-3.75888">
        <ele>155</ele>
        <time>2020-06-08T08:06:37Z</time>
      </trkpt>
      <trkpt lat="48.00889" lon="-3.7589">
        <ele>155.2</ele>
        <time>2020-06-08T08:06:38Z</time>
      </trkpt>
      <trkpt lat="48.0089" lon="-3.75891">
        <ele>155.2</ele>
        <time>2020-06-08T08:06:39Z</time>
      </trkpt>
      <trkpt lat="48.00893" lon="-3.75892">
        <ele>155.4</ele>
        <time>2020-06-08T08:06:40Z</time>
      </trkpt>
      <trkpt lat="48.00896" lon="-3.75894">
        <ele>155.6</ele>
        <time>2020-06-08T08:06:41Z</time>
      </trkpt>
      <trkpt lat="48.00898" lon="-3.75895">
        <ele>155.6</ele>
        <time>2020-06-08T08:06:42Z</time>
      </trkpt>
      <trkpt lat="48.00901" lon="-3.75898">
        <ele>155.8</ele>
        <time>2020-06-08T08:06:43Z</time>
      </trkpt>
      <trkpt lat="48.00902" lon="-3.75898">
        <ele>155.9</ele>
        <time>2020-06-08T08:06:44Z</time>
      </trkpt>
      <trkpt lat="48.00904" lon="-3.759">
        <ele>156</ele>
        <time>2020-06-08T08:06:45Z</time>
      </trkpt>
      <trkpt lat="48.00905" lon="-3.75901">
        <ele>156</ele>
        <time>2020-06-08T08:06:46Z</time>
      </trkpt>
      <trkpt lat="48.00907" lon="-3.75905">
        <ele>156.2</ele>
        <time>2020-06-08T08:06:47Z</time>
      </trkpt>
      <trkpt lat="48.00911" lon="-3.75908">
        <ele>156.4</ele>
        <time>2020-06-08T08:06:48Z</time>
      </trkpt>
      <trkpt lat="48.00913" lon="-3.75909">
        <ele>156.5</ele>
        <time>2020-06-08T08:06:49Z</time>
      </trkpt>
      <trkpt lat="48.00916" lon="-3.75911">
        <ele>156.7</ele>
        <time>2020-06-08T08:06:50Z</time>
      </trkpt>
      <trkpt lat="48.00917" lon="-3.75912">
        <ele>156.7</ele>
        <time>2020-06-08T08:06:51Z</time>
      </trkpt>
      <trkpt lat="48.00921" lon="-3.75912">
        <ele>156.9</ele>
        <time>2020-06-08T08:06:52Z</time>
      </trkpt>
      <trkpt lat="48.00922" lon="-3.75912">
        <ele>156.9</ele>
        <time>2020-06-08T08:06:53Z</time>
      </trkpt>
      <trkpt lat="48.00925" lon="-3.75913">
        <ele>157.1</ele>
        <time>2020-06-08T08:06:54Z</time>
      </trkpt>
      <trkpt lat="48.00926" lon="-3.75913">
        <ele>157.1</ele>
        <time>2020-06-08T08:06:55Z</time>
      </trkpt>
      <trkpt lat="48.00929" lon="-3.75915">
        <ele>157.3</ele>
        <time>2020-06-08T08:06:56Z</time>
      </trkpt>
      <trkpt lat="48.0093" lon="-3.75915">
        <ele>157.3</ele>
        <time>2020-06-08T08:06:57Z</time>
      </trkpt>
      <trkpt lat="48.00934" lon="-3.75916">
        <ele>157.4</ele>
        <time>2020-06-08T08:06:58Z</time>
      </trkpt>
      <trkpt lat="48.00935" lon="-3.75917">
        <ele>157.5</ele>
        <time>2020-06-08T08:06:59Z</time>
      </trkpt>
      <trkpt lat="48.00939" lon="-3.75919">
        <ele>157.7</ele>
        <time>2020-06-08T08:07:00Z</time>
      </trkpt>
      <trkpt lat="48.0094" lon="-3.75919">
        <ele>157.7</ele>
        <time>2020-06-08T08:07:01Z</time>
      </trkpt>
      <trkpt lat="48.00944" lon="-3.75921">
        <ele>157.9</ele>
        <time>2020-06-08T08:07:02Z</time>
      </trkpt>
      <trkpt lat="48.00945" lon="-3.75922">
        <ele>157.9</ele>
        <time>2020-06-08T08:07:03Z</time>
      </trkpt>
      <trkpt lat="48.00947" lon="-3.75924">
        <ele>158.1</ele>
        <time>2020-06-08T08:07:04Z</time>
      </trkpt>
      <trkpt lat="48.0095" lon="-3.75925">
        <ele>158.2</ele>
        <time>2020-06-08T08:07:05Z</time>
      </trkpt>
      <trkpt lat="48.00953" lon="-3.75926">
        <ele>158.3</ele>
        <time>2020-06-08T08:07:06Z</time>
      </trkpt>
      <trkpt lat="48.00956" lon="-3.75927">
        <ele>158.4</ele>
        <time>2020-06-08T08:07:07Z</time>
      </trkpt>
      <trkpt lat="48.00959" lon="-3.75928">
        <ele>158.6</ele>
        <time>2020-06-08T08:07:08Z</time>
      </trkpt>
      <trkpt lat="48.00962" lon="-3.75931">
        <ele>158.7</ele>
        <time>2020-06-08T08:07:09Z</time>
      </trkpt>
      <trkpt lat="48.00965" lon="-3.75933">
        <ele>158.8</ele>
        <time>2020-06-08T08:07:10Z</time>
      </trkpt>
      <trkpt lat="48.00968" lon="-3.75935">
        <ele>159</ele>
        <time>2020-06-08T08:07:11Z</time>
      </trkpt>
      <trkpt lat="48.00971" lon="-3.75936">
        <ele>159.1</ele>
        <time>2020-06-08T08:07:12Z</time>
      </trkpt>
      <trkpt lat="48.00973" lon="-3.75937">
        <ele>159.2</ele>
        <time>2020-06-08T08:07:13Z</time>
      </trkpt>
      <trkpt lat="48.00976" lon="-3.75938">
        <ele>159.3</ele>
        <time>2020-06-08T08:07:14Z</time>
      </trkpt>
      <trkpt lat="48.00977" lon="-3.75939">
        <ele>159.4</ele>
        <time>2020-06-08T08:07:15Z</time>
      </trkpt>
      <trkpt lat="48.00981" lon="-3.75941">
        <ele>159.5</ele>
        <time>2020-06-08T08:07:16Z</time>
      </trkpt>
      <trkpt lat="48.00982" lon="-3.75941">
        <ele>159.6</ele>
        <time>2020-06-08T08:07:17Z</time>
      </trkpt>
      <trkpt lat="48.00986" lon="-3.75941">
        <ele>159.8</ele>
        <time>2020-06-08T08:07:18Z</time>
      </trkpt>
      <trkpt lat="48.00987" lon="-3.75941">
        <ele>159.8</ele>
        <time>2020-06-08T08:07:19Z</time>
      </trkpt>
      <trkpt lat="48.00991" lon="-3.7594">
        <ele>160</ele>
        <time>2020-06-08T08:07:20Z</time>
      </trkpt>
      <trkpt lat="48.00994" lon="-3.7594">
        <ele>160.1</ele>
        <time>2020-06-08T08:07:21Z</time>
      </trkpt>
      <trkpt lat="48.00996" lon="-3.75939">
        <ele>160.2</ele>
        <time>2020-06-08T08:07:22Z</time>
      </trkpt>
      <trkpt lat="48.00999" lon="-3.75937">
        <ele>160.3</ele>
        <time>2020-06-08T08:07:23Z</time>
      </trkpt>
      <trkpt lat="48.01001" lon="-3.75936">
        <ele>160.4</ele>
        <time>2020-06-08T08:07:24Z</time>
      </trkpt>
      <trkpt lat="48.01003" lon="-3.75934">
        <ele>160.5</ele>
        <time>2020-06-08T08:07:25Z</time>
      </trkpt>
      <trkpt lat="48.01006" lon="-3.75931">
        <ele>160.7</ele>
        <time>2020-06-08T08:07:26Z</time>
      </trkpt>
      <trkpt lat="48.01008" lon="-3.75929">
        <ele>160.8</ele>
        <time>2020-06-08T08:07:27Z</time>
      </trkpt>
      <trkpt lat="48.01011" lon="-3.75927">
        <ele>160.9</ele>
        <time>2020-06-08T08:07:28Z</time>
      </trkpt>
      <trkpt lat="48.01014" lon="-3.75924">
        <ele>161.1</ele>
        <time>2020-06-08T08:07:29Z</time>
      </trkpt>
      <trkpt lat="48.01017" lon="-3.75921">
        <ele>161.2</ele>
        <time>2020-06-08T08:07:30Z</time>
      </trkpt>
      <trkpt lat="48.01019" lon="-3.75919">
        <ele>161.3</ele>
        <time>2020-06-08T08:07:31Z</time>
      </trkpt>
      <trkpt lat="48.01022" lon="-3.75916">
        <ele>161.5</ele>
        <time>2020-06-08T08:07:32Z</time>
      </trkpt>
      <trkpt lat="48.01025" lon="-3.75916">
        <ele>161.6</ele>
        <time>2020-06-08T08:07:33Z</time>
      </trkpt>
      <trkpt lat="48.01029" lon="-3.75915">
        <ele>161.7</ele>
        <time>2020-06-08T08:07:34Z</time>
      </trkpt>
      <trkpt lat="48.01032" lon="-3.75914">
        <ele>161.9</ele>
        <time>2020-06-08T08:07:35Z</time>
      </trkpt>
      <trkpt lat="48.01036" lon="-3.75913">
        <ele>162.1</ele>
        <time>2020-06-08T08:07:36Z</time>
      </trkpt>
      <trkpt lat="48.0104" lon="-3.75913">
        <ele>162.2</ele>
        <time>2020-06-08T08:07:37Z</time>
      </trkpt>
      <trkpt lat="48.01043" lon="-3.75913">
        <ele>162.3</ele>
        <time>2020-06-08T08:07:38Z</time>
      </trkpt>
      <trkpt lat="48.01047" lon="-3.75916">
        <ele>162.5</ele>
        <time>2020-06-08T08:07:39Z</time>
      </trkpt>
      <trkpt lat="48.01049" lon="-3.7592">
        <ele>162.7</ele>
        <time>2020-06-08T08:07:40Z</time>
      </trkpt>
      <trkpt lat="48.01053" lon="-3.75923">
        <ele>162.8</ele>
        <time>2020-06-08T08:07:41Z</time>
      </trkpt>
      <trkpt lat="48.01053" lon="-3.75925">
        <ele>162.9</ele>
        <time>2020-06-08T08:07:42Z</time>
      </trkpt>
      <trkpt lat="48.01055" lon="-3.7593">
        <ele>163.1</ele>
        <time>2020-06-08T08:07:43Z</time>
      </trkpt>
      <trkpt lat="48.01056" lon="-3.75932">
        <ele>163.1</ele>
        <time>2020-06-08T08:07:44Z</time>
      </trkpt>
      <trkpt lat="48.01057" lon="-3.75936">
        <ele>163.2</ele>
        <time>2020-06-08T08:07:45Z</time>
      </trkpt>
      <trkpt lat="48.01058" lon="-3.75941">
        <ele>163.4</ele>
        <time>2020-06-08T08:07:46Z</time>
      </trkpt>
      <trkpt lat="48.01059" lon="-3.75945">
        <ele>163.5</ele>
        <time>2020-06-08T08:07:47Z</time>
      </trkpt>
      <trkpt lat="48.0106" lon="-3.75948">
        <ele>163.6</ele>
        <time>2020-06-08T08:07:48Z</time>
      </trkpt>
      <trkpt lat="48.0106" lon="-3.7595">
        <ele>163.7</ele>
        <time>2020-06-08T08:07:49Z</time>
      </trkpt>
      <trkpt lat="48.01062" lon="-3.75953">
        <ele>163.8</ele>
        <time>2020-06-08T08:07:50Z</time>
      </trkpt>
      <trkpt lat="48.01063" lon="-3.75954">
        <ele>163.8</ele>
        <time>2020-06-08T08:07:51Z</time>
      </trkpt>
      <trkpt lat="48.01064" lon="-3.75958">
        <ele>163.9</ele>
        <time>2020-06-08T08:07:52Z</time>
      </trkpt>
      <trkpt lat="48.01064" lon="-3.75959">
        <ele>164</ele>
        <time>2020-06-08T08:07:53Z</time>
      </trkpt>
      <trkpt lat="48.01067" lon="-3.75964">
        <ele>164.1</ele>
        <time>2020-06-08T08:07:54Z</time>
      </trkpt>
      <trkpt lat="48.01068" lon="-3.75965">
        <ele>164.2</ele>
        <time>2020-06-08T08:07:55Z</time>
      </trkpt>
      <trkpt lat="48.0107" lon="-3.75968">
        <ele>164.3</ele>
        <time>2020-06-08T08:07:56Z</time>
      </trkpt>
      <trkpt lat="48.01073" lon="-3.75971">
        <ele>164.5</ele>
        <time>2020-06-08T08:07:57Z</time>
      </trkpt>
      <trkpt lat="48.01074" lon="-3.75971">
        <ele>164.5</ele>
        <time>2020-06-08T08:07:58Z</time>
      </trkpt>
      <trkpt lat="48.01078" lon="-3.7597">
        <ele>164.7</ele>
        <time>2020-06-08T08:07:59Z</time>
      </trkpt>
      <trkpt lat="48.01079" lon="-3.75968">
        <ele>164.7</ele>
        <time>2020-06-08T08:08:00Z</time>
      </trkpt>
      <trkpt lat="48.01082" lon="-3.75965">
        <ele>164.3</ele>
        <time>2020-06-08T08:08:01Z</time>
      </trkpt>
      <trkpt lat="48.01084" lon="-3.75961">
        <ele>164</ele>
        <time>2020-06-08T08:08:02Z</time>
      </trkpt>
      <trkpt lat="48.01085" lon="-3.75956">
        <ele>163.7</ele>
        <time>2020-06-08T08:08:03Z</time>
      </trkpt>
      <trkpt lat="48.01086" lon="-3.7595">
        <ele>163.4</ele>
        <time>2020-06-08T08:08:04Z</time>
      </trkpt>
      <trkpt lat="48.01087" lon="-3.75945">
        <ele>163.2</ele>
        <time>2020-06-08T08:08:05Z</time>
      </trkpt>
      <trkpt lat="48.01089" lon="-3.75939">
        <ele>162.8</ele>
        <time>2020-06-08T08:08:06Z</time>
      </trkpt>
      <trkpt lat="48.0109" lon="-3.75934">
        <ele>162.5</ele>
        <time>2020-06-08T08:08:07Z</time>
      </trkpt>
      <trkpt lat="48.01092" lon="-3.75929">
        <ele>162.2</ele>
        <time>2020-06-08T08:08:08Z</time>
      </trkpt>
      <trkpt lat="48.01093" lon="-3.75923">
        <ele>161.9</ele>
        <time>2020-06-08T08:08:09Z</time>
      </trkpt>
      <trkpt lat="48.01095" lon="-3.75917">
        <ele>161.6</ele>
        <time>2020-06-08T08:08:10Z</time>
      </trkpt>
      <trkpt lat="48.01097" lon="-3.75912">
        <ele>161.3</ele>
        <time>2020-06-08T08:08:11Z</time>
      </trkpt>
      <trkpt lat="48.01099" lon="-3.75907">
        <ele>161</ele>
        <time>2020-06-08T08:08:12Z</time>
      </trkpt>
      <trkpt lat="48.01101" lon="-3.75901">
        <ele>160.7</ele>
        <time>2020-06-08T08:08:13Z</time>
      </trkpt>
      <trkpt lat="48.01103" lon="-3.75896">
        <ele>160.4</ele>
        <time>2020-06-08T08:08:14Z</time>
      </trkpt>
      <trkpt lat="48.01105" lon="-3.75891">
        <ele>160.1</ele>
        <time>2020-06-08T08:08:15Z</time>
      </trkpt>
      <trkpt lat="48.01107" lon="-3.75886">
        <ele>159.7</ele>
        <time>2020-06-08T08:08:16Z</time>
      </trkpt>
      <trkpt lat="48.01109" lon="-3.7588">
        <ele>159.4</ele>
        <time>2020-06-08T08:08:17Z</time>
      </trkpt>
      <trkpt lat="48.01111" lon="-3.75874">
        <ele>159.1</ele>
        <time>2020-06-08T08:08:18Z</time>
      </trkpt>
      <trkpt lat="48.01113" lon="-3.75869">
        <ele>158.8</ele>
        <time>2020-06-08T08:08:19Z</time>
      </trkpt>
      <trkpt lat="48.01114" lon="-3.75863">
        <ele>158.4</ele>
        <time>2020-06-08T08:08:20Z</time>
      </trkpt>
      <trkpt lat="48.01116" lon="-3.75857">
        <ele>158.1</ele>
        <time>2020-06-08T08:08:21Z</time>
      </trkpt>
      <trkpt lat="48.01118" lon="-3.75852">
        <ele>157.8</ele>
        <time>2020-06-08T08:08:22Z</time>
      </trkpt>
      <trkpt lat="48.0112" lon="-3.75847">
        <ele>157.5</ele>
        <time>2020-06-08T08:08:23Z</time>
      </trkpt>
      <trkpt lat="48.01122" lon="-3.75841">
        <ele>157.2</ele>
        <time>2020-06-08T08:08:24Z</time>
      </trkpt>
      <trkpt lat="48.01125" lon="-3.75837">
        <ele>156.8</ele>
        <time>2020-06-08T08:08:25Z</time>
      </trkpt>
      <trkpt lat="48.01127" lon="-3.75831">
        <ele>156.5</ele>
        <time>2020-06-08T08:08:26Z</time>
      </trkpt>
      <trkpt lat="48.01129" lon="-3.75824">
        <ele>156.1</ele>
        <time>2020-06-08T08:08:27Z</time>
      </trkpt>
      <trkpt lat="48.01132" lon="-3.7582">
        <ele>155.8</ele>
        <time>2020-06-08T08:08:28Z</time>
      </trkpt>
      <trkpt lat="48.01134" lon="-3.75815">
        <ele>155.5</ele>
        <time>2020-06-08T08:08:29Z</time>
      </trkpt>
      <trkpt lat="48.01135" lon="-3.75809">
        <ele>155.2</ele>
        <time>2020-06-08T08:08:30Z</time>
      </trkpt>
      <trkpt lat="48.01136" lon="-3.75803">
        <ele>154.9</ele>
        <time>2020-06-08T08:08:31Z</time>
      </trkpt>
      <trkpt lat="48.01137" lon="-3.75797">
        <ele>154.5</ele>
        <time>2020-06-08T08:08:32Z</time>
      </trkpt>
      <trkpt lat="48.01138" lon="-3.75792">
        <ele>154.3</ele>
        <time>2020-06-08T08:08:33Z</time>
      </trkpt>
      <trkpt lat="48.01139" lon="-3.75787">
        <ele>154</ele>
        <time>2020-06-08T08:08:34Z</time>
      </trkpt>
      <trkpt lat="48.0114" lon="-3.75783">
        <ele>153.8</ele>
        <time>2020-06-08T08:08:35Z</time>
      </trkpt>
      <trkpt lat="48.01143" lon="-3.75777">
        <ele>153.4</ele>
        <time>2020-06-08T08:08:36Z</time>
      </trkpt>
      <trkpt lat="48.01145" lon="-3.75771">
        <ele>153</ele>
        <time>2020-06-08T08:08:37Z</time>
      </trkpt>
      <trkpt lat="48.01148" lon="-3.75765">
        <ele>152.7</ele>
        <time>2020-06-08T08:08:38Z</time>
      </trkpt>
      <trkpt lat="48.0115" lon="-3.75759">
        <ele>152.3</ele>
        <time>2020-06-08T08:08:39Z</time>
      </trkpt>
      <trkpt lat="48.01151" lon="-3.75753">
        <ele>152</ele>
        <time>2020-06-08T08:08:40Z</time>
      </trkpt>
      <trkpt lat="48.01153" lon="-3.75748">
        <ele>151.7</ele>
        <time>2020-06-08T08:08:41Z</time>
      </trkpt>
      <trkpt lat="48.01156" lon="-3.75745">
        <ele>151.4</ele>
        <time>2020-06-08T08:08:42Z</time>
      </trkpt>
      <trkpt lat="48.01159" lon="-3.75742">
        <ele>151.1</ele>
        <time>2020-06-08T08:08:43Z</time>
      </trkpt>
      <trkpt lat="48.01163" lon="-3.75739">
        <ele>150.8</ele>
        <time>2020-06-08T08:08:44Z</time>
      </trkpt>
      <trkpt lat="48.01168" lon="-3.75735">
        <ele>150.4</ele>
        <time>2020-06-08T08:08:45Z</time>
      </trkpt>
      <trkpt lat="48.01172" lon="-3.75733">
        <ele>150.1</ele>
        <time>2020-06-08T08:08:46Z</time>
      </trkpt>
      <trkpt lat="48.01175" lon="-3.75731">
        <ele>149.8</ele>
        <time>2020-06-08T08:08:47Z</time>
      </trkpt>
      <trkpt lat="48.01178" lon="-3.75728">
        <ele>149.5</ele>
        <time>2020-06-08T08:08:48Z</time>
      </trkpt>
      <trkpt lat="48.01181" lon="-3.75726">
        <ele>149.3</ele>
        <time>2020-06-08T08:08:49Z</time>
      </trkpt>
      <trkpt lat="48.01184" lon="-3.75724">
        <ele>149</ele>
        <time>2020-06-08T08:08:50Z</time>
      </trkpt>
      <trkpt lat="48.01188" lon="-3.75723">
        <ele>148.8</ele>
        <time>2020-06-08T08:08:51Z</time>
      </trkpt>
      <trkpt lat="48.01191" lon="-3.75723">
        <ele>148.5</ele>
        <time>2020-06-08T08:08:52Z</time>
      </trkpt>
      <trkpt lat="48.01194" lon="-3.75722">
        <ele>148.3</ele>
        <time>2020-06-08T08:08:53Z</time>
      </trkpt>
      <trkpt lat="48.01197" lon="-3.7572">
        <ele>148</ele>
        <time>2020-06-08T08:08:54Z</time>
      </trkpt>
      <trkpt lat="48.012" lon="-3.75716">
        <ele>147.7</ele>
        <time>2020-06-08T08:08:55Z</time>
      </trkpt>
      <trkpt lat="48.01203" lon="-3.7571">
        <ele>147.3</ele>
        <time>2020-06-08T08:08:56Z</time>
      </trkpt>
      <trkpt lat="48.01203" lon="-3.75704">
        <ele>147</ele>
        <time>2020-06-08T08:08:57Z</time>
      </trkpt>
      <trkpt lat="48.01204" lon="-3.75696">
        <ele>146.9</ele>
        <time>2020-06-08T08:08:58Z</time>
      </trkpt>
      <trkpt lat="48.01203" lon="-3.7569">
        <ele>146.8</ele>
        <time>2020-06-08T08:08:59Z</time>
      </trkpt>
      <trkpt lat="48.01202" lon="-3.75685">
        <ele>146.8</ele>
        <time>2020-06-08T08:09:00Z</time>
      </trkpt>
      <trkpt lat="48.01202" lon="-3.75678">
        <ele>146.7</ele>
        <time>2020-06-08T08:09:01Z</time>
      </trkpt>
      <trkpt lat="48.01201" lon="-3.75673">
        <ele>146.7</ele>
        <time>2020-06-08T08:09:02Z</time>
      </trkpt>
      <trkpt lat="48.01201" lon="-3.75666">
        <ele>146.7</ele>
        <time>2020-06-08T08:09:03Z</time>
      </trkpt>
      <trkpt lat="48.012" lon="-3.7566">
        <ele>146.6</ele>
        <time>2020-06-08T08:09:04Z</time>
      </trkpt>
      <trkpt lat="48.012" lon="-3.75654">
        <ele>146.6</ele>
        <time>2020-06-08T08:09:05Z</time>
      </trkpt>
      <trkpt lat="48.01199" lon="-3.75648">
        <ele>146.6</ele>
        <time>2020-06-08T08:09:06Z</time>
      </trkpt>
      <trkpt lat="48.01198" lon="-3.75643">
        <ele>146.7</ele>
        <time>2020-06-08T08:09:07Z</time>
      </trkpt>
      <trkpt lat="48.01198" lon="-3.75637">
        <ele>146.7</ele>
        <time>2020-06-08T08:09:08Z</time>
      </trkpt>
      <trkpt lat="48.01197" lon="-3.75632">
        <ele>146.7</ele>
        <time>2020-06-08T08:09:09Z</time>
      </trkpt>
      <trkpt lat="48.01196" lon="-3.75626">
        <ele>146.8</ele>
        <time>2020-06-08T08:09:10Z</time>
      </trkpt>
      <trkpt lat="48.01196" lon="-3.75621">
        <ele>146.8</ele>
        <time>2020-06-08T08:09:11Z</time>
      </trkpt>
      <trkpt lat="48.01196" lon="-3.75616">
        <ele>146.9</ele>
        <time>2020-06-08T08:09:12Z</time>
      </trkpt>
      <trkpt lat="48.01195" lon="-3.7561">
        <ele>147</ele>
        <time>2020-06-08T08:09:13Z</time>
      </trkpt>
      <trkpt lat="48.01194" lon="-3.75604">
        <ele>147</ele>
        <time>2020-06-08T08:09:14Z</time>
      </trkpt>
      <trkpt lat="48.01193" lon="-3.75598">
        <ele>147.1</ele>
        <time>2020-06-08T08:09:15Z</time>
      </trkpt>
      <trkpt lat="48.01192" lon="-3.75591">
        <ele>147.2</ele>
        <time>2020-06-08T08:09:16Z</time>
      </trkpt>
      <trkpt lat="48.01192" lon="-3.75584">
        <ele>147.3</ele>
        <time>2020-06-08T08:09:17Z</time>
      </trkpt>
      <trkpt lat="48.01192" lon="-3.75579">
        <ele>147.4</ele>
        <time>2020-06-08T08:09:18Z</time>
      </trkpt>
      <trkpt lat="48.01192" lon="-3.75574">
        <ele>147.5</ele>
        <time>2020-06-08T08:09:19Z</time>
      </trkpt>
      <trkpt lat="48.01192" lon="-3.75567">
        <ele>147.6</ele>
        <time>2020-06-08T08:09:20Z</time>
      </trkpt>
      <trkpt lat="48.01193" lon="-3.75561">
        <ele>147.7</ele>
        <time>2020-06-08T08:09:21Z</time>
      </trkpt>
      <trkpt lat="48.01192" lon="-3.75554">
        <ele>147.8</ele>
        <time>2020-06-08T08:09:22Z</time>
      </trkpt>
      <trkpt lat="48.01192" lon="-3.75548">
        <ele>147.9</ele>
        <time>2020-06-08T08:09:23Z</time>
      </trkpt>
      <trkpt lat="48.01192" lon="-3.75543">
        <ele>148</ele>
        <time>2020-06-08T08:09:24Z</time>
      </trkpt>
      <trkpt lat="48.01191" lon="-3.75538">
        <ele>148.1</ele>
        <time>2020-06-08T08:09:25Z</time>
      </trkpt>
      <trkpt lat="48.0119" lon="-3.75532">
        <ele>148.2</ele>
        <time>2020-06-08T08:09:26Z</time>
      </trkpt>
      <trkpt lat="48.0119" lon="-3.75527">
        <ele>148.4</ele>
        <time>2020-06-08T08:09:27Z</time>
      </trkpt>
      <trkpt lat="48.0119" lon="-3.75521">
        <ele>148.5</ele>
        <time>2020-06-08T08:09:28Z</time>
      </trkpt>
      <trkpt lat="48.0119" lon="-3.75515">
        <ele>148.6</ele>
        <time>2020-06-08T08:09:29Z</time>
      </trkpt>
      <trkpt lat="48.01189" lon="-3.7551">
        <ele>148.7</ele>
        <time>2020-06-08T08:09:30Z</time>
      </trkpt>
      <trkpt lat="48.01189" lon="-3.75505">
        <ele>148.9</ele>
        <time>2020-06-08T08:09:31Z</time>
      </trkpt>
      <trkpt lat="48.01189" lon="-3.755">
        <ele>149</ele>
        <time>2020-06-08T08:09:32Z</time>
      </trkpt>
      <trkpt lat="48.01189" lon="-3.75495">
        <ele>149.1</ele>
        <time>2020-06-08T08:09:33Z</time>
      </trkpt>
      <trkpt lat="48.0119" lon="-3.75489">
        <ele>149.3</ele>
        <time>2020-06-08T08:09:34Z</time>
      </trkpt>
      <trkpt lat="48.0119" lon="-3.75486">
        <ele>149.3</ele>
        <time>2020-06-08T08:09:35Z</time>
      </trkpt>
      <trkpt lat="48.01191" lon="-3.7548">
        <ele>149.5</ele>
        <time>2020-06-08T08:09:36Z</time>
      </trkpt>
      <trkpt lat="48.01191" lon="-3.75475">
        <ele>149.6</ele>
        <time>2020-06-08T08:09:37Z</time>
      </trkpt>
      <trkpt lat="48.0119" lon="-3.7547">
        <ele>149.7</ele>
        <time>2020-06-08T08:09:38Z</time>
      </trkpt>
      <trkpt lat="48.01191" lon="-3.75464">
        <ele>149.9</ele>
        <time>2020-06-08T08:09:39Z</time>
      </trkpt>
      <trkpt lat="48.01191" lon="-3.75459">
        <ele>150</ele>
        <time>2020-06-08T08:09:40Z</time>
      </trkpt>
      <trkpt lat="48.01191" lon="-3.75454">
        <ele>150.1</ele>
        <time>2020-06-08T08:09:41Z</time>
      </trkpt>
      <trkpt lat="48.0119" lon="-3.75449">
        <ele>150.2</ele>
        <time>2020-06-08T08:09:42Z</time>
      </trkpt>
      <trkpt lat="48.0119" lon="-3.75445">
        <ele>150.3</ele>
        <time>2020-06-08T08:09:43Z</time>
      </trkpt>
      <trkpt lat="48.01191" lon="-3.7544">
        <ele>150.5</ele>
        <time>2020-06-08T08:09:44Z</time>
      </trkpt>
      <trkpt lat="48.01192" lon="-3.75435">
        <ele>150.6</ele>
        <time>2020-06-08T08:09:45Z</time>
      </trkpt>
      <trkpt lat="48.01193" lon="-3.7543">
        <ele>150.7</ele>
        <time>2020-06-08T08:09:46Z</time>
      </trkpt>
      <trkpt lat="48.01193" lon="-3.75428">
        <ele>150.8</ele>
        <time>2020-06-08T08:09:47Z</time>
      </trkpt>
      <trkpt lat="48.01193" lon="-3.75423">
        <ele>150.9</ele>
        <time>2020-06-08T08:09:48Z</time>
      </trkpt>
      <trkpt lat="48.01194" lon="-3.75418">
        <ele>151</ele>
        <time>2020-06-08T08:09:49Z</time>
      </trkpt>
      <trkpt lat="48.01195" lon="-3.75416">
        <ele>151</ele>
        <time>2020-06-08T08:09:50Z</time>
      </trkpt>
      <trkpt lat="48.01195" lon="-3.7541">
        <ele>151.1</ele>
        <time>2020-06-08T08:09:51Z</time>
      </trkpt>
      <trkpt lat="48.01195" lon="-3.75408">
        <ele>151.2</ele>
        <time>2020-06-08T08:09:52Z</time>
      </trkpt>
      <trkpt lat="48.01195" lon="-3.75403">
        <ele>151.2</ele>
        <time>2020-06-08T08:09:53Z</time>
      </trkpt>
      <trkpt lat="48.01196" lon="-3.75396">
        <ele>151.4</ele>
        <time>2020-06-08T08:09:54Z</time>
      </trkpt>
      <trkpt lat="48.01196" lon="-3.75392">
        <ele>151.4</ele>
        <time>2020-06-08T08:09:55Z</time>
      </trkpt>
      <trkpt lat="48.01195" lon="-3.75388">
        <ele>151.5</ele>
        <time>2020-06-08T08:09:56Z</time>
      </trkpt>
      <trkpt lat="48.01195" lon="-3.75381">
        <ele>151.6</ele>
        <time>2020-06-08T08:09:57Z</time>
      </trkpt>
      <trkpt lat="48.01195" lon="-3.75375">
        <ele>151.7</ele>
        <time>2020-06-08T08:09:58Z</time>
      </trkpt>
      <trkpt lat="48.01196" lon="-3.75371">
        <ele>151.8</ele>
        <time>2020-06-08T08:09:59Z</time>
      </trkpt>
      <trkpt lat="48.01197" lon="-3.75364">
        <ele>151.9</ele>
        <time>2020-06-08T08:10:00Z</time>
      </trkpt>
      <trkpt lat="48.01198" lon="-3.75358">
        <ele>152</ele>
        <time>2020-06-08T08:10:01Z</time>
      </trkpt>
      <trkpt lat="48.01198" lon="-3.75353">
        <ele>152.1</ele>
        <time>2020-06-08T08:10:02Z</time>
      </trkpt>
      <trkpt lat="48.01198" lon="-3.75348">
        <ele>152.2</ele>
        <time>2020-06-08T08:10:03Z</time>
      </trkpt>
      <trkpt lat="48.01198" lon="-3.75343">
        <ele>152.3</ele>
        <time>2020-06-08T08:10:04Z</time>
      </trkpt>
      <trkpt lat="48.01197" lon="-3.75337">
        <ele>152.4</ele>
        <time>2020-06-08T08:10:05Z</time>
      </trkpt>
      <trkpt lat="48.01197" lon="-3.75332">
        <ele>152.5</ele>
        <time>2020-06-08T08:10:06Z</time>
      </trkpt>
      <trkpt lat="48.01197" lon="-3.75325">
        <ele>152.6</ele>
        <time>2020-06-08T08:10:07Z</time>
      </trkpt>
      <trkpt lat="48.01198" lon="-3.75319">
        <ele>152.7</ele>
        <time>2020-06-08T08:10:08Z</time>
      </trkpt>
      <trkpt lat="48.01199" lon="-3.75314">
        <ele>152.8</ele>
        <time>2020-06-08T08:10:09Z</time>
      </trkpt>
      <trkpt lat="48.01199" lon="-3.7531">
        <ele>152.9</ele>
        <time>2020-06-08T08:10:10Z</time>
      </trkpt>
      <trkpt lat="48.012" lon="-3.75306">
        <ele>153</ele>
        <time>2020-06-08T08:10:11Z</time>
      </trkpt>
      <trkpt lat="48.012" lon="-3.75302">
        <ele>153.1</ele>
        <time>2020-06-08T08:10:12Z</time>
      </trkpt>
      <trkpt lat="48.01201" lon="-3.75297">
        <ele>153.2</ele>
        <time>2020-06-08T08:10:13Z</time>
      </trkpt>
      <trkpt lat="48.01202" lon="-3.75292">
        <ele>153.3</ele>
        <time>2020-06-08T08:10:14Z</time>
      </trkpt>
      <trkpt lat="48.01202" lon="-3.75287">
        <ele>153.4</ele>
        <time>2020-06-08T08:10:15Z</time>
      </trkpt>
      <trkpt lat="48.01203" lon="-3.75282">
        <ele>153.5</ele>
        <time>2020-06-08T08:10:16Z</time>
      </trkpt>
      <trkpt lat="48.01205" lon="-3.75276">
        <ele>153.6</ele>
        <time>2020-06-08T08:10:17Z</time>
      </trkpt>
      <trkpt lat="48.01205" lon="-3.75274">
        <ele>153.6</ele>
        <time>2020-06-08T08:10:18Z</time>
      </trkpt>
      <trkpt lat="48.01207" lon="-3.7527">
        <ele>153.7</ele>
        <time>2020-06-08T08:10:19Z</time>
      </trkpt>
      <trkpt lat="48.01208" lon="-3.75265">
        <ele>153.8</ele>
        <time>2020-06-08T08:10:20Z</time>
      </trkpt>
      <trkpt lat="48.01209" lon="-3.7526">
        <ele>153.9</ele>
        <time>2020-06-08T08:10:21Z</time>
      </trkpt>
      <trkpt lat="48.0121" lon="-3.75255">
        <ele>153.9</ele>
        <time>2020-06-08T08:10:22Z</time>
      </trkpt>
      <trkpt lat="48.0121" lon="-3.7525">
        <ele>153.9</ele>
        <time>2020-06-08T08:10:23Z</time>
      </trkpt>
      <trkpt lat="48.01211" lon="-3.75246">
        <ele>153.9</ele>
        <time>2020-06-08T08:10:24Z</time>
      </trkpt>
      <trkpt lat="48.01213" lon="-3.75241">
        <ele>153.9</ele>
        <time>2020-06-08T08:10:25Z</time>
      </trkpt>
      <trkpt lat="48.01215" lon="-3.75236">
        <ele>154</ele>
        <time>2020-06-08T08:10:26Z</time>
      </trkpt>
      <trkpt lat="48.01217" lon="-3.75232">
        <ele>154</ele>
        <time>2020-06-08T08:10:27Z</time>
      </trkpt>
      <trkpt lat="48.0122" lon="-3.7523">
        <ele>154</ele>
        <time>2020-06-08T08:10:28Z</time>
      </trkpt>
      <trkpt lat="48.01223" lon="-3.75228">
        <ele>154.6</ele>
        <time>2020-06-08T08:10:29Z</time>
      </trkpt>
      <trkpt lat="48.01227" lon="-3.75227">
        <ele>154.8</ele>
        <time>2020-06-08T08:10:30Z</time>
      </trkpt>
      <trkpt lat="48.0123" lon="-3.75228">
        <ele>154.9</ele>
        <time>2020-06-08T08:10:31Z</time>
      </trkpt>
      <trkpt lat="48.01234" lon="-3.75229">
        <ele>155.1</ele>
        <time>2020-06-08T08:10:32Z</time>
      </trkpt>
      <trkpt lat="48.01238" lon="-3.75231">
        <ele>155.3</ele>
        <time>2020-06-08T08:10:33Z</time>
      </trkpt>
      <trkpt lat="48.01242" lon="-3.75233">
        <ele>155.5</ele>
        <time>2020-06-08T08:10:34Z</time>
      </trkpt>
      <trkpt lat="48.01245" lon="-3.75235">
        <ele>155.6</ele>
        <time>2020-06-08T08:10:35Z</time>
      </trkpt>
      <trkpt lat="48.01249" lon="-3.75236">
        <ele>155.8</ele>
        <time>2020-06-08T08:10:36Z</time>
      </trkpt>
      <trkpt lat="48.01253" lon="-3.75237">
        <ele>155.9</ele>
        <time>2020-06-08T08:10:37Z</time>
      </trkpt>
      <trkpt lat="48.01256" lon="-3.75238">
        <ele>156.1</ele>
        <time>2020-06-08T08:10:38Z</time>
      </trkpt>
      <trkpt lat="48.0126" lon="-3.75239">
        <ele>156.2</ele>
        <time>2020-06-08T08:10:39Z</time>
      </trkpt>
      <trkpt lat="48.01263" lon="-3.7524">
        <ele>156.3</ele>
        <time>2020-06-08T08:10:40Z</time>
      </trkpt>
      <trkpt lat="48.01267" lon="-3.75243">
        <ele>156.5</ele>
        <time>2020-06-08T08:10:41Z</time>
      </trkpt>
      <trkpt lat="48.0127" lon="-3.75244">
        <ele>156.7</ele>
        <time>2020-06-08T08:10:42Z</time>
      </trkpt>
      <trkpt lat="48.01272" lon="-3.75246">
        <ele>156.8</ele>
        <time>2020-06-08T08:10:43Z</time>
      </trkpt>
      <trkpt lat="48.01276" lon="-3.75247">
        <ele>156.9</ele>
        <time>2020-06-08T08:10:44Z</time>
      </trkpt>
      <trkpt lat="48.01279" lon="-3.75249">
        <ele>157</ele>
        <time>2020-06-08T08:10:45Z</time>
      </trkpt>
      <trkpt lat="48.01281" lon="-3.75251">
        <ele>157.1</ele>
        <time>2020-06-08T08:10:46Z</time>
      </trkpt>
      <trkpt lat="48.01284" lon="-3.75254">
        <ele>157.2</ele>
        <time>2020-06-08T08:10:47Z</time>
      </trkpt>
      <trkpt lat="48.01288" lon="-3.75255">
        <ele>157.3</ele>
        <time>2020-06-08T08:10:48Z</time>
      </trkpt>
      <trkpt lat="48.01292" lon="-3.75257">
        <ele>157.5</ele>
        <time>2020-06-08T08:10:49Z</time>
      </trkpt>
      <trkpt lat="48.01296" lon="-3.75259">
        <ele>157.7</ele>
        <time>2020-06-08T08:10:50Z</time>
      </trkpt>
      <trkpt lat="48.01299" lon="-3.7526">
        <ele>157.7</ele>
        <time>2020-06-08T08:10:51Z</time>
      </trkpt>
      <trkpt lat="48.01302" lon="-3.75261">
        <ele>157.8</ele>
        <time>2020-06-08T08:10:52Z</time>
      </trkpt>
      <trkpt lat="48.01306" lon="-3.75262">
        <ele>157.9</ele>
        <time>2020-06-08T08:10:53Z</time>
      </trkpt>
      <trkpt lat="48.01309" lon="-3.75263">
        <ele>158</ele>
        <time>2020-06-08T08:10:54Z</time>
      </trkpt>
      <trkpt lat="48.01313" lon="-3.75264">
        <ele>158</ele>
        <time>2020-06-08T08:10:55Z</time>
      </trkpt>
      <trkpt lat="48.01316" lon="-3.75265">
        <ele>158.1</ele>
        <time>2020-06-08T08:10:56Z</time>
      </trkpt>
      <trkpt lat="48.01319" lon="-3.75266">
        <ele>158.1</ele>
        <time>2020-06-08T08:10:57Z</time>
      </trkpt>
      <trkpt lat="48.01323" lon="-3.75268">
        <ele>158.2</ele>
        <time>2020-06-08T08:10:58Z</time>
      </trkpt>
      <trkpt lat="48.01324" lon="-3.75269">
        <ele>158.2</ele>
        <time>2020-06-08T08:10:59Z</time>
      </trkpt>
      <trkpt lat="48.01328" lon="-3.7527">
        <ele>158.3</ele>
        <time>2020-06-08T08:11:00Z</time>
      </trkpt>
      <trkpt lat="48.01331" lon="-3.75272">
        <ele>158.3</ele>
        <time>2020-06-08T08:11:01Z</time>
      </trkpt>
      <trkpt lat="48.01333" lon="-3.75274">
        <ele>158.4</ele>
        <time>2020-06-08T08:11:02Z</time>
      </trkpt>
      <trkpt lat="48.01336" lon="-3.75276">
        <ele>158.4</ele>
        <time>2020-06-08T08:11:03Z</time>
      </trkpt>
      <trkpt lat="48.01339" lon="-3.75278">
        <ele>158.4</ele>
        <time>2020-06-08T08:11:04Z</time>
      </trkpt>
      <trkpt lat="48.01342" lon="-3.7528">
        <ele>158.4</ele>
        <time>2020-06-08T08:11:05Z</time>
      </trkpt>
      <trkpt lat="48.01345" lon="-3.75282">
        <ele>158.4</ele>
        <time>2020-06-08T08:11:06Z</time>
      </trkpt>
      <trkpt lat="48.01348" lon="-3.75283">
        <ele>158.4</ele>
        <time>2020-06-08T08:11:07Z</time>
      </trkpt>
      <trkpt lat="48.01351" lon="-3.75286">
        <ele>158.4</ele>
        <time>2020-06-08T08:11:08Z</time>
      </trkpt>
      <trkpt lat="48.01354" lon="-3.75286">
        <ele>158.4</ele>
        <time>2020-06-08T08:11:09Z</time>
      </trkpt>
      <trkpt lat="48.01357" lon="-3.75288">
        <ele>158.4</ele>
        <time>2020-06-08T08:11:10Z</time>
      </trkpt>
      <trkpt lat="48.01358" lon="-3.75288">
        <ele>158.4</ele>
        <time>2020-06-08T08:11:11Z</time>
      </trkpt>
      <trkpt lat="48.01362" lon="-3.7529">
        <ele>158.4</ele>
        <time>2020-06-08T08:11:12Z</time>
      </trkpt>
      <trkpt lat="48.01365" lon="-3.75292">
        <ele>158.4</ele>
        <time>2020-06-08T08:11:13Z</time>
      </trkpt>
      <trkpt lat="48.01368" lon="-3.75293">
        <ele>158.4</ele>
        <time>2020-06-08T08:11:14Z</time>
      </trkpt>
      <trkpt lat="48.01371" lon="-3.75295">
        <ele>158.5</ele>
        <time>2020-06-08T08:11:15Z</time>
      </trkpt>
      <trkpt lat="48.01374" lon="-3.75296">
        <ele>158.5</ele>
        <time>2020-06-08T08:11:16Z</time>
      </trkpt>
      <trkpt lat="48.01377" lon="-3.75298">
        <ele>158.5</ele>
        <time>2020-06-08T08:11:17Z</time>
      </trkpt>
      <trkpt lat="48.01381" lon="-3.753">
        <ele>158.6</ele>
        <time>2020-06-08T08:11:18Z</time>
      </trkpt>
      <trkpt lat="48.01384" lon="-3.75302">
        <ele>158.7</ele>
        <time>2020-06-08T08:11:19Z</time>
      </trkpt>
      <trkpt lat="48.01388" lon="-3.75304">
        <ele>158.9</ele>
        <time>2020-06-08T08:11:20Z</time>
      </trkpt>
      <trkpt lat="48.0139" lon="-3.75306">
        <ele>159</ele>
        <time>2020-06-08T08:11:21Z</time>
      </trkpt>
      <trkpt lat="48.01393" lon="-3.75307">
        <ele>159.1</ele>
        <time>2020-06-08T08:11:22Z</time>
      </trkpt>
      <trkpt lat="48.01396" lon="-3.75309">
        <ele>159.2</ele>
        <time>2020-06-08T08:11:23Z</time>
      </trkpt>
      <trkpt lat="48.01399" lon="-3.75311">
        <ele>159.3</ele>
        <time>2020-06-08T08:11:24Z</time>
      </trkpt>
      <trkpt lat="48.01403" lon="-3.75313">
        <ele>159.4</ele>
        <time>2020-06-08T08:11:25Z</time>
      </trkpt>
      <trkpt lat="48.01405" lon="-3.75314">
        <ele>159.5</ele>
        <time>2020-06-08T08:11:26Z</time>
      </trkpt>
      <trkpt lat="48.01409" lon="-3.75316">
        <ele>159.6</ele>
        <time>2020-06-08T08:11:27Z</time>
      </trkpt>
      <trkpt lat="48.01412" lon="-3.75316">
        <ele>159.7</ele>
        <time>2020-06-08T08:11:28Z</time>
      </trkpt>
      <trkpt lat="48.01416" lon="-3.75317">
        <ele>159.7</ele>
        <time>2020-06-08T08:11:29Z</time>
      </trkpt>
      <trkpt lat="48.0142" lon="-3.75318">
        <ele>159.8</ele>
        <time>2020-06-08T08:11:30Z</time>
      </trkpt>
      <trkpt lat="48.01424" lon="-3.7532">
        <ele>159.9</ele>
        <time>2020-06-08T08:11:31Z</time>
      </trkpt>
      <trkpt lat="48.01427" lon="-3.75323">
        <ele>160</ele>
        <time>2020-06-08T08:11:32Z</time>
      </trkpt>
      <trkpt lat="48.0143" lon="-3.75325">
        <ele>160.1</ele>
        <time>2020-06-08T08:11:33Z</time>
      </trkpt>
      <trkpt lat="48.01433" lon="-3.75326">
        <ele>160.3</ele>
        <time>2020-06-08T08:11:34Z</time>
      </trkpt>
      <trkpt lat="48.01435" lon="-3.75328">
        <ele>160.4</ele>
        <time>2020-06-08T08:11:35Z</time>
      </trkpt>
      <trkpt lat="48.01438" lon="-3.7533">
        <ele>160.5</ele>
        <time>2020-06-08T08:11:36Z</time>
      </trkpt>
      <trkpt lat="48.01441" lon="-3.75331">
        <ele>160.7</ele>
        <time>2020-06-08T08:11:37Z</time>
      </trkpt>
      <trkpt lat="48.01445" lon="-3.75332">
        <ele>160.8</ele>
        <time>2020-06-08T08:11:38Z</time>
      </trkpt>
      <trkpt lat="48.01448" lon="-3.75333">
        <ele>160.9</ele>
        <time>2020-06-08T08:11:39Z</time>
      </trkpt>
      <trkpt lat="48.01451" lon="-3.75335">
        <ele>161.1</ele>
        <time>2020-06-08T08:11:40Z</time>
      </trkpt>
      <trkpt lat="48.01455" lon="-3.75336">
        <ele>161.2</ele>
        <time>2020-06-08T08:11:41Z</time>
      </trkpt>
      <trkpt lat="48.01458" lon="-3.75338">
        <ele>161.3</ele>
        <time>2020-06-08T08:11:42Z</time>
      </trkpt>
      <trkpt lat="48.0146" lon="-3.75339">
        <ele>161.5</ele>
        <time>2020-06-08T08:11:43Z</time>
      </trkpt>
      <trkpt lat="48.01463" lon="-3.75341">
        <ele>161.6</ele>
        <time>2020-06-08T08:11:44Z</time>
      </trkpt>
      <trkpt lat="48.01466" lon="-3.75343">
        <ele>161.7</ele>
        <time>2020-06-08T08:11:45Z</time>
      </trkpt>
      <trkpt lat="48.01469" lon="-3.75345">
        <ele>161.8</ele>
        <time>2020-06-08T08:11:46Z</time>
      </trkpt>
      <trkpt lat="48.01472" lon="-3.75347">
        <ele>162</ele>
        <time>2020-06-08T08:11:47Z</time>
      </trkpt>
      <trkpt lat="48.01475" lon="-3.75349">
        <ele>162.1</ele>
        <time>2020-06-08T08:11:48Z</time>
      </trkpt>
      <trkpt lat="48.01478" lon="-3.7535">
        <ele>162.3</ele>
        <time>2020-06-08T08:11:49Z</time>
      </trkpt>
      <trkpt lat="48.01481" lon="-3.75351">
        <ele>162.4</ele>
        <time>2020-06-08T08:11:50Z</time>
      </trkpt>
      <trkpt lat="48.01484" lon="-3.75352">
        <ele>162.6</ele>
        <time>2020-06-08T08:11:51Z</time>
      </trkpt>
      <trkpt lat="48.01487" lon="-3.75354">
        <ele>162.7</ele>
        <time>2020-06-08T08:11:52Z</time>
      </trkpt>
      <trkpt lat="48.0149" lon="-3.75355">
        <ele>162.9</ele>
        <time>2020-06-08T08:11:53Z</time>
      </trkpt>
      <trkpt lat="48.01493" lon="-3.75357">
        <ele>163.1</ele>
        <time>2020-06-08T08:11:54Z</time>
      </trkpt>
      <trkpt lat="48.01496" lon="-3.75358">
        <ele>163.2</ele>
        <time>2020-06-08T08:11:55Z</time>
      </trkpt>
      <trkpt lat="48.01499" lon="-3.7536">
        <ele>163.4</ele>
        <time>2020-06-08T08:11:56Z</time>
      </trkpt>
      <trkpt lat="48.01501" lon="-3.75361">
        <ele>163.4</ele>
        <time>2020-06-08T08:11:57Z</time>
      </trkpt>
      <trkpt lat="48.01504" lon="-3.75362">
        <ele>163.6</ele>
        <time>2020-06-08T08:11:58Z</time>
      </trkpt>
      <trkpt lat="48.01507" lon="-3.75363">
        <ele>163.7</ele>
        <time>2020-06-08T08:11:59Z</time>
      </trkpt>
      <trkpt lat="48.0151" lon="-3.75364">
        <ele>163.8</ele>
        <time>2020-06-08T08:12:00Z</time>
      </trkpt>
      <trkpt lat="48.01514" lon="-3.75365">
        <ele>163.9</ele>
        <time>2020-06-08T08:12:01Z</time>
      </trkpt>
      <trkpt lat="48.01515" lon="-3.75366">
        <ele>164</ele>
        <time>2020-06-08T08:12:02Z</time>
      </trkpt>
      <trkpt lat="48.01517" lon="-3.75367">
        <ele>164.1</ele>
        <time>2020-06-08T08:12:03Z</time>
      </trkpt>
      <trkpt lat="48.01521" lon="-3.75369">
        <ele>164.3</ele>
        <time>2020-06-08T08:12:04Z</time>
      </trkpt>
      <trkpt lat="48.01522" lon="-3.7537">
        <ele>164.4</ele>
        <time>2020-06-08T08:12:05Z</time>
      </trkpt>
      <trkpt lat="48.01525" lon="-3.75372">
        <ele>164.5</ele>
        <time>2020-06-08T08:12:06Z</time>
      </trkpt>
      <trkpt lat="48.01528" lon="-3.75373">
        <ele>164.7</ele>
        <time>2020-06-08T08:12:07Z</time>
      </trkpt>
      <trkpt lat="48.01531" lon="-3.75375">
        <ele>164.9</ele>
        <time>2020-06-08T08:12:08Z</time>
      </trkpt>
      <trkpt lat="48.01534" lon="-3.75376">
        <ele>165.1</ele>
        <time>2020-06-08T08:12:09Z</time>
      </trkpt>
      <trkpt lat="48.01537" lon="-3.75377">
        <ele>165.2</ele>
        <time>2020-06-08T08:12:10Z</time>
      </trkpt>
      <trkpt lat="48.01541" lon="-3.75379">
        <ele>165.4</ele>
        <time>2020-06-08T08:12:11Z</time>
      </trkpt>
      <trkpt lat="48.01542" lon="-3.7538">
        <ele>165.4</ele>
        <time>2020-06-08T08:12:12Z</time>
      </trkpt>
      <trkpt lat="48.01545" lon="-3.75381">
        <ele>165.5</ele>
        <time>2020-06-08T08:12:13Z</time>
      </trkpt>
      <trkpt lat="48.01548" lon="-3.75382">
        <ele>165.6</ele>
        <time>2020-06-08T08:12:14Z</time>
      </trkpt>
      <trkpt lat="48.01551" lon="-3.75383">
        <ele>165.7</ele>
        <time>2020-06-08T08:12:15Z</time>
      </trkpt>
      <trkpt lat="48.01554" lon="-3.75385">
        <ele>165.8</ele>
        <time>2020-06-08T08:12:16Z</time>
      </trkpt>
      <trkpt lat="48.01557" lon="-3.75386">
        <ele>165.8</ele>
        <time>2020-06-08T08:12:17Z</time>
      </trkpt>
      <trkpt lat="48.0156" lon="-3.75387">
        <ele>165.9</ele>
        <time>2020-06-08T08:12:18Z</time>
      </trkpt>
      <trkpt lat="48.01563" lon="-3.75389">
        <ele>166</ele>
        <time>2020-06-08T08:12:19Z</time>
      </trkpt>
      <trkpt lat="48.01566" lon="-3.75391">
        <ele>166</ele>
        <time>2020-06-08T08:12:20Z</time>
      </trkpt>
      <trkpt lat="48.01569" lon="-3.75393">
        <ele>166.2</ele>
        <time>2020-06-08T08:12:21Z</time>
      </trkpt>
      <trkpt lat="48.01572" lon="-3.75395">
        <ele>166.3</ele>
        <time>2020-06-08T08:12:22Z</time>
      </trkpt>
      <trkpt lat="48.01573" lon="-3.75396">
        <ele>166.4</ele>
        <time>2020-06-08T08:12:23Z</time>
      </trkpt>
      <trkpt lat="48.01576" lon="-3.75397">
        <ele>166.5</ele>
        <time>2020-06-08T08:12:24Z</time>
      </trkpt>
      <trkpt lat="48.01579" lon="-3.75398">
        <ele>166.6</ele>
        <time>2020-06-08T08:12:25Z</time>
      </trkpt>
      <trkpt lat="48.01582" lon="-3.75399">
        <ele>166.8</ele>
        <time>2020-06-08T08:12:26Z</time>
      </trkpt>
      <trkpt lat="48.01585" lon="-3.75402">
        <ele>166.9</ele>
        <time>2020-06-08T08:12:27Z</time>
      </trkpt>
      <trkpt lat="48.01587" lon="-3.75403">
        <ele>167.1</ele>
        <time>2020-06-08T08:12:28Z</time>
      </trkpt>
      <trkpt lat="48.0159" lon="-3.75405">
        <ele>167.2</ele>
        <time>2020-06-08T08:12:29Z</time>
      </trkpt>
      <trkpt lat="48.01593" lon="-3.75407">
        <ele>167.3</ele>
        <time>2020-06-08T08:12:30Z</time>
      </trkpt>
      <trkpt lat="48.01596" lon="-3.7541">
        <ele>167.4</ele>
        <time>2020-06-08T08:12:31Z</time>
      </trkpt>
      <trkpt lat="48.01599" lon="-3.75411">
        <ele>167.5</ele>
        <time>2020-06-08T08:12:32Z</time>
      </trkpt>
      <trkpt lat="48.01602" lon="-3.75412">
        <ele>167.6</ele>
        <time>2020-06-08T08:12:33Z</time>
      </trkpt>
      <trkpt lat="48.01605" lon="-3.75412">
        <ele>167.7</ele>
        <time>2020-06-08T08:12:34Z</time>
      </trkpt>
      <trkpt lat="48.01608" lon="-3.75413">
        <ele>167.9</ele>
        <time>2020-06-08T08:12:35Z</time>
      </trkpt>
      <trkpt lat="48.01611" lon="-3.75415">
        <ele>168</ele>
        <time>2020-06-08T08:12:36Z</time>
      </trkpt>
      <trkpt lat="48.01614" lon="-3.75417">
        <ele>168</ele>
        <time>2020-06-08T08:12:37Z</time>
      </trkpt>
      <trkpt lat="48.01618" lon="-3.75418">
        <ele>168</ele>
        <time>2020-06-08T08:12:38Z</time>
      </trkpt>
      <trkpt lat="48.01619" lon="-3.75419">
        <ele>168.1</ele>
        <time>2020-06-08T08:12:39Z</time>
      </trkpt>
      <trkpt lat="48.01622" lon="-3.7542">
        <ele>168.1</ele>
        <time>2020-06-08T08:12:40Z</time>
      </trkpt>
      <trkpt lat="48.01625" lon="-3.75421">
        <ele>168.1</ele>
        <time>2020-06-08T08:12:41Z</time>
      </trkpt>
      <trkpt lat="48.01627" lon="-3.75422">
        <ele>168.1</ele>
        <time>2020-06-08T08:12:42Z</time>
      </trkpt>
      <trkpt lat="48.0163" lon="-3.75424">
        <ele>168.2</ele>
        <time>2020-06-08T08:12:43Z</time>
      </trkpt>
      <trkpt lat="48.01633" lon="-3.75424">
        <ele>168.2</ele>
        <time>2020-06-08T08:12:44Z</time>
      </trkpt>
      <trkpt lat="48.01636" lon="-3.75425">
        <ele>168.2</ele>
        <time>2020-06-08T08:12:45Z</time>
      </trkpt>
      <trkpt lat="48.01639" lon="-3.75426">
        <ele>168.3</ele>
        <time>2020-06-08T08:12:46Z</time>
      </trkpt>
      <trkpt lat="48.01642" lon="-3.75428">
        <ele>168.4</ele>
        <time>2020-06-08T08:12:47Z</time>
      </trkpt>
      <trkpt lat="48.01646" lon="-3.75429">
        <ele>168.5</ele>
        <time>2020-06-08T08:12:48Z</time>
      </trkpt>
      <trkpt lat="48.01649" lon="-3.75431">
        <ele>168.5</ele>
        <time>2020-06-08T08:12:49Z</time>
      </trkpt>
      <trkpt lat="48.01651" lon="-3.75432">
        <ele>168.6</ele>
        <time>2020-06-08T08:12:50Z</time>
      </trkpt>
      <trkpt lat="48.01653" lon="-3.75434">
        <ele>168.6</ele>
        <time>2020-06-08T08:12:51Z</time>
      </trkpt>
      <trkpt lat="48.01657" lon="-3.75435">
        <ele>168.7</ele>
        <time>2020-06-08T08:12:52Z</time>
      </trkpt>
      <trkpt lat="48.01659" lon="-3.75436">
        <ele>168.7</ele>
        <time>2020-06-08T08:12:53Z</time>
      </trkpt>
      <trkpt lat="48.01661" lon="-3.75438">
        <ele>168.8</ele>
        <time>2020-06-08T08:12:54Z</time>
      </trkpt>
      <trkpt lat="48.01664" lon="-3.7544">
        <ele>168.8</ele>
        <time>2020-06-08T08:12:55Z</time>
      </trkpt>
      <trkpt lat="48.01667" lon="-3.75441">
        <ele>168.8</ele>
        <time>2020-06-08T08:12:56Z</time>
      </trkpt>
      <trkpt lat="48.0167" lon="-3.75443">
        <ele>168.8</ele>
        <time>2020-06-08T08:12:57Z</time>
      </trkpt>
      <trkpt lat="48.01673" lon="-3.75444">
        <ele>168.8</ele>
        <time>2020-06-08T08:12:58Z</time>
      </trkpt>
      <trkpt lat="48.01676" lon="-3.75445">
        <ele>168.8</ele>
        <time>2020-06-08T08:12:59Z</time>
      </trkpt>
      <trkpt lat="48.01679" lon="-3.75446">
        <ele>168.8</ele>
        <time>2020-06-08T08:13:00Z</time>
      </trkpt>
      <trkpt lat="48.01682" lon="-3.75447">
        <ele>168.9</ele>
        <time>2020-06-08T08:13:01Z</time>
      </trkpt>
      <trkpt lat="48.01685" lon="-3.7545">
        <ele>169</ele>
        <time>2020-06-08T08:13:02Z</time>
      </trkpt>
      <trkpt lat="48.01688" lon="-3.75451">
        <ele>169.1</ele>
        <time>2020-06-08T08:13:03Z</time>
      </trkpt>
      <trkpt lat="48.01691" lon="-3.75453">
        <ele>169.2</ele>
        <time>2020-06-08T08:13:04Z</time>
      </trkpt>
      <trkpt lat="48.01694" lon="-3.75454">
        <ele>169.3</ele>
        <time>2020-06-08T08:13:05Z</time>
      </trkpt>
      <trkpt lat="48.01697" lon="-3.75456">
        <ele>169.5</ele>
        <time>2020-06-08T08:13:06Z</time>
      </trkpt>
      <trkpt lat="48.017" lon="-3.75458">
        <ele>169.6</ele>
        <time>2020-06-08T08:13:07Z</time>
      </trkpt>
      <trkpt lat="48.01703" lon="-3.7546">
        <ele>169.8</ele>
        <time>2020-06-08T08:13:08Z</time>
      </trkpt>
      <trkpt lat="48.01707" lon="-3.75461">
        <ele>170</ele>
        <time>2020-06-08T08:13:09Z</time>
      </trkpt>
      <trkpt lat="48.01708" lon="-3.75462">
        <ele>170.1</ele>
        <time>2020-06-08T08:13:10Z</time>
      </trkpt>
      <trkpt lat="48.01711" lon="-3.75465">
        <ele>170.2</ele>
        <time>2020-06-08T08:13:11Z</time>
      </trkpt>
      <trkpt lat="48.01713" lon="-3.75465">
        <ele>170.3</ele>
        <time>2020-06-08T08:13:12Z</time>
      </trkpt>
      <trkpt lat="48.01717" lon="-3.75467">
        <ele>170.4</ele>
        <time>2020-06-08T08:13:13Z</time>
      </trkpt>
      <trkpt lat="48.0172" lon="-3.75467">
        <ele>170.5</ele>
        <time>2020-06-08T08:13:14Z</time>
      </trkpt>
      <trkpt lat="48.01724" lon="-3.75469">
        <ele>170.7</ele>
        <time>2020-06-08T08:13:15Z</time>
      </trkpt>
      <trkpt lat="48.01725" lon="-3.75469">
        <ele>170.7</ele>
        <time>2020-06-08T08:13:16Z</time>
      </trkpt>
      <trkpt lat="48.01728" lon="-3.75471">
        <ele>170.8</ele>
        <time>2020-06-08T08:13:17Z</time>
      </trkpt>
      <trkpt lat="48.01731" lon="-3.75473">
        <ele>170.9</ele>
        <time>2020-06-08T08:13:18Z</time>
      </trkpt>
      <trkpt lat="48.01735" lon="-3.75475">
        <ele>171.1</ele>
        <time>2020-06-08T08:13:19Z</time>
      </trkpt>
      <trkpt lat="48.01738" lon="-3.75477">
        <ele>171.2</ele>
        <time>2020-06-08T08:13:20Z</time>
      </trkpt>
      <trkpt lat="48.01741" lon="-3.75478">
        <ele>171.3</ele>
        <time>2020-06-08T08:13:21Z</time>
      </trkpt>
      <trkpt lat="48.01744" lon="-3.7548">
        <ele>171.5</ele>
        <time>2020-06-08T08:13:22Z</time>
      </trkpt>
      <trkpt lat="48.01747" lon="-3.75481">
        <ele>171.6</ele>
        <time>2020-06-08T08:13:23Z</time>
      </trkpt>
      <trkpt lat="48.0175" lon="-3.75483">
        <ele>171.8</ele>
        <time>2020-06-08T08:13:24Z</time>
      </trkpt>
      <trkpt lat="48.01753" lon="-3.75484">
        <ele>171.9</ele>
        <time>2020-06-08T08:13:25Z</time>
      </trkpt>
      <trkpt lat="48.01756" lon="-3.75485">
        <ele>172.1</ele>
        <time>2020-06-08T08:13:26Z</time>
      </trkpt>
      <trkpt lat="48.0176" lon="-3.75488">
        <ele>172.3</ele>
        <time>2020-06-08T08:13:27Z</time>
      </trkpt>
      <trkpt lat="48.01761" lon="-3.75489">
        <ele>172.4</ele>
        <time>2020-06-08T08:13:28Z</time>
      </trkpt>
      <trkpt lat="48.01764" lon="-3.7549">
        <ele>172.5</ele>
        <time>2020-06-08T08:13:29Z</time>
      </trkpt>
      <trkpt lat="48.01767" lon="-3.75491">
        <ele>172.6</ele>
        <time>2020-06-08T08:13:30Z</time>
      </trkpt>
      <trkpt lat="48.0177" lon="-3.75492">
        <ele>172.8</ele>
        <time>2020-06-08T08:13:31Z</time>
      </trkpt>
      <trkpt lat="48.01773" lon="-3.75493">
        <ele>172.9</ele>
        <time>2020-06-08T08:13:32Z</time>
      </trkpt>
      <trkpt lat="48.01776" lon="-3.75494">
        <ele>173</ele>
        <time>2020-06-08T08:13:33Z</time>
      </trkpt>
      <trkpt lat="48.01779" lon="-3.75494">
        <ele>173.2</ele>
        <time>2020-06-08T08:13:34Z</time>
      </trkpt>
      <trkpt lat="48.01783" lon="-3.75496">
        <ele>173.5</ele>
        <time>2020-06-08T08:13:35Z</time>
      </trkpt>
      <trkpt lat="48.01784" lon="-3.75497">
        <ele>173.6</ele>
        <time>2020-06-08T08:13:36Z</time>
      </trkpt>
      <trkpt lat="48.01788" lon="-3.75498">
        <ele>173.8</ele>
        <time>2020-06-08T08:13:37Z</time>
      </trkpt>
      <trkpt lat="48.01789" lon="-3.75498">
        <ele>173.9</ele>
        <time>2020-06-08T08:13:38Z</time>
      </trkpt>
      <trkpt lat="48.01792" lon="-3.75499">
        <ele>174.1</ele>
        <time>2020-06-08T08:13:39Z</time>
      </trkpt>
      <trkpt lat="48.01795" lon="-3.75502">
        <ele>174.3</ele>
        <time>2020-06-08T08:13:40Z</time>
      </trkpt>
      <trkpt lat="48.01797" lon="-3.75503">
        <ele>174.4</ele>
        <time>2020-06-08T08:13:41Z</time>
      </trkpt>
      <trkpt lat="48.01799" lon="-3.75505">
        <ele>174.5</ele>
        <time>2020-06-08T08:13:42Z</time>
      </trkpt>
      <trkpt lat="48.01803" lon="-3.75507">
        <ele>174.7</ele>
        <time>2020-06-08T08:13:43Z</time>
      </trkpt>
      <trkpt lat="48.01804" lon="-3.75508">
        <ele>174.8</ele>
        <time>2020-06-08T08:13:44Z</time>
      </trkpt>
      <trkpt lat="48.01808" lon="-3.7551">
        <ele>174.9</ele>
        <time>2020-06-08T08:13:45Z</time>
      </trkpt>
      <trkpt lat="48.01811" lon="-3.75511">
        <ele>175</ele>
        <time>2020-06-08T08:13:46Z</time>
      </trkpt>
      <trkpt lat="48.01814" lon="-3.75512">
        <ele>175.1</ele>
        <time>2020-06-08T08:13:47Z</time>
      </trkpt>
      <trkpt lat="48.01817" lon="-3.75513">
        <ele>175.2</ele>
        <time>2020-06-08T08:13:48Z</time>
      </trkpt>
      <trkpt lat="48.01821" lon="-3.75515">
        <ele>175.3</ele>
        <time>2020-06-08T08:13:49Z</time>
      </trkpt>
      <trkpt lat="48.01822" lon="-3.75515">
        <ele>175.4</ele>
        <time>2020-06-08T08:13:50Z</time>
      </trkpt>
      <trkpt lat="48.01825" lon="-3.75517">
        <ele>175.5</ele>
        <time>2020-06-08T08:13:51Z</time>
      </trkpt>
      <trkpt lat="48.01828" lon="-3.75519">
        <ele>175.7</ele>
        <time>2020-06-08T08:13:52Z</time>
      </trkpt>
      <trkpt lat="48.0183" lon="-3.7552">
        <ele>175.7</ele>
        <time>2020-06-08T08:13:53Z</time>
      </trkpt>
      <trkpt lat="48.01832" lon="-3.75523">
        <ele>175.8</ele>
        <time>2020-06-08T08:13:54Z</time>
      </trkpt>
      <trkpt lat="48.01835" lon="-3.75526">
        <ele>176</ele>
        <time>2020-06-08T08:13:55Z</time>
      </trkpt>
      <trkpt lat="48.01836" lon="-3.75526">
        <ele>176</ele>
        <time>2020-06-08T08:13:56Z</time>
      </trkpt>
      <trkpt lat="48.0184" lon="-3.75528">
        <ele>176.1</ele>
        <time>2020-06-08T08:13:57Z</time>
      </trkpt>
      <trkpt lat="48.01843" lon="-3.75529">
        <ele>176.3</ele>
        <time>2020-06-08T08:13:58Z</time>
      </trkpt>
      <trkpt lat="48.01846" lon="-3.7553">
        <ele>176.4</ele>
        <time>2020-06-08T08:13:59Z</time>
      </trkpt>
      <trkpt lat="48.01849" lon="-3.75531">
        <ele>176.5</ele>
        <time>2020-06-08T08:14:00Z</time>
      </trkpt>
      <trkpt lat="48.01853" lon="-3.75533">
        <ele>176.6</ele>
        <time>2020-06-08T08:14:01Z</time>
      </trkpt>
      <trkpt lat="48.01854" lon="-3.75533">
        <ele>176.7</ele>
        <time>2020-06-08T08:14:02Z</time>
      </trkpt>
      <trkpt lat="48.01858" lon="-3.75535">
        <ele>176.8</ele>
        <time>2020-06-08T08:14:03Z</time>
      </trkpt>
      <trkpt lat="48.01859" lon="-3.75535">
        <ele>176.8</ele>
        <time>2020-06-08T08:14:04Z</time>
      </trkpt>
      <trkpt lat="48.01862" lon="-3.75537">
        <ele>176.9</ele>
        <time>2020-06-08T08:14:05Z</time>
      </trkpt>
      <trkpt lat="48.01865" lon="-3.75538">
        <ele>177</ele>
        <time>2020-06-08T08:14:06Z</time>
      </trkpt>
      <trkpt lat="48.01869" lon="-3.7554">
        <ele>177</ele>
        <time>2020-06-08T08:14:07Z</time>
      </trkpt>
      <trkpt lat="48.01872" lon="-3.75542">
        <ele>177.1</ele>
        <time>2020-06-08T08:14:08Z</time>
      </trkpt>
      <trkpt lat="48.01876" lon="-3.75544">
        <ele>177.2</ele>
        <time>2020-06-08T08:14:09Z</time>
      </trkpt>
      <trkpt lat="48.0188" lon="-3.75546">
        <ele>177.3</ele>
        <time>2020-06-08T08:14:10Z</time>
      </trkpt>
      <trkpt lat="48.01883" lon="-3.75548">
        <ele>177.4</ele>
        <time>2020-06-08T08:14:11Z</time>
      </trkpt>
      <trkpt lat="48.01887" lon="-3.7555">
        <ele>177.4</ele>
        <time>2020-06-08T08:14:12Z</time>
      </trkpt>
      <trkpt lat="48.0189" lon="-3.75551">
        <ele>177.5</ele>
        <time>2020-06-08T08:14:13Z</time>
      </trkpt>
      <trkpt lat="48.01893" lon="-3.75553">
        <ele>177.5</ele>
        <time>2020-06-08T08:14:14Z</time>
      </trkpt>
      <trkpt lat="48.01896" lon="-3.75554">
        <ele>177.6</ele>
        <time>2020-06-08T08:14:15Z</time>
      </trkpt>
      <trkpt lat="48.01899" lon="-3.75556">
        <ele>177.7</ele>
        <time>2020-06-08T08:14:16Z</time>
      </trkpt>
      <trkpt lat="48.01903" lon="-3.75556">
        <ele>177.7</ele>
        <time>2020-06-08T08:14:17Z</time>
      </trkpt>
      <trkpt lat="48.01906" lon="-3.75559">
        <ele>177.8</ele>
        <time>2020-06-08T08:14:18Z</time>
      </trkpt>
      <trkpt lat="48.01909" lon="-3.7556">
        <ele>177.9</ele>
        <time>2020-06-08T08:14:19Z</time>
      </trkpt>
      <trkpt lat="48.01913" lon="-3.75559">
        <ele>177.9</ele>
        <time>2020-06-08T08:14:20Z</time>
      </trkpt>
      <trkpt lat="48.01916" lon="-3.7556">
        <ele>178</ele>
        <time>2020-06-08T08:14:21Z</time>
      </trkpt>
      <trkpt lat="48.01919" lon="-3.75561">
        <ele>178.1</ele>
        <time>2020-06-08T08:14:22Z</time>
      </trkpt>
      <trkpt lat="48.01922" lon="-3.75562">
        <ele>178.2</ele>
        <time>2020-06-08T08:14:23Z</time>
      </trkpt>
      <trkpt lat="48.01926" lon="-3.75562">
        <ele>178.3</ele>
        <time>2020-06-08T08:14:24Z</time>
      </trkpt>
      <trkpt lat="48.01929" lon="-3.75563">
        <ele>178.4</ele>
        <time>2020-06-08T08:14:25Z</time>
      </trkpt>
      <trkpt lat="48.01933" lon="-3.75563">
        <ele>178.4</ele>
        <time>2020-06-08T08:14:26Z</time>
      </trkpt>
      <trkpt lat="48.01936" lon="-3.75563">
        <ele>178.5</ele>
        <time>2020-06-08T08:14:27Z</time>
      </trkpt>
      <trkpt lat="48.0194" lon="-3.75564">
        <ele>178.5</ele>
        <time>2020-06-08T08:14:28Z</time>
      </trkpt>
      <trkpt lat="48.01943" lon="-3.75565">
        <ele>178.5</ele>
        <time>2020-06-08T08:14:29Z</time>
      </trkpt>
      <trkpt lat="48.01947" lon="-3.75565">
        <ele>178.6</ele>
        <time>2020-06-08T08:14:30Z</time>
      </trkpt>
      <trkpt lat="48.0195" lon="-3.75566">
        <ele>178.6</ele>
        <time>2020-06-08T08:14:31Z</time>
      </trkpt>
      <trkpt lat="48.01953" lon="-3.75565">
        <ele>178.7</ele>
        <time>2020-06-08T08:14:32Z</time>
      </trkpt>
      <trkpt lat="48.01957" lon="-3.75566">
        <ele>178.7</ele>
        <time>2020-06-08T08:14:33Z</time>
      </trkpt>
      <trkpt lat="48.01961" lon="-3.75566">
        <ele>178.8</ele>
        <time>2020-06-08T08:14:34Z</time>
      </trkpt>
      <trkpt lat="48.01965" lon="-3.75566">
        <ele>178.8</ele>
        <time>2020-06-08T08:14:35Z</time>
      </trkpt>
      <trkpt lat="48.01968" lon="-3.75567">
        <ele>178.8</ele>
        <time>2020-06-08T08:14:36Z</time>
      </trkpt>
      <trkpt lat="48.01972" lon="-3.75567">
        <ele>178.8</ele>
        <time>2020-06-08T08:14:37Z</time>
      </trkpt>
      <trkpt lat="48.01975" lon="-3.75568">
        <ele>178.7</ele>
        <time>2020-06-08T08:14:38Z</time>
      </trkpt>
      <trkpt lat="48.01978" lon="-3.7557">
        <ele>178.7</ele>
        <time>2020-06-08T08:14:39Z</time>
      </trkpt>
      <trkpt lat="48.01982" lon="-3.75571">
        <ele>178.7</ele>
        <time>2020-06-08T08:14:40Z</time>
      </trkpt>
      <trkpt lat="48.01986" lon="-3.75571">
        <ele>178.6</ele>
        <time>2020-06-08T08:14:41Z</time>
      </trkpt>
      <trkpt lat="48.0199" lon="-3.7557">
        <ele>178.6</ele>
        <time>2020-06-08T08:14:42Z</time>
      </trkpt>
      <trkpt lat="48.01994" lon="-3.75571">
        <ele>178.6</ele>
        <time>2020-06-08T08:14:43Z</time>
      </trkpt>
      <trkpt lat="48.01998" lon="-3.7557">
        <ele>178.5</ele>
        <time>2020-06-08T08:14:44Z</time>
      </trkpt>
      <trkpt lat="48.02002" lon="-3.75571">
        <ele>178.5</ele>
        <time>2020-06-08T08:14:45Z</time>
      </trkpt>
      <trkpt lat="48.02006" lon="-3.75571">
        <ele>178.5</ele>
        <time>2020-06-08T08:14:46Z</time>
      </trkpt>
      <trkpt lat="48.0201" lon="-3.75572">
        <ele>178.5</ele>
        <time>2020-06-08T08:14:47Z</time>
      </trkpt>
      <trkpt lat="48.02014" lon="-3.75574">
        <ele>178.5</ele>
        <time>2020-06-08T08:14:48Z</time>
      </trkpt>
      <trkpt lat="48.02018" lon="-3.75574">
        <ele>178.5</ele>
        <time>2020-06-08T08:14:49Z</time>
      </trkpt>
      <trkpt lat="48.02022" lon="-3.75574">
        <ele>178.5</ele>
        <time>2020-06-08T08:14:50Z</time>
      </trkpt>
      <trkpt lat="48.02026" lon="-3.75575">
        <ele>178.4</ele>
        <time>2020-06-08T08:14:51Z</time>
      </trkpt>
      <trkpt lat="48.0203" lon="-3.75576">
        <ele>178.4</ele>
        <time>2020-06-08T08:14:52Z</time>
      </trkpt>
      <trkpt lat="48.02033" lon="-3.75576">
        <ele>178.3</ele>
        <time>2020-06-08T08:14:53Z</time>
      </trkpt>
      <trkpt lat="48.02036" lon="-3.75576">
        <ele>178.3</ele>
        <time>2020-06-08T08:14:54Z</time>
      </trkpt>
      <trkpt lat="48.0204" lon="-3.75577">
        <ele>178.2</ele>
        <time>2020-06-08T08:14:55Z</time>
      </trkpt>
      <trkpt lat="48.02045" lon="-3.75577">
        <ele>178.1</ele>
        <time>2020-06-08T08:14:56Z</time>
      </trkpt>
      <trkpt lat="48.02049" lon="-3.75577">
        <ele>178.1</ele>
        <time>2020-06-08T08:14:57Z</time>
      </trkpt>
      <trkpt lat="48.02053" lon="-3.75578">
        <ele>178</ele>
        <time>2020-06-08T08:14:58Z</time>
      </trkpt>
      <trkpt lat="48.02056" lon="-3.75578">
        <ele>177.9</ele>
        <time>2020-06-08T08:14:59Z</time>
      </trkpt>
      <trkpt lat="48.0206" lon="-3.75579">
        <ele>177.7</ele>
        <time>2020-06-08T08:15:00Z</time>
      </trkpt>
      <trkpt lat="48.02065" lon="-3.75579">
        <ele>177.5</ele>
        <time>2020-06-08T08:15:01Z</time>
      </trkpt>
      <trkpt lat="48.02069" lon="-3.75579">
        <ele>177.3</ele>
        <time>2020-06-08T08:15:02Z</time>
      </trkpt>
      <trkpt lat="48.02073" lon="-3.75579">
        <ele>177</ele>
        <time>2020-06-08T08:15:03Z</time>
      </trkpt>
      <trkpt lat="48.02077" lon="-3.75578">
        <ele>176.9</ele>
        <time>2020-06-08T08:15:04Z</time>
      </trkpt>
      <trkpt lat="48.02081" lon="-3.75579">
        <ele>176.9</ele>
        <time>2020-06-08T08:15:05Z</time>
      </trkpt>
      <trkpt lat="48.02086" lon="-3.75579">
        <ele>176.8</ele>
        <time>2020-06-08T08:15:06Z</time>
      </trkpt>
      <trkpt lat="48.0209" lon="-3.75578">
        <ele>176.8</ele>
        <time>2020-06-08T08:15:07Z</time>
      </trkpt>
      <trkpt lat="48.02095" lon="-3.75578">
        <ele>176.7</ele>
        <time>2020-06-08T08:15:08Z</time>
      </trkpt>
      <trkpt lat="48.02099" lon="-3.75577">
        <ele>176.7</ele>
        <time>2020-06-08T08:15:09Z</time>
      </trkpt>
      <trkpt lat="48.02103" lon="-3.75576">
        <ele>176.6</ele>
        <time>2020-06-08T08:15:10Z</time>
      </trkpt>
      <trkpt lat="48.02107" lon="-3.75576">
        <ele>176.6</ele>
        <time>2020-06-08T08:15:11Z</time>
      </trkpt>
      <trkpt lat="48.02111" lon="-3.75576">
        <ele>176.5</ele>
        <time>2020-06-08T08:15:12Z</time>
      </trkpt>
      <trkpt lat="48.02115" lon="-3.75575">
        <ele>176.5</ele>
        <time>2020-06-08T08:15:13Z</time>
      </trkpt>
      <trkpt lat="48.02118" lon="-3.75574">
        <ele>176.5</ele>
        <time>2020-06-08T08:15:14Z</time>
      </trkpt>
      <trkpt lat="48.02122" lon="-3.75574">
        <ele>176.4</ele>
        <time>2020-06-08T08:15:15Z</time>
      </trkpt>
      <trkpt lat="48.02126" lon="-3.75573">
        <ele>176.4</ele>
        <time>2020-06-08T08:15:16Z</time>
      </trkpt>
      <trkpt lat="48.02129" lon="-3.75573">
        <ele>176.4</ele>
        <time>2020-06-08T08:15:17Z</time>
      </trkpt>
      <trkpt lat="48.02132" lon="-3.75573">
        <ele>176.4</ele>
        <time>2020-06-08T08:15:18Z</time>
      </trkpt>
      <trkpt lat="48.02135" lon="-3.75573">
        <ele>176.4</ele>
        <time>2020-06-08T08:15:19Z</time>
      </trkpt>
      <trkpt lat="48.02139" lon="-3.75572">
        <ele>176.4</ele>
        <time>2020-06-08T08:15:20Z</time>
      </trkpt>
      <trkpt lat="48.02142" lon="-3.75571">
        <ele>176.5</ele>
        <time>2020-06-08T08:15:21Z</time>
      </trkpt>
      <trkpt lat="48.02147" lon="-3.75569">
        <ele>176.6</ele>
        <time>2020-06-08T08:15:22Z</time>
      </trkpt>
      <trkpt lat="48.02151" lon="-3.75569">
        <ele>176.7</ele>
        <time>2020-06-08T08:15:23Z</time>
      </trkpt>
      <trkpt lat="48.02155" lon="-3.75569">
        <ele>176.8</ele>
        <time>2020-06-08T08:15:24Z</time>
      </trkpt>
      <trkpt lat="48.02159" lon="-3.75569">
        <ele>176.9</ele>
        <time>2020-06-08T08:15:25Z</time>
      </trkpt>
      <trkpt lat="48.02164" lon="-3.75569">
        <ele>177</ele>
        <time>2020-06-08T08:15:26Z</time>
      </trkpt>
      <trkpt lat="48.02168" lon="-3.75569">
        <ele>177</ele>
        <time>2020-06-08T08:15:27Z</time>
      </trkpt>
      <trkpt lat="48.02172" lon="-3.75569">
        <ele>177.1</ele>
        <time>2020-06-08T08:15:28Z</time>
      </trkpt>
      <trkpt lat="48.02177" lon="-3.75569">
        <ele>177.1</ele>
        <time>2020-06-08T08:15:29Z</time>
      </trkpt>
      <trkpt lat="48.02182" lon="-3.75569">
        <ele>177.1</ele>
        <time>2020-06-08T08:15:30Z</time>
      </trkpt>
      <trkpt lat="48.02186" lon="-3.75569">
        <ele>177.1</ele>
        <time>2020-06-08T08:15:31Z</time>
      </trkpt>
      <trkpt lat="48.02191" lon="-3.75569">
        <ele>177.1</ele>
        <time>2020-06-08T08:15:32Z</time>
      </trkpt>
      <trkpt lat="48.02195" lon="-3.75569">
        <ele>177</ele>
        <time>2020-06-08T08:15:33Z</time>
      </trkpt>
      <trkpt lat="48.022" lon="-3.75568">
        <ele>177</ele>
        <time>2020-06-08T08:15:34Z</time>
      </trkpt>
      <trkpt lat="48.02205" lon="-3.75568">
        <ele>176.9</ele>
        <time>2020-06-08T08:15:35Z</time>
      </trkpt>
      <trkpt lat="48.02209" lon="-3.75568">
        <ele>176.9</ele>
        <time>2020-06-08T08:15:36Z</time>
      </trkpt>
      <trkpt lat="48.02214" lon="-3.75567">
        <ele>176.8</ele>
        <time>2020-06-08T08:15:37Z</time>
      </trkpt>
      <trkpt lat="48.02219" lon="-3.75567">
        <ele>176.8</ele>
        <time>2020-06-08T08:15:38Z</time>
      </trkpt>
      <trkpt lat="48.02223" lon="-3.75567">
        <ele>176.8</ele>
        <time>2020-06-08T08:15:39Z</time>
      </trkpt>
      <trkpt lat="48.02227" lon="-3.75566">
        <ele>176.8</ele>
        <time>2020-06-08T08:15:40Z</time>
      </trkpt>
      <trkpt lat="48.02232" lon="-3.75566">
        <ele>176.8</ele>
        <time>2020-06-08T08:15:41Z</time>
      </trkpt>
      <trkpt lat="48.02236" lon="-3.75565">
        <ele>176.9</ele>
        <time>2020-06-08T08:15:42Z</time>
      </trkpt>
      <trkpt lat="48.02241" lon="-3.75564">
        <ele>176.9</ele>
        <time>2020-06-08T08:15:43Z</time>
      </trkpt>
      <trkpt lat="48.02245" lon="-3.75563">
        <ele>176.9</ele>
        <time>2020-06-08T08:15:44Z</time>
      </trkpt>
      <trkpt lat="48.0225" lon="-3.75563">
        <ele>176.9</ele>
        <time>2020-06-08T08:15:45Z</time>
      </trkpt>
      <trkpt lat="48.02254" lon="-3.75562">
        <ele>177</ele>
        <time>2020-06-08T08:15:46Z</time>
      </trkpt>
      <trkpt lat="48.02257" lon="-3.75561">
        <ele>177</ele>
        <time>2020-06-08T08:15:47Z</time>
      </trkpt>
      <trkpt lat="48.02261" lon="-3.7556">
        <ele>177</ele>
        <time>2020-06-08T08:15:48Z</time>
      </trkpt>
      <trkpt lat="48.02265" lon="-3.7556">
        <ele>177</ele>
        <time>2020-06-08T08:15:49Z</time>
      </trkpt>
      <trkpt lat="48.02269" lon="-3.75561">
        <ele>177.1</ele>
        <time>2020-06-08T08:15:50Z</time>
      </trkpt>
      <trkpt lat="48.02274" lon="-3.75559">
        <ele>177.2</ele>
        <time>2020-06-08T08:15:51Z</time>
      </trkpt>
      <trkpt lat="48.02278" lon="-3.75559">
        <ele>177.2</ele>
        <time>2020-06-08T08:15:52Z</time>
      </trkpt>
      <trkpt lat="48.02282" lon="-3.75559">
        <ele>177.2</ele>
        <time>2020-06-08T08:15:53Z</time>
      </trkpt>
      <trkpt lat="48.02286" lon="-3.75558">
        <ele>177.3</ele>
        <time>2020-06-08T08:15:54Z</time>
      </trkpt>
      <trkpt lat="48.0229" lon="-3.75557">
        <ele>177.3</ele>
        <time>2020-06-08T08:15:55Z</time>
      </trkpt>
      <trkpt lat="48.02294" lon="-3.75557">
        <ele>177.2</ele>
        <time>2020-06-08T08:15:56Z</time>
      </trkpt>
      <trkpt lat="48.02298" lon="-3.75557">
        <ele>177.2</ele>
        <time>2020-06-08T08:15:57Z</time>
      </trkpt>
      <trkpt lat="48.02302" lon="-3.75557">
        <ele>177.2</ele>
        <time>2020-06-08T08:15:58Z</time>
      </trkpt>
      <trkpt lat="48.02307" lon="-3.75557">
        <ele>177.2</ele>
        <time>2020-06-08T08:15:59Z</time>
      </trkpt>
      <trkpt lat="48.02311" lon="-3.75557">
        <ele>177.2</ele>
        <time>2020-06-08T08:16:00Z</time>
      </trkpt>
      <trkpt lat="48.02316" lon="-3.75558">
        <ele>177.2</ele>
        <time>2020-06-08T08:16:01Z</time>
      </trkpt>
      <trkpt lat="48.0232" lon="-3.75558">
        <ele>177.2</ele>
        <time>2020-06-08T08:16:02Z</time>
      </trkpt>
      <trkpt lat="48.02323" lon="-3.75558">
        <ele>177.2</ele>
        <time>2020-06-08T08:16:03Z</time>
      </trkpt>
      <trkpt lat="48.02327" lon="-3.75558">
        <ele>177.2</ele>
        <time>2020-06-08T08:16:04Z</time>
      </trkpt>
      <trkpt lat="48.02331" lon="-3.75558">
        <ele>177.2</ele>
        <time>2020-06-08T08:16:05Z</time>
      </trkpt>
      <trkpt lat="48.02335" lon="-3.75557">
        <ele>177.3</ele>
        <time>2020-06-08T08:16:06Z</time>
      </trkpt>
      <trkpt lat="48.02339" lon="-3.75556">
        <ele>177.3</ele>
        <time>2020-06-08T08:16:07Z</time>
      </trkpt>
      <trkpt lat="48.02343" lon="-3.75557">
        <ele>177.4</ele>
        <time>2020-06-08T08:16:08Z</time>
      </trkpt>
      <trkpt lat="48.02346" lon="-3.75558">
        <ele>177.5</ele>
        <time>2020-06-08T08:16:09Z</time>
      </trkpt>
      <trkpt lat="48.0235" lon="-3.75559">
        <ele>177.6</ele>
        <time>2020-06-08T08:16:10Z</time>
      </trkpt>
      <trkpt lat="48.02354" lon="-3.7556">
        <ele>177.7</ele>
        <time>2020-06-08T08:16:11Z</time>
      </trkpt>
      <trkpt lat="48.02357" lon="-3.7556">
        <ele>177.8</ele>
        <time>2020-06-08T08:16:12Z</time>
      </trkpt>
      <trkpt lat="48.0236" lon="-3.7556">
        <ele>177.9</ele>
        <time>2020-06-08T08:16:13Z</time>
      </trkpt>
      <trkpt lat="48.02364" lon="-3.7556">
        <ele>177.9</ele>
        <time>2020-06-08T08:16:14Z</time>
      </trkpt>
      <trkpt lat="48.02368" lon="-3.7556">
        <ele>178.1</ele>
        <time>2020-06-08T08:16:15Z</time>
      </trkpt>
      <trkpt lat="48.02372" lon="-3.7556">
        <ele>178.2</ele>
        <time>2020-06-08T08:16:16Z</time>
      </trkpt>
      <trkpt lat="48.02376" lon="-3.75559">
        <ele>178.3</ele>
        <time>2020-06-08T08:16:17Z</time>
      </trkpt>
      <trkpt lat="48.0238" lon="-3.7556">
        <ele>178.4</ele>
        <time>2020-06-08T08:16:18Z</time>
      </trkpt>
      <trkpt lat="48.02384" lon="-3.75561">
        <ele>178.5</ele>
        <time>2020-06-08T08:16:19Z</time>
      </trkpt>
      <trkpt lat="48.02388" lon="-3.75561">
        <ele>178.6</ele>
        <time>2020-06-08T08:16:20Z</time>
      </trkpt>
      <trkpt lat="48.02392" lon="-3.75561">
        <ele>178.7</ele>
        <time>2020-06-08T08:16:21Z</time>
      </trkpt>
      <trkpt lat="48.02395" lon="-3.75562">
        <ele>178.8</ele>
        <time>2020-06-08T08:16:22Z</time>
      </trkpt>
      <trkpt lat="48.02398" lon="-3.75562">
        <ele>178.9</ele>
        <time>2020-06-08T08:16:23Z</time>
      </trkpt>
      <trkpt lat="48.02401" lon="-3.75562">
        <ele>179.2</ele>
        <time>2020-06-08T08:16:24Z</time>
      </trkpt>
      <trkpt lat="48.02405" lon="-3.75562">
        <ele>179.5</ele>
        <time>2020-06-08T08:16:25Z</time>
      </trkpt>
      <trkpt lat="48.02407" lon="-3.75561">
        <ele>179.6</ele>
        <time>2020-06-08T08:16:26Z</time>
      </trkpt>
      <trkpt lat="48.02411" lon="-3.7556">
        <ele>179.8</ele>
        <time>2020-06-08T08:16:27Z</time>
      </trkpt>
      <trkpt lat="48.02414" lon="-3.7556">
        <ele>180</ele>
        <time>2020-06-08T08:16:28Z</time>
      </trkpt>
      <trkpt lat="48.02417" lon="-3.75559">
        <ele>180.2</ele>
        <time>2020-06-08T08:16:29Z</time>
      </trkpt>
      <trkpt lat="48.02421" lon="-3.7556">
        <ele>180.3</ele>
        <time>2020-06-08T08:16:30Z</time>
      </trkpt>
      <trkpt lat="48.02424" lon="-3.75561">
        <ele>180.5</ele>
        <time>2020-06-08T08:16:31Z</time>
      </trkpt>
      <trkpt lat="48.02427" lon="-3.75562">
        <ele>180.6</ele>
        <time>2020-06-08T08:16:32Z</time>
      </trkpt>
      <trkpt lat="48.02431" lon="-3.75561">
        <ele>180.8</ele>
        <time>2020-06-08T08:16:33Z</time>
      </trkpt>
      <trkpt lat="48.02434" lon="-3.75561">
        <ele>180.9</ele>
        <time>2020-06-08T08:16:34Z</time>
      </trkpt>
      <trkpt lat="48.02438" lon="-3.75561">
        <ele>181.1</ele>
        <time>2020-06-08T08:16:35Z</time>
      </trkpt>
      <trkpt lat="48.0244" lon="-3.75561">
        <ele>181.2</ele>
        <time>2020-06-08T08:16:36Z</time>
      </trkpt>
      <trkpt lat="48.02443" lon="-3.75561">
        <ele>181.4</ele>
        <time>2020-06-08T08:16:37Z</time>
      </trkpt>
      <trkpt lat="48.02446" lon="-3.75561">
        <ele>181.5</ele>
        <time>2020-06-08T08:16:38Z</time>
      </trkpt>
      <trkpt lat="48.02449" lon="-3.75562">
        <ele>181.6</ele>
        <time>2020-06-08T08:16:39Z</time>
      </trkpt>
      <trkpt lat="48.02452" lon="-3.75562">
        <ele>181.8</ele>
        <time>2020-06-08T08:16:40Z</time>
      </trkpt>
      <trkpt lat="48.02454" lon="-3.75562">
        <ele>181.9</ele>
        <time>2020-06-08T08:16:41Z</time>
      </trkpt>
      <trkpt lat="48.02457" lon="-3.75562">
        <ele>182</ele>
        <time>2020-06-08T08:16:42Z</time>
      </trkpt>
      <trkpt lat="48.0246" lon="-3.75562">
        <ele>182.2</ele>
        <time>2020-06-08T08:16:43Z</time>
      </trkpt>
      <trkpt lat="48.02464" lon="-3.75562">
        <ele>182.3</ele>
        <time>2020-06-08T08:16:44Z</time>
      </trkpt>
      <trkpt lat="48.02467" lon="-3.75563">
        <ele>182.5</ele>
        <time>2020-06-08T08:16:45Z</time>
      </trkpt>
      <trkpt lat="48.02471" lon="-3.75563">
        <ele>182.6</ele>
        <time>2020-06-08T08:16:46Z</time>
      </trkpt>
      <trkpt lat="48.02474" lon="-3.75564">
        <ele>182.8</ele>
        <time>2020-06-08T08:16:47Z</time>
      </trkpt>
      <trkpt lat="48.02477" lon="-3.75564">
        <ele>182.9</ele>
        <time>2020-06-08T08:16:48Z</time>
      </trkpt>
      <trkpt lat="48.0248" lon="-3.75565">
        <ele>183.1</ele>
        <time>2020-06-08T08:16:49Z</time>
      </trkpt>
      <trkpt lat="48.02483" lon="-3.75565">
        <ele>183.2</ele>
        <time>2020-06-08T08:16:50Z</time>
      </trkpt>
      <trkpt lat="48.02486" lon="-3.75565">
        <ele>183.3</ele>
        <time>2020-06-08T08:16:51Z</time>
      </trkpt>
      <trkpt lat="48.02489" lon="-3.75564">
        <ele>183.4</ele>
        <time>2020-06-08T08:16:52Z</time>
      </trkpt>
      <trkpt lat="48.02492" lon="-3.75564">
        <ele>183.5</ele>
        <time>2020-06-08T08:16:53Z</time>
      </trkpt>
      <trkpt lat="48.02496" lon="-3.75563">
        <ele>183.7</ele>
        <time>2020-06-08T08:16:54Z</time>
      </trkpt>
      <trkpt lat="48.025" lon="-3.75563">
        <ele>183.8</ele>
        <time>2020-06-08T08:16:55Z</time>
      </trkpt>
      <trkpt lat="48.02503" lon="-3.75564">
        <ele>183.9</ele>
        <time>2020-06-08T08:16:56Z</time>
      </trkpt>
      <trkpt lat="48.02505" lon="-3.75565">
        <ele>184</ele>
        <time>2020-06-08T08:16:57Z</time>
      </trkpt>
      <trkpt lat="48.02508" lon="-3.75566">
        <ele>184.1</ele>
        <time>2020-06-08T08:16:58Z</time>
      </trkpt>
      <trkpt lat="48.02511" lon="-3.75566">
        <ele>184.3</ele>
        <time>2020-06-08T08:16:59Z</time>
      </trkpt>
      <trkpt lat="48.02515" lon="-3.75566">
        <ele>184.4</ele>
        <time>2020-06-08T08:17:00Z</time>
      </trkpt>
      <trkpt lat="48.02518" lon="-3.75566">
        <ele>184.5</ele>
        <time>2020-06-08T08:17:01Z</time>
      </trkpt>
      <trkpt lat="48.02521" lon="-3.75565">
        <ele>184.7</ele>
        <time>2020-06-08T08:17:02Z</time>
      </trkpt>
      <trkpt lat="48.02524" lon="-3.75565">
        <ele>184.8</ele>
        <time>2020-06-08T08:17:03Z</time>
      </trkpt>
      <trkpt lat="48.02527" lon="-3.75565">
        <ele>184.9</ele>
        <time>2020-06-08T08:17:04Z</time>
      </trkpt>
      <trkpt lat="48.0253" lon="-3.75565">
        <ele>185</ele>
        <time>2020-06-08T08:17:05Z</time>
      </trkpt>
      <trkpt lat="48.02534" lon="-3.75563">
        <ele>185.1</ele>
        <time>2020-06-08T08:17:06Z</time>
      </trkpt>
      <trkpt lat="48.02537" lon="-3.75562">
        <ele>185.2</ele>
        <time>2020-06-08T08:17:07Z</time>
      </trkpt>
      <trkpt lat="48.0254" lon="-3.75562">
        <ele>185.3</ele>
        <time>2020-06-08T08:17:08Z</time>
      </trkpt>
      <trkpt lat="48.02543" lon="-3.75562">
        <ele>185.4</ele>
        <time>2020-06-08T08:17:09Z</time>
      </trkpt>
      <trkpt lat="48.02547" lon="-3.75563">
        <ele>185.6</ele>
        <time>2020-06-08T08:17:10Z</time>
      </trkpt>
      <trkpt lat="48.02548" lon="-3.75563">
        <ele>185.6</ele>
        <time>2020-06-08T08:17:11Z</time>
      </trkpt>
      <trkpt lat="48.02551" lon="-3.75564">
        <ele>185.7</ele>
        <time>2020-06-08T08:17:12Z</time>
      </trkpt>
      <trkpt lat="48.02554" lon="-3.75564">
        <ele>185.9</ele>
        <time>2020-06-08T08:17:13Z</time>
      </trkpt>
      <trkpt lat="48.02557" lon="-3.75564">
        <ele>186</ele>
        <time>2020-06-08T08:17:14Z</time>
      </trkpt>
      <trkpt lat="48.02561" lon="-3.75564">
        <ele>186.1</ele>
        <time>2020-06-08T08:17:15Z</time>
      </trkpt>
      <trkpt lat="48.02565" lon="-3.75564">
        <ele>186.3</ele>
        <time>2020-06-08T08:17:16Z</time>
      </trkpt>
      <trkpt lat="48.02566" lon="-3.75564">
        <ele>186.3</ele>
        <time>2020-06-08T08:17:17Z</time>
      </trkpt>
      <trkpt lat="48.02569" lon="-3.75563">
        <ele>186.4</ele>
        <time>2020-06-08T08:17:18Z</time>
      </trkpt>
      <trkpt lat="48.02572" lon="-3.75563">
        <ele>186.5</ele>
        <time>2020-06-08T08:17:19Z</time>
      </trkpt>
      <trkpt lat="48.02576" lon="-3.75563">
        <ele>186.8</ele>
        <time>2020-06-08T08:17:20Z</time>
      </trkpt>
      <trkpt lat="48.02579" lon="-3.75563">
        <ele>187.1</ele>
        <time>2020-06-08T08:17:21Z</time>
      </trkpt>
      <trkpt lat="48.02584" lon="-3.75562">
        <ele>187.4</ele>
        <time>2020-06-08T08:17:22Z</time>
      </trkpt>
      <trkpt lat="48.02587" lon="-3.75562">
        <ele>187.7</ele>
        <time>2020-06-08T08:17:23Z</time>
      </trkpt>
      <trkpt lat="48.0259" lon="-3.75562">
        <ele>187.9</ele>
        <time>2020-06-08T08:17:24Z</time>
      </trkpt>
      <trkpt lat="48.02593" lon="-3.75563">
        <ele>188.2</ele>
        <time>2020-06-08T08:17:25Z</time>
      </trkpt>
      <trkpt lat="48.02596" lon="-3.75563">
        <ele>188.4</ele>
        <time>2020-06-08T08:17:26Z</time>
      </trkpt>
      <trkpt lat="48.02599" lon="-3.75564">
        <ele>188.6</ele>
        <time>2020-06-08T08:17:27Z</time>
      </trkpt>
      <trkpt lat="48.02603" lon="-3.75563">
        <ele>188.9</ele>
        <time>2020-06-08T08:17:28Z</time>
      </trkpt>
      <trkpt lat="48.02607" lon="-3.75563">
        <ele>189.1</ele>
        <time>2020-06-08T08:17:29Z</time>
      </trkpt>
      <trkpt lat="48.02611" lon="-3.75563">
        <ele>189.3</ele>
        <time>2020-06-08T08:17:30Z</time>
      </trkpt>
      <trkpt lat="48.02615" lon="-3.75563">
        <ele>189.6</ele>
        <time>2020-06-08T08:17:31Z</time>
      </trkpt>
      <trkpt lat="48.02619" lon="-3.75562">
        <ele>189.8</ele>
        <time>2020-06-08T08:17:32Z</time>
      </trkpt>
      <trkpt lat="48.02623" lon="-3.75562">
        <ele>190</ele>
        <time>2020-06-08T08:17:33Z</time>
      </trkpt>
      <trkpt lat="48.02626" lon="-3.75563">
        <ele>190.2</ele>
        <time>2020-06-08T08:17:34Z</time>
      </trkpt>
      <trkpt lat="48.0263" lon="-3.75565">
        <ele>190.4</ele>
        <time>2020-06-08T08:17:35Z</time>
      </trkpt>
      <trkpt lat="48.02634" lon="-3.75566">
        <ele>190.6</ele>
        <time>2020-06-08T08:17:36Z</time>
      </trkpt>
      <trkpt lat="48.02637" lon="-3.75567">
        <ele>190.7</ele>
        <time>2020-06-08T08:17:37Z</time>
      </trkpt>
      <trkpt lat="48.02641" lon="-3.75569">
        <ele>190.8</ele>
        <time>2020-06-08T08:17:38Z</time>
      </trkpt>
      <trkpt lat="48.02644" lon="-3.7557">
        <ele>190.9</ele>
        <time>2020-06-08T08:17:39Z</time>
      </trkpt>
      <trkpt lat="48.02647" lon="-3.7557">
        <ele>191</ele>
        <time>2020-06-08T08:17:40Z</time>
      </trkpt>
      <trkpt lat="48.0265" lon="-3.75569">
        <ele>190.9</ele>
        <time>2020-06-08T08:17:41Z</time>
      </trkpt>
      <trkpt lat="48.02653" lon="-3.75568">
        <ele>190.8</ele>
        <time>2020-06-08T08:17:42Z</time>
      </trkpt>
      <trkpt lat="48.02656" lon="-3.75569">
        <ele>190.6</ele>
        <time>2020-06-08T08:17:43Z</time>
      </trkpt>
      <trkpt lat="48.02659" lon="-3.7557">
        <ele>190.4</ele>
        <time>2020-06-08T08:17:44Z</time>
      </trkpt>
      <trkpt lat="48.02662" lon="-3.7557">
        <ele>190</ele>
        <time>2020-06-08T08:17:45Z</time>
      </trkpt>
      <trkpt lat="48.02666" lon="-3.7557">
        <ele>189.4</ele>
        <time>2020-06-08T08:17:46Z</time>
      </trkpt>
      <trkpt lat="48.0267" lon="-3.75571">
        <ele>188.8</ele>
        <time>2020-06-08T08:17:47Z</time>
      </trkpt>
      <trkpt lat="48.02673" lon="-3.75572">
        <ele>188.2</ele>
        <time>2020-06-08T08:17:48Z</time>
      </trkpt>
      <trkpt lat="48.02678" lon="-3.75573">
        <ele>187.5</ele>
        <time>2020-06-08T08:17:49Z</time>
      </trkpt>
      <trkpt lat="48.02682" lon="-3.75574">
        <ele>187.3</ele>
        <time>2020-06-08T08:17:50Z</time>
      </trkpt>
      <trkpt lat="48.02685" lon="-3.75575">
        <ele>187.5</ele>
        <time>2020-06-08T08:17:51Z</time>
      </trkpt>
      <trkpt lat="48.02688" lon="-3.75576">
        <ele>187.6</ele>
        <time>2020-06-08T08:17:52Z</time>
      </trkpt>
      <trkpt lat="48.02691" lon="-3.75576">
        <ele>187.7</ele>
        <time>2020-06-08T08:17:53Z</time>
      </trkpt>
      <trkpt lat="48.02694" lon="-3.75577">
        <ele>187.8</ele>
        <time>2020-06-08T08:17:54Z</time>
      </trkpt>
      <trkpt lat="48.02698" lon="-3.75578">
        <ele>187.9</ele>
        <time>2020-06-08T08:17:55Z</time>
      </trkpt>
      <trkpt lat="48.02701" lon="-3.75578">
        <ele>188</ele>
        <time>2020-06-08T08:17:56Z</time>
      </trkpt>
      <trkpt lat="48.02704" lon="-3.75578">
        <ele>188.1</ele>
        <time>2020-06-08T08:17:57Z</time>
      </trkpt>
      <trkpt lat="48.02708" lon="-3.75578">
        <ele>188.2</ele>
        <time>2020-06-08T08:17:58Z</time>
      </trkpt>
      <trkpt lat="48.02712" lon="-3.75577">
        <ele>188.3</ele>
        <time>2020-06-08T08:17:59Z</time>
      </trkpt>
      <trkpt lat="48.02716" lon="-3.75577">
        <ele>188.4</ele>
        <time>2020-06-08T08:18:00Z</time>
      </trkpt>
      <trkpt lat="48.02721" lon="-3.75576">
        <ele>188.5</ele>
        <time>2020-06-08T08:18:01Z</time>
      </trkpt>
      <trkpt lat="48.02724" lon="-3.75577">
        <ele>188.7</ele>
        <time>2020-06-08T08:18:02Z</time>
      </trkpt>
      <trkpt lat="48.02728" lon="-3.75577">
        <ele>188.8</ele>
        <time>2020-06-08T08:18:03Z</time>
      </trkpt>
      <trkpt lat="48.0273" lon="-3.75578">
        <ele>188.9</ele>
        <time>2020-06-08T08:18:04Z</time>
      </trkpt>
      <trkpt lat="48.02733" lon="-3.75578">
        <ele>189</ele>
        <time>2020-06-08T08:18:05Z</time>
      </trkpt>
      <trkpt lat="48.02737" lon="-3.75577">
        <ele>189</ele>
        <time>2020-06-08T08:18:06Z</time>
      </trkpt>
      <trkpt lat="48.0274" lon="-3.75578">
        <ele>189.1</ele>
        <time>2020-06-08T08:18:07Z</time>
      </trkpt>
      <trkpt lat="48.02744" lon="-3.75578">
        <ele>189.2</ele>
        <time>2020-06-08T08:18:08Z</time>
      </trkpt>
      <trkpt lat="48.02748" lon="-3.75578">
        <ele>189.3</ele>
        <time>2020-06-08T08:18:09Z</time>
      </trkpt>
      <trkpt lat="48.02751" lon="-3.75579">
        <ele>189.4</ele>
        <time>2020-06-08T08:18:10Z</time>
      </trkpt>
      <trkpt lat="48.02756" lon="-3.7558">
        <ele>189.6</ele>
        <time>2020-06-08T08:18:11Z</time>
      </trkpt>
      <trkpt lat="48.0276" lon="-3.75579">
        <ele>189.7</ele>
        <time>2020-06-08T08:18:12Z</time>
      </trkpt>
      <trkpt lat="48.02764" lon="-3.75578">
        <ele>189.8</ele>
        <time>2020-06-08T08:18:13Z</time>
      </trkpt>
      <trkpt lat="48.02767" lon="-3.75578">
        <ele>189.9</ele>
        <time>2020-06-08T08:18:14Z</time>
      </trkpt>
      <trkpt lat="48.0277" lon="-3.7558">
        <ele>189.9</ele>
        <time>2020-06-08T08:18:15Z</time>
      </trkpt>
      <trkpt lat="48.02774" lon="-3.75581">
        <ele>189.9</ele>
        <time>2020-06-08T08:18:16Z</time>
      </trkpt>
      <trkpt lat="48.02778" lon="-3.75582">
        <ele>189.9</ele>
        <time>2020-06-08T08:18:17Z</time>
      </trkpt>
      <trkpt lat="48.02782" lon="-3.75583">
        <ele>190</ele>
        <time>2020-06-08T08:18:18Z</time>
      </trkpt>
      <trkpt lat="48.02787" lon="-3.75583">
        <ele>190</ele>
        <time>2020-06-08T08:18:19Z</time>
      </trkpt>
      <trkpt lat="48.02791" lon="-3.75584">
        <ele>190.1</ele>
        <time>2020-06-08T08:18:20Z</time>
      </trkpt>
      <trkpt lat="48.02795" lon="-3.75584">
        <ele>190.1</ele>
        <time>2020-06-08T08:18:21Z</time>
      </trkpt>
      <trkpt lat="48.02799" lon="-3.75585">
        <ele>190.1</ele>
        <time>2020-06-08T08:18:22Z</time>
      </trkpt>
      <trkpt lat="48.02802" lon="-3.75585">
        <ele>190.2</ele>
        <time>2020-06-08T08:18:23Z</time>
      </trkpt>
      <trkpt lat="48.02806" lon="-3.75585">
        <ele>190.2</ele>
        <time>2020-06-08T08:18:24Z</time>
      </trkpt>
      <trkpt lat="48.0281" lon="-3.75586">
        <ele>190.2</ele>
        <time>2020-06-08T08:18:25Z</time>
      </trkpt>
      <trkpt lat="48.02814" lon="-3.75586">
        <ele>190.2</ele>
        <time>2020-06-08T08:18:26Z</time>
      </trkpt>
      <trkpt lat="48.02818" lon="-3.75586">
        <ele>190.2</ele>
        <time>2020-06-08T08:18:27Z</time>
      </trkpt>
      <trkpt lat="48.02822" lon="-3.75587">
        <ele>190.2</ele>
        <time>2020-06-08T08:18:28Z</time>
      </trkpt>
      <trkpt lat="48.02827" lon="-3.75587">
        <ele>190.2</ele>
        <time>2020-06-08T08:18:29Z</time>
      </trkpt>
      <trkpt lat="48.02832" lon="-3.75588">
        <ele>190.2</ele>
        <time>2020-06-08T08:18:30Z</time>
      </trkpt>
      <trkpt lat="48.02836" lon="-3.7559">
        <ele>190.3</ele>
        <time>2020-06-08T08:18:31Z</time>
      </trkpt>
      <trkpt lat="48.02841" lon="-3.7559">
        <ele>190.4</ele>
        <time>2020-06-08T08:18:32Z</time>
      </trkpt>
      <trkpt lat="48.02845" lon="-3.75591">
        <ele>190.5</ele>
        <time>2020-06-08T08:18:33Z</time>
      </trkpt>
      <trkpt lat="48.0285" lon="-3.75591">
        <ele>190.6</ele>
        <time>2020-06-08T08:18:34Z</time>
      </trkpt>
      <trkpt lat="48.02854" lon="-3.7559">
        <ele>190.7</ele>
        <time>2020-06-08T08:18:35Z</time>
      </trkpt>
      <trkpt lat="48.02857" lon="-3.7559">
        <ele>190.7</ele>
        <time>2020-06-08T08:18:36Z</time>
      </trkpt>
      <trkpt lat="48.02862" lon="-3.75591">
        <ele>190.8</ele>
        <time>2020-06-08T08:18:37Z</time>
      </trkpt>
      <trkpt lat="48.02866" lon="-3.7559">
        <ele>190.9</ele>
        <time>2020-06-08T08:18:38Z</time>
      </trkpt>
      <trkpt lat="48.0287" lon="-3.75589">
        <ele>191</ele>
        <time>2020-06-08T08:18:39Z</time>
      </trkpt>
      <trkpt lat="48.02874" lon="-3.75589">
        <ele>191.1</ele>
        <time>2020-06-08T08:18:40Z</time>
      </trkpt>
      <trkpt lat="48.02878" lon="-3.75589">
        <ele>191.2</ele>
        <time>2020-06-08T08:18:41Z</time>
      </trkpt>
      <trkpt lat="48.02882" lon="-3.75589">
        <ele>191.3</ele>
        <time>2020-06-08T08:18:42Z</time>
      </trkpt>
      <trkpt lat="48.02886" lon="-3.75588">
        <ele>191.5</ele>
        <time>2020-06-08T08:18:43Z</time>
      </trkpt>
      <trkpt lat="48.02889" lon="-3.75588">
        <ele>191.6</ele>
        <time>2020-06-08T08:18:44Z</time>
      </trkpt>
      <trkpt lat="48.02893" lon="-3.75588">
        <ele>191.7</ele>
        <time>2020-06-08T08:18:45Z</time>
      </trkpt>
      <trkpt lat="48.02897" lon="-3.75588">
        <ele>191.8</ele>
        <time>2020-06-08T08:18:46Z</time>
      </trkpt>
      <trkpt lat="48.02901" lon="-3.75588">
        <ele>191.8</ele>
        <time>2020-06-08T08:18:47Z</time>
      </trkpt>
      <trkpt lat="48.02905" lon="-3.75588">
        <ele>191.9</ele>
        <time>2020-06-08T08:18:48Z</time>
      </trkpt>
      <trkpt lat="48.02909" lon="-3.75588">
        <ele>192</ele>
        <time>2020-06-08T08:18:49Z</time>
      </trkpt>
      <trkpt lat="48.02912" lon="-3.75588">
        <ele>192.1</ele>
        <time>2020-06-08T08:18:50Z</time>
      </trkpt>
      <trkpt lat="48.02916" lon="-3.75588">
        <ele>192.1</ele>
        <time>2020-06-08T08:18:51Z</time>
      </trkpt>
      <trkpt lat="48.02919" lon="-3.75588">
        <ele>192.1</ele>
        <time>2020-06-08T08:18:52Z</time>
      </trkpt>
      <trkpt lat="48.02923" lon="-3.75588">
        <ele>192.2</ele>
        <time>2020-06-08T08:18:53Z</time>
      </trkpt>
      <trkpt lat="48.02926" lon="-3.75587">
        <ele>192.2</ele>
        <time>2020-06-08T08:18:54Z</time>
      </trkpt>
      <trkpt lat="48.02929" lon="-3.75588">
        <ele>192.2</ele>
        <time>2020-06-08T08:18:55Z</time>
      </trkpt>
      <trkpt lat="48.02933" lon="-3.75587">
        <ele>192.2</ele>
        <time>2020-06-08T08:18:56Z</time>
      </trkpt>
      <trkpt lat="48.02936" lon="-3.75588">
        <ele>192.2</ele>
        <time>2020-06-08T08:18:57Z</time>
      </trkpt>
      <trkpt lat="48.0294" lon="-3.75588">
        <ele>192.2</ele>
        <time>2020-06-08T08:18:58Z</time>
      </trkpt>
      <trkpt lat="48.02943" lon="-3.75589">
        <ele>192.2</ele>
        <time>2020-06-08T08:18:59Z</time>
      </trkpt>
      <trkpt lat="48.02947" lon="-3.7559">
        <ele>192.3</ele>
        <time>2020-06-08T08:19:00Z</time>
      </trkpt>
      <trkpt lat="48.0295" lon="-3.75591">
        <ele>192.3</ele>
        <time>2020-06-08T08:19:01Z</time>
      </trkpt>
      <trkpt lat="48.02953" lon="-3.75591">
        <ele>192.4</ele>
        <time>2020-06-08T08:19:02Z</time>
      </trkpt>
      <trkpt lat="48.02956" lon="-3.75591">
        <ele>192.4</ele>
        <time>2020-06-08T08:19:03Z</time>
      </trkpt>
      <trkpt lat="48.02961" lon="-3.7559">
        <ele>192.5</ele>
        <time>2020-06-08T08:19:04Z</time>
      </trkpt>
      <trkpt lat="48.02966" lon="-3.75592">
        <ele>192.6</ele>
        <time>2020-06-08T08:19:05Z</time>
      </trkpt>
      <trkpt lat="48.0297" lon="-3.75592">
        <ele>192.6</ele>
        <time>2020-06-08T08:19:06Z</time>
      </trkpt>
      <trkpt lat="48.02974" lon="-3.75593">
        <ele>192.6</ele>
        <time>2020-06-08T08:19:07Z</time>
      </trkpt>
      <trkpt lat="48.02979" lon="-3.75594">
        <ele>192.7</ele>
        <time>2020-06-08T08:19:08Z</time>
      </trkpt>
      <trkpt lat="48.02982" lon="-3.75596">
        <ele>192.7</ele>
        <time>2020-06-08T08:19:09Z</time>
      </trkpt>
      <trkpt lat="48.02986" lon="-3.75597">
        <ele>192.8</ele>
        <time>2020-06-08T08:19:10Z</time>
      </trkpt>
      <trkpt lat="48.02991" lon="-3.75597">
        <ele>192.8</ele>
        <time>2020-06-08T08:19:11Z</time>
      </trkpt>
      <trkpt lat="48.02995" lon="-3.75598">
        <ele>192.9</ele>
        <time>2020-06-08T08:19:12Z</time>
      </trkpt>
      <trkpt lat="48.02999" lon="-3.75598">
        <ele>192.9</ele>
        <time>2020-06-08T08:19:13Z</time>
      </trkpt>
      <trkpt lat="48.03003" lon="-3.75601">
        <ele>192.9</ele>
        <time>2020-06-08T08:19:14Z</time>
      </trkpt>
      <trkpt lat="48.03006" lon="-3.75602">
        <ele>193</ele>
        <time>2020-06-08T08:19:15Z</time>
      </trkpt>
      <trkpt lat="48.0301" lon="-3.75604">
        <ele>193</ele>
        <time>2020-06-08T08:19:16Z</time>
      </trkpt>
      <trkpt lat="48.03013" lon="-3.75605">
        <ele>193</ele>
        <time>2020-06-08T08:19:17Z</time>
      </trkpt>
      <trkpt lat="48.03017" lon="-3.75606">
        <ele>193.1</ele>
        <time>2020-06-08T08:19:18Z</time>
      </trkpt>
      <trkpt lat="48.03022" lon="-3.75606">
        <ele>193.1</ele>
        <time>2020-06-08T08:19:19Z</time>
      </trkpt>
      <trkpt lat="48.03026" lon="-3.75607">
        <ele>193.1</ele>
        <time>2020-06-08T08:19:20Z</time>
      </trkpt>
      <trkpt lat="48.0303" lon="-3.75608">
        <ele>193.1</ele>
        <time>2020-06-08T08:19:21Z</time>
      </trkpt>
      <trkpt lat="48.03034" lon="-3.7561">
        <ele>193.2</ele>
        <time>2020-06-08T08:19:22Z</time>
      </trkpt>
      <trkpt lat="48.03037" lon="-3.75611">
        <ele>193.3</ele>
        <time>2020-06-08T08:19:23Z</time>
      </trkpt>
      <trkpt lat="48.03041" lon="-3.75612">
        <ele>193.3</ele>
        <time>2020-06-08T08:19:24Z</time>
      </trkpt>
      <trkpt lat="48.03045" lon="-3.75614">
        <ele>193.4</ele>
        <time>2020-06-08T08:19:25Z</time>
      </trkpt>
      <trkpt lat="48.0305" lon="-3.75616">
        <ele>193.5</ele>
        <time>2020-06-08T08:19:26Z</time>
      </trkpt>
      <trkpt lat="48.03054" lon="-3.75617">
        <ele>193.6</ele>
        <time>2020-06-08T08:19:27Z</time>
      </trkpt>
      <trkpt lat="48.03059" lon="-3.75618">
        <ele>193.7</ele>
        <time>2020-06-08T08:19:28Z</time>
      </trkpt>
      <trkpt lat="48.03063" lon="-3.75619">
        <ele>193.7</ele>
        <time>2020-06-08T08:19:29Z</time>
      </trkpt>
      <trkpt lat="48.03068" lon="-3.7562">
        <ele>193.8</ele>
        <time>2020-06-08T08:19:30Z</time>
      </trkpt>
      <trkpt lat="48.03072" lon="-3.75622">
        <ele>193.8</ele>
        <time>2020-06-08T08:19:31Z</time>
      </trkpt>
      <trkpt lat="48.03076" lon="-3.75623">
        <ele>193.9</ele>
        <time>2020-06-08T08:19:32Z</time>
      </trkpt>
      <trkpt lat="48.0308" lon="-3.75624">
        <ele>193.9</ele>
        <time>2020-06-08T08:19:33Z</time>
      </trkpt>
      <trkpt lat="48.03084" lon="-3.75625">
        <ele>194</ele>
        <time>2020-06-08T08:19:34Z</time>
      </trkpt>
      <trkpt lat="48.03089" lon="-3.75626">
        <ele>194.1</ele>
        <time>2020-06-08T08:19:35Z</time>
      </trkpt>
      <trkpt lat="48.03092" lon="-3.75627">
        <ele>194.2</ele>
        <time>2020-06-08T08:19:36Z</time>
      </trkpt>
      <trkpt lat="48.03095" lon="-3.75628">
        <ele>194.3</ele>
        <time>2020-06-08T08:19:37Z</time>
      </trkpt>
      <trkpt lat="48.03098" lon="-3.75629">
        <ele>194.4</ele>
        <time>2020-06-08T08:19:38Z</time>
      </trkpt>
      <trkpt lat="48.03102" lon="-3.75631">
        <ele>194.5</ele>
        <time>2020-06-08T08:19:39Z</time>
      </trkpt>
      <trkpt lat="48.03106" lon="-3.75631">
        <ele>194.6</ele>
        <time>2020-06-08T08:19:40Z</time>
      </trkpt>
      <trkpt lat="48.03109" lon="-3.75632">
        <ele>194.6</ele>
        <time>2020-06-08T08:19:41Z</time>
      </trkpt>
      <trkpt lat="48.03113" lon="-3.75633">
        <ele>194.7</ele>
        <time>2020-06-08T08:19:42Z</time>
      </trkpt>
      <trkpt lat="48.03116" lon="-3.75634">
        <ele>194.7</ele>
        <time>2020-06-08T08:19:43Z</time>
      </trkpt>
      <trkpt lat="48.03119" lon="-3.75634">
        <ele>194.7</ele>
        <time>2020-06-08T08:19:44Z</time>
      </trkpt>
      <trkpt lat="48.03123" lon="-3.75634">
        <ele>194.7</ele>
        <time>2020-06-08T08:19:45Z</time>
      </trkpt>
      <trkpt lat="48.03126" lon="-3.75636">
        <ele>194.8</ele>
        <time>2020-06-08T08:19:46Z</time>
      </trkpt>
      <trkpt lat="48.03131" lon="-3.75639">
        <ele>194.8</ele>
        <time>2020-06-08T08:19:47Z</time>
      </trkpt>
      <trkpt lat="48.03135" lon="-3.7564">
        <ele>194.8</ele>
        <time>2020-06-08T08:19:48Z</time>
      </trkpt>
      <trkpt lat="48.0314" lon="-3.75642">
        <ele>194.9</ele>
        <time>2020-06-08T08:19:49Z</time>
      </trkpt>
      <trkpt lat="48.03145" lon="-3.75644">
        <ele>194.9</ele>
        <time>2020-06-08T08:19:50Z</time>
      </trkpt>
      <trkpt lat="48.03149" lon="-3.75647">
        <ele>195</ele>
        <time>2020-06-08T08:19:51Z</time>
      </trkpt>
      <trkpt lat="48.03152" lon="-3.75649">
        <ele>195.1</ele>
        <time>2020-06-08T08:19:52Z</time>
      </trkpt>
      <trkpt lat="48.03155" lon="-3.7565">
        <ele>195.2</ele>
        <time>2020-06-08T08:19:53Z</time>
      </trkpt>
      <trkpt lat="48.03159" lon="-3.75653">
        <ele>195.3</ele>
        <time>2020-06-08T08:19:54Z</time>
      </trkpt>
      <trkpt lat="48.03163" lon="-3.75655">
        <ele>195.4</ele>
        <time>2020-06-08T08:19:55Z</time>
      </trkpt>
      <trkpt lat="48.03166" lon="-3.75657">
        <ele>195.6</ele>
        <time>2020-06-08T08:19:56Z</time>
      </trkpt>
      <trkpt lat="48.0317" lon="-3.75658">
        <ele>195.7</ele>
        <time>2020-06-08T08:19:57Z</time>
      </trkpt>
      <trkpt lat="48.03174" lon="-3.7566">
        <ele>195.9</ele>
        <time>2020-06-08T08:19:58Z</time>
      </trkpt>
      <trkpt lat="48.03178" lon="-3.75663">
        <ele>196</ele>
        <time>2020-06-08T08:19:59Z</time>
      </trkpt>
      <trkpt lat="48.03181" lon="-3.75664">
        <ele>196.1</ele>
        <time>2020-06-08T08:20:00Z</time>
      </trkpt>
      <trkpt lat="48.03184" lon="-3.75666">
        <ele>196.2</ele>
        <time>2020-06-08T08:20:01Z</time>
      </trkpt>
      <trkpt lat="48.03187" lon="-3.75667">
        <ele>196.3</ele>
        <time>2020-06-08T08:20:02Z</time>
      </trkpt>
      <trkpt lat="48.03191" lon="-3.75669">
        <ele>196.4</ele>
        <time>2020-06-08T08:20:03Z</time>
      </trkpt>
      <trkpt lat="48.03195" lon="-3.7567">
        <ele>196.5</ele>
        <time>2020-06-08T08:20:04Z</time>
      </trkpt>
      <trkpt lat="48.03199" lon="-3.7567">
        <ele>196.7</ele>
        <time>2020-06-08T08:20:05Z</time>
      </trkpt>
      <trkpt lat="48.03202" lon="-3.7567">
        <ele>196.8</ele>
        <time>2020-06-08T08:20:06Z</time>
      </trkpt>
      <trkpt lat="48.03206" lon="-3.75672">
        <ele>196.9</ele>
        <time>2020-06-08T08:20:07Z</time>
      </trkpt>
      <trkpt lat="48.0321" lon="-3.75674">
        <ele>197.1</ele>
        <time>2020-06-08T08:20:08Z</time>
      </trkpt>
      <trkpt lat="48.03214" lon="-3.75676">
        <ele>197.3</ele>
        <time>2020-06-08T08:20:09Z</time>
      </trkpt>
      <trkpt lat="48.03218" lon="-3.75677">
        <ele>197.5</ele>
        <time>2020-06-08T08:20:10Z</time>
      </trkpt>
      <trkpt lat="48.03221" lon="-3.75678">
        <ele>197.7</ele>
        <time>2020-06-08T08:20:11Z</time>
      </trkpt>
      <trkpt lat="48.03226" lon="-3.75679">
        <ele>197.9</ele>
        <time>2020-06-08T08:20:12Z</time>
      </trkpt>
      <trkpt lat="48.03227" lon="-3.75679">
        <ele>198</ele>
        <time>2020-06-08T08:20:13Z</time>
      </trkpt>
      <trkpt lat="48.03231" lon="-3.7568">
        <ele>198.1</ele>
        <time>2020-06-08T08:20:14Z</time>
      </trkpt>
      <trkpt lat="48.03235" lon="-3.75678">
        <ele>198.3</ele>
        <time>2020-06-08T08:20:15Z</time>
      </trkpt>
      <trkpt lat="48.03238" lon="-3.75677">
        <ele>198.4</ele>
        <time>2020-06-08T08:20:16Z</time>
      </trkpt>
      <trkpt lat="48.03241" lon="-3.75676">
        <ele>198.5</ele>
        <time>2020-06-08T08:20:17Z</time>
      </trkpt>
      <trkpt lat="48.03245" lon="-3.75673">
        <ele>198.6</ele>
        <time>2020-06-08T08:20:18Z</time>
      </trkpt>
      <trkpt lat="48.03248" lon="-3.75669">
        <ele>198.6</ele>
        <time>2020-06-08T08:20:19Z</time>
      </trkpt>
      <trkpt lat="48.0325" lon="-3.75666">
        <ele>198.6</ele>
        <time>2020-06-08T08:20:20Z</time>
      </trkpt>
      <trkpt lat="48.03253" lon="-3.75661">
        <ele>198.6</ele>
        <time>2020-06-08T08:20:21Z</time>
      </trkpt>
      <trkpt lat="48.03255" lon="-3.75657">
        <ele>198.6</ele>
        <time>2020-06-08T08:20:22Z</time>
      </trkpt>
      <trkpt lat="48.03257" lon="-3.75653">
        <ele>198.6</ele>
        <time>2020-06-08T08:20:23Z</time>
      </trkpt>
      <trkpt lat="48.03259" lon="-3.75649">
        <ele>198.6</ele>
        <time>2020-06-08T08:20:24Z</time>
      </trkpt>
      <trkpt lat="48.03261" lon="-3.75646">
        <ele>198.6</ele>
        <time>2020-06-08T08:20:25Z</time>
      </trkpt>
      <trkpt lat="48.03265" lon="-3.75644">
        <ele>198.6</ele>
        <time>2020-06-08T08:20:26Z</time>
      </trkpt>
      <trkpt lat="48.03266" lon="-3.75644">
        <ele>198.6</ele>
        <time>2020-06-08T08:20:27Z</time>
      </trkpt>
      <trkpt lat="48.0327" lon="-3.75647">
        <ele>198.6</ele>
        <time>2020-06-08T08:20:28Z</time>
      </trkpt>
      <trkpt lat="48.03273" lon="-3.75647">
        <ele>198.6</ele>
        <time>2020-06-08T08:20:29Z</time>
      </trkpt>
      <trkpt lat="48.03278" lon="-3.75649">
        <ele>198.6</ele>
        <time>2020-06-08T08:20:30Z</time>
      </trkpt>
      <trkpt lat="48.03282" lon="-3.7565">
        <ele>198.6</ele>
        <time>2020-06-08T08:20:31Z</time>
      </trkpt>
      <trkpt lat="48.03286" lon="-3.75652">
        <ele>198.6</ele>
        <time>2020-06-08T08:20:32Z</time>
      </trkpt>
      <trkpt lat="48.0329" lon="-3.75654">
        <ele>198.6</ele>
        <time>2020-06-08T08:20:33Z</time>
      </trkpt>
      <trkpt lat="48.03293" lon="-3.75656">
        <ele>198.6</ele>
        <time>2020-06-08T08:20:34Z</time>
      </trkpt>
      <trkpt lat="48.03297" lon="-3.75658">
        <ele>198.5</ele>
        <time>2020-06-08T08:20:35Z</time>
      </trkpt>
      <trkpt lat="48.03301" lon="-3.7566">
        <ele>198.5</ele>
        <time>2020-06-08T08:20:36Z</time>
      </trkpt>
      <trkpt lat="48.03305" lon="-3.75661">
        <ele>198.5</ele>
        <time>2020-06-08T08:20:37Z</time>
      </trkpt>
      <trkpt lat="48.03309" lon="-3.75663">
        <ele>198.5</ele>
        <time>2020-06-08T08:20:38Z</time>
      </trkpt>
      <trkpt lat="48.03314" lon="-3.75665">
        <ele>198.5</ele>
        <time>2020-06-08T08:20:39Z</time>
      </trkpt>
      <trkpt lat="48.03318" lon="-3.75667">
        <ele>198.6</ele>
        <time>2020-06-08T08:20:40Z</time>
      </trkpt>
      <trkpt lat="48.03322" lon="-3.75668">
        <ele>198.6</ele>
        <time>2020-06-08T08:20:41Z</time>
      </trkpt>
      <trkpt lat="48.03326" lon="-3.7567">
        <ele>198.6</ele>
        <time>2020-06-08T08:20:42Z</time>
      </trkpt>
      <trkpt lat="48.03329" lon="-3.75672">
        <ele>198.7</ele>
        <time>2020-06-08T08:20:43Z</time>
      </trkpt>
      <trkpt lat="48.03332" lon="-3.75673">
        <ele>198.7</ele>
        <time>2020-06-08T08:20:44Z</time>
      </trkpt>
      <trkpt lat="48.03335" lon="-3.75672">
        <ele>198.7</ele>
        <time>2020-06-08T08:20:45Z</time>
      </trkpt>
      <trkpt lat="48.03338" lon="-3.75673">
        <ele>198.7</ele>
        <time>2020-06-08T08:20:46Z</time>
      </trkpt>
      <trkpt lat="48.03342" lon="-3.75674">
        <ele>198.7</ele>
        <time>2020-06-08T08:20:47Z</time>
      </trkpt>
      <trkpt lat="48.03344" lon="-3.75675">
        <ele>198.7</ele>
        <time>2020-06-08T08:20:48Z</time>
      </trkpt>
      <trkpt lat="48.03347" lon="-3.75676">
        <ele>198.7</ele>
        <time>2020-06-08T08:20:49Z</time>
      </trkpt>
      <trkpt lat="48.03351" lon="-3.75678">
        <ele>198.8</ele>
        <time>2020-06-08T08:20:50Z</time>
      </trkpt>
      <trkpt lat="48.03354" lon="-3.75679">
        <ele>198.8</ele>
        <time>2020-06-08T08:20:51Z</time>
      </trkpt>
      <trkpt lat="48.03358" lon="-3.7568">
        <ele>198.8</ele>
        <time>2020-06-08T08:20:52Z</time>
      </trkpt>
      <trkpt lat="48.03361" lon="-3.75681">
        <ele>198.8</ele>
        <time>2020-06-08T08:20:53Z</time>
      </trkpt>
      <trkpt lat="48.03365" lon="-3.75681">
        <ele>198.9</ele>
        <time>2020-06-08T08:20:54Z</time>
      </trkpt>
      <trkpt lat="48.03368" lon="-3.75682">
        <ele>198.9</ele>
        <time>2020-06-08T08:20:55Z</time>
      </trkpt>
      <trkpt lat="48.03371" lon="-3.75681">
        <ele>199</ele>
        <time>2020-06-08T08:20:56Z</time>
      </trkpt>
      <trkpt lat="48.03375" lon="-3.75681">
        <ele>199</ele>
        <time>2020-06-08T08:20:57Z</time>
      </trkpt>
      <trkpt lat="48.03378" lon="-3.7568">
        <ele>199</ele>
        <time>2020-06-08T08:20:58Z</time>
      </trkpt>
      <trkpt lat="48.03382" lon="-3.7568">
        <ele>199.1</ele>
        <time>2020-06-08T08:20:59Z</time>
      </trkpt>
      <trkpt lat="48.03386" lon="-3.7568">
        <ele>199.1</ele>
        <time>2020-06-08T08:21:00Z</time>
      </trkpt>
      <trkpt lat="48.03389" lon="-3.7568">
        <ele>199.2</ele>
        <time>2020-06-08T08:21:01Z</time>
      </trkpt>
      <trkpt lat="48.03392" lon="-3.75682">
        <ele>199.2</ele>
        <time>2020-06-08T08:21:02Z</time>
      </trkpt>
      <trkpt lat="48.03395" lon="-3.75684">
        <ele>199.2</ele>
        <time>2020-06-08T08:21:03Z</time>
      </trkpt>
      <trkpt lat="48.03399" lon="-3.75685">
        <ele>199.2</ele>
        <time>2020-06-08T08:21:04Z</time>
      </trkpt>
      <trkpt lat="48.03402" lon="-3.75686">
        <ele>199.2</ele>
        <time>2020-06-08T08:21:05Z</time>
      </trkpt>
      <trkpt lat="48.03406" lon="-3.75687">
        <ele>199.2</ele>
        <time>2020-06-08T08:21:06Z</time>
      </trkpt>
      <trkpt lat="48.03409" lon="-3.75688">
        <ele>199.2</ele>
        <time>2020-06-08T08:21:07Z</time>
      </trkpt>
      <trkpt lat="48.03413" lon="-3.7569">
        <ele>199.2</ele>
        <time>2020-06-08T08:21:08Z</time>
      </trkpt>
      <trkpt lat="48.03416" lon="-3.75692">
        <ele>199.2</ele>
        <time>2020-06-08T08:21:09Z</time>
      </trkpt>
      <trkpt lat="48.0342" lon="-3.75692">
        <ele>199.2</ele>
        <time>2020-06-08T08:21:10Z</time>
      </trkpt>
      <trkpt lat="48.03424" lon="-3.75693">
        <ele>199.2</ele>
        <time>2020-06-08T08:21:11Z</time>
      </trkpt>
      <trkpt lat="48.03428" lon="-3.75695">
        <ele>199.2</ele>
        <time>2020-06-08T08:21:12Z</time>
      </trkpt>
      <trkpt lat="48.03433" lon="-3.75696">
        <ele>199.2</ele>
        <time>2020-06-08T08:21:13Z</time>
      </trkpt>
      <trkpt lat="48.03436" lon="-3.75697">
        <ele>199.1</ele>
        <time>2020-06-08T08:21:14Z</time>
      </trkpt>
      <trkpt lat="48.03441" lon="-3.75698">
        <ele>199.1</ele>
        <time>2020-06-08T08:21:15Z</time>
      </trkpt>
      <trkpt lat="48.03445" lon="-3.75698">
        <ele>199</ele>
        <time>2020-06-08T08:21:16Z</time>
      </trkpt>
      <trkpt lat="48.03449" lon="-3.75699">
        <ele>199</ele>
        <time>2020-06-08T08:21:17Z</time>
      </trkpt>
      <trkpt lat="48.03453" lon="-3.757">
        <ele>198.9</ele>
        <time>2020-06-08T08:21:18Z</time>
      </trkpt>
      <trkpt lat="48.03458" lon="-3.75702">
        <ele>198.9</ele>
        <time>2020-06-08T08:21:19Z</time>
      </trkpt>
      <trkpt lat="48.03463" lon="-3.75705">
        <ele>198.8</ele>
        <time>2020-06-08T08:21:20Z</time>
      </trkpt>
      <trkpt lat="48.03468" lon="-3.75706">
        <ele>198.8</ele>
        <time>2020-06-08T08:21:21Z</time>
      </trkpt>
      <trkpt lat="48.03473" lon="-3.75708">
        <ele>198.7</ele>
        <time>2020-06-08T08:21:22Z</time>
      </trkpt>
      <trkpt lat="48.03478" lon="-3.7571">
        <ele>198.7</ele>
        <time>2020-06-08T08:21:23Z</time>
      </trkpt>
      <trkpt lat="48.03483" lon="-3.75713">
        <ele>198.7</ele>
        <time>2020-06-08T08:21:24Z</time>
      </trkpt>
      <trkpt lat="48.03488" lon="-3.75714">
        <ele>198.6</ele>
        <time>2020-06-08T08:21:25Z</time>
      </trkpt>
      <trkpt lat="48.03492" lon="-3.75715">
        <ele>198.6</ele>
        <time>2020-06-08T08:21:26Z</time>
      </trkpt>
      <trkpt lat="48.03497" lon="-3.75717">
        <ele>198.6</ele>
        <time>2020-06-08T08:21:27Z</time>
      </trkpt>
      <trkpt lat="48.03502" lon="-3.75719">
        <ele>198.6</ele>
        <time>2020-06-08T08:21:28Z</time>
      </trkpt>
      <trkpt lat="48.03508" lon="-3.75719">
        <ele>198.7</ele>
        <time>2020-06-08T08:21:29Z</time>
      </trkpt>
      <trkpt lat="48.03514" lon="-3.75721">
        <ele>198.8</ele>
        <time>2020-06-08T08:21:30Z</time>
      </trkpt>
      <trkpt lat="48.03519" lon="-3.75722">
        <ele>198.9</ele>
        <time>2020-06-08T08:21:31Z</time>
      </trkpt>
      <trkpt lat="48.03525" lon="-3.75723">
        <ele>199.1</ele>
        <time>2020-06-08T08:21:32Z</time>
      </trkpt>
      <trkpt lat="48.0353" lon="-3.75725">
        <ele>199.1</ele>
        <time>2020-06-08T08:21:33Z</time>
      </trkpt>
      <trkpt lat="48.03536" lon="-3.75727">
        <ele>199.1</ele>
        <time>2020-06-08T08:21:34Z</time>
      </trkpt>
      <trkpt lat="48.03541" lon="-3.75729">
        <ele>199.1</ele>
        <time>2020-06-08T08:21:35Z</time>
      </trkpt>
      <trkpt lat="48.03546" lon="-3.75732">
        <ele>199.2</ele>
        <time>2020-06-08T08:21:36Z</time>
      </trkpt>
      <trkpt lat="48.03551" lon="-3.75734">
        <ele>199.2</ele>
        <time>2020-06-08T08:21:37Z</time>
      </trkpt>
      <trkpt lat="48.03555" lon="-3.75735">
        <ele>199.3</ele>
        <time>2020-06-08T08:21:38Z</time>
      </trkpt>
      <trkpt lat="48.0356" lon="-3.75736">
        <ele>199.3</ele>
        <time>2020-06-08T08:21:39Z</time>
      </trkpt>
      <trkpt lat="48.03565" lon="-3.75737">
        <ele>199.4</ele>
        <time>2020-06-08T08:21:40Z</time>
      </trkpt>
      <trkpt lat="48.03571" lon="-3.75738">
        <ele>199.5</ele>
        <time>2020-06-08T08:21:41Z</time>
      </trkpt>
      <trkpt lat="48.03576" lon="-3.7574">
        <ele>199.6</ele>
        <time>2020-06-08T08:21:42Z</time>
      </trkpt>
      <trkpt lat="48.03581" lon="-3.75741">
        <ele>199.7</ele>
        <time>2020-06-08T08:21:43Z</time>
      </trkpt>
      <trkpt lat="48.03587" lon="-3.75743">
        <ele>199.8</ele>
        <time>2020-06-08T08:21:44Z</time>
      </trkpt>
      <trkpt lat="48.03592" lon="-3.75745">
        <ele>199.9</ele>
        <time>2020-06-08T08:21:45Z</time>
      </trkpt>
      <trkpt lat="48.03597" lon="-3.75747">
        <ele>200.1</ele>
        <time>2020-06-08T08:21:46Z</time>
      </trkpt>
      <trkpt lat="48.03602" lon="-3.75749">
        <ele>200.2</ele>
        <time>2020-06-08T08:21:47Z</time>
      </trkpt>
      <trkpt lat="48.03606" lon="-3.75751">
        <ele>200.4</ele>
        <time>2020-06-08T08:21:48Z</time>
      </trkpt>
      <trkpt lat="48.0361" lon="-3.75754">
        <ele>200.6</ele>
        <time>2020-06-08T08:21:49Z</time>
      </trkpt>
      <trkpt lat="48.03615" lon="-3.75755">
        <ele>200.9</ele>
        <time>2020-06-08T08:21:50Z</time>
      </trkpt>
      <trkpt lat="48.0362" lon="-3.75758">
        <ele>201.1</ele>
        <time>2020-06-08T08:21:51Z</time>
      </trkpt>
      <trkpt lat="48.03624" lon="-3.75759">
        <ele>201.4</ele>
        <time>2020-06-08T08:21:52Z</time>
      </trkpt>
      <trkpt lat="48.03627" lon="-3.75761">
        <ele>201.4</ele>
        <time>2020-06-08T08:21:53Z</time>
      </trkpt>
      <trkpt lat="48.03629" lon="-3.75763">
        <ele>201.3</ele>
        <time>2020-06-08T08:21:54Z</time>
      </trkpt>
      <trkpt lat="48.03632" lon="-3.75765">
        <ele>201.1</ele>
        <time>2020-06-08T08:21:55Z</time>
      </trkpt>
      <trkpt lat="48.03636" lon="-3.75768">
        <ele>200.9</ele>
        <time>2020-06-08T08:21:56Z</time>
      </trkpt>
      <trkpt lat="48.0364" lon="-3.75771">
        <ele>200.7</ele>
        <time>2020-06-08T08:21:57Z</time>
      </trkpt>
      <trkpt lat="48.03644" lon="-3.75773">
        <ele>200.6</ele>
        <time>2020-06-08T08:21:58Z</time>
      </trkpt>
      <trkpt lat="48.03647" lon="-3.75776">
        <ele>200.5</ele>
        <time>2020-06-08T08:21:59Z</time>
      </trkpt>
      <trkpt lat="48.03651" lon="-3.75779">
        <ele>200.4</ele>
        <time>2020-06-08T08:22:00Z</time>
      </trkpt>
      <trkpt lat="48.03654" lon="-3.75782">
        <ele>200.3</ele>
        <time>2020-06-08T08:22:01Z</time>
      </trkpt>
      <trkpt lat="48.03657" lon="-3.75785">
        <ele>200.2</ele>
        <time>2020-06-08T08:22:02Z</time>
      </trkpt>
      <trkpt lat="48.0366" lon="-3.75788">
        <ele>200.8</ele>
        <time>2020-06-08T08:22:03Z</time>
      </trkpt>
      <trkpt lat="48.03663" lon="-3.75791">
        <ele>201.3</ele>
        <time>2020-06-08T08:22:04Z</time>
      </trkpt>
      <trkpt lat="48.03666" lon="-3.75793">
        <ele>201.7</ele>
        <time>2020-06-08T08:22:05Z</time>
      </trkpt>
      <trkpt lat="48.03669" lon="-3.75795">
        <ele>202.1</ele>
        <time>2020-06-08T08:22:06Z</time>
      </trkpt>
      <trkpt lat="48.03672" lon="-3.75795">
        <ele>202.4</ele>
        <time>2020-06-08T08:22:07Z</time>
      </trkpt>
      <trkpt lat="48.03676" lon="-3.75797">
        <ele>202.9</ele>
        <time>2020-06-08T08:22:08Z</time>
      </trkpt>
      <trkpt lat="48.03678" lon="-3.75798">
        <ele>203</ele>
        <time>2020-06-08T08:22:09Z</time>
      </trkpt>
      <trkpt lat="48.03681" lon="-3.758">
        <ele>203.4</ele>
        <time>2020-06-08T08:22:10Z</time>
      </trkpt>
      <trkpt lat="48.03684" lon="-3.75802">
        <ele>203.6</ele>
        <time>2020-06-08T08:22:11Z</time>
      </trkpt>
      <trkpt lat="48.03688" lon="-3.75804">
        <ele>203.9</ele>
        <time>2020-06-08T08:22:12Z</time>
      </trkpt>
      <trkpt lat="48.03691" lon="-3.75806">
        <ele>204.1</ele>
        <time>2020-06-08T08:22:13Z</time>
      </trkpt>
      <trkpt lat="48.03694" lon="-3.75807">
        <ele>204.4</ele>
        <time>2020-06-08T08:22:14Z</time>
      </trkpt>
      <trkpt lat="48.03698" lon="-3.75809">
        <ele>204.6</ele>
        <time>2020-06-08T08:22:15Z</time>
      </trkpt>
      <trkpt lat="48.03701" lon="-3.75811">
        <ele>204.8</ele>
        <time>2020-06-08T08:22:16Z</time>
      </trkpt>
      <trkpt lat="48.03704" lon="-3.75813">
        <ele>205</ele>
        <time>2020-06-08T08:22:17Z</time>
      </trkpt>
      <trkpt lat="48.03708" lon="-3.75814">
        <ele>205.2</ele>
        <time>2020-06-08T08:22:18Z</time>
      </trkpt>
      <trkpt lat="48.03712" lon="-3.75815">
        <ele>205.3</ele>
        <time>2020-06-08T08:22:19Z</time>
      </trkpt>
      <trkpt lat="48.03715" lon="-3.75818">
        <ele>205.5</ele>
        <time>2020-06-08T08:22:20Z</time>
      </trkpt>
      <trkpt lat="48.03718" lon="-3.75819">
        <ele>205.7</ele>
        <time>2020-06-08T08:22:21Z</time>
      </trkpt>
      <trkpt lat="48.03722" lon="-3.75819">
        <ele>205.9</ele>
        <time>2020-06-08T08:22:22Z</time>
      </trkpt>
      <trkpt lat="48.03726" lon="-3.7582">
        <ele>206.1</ele>
        <time>2020-06-08T08:22:23Z</time>
      </trkpt>
      <trkpt lat="48.03729" lon="-3.75821">
        <ele>206.2</ele>
        <time>2020-06-08T08:22:24Z</time>
      </trkpt>
      <trkpt lat="48.03733" lon="-3.75822">
        <ele>206.4</ele>
        <time>2020-06-08T08:22:25Z</time>
      </trkpt>
      <trkpt lat="48.03736" lon="-3.75823">
        <ele>206.6</ele>
        <time>2020-06-08T08:22:26Z</time>
      </trkpt>
      <trkpt lat="48.03739" lon="-3.75825">
        <ele>206.7</ele>
        <time>2020-06-08T08:22:27Z</time>
      </trkpt>
      <trkpt lat="48.03742" lon="-3.75825">
        <ele>206.9</ele>
        <time>2020-06-08T08:22:28Z</time>
      </trkpt>
      <trkpt lat="48.03746" lon="-3.75826">
        <ele>207.1</ele>
        <time>2020-06-08T08:22:29Z</time>
      </trkpt>
      <trkpt lat="48.0375" lon="-3.75824">
        <ele>207.3</ele>
        <time>2020-06-08T08:22:30Z</time>
      </trkpt>
      <trkpt lat="48.03753" lon="-3.75825">
        <ele>207.4</ele>
        <time>2020-06-08T08:22:31Z</time>
      </trkpt>
      <trkpt lat="48.03756" lon="-3.75826">
        <ele>207.5</ele>
        <time>2020-06-08T08:22:32Z</time>
      </trkpt>
      <trkpt lat="48.0376" lon="-3.75826">
        <ele>207.7</ele>
        <time>2020-06-08T08:22:33Z</time>
      </trkpt>
      <trkpt lat="48.03763" lon="-3.75827">
        <ele>207.8</ele>
        <time>2020-06-08T08:22:34Z</time>
      </trkpt>
      <trkpt lat="48.03766" lon="-3.75828">
        <ele>207.9</ele>
        <time>2020-06-08T08:22:35Z</time>
      </trkpt>
      <trkpt lat="48.03769" lon="-3.75829">
        <ele>208</ele>
        <time>2020-06-08T08:22:36Z</time>
      </trkpt>
      <trkpt lat="48.03772" lon="-3.7583">
        <ele>208.1</ele>
        <time>2020-06-08T08:22:37Z</time>
      </trkpt>
      <trkpt lat="48.03775" lon="-3.75831">
        <ele>208.2</ele>
        <time>2020-06-08T08:22:38Z</time>
      </trkpt>
      <trkpt lat="48.03778" lon="-3.75832">
        <ele>208.3</ele>
        <time>2020-06-08T08:22:39Z</time>
      </trkpt>
      <trkpt lat="48.03779" lon="-3.75833">
        <ele>208.3</ele>
        <time>2020-06-08T08:22:40Z</time>
      </trkpt>
      <trkpt lat="48.03783" lon="-3.75833">
        <ele>208.4</ele>
        <time>2020-06-08T08:22:41Z</time>
      </trkpt>
      <trkpt lat="48.03787" lon="-3.75833">
        <ele>208.6</ele>
        <time>2020-06-08T08:22:42Z</time>
      </trkpt>
      <trkpt lat="48.03789" lon="-3.75833">
        <ele>208.6</ele>
        <time>2020-06-08T08:22:43Z</time>
      </trkpt>
      <trkpt lat="48.03793" lon="-3.75834">
        <ele>208.7</ele>
        <time>2020-06-08T08:22:44Z</time>
      </trkpt>
      <trkpt lat="48.03794" lon="-3.75834">
        <ele>208.8</ele>
        <time>2020-06-08T08:22:45Z</time>
      </trkpt>
      <trkpt lat="48.03798" lon="-3.75834">
        <ele>208.9</ele>
        <time>2020-06-08T08:22:46Z</time>
      </trkpt>
      <trkpt lat="48.03799" lon="-3.75834">
        <ele>208.9</ele>
        <time>2020-06-08T08:22:47Z</time>
      </trkpt>
      <trkpt lat="48.03802" lon="-3.75835">
        <ele>209</ele>
        <time>2020-06-08T08:22:48Z</time>
      </trkpt>
      <trkpt lat="48.03805" lon="-3.75835">
        <ele>209.1</ele>
        <time>2020-06-08T08:22:49Z</time>
      </trkpt>
      <trkpt lat="48.03808" lon="-3.75835">
        <ele>209.2</ele>
        <time>2020-06-08T08:22:50Z</time>
      </trkpt>
      <trkpt lat="48.03811" lon="-3.75836">
        <ele>209.3</ele>
        <time>2020-06-08T08:22:51Z</time>
      </trkpt>
      <trkpt lat="48.03815" lon="-3.75837">
        <ele>209.4</ele>
        <time>2020-06-08T08:22:52Z</time>
      </trkpt>
      <trkpt lat="48.03818" lon="-3.75838">
        <ele>209.6</ele>
        <time>2020-06-08T08:22:53Z</time>
      </trkpt>
      <trkpt lat="48.03822" lon="-3.75838">
        <ele>209.8</ele>
        <time>2020-06-08T08:22:54Z</time>
      </trkpt>
      <trkpt lat="48.03824" lon="-3.75838">
        <ele>209.8</ele>
        <time>2020-06-08T08:22:55Z</time>
      </trkpt>
      <trkpt lat="48.03827" lon="-3.75839">
        <ele>210</ele>
        <time>2020-06-08T08:22:56Z</time>
      </trkpt>
      <trkpt lat="48.03829" lon="-3.75839">
        <ele>210.1</ele>
        <time>2020-06-08T08:22:57Z</time>
      </trkpt>
      <trkpt lat="48.03833" lon="-3.75839">
        <ele>210.3</ele>
        <time>2020-06-08T08:22:58Z</time>
      </trkpt>
      <trkpt lat="48.03834" lon="-3.7584">
        <ele>210.3</ele>
        <time>2020-06-08T08:22:59Z</time>
      </trkpt>
      <trkpt lat="48.03837" lon="-3.75841">
        <ele>210.5</ele>
        <time>2020-06-08T08:23:00Z</time>
      </trkpt>
      <trkpt lat="48.0384" lon="-3.75841">
        <ele>210.6</ele>
        <time>2020-06-08T08:23:01Z</time>
      </trkpt>
      <trkpt lat="48.03843" lon="-3.75841">
        <ele>210.7</ele>
        <time>2020-06-08T08:23:02Z</time>
      </trkpt>
      <trkpt lat="48.03846" lon="-3.75841">
        <ele>210.8</ele>
        <time>2020-06-08T08:23:03Z</time>
      </trkpt>
      <trkpt lat="48.03849" lon="-3.75841">
        <ele>211</ele>
        <time>2020-06-08T08:23:04Z</time>
      </trkpt>
      <trkpt lat="48.03853" lon="-3.75842">
        <ele>211.2</ele>
        <time>2020-06-08T08:23:05Z</time>
      </trkpt>
      <trkpt lat="48.03854" lon="-3.75842">
        <ele>211.2</ele>
        <time>2020-06-08T08:23:06Z</time>
      </trkpt>
      <trkpt lat="48.03857" lon="-3.75843">
        <ele>211.4</ele>
        <time>2020-06-08T08:23:07Z</time>
      </trkpt>
      <trkpt lat="48.03861" lon="-3.75843">
        <ele>211.5</ele>
        <time>2020-06-08T08:23:08Z</time>
      </trkpt>
      <trkpt lat="48.03864" lon="-3.75845">
        <ele>211.6</ele>
        <time>2020-06-08T08:23:09Z</time>
      </trkpt>
      <trkpt lat="48.03867" lon="-3.75845">
        <ele>211.7</ele>
        <time>2020-06-08T08:23:10Z</time>
      </trkpt>
      <trkpt lat="48.03871" lon="-3.75845">
        <ele>211.8</ele>
        <time>2020-06-08T08:23:11Z</time>
      </trkpt>
      <trkpt lat="48.03872" lon="-3.75846">
        <ele>211.9</ele>
        <time>2020-06-08T08:23:12Z</time>
      </trkpt>
      <trkpt lat="48.03875" lon="-3.75847">
        <ele>212</ele>
        <time>2020-06-08T08:23:13Z</time>
      </trkpt>
      <trkpt lat="48.03878" lon="-3.75848">
        <ele>212.1</ele>
        <time>2020-06-08T08:23:14Z</time>
      </trkpt>
      <trkpt lat="48.03882" lon="-3.75847">
        <ele>212.2</ele>
        <time>2020-06-08T08:23:15Z</time>
      </trkpt>
      <trkpt lat="48.03885" lon="-3.75847">
        <ele>212.3</ele>
        <time>2020-06-08T08:23:16Z</time>
      </trkpt>
      <trkpt lat="48.03889" lon="-3.75846">
        <ele>212.4</ele>
        <time>2020-06-08T08:23:17Z</time>
      </trkpt>
      <trkpt lat="48.03893" lon="-3.75846">
        <ele>212.6</ele>
        <time>2020-06-08T08:23:18Z</time>
      </trkpt>
      <trkpt lat="48.03896" lon="-3.75846">
        <ele>212.7</ele>
        <time>2020-06-08T08:23:19Z</time>
      </trkpt>
      <trkpt lat="48.03899" lon="-3.75847">
        <ele>212.8</ele>
        <time>2020-06-08T08:23:20Z</time>
      </trkpt>
      <trkpt lat="48.03903" lon="-3.75847">
        <ele>212.9</ele>
        <time>2020-06-08T08:23:21Z</time>
      </trkpt>
      <trkpt lat="48.03905" lon="-3.75847">
        <ele>213</ele>
        <time>2020-06-08T08:23:22Z</time>
      </trkpt>
      <trkpt lat="48.03908" lon="-3.75847">
        <ele>213.1</ele>
        <time>2020-06-08T08:23:23Z</time>
      </trkpt>
      <trkpt lat="48.03911" lon="-3.75849">
        <ele>213.1</ele>
        <time>2020-06-08T08:23:24Z</time>
      </trkpt>
      <trkpt lat="48.03914" lon="-3.7585">
        <ele>213.2</ele>
        <time>2020-06-08T08:23:25Z</time>
      </trkpt>
      <trkpt lat="48.03917" lon="-3.7585">
        <ele>213.2</ele>
        <time>2020-06-08T08:23:26Z</time>
      </trkpt>
      <trkpt lat="48.0392" lon="-3.75851">
        <ele>213.3</ele>
        <time>2020-06-08T08:23:27Z</time>
      </trkpt>
      <trkpt lat="48.03923" lon="-3.75852">
        <ele>213.3</ele>
        <time>2020-06-08T08:23:28Z</time>
      </trkpt>
      <trkpt lat="48.03927" lon="-3.75853">
        <ele>213.4</ele>
        <time>2020-06-08T08:23:29Z</time>
      </trkpt>
      <trkpt lat="48.03928" lon="-3.75853">
        <ele>213.4</ele>
        <time>2020-06-08T08:23:30Z</time>
      </trkpt>
      <trkpt lat="48.03932" lon="-3.75853">
        <ele>213.5</ele>
        <time>2020-06-08T08:23:31Z</time>
      </trkpt>
      <trkpt lat="48.03935" lon="-3.75853">
        <ele>213.5</ele>
        <time>2020-06-08T08:23:32Z</time>
      </trkpt>
      <trkpt lat="48.03938" lon="-3.75853">
        <ele>213.6</ele>
        <time>2020-06-08T08:23:33Z</time>
      </trkpt>
      <trkpt lat="48.03941" lon="-3.75853">
        <ele>213.7</ele>
        <time>2020-06-08T08:23:34Z</time>
      </trkpt>
      <trkpt lat="48.03943" lon="-3.75855">
        <ele>213.7</ele>
        <time>2020-06-08T08:23:35Z</time>
      </trkpt>
      <trkpt lat="48.03946" lon="-3.75856">
        <ele>213.8</ele>
        <time>2020-06-08T08:23:36Z</time>
      </trkpt>
      <trkpt lat="48.03949" lon="-3.75857">
        <ele>213.9</ele>
        <time>2020-06-08T08:23:37Z</time>
      </trkpt>
      <trkpt lat="48.03952" lon="-3.75858">
        <ele>214</ele>
        <time>2020-06-08T08:23:38Z</time>
      </trkpt>
      <trkpt lat="48.03955" lon="-3.75858">
        <ele>214.1</ele>
        <time>2020-06-08T08:23:39Z</time>
      </trkpt>
      <trkpt lat="48.03959" lon="-3.75859">
        <ele>214.3</ele>
        <time>2020-06-08T08:23:40Z</time>
      </trkpt>
      <trkpt lat="48.0396" lon="-3.75859">
        <ele>214.3</ele>
        <time>2020-06-08T08:23:41Z</time>
      </trkpt>
      <trkpt lat="48.03964" lon="-3.75861">
        <ele>214.5</ele>
        <time>2020-06-08T08:23:42Z</time>
      </trkpt>
      <trkpt lat="48.03966" lon="-3.75861">
        <ele>214.6</ele>
        <time>2020-06-08T08:23:43Z</time>
      </trkpt>
      <trkpt lat="48.03969" lon="-3.75863">
        <ele>214.7</ele>
        <time>2020-06-08T08:23:44Z</time>
      </trkpt>
      <trkpt lat="48.03972" lon="-3.75864">
        <ele>214.8</ele>
        <time>2020-06-08T08:23:45Z</time>
      </trkpt>
      <trkpt lat="48.03975" lon="-3.75866">
        <ele>214.9</ele>
        <time>2020-06-08T08:23:46Z</time>
      </trkpt>
      <trkpt lat="48.03978" lon="-3.75868">
        <ele>215</ele>
        <time>2020-06-08T08:23:47Z</time>
      </trkpt>
      <trkpt lat="48.03981" lon="-3.75869">
        <ele>215.1</ele>
        <time>2020-06-08T08:23:48Z</time>
      </trkpt>
      <trkpt lat="48.03984" lon="-3.75871">
        <ele>215.2</ele>
        <time>2020-06-08T08:23:49Z</time>
      </trkpt>
      <trkpt lat="48.03987" lon="-3.75873">
        <ele>215.3</ele>
        <time>2020-06-08T08:23:50Z</time>
      </trkpt>
      <trkpt lat="48.03991" lon="-3.75875">
        <ele>215.4</ele>
        <time>2020-06-08T08:23:51Z</time>
      </trkpt>
      <trkpt lat="48.03994" lon="-3.75877">
        <ele>215.6</ele>
        <time>2020-06-08T08:23:52Z</time>
      </trkpt>
      <trkpt lat="48.03997" lon="-3.75879">
        <ele>215.7</ele>
        <time>2020-06-08T08:23:53Z</time>
      </trkpt>
      <trkpt lat="48.04001" lon="-3.7588">
        <ele>215.8</ele>
        <time>2020-06-08T08:23:54Z</time>
      </trkpt>
      <trkpt lat="48.04004" lon="-3.75882">
        <ele>216</ele>
        <time>2020-06-08T08:23:55Z</time>
      </trkpt>
      <trkpt lat="48.04006" lon="-3.75883">
        <ele>216.1</ele>
        <time>2020-06-08T08:23:56Z</time>
      </trkpt>
      <trkpt lat="48.04009" lon="-3.75884">
        <ele>216.2</ele>
        <time>2020-06-08T08:23:57Z</time>
      </trkpt>
      <trkpt lat="48.04012" lon="-3.75886">
        <ele>216.3</ele>
        <time>2020-06-08T08:23:58Z</time>
      </trkpt>
      <trkpt lat="48.04014" lon="-3.75888">
        <ele>216.4</ele>
        <time>2020-06-08T08:23:59Z</time>
      </trkpt>
      <trkpt lat="48.04017" lon="-3.75889">
        <ele>216.5</ele>
        <time>2020-06-08T08:24:00Z</time>
      </trkpt>
      <trkpt lat="48.0402" lon="-3.7589">
        <ele>216.5</ele>
        <time>2020-06-08T08:24:01Z</time>
      </trkpt>
      <trkpt lat="48.04023" lon="-3.75892">
        <ele>216.6</ele>
        <time>2020-06-08T08:24:02Z</time>
      </trkpt>
      <trkpt lat="48.04027" lon="-3.75894">
        <ele>216.7</ele>
        <time>2020-06-08T08:24:03Z</time>
      </trkpt>
      <trkpt lat="48.04028" lon="-3.75895">
        <ele>216.8</ele>
        <time>2020-06-08T08:24:04Z</time>
      </trkpt>
      <trkpt lat="48.04032" lon="-3.75897">
        <ele>216.9</ele>
        <time>2020-06-08T08:24:05Z</time>
      </trkpt>
      <trkpt lat="48.04033" lon="-3.75897">
        <ele>216.9</ele>
        <time>2020-06-08T08:24:06Z</time>
      </trkpt>
      <trkpt lat="48.04037" lon="-3.75899">
        <ele>217</ele>
        <time>2020-06-08T08:24:07Z</time>
      </trkpt>
      <trkpt lat="48.0404" lon="-3.75901">
        <ele>217.2</ele>
        <time>2020-06-08T08:24:08Z</time>
      </trkpt>
      <trkpt lat="48.04043" lon="-3.75903">
        <ele>217.3</ele>
        <time>2020-06-08T08:24:09Z</time>
      </trkpt>
      <trkpt lat="48.04046" lon="-3.75904">
        <ele>217.4</ele>
        <time>2020-06-08T08:24:10Z</time>
      </trkpt>
      <trkpt lat="48.04049" lon="-3.75905">
        <ele>217.5</ele>
        <time>2020-06-08T08:24:11Z</time>
      </trkpt>
      <trkpt lat="48.04053" lon="-3.75908">
        <ele>217.6</ele>
        <time>2020-06-08T08:24:12Z</time>
      </trkpt>
      <trkpt lat="48.04055" lon="-3.75909">
        <ele>217.6</ele>
        <time>2020-06-08T08:24:13Z</time>
      </trkpt>
      <trkpt lat="48.04058" lon="-3.7591">
        <ele>217.7</ele>
        <time>2020-06-08T08:24:14Z</time>
      </trkpt>
      <trkpt lat="48.04061" lon="-3.75911">
        <ele>217.7</ele>
        <time>2020-06-08T08:24:15Z</time>
      </trkpt>
      <trkpt lat="48.04065" lon="-3.75912">
        <ele>217.8</ele>
        <time>2020-06-08T08:24:16Z</time>
      </trkpt>
      <trkpt lat="48.04068" lon="-3.75913">
        <ele>217.8</ele>
        <time>2020-06-08T08:24:17Z</time>
      </trkpt>
      <trkpt lat="48.04071" lon="-3.75915">
        <ele>217.9</ele>
        <time>2020-06-08T08:24:18Z</time>
      </trkpt>
      <trkpt lat="48.04074" lon="-3.75917">
        <ele>217.9</ele>
        <time>2020-06-08T08:24:19Z</time>
      </trkpt>
      <trkpt lat="48.04077" lon="-3.75919">
        <ele>217.9</ele>
        <time>2020-06-08T08:24:20Z</time>
      </trkpt>
      <trkpt lat="48.0408" lon="-3.7592">
        <ele>217.9</ele>
        <time>2020-06-08T08:24:21Z</time>
      </trkpt>
      <trkpt lat="48.04083" lon="-3.75921">
        <ele>217.9</ele>
        <time>2020-06-08T08:24:22Z</time>
      </trkpt>
      <trkpt lat="48.04086" lon="-3.75923">
        <ele>217.9</ele>
        <time>2020-06-08T08:24:23Z</time>
      </trkpt>
      <trkpt lat="48.04089" lon="-3.75925">
        <ele>217.9</ele>
        <time>2020-06-08T08:24:24Z</time>
      </trkpt>
      <trkpt lat="48.04093" lon="-3.75926">
        <ele>217.9</ele>
        <time>2020-06-08T08:24:25Z</time>
      </trkpt>
      <trkpt lat="48.04097" lon="-3.75928">
        <ele>217.8</ele>
        <time>2020-06-08T08:24:26Z</time>
      </trkpt>
      <trkpt lat="48.041" lon="-3.7593">
        <ele>217.8</ele>
        <time>2020-06-08T08:24:27Z</time>
      </trkpt>
      <trkpt lat="48.04103" lon="-3.75932">
        <ele>217.7</ele>
        <time>2020-06-08T08:24:28Z</time>
      </trkpt>
      <trkpt lat="48.04107" lon="-3.75934">
        <ele>217.6</ele>
        <time>2020-06-08T08:24:29Z</time>
      </trkpt>
      <trkpt lat="48.0411" lon="-3.75936">
        <ele>217.6</ele>
        <time>2020-06-08T08:24:30Z</time>
      </trkpt>
      <trkpt lat="48.04112" lon="-3.75937">
        <ele>217.5</ele>
        <time>2020-06-08T08:24:31Z</time>
      </trkpt>
      <trkpt lat="48.04116" lon="-3.75939">
        <ele>217.4</ele>
        <time>2020-06-08T08:24:32Z</time>
      </trkpt>
      <trkpt lat="48.04118" lon="-3.7594">
        <ele>217.4</ele>
        <time>2020-06-08T08:24:33Z</time>
      </trkpt>
      <trkpt lat="48.0412" lon="-3.75941">
        <ele>217.3</ele>
        <time>2020-06-08T08:24:34Z</time>
      </trkpt>
      <trkpt lat="48.04123" lon="-3.75942">
        <ele>217.2</ele>
        <time>2020-06-08T08:24:35Z</time>
      </trkpt>
      <trkpt lat="48.04126" lon="-3.75943">
        <ele>217.2</ele>
        <time>2020-06-08T08:24:36Z</time>
      </trkpt>
      <trkpt lat="48.04129" lon="-3.75944">
        <ele>217.1</ele>
        <time>2020-06-08T08:24:37Z</time>
      </trkpt>
      <trkpt lat="48.04133" lon="-3.75946">
        <ele>217</ele>
        <time>2020-06-08T08:24:38Z</time>
      </trkpt>
      <trkpt lat="48.04137" lon="-3.75948">
        <ele>216.9</ele>
        <time>2020-06-08T08:24:39Z</time>
      </trkpt>
      <trkpt lat="48.0414" lon="-3.7595">
        <ele>216.8</ele>
        <time>2020-06-08T08:24:40Z</time>
      </trkpt>
      <trkpt lat="48.04145" lon="-3.75952">
        <ele>216.6</ele>
        <time>2020-06-08T08:24:41Z</time>
      </trkpt>
      <trkpt lat="48.04149" lon="-3.75955">
        <ele>216.4</ele>
        <time>2020-06-08T08:24:42Z</time>
      </trkpt>
      <trkpt lat="48.04153" lon="-3.75957">
        <ele>216.3</ele>
        <time>2020-06-08T08:24:43Z</time>
      </trkpt>
      <trkpt lat="48.04157" lon="-3.75959">
        <ele>216.2</ele>
        <time>2020-06-08T08:24:44Z</time>
      </trkpt>
      <trkpt lat="48.04161" lon="-3.7596">
        <ele>216.1</ele>
        <time>2020-06-08T08:24:45Z</time>
      </trkpt>
      <trkpt lat="48.04166" lon="-3.75962">
        <ele>215.9</ele>
        <time>2020-06-08T08:24:46Z</time>
      </trkpt>
      <trkpt lat="48.0417" lon="-3.75963">
        <ele>215.8</ele>
        <time>2020-06-08T08:24:47Z</time>
      </trkpt>
      <trkpt lat="48.04175" lon="-3.75965">
        <ele>215.7</ele>
        <time>2020-06-08T08:24:48Z</time>
      </trkpt>
      <trkpt lat="48.04179" lon="-3.75968">
        <ele>215.5</ele>
        <time>2020-06-08T08:24:49Z</time>
      </trkpt>
      <trkpt lat="48.04184" lon="-3.75971">
        <ele>215.4</ele>
        <time>2020-06-08T08:24:50Z</time>
      </trkpt>
      <trkpt lat="48.04188" lon="-3.75974">
        <ele>215.3</ele>
        <time>2020-06-08T08:24:51Z</time>
      </trkpt>
      <trkpt lat="48.04192" lon="-3.75976">
        <ele>215.2</ele>
        <time>2020-06-08T08:24:52Z</time>
      </trkpt>
      <trkpt lat="48.04196" lon="-3.7598">
        <ele>215</ele>
        <time>2020-06-08T08:24:53Z</time>
      </trkpt>
      <trkpt lat="48.042" lon="-3.75983">
        <ele>214.9</ele>
        <time>2020-06-08T08:24:54Z</time>
      </trkpt>
      <trkpt lat="48.04205" lon="-3.75985">
        <ele>214.8</ele>
        <time>2020-06-08T08:24:55Z</time>
      </trkpt>
      <trkpt lat="48.0421" lon="-3.75988">
        <ele>214.7</ele>
        <time>2020-06-08T08:24:56Z</time>
      </trkpt>
      <trkpt lat="48.04214" lon="-3.75991">
        <ele>214.7</ele>
        <time>2020-06-08T08:24:57Z</time>
      </trkpt>
      <trkpt lat="48.04219" lon="-3.75995">
        <ele>214.6</ele>
        <time>2020-06-08T08:24:58Z</time>
      </trkpt>
      <trkpt lat="48.04223" lon="-3.75997">
        <ele>214.5</ele>
        <time>2020-06-08T08:24:59Z</time>
      </trkpt>
      <trkpt lat="48.04227" lon="-3.75999">
        <ele>214.5</ele>
        <time>2020-06-08T08:25:00Z</time>
      </trkpt>
      <trkpt lat="48.04231" lon="-3.76001">
        <ele>214.5</ele>
        <time>2020-06-08T08:25:01Z</time>
      </trkpt>
      <trkpt lat="48.04235" lon="-3.76003">
        <ele>214.4</ele>
        <time>2020-06-08T08:25:02Z</time>
      </trkpt>
      <trkpt lat="48.04239" lon="-3.76005">
        <ele>214.4</ele>
        <time>2020-06-08T08:25:03Z</time>
      </trkpt>
      <trkpt lat="48.04244" lon="-3.76006">
        <ele>214.4</ele>
        <time>2020-06-08T08:25:04Z</time>
      </trkpt>
      <trkpt lat="48.04248" lon="-3.76009">
        <ele>214.5</ele>
        <time>2020-06-08T08:25:05Z</time>
      </trkpt>
      <trkpt lat="48.04252" lon="-3.76011">
        <ele>214.5</ele>
        <time>2020-06-08T08:25:06Z</time>
      </trkpt>
      <trkpt lat="48.04256" lon="-3.76014">
        <ele>214.5</ele>
        <time>2020-06-08T08:25:07Z</time>
      </trkpt>
      <trkpt lat="48.0426" lon="-3.76017">
        <ele>214.5</ele>
        <time>2020-06-08T08:25:08Z</time>
      </trkpt>
      <trkpt lat="48.04264" lon="-3.7602">
        <ele>214.6</ele>
        <time>2020-06-08T08:25:09Z</time>
      </trkpt>
      <trkpt lat="48.04268" lon="-3.76022">
        <ele>214.6</ele>
        <time>2020-06-08T08:25:10Z</time>
      </trkpt>
      <trkpt lat="48.04272" lon="-3.76025">
        <ele>214.7</ele>
        <time>2020-06-08T08:25:11Z</time>
      </trkpt>
      <trkpt lat="48.04277" lon="-3.76027">
        <ele>214.8</ele>
        <time>2020-06-08T08:25:12Z</time>
      </trkpt>
      <trkpt lat="48.04281" lon="-3.7603">
        <ele>214.9</ele>
        <time>2020-06-08T08:25:13Z</time>
      </trkpt>
      <trkpt lat="48.04285" lon="-3.76033">
        <ele>215.1</ele>
        <time>2020-06-08T08:25:14Z</time>
      </trkpt>
      <trkpt lat="48.0429" lon="-3.76036">
        <ele>215.2</ele>
        <time>2020-06-08T08:25:15Z</time>
      </trkpt>
      <trkpt lat="48.04294" lon="-3.76039">
        <ele>215.4</ele>
        <time>2020-06-08T08:25:16Z</time>
      </trkpt>
      <trkpt lat="48.04298" lon="-3.76041">
        <ele>215.5</ele>
        <time>2020-06-08T08:25:17Z</time>
      </trkpt>
      <trkpt lat="48.04301" lon="-3.76044">
        <ele>215.7</ele>
        <time>2020-06-08T08:25:18Z</time>
      </trkpt>
      <trkpt lat="48.04305" lon="-3.76047">
        <ele>215.8</ele>
        <time>2020-06-08T08:25:19Z</time>
      </trkpt>
      <trkpt lat="48.04308" lon="-3.76049">
        <ele>215.9</ele>
        <time>2020-06-08T08:25:20Z</time>
      </trkpt>
      <trkpt lat="48.04312" lon="-3.76052">
        <ele>216.1</ele>
        <time>2020-06-08T08:25:21Z</time>
      </trkpt>
      <trkpt lat="48.04316" lon="-3.76054">
        <ele>216.3</ele>
        <time>2020-06-08T08:25:22Z</time>
      </trkpt>
      <trkpt lat="48.04319" lon="-3.76056">
        <ele>216.4</ele>
        <time>2020-06-08T08:25:23Z</time>
      </trkpt>
      <trkpt lat="48.04322" lon="-3.76059">
        <ele>216.6</ele>
        <time>2020-06-08T08:25:24Z</time>
      </trkpt>
      <trkpt lat="48.04326" lon="-3.7606">
        <ele>216.8</ele>
        <time>2020-06-08T08:25:25Z</time>
      </trkpt>
      <trkpt lat="48.04329" lon="-3.76062">
        <ele>217</ele>
        <time>2020-06-08T08:25:26Z</time>
      </trkpt>
      <trkpt lat="48.04332" lon="-3.76065">
        <ele>217.2</ele>
        <time>2020-06-08T08:25:27Z</time>
      </trkpt>
      <trkpt lat="48.04335" lon="-3.76066">
        <ele>217.4</ele>
        <time>2020-06-08T08:25:28Z</time>
      </trkpt>
      <trkpt lat="48.04338" lon="-3.76068">
        <ele>217.5</ele>
        <time>2020-06-08T08:25:29Z</time>
      </trkpt>
      <trkpt lat="48.04341" lon="-3.7607">
        <ele>217.7</ele>
        <time>2020-06-08T08:25:30Z</time>
      </trkpt>
      <trkpt lat="48.04344" lon="-3.76073">
        <ele>217.9</ele>
        <time>2020-06-08T08:25:31Z</time>
      </trkpt>
      <trkpt lat="48.04348" lon="-3.76076">
        <ele>218.2</ele>
        <time>2020-06-08T08:25:32Z</time>
      </trkpt>
      <trkpt lat="48.04352" lon="-3.76078">
        <ele>218.4</ele>
        <time>2020-06-08T08:25:33Z</time>
      </trkpt>
      <trkpt lat="48.04355" lon="-3.7608">
        <ele>218.6</ele>
        <time>2020-06-08T08:25:34Z</time>
      </trkpt>
      <trkpt lat="48.04359" lon="-3.76082">
        <ele>218.8</ele>
        <time>2020-06-08T08:25:35Z</time>
      </trkpt>
      <trkpt lat="48.04363" lon="-3.76083">
        <ele>219</ele>
        <time>2020-06-08T08:25:36Z</time>
      </trkpt>
      <trkpt lat="48.04366" lon="-3.76085">
        <ele>219.2</ele>
        <time>2020-06-08T08:25:37Z</time>
      </trkpt>
      <trkpt lat="48.04369" lon="-3.76086">
        <ele>219.4</ele>
        <time>2020-06-08T08:25:38Z</time>
      </trkpt>
      <trkpt lat="48.04372" lon="-3.76088">
        <ele>219.5</ele>
        <time>2020-06-08T08:25:39Z</time>
      </trkpt>
      <trkpt lat="48.04375" lon="-3.7609">
        <ele>219.7</ele>
        <time>2020-06-08T08:25:40Z</time>
      </trkpt>
      <trkpt lat="48.04379" lon="-3.76091">
        <ele>219.9</ele>
        <time>2020-06-08T08:25:41Z</time>
      </trkpt>
      <trkpt lat="48.04383" lon="-3.76092">
        <ele>220.1</ele>
        <time>2020-06-08T08:25:42Z</time>
      </trkpt>
      <trkpt lat="48.04386" lon="-3.76094">
        <ele>220.3</ele>
        <time>2020-06-08T08:25:43Z</time>
      </trkpt>
      <trkpt lat="48.04389" lon="-3.76095">
        <ele>220.5</ele>
        <time>2020-06-08T08:25:44Z</time>
      </trkpt>
      <trkpt lat="48.04392" lon="-3.76097">
        <ele>220.6</ele>
        <time>2020-06-08T08:25:45Z</time>
      </trkpt>
      <trkpt lat="48.04396" lon="-3.76098">
        <ele>220.8</ele>
        <time>2020-06-08T08:25:46Z</time>
      </trkpt>
      <trkpt lat="48.04399" lon="-3.76098">
        <ele>221</ele>
        <time>2020-06-08T08:25:47Z</time>
      </trkpt>
      <trkpt lat="48.04403" lon="-3.76097">
        <ele>221.2</ele>
        <time>2020-06-08T08:25:48Z</time>
      </trkpt>
      <trkpt lat="48.04405" lon="-3.76097">
        <ele>221.3</ele>
        <time>2020-06-08T08:25:49Z</time>
      </trkpt>
      <trkpt lat="48.04408" lon="-3.76096">
        <ele>221.5</ele>
        <time>2020-06-08T08:25:50Z</time>
      </trkpt>
      <trkpt lat="48.04412" lon="-3.76096">
        <ele>221.8</ele>
        <time>2020-06-08T08:25:51Z</time>
      </trkpt>
      <trkpt lat="48.04413" lon="-3.76096">
        <ele>221.9</ele>
        <time>2020-06-08T08:25:52Z</time>
      </trkpt>
      <trkpt lat="48.04418" lon="-3.76094">
        <ele>222.1</ele>
        <time>2020-06-08T08:25:53Z</time>
      </trkpt>
      <trkpt lat="48.0442" lon="-3.76094">
        <ele>222.3</ele>
        <time>2020-06-08T08:25:54Z</time>
      </trkpt>
      <trkpt lat="48.04424" lon="-3.76094">
        <ele>222.5</ele>
        <time>2020-06-08T08:25:55Z</time>
      </trkpt>
      <trkpt lat="48.04425" lon="-3.76094">
        <ele>222.6</ele>
        <time>2020-06-08T08:25:56Z</time>
      </trkpt>
      <trkpt lat="48.04429" lon="-3.76094">
        <ele>222.8</ele>
        <time>2020-06-08T08:25:57Z</time>
      </trkpt>
      <trkpt lat="48.04431" lon="-3.76093">
        <ele>222.9</ele>
        <time>2020-06-08T08:25:58Z</time>
      </trkpt>
      <trkpt lat="48.04434" lon="-3.76093">
        <ele>223.1</ele>
        <time>2020-06-08T08:25:59Z</time>
      </trkpt>
      <trkpt lat="48.04435" lon="-3.76093">
        <ele>223.2</ele>
        <time>2020-06-08T08:26:00Z</time>
      </trkpt>
      <trkpt lat="48.04438" lon="-3.7609">
        <ele>223.4</ele>
        <time>2020-06-08T08:26:01Z</time>
      </trkpt>
      <trkpt lat="48.04439" lon="-3.76089">
        <ele>223.4</ele>
        <time>2020-06-08T08:26:02Z</time>
      </trkpt>
      <trkpt lat="48.04441" lon="-3.76088">
        <ele>223.6</ele>
        <time>2020-06-08T08:26:03Z</time>
      </trkpt>
      <trkpt lat="48.04442" lon="-3.76087">
        <ele>223.7</ele>
        <time>2020-06-08T08:26:04Z</time>
      </trkpt>
      <trkpt lat="48.04444" lon="-3.76086">
        <ele>223.8</ele>
        <time>2020-06-08T08:26:05Z</time>
      </trkpt>
      <trkpt lat="48.04445" lon="-3.76086">
        <ele>223.9</ele>
        <time>2020-06-08T08:26:06Z</time>
      </trkpt>
      <trkpt lat="48.04448" lon="-3.76082">
        <ele>224.1</ele>
        <time>2020-06-08T08:26:07Z</time>
      </trkpt>
      <trkpt lat="48.04449" lon="-3.76081">
        <ele>224.2</ele>
        <time>2020-06-08T08:26:08Z</time>
      </trkpt>
      <trkpt lat="48.04451" lon="-3.76078">
        <ele>224.4</ele>
        <time>2020-06-08T08:26:09Z</time>
      </trkpt>
      <trkpt lat="48.04452" lon="-3.76077">
        <ele>224.5</ele>
        <time>2020-06-08T08:26:10Z</time>
      </trkpt>
      <trkpt lat="48.04455" lon="-3.76075">
        <ele>224.7</ele>
        <time>2020-06-08T08:26:11Z</time>
      </trkpt>
      <trkpt lat="48.04456" lon="-3.76074">
        <ele>224.8</ele>
        <time>2020-06-08T08:26:12Z</time>
      </trkpt>
      <trkpt lat="48.04456" lon="-3.76069">
        <ele>224.8</ele>
        <time>2020-06-08T08:26:13Z</time>
      </trkpt>
      <trkpt lat="48.04456" lon="-3.76067">
        <ele>224.8</ele>
        <time>2020-06-08T08:26:14Z</time>
      </trkpt>
      <trkpt lat="48.04456" lon="-3.76061">
        <ele>224.7</ele>
        <time>2020-06-08T08:26:15Z</time>
      </trkpt>
      <trkpt lat="48.04454" lon="-3.76056">
        <ele>224.6</ele>
        <time>2020-06-08T08:26:16Z</time>
      </trkpt>
      <trkpt lat="48.04454" lon="-3.76052">
        <ele>224.5</ele>
        <time>2020-06-08T08:26:17Z</time>
      </trkpt>
      <trkpt lat="48.04453" lon="-3.76047">
        <ele>224.5</ele>
        <time>2020-06-08T08:26:18Z</time>
      </trkpt>
      <trkpt lat="48.04452" lon="-3.76042">
        <ele>224.4</ele>
        <time>2020-06-08T08:26:19Z</time>
      </trkpt>
      <trkpt lat="48.04453" lon="-3.76037">
        <ele>224.3</ele>
        <time>2020-06-08T08:26:20Z</time>
      </trkpt>
      <trkpt lat="48.04454" lon="-3.76031">
        <ele>224.2</ele>
        <time>2020-06-08T08:26:21Z</time>
      </trkpt>
      <trkpt lat="48.04456" lon="-3.76023">
        <ele>224.1</ele>
        <time>2020-06-08T08:26:22Z</time>
      </trkpt>
      <trkpt lat="48.04458" lon="-3.76017">
        <ele>224</ele>
        <time>2020-06-08T08:26:23Z</time>
      </trkpt>
      <trkpt lat="48.04461" lon="-3.76013">
        <ele>224.1</ele>
        <time>2020-06-08T08:26:24Z</time>
      </trkpt>
      <trkpt lat="48.04464" lon="-3.76009">
        <ele>224.2</ele>
        <time>2020-06-08T08:26:25Z</time>
      </trkpt>
      <trkpt lat="48.04467" lon="-3.76009">
        <ele>224.2</ele>
        <time>2020-06-08T08:26:26Z</time>
      </trkpt>
      <trkpt lat="48.04469" lon="-3.76009">
        <ele>224.2</ele>
        <time>2020-06-08T08:26:27Z</time>
      </trkpt>
      <trkpt lat="48.04472" lon="-3.76011">
        <ele>224.2</ele>
        <time>2020-06-08T08:26:28Z</time>
      </trkpt>
      <trkpt lat="48.04475" lon="-3.76013">
        <ele>224.2</ele>
        <time>2020-06-08T08:26:29Z</time>
      </trkpt>
      <trkpt lat="48.04476" lon="-3.76013">
        <ele>224.3</ele>
        <time>2020-06-08T08:26:30Z</time>
      </trkpt>
      <trkpt lat="48.04478" lon="-3.76013">
        <ele>224.3</ele>
        <time>2020-06-08T08:26:31Z</time>
      </trkpt>
      <trkpt lat="48.04479" lon="-3.76013">
        <ele>224.3</ele>
        <time>2020-06-08T08:26:32Z</time>
      </trkpt>
      <trkpt lat="48.04479" lon="-3.76014">
        <ele>224.3</ele>
        <time>2020-06-08T08:26:33Z</time>
      </trkpt>
      <trkpt lat="48.04479" lon="-3.76013">
        <ele>224.3</ele>
        <time>2020-06-08T08:26:34Z</time>
      </trkpt>
      <trkpt lat="48.0448" lon="-3.76013">
        <ele>224.3</ele>
        <time>2020-06-08T08:26:35Z</time>
      </trkpt>
      <trkpt lat="48.0448" lon="-3.76012">
        <ele>224.3</ele>
        <time>2020-06-08T08:26:36Z</time>
      </trkpt>
      <trkpt lat="48.0448" lon="-3.76012">
        <ele>224.3</ele>
        <time>2020-06-08T08:26:37Z</time>
      </trkpt>
      <trkpt lat="48.04481" lon="-3.76012">
        <ele>224.3</ele>
        <time>2020-06-08T08:26:38Z</time>
      </trkpt>
      <trkpt lat="48.04481" lon="-3.76011">
        <ele>224.3</ele>
        <time>2020-06-08T08:26:39Z</time>
      </trkpt>
      <trkpt lat="48.04482" lon="-3.76011">
        <ele>224.3</ele>
        <time>2020-06-08T08:26:40Z</time>
      </trkpt>
      <trkpt lat="48.04482" lon="-3.7601">
        <ele>224.3</ele>
        <time>2020-06-08T08:26:41Z</time>
      </trkpt>
      <trkpt lat="48.04482" lon="-3.7601">
        <ele>224.3</ele>
        <time>2020-06-08T08:26:42Z</time>
      </trkpt>
      <trkpt lat="48.04483" lon="-3.7601">
        <ele>224.3</ele>
        <time>2020-06-08T08:26:43Z</time>
      </trkpt>
      <trkpt lat="48.04483" lon="-3.76009">
        <ele>224.3</ele>
        <time>2020-06-08T08:26:44Z</time>
      </trkpt>
      <trkpt lat="48.04483" lon="-3.76009">
        <ele>224.3</ele>
        <time>2020-06-08T08:26:45Z</time>
      </trkpt>
      <trkpt lat="48.04484" lon="-3.76009">
        <ele>224.3</ele>
        <time>2020-06-08T08:26:46Z</time>
      </trkpt>
      <trkpt lat="48.04484" lon="-3.76008">
        <ele>224.3</ele>
        <time>2020-06-08T08:26:47Z</time>
      </trkpt>
      <trkpt lat="48.04485" lon="-3.76008">
        <ele>224.3</ele>
        <time>2020-06-08T08:26:48Z</time>
      </trkpt>
      <trkpt lat="48.04485" lon="-3.76008">
        <ele>224.3</ele>
        <time>2020-06-08T08:26:49Z</time>
      </trkpt>
      <trkpt lat="48.04485" lon="-3.76007">
        <ele>224.3</ele>
        <time>2020-06-08T08:26:50Z</time>
      </trkpt>
      <trkpt lat="48.04486" lon="-3.76007">
        <ele>224.3</ele>
        <time>2020-06-08T08:26:51Z</time>
      </trkpt>
      <trkpt lat="48.04486" lon="-3.76007">
        <ele>224.3</ele>
        <time>2020-06-08T08:26:52Z</time>
      </trkpt>
      <trkpt lat="48.04486" lon="-3.76006">
        <ele>224.3</ele>
        <time>2020-06-08T08:32:19Z</time>
      </trkpt>
      <trkpt lat="48.04487" lon="-3.76006">
        <ele>224.4</ele>
        <time>2020-06-08T08:32:20Z</time>
      </trkpt>
      <trkpt lat="48.04487" lon="-3.76005">
        <ele>224.4</ele>
        <time>2020-06-08T08:32:21Z</time>
      </trkpt>
      <trkpt lat="48.04488" lon="-3.76005">
        <ele>224.4</ele>
        <time>2020-06-08T08:32:22Z</time>
      </trkpt>
      <trkpt lat="48.04488" lon="-3.76005">
        <ele>224.4</ele>
        <time>2020-06-08T08:32:23Z</time>
      </trkpt>
      <trkpt lat="48.04491" lon="-3.76005">
        <ele>224.4</ele>
        <time>2020-06-08T08:32:24Z</time>
      </trkpt>
      <trkpt lat="48.04492" lon="-3.76006">
        <ele>224.4</ele>
        <time>2020-06-08T08:32:25Z</time>
      </trkpt>
      <trkpt lat="48.04495" lon="-3.76006">
        <ele>224.4</ele>
        <time>2020-06-08T08:32:26Z</time>
      </trkpt>
      <trkpt lat="48.04498" lon="-3.76007">
        <ele>224.9</ele>
        <time>2020-06-08T08:32:27Z</time>
      </trkpt>
      <trkpt lat="48.045" lon="-3.76007">
        <ele>225.1</ele>
        <time>2020-06-08T08:32:28Z</time>
      </trkpt>
      <trkpt lat="48.04503" lon="-3.7601">
        <ele>225.2</ele>
        <time>2020-06-08T08:32:29Z</time>
      </trkpt>
      <trkpt lat="48.04506" lon="-3.76012">
        <ele>225.4</ele>
        <time>2020-06-08T08:32:30Z</time>
      </trkpt>
      <trkpt lat="48.04508" lon="-3.76016">
        <ele>225.5</ele>
        <time>2020-06-08T08:32:31Z</time>
      </trkpt>
      <trkpt lat="48.0451" lon="-3.76019">
        <ele>225.7</ele>
        <time>2020-06-08T08:32:32Z</time>
      </trkpt>
      <trkpt lat="48.04512" lon="-3.76024">
        <ele>225.9</ele>
        <time>2020-06-08T08:32:33Z</time>
      </trkpt>
      <trkpt lat="48.04513" lon="-3.76027">
        <ele>226</ele>
        <time>2020-06-08T08:32:34Z</time>
      </trkpt>
      <trkpt lat="48.04515" lon="-3.76031">
        <ele>226.1</ele>
        <time>2020-06-08T08:32:35Z</time>
      </trkpt>
      <trkpt lat="48.04517" lon="-3.76034">
        <ele>226.3</ele>
        <time>2020-06-08T08:32:36Z</time>
      </trkpt>
      <trkpt lat="48.04519" lon="-3.76038">
        <ele>226.4</ele>
        <time>2020-06-08T08:32:37Z</time>
      </trkpt>
      <trkpt lat="48.04521" lon="-3.76042">
        <ele>226.6</ele>
        <time>2020-06-08T08:32:38Z</time>
      </trkpt>
      <trkpt lat="48.04523" lon="-3.76046">
        <ele>226.7</ele>
        <time>2020-06-08T08:32:39Z</time>
      </trkpt>
      <trkpt lat="48.04525" lon="-3.76049">
        <ele>226.9</ele>
        <time>2020-06-08T08:32:40Z</time>
      </trkpt>
      <trkpt lat="48.04527" lon="-3.76053">
        <ele>227.1</ele>
        <time>2020-06-08T08:32:41Z</time>
      </trkpt>
      <trkpt lat="48.0453" lon="-3.76057">
        <ele>227.3</ele>
        <time>2020-06-08T08:32:42Z</time>
      </trkpt>
      <trkpt lat="48.04532" lon="-3.76061">
        <ele>227.4</ele>
        <time>2020-06-08T08:32:43Z</time>
      </trkpt>
      <trkpt lat="48.04534" lon="-3.76065">
        <ele>227.6</ele>
        <time>2020-06-08T08:32:44Z</time>
      </trkpt>
      <trkpt lat="48.04537" lon="-3.7607">
        <ele>227.8</ele>
        <time>2020-06-08T08:32:45Z</time>
      </trkpt>
      <trkpt lat="48.04539" lon="-3.76075">
        <ele>228</ele>
        <time>2020-06-08T08:32:46Z</time>
      </trkpt>
      <trkpt lat="48.04541" lon="-3.7608">
        <ele>228.2</ele>
        <time>2020-06-08T08:32:47Z</time>
      </trkpt>
      <trkpt lat="48.04543" lon="-3.76084">
        <ele>228.4</ele>
        <time>2020-06-08T08:32:48Z</time>
      </trkpt>
      <trkpt lat="48.04545" lon="-3.76088">
        <ele>228.5</ele>
        <time>2020-06-08T08:32:49Z</time>
      </trkpt>
      <trkpt lat="48.04547" lon="-3.76092">
        <ele>228.7</ele>
        <time>2020-06-08T08:32:50Z</time>
      </trkpt>
      <trkpt lat="48.0455" lon="-3.76096">
        <ele>228.9</ele>
        <time>2020-06-08T08:32:51Z</time>
      </trkpt>
      <trkpt lat="48.04552" lon="-3.76101">
        <ele>229.1</ele>
        <time>2020-06-08T08:32:52Z</time>
      </trkpt>
      <trkpt lat="48.04554" lon="-3.76105">
        <ele>229.3</ele>
        <time>2020-06-08T08:32:53Z</time>
      </trkpt>
      <trkpt lat="48.04555" lon="-3.7611">
        <ele>229.5</ele>
        <time>2020-06-08T08:32:54Z</time>
      </trkpt>
      <trkpt lat="48.04558" lon="-3.76113">
        <ele>229.7</ele>
        <time>2020-06-08T08:32:55Z</time>
      </trkpt>
      <trkpt lat="48.0456" lon="-3.76117">
        <ele>229.8</ele>
        <time>2020-06-08T08:32:56Z</time>
      </trkpt>
      <trkpt lat="48.04562" lon="-3.76121">
        <ele>230.1</ele>
        <time>2020-06-08T08:32:57Z</time>
      </trkpt>
      <trkpt lat="48.04565" lon="-3.76125">
        <ele>230.4</ele>
        <time>2020-06-08T08:32:58Z</time>
      </trkpt>
      <trkpt lat="48.04567" lon="-3.76129">
        <ele>230.6</ele>
        <time>2020-06-08T08:32:59Z</time>
      </trkpt>
      <trkpt lat="48.0457" lon="-3.76133">
        <ele>230.8</ele>
        <time>2020-06-08T08:33:00Z</time>
      </trkpt>
      <trkpt lat="48.04572" lon="-3.76137">
        <ele>231.1</ele>
        <time>2020-06-08T08:33:01Z</time>
      </trkpt>
      <trkpt lat="48.04574" lon="-3.76141">
        <ele>231.3</ele>
        <time>2020-06-08T08:33:02Z</time>
      </trkpt>
      <trkpt lat="48.04577" lon="-3.76145">
        <ele>231.5</ele>
        <time>2020-06-08T08:33:03Z</time>
      </trkpt>
      <trkpt lat="48.04579" lon="-3.7615">
        <ele>231.8</ele>
        <time>2020-06-08T08:33:04Z</time>
      </trkpt>
      <trkpt lat="48.04581" lon="-3.76155">
        <ele>232.1</ele>
        <time>2020-06-08T08:33:05Z</time>
      </trkpt>
      <trkpt lat="48.04583" lon="-3.76159">
        <ele>232.3</ele>
        <time>2020-06-08T08:33:06Z</time>
      </trkpt>
      <trkpt lat="48.04585" lon="-3.76164">
        <ele>232.6</ele>
        <time>2020-06-08T08:33:07Z</time>
      </trkpt>
      <trkpt lat="48.04587" lon="-3.76168">
        <ele>232.9</ele>
        <time>2020-06-08T08:33:08Z</time>
      </trkpt>
      <trkpt lat="48.04589" lon="-3.76173">
        <ele>233.1</ele>
        <time>2020-06-08T08:33:09Z</time>
      </trkpt>
      <trkpt lat="48.04591" lon="-3.76177">
        <ele>233.3</ele>
        <time>2020-06-08T08:33:10Z</time>
      </trkpt>
      <trkpt lat="48.04593" lon="-3.76181">
        <ele>233.6</ele>
        <time>2020-06-08T08:33:11Z</time>
      </trkpt>
      <trkpt lat="48.04595" lon="-3.76185">
        <ele>233.8</ele>
        <time>2020-06-08T08:33:12Z</time>
      </trkpt>
      <trkpt lat="48.04597" lon="-3.76189">
        <ele>234</ele>
        <time>2020-06-08T08:33:13Z</time>
      </trkpt>
      <trkpt lat="48.04599" lon="-3.76192">
        <ele>234.2</ele>
        <time>2020-06-08T08:33:14Z</time>
      </trkpt>
      <trkpt lat="48.04601" lon="-3.76197">
        <ele>234.5</ele>
        <time>2020-06-08T08:33:15Z</time>
      </trkpt>
      <trkpt lat="48.04603" lon="-3.762">
        <ele>234.7</ele>
        <time>2020-06-08T08:33:16Z</time>
      </trkpt>
      <trkpt lat="48.04605" lon="-3.76204">
        <ele>234.9</ele>
        <time>2020-06-08T08:33:17Z</time>
      </trkpt>
      <trkpt lat="48.04607" lon="-3.76209">
        <ele>235.2</ele>
        <time>2020-06-08T08:33:18Z</time>
      </trkpt>
      <trkpt lat="48.0461" lon="-3.76213">
        <ele>235.4</ele>
        <time>2020-06-08T08:33:19Z</time>
      </trkpt>
      <trkpt lat="48.04612" lon="-3.76216">
        <ele>235.7</ele>
        <time>2020-06-08T08:33:20Z</time>
      </trkpt>
      <trkpt lat="48.04615" lon="-3.76219">
        <ele>235.9</ele>
        <time>2020-06-08T08:33:21Z</time>
      </trkpt>
      <trkpt lat="48.04618" lon="-3.76223">
        <ele>236.1</ele>
        <time>2020-06-08T08:33:22Z</time>
      </trkpt>
      <trkpt lat="48.0462" lon="-3.76227">
        <ele>236.3</ele>
        <time>2020-06-08T08:33:23Z</time>
      </trkpt>
      <trkpt lat="48.04623" lon="-3.76231">
        <ele>236.6</ele>
        <time>2020-06-08T08:33:24Z</time>
      </trkpt>
      <trkpt lat="48.04625" lon="-3.76235">
        <ele>236.7</ele>
        <time>2020-06-08T08:33:25Z</time>
      </trkpt>
      <trkpt lat="48.04627" lon="-3.76238">
        <ele>236.9</ele>
        <time>2020-06-08T08:33:26Z</time>
      </trkpt>
      <trkpt lat="48.04628" lon="-3.76242">
        <ele>237</ele>
        <time>2020-06-08T08:33:27Z</time>
      </trkpt>
      <trkpt lat="48.04631" lon="-3.76245">
        <ele>237.1</ele>
        <time>2020-06-08T08:33:28Z</time>
      </trkpt>
      <trkpt lat="48.04632" lon="-3.76249">
        <ele>237.3</ele>
        <time>2020-06-08T08:33:29Z</time>
      </trkpt>
      <trkpt lat="48.04633" lon="-3.76254">
        <ele>237.4</ele>
        <time>2020-06-08T08:33:30Z</time>
      </trkpt>
      <trkpt lat="48.04635" lon="-3.76258">
        <ele>237.4</ele>
        <time>2020-06-08T08:33:31Z</time>
      </trkpt>
      <trkpt lat="48.04637" lon="-3.76262">
        <ele>237.5</ele>
        <time>2020-06-08T08:33:32Z</time>
      </trkpt>
      <trkpt lat="48.04639" lon="-3.76265">
        <ele>237.6</ele>
        <time>2020-06-08T08:33:33Z</time>
      </trkpt>
      <trkpt lat="48.0464" lon="-3.76269">
        <ele>237.6</ele>
        <time>2020-06-08T08:33:34Z</time>
      </trkpt>
      <trkpt lat="48.04643" lon="-3.76271">
        <ele>237.7</ele>
        <time>2020-06-08T08:33:35Z</time>
      </trkpt>
      <trkpt lat="48.04646" lon="-3.76275">
        <ele>237.8</ele>
        <time>2020-06-08T08:33:36Z</time>
      </trkpt>
      <trkpt lat="48.04648" lon="-3.76279">
        <ele>237.8</ele>
        <time>2020-06-08T08:33:37Z</time>
      </trkpt>
      <trkpt lat="48.04651" lon="-3.76283">
        <ele>237.8</ele>
        <time>2020-06-08T08:33:38Z</time>
      </trkpt>
      <trkpt lat="48.04653" lon="-3.76288">
        <ele>237.8</ele>
        <time>2020-06-08T08:33:39Z</time>
      </trkpt>
      <trkpt lat="48.04655" lon="-3.76293">
        <ele>237.9</ele>
        <time>2020-06-08T08:33:40Z</time>
      </trkpt>
      <trkpt lat="48.04657" lon="-3.76297">
        <ele>237.9</ele>
        <time>2020-06-08T08:33:41Z</time>
      </trkpt>
      <trkpt lat="48.04659" lon="-3.76301">
        <ele>237.9</ele>
        <time>2020-06-08T08:33:42Z</time>
      </trkpt>
      <trkpt lat="48.04662" lon="-3.76304">
        <ele>237.9</ele>
        <time>2020-06-08T08:33:43Z</time>
      </trkpt>
      <trkpt lat="48.04664" lon="-3.76309">
        <ele>237.8</ele>
        <time>2020-06-08T08:33:44Z</time>
      </trkpt>
      <trkpt lat="48.04667" lon="-3.76313">
        <ele>237.8</ele>
        <time>2020-06-08T08:33:45Z</time>
      </trkpt>
      <trkpt lat="48.04671" lon="-3.76318">
        <ele>237.7</ele>
        <time>2020-06-08T08:33:46Z</time>
      </trkpt>
      <trkpt lat="48.04674" lon="-3.76323">
        <ele>237.6</ele>
        <time>2020-06-08T08:33:47Z</time>
      </trkpt>
      <trkpt lat="48.04677" lon="-3.76329">
        <ele>237.5</ele>
        <time>2020-06-08T08:33:48Z</time>
      </trkpt>
      <trkpt lat="48.0468" lon="-3.76334">
        <ele>237.4</ele>
        <time>2020-06-08T08:33:49Z</time>
      </trkpt>
      <trkpt lat="48.04683" lon="-3.7634">
        <ele>237.3</ele>
        <time>2020-06-08T08:33:50Z</time>
      </trkpt>
      <trkpt lat="48.04686" lon="-3.76346">
        <ele>237.2</ele>
        <time>2020-06-08T08:33:51Z</time>
      </trkpt>
      <trkpt lat="48.04689" lon="-3.76352">
        <ele>237</ele>
        <time>2020-06-08T08:33:52Z</time>
      </trkpt>
      <trkpt lat="48.04692" lon="-3.76358">
        <ele>236.9</ele>
        <time>2020-06-08T08:33:53Z</time>
      </trkpt>
      <trkpt lat="48.04695" lon="-3.76365">
        <ele>236.8</ele>
        <time>2020-06-08T08:33:54Z</time>
      </trkpt>
      <trkpt lat="48.04699" lon="-3.76372">
        <ele>236.7</ele>
        <time>2020-06-08T08:33:55Z</time>
      </trkpt>
      <trkpt lat="48.04702" lon="-3.76379">
        <ele>236.5</ele>
        <time>2020-06-08T08:33:56Z</time>
      </trkpt>
      <trkpt lat="48.04705" lon="-3.76385">
        <ele>236.4</ele>
        <time>2020-06-08T08:33:57Z</time>
      </trkpt>
      <trkpt lat="48.04708" lon="-3.7639">
        <ele>236.3</ele>
        <time>2020-06-08T08:33:58Z</time>
      </trkpt>
      <trkpt lat="48.04712" lon="-3.76396">
        <ele>236.2</ele>
        <time>2020-06-08T08:33:59Z</time>
      </trkpt>
      <trkpt lat="48.04715" lon="-3.76402">
        <ele>236.1</ele>
        <time>2020-06-08T08:34:00Z</time>
      </trkpt>
      <trkpt lat="48.04719" lon="-3.76407">
        <ele>236.1</ele>
        <time>2020-06-08T08:34:01Z</time>
      </trkpt>
      <trkpt lat="48.04722" lon="-3.76413">
        <ele>236</ele>
        <time>2020-06-08T08:34:02Z</time>
      </trkpt>
      <trkpt lat="48.04725" lon="-3.76418">
        <ele>236</ele>
        <time>2020-06-08T08:34:03Z</time>
      </trkpt>
      <trkpt lat="48.04729" lon="-3.76424">
        <ele>235.9</ele>
        <time>2020-06-08T08:34:04Z</time>
      </trkpt>
      <trkpt lat="48.04732" lon="-3.76431">
        <ele>235.9</ele>
        <time>2020-06-08T08:34:05Z</time>
      </trkpt>
      <trkpt lat="48.04736" lon="-3.76437">
        <ele>235.9</ele>
        <time>2020-06-08T08:34:06Z</time>
      </trkpt>
      <trkpt lat="48.0474" lon="-3.76443">
        <ele>235.9</ele>
        <time>2020-06-08T08:34:07Z</time>
      </trkpt>
      <trkpt lat="48.04743" lon="-3.7645">
        <ele>236</ele>
        <time>2020-06-08T08:34:08Z</time>
      </trkpt>
      <trkpt lat="48.04747" lon="-3.76458">
        <ele>236</ele>
        <time>2020-06-08T08:34:09Z</time>
      </trkpt>
      <trkpt lat="48.04751" lon="-3.76465">
        <ele>236</ele>
        <time>2020-06-08T08:34:10Z</time>
      </trkpt>
      <trkpt lat="48.04754" lon="-3.76473">
        <ele>236.1</ele>
        <time>2020-06-08T08:34:11Z</time>
      </trkpt>
      <trkpt lat="48.04758" lon="-3.7648">
        <ele>236.2</ele>
        <time>2020-06-08T08:34:12Z</time>
      </trkpt>
      <trkpt lat="48.04762" lon="-3.76486">
        <ele>236.3</ele>
        <time>2020-06-08T08:34:13Z</time>
      </trkpt>
      <trkpt lat="48.04766" lon="-3.76492">
        <ele>236.4</ele>
        <time>2020-06-08T08:34:14Z</time>
      </trkpt>
      <trkpt lat="48.04769" lon="-3.76499">
        <ele>236.5</ele>
        <time>2020-06-08T08:34:15Z</time>
      </trkpt>
      <trkpt lat="48.04773" lon="-3.76505">
        <ele>236.7</ele>
        <time>2020-06-08T08:34:16Z</time>
      </trkpt>
      <trkpt lat="48.04776" lon="-3.76511">
        <ele>236.9</ele>
        <time>2020-06-08T08:34:17Z</time>
      </trkpt>
      <trkpt lat="48.04779" lon="-3.76517">
        <ele>237</ele>
        <time>2020-06-08T08:34:18Z</time>
      </trkpt>
      <trkpt lat="48.04782" lon="-3.76523">
        <ele>237.2</ele>
        <time>2020-06-08T08:34:19Z</time>
      </trkpt>
      <trkpt lat="48.04785" lon="-3.76529">
        <ele>237.3</ele>
        <time>2020-06-08T08:34:20Z</time>
      </trkpt>
      <trkpt lat="48.04788" lon="-3.76535">
        <ele>237.5</ele>
        <time>2020-06-08T08:34:21Z</time>
      </trkpt>
      <trkpt lat="48.04791" lon="-3.7654">
        <ele>237.6</ele>
        <time>2020-06-08T08:34:22Z</time>
      </trkpt>
      <trkpt lat="48.04794" lon="-3.76546">
        <ele>237.8</ele>
        <time>2020-06-08T08:34:23Z</time>
      </trkpt>
      <trkpt lat="48.04798" lon="-3.76553">
        <ele>237.9</ele>
        <time>2020-06-08T08:34:24Z</time>
      </trkpt>
      <trkpt lat="48.04801" lon="-3.76559">
        <ele>238.1</ele>
        <time>2020-06-08T08:34:25Z</time>
      </trkpt>
      <trkpt lat="48.04804" lon="-3.76565">
        <ele>238.2</ele>
        <time>2020-06-08T08:34:26Z</time>
      </trkpt>
      <trkpt lat="48.04807" lon="-3.76571">
        <ele>238.4</ele>
        <time>2020-06-08T08:34:27Z</time>
      </trkpt>
      <trkpt lat="48.0481" lon="-3.76578">
        <ele>238.5</ele>
        <time>2020-06-08T08:34:28Z</time>
      </trkpt>
      <trkpt lat="48.04813" lon="-3.76584">
        <ele>238.7</ele>
        <time>2020-06-08T08:34:29Z</time>
      </trkpt>
      <trkpt lat="48.04815" lon="-3.76589">
        <ele>238.8</ele>
        <time>2020-06-08T08:34:30Z</time>
      </trkpt>
      <trkpt lat="48.04818" lon="-3.76594">
        <ele>238.9</ele>
        <time>2020-06-08T08:34:31Z</time>
      </trkpt>
      <trkpt lat="48.04821" lon="-3.76599">
        <ele>239</ele>
        <time>2020-06-08T08:34:32Z</time>
      </trkpt>
      <trkpt lat="48.04825" lon="-3.76606">
        <ele>239.1</ele>
        <time>2020-06-08T08:34:33Z</time>
      </trkpt>
      <trkpt lat="48.04829" lon="-3.7661">
        <ele>239.1</ele>
        <time>2020-06-08T08:34:34Z</time>
      </trkpt>
      <trkpt lat="48.04832" lon="-3.76616">
        <ele>239.1</ele>
        <time>2020-06-08T08:34:35Z</time>
      </trkpt>
      <trkpt lat="48.04836" lon="-3.76622">
        <ele>239.1</ele>
        <time>2020-06-08T08:34:36Z</time>
      </trkpt>
      <trkpt lat="48.04839" lon="-3.76627">
        <ele>239.1</ele>
        <time>2020-06-08T08:34:37Z</time>
      </trkpt>
      <trkpt lat="48.04843" lon="-3.76634">
        <ele>239.1</ele>
        <time>2020-06-08T08:34:38Z</time>
      </trkpt>
      <trkpt lat="48.04846" lon="-3.76639">
        <ele>239.1</ele>
        <time>2020-06-08T08:34:39Z</time>
      </trkpt>
      <trkpt lat="48.0485" lon="-3.76645">
        <ele>239</ele>
        <time>2020-06-08T08:34:40Z</time>
      </trkpt>
      <trkpt lat="48.04854" lon="-3.76651">
        <ele>238.9</ele>
        <time>2020-06-08T08:34:41Z</time>
      </trkpt>
      <trkpt lat="48.04858" lon="-3.76657">
        <ele>238.8</ele>
        <time>2020-06-08T08:34:42Z</time>
      </trkpt>
      <trkpt lat="48.04862" lon="-3.76663">
        <ele>238.6</ele>
        <time>2020-06-08T08:34:43Z</time>
      </trkpt>
      <trkpt lat="48.04866" lon="-3.76669">
        <ele>238.4</ele>
        <time>2020-06-08T08:34:44Z</time>
      </trkpt>
      <trkpt lat="48.0487" lon="-3.76676">
        <ele>238.2</ele>
        <time>2020-06-08T08:34:45Z</time>
      </trkpt>
      <trkpt lat="48.04875" lon="-3.76682">
        <ele>237.9</ele>
        <time>2020-06-08T08:34:46Z</time>
      </trkpt>
      <trkpt lat="48.0488" lon="-3.76688">
        <ele>237.6</ele>
        <time>2020-06-08T08:34:47Z</time>
      </trkpt>
      <trkpt lat="48.04884" lon="-3.76696">
        <ele>237.3</ele>
        <time>2020-06-08T08:34:48Z</time>
      </trkpt>
      <trkpt lat="48.04889" lon="-3.76703">
        <ele>236.9</ele>
        <time>2020-06-08T08:34:49Z</time>
      </trkpt>
      <trkpt lat="48.04894" lon="-3.76711">
        <ele>236.5</ele>
        <time>2020-06-08T08:34:50Z</time>
      </trkpt>
      <trkpt lat="48.049" lon="-3.76719">
        <ele>236</ele>
        <time>2020-06-08T08:34:51Z</time>
      </trkpt>
      <trkpt lat="48.04906" lon="-3.76725">
        <ele>235.6</ele>
        <time>2020-06-08T08:34:52Z</time>
      </trkpt>
      <trkpt lat="48.04912" lon="-3.76732">
        <ele>235.1</ele>
        <time>2020-06-08T08:34:53Z</time>
      </trkpt>
      <trkpt lat="48.04918" lon="-3.7674">
        <ele>234.6</ele>
        <time>2020-06-08T08:34:54Z</time>
      </trkpt>
      <trkpt lat="48.04924" lon="-3.76747">
        <ele>234.1</ele>
        <time>2020-06-08T08:34:55Z</time>
      </trkpt>
      <trkpt lat="48.04931" lon="-3.76754">
        <ele>233.6</ele>
        <time>2020-06-08T08:34:56Z</time>
      </trkpt>
      <trkpt lat="48.04938" lon="-3.76761">
        <ele>233.1</ele>
        <time>2020-06-08T08:34:57Z</time>
      </trkpt>
      <trkpt lat="48.04945" lon="-3.76768">
        <ele>232.7</ele>
        <time>2020-06-08T08:34:58Z</time>
      </trkpt>
      <trkpt lat="48.04951" lon="-3.76775">
        <ele>232.3</ele>
        <time>2020-06-08T08:34:59Z</time>
      </trkpt>
      <trkpt lat="48.04959" lon="-3.76782">
        <ele>231.9</ele>
        <time>2020-06-08T08:35:00Z</time>
      </trkpt>
      <trkpt lat="48.04966" lon="-3.76789">
        <ele>231.6</ele>
        <time>2020-06-08T08:35:01Z</time>
      </trkpt>
      <trkpt lat="48.04972" lon="-3.76796">
        <ele>231.3</ele>
        <time>2020-06-08T08:35:02Z</time>
      </trkpt>
      <trkpt lat="48.04979" lon="-3.76803">
        <ele>231</ele>
        <time>2020-06-08T08:35:03Z</time>
      </trkpt>
      <trkpt lat="48.04986" lon="-3.7681">
        <ele>230.8</ele>
        <time>2020-06-08T08:35:04Z</time>
      </trkpt>
      <trkpt lat="48.04992" lon="-3.76818">
        <ele>230.5</ele>
        <time>2020-06-08T08:35:05Z</time>
      </trkpt>
      <trkpt lat="48.04999" lon="-3.76826">
        <ele>230.1</ele>
        <time>2020-06-08T08:35:06Z</time>
      </trkpt>
      <trkpt lat="48.05005" lon="-3.76833">
        <ele>229.8</ele>
        <time>2020-06-08T08:35:07Z</time>
      </trkpt>
      <trkpt lat="48.05012" lon="-3.76839">
        <ele>229.5</ele>
        <time>2020-06-08T08:35:08Z</time>
      </trkpt>
      <trkpt lat="48.05019" lon="-3.76845">
        <ele>229.2</ele>
        <time>2020-06-08T08:35:09Z</time>
      </trkpt>
      <trkpt lat="48.05025" lon="-3.76852">
        <ele>229</ele>
        <time>2020-06-08T08:35:10Z</time>
      </trkpt>
      <trkpt lat="48.05032" lon="-3.76859">
        <ele>228.7</ele>
        <time>2020-06-08T08:35:11Z</time>
      </trkpt>
      <trkpt lat="48.05039" lon="-3.76866">
        <ele>228.5</ele>
        <time>2020-06-08T08:35:12Z</time>
      </trkpt>
      <trkpt lat="48.05045" lon="-3.76872">
        <ele>228.4</ele>
        <time>2020-06-08T08:35:13Z</time>
      </trkpt>
      <trkpt lat="48.05052" lon="-3.76878">
        <ele>228.3</ele>
        <time>2020-06-08T08:35:14Z</time>
      </trkpt>
      <trkpt lat="48.05059" lon="-3.76885">
        <ele>228.2</ele>
        <time>2020-06-08T08:35:15Z</time>
      </trkpt>
      <trkpt lat="48.05065" lon="-3.76891">
        <ele>228.2</ele>
        <time>2020-06-08T08:35:16Z</time>
      </trkpt>
      <trkpt lat="48.05072" lon="-3.76898">
        <ele>228.1</ele>
        <time>2020-06-08T08:35:17Z</time>
      </trkpt>
      <trkpt lat="48.05078" lon="-3.76905">
        <ele>228.1</ele>
        <time>2020-06-08T08:35:18Z</time>
      </trkpt>
      <trkpt lat="48.05085" lon="-3.76912">
        <ele>228</ele>
        <time>2020-06-08T08:35:19Z</time>
      </trkpt>
      <trkpt lat="48.05091" lon="-3.76919">
        <ele>228</ele>
        <time>2020-06-08T08:35:20Z</time>
      </trkpt>
      <trkpt lat="48.05098" lon="-3.76926">
        <ele>227.9</ele>
        <time>2020-06-08T08:35:21Z</time>
      </trkpt>
      <trkpt lat="48.05104" lon="-3.76932">
        <ele>227.9</ele>
        <time>2020-06-08T08:35:22Z</time>
      </trkpt>
      <trkpt lat="48.05111" lon="-3.76939">
        <ele>227.8</ele>
        <time>2020-06-08T08:35:23Z</time>
      </trkpt>
      <trkpt lat="48.05117" lon="-3.76946">
        <ele>227.8</ele>
        <time>2020-06-08T08:35:24Z</time>
      </trkpt>
      <trkpt lat="48.05123" lon="-3.76954">
        <ele>227.7</ele>
        <time>2020-06-08T08:35:25Z</time>
      </trkpt>
      <trkpt lat="48.05129" lon="-3.7696">
        <ele>227.5</ele>
        <time>2020-06-08T08:35:26Z</time>
      </trkpt>
      <trkpt lat="48.05136" lon="-3.76966">
        <ele>227.4</ele>
        <time>2020-06-08T08:35:27Z</time>
      </trkpt>
      <trkpt lat="48.05142" lon="-3.76973">
        <ele>227.3</ele>
        <time>2020-06-08T08:35:28Z</time>
      </trkpt>
      <trkpt lat="48.05148" lon="-3.76979">
        <ele>227.2</ele>
        <time>2020-06-08T08:35:29Z</time>
      </trkpt>
      <trkpt lat="48.05155" lon="-3.76986">
        <ele>227.1</ele>
        <time>2020-06-08T08:35:30Z</time>
      </trkpt>
      <trkpt lat="48.05161" lon="-3.76993">
        <ele>227</ele>
        <time>2020-06-08T08:35:31Z</time>
      </trkpt>
      <trkpt lat="48.05168" lon="-3.77">
        <ele>226.9</ele>
        <time>2020-06-08T08:35:32Z</time>
      </trkpt>
      <trkpt lat="48.05174" lon="-3.77006">
        <ele>226.8</ele>
        <time>2020-06-08T08:35:33Z</time>
      </trkpt>
      <trkpt lat="48.0518" lon="-3.77013">
        <ele>226.8</ele>
        <time>2020-06-08T08:35:34Z</time>
      </trkpt>
      <trkpt lat="48.05187" lon="-3.77019">
        <ele>227</ele>
        <time>2020-06-08T08:35:35Z</time>
      </trkpt>
      <trkpt lat="48.05194" lon="-3.77024">
        <ele>227.2</ele>
        <time>2020-06-08T08:35:36Z</time>
      </trkpt>
      <trkpt lat="48.052" lon="-3.77029">
        <ele>227</ele>
        <time>2020-06-08T08:35:37Z</time>
      </trkpt>
      <trkpt lat="48.05207" lon="-3.77035">
        <ele>226.8</ele>
        <time>2020-06-08T08:35:38Z</time>
      </trkpt>
      <trkpt lat="48.05213" lon="-3.77041">
        <ele>226.6</ele>
        <time>2020-06-08T08:35:39Z</time>
      </trkpt>
      <trkpt lat="48.0522" lon="-3.77047">
        <ele>226.4</ele>
        <time>2020-06-08T08:35:40Z</time>
      </trkpt>
      <trkpt lat="48.05226" lon="-3.77053">
        <ele>226.3</ele>
        <time>2020-06-08T08:35:41Z</time>
      </trkpt>
      <trkpt lat="48.05233" lon="-3.77057">
        <ele>226.3</ele>
        <time>2020-06-08T08:35:42Z</time>
      </trkpt>
      <trkpt lat="48.05239" lon="-3.77062">
        <ele>226.3</ele>
        <time>2020-06-08T08:35:43Z</time>
      </trkpt>
      <trkpt lat="48.05245" lon="-3.77067">
        <ele>226.3</ele>
        <time>2020-06-08T08:35:44Z</time>
      </trkpt>
      <trkpt lat="48.05252" lon="-3.77072">
        <ele>226.2</ele>
        <time>2020-06-08T08:35:45Z</time>
      </trkpt>
      <trkpt lat="48.05258" lon="-3.77077">
        <ele>226.2</ele>
        <time>2020-06-08T08:35:46Z</time>
      </trkpt>
      <trkpt lat="48.05264" lon="-3.77082">
        <ele>226.2</ele>
        <time>2020-06-08T08:35:47Z</time>
      </trkpt>
      <trkpt lat="48.05271" lon="-3.77087">
        <ele>226.1</ele>
        <time>2020-06-08T08:35:48Z</time>
      </trkpt>
      <trkpt lat="48.05277" lon="-3.77092">
        <ele>226.1</ele>
        <time>2020-06-08T08:35:49Z</time>
      </trkpt>
      <trkpt lat="48.05283" lon="-3.77097">
        <ele>226.1</ele>
        <time>2020-06-08T08:35:50Z</time>
      </trkpt>
      <trkpt lat="48.05289" lon="-3.77101">
        <ele>226</ele>
        <time>2020-06-08T08:35:51Z</time>
      </trkpt>
      <trkpt lat="48.05295" lon="-3.77106">
        <ele>226</ele>
        <time>2020-06-08T08:35:52Z</time>
      </trkpt>
      <trkpt lat="48.05301" lon="-3.7711">
        <ele>226</ele>
        <time>2020-06-08T08:35:53Z</time>
      </trkpt>
      <trkpt lat="48.05307" lon="-3.77115">
        <ele>226</ele>
        <time>2020-06-08T08:35:54Z</time>
      </trkpt>
      <trkpt lat="48.05313" lon="-3.7712">
        <ele>226.1</ele>
        <time>2020-06-08T08:35:55Z</time>
      </trkpt>
      <trkpt lat="48.05319" lon="-3.77125">
        <ele>226.1</ele>
        <time>2020-06-08T08:35:56Z</time>
      </trkpt>
      <trkpt lat="48.05325" lon="-3.7713">
        <ele>226.2</ele>
        <time>2020-06-08T08:35:57Z</time>
      </trkpt>
      <trkpt lat="48.05331" lon="-3.77135">
        <ele>226.2</ele>
        <time>2020-06-08T08:35:58Z</time>
      </trkpt>
      <trkpt lat="48.05337" lon="-3.7714">
        <ele>226.3</ele>
        <time>2020-06-08T08:35:59Z</time>
      </trkpt>
      <trkpt lat="48.05343" lon="-3.77144">
        <ele>226.3</ele>
        <time>2020-06-08T08:36:00Z</time>
      </trkpt>
      <trkpt lat="48.05349" lon="-3.77148">
        <ele>226.4</ele>
        <time>2020-06-08T08:36:01Z</time>
      </trkpt>
      <trkpt lat="48.05355" lon="-3.77152">
        <ele>226.4</ele>
        <time>2020-06-08T08:36:02Z</time>
      </trkpt>
      <trkpt lat="48.0536" lon="-3.77156">
        <ele>226.5</ele>
        <time>2020-06-08T08:36:03Z</time>
      </trkpt>
      <trkpt lat="48.05366" lon="-3.7716">
        <ele>226.5</ele>
        <time>2020-06-08T08:36:04Z</time>
      </trkpt>
      <trkpt lat="48.05371" lon="-3.77163">
        <ele>226.7</ele>
        <time>2020-06-08T08:36:05Z</time>
      </trkpt>
      <trkpt lat="48.05377" lon="-3.77167">
        <ele>226.8</ele>
        <time>2020-06-08T08:36:06Z</time>
      </trkpt>
      <trkpt lat="48.05382" lon="-3.77172">
        <ele>226.9</ele>
        <time>2020-06-08T08:36:07Z</time>
      </trkpt>
      <trkpt lat="48.05387" lon="-3.77176">
        <ele>226.9</ele>
        <time>2020-06-08T08:36:08Z</time>
      </trkpt>
      <trkpt lat="48.05392" lon="-3.7718">
        <ele>226.9</ele>
        <time>2020-06-08T08:36:09Z</time>
      </trkpt>
      <trkpt lat="48.05397" lon="-3.77184">
        <ele>226.9</ele>
        <time>2020-06-08T08:36:10Z</time>
      </trkpt>
      <trkpt lat="48.05402" lon="-3.77187">
        <ele>227</ele>
        <time>2020-06-08T08:36:11Z</time>
      </trkpt>
      <trkpt lat="48.05407" lon="-3.77191">
        <ele>227</ele>
        <time>2020-06-08T08:36:12Z</time>
      </trkpt>
      <trkpt lat="48.05412" lon="-3.77194">
        <ele>227.1</ele>
        <time>2020-06-08T08:36:13Z</time>
      </trkpt>
      <trkpt lat="48.05417" lon="-3.77197">
        <ele>227.2</ele>
        <time>2020-06-08T08:36:14Z</time>
      </trkpt>
      <trkpt lat="48.05421" lon="-3.772">
        <ele>227.3</ele>
        <time>2020-06-08T08:36:15Z</time>
      </trkpt>
      <trkpt lat="48.05426" lon="-3.77203">
        <ele>227.5</ele>
        <time>2020-06-08T08:36:16Z</time>
      </trkpt>
      <trkpt lat="48.05431" lon="-3.77206">
        <ele>227.6</ele>
        <time>2020-06-08T08:36:17Z</time>
      </trkpt>
      <trkpt lat="48.05435" lon="-3.7721">
        <ele>227.7</ele>
        <time>2020-06-08T08:36:18Z</time>
      </trkpt>
      <trkpt lat="48.0544" lon="-3.77214">
        <ele>227.8</ele>
        <time>2020-06-08T08:36:19Z</time>
      </trkpt>
      <trkpt lat="48.05444" lon="-3.77218">
        <ele>227.9</ele>
        <time>2020-06-08T08:36:20Z</time>
      </trkpt>
      <trkpt lat="48.05449" lon="-3.77222">
        <ele>228.1</ele>
        <time>2020-06-08T08:36:21Z</time>
      </trkpt>
      <trkpt lat="48.05454" lon="-3.77225">
        <ele>228.2</ele>
        <time>2020-06-08T08:36:22Z</time>
      </trkpt>
      <trkpt lat="48.05459" lon="-3.77228">
        <ele>228.3</ele>
        <time>2020-06-08T08:36:23Z</time>
      </trkpt>
      <trkpt lat="48.05463" lon="-3.77231">
        <ele>228.4</ele>
        <time>2020-06-08T08:36:24Z</time>
      </trkpt>
      <trkpt lat="48.05468" lon="-3.77234">
        <ele>228.5</ele>
        <time>2020-06-08T08:36:25Z</time>
      </trkpt>
      <trkpt lat="48.05472" lon="-3.77238">
        <ele>228.6</ele>
        <time>2020-06-08T08:36:26Z</time>
      </trkpt>
      <trkpt lat="48.05476" lon="-3.77241">
        <ele>228.7</ele>
        <time>2020-06-08T08:36:27Z</time>
      </trkpt>
      <trkpt lat="48.05481" lon="-3.77244">
        <ele>228.8</ele>
        <time>2020-06-08T08:36:28Z</time>
      </trkpt>
      <trkpt lat="48.05486" lon="-3.77247">
        <ele>228.9</ele>
        <time>2020-06-08T08:36:29Z</time>
      </trkpt>
      <trkpt lat="48.0549" lon="-3.7725">
        <ele>229</ele>
        <time>2020-06-08T08:36:30Z</time>
      </trkpt>
      <trkpt lat="48.05495" lon="-3.77254">
        <ele>229.1</ele>
        <time>2020-06-08T08:36:31Z</time>
      </trkpt>
      <trkpt lat="48.05499" lon="-3.77258">
        <ele>229.2</ele>
        <time>2020-06-08T08:36:32Z</time>
      </trkpt>
      <trkpt lat="48.05504" lon="-3.77261">
        <ele>229.2</ele>
        <time>2020-06-08T08:36:33Z</time>
      </trkpt>
      <trkpt lat="48.05508" lon="-3.77265">
        <ele>229.2</ele>
        <time>2020-06-08T08:36:34Z</time>
      </trkpt>
      <trkpt lat="48.05513" lon="-3.77268">
        <ele>229.2</ele>
        <time>2020-06-08T08:36:35Z</time>
      </trkpt>
      <trkpt lat="48.05517" lon="-3.77272">
        <ele>229.3</ele>
        <time>2020-06-08T08:36:36Z</time>
      </trkpt>
      <trkpt lat="48.05522" lon="-3.77276">
        <ele>229.3</ele>
        <time>2020-06-08T08:36:37Z</time>
      </trkpt>
      <trkpt lat="48.05527" lon="-3.7728">
        <ele>229.4</ele>
        <time>2020-06-08T08:36:38Z</time>
      </trkpt>
      <trkpt lat="48.05532" lon="-3.77283">
        <ele>229.4</ele>
        <time>2020-06-08T08:36:39Z</time>
      </trkpt>
      <trkpt lat="48.05536" lon="-3.77286">
        <ele>229.5</ele>
        <time>2020-06-08T08:36:40Z</time>
      </trkpt>
      <trkpt lat="48.05541" lon="-3.77289">
        <ele>229.6</ele>
        <time>2020-06-08T08:36:41Z</time>
      </trkpt>
      <trkpt lat="48.05546" lon="-3.77292">
        <ele>229.7</ele>
        <time>2020-06-08T08:36:42Z</time>
      </trkpt>
      <trkpt lat="48.05551" lon="-3.77296">
        <ele>229.7</ele>
        <time>2020-06-08T08:36:43Z</time>
      </trkpt>
      <trkpt lat="48.05556" lon="-3.77299">
        <ele>229.8</ele>
        <time>2020-06-08T08:36:44Z</time>
      </trkpt>
      <trkpt lat="48.05561" lon="-3.77303">
        <ele>230.1</ele>
        <time>2020-06-08T08:36:45Z</time>
      </trkpt>
      <trkpt lat="48.05566" lon="-3.77306">
        <ele>230.4</ele>
        <time>2020-06-08T08:36:46Z</time>
      </trkpt>
      <trkpt lat="48.05571" lon="-3.7731">
        <ele>230.6</ele>
        <time>2020-06-08T08:36:47Z</time>
      </trkpt>
      <trkpt lat="48.05576" lon="-3.77314">
        <ele>230.7</ele>
        <time>2020-06-08T08:36:48Z</time>
      </trkpt>
      <trkpt lat="48.0558" lon="-3.77318">
        <ele>230.8</ele>
        <time>2020-06-08T08:36:49Z</time>
      </trkpt>
      <trkpt lat="48.05585" lon="-3.77321">
        <ele>230.9</ele>
        <time>2020-06-08T08:36:50Z</time>
      </trkpt>
      <trkpt lat="48.05589" lon="-3.77324">
        <ele>231</ele>
        <time>2020-06-08T08:36:51Z</time>
      </trkpt>
      <trkpt lat="48.05594" lon="-3.77328">
        <ele>231.1</ele>
        <time>2020-06-08T08:36:52Z</time>
      </trkpt>
      <trkpt lat="48.05599" lon="-3.7733">
        <ele>231.2</ele>
        <time>2020-06-08T08:36:53Z</time>
      </trkpt>
      <trkpt lat="48.05604" lon="-3.77332">
        <ele>231.3</ele>
        <time>2020-06-08T08:36:54Z</time>
      </trkpt>
      <trkpt lat="48.05608" lon="-3.77335">
        <ele>231.3</ele>
        <time>2020-06-08T08:36:55Z</time>
      </trkpt>
      <trkpt lat="48.05612" lon="-3.77339">
        <ele>231.4</ele>
        <time>2020-06-08T08:36:56Z</time>
      </trkpt>
      <trkpt lat="48.05617" lon="-3.77342">
        <ele>231.5</ele>
        <time>2020-06-08T08:36:57Z</time>
      </trkpt>
      <trkpt lat="48.05621" lon="-3.77347">
        <ele>231.5</ele>
        <time>2020-06-08T08:36:58Z</time>
      </trkpt>
      <trkpt lat="48.05625" lon="-3.77351">
        <ele>231.5</ele>
        <time>2020-06-08T08:36:59Z</time>
      </trkpt>
      <trkpt lat="48.0563" lon="-3.77355">
        <ele>231.6</ele>
        <time>2020-06-08T08:37:00Z</time>
      </trkpt>
      <trkpt lat="48.05635" lon="-3.7736">
        <ele>231.6</ele>
        <time>2020-06-08T08:37:01Z</time>
      </trkpt>
      <trkpt lat="48.05639" lon="-3.77364">
        <ele>231.6</ele>
        <time>2020-06-08T08:37:02Z</time>
      </trkpt>
      <trkpt lat="48.05644" lon="-3.77368">
        <ele>231.6</ele>
        <time>2020-06-08T08:37:03Z</time>
      </trkpt>
      <trkpt lat="48.05648" lon="-3.77372">
        <ele>231.6</ele>
        <time>2020-06-08T08:37:04Z</time>
      </trkpt>
      <trkpt lat="48.05653" lon="-3.77376">
        <ele>231.6</ele>
        <time>2020-06-08T08:37:05Z</time>
      </trkpt>
      <trkpt lat="48.05658" lon="-3.77379">
        <ele>231.7</ele>
        <time>2020-06-08T08:37:06Z</time>
      </trkpt>
      <trkpt lat="48.05663" lon="-3.77383">
        <ele>231.7</ele>
        <time>2020-06-08T08:37:07Z</time>
      </trkpt>
      <trkpt lat="48.05668" lon="-3.77386">
        <ele>231.7</ele>
        <time>2020-06-08T08:37:08Z</time>
      </trkpt>
      <trkpt lat="48.05673" lon="-3.7739">
        <ele>231.8</ele>
        <time>2020-06-08T08:37:09Z</time>
      </trkpt>
      <trkpt lat="48.05677" lon="-3.77393">
        <ele>231.9</ele>
        <time>2020-06-08T08:37:10Z</time>
      </trkpt>
      <trkpt lat="48.05682" lon="-3.77396">
        <ele>231.9</ele>
        <time>2020-06-08T08:37:11Z</time>
      </trkpt>
      <trkpt lat="48.05687" lon="-3.77399">
        <ele>232</ele>
        <time>2020-06-08T08:37:12Z</time>
      </trkpt>
      <trkpt lat="48.05692" lon="-3.77401">
        <ele>232.1</ele>
        <time>2020-06-08T08:37:13Z</time>
      </trkpt>
      <trkpt lat="48.05697" lon="-3.77405">
        <ele>232.2</ele>
        <time>2020-06-08T08:37:14Z</time>
      </trkpt>
      <trkpt lat="48.05701" lon="-3.77408">
        <ele>232.3</ele>
        <time>2020-06-08T08:37:15Z</time>
      </trkpt>
      <trkpt lat="48.05706" lon="-3.77413">
        <ele>232.5</ele>
        <time>2020-06-08T08:37:16Z</time>
      </trkpt>
      <trkpt lat="48.05709" lon="-3.77418">
        <ele>232.6</ele>
        <time>2020-06-08T08:37:17Z</time>
      </trkpt>
      <trkpt lat="48.05712" lon="-3.77424">
        <ele>232.8</ele>
        <time>2020-06-08T08:37:18Z</time>
      </trkpt>
      <trkpt lat="48.05716" lon="-3.77429">
        <ele>233</ele>
        <time>2020-06-08T08:37:19Z</time>
      </trkpt>
      <trkpt lat="48.0572" lon="-3.77435">
        <ele>233.3</ele>
        <time>2020-06-08T08:37:20Z</time>
      </trkpt>
      <trkpt lat="48.05724" lon="-3.7744">
        <ele>233.5</ele>
        <time>2020-06-08T08:37:21Z</time>
      </trkpt>
      <trkpt lat="48.05727" lon="-3.77446">
        <ele>233.8</ele>
        <time>2020-06-08T08:37:22Z</time>
      </trkpt>
      <trkpt lat="48.05731" lon="-3.7745">
        <ele>234</ele>
        <time>2020-06-08T08:37:23Z</time>
      </trkpt>
      <trkpt lat="48.05734" lon="-3.77456">
        <ele>234.2</ele>
        <time>2020-06-08T08:37:24Z</time>
      </trkpt>
      <trkpt lat="48.05739" lon="-3.7746">
        <ele>234.5</ele>
        <time>2020-06-08T08:37:25Z</time>
      </trkpt>
      <trkpt lat="48.05742" lon="-3.77463">
        <ele>234.7</ele>
        <time>2020-06-08T08:37:26Z</time>
      </trkpt>
      <trkpt lat="48.05745" lon="-3.77468">
        <ele>234.9</ele>
        <time>2020-06-08T08:37:27Z</time>
      </trkpt>
      <trkpt lat="48.05748" lon="-3.77472">
        <ele>235.1</ele>
        <time>2020-06-08T08:37:28Z</time>
      </trkpt>
      <trkpt lat="48.05752" lon="-3.77476">
        <ele>235.3</ele>
        <time>2020-06-08T08:37:29Z</time>
      </trkpt>
      <trkpt lat="48.05754" lon="-3.77482">
        <ele>235.5</ele>
        <time>2020-06-08T08:37:30Z</time>
      </trkpt>
      <trkpt lat="48.05757" lon="-3.77487">
        <ele>235.7</ele>
        <time>2020-06-08T08:37:31Z</time>
      </trkpt>
      <trkpt lat="48.0576" lon="-3.77492">
        <ele>235.8</ele>
        <time>2020-06-08T08:37:32Z</time>
      </trkpt>
      <trkpt lat="48.05762" lon="-3.77497">
        <ele>236</ele>
        <time>2020-06-08T08:37:33Z</time>
      </trkpt>
      <trkpt lat="48.05764" lon="-3.77504">
        <ele>236.2</ele>
        <time>2020-06-08T08:37:34Z</time>
      </trkpt>
      <trkpt lat="48.05767" lon="-3.77509">
        <ele>236.4</ele>
        <time>2020-06-08T08:37:35Z</time>
      </trkpt>
      <trkpt lat="48.05769" lon="-3.77515">
        <ele>236.6</ele>
        <time>2020-06-08T08:37:36Z</time>
      </trkpt>
      <trkpt lat="48.05771" lon="-3.77521">
        <ele>236.8</ele>
        <time>2020-06-08T08:37:37Z</time>
      </trkpt>
      <trkpt lat="48.05773" lon="-3.77526">
        <ele>236.9</ele>
        <time>2020-06-08T08:37:38Z</time>
      </trkpt>
      <trkpt lat="48.05776" lon="-3.77531">
        <ele>237</ele>
        <time>2020-06-08T08:37:39Z</time>
      </trkpt>
      <trkpt lat="48.05778" lon="-3.77535">
        <ele>237.1</ele>
        <time>2020-06-08T08:37:40Z</time>
      </trkpt>
      <trkpt lat="48.0578" lon="-3.7754">
        <ele>237.2</ele>
        <time>2020-06-08T08:37:41Z</time>
      </trkpt>
      <trkpt lat="48.05782" lon="-3.77545">
        <ele>237.3</ele>
        <time>2020-06-08T08:37:42Z</time>
      </trkpt>
      <trkpt lat="48.05784" lon="-3.7755">
        <ele>237.3</ele>
        <time>2020-06-08T08:37:43Z</time>
      </trkpt>
      <trkpt lat="48.05786" lon="-3.77556">
        <ele>237.4</ele>
        <time>2020-06-08T08:37:44Z</time>
      </trkpt>
      <trkpt lat="48.05789" lon="-3.7756">
        <ele>237.4</ele>
        <time>2020-06-08T08:37:45Z</time>
      </trkpt>
      <trkpt lat="48.05791" lon="-3.77566">
        <ele>237.4</ele>
        <time>2020-06-08T08:37:46Z</time>
      </trkpt>
      <trkpt lat="48.05794" lon="-3.77574">
        <ele>237.3</ele>
        <time>2020-06-08T08:37:47Z</time>
      </trkpt>
      <trkpt lat="48.05797" lon="-3.7758">
        <ele>237.3</ele>
        <time>2020-06-08T08:37:48Z</time>
      </trkpt>
      <trkpt lat="48.058" lon="-3.77585">
        <ele>237.3</ele>
        <time>2020-06-08T08:37:49Z</time>
      </trkpt>
      <trkpt lat="48.05802" lon="-3.77591">
        <ele>237.2</ele>
        <time>2020-06-08T08:37:50Z</time>
      </trkpt>
      <trkpt lat="48.05804" lon="-3.77596">
        <ele>237.2</ele>
        <time>2020-06-08T08:37:51Z</time>
      </trkpt>
      <trkpt lat="48.05806" lon="-3.77605">
        <ele>237.1</ele>
        <time>2020-06-08T08:37:52Z</time>
      </trkpt>
      <trkpt lat="48.05808" lon="-3.77608">
        <ele>237</ele>
        <time>2020-06-08T08:37:53Z</time>
      </trkpt>
      <trkpt lat="48.0581" lon="-3.77613">
        <ele>236.9</ele>
        <time>2020-06-08T08:37:54Z</time>
      </trkpt>
      <trkpt lat="48.05813" lon="-3.77619">
        <ele>236.7</ele>
        <time>2020-06-08T08:37:55Z</time>
      </trkpt>
      <trkpt lat="48.05816" lon="-3.77626">
        <ele>236.6</ele>
        <time>2020-06-08T08:37:56Z</time>
      </trkpt>
      <trkpt lat="48.05819" lon="-3.77633">
        <ele>236.3</ele>
        <time>2020-06-08T08:37:57Z</time>
      </trkpt>
      <trkpt lat="48.05824" lon="-3.77641">
        <ele>236.1</ele>
        <time>2020-06-08T08:37:58Z</time>
      </trkpt>
      <trkpt lat="48.05827" lon="-3.77649">
        <ele>235.8</ele>
        <time>2020-06-08T08:37:59Z</time>
      </trkpt>
      <trkpt lat="48.0583" lon="-3.77657">
        <ele>235.7</ele>
        <time>2020-06-08T08:38:00Z</time>
      </trkpt>
      <trkpt lat="48.05833" lon="-3.77664">
        <ele>235.5</ele>
        <time>2020-06-08T08:38:01Z</time>
      </trkpt>
      <trkpt lat="48.05835" lon="-3.77671">
        <ele>235.3</ele>
        <time>2020-06-08T08:38:02Z</time>
      </trkpt>
      <trkpt lat="48.05838" lon="-3.7768">
        <ele>235.2</ele>
        <time>2020-06-08T08:38:03Z</time>
      </trkpt>
      <trkpt lat="48.05841" lon="-3.77689">
        <ele>235</ele>
        <time>2020-06-08T08:38:04Z</time>
      </trkpt>
      <trkpt lat="48.05843" lon="-3.77698">
        <ele>234.9</ele>
        <time>2020-06-08T08:38:05Z</time>
      </trkpt>
      <trkpt lat="48.05845" lon="-3.77704">
        <ele>234.8</ele>
        <time>2020-06-08T08:38:06Z</time>
      </trkpt>
      <trkpt lat="48.05848" lon="-3.77711">
        <ele>234.7</ele>
        <time>2020-06-08T08:38:07Z</time>
      </trkpt>
      <trkpt lat="48.05851" lon="-3.77718">
        <ele>234.6</ele>
        <time>2020-06-08T08:38:08Z</time>
      </trkpt>
      <trkpt lat="48.05855" lon="-3.77727">
        <ele>234.6</ele>
        <time>2020-06-08T08:38:09Z</time>
      </trkpt>
      <trkpt lat="48.05858" lon="-3.77737">
        <ele>234.6</ele>
        <time>2020-06-08T08:38:10Z</time>
      </trkpt>
      <trkpt lat="48.05861" lon="-3.77746">
        <ele>234.6</ele>
        <time>2020-06-08T08:38:11Z</time>
      </trkpt>
      <trkpt lat="48.05864" lon="-3.77753">
        <ele>234.6</ele>
        <time>2020-06-08T08:38:12Z</time>
      </trkpt>
      <trkpt lat="48.05866" lon="-3.77759">
        <ele>234.5</ele>
        <time>2020-06-08T08:38:13Z</time>
      </trkpt>
      <trkpt lat="48.05869" lon="-3.77766">
        <ele>234.4</ele>
        <time>2020-06-08T08:38:14Z</time>
      </trkpt>
      <trkpt lat="48.05871" lon="-3.77773">
        <ele>234.4</ele>
        <time>2020-06-08T08:38:15Z</time>
      </trkpt>
      <trkpt lat="48.05874" lon="-3.7778">
        <ele>234.3</ele>
        <time>2020-06-08T08:38:16Z</time>
      </trkpt>
      <trkpt lat="48.05876" lon="-3.77786">
        <ele>234.3</ele>
        <time>2020-06-08T08:38:17Z</time>
      </trkpt>
      <trkpt lat="48.0588" lon="-3.77794">
        <ele>234.2</ele>
        <time>2020-06-08T08:38:18Z</time>
      </trkpt>
      <trkpt lat="48.05883" lon="-3.77801">
        <ele>234.2</ele>
        <time>2020-06-08T08:38:19Z</time>
      </trkpt>
      <trkpt lat="48.05887" lon="-3.77809">
        <ele>234.2</ele>
        <time>2020-06-08T08:38:20Z</time>
      </trkpt>
      <trkpt lat="48.05891" lon="-3.77817">
        <ele>234.3</ele>
        <time>2020-06-08T08:38:21Z</time>
      </trkpt>
      <trkpt lat="48.05894" lon="-3.77825">
        <ele>234.3</ele>
        <time>2020-06-08T08:38:22Z</time>
      </trkpt>
      <trkpt lat="48.05899" lon="-3.77832">
        <ele>234.4</ele>
        <time>2020-06-08T08:38:23Z</time>
      </trkpt>
      <trkpt lat="48.05903" lon="-3.7784">
        <ele>234.4</ele>
        <time>2020-06-08T08:38:24Z</time>
      </trkpt>
      <trkpt lat="48.05907" lon="-3.77845">
        <ele>234.5</ele>
        <time>2020-06-08T08:38:25Z</time>
      </trkpt>
      <trkpt lat="48.0591" lon="-3.7785">
        <ele>234.5</ele>
        <time>2020-06-08T08:38:26Z</time>
      </trkpt>
      <trkpt lat="48.05914" lon="-3.77854">
        <ele>234.6</ele>
        <time>2020-06-08T08:38:27Z</time>
      </trkpt>
      <trkpt lat="48.05918" lon="-3.77859">
        <ele>234.7</ele>
        <time>2020-06-08T08:38:28Z</time>
      </trkpt>
      <trkpt lat="48.05922" lon="-3.77863">
        <ele>234.7</ele>
        <time>2020-06-08T08:38:29Z</time>
      </trkpt>
      <trkpt lat="48.05927" lon="-3.77867">
        <ele>234.8</ele>
        <time>2020-06-08T08:38:30Z</time>
      </trkpt>
      <trkpt lat="48.05932" lon="-3.7787">
        <ele>234.9</ele>
        <time>2020-06-08T08:38:31Z</time>
      </trkpt>
      <trkpt lat="48.05936" lon="-3.77873">
        <ele>234.9</ele>
        <time>2020-06-08T08:38:32Z</time>
      </trkpt>
      <trkpt lat="48.05941" lon="-3.77875">
        <ele>235</ele>
        <time>2020-06-08T08:38:33Z</time>
      </trkpt>
      <trkpt lat="48.05946" lon="-3.77877">
        <ele>235</ele>
        <time>2020-06-08T08:38:34Z</time>
      </trkpt>
      <trkpt lat="48.0595" lon="-3.77879">
        <ele>235</ele>
        <time>2020-06-08T08:38:35Z</time>
      </trkpt>
      <trkpt lat="48.05955" lon="-3.77879">
        <ele>235.1</ele>
        <time>2020-06-08T08:38:36Z</time>
      </trkpt>
      <trkpt lat="48.0596" lon="-3.77879">
        <ele>235.1</ele>
        <time>2020-06-08T08:38:37Z</time>
      </trkpt>
      <trkpt lat="48.05964" lon="-3.77881">
        <ele>235.1</ele>
        <time>2020-06-08T08:38:38Z</time>
      </trkpt>
      <trkpt lat="48.05969" lon="-3.77882">
        <ele>235.1</ele>
        <time>2020-06-08T08:38:39Z</time>
      </trkpt>
      <trkpt lat="48.05975" lon="-3.77882">
        <ele>235.1</ele>
        <time>2020-06-08T08:38:40Z</time>
      </trkpt>
      <trkpt lat="48.0598" lon="-3.77884">
        <ele>235.1</ele>
        <time>2020-06-08T08:38:41Z</time>
      </trkpt>
      <trkpt lat="48.05987" lon="-3.77885">
        <ele>235</ele>
        <time>2020-06-08T08:38:42Z</time>
      </trkpt>
      <trkpt lat="48.05993" lon="-3.77886">
        <ele>235</ele>
        <time>2020-06-08T08:38:43Z</time>
      </trkpt>
      <trkpt lat="48.05998" lon="-3.77887">
        <ele>235</ele>
        <time>2020-06-08T08:38:44Z</time>
      </trkpt>
      <trkpt lat="48.06003" lon="-3.77886">
        <ele>235</ele>
        <time>2020-06-08T08:38:45Z</time>
      </trkpt>
      <trkpt lat="48.06008" lon="-3.77887">
        <ele>235</ele>
        <time>2020-06-08T08:38:46Z</time>
      </trkpt>
      <trkpt lat="48.06014" lon="-3.77887">
        <ele>234.9</ele>
        <time>2020-06-08T08:38:47Z</time>
      </trkpt>
      <trkpt lat="48.0602" lon="-3.77888">
        <ele>234.9</ele>
        <time>2020-06-08T08:38:48Z</time>
      </trkpt>
      <trkpt lat="48.06025" lon="-3.77889">
        <ele>234.9</ele>
        <time>2020-06-08T08:38:49Z</time>
      </trkpt>
      <trkpt lat="48.06031" lon="-3.77889">
        <ele>234.9</ele>
        <time>2020-06-08T08:38:50Z</time>
      </trkpt>
      <trkpt lat="48.06037" lon="-3.7789">
        <ele>234.9</ele>
        <time>2020-06-08T08:38:51Z</time>
      </trkpt>
      <trkpt lat="48.06044" lon="-3.7789">
        <ele>234.9</ele>
        <time>2020-06-08T08:38:52Z</time>
      </trkpt>
      <trkpt lat="48.06049" lon="-3.7789">
        <ele>234.8</ele>
        <time>2020-06-08T08:38:53Z</time>
      </trkpt>
      <trkpt lat="48.06055" lon="-3.77889">
        <ele>234.8</ele>
        <time>2020-06-08T08:38:54Z</time>
      </trkpt>
      <trkpt lat="48.0606" lon="-3.77889">
        <ele>234.8</ele>
        <time>2020-06-08T08:38:55Z</time>
      </trkpt>
      <trkpt lat="48.06065" lon="-3.77889">
        <ele>234.7</ele>
        <time>2020-06-08T08:38:56Z</time>
      </trkpt>
      <trkpt lat="48.06069" lon="-3.77889">
        <ele>234.7</ele>
        <time>2020-06-08T08:38:57Z</time>
      </trkpt>
      <trkpt lat="48.06075" lon="-3.77889">
        <ele>234.7</ele>
        <time>2020-06-08T08:38:58Z</time>
      </trkpt>
      <trkpt lat="48.06081" lon="-3.77889">
        <ele>234.6</ele>
        <time>2020-06-08T08:38:59Z</time>
      </trkpt>
      <trkpt lat="48.06086" lon="-3.77889">
        <ele>234.5</ele>
        <time>2020-06-08T08:39:00Z</time>
      </trkpt>
      <trkpt lat="48.0609" lon="-3.77888">
        <ele>234.4</ele>
        <time>2020-06-08T08:39:01Z</time>
      </trkpt>
      <trkpt lat="48.06094" lon="-3.77887">
        <ele>234.3</ele>
        <time>2020-06-08T08:39:02Z</time>
      </trkpt>
      <trkpt lat="48.06098" lon="-3.77887">
        <ele>234.2</ele>
        <time>2020-06-08T08:39:03Z</time>
      </trkpt>
      <trkpt lat="48.06103" lon="-3.77887">
        <ele>234.1</ele>
        <time>2020-06-08T08:39:04Z</time>
      </trkpt>
      <trkpt lat="48.06107" lon="-3.77887">
        <ele>234.1</ele>
        <time>2020-06-08T08:39:05Z</time>
      </trkpt>
      <trkpt lat="48.06113" lon="-3.77886">
        <ele>234</ele>
        <time>2020-06-08T08:39:06Z</time>
      </trkpt>
      <trkpt lat="48.06119" lon="-3.77884">
        <ele>233.9</ele>
        <time>2020-06-08T08:39:07Z</time>
      </trkpt>
      <trkpt lat="48.06123" lon="-3.77884">
        <ele>233.8</ele>
        <time>2020-06-08T08:39:08Z</time>
      </trkpt>
      <trkpt lat="48.06128" lon="-3.77884">
        <ele>233.8</ele>
        <time>2020-06-08T08:39:09Z</time>
      </trkpt>
      <trkpt lat="48.06134" lon="-3.77884">
        <ele>233.8</ele>
        <time>2020-06-08T08:39:10Z</time>
      </trkpt>
      <trkpt lat="48.06139" lon="-3.77884">
        <ele>233.8</ele>
        <time>2020-06-08T08:39:11Z</time>
      </trkpt>
      <trkpt lat="48.06146" lon="-3.77884">
        <ele>233.7</ele>
        <time>2020-06-08T08:39:12Z</time>
      </trkpt>
      <trkpt lat="48.06152" lon="-3.77884">
        <ele>233.5</ele>
        <time>2020-06-08T08:39:13Z</time>
      </trkpt>
      <trkpt lat="48.06158" lon="-3.77885">
        <ele>233.4</ele>
        <time>2020-06-08T08:39:14Z</time>
      </trkpt>
      <trkpt lat="48.06164" lon="-3.77886">
        <ele>233.2</ele>
        <time>2020-06-08T08:39:15Z</time>
      </trkpt>
      <trkpt lat="48.0617" lon="-3.77887">
        <ele>233.1</ele>
        <time>2020-06-08T08:39:16Z</time>
      </trkpt>
      <trkpt lat="48.06176" lon="-3.77889">
        <ele>233</ele>
        <time>2020-06-08T08:39:17Z</time>
      </trkpt>
      <trkpt lat="48.06182" lon="-3.77894">
        <ele>232.9</ele>
        <time>2020-06-08T08:39:18Z</time>
      </trkpt>
      <trkpt lat="48.06187" lon="-3.77897">
        <ele>232.8</ele>
        <time>2020-06-08T08:39:19Z</time>
      </trkpt>
      <trkpt lat="48.06191" lon="-3.779">
        <ele>232.8</ele>
        <time>2020-06-08T08:39:20Z</time>
      </trkpt>
      <trkpt lat="48.06196" lon="-3.77903">
        <ele>232.8</ele>
        <time>2020-06-08T08:39:21Z</time>
      </trkpt>
      <trkpt lat="48.06201" lon="-3.77906">
        <ele>232.7</ele>
        <time>2020-06-08T08:39:22Z</time>
      </trkpt>
      <trkpt lat="48.06207" lon="-3.7791">
        <ele>232.7</ele>
        <time>2020-06-08T08:39:23Z</time>
      </trkpt>
      <trkpt lat="48.06213" lon="-3.77914">
        <ele>232.6</ele>
        <time>2020-06-08T08:39:24Z</time>
      </trkpt>
      <trkpt lat="48.06219" lon="-3.77918">
        <ele>232.5</ele>
        <time>2020-06-08T08:39:25Z</time>
      </trkpt>
      <trkpt lat="48.06223" lon="-3.77921">
        <ele>232.5</ele>
        <time>2020-06-08T08:39:26Z</time>
      </trkpt>
      <trkpt lat="48.06228" lon="-3.77925">
        <ele>232.4</ele>
        <time>2020-06-08T08:39:27Z</time>
      </trkpt>
      <trkpt lat="48.06233" lon="-3.77929">
        <ele>232.4</ele>
        <time>2020-06-08T08:39:28Z</time>
      </trkpt>
      <trkpt lat="48.06237" lon="-3.77932">
        <ele>232.3</ele>
        <time>2020-06-08T08:39:29Z</time>
      </trkpt>
      <trkpt lat="48.06241" lon="-3.77935">
        <ele>232.3</ele>
        <time>2020-06-08T08:39:30Z</time>
      </trkpt>
      <trkpt lat="48.06246" lon="-3.77938">
        <ele>232.3</ele>
        <time>2020-06-08T08:39:31Z</time>
      </trkpt>
      <trkpt lat="48.06251" lon="-3.77942">
        <ele>232.2</ele>
        <time>2020-06-08T08:39:32Z</time>
      </trkpt>
      <trkpt lat="48.06255" lon="-3.77945">
        <ele>232.2</ele>
        <time>2020-06-08T08:39:33Z</time>
      </trkpt>
      <trkpt lat="48.06259" lon="-3.77948">
        <ele>232.2</ele>
        <time>2020-06-08T08:39:34Z</time>
      </trkpt>
      <trkpt lat="48.06264" lon="-3.7795">
        <ele>232.1</ele>
        <time>2020-06-08T08:39:35Z</time>
      </trkpt>
      <trkpt lat="48.06268" lon="-3.77952">
        <ele>232.1</ele>
        <time>2020-06-08T08:39:36Z</time>
      </trkpt>
      <trkpt lat="48.06273" lon="-3.77954">
        <ele>232</ele>
        <time>2020-06-08T08:39:37Z</time>
      </trkpt>
      <trkpt lat="48.06278" lon="-3.77956">
        <ele>232</ele>
        <time>2020-06-08T08:39:38Z</time>
      </trkpt>
      <trkpt lat="48.06282" lon="-3.77959">
        <ele>231.9</ele>
        <time>2020-06-08T08:39:39Z</time>
      </trkpt>
      <trkpt lat="48.06286" lon="-3.77962">
        <ele>231.9</ele>
        <time>2020-06-08T08:39:40Z</time>
      </trkpt>
      <trkpt lat="48.0629" lon="-3.77964">
        <ele>231.8</ele>
        <time>2020-06-08T08:39:41Z</time>
      </trkpt>
      <trkpt lat="48.06294" lon="-3.77967">
        <ele>231.8</ele>
        <time>2020-06-08T08:39:42Z</time>
      </trkpt>
      <trkpt lat="48.06298" lon="-3.77968">
        <ele>231.7</ele>
        <time>2020-06-08T08:39:43Z</time>
      </trkpt>
      <trkpt lat="48.06301" lon="-3.77969">
        <ele>231.7</ele>
        <time>2020-06-08T08:39:44Z</time>
      </trkpt>
      <trkpt lat="48.06306" lon="-3.77972">
        <ele>231.6</ele>
        <time>2020-06-08T08:39:45Z</time>
      </trkpt>
      <trkpt lat="48.06311" lon="-3.77975">
        <ele>231.5</ele>
        <time>2020-06-08T08:39:46Z</time>
      </trkpt>
      <trkpt lat="48.06316" lon="-3.77978">
        <ele>231.5</ele>
        <time>2020-06-08T08:39:47Z</time>
      </trkpt>
      <trkpt lat="48.06321" lon="-3.77981">
        <ele>231.4</ele>
        <time>2020-06-08T08:39:48Z</time>
      </trkpt>
      <trkpt lat="48.06325" lon="-3.77984">
        <ele>231.3</ele>
        <time>2020-06-08T08:39:49Z</time>
      </trkpt>
      <trkpt lat="48.06329" lon="-3.77986">
        <ele>231.3</ele>
        <time>2020-06-08T08:39:50Z</time>
      </trkpt>
      <trkpt lat="48.06334" lon="-3.77989">
        <ele>231.2</ele>
        <time>2020-06-08T08:39:51Z</time>
      </trkpt>
      <trkpt lat="48.06339" lon="-3.77991">
        <ele>231.1</ele>
        <time>2020-06-08T08:39:52Z</time>
      </trkpt>
      <trkpt lat="48.06343" lon="-3.77995">
        <ele>231.1</ele>
        <time>2020-06-08T08:39:53Z</time>
      </trkpt>
      <trkpt lat="48.06347" lon="-3.77998">
        <ele>231</ele>
        <time>2020-06-08T08:39:54Z</time>
      </trkpt>
      <trkpt lat="48.06353" lon="-3.78003">
        <ele>231</ele>
        <time>2020-06-08T08:39:55Z</time>
      </trkpt>
      <trkpt lat="48.06358" lon="-3.78007">
        <ele>230.9</ele>
        <time>2020-06-08T08:39:56Z</time>
      </trkpt>
      <trkpt lat="48.06362" lon="-3.7801">
        <ele>230.8</ele>
        <time>2020-06-08T08:39:57Z</time>
      </trkpt>
      <trkpt lat="48.06366" lon="-3.78013">
        <ele>230.8</ele>
        <time>2020-06-08T08:39:58Z</time>
      </trkpt>
      <trkpt lat="48.06371" lon="-3.78015">
        <ele>230.7</ele>
        <time>2020-06-08T08:39:59Z</time>
      </trkpt>
      <trkpt lat="48.06378" lon="-3.78019">
        <ele>230.6</ele>
        <time>2020-06-08T08:40:00Z</time>
      </trkpt>
      <trkpt lat="48.06384" lon="-3.78023">
        <ele>230.4</ele>
        <time>2020-06-08T08:40:01Z</time>
      </trkpt>
      <trkpt lat="48.06389" lon="-3.78026">
        <ele>230.3</ele>
        <time>2020-06-08T08:40:02Z</time>
      </trkpt>
      <trkpt lat="48.06395" lon="-3.78029">
        <ele>230.1</ele>
        <time>2020-06-08T08:40:03Z</time>
      </trkpt>
      <trkpt lat="48.06399" lon="-3.78031">
        <ele>230.1</ele>
        <time>2020-06-08T08:40:04Z</time>
      </trkpt>
      <trkpt lat="48.06402" lon="-3.78033">
        <ele>230</ele>
        <time>2020-06-08T08:40:05Z</time>
      </trkpt>
      <trkpt lat="48.06405" lon="-3.78035">
        <ele>230</ele>
        <time>2020-06-08T08:40:06Z</time>
      </trkpt>
      <trkpt lat="48.06409" lon="-3.78038">
        <ele>230</ele>
        <time>2020-06-08T08:40:07Z</time>
      </trkpt>
      <trkpt lat="48.06414" lon="-3.78041">
        <ele>229.9</ele>
        <time>2020-06-08T08:40:08Z</time>
      </trkpt>
      <trkpt lat="48.06419" lon="-3.78044">
        <ele>229.9</ele>
        <time>2020-06-08T08:40:09Z</time>
      </trkpt>
      <trkpt lat="48.06423" lon="-3.78047">
        <ele>229.9</ele>
        <time>2020-06-08T08:40:10Z</time>
      </trkpt>
      <trkpt lat="48.06428" lon="-3.7805">
        <ele>229.9</ele>
        <time>2020-06-08T08:40:11Z</time>
      </trkpt>
      <trkpt lat="48.06433" lon="-3.78054">
        <ele>229.9</ele>
        <time>2020-06-08T08:40:12Z</time>
      </trkpt>
      <trkpt lat="48.06437" lon="-3.78057">
        <ele>229.8</ele>
        <time>2020-06-08T08:40:13Z</time>
      </trkpt>
      <trkpt lat="48.06442" lon="-3.7806">
        <ele>229.8</ele>
        <time>2020-06-08T08:40:14Z</time>
      </trkpt>
      <trkpt lat="48.06447" lon="-3.78063">
        <ele>229.7</ele>
        <time>2020-06-08T08:40:15Z</time>
      </trkpt>
      <trkpt lat="48.06452" lon="-3.78067">
        <ele>229.7</ele>
        <time>2020-06-08T08:40:16Z</time>
      </trkpt>
      <trkpt lat="48.06457" lon="-3.78071">
        <ele>229.7</ele>
        <time>2020-06-08T08:40:17Z</time>
      </trkpt>
      <trkpt lat="48.06462" lon="-3.78074">
        <ele>229.7</ele>
        <time>2020-06-08T08:40:18Z</time>
      </trkpt>
      <trkpt lat="48.06468" lon="-3.78078">
        <ele>229.7</ele>
        <time>2020-06-08T08:40:19Z</time>
      </trkpt>
      <trkpt lat="48.06473" lon="-3.78082">
        <ele>229.7</ele>
        <time>2020-06-08T08:40:20Z</time>
      </trkpt>
      <trkpt lat="48.06479" lon="-3.78085">
        <ele>229.8</ele>
        <time>2020-06-08T08:40:21Z</time>
      </trkpt>
      <trkpt lat="48.06484" lon="-3.78089">
        <ele>229.8</ele>
        <time>2020-06-08T08:40:22Z</time>
      </trkpt>
      <trkpt lat="48.06489" lon="-3.78093">
        <ele>229.8</ele>
        <time>2020-06-08T08:40:23Z</time>
      </trkpt>
      <trkpt lat="48.06493" lon="-3.78096">
        <ele>229.8</ele>
        <time>2020-06-08T08:40:24Z</time>
      </trkpt>
      <trkpt lat="48.06498" lon="-3.781">
        <ele>229.8</ele>
        <time>2020-06-08T08:40:25Z</time>
      </trkpt>
      <trkpt lat="48.06503" lon="-3.78104">
        <ele>229.7</ele>
        <time>2020-06-08T08:40:26Z</time>
      </trkpt>
      <trkpt lat="48.06508" lon="-3.78107">
        <ele>229.7</ele>
        <time>2020-06-08T08:40:27Z</time>
      </trkpt>
      <trkpt lat="48.06513" lon="-3.78111">
        <ele>229.7</ele>
        <time>2020-06-08T08:40:28Z</time>
      </trkpt>
      <trkpt lat="48.06517" lon="-3.78115">
        <ele>229.7</ele>
        <time>2020-06-08T08:40:29Z</time>
      </trkpt>
      <trkpt lat="48.06522" lon="-3.78118">
        <ele>229.7</ele>
        <time>2020-06-08T08:40:30Z</time>
      </trkpt>
      <trkpt lat="48.06527" lon="-3.78121">
        <ele>229.6</ele>
        <time>2020-06-08T08:40:31Z</time>
      </trkpt>
      <trkpt lat="48.06532" lon="-3.78124">
        <ele>229.6</ele>
        <time>2020-06-08T08:40:32Z</time>
      </trkpt>
      <trkpt lat="48.06538" lon="-3.78126">
        <ele>229.5</ele>
        <time>2020-06-08T08:40:33Z</time>
      </trkpt>
      <trkpt lat="48.06543" lon="-3.78129">
        <ele>229.4</ele>
        <time>2020-06-08T08:40:34Z</time>
      </trkpt>
      <trkpt lat="48.06548" lon="-3.78131">
        <ele>229.4</ele>
        <time>2020-06-08T08:40:35Z</time>
      </trkpt>
      <trkpt lat="48.06553" lon="-3.78133">
        <ele>229.4</ele>
        <time>2020-06-08T08:40:36Z</time>
      </trkpt>
      <trkpt lat="48.06558" lon="-3.78135">
        <ele>229.4</ele>
        <time>2020-06-08T08:40:37Z</time>
      </trkpt>
      <trkpt lat="48.06563" lon="-3.78138">
        <ele>229.4</ele>
        <time>2020-06-08T08:40:38Z</time>
      </trkpt>
      <trkpt lat="48.06567" lon="-3.78142">
        <ele>229.4</ele>
        <time>2020-06-08T08:40:39Z</time>
      </trkpt>
      <trkpt lat="48.06571" lon="-3.78145">
        <ele>229.5</ele>
        <time>2020-06-08T08:40:40Z</time>
      </trkpt>
      <trkpt lat="48.06576" lon="-3.78147">
        <ele>229.5</ele>
        <time>2020-06-08T08:40:41Z</time>
      </trkpt>
      <trkpt lat="48.0658" lon="-3.78149">
        <ele>229.6</ele>
        <time>2020-06-08T08:40:42Z</time>
      </trkpt>
      <trkpt lat="48.06585" lon="-3.78152">
        <ele>229.6</ele>
        <time>2020-06-08T08:40:43Z</time>
      </trkpt>
      <trkpt lat="48.06589" lon="-3.78155">
        <ele>229.5</ele>
        <time>2020-06-08T08:40:44Z</time>
      </trkpt>
      <trkpt lat="48.06594" lon="-3.78159">
        <ele>229.4</ele>
        <time>2020-06-08T08:40:45Z</time>
      </trkpt>
      <trkpt lat="48.06599" lon="-3.78162">
        <ele>229.4</ele>
        <time>2020-06-08T08:40:46Z</time>
      </trkpt>
      <trkpt lat="48.06604" lon="-3.78165">
        <ele>229.3</ele>
        <time>2020-06-08T08:40:47Z</time>
      </trkpt>
      <trkpt lat="48.06608" lon="-3.78169">
        <ele>229.2</ele>
        <time>2020-06-08T08:40:48Z</time>
      </trkpt>
      <trkpt lat="48.06613" lon="-3.78173">
        <ele>229.2</ele>
        <time>2020-06-08T08:40:49Z</time>
      </trkpt>
      <trkpt lat="48.06618" lon="-3.78176">
        <ele>229.1</ele>
        <time>2020-06-08T08:40:50Z</time>
      </trkpt>
      <trkpt lat="48.06623" lon="-3.78178">
        <ele>229.1</ele>
        <time>2020-06-08T08:40:51Z</time>
      </trkpt>
      <trkpt lat="48.06627" lon="-3.7818">
        <ele>229.1</ele>
        <time>2020-06-08T08:40:52Z</time>
      </trkpt>
      <trkpt lat="48.06631" lon="-3.78182">
        <ele>229</ele>
        <time>2020-06-08T08:40:53Z</time>
      </trkpt>
      <trkpt lat="48.06636" lon="-3.78185">
        <ele>229</ele>
        <time>2020-06-08T08:40:54Z</time>
      </trkpt>
      <trkpt lat="48.0664" lon="-3.78188">
        <ele>229</ele>
        <time>2020-06-08T08:40:55Z</time>
      </trkpt>
      <trkpt lat="48.06645" lon="-3.7819">
        <ele>228.9</ele>
        <time>2020-06-08T08:40:56Z</time>
      </trkpt>
      <trkpt lat="48.06649" lon="-3.78192">
        <ele>228.9</ele>
        <time>2020-06-08T08:40:57Z</time>
      </trkpt>
      <trkpt lat="48.06654" lon="-3.78195">
        <ele>228.8</ele>
        <time>2020-06-08T08:40:58Z</time>
      </trkpt>
      <trkpt lat="48.06658" lon="-3.78197">
        <ele>228.8</ele>
        <time>2020-06-08T08:40:59Z</time>
      </trkpt>
      <trkpt lat="48.06663" lon="-3.78199">
        <ele>228.7</ele>
        <time>2020-06-08T08:41:00Z</time>
      </trkpt>
      <trkpt lat="48.06668" lon="-3.78202">
        <ele>228.7</ele>
        <time>2020-06-08T08:41:01Z</time>
      </trkpt>
      <trkpt lat="48.06672" lon="-3.78205">
        <ele>228.6</ele>
        <time>2020-06-08T08:41:02Z</time>
      </trkpt>
      <trkpt lat="48.06677" lon="-3.78209">
        <ele>228.6</ele>
        <time>2020-06-08T08:41:03Z</time>
      </trkpt>
      <trkpt lat="48.06682" lon="-3.78213">
        <ele>228.5</ele>
        <time>2020-06-08T08:41:04Z</time>
      </trkpt>
      <trkpt lat="48.06686" lon="-3.78217">
        <ele>228.5</ele>
        <time>2020-06-08T08:41:05Z</time>
      </trkpt>
      <trkpt lat="48.06691" lon="-3.7822">
        <ele>228.5</ele>
        <time>2020-06-08T08:41:06Z</time>
      </trkpt>
      <trkpt lat="48.06695" lon="-3.78223">
        <ele>228.5</ele>
        <time>2020-06-08T08:41:07Z</time>
      </trkpt>
      <trkpt lat="48.067" lon="-3.78225">
        <ele>228.5</ele>
        <time>2020-06-08T08:41:08Z</time>
      </trkpt>
      <trkpt lat="48.06704" lon="-3.78227">
        <ele>228.4</ele>
        <time>2020-06-08T08:41:09Z</time>
      </trkpt>
      <trkpt lat="48.06709" lon="-3.78231">
        <ele>228.4</ele>
        <time>2020-06-08T08:41:10Z</time>
      </trkpt>
      <trkpt lat="48.06714" lon="-3.78235">
        <ele>228.3</ele>
        <time>2020-06-08T08:41:11Z</time>
      </trkpt>
      <trkpt lat="48.06717" lon="-3.78237">
        <ele>228.3</ele>
        <time>2020-06-08T08:41:12Z</time>
      </trkpt>
      <trkpt lat="48.06722" lon="-3.78239">
        <ele>228.2</ele>
        <time>2020-06-08T08:41:13Z</time>
      </trkpt>
      <trkpt lat="48.06726" lon="-3.78242">
        <ele>228.2</ele>
        <time>2020-06-08T08:41:14Z</time>
      </trkpt>
      <trkpt lat="48.0673" lon="-3.78244">
        <ele>228.1</ele>
        <time>2020-06-08T08:41:15Z</time>
      </trkpt>
      <trkpt lat="48.06734" lon="-3.78246">
        <ele>228.1</ele>
        <time>2020-06-08T08:41:16Z</time>
      </trkpt>
      <trkpt lat="48.06739" lon="-3.7825">
        <ele>228.1</ele>
        <time>2020-06-08T08:41:17Z</time>
      </trkpt>
      <trkpt lat="48.06745" lon="-3.78253">
        <ele>228</ele>
        <time>2020-06-08T08:41:18Z</time>
      </trkpt>
      <trkpt lat="48.0675" lon="-3.78257">
        <ele>228</ele>
        <time>2020-06-08T08:41:19Z</time>
      </trkpt>
      <trkpt lat="48.06754" lon="-3.7826">
        <ele>227.9</ele>
        <time>2020-06-08T08:41:20Z</time>
      </trkpt>
      <trkpt lat="48.06758" lon="-3.78263">
        <ele>227.8</ele>
        <time>2020-06-08T08:41:21Z</time>
      </trkpt>
      <trkpt lat="48.06763" lon="-3.78267">
        <ele>227.7</ele>
        <time>2020-06-08T08:41:22Z</time>
      </trkpt>
      <trkpt lat="48.06768" lon="-3.78269">
        <ele>227.6</ele>
        <time>2020-06-08T08:41:23Z</time>
      </trkpt>
      <trkpt lat="48.06772" lon="-3.78272">
        <ele>227.5</ele>
        <time>2020-06-08T08:41:24Z</time>
      </trkpt>
      <trkpt lat="48.06776" lon="-3.78276">
        <ele>227.4</ele>
        <time>2020-06-08T08:41:25Z</time>
      </trkpt>
      <trkpt lat="48.06781" lon="-3.7828">
        <ele>227.3</ele>
        <time>2020-06-08T08:41:26Z</time>
      </trkpt>
      <trkpt lat="48.06786" lon="-3.78283">
        <ele>227.2</ele>
        <time>2020-06-08T08:41:27Z</time>
      </trkpt>
      <trkpt lat="48.06791" lon="-3.78286">
        <ele>227.1</ele>
        <time>2020-06-08T08:41:28Z</time>
      </trkpt>
      <trkpt lat="48.06796" lon="-3.78289">
        <ele>227</ele>
        <time>2020-06-08T08:41:29Z</time>
      </trkpt>
      <trkpt lat="48.06802" lon="-3.78291">
        <ele>227</ele>
        <time>2020-06-08T08:41:30Z</time>
      </trkpt>
      <trkpt lat="48.06808" lon="-3.78294">
        <ele>226.9</ele>
        <time>2020-06-08T08:41:31Z</time>
      </trkpt>
      <trkpt lat="48.06813" lon="-3.78295">
        <ele>226.8</ele>
        <time>2020-06-08T08:41:32Z</time>
      </trkpt>
      <trkpt lat="48.06818" lon="-3.78299">
        <ele>226.8</ele>
        <time>2020-06-08T08:41:33Z</time>
      </trkpt>
      <trkpt lat="48.06823" lon="-3.78301">
        <ele>226.7</ele>
        <time>2020-06-08T08:41:34Z</time>
      </trkpt>
      <trkpt lat="48.06828" lon="-3.78305">
        <ele>226.7</ele>
        <time>2020-06-08T08:41:35Z</time>
      </trkpt>
      <trkpt lat="48.06833" lon="-3.78307">
        <ele>226.6</ele>
        <time>2020-06-08T08:41:36Z</time>
      </trkpt>
      <trkpt lat="48.06839" lon="-3.78309">
        <ele>226.5</ele>
        <time>2020-06-08T08:41:37Z</time>
      </trkpt>
      <trkpt lat="48.06844" lon="-3.78312">
        <ele>226.5</ele>
        <time>2020-06-08T08:41:38Z</time>
      </trkpt>
      <trkpt lat="48.06849" lon="-3.78315">
        <ele>226.4</ele>
        <time>2020-06-08T08:41:39Z</time>
      </trkpt>
      <trkpt lat="48.06854" lon="-3.78319">
        <ele>226.4</ele>
        <time>2020-06-08T08:41:40Z</time>
      </trkpt>
      <trkpt lat="48.06859" lon="-3.78324">
        <ele>226.3</ele>
        <time>2020-06-08T08:41:41Z</time>
      </trkpt>
      <trkpt lat="48.06863" lon="-3.78328">
        <ele>226.3</ele>
        <time>2020-06-08T08:41:42Z</time>
      </trkpt>
      <trkpt lat="48.06868" lon="-3.78332">
        <ele>226.2</ele>
        <time>2020-06-08T08:41:43Z</time>
      </trkpt>
      <trkpt lat="48.06873" lon="-3.78335">
        <ele>226.1</ele>
        <time>2020-06-08T08:41:44Z</time>
      </trkpt>
      <trkpt lat="48.06877" lon="-3.78339">
        <ele>226.1</ele>
        <time>2020-06-08T08:41:45Z</time>
      </trkpt>
      <trkpt lat="48.06882" lon="-3.78342">
        <ele>226.1</ele>
        <time>2020-06-08T08:41:46Z</time>
      </trkpt>
      <trkpt lat="48.06887" lon="-3.78345">
        <ele>226.1</ele>
        <time>2020-06-08T08:41:47Z</time>
      </trkpt>
      <trkpt lat="48.06891" lon="-3.78347">
        <ele>226.1</ele>
        <time>2020-06-08T08:41:48Z</time>
      </trkpt>
      <trkpt lat="48.06897" lon="-3.7835">
        <ele>226.2</ele>
        <time>2020-06-08T08:41:49Z</time>
      </trkpt>
      <trkpt lat="48.06902" lon="-3.78353">
        <ele>226.2</ele>
        <time>2020-06-08T08:41:50Z</time>
      </trkpt>
      <trkpt lat="48.06906" lon="-3.78356">
        <ele>226.1</ele>
        <time>2020-06-08T08:41:51Z</time>
      </trkpt>
      <trkpt lat="48.06911" lon="-3.78358">
        <ele>225.9</ele>
        <time>2020-06-08T08:41:52Z</time>
      </trkpt>
      <trkpt lat="48.06915" lon="-3.78361">
        <ele>225.8</ele>
        <time>2020-06-08T08:41:53Z</time>
      </trkpt>
      <trkpt lat="48.0692" lon="-3.78364">
        <ele>225.6</ele>
        <time>2020-06-08T08:41:54Z</time>
      </trkpt>
      <trkpt lat="48.06926" lon="-3.78367">
        <ele>225.5</ele>
        <time>2020-06-08T08:41:55Z</time>
      </trkpt>
      <trkpt lat="48.0693" lon="-3.78372">
        <ele>225.3</ele>
        <time>2020-06-08T08:41:56Z</time>
      </trkpt>
      <trkpt lat="48.06934" lon="-3.78374">
        <ele>225.2</ele>
        <time>2020-06-08T08:41:57Z</time>
      </trkpt>
      <trkpt lat="48.06939" lon="-3.78378">
        <ele>225.1</ele>
        <time>2020-06-08T08:41:58Z</time>
      </trkpt>
      <trkpt lat="48.06944" lon="-3.78381">
        <ele>225</ele>
        <time>2020-06-08T08:41:59Z</time>
      </trkpt>
      <trkpt lat="48.0695" lon="-3.78384">
        <ele>224.9</ele>
        <time>2020-06-08T08:42:00Z</time>
      </trkpt>
      <trkpt lat="48.06955" lon="-3.78387">
        <ele>224.8</ele>
        <time>2020-06-08T08:42:01Z</time>
      </trkpt>
      <trkpt lat="48.06961" lon="-3.78391">
        <ele>224.8</ele>
        <time>2020-06-08T08:42:02Z</time>
      </trkpt>
      <trkpt lat="48.06966" lon="-3.78394">
        <ele>224.8</ele>
        <time>2020-06-08T08:42:03Z</time>
      </trkpt>
      <trkpt lat="48.0697" lon="-3.78396">
        <ele>224.7</ele>
        <time>2020-06-08T08:42:04Z</time>
      </trkpt>
      <trkpt lat="48.06975" lon="-3.784">
        <ele>224.7</ele>
        <time>2020-06-08T08:42:05Z</time>
      </trkpt>
      <trkpt lat="48.06979" lon="-3.78403">
        <ele>224.6</ele>
        <time>2020-06-08T08:42:06Z</time>
      </trkpt>
      <trkpt lat="48.06983" lon="-3.78405">
        <ele>224.6</ele>
        <time>2020-06-08T08:42:07Z</time>
      </trkpt>
      <trkpt lat="48.06988" lon="-3.78409">
        <ele>224.5</ele>
        <time>2020-06-08T08:42:08Z</time>
      </trkpt>
      <trkpt lat="48.06992" lon="-3.78411">
        <ele>224.5</ele>
        <time>2020-06-08T08:42:09Z</time>
      </trkpt>
      <trkpt lat="48.06996" lon="-3.78414">
        <ele>224.5</ele>
        <time>2020-06-08T08:42:10Z</time>
      </trkpt>
      <trkpt lat="48.07001" lon="-3.78416">
        <ele>224.4</ele>
        <time>2020-06-08T08:42:11Z</time>
      </trkpt>
      <trkpt lat="48.07006" lon="-3.78419">
        <ele>224.4</ele>
        <time>2020-06-08T08:42:12Z</time>
      </trkpt>
      <trkpt lat="48.07011" lon="-3.78422">
        <ele>224.3</ele>
        <time>2020-06-08T08:42:13Z</time>
      </trkpt>
      <trkpt lat="48.07015" lon="-3.78424">
        <ele>224.3</ele>
        <time>2020-06-08T08:42:14Z</time>
      </trkpt>
      <trkpt lat="48.0702" lon="-3.78427">
        <ele>224.2</ele>
        <time>2020-06-08T08:42:15Z</time>
      </trkpt>
      <trkpt lat="48.07025" lon="-3.78429">
        <ele>224.1</ele>
        <time>2020-06-08T08:42:16Z</time>
      </trkpt>
      <trkpt lat="48.07029" lon="-3.78432">
        <ele>224.1</ele>
        <time>2020-06-08T08:42:17Z</time>
      </trkpt>
      <trkpt lat="48.07034" lon="-3.78436">
        <ele>224.1</ele>
        <time>2020-06-08T08:42:18Z</time>
      </trkpt>
      <trkpt lat="48.07039" lon="-3.78439">
        <ele>224.1</ele>
        <time>2020-06-08T08:42:19Z</time>
      </trkpt>
      <trkpt lat="48.07043" lon="-3.78441">
        <ele>224.1</ele>
        <time>2020-06-08T08:42:20Z</time>
      </trkpt>
      <trkpt lat="48.07048" lon="-3.78443">
        <ele>224.1</ele>
        <time>2020-06-08T08:42:21Z</time>
      </trkpt>
      <trkpt lat="48.07054" lon="-3.78446">
        <ele>224.1</ele>
        <time>2020-06-08T08:42:22Z</time>
      </trkpt>
      <trkpt lat="48.07058" lon="-3.78448">
        <ele>224.2</ele>
        <time>2020-06-08T08:42:23Z</time>
      </trkpt>
      <trkpt lat="48.07063" lon="-3.78451">
        <ele>224.2</ele>
        <time>2020-06-08T08:42:24Z</time>
      </trkpt>
      <trkpt lat="48.07068" lon="-3.78454">
        <ele>224.2</ele>
        <time>2020-06-08T08:42:25Z</time>
      </trkpt>
      <trkpt lat="48.07072" lon="-3.78457">
        <ele>224.3</ele>
        <time>2020-06-08T08:42:26Z</time>
      </trkpt>
      <trkpt lat="48.07076" lon="-3.78459">
        <ele>224.3</ele>
        <time>2020-06-08T08:42:27Z</time>
      </trkpt>
      <trkpt lat="48.07081" lon="-3.78461">
        <ele>224.4</ele>
        <time>2020-06-08T08:42:28Z</time>
      </trkpt>
      <trkpt lat="48.07085" lon="-3.78464">
        <ele>224.4</ele>
        <time>2020-06-08T08:42:29Z</time>
      </trkpt>
      <trkpt lat="48.0709" lon="-3.78466">
        <ele>224.5</ele>
        <time>2020-06-08T08:42:30Z</time>
      </trkpt>
      <trkpt lat="48.07095" lon="-3.78468">
        <ele>224.5</ele>
        <time>2020-06-08T08:42:31Z</time>
      </trkpt>
      <trkpt lat="48.07099" lon="-3.78471">
        <ele>224.6</ele>
        <time>2020-06-08T08:42:32Z</time>
      </trkpt>
      <trkpt lat="48.07104" lon="-3.78475">
        <ele>224.7</ele>
        <time>2020-06-08T08:42:33Z</time>
      </trkpt>
      <trkpt lat="48.07109" lon="-3.78479">
        <ele>224.7</ele>
        <time>2020-06-08T08:42:34Z</time>
      </trkpt>
      <trkpt lat="48.07112" lon="-3.78483">
        <ele>224.8</ele>
        <time>2020-06-08T08:42:35Z</time>
      </trkpt>
      <trkpt lat="48.07116" lon="-3.78486">
        <ele>224.9</ele>
        <time>2020-06-08T08:42:36Z</time>
      </trkpt>
      <trkpt lat="48.07121" lon="-3.78489">
        <ele>225.1</ele>
        <time>2020-06-08T08:42:37Z</time>
      </trkpt>
      <trkpt lat="48.07125" lon="-3.78491">
        <ele>225.1</ele>
        <time>2020-06-08T08:42:38Z</time>
      </trkpt>
      <trkpt lat="48.07129" lon="-3.78493">
        <ele>225</ele>
        <time>2020-06-08T08:42:39Z</time>
      </trkpt>
      <trkpt lat="48.07133" lon="-3.78496">
        <ele>224.9</ele>
        <time>2020-06-08T08:42:40Z</time>
      </trkpt>
      <trkpt lat="48.07137" lon="-3.78498">
        <ele>224.9</ele>
        <time>2020-06-08T08:42:41Z</time>
      </trkpt>
      <trkpt lat="48.07141" lon="-3.78501">
        <ele>224.8</ele>
        <time>2020-06-08T08:42:42Z</time>
      </trkpt>
      <trkpt lat="48.07145" lon="-3.78504">
        <ele>224.7</ele>
        <time>2020-06-08T08:42:43Z</time>
      </trkpt>
      <trkpt lat="48.0715" lon="-3.78507">
        <ele>224.7</ele>
        <time>2020-06-08T08:42:44Z</time>
      </trkpt>
      <trkpt lat="48.07154" lon="-3.7851">
        <ele>224.7</ele>
        <time>2020-06-08T08:42:45Z</time>
      </trkpt>
      <trkpt lat="48.07158" lon="-3.78512">
        <ele>224.7</ele>
        <time>2020-06-08T08:42:46Z</time>
      </trkpt>
      <trkpt lat="48.07162" lon="-3.78515">
        <ele>224.8</ele>
        <time>2020-06-08T08:42:47Z</time>
      </trkpt>
      <trkpt lat="48.07167" lon="-3.78518">
        <ele>224.8</ele>
        <time>2020-06-08T08:42:48Z</time>
      </trkpt>
      <trkpt lat="48.07171" lon="-3.78521">
        <ele>224.9</ele>
        <time>2020-06-08T08:42:49Z</time>
      </trkpt>
      <trkpt lat="48.07175" lon="-3.78524">
        <ele>224.9</ele>
        <time>2020-06-08T08:42:50Z</time>
      </trkpt>
      <trkpt lat="48.07179" lon="-3.78525">
        <ele>225</ele>
        <time>2020-06-08T08:42:51Z</time>
      </trkpt>
      <trkpt lat="48.07183" lon="-3.78527">
        <ele>225.1</ele>
        <time>2020-06-08T08:42:52Z</time>
      </trkpt>
      <trkpt lat="48.07187" lon="-3.7853">
        <ele>225.1</ele>
        <time>2020-06-08T08:42:53Z</time>
      </trkpt>
      <trkpt lat="48.07191" lon="-3.78532">
        <ele>225.1</ele>
        <time>2020-06-08T08:42:54Z</time>
      </trkpt>
      <trkpt lat="48.07196" lon="-3.78535">
        <ele>225.1</ele>
        <time>2020-06-08T08:42:55Z</time>
      </trkpt>
      <trkpt lat="48.072" lon="-3.78537">
        <ele>225.1</ele>
        <time>2020-06-08T08:42:56Z</time>
      </trkpt>
      <trkpt lat="48.07203" lon="-3.7854">
        <ele>225</ele>
        <time>2020-06-08T08:42:57Z</time>
      </trkpt>
      <trkpt lat="48.07207" lon="-3.78543">
        <ele>225</ele>
        <time>2020-06-08T08:42:58Z</time>
      </trkpt>
      <trkpt lat="48.07211" lon="-3.78545">
        <ele>225</ele>
        <time>2020-06-08T08:42:59Z</time>
      </trkpt>
      <trkpt lat="48.07215" lon="-3.78547">
        <ele>225</ele>
        <time>2020-06-08T08:43:00Z</time>
      </trkpt>
      <trkpt lat="48.07219" lon="-3.78549">
        <ele>225</ele>
        <time>2020-06-08T08:43:01Z</time>
      </trkpt>
      <trkpt lat="48.07223" lon="-3.78552">
        <ele>225</ele>
        <time>2020-06-08T08:43:02Z</time>
      </trkpt>
      <trkpt lat="48.07227" lon="-3.78554">
        <ele>225.1</ele>
        <time>2020-06-08T08:43:03Z</time>
      </trkpt>
      <trkpt lat="48.07231" lon="-3.78557">
        <ele>225.1</ele>
        <time>2020-06-08T08:43:04Z</time>
      </trkpt>
      <trkpt lat="48.07235" lon="-3.7856">
        <ele>225.2</ele>
        <time>2020-06-08T08:43:05Z</time>
      </trkpt>
      <trkpt lat="48.07238" lon="-3.78562">
        <ele>225.2</ele>
        <time>2020-06-08T08:43:06Z</time>
      </trkpt>
      <trkpt lat="48.07242" lon="-3.78564">
        <ele>225.3</ele>
        <time>2020-06-08T08:43:07Z</time>
      </trkpt>
      <trkpt lat="48.07246" lon="-3.78566">
        <ele>225.3</ele>
        <time>2020-06-08T08:43:08Z</time>
      </trkpt>
      <trkpt lat="48.07249" lon="-3.78567">
        <ele>225.4</ele>
        <time>2020-06-08T08:43:09Z</time>
      </trkpt>
      <trkpt lat="48.07253" lon="-3.7857">
        <ele>225.4</ele>
        <time>2020-06-08T08:43:10Z</time>
      </trkpt>
      <trkpt lat="48.07257" lon="-3.78571">
        <ele>225.5</ele>
        <time>2020-06-08T08:43:11Z</time>
      </trkpt>
      <trkpt lat="48.0726" lon="-3.78573">
        <ele>225.5</ele>
        <time>2020-06-08T08:43:12Z</time>
      </trkpt>
      <trkpt lat="48.07264" lon="-3.78576">
        <ele>225.5</ele>
        <time>2020-06-08T08:43:13Z</time>
      </trkpt>
      <trkpt lat="48.07268" lon="-3.78578">
        <ele>225.5</ele>
        <time>2020-06-08T08:43:14Z</time>
      </trkpt>
      <trkpt lat="48.07272" lon="-3.78581">
        <ele>225.4</ele>
        <time>2020-06-08T08:43:15Z</time>
      </trkpt>
      <trkpt lat="48.07276" lon="-3.78584">
        <ele>225.4</ele>
        <time>2020-06-08T08:43:16Z</time>
      </trkpt>
      <trkpt lat="48.07281" lon="-3.78587">
        <ele>225.3</ele>
        <time>2020-06-08T08:43:17Z</time>
      </trkpt>
      <trkpt lat="48.07284" lon="-3.7859">
        <ele>225.2</ele>
        <time>2020-06-08T08:43:18Z</time>
      </trkpt>
      <trkpt lat="48.07288" lon="-3.78593">
        <ele>225.2</ele>
        <time>2020-06-08T08:43:19Z</time>
      </trkpt>
      <trkpt lat="48.07292" lon="-3.78595">
        <ele>225.3</ele>
        <time>2020-06-08T08:43:20Z</time>
      </trkpt>
      <trkpt lat="48.07296" lon="-3.78596">
        <ele>225.3</ele>
        <time>2020-06-08T08:43:21Z</time>
      </trkpt>
      <trkpt lat="48.073" lon="-3.78598">
        <ele>225.4</ele>
        <time>2020-06-08T08:43:22Z</time>
      </trkpt>
      <trkpt lat="48.07303" lon="-3.786">
        <ele>225.4</ele>
        <time>2020-06-08T08:43:23Z</time>
      </trkpt>
      <trkpt lat="48.07307" lon="-3.78603">
        <ele>225.5</ele>
        <time>2020-06-08T08:43:24Z</time>
      </trkpt>
      <trkpt lat="48.0731" lon="-3.78606">
        <ele>225.5</ele>
        <time>2020-06-08T08:43:25Z</time>
      </trkpt>
      <trkpt lat="48.07314" lon="-3.78608">
        <ele>225.6</ele>
        <time>2020-06-08T08:43:26Z</time>
      </trkpt>
      <trkpt lat="48.07318" lon="-3.7861">
        <ele>225.6</ele>
        <time>2020-06-08T08:43:27Z</time>
      </trkpt>
      <trkpt lat="48.07322" lon="-3.78613">
        <ele>225.5</ele>
        <time>2020-06-08T08:43:28Z</time>
      </trkpt>
      <trkpt lat="48.07326" lon="-3.78615">
        <ele>225.5</ele>
        <time>2020-06-08T08:43:29Z</time>
      </trkpt>
      <trkpt lat="48.0733" lon="-3.78617">
        <ele>225.5</ele>
        <time>2020-06-08T08:43:30Z</time>
      </trkpt>
      <trkpt lat="48.07333" lon="-3.7862">
        <ele>225.5</ele>
        <time>2020-06-08T08:43:31Z</time>
      </trkpt>
      <trkpt lat="48.07337" lon="-3.78622">
        <ele>225.5</ele>
        <time>2020-06-08T08:43:32Z</time>
      </trkpt>
      <trkpt lat="48.07341" lon="-3.78624">
        <ele>225.5</ele>
        <time>2020-06-08T08:43:33Z</time>
      </trkpt>
      <trkpt lat="48.07345" lon="-3.78627">
        <ele>225.6</ele>
        <time>2020-06-08T08:43:34Z</time>
      </trkpt>
      <trkpt lat="48.07349" lon="-3.78629">
        <ele>225.6</ele>
        <time>2020-06-08T08:43:35Z</time>
      </trkpt>
      <trkpt lat="48.07353" lon="-3.78631">
        <ele>225.7</ele>
        <time>2020-06-08T08:43:36Z</time>
      </trkpt>
      <trkpt lat="48.07356" lon="-3.78633">
        <ele>225.8</ele>
        <time>2020-06-08T08:43:37Z</time>
      </trkpt>
      <trkpt lat="48.0736" lon="-3.78636">
        <ele>225.8</ele>
        <time>2020-06-08T08:43:38Z</time>
      </trkpt>
      <trkpt lat="48.07363" lon="-3.78637">
        <ele>225.9</ele>
        <time>2020-06-08T08:43:39Z</time>
      </trkpt>
      <trkpt lat="48.07367" lon="-3.7864">
        <ele>226.6</ele>
        <time>2020-06-08T08:43:40Z</time>
      </trkpt>
      <trkpt lat="48.07371" lon="-3.78642">
        <ele>227.2</ele>
        <time>2020-06-08T08:43:41Z</time>
      </trkpt>
      <trkpt lat="48.07374" lon="-3.78643">
        <ele>227.7</ele>
        <time>2020-06-08T08:43:42Z</time>
      </trkpt>
      <trkpt lat="48.07378" lon="-3.78646">
        <ele>228</ele>
        <time>2020-06-08T08:43:43Z</time>
      </trkpt>
      <trkpt lat="48.07382" lon="-3.78648">
        <ele>228.2</ele>
        <time>2020-06-08T08:43:44Z</time>
      </trkpt>
      <trkpt lat="48.07385" lon="-3.7865">
        <ele>228.4</ele>
        <time>2020-06-08T08:43:45Z</time>
      </trkpt>
      <trkpt lat="48.07389" lon="-3.78652">
        <ele>228.5</ele>
        <time>2020-06-08T08:43:46Z</time>
      </trkpt>
      <trkpt lat="48.07391" lon="-3.78656">
        <ele>228.5</ele>
        <time>2020-06-08T08:43:47Z</time>
      </trkpt>
      <trkpt lat="48.07394" lon="-3.78657">
        <ele>228.6</ele>
        <time>2020-06-08T08:43:48Z</time>
      </trkpt>
      <trkpt lat="48.07397" lon="-3.78659">
        <ele>228.7</ele>
        <time>2020-06-08T08:43:49Z</time>
      </trkpt>
      <trkpt lat="48.07401" lon="-3.78659">
        <ele>228.8</ele>
        <time>2020-06-08T08:43:50Z</time>
      </trkpt>
      <trkpt lat="48.07404" lon="-3.78661">
        <ele>228.8</ele>
        <time>2020-06-08T08:43:51Z</time>
      </trkpt>
      <trkpt lat="48.07408" lon="-3.78664">
        <ele>228.9</ele>
        <time>2020-06-08T08:43:52Z</time>
      </trkpt>
      <trkpt lat="48.07412" lon="-3.78666">
        <ele>228.9</ele>
        <time>2020-06-08T08:43:53Z</time>
      </trkpt>
      <trkpt lat="48.07415" lon="-3.78669">
        <ele>228.9</ele>
        <time>2020-06-08T08:43:54Z</time>
      </trkpt>
      <trkpt lat="48.07419" lon="-3.78671">
        <ele>228.9</ele>
        <time>2020-06-08T08:43:55Z</time>
      </trkpt>
      <trkpt lat="48.07422" lon="-3.78673">
        <ele>228.8</ele>
        <time>2020-06-08T08:43:56Z</time>
      </trkpt>
      <trkpt lat="48.07426" lon="-3.78674">
        <ele>228.8</ele>
        <time>2020-06-08T08:43:57Z</time>
      </trkpt>
      <trkpt lat="48.0743" lon="-3.78676">
        <ele>228.7</ele>
        <time>2020-06-08T08:43:58Z</time>
      </trkpt>
      <trkpt lat="48.07433" lon="-3.78678">
        <ele>228.7</ele>
        <time>2020-06-08T08:43:59Z</time>
      </trkpt>
      <trkpt lat="48.07438" lon="-3.7868">
        <ele>228.7</ele>
        <time>2020-06-08T08:44:00Z</time>
      </trkpt>
      <trkpt lat="48.07442" lon="-3.78681">
        <ele>228.7</ele>
        <time>2020-06-08T08:44:01Z</time>
      </trkpt>
      <trkpt lat="48.07446" lon="-3.78683">
        <ele>228.6</ele>
        <time>2020-06-08T08:44:02Z</time>
      </trkpt>
      <trkpt lat="48.0745" lon="-3.78685">
        <ele>228.6</ele>
        <time>2020-06-08T08:44:03Z</time>
      </trkpt>
      <trkpt lat="48.07454" lon="-3.78686">
        <ele>228.6</ele>
        <time>2020-06-08T08:44:04Z</time>
      </trkpt>
      <trkpt lat="48.07457" lon="-3.78687">
        <ele>228.7</ele>
        <time>2020-06-08T08:44:05Z</time>
      </trkpt>
      <trkpt lat="48.07461" lon="-3.78688">
        <ele>228.7</ele>
        <time>2020-06-08T08:44:06Z</time>
      </trkpt>
      <trkpt lat="48.07466" lon="-3.78689">
        <ele>228.7</ele>
        <time>2020-06-08T08:44:07Z</time>
      </trkpt>
      <trkpt lat="48.0747" lon="-3.78691">
        <ele>228.8</ele>
        <time>2020-06-08T08:44:08Z</time>
      </trkpt>
      <trkpt lat="48.07473" lon="-3.78692">
        <ele>228.8</ele>
        <time>2020-06-08T08:44:09Z</time>
      </trkpt>
      <trkpt lat="48.07477" lon="-3.78693">
        <ele>228.8</ele>
        <time>2020-06-08T08:44:10Z</time>
      </trkpt>
      <trkpt lat="48.0748" lon="-3.78693">
        <ele>228.8</ele>
        <time>2020-06-08T08:44:11Z</time>
      </trkpt>
      <trkpt lat="48.07484" lon="-3.78693">
        <ele>228.8</ele>
        <time>2020-06-08T08:44:12Z</time>
      </trkpt>
      <trkpt lat="48.07488" lon="-3.78694">
        <ele>228.8</ele>
        <time>2020-06-08T08:44:13Z</time>
      </trkpt>
      <trkpt lat="48.07492" lon="-3.78694">
        <ele>228.9</ele>
        <time>2020-06-08T08:44:14Z</time>
      </trkpt>
      <trkpt lat="48.07496" lon="-3.78694">
        <ele>228.9</ele>
        <time>2020-06-08T08:44:15Z</time>
      </trkpt>
      <trkpt lat="48.075" lon="-3.78694">
        <ele>229</ele>
        <time>2020-06-08T08:44:16Z</time>
      </trkpt>
      <trkpt lat="48.07503" lon="-3.78694">
        <ele>229.1</ele>
        <time>2020-06-08T08:44:17Z</time>
      </trkpt>
      <trkpt lat="48.07507" lon="-3.78694">
        <ele>229.1</ele>
        <time>2020-06-08T08:44:18Z</time>
      </trkpt>
      <trkpt lat="48.07512" lon="-3.78695">
        <ele>229.2</ele>
        <time>2020-06-08T08:44:19Z</time>
      </trkpt>
      <trkpt lat="48.07516" lon="-3.78695">
        <ele>229.3</ele>
        <time>2020-06-08T08:44:20Z</time>
      </trkpt>
      <trkpt lat="48.0752" lon="-3.78695">
        <ele>229.3</ele>
        <time>2020-06-08T08:44:21Z</time>
      </trkpt>
      <trkpt lat="48.07523" lon="-3.78695">
        <ele>229.3</ele>
        <time>2020-06-08T08:44:22Z</time>
      </trkpt>
      <trkpt lat="48.07527" lon="-3.78694">
        <ele>229.4</ele>
        <time>2020-06-08T08:44:23Z</time>
      </trkpt>
      <trkpt lat="48.07532" lon="-3.78693">
        <ele>229.4</ele>
        <time>2020-06-08T08:44:24Z</time>
      </trkpt>
      <trkpt lat="48.07536" lon="-3.78692">
        <ele>229.4</ele>
        <time>2020-06-08T08:44:25Z</time>
      </trkpt>
      <trkpt lat="48.0754" lon="-3.78692">
        <ele>229.4</ele>
        <time>2020-06-08T08:44:26Z</time>
      </trkpt>
      <trkpt lat="48.07544" lon="-3.78692">
        <ele>229.4</ele>
        <time>2020-06-08T08:44:27Z</time>
      </trkpt>
      <trkpt lat="48.07546" lon="-3.78692">
        <ele>229.4</ele>
        <time>2020-06-08T08:44:28Z</time>
      </trkpt>
      <trkpt lat="48.07549" lon="-3.78693">
        <ele>229.5</ele>
        <time>2020-06-08T08:44:29Z</time>
      </trkpt>
      <trkpt lat="48.07552" lon="-3.78692">
        <ele>229.5</ele>
        <time>2020-06-08T08:44:30Z</time>
      </trkpt>
      <trkpt lat="48.07555" lon="-3.78692">
        <ele>229.6</ele>
        <time>2020-06-08T08:44:31Z</time>
      </trkpt>
      <trkpt lat="48.07559" lon="-3.78692">
        <ele>229.7</ele>
        <time>2020-06-08T08:44:32Z</time>
      </trkpt>
      <trkpt lat="48.07562" lon="-3.78692">
        <ele>229.8</ele>
        <time>2020-06-08T08:44:33Z</time>
      </trkpt>
      <trkpt lat="48.07566" lon="-3.78692">
        <ele>229.9</ele>
        <time>2020-06-08T08:44:34Z</time>
      </trkpt>
      <trkpt lat="48.0757" lon="-3.78692">
        <ele>230</ele>
        <time>2020-06-08T08:44:35Z</time>
      </trkpt>
      <trkpt lat="48.07573" lon="-3.78692">
        <ele>230.1</ele>
        <time>2020-06-08T08:44:36Z</time>
      </trkpt>
      <trkpt lat="48.07577" lon="-3.78693">
        <ele>230.2</ele>
        <time>2020-06-08T08:44:37Z</time>
      </trkpt>
      <trkpt lat="48.07581" lon="-3.78693">
        <ele>230.2</ele>
        <time>2020-06-08T08:44:38Z</time>
      </trkpt>
      <trkpt lat="48.07584" lon="-3.78693">
        <ele>230.3</ele>
        <time>2020-06-08T08:44:39Z</time>
      </trkpt>
      <trkpt lat="48.07588" lon="-3.78693">
        <ele>230.3</ele>
        <time>2020-06-08T08:44:40Z</time>
      </trkpt>
      <trkpt lat="48.07591" lon="-3.78693">
        <ele>230.3</ele>
        <time>2020-06-08T08:44:41Z</time>
      </trkpt>
      <trkpt lat="48.07595" lon="-3.78693">
        <ele>230.4</ele>
        <time>2020-06-08T08:44:42Z</time>
      </trkpt>
      <trkpt lat="48.07598" lon="-3.78692">
        <ele>230.4</ele>
        <time>2020-06-08T08:44:43Z</time>
      </trkpt>
      <trkpt lat="48.07602" lon="-3.78692">
        <ele>230.5</ele>
        <time>2020-06-08T08:44:44Z</time>
      </trkpt>
      <trkpt lat="48.07605" lon="-3.78693">
        <ele>230.5</ele>
        <time>2020-06-08T08:44:45Z</time>
      </trkpt>
      <trkpt lat="48.07608" lon="-3.78692">
        <ele>230.6</ele>
        <time>2020-06-08T08:44:46Z</time>
      </trkpt>
      <trkpt lat="48.07611" lon="-3.78691">
        <ele>230.6</ele>
        <time>2020-06-08T08:44:47Z</time>
      </trkpt>
      <trkpt lat="48.07612" lon="-3.78691">
        <ele>230.6</ele>
        <time>2020-06-08T08:44:48Z</time>
      </trkpt>
      <trkpt lat="48.07616" lon="-3.78691">
        <ele>230.6</ele>
        <time>2020-06-08T08:44:49Z</time>
      </trkpt>
      <trkpt lat="48.07619" lon="-3.78691">
        <ele>230.6</ele>
        <time>2020-06-08T08:44:50Z</time>
      </trkpt>
      <trkpt lat="48.07623" lon="-3.78691">
        <ele>230.6</ele>
        <time>2020-06-08T08:44:51Z</time>
      </trkpt>
      <trkpt lat="48.07626" lon="-3.78691">
        <ele>230.6</ele>
        <time>2020-06-08T08:44:52Z</time>
      </trkpt>
      <trkpt lat="48.07629" lon="-3.78691">
        <ele>230.6</ele>
        <time>2020-06-08T08:44:53Z</time>
      </trkpt>
      <trkpt lat="48.07633" lon="-3.7869">
        <ele>230.6</ele>
        <time>2020-06-08T08:44:54Z</time>
      </trkpt>
      <trkpt lat="48.07637" lon="-3.7869">
        <ele>230.6</ele>
        <time>2020-06-08T08:44:55Z</time>
      </trkpt>
      <trkpt lat="48.07641" lon="-3.7869">
        <ele>230.7</ele>
        <time>2020-06-08T08:44:56Z</time>
      </trkpt>
      <trkpt lat="48.07644" lon="-3.78691">
        <ele>230.7</ele>
        <time>2020-06-08T08:44:57Z</time>
      </trkpt>
      <trkpt lat="48.07648" lon="-3.78691">
        <ele>230.9</ele>
        <time>2020-06-08T08:44:58Z</time>
      </trkpt>
      <trkpt lat="48.07653" lon="-3.78691">
        <ele>231.1</ele>
        <time>2020-06-08T08:44:59Z</time>
      </trkpt>
      <trkpt lat="48.07656" lon="-3.78691">
        <ele>231.2</ele>
        <time>2020-06-08T08:45:00Z</time>
      </trkpt>
      <trkpt lat="48.07658" lon="-3.78692">
        <ele>231.3</ele>
        <time>2020-06-08T08:45:01Z</time>
      </trkpt>
      <trkpt lat="48.07662" lon="-3.78692">
        <ele>231.4</ele>
        <time>2020-06-08T08:45:02Z</time>
      </trkpt>
      <trkpt lat="48.07665" lon="-3.78692">
        <ele>231.5</ele>
        <time>2020-06-08T08:45:03Z</time>
      </trkpt>
      <trkpt lat="48.07669" lon="-3.78692">
        <ele>231.5</ele>
        <time>2020-06-08T08:45:04Z</time>
      </trkpt>
      <trkpt lat="48.07672" lon="-3.78692">
        <ele>231.6</ele>
        <time>2020-06-08T08:45:05Z</time>
      </trkpt>
      <trkpt lat="48.07676" lon="-3.78692">
        <ele>231.6</ele>
        <time>2020-06-08T08:45:06Z</time>
      </trkpt>
      <trkpt lat="48.0768" lon="-3.78692">
        <ele>231.6</ele>
        <time>2020-06-08T08:45:07Z</time>
      </trkpt>
      <trkpt lat="48.07683" lon="-3.78693">
        <ele>231.6</ele>
        <time>2020-06-08T08:45:08Z</time>
      </trkpt>
      <trkpt lat="48.07686" lon="-3.78693">
        <ele>231.6</ele>
        <time>2020-06-08T08:45:09Z</time>
      </trkpt>
      <trkpt lat="48.0769" lon="-3.78693">
        <ele>231.6</ele>
        <time>2020-06-08T08:45:10Z</time>
      </trkpt>
      <trkpt lat="48.07694" lon="-3.78696">
        <ele>231.6</ele>
        <time>2020-06-08T08:45:11Z</time>
      </trkpt>
      <trkpt lat="48.07697" lon="-3.78697">
        <ele>231.6</ele>
        <time>2020-06-08T08:45:12Z</time>
      </trkpt>
      <trkpt lat="48.077" lon="-3.78698">
        <ele>231.6</ele>
        <time>2020-06-08T08:45:13Z</time>
      </trkpt>
      <trkpt lat="48.07703" lon="-3.78698">
        <ele>231.6</ele>
        <time>2020-06-08T08:45:14Z</time>
      </trkpt>
      <trkpt lat="48.07707" lon="-3.78699">
        <ele>231.6</ele>
        <time>2020-06-08T08:45:15Z</time>
      </trkpt>
      <trkpt lat="48.07711" lon="-3.78701">
        <ele>231.7</ele>
        <time>2020-06-08T08:45:16Z</time>
      </trkpt>
      <trkpt lat="48.07715" lon="-3.78704">
        <ele>231.7</ele>
        <time>2020-06-08T08:45:17Z</time>
      </trkpt>
      <trkpt lat="48.07716" lon="-3.78704">
        <ele>231.7</ele>
        <time>2020-06-08T08:45:18Z</time>
      </trkpt>
      <trkpt lat="48.07719" lon="-3.78706">
        <ele>231.8</ele>
        <time>2020-06-08T08:45:19Z</time>
      </trkpt>
      <trkpt lat="48.07722" lon="-3.78707">
        <ele>231.9</ele>
        <time>2020-06-08T08:45:20Z</time>
      </trkpt>
      <trkpt lat="48.07725" lon="-3.78708">
        <ele>231.9</ele>
        <time>2020-06-08T08:45:21Z</time>
      </trkpt>
      <trkpt lat="48.07727" lon="-3.78711">
        <ele>232</ele>
        <time>2020-06-08T08:45:22Z</time>
      </trkpt>
      <trkpt lat="48.0773" lon="-3.78713">
        <ele>232</ele>
        <time>2020-06-08T08:45:23Z</time>
      </trkpt>
      <trkpt lat="48.07733" lon="-3.78715">
        <ele>232.1</ele>
        <time>2020-06-08T08:45:24Z</time>
      </trkpt>
      <trkpt lat="48.07736" lon="-3.78718">
        <ele>232.2</ele>
        <time>2020-06-08T08:45:25Z</time>
      </trkpt>
      <trkpt lat="48.07739" lon="-3.7872">
        <ele>232.2</ele>
        <time>2020-06-08T08:45:26Z</time>
      </trkpt>
      <trkpt lat="48.07742" lon="-3.78722">
        <ele>232.3</ele>
        <time>2020-06-08T08:45:27Z</time>
      </trkpt>
      <trkpt lat="48.07745" lon="-3.78725">
        <ele>232.3</ele>
        <time>2020-06-08T08:45:28Z</time>
      </trkpt>
      <trkpt lat="48.07748" lon="-3.78727">
        <ele>232.3</ele>
        <time>2020-06-08T08:45:29Z</time>
      </trkpt>
      <trkpt lat="48.07751" lon="-3.78729">
        <ele>232.3</ele>
        <time>2020-06-08T08:45:30Z</time>
      </trkpt>
      <trkpt lat="48.07755" lon="-3.7873">
        <ele>232.3</ele>
        <time>2020-06-08T08:45:31Z</time>
      </trkpt>
      <trkpt lat="48.07758" lon="-3.78732">
        <ele>232.2</ele>
        <time>2020-06-08T08:45:32Z</time>
      </trkpt>
      <trkpt lat="48.07762" lon="-3.78734">
        <ele>232.2</ele>
        <time>2020-06-08T08:45:33Z</time>
      </trkpt>
      <trkpt lat="48.07766" lon="-3.78737">
        <ele>232.1</ele>
        <time>2020-06-08T08:45:34Z</time>
      </trkpt>
      <trkpt lat="48.07769" lon="-3.78739">
        <ele>232.1</ele>
        <time>2020-06-08T08:45:35Z</time>
      </trkpt>
      <trkpt lat="48.07773" lon="-3.78741">
        <ele>232.1</ele>
        <time>2020-06-08T08:45:36Z</time>
      </trkpt>
      <trkpt lat="48.07777" lon="-3.78742">
        <ele>232</ele>
        <time>2020-06-08T08:45:37Z</time>
      </trkpt>
      <trkpt lat="48.0778" lon="-3.78743">
        <ele>232</ele>
        <time>2020-06-08T08:45:38Z</time>
      </trkpt>
      <trkpt lat="48.07783" lon="-3.78746">
        <ele>232</ele>
        <time>2020-06-08T08:45:39Z</time>
      </trkpt>
      <trkpt lat="48.07787" lon="-3.78747">
        <ele>232</ele>
        <time>2020-06-08T08:45:40Z</time>
      </trkpt>
      <trkpt lat="48.07791" lon="-3.78749">
        <ele>232.1</ele>
        <time>2020-06-08T08:45:41Z</time>
      </trkpt>
      <trkpt lat="48.07794" lon="-3.78751">
        <ele>232.2</ele>
        <time>2020-06-08T08:45:42Z</time>
      </trkpt>
      <trkpt lat="48.07797" lon="-3.78753">
        <ele>232.2</ele>
        <time>2020-06-08T08:45:43Z</time>
      </trkpt>
      <trkpt lat="48.07801" lon="-3.78756">
        <ele>232.3</ele>
        <time>2020-06-08T08:45:44Z</time>
      </trkpt>
      <trkpt lat="48.07804" lon="-3.78758">
        <ele>232.4</ele>
        <time>2020-06-08T08:45:45Z</time>
      </trkpt>
      <trkpt lat="48.07808" lon="-3.78761">
        <ele>232.4</ele>
        <time>2020-06-08T08:45:46Z</time>
      </trkpt>
      <trkpt lat="48.07812" lon="-3.78763">
        <ele>232.3</ele>
        <time>2020-06-08T08:45:47Z</time>
      </trkpt>
      <trkpt lat="48.07815" lon="-3.78765">
        <ele>232.3</ele>
        <time>2020-06-08T08:45:48Z</time>
      </trkpt>
      <trkpt lat="48.07819" lon="-3.78767">
        <ele>232.3</ele>
        <time>2020-06-08T08:45:49Z</time>
      </trkpt>
      <trkpt lat="48.07822" lon="-3.7877">
        <ele>232.4</ele>
        <time>2020-06-08T08:45:50Z</time>
      </trkpt>
      <trkpt lat="48.07825" lon="-3.78772">
        <ele>232.4</ele>
        <time>2020-06-08T08:45:51Z</time>
      </trkpt>
      <trkpt lat="48.07828" lon="-3.78773">
        <ele>232.5</ele>
        <time>2020-06-08T08:45:52Z</time>
      </trkpt>
      <trkpt lat="48.07832" lon="-3.78774">
        <ele>232.5</ele>
        <time>2020-06-08T08:45:53Z</time>
      </trkpt>
      <trkpt lat="48.07835" lon="-3.78776">
        <ele>232.6</ele>
        <time>2020-06-08T08:45:54Z</time>
      </trkpt>
      <trkpt lat="48.07839" lon="-3.78779">
        <ele>232.7</ele>
        <time>2020-06-08T08:45:55Z</time>
      </trkpt>
      <trkpt lat="48.07842" lon="-3.78781">
        <ele>232.7</ele>
        <time>2020-06-08T08:45:56Z</time>
      </trkpt>
      <trkpt lat="48.07846" lon="-3.78783">
        <ele>232.7</ele>
        <time>2020-06-08T08:45:57Z</time>
      </trkpt>
      <trkpt lat="48.07849" lon="-3.78786">
        <ele>232.8</ele>
        <time>2020-06-08T08:45:58Z</time>
      </trkpt>
      <trkpt lat="48.07853" lon="-3.78789">
        <ele>232.8</ele>
        <time>2020-06-08T08:45:59Z</time>
      </trkpt>
      <trkpt lat="48.07856" lon="-3.78791">
        <ele>232.9</ele>
        <time>2020-06-08T08:46:00Z</time>
      </trkpt>
      <trkpt lat="48.0786" lon="-3.78795">
        <ele>233.1</ele>
        <time>2020-06-08T08:46:01Z</time>
      </trkpt>
      <trkpt lat="48.07863" lon="-3.78798">
        <ele>233.3</ele>
        <time>2020-06-08T08:46:02Z</time>
      </trkpt>
      <trkpt lat="48.07866" lon="-3.788">
        <ele>233.3</ele>
        <time>2020-06-08T08:46:03Z</time>
      </trkpt>
      <trkpt lat="48.07869" lon="-3.78803">
        <ele>233.4</ele>
        <time>2020-06-08T08:46:04Z</time>
      </trkpt>
      <trkpt lat="48.07873" lon="-3.78805">
        <ele>233.5</ele>
        <time>2020-06-08T08:46:05Z</time>
      </trkpt>
      <trkpt lat="48.07876" lon="-3.78807">
        <ele>233.5</ele>
        <time>2020-06-08T08:46:06Z</time>
      </trkpt>
      <trkpt lat="48.07879" lon="-3.78808">
        <ele>233.5</ele>
        <time>2020-06-08T08:46:07Z</time>
      </trkpt>
      <trkpt lat="48.07883" lon="-3.78811">
        <ele>233.6</ele>
        <time>2020-06-08T08:46:08Z</time>
      </trkpt>
      <trkpt lat="48.07886" lon="-3.78813">
        <ele>233.6</ele>
        <time>2020-06-08T08:46:09Z</time>
      </trkpt>
      <trkpt lat="48.0789" lon="-3.78815">
        <ele>233.6</ele>
        <time>2020-06-08T08:46:10Z</time>
      </trkpt>
      <trkpt lat="48.07895" lon="-3.78817">
        <ele>233.6</ele>
        <time>2020-06-08T08:46:11Z</time>
      </trkpt>
      <trkpt lat="48.07898" lon="-3.78818">
        <ele>233.7</ele>
        <time>2020-06-08T08:46:12Z</time>
      </trkpt>
      <trkpt lat="48.07901" lon="-3.78819">
        <ele>233.7</ele>
        <time>2020-06-08T08:46:13Z</time>
      </trkpt>
      <trkpt lat="48.07905" lon="-3.78822">
        <ele>233.7</ele>
        <time>2020-06-08T08:46:14Z</time>
      </trkpt>
      <trkpt lat="48.07909" lon="-3.78824">
        <ele>233.8</ele>
        <time>2020-06-08T08:46:15Z</time>
      </trkpt>
      <trkpt lat="48.07914" lon="-3.78825">
        <ele>233.8</ele>
        <time>2020-06-08T08:46:16Z</time>
      </trkpt>
      <trkpt lat="48.07918" lon="-3.78828">
        <ele>233.9</ele>
        <time>2020-06-08T08:46:17Z</time>
      </trkpt>
      <trkpt lat="48.07921" lon="-3.7883">
        <ele>234</ele>
        <time>2020-06-08T08:46:18Z</time>
      </trkpt>
      <trkpt lat="48.07925" lon="-3.78831">
        <ele>234.1</ele>
        <time>2020-06-08T08:46:19Z</time>
      </trkpt>
      <trkpt lat="48.07928" lon="-3.78832">
        <ele>234.1</ele>
        <time>2020-06-08T08:46:20Z</time>
      </trkpt>
      <trkpt lat="48.0793" lon="-3.78834">
        <ele>234.2</ele>
        <time>2020-06-08T08:46:21Z</time>
      </trkpt>
      <trkpt lat="48.07934" lon="-3.78836">
        <ele>234.3</ele>
        <time>2020-06-08T08:46:22Z</time>
      </trkpt>
      <trkpt lat="48.07938" lon="-3.78837">
        <ele>234.3</ele>
        <time>2020-06-08T08:46:23Z</time>
      </trkpt>
      <trkpt lat="48.07941" lon="-3.78839">
        <ele>234.4</ele>
        <time>2020-06-08T08:46:24Z</time>
      </trkpt>
      <trkpt lat="48.07945" lon="-3.7884">
        <ele>234.4</ele>
        <time>2020-06-08T08:46:25Z</time>
      </trkpt>
      <trkpt lat="48.07948" lon="-3.78841">
        <ele>234.5</ele>
        <time>2020-06-08T08:46:26Z</time>
      </trkpt>
      <trkpt lat="48.07951" lon="-3.78843">
        <ele>234.5</ele>
        <time>2020-06-08T08:46:27Z</time>
      </trkpt>
      <trkpt lat="48.07954" lon="-3.78844">
        <ele>234.6</ele>
        <time>2020-06-08T08:46:28Z</time>
      </trkpt>
      <trkpt lat="48.07958" lon="-3.78845">
        <ele>234.6</ele>
        <time>2020-06-08T08:46:29Z</time>
      </trkpt>
      <trkpt lat="48.07962" lon="-3.78846">
        <ele>234.7</ele>
        <time>2020-06-08T08:46:30Z</time>
      </trkpt>
      <trkpt lat="48.07965" lon="-3.78848">
        <ele>234.7</ele>
        <time>2020-06-08T08:46:31Z</time>
      </trkpt>
      <trkpt lat="48.07968" lon="-3.7885">
        <ele>234.8</ele>
        <time>2020-06-08T08:46:32Z</time>
      </trkpt>
      <trkpt lat="48.07971" lon="-3.78851">
        <ele>234.9</ele>
        <time>2020-06-08T08:46:33Z</time>
      </trkpt>
      <trkpt lat="48.07974" lon="-3.78853">
        <ele>234.9</ele>
        <time>2020-06-08T08:46:34Z</time>
      </trkpt>
      <trkpt lat="48.07977" lon="-3.78854">
        <ele>235</ele>
        <time>2020-06-08T08:46:35Z</time>
      </trkpt>
      <trkpt lat="48.07981" lon="-3.78854">
        <ele>235.1</ele>
        <time>2020-06-08T08:46:36Z</time>
      </trkpt>
      <trkpt lat="48.07984" lon="-3.78856">
        <ele>235.3</ele>
        <time>2020-06-08T08:46:37Z</time>
      </trkpt>
      <trkpt lat="48.07987" lon="-3.78858">
        <ele>235.4</ele>
        <time>2020-06-08T08:46:38Z</time>
      </trkpt>
      <trkpt lat="48.07991" lon="-3.78858">
        <ele>235.5</ele>
        <time>2020-06-08T08:46:39Z</time>
      </trkpt>
      <trkpt lat="48.07995" lon="-3.78858">
        <ele>235.7</ele>
        <time>2020-06-08T08:46:40Z</time>
      </trkpt>
      <trkpt lat="48.07998" lon="-3.78858">
        <ele>235.8</ele>
        <time>2020-06-08T08:46:41Z</time>
      </trkpt>
      <trkpt lat="48.08001" lon="-3.7886">
        <ele>235.9</ele>
        <time>2020-06-08T08:46:42Z</time>
      </trkpt>
      <trkpt lat="48.08005" lon="-3.78862">
        <ele>236</ele>
        <time>2020-06-08T08:46:43Z</time>
      </trkpt>
      <trkpt lat="48.08007" lon="-3.78864">
        <ele>236.1</ele>
        <time>2020-06-08T08:46:44Z</time>
      </trkpt>
      <trkpt lat="48.0801" lon="-3.78866">
        <ele>236.2</ele>
        <time>2020-06-08T08:46:45Z</time>
      </trkpt>
      <trkpt lat="48.08012" lon="-3.78868">
        <ele>236.2</ele>
        <time>2020-06-08T08:46:46Z</time>
      </trkpt>
      <trkpt lat="48.08015" lon="-3.78871">
        <ele>236.4</ele>
        <time>2020-06-08T08:46:47Z</time>
      </trkpt>
      <trkpt lat="48.08018" lon="-3.78873">
        <ele>236.5</ele>
        <time>2020-06-08T08:46:48Z</time>
      </trkpt>
      <trkpt lat="48.0802" lon="-3.78874">
        <ele>236.6</ele>
        <time>2020-06-08T08:46:49Z</time>
      </trkpt>
      <trkpt lat="48.08023" lon="-3.78875">
        <ele>236.7</ele>
        <time>2020-06-08T08:46:50Z</time>
      </trkpt>
      <trkpt lat="48.08025" lon="-3.78877">
        <ele>236.9</ele>
        <time>2020-06-08T08:46:51Z</time>
      </trkpt>
      <trkpt lat="48.08028" lon="-3.78879">
        <ele>237</ele>
        <time>2020-06-08T08:46:52Z</time>
      </trkpt>
      <trkpt lat="48.08032" lon="-3.78882">
        <ele>237.2</ele>
        <time>2020-06-08T08:46:53Z</time>
      </trkpt>
      <trkpt lat="48.08035" lon="-3.78884">
        <ele>237.3</ele>
        <time>2020-06-08T08:46:54Z</time>
      </trkpt>
      <trkpt lat="48.08038" lon="-3.78885">
        <ele>237.5</ele>
        <time>2020-06-08T08:46:55Z</time>
      </trkpt>
      <trkpt lat="48.08043" lon="-3.78887">
        <ele>237.6</ele>
        <time>2020-06-08T08:46:56Z</time>
      </trkpt>
      <trkpt lat="48.08047" lon="-3.78887">
        <ele>237.8</ele>
        <time>2020-06-08T08:46:57Z</time>
      </trkpt>
      <trkpt lat="48.0805" lon="-3.78889">
        <ele>237.9</ele>
        <time>2020-06-08T08:46:58Z</time>
      </trkpt>
      <trkpt lat="48.08053" lon="-3.78892">
        <ele>238.1</ele>
        <time>2020-06-08T08:46:59Z</time>
      </trkpt>
      <trkpt lat="48.08055" lon="-3.78895">
        <ele>238.2</ele>
        <time>2020-06-08T08:47:00Z</time>
      </trkpt>
      <trkpt lat="48.08058" lon="-3.78896">
        <ele>238.3</ele>
        <time>2020-06-08T08:47:01Z</time>
      </trkpt>
      <trkpt lat="48.08062" lon="-3.78898">
        <ele>238.4</ele>
        <time>2020-06-08T08:47:02Z</time>
      </trkpt>
      <trkpt lat="48.08063" lon="-3.78898">
        <ele>238.5</ele>
        <time>2020-06-08T08:47:03Z</time>
      </trkpt>
      <trkpt lat="48.08066" lon="-3.78899">
        <ele>238.6</ele>
        <time>2020-06-08T08:47:04Z</time>
      </trkpt>
      <trkpt lat="48.08069" lon="-3.78901">
        <ele>238.6</ele>
        <time>2020-06-08T08:47:05Z</time>
      </trkpt>
      <trkpt lat="48.08072" lon="-3.78903">
        <ele>238.7</ele>
        <time>2020-06-08T08:47:06Z</time>
      </trkpt>
      <trkpt lat="48.08075" lon="-3.78905">
        <ele>238.8</ele>
        <time>2020-06-08T08:47:07Z</time>
      </trkpt>
      <trkpt lat="48.08078" lon="-3.78906">
        <ele>238.9</ele>
        <time>2020-06-08T08:47:08Z</time>
      </trkpt>
      <trkpt lat="48.08081" lon="-3.78908">
        <ele>239</ele>
        <time>2020-06-08T08:47:09Z</time>
      </trkpt>
      <trkpt lat="48.08085" lon="-3.78909">
        <ele>239.2</ele>
        <time>2020-06-08T08:47:10Z</time>
      </trkpt>
      <trkpt lat="48.08086" lon="-3.7891">
        <ele>239.2</ele>
        <time>2020-06-08T08:47:11Z</time>
      </trkpt>
      <trkpt lat="48.08089" lon="-3.78912">
        <ele>239.4</ele>
        <time>2020-06-08T08:47:12Z</time>
      </trkpt>
      <trkpt lat="48.08091" lon="-3.78914">
        <ele>239.5</ele>
        <time>2020-06-08T08:47:13Z</time>
      </trkpt>
      <trkpt lat="48.08094" lon="-3.78914">
        <ele>239.7</ele>
        <time>2020-06-08T08:47:14Z</time>
      </trkpt>
      <trkpt lat="48.08097" lon="-3.78915">
        <ele>239.9</ele>
        <time>2020-06-08T08:47:15Z</time>
      </trkpt>
      <trkpt lat="48.081" lon="-3.78917">
        <ele>240.1</ele>
        <time>2020-06-08T08:47:16Z</time>
      </trkpt>
      <trkpt lat="48.08102" lon="-3.78919">
        <ele>240.3</ele>
        <time>2020-06-08T08:47:17Z</time>
      </trkpt>
      <trkpt lat="48.08105" lon="-3.78921">
        <ele>240.5</ele>
        <time>2020-06-08T08:47:18Z</time>
      </trkpt>
      <trkpt lat="48.08108" lon="-3.78923">
        <ele>240.7</ele>
        <time>2020-06-08T08:47:19Z</time>
      </trkpt>
      <trkpt lat="48.08111" lon="-3.78925">
        <ele>240.9</ele>
        <time>2020-06-08T08:47:20Z</time>
      </trkpt>
      <trkpt lat="48.08113" lon="-3.78927">
        <ele>241.1</ele>
        <time>2020-06-08T08:47:21Z</time>
      </trkpt>
      <trkpt lat="48.08116" lon="-3.7893">
        <ele>241.3</ele>
        <time>2020-06-08T08:47:22Z</time>
      </trkpt>
      <trkpt lat="48.08119" lon="-3.78933">
        <ele>241.6</ele>
        <time>2020-06-08T08:47:23Z</time>
      </trkpt>
      <trkpt lat="48.0812" lon="-3.78934">
        <ele>241.7</ele>
        <time>2020-06-08T08:47:24Z</time>
      </trkpt>
      <trkpt lat="48.08122" lon="-3.78937">
        <ele>241.9</ele>
        <time>2020-06-08T08:47:25Z</time>
      </trkpt>
      <trkpt lat="48.08125" lon="-3.78939">
        <ele>242.2</ele>
        <time>2020-06-08T08:47:26Z</time>
      </trkpt>
      <trkpt lat="48.08127" lon="-3.78941">
        <ele>242.4</ele>
        <time>2020-06-08T08:47:27Z</time>
      </trkpt>
      <trkpt lat="48.0813" lon="-3.78943">
        <ele>242.7</ele>
        <time>2020-06-08T08:47:28Z</time>
      </trkpt>
      <trkpt lat="48.08131" lon="-3.78944">
        <ele>242.8</ele>
        <time>2020-06-08T08:47:29Z</time>
      </trkpt>
      <trkpt lat="48.08134" lon="-3.78946">
        <ele>243.1</ele>
        <time>2020-06-08T08:47:30Z</time>
      </trkpt>
      <trkpt lat="48.08136" lon="-3.78949">
        <ele>243.3</ele>
        <time>2020-06-08T08:47:31Z</time>
      </trkpt>
      <trkpt lat="48.08137" lon="-3.7895">
        <ele>243.4</ele>
        <time>2020-06-08T08:47:32Z</time>
      </trkpt>
      <trkpt lat="48.0814" lon="-3.78952">
        <ele>243.6</ele>
        <time>2020-06-08T08:47:33Z</time>
      </trkpt>
      <trkpt lat="48.08141" lon="-3.78952">
        <ele>243.7</ele>
        <time>2020-06-08T08:47:34Z</time>
      </trkpt>
      <trkpt lat="48.08143" lon="-3.78955">
        <ele>243.9</ele>
        <time>2020-06-08T08:47:35Z</time>
      </trkpt>
      <trkpt lat="48.08144" lon="-3.78956">
        <ele>244</ele>
        <time>2020-06-08T08:47:36Z</time>
      </trkpt>
      <trkpt lat="48.08145" lon="-3.78959">
        <ele>244.2</ele>
        <time>2020-06-08T08:47:37Z</time>
      </trkpt>
      <trkpt lat="48.08149" lon="-3.7896">
        <ele>244.4</ele>
        <time>2020-06-08T08:47:38Z</time>
      </trkpt>
      <trkpt lat="48.0815" lon="-3.78959">
        <ele>244.5</ele>
        <time>2020-06-08T08:47:39Z</time>
      </trkpt>
      <trkpt lat="48.08154" lon="-3.78958">
        <ele>244.7</ele>
        <time>2020-06-08T08:47:40Z</time>
      </trkpt>
      <trkpt lat="48.08157" lon="-3.78959">
        <ele>245</ele>
        <time>2020-06-08T08:47:41Z</time>
      </trkpt>
      <trkpt lat="48.08159" lon="-3.78959">
        <ele>245.1</ele>
        <time>2020-06-08T08:47:42Z</time>
      </trkpt>
      <trkpt lat="48.08162" lon="-3.78962">
        <ele>245.3</ele>
        <time>2020-06-08T08:47:43Z</time>
      </trkpt>
      <trkpt lat="48.08164" lon="-3.78963">
        <ele>245.4</ele>
        <time>2020-06-08T08:47:44Z</time>
      </trkpt>
      <trkpt lat="48.08167" lon="-3.78964">
        <ele>245.6</ele>
        <time>2020-06-08T08:47:45Z</time>
      </trkpt>
      <trkpt lat="48.08169" lon="-3.78966">
        <ele>245.7</ele>
        <time>2020-06-08T08:47:46Z</time>
      </trkpt>
      <trkpt lat="48.08172" lon="-3.78968">
        <ele>245.8</ele>
        <time>2020-06-08T08:47:47Z</time>
      </trkpt>
      <trkpt lat="48.08174" lon="-3.78969">
        <ele>245.9</ele>
        <time>2020-06-08T08:47:48Z</time>
      </trkpt>
      <trkpt lat="48.08177" lon="-3.7897">
        <ele>246</ele>
        <time>2020-06-08T08:47:49Z</time>
      </trkpt>
      <trkpt lat="48.08179" lon="-3.7897">
        <ele>246</ele>
        <time>2020-06-08T08:47:50Z</time>
      </trkpt>
      <trkpt lat="48.08182" lon="-3.78972">
        <ele>246.1</ele>
        <time>2020-06-08T08:47:51Z</time>
      </trkpt>
      <trkpt lat="48.08185" lon="-3.78974">
        <ele>246.2</ele>
        <time>2020-06-08T08:47:52Z</time>
      </trkpt>
      <trkpt lat="48.08187" lon="-3.78975">
        <ele>246.2</ele>
        <time>2020-06-08T08:47:53Z</time>
      </trkpt>
      <trkpt lat="48.0819" lon="-3.78978">
        <ele>246.2</ele>
        <time>2020-06-08T08:47:54Z</time>
      </trkpt>
      <trkpt lat="48.08193" lon="-3.78979">
        <ele>246.2</ele>
        <time>2020-06-08T08:47:55Z</time>
      </trkpt>
      <trkpt lat="48.08196" lon="-3.7898">
        <ele>246.2</ele>
        <time>2020-06-08T08:47:56Z</time>
      </trkpt>
      <trkpt lat="48.08199" lon="-3.78981">
        <ele>246.2</ele>
        <time>2020-06-08T08:47:57Z</time>
      </trkpt>
      <trkpt lat="48.08201" lon="-3.78982">
        <ele>246.1</ele>
        <time>2020-06-08T08:47:58Z</time>
      </trkpt>
      <trkpt lat="48.08205" lon="-3.78985">
        <ele>246.1</ele>
        <time>2020-06-08T08:47:59Z</time>
      </trkpt>
      <trkpt lat="48.08208" lon="-3.78986">
        <ele>246.1</ele>
        <time>2020-06-08T08:48:00Z</time>
      </trkpt>
      <trkpt lat="48.08211" lon="-3.78988">
        <ele>246</ele>
        <time>2020-06-08T08:48:01Z</time>
      </trkpt>
      <trkpt lat="48.08214" lon="-3.78989">
        <ele>246</ele>
        <time>2020-06-08T08:48:02Z</time>
      </trkpt>
      <trkpt lat="48.08218" lon="-3.78991">
        <ele>245.9</ele>
        <time>2020-06-08T08:48:03Z</time>
      </trkpt>
      <trkpt lat="48.08221" lon="-3.78992">
        <ele>245.9</ele>
        <time>2020-06-08T08:48:04Z</time>
      </trkpt>
      <trkpt lat="48.08224" lon="-3.78994">
        <ele>245.9</ele>
        <time>2020-06-08T08:48:05Z</time>
      </trkpt>
      <trkpt lat="48.08228" lon="-3.78997">
        <ele>245.9</ele>
        <time>2020-06-08T08:48:06Z</time>
      </trkpt>
      <trkpt lat="48.08231" lon="-3.78999">
        <ele>245.9</ele>
        <time>2020-06-08T08:48:07Z</time>
      </trkpt>
      <trkpt lat="48.08234" lon="-3.79001">
        <ele>245.9</ele>
        <time>2020-06-08T08:48:08Z</time>
      </trkpt>
      <trkpt lat="48.08238" lon="-3.79003">
        <ele>245.9</ele>
        <time>2020-06-08T08:48:09Z</time>
      </trkpt>
      <trkpt lat="48.08239" lon="-3.79004">
        <ele>245.9</ele>
        <time>2020-06-08T08:48:10Z</time>
      </trkpt>
      <trkpt lat="48.08243" lon="-3.79003">
        <ele>246</ele>
        <time>2020-06-08T08:48:11Z</time>
      </trkpt>
      <trkpt lat="48.08246" lon="-3.79003">
        <ele>246</ele>
        <time>2020-06-08T08:48:12Z</time>
      </trkpt>
      <trkpt lat="48.08249" lon="-3.79001">
        <ele>246</ele>
        <time>2020-06-08T08:48:13Z</time>
      </trkpt>
      <trkpt lat="48.08251" lon="-3.78999">
        <ele>246</ele>
        <time>2020-06-08T08:48:14Z</time>
      </trkpt>
      <trkpt lat="48.08253" lon="-3.78996">
        <ele>246</ele>
        <time>2020-06-08T08:48:15Z</time>
      </trkpt>
      <trkpt lat="48.08255" lon="-3.78992">
        <ele>246</ele>
        <time>2020-06-08T08:48:16Z</time>
      </trkpt>
      <trkpt lat="48.08258" lon="-3.78988">
        <ele>246</ele>
        <time>2020-06-08T08:48:17Z</time>
      </trkpt>
      <trkpt lat="48.0826" lon="-3.78984">
        <ele>246</ele>
        <time>2020-06-08T08:48:18Z</time>
      </trkpt>
      <trkpt lat="48.08262" lon="-3.7898">
        <ele>246</ele>
        <time>2020-06-08T08:48:19Z</time>
      </trkpt>
      <trkpt lat="48.08264" lon="-3.78977">
        <ele>246</ele>
        <time>2020-06-08T08:48:20Z</time>
      </trkpt>
      <trkpt lat="48.08266" lon="-3.78972">
        <ele>246</ele>
        <time>2020-06-08T08:48:21Z</time>
      </trkpt>
      <trkpt lat="48.08268" lon="-3.78968">
        <ele>246</ele>
        <time>2020-06-08T08:48:22Z</time>
      </trkpt>
      <trkpt lat="48.08271" lon="-3.78965">
        <ele>245.9</ele>
        <time>2020-06-08T08:48:23Z</time>
      </trkpt>
      <trkpt lat="48.08273" lon="-3.78961">
        <ele>245.9</ele>
        <time>2020-06-08T08:48:24Z</time>
      </trkpt>
      <trkpt lat="48.08276" lon="-3.78957">
        <ele>245.9</ele>
        <time>2020-06-08T08:48:25Z</time>
      </trkpt>
      <trkpt lat="48.08279" lon="-3.78954">
        <ele>245.9</ele>
        <time>2020-06-08T08:48:26Z</time>
      </trkpt>
      <trkpt lat="48.08282" lon="-3.7895">
        <ele>245.9</ele>
        <time>2020-06-08T08:48:27Z</time>
      </trkpt>
      <trkpt lat="48.08285" lon="-3.78945">
        <ele>245.9</ele>
        <time>2020-06-08T08:48:28Z</time>
      </trkpt>
      <trkpt lat="48.08287" lon="-3.78943">
        <ele>245.9</ele>
        <time>2020-06-08T08:48:29Z</time>
      </trkpt>
      <trkpt lat="48.0829" lon="-3.78939">
        <ele>245.9</ele>
        <time>2020-06-08T08:48:30Z</time>
      </trkpt>
      <trkpt lat="48.08293" lon="-3.78936">
        <ele>245.9</ele>
        <time>2020-06-08T08:48:31Z</time>
      </trkpt>
      <trkpt lat="48.08295" lon="-3.78932">
        <ele>245.9</ele>
        <time>2020-06-08T08:48:32Z</time>
      </trkpt>
      <trkpt lat="48.08298" lon="-3.78929">
        <ele>245.9</ele>
        <time>2020-06-08T08:48:33Z</time>
      </trkpt>
      <trkpt lat="48.083" lon="-3.78924">
        <ele>245.9</ele>
        <time>2020-06-08T08:48:34Z</time>
      </trkpt>
      <trkpt lat="48.08303" lon="-3.78919">
        <ele>245.9</ele>
        <time>2020-06-08T08:48:35Z</time>
      </trkpt>
      <trkpt lat="48.08306" lon="-3.78915">
        <ele>245.9</ele>
        <time>2020-06-08T08:48:36Z</time>
      </trkpt>
      <trkpt lat="48.08309" lon="-3.7891">
        <ele>245.9</ele>
        <time>2020-06-08T08:48:37Z</time>
      </trkpt>
      <trkpt lat="48.08312" lon="-3.78907">
        <ele>245.8</ele>
        <time>2020-06-08T08:48:38Z</time>
      </trkpt>
      <trkpt lat="48.08315" lon="-3.78903">
        <ele>245.8</ele>
        <time>2020-06-08T08:48:39Z</time>
      </trkpt>
      <trkpt lat="48.08317" lon="-3.78899">
        <ele>245.8</ele>
        <time>2020-06-08T08:48:40Z</time>
      </trkpt>
      <trkpt lat="48.0832" lon="-3.78895">
        <ele>245.7</ele>
        <time>2020-06-08T08:48:41Z</time>
      </trkpt>
      <trkpt lat="48.08322" lon="-3.78892">
        <ele>245.7</ele>
        <time>2020-06-08T08:48:42Z</time>
      </trkpt>
      <trkpt lat="48.08325" lon="-3.78887">
        <ele>245.7</ele>
        <time>2020-06-08T08:48:43Z</time>
      </trkpt>
      <trkpt lat="48.08328" lon="-3.78883">
        <ele>245.7</ele>
        <time>2020-06-08T08:48:44Z</time>
      </trkpt>
      <trkpt lat="48.08331" lon="-3.78878">
        <ele>245.6</ele>
        <time>2020-06-08T08:48:45Z</time>
      </trkpt>
      <trkpt lat="48.08334" lon="-3.78873">
        <ele>245.6</ele>
        <time>2020-06-08T08:48:46Z</time>
      </trkpt>
      <trkpt lat="48.08336" lon="-3.78868">
        <ele>245.5</ele>
        <time>2020-06-08T08:48:47Z</time>
      </trkpt>
      <trkpt lat="48.08339" lon="-3.78863">
        <ele>245.5</ele>
        <time>2020-06-08T08:48:48Z</time>
      </trkpt>
      <trkpt lat="48.08343" lon="-3.78858">
        <ele>245.4</ele>
        <time>2020-06-08T08:48:49Z</time>
      </trkpt>
      <trkpt lat="48.08346" lon="-3.78852">
        <ele>245.3</ele>
        <time>2020-06-08T08:48:50Z</time>
      </trkpt>
      <trkpt lat="48.08349" lon="-3.78847">
        <ele>245.2</ele>
        <time>2020-06-08T08:48:51Z</time>
      </trkpt>
      <trkpt lat="48.08351" lon="-3.78841">
        <ele>245.1</ele>
        <time>2020-06-08T08:48:52Z</time>
      </trkpt>
      <trkpt lat="48.08354" lon="-3.78836">
        <ele>244.9</ele>
        <time>2020-06-08T08:48:53Z</time>
      </trkpt>
      <trkpt lat="48.08357" lon="-3.78831">
        <ele>244.8</ele>
        <time>2020-06-08T08:48:54Z</time>
      </trkpt>
      <trkpt lat="48.0836" lon="-3.78825">
        <ele>244.8</ele>
        <time>2020-06-08T08:48:55Z</time>
      </trkpt>
      <trkpt lat="48.08364" lon="-3.78819">
        <ele>244.7</ele>
        <time>2020-06-08T08:48:56Z</time>
      </trkpt>
      <trkpt lat="48.08367" lon="-3.78814">
        <ele>244.6</ele>
        <time>2020-06-08T08:48:57Z</time>
      </trkpt>
      <trkpt lat="48.08371" lon="-3.78808">
        <ele>244.5</ele>
        <time>2020-06-08T08:48:58Z</time>
      </trkpt>
      <trkpt lat="48.08374" lon="-3.78802">
        <ele>244.4</ele>
        <time>2020-06-08T08:48:59Z</time>
      </trkpt>
      <trkpt lat="48.08378" lon="-3.78796">
        <ele>244.3</ele>
        <time>2020-06-08T08:49:00Z</time>
      </trkpt>
      <trkpt lat="48.08382" lon="-3.78793">
        <ele>244.2</ele>
        <time>2020-06-08T08:49:01Z</time>
      </trkpt>
      <trkpt lat="48.08386" lon="-3.78794">
        <ele>244.1</ele>
        <time>2020-06-08T08:49:02Z</time>
      </trkpt>
      <trkpt lat="48.08389" lon="-3.78797">
        <ele>243.9</ele>
        <time>2020-06-08T08:49:03Z</time>
      </trkpt>
      <trkpt lat="48.08392" lon="-3.788">
        <ele>243.7</ele>
        <time>2020-06-08T08:49:04Z</time>
      </trkpt>
      <trkpt lat="48.08395" lon="-3.78805">
        <ele>243.5</ele>
        <time>2020-06-08T08:49:05Z</time>
      </trkpt>
      <trkpt lat="48.08398" lon="-3.78808">
        <ele>243.4</ele>
        <time>2020-06-08T08:49:06Z</time>
      </trkpt>
      <trkpt lat="48.08401" lon="-3.7881">
        <ele>243.2</ele>
        <time>2020-06-08T08:49:07Z</time>
      </trkpt>
      <trkpt lat="48.08403" lon="-3.78812">
        <ele>243.1</ele>
        <time>2020-06-08T08:49:08Z</time>
      </trkpt>
      <trkpt lat="48.08406" lon="-3.78815">
        <ele>242.9</ele>
        <time>2020-06-08T08:49:09Z</time>
      </trkpt>
      <trkpt lat="48.0841" lon="-3.78819">
        <ele>242.7</ele>
        <time>2020-06-08T08:49:10Z</time>
      </trkpt>
      <trkpt lat="48.08414" lon="-3.78822">
        <ele>242.4</ele>
        <time>2020-06-08T08:49:11Z</time>
      </trkpt>
      <trkpt lat="48.08419" lon="-3.78825">
        <ele>242.2</ele>
        <time>2020-06-08T08:49:12Z</time>
      </trkpt>
      <trkpt lat="48.08423" lon="-3.78827">
        <ele>241.9</ele>
        <time>2020-06-08T08:49:13Z</time>
      </trkpt>
      <trkpt lat="48.08428" lon="-3.78828">
        <ele>241.6</ele>
        <time>2020-06-08T08:49:14Z</time>
      </trkpt>
      <trkpt lat="48.08432" lon="-3.78831">
        <ele>241.3</ele>
        <time>2020-06-08T08:49:15Z</time>
      </trkpt>
      <trkpt lat="48.08437" lon="-3.78834">
        <ele>241</ele>
        <time>2020-06-08T08:49:16Z</time>
      </trkpt>
      <trkpt lat="48.08442" lon="-3.78836">
        <ele>240.7</ele>
        <time>2020-06-08T08:49:17Z</time>
      </trkpt>
      <trkpt lat="48.08447" lon="-3.78838">
        <ele>240.4</ele>
        <time>2020-06-08T08:49:18Z</time>
      </trkpt>
      <trkpt lat="48.08454" lon="-3.78839">
        <ele>240</ele>
        <time>2020-06-08T08:49:19Z</time>
      </trkpt>
      <trkpt lat="48.08461" lon="-3.78842">
        <ele>239.6</ele>
        <time>2020-06-08T08:49:20Z</time>
      </trkpt>
      <trkpt lat="48.08469" lon="-3.78843">
        <ele>239.1</ele>
        <time>2020-06-08T08:49:21Z</time>
      </trkpt>
      <trkpt lat="48.08479" lon="-3.78849">
        <ele>238.3</ele>
        <time>2020-06-08T08:49:22Z</time>
      </trkpt>
      <trkpt lat="48.08488" lon="-3.78852">
        <ele>237.6</ele>
        <time>2020-06-08T08:49:23Z</time>
      </trkpt>
      <trkpt lat="48.08497" lon="-3.78855">
        <ele>236.3</ele>
        <time>2020-06-08T08:49:24Z</time>
      </trkpt>
      <trkpt lat="48.08506" lon="-3.78858">
        <ele>235.4</ele>
        <time>2020-06-08T08:49:25Z</time>
      </trkpt>
      <trkpt lat="48.08516" lon="-3.78861">
        <ele>234.4</ele>
        <time>2020-06-08T08:49:26Z</time>
      </trkpt>
      <trkpt lat="48.08526" lon="-3.78863">
        <ele>233.5</ele>
        <time>2020-06-08T08:49:27Z</time>
      </trkpt>
      <trkpt lat="48.08536" lon="-3.78866">
        <ele>232.4</ele>
        <time>2020-06-08T08:49:28Z</time>
      </trkpt>
      <trkpt lat="48.08546" lon="-3.78868">
        <ele>231.4</ele>
        <time>2020-06-08T08:49:29Z</time>
      </trkpt>
      <trkpt lat="48.08556" lon="-3.78868">
        <ele>230.4</ele>
        <time>2020-06-08T08:49:30Z</time>
      </trkpt>
      <trkpt lat="48.08567" lon="-3.78868">
        <ele>229.5</ele>
        <time>2020-06-08T08:49:31Z</time>
      </trkpt>
      <trkpt lat="48.08578" lon="-3.78867">
        <ele>228.5</ele>
        <time>2020-06-08T08:49:32Z</time>
      </trkpt>
      <trkpt lat="48.08588" lon="-3.78868">
        <ele>227.6</ele>
        <time>2020-06-08T08:49:33Z</time>
      </trkpt>
      <trkpt lat="48.086" lon="-3.78867">
        <ele>226.7</ele>
        <time>2020-06-08T08:49:34Z</time>
      </trkpt>
      <trkpt lat="48.08611" lon="-3.78865">
        <ele>225.7</ele>
        <time>2020-06-08T08:49:35Z</time>
      </trkpt>
      <trkpt lat="48.08623" lon="-3.78863">
        <ele>224.8</ele>
        <time>2020-06-08T08:49:36Z</time>
      </trkpt>
      <trkpt lat="48.08635" lon="-3.7886">
        <ele>223.9</ele>
        <time>2020-06-08T08:49:37Z</time>
      </trkpt>
      <trkpt lat="48.08647" lon="-3.78857">
        <ele>222.9</ele>
        <time>2020-06-08T08:49:38Z</time>
      </trkpt>
      <trkpt lat="48.0866" lon="-3.78854">
        <ele>221.9</ele>
        <time>2020-06-08T08:49:39Z</time>
      </trkpt>
      <trkpt lat="48.08672" lon="-3.78851">
        <ele>221</ele>
        <time>2020-06-08T08:49:40Z</time>
      </trkpt>
      <trkpt lat="48.08684" lon="-3.78847">
        <ele>220.3</ele>
        <time>2020-06-08T08:49:41Z</time>
      </trkpt>
      <trkpt lat="48.08695" lon="-3.78843">
        <ele>219.6</ele>
        <time>2020-06-08T08:49:42Z</time>
      </trkpt>
      <trkpt lat="48.08707" lon="-3.78838">
        <ele>218.9</ele>
        <time>2020-06-08T08:49:43Z</time>
      </trkpt>
      <trkpt lat="48.08719" lon="-3.78835">
        <ele>218.2</ele>
        <time>2020-06-08T08:49:44Z</time>
      </trkpt>
      <trkpt lat="48.0873" lon="-3.78831">
        <ele>217.6</ele>
        <time>2020-06-08T08:49:45Z</time>
      </trkpt>
      <trkpt lat="48.08742" lon="-3.78827">
        <ele>217</ele>
        <time>2020-06-08T08:49:46Z</time>
      </trkpt>
      <trkpt lat="48.08754" lon="-3.78823">
        <ele>216.5</ele>
        <time>2020-06-08T08:49:47Z</time>
      </trkpt>
      <trkpt lat="48.08765" lon="-3.78819">
        <ele>216</ele>
        <time>2020-06-08T08:49:48Z</time>
      </trkpt>
      <trkpt lat="48.08777" lon="-3.78815">
        <ele>215.5</ele>
        <time>2020-06-08T08:49:49Z</time>
      </trkpt>
      <trkpt lat="48.08789" lon="-3.78811">
        <ele>215</ele>
        <time>2020-06-08T08:49:50Z</time>
      </trkpt>
      <trkpt lat="48.08801" lon="-3.78808">
        <ele>214.4</ele>
        <time>2020-06-08T08:49:51Z</time>
      </trkpt>
      <trkpt lat="48.08812" lon="-3.78804">
        <ele>213.9</ele>
        <time>2020-06-08T08:49:52Z</time>
      </trkpt>
      <trkpt lat="48.08824" lon="-3.788">
        <ele>213.4</ele>
        <time>2020-06-08T08:49:53Z</time>
      </trkpt>
      <trkpt lat="48.08836" lon="-3.78797">
        <ele>212.8</ele>
        <time>2020-06-08T08:49:54Z</time>
      </trkpt>
      <trkpt lat="48.08847" lon="-3.78793">
        <ele>211.7</ele>
        <time>2020-06-08T08:49:55Z</time>
      </trkpt>
      <trkpt lat="48.08859" lon="-3.78788">
        <ele>211</ele>
        <time>2020-06-08T08:49:56Z</time>
      </trkpt>
      <trkpt lat="48.08871" lon="-3.78783">
        <ele>210.4</ele>
        <time>2020-06-08T08:49:57Z</time>
      </trkpt>
      <trkpt lat="48.08882" lon="-3.78777">
        <ele>209.9</ele>
        <time>2020-06-08T08:49:58Z</time>
      </trkpt>
      <trkpt lat="48.08893" lon="-3.78769">
        <ele>209.4</ele>
        <time>2020-06-08T08:49:59Z</time>
      </trkpt>
      <trkpt lat="48.08904" lon="-3.78761">
        <ele>209</ele>
        <time>2020-06-08T08:50:00Z</time>
      </trkpt>
      <trkpt lat="48.08914" lon="-3.78751">
        <ele>208.6</ele>
        <time>2020-06-08T08:50:01Z</time>
      </trkpt>
      <trkpt lat="48.08924" lon="-3.78741">
        <ele>208.1</ele>
        <time>2020-06-08T08:50:02Z</time>
      </trkpt>
      <trkpt lat="48.08934" lon="-3.78733">
        <ele>207.6</ele>
        <time>2020-06-08T08:50:03Z</time>
      </trkpt>
      <trkpt lat="48.08945" lon="-3.78727">
        <ele>207.1</ele>
        <time>2020-06-08T08:50:04Z</time>
      </trkpt>
      <trkpt lat="48.08956" lon="-3.78722">
        <ele>206.4</ele>
        <time>2020-06-08T08:50:05Z</time>
      </trkpt>
      <trkpt lat="48.08966" lon="-3.78716">
        <ele>205.8</ele>
        <time>2020-06-08T08:50:06Z</time>
      </trkpt>
      <trkpt lat="48.08978" lon="-3.78713">
        <ele>205.2</ele>
        <time>2020-06-08T08:50:07Z</time>
      </trkpt>
      <trkpt lat="48.08989" lon="-3.7871">
        <ele>204.5</ele>
        <time>2020-06-08T08:50:08Z</time>
      </trkpt>
      <trkpt lat="48.09001" lon="-3.78709">
        <ele>203.8</ele>
        <time>2020-06-08T08:50:09Z</time>
      </trkpt>
      <trkpt lat="48.09014" lon="-3.7871">
        <ele>203.2</ele>
        <time>2020-06-08T08:50:10Z</time>
      </trkpt>
      <trkpt lat="48.09026" lon="-3.78711">
        <ele>202.5</ele>
        <time>2020-06-08T08:50:11Z</time>
      </trkpt>
      <trkpt lat="48.09038" lon="-3.78713">
        <ele>201.7</ele>
        <time>2020-06-08T08:50:12Z</time>
      </trkpt>
      <trkpt lat="48.09052" lon="-3.78714">
        <ele>200.7</ele>
        <time>2020-06-08T08:50:13Z</time>
      </trkpt>
      <trkpt lat="48.09065" lon="-3.78715">
        <ele>199.7</ele>
        <time>2020-06-08T08:50:14Z</time>
      </trkpt>
      <trkpt lat="48.09078" lon="-3.78715">
        <ele>198.5</ele>
        <time>2020-06-08T08:50:15Z</time>
      </trkpt>
      <trkpt lat="48.09092" lon="-3.78714">
        <ele>197</ele>
        <time>2020-06-08T08:50:16Z</time>
      </trkpt>
      <trkpt lat="48.09106" lon="-3.78713">
        <ele>195.4</ele>
        <time>2020-06-08T08:50:17Z</time>
      </trkpt>
      <trkpt lat="48.0912" lon="-3.78711">
        <ele>193.8</ele>
        <time>2020-06-08T08:50:18Z</time>
      </trkpt>
      <trkpt lat="48.09134" lon="-3.78706">
        <ele>192.2</ele>
        <time>2020-06-08T08:50:19Z</time>
      </trkpt>
      <trkpt lat="48.09148" lon="-3.78701">
        <ele>190.7</ele>
        <time>2020-06-08T08:50:20Z</time>
      </trkpt>
      <trkpt lat="48.09163" lon="-3.78695">
        <ele>189.2</ele>
        <time>2020-06-08T08:50:21Z</time>
      </trkpt>
      <trkpt lat="48.09177" lon="-3.78689">
        <ele>187.8</ele>
        <time>2020-06-08T08:50:22Z</time>
      </trkpt>
      <trkpt lat="48.09191" lon="-3.78683">
        <ele>186.4</ele>
        <time>2020-06-08T08:50:23Z</time>
      </trkpt>
      <trkpt lat="48.09206" lon="-3.78677">
        <ele>184.8</ele>
        <time>2020-06-08T08:50:24Z</time>
      </trkpt>
      <trkpt lat="48.09221" lon="-3.78672">
        <ele>183.5</ele>
        <time>2020-06-08T08:50:25Z</time>
      </trkpt>
      <trkpt lat="48.09236" lon="-3.78667">
        <ele>182.1</ele>
        <time>2020-06-08T08:50:26Z</time>
      </trkpt>
      <trkpt lat="48.09251" lon="-3.78661">
        <ele>180.7</ele>
        <time>2020-06-08T08:50:27Z</time>
      </trkpt>
      <trkpt lat="48.09266" lon="-3.78656">
        <ele>179.3</ele>
        <time>2020-06-08T08:50:28Z</time>
      </trkpt>
      <trkpt lat="48.09281" lon="-3.7865">
        <ele>178</ele>
        <time>2020-06-08T08:50:29Z</time>
      </trkpt>
      <trkpt lat="48.09296" lon="-3.78644">
        <ele>176.5</ele>
        <time>2020-06-08T08:50:30Z</time>
      </trkpt>
      <trkpt lat="48.09312" lon="-3.78637">
        <ele>175.1</ele>
        <time>2020-06-08T08:50:31Z</time>
      </trkpt>
      <trkpt lat="48.0933" lon="-3.78631">
        <ele>173.4</ele>
        <time>2020-06-08T08:50:32Z</time>
      </trkpt>
      <trkpt lat="48.09346" lon="-3.78627">
        <ele>172</ele>
        <time>2020-06-08T08:50:33Z</time>
      </trkpt>
      <trkpt lat="48.09361" lon="-3.78626">
        <ele>170.5</ele>
        <time>2020-06-08T08:50:34Z</time>
      </trkpt>
      <trkpt lat="48.09376" lon="-3.78623">
        <ele>169.1</ele>
        <time>2020-06-08T08:50:35Z</time>
      </trkpt>
      <trkpt lat="48.09391" lon="-3.78626">
        <ele>167.8</ele>
        <time>2020-06-08T08:50:36Z</time>
      </trkpt>
      <trkpt lat="48.09406" lon="-3.78629">
        <ele>166.6</ele>
        <time>2020-06-08T08:50:37Z</time>
      </trkpt>
      <trkpt lat="48.0942" lon="-3.78633">
        <ele>165.5</ele>
        <time>2020-06-08T08:50:38Z</time>
      </trkpt>
      <trkpt lat="48.09435" lon="-3.78637">
        <ele>164.4</ele>
        <time>2020-06-08T08:50:39Z</time>
      </trkpt>
      <trkpt lat="48.0945" lon="-3.78643">
        <ele>163.4</ele>
        <time>2020-06-08T08:50:40Z</time>
      </trkpt>
      <trkpt lat="48.09464" lon="-3.78651">
        <ele>162.6</ele>
        <time>2020-06-08T08:50:41Z</time>
      </trkpt>
      <trkpt lat="48.09478" lon="-3.78657">
        <ele>161.9</ele>
        <time>2020-06-08T08:50:42Z</time>
      </trkpt>
      <trkpt lat="48.09493" lon="-3.7866">
        <ele>160.9</ele>
        <time>2020-06-08T08:50:43Z</time>
      </trkpt>
      <trkpt lat="48.09505" lon="-3.78654">
        <ele>159.7</ele>
        <time>2020-06-08T08:50:44Z</time>
      </trkpt>
      <trkpt lat="48.09518" lon="-3.78658">
        <ele>159.1</ele>
        <time>2020-06-08T08:50:45Z</time>
      </trkpt>
      <trkpt lat="48.09531" lon="-3.78654">
        <ele>158.6</ele>
        <time>2020-06-08T08:50:46Z</time>
      </trkpt>
      <trkpt lat="48.09543" lon="-3.7865">
        <ele>158.3</ele>
        <time>2020-06-08T08:50:47Z</time>
      </trkpt>
      <trkpt lat="48.09555" lon="-3.78642">
        <ele>157.9</ele>
        <time>2020-06-08T08:50:48Z</time>
      </trkpt>
      <trkpt lat="48.09566" lon="-3.78631">
        <ele>157.5</ele>
        <time>2020-06-08T08:50:49Z</time>
      </trkpt>
      <trkpt lat="48.09575" lon="-3.78621">
        <ele>157.2</ele>
        <time>2020-06-08T08:50:50Z</time>
      </trkpt>
      <trkpt lat="48.09585" lon="-3.78612">
        <ele>156.8</ele>
        <time>2020-06-08T08:50:51Z</time>
      </trkpt>
      <trkpt lat="48.09594" lon="-3.78602">
        <ele>156.4</ele>
        <time>2020-06-08T08:50:52Z</time>
      </trkpt>
      <trkpt lat="48.09602" lon="-3.78593">
        <ele>156</ele>
        <time>2020-06-08T08:50:53Z</time>
      </trkpt>
      <trkpt lat="48.09611" lon="-3.78584">
        <ele>155.6</ele>
        <time>2020-06-08T08:50:54Z</time>
      </trkpt>
      <trkpt lat="48.09618" lon="-3.78574">
        <ele>155.2</ele>
        <time>2020-06-08T08:50:55Z</time>
      </trkpt>
      <trkpt lat="48.09625" lon="-3.78565">
        <ele>154.8</ele>
        <time>2020-06-08T08:50:56Z</time>
      </trkpt>
      <trkpt lat="48.09632" lon="-3.78555">
        <ele>154.4</ele>
        <time>2020-06-08T08:50:57Z</time>
      </trkpt>
      <trkpt lat="48.0964" lon="-3.78547">
        <ele>154</ele>
        <time>2020-06-08T08:50:58Z</time>
      </trkpt>
      <trkpt lat="48.09646" lon="-3.78536">
        <ele>153.5</ele>
        <time>2020-06-08T08:50:59Z</time>
      </trkpt>
      <trkpt lat="48.09653" lon="-3.78528">
        <ele>153</ele>
        <time>2020-06-08T08:51:00Z</time>
      </trkpt>
      <trkpt lat="48.0966" lon="-3.78521">
        <ele>152.7</ele>
        <time>2020-06-08T08:51:01Z</time>
      </trkpt>
      <trkpt lat="48.09668" lon="-3.78515">
        <ele>152.5</ele>
        <time>2020-06-08T08:51:02Z</time>
      </trkpt>
      <trkpt lat="48.09676" lon="-3.78511">
        <ele>152.3</ele>
        <time>2020-06-08T08:51:03Z</time>
      </trkpt>
      <trkpt lat="48.09684" lon="-3.78512">
        <ele>152.3</ele>
        <time>2020-06-08T08:51:04Z</time>
      </trkpt>
      <trkpt lat="48.09693" lon="-3.78511">
        <ele>152.3</ele>
        <time>2020-06-08T08:51:05Z</time>
      </trkpt>
      <trkpt lat="48.09702" lon="-3.78513">
        <ele>152.4</ele>
        <time>2020-06-08T08:51:06Z</time>
      </trkpt>
      <trkpt lat="48.09709" lon="-3.78513">
        <ele>152.6</ele>
        <time>2020-06-08T08:51:07Z</time>
      </trkpt>
      <trkpt lat="48.09718" lon="-3.78512">
        <ele>153</ele>
        <time>2020-06-08T08:51:08Z</time>
      </trkpt>
      <trkpt lat="48.09725" lon="-3.7851">
        <ele>153.5</ele>
        <time>2020-06-08T08:51:09Z</time>
      </trkpt>
      <trkpt lat="48.09732" lon="-3.78512">
        <ele>154</ele>
        <time>2020-06-08T08:51:10Z</time>
      </trkpt>
      <trkpt lat="48.0974" lon="-3.78514">
        <ele>154.8</ele>
        <time>2020-06-08T08:51:11Z</time>
      </trkpt>
      <trkpt lat="48.09745" lon="-3.78516">
        <ele>155.3</ele>
        <time>2020-06-08T08:51:12Z</time>
      </trkpt>
      <trkpt lat="48.0975" lon="-3.7852">
        <ele>155.8</ele>
        <time>2020-06-08T08:51:13Z</time>
      </trkpt>
      <trkpt lat="48.09755" lon="-3.78522">
        <ele>156.3</ele>
        <time>2020-06-08T08:51:14Z</time>
      </trkpt>
      <trkpt lat="48.09759" lon="-3.78523">
        <ele>156.7</ele>
        <time>2020-06-08T08:51:15Z</time>
      </trkpt>
      <trkpt lat="48.09762" lon="-3.78526">
        <ele>157.1</ele>
        <time>2020-06-08T08:51:16Z</time>
      </trkpt>
      <trkpt lat="48.09765" lon="-3.78525">
        <ele>157.5</ele>
        <time>2020-06-08T08:51:17Z</time>
      </trkpt>
      <trkpt lat="48.09767" lon="-3.78529">
        <ele>157.8</ele>
        <time>2020-06-08T08:51:18Z</time>
      </trkpt>
      <trkpt lat="48.09768" lon="-3.7853">
        <ele>158</ele>
        <time>2020-06-08T08:51:19Z</time>
      </trkpt>
      <trkpt lat="48.09771" lon="-3.78533">
        <ele>158.3</ele>
        <time>2020-06-08T08:51:20Z</time>
      </trkpt>
      <trkpt lat="48.09773" lon="-3.78535">
        <ele>158.6</ele>
        <time>2020-06-08T08:51:21Z</time>
      </trkpt>
      <trkpt lat="48.09776" lon="-3.78535">
        <ele>158.9</ele>
        <time>2020-06-08T08:51:22Z</time>
      </trkpt>
      <trkpt lat="48.09777" lon="-3.78533">
        <ele>159</ele>
        <time>2020-06-08T08:51:23Z</time>
      </trkpt>
      <trkpt lat="48.09778" lon="-3.78532">
        <ele>159</ele>
        <time>2020-06-08T08:51:24Z</time>
      </trkpt>
      <trkpt lat="48.09779" lon="-3.78534">
        <ele>159.1</ele>
        <time>2020-06-08T08:51:25Z</time>
      </trkpt>
      <trkpt lat="48.0978" lon="-3.78536">
        <ele>159.2</ele>
        <time>2020-06-08T08:51:26Z</time>
      </trkpt>
      <trkpt lat="48.09782" lon="-3.7854">
        <ele>159.3</ele>
        <time>2020-06-08T08:51:27Z</time>
      </trkpt>
      <trkpt lat="48.09783" lon="-3.78541">
        <ele>159.3</ele>
        <time>2020-06-08T08:51:28Z</time>
      </trkpt>
      <trkpt lat="48.09787" lon="-3.78538">
        <ele>159.3</ele>
        <time>2020-06-08T08:51:29Z</time>
      </trkpt>
      <trkpt lat="48.0979" lon="-3.78538">
        <ele>160.3</ele>
        <time>2020-06-08T08:51:30Z</time>
      </trkpt>
      <trkpt lat="48.0979" lon="-3.78539">
        <ele>160.4</ele>
        <time>2020-06-08T08:51:31Z</time>
      </trkpt>
      <trkpt lat="48.09793" lon="-3.78539">
        <ele>160.8</ele>
        <time>2020-06-08T08:51:32Z</time>
      </trkpt>
      <trkpt lat="48.09794" lon="-3.78539">
        <ele>160.9</ele>
        <time>2020-06-08T08:51:33Z</time>
      </trkpt>
      <trkpt lat="48.09797" lon="-3.78538">
        <ele>161.4</ele>
        <time>2020-06-08T08:51:34Z</time>
      </trkpt>
      <trkpt lat="48.09798" lon="-3.78538">
        <ele>161.6</ele>
        <time>2020-06-08T08:51:35Z</time>
      </trkpt>
      <trkpt lat="48.098" lon="-3.78537">
        <ele>161.8</ele>
        <time>2020-06-08T08:51:36Z</time>
      </trkpt>
      <trkpt lat="48.098" lon="-3.78535">
        <ele>162</ele>
        <time>2020-06-08T08:51:37Z</time>
      </trkpt>
      <trkpt lat="48.09802" lon="-3.78534">
        <ele>162.3</ele>
        <time>2020-06-08T08:51:38Z</time>
      </trkpt>
      <trkpt lat="48.09805" lon="-3.78535">
        <ele>162.8</ele>
        <time>2020-06-08T08:51:39Z</time>
      </trkpt>
      <trkpt lat="48.09806" lon="-3.78535">
        <ele>162.9</ele>
        <time>2020-06-08T08:51:40Z</time>
      </trkpt>
      <trkpt lat="48.09809" lon="-3.78536">
        <ele>163.4</ele>
        <time>2020-06-08T08:51:41Z</time>
      </trkpt>
      <trkpt lat="48.0981" lon="-3.78535">
        <ele>163.6</ele>
        <time>2020-06-08T08:51:42Z</time>
      </trkpt>
      <trkpt lat="48.09814" lon="-3.78536">
        <ele>164.1</ele>
        <time>2020-06-08T08:51:43Z</time>
      </trkpt>
      <trkpt lat="48.09815" lon="-3.78537">
        <ele>164.3</ele>
        <time>2020-06-08T08:51:44Z</time>
      </trkpt>
      <trkpt lat="48.09818" lon="-3.78536">
        <ele>164.7</ele>
        <time>2020-06-08T08:51:45Z</time>
      </trkpt>
      <trkpt lat="48.09819" lon="-3.78536">
        <ele>164.8</ele>
        <time>2020-06-08T08:51:46Z</time>
      </trkpt>
      <trkpt lat="48.09821" lon="-3.78537">
        <ele>165.1</ele>
        <time>2020-06-08T08:51:47Z</time>
      </trkpt>
      <trkpt lat="48.09821" lon="-3.78537">
        <ele>165.2</ele>
        <time>2020-06-08T08:51:48Z</time>
      </trkpt>
      <trkpt lat="48.09822" lon="-3.78538">
        <ele>165.3</ele>
        <time>2020-06-08T08:51:49Z</time>
      </trkpt>
      <trkpt lat="48.09824" lon="-3.78538">
        <ele>165.5</ele>
        <time>2020-06-08T08:51:50Z</time>
      </trkpt>
      <trkpt lat="48.09825" lon="-3.78537">
        <ele>165.7</ele>
        <time>2020-06-08T08:51:51Z</time>
      </trkpt>
      <trkpt lat="48.09826" lon="-3.78537">
        <ele>165.8</ele>
        <time>2020-06-08T08:51:52Z</time>
      </trkpt>
      <trkpt lat="48.09829" lon="-3.78536">
        <ele>166.2</ele>
        <time>2020-06-08T08:51:53Z</time>
      </trkpt>
      <trkpt lat="48.0983" lon="-3.78536">
        <ele>166.3</ele>
        <time>2020-06-08T08:51:54Z</time>
      </trkpt>
      <trkpt lat="48.09833" lon="-3.78535">
        <ele>166.8</ele>
        <time>2020-06-08T08:51:55Z</time>
      </trkpt>
      <trkpt lat="48.09834" lon="-3.78535">
        <ele>166.9</ele>
        <time>2020-06-08T08:51:56Z</time>
      </trkpt>
      <trkpt lat="48.09836" lon="-3.78535">
        <ele>167.2</ele>
        <time>2020-06-08T08:51:57Z</time>
      </trkpt>
      <trkpt lat="48.09837" lon="-3.78535">
        <ele>167.3</ele>
        <time>2020-06-08T08:51:58Z</time>
      </trkpt>
      <trkpt lat="48.09839" lon="-3.78534">
        <ele>167.5</ele>
        <time>2020-06-08T08:51:59Z</time>
      </trkpt>
      <trkpt lat="48.0984" lon="-3.78534">
        <ele>167.7</ele>
        <time>2020-06-08T08:52:00Z</time>
      </trkpt>
      <trkpt lat="48.09842" lon="-3.78533">
        <ele>167.9</ele>
        <time>2020-06-08T08:52:01Z</time>
      </trkpt>
      <trkpt lat="48.09843" lon="-3.78533">
        <ele>168.1</ele>
        <time>2020-06-08T08:52:02Z</time>
      </trkpt>
      <trkpt lat="48.09845" lon="-3.78533">
        <ele>168.4</ele>
        <time>2020-06-08T08:52:03Z</time>
      </trkpt>
      <trkpt lat="48.09847" lon="-3.78532">
        <ele>168.5</ele>
        <time>2020-06-08T08:52:04Z</time>
      </trkpt>
      <trkpt lat="48.09848" lon="-3.78532">
        <ele>168.7</ele>
        <time>2020-06-08T08:52:05Z</time>
      </trkpt>
      <trkpt lat="48.09849" lon="-3.78531">
        <ele>168.8</ele>
        <time>2020-06-08T08:52:06Z</time>
      </trkpt>
      <trkpt lat="48.09851" lon="-3.7853">
        <ele>169.1</ele>
        <time>2020-06-08T08:52:07Z</time>
      </trkpt>
      <trkpt lat="48.09853" lon="-3.78529">
        <ele>169.4</ele>
        <time>2020-06-08T08:52:08Z</time>
      </trkpt>
      <trkpt lat="48.09854" lon="-3.78529">
        <ele>169.5</ele>
        <time>2020-06-08T08:52:09Z</time>
      </trkpt>
      <trkpt lat="48.09855" lon="-3.78529">
        <ele>169.7</ele>
        <time>2020-06-08T08:52:10Z</time>
      </trkpt>
      <trkpt lat="48.09857" lon="-3.78529">
        <ele>169.9</ele>
        <time>2020-06-08T08:52:11Z</time>
      </trkpt>
      <trkpt lat="48.09859" lon="-3.78529">
        <ele>170.1</ele>
        <time>2020-06-08T08:52:12Z</time>
      </trkpt>
      <trkpt lat="48.09861" lon="-3.78528">
        <ele>170.3</ele>
        <time>2020-06-08T08:52:13Z</time>
      </trkpt>
      <trkpt lat="48.09864" lon="-3.78527">
        <ele>170.7</ele>
        <time>2020-06-08T08:52:14Z</time>
      </trkpt>
      <trkpt lat="48.09865" lon="-3.78527">
        <ele>170.8</ele>
        <time>2020-06-08T08:52:15Z</time>
      </trkpt>
      <trkpt lat="48.09868" lon="-3.78526">
        <ele>171.2</ele>
        <time>2020-06-08T08:52:16Z</time>
      </trkpt>
      <trkpt lat="48.09869" lon="-3.78525">
        <ele>171.3</ele>
        <time>2020-06-08T08:52:17Z</time>
      </trkpt>
      <trkpt lat="48.09873" lon="-3.78525">
        <ele>171.6</ele>
        <time>2020-06-08T08:52:18Z</time>
      </trkpt>
      <trkpt lat="48.09874" lon="-3.78524">
        <ele>171.7</ele>
        <time>2020-06-08T08:52:19Z</time>
      </trkpt>
      <trkpt lat="48.09875" lon="-3.78524">
        <ele>171.9</ele>
        <time>2020-06-08T08:52:20Z</time>
      </trkpt>
      <trkpt lat="48.09877" lon="-3.78524">
        <ele>172</ele>
        <time>2020-06-08T08:52:21Z</time>
      </trkpt>
      <trkpt lat="48.09879" lon="-3.78524">
        <ele>172.1</ele>
        <time>2020-06-08T08:52:22Z</time>
      </trkpt>
      <trkpt lat="48.0988" lon="-3.78525">
        <ele>172.2</ele>
        <time>2020-06-08T08:52:23Z</time>
      </trkpt>
      <trkpt lat="48.09883" lon="-3.78526">
        <ele>172.3</ele>
        <time>2020-06-08T08:52:24Z</time>
      </trkpt>
      <trkpt lat="48.09884" lon="-3.78526">
        <ele>172.4</ele>
        <time>2020-06-08T08:52:25Z</time>
      </trkpt>
      <trkpt lat="48.09886" lon="-3.78526">
        <ele>172.4</ele>
        <time>2020-06-08T08:52:26Z</time>
      </trkpt>
      <trkpt lat="48.09887" lon="-3.78527">
        <ele>172.5</ele>
        <time>2020-06-08T08:52:27Z</time>
      </trkpt>
      <trkpt lat="48.0989" lon="-3.78527">
        <ele>172.6</ele>
        <time>2020-06-08T08:52:28Z</time>
      </trkpt>
      <trkpt lat="48.09891" lon="-3.78528">
        <ele>172.6</ele>
        <time>2020-06-08T08:52:29Z</time>
      </trkpt>
      <trkpt lat="48.09894" lon="-3.78529">
        <ele>172.6</ele>
        <time>2020-06-08T08:52:30Z</time>
      </trkpt>
      <trkpt lat="48.09895" lon="-3.78529">
        <ele>172.7</ele>
        <time>2020-06-08T08:52:31Z</time>
      </trkpt>
      <trkpt lat="48.09898" lon="-3.7853">
        <ele>172.7</ele>
        <time>2020-06-08T08:52:32Z</time>
      </trkpt>
      <trkpt lat="48.09899" lon="-3.7853">
        <ele>172.8</ele>
        <time>2020-06-08T08:52:33Z</time>
      </trkpt>
      <trkpt lat="48.09901" lon="-3.78531">
        <ele>172.8</ele>
        <time>2020-06-08T08:52:34Z</time>
      </trkpt>
      <trkpt lat="48.09903" lon="-3.78531">
        <ele>172.8</ele>
        <time>2020-06-08T08:52:35Z</time>
      </trkpt>
      <trkpt lat="48.09906" lon="-3.78531">
        <ele>172.8</ele>
        <time>2020-06-08T08:52:36Z</time>
      </trkpt>
      <trkpt lat="48.09907" lon="-3.78532">
        <ele>172.8</ele>
        <time>2020-06-08T08:52:37Z</time>
      </trkpt>
      <trkpt lat="48.09908" lon="-3.78531">
        <ele>172.8</ele>
        <time>2020-06-08T08:52:38Z</time>
      </trkpt>
      <trkpt lat="48.0991" lon="-3.78531">
        <ele>172.8</ele>
        <time>2020-06-08T08:52:39Z</time>
      </trkpt>
      <trkpt lat="48.09913" lon="-3.78532">
        <ele>172.8</ele>
        <time>2020-06-08T08:52:40Z</time>
      </trkpt>
      <trkpt lat="48.09914" lon="-3.78532">
        <ele>172.8</ele>
        <time>2020-06-08T08:52:41Z</time>
      </trkpt>
      <trkpt lat="48.09915" lon="-3.78532">
        <ele>172.8</ele>
        <time>2020-06-08T08:52:42Z</time>
      </trkpt>
      <trkpt lat="48.09916" lon="-3.78533">
        <ele>172.8</ele>
        <time>2020-06-08T08:52:43Z</time>
      </trkpt>
      <trkpt lat="48.09917" lon="-3.78534">
        <ele>172.8</ele>
        <time>2020-06-08T08:52:44Z</time>
      </trkpt>
      <trkpt lat="48.09918" lon="-3.78534">
        <ele>172.7</ele>
        <time>2020-06-08T08:52:45Z</time>
      </trkpt>
      <trkpt lat="48.09919" lon="-3.78535">
        <ele>172.7</ele>
        <time>2020-06-08T08:52:46Z</time>
      </trkpt>
      <trkpt lat="48.0992" lon="-3.78535">
        <ele>172.7</ele>
        <time>2020-06-08T08:52:47Z</time>
      </trkpt>
      <trkpt lat="48.09923" lon="-3.78533">
        <ele>172.7</ele>
        <time>2020-06-08T08:52:48Z</time>
      </trkpt>
      <trkpt lat="48.09924" lon="-3.78532">
        <ele>172.6</ele>
        <time>2020-06-08T08:52:49Z</time>
      </trkpt>
      <trkpt lat="48.09925" lon="-3.78531">
        <ele>172.6</ele>
        <time>2020-06-08T08:52:50Z</time>
      </trkpt>
      <trkpt lat="48.09927" lon="-3.78531">
        <ele>172.6</ele>
        <time>2020-06-08T08:52:51Z</time>
      </trkpt>
      <trkpt lat="48.0993" lon="-3.78532">
        <ele>172.5</ele>
        <time>2020-06-08T08:52:52Z</time>
      </trkpt>
      <trkpt lat="48.09931" lon="-3.78532">
        <ele>172.5</ele>
        <time>2020-06-08T08:52:53Z</time>
      </trkpt>
      <trkpt lat="48.09933" lon="-3.78532">
        <ele>172.5</ele>
        <time>2020-06-08T08:52:54Z</time>
      </trkpt>
      <trkpt lat="48.09934" lon="-3.78532">
        <ele>172.5</ele>
        <time>2020-06-08T08:52:55Z</time>
      </trkpt>
      <trkpt lat="48.09935" lon="-3.78531">
        <ele>172.4</ele>
        <time>2020-06-08T08:52:56Z</time>
      </trkpt>
      <trkpt lat="48.09937" lon="-3.78531">
        <ele>172.4</ele>
        <time>2020-06-08T08:52:57Z</time>
      </trkpt>
      <trkpt lat="48.0994" lon="-3.78531">
        <ele>172.3</ele>
        <time>2020-06-08T08:52:58Z</time>
      </trkpt>
      <trkpt lat="48.09941" lon="-3.78531">
        <ele>172.3</ele>
        <time>2020-06-08T08:52:59Z</time>
      </trkpt>
      <trkpt lat="48.09944" lon="-3.78532">
        <ele>172.2</ele>
        <time>2020-06-08T08:53:00Z</time>
      </trkpt>
      <trkpt lat="48.09945" lon="-3.78532">
        <ele>172.2</ele>
        <time>2020-06-08T08:53:01Z</time>
      </trkpt>
      <trkpt lat="48.09948" lon="-3.78531">
        <ele>172.1</ele>
        <time>2020-06-08T08:53:02Z</time>
      </trkpt>
      <trkpt lat="48.09951" lon="-3.78531">
        <ele>172.1</ele>
        <time>2020-06-08T08:53:03Z</time>
      </trkpt>
      <trkpt lat="48.09954" lon="-3.78531">
        <ele>172</ele>
        <time>2020-06-08T08:53:04Z</time>
      </trkpt>
      <trkpt lat="48.09957" lon="-3.78531">
        <ele>171.9</ele>
        <time>2020-06-08T08:53:05Z</time>
      </trkpt>
      <trkpt lat="48.0996" lon="-3.78533">
        <ele>171.8</ele>
        <time>2020-06-08T08:53:06Z</time>
      </trkpt>
      <trkpt lat="48.09965" lon="-3.78536">
        <ele>171.7</ele>
        <time>2020-06-08T08:53:07Z</time>
      </trkpt>
      <trkpt lat="48.09969" lon="-3.78539">
        <ele>171.5</ele>
        <time>2020-06-08T08:53:08Z</time>
      </trkpt>
      <trkpt lat="48.09973" lon="-3.78543">
        <ele>171.4</ele>
        <time>2020-06-08T08:53:09Z</time>
      </trkpt>
      <trkpt lat="48.09976" lon="-3.78545">
        <ele>171.3</ele>
        <time>2020-06-08T08:53:10Z</time>
      </trkpt>
      <trkpt lat="48.09981" lon="-3.78546">
        <ele>171.2</ele>
        <time>2020-06-08T08:53:11Z</time>
      </trkpt>
      <trkpt lat="48.09985" lon="-3.78546">
        <ele>171.2</ele>
        <time>2020-06-08T08:53:12Z</time>
      </trkpt>
      <trkpt lat="48.09989" lon="-3.78547">
        <ele>171.1</ele>
        <time>2020-06-08T08:53:13Z</time>
      </trkpt>
      <trkpt lat="48.09992" lon="-3.78547">
        <ele>171</ele>
        <time>2020-06-08T08:53:14Z</time>
      </trkpt>
      <trkpt lat="48.09996" lon="-3.78546">
        <ele>171</ele>
        <time>2020-06-08T08:53:15Z</time>
      </trkpt>
      <trkpt lat="48.1" lon="-3.78544">
        <ele>170.9</ele>
        <time>2020-06-08T08:53:16Z</time>
      </trkpt>
      <trkpt lat="48.10003" lon="-3.7854">
        <ele>170.8</ele>
        <time>2020-06-08T08:53:17Z</time>
      </trkpt>
      <trkpt lat="48.10006" lon="-3.78537">
        <ele>170.7</ele>
        <time>2020-06-08T08:53:18Z</time>
      </trkpt>
      <trkpt lat="48.10009" lon="-3.78534">
        <ele>170.6</ele>
        <time>2020-06-08T08:53:19Z</time>
      </trkpt>
      <trkpt lat="48.10012" lon="-3.78531">
        <ele>170.6</ele>
        <time>2020-06-08T08:53:20Z</time>
      </trkpt>
      <trkpt lat="48.10015" lon="-3.78527">
        <ele>170.4</ele>
        <time>2020-06-08T08:53:21Z</time>
      </trkpt>
      <trkpt lat="48.10018" lon="-3.78522">
        <ele>170.3</ele>
        <time>2020-06-08T08:53:22Z</time>
      </trkpt>
      <trkpt lat="48.10021" lon="-3.78519">
        <ele>170.2</ele>
        <time>2020-06-08T08:53:23Z</time>
      </trkpt>
      <trkpt lat="48.10024" lon="-3.78515">
        <ele>170</ele>
        <time>2020-06-08T08:53:24Z</time>
      </trkpt>
      <trkpt lat="48.10026" lon="-3.78511">
        <ele>169.8</ele>
        <time>2020-06-08T08:53:25Z</time>
      </trkpt>
      <trkpt lat="48.10029" lon="-3.78506">
        <ele>169.6</ele>
        <time>2020-06-08T08:53:26Z</time>
      </trkpt>
      <trkpt lat="48.10032" lon="-3.78503">
        <ele>169.3</ele>
        <time>2020-06-08T08:53:27Z</time>
      </trkpt>
      <trkpt lat="48.10035" lon="-3.78499">
        <ele>169.1</ele>
        <time>2020-06-08T08:53:28Z</time>
      </trkpt>
      <trkpt lat="48.10039" lon="-3.78496">
        <ele>168.9</ele>
        <time>2020-06-08T08:53:29Z</time>
      </trkpt>
      <trkpt lat="48.10042" lon="-3.78494">
        <ele>168.6</ele>
        <time>2020-06-08T08:53:30Z</time>
      </trkpt>
      <trkpt lat="48.10047" lon="-3.78496">
        <ele>168.3</ele>
        <time>2020-06-08T08:53:31Z</time>
      </trkpt>
      <trkpt lat="48.10053" lon="-3.78497">
        <ele>167.8</ele>
        <time>2020-06-08T08:53:32Z</time>
      </trkpt>
      <trkpt lat="48.1006" lon="-3.785">
        <ele>167.3</ele>
        <time>2020-06-08T08:53:33Z</time>
      </trkpt>
      <trkpt lat="48.10066" lon="-3.78504">
        <ele>166.7</ele>
        <time>2020-06-08T08:53:34Z</time>
      </trkpt>
      <trkpt lat="48.10073" lon="-3.78509">
        <ele>166</ele>
        <time>2020-06-08T08:53:35Z</time>
      </trkpt>
      <trkpt lat="48.10079" lon="-3.78514">
        <ele>165.4</ele>
        <time>2020-06-08T08:53:36Z</time>
      </trkpt>
      <trkpt lat="48.10086" lon="-3.78518">
        <ele>164.7</ele>
        <time>2020-06-08T08:53:37Z</time>
      </trkpt>
      <trkpt lat="48.10092" lon="-3.78523">
        <ele>164</ele>
        <time>2020-06-08T08:53:38Z</time>
      </trkpt>
      <trkpt lat="48.10099" lon="-3.78527">
        <ele>163.3</ele>
        <time>2020-06-08T08:53:39Z</time>
      </trkpt>
      <trkpt lat="48.10107" lon="-3.78532">
        <ele>162.5</ele>
        <time>2020-06-08T08:53:40Z</time>
      </trkpt>
      <trkpt lat="48.10115" lon="-3.78537">
        <ele>161.6</ele>
        <time>2020-06-08T08:53:41Z</time>
      </trkpt>
      <trkpt lat="48.10124" lon="-3.78542">
        <ele>160.8</ele>
        <time>2020-06-08T08:53:42Z</time>
      </trkpt>
      <trkpt lat="48.10133" lon="-3.78548">
        <ele>159.9</ele>
        <time>2020-06-08T08:53:43Z</time>
      </trkpt>
      <trkpt lat="48.10143" lon="-3.78554">
        <ele>159</ele>
        <time>2020-06-08T08:53:44Z</time>
      </trkpt>
      <trkpt lat="48.10153" lon="-3.7856">
        <ele>158.2</ele>
        <time>2020-06-08T08:53:45Z</time>
      </trkpt>
      <trkpt lat="48.10162" lon="-3.78566">
        <ele>157.3</ele>
        <time>2020-06-08T08:53:46Z</time>
      </trkpt>
      <trkpt lat="48.10172" lon="-3.78573">
        <ele>156.4</ele>
        <time>2020-06-08T08:53:47Z</time>
      </trkpt>
      <trkpt lat="48.10182" lon="-3.7858">
        <ele>155.4</ele>
        <time>2020-06-08T08:53:48Z</time>
      </trkpt>
      <trkpt lat="48.10193" lon="-3.78587">
        <ele>154.3</ele>
        <time>2020-06-08T08:53:49Z</time>
      </trkpt>
      <trkpt lat="48.10204" lon="-3.78594">
        <ele>153.7</ele>
        <time>2020-06-08T08:53:50Z</time>
      </trkpt>
      <trkpt lat="48.10215" lon="-3.78602">
        <ele>153</ele>
        <time>2020-06-08T08:53:51Z</time>
      </trkpt>
      <trkpt lat="48.10226" lon="-3.78609">
        <ele>151.9</ele>
        <time>2020-06-08T08:53:52Z</time>
      </trkpt>
      <trkpt lat="48.10237" lon="-3.78618">
        <ele>150.9</ele>
        <time>2020-06-08T08:53:53Z</time>
      </trkpt>
      <trkpt lat="48.10247" lon="-3.7863">
        <ele>150</ele>
        <time>2020-06-08T08:53:54Z</time>
      </trkpt>
      <trkpt lat="48.10257" lon="-3.78641">
        <ele>149.1</ele>
        <time>2020-06-08T08:53:55Z</time>
      </trkpt>
      <trkpt lat="48.10267" lon="-3.78651">
        <ele>148.3</ele>
        <time>2020-06-08T08:53:56Z</time>
      </trkpt>
      <trkpt lat="48.10277" lon="-3.78661">
        <ele>147.6</ele>
        <time>2020-06-08T08:53:57Z</time>
      </trkpt>
      <trkpt lat="48.10287" lon="-3.78671">
        <ele>147.1</ele>
        <time>2020-06-08T08:53:58Z</time>
      </trkpt>
      <trkpt lat="48.10297" lon="-3.78681">
        <ele>146.7</ele>
        <time>2020-06-08T08:53:59Z</time>
      </trkpt>
      <trkpt lat="48.10306" lon="-3.7869">
        <ele>146.4</ele>
        <time>2020-06-08T08:54:00Z</time>
      </trkpt>
      <trkpt lat="48.10315" lon="-3.78699">
        <ele>146.3</ele>
        <time>2020-06-08T08:54:01Z</time>
      </trkpt>
      <trkpt lat="48.10324" lon="-3.78709">
        <ele>146.2</ele>
        <time>2020-06-08T08:54:02Z</time>
      </trkpt>
      <trkpt lat="48.10332" lon="-3.78719">
        <ele>146.3</ele>
        <time>2020-06-08T08:54:03Z</time>
      </trkpt>
      <trkpt lat="48.10341" lon="-3.78728">
        <ele>146.5</ele>
        <time>2020-06-08T08:54:04Z</time>
      </trkpt>
      <trkpt lat="48.10349" lon="-3.78736">
        <ele>146.8</ele>
        <time>2020-06-08T08:54:05Z</time>
      </trkpt>
      <trkpt lat="48.10356" lon="-3.78744">
        <ele>147.1</ele>
        <time>2020-06-08T08:54:06Z</time>
      </trkpt>
      <trkpt lat="48.10363" lon="-3.78752">
        <ele>147.6</ele>
        <time>2020-06-08T08:54:07Z</time>
      </trkpt>
      <trkpt lat="48.10369" lon="-3.78759">
        <ele>148</ele>
        <time>2020-06-08T08:54:08Z</time>
      </trkpt>
      <trkpt lat="48.10376" lon="-3.78764">
        <ele>148.4</ele>
        <time>2020-06-08T08:54:09Z</time>
      </trkpt>
      <trkpt lat="48.10384" lon="-3.78765">
        <ele>148.9</ele>
        <time>2020-06-08T08:54:10Z</time>
      </trkpt>
      <trkpt lat="48.10391" lon="-3.78767">
        <ele>149.4</ele>
        <time>2020-06-08T08:54:11Z</time>
      </trkpt>
      <trkpt lat="48.10397" lon="-3.78769">
        <ele>149.8</ele>
        <time>2020-06-08T08:54:12Z</time>
      </trkpt>
      <trkpt lat="48.10403" lon="-3.78769">
        <ele>150.3</ele>
        <time>2020-06-08T08:54:13Z</time>
      </trkpt>
      <trkpt lat="48.10409" lon="-3.7877">
        <ele>150.7</ele>
        <time>2020-06-08T08:54:14Z</time>
      </trkpt>
      <trkpt lat="48.10414" lon="-3.7877">
        <ele>151.1</ele>
        <time>2020-06-08T08:54:15Z</time>
      </trkpt>
      <trkpt lat="48.1042" lon="-3.78771">
        <ele>151.5</ele>
        <time>2020-06-08T08:54:16Z</time>
      </trkpt>
      <trkpt lat="48.10424" lon="-3.78772">
        <ele>151.9</ele>
        <time>2020-06-08T08:54:17Z</time>
      </trkpt>
      <trkpt lat="48.10428" lon="-3.78772">
        <ele>152.2</ele>
        <time>2020-06-08T08:54:18Z</time>
      </trkpt>
      <trkpt lat="48.10431" lon="-3.78772">
        <ele>152.5</ele>
        <time>2020-06-08T08:54:19Z</time>
      </trkpt>
      <trkpt lat="48.10434" lon="-3.78773">
        <ele>152.8</ele>
        <time>2020-06-08T08:54:20Z</time>
      </trkpt>
      <trkpt lat="48.10438" lon="-3.78774">
        <ele>153.1</ele>
        <time>2020-06-08T08:54:21Z</time>
      </trkpt>
      <trkpt lat="48.10441" lon="-3.78774">
        <ele>153.4</ele>
        <time>2020-06-08T08:54:22Z</time>
      </trkpt>
      <trkpt lat="48.10444" lon="-3.78773">
        <ele>153.7</ele>
        <time>2020-06-08T08:54:23Z</time>
      </trkpt>
      <trkpt lat="48.10447" lon="-3.78774">
        <ele>154</ele>
        <time>2020-06-08T08:54:24Z</time>
      </trkpt>
      <trkpt lat="48.1045" lon="-3.78775">
        <ele>154.4</ele>
        <time>2020-06-08T08:54:25Z</time>
      </trkpt>
      <trkpt lat="48.10452" lon="-3.78775">
        <ele>154.5</ele>
        <time>2020-06-08T08:54:26Z</time>
      </trkpt>
      <trkpt lat="48.10455" lon="-3.78774">
        <ele>154.8</ele>
        <time>2020-06-08T08:54:27Z</time>
      </trkpt>
      <trkpt lat="48.10456" lon="-3.78774">
        <ele>155</ele>
        <time>2020-06-08T08:54:28Z</time>
      </trkpt>
      <trkpt lat="48.1046" lon="-3.78771">
        <ele>155.3</ele>
        <time>2020-06-08T08:54:29Z</time>
      </trkpt>
      <trkpt lat="48.10461" lon="-3.7877">
        <ele>155.5</ele>
        <time>2020-06-08T08:54:30Z</time>
      </trkpt>
      <trkpt lat="48.10464" lon="-3.78769">
        <ele>155.7</ele>
        <time>2020-06-08T08:54:31Z</time>
      </trkpt>
      <trkpt lat="48.10467" lon="-3.78768">
        <ele>156</ele>
        <time>2020-06-08T08:54:32Z</time>
      </trkpt>
      <trkpt lat="48.10471" lon="-3.78767">
        <ele>156.4</ele>
        <time>2020-06-08T08:54:33Z</time>
      </trkpt>
      <trkpt lat="48.10473" lon="-3.78767">
        <ele>156.6</ele>
        <time>2020-06-08T08:54:34Z</time>
      </trkpt>
      <trkpt lat="48.10476" lon="-3.78767">
        <ele>156.9</ele>
        <time>2020-06-08T08:54:35Z</time>
      </trkpt>
      <trkpt lat="48.10477" lon="-3.78767">
        <ele>157</ele>
        <time>2020-06-08T08:54:36Z</time>
      </trkpt>
      <trkpt lat="48.10482" lon="-3.78767">
        <ele>157.5</ele>
        <time>2020-06-08T08:54:37Z</time>
      </trkpt>
      <trkpt lat="48.10483" lon="-3.78767">
        <ele>157.6</ele>
        <time>2020-06-08T08:54:38Z</time>
      </trkpt>
      <trkpt lat="48.10486" lon="-3.78766">
        <ele>158</ele>
        <time>2020-06-08T08:54:39Z</time>
      </trkpt>
      <trkpt lat="48.1049" lon="-3.78765">
        <ele>158.4</ele>
        <time>2020-06-08T08:54:40Z</time>
      </trkpt>
      <trkpt lat="48.10491" lon="-3.78764">
        <ele>158.5</ele>
        <time>2020-06-08T08:54:41Z</time>
      </trkpt>
      <trkpt lat="48.10492" lon="-3.78765">
        <ele>158.6</ele>
        <time>2020-06-08T08:54:42Z</time>
      </trkpt>
      <trkpt lat="48.10495" lon="-3.78765">
        <ele>158.9</ele>
        <time>2020-06-08T08:54:43Z</time>
      </trkpt>
      <trkpt lat="48.10498" lon="-3.78765">
        <ele>159.2</ele>
        <time>2020-06-08T08:54:44Z</time>
      </trkpt>
      <trkpt lat="48.10499" lon="-3.78764">
        <ele>159.3</ele>
        <time>2020-06-08T08:54:45Z</time>
      </trkpt>
      <trkpt lat="48.10503" lon="-3.78764">
        <ele>159.7</ele>
        <time>2020-06-08T08:54:46Z</time>
      </trkpt>
      <trkpt lat="48.10505" lon="-3.78763">
        <ele>159.9</ele>
        <time>2020-06-08T08:54:47Z</time>
      </trkpt>
      <trkpt lat="48.10507" lon="-3.78763">
        <ele>160.2</ele>
        <time>2020-06-08T08:54:48Z</time>
      </trkpt>
      <trkpt lat="48.1051" lon="-3.78762">
        <ele>160.5</ele>
        <time>2020-06-08T08:54:49Z</time>
      </trkpt>
      <trkpt lat="48.10513" lon="-3.78762">
        <ele>160.7</ele>
        <time>2020-06-08T08:54:50Z</time>
      </trkpt>
      <trkpt lat="48.10516" lon="-3.78761">
        <ele>161</ele>
        <time>2020-06-08T08:54:51Z</time>
      </trkpt>
      <trkpt lat="48.10518" lon="-3.78761">
        <ele>161.1</ele>
        <time>2020-06-08T08:54:52Z</time>
      </trkpt>
      <trkpt lat="48.1052" lon="-3.7876">
        <ele>161.6</ele>
        <time>2020-06-08T08:54:53Z</time>
      </trkpt>
      <trkpt lat="48.10523" lon="-3.7876">
        <ele>161.8</ele>
        <time>2020-06-08T08:54:54Z</time>
      </trkpt>
      <trkpt lat="48.10526" lon="-3.7876">
        <ele>162</ele>
        <time>2020-06-08T08:54:55Z</time>
      </trkpt>
      <trkpt lat="48.1053" lon="-3.78759">
        <ele>162.3</ele>
        <time>2020-06-08T08:54:56Z</time>
      </trkpt>
      <trkpt lat="48.10531" lon="-3.78758">
        <ele>162.4</ele>
        <time>2020-06-08T08:54:57Z</time>
      </trkpt>
      <trkpt lat="48.10534" lon="-3.78757">
        <ele>162.7</ele>
        <time>2020-06-08T08:54:58Z</time>
      </trkpt>
      <trkpt lat="48.10537" lon="-3.78756">
        <ele>163</ele>
        <time>2020-06-08T08:54:59Z</time>
      </trkpt>
      <trkpt lat="48.10538" lon="-3.78755">
        <ele>163.1</ele>
        <time>2020-06-08T08:55:00Z</time>
      </trkpt>
      <trkpt lat="48.10541" lon="-3.78754">
        <ele>163.4</ele>
        <time>2020-06-08T08:55:01Z</time>
      </trkpt>
      <trkpt lat="48.10542" lon="-3.78753">
        <ele>163.5</ele>
        <time>2020-06-08T08:55:02Z</time>
      </trkpt>
      <trkpt lat="48.10545" lon="-3.78753">
        <ele>163.7</ele>
        <time>2020-06-08T08:55:03Z</time>
      </trkpt>
      <trkpt lat="48.10546" lon="-3.78753">
        <ele>163.8</ele>
        <time>2020-06-08T08:55:04Z</time>
      </trkpt>
      <trkpt lat="48.10549" lon="-3.78756">
        <ele>164.1</ele>
        <time>2020-06-08T08:55:05Z</time>
      </trkpt>
      <trkpt lat="48.10549" lon="-3.78757">
        <ele>164.2</ele>
        <time>2020-06-08T08:55:06Z</time>
      </trkpt>
      <trkpt lat="48.1055" lon="-3.78758">
        <ele>164.3</ele>
        <time>2020-06-08T08:55:07Z</time>
      </trkpt>
      <trkpt lat="48.10552" lon="-3.7876">
        <ele>164.5</ele>
        <time>2020-06-08T08:55:08Z</time>
      </trkpt>
      <trkpt lat="48.10553" lon="-3.78762">
        <ele>164.6</ele>
        <time>2020-06-08T08:55:09Z</time>
      </trkpt>
      <trkpt lat="48.10554" lon="-3.78763">
        <ele>164.8</ele>
        <time>2020-06-08T08:55:10Z</time>
      </trkpt>
      <trkpt lat="48.10556" lon="-3.78767">
        <ele>165.1</ele>
        <time>2020-06-08T08:55:11Z</time>
      </trkpt>
      <trkpt lat="48.10556" lon="-3.78768">
        <ele>165.1</ele>
        <time>2020-06-08T08:55:12Z</time>
      </trkpt>
      <trkpt lat="48.10558" lon="-3.78772">
        <ele>164.9</ele>
        <time>2020-06-08T08:55:13Z</time>
      </trkpt>
      <trkpt lat="48.10558" lon="-3.78774">
        <ele>164.9</ele>
        <time>2020-06-08T08:55:14Z</time>
      </trkpt>
      <trkpt lat="48.10559" lon="-3.78777">
        <ele>164.8</ele>
        <time>2020-06-08T08:55:15Z</time>
      </trkpt>
      <trkpt lat="48.1056" lon="-3.78781">
        <ele>164.7</ele>
        <time>2020-06-08T08:55:16Z</time>
      </trkpt>
      <trkpt lat="48.10559" lon="-3.78786">
        <ele>164.6</ele>
        <time>2020-06-08T08:55:17Z</time>
      </trkpt>
      <trkpt lat="48.10558" lon="-3.78791">
        <ele>164.6</ele>
        <time>2020-06-08T08:55:18Z</time>
      </trkpt>
      <trkpt lat="48.10557" lon="-3.78796">
        <ele>164.6</ele>
        <time>2020-06-08T08:55:19Z</time>
      </trkpt>
      <trkpt lat="48.10557" lon="-3.78802">
        <ele>164.5</ele>
        <time>2020-06-08T08:55:20Z</time>
      </trkpt>
      <trkpt lat="48.10556" lon="-3.78809">
        <ele>164.6</ele>
        <time>2020-06-08T08:55:21Z</time>
      </trkpt>
      <trkpt lat="48.10555" lon="-3.78815">
        <ele>164.7</ele>
        <time>2020-06-08T08:55:22Z</time>
      </trkpt>
      <trkpt lat="48.10554" lon="-3.7882">
        <ele>164.8</ele>
        <time>2020-06-08T08:55:23Z</time>
      </trkpt>
      <trkpt lat="48.10553" lon="-3.78824">
        <ele>164.9</ele>
        <time>2020-06-08T08:55:24Z</time>
      </trkpt>
      <trkpt lat="48.10553" lon="-3.78829">
        <ele>165</ele>
        <time>2020-06-08T08:55:25Z</time>
      </trkpt>
      <trkpt lat="48.10552" lon="-3.78832">
        <ele>165</ele>
        <time>2020-06-08T08:55:26Z</time>
      </trkpt>
      <trkpt lat="48.10551" lon="-3.78836">
        <ele>165.1</ele>
        <time>2020-06-08T08:55:27Z</time>
      </trkpt>
      <trkpt lat="48.10549" lon="-3.78841">
        <ele>165.2</ele>
        <time>2020-06-08T08:55:28Z</time>
      </trkpt>
      <trkpt lat="48.10549" lon="-3.78844">
        <ele>165.3</ele>
        <time>2020-06-08T08:55:29Z</time>
      </trkpt>
      <trkpt lat="48.10548" lon="-3.7885">
        <ele>165.4</ele>
        <time>2020-06-08T08:55:30Z</time>
      </trkpt>
      <trkpt lat="48.10548" lon="-3.78852">
        <ele>165.5</ele>
        <time>2020-06-08T08:55:31Z</time>
      </trkpt>
      <trkpt lat="48.10547" lon="-3.78856">
        <ele>165.6</ele>
        <time>2020-06-08T08:55:32Z</time>
      </trkpt>
      <trkpt lat="48.10547" lon="-3.7886">
        <ele>165.7</ele>
        <time>2020-06-08T08:55:33Z</time>
      </trkpt>
      <trkpt lat="48.10547" lon="-3.78865">
        <ele>165.9</ele>
        <time>2020-06-08T08:55:34Z</time>
      </trkpt>
      <trkpt lat="48.10547" lon="-3.7887">
        <ele>166</ele>
        <time>2020-06-08T08:55:35Z</time>
      </trkpt>
      <trkpt lat="48.10547" lon="-3.78874">
        <ele>166.1</ele>
        <time>2020-06-08T08:55:36Z</time>
      </trkpt>
      <trkpt lat="48.10546" lon="-3.78879">
        <ele>166.3</ele>
        <time>2020-06-08T08:55:37Z</time>
      </trkpt>
      <trkpt lat="48.10547" lon="-3.78885">
        <ele>166.4</ele>
        <time>2020-06-08T08:55:38Z</time>
      </trkpt>
      <trkpt lat="48.10547" lon="-3.78887">
        <ele>166.5</ele>
        <time>2020-06-08T08:55:39Z</time>
      </trkpt>
      <trkpt lat="48.10547" lon="-3.78891">
        <ele>166.7</ele>
        <time>2020-06-08T08:55:40Z</time>
      </trkpt>
      <trkpt lat="48.10547" lon="-3.78896">
        <ele>166.8</ele>
        <time>2020-06-08T08:55:41Z</time>
      </trkpt>
      <trkpt lat="48.10547" lon="-3.789">
        <ele>167</ele>
        <time>2020-06-08T08:55:42Z</time>
      </trkpt>
      <trkpt lat="48.10547" lon="-3.78906">
        <ele>167.2</ele>
        <time>2020-06-08T08:55:43Z</time>
      </trkpt>
      <trkpt lat="48.10547" lon="-3.78908">
        <ele>167.3</ele>
        <time>2020-06-08T08:55:44Z</time>
      </trkpt>
      <trkpt lat="48.10547" lon="-3.78912">
        <ele>167.5</ele>
        <time>2020-06-08T08:55:45Z</time>
      </trkpt>
      <trkpt lat="48.10547" lon="-3.78917">
        <ele>167.7</ele>
        <time>2020-06-08T08:55:46Z</time>
      </trkpt>
      <trkpt lat="48.10547" lon="-3.78923">
        <ele>167.9</ele>
        <time>2020-06-08T08:55:47Z</time>
      </trkpt>
      <trkpt lat="48.10547" lon="-3.78925">
        <ele>168</ele>
        <time>2020-06-08T08:55:48Z</time>
      </trkpt>
      <trkpt lat="48.10547" lon="-3.78931">
        <ele>168.3</ele>
        <time>2020-06-08T08:55:49Z</time>
      </trkpt>
      <trkpt lat="48.10547" lon="-3.78933">
        <ele>168.4</ele>
        <time>2020-06-08T08:55:50Z</time>
      </trkpt>
      <trkpt lat="48.10547" lon="-3.78937">
        <ele>168.6</ele>
        <time>2020-06-08T08:55:51Z</time>
      </trkpt>
      <trkpt lat="48.10547" lon="-3.78939">
        <ele>168.6</ele>
        <time>2020-06-08T08:55:52Z</time>
      </trkpt>
      <trkpt lat="48.10546" lon="-3.78943">
        <ele>168.8</ele>
        <time>2020-06-08T08:55:53Z</time>
      </trkpt>
      <trkpt lat="48.10546" lon="-3.78948">
        <ele>169</ele>
        <time>2020-06-08T08:55:54Z</time>
      </trkpt>
      <trkpt lat="48.10546" lon="-3.7895">
        <ele>169.1</ele>
        <time>2020-06-08T08:55:55Z</time>
      </trkpt>
      <trkpt lat="48.10546" lon="-3.78954">
        <ele>169.3</ele>
        <time>2020-06-08T08:55:56Z</time>
      </trkpt>
      <trkpt lat="48.10545" lon="-3.78958">
        <ele>169.5</ele>
        <time>2020-06-08T08:55:57Z</time>
      </trkpt>
      <trkpt lat="48.10545" lon="-3.78962">
        <ele>169.6</ele>
        <time>2020-06-08T08:55:58Z</time>
      </trkpt>
      <trkpt lat="48.10546" lon="-3.78966">
        <ele>169.8</ele>
        <time>2020-06-08T08:55:59Z</time>
      </trkpt>
      <trkpt lat="48.10545" lon="-3.78971">
        <ele>170</ele>
        <time>2020-06-08T08:56:00Z</time>
      </trkpt>
      <trkpt lat="48.10544" lon="-3.78975">
        <ele>170.2</ele>
        <time>2020-06-08T08:56:01Z</time>
      </trkpt>
      <trkpt lat="48.10544" lon="-3.7898">
        <ele>170.4</ele>
        <time>2020-06-08T08:56:02Z</time>
      </trkpt>
      <trkpt lat="48.10545" lon="-3.78984">
        <ele>170.5</ele>
        <time>2020-06-08T08:56:03Z</time>
      </trkpt>
      <trkpt lat="48.10545" lon="-3.78986">
        <ele>170.6</ele>
        <time>2020-06-08T08:56:04Z</time>
      </trkpt>
      <trkpt lat="48.10546" lon="-3.78991">
        <ele>170.7</ele>
        <time>2020-06-08T08:56:05Z</time>
      </trkpt>
      <trkpt lat="48.10546" lon="-3.78993">
        <ele>170.8</ele>
        <time>2020-06-08T08:56:06Z</time>
      </trkpt>
      <trkpt lat="48.10547" lon="-3.78998">
        <ele>170.9</ele>
        <time>2020-06-08T08:56:07Z</time>
      </trkpt>
      <trkpt lat="48.10546" lon="-3.79003">
        <ele>171.1</ele>
        <time>2020-06-08T08:56:08Z</time>
      </trkpt>
      <trkpt lat="48.10546" lon="-3.79005">
        <ele>171.2</ele>
        <time>2020-06-08T08:56:09Z</time>
      </trkpt>
      <trkpt lat="48.10545" lon="-3.79011">
        <ele>171.4</ele>
        <time>2020-06-08T08:56:10Z</time>
      </trkpt>
      <trkpt lat="48.10545" lon="-3.79013">
        <ele>171.4</ele>
        <time>2020-06-08T08:56:11Z</time>
      </trkpt>
      <trkpt lat="48.10545" lon="-3.79018">
        <ele>171.6</ele>
        <time>2020-06-08T08:56:12Z</time>
      </trkpt>
      <trkpt lat="48.10545" lon="-3.7902">
        <ele>171.7</ele>
        <time>2020-06-08T08:56:13Z</time>
      </trkpt>
      <trkpt lat="48.10544" lon="-3.79025">
        <ele>171.8</ele>
        <time>2020-06-08T08:56:14Z</time>
      </trkpt>
      <trkpt lat="48.10543" lon="-3.79027">
        <ele>171.9</ele>
        <time>2020-06-08T08:56:15Z</time>
      </trkpt>
      <trkpt lat="48.10543" lon="-3.79032">
        <ele>172.1</ele>
        <time>2020-06-08T08:56:16Z</time>
      </trkpt>
      <trkpt lat="48.10544" lon="-3.79034">
        <ele>172.1</ele>
        <time>2020-06-08T08:56:17Z</time>
      </trkpt>
      <trkpt lat="48.10543" lon="-3.79038">
        <ele>172.2</ele>
        <time>2020-06-08T08:56:18Z</time>
      </trkpt>
      <trkpt lat="48.10543" lon="-3.79042">
        <ele>172.3</ele>
        <time>2020-06-08T08:56:19Z</time>
      </trkpt>
      <trkpt lat="48.10543" lon="-3.79047">
        <ele>172.5</ele>
        <time>2020-06-08T08:56:20Z</time>
      </trkpt>
      <trkpt lat="48.10541" lon="-3.79052">
        <ele>172.6</ele>
        <time>2020-06-08T08:56:21Z</time>
      </trkpt>
      <trkpt lat="48.10541" lon="-3.79057">
        <ele>172.8</ele>
        <time>2020-06-08T08:56:22Z</time>
      </trkpt>
      <trkpt lat="48.10541" lon="-3.79059">
        <ele>172.8</ele>
        <time>2020-06-08T08:56:23Z</time>
      </trkpt>
      <trkpt lat="48.1054" lon="-3.79065">
        <ele>173</ele>
        <time>2020-06-08T08:56:24Z</time>
      </trkpt>
      <trkpt lat="48.10539" lon="-3.79067">
        <ele>173</ele>
        <time>2020-06-08T08:56:25Z</time>
      </trkpt>
      <trkpt lat="48.10539" lon="-3.79071">
        <ele>173.1</ele>
        <time>2020-06-08T08:56:26Z</time>
      </trkpt>
      <trkpt lat="48.10539" lon="-3.79076">
        <ele>173.2</ele>
        <time>2020-06-08T08:56:27Z</time>
      </trkpt>
      <trkpt lat="48.10538" lon="-3.79081">
        <ele>173.3</ele>
        <time>2020-06-08T08:56:28Z</time>
      </trkpt>
      <trkpt lat="48.10538" lon="-3.79085">
        <ele>173.4</ele>
        <time>2020-06-08T08:56:29Z</time>
      </trkpt>
      <trkpt lat="48.10538" lon="-3.79089">
        <ele>173.5</ele>
        <time>2020-06-08T08:56:30Z</time>
      </trkpt>
      <trkpt lat="48.10538" lon="-3.79094">
        <ele>173.6</ele>
        <time>2020-06-08T08:56:31Z</time>
      </trkpt>
      <trkpt lat="48.10538" lon="-3.79098">
        <ele>173.7</ele>
        <time>2020-06-08T08:56:32Z</time>
      </trkpt>
      <trkpt lat="48.10538" lon="-3.79102">
        <ele>173.8</ele>
        <time>2020-06-08T08:56:33Z</time>
      </trkpt>
      <trkpt lat="48.10537" lon="-3.79107">
        <ele>173.8</ele>
        <time>2020-06-08T08:56:34Z</time>
      </trkpt>
      <trkpt lat="48.10537" lon="-3.79113">
        <ele>174</ele>
        <time>2020-06-08T08:56:35Z</time>
      </trkpt>
      <trkpt lat="48.10536" lon="-3.79115">
        <ele>174</ele>
        <time>2020-06-08T08:56:36Z</time>
      </trkpt>
      <trkpt lat="48.10536" lon="-3.7912">
        <ele>174.1</ele>
        <time>2020-06-08T08:56:37Z</time>
      </trkpt>
      <trkpt lat="48.10537" lon="-3.79125">
        <ele>174.2</ele>
        <time>2020-06-08T08:56:38Z</time>
      </trkpt>
      <trkpt lat="48.10536" lon="-3.7913">
        <ele>174.3</ele>
        <time>2020-06-08T08:56:39Z</time>
      </trkpt>
      <trkpt lat="48.10536" lon="-3.79135">
        <ele>174.5</ele>
        <time>2020-06-08T08:56:40Z</time>
      </trkpt>
      <trkpt lat="48.10535" lon="-3.7914">
        <ele>174.6</ele>
        <time>2020-06-08T08:56:41Z</time>
      </trkpt>
      <trkpt lat="48.10534" lon="-3.79145">
        <ele>174.7</ele>
        <time>2020-06-08T08:56:42Z</time>
      </trkpt>
      <trkpt lat="48.10534" lon="-3.7915">
        <ele>174.9</ele>
        <time>2020-06-08T08:56:43Z</time>
      </trkpt>
      <trkpt lat="48.10534" lon="-3.79155">
        <ele>175</ele>
        <time>2020-06-08T08:56:44Z</time>
      </trkpt>
      <trkpt lat="48.10534" lon="-3.79159">
        <ele>175.1</ele>
        <time>2020-06-08T08:56:45Z</time>
      </trkpt>
      <trkpt lat="48.10533" lon="-3.79164">
        <ele>175.2</ele>
        <time>2020-06-08T08:56:46Z</time>
      </trkpt>
      <trkpt lat="48.10532" lon="-3.79169">
        <ele>175.4</ele>
        <time>2020-06-08T08:56:47Z</time>
      </trkpt>
      <trkpt lat="48.10532" lon="-3.79174">
        <ele>175.5</ele>
        <time>2020-06-08T08:56:48Z</time>
      </trkpt>
      <trkpt lat="48.10531" lon="-3.79178">
        <ele>175.5</ele>
        <time>2020-06-08T08:56:49Z</time>
      </trkpt>
      <trkpt lat="48.10529" lon="-3.79183">
        <ele>175.6</ele>
        <time>2020-06-08T08:56:50Z</time>
      </trkpt>
      <trkpt lat="48.10528" lon="-3.79188">
        <ele>175.6</ele>
        <time>2020-06-08T08:56:51Z</time>
      </trkpt>
      <trkpt lat="48.10528" lon="-3.7919">
        <ele>175.7</ele>
        <time>2020-06-08T08:56:52Z</time>
      </trkpt>
      <trkpt lat="48.10527" lon="-3.79195">
        <ele>175.8</ele>
        <time>2020-06-08T08:56:53Z</time>
      </trkpt>
      <trkpt lat="48.10527" lon="-3.79198">
        <ele>175.8</ele>
        <time>2020-06-08T08:56:54Z</time>
      </trkpt>
      <trkpt lat="48.10527" lon="-3.79202">
        <ele>175.9</ele>
        <time>2020-06-08T08:56:55Z</time>
      </trkpt>
      <trkpt lat="48.10526" lon="-3.79207">
        <ele>176.1</ele>
        <time>2020-06-08T08:56:56Z</time>
      </trkpt>
      <trkpt lat="48.10526" lon="-3.7921">
        <ele>176.1</ele>
        <time>2020-06-08T08:56:57Z</time>
      </trkpt>
      <trkpt lat="48.10524" lon="-3.79214">
        <ele>176.3</ele>
        <time>2020-06-08T08:56:58Z</time>
      </trkpt>
      <trkpt lat="48.10524" lon="-3.79216">
        <ele>176.3</ele>
        <time>2020-06-08T08:56:59Z</time>
      </trkpt>
      <trkpt lat="48.10523" lon="-3.7922">
        <ele>176.4</ele>
        <time>2020-06-08T08:57:00Z</time>
      </trkpt>
      <trkpt lat="48.10522" lon="-3.79225">
        <ele>176.6</ele>
        <time>2020-06-08T08:57:01Z</time>
      </trkpt>
      <trkpt lat="48.10521" lon="-3.7923">
        <ele>176.8</ele>
        <time>2020-06-08T08:57:02Z</time>
      </trkpt>
      <trkpt lat="48.10519" lon="-3.79235">
        <ele>177</ele>
        <time>2020-06-08T08:57:03Z</time>
      </trkpt>
      <trkpt lat="48.10518" lon="-3.7924">
        <ele>177.1</ele>
        <time>2020-06-08T08:57:04Z</time>
      </trkpt>
      <trkpt lat="48.10516" lon="-3.79244">
        <ele>177.3</ele>
        <time>2020-06-08T08:57:05Z</time>
      </trkpt>
      <trkpt lat="48.10515" lon="-3.79248">
        <ele>177.4</ele>
        <time>2020-06-08T08:57:06Z</time>
      </trkpt>
      <trkpt lat="48.10514" lon="-3.79252">
        <ele>177.6</ele>
        <time>2020-06-08T08:57:07Z</time>
      </trkpt>
      <trkpt lat="48.10512" lon="-3.79258">
        <ele>177.8</ele>
        <time>2020-06-08T08:57:08Z</time>
      </trkpt>
      <trkpt lat="48.10511" lon="-3.7926">
        <ele>177.8</ele>
        <time>2020-06-08T08:57:09Z</time>
      </trkpt>
      <trkpt lat="48.10509" lon="-3.79265">
        <ele>178</ele>
        <time>2020-06-08T08:57:10Z</time>
      </trkpt>
      <trkpt lat="48.10508" lon="-3.79269">
        <ele>178.1</ele>
        <time>2020-06-08T08:57:11Z</time>
      </trkpt>
      <trkpt lat="48.10507" lon="-3.79273">
        <ele>178.3</ele>
        <time>2020-06-08T08:57:12Z</time>
      </trkpt>
      <trkpt lat="48.10506" lon="-3.79278">
        <ele>178.4</ele>
        <time>2020-06-08T08:57:13Z</time>
      </trkpt>
      <trkpt lat="48.10505" lon="-3.79282">
        <ele>178.6</ele>
        <time>2020-06-08T08:57:14Z</time>
      </trkpt>
      <trkpt lat="48.10505" lon="-3.79288">
        <ele>178.7</ele>
        <time>2020-06-08T08:57:15Z</time>
      </trkpt>
      <trkpt lat="48.10504" lon="-3.79292">
        <ele>178.9</ele>
        <time>2020-06-08T08:57:16Z</time>
      </trkpt>
      <trkpt lat="48.10502" lon="-3.79296">
        <ele>179</ele>
        <time>2020-06-08T08:57:17Z</time>
      </trkpt>
      <trkpt lat="48.10501" lon="-3.79301">
        <ele>179.1</ele>
        <time>2020-06-08T08:57:18Z</time>
      </trkpt>
      <trkpt lat="48.105" lon="-3.79306">
        <ele>179.3</ele>
        <time>2020-06-08T08:57:19Z</time>
      </trkpt>
      <trkpt lat="48.10498" lon="-3.7931">
        <ele>179.4</ele>
        <time>2020-06-08T08:57:20Z</time>
      </trkpt>
      <trkpt lat="48.10497" lon="-3.79314">
        <ele>179.5</ele>
        <time>2020-06-08T08:57:21Z</time>
      </trkpt>
      <trkpt lat="48.10496" lon="-3.79319">
        <ele>179.6</ele>
        <time>2020-06-08T08:57:22Z</time>
      </trkpt>
      <trkpt lat="48.10495" lon="-3.79322">
        <ele>179.7</ele>
        <time>2020-06-08T08:57:23Z</time>
      </trkpt>
      <trkpt lat="48.10494" lon="-3.79327">
        <ele>179.8</ele>
        <time>2020-06-08T08:57:24Z</time>
      </trkpt>
      <trkpt lat="48.10492" lon="-3.79331">
        <ele>179.8</ele>
        <time>2020-06-08T08:57:25Z</time>
      </trkpt>
      <trkpt lat="48.1049" lon="-3.79336">
        <ele>179.9</ele>
        <time>2020-06-08T08:57:26Z</time>
      </trkpt>
      <trkpt lat="48.10489" lon="-3.7934">
        <ele>180</ele>
        <time>2020-06-08T08:57:27Z</time>
      </trkpt>
      <trkpt lat="48.10488" lon="-3.79345">
        <ele>180.1</ele>
        <time>2020-06-08T08:57:28Z</time>
      </trkpt>
      <trkpt lat="48.10487" lon="-3.7935">
        <ele>180.1</ele>
        <time>2020-06-08T08:57:29Z</time>
      </trkpt>
      <trkpt lat="48.10487" lon="-3.79355">
        <ele>180.1</ele>
        <time>2020-06-08T08:57:30Z</time>
      </trkpt>
      <trkpt lat="48.10486" lon="-3.79361">
        <ele>180.1</ele>
        <time>2020-06-08T08:57:31Z</time>
      </trkpt>
      <trkpt lat="48.10485" lon="-3.79368">
        <ele>180.1</ele>
        <time>2020-06-08T08:57:32Z</time>
      </trkpt>
      <trkpt lat="48.10485" lon="-3.79374">
        <ele>180.1</ele>
        <time>2020-06-08T08:57:33Z</time>
      </trkpt>
      <trkpt lat="48.10485" lon="-3.7938">
        <ele>180.1</ele>
        <time>2020-06-08T08:57:34Z</time>
      </trkpt>
      <trkpt lat="48.10484" lon="-3.79386">
        <ele>180</ele>
        <time>2020-06-08T08:57:35Z</time>
      </trkpt>
      <trkpt lat="48.10483" lon="-3.79393">
        <ele>179.9</ele>
        <time>2020-06-08T08:57:36Z</time>
      </trkpt>
      <trkpt lat="48.10482" lon="-3.79399">
        <ele>179.8</ele>
        <time>2020-06-08T08:57:37Z</time>
      </trkpt>
      <trkpt lat="48.10481" lon="-3.79404">
        <ele>179.7</ele>
        <time>2020-06-08T08:57:38Z</time>
      </trkpt>
      <trkpt lat="48.10479" lon="-3.79409">
        <ele>179.5</ele>
        <time>2020-06-08T08:57:39Z</time>
      </trkpt>
      <trkpt lat="48.10477" lon="-3.79415">
        <ele>179.4</ele>
        <time>2020-06-08T08:57:40Z</time>
      </trkpt>
      <trkpt lat="48.10475" lon="-3.79421">
        <ele>179.3</ele>
        <time>2020-06-08T08:57:41Z</time>
      </trkpt>
      <trkpt lat="48.10473" lon="-3.79427">
        <ele>179.1</ele>
        <time>2020-06-08T08:57:42Z</time>
      </trkpt>
      <trkpt lat="48.10472" lon="-3.79435">
        <ele>178.9</ele>
        <time>2020-06-08T08:57:43Z</time>
      </trkpt>
      <trkpt lat="48.1047" lon="-3.79444">
        <ele>178.7</ele>
        <time>2020-06-08T08:57:44Z</time>
      </trkpt>
      <trkpt lat="48.10467" lon="-3.79454">
        <ele>178.5</ele>
        <time>2020-06-08T08:57:45Z</time>
      </trkpt>
      <trkpt lat="48.10465" lon="-3.79464">
        <ele>178.1</ele>
        <time>2020-06-08T08:57:46Z</time>
      </trkpt>
      <trkpt lat="48.10464" lon="-3.79474">
        <ele>177.8</ele>
        <time>2020-06-08T08:57:47Z</time>
      </trkpt>
      <trkpt lat="48.10462" lon="-3.79484">
        <ele>177.5</ele>
        <time>2020-06-08T08:57:48Z</time>
      </trkpt>
      <trkpt lat="48.10461" lon="-3.79494">
        <ele>177.2</ele>
        <time>2020-06-08T08:57:49Z</time>
      </trkpt>
      <trkpt lat="48.10461" lon="-3.79507">
        <ele>176.9</ele>
        <time>2020-06-08T08:57:50Z</time>
      </trkpt>
      <trkpt lat="48.1046" lon="-3.79518">
        <ele>176.5</ele>
        <time>2020-06-08T08:57:51Z</time>
      </trkpt>
      <trkpt lat="48.10459" lon="-3.79529">
        <ele>176</ele>
        <time>2020-06-08T08:57:52Z</time>
      </trkpt>
      <trkpt lat="48.10459" lon="-3.7954">
        <ele>175.6</ele>
        <time>2020-06-08T08:57:53Z</time>
      </trkpt>
      <trkpt lat="48.10459" lon="-3.79551">
        <ele>175.2</ele>
        <time>2020-06-08T08:57:54Z</time>
      </trkpt>
      <trkpt lat="48.10459" lon="-3.79562">
        <ele>174.7</ele>
        <time>2020-06-08T08:57:55Z</time>
      </trkpt>
      <trkpt lat="48.1046" lon="-3.79574">
        <ele>174.2</ele>
        <time>2020-06-08T08:57:56Z</time>
      </trkpt>
      <trkpt lat="48.1046" lon="-3.79587">
        <ele>173.6</ele>
        <time>2020-06-08T08:57:57Z</time>
      </trkpt>
      <trkpt lat="48.10461" lon="-3.79599">
        <ele>173.1</ele>
        <time>2020-06-08T08:57:58Z</time>
      </trkpt>
      <trkpt lat="48.10462" lon="-3.79611">
        <ele>172.6</ele>
        <time>2020-06-08T08:57:59Z</time>
      </trkpt>
      <trkpt lat="48.10463" lon="-3.79624">
        <ele>172.1</ele>
        <time>2020-06-08T08:58:00Z</time>
      </trkpt>
      <trkpt lat="48.10464" lon="-3.79638">
        <ele>171.6</ele>
        <time>2020-06-08T08:58:01Z</time>
      </trkpt>
      <trkpt lat="48.10466" lon="-3.79652">
        <ele>171.1</ele>
        <time>2020-06-08T08:58:02Z</time>
      </trkpt>
      <trkpt lat="48.10468" lon="-3.79665">
        <ele>170.7</ele>
        <time>2020-06-08T08:58:03Z</time>
      </trkpt>
      <trkpt lat="48.10471" lon="-3.79679">
        <ele>170.3</ele>
        <time>2020-06-08T08:58:04Z</time>
      </trkpt>
      <trkpt lat="48.10473" lon="-3.79692">
        <ele>169.9</ele>
        <time>2020-06-08T08:58:05Z</time>
      </trkpt>
      <trkpt lat="48.10475" lon="-3.79705">
        <ele>169.6</ele>
        <time>2020-06-08T08:58:06Z</time>
      </trkpt>
      <trkpt lat="48.10478" lon="-3.79717">
        <ele>169.3</ele>
        <time>2020-06-08T08:58:07Z</time>
      </trkpt>
      <trkpt lat="48.1048" lon="-3.7973">
        <ele>169</ele>
        <time>2020-06-08T08:58:08Z</time>
      </trkpt>
      <trkpt lat="48.10482" lon="-3.79742">
        <ele>168.8</ele>
        <time>2020-06-08T08:58:09Z</time>
      </trkpt>
      <trkpt lat="48.10484" lon="-3.79755">
        <ele>168.5</ele>
        <time>2020-06-08T08:58:10Z</time>
      </trkpt>
      <trkpt lat="48.10486" lon="-3.79766">
        <ele>168.3</ele>
        <time>2020-06-08T08:58:11Z</time>
      </trkpt>
      <trkpt lat="48.10489" lon="-3.79778">
        <ele>168.1</ele>
        <time>2020-06-08T08:58:12Z</time>
      </trkpt>
      <trkpt lat="48.10491" lon="-3.79789">
        <ele>167.8</ele>
        <time>2020-06-08T08:58:13Z</time>
      </trkpt>
      <trkpt lat="48.10493" lon="-3.798">
        <ele>167.6</ele>
        <time>2020-06-08T08:58:14Z</time>
      </trkpt>
      <trkpt lat="48.10495" lon="-3.79811">
        <ele>167.3</ele>
        <time>2020-06-08T08:58:15Z</time>
      </trkpt>
      <trkpt lat="48.10496" lon="-3.79822">
        <ele>167.2</ele>
        <time>2020-06-08T08:58:16Z</time>
      </trkpt>
      <trkpt lat="48.10498" lon="-3.79833">
        <ele>167.1</ele>
        <time>2020-06-08T08:58:17Z</time>
      </trkpt>
      <trkpt lat="48.10499" lon="-3.79844">
        <ele>167</ele>
        <time>2020-06-08T08:58:18Z</time>
      </trkpt>
      <trkpt lat="48.10501" lon="-3.79854">
        <ele>166.8</ele>
        <time>2020-06-08T08:58:19Z</time>
      </trkpt>
      <trkpt lat="48.10503" lon="-3.79864">
        <ele>166.6</ele>
        <time>2020-06-08T08:58:20Z</time>
      </trkpt>
      <trkpt lat="48.10505" lon="-3.79874">
        <ele>166.4</ele>
        <time>2020-06-08T08:58:21Z</time>
      </trkpt>
      <trkpt lat="48.10506" lon="-3.79884">
        <ele>166.2</ele>
        <time>2020-06-08T08:58:22Z</time>
      </trkpt>
      <trkpt lat="48.10507" lon="-3.79893">
        <ele>166</ele>
        <time>2020-06-08T08:58:23Z</time>
      </trkpt>
      <trkpt lat="48.10509" lon="-3.79903">
        <ele>165.7</ele>
        <time>2020-06-08T08:58:24Z</time>
      </trkpt>
      <trkpt lat="48.1051" lon="-3.79913">
        <ele>165.4</ele>
        <time>2020-06-08T08:58:25Z</time>
      </trkpt>
      <trkpt lat="48.10511" lon="-3.79924">
        <ele>165.1</ele>
        <time>2020-06-08T08:58:26Z</time>
      </trkpt>
      <trkpt lat="48.10512" lon="-3.79935">
        <ele>164.8</ele>
        <time>2020-06-08T08:58:27Z</time>
      </trkpt>
      <trkpt lat="48.10513" lon="-3.79946">
        <ele>164.5</ele>
        <time>2020-06-08T08:58:28Z</time>
      </trkpt>
      <trkpt lat="48.10514" lon="-3.79956">
        <ele>164.3</ele>
        <time>2020-06-08T08:58:29Z</time>
      </trkpt>
      <trkpt lat="48.10514" lon="-3.79967">
        <ele>164</ele>
        <time>2020-06-08T08:58:30Z</time>
      </trkpt>
      <trkpt lat="48.10515" lon="-3.79978">
        <ele>163.8</ele>
        <time>2020-06-08T08:58:31Z</time>
      </trkpt>
      <trkpt lat="48.10515" lon="-3.79989">
        <ele>163.6</ele>
        <time>2020-06-08T08:58:32Z</time>
      </trkpt>
      <trkpt lat="48.10516" lon="-3.8">
        <ele>163.4</ele>
        <time>2020-06-08T08:58:33Z</time>
      </trkpt>
      <trkpt lat="48.10516" lon="-3.80011">
        <ele>163.3</ele>
        <time>2020-06-08T08:58:34Z</time>
      </trkpt>
      <trkpt lat="48.10517" lon="-3.80022">
        <ele>163.1</ele>
        <time>2020-06-08T08:58:35Z</time>
      </trkpt>
      <trkpt lat="48.10518" lon="-3.80034">
        <ele>162.9</ele>
        <time>2020-06-08T08:58:36Z</time>
      </trkpt>
      <trkpt lat="48.1052" lon="-3.80044">
        <ele>162.7</ele>
        <time>2020-06-08T08:58:37Z</time>
      </trkpt>
      <trkpt lat="48.1052" lon="-3.80055">
        <ele>162.4</ele>
        <time>2020-06-08T08:58:38Z</time>
      </trkpt>
      <trkpt lat="48.10522" lon="-3.80066">
        <ele>162.1</ele>
        <time>2020-06-08T08:58:39Z</time>
      </trkpt>
      <trkpt lat="48.10523" lon="-3.80076">
        <ele>161.3</ele>
        <time>2020-06-08T08:58:40Z</time>
      </trkpt>
      <trkpt lat="48.10524" lon="-3.80087">
        <ele>161.5</ele>
        <time>2020-06-08T08:58:41Z</time>
      </trkpt>
      <trkpt lat="48.10526" lon="-3.80097">
        <ele>161.6</ele>
        <time>2020-06-08T08:58:42Z</time>
      </trkpt>
      <trkpt lat="48.10527" lon="-3.80106">
        <ele>161.5</ele>
        <time>2020-06-08T08:58:43Z</time>
      </trkpt>
      <trkpt lat="48.10529" lon="-3.80116">
        <ele>161.5</ele>
        <time>2020-06-08T08:58:44Z</time>
      </trkpt>
      <trkpt lat="48.1053" lon="-3.80126">
        <ele>161.3</ele>
        <time>2020-06-08T08:58:45Z</time>
      </trkpt>
      <trkpt lat="48.10531" lon="-3.80136">
        <ele>161.2</ele>
        <time>2020-06-08T08:58:46Z</time>
      </trkpt>
      <trkpt lat="48.10532" lon="-3.80146">
        <ele>161</ele>
        <time>2020-06-08T08:58:47Z</time>
      </trkpt>
      <trkpt lat="48.10533" lon="-3.80155">
        <ele>160.8</ele>
        <time>2020-06-08T08:58:48Z</time>
      </trkpt>
      <trkpt lat="48.10534" lon="-3.80165">
        <ele>160.6</ele>
        <time>2020-06-08T08:58:49Z</time>
      </trkpt>
      <trkpt lat="48.10534" lon="-3.80176">
        <ele>160.3</ele>
        <time>2020-06-08T08:58:50Z</time>
      </trkpt>
      <trkpt lat="48.10534" lon="-3.80186">
        <ele>160.1</ele>
        <time>2020-06-08T08:58:51Z</time>
      </trkpt>
      <trkpt lat="48.10535" lon="-3.80196">
        <ele>159.9</ele>
        <time>2020-06-08T08:58:52Z</time>
      </trkpt>
      <trkpt lat="48.10535" lon="-3.80206">
        <ele>159.7</ele>
        <time>2020-06-08T08:58:53Z</time>
      </trkpt>
      <trkpt lat="48.10535" lon="-3.80216">
        <ele>159.5</ele>
        <time>2020-06-08T08:58:54Z</time>
      </trkpt>
      <trkpt lat="48.10536" lon="-3.80226">
        <ele>159.3</ele>
        <time>2020-06-08T08:58:55Z</time>
      </trkpt>
      <trkpt lat="48.10536" lon="-3.80236">
        <ele>159.2</ele>
        <time>2020-06-08T08:58:56Z</time>
      </trkpt>
      <trkpt lat="48.10537" lon="-3.80246">
        <ele>159</ele>
        <time>2020-06-08T08:58:57Z</time>
      </trkpt>
      <trkpt lat="48.10537" lon="-3.80256">
        <ele>158.8</ele>
        <time>2020-06-08T08:58:58Z</time>
      </trkpt>
      <trkpt lat="48.10538" lon="-3.80266">
        <ele>158.6</ele>
        <time>2020-06-08T08:58:59Z</time>
      </trkpt>
      <trkpt lat="48.10538" lon="-3.80276">
        <ele>158.3</ele>
        <time>2020-06-08T08:59:00Z</time>
      </trkpt>
      <trkpt lat="48.10539" lon="-3.80286">
        <ele>158</ele>
        <time>2020-06-08T08:59:01Z</time>
      </trkpt>
      <trkpt lat="48.10539" lon="-3.80297">
        <ele>157.8</ele>
        <time>2020-06-08T08:59:02Z</time>
      </trkpt>
      <trkpt lat="48.1054" lon="-3.80308">
        <ele>157.5</ele>
        <time>2020-06-08T08:59:03Z</time>
      </trkpt>
      <trkpt lat="48.1054" lon="-3.80318">
        <ele>157.2</ele>
        <time>2020-06-08T08:59:04Z</time>
      </trkpt>
      <trkpt lat="48.1054" lon="-3.80329">
        <ele>156.9</ele>
        <time>2020-06-08T08:59:05Z</time>
      </trkpt>
      <trkpt lat="48.1054" lon="-3.8034">
        <ele>156.7</ele>
        <time>2020-06-08T08:59:06Z</time>
      </trkpt>
      <trkpt lat="48.1054" lon="-3.80352">
        <ele>156.3</ele>
        <time>2020-06-08T08:59:07Z</time>
      </trkpt>
      <trkpt lat="48.10541" lon="-3.80363">
        <ele>156</ele>
        <time>2020-06-08T08:59:08Z</time>
      </trkpt>
      <trkpt lat="48.10543" lon="-3.80374">
        <ele>155.7</ele>
        <time>2020-06-08T08:59:09Z</time>
      </trkpt>
      <trkpt lat="48.10545" lon="-3.80385">
        <ele>155.4</ele>
        <time>2020-06-08T08:59:10Z</time>
      </trkpt>
      <trkpt lat="48.10547" lon="-3.80396">
        <ele>155.1</ele>
        <time>2020-06-08T08:59:11Z</time>
      </trkpt>
      <trkpt lat="48.10551" lon="-3.80406">
        <ele>154.9</ele>
        <time>2020-06-08T08:59:12Z</time>
      </trkpt>
      <trkpt lat="48.10555" lon="-3.80416">
        <ele>154.6</ele>
        <time>2020-06-08T08:59:13Z</time>
      </trkpt>
      <trkpt lat="48.10559" lon="-3.80425">
        <ele>154.4</ele>
        <time>2020-06-08T08:59:14Z</time>
      </trkpt>
      <trkpt lat="48.10563" lon="-3.80435">
        <ele>154.2</ele>
        <time>2020-06-08T08:59:15Z</time>
      </trkpt>
      <trkpt lat="48.10567" lon="-3.80444">
        <ele>153.9</ele>
        <time>2020-06-08T08:59:16Z</time>
      </trkpt>
      <trkpt lat="48.10572" lon="-3.80453">
        <ele>153.5</ele>
        <time>2020-06-08T08:59:17Z</time>
      </trkpt>
      <trkpt lat="48.10577" lon="-3.80462">
        <ele>153.2</ele>
        <time>2020-06-08T08:59:18Z</time>
      </trkpt>
      <trkpt lat="48.10583" lon="-3.8047">
        <ele>152.8</ele>
        <time>2020-06-08T08:59:19Z</time>
      </trkpt>
      <trkpt lat="48.10588" lon="-3.80479">
        <ele>152.4</ele>
        <time>2020-06-08T08:59:20Z</time>
      </trkpt>
      <trkpt lat="48.10593" lon="-3.80488">
        <ele>152</ele>
        <time>2020-06-08T08:59:21Z</time>
      </trkpt>
      <trkpt lat="48.10599" lon="-3.80497">
        <ele>151.5</ele>
        <time>2020-06-08T08:59:22Z</time>
      </trkpt>
      <trkpt lat="48.10604" lon="-3.80507">
        <ele>150.9</ele>
        <time>2020-06-08T08:59:23Z</time>
      </trkpt>
      <trkpt lat="48.10609" lon="-3.80517">
        <ele>150.5</ele>
        <time>2020-06-08T08:59:24Z</time>
      </trkpt>
      <trkpt lat="48.10614" lon="-3.80527">
        <ele>150</ele>
        <time>2020-06-08T08:59:25Z</time>
      </trkpt>
      <trkpt lat="48.1062" lon="-3.80538">
        <ele>149.5</ele>
        <time>2020-06-08T08:59:26Z</time>
      </trkpt>
      <trkpt lat="48.10625" lon="-3.80548">
        <ele>148.9</ele>
        <time>2020-06-08T08:59:27Z</time>
      </trkpt>
      <trkpt lat="48.1063" lon="-3.80559">
        <ele>148.4</ele>
        <time>2020-06-08T08:59:28Z</time>
      </trkpt>
      <trkpt lat="48.10636" lon="-3.80569">
        <ele>147.9</ele>
        <time>2020-06-08T08:59:29Z</time>
      </trkpt>
      <trkpt lat="48.10642" lon="-3.8058">
        <ele>147.4</ele>
        <time>2020-06-08T08:59:30Z</time>
      </trkpt>
      <trkpt lat="48.10648" lon="-3.8059">
        <ele>146.9</ele>
        <time>2020-06-08T08:59:31Z</time>
      </trkpt>
      <trkpt lat="48.10654" lon="-3.806">
        <ele>146.5</ele>
        <time>2020-06-08T08:59:32Z</time>
      </trkpt>
      <trkpt lat="48.10661" lon="-3.80609">
        <ele>146.1</ele>
        <time>2020-06-08T08:59:33Z</time>
      </trkpt>
      <trkpt lat="48.10668" lon="-3.80617">
        <ele>145.7</ele>
        <time>2020-06-08T08:59:34Z</time>
      </trkpt>
      <trkpt lat="48.10675" lon="-3.80626">
        <ele>145.4</ele>
        <time>2020-06-08T08:59:35Z</time>
      </trkpt>
      <trkpt lat="48.10682" lon="-3.80635">
        <ele>145</ele>
        <time>2020-06-08T08:59:36Z</time>
      </trkpt>
      <trkpt lat="48.10689" lon="-3.80644">
        <ele>144.6</ele>
        <time>2020-06-08T08:59:37Z</time>
      </trkpt>
      <trkpt lat="48.10696" lon="-3.80652">
        <ele>144.3</ele>
        <time>2020-06-08T08:59:38Z</time>
      </trkpt>
      <trkpt lat="48.10702" lon="-3.80661">
        <ele>144.1</ele>
        <time>2020-06-08T08:59:39Z</time>
      </trkpt>
      <trkpt lat="48.10709" lon="-3.8067">
        <ele>143.8</ele>
        <time>2020-06-08T08:59:40Z</time>
      </trkpt>
      <trkpt lat="48.10715" lon="-3.80678">
        <ele>143.5</ele>
        <time>2020-06-08T08:59:41Z</time>
      </trkpt>
      <trkpt lat="48.10722" lon="-3.80686">
        <ele>143.2</ele>
        <time>2020-06-08T08:59:42Z</time>
      </trkpt>
      <trkpt lat="48.10729" lon="-3.80694">
        <ele>142.9</ele>
        <time>2020-06-08T08:59:43Z</time>
      </trkpt>
      <trkpt lat="48.10735" lon="-3.80701">
        <ele>142.6</ele>
        <time>2020-06-08T08:59:44Z</time>
      </trkpt>
      <trkpt lat="48.10742" lon="-3.80709">
        <ele>142.2</ele>
        <time>2020-06-08T08:59:45Z</time>
      </trkpt>
      <trkpt lat="48.10748" lon="-3.80718">
        <ele>141.9</ele>
        <time>2020-06-08T08:59:46Z</time>
      </trkpt>
      <trkpt lat="48.10754" lon="-3.80726">
        <ele>141.6</ele>
        <time>2020-06-08T08:59:47Z</time>
      </trkpt>
      <trkpt lat="48.10761" lon="-3.80736">
        <ele>141.1</ele>
        <time>2020-06-08T08:59:48Z</time>
      </trkpt>
      <trkpt lat="48.10768" lon="-3.80745">
        <ele>140.5</ele>
        <time>2020-06-08T08:59:49Z</time>
      </trkpt>
      <trkpt lat="48.10776" lon="-3.80754">
        <ele>139.8</ele>
        <time>2020-06-08T08:59:50Z</time>
      </trkpt>
      <trkpt lat="48.10783" lon="-3.80763">
        <ele>139</ele>
        <time>2020-06-08T08:59:51Z</time>
      </trkpt>
      <trkpt lat="48.10791" lon="-3.80772">
        <ele>138.3</ele>
        <time>2020-06-08T08:59:52Z</time>
      </trkpt>
      <trkpt lat="48.10798" lon="-3.80781">
        <ele>137.7</ele>
        <time>2020-06-08T08:59:53Z</time>
      </trkpt>
      <trkpt lat="48.10806" lon="-3.8079">
        <ele>137</ele>
        <time>2020-06-08T08:59:54Z</time>
      </trkpt>
      <trkpt lat="48.10814" lon="-3.80799">
        <ele>136.2</ele>
        <time>2020-06-08T08:59:55Z</time>
      </trkpt>
      <trkpt lat="48.10822" lon="-3.80809">
        <ele>135.3</ele>
        <time>2020-06-08T08:59:56Z</time>
      </trkpt>
      <trkpt lat="48.10831" lon="-3.80818">
        <ele>134.2</ele>
        <time>2020-06-08T08:59:57Z</time>
      </trkpt>
      <trkpt lat="48.1084" lon="-3.80829">
        <ele>133.1</ele>
        <time>2020-06-08T08:59:58Z</time>
      </trkpt>
      <trkpt lat="48.10847" lon="-3.80839">
        <ele>132.1</ele>
        <time>2020-06-08T08:59:59Z</time>
      </trkpt>
      <trkpt lat="48.10854" lon="-3.8085">
        <ele>131.2</ele>
        <time>2020-06-08T09:00:00Z</time>
      </trkpt>
      <trkpt lat="48.10861" lon="-3.80859">
        <ele>130.5</ele>
        <time>2020-06-08T09:00:01Z</time>
      </trkpt>
      <trkpt lat="48.10865" lon="-3.8087">
        <ele>129.7</ele>
        <time>2020-06-08T09:00:02Z</time>
      </trkpt>
      <trkpt lat="48.10869" lon="-3.80882">
        <ele>128.9</ele>
        <time>2020-06-08T09:00:03Z</time>
      </trkpt>
      <trkpt lat="48.10874" lon="-3.80896">
        <ele>128</ele>
        <time>2020-06-08T09:00:04Z</time>
      </trkpt>
      <trkpt lat="48.10879" lon="-3.8091">
        <ele>127.1</ele>
        <time>2020-06-08T09:00:05Z</time>
      </trkpt>
      <trkpt lat="48.1088" lon="-3.80924">
        <ele>126.6</ele>
        <time>2020-06-08T09:00:06Z</time>
      </trkpt>
      <trkpt lat="48.10882" lon="-3.80938">
        <ele>126.4</ele>
        <time>2020-06-08T09:00:07Z</time>
      </trkpt>
      <trkpt lat="48.10884" lon="-3.80951">
        <ele>126.2</ele>
        <time>2020-06-08T09:00:08Z</time>
      </trkpt>
      <trkpt lat="48.10886" lon="-3.80963">
        <ele>126.1</ele>
        <time>2020-06-08T09:00:09Z</time>
      </trkpt>
      <trkpt lat="48.10887" lon="-3.80974">
        <ele>126</ele>
        <time>2020-06-08T09:00:10Z</time>
      </trkpt>
      <trkpt lat="48.10888" lon="-3.80984">
        <ele>126</ele>
        <time>2020-06-08T09:00:11Z</time>
      </trkpt>
      <trkpt lat="48.10888" lon="-3.80995">
        <ele>126</ele>
        <time>2020-06-08T09:00:12Z</time>
      </trkpt>
      <trkpt lat="48.10887" lon="-3.81006">
        <ele>126</ele>
        <time>2020-06-08T09:00:13Z</time>
      </trkpt>
      <trkpt lat="48.10887" lon="-3.81016">
        <ele>126</ele>
        <time>2020-06-08T09:00:14Z</time>
      </trkpt>
      <trkpt lat="48.10887" lon="-3.81027">
        <ele>126</ele>
        <time>2020-06-08T09:00:15Z</time>
      </trkpt>
      <trkpt lat="48.10887" lon="-3.81036">
        <ele>126.1</ele>
        <time>2020-06-08T09:00:16Z</time>
      </trkpt>
      <trkpt lat="48.10888" lon="-3.81047">
        <ele>126.1</ele>
        <time>2020-06-08T09:00:17Z</time>
      </trkpt>
      <trkpt lat="48.10888" lon="-3.81058">
        <ele>126.1</ele>
        <time>2020-06-08T09:00:18Z</time>
      </trkpt>
      <trkpt lat="48.10887" lon="-3.81068">
        <ele>126.1</ele>
        <time>2020-06-08T09:00:19Z</time>
      </trkpt>
      <trkpt lat="48.10888" lon="-3.81077">
        <ele>126.2</ele>
        <time>2020-06-08T09:00:20Z</time>
      </trkpt>
      <trkpt lat="48.10886" lon="-3.81086">
        <ele>126.2</ele>
        <time>2020-06-08T09:00:21Z</time>
      </trkpt>
      <trkpt lat="48.10885" lon="-3.81095">
        <ele>126.2</ele>
        <time>2020-06-08T09:00:22Z</time>
      </trkpt>
      <trkpt lat="48.10885" lon="-3.81103">
        <ele>126.2</ele>
        <time>2020-06-08T09:00:23Z</time>
      </trkpt>
      <trkpt lat="48.10884" lon="-3.81111">
        <ele>126.2</ele>
        <time>2020-06-08T09:00:24Z</time>
      </trkpt>
      <trkpt lat="48.10884" lon="-3.81119">
        <ele>126.2</ele>
        <time>2020-06-08T09:00:25Z</time>
      </trkpt>
      <trkpt lat="48.10883" lon="-3.81127">
        <ele>126.2</ele>
        <time>2020-06-08T09:00:26Z</time>
      </trkpt>
      <trkpt lat="48.10882" lon="-3.81135">
        <ele>126.1</ele>
        <time>2020-06-08T09:00:27Z</time>
      </trkpt>
      <trkpt lat="48.10883" lon="-3.81144">
        <ele>126.1</ele>
        <time>2020-06-08T09:00:28Z</time>
      </trkpt>
      <trkpt lat="48.10883" lon="-3.8115">
        <ele>126</ele>
        <time>2020-06-08T09:00:29Z</time>
      </trkpt>
      <trkpt lat="48.10882" lon="-3.81156">
        <ele>125.9</ele>
        <time>2020-06-08T09:00:30Z</time>
      </trkpt>
      <trkpt lat="48.10881" lon="-3.81164">
        <ele>125.8</ele>
        <time>2020-06-08T09:00:31Z</time>
      </trkpt>
      <trkpt lat="48.10879" lon="-3.81173">
        <ele>125.6</ele>
        <time>2020-06-08T09:00:32Z</time>
      </trkpt>
      <trkpt lat="48.10878" lon="-3.81184">
        <ele>125.3</ele>
        <time>2020-06-08T09:00:33Z</time>
      </trkpt>
      <trkpt lat="48.10875" lon="-3.81195">
        <ele>124.8</ele>
        <time>2020-06-08T09:00:34Z</time>
      </trkpt>
      <trkpt lat="48.10871" lon="-3.81207">
        <ele>124.1</ele>
        <time>2020-06-08T09:00:35Z</time>
      </trkpt>
      <trkpt lat="48.10867" lon="-3.81219">
        <ele>123.4</ele>
        <time>2020-06-08T09:00:36Z</time>
      </trkpt>
      <trkpt lat="48.10864" lon="-3.81231">
        <ele>122.7</ele>
        <time>2020-06-08T09:00:37Z</time>
      </trkpt>
      <trkpt lat="48.10861" lon="-3.81243">
        <ele>122.1</ele>
        <time>2020-06-08T09:00:38Z</time>
      </trkpt>
      <trkpt lat="48.10858" lon="-3.81256">
        <ele>121.4</ele>
        <time>2020-06-08T09:00:39Z</time>
      </trkpt>
      <trkpt lat="48.10855" lon="-3.81269">
        <ele>120.8</ele>
        <time>2020-06-08T09:00:40Z</time>
      </trkpt>
      <trkpt lat="48.10853" lon="-3.81282">
        <ele>120.1</ele>
        <time>2020-06-08T09:00:41Z</time>
      </trkpt>
      <trkpt lat="48.1085" lon="-3.81296">
        <ele>119.4</ele>
        <time>2020-06-08T09:00:42Z</time>
      </trkpt>
      <trkpt lat="48.10848" lon="-3.8131">
        <ele>118.7</ele>
        <time>2020-06-08T09:00:43Z</time>
      </trkpt>
      <trkpt lat="48.10846" lon="-3.81325">
        <ele>118</ele>
        <time>2020-06-08T09:00:44Z</time>
      </trkpt>
      <trkpt lat="48.10847" lon="-3.81341">
        <ele>117.2</ele>
        <time>2020-06-08T09:00:45Z</time>
      </trkpt>
      <trkpt lat="48.10846" lon="-3.81356">
        <ele>116.4</ele>
        <time>2020-06-08T09:00:46Z</time>
      </trkpt>
      <trkpt lat="48.10845" lon="-3.81372">
        <ele>115.6</ele>
        <time>2020-06-08T09:00:47Z</time>
      </trkpt>
      <trkpt lat="48.10844" lon="-3.81387">
        <ele>114.8</ele>
        <time>2020-06-08T09:00:48Z</time>
      </trkpt>
      <trkpt lat="48.10843" lon="-3.81403">
        <ele>114</ele>
        <time>2020-06-08T09:00:49Z</time>
      </trkpt>
      <trkpt lat="48.10845" lon="-3.81419">
        <ele>113.3</ele>
        <time>2020-06-08T09:00:50Z</time>
      </trkpt>
      <trkpt lat="48.10849" lon="-3.81433">
        <ele>112.1</ele>
        <time>2020-06-08T09:00:51Z</time>
      </trkpt>
      <trkpt lat="48.10855" lon="-3.81447">
        <ele>111.4</ele>
        <time>2020-06-08T09:00:52Z</time>
      </trkpt>
      <trkpt lat="48.10862" lon="-3.81458">
        <ele>110.7</ele>
        <time>2020-06-08T09:00:53Z</time>
      </trkpt>
      <trkpt lat="48.1087" lon="-3.81467">
        <ele>110</ele>
        <time>2020-06-08T09:00:54Z</time>
      </trkpt>
      <trkpt lat="48.10879" lon="-3.81475">
        <ele>109.3</ele>
        <time>2020-06-08T09:00:55Z</time>
      </trkpt>
      <trkpt lat="48.10888" lon="-3.81483">
        <ele>108.7</ele>
        <time>2020-06-08T09:00:56Z</time>
      </trkpt>
      <trkpt lat="48.10896" lon="-3.81491">
        <ele>108.1</ele>
        <time>2020-06-08T09:00:57Z</time>
      </trkpt>
      <trkpt lat="48.10904" lon="-3.815">
        <ele>107.6</ele>
        <time>2020-06-08T09:00:58Z</time>
      </trkpt>
      <trkpt lat="48.10912" lon="-3.81508">
        <ele>107.2</ele>
        <time>2020-06-08T09:00:59Z</time>
      </trkpt>
      <trkpt lat="48.1092" lon="-3.81516">
        <ele>106.9</ele>
        <time>2020-06-08T09:01:00Z</time>
      </trkpt>
      <trkpt lat="48.10927" lon="-3.81525">
        <ele>106.6</ele>
        <time>2020-06-08T09:01:01Z</time>
      </trkpt>
      <trkpt lat="48.10934" lon="-3.81534">
        <ele>106.3</ele>
        <time>2020-06-08T09:01:02Z</time>
      </trkpt>
      <trkpt lat="48.10941" lon="-3.81542">
        <ele>106.1</ele>
        <time>2020-06-08T09:01:03Z</time>
      </trkpt>
      <trkpt lat="48.10949" lon="-3.81548">
        <ele>106</ele>
        <time>2020-06-08T09:01:04Z</time>
      </trkpt>
      <trkpt lat="48.10956" lon="-3.81554">
        <ele>105.8</ele>
        <time>2020-06-08T09:01:05Z</time>
      </trkpt>
      <trkpt lat="48.10964" lon="-3.8156">
        <ele>105.7</ele>
        <time>2020-06-08T09:01:06Z</time>
      </trkpt>
      <trkpt lat="48.10971" lon="-3.81565">
        <ele>105.6</ele>
        <time>2020-06-08T09:01:07Z</time>
      </trkpt>
      <trkpt lat="48.10978" lon="-3.81571">
        <ele>105.6</ele>
        <time>2020-06-08T09:01:08Z</time>
      </trkpt>
      <trkpt lat="48.10984" lon="-3.81577">
        <ele>105.6</ele>
        <time>2020-06-08T09:01:09Z</time>
      </trkpt>
      <trkpt lat="48.1099" lon="-3.81583">
        <ele>105.6</ele>
        <time>2020-06-08T09:01:10Z</time>
      </trkpt>
      <trkpt lat="48.10997" lon="-3.81588">
        <ele>105.6</ele>
        <time>2020-06-08T09:01:11Z</time>
      </trkpt>
      <trkpt lat="48.11003" lon="-3.81592">
        <ele>105.6</ele>
        <time>2020-06-08T09:01:12Z</time>
      </trkpt>
      <trkpt lat="48.11009" lon="-3.81597">
        <ele>105.7</ele>
        <time>2020-06-08T09:01:13Z</time>
      </trkpt>
      <trkpt lat="48.11015" lon="-3.81602">
        <ele>105.8</ele>
        <time>2020-06-08T09:01:14Z</time>
      </trkpt>
      <trkpt lat="48.1102" lon="-3.81607">
        <ele>105.9</ele>
        <time>2020-06-08T09:01:15Z</time>
      </trkpt>
      <trkpt lat="48.11025" lon="-3.81612">
        <ele>106</ele>
        <time>2020-06-08T09:01:16Z</time>
      </trkpt>
      <trkpt lat="48.11031" lon="-3.81617">
        <ele>106.2</ele>
        <time>2020-06-08T09:01:17Z</time>
      </trkpt>
      <trkpt lat="48.11036" lon="-3.81621">
        <ele>106.4</ele>
        <time>2020-06-08T09:01:18Z</time>
      </trkpt>
      <trkpt lat="48.1104" lon="-3.81625">
        <ele>106.6</ele>
        <time>2020-06-08T09:01:19Z</time>
      </trkpt>
      <trkpt lat="48.11045" lon="-3.81628">
        <ele>106.8</ele>
        <time>2020-06-08T09:01:20Z</time>
      </trkpt>
      <trkpt lat="48.1105" lon="-3.81632">
        <ele>107</ele>
        <time>2020-06-08T09:01:21Z</time>
      </trkpt>
      <trkpt lat="48.11054" lon="-3.81636">
        <ele>107.2</ele>
        <time>2020-06-08T09:01:22Z</time>
      </trkpt>
      <trkpt lat="48.11058" lon="-3.81638">
        <ele>107.3</ele>
        <time>2020-06-08T09:01:23Z</time>
      </trkpt>
      <trkpt lat="48.11061" lon="-3.8164">
        <ele>107.3</ele>
        <time>2020-06-08T09:01:24Z</time>
      </trkpt>
      <trkpt lat="48.11065" lon="-3.81641">
        <ele>107.3</ele>
        <time>2020-06-08T09:01:25Z</time>
      </trkpt>
      <trkpt lat="48.11067" lon="-3.81642">
        <ele>107.3</ele>
        <time>2020-06-08T09:01:26Z</time>
      </trkpt>
      <trkpt lat="48.11069" lon="-3.81643">
        <ele>107.3</ele>
        <time>2020-06-08T09:01:27Z</time>
      </trkpt>
      <trkpt lat="48.11069" lon="-3.81644">
        <ele>107.3</ele>
        <time>2020-06-08T09:01:28Z</time>
      </trkpt>
      <trkpt lat="48.11069" lon="-3.81644">
        <ele>107.3</ele>
        <time>2020-06-08T09:01:29Z</time>
      </trkpt>
      <trkpt lat="48.11069" lon="-3.81644">
        <ele>107.3</ele>
        <time>2020-06-08T09:01:30Z</time>
      </trkpt>
      <trkpt lat="48.11069" lon="-3.81643">
        <ele>107.3</ele>
        <time>2020-06-08T09:01:31Z</time>
      </trkpt>
      <trkpt lat="48.11069" lon="-3.81643">
        <ele>107.3</ele>
        <time>2020-06-08T09:01:32Z</time>
      </trkpt>
      <trkpt lat="48.11069" lon="-3.81643">
        <ele>107.3</ele>
        <time>2020-06-08T09:01:33Z</time>
      </trkpt>
      <trkpt lat="48.1107" lon="-3.81643">
        <ele>107.3</ele>
        <time>2020-06-08T09:01:34Z</time>
      </trkpt>
      <trkpt lat="48.1107" lon="-3.81642">
        <ele>107.3</ele>
        <time>2020-06-08T09:01:35Z</time>
      </trkpt>
      <trkpt lat="48.1107" lon="-3.81643">
        <ele>107.3</ele>
        <time>2020-06-08T09:01:36Z</time>
      </trkpt>
      <trkpt lat="48.1107" lon="-3.81643">
        <ele>107.3</ele>
        <time>2020-06-08T09:01:37Z</time>
      </trkpt>
      <trkpt lat="48.1107" lon="-3.81643">
        <ele>107.3</ele>
        <time>2020-06-08T09:01:38Z</time>
      </trkpt>
      <trkpt lat="48.1107" lon="-3.81642">
        <ele>107.3</ele>
        <time>2020-06-08T09:01:39Z</time>
      </trkpt>
      <trkpt lat="48.1107" lon="-3.81642">
        <ele>107.3</ele>
        <time>2020-06-08T09:01:40Z</time>
      </trkpt>
      <trkpt lat="48.11071" lon="-3.81644">
        <ele>107.2</ele>
        <time>2020-06-08T09:01:41Z</time>
      </trkpt>
      <trkpt lat="48.11073" lon="-3.81646">
        <ele>107.2</ele>
        <time>2020-06-08T09:01:42Z</time>
      </trkpt>
      <trkpt lat="48.11074" lon="-3.81649">
        <ele>107.2</ele>
        <time>2020-06-08T09:01:43Z</time>
      </trkpt>
      <trkpt lat="48.11075" lon="-3.81651">
        <ele>107.2</ele>
        <time>2020-06-08T09:01:44Z</time>
      </trkpt>
      <trkpt lat="48.11077" lon="-3.81654">
        <ele>107.2</ele>
        <time>2020-06-08T09:01:45Z</time>
      </trkpt>
      <trkpt lat="48.11078" lon="-3.81656">
        <ele>107.2</ele>
        <time>2020-06-08T09:05:24Z</time>
      </trkpt>
      <trkpt lat="48.11079" lon="-3.81658">
        <ele>107.2</ele>
        <time>2020-06-08T09:05:25Z</time>
      </trkpt>
      <trkpt lat="48.11083" lon="-3.81659">
        <ele>107.2</ele>
        <time>2020-06-08T09:05:26Z</time>
      </trkpt>
      <trkpt lat="48.11084" lon="-3.8166">
        <ele>107.2</ele>
        <time>2020-06-08T09:05:27Z</time>
      </trkpt>
      <trkpt lat="48.11086" lon="-3.8166">
        <ele>107.2</ele>
        <time>2020-06-08T09:05:28Z</time>
      </trkpt>
      <trkpt lat="48.11089" lon="-3.8166">
        <ele>107.2</ele>
        <time>2020-06-08T09:05:29Z</time>
      </trkpt>
      <trkpt lat="48.11093" lon="-3.8166">
        <ele>107.3</ele>
        <time>2020-06-08T09:05:30Z</time>
      </trkpt>
      <trkpt lat="48.11095" lon="-3.81661">
        <ele>107.3</ele>
        <time>2020-06-08T09:05:31Z</time>
      </trkpt>
      <trkpt lat="48.11098" lon="-3.81662">
        <ele>107.3</ele>
        <time>2020-06-08T09:05:32Z</time>
      </trkpt>
      <trkpt lat="48.11101" lon="-3.81664">
        <ele>107.4</ele>
        <time>2020-06-08T09:05:33Z</time>
      </trkpt>
      <trkpt lat="48.11104" lon="-3.81665">
        <ele>107.5</ele>
        <time>2020-06-08T09:05:34Z</time>
      </trkpt>
      <trkpt lat="48.11107" lon="-3.81666">
        <ele>107.5</ele>
        <time>2020-06-08T09:05:35Z</time>
      </trkpt>
      <trkpt lat="48.11108" lon="-3.81666">
        <ele>107.6</ele>
        <time>2020-06-08T09:05:36Z</time>
      </trkpt>
      <trkpt lat="48.11112" lon="-3.81668">
        <ele>107.7</ele>
        <time>2020-06-08T09:05:37Z</time>
      </trkpt>
      <trkpt lat="48.11113" lon="-3.81669">
        <ele>107.7</ele>
        <time>2020-06-08T09:05:38Z</time>
      </trkpt>
      <trkpt lat="48.11116" lon="-3.81669">
        <ele>107.8</ele>
        <time>2020-06-08T09:05:39Z</time>
      </trkpt>
      <trkpt lat="48.11119" lon="-3.8167">
        <ele>107.9</ele>
        <time>2020-06-08T09:05:40Z</time>
      </trkpt>
      <trkpt lat="48.11123" lon="-3.8167">
        <ele>108.1</ele>
        <time>2020-06-08T09:05:41Z</time>
      </trkpt>
      <trkpt lat="48.11124" lon="-3.8167">
        <ele>108.1</ele>
        <time>2020-06-08T09:05:42Z</time>
      </trkpt>
      <trkpt lat="48.11128" lon="-3.81669">
        <ele>108.3</ele>
        <time>2020-06-08T09:05:43Z</time>
      </trkpt>
      <trkpt lat="48.11131" lon="-3.8167">
        <ele>108.4</ele>
        <time>2020-06-08T09:05:44Z</time>
      </trkpt>
      <trkpt lat="48.11134" lon="-3.81671">
        <ele>108.6</ele>
        <time>2020-06-08T09:05:45Z</time>
      </trkpt>
      <trkpt lat="48.11137" lon="-3.81672">
        <ele>108.7</ele>
        <time>2020-06-08T09:05:46Z</time>
      </trkpt>
      <trkpt lat="48.1114" lon="-3.81673">
        <ele>108.9</ele>
        <time>2020-06-08T09:05:47Z</time>
      </trkpt>
      <trkpt lat="48.11142" lon="-3.81675">
        <ele>109</ele>
        <time>2020-06-08T09:05:48Z</time>
      </trkpt>
      <trkpt lat="48.11146" lon="-3.81677">
        <ele>109.2</ele>
        <time>2020-06-08T09:05:49Z</time>
      </trkpt>
      <trkpt lat="48.11147" lon="-3.81678">
        <ele>109.3</ele>
        <time>2020-06-08T09:05:50Z</time>
      </trkpt>
      <trkpt lat="48.1115" lon="-3.81678">
        <ele>109.6</ele>
        <time>2020-06-08T09:05:51Z</time>
      </trkpt>
      <trkpt lat="48.11152" lon="-3.8168">
        <ele>109.7</ele>
        <time>2020-06-08T09:05:52Z</time>
      </trkpt>
      <trkpt lat="48.11155" lon="-3.81682">
        <ele>109.8</ele>
        <time>2020-06-08T09:05:53Z</time>
      </trkpt>
      <trkpt lat="48.11157" lon="-3.81685">
        <ele>110</ele>
        <time>2020-06-08T09:05:54Z</time>
      </trkpt>
      <trkpt lat="48.1116" lon="-3.81688">
        <ele>110.2</ele>
        <time>2020-06-08T09:05:55Z</time>
      </trkpt>
      <trkpt lat="48.11161" lon="-3.8169">
        <ele>110.3</ele>
        <time>2020-06-08T09:05:56Z</time>
      </trkpt>
      <trkpt lat="48.11163" lon="-3.81693">
        <ele>110.4</ele>
        <time>2020-06-08T09:05:57Z</time>
      </trkpt>
      <trkpt lat="48.11164" lon="-3.81695">
        <ele>110.5</ele>
        <time>2020-06-08T09:05:58Z</time>
      </trkpt>
      <trkpt lat="48.11166" lon="-3.81698">
        <ele>110.7</ele>
        <time>2020-06-08T09:05:59Z</time>
      </trkpt>
      <trkpt lat="48.11166" lon="-3.81699">
        <ele>110.8</ele>
        <time>2020-06-08T09:06:00Z</time>
      </trkpt>
      <trkpt lat="48.11168" lon="-3.81702">
        <ele>110.9</ele>
        <time>2020-06-08T09:06:01Z</time>
      </trkpt>
      <trkpt lat="48.11168" lon="-3.81704">
        <ele>111</ele>
        <time>2020-06-08T09:06:02Z</time>
      </trkpt>
      <trkpt lat="48.11171" lon="-3.8171">
        <ele>111.3</ele>
        <time>2020-06-08T09:06:03Z</time>
      </trkpt>
      <trkpt lat="48.11172" lon="-3.81712">
        <ele>111.4</ele>
        <time>2020-06-08T09:06:04Z</time>
      </trkpt>
      <trkpt lat="48.11174" lon="-3.81715">
        <ele>111.7</ele>
        <time>2020-06-08T09:06:05Z</time>
      </trkpt>
      <trkpt lat="48.11175" lon="-3.81721">
        <ele>111.9</ele>
        <time>2020-06-08T09:06:06Z</time>
      </trkpt>
      <trkpt lat="48.11175" lon="-3.81723">
        <ele>112</ele>
        <time>2020-06-08T09:06:07Z</time>
      </trkpt>
      <trkpt lat="48.11175" lon="-3.81728">
        <ele>112.2</ele>
        <time>2020-06-08T09:06:08Z</time>
      </trkpt>
      <trkpt lat="48.11176" lon="-3.81732">
        <ele>112.4</ele>
        <time>2020-06-08T09:06:09Z</time>
      </trkpt>
      <trkpt lat="48.11176" lon="-3.81737">
        <ele>112.6</ele>
        <time>2020-06-08T09:06:10Z</time>
      </trkpt>
      <trkpt lat="48.11176" lon="-3.81739">
        <ele>112.7</ele>
        <time>2020-06-08T09:06:11Z</time>
      </trkpt>
      <trkpt lat="48.11176" lon="-3.81741">
        <ele>112.8</ele>
        <time>2020-06-08T09:06:12Z</time>
      </trkpt>
      <trkpt lat="48.11176" lon="-3.81744">
        <ele>112.9</ele>
        <time>2020-06-08T09:06:13Z</time>
      </trkpt>
      <trkpt lat="48.11177" lon="-3.81749">
        <ele>113.1</ele>
        <time>2020-06-08T09:06:14Z</time>
      </trkpt>
      <trkpt lat="48.11177" lon="-3.81751">
        <ele>113.2</ele>
        <time>2020-06-08T09:06:15Z</time>
      </trkpt>
      <trkpt lat="48.11177" lon="-3.81756">
        <ele>113.4</ele>
        <time>2020-06-08T09:06:16Z</time>
      </trkpt>
      <trkpt lat="48.11177" lon="-3.81757">
        <ele>113.4</ele>
        <time>2020-06-08T09:06:17Z</time>
      </trkpt>
      <trkpt lat="48.11177" lon="-3.81761">
        <ele>113.6</ele>
        <time>2020-06-08T09:06:18Z</time>
      </trkpt>
      <trkpt lat="48.11177" lon="-3.81766">
        <ele>113.8</ele>
        <time>2020-06-08T09:06:19Z</time>
      </trkpt>
      <trkpt lat="48.11177" lon="-3.81768">
        <ele>113.8</ele>
        <time>2020-06-08T09:06:20Z</time>
      </trkpt>
      <trkpt lat="48.11178" lon="-3.81772">
        <ele>114</ele>
        <time>2020-06-08T09:06:21Z</time>
      </trkpt>
      <trkpt lat="48.11178" lon="-3.81777">
        <ele>114.2</ele>
        <time>2020-06-08T09:06:22Z</time>
      </trkpt>
      <trkpt lat="48.11178" lon="-3.81783">
        <ele>114.4</ele>
        <time>2020-06-08T09:06:23Z</time>
      </trkpt>
      <trkpt lat="48.11178" lon="-3.81785">
        <ele>114.5</ele>
        <time>2020-06-08T09:06:24Z</time>
      </trkpt>
      <trkpt lat="48.11178" lon="-3.81791">
        <ele>114.8</ele>
        <time>2020-06-08T09:06:25Z</time>
      </trkpt>
      <trkpt lat="48.11178" lon="-3.81793">
        <ele>114.8</ele>
        <time>2020-06-08T09:06:26Z</time>
      </trkpt>
      <trkpt lat="48.11179" lon="-3.81797">
        <ele>115</ele>
        <time>2020-06-08T09:06:27Z</time>
      </trkpt>
      <trkpt lat="48.11178" lon="-3.81801">
        <ele>115.2</ele>
        <time>2020-06-08T09:06:28Z</time>
      </trkpt>
      <trkpt lat="48.11178" lon="-3.81806">
        <ele>115.4</ele>
        <time>2020-06-08T09:06:29Z</time>
      </trkpt>
      <trkpt lat="48.11178" lon="-3.81807">
        <ele>115.4</ele>
        <time>2020-06-08T09:06:30Z</time>
      </trkpt>
      <trkpt lat="48.11178" lon="-3.81811">
        <ele>115.6</ele>
        <time>2020-06-08T09:06:31Z</time>
      </trkpt>
      <trkpt lat="48.11178" lon="-3.81813">
        <ele>115.7</ele>
        <time>2020-06-08T09:06:32Z</time>
      </trkpt>
      <trkpt lat="48.11178" lon="-3.81818">
        <ele>115.9</ele>
        <time>2020-06-08T09:06:33Z</time>
      </trkpt>
      <trkpt lat="48.11179" lon="-3.8182">
        <ele>116</ele>
        <time>2020-06-08T09:06:34Z</time>
      </trkpt>
      <trkpt lat="48.11179" lon="-3.81824">
        <ele>116.2</ele>
        <time>2020-06-08T09:06:35Z</time>
      </trkpt>
      <trkpt lat="48.1118" lon="-3.81826">
        <ele>116.2</ele>
        <time>2020-06-08T09:06:36Z</time>
      </trkpt>
      <trkpt lat="48.1118" lon="-3.81831">
        <ele>116.5</ele>
        <time>2020-06-08T09:06:37Z</time>
      </trkpt>
      <trkpt lat="48.1118" lon="-3.81833">
        <ele>116.5</ele>
        <time>2020-06-08T09:06:38Z</time>
      </trkpt>
      <trkpt lat="48.1118" lon="-3.81838">
        <ele>116.8</ele>
        <time>2020-06-08T09:06:39Z</time>
      </trkpt>
      <trkpt lat="48.1118" lon="-3.8184">
        <ele>116.8</ele>
        <time>2020-06-08T09:06:40Z</time>
      </trkpt>
      <trkpt lat="48.1118" lon="-3.81845">
        <ele>117</ele>
        <time>2020-06-08T09:06:41Z</time>
      </trkpt>
      <trkpt lat="48.1118" lon="-3.81847">
        <ele>117.1</ele>
        <time>2020-06-08T09:06:42Z</time>
      </trkpt>
      <trkpt lat="48.1118" lon="-3.81851">
        <ele>117.3</ele>
        <time>2020-06-08T09:06:43Z</time>
      </trkpt>
      <trkpt lat="48.1118" lon="-3.81853">
        <ele>117.4</ele>
        <time>2020-06-08T09:06:44Z</time>
      </trkpt>
      <trkpt lat="48.1118" lon="-3.81858">
        <ele>117.6</ele>
        <time>2020-06-08T09:06:45Z</time>
      </trkpt>
      <trkpt lat="48.1118" lon="-3.8186">
        <ele>117.7</ele>
        <time>2020-06-08T09:06:46Z</time>
      </trkpt>
      <trkpt lat="48.1118" lon="-3.81865">
        <ele>117.9</ele>
        <time>2020-06-08T09:06:47Z</time>
      </trkpt>
      <trkpt lat="48.1118" lon="-3.81868">
        <ele>118</ele>
        <time>2020-06-08T09:06:48Z</time>
      </trkpt>
      <trkpt lat="48.1118" lon="-3.81872">
        <ele>118.1</ele>
        <time>2020-06-08T09:06:49Z</time>
      </trkpt>
      <trkpt lat="48.1118" lon="-3.81876">
        <ele>118.3</ele>
        <time>2020-06-08T09:06:50Z</time>
      </trkpt>
      <trkpt lat="48.11181" lon="-3.81881">
        <ele>118.5</ele>
        <time>2020-06-08T09:06:51Z</time>
      </trkpt>
      <trkpt lat="48.11181" lon="-3.81885">
        <ele>118.7</ele>
        <time>2020-06-08T09:06:52Z</time>
      </trkpt>
      <trkpt lat="48.11181" lon="-3.8189">
        <ele>118.8</ele>
        <time>2020-06-08T09:06:53Z</time>
      </trkpt>
      <trkpt lat="48.11181" lon="-3.81894">
        <ele>119</ele>
        <time>2020-06-08T09:06:54Z</time>
      </trkpt>
      <trkpt lat="48.11182" lon="-3.81898">
        <ele>119.2</ele>
        <time>2020-06-08T09:06:55Z</time>
      </trkpt>
      <trkpt lat="48.11182" lon="-3.81903">
        <ele>119.4</ele>
        <time>2020-06-08T09:06:56Z</time>
      </trkpt>
      <trkpt lat="48.11182" lon="-3.81909">
        <ele>119.6</ele>
        <time>2020-06-08T09:06:57Z</time>
      </trkpt>
      <trkpt lat="48.11182" lon="-3.8191">
        <ele>119.7</ele>
        <time>2020-06-08T09:06:58Z</time>
      </trkpt>
      <trkpt lat="48.11182" lon="-3.81915">
        <ele>119.9</ele>
        <time>2020-06-08T09:06:59Z</time>
      </trkpt>
      <trkpt lat="48.11182" lon="-3.81919">
        <ele>120.1</ele>
        <time>2020-06-08T09:07:00Z</time>
      </trkpt>
      <trkpt lat="48.11182" lon="-3.81924">
        <ele>120.3</ele>
        <time>2020-06-08T09:07:01Z</time>
      </trkpt>
      <trkpt lat="48.11182" lon="-3.81929">
        <ele>120.5</ele>
        <time>2020-06-08T09:07:02Z</time>
      </trkpt>
      <trkpt lat="48.11182" lon="-3.81933">
        <ele>120.7</ele>
        <time>2020-06-08T09:07:03Z</time>
      </trkpt>
      <trkpt lat="48.11182" lon="-3.81938">
        <ele>120.9</ele>
        <time>2020-06-08T09:07:04Z</time>
      </trkpt>
      <trkpt lat="48.11182" lon="-3.81939">
        <ele>121</ele>
        <time>2020-06-08T09:07:05Z</time>
      </trkpt>
      <trkpt lat="48.11183" lon="-3.81943">
        <ele>121.2</ele>
        <time>2020-06-08T09:07:06Z</time>
      </trkpt>
      <trkpt lat="48.11184" lon="-3.81945">
        <ele>121.3</ele>
        <time>2020-06-08T09:07:07Z</time>
      </trkpt>
      <trkpt lat="48.11184" lon="-3.81949">
        <ele>121.5</ele>
        <time>2020-06-08T09:07:08Z</time>
      </trkpt>
      <trkpt lat="48.11184" lon="-3.81951">
        <ele>121.6</ele>
        <time>2020-06-08T09:07:09Z</time>
      </trkpt>
      <trkpt lat="48.11184" lon="-3.81956">
        <ele>121.8</ele>
        <time>2020-06-08T09:07:10Z</time>
      </trkpt>
      <trkpt lat="48.11184" lon="-3.81957">
        <ele>121.9</ele>
        <time>2020-06-08T09:07:11Z</time>
      </trkpt>
      <trkpt lat="48.11185" lon="-3.81963">
        <ele>122.2</ele>
        <time>2020-06-08T09:07:12Z</time>
      </trkpt>
      <trkpt lat="48.11185" lon="-3.81965">
        <ele>122.2</ele>
        <time>2020-06-08T09:07:13Z</time>
      </trkpt>
      <trkpt lat="48.11186" lon="-3.81969">
        <ele>122.5</ele>
        <time>2020-06-08T09:07:14Z</time>
      </trkpt>
      <trkpt lat="48.11186" lon="-3.81971">
        <ele>122.6</ele>
        <time>2020-06-08T09:07:15Z</time>
      </trkpt>
      <trkpt lat="48.11187" lon="-3.81976">
        <ele>122.8</ele>
        <time>2020-06-08T09:07:16Z</time>
      </trkpt>
      <trkpt lat="48.11187" lon="-3.81977">
        <ele>122.9</ele>
        <time>2020-06-08T09:07:17Z</time>
      </trkpt>
      <trkpt lat="48.11188" lon="-3.81983">
        <ele>123.2</ele>
        <time>2020-06-08T09:07:18Z</time>
      </trkpt>
      <trkpt lat="48.11189" lon="-3.81985">
        <ele>123.3</ele>
        <time>2020-06-08T09:07:19Z</time>
      </trkpt>
      <trkpt lat="48.1119" lon="-3.81989">
        <ele>123.5</ele>
        <time>2020-06-08T09:07:20Z</time>
      </trkpt>
      <trkpt lat="48.1119" lon="-3.81994">
        <ele>123.7</ele>
        <time>2020-06-08T09:07:21Z</time>
      </trkpt>
      <trkpt lat="48.11191" lon="-3.81998">
        <ele>124</ele>
        <time>2020-06-08T09:07:22Z</time>
      </trkpt>
      <trkpt lat="48.11192" lon="-3.82002">
        <ele>124.2</ele>
        <time>2020-06-08T09:07:23Z</time>
      </trkpt>
      <trkpt lat="48.11193" lon="-3.82008">
        <ele>124.4</ele>
        <time>2020-06-08T09:07:24Z</time>
      </trkpt>
      <trkpt lat="48.11193" lon="-3.8201">
        <ele>124.5</ele>
        <time>2020-06-08T09:07:25Z</time>
      </trkpt>
      <trkpt lat="48.11194" lon="-3.82015">
        <ele>124.7</ele>
        <time>2020-06-08T09:07:26Z</time>
      </trkpt>
      <trkpt lat="48.11195" lon="-3.82017">
        <ele>124.8</ele>
        <time>2020-06-08T09:07:27Z</time>
      </trkpt>
      <trkpt lat="48.11195" lon="-3.82022">
        <ele>125.1</ele>
        <time>2020-06-08T09:07:28Z</time>
      </trkpt>
      <trkpt lat="48.11194" lon="-3.82024">
        <ele>125.1</ele>
        <time>2020-06-08T09:07:29Z</time>
      </trkpt>
      <trkpt lat="48.11195" lon="-3.82026">
        <ele>125.2</ele>
        <time>2020-06-08T09:07:30Z</time>
      </trkpt>
      <trkpt lat="48.11196" lon="-3.82029">
        <ele>125.3</ele>
        <time>2020-06-08T09:07:31Z</time>
      </trkpt>
      <trkpt lat="48.11198" lon="-3.82032">
        <ele>125.5</ele>
        <time>2020-06-08T09:07:32Z</time>
      </trkpt>
      <trkpt lat="48.11199" lon="-3.82033">
        <ele>125.6</ele>
        <time>2020-06-08T09:07:33Z</time>
      </trkpt>
      <trkpt lat="48.112" lon="-3.82035">
        <ele>125.7</ele>
        <time>2020-06-08T09:07:34Z</time>
      </trkpt>
      <trkpt lat="48.11201" lon="-3.82037">
        <ele>125.8</ele>
        <time>2020-06-08T09:07:35Z</time>
      </trkpt>
      <trkpt lat="48.11201" lon="-3.8204">
        <ele>125.9</ele>
        <time>2020-06-08T09:07:36Z</time>
      </trkpt>
      <trkpt lat="48.11201" lon="-3.82042">
        <ele>126</ele>
        <time>2020-06-08T09:07:37Z</time>
      </trkpt>
      <trkpt lat="48.11202" lon="-3.82045">
        <ele>126.1</ele>
        <time>2020-06-08T09:07:38Z</time>
      </trkpt>
      <trkpt lat="48.11203" lon="-3.82047">
        <ele>126.1</ele>
        <time>2020-06-08T09:07:39Z</time>
      </trkpt>
      <trkpt lat="48.11203" lon="-3.82049">
        <ele>126.2</ele>
        <time>2020-06-08T09:07:40Z</time>
      </trkpt>
      <trkpt lat="48.11204" lon="-3.82052">
        <ele>126.4</ele>
        <time>2020-06-08T09:07:41Z</time>
      </trkpt>
      <trkpt lat="48.11205" lon="-3.82053">
        <ele>126.4</ele>
        <time>2020-06-08T09:07:42Z</time>
      </trkpt>
      <trkpt lat="48.11206" lon="-3.82056">
        <ele>126.5</ele>
        <time>2020-06-08T09:07:43Z</time>
      </trkpt>
      <trkpt lat="48.11208" lon="-3.82059">
        <ele>126.7</ele>
        <time>2020-06-08T09:07:44Z</time>
      </trkpt>
      <trkpt lat="48.11208" lon="-3.82061">
        <ele>126.8</ele>
        <time>2020-06-08T09:07:45Z</time>
      </trkpt>
      <trkpt lat="48.11208" lon="-3.82066">
        <ele>126.9</ele>
        <time>2020-06-08T09:07:46Z</time>
      </trkpt>
      <trkpt lat="48.11209" lon="-3.82068">
        <ele>127</ele>
        <time>2020-06-08T09:07:47Z</time>
      </trkpt>
      <trkpt lat="48.1121" lon="-3.82071">
        <ele>127.1</ele>
        <time>2020-06-08T09:07:48Z</time>
      </trkpt>
      <trkpt lat="48.11211" lon="-3.82073">
        <ele>127.2</ele>
        <time>2020-06-08T09:07:49Z</time>
      </trkpt>
      <trkpt lat="48.11212" lon="-3.82078">
        <ele>127.2</ele>
        <time>2020-06-08T09:07:50Z</time>
      </trkpt>
      <trkpt lat="48.11212" lon="-3.82079">
        <ele>127.3</ele>
        <time>2020-06-08T09:07:51Z</time>
      </trkpt>
      <trkpt lat="48.11212" lon="-3.82084">
        <ele>127.3</ele>
        <time>2020-06-08T09:07:52Z</time>
      </trkpt>
      <trkpt lat="48.11212" lon="-3.82086">
        <ele>127.3</ele>
        <time>2020-06-08T09:07:53Z</time>
      </trkpt>
      <trkpt lat="48.11211" lon="-3.82091">
        <ele>127.3</ele>
        <time>2020-06-08T09:07:54Z</time>
      </trkpt>
      <trkpt lat="48.11211" lon="-3.82092">
        <ele>127.4</ele>
        <time>2020-06-08T09:07:55Z</time>
      </trkpt>
      <trkpt lat="48.11211" lon="-3.82096">
        <ele>127.4</ele>
        <time>2020-06-08T09:07:56Z</time>
      </trkpt>
      <trkpt lat="48.1121" lon="-3.82098">
        <ele>127.5</ele>
        <time>2020-06-08T09:07:57Z</time>
      </trkpt>
      <trkpt lat="48.1121" lon="-3.82102">
        <ele>127.5</ele>
        <time>2020-06-08T09:07:58Z</time>
      </trkpt>
      <trkpt lat="48.11211" lon="-3.82107">
        <ele>127.5</ele>
        <time>2020-06-08T09:07:59Z</time>
      </trkpt>
      <trkpt lat="48.11211" lon="-3.82108">
        <ele>127.6</ele>
        <time>2020-06-08T09:08:00Z</time>
      </trkpt>
      <trkpt lat="48.11212" lon="-3.82112">
        <ele>127.6</ele>
        <time>2020-06-08T09:08:01Z</time>
      </trkpt>
      <trkpt lat="48.11211" lon="-3.82112">
        <ele>127.6</ele>
        <time>2020-06-08T09:08:02Z</time>
      </trkpt>
      <trkpt lat="48.11211" lon="-3.82113">
        <ele>127.6</ele>
        <time>2020-06-08T09:08:03Z</time>
      </trkpt>
      <trkpt lat="48.11211" lon="-3.82114">
        <ele>127.6</ele>
        <time>2020-06-08T09:08:04Z</time>
      </trkpt>
      <trkpt lat="48.11211" lon="-3.82115">
        <ele>127.6</ele>
        <time>2020-06-08T09:08:05Z</time>
      </trkpt>
      <trkpt lat="48.1121" lon="-3.82115">
        <ele>127.6</ele>
        <time>2020-06-08T09:08:06Z</time>
      </trkpt>
      <trkpt lat="48.1121" lon="-3.82116">
        <ele>127.6</ele>
        <time>2020-06-08T09:08:07Z</time>
      </trkpt>
      <trkpt lat="48.1121" lon="-3.82117">
        <ele>127.6</ele>
        <time>2020-06-08T09:08:08Z</time>
      </trkpt>
      <trkpt lat="48.1121" lon="-3.82118">
        <ele>127.6</ele>
        <time>2020-06-08T09:08:09Z</time>
      </trkpt>
      <trkpt lat="48.11209" lon="-3.82118">
        <ele>127.6</ele>
        <time>2020-06-08T09:08:10Z</time>
      </trkpt>
      <trkpt lat="48.11209" lon="-3.82119">
        <ele>127.6</ele>
        <time>2020-06-08T09:08:11Z</time>
      </trkpt>
      <trkpt lat="48.11209" lon="-3.8212">
        <ele>127.6</ele>
        <time>2020-06-08T09:08:12Z</time>
      </trkpt>
      <trkpt lat="48.11209" lon="-3.8212">
        <ele>127.6</ele>
        <time>2020-06-08T09:08:40Z</time>
      </trkpt>
      <trkpt lat="48.11208" lon="-3.82121">
        <ele>127.6</ele>
        <time>2020-06-08T09:08:41Z</time>
      </trkpt>
      <trkpt lat="48.11207" lon="-3.82127">
        <ele>127.5</ele>
        <time>2020-06-08T09:08:42Z</time>
      </trkpt>
      <trkpt lat="48.11205" lon="-3.82132">
        <ele>127.5</ele>
        <time>2020-06-08T09:08:43Z</time>
      </trkpt>
      <trkpt lat="48.11204" lon="-3.8214">
        <ele>127.4</ele>
        <time>2020-06-08T09:08:44Z</time>
      </trkpt>
      <trkpt lat="48.11203" lon="-3.82147">
        <ele>127.3</ele>
        <time>2020-06-08T09:08:45Z</time>
      </trkpt>
      <trkpt lat="48.11203" lon="-3.82155">
        <ele>127.2</ele>
        <time>2020-06-08T09:08:46Z</time>
      </trkpt>
      <trkpt lat="48.11203" lon="-3.82162">
        <ele>127</ele>
        <time>2020-06-08T09:08:47Z</time>
      </trkpt>
      <trkpt lat="48.11203" lon="-3.82169">
        <ele>126.9</ele>
        <time>2020-06-08T09:08:48Z</time>
      </trkpt>
      <trkpt lat="48.11203" lon="-3.82175">
        <ele>126.8</ele>
        <time>2020-06-08T09:08:49Z</time>
      </trkpt>
      <trkpt lat="48.11203" lon="-3.82183">
        <ele>126.6</ele>
        <time>2020-06-08T09:08:50Z</time>
      </trkpt>
      <trkpt lat="48.11202" lon="-3.8219">
        <ele>126.4</ele>
        <time>2020-06-08T09:08:51Z</time>
      </trkpt>
      <trkpt lat="48.11203" lon="-3.82198">
        <ele>126.2</ele>
        <time>2020-06-08T09:08:52Z</time>
      </trkpt>
      <trkpt lat="48.11202" lon="-3.82206">
        <ele>126</ele>
        <time>2020-06-08T09:08:53Z</time>
      </trkpt>
      <trkpt lat="48.11202" lon="-3.82214">
        <ele>125.8</ele>
        <time>2020-06-08T09:08:54Z</time>
      </trkpt>
      <trkpt lat="48.11201" lon="-3.8222">
        <ele>125.6</ele>
        <time>2020-06-08T09:08:55Z</time>
      </trkpt>
      <trkpt lat="48.112" lon="-3.82229">
        <ele>125.3</ele>
        <time>2020-06-08T09:08:56Z</time>
      </trkpt>
      <trkpt lat="48.11199" lon="-3.82237">
        <ele>125.1</ele>
        <time>2020-06-08T09:08:57Z</time>
      </trkpt>
      <trkpt lat="48.11197" lon="-3.82246">
        <ele>124.8</ele>
        <time>2020-06-08T09:08:58Z</time>
      </trkpt>
      <trkpt lat="48.11197" lon="-3.82256">
        <ele>124.4</ele>
        <time>2020-06-08T09:08:59Z</time>
      </trkpt>
      <trkpt lat="48.11197" lon="-3.82265">
        <ele>124.1</ele>
        <time>2020-06-08T09:09:00Z</time>
      </trkpt>
      <trkpt lat="48.11196" lon="-3.82274">
        <ele>123.7</ele>
        <time>2020-06-08T09:09:01Z</time>
      </trkpt>
      <trkpt lat="48.11195" lon="-3.82284">
        <ele>123.4</ele>
        <time>2020-06-08T09:09:02Z</time>
      </trkpt>
      <trkpt lat="48.11194" lon="-3.82294">
        <ele>123</ele>
        <time>2020-06-08T09:09:03Z</time>
      </trkpt>
      <trkpt lat="48.11193" lon="-3.82305">
        <ele>122.6</ele>
        <time>2020-06-08T09:09:04Z</time>
      </trkpt>
      <trkpt lat="48.11193" lon="-3.82318">
        <ele>122.1</ele>
        <time>2020-06-08T09:09:05Z</time>
      </trkpt>
      <trkpt lat="48.11192" lon="-3.82329">
        <ele>121.7</ele>
        <time>2020-06-08T09:09:06Z</time>
      </trkpt>
      <trkpt lat="48.11192" lon="-3.82339">
        <ele>121.4</ele>
        <time>2020-06-08T09:09:07Z</time>
      </trkpt>
      <trkpt lat="48.11191" lon="-3.82353">
        <ele>120.8</ele>
        <time>2020-06-08T09:09:08Z</time>
      </trkpt>
      <trkpt lat="48.1119" lon="-3.82365">
        <ele>120.4</ele>
        <time>2020-06-08T09:09:09Z</time>
      </trkpt>
      <trkpt lat="48.11189" lon="-3.82378">
        <ele>119.9</ele>
        <time>2020-06-08T09:09:10Z</time>
      </trkpt>
      <trkpt lat="48.11188" lon="-3.8239">
        <ele>119.4</ele>
        <time>2020-06-08T09:09:11Z</time>
      </trkpt>
      <trkpt lat="48.11186" lon="-3.82403">
        <ele>118.8</ele>
        <time>2020-06-08T09:09:12Z</time>
      </trkpt>
      <trkpt lat="48.11184" lon="-3.82415">
        <ele>118.3</ele>
        <time>2020-06-08T09:09:13Z</time>
      </trkpt>
      <trkpt lat="48.11181" lon="-3.82428">
        <ele>117.7</ele>
        <time>2020-06-08T09:09:14Z</time>
      </trkpt>
      <trkpt lat="48.11178" lon="-3.8244">
        <ele>117</ele>
        <time>2020-06-08T09:09:15Z</time>
      </trkpt>
      <trkpt lat="48.11176" lon="-3.82453">
        <ele>116.3</ele>
        <time>2020-06-08T09:09:16Z</time>
      </trkpt>
      <trkpt lat="48.11174" lon="-3.82467">
        <ele>115.6</ele>
        <time>2020-06-08T09:09:17Z</time>
      </trkpt>
      <trkpt lat="48.11171" lon="-3.82482">
        <ele>115</ele>
        <time>2020-06-08T09:09:18Z</time>
      </trkpt>
      <trkpt lat="48.11167" lon="-3.82497">
        <ele>114.4</ele>
        <time>2020-06-08T09:09:19Z</time>
      </trkpt>
      <trkpt lat="48.11165" lon="-3.82512">
        <ele>114</ele>
        <time>2020-06-08T09:09:20Z</time>
      </trkpt>
      <trkpt lat="48.11163" lon="-3.82528">
        <ele>113.5</ele>
        <time>2020-06-08T09:09:21Z</time>
      </trkpt>
      <trkpt lat="48.11162" lon="-3.82544">
        <ele>113.2</ele>
        <time>2020-06-08T09:09:22Z</time>
      </trkpt>
      <trkpt lat="48.11162" lon="-3.8256">
        <ele>112.9</ele>
        <time>2020-06-08T09:09:23Z</time>
      </trkpt>
      <trkpt lat="48.11162" lon="-3.82575">
        <ele>112.8</ele>
        <time>2020-06-08T09:09:24Z</time>
      </trkpt>
      <trkpt lat="48.11162" lon="-3.8259">
        <ele>112.8</ele>
        <time>2020-06-08T09:09:25Z</time>
      </trkpt>
      <trkpt lat="48.11162" lon="-3.82604">
        <ele>112.9</ele>
        <time>2020-06-08T09:09:26Z</time>
      </trkpt>
      <trkpt lat="48.11162" lon="-3.82618">
        <ele>113.1</ele>
        <time>2020-06-08T09:09:27Z</time>
      </trkpt>
      <trkpt lat="48.11161" lon="-3.82631">
        <ele>113.3</ele>
        <time>2020-06-08T09:09:28Z</time>
      </trkpt>
      <trkpt lat="48.11161" lon="-3.82643">
        <ele>113.6</ele>
        <time>2020-06-08T09:09:29Z</time>
      </trkpt>
      <trkpt lat="48.11161" lon="-3.82655">
        <ele>113.9</ele>
        <time>2020-06-08T09:09:30Z</time>
      </trkpt>
      <trkpt lat="48.1116" lon="-3.82665">
        <ele>114.3</ele>
        <time>2020-06-08T09:09:31Z</time>
      </trkpt>
      <trkpt lat="48.1116" lon="-3.82675">
        <ele>114.7</ele>
        <time>2020-06-08T09:09:32Z</time>
      </trkpt>
      <trkpt lat="48.1116" lon="-3.82684">
        <ele>115.1</ele>
        <time>2020-06-08T09:09:33Z</time>
      </trkpt>
      <trkpt lat="48.1116" lon="-3.82693">
        <ele>115.5</ele>
        <time>2020-06-08T09:09:34Z</time>
      </trkpt>
      <trkpt lat="48.11163" lon="-3.82698">
        <ele>116</ele>
        <time>2020-06-08T09:09:35Z</time>
      </trkpt>
      <trkpt lat="48.11167" lon="-3.827">
        <ele>116.1</ele>
        <time>2020-06-08T09:09:36Z</time>
      </trkpt>
      <trkpt lat="48.11172" lon="-3.82699">
        <ele>116.1</ele>
        <time>2020-06-08T09:09:37Z</time>
      </trkpt>
      <trkpt lat="48.11176" lon="-3.82699">
        <ele>116.2</ele>
        <time>2020-06-08T09:09:38Z</time>
      </trkpt>
      <trkpt lat="48.11181" lon="-3.82698">
        <ele>116.2</ele>
        <time>2020-06-08T09:09:39Z</time>
      </trkpt>
      <trkpt lat="48.11185" lon="-3.82698">
        <ele>116.3</ele>
        <time>2020-06-08T09:09:40Z</time>
      </trkpt>
      <trkpt lat="48.11189" lon="-3.82698">
        <ele>116.3</ele>
        <time>2020-06-08T09:09:41Z</time>
      </trkpt>
      <trkpt lat="48.11193" lon="-3.82698">
        <ele>116.4</ele>
        <time>2020-06-08T09:09:42Z</time>
      </trkpt>
      <trkpt lat="48.11198" lon="-3.82697">
        <ele>116.5</ele>
        <time>2020-06-08T09:09:43Z</time>
      </trkpt>
      <trkpt lat="48.11202" lon="-3.82695">
        <ele>116.6</ele>
        <time>2020-06-08T09:09:44Z</time>
      </trkpt>
      <trkpt lat="48.11206" lon="-3.82694">
        <ele>116.7</ele>
        <time>2020-06-08T09:09:45Z</time>
      </trkpt>
      <trkpt lat="48.1121" lon="-3.82693">
        <ele>116.8</ele>
        <time>2020-06-08T09:09:46Z</time>
      </trkpt>
      <trkpt lat="48.11214" lon="-3.82691">
        <ele>117</ele>
        <time>2020-06-08T09:09:47Z</time>
      </trkpt>
      <trkpt lat="48.11218" lon="-3.82691">
        <ele>117.1</ele>
        <time>2020-06-08T09:09:48Z</time>
      </trkpt>
      <trkpt lat="48.11223" lon="-3.82691">
        <ele>117.2</ele>
        <time>2020-06-08T09:09:49Z</time>
      </trkpt>
      <trkpt lat="48.11227" lon="-3.82691">
        <ele>117.3</ele>
        <time>2020-06-08T09:09:50Z</time>
      </trkpt>
      <trkpt lat="48.11231" lon="-3.82691">
        <ele>117.4</ele>
        <time>2020-06-08T09:09:51Z</time>
      </trkpt>
      <trkpt lat="48.11235" lon="-3.82691">
        <ele>117.5</ele>
        <time>2020-06-08T09:09:52Z</time>
      </trkpt>
      <trkpt lat="48.11239" lon="-3.82689">
        <ele>117.6</ele>
        <time>2020-06-08T09:09:53Z</time>
      </trkpt>
      <trkpt lat="48.11243" lon="-3.82689">
        <ele>117.7</ele>
        <time>2020-06-08T09:09:54Z</time>
      </trkpt>
      <trkpt lat="48.11246" lon="-3.82687">
        <ele>117.8</ele>
        <time>2020-06-08T09:09:55Z</time>
      </trkpt>
      <trkpt lat="48.11249" lon="-3.82686">
        <ele>117.9</ele>
        <time>2020-06-08T09:09:56Z</time>
      </trkpt>
      <trkpt lat="48.11252" lon="-3.82685">
        <ele>118</ele>
        <time>2020-06-08T09:09:57Z</time>
      </trkpt>
      <trkpt lat="48.11255" lon="-3.82684">
        <ele>118.1</ele>
        <time>2020-06-08T09:09:58Z</time>
      </trkpt>
      <trkpt lat="48.11258" lon="-3.82683">
        <ele>118.2</ele>
        <time>2020-06-08T09:09:59Z</time>
      </trkpt>
      <trkpt lat="48.11261" lon="-3.82682">
        <ele>118.3</ele>
        <time>2020-06-08T09:10:00Z</time>
      </trkpt>
      <trkpt lat="48.11264" lon="-3.82681">
        <ele>118.4</ele>
        <time>2020-06-08T09:10:01Z</time>
      </trkpt>
      <trkpt lat="48.11266" lon="-3.82679">
        <ele>118.5</ele>
        <time>2020-06-08T09:10:02Z</time>
      </trkpt>
      <trkpt lat="48.11269" lon="-3.82678">
        <ele>118.6</ele>
        <time>2020-06-08T09:10:03Z</time>
      </trkpt>
      <trkpt lat="48.11272" lon="-3.82677">
        <ele>118.7</ele>
        <time>2020-06-08T09:10:04Z</time>
      </trkpt>
      <trkpt lat="48.11275" lon="-3.82676">
        <ele>118.8</ele>
        <time>2020-06-08T09:10:05Z</time>
      </trkpt>
      <trkpt lat="48.11278" lon="-3.82677">
        <ele>118.9</ele>
        <time>2020-06-08T09:10:06Z</time>
      </trkpt>
      <trkpt lat="48.11281" lon="-3.82677">
        <ele>119</ele>
        <time>2020-06-08T09:10:07Z</time>
      </trkpt>
      <trkpt lat="48.11284" lon="-3.82676">
        <ele>119.1</ele>
        <time>2020-06-08T09:10:08Z</time>
      </trkpt>
      <trkpt lat="48.11288" lon="-3.82674">
        <ele>119.2</ele>
        <time>2020-06-08T09:10:09Z</time>
      </trkpt>
      <trkpt lat="48.11291" lon="-3.82673">
        <ele>119.4</ele>
        <time>2020-06-08T09:10:10Z</time>
      </trkpt>
      <trkpt lat="48.11294" lon="-3.82671">
        <ele>119.5</ele>
        <time>2020-06-08T09:10:11Z</time>
      </trkpt>
      <trkpt lat="48.11298" lon="-3.82672">
        <ele>119.6</ele>
        <time>2020-06-08T09:10:12Z</time>
      </trkpt>
      <trkpt lat="48.11302" lon="-3.82672">
        <ele>119.7</ele>
        <time>2020-06-08T09:10:13Z</time>
      </trkpt>
      <trkpt lat="48.11305" lon="-3.82671">
        <ele>119.8</ele>
        <time>2020-06-08T09:10:14Z</time>
      </trkpt>
      <trkpt lat="48.11308" lon="-3.8267">
        <ele>119.9</ele>
        <time>2020-06-08T09:10:15Z</time>
      </trkpt>
      <trkpt lat="48.11311" lon="-3.82669">
        <ele>119.9</ele>
        <time>2020-06-08T09:10:16Z</time>
      </trkpt>
      <trkpt lat="48.11314" lon="-3.82667">
        <ele>120</ele>
        <time>2020-06-08T09:10:17Z</time>
      </trkpt>
      <trkpt lat="48.11316" lon="-3.82666">
        <ele>120.1</ele>
        <time>2020-06-08T09:10:18Z</time>
      </trkpt>
      <trkpt lat="48.11319" lon="-3.82666">
        <ele>120.1</ele>
        <time>2020-06-08T09:10:19Z</time>
      </trkpt>
      <trkpt lat="48.11322" lon="-3.82666">
        <ele>120.2</ele>
        <time>2020-06-08T09:10:20Z</time>
      </trkpt>
      <trkpt lat="48.11325" lon="-3.82665">
        <ele>120.3</ele>
        <time>2020-06-08T09:10:21Z</time>
      </trkpt>
      <trkpt lat="48.11328" lon="-3.82664">
        <ele>120.4</ele>
        <time>2020-06-08T09:10:22Z</time>
      </trkpt>
      <trkpt lat="48.11331" lon="-3.82661">
        <ele>120.5</ele>
        <time>2020-06-08T09:10:23Z</time>
      </trkpt>
      <trkpt lat="48.11334" lon="-3.8266">
        <ele>120.6</ele>
        <time>2020-06-08T09:10:24Z</time>
      </trkpt>
      <trkpt lat="48.11337" lon="-3.8266">
        <ele>120.6</ele>
        <time>2020-06-08T09:10:25Z</time>
      </trkpt>
      <trkpt lat="48.1134" lon="-3.82659">
        <ele>120.7</ele>
        <time>2020-06-08T09:10:26Z</time>
      </trkpt>
      <trkpt lat="48.11344" lon="-3.8266">
        <ele>120.9</ele>
        <time>2020-06-08T09:10:27Z</time>
      </trkpt>
      <trkpt lat="48.11347" lon="-3.8266">
        <ele>121</ele>
        <time>2020-06-08T09:10:28Z</time>
      </trkpt>
      <trkpt lat="48.11352" lon="-3.82659">
        <ele>121.2</ele>
        <time>2020-06-08T09:10:29Z</time>
      </trkpt>
      <trkpt lat="48.11356" lon="-3.82657">
        <ele>121.5</ele>
        <time>2020-06-08T09:10:30Z</time>
      </trkpt>
      <trkpt lat="48.1136" lon="-3.82657">
        <ele>121.7</ele>
        <time>2020-06-08T09:10:31Z</time>
      </trkpt>
      <trkpt lat="48.11364" lon="-3.82657">
        <ele>121.8</ele>
        <time>2020-06-08T09:10:32Z</time>
      </trkpt>
      <trkpt lat="48.11368" lon="-3.82657">
        <ele>122</ele>
        <time>2020-06-08T09:10:33Z</time>
      </trkpt>
      <trkpt lat="48.11372" lon="-3.82656">
        <ele>122.2</ele>
        <time>2020-06-08T09:10:34Z</time>
      </trkpt>
      <trkpt lat="48.11376" lon="-3.82656">
        <ele>122.3</ele>
        <time>2020-06-08T09:10:35Z</time>
      </trkpt>
      <trkpt lat="48.11379" lon="-3.82655">
        <ele>122.5</ele>
        <time>2020-06-08T09:10:36Z</time>
      </trkpt>
      <trkpt lat="48.11383" lon="-3.82654">
        <ele>122.4</ele>
        <time>2020-06-08T09:10:37Z</time>
      </trkpt>
      <trkpt lat="48.11387" lon="-3.82653">
        <ele>122.5</ele>
        <time>2020-06-08T09:10:38Z</time>
      </trkpt>
      <trkpt lat="48.11389" lon="-3.82652">
        <ele>122.5</ele>
        <time>2020-06-08T09:10:39Z</time>
      </trkpt>
      <trkpt lat="48.11393" lon="-3.82651">
        <ele>122.6</ele>
        <time>2020-06-08T09:10:40Z</time>
      </trkpt>
      <trkpt lat="48.11397" lon="-3.8265">
        <ele>122.7</ele>
        <time>2020-06-08T09:10:41Z</time>
      </trkpt>
      <trkpt lat="48.114" lon="-3.8265">
        <ele>122.8</ele>
        <time>2020-06-08T09:10:42Z</time>
      </trkpt>
      <trkpt lat="48.11404" lon="-3.82649">
        <ele>122.9</ele>
        <time>2020-06-08T09:10:43Z</time>
      </trkpt>
      <trkpt lat="48.11407" lon="-3.82647">
        <ele>123.1</ele>
        <time>2020-06-08T09:10:44Z</time>
      </trkpt>
      <trkpt lat="48.11411" lon="-3.82646">
        <ele>123.2</ele>
        <time>2020-06-08T09:10:45Z</time>
      </trkpt>
      <trkpt lat="48.11414" lon="-3.82646">
        <ele>123.2</ele>
        <time>2020-06-08T09:10:46Z</time>
      </trkpt>
      <trkpt lat="48.11417" lon="-3.82645">
        <ele>123.3</ele>
        <time>2020-06-08T09:10:47Z</time>
      </trkpt>
      <trkpt lat="48.11421" lon="-3.82644">
        <ele>123.4</ele>
        <time>2020-06-08T09:10:48Z</time>
      </trkpt>
      <trkpt lat="48.11423" lon="-3.82644">
        <ele>123.5</ele>
        <time>2020-06-08T09:10:49Z</time>
      </trkpt>
      <trkpt lat="48.11426" lon="-3.82644">
        <ele>123.6</ele>
        <time>2020-06-08T09:10:50Z</time>
      </trkpt>
      <trkpt lat="48.11429" lon="-3.82643">
        <ele>123.7</ele>
        <time>2020-06-08T09:10:51Z</time>
      </trkpt>
      <trkpt lat="48.11433" lon="-3.82643">
        <ele>123.8</ele>
        <time>2020-06-08T09:10:52Z</time>
      </trkpt>
      <trkpt lat="48.11436" lon="-3.82642">
        <ele>123.9</ele>
        <time>2020-06-08T09:10:53Z</time>
      </trkpt>
      <trkpt lat="48.11439" lon="-3.82641">
        <ele>124</ele>
        <time>2020-06-08T09:10:54Z</time>
      </trkpt>
      <trkpt lat="48.11442" lon="-3.8264">
        <ele>124.1</ele>
        <time>2020-06-08T09:10:55Z</time>
      </trkpt>
      <trkpt lat="48.11446" lon="-3.82639">
        <ele>124.2</ele>
        <time>2020-06-08T09:10:56Z</time>
      </trkpt>
      <trkpt lat="48.11449" lon="-3.82638">
        <ele>124.2</ele>
        <time>2020-06-08T09:10:57Z</time>
      </trkpt>
      <trkpt lat="48.11453" lon="-3.82637">
        <ele>124.3</ele>
        <time>2020-06-08T09:10:58Z</time>
      </trkpt>
      <trkpt lat="48.11456" lon="-3.82637">
        <ele>124.4</ele>
        <time>2020-06-08T09:10:59Z</time>
      </trkpt>
      <trkpt lat="48.1146" lon="-3.82637">
        <ele>124.5</ele>
        <time>2020-06-08T09:11:00Z</time>
      </trkpt>
      <trkpt lat="48.11463" lon="-3.82636">
        <ele>124.6</ele>
        <time>2020-06-08T09:11:01Z</time>
      </trkpt>
      <trkpt lat="48.11467" lon="-3.82635">
        <ele>124.7</ele>
        <time>2020-06-08T09:11:02Z</time>
      </trkpt>
      <trkpt lat="48.1147" lon="-3.82634">
        <ele>124.8</ele>
        <time>2020-06-08T09:11:03Z</time>
      </trkpt>
      <trkpt lat="48.11474" lon="-3.82634">
        <ele>124.9</ele>
        <time>2020-06-08T09:11:04Z</time>
      </trkpt>
      <trkpt lat="48.11477" lon="-3.82633">
        <ele>124.9</ele>
        <time>2020-06-08T09:11:05Z</time>
      </trkpt>
      <trkpt lat="48.11481" lon="-3.82633">
        <ele>125</ele>
        <time>2020-06-08T09:11:06Z</time>
      </trkpt>
      <trkpt lat="48.11485" lon="-3.82633">
        <ele>125.1</ele>
        <time>2020-06-08T09:11:07Z</time>
      </trkpt>
      <trkpt lat="48.11487" lon="-3.82633">
        <ele>125.2</ele>
        <time>2020-06-08T09:11:08Z</time>
      </trkpt>
      <trkpt lat="48.11491" lon="-3.82632">
        <ele>125.2</ele>
        <time>2020-06-08T09:11:09Z</time>
      </trkpt>
      <trkpt lat="48.11495" lon="-3.82631">
        <ele>125.2</ele>
        <time>2020-06-08T09:11:10Z</time>
      </trkpt>
      <trkpt lat="48.11499" lon="-3.82631">
        <ele>125.2</ele>
        <time>2020-06-08T09:11:11Z</time>
      </trkpt>
      <trkpt lat="48.11502" lon="-3.8263">
        <ele>125.3</ele>
        <time>2020-06-08T09:11:12Z</time>
      </trkpt>
      <trkpt lat="48.11506" lon="-3.82629">
        <ele>125.3</ele>
        <time>2020-06-08T09:11:13Z</time>
      </trkpt>
      <trkpt lat="48.1151" lon="-3.82629">
        <ele>125.3</ele>
        <time>2020-06-08T09:11:14Z</time>
      </trkpt>
      <trkpt lat="48.11514" lon="-3.82629">
        <ele>125.3</ele>
        <time>2020-06-08T09:11:15Z</time>
      </trkpt>
      <trkpt lat="48.11519" lon="-3.82629">
        <ele>125.4</ele>
        <time>2020-06-08T09:11:16Z</time>
      </trkpt>
      <trkpt lat="48.11524" lon="-3.82628">
        <ele>125.5</ele>
        <time>2020-06-08T09:11:17Z</time>
      </trkpt>
      <trkpt lat="48.11528" lon="-3.82628">
        <ele>125.5</ele>
        <time>2020-06-08T09:11:18Z</time>
      </trkpt>
      <trkpt lat="48.11532" lon="-3.82628">
        <ele>125.6</ele>
        <time>2020-06-08T09:11:19Z</time>
      </trkpt>
      <trkpt lat="48.11536" lon="-3.82628">
        <ele>125.6</ele>
        <time>2020-06-08T09:11:20Z</time>
      </trkpt>
      <trkpt lat="48.11539" lon="-3.82628">
        <ele>125.6</ele>
        <time>2020-06-08T09:11:21Z</time>
      </trkpt>
      <trkpt lat="48.11543" lon="-3.82628">
        <ele>125.7</ele>
        <time>2020-06-08T09:11:22Z</time>
      </trkpt>
      <trkpt lat="48.11546" lon="-3.82629">
        <ele>125.7</ele>
        <time>2020-06-08T09:11:23Z</time>
      </trkpt>
      <trkpt lat="48.1155" lon="-3.82628">
        <ele>125.7</ele>
        <time>2020-06-08T09:11:24Z</time>
      </trkpt>
      <trkpt lat="48.11553" lon="-3.82628">
        <ele>125.7</ele>
        <time>2020-06-08T09:11:25Z</time>
      </trkpt>
      <trkpt lat="48.11556" lon="-3.82628">
        <ele>125.7</ele>
        <time>2020-06-08T09:11:26Z</time>
      </trkpt>
      <trkpt lat="48.11559" lon="-3.82628">
        <ele>125.8</ele>
        <time>2020-06-08T09:11:27Z</time>
      </trkpt>
      <trkpt lat="48.11563" lon="-3.82628">
        <ele>125.8</ele>
        <time>2020-06-08T09:11:28Z</time>
      </trkpt>
      <trkpt lat="48.11567" lon="-3.82628">
        <ele>125.8</ele>
        <time>2020-06-08T09:11:29Z</time>
      </trkpt>
      <trkpt lat="48.11571" lon="-3.82629">
        <ele>125.9</ele>
        <time>2020-06-08T09:11:30Z</time>
      </trkpt>
      <trkpt lat="48.11575" lon="-3.82629">
        <ele>126</ele>
        <time>2020-06-08T09:11:31Z</time>
      </trkpt>
      <trkpt lat="48.11578" lon="-3.82629">
        <ele>126</ele>
        <time>2020-06-08T09:11:32Z</time>
      </trkpt>
      <trkpt lat="48.11581" lon="-3.82629">
        <ele>126.1</ele>
        <time>2020-06-08T09:11:33Z</time>
      </trkpt>
      <trkpt lat="48.11584" lon="-3.8263">
        <ele>126.2</ele>
        <time>2020-06-08T09:11:34Z</time>
      </trkpt>
      <trkpt lat="48.11586" lon="-3.8263">
        <ele>126.2</ele>
        <time>2020-06-08T09:11:35Z</time>
      </trkpt>
      <trkpt lat="48.11589" lon="-3.8263">
        <ele>126.3</ele>
        <time>2020-06-08T09:11:36Z</time>
      </trkpt>
      <trkpt lat="48.11594" lon="-3.8263">
        <ele>126.4</ele>
        <time>2020-06-08T09:11:37Z</time>
      </trkpt>
      <trkpt lat="48.11598" lon="-3.8263">
        <ele>126.5</ele>
        <time>2020-06-08T09:11:38Z</time>
      </trkpt>
      <trkpt lat="48.116" lon="-3.8263">
        <ele>126.5</ele>
        <time>2020-06-08T09:11:39Z</time>
      </trkpt>
      <trkpt lat="48.11604" lon="-3.8263">
        <ele>126.6</ele>
        <time>2020-06-08T09:11:40Z</time>
      </trkpt>
      <trkpt lat="48.11608" lon="-3.82631">
        <ele>126.7</ele>
        <time>2020-06-08T09:11:41Z</time>
      </trkpt>
      <trkpt lat="48.11611" lon="-3.8263">
        <ele>126.8</ele>
        <time>2020-06-08T09:11:42Z</time>
      </trkpt>
      <trkpt lat="48.11615" lon="-3.82631">
        <ele>126.9</ele>
        <time>2020-06-08T09:11:43Z</time>
      </trkpt>
      <trkpt lat="48.11618" lon="-3.82631">
        <ele>127</ele>
        <time>2020-06-08T09:11:44Z</time>
      </trkpt>
      <trkpt lat="48.11622" lon="-3.82631">
        <ele>127.1</ele>
        <time>2020-06-08T09:11:45Z</time>
      </trkpt>
      <trkpt lat="48.11626" lon="-3.82631">
        <ele>127.3</ele>
        <time>2020-06-08T09:11:46Z</time>
      </trkpt>
      <trkpt lat="48.1163" lon="-3.82631">
        <ele>127.5</ele>
        <time>2020-06-08T09:11:47Z</time>
      </trkpt>
      <trkpt lat="48.11634" lon="-3.8263">
        <ele>127.7</ele>
        <time>2020-06-08T09:11:48Z</time>
      </trkpt>
      <trkpt lat="48.11638" lon="-3.82629">
        <ele>127.8</ele>
        <time>2020-06-08T09:11:49Z</time>
      </trkpt>
      <trkpt lat="48.11644" lon="-3.82628">
        <ele>128</ele>
        <time>2020-06-08T09:11:50Z</time>
      </trkpt>
      <trkpt lat="48.11647" lon="-3.82627">
        <ele>128</ele>
        <time>2020-06-08T09:11:51Z</time>
      </trkpt>
      <trkpt lat="48.1165" lon="-3.82627">
        <ele>128.1</ele>
        <time>2020-06-08T09:11:52Z</time>
      </trkpt>
      <trkpt lat="48.11654" lon="-3.82625">
        <ele>128.1</ele>
        <time>2020-06-08T09:11:53Z</time>
      </trkpt>
      <trkpt lat="48.11658" lon="-3.82624">
        <ele>128.2</ele>
        <time>2020-06-08T09:11:54Z</time>
      </trkpt>
      <trkpt lat="48.11661" lon="-3.82622">
        <ele>128.3</ele>
        <time>2020-06-08T09:11:55Z</time>
      </trkpt>
      <trkpt lat="48.11665" lon="-3.82621">
        <ele>128.3</ele>
        <time>2020-06-08T09:11:56Z</time>
      </trkpt>
      <trkpt lat="48.11669" lon="-3.82619">
        <ele>128.4</ele>
        <time>2020-06-08T09:11:57Z</time>
      </trkpt>
      <trkpt lat="48.11672" lon="-3.82617">
        <ele>128.5</ele>
        <time>2020-06-08T09:11:58Z</time>
      </trkpt>
      <trkpt lat="48.11676" lon="-3.82615">
        <ele>128.6</ele>
        <time>2020-06-08T09:11:59Z</time>
      </trkpt>
      <trkpt lat="48.1168" lon="-3.82613">
        <ele>128.6</ele>
        <time>2020-06-08T09:12:00Z</time>
      </trkpt>
      <trkpt lat="48.11684" lon="-3.82611">
        <ele>128.7</ele>
        <time>2020-06-08T09:12:01Z</time>
      </trkpt>
      <trkpt lat="48.11687" lon="-3.82608">
        <ele>128.6</ele>
        <time>2020-06-08T09:12:02Z</time>
      </trkpt>
      <trkpt lat="48.11691" lon="-3.82606">
        <ele>128.4</ele>
        <time>2020-06-08T09:12:03Z</time>
      </trkpt>
      <trkpt lat="48.11693" lon="-3.82605">
        <ele>128.2</ele>
        <time>2020-06-08T09:12:04Z</time>
      </trkpt>
      <trkpt lat="48.11696" lon="-3.82603">
        <ele>127.8</ele>
        <time>2020-06-08T09:12:05Z</time>
      </trkpt>
      <trkpt lat="48.11699" lon="-3.82602">
        <ele>127.4</ele>
        <time>2020-06-08T09:12:06Z</time>
      </trkpt>
      <trkpt lat="48.11701" lon="-3.82599">
        <ele>127</ele>
        <time>2020-06-08T09:12:07Z</time>
      </trkpt>
      <trkpt lat="48.11705" lon="-3.82595">
        <ele>127.1</ele>
        <time>2020-06-08T09:12:08Z</time>
      </trkpt>
      <trkpt lat="48.11707" lon="-3.82592">
        <ele>127.2</ele>
        <time>2020-06-08T09:12:09Z</time>
      </trkpt>
      <trkpt lat="48.1171" lon="-3.8259">
        <ele>127.3</ele>
        <time>2020-06-08T09:12:10Z</time>
      </trkpt>
      <trkpt lat="48.11712" lon="-3.82587">
        <ele>127.3</ele>
        <time>2020-06-08T09:12:11Z</time>
      </trkpt>
      <trkpt lat="48.11715" lon="-3.82582">
        <ele>127.4</ele>
        <time>2020-06-08T09:12:12Z</time>
      </trkpt>
      <trkpt lat="48.11717" lon="-3.8258">
        <ele>127.5</ele>
        <time>2020-06-08T09:12:13Z</time>
      </trkpt>
      <trkpt lat="48.11719" lon="-3.82577">
        <ele>127.6</ele>
        <time>2020-06-08T09:12:14Z</time>
      </trkpt>
      <trkpt lat="48.1172" lon="-3.82573">
        <ele>127.6</ele>
        <time>2020-06-08T09:12:15Z</time>
      </trkpt>
      <trkpt lat="48.11722" lon="-3.82569">
        <ele>127.7</ele>
        <time>2020-06-08T09:12:16Z</time>
      </trkpt>
      <trkpt lat="48.11723" lon="-3.82567">
        <ele>127.8</ele>
        <time>2020-06-08T09:12:17Z</time>
      </trkpt>
      <trkpt lat="48.11725" lon="-3.82563">
        <ele>127.8</ele>
        <time>2020-06-08T09:12:18Z</time>
      </trkpt>
      <trkpt lat="48.11727" lon="-3.82559">
        <ele>127.9</ele>
        <time>2020-06-08T09:12:19Z</time>
      </trkpt>
      <trkpt lat="48.11729" lon="-3.82555">
        <ele>128</ele>
        <time>2020-06-08T09:12:20Z</time>
      </trkpt>
      <trkpt lat="48.11732" lon="-3.8255">
        <ele>128.1</ele>
        <time>2020-06-08T09:12:21Z</time>
      </trkpt>
      <trkpt lat="48.11733" lon="-3.82545">
        <ele>128.1</ele>
        <time>2020-06-08T09:12:22Z</time>
      </trkpt>
      <trkpt lat="48.11735" lon="-3.8254">
        <ele>128.2</ele>
        <time>2020-06-08T09:12:23Z</time>
      </trkpt>
      <trkpt lat="48.11736" lon="-3.82534">
        <ele>128.2</ele>
        <time>2020-06-08T09:12:24Z</time>
      </trkpt>
      <trkpt lat="48.11738" lon="-3.8253">
        <ele>128.3</ele>
        <time>2020-06-08T09:12:25Z</time>
      </trkpt>
      <trkpt lat="48.11739" lon="-3.82526">
        <ele>128.3</ele>
        <time>2020-06-08T09:12:26Z</time>
      </trkpt>
      <trkpt lat="48.11741" lon="-3.82522">
        <ele>128.4</ele>
        <time>2020-06-08T09:12:27Z</time>
      </trkpt>
      <trkpt lat="48.11742" lon="-3.82516">
        <ele>128.4</ele>
        <time>2020-06-08T09:12:28Z</time>
      </trkpt>
      <trkpt lat="48.11742" lon="-3.82514">
        <ele>128.5</ele>
        <time>2020-06-08T09:12:29Z</time>
      </trkpt>
      <trkpt lat="48.11743" lon="-3.82509">
        <ele>128.6</ele>
        <time>2020-06-08T09:12:30Z</time>
      </trkpt>
      <trkpt lat="48.11745" lon="-3.82505">
        <ele>128.7</ele>
        <time>2020-06-08T09:12:31Z</time>
      </trkpt>
      <trkpt lat="48.11748" lon="-3.82502">
        <ele>128.8</ele>
        <time>2020-06-08T09:12:32Z</time>
      </trkpt>
      <trkpt lat="48.1175" lon="-3.82497">
        <ele>128.9</ele>
        <time>2020-06-08T09:12:33Z</time>
      </trkpt>
      <trkpt lat="48.11752" lon="-3.82494">
        <ele>129</ele>
        <time>2020-06-08T09:12:34Z</time>
      </trkpt>
      <trkpt lat="48.11754" lon="-3.82491">
        <ele>129.1</ele>
        <time>2020-06-08T09:12:35Z</time>
      </trkpt>
      <trkpt lat="48.11757" lon="-3.82487">
        <ele>129.3</ele>
        <time>2020-06-08T09:12:36Z</time>
      </trkpt>
      <trkpt lat="48.1176" lon="-3.82485">
        <ele>129.4</ele>
        <time>2020-06-08T09:12:37Z</time>
      </trkpt>
      <trkpt lat="48.11764" lon="-3.82482">
        <ele>129.5</ele>
        <time>2020-06-08T09:12:38Z</time>
      </trkpt>
      <trkpt lat="48.11767" lon="-3.82479">
        <ele>129.6</ele>
        <time>2020-06-08T09:12:39Z</time>
      </trkpt>
      <trkpt lat="48.1177" lon="-3.82477">
        <ele>129.7</ele>
        <time>2020-06-08T09:12:40Z</time>
      </trkpt>
      <trkpt lat="48.11773" lon="-3.82475">
        <ele>129.8</ele>
        <time>2020-06-08T09:12:41Z</time>
      </trkpt>
      <trkpt lat="48.11777" lon="-3.82472">
        <ele>129.9</ele>
        <time>2020-06-08T09:12:42Z</time>
      </trkpt>
      <trkpt lat="48.11781" lon="-3.82472">
        <ele>130</ele>
        <time>2020-06-08T09:12:43Z</time>
      </trkpt>
      <trkpt lat="48.11783" lon="-3.82472">
        <ele>130.1</ele>
        <time>2020-06-08T09:12:44Z</time>
      </trkpt>
      <trkpt lat="48.11787" lon="-3.82471">
        <ele>130.1</ele>
        <time>2020-06-08T09:12:45Z</time>
      </trkpt>
      <trkpt lat="48.11789" lon="-3.8247">
        <ele>130.2</ele>
        <time>2020-06-08T09:12:46Z</time>
      </trkpt>
      <trkpt lat="48.11793" lon="-3.82468">
        <ele>130.2</ele>
        <time>2020-06-08T09:12:47Z</time>
      </trkpt>
      <trkpt lat="48.11797" lon="-3.82467">
        <ele>130.3</ele>
        <time>2020-06-08T09:12:48Z</time>
      </trkpt>
      <trkpt lat="48.118" lon="-3.82466">
        <ele>130.4</ele>
        <time>2020-06-08T09:12:49Z</time>
      </trkpt>
      <trkpt lat="48.11804" lon="-3.82465">
        <ele>130.5</ele>
        <time>2020-06-08T09:12:50Z</time>
      </trkpt>
      <trkpt lat="48.11808" lon="-3.82464">
        <ele>130.6</ele>
        <time>2020-06-08T09:12:51Z</time>
      </trkpt>
      <trkpt lat="48.11812" lon="-3.82464">
        <ele>130.7</ele>
        <time>2020-06-08T09:12:52Z</time>
      </trkpt>
      <trkpt lat="48.11816" lon="-3.82462">
        <ele>130.8</ele>
        <time>2020-06-08T09:12:53Z</time>
      </trkpt>
      <trkpt lat="48.11818" lon="-3.82461">
        <ele>130.8</ele>
        <time>2020-06-08T09:12:54Z</time>
      </trkpt>
      <trkpt lat="48.11821" lon="-3.82459">
        <ele>130.9</ele>
        <time>2020-06-08T09:12:55Z</time>
      </trkpt>
      <trkpt lat="48.11825" lon="-3.82457">
        <ele>131.1</ele>
        <time>2020-06-08T09:12:56Z</time>
      </trkpt>
      <trkpt lat="48.11829" lon="-3.82455">
        <ele>131.2</ele>
        <time>2020-06-08T09:12:57Z</time>
      </trkpt>
      <trkpt lat="48.11831" lon="-3.82454">
        <ele>131.2</ele>
        <time>2020-06-08T09:12:58Z</time>
      </trkpt>
      <trkpt lat="48.11834" lon="-3.82453">
        <ele>131.3</ele>
        <time>2020-06-08T09:12:59Z</time>
      </trkpt>
      <trkpt lat="48.11837" lon="-3.82452">
        <ele>131.4</ele>
        <time>2020-06-08T09:13:00Z</time>
      </trkpt>
      <trkpt lat="48.1184" lon="-3.82451">
        <ele>131.5</ele>
        <time>2020-06-08T09:13:01Z</time>
      </trkpt>
      <trkpt lat="48.11844" lon="-3.8245">
        <ele>131.6</ele>
        <time>2020-06-08T09:13:02Z</time>
      </trkpt>
      <trkpt lat="48.11847" lon="-3.8245">
        <ele>131.7</ele>
        <time>2020-06-08T09:13:03Z</time>
      </trkpt>
      <trkpt lat="48.11851" lon="-3.82449">
        <ele>131.8</ele>
        <time>2020-06-08T09:13:04Z</time>
      </trkpt>
      <trkpt lat="48.11855" lon="-3.82448">
        <ele>131.9</ele>
        <time>2020-06-08T09:13:05Z</time>
      </trkpt>
      <trkpt lat="48.1186" lon="-3.82447">
        <ele>132</ele>
        <time>2020-06-08T09:13:06Z</time>
      </trkpt>
      <trkpt lat="48.11865" lon="-3.82446">
        <ele>132.1</ele>
        <time>2020-06-08T09:13:07Z</time>
      </trkpt>
      <trkpt lat="48.11868" lon="-3.82446">
        <ele>132.2</ele>
        <time>2020-06-08T09:13:08Z</time>
      </trkpt>
      <trkpt lat="48.11872" lon="-3.82445">
        <ele>132.2</ele>
        <time>2020-06-08T09:13:09Z</time>
      </trkpt>
      <trkpt lat="48.11873" lon="-3.82444">
        <ele>132.3</ele>
        <time>2020-06-08T09:13:10Z</time>
      </trkpt>
      <trkpt lat="48.11876" lon="-3.82443">
        <ele>132.4</ele>
        <time>2020-06-08T09:13:11Z</time>
      </trkpt>
      <trkpt lat="48.1188" lon="-3.82441">
        <ele>132.5</ele>
        <time>2020-06-08T09:13:12Z</time>
      </trkpt>
      <trkpt lat="48.11882" lon="-3.82439">
        <ele>132.6</ele>
        <time>2020-06-08T09:13:13Z</time>
      </trkpt>
      <trkpt lat="48.11885" lon="-3.82438">
        <ele>132.7</ele>
        <time>2020-06-08T09:13:14Z</time>
      </trkpt>
      <trkpt lat="48.11888" lon="-3.82437">
        <ele>132.8</ele>
        <time>2020-06-08T09:13:15Z</time>
      </trkpt>
      <trkpt lat="48.11889" lon="-3.82437">
        <ele>132.8</ele>
        <time>2020-06-08T09:13:16Z</time>
      </trkpt>
      <trkpt lat="48.11893" lon="-3.82436">
        <ele>133</ele>
        <time>2020-06-08T09:13:17Z</time>
      </trkpt>
      <trkpt lat="48.11896" lon="-3.82435">
        <ele>133.1</ele>
        <time>2020-06-08T09:13:18Z</time>
      </trkpt>
      <trkpt lat="48.119" lon="-3.82435">
        <ele>133.2</ele>
        <time>2020-06-08T09:13:19Z</time>
      </trkpt>
      <trkpt lat="48.11904" lon="-3.82434">
        <ele>133.3</ele>
        <time>2020-06-08T09:13:20Z</time>
      </trkpt>
      <trkpt lat="48.11907" lon="-3.82433">
        <ele>133.4</ele>
        <time>2020-06-08T09:13:21Z</time>
      </trkpt>
      <trkpt lat="48.1191" lon="-3.82431">
        <ele>133.5</ele>
        <time>2020-06-08T09:13:22Z</time>
      </trkpt>
      <trkpt lat="48.11914" lon="-3.8243">
        <ele>133.5</ele>
        <time>2020-06-08T09:13:23Z</time>
      </trkpt>
      <trkpt lat="48.11917" lon="-3.82428">
        <ele>133.5</ele>
        <time>2020-06-08T09:13:24Z</time>
      </trkpt>
      <trkpt lat="48.11922" lon="-3.82425">
        <ele>133.6</ele>
        <time>2020-06-08T09:13:25Z</time>
      </trkpt>
      <trkpt lat="48.11926" lon="-3.82423">
        <ele>133.6</ele>
        <time>2020-06-08T09:13:26Z</time>
      </trkpt>
      <trkpt lat="48.11929" lon="-3.82422">
        <ele>133.6</ele>
        <time>2020-06-08T09:13:27Z</time>
      </trkpt>
      <trkpt lat="48.11932" lon="-3.82421">
        <ele>133.7</ele>
        <time>2020-06-08T09:13:28Z</time>
      </trkpt>
      <trkpt lat="48.11935" lon="-3.82419">
        <ele>133.7</ele>
        <time>2020-06-08T09:13:29Z</time>
      </trkpt>
      <trkpt lat="48.11939" lon="-3.82419">
        <ele>133.8</ele>
        <time>2020-06-08T09:13:30Z</time>
      </trkpt>
      <trkpt lat="48.11944" lon="-3.82418">
        <ele>134</ele>
        <time>2020-06-08T09:13:31Z</time>
      </trkpt>
      <trkpt lat="48.11946" lon="-3.82418">
        <ele>134</ele>
        <time>2020-06-08T09:13:32Z</time>
      </trkpt>
      <trkpt lat="48.1195" lon="-3.82418">
        <ele>134.1</ele>
        <time>2020-06-08T09:13:33Z</time>
      </trkpt>
      <trkpt lat="48.11954" lon="-3.82418">
        <ele>134.2</ele>
        <time>2020-06-08T09:13:34Z</time>
      </trkpt>
      <trkpt lat="48.11958" lon="-3.82419">
        <ele>134.3</ele>
        <time>2020-06-08T09:13:35Z</time>
      </trkpt>
      <trkpt lat="48.11963" lon="-3.82419">
        <ele>134.3</ele>
        <time>2020-06-08T09:13:36Z</time>
      </trkpt>
      <trkpt lat="48.11968" lon="-3.82417">
        <ele>134.3</ele>
        <time>2020-06-08T09:13:37Z</time>
      </trkpt>
      <trkpt lat="48.11972" lon="-3.82416">
        <ele>134.4</ele>
        <time>2020-06-08T09:13:38Z</time>
      </trkpt>
      <trkpt lat="48.11974" lon="-3.82414">
        <ele>134.4</ele>
        <time>2020-06-08T09:13:39Z</time>
      </trkpt>
      <trkpt lat="48.11978" lon="-3.82413">
        <ele>134.4</ele>
        <time>2020-06-08T09:13:40Z</time>
      </trkpt>
      <trkpt lat="48.11981" lon="-3.82411">
        <ele>134.4</ele>
        <time>2020-06-08T09:13:41Z</time>
      </trkpt>
      <trkpt lat="48.11987" lon="-3.82408">
        <ele>134.4</ele>
        <time>2020-06-08T09:13:42Z</time>
      </trkpt>
      <trkpt lat="48.11991" lon="-3.82406">
        <ele>134.4</ele>
        <time>2020-06-08T09:13:43Z</time>
      </trkpt>
      <trkpt lat="48.11994" lon="-3.82405">
        <ele>134.3</ele>
        <time>2020-06-08T09:13:44Z</time>
      </trkpt>
      <trkpt lat="48.11997" lon="-3.82406">
        <ele>134.3</ele>
        <time>2020-06-08T09:13:45Z</time>
      </trkpt>
      <trkpt lat="48.12" lon="-3.82405">
        <ele>134.2</ele>
        <time>2020-06-08T09:13:46Z</time>
      </trkpt>
      <trkpt lat="48.12001" lon="-3.82405">
        <ele>134.1</ele>
        <time>2020-06-08T09:13:47Z</time>
      </trkpt>
      <trkpt lat="48.12005" lon="-3.82404">
        <ele>134</ele>
        <time>2020-06-08T09:13:48Z</time>
      </trkpt>
      <trkpt lat="48.12008" lon="-3.82404">
        <ele>134</ele>
        <time>2020-06-08T09:13:49Z</time>
      </trkpt>
      <trkpt lat="48.12012" lon="-3.82403">
        <ele>134.1</ele>
        <time>2020-06-08T09:13:50Z</time>
      </trkpt>
      <trkpt lat="48.12015" lon="-3.82402">
        <ele>134.2</ele>
        <time>2020-06-08T09:13:51Z</time>
      </trkpt>
      <trkpt lat="48.12018" lon="-3.824">
        <ele>134.3</ele>
        <time>2020-06-08T09:13:52Z</time>
      </trkpt>
      <trkpt lat="48.12021" lon="-3.82398">
        <ele>134.3</ele>
        <time>2020-06-08T09:13:53Z</time>
      </trkpt>
      <trkpt lat="48.12025" lon="-3.82398">
        <ele>134.4</ele>
        <time>2020-06-08T09:13:54Z</time>
      </trkpt>
      <trkpt lat="48.12027" lon="-3.82398">
        <ele>134.5</ele>
        <time>2020-06-08T09:13:55Z</time>
      </trkpt>
      <trkpt lat="48.1203" lon="-3.82397">
        <ele>134.5</ele>
        <time>2020-06-08T09:13:56Z</time>
      </trkpt>
      <trkpt lat="48.12033" lon="-3.82395">
        <ele>134.6</ele>
        <time>2020-06-08T09:13:57Z</time>
      </trkpt>
      <trkpt lat="48.12037" lon="-3.82394">
        <ele>134.7</ele>
        <time>2020-06-08T09:13:58Z</time>
      </trkpt>
      <trkpt lat="48.1204" lon="-3.82393">
        <ele>134.8</ele>
        <time>2020-06-08T09:13:59Z</time>
      </trkpt>
      <trkpt lat="48.12045" lon="-3.82392">
        <ele>134.9</ele>
        <time>2020-06-08T09:14:00Z</time>
      </trkpt>
      <trkpt lat="48.12048" lon="-3.82391">
        <ele>135</ele>
        <time>2020-06-08T09:14:01Z</time>
      </trkpt>
      <trkpt lat="48.12052" lon="-3.8239">
        <ele>135.1</ele>
        <time>2020-06-08T09:14:02Z</time>
      </trkpt>
      <trkpt lat="48.12055" lon="-3.82389">
        <ele>135.2</ele>
        <time>2020-06-08T09:14:03Z</time>
      </trkpt>
      <trkpt lat="48.12058" lon="-3.82387">
        <ele>135.3</ele>
        <time>2020-06-08T09:14:04Z</time>
      </trkpt>
      <trkpt lat="48.12061" lon="-3.82386">
        <ele>135.4</ele>
        <time>2020-06-08T09:14:05Z</time>
      </trkpt>
      <trkpt lat="48.12063" lon="-3.82385">
        <ele>135.5</ele>
        <time>2020-06-08T09:14:06Z</time>
      </trkpt>
      <trkpt lat="48.12066" lon="-3.82383">
        <ele>135.6</ele>
        <time>2020-06-08T09:14:07Z</time>
      </trkpt>
      <trkpt lat="48.12067" lon="-3.82382">
        <ele>135.6</ele>
        <time>2020-06-08T09:14:08Z</time>
      </trkpt>
      <trkpt lat="48.1207" lon="-3.8238">
        <ele>135.8</ele>
        <time>2020-06-08T09:14:09Z</time>
      </trkpt>
      <trkpt lat="48.12071" lon="-3.82379">
        <ele>135.8</ele>
        <time>2020-06-08T09:14:10Z</time>
      </trkpt>
      <trkpt lat="48.12073" lon="-3.82376">
        <ele>135.9</ele>
        <time>2020-06-08T09:14:11Z</time>
      </trkpt>
      <trkpt lat="48.12077" lon="-3.82376">
        <ele>136.1</ele>
        <time>2020-06-08T09:14:12Z</time>
      </trkpt>
      <trkpt lat="48.1208" lon="-3.82375">
        <ele>136.2</ele>
        <time>2020-06-08T09:14:13Z</time>
      </trkpt>
      <trkpt lat="48.12083" lon="-3.82372">
        <ele>136.3</ele>
        <time>2020-06-08T09:14:14Z</time>
      </trkpt>
      <trkpt lat="48.12087" lon="-3.8237">
        <ele>136.4</ele>
        <time>2020-06-08T09:14:15Z</time>
      </trkpt>
      <trkpt lat="48.12088" lon="-3.82368">
        <ele>136.5</ele>
        <time>2020-06-08T09:14:16Z</time>
      </trkpt>
      <trkpt lat="48.12091" lon="-3.82367">
        <ele>136.6</ele>
        <time>2020-06-08T09:14:17Z</time>
      </trkpt>
      <trkpt lat="48.12094" lon="-3.82365">
        <ele>136.7</ele>
        <time>2020-06-08T09:14:18Z</time>
      </trkpt>
      <trkpt lat="48.12098" lon="-3.8236">
        <ele>136.9</ele>
        <time>2020-06-08T09:14:19Z</time>
      </trkpt>
      <trkpt lat="48.12101" lon="-3.82358">
        <ele>137</ele>
        <time>2020-06-08T09:14:20Z</time>
      </trkpt>
      <trkpt lat="48.12105" lon="-3.82356">
        <ele>137.1</ele>
        <time>2020-06-08T09:14:21Z</time>
      </trkpt>
      <trkpt lat="48.12106" lon="-3.82355">
        <ele>137.2</ele>
        <time>2020-06-08T09:14:22Z</time>
      </trkpt>
      <trkpt lat="48.1211" lon="-3.82352">
        <ele>137.3</ele>
        <time>2020-06-08T09:14:23Z</time>
      </trkpt>
      <trkpt lat="48.12114" lon="-3.8235">
        <ele>137.5</ele>
        <time>2020-06-08T09:14:24Z</time>
      </trkpt>
      <trkpt lat="48.12117" lon="-3.82348">
        <ele>137.6</ele>
        <time>2020-06-08T09:14:25Z</time>
      </trkpt>
      <trkpt lat="48.1212" lon="-3.82346">
        <ele>137.7</ele>
        <time>2020-06-08T09:14:26Z</time>
      </trkpt>
      <trkpt lat="48.12124" lon="-3.82344">
        <ele>137.9</ele>
        <time>2020-06-08T09:14:27Z</time>
      </trkpt>
      <trkpt lat="48.12127" lon="-3.82343">
        <ele>138</ele>
        <time>2020-06-08T09:14:28Z</time>
      </trkpt>
      <trkpt lat="48.12128" lon="-3.82342">
        <ele>138</ele>
        <time>2020-06-08T09:14:29Z</time>
      </trkpt>
      <trkpt lat="48.1213" lon="-3.82341">
        <ele>138.1</ele>
        <time>2020-06-08T09:14:30Z</time>
      </trkpt>
      <trkpt lat="48.12133" lon="-3.82339">
        <ele>138.2</ele>
        <time>2020-06-08T09:14:31Z</time>
      </trkpt>
      <trkpt lat="48.12135" lon="-3.82339">
        <ele>138.3</ele>
        <time>2020-06-08T09:14:32Z</time>
      </trkpt>
      <trkpt lat="48.12136" lon="-3.82338">
        <ele>138.4</ele>
        <time>2020-06-08T09:14:33Z</time>
      </trkpt>
      <trkpt lat="48.12139" lon="-3.82335">
        <ele>138.5</ele>
        <time>2020-06-08T09:14:34Z</time>
      </trkpt>
      <trkpt lat="48.12142" lon="-3.82334">
        <ele>138.6</ele>
        <time>2020-06-08T09:14:35Z</time>
      </trkpt>
      <trkpt lat="48.12147" lon="-3.82334">
        <ele>138.7</ele>
        <time>2020-06-08T09:14:36Z</time>
      </trkpt>
      <trkpt lat="48.12151" lon="-3.82332">
        <ele>138.9</ele>
        <time>2020-06-08T09:14:37Z</time>
      </trkpt>
      <trkpt lat="48.12152" lon="-3.82332">
        <ele>139</ele>
        <time>2020-06-08T09:14:38Z</time>
      </trkpt>
      <trkpt lat="48.12156" lon="-3.82331">
        <ele>139.1</ele>
        <time>2020-06-08T09:14:39Z</time>
      </trkpt>
      <trkpt lat="48.12158" lon="-3.82331">
        <ele>139.2</ele>
        <time>2020-06-08T09:14:40Z</time>
      </trkpt>
      <trkpt lat="48.12161" lon="-3.8233">
        <ele>139.3</ele>
        <time>2020-06-08T09:14:41Z</time>
      </trkpt>
      <trkpt lat="48.12163" lon="-3.82329">
        <ele>139.3</ele>
        <time>2020-06-08T09:14:42Z</time>
      </trkpt>
      <trkpt lat="48.12164" lon="-3.82328">
        <ele>139.4</ele>
        <time>2020-06-08T09:14:43Z</time>
      </trkpt>
      <trkpt lat="48.12166" lon="-3.82326">
        <ele>139.4</ele>
        <time>2020-06-08T09:14:44Z</time>
      </trkpt>
      <trkpt lat="48.12169" lon="-3.82325">
        <ele>139.5</ele>
        <time>2020-06-08T09:14:45Z</time>
      </trkpt>
      <trkpt lat="48.12173" lon="-3.82325">
        <ele>139.7</ele>
        <time>2020-06-08T09:14:46Z</time>
      </trkpt>
      <trkpt lat="48.12175" lon="-3.82324">
        <ele>139.7</ele>
        <time>2020-06-08T09:14:47Z</time>
      </trkpt>
      <trkpt lat="48.12179" lon="-3.82324">
        <ele>139.8</ele>
        <time>2020-06-08T09:14:48Z</time>
      </trkpt>
      <trkpt lat="48.12182" lon="-3.82324">
        <ele>139.9</ele>
        <time>2020-06-08T09:14:49Z</time>
      </trkpt>
      <trkpt lat="48.12186" lon="-3.82324">
        <ele>140</ele>
        <time>2020-06-08T09:14:50Z</time>
      </trkpt>
      <trkpt lat="48.12188" lon="-3.82323">
        <ele>140.1</ele>
        <time>2020-06-08T09:14:51Z</time>
      </trkpt>
      <trkpt lat="48.12189" lon="-3.82324">
        <ele>140.1</ele>
        <time>2020-06-08T09:14:52Z</time>
      </trkpt>
      <trkpt lat="48.12193" lon="-3.82326">
        <ele>140.2</ele>
        <time>2020-06-08T09:14:53Z</time>
      </trkpt>
      <trkpt lat="48.12195" lon="-3.82325">
        <ele>140.3</ele>
        <time>2020-06-08T09:14:54Z</time>
      </trkpt>
      <trkpt lat="48.12198" lon="-3.82325">
        <ele>140.4</ele>
        <time>2020-06-08T09:14:55Z</time>
      </trkpt>
      <trkpt lat="48.12201" lon="-3.82324">
        <ele>140.5</ele>
        <time>2020-06-08T09:14:56Z</time>
      </trkpt>
      <trkpt lat="48.12205" lon="-3.82323">
        <ele>140.6</ele>
        <time>2020-06-08T09:14:57Z</time>
      </trkpt>
      <trkpt lat="48.12208" lon="-3.82322">
        <ele>140.7</ele>
        <time>2020-06-08T09:14:58Z</time>
      </trkpt>
      <trkpt lat="48.12209" lon="-3.82322">
        <ele>140.8</ele>
        <time>2020-06-08T09:14:59Z</time>
      </trkpt>
      <trkpt lat="48.12212" lon="-3.82322">
        <ele>140.9</ele>
        <time>2020-06-08T09:15:00Z</time>
      </trkpt>
      <trkpt lat="48.12215" lon="-3.82321">
        <ele>141</ele>
        <time>2020-06-08T09:15:01Z</time>
      </trkpt>
      <trkpt lat="48.12218" lon="-3.82322">
        <ele>141.1</ele>
        <time>2020-06-08T09:15:02Z</time>
      </trkpt>
      <trkpt lat="48.12218" lon="-3.82322">
        <ele>141.1</ele>
        <time>2020-06-08T09:15:03Z</time>
      </trkpt>
      <trkpt lat="48.12219" lon="-3.82322">
        <ele>141.1</ele>
        <time>2020-06-08T09:15:04Z</time>
      </trkpt>
      <trkpt lat="48.12221" lon="-3.82322">
        <ele>141.2</ele>
        <time>2020-06-08T09:15:05Z</time>
      </trkpt>
      <trkpt lat="48.12225" lon="-3.82321">
        <ele>141.3</ele>
        <time>2020-06-08T09:15:06Z</time>
      </trkpt>
      <trkpt lat="48.1223" lon="-3.8232">
        <ele>141.5</ele>
        <time>2020-06-08T09:15:07Z</time>
      </trkpt>
      <trkpt lat="48.12232" lon="-3.82319">
        <ele>141.6</ele>
        <time>2020-06-08T09:15:08Z</time>
      </trkpt>
      <trkpt lat="48.12235" lon="-3.82318">
        <ele>141.7</ele>
        <time>2020-06-08T09:15:09Z</time>
      </trkpt>
      <trkpt lat="48.12238" lon="-3.82318">
        <ele>141.8</ele>
        <time>2020-06-08T09:15:10Z</time>
      </trkpt>
      <trkpt lat="48.12239" lon="-3.82318">
        <ele>141.8</ele>
        <time>2020-06-08T09:15:11Z</time>
      </trkpt>
      <trkpt lat="48.12241" lon="-3.82318">
        <ele>141.9</ele>
        <time>2020-06-08T09:15:12Z</time>
      </trkpt>
      <trkpt lat="48.12242" lon="-3.82318">
        <ele>141.9</ele>
        <time>2020-06-08T09:15:13Z</time>
      </trkpt>
      <trkpt lat="48.12246" lon="-3.82317">
        <ele>142</ele>
        <time>2020-06-08T09:15:14Z</time>
      </trkpt>
      <trkpt lat="48.12248" lon="-3.82317">
        <ele>142.1</ele>
        <time>2020-06-08T09:15:15Z</time>
      </trkpt>
      <trkpt lat="48.12251" lon="-3.82317">
        <ele>142.2</ele>
        <time>2020-06-08T09:15:16Z</time>
      </trkpt>
      <trkpt lat="48.12254" lon="-3.82315">
        <ele>142.3</ele>
        <time>2020-06-08T09:15:17Z</time>
      </trkpt>
      <trkpt lat="48.12257" lon="-3.82313">
        <ele>142.3</ele>
        <time>2020-06-08T09:15:18Z</time>
      </trkpt>
      <trkpt lat="48.1226" lon="-3.82313">
        <ele>142.4</ele>
        <time>2020-06-08T09:15:19Z</time>
      </trkpt>
      <trkpt lat="48.12263" lon="-3.82312">
        <ele>142.5</ele>
        <time>2020-06-08T09:15:20Z</time>
      </trkpt>
      <trkpt lat="48.12265" lon="-3.8231">
        <ele>142.6</ele>
        <time>2020-06-08T09:15:21Z</time>
      </trkpt>
      <trkpt lat="48.12269" lon="-3.82309">
        <ele>142.8</ele>
        <time>2020-06-08T09:15:22Z</time>
      </trkpt>
      <trkpt lat="48.1227" lon="-3.82309">
        <ele>142.9</ele>
        <time>2020-06-08T09:15:23Z</time>
      </trkpt>
      <trkpt lat="48.12274" lon="-3.82308">
        <ele>143</ele>
        <time>2020-06-08T09:15:24Z</time>
      </trkpt>
      <trkpt lat="48.12275" lon="-3.82307">
        <ele>143.1</ele>
        <time>2020-06-08T09:15:25Z</time>
      </trkpt>
      <trkpt lat="48.12279" lon="-3.82306">
        <ele>143.2</ele>
        <time>2020-06-08T09:15:26Z</time>
      </trkpt>
      <trkpt lat="48.1228" lon="-3.82306">
        <ele>143.3</ele>
        <time>2020-06-08T09:15:27Z</time>
      </trkpt>
      <trkpt lat="48.12283" lon="-3.82306">
        <ele>143.4</ele>
        <time>2020-06-08T09:15:28Z</time>
      </trkpt>
      <trkpt lat="48.12286" lon="-3.82306">
        <ele>143.5</ele>
        <time>2020-06-08T09:15:29Z</time>
      </trkpt>
      <trkpt lat="48.1229" lon="-3.82306">
        <ele>143.7</ele>
        <time>2020-06-08T09:15:30Z</time>
      </trkpt>
      <trkpt lat="48.12291" lon="-3.82305">
        <ele>143.7</ele>
        <time>2020-06-08T09:15:31Z</time>
      </trkpt>
      <trkpt lat="48.12295" lon="-3.82305">
        <ele>143.8</ele>
        <time>2020-06-08T09:15:32Z</time>
      </trkpt>
      <trkpt lat="48.12296" lon="-3.82305">
        <ele>143.9</ele>
        <time>2020-06-08T09:15:33Z</time>
      </trkpt>
      <trkpt lat="48.12299" lon="-3.82305">
        <ele>144</ele>
        <time>2020-06-08T09:15:34Z</time>
      </trkpt>
      <trkpt lat="48.12302" lon="-3.82304">
        <ele>144.1</ele>
        <time>2020-06-08T09:15:35Z</time>
      </trkpt>
      <trkpt lat="48.12305" lon="-3.82304">
        <ele>144.2</ele>
        <time>2020-06-08T09:15:36Z</time>
      </trkpt>
      <trkpt lat="48.12308" lon="-3.82302">
        <ele>144.3</ele>
        <time>2020-06-08T09:15:37Z</time>
      </trkpt>
      <trkpt lat="48.12311" lon="-3.82301">
        <ele>144.4</ele>
        <time>2020-06-08T09:15:38Z</time>
      </trkpt>
      <trkpt lat="48.12314" lon="-3.82301">
        <ele>144.5</ele>
        <time>2020-06-08T09:15:39Z</time>
      </trkpt>
      <trkpt lat="48.12315" lon="-3.82301">
        <ele>144.5</ele>
        <time>2020-06-08T09:15:40Z</time>
      </trkpt>
      <trkpt lat="48.12319" lon="-3.823">
        <ele>144.6</ele>
        <time>2020-06-08T09:15:41Z</time>
      </trkpt>
      <trkpt lat="48.1232" lon="-3.823">
        <ele>144.7</ele>
        <time>2020-06-08T09:15:42Z</time>
      </trkpt>
      <trkpt lat="48.12323" lon="-3.823">
        <ele>144.8</ele>
        <time>2020-06-08T09:15:43Z</time>
      </trkpt>
      <trkpt lat="48.12325" lon="-3.823">
        <ele>144.8</ele>
        <time>2020-06-08T09:15:44Z</time>
      </trkpt>
      <trkpt lat="48.12328" lon="-3.823">
        <ele>145</ele>
        <time>2020-06-08T09:15:45Z</time>
      </trkpt>
      <trkpt lat="48.12329" lon="-3.823">
        <ele>145</ele>
        <time>2020-06-08T09:15:46Z</time>
      </trkpt>
      <trkpt lat="48.12332" lon="-3.82298">
        <ele>145.1</ele>
        <time>2020-06-08T09:15:47Z</time>
      </trkpt>
      <trkpt lat="48.12333" lon="-3.82297">
        <ele>145.2</ele>
        <time>2020-06-08T09:15:48Z</time>
      </trkpt>
      <trkpt lat="48.12336" lon="-3.82297">
        <ele>145.3</ele>
        <time>2020-06-08T09:15:49Z</time>
      </trkpt>
      <trkpt lat="48.12338" lon="-3.82298">
        <ele>145.3</ele>
        <time>2020-06-08T09:15:50Z</time>
      </trkpt>
      <trkpt lat="48.12342" lon="-3.82297">
        <ele>145.5</ele>
        <time>2020-06-08T09:15:51Z</time>
      </trkpt>
      <trkpt lat="48.12343" lon="-3.82298">
        <ele>145.5</ele>
        <time>2020-06-08T09:15:52Z</time>
      </trkpt>
      <trkpt lat="48.12346" lon="-3.82298">
        <ele>145.6</ele>
        <time>2020-06-08T09:15:53Z</time>
      </trkpt>
      <trkpt lat="48.12349" lon="-3.82299">
        <ele>145.8</ele>
        <time>2020-06-08T09:15:54Z</time>
      </trkpt>
      <trkpt lat="48.1235" lon="-3.82299">
        <ele>145.8</ele>
        <time>2020-06-08T09:15:55Z</time>
      </trkpt>
      <trkpt lat="48.12353" lon="-3.82298">
        <ele>146</ele>
        <time>2020-06-08T09:15:56Z</time>
      </trkpt>
      <trkpt lat="48.12354" lon="-3.82298">
        <ele>146</ele>
        <time>2020-06-08T09:15:57Z</time>
      </trkpt>
      <trkpt lat="48.12357" lon="-3.82299">
        <ele>146.1</ele>
        <time>2020-06-08T09:15:58Z</time>
      </trkpt>
      <trkpt lat="48.12358" lon="-3.82299">
        <ele>146.2</ele>
        <time>2020-06-08T09:15:59Z</time>
      </trkpt>
      <trkpt lat="48.12362" lon="-3.82299">
        <ele>146.4</ele>
        <time>2020-06-08T09:16:00Z</time>
      </trkpt>
      <trkpt lat="48.12363" lon="-3.823">
        <ele>146.4</ele>
        <time>2020-06-08T09:16:01Z</time>
      </trkpt>
      <trkpt lat="48.12366" lon="-3.82301">
        <ele>146.6</ele>
        <time>2020-06-08T09:16:02Z</time>
      </trkpt>
      <trkpt lat="48.12366" lon="-3.82301">
        <ele>146.6</ele>
        <time>2020-06-08T09:16:03Z</time>
      </trkpt>
      <trkpt lat="48.12369" lon="-3.82303">
        <ele>146.7</ele>
        <time>2020-06-08T09:16:04Z</time>
      </trkpt>
      <trkpt lat="48.1237" lon="-3.82303">
        <ele>146.8</ele>
        <time>2020-06-08T09:16:05Z</time>
      </trkpt>
      <trkpt lat="48.12372" lon="-3.82303">
        <ele>146.9</ele>
        <time>2020-06-08T09:16:06Z</time>
      </trkpt>
      <trkpt lat="48.12373" lon="-3.82304">
        <ele>147</ele>
        <time>2020-06-08T09:16:07Z</time>
      </trkpt>
      <trkpt lat="48.12375" lon="-3.82304">
        <ele>147</ele>
        <time>2020-06-08T09:16:08Z</time>
      </trkpt>
      <trkpt lat="48.12376" lon="-3.82305">
        <ele>147.1</ele>
        <time>2020-06-08T09:16:09Z</time>
      </trkpt>
      <trkpt lat="48.12378" lon="-3.82307">
        <ele>147.2</ele>
        <time>2020-06-08T09:16:10Z</time>
      </trkpt>
      <trkpt lat="48.12379" lon="-3.82308">
        <ele>147.3</ele>
        <time>2020-06-08T09:16:11Z</time>
      </trkpt>
      <trkpt lat="48.1238" lon="-3.82309">
        <ele>147.4</ele>
        <time>2020-06-08T09:16:12Z</time>
      </trkpt>
      <trkpt lat="48.12381" lon="-3.8231">
        <ele>147.4</ele>
        <time>2020-06-08T09:16:13Z</time>
      </trkpt>
      <trkpt lat="48.12383" lon="-3.82312">
        <ele>147.5</ele>
        <time>2020-06-08T09:16:14Z</time>
      </trkpt>
      <trkpt lat="48.12384" lon="-3.82312">
        <ele>147.6</ele>
        <time>2020-06-08T09:16:15Z</time>
      </trkpt>
      <trkpt lat="48.12387" lon="-3.82314">
        <ele>147.8</ele>
        <time>2020-06-08T09:16:16Z</time>
      </trkpt>
      <trkpt lat="48.12388" lon="-3.82314">
        <ele>147.8</ele>
        <time>2020-06-08T09:16:17Z</time>
      </trkpt>
      <trkpt lat="48.1239" lon="-3.82315">
        <ele>147.9</ele>
        <time>2020-06-08T09:16:18Z</time>
      </trkpt>
      <trkpt lat="48.12391" lon="-3.82315">
        <ele>148</ele>
        <time>2020-06-08T09:16:19Z</time>
      </trkpt>
      <trkpt lat="48.12392" lon="-3.82317">
        <ele>148.1</ele>
        <time>2020-06-08T09:16:20Z</time>
      </trkpt>
      <trkpt lat="48.12394" lon="-3.82318">
        <ele>148.2</ele>
        <time>2020-06-08T09:16:21Z</time>
      </trkpt>
      <trkpt lat="48.12396" lon="-3.82319">
        <ele>148.3</ele>
        <time>2020-06-08T09:16:22Z</time>
      </trkpt>
      <trkpt lat="48.12397" lon="-3.8232">
        <ele>148.3</ele>
        <time>2020-06-08T09:16:23Z</time>
      </trkpt>
      <trkpt lat="48.12398" lon="-3.8232">
        <ele>148.4</ele>
        <time>2020-06-08T09:16:24Z</time>
      </trkpt>
      <trkpt lat="48.124" lon="-3.82322">
        <ele>148.5</ele>
        <time>2020-06-08T09:16:25Z</time>
      </trkpt>
      <trkpt lat="48.12401" lon="-3.82323">
        <ele>148.6</ele>
        <time>2020-06-08T09:16:26Z</time>
      </trkpt>
      <trkpt lat="48.12404" lon="-3.82327">
        <ele>148.8</ele>
        <time>2020-06-08T09:16:27Z</time>
      </trkpt>
      <trkpt lat="48.12404" lon="-3.82328">
        <ele>148.8</ele>
        <time>2020-06-08T09:16:28Z</time>
      </trkpt>
      <trkpt lat="48.12406" lon="-3.8233">
        <ele>149</ele>
        <time>2020-06-08T09:16:29Z</time>
      </trkpt>
      <trkpt lat="48.12407" lon="-3.8233">
        <ele>149</ele>
        <time>2020-06-08T09:16:30Z</time>
      </trkpt>
      <trkpt lat="48.12408" lon="-3.8233">
        <ele>149</ele>
        <time>2020-06-08T09:16:31Z</time>
      </trkpt>
      <trkpt lat="48.1241" lon="-3.82333">
        <ele>149.2</ele>
        <time>2020-06-08T09:16:32Z</time>
      </trkpt>
      <trkpt lat="48.12411" lon="-3.82334">
        <ele>149.3</ele>
        <time>2020-06-08T09:16:33Z</time>
      </trkpt>
      <trkpt lat="48.12414" lon="-3.82335">
        <ele>149.4</ele>
        <time>2020-06-08T09:16:34Z</time>
      </trkpt>
      <trkpt lat="48.12415" lon="-3.82336">
        <ele>149.5</ele>
        <time>2020-06-08T09:16:35Z</time>
      </trkpt>
      <trkpt lat="48.12418" lon="-3.82336">
        <ele>149.6</ele>
        <time>2020-06-08T09:16:36Z</time>
      </trkpt>
      <trkpt lat="48.12419" lon="-3.82337">
        <ele>149.6</ele>
        <time>2020-06-08T09:16:37Z</time>
      </trkpt>
      <trkpt lat="48.12422" lon="-3.82339">
        <ele>149.8</ele>
        <time>2020-06-08T09:16:38Z</time>
      </trkpt>
      <trkpt lat="48.12422" lon="-3.8234">
        <ele>149.8</ele>
        <time>2020-06-08T09:16:39Z</time>
      </trkpt>
      <trkpt lat="48.12423" lon="-3.82341">
        <ele>149.9</ele>
        <time>2020-06-08T09:16:40Z</time>
      </trkpt>
      <trkpt lat="48.12425" lon="-3.82343">
        <ele>150</ele>
        <time>2020-06-08T09:16:41Z</time>
      </trkpt>
      <trkpt lat="48.12428" lon="-3.82345">
        <ele>150.1</ele>
        <time>2020-06-08T09:16:42Z</time>
      </trkpt>
      <trkpt lat="48.12429" lon="-3.82347">
        <ele>150.1</ele>
        <time>2020-06-08T09:16:43Z</time>
      </trkpt>
      <trkpt lat="48.12431" lon="-3.82349">
        <ele>150.2</ele>
        <time>2020-06-08T09:16:44Z</time>
      </trkpt>
      <trkpt lat="48.12434" lon="-3.82352">
        <ele>150.4</ele>
        <time>2020-06-08T09:16:45Z</time>
      </trkpt>
      <trkpt lat="48.12435" lon="-3.82354">
        <ele>150.4</ele>
        <time>2020-06-08T09:16:46Z</time>
      </trkpt>
      <trkpt lat="48.12436" lon="-3.82355">
        <ele>150.5</ele>
        <time>2020-06-08T09:16:47Z</time>
      </trkpt>
      <trkpt lat="48.12438" lon="-3.82356">
        <ele>150.5</ele>
        <time>2020-06-08T09:16:48Z</time>
      </trkpt>
      <trkpt lat="48.1244" lon="-3.82359">
        <ele>150.7</ele>
        <time>2020-06-08T09:16:49Z</time>
      </trkpt>
      <trkpt lat="48.12443" lon="-3.82362">
        <ele>150.8</ele>
        <time>2020-06-08T09:16:50Z</time>
      </trkpt>
      <trkpt lat="48.12444" lon="-3.82364">
        <ele>150.9</ele>
        <time>2020-06-08T09:16:51Z</time>
      </trkpt>
      <trkpt lat="48.12445" lon="-3.82366">
        <ele>150.9</ele>
        <time>2020-06-08T09:16:52Z</time>
      </trkpt>
      <trkpt lat="48.12446" lon="-3.82367">
        <ele>151</ele>
        <time>2020-06-08T09:16:53Z</time>
      </trkpt>
      <trkpt lat="48.12448" lon="-3.82368">
        <ele>151.1</ele>
        <time>2020-06-08T09:16:54Z</time>
      </trkpt>
      <trkpt lat="48.12449" lon="-3.8237">
        <ele>151.2</ele>
        <time>2020-06-08T09:16:55Z</time>
      </trkpt>
      <trkpt lat="48.1245" lon="-3.82371">
        <ele>151.2</ele>
        <time>2020-06-08T09:16:56Z</time>
      </trkpt>
      <trkpt lat="48.12451" lon="-3.82372">
        <ele>151.3</ele>
        <time>2020-06-08T09:16:57Z</time>
      </trkpt>
      <trkpt lat="48.12453" lon="-3.82373">
        <ele>151.4</ele>
        <time>2020-06-08T09:16:58Z</time>
      </trkpt>
      <trkpt lat="48.12454" lon="-3.82374">
        <ele>151.5</ele>
        <time>2020-06-08T09:16:59Z</time>
      </trkpt>
      <trkpt lat="48.12457" lon="-3.82377">
        <ele>151.6</ele>
        <time>2020-06-08T09:17:00Z</time>
      </trkpt>
      <trkpt lat="48.12459" lon="-3.82377">
        <ele>151.7</ele>
        <time>2020-06-08T09:17:01Z</time>
      </trkpt>
      <trkpt lat="48.12462" lon="-3.8238">
        <ele>151.9</ele>
        <time>2020-06-08T09:17:02Z</time>
      </trkpt>
      <trkpt lat="48.12463" lon="-3.82381">
        <ele>152</ele>
        <time>2020-06-08T09:17:03Z</time>
      </trkpt>
      <trkpt lat="48.12466" lon="-3.82383">
        <ele>152.2</ele>
        <time>2020-06-08T09:17:04Z</time>
      </trkpt>
      <trkpt lat="48.12469" lon="-3.82384">
        <ele>152.3</ele>
        <time>2020-06-08T09:17:05Z</time>
      </trkpt>
      <trkpt lat="48.12471" lon="-3.82387">
        <ele>152.5</ele>
        <time>2020-06-08T09:17:06Z</time>
      </trkpt>
      <trkpt lat="48.12472" lon="-3.82389">
        <ele>152.5</ele>
        <time>2020-06-08T09:17:07Z</time>
      </trkpt>
      <trkpt lat="48.12475" lon="-3.8239">
        <ele>152.7</ele>
        <time>2020-06-08T09:17:08Z</time>
      </trkpt>
      <trkpt lat="48.12476" lon="-3.8239">
        <ele>152.8</ele>
        <time>2020-06-08T09:17:09Z</time>
      </trkpt>
      <trkpt lat="48.12479" lon="-3.82392">
        <ele>153</ele>
        <time>2020-06-08T09:17:10Z</time>
      </trkpt>
      <trkpt lat="48.1248" lon="-3.82393">
        <ele>153</ele>
        <time>2020-06-08T09:17:11Z</time>
      </trkpt>
      <trkpt lat="48.12483" lon="-3.82395">
        <ele>153.2</ele>
        <time>2020-06-08T09:17:12Z</time>
      </trkpt>
      <trkpt lat="48.12486" lon="-3.82397">
        <ele>153.4</ele>
        <time>2020-06-08T09:17:13Z</time>
      </trkpt>
      <trkpt lat="48.12487" lon="-3.82397">
        <ele>153.4</ele>
        <time>2020-06-08T09:17:14Z</time>
      </trkpt>
      <trkpt lat="48.12489" lon="-3.82398">
        <ele>153.6</ele>
        <time>2020-06-08T09:17:15Z</time>
      </trkpt>
      <trkpt lat="48.1249" lon="-3.82399">
        <ele>153.7</ele>
        <time>2020-06-08T09:17:16Z</time>
      </trkpt>
      <trkpt lat="48.12493" lon="-3.82401">
        <ele>153.9</ele>
        <time>2020-06-08T09:17:17Z</time>
      </trkpt>
      <trkpt lat="48.12495" lon="-3.82402">
        <ele>154</ele>
        <time>2020-06-08T09:17:18Z</time>
      </trkpt>
      <trkpt lat="48.12497" lon="-3.82406">
        <ele>154.2</ele>
        <time>2020-06-08T09:17:19Z</time>
      </trkpt>
      <trkpt lat="48.12498" lon="-3.82407">
        <ele>154.3</ele>
        <time>2020-06-08T09:17:20Z</time>
      </trkpt>
      <trkpt lat="48.125" lon="-3.8241">
        <ele>154.5</ele>
        <time>2020-06-08T09:17:21Z</time>
      </trkpt>
      <trkpt lat="48.12501" lon="-3.82411">
        <ele>154.6</ele>
        <time>2020-06-08T09:17:22Z</time>
      </trkpt>
      <trkpt lat="48.12503" lon="-3.82415">
        <ele>154.8</ele>
        <time>2020-06-08T09:17:23Z</time>
      </trkpt>
      <trkpt lat="48.12503" lon="-3.82416">
        <ele>154.9</ele>
        <time>2020-06-08T09:17:24Z</time>
      </trkpt>
      <trkpt lat="48.12506" lon="-3.82419">
        <ele>157</ele>
        <time>2020-06-08T09:17:25Z</time>
      </trkpt>
      <trkpt lat="48.12506" lon="-3.8242">
        <ele>157.1</ele>
        <time>2020-06-08T09:17:26Z</time>
      </trkpt>
      <trkpt lat="48.12508" lon="-3.82424">
        <ele>157.3</ele>
        <time>2020-06-08T09:17:27Z</time>
      </trkpt>
      <trkpt lat="48.12508" lon="-3.82425">
        <ele>157.3</ele>
        <time>2020-06-08T09:17:28Z</time>
      </trkpt>
      <trkpt lat="48.12509" lon="-3.82428">
        <ele>157.4</ele>
        <time>2020-06-08T09:17:29Z</time>
      </trkpt>
      <trkpt lat="48.1251" lon="-3.8243">
        <ele>157.5</ele>
        <time>2020-06-08T09:17:30Z</time>
      </trkpt>
      <trkpt lat="48.12511" lon="-3.82432">
        <ele>157.6</ele>
        <time>2020-06-08T09:17:31Z</time>
      </trkpt>
      <trkpt lat="48.12513" lon="-3.82434">
        <ele>157.7</ele>
        <time>2020-06-08T09:17:32Z</time>
      </trkpt>
      <trkpt lat="48.12514" lon="-3.82435">
        <ele>157.8</ele>
        <time>2020-06-08T09:17:33Z</time>
      </trkpt>
      <trkpt lat="48.12515" lon="-3.82437">
        <ele>157.9</ele>
        <time>2020-06-08T09:17:34Z</time>
      </trkpt>
      <trkpt lat="48.12516" lon="-3.82439">
        <ele>158</ele>
        <time>2020-06-08T09:17:35Z</time>
      </trkpt>
      <trkpt lat="48.12517" lon="-3.8244">
        <ele>158.1</ele>
        <time>2020-06-08T09:17:36Z</time>
      </trkpt>
      <trkpt lat="48.12517" lon="-3.82441">
        <ele>158.1</ele>
        <time>2020-06-08T09:17:37Z</time>
      </trkpt>
      <trkpt lat="48.12518" lon="-3.82443">
        <ele>158.2</ele>
        <time>2020-06-08T09:17:38Z</time>
      </trkpt>
      <trkpt lat="48.12518" lon="-3.82445">
        <ele>158.3</ele>
        <time>2020-06-08T09:17:39Z</time>
      </trkpt>
      <trkpt lat="48.1252" lon="-3.82447">
        <ele>158.4</ele>
        <time>2020-06-08T09:17:40Z</time>
      </trkpt>
      <trkpt lat="48.1252" lon="-3.82449">
        <ele>158.5</ele>
        <time>2020-06-08T09:17:41Z</time>
      </trkpt>
      <trkpt lat="48.12521" lon="-3.82452">
        <ele>158.6</ele>
        <time>2020-06-08T09:17:42Z</time>
      </trkpt>
      <trkpt lat="48.12521" lon="-3.82454">
        <ele>158.7</ele>
        <time>2020-06-08T09:17:43Z</time>
      </trkpt>
      <trkpt lat="48.12522" lon="-3.82456">
        <ele>158.8</ele>
        <time>2020-06-08T09:17:44Z</time>
      </trkpt>
      <trkpt lat="48.12522" lon="-3.82458">
        <ele>158.9</ele>
        <time>2020-06-08T09:17:45Z</time>
      </trkpt>
      <trkpt lat="48.12524" lon="-3.82463">
        <ele>159.5</ele>
        <time>2020-06-08T09:17:46Z</time>
      </trkpt>
      <trkpt lat="48.12524" lon="-3.82464">
        <ele>159.5</ele>
        <time>2020-06-08T09:17:47Z</time>
      </trkpt>
      <trkpt lat="48.12526" lon="-3.82468">
        <ele>159.8</ele>
        <time>2020-06-08T09:17:48Z</time>
      </trkpt>
      <trkpt lat="48.12527" lon="-3.82469">
        <ele>159.9</ele>
        <time>2020-06-08T09:17:49Z</time>
      </trkpt>
      <trkpt lat="48.12529" lon="-3.82474">
        <ele>160.2</ele>
        <time>2020-06-08T09:17:50Z</time>
      </trkpt>
      <trkpt lat="48.1253" lon="-3.82476">
        <ele>160.3</ele>
        <time>2020-06-08T09:17:51Z</time>
      </trkpt>
      <trkpt lat="48.12532" lon="-3.82481">
        <ele>160.6</ele>
        <time>2020-06-08T09:17:52Z</time>
      </trkpt>
      <trkpt lat="48.12535" lon="-3.82485">
        <ele>160.9</ele>
        <time>2020-06-08T09:17:53Z</time>
      </trkpt>
      <trkpt lat="48.12538" lon="-3.82489">
        <ele>161.3</ele>
        <time>2020-06-08T09:17:54Z</time>
      </trkpt>
      <trkpt lat="48.12542" lon="-3.82493">
        <ele>161.6</ele>
        <time>2020-06-08T09:17:55Z</time>
      </trkpt>
      <trkpt lat="48.12545" lon="-3.82498">
        <ele>162</ele>
        <time>2020-06-08T09:17:56Z</time>
      </trkpt>
      <trkpt lat="48.12548" lon="-3.82503">
        <ele>162.3</ele>
        <time>2020-06-08T09:17:57Z</time>
      </trkpt>
      <trkpt lat="48.1255" lon="-3.82508">
        <ele>162.7</ele>
        <time>2020-06-08T09:17:58Z</time>
      </trkpt>
      <trkpt lat="48.12553" lon="-3.82513">
        <ele>163</ele>
        <time>2020-06-08T09:17:59Z</time>
      </trkpt>
      <trkpt lat="48.12555" lon="-3.82517">
        <ele>163.3</ele>
        <time>2020-06-08T09:18:00Z</time>
      </trkpt>
      <trkpt lat="48.12557" lon="-3.82521">
        <ele>163.6</ele>
        <time>2020-06-08T09:18:01Z</time>
      </trkpt>
      <trkpt lat="48.12559" lon="-3.82525">
        <ele>163.9</ele>
        <time>2020-06-08T09:18:02Z</time>
      </trkpt>
      <trkpt lat="48.1256" lon="-3.8253">
        <ele>164.2</ele>
        <time>2020-06-08T09:18:03Z</time>
      </trkpt>
      <trkpt lat="48.12562" lon="-3.82535">
        <ele>164.5</ele>
        <time>2020-06-08T09:18:04Z</time>
      </trkpt>
      <trkpt lat="48.12564" lon="-3.8254">
        <ele>164.7</ele>
        <time>2020-06-08T09:18:05Z</time>
      </trkpt>
      <trkpt lat="48.12565" lon="-3.82544">
        <ele>165</ele>
        <time>2020-06-08T09:18:06Z</time>
      </trkpt>
      <trkpt lat="48.12567" lon="-3.82548">
        <ele>165.3</ele>
        <time>2020-06-08T09:18:07Z</time>
      </trkpt>
      <trkpt lat="48.12569" lon="-3.82553">
        <ele>165.5</ele>
        <time>2020-06-08T09:18:08Z</time>
      </trkpt>
      <trkpt lat="48.1257" lon="-3.82557">
        <ele>165.7</ele>
        <time>2020-06-08T09:18:09Z</time>
      </trkpt>
      <trkpt lat="48.12572" lon="-3.82561">
        <ele>166</ele>
        <time>2020-06-08T09:18:10Z</time>
      </trkpt>
      <trkpt lat="48.12573" lon="-3.82566">
        <ele>166.2</ele>
        <time>2020-06-08T09:18:11Z</time>
      </trkpt>
      <trkpt lat="48.12575" lon="-3.8257">
        <ele>166.4</ele>
        <time>2020-06-08T09:18:12Z</time>
      </trkpt>
      <trkpt lat="48.12577" lon="-3.82574">
        <ele>166.6</ele>
        <time>2020-06-08T09:18:13Z</time>
      </trkpt>
      <trkpt lat="48.12579" lon="-3.82578">
        <ele>166.9</ele>
        <time>2020-06-08T09:18:14Z</time>
      </trkpt>
      <trkpt lat="48.1258" lon="-3.82582">
        <ele>167.1</ele>
        <time>2020-06-08T09:18:15Z</time>
      </trkpt>
      <trkpt lat="48.12581" lon="-3.82586">
        <ele>167.2</ele>
        <time>2020-06-08T09:18:16Z</time>
      </trkpt>
      <trkpt lat="48.12583" lon="-3.8259">
        <ele>167.4</ele>
        <time>2020-06-08T09:18:17Z</time>
      </trkpt>
      <trkpt lat="48.12585" lon="-3.82594">
        <ele>167.6</ele>
        <time>2020-06-08T09:18:18Z</time>
      </trkpt>
      <trkpt lat="48.12586" lon="-3.82598">
        <ele>167.7</ele>
        <time>2020-06-08T09:18:19Z</time>
      </trkpt>
      <trkpt lat="48.12587" lon="-3.82603">
        <ele>167.8</ele>
        <time>2020-06-08T09:18:20Z</time>
      </trkpt>
      <trkpt lat="48.12588" lon="-3.82607">
        <ele>168.1</ele>
        <time>2020-06-08T09:18:21Z</time>
      </trkpt>
      <trkpt lat="48.12589" lon="-3.82612">
        <ele>168.2</ele>
        <time>2020-06-08T09:18:22Z</time>
      </trkpt>
      <trkpt lat="48.12592" lon="-3.82616">
        <ele>168.4</ele>
        <time>2020-06-08T09:18:23Z</time>
      </trkpt>
      <trkpt lat="48.12592" lon="-3.82618">
        <ele>168.5</ele>
        <time>2020-06-08T09:18:24Z</time>
      </trkpt>
      <trkpt lat="48.12593" lon="-3.82622">
        <ele>168.6</ele>
        <time>2020-06-08T09:18:25Z</time>
      </trkpt>
      <trkpt lat="48.12595" lon="-3.82626">
        <ele>168.7</ele>
        <time>2020-06-08T09:18:26Z</time>
      </trkpt>
      <trkpt lat="48.12597" lon="-3.82629">
        <ele>168.8</ele>
        <time>2020-06-08T09:18:27Z</time>
      </trkpt>
      <trkpt lat="48.12599" lon="-3.82631">
        <ele>168.9</ele>
        <time>2020-06-08T09:18:28Z</time>
      </trkpt>
      <trkpt lat="48.12601" lon="-3.82635">
        <ele>169.1</ele>
        <time>2020-06-08T09:18:29Z</time>
      </trkpt>
      <trkpt lat="48.12603" lon="-3.82638">
        <ele>169.2</ele>
        <time>2020-06-08T09:18:30Z</time>
      </trkpt>
      <trkpt lat="48.12604" lon="-3.82642">
        <ele>169.4</ele>
        <time>2020-06-08T09:18:31Z</time>
      </trkpt>
      <trkpt lat="48.12606" lon="-3.82645">
        <ele>169.5</ele>
        <time>2020-06-08T09:18:32Z</time>
      </trkpt>
      <trkpt lat="48.12608" lon="-3.8265">
        <ele>169.7</ele>
        <time>2020-06-08T09:18:33Z</time>
      </trkpt>
      <trkpt lat="48.12609" lon="-3.82652">
        <ele>169.8</ele>
        <time>2020-06-08T09:18:34Z</time>
      </trkpt>
      <trkpt lat="48.12611" lon="-3.82656">
        <ele>170</ele>
        <time>2020-06-08T09:18:35Z</time>
      </trkpt>
      <trkpt lat="48.12612" lon="-3.82657">
        <ele>170.1</ele>
        <time>2020-06-08T09:18:36Z</time>
      </trkpt>
      <trkpt lat="48.12614" lon="-3.82662">
        <ele>170.3</ele>
        <time>2020-06-08T09:18:37Z</time>
      </trkpt>
      <trkpt lat="48.12615" lon="-3.82664">
        <ele>170.4</ele>
        <time>2020-06-08T09:18:38Z</time>
      </trkpt>
      <trkpt lat="48.12618" lon="-3.82668">
        <ele>170.6</ele>
        <time>2020-06-08T09:18:39Z</time>
      </trkpt>
      <trkpt lat="48.12619" lon="-3.82669">
        <ele>170.7</ele>
        <time>2020-06-08T09:18:40Z</time>
      </trkpt>
      <trkpt lat="48.1262" lon="-3.82673">
        <ele>170.9</ele>
        <time>2020-06-08T09:18:41Z</time>
      </trkpt>
      <trkpt lat="48.1262" lon="-3.82675">
        <ele>171</ele>
        <time>2020-06-08T09:18:42Z</time>
      </trkpt>
      <trkpt lat="48.12622" lon="-3.82679">
        <ele>171.2</ele>
        <time>2020-06-08T09:18:43Z</time>
      </trkpt>
      <trkpt lat="48.12622" lon="-3.82681">
        <ele>171.3</ele>
        <time>2020-06-08T09:18:44Z</time>
      </trkpt>
      <trkpt lat="48.12623" lon="-3.82685">
        <ele>171.5</ele>
        <time>2020-06-08T09:18:45Z</time>
      </trkpt>
      <trkpt lat="48.12624" lon="-3.82687">
        <ele>171.5</ele>
        <time>2020-06-08T09:18:46Z</time>
      </trkpt>
      <trkpt lat="48.12626" lon="-3.82692">
        <ele>171.8</ele>
        <time>2020-06-08T09:18:47Z</time>
      </trkpt>
      <trkpt lat="48.12627" lon="-3.82695">
        <ele>172</ele>
        <time>2020-06-08T09:18:48Z</time>
      </trkpt>
      <trkpt lat="48.12629" lon="-3.82699">
        <ele>172.3</ele>
        <time>2020-06-08T09:18:49Z</time>
      </trkpt>
      <trkpt lat="48.12631" lon="-3.82704">
        <ele>172.5</ele>
        <time>2020-06-08T09:18:50Z</time>
      </trkpt>
      <trkpt lat="48.12634" lon="-3.82709">
        <ele>172.8</ele>
        <time>2020-06-08T09:18:51Z</time>
      </trkpt>
      <trkpt lat="48.12636" lon="-3.82715">
        <ele>173.1</ele>
        <time>2020-06-08T09:18:52Z</time>
      </trkpt>
      <trkpt lat="48.12638" lon="-3.82721">
        <ele>173.4</ele>
        <time>2020-06-08T09:18:53Z</time>
      </trkpt>
      <trkpt lat="48.1264" lon="-3.82725">
        <ele>173.7</ele>
        <time>2020-06-08T09:18:54Z</time>
      </trkpt>
      <trkpt lat="48.12642" lon="-3.8273">
        <ele>174</ele>
        <time>2020-06-08T09:18:55Z</time>
      </trkpt>
      <trkpt lat="48.12644" lon="-3.82734">
        <ele>174.2</ele>
        <time>2020-06-08T09:18:56Z</time>
      </trkpt>
      <trkpt lat="48.12647" lon="-3.82738">
        <ele>174.5</ele>
        <time>2020-06-08T09:18:57Z</time>
      </trkpt>
      <trkpt lat="48.12648" lon="-3.82742">
        <ele>174.8</ele>
        <time>2020-06-08T09:18:58Z</time>
      </trkpt>
      <trkpt lat="48.1265" lon="-3.82746">
        <ele>175</ele>
        <time>2020-06-08T09:18:59Z</time>
      </trkpt>
      <trkpt lat="48.12651" lon="-3.8275">
        <ele>175.3</ele>
        <time>2020-06-08T09:19:00Z</time>
      </trkpt>
      <trkpt lat="48.12652" lon="-3.82756">
        <ele>175.6</ele>
        <time>2020-06-08T09:19:01Z</time>
      </trkpt>
      <trkpt lat="48.12654" lon="-3.82762">
        <ele>175.9</ele>
        <time>2020-06-08T09:19:02Z</time>
      </trkpt>
      <trkpt lat="48.12655" lon="-3.82767">
        <ele>176.1</ele>
        <time>2020-06-08T09:19:03Z</time>
      </trkpt>
      <trkpt lat="48.12656" lon="-3.82772">
        <ele>176.4</ele>
        <time>2020-06-08T09:19:04Z</time>
      </trkpt>
      <trkpt lat="48.12658" lon="-3.82777">
        <ele>176.7</ele>
        <time>2020-06-08T09:19:05Z</time>
      </trkpt>
      <trkpt lat="48.12659" lon="-3.82782">
        <ele>177</ele>
        <time>2020-06-08T09:19:06Z</time>
      </trkpt>
      <trkpt lat="48.12661" lon="-3.82786">
        <ele>177.2</ele>
        <time>2020-06-08T09:19:07Z</time>
      </trkpt>
      <trkpt lat="48.12663" lon="-3.82791">
        <ele>177.5</ele>
        <time>2020-06-08T09:19:08Z</time>
      </trkpt>
      <trkpt lat="48.12664" lon="-3.82794">
        <ele>177.7</ele>
        <time>2020-06-08T09:19:09Z</time>
      </trkpt>
      <trkpt lat="48.12666" lon="-3.82798">
        <ele>178</ele>
        <time>2020-06-08T09:19:10Z</time>
      </trkpt>
      <trkpt lat="48.12668" lon="-3.82801">
        <ele>178.2</ele>
        <time>2020-06-08T09:19:11Z</time>
      </trkpt>
      <trkpt lat="48.12669" lon="-3.82806">
        <ele>178.5</ele>
        <time>2020-06-08T09:19:12Z</time>
      </trkpt>
      <trkpt lat="48.1267" lon="-3.82812">
        <ele>178.8</ele>
        <time>2020-06-08T09:19:13Z</time>
      </trkpt>
      <trkpt lat="48.12671" lon="-3.82817">
        <ele>179.1</ele>
        <time>2020-06-08T09:19:14Z</time>
      </trkpt>
      <trkpt lat="48.12673" lon="-3.82821">
        <ele>179.3</ele>
        <time>2020-06-08T09:19:15Z</time>
      </trkpt>
      <trkpt lat="48.12675" lon="-3.82825">
        <ele>179.6</ele>
        <time>2020-06-08T09:19:16Z</time>
      </trkpt>
      <trkpt lat="48.12677" lon="-3.82828">
        <ele>179.8</ele>
        <time>2020-06-08T09:19:17Z</time>
      </trkpt>
      <trkpt lat="48.12679" lon="-3.82833">
        <ele>180</ele>
        <time>2020-06-08T09:19:18Z</time>
      </trkpt>
      <trkpt lat="48.1268" lon="-3.82838">
        <ele>180.3</ele>
        <time>2020-06-08T09:19:19Z</time>
      </trkpt>
      <trkpt lat="48.12682" lon="-3.82842">
        <ele>180.5</ele>
        <time>2020-06-08T09:19:20Z</time>
      </trkpt>
      <trkpt lat="48.12683" lon="-3.82846">
        <ele>180.5</ele>
        <time>2020-06-08T09:19:21Z</time>
      </trkpt>
      <trkpt lat="48.12684" lon="-3.8285">
        <ele>180.6</ele>
        <time>2020-06-08T09:19:22Z</time>
      </trkpt>
      <trkpt lat="48.12685" lon="-3.82853">
        <ele>180.6</ele>
        <time>2020-06-08T09:19:23Z</time>
      </trkpt>
      <trkpt lat="48.12687" lon="-3.82858">
        <ele>180.6</ele>
        <time>2020-06-08T09:19:24Z</time>
      </trkpt>
      <trkpt lat="48.12688" lon="-3.82863">
        <ele>180.7</ele>
        <time>2020-06-08T09:19:25Z</time>
      </trkpt>
      <trkpt lat="48.12689" lon="-3.82867">
        <ele>180.9</ele>
        <time>2020-06-08T09:19:26Z</time>
      </trkpt>
      <trkpt lat="48.12691" lon="-3.82871">
        <ele>181.1</ele>
        <time>2020-06-08T09:19:27Z</time>
      </trkpt>
      <trkpt lat="48.12692" lon="-3.82875">
        <ele>181.3</ele>
        <time>2020-06-08T09:19:28Z</time>
      </trkpt>
      <trkpt lat="48.12693" lon="-3.8288">
        <ele>181.6</ele>
        <time>2020-06-08T09:19:29Z</time>
      </trkpt>
      <trkpt lat="48.12694" lon="-3.82881">
        <ele>181.7</ele>
        <time>2020-06-08T09:19:30Z</time>
      </trkpt>
      <trkpt lat="48.12695" lon="-3.82887">
        <ele>182</ele>
        <time>2020-06-08T09:19:31Z</time>
      </trkpt>
      <trkpt lat="48.12695" lon="-3.82888">
        <ele>182.1</ele>
        <time>2020-06-08T09:19:32Z</time>
      </trkpt>
      <trkpt lat="48.12697" lon="-3.82893">
        <ele>182.4</ele>
        <time>2020-06-08T09:19:33Z</time>
      </trkpt>
      <trkpt lat="48.12698" lon="-3.82895">
        <ele>182.5</ele>
        <time>2020-06-08T09:19:34Z</time>
      </trkpt>
      <trkpt lat="48.127" lon="-3.829">
        <ele>182.8</ele>
        <time>2020-06-08T09:19:35Z</time>
      </trkpt>
      <trkpt lat="48.12702" lon="-3.82903">
        <ele>183.1</ele>
        <time>2020-06-08T09:19:36Z</time>
      </trkpt>
      <trkpt lat="48.12704" lon="-3.82908">
        <ele>183.4</ele>
        <time>2020-06-08T09:19:37Z</time>
      </trkpt>
      <trkpt lat="48.12704" lon="-3.8291">
        <ele>183.5</ele>
        <time>2020-06-08T09:19:38Z</time>
      </trkpt>
      <trkpt lat="48.12706" lon="-3.82914">
        <ele>183.8</ele>
        <time>2020-06-08T09:19:39Z</time>
      </trkpt>
      <trkpt lat="48.12707" lon="-3.82917">
        <ele>184</ele>
        <time>2020-06-08T09:19:40Z</time>
      </trkpt>
      <trkpt lat="48.12709" lon="-3.82921">
        <ele>184.3</ele>
        <time>2020-06-08T09:19:41Z</time>
      </trkpt>
      <trkpt lat="48.1271" lon="-3.82925">
        <ele>184.5</ele>
        <time>2020-06-08T09:19:42Z</time>
      </trkpt>
      <trkpt lat="48.12712" lon="-3.8293">
        <ele>184.9</ele>
        <time>2020-06-08T09:19:43Z</time>
      </trkpt>
      <trkpt lat="48.12712" lon="-3.82932">
        <ele>185</ele>
        <time>2020-06-08T09:19:44Z</time>
      </trkpt>
      <trkpt lat="48.12713" lon="-3.82936">
        <ele>185.2</ele>
        <time>2020-06-08T09:19:45Z</time>
      </trkpt>
      <trkpt lat="48.12715" lon="-3.8294">
        <ele>185.5</ele>
        <time>2020-06-08T09:19:46Z</time>
      </trkpt>
      <trkpt lat="48.12716" lon="-3.82944">
        <ele>185.8</ele>
        <time>2020-06-08T09:19:47Z</time>
      </trkpt>
      <trkpt lat="48.12718" lon="-3.82948">
        <ele>186.1</ele>
        <time>2020-06-08T09:19:48Z</time>
      </trkpt>
      <trkpt lat="48.1272" lon="-3.82952">
        <ele>186.4</ele>
        <time>2020-06-08T09:19:49Z</time>
      </trkpt>
      <trkpt lat="48.12721" lon="-3.82955">
        <ele>186.6</ele>
        <time>2020-06-08T09:19:50Z</time>
      </trkpt>
      <trkpt lat="48.12723" lon="-3.8296">
        <ele>187</ele>
        <time>2020-06-08T09:19:51Z</time>
      </trkpt>
      <trkpt lat="48.12724" lon="-3.82962">
        <ele>187.1</ele>
        <time>2020-06-08T09:19:52Z</time>
      </trkpt>
      <trkpt lat="48.12726" lon="-3.82967">
        <ele>187.4</ele>
        <time>2020-06-08T09:19:53Z</time>
      </trkpt>
      <trkpt lat="48.12728" lon="-3.82972">
        <ele>187.7</ele>
        <time>2020-06-08T09:19:54Z</time>
      </trkpt>
      <trkpt lat="48.12729" lon="-3.82975">
        <ele>188</ele>
        <time>2020-06-08T09:19:55Z</time>
      </trkpt>
      <trkpt lat="48.12731" lon="-3.82979">
        <ele>188.2</ele>
        <time>2020-06-08T09:19:56Z</time>
      </trkpt>
      <trkpt lat="48.12733" lon="-3.82983">
        <ele>188.5</ele>
        <time>2020-06-08T09:19:57Z</time>
      </trkpt>
      <trkpt lat="48.12733" lon="-3.82984">
        <ele>188.6</ele>
        <time>2020-06-08T09:19:58Z</time>
      </trkpt>
      <trkpt lat="48.12735" lon="-3.82988">
        <ele>188.9</ele>
        <time>2020-06-08T09:19:59Z</time>
      </trkpt>
      <trkpt lat="48.12735" lon="-3.82989">
        <ele>189</ele>
        <time>2020-06-08T09:20:00Z</time>
      </trkpt>
      <trkpt lat="48.12737" lon="-3.82994">
        <ele>189.3</ele>
        <time>2020-06-08T09:20:01Z</time>
      </trkpt>
      <trkpt lat="48.12738" lon="-3.82996">
        <ele>189.4</ele>
        <time>2020-06-08T09:20:02Z</time>
      </trkpt>
      <trkpt lat="48.12739" lon="-3.83002">
        <ele>189.8</ele>
        <time>2020-06-08T09:20:03Z</time>
      </trkpt>
      <trkpt lat="48.1274" lon="-3.83004">
        <ele>189.9</ele>
        <time>2020-06-08T09:20:04Z</time>
      </trkpt>
      <trkpt lat="48.12742" lon="-3.83008">
        <ele>190.2</ele>
        <time>2020-06-08T09:20:05Z</time>
      </trkpt>
      <trkpt lat="48.12743" lon="-3.8301">
        <ele>190.4</ele>
        <time>2020-06-08T09:20:06Z</time>
      </trkpt>
      <trkpt lat="48.12745" lon="-3.83015">
        <ele>190.7</ele>
        <time>2020-06-08T09:20:07Z</time>
      </trkpt>
      <trkpt lat="48.12745" lon="-3.83016">
        <ele>190.8</ele>
        <time>2020-06-08T09:20:08Z</time>
      </trkpt>
      <trkpt lat="48.12746" lon="-3.83021">
        <ele>191.1</ele>
        <time>2020-06-08T09:20:09Z</time>
      </trkpt>
      <trkpt lat="48.12747" lon="-3.83025">
        <ele>191.3</ele>
        <time>2020-06-08T09:20:10Z</time>
      </trkpt>
      <trkpt lat="48.1275" lon="-3.83029">
        <ele>191.6</ele>
        <time>2020-06-08T09:20:11Z</time>
      </trkpt>
      <trkpt lat="48.12751" lon="-3.83031">
        <ele>191.8</ele>
        <time>2020-06-08T09:20:12Z</time>
      </trkpt>
      <trkpt lat="48.12753" lon="-3.83033">
        <ele>192</ele>
        <time>2020-06-08T09:20:13Z</time>
      </trkpt>
      <trkpt lat="48.12756" lon="-3.83038">
        <ele>192.3</ele>
        <time>2020-06-08T09:20:14Z</time>
      </trkpt>
      <trkpt lat="48.12757" lon="-3.83039">
        <ele>192.5</ele>
        <time>2020-06-08T09:20:15Z</time>
      </trkpt>
      <trkpt lat="48.12759" lon="-3.83043">
        <ele>192.7</ele>
        <time>2020-06-08T09:20:16Z</time>
      </trkpt>
      <trkpt lat="48.12759" lon="-3.83044">
        <ele>192.8</ele>
        <time>2020-06-08T09:20:17Z</time>
      </trkpt>
      <trkpt lat="48.12762" lon="-3.83049">
        <ele>193.2</ele>
        <time>2020-06-08T09:20:18Z</time>
      </trkpt>
      <trkpt lat="48.12763" lon="-3.83051">
        <ele>193.3</ele>
        <time>2020-06-08T09:20:19Z</time>
      </trkpt>
      <trkpt lat="48.12765" lon="-3.83054">
        <ele>193.6</ele>
        <time>2020-06-08T09:20:20Z</time>
      </trkpt>
      <trkpt lat="48.12767" lon="-3.83058">
        <ele>193.9</ele>
        <time>2020-06-08T09:20:21Z</time>
      </trkpt>
      <trkpt lat="48.12771" lon="-3.83061">
        <ele>194.3</ele>
        <time>2020-06-08T09:20:22Z</time>
      </trkpt>
      <trkpt lat="48.12772" lon="-3.83063">
        <ele>194.4</ele>
        <time>2020-06-08T09:20:23Z</time>
      </trkpt>
      <trkpt lat="48.12775" lon="-3.83066">
        <ele>194.7</ele>
        <time>2020-06-08T09:20:24Z</time>
      </trkpt>
      <trkpt lat="48.12778" lon="-3.8307">
        <ele>195</ele>
        <time>2020-06-08T09:20:25Z</time>
      </trkpt>
      <trkpt lat="48.12778" lon="-3.83071">
        <ele>195.1</ele>
        <time>2020-06-08T09:20:26Z</time>
      </trkpt>
      <trkpt lat="48.1278" lon="-3.83074">
        <ele>195.4</ele>
        <time>2020-06-08T09:20:27Z</time>
      </trkpt>
      <trkpt lat="48.12781" lon="-3.83075">
        <ele>195.5</ele>
        <time>2020-06-08T09:20:28Z</time>
      </trkpt>
      <trkpt lat="48.12784" lon="-3.83079">
        <ele>195.8</ele>
        <time>2020-06-08T09:20:29Z</time>
      </trkpt>
      <trkpt lat="48.12785" lon="-3.8308">
        <ele>195.9</ele>
        <time>2020-06-08T09:20:30Z</time>
      </trkpt>
      <trkpt lat="48.12787" lon="-3.83083">
        <ele>196.1</ele>
        <time>2020-06-08T09:20:31Z</time>
      </trkpt>
      <trkpt lat="48.12788" lon="-3.83084">
        <ele>196.2</ele>
        <time>2020-06-08T09:20:32Z</time>
      </trkpt>
      <trkpt lat="48.12791" lon="-3.83087">
        <ele>196.5</ele>
        <time>2020-06-08T09:20:33Z</time>
      </trkpt>
      <trkpt lat="48.12792" lon="-3.83088">
        <ele>196.6</ele>
        <time>2020-06-08T09:20:34Z</time>
      </trkpt>
      <trkpt lat="48.12796" lon="-3.83091">
        <ele>197</ele>
        <time>2020-06-08T09:20:35Z</time>
      </trkpt>
      <trkpt lat="48.12797" lon="-3.83093">
        <ele>197.1</ele>
        <time>2020-06-08T09:20:36Z</time>
      </trkpt>
      <trkpt lat="48.12799" lon="-3.83094">
        <ele>197.4</ele>
        <time>2020-06-08T09:20:37Z</time>
      </trkpt>
      <trkpt lat="48.12802" lon="-3.83098">
        <ele>197.7</ele>
        <time>2020-06-08T09:20:38Z</time>
      </trkpt>
      <trkpt lat="48.12803" lon="-3.83099">
        <ele>197.8</ele>
        <time>2020-06-08T09:20:39Z</time>
      </trkpt>
      <trkpt lat="48.12805" lon="-3.83102">
        <ele>198.1</ele>
        <time>2020-06-08T09:20:40Z</time>
      </trkpt>
      <trkpt lat="48.12807" lon="-3.83106">
        <ele>198.4</ele>
        <time>2020-06-08T09:20:41Z</time>
      </trkpt>
      <trkpt lat="48.1281" lon="-3.83109">
        <ele>198.6</ele>
        <time>2020-06-08T09:20:42Z</time>
      </trkpt>
      <trkpt lat="48.12812" lon="-3.83113">
        <ele>198.9</ele>
        <time>2020-06-08T09:20:43Z</time>
      </trkpt>
      <trkpt lat="48.12813" lon="-3.83114">
        <ele>199</ele>
        <time>2020-06-08T09:20:44Z</time>
      </trkpt>
      <trkpt lat="48.12815" lon="-3.83117">
        <ele>199.3</ele>
        <time>2020-06-08T09:20:45Z</time>
      </trkpt>
      <trkpt lat="48.12817" lon="-3.83121">
        <ele>199.5</ele>
        <time>2020-06-08T09:20:46Z</time>
      </trkpt>
      <trkpt lat="48.12822" lon="-3.83121">
        <ele>199.8</ele>
        <time>2020-06-08T09:20:47Z</time>
      </trkpt>
      <trkpt lat="48.12825" lon="-3.83124">
        <ele>200.1</ele>
        <time>2020-06-08T09:20:48Z</time>
      </trkpt>
      <trkpt lat="48.12826" lon="-3.83125">
        <ele>200.2</ele>
        <time>2020-06-08T09:20:49Z</time>
      </trkpt>
      <trkpt lat="48.12828" lon="-3.83128">
        <ele>200.4</ele>
        <time>2020-06-08T09:20:50Z</time>
      </trkpt>
      <trkpt lat="48.1283" lon="-3.83131">
        <ele>200.6</ele>
        <time>2020-06-08T09:20:51Z</time>
      </trkpt>
      <trkpt lat="48.12831" lon="-3.83135">
        <ele>200.8</ele>
        <time>2020-06-08T09:20:52Z</time>
      </trkpt>
      <trkpt lat="48.12834" lon="-3.83138">
        <ele>199.6</ele>
        <time>2020-06-08T09:20:53Z</time>
      </trkpt>
      <trkpt lat="48.12836" lon="-3.83142">
        <ele>199.9</ele>
        <time>2020-06-08T09:20:54Z</time>
      </trkpt>
      <trkpt lat="48.12838" lon="-3.83146">
        <ele>200.1</ele>
        <time>2020-06-08T09:20:55Z</time>
      </trkpt>
      <trkpt lat="48.1284" lon="-3.83149">
        <ele>200.4</ele>
        <time>2020-06-08T09:20:56Z</time>
      </trkpt>
      <trkpt lat="48.12843" lon="-3.83152">
        <ele>200.6</ele>
        <time>2020-06-08T09:20:57Z</time>
      </trkpt>
      <trkpt lat="48.12844" lon="-3.83154">
        <ele>200.7</ele>
        <time>2020-06-08T09:20:58Z</time>
      </trkpt>
      <trkpt lat="48.12846" lon="-3.83157">
        <ele>200.9</ele>
        <time>2020-06-08T09:20:59Z</time>
      </trkpt>
      <trkpt lat="48.12847" lon="-3.83159">
        <ele>201</ele>
        <time>2020-06-08T09:21:00Z</time>
      </trkpt>
      <trkpt lat="48.1285" lon="-3.83163">
        <ele>201.1</ele>
        <time>2020-06-08T09:21:01Z</time>
      </trkpt>
      <trkpt lat="48.12852" lon="-3.83166">
        <ele>201.3</ele>
        <time>2020-06-08T09:21:02Z</time>
      </trkpt>
      <trkpt lat="48.12855" lon="-3.83169">
        <ele>201.4</ele>
        <time>2020-06-08T09:21:03Z</time>
      </trkpt>
      <trkpt lat="48.12858" lon="-3.83173">
        <ele>201.6</ele>
        <time>2020-06-08T09:21:04Z</time>
      </trkpt>
      <trkpt lat="48.12859" lon="-3.83174">
        <ele>201.6</ele>
        <time>2020-06-08T09:21:05Z</time>
      </trkpt>
      <trkpt lat="48.12862" lon="-3.83177">
        <ele>201.7</ele>
        <time>2020-06-08T09:21:06Z</time>
      </trkpt>
      <trkpt lat="48.12863" lon="-3.83177">
        <ele>201.8</ele>
        <time>2020-06-08T09:21:07Z</time>
      </trkpt>
      <trkpt lat="48.12865" lon="-3.8318">
        <ele>201.9</ele>
        <time>2020-06-08T09:21:08Z</time>
      </trkpt>
      <trkpt lat="48.12867" lon="-3.83184">
        <ele>202</ele>
        <time>2020-06-08T09:21:09Z</time>
      </trkpt>
      <trkpt lat="48.12869" lon="-3.83187">
        <ele>202.1</ele>
        <time>2020-06-08T09:21:10Z</time>
      </trkpt>
      <trkpt lat="48.12871" lon="-3.8319">
        <ele>202.2</ele>
        <time>2020-06-08T09:21:11Z</time>
      </trkpt>
      <trkpt lat="48.12873" lon="-3.83194">
        <ele>202.3</ele>
        <time>2020-06-08T09:21:12Z</time>
      </trkpt>
      <trkpt lat="48.12874" lon="-3.83196">
        <ele>202.3</ele>
        <time>2020-06-08T09:21:13Z</time>
      </trkpt>
      <trkpt lat="48.12877" lon="-3.83199">
        <ele>202.5</ele>
        <time>2020-06-08T09:21:14Z</time>
      </trkpt>
      <trkpt lat="48.12877" lon="-3.832">
        <ele>202.5</ele>
        <time>2020-06-08T09:21:15Z</time>
      </trkpt>
      <trkpt lat="48.12879" lon="-3.83203">
        <ele>202.6</ele>
        <time>2020-06-08T09:21:16Z</time>
      </trkpt>
      <trkpt lat="48.12882" lon="-3.83208">
        <ele>202.7</ele>
        <time>2020-06-08T09:21:17Z</time>
      </trkpt>
      <trkpt lat="48.12885" lon="-3.83211">
        <ele>202.7</ele>
        <time>2020-06-08T09:21:18Z</time>
      </trkpt>
      <trkpt lat="48.12887" lon="-3.83214">
        <ele>202.8</ele>
        <time>2020-06-08T09:21:19Z</time>
      </trkpt>
      <trkpt lat="48.12889" lon="-3.83218">
        <ele>202.8</ele>
        <time>2020-06-08T09:21:20Z</time>
      </trkpt>
      <trkpt lat="48.1289" lon="-3.83219">
        <ele>202.8</ele>
        <time>2020-06-08T09:21:21Z</time>
      </trkpt>
      <trkpt lat="48.12893" lon="-3.83223">
        <ele>202.9</ele>
        <time>2020-06-08T09:21:22Z</time>
      </trkpt>
      <trkpt lat="48.12893" lon="-3.83225">
        <ele>202.9</ele>
        <time>2020-06-08T09:21:23Z</time>
      </trkpt>
      <trkpt lat="48.12895" lon="-3.8323">
        <ele>202.9</ele>
        <time>2020-06-08T09:21:24Z</time>
      </trkpt>
      <trkpt lat="48.12895" lon="-3.83231">
        <ele>202.9</ele>
        <time>2020-06-08T09:21:25Z</time>
      </trkpt>
      <trkpt lat="48.12897" lon="-3.83235">
        <ele>203</ele>
        <time>2020-06-08T09:21:26Z</time>
      </trkpt>
      <trkpt lat="48.12899" lon="-3.83238">
        <ele>203</ele>
        <time>2020-06-08T09:21:27Z</time>
      </trkpt>
      <trkpt lat="48.12901" lon="-3.83242">
        <ele>203</ele>
        <time>2020-06-08T09:21:28Z</time>
      </trkpt>
      <trkpt lat="48.12903" lon="-3.83245">
        <ele>203</ele>
        <time>2020-06-08T09:21:29Z</time>
      </trkpt>
      <trkpt lat="48.12906" lon="-3.83249">
        <ele>203.1</ele>
        <time>2020-06-08T09:21:30Z</time>
      </trkpt>
      <trkpt lat="48.12908" lon="-3.83251">
        <ele>203.1</ele>
        <time>2020-06-08T09:21:31Z</time>
      </trkpt>
      <trkpt lat="48.1291" lon="-3.83254">
        <ele>203.1</ele>
        <time>2020-06-08T09:21:32Z</time>
      </trkpt>
      <trkpt lat="48.12912" lon="-3.83256">
        <ele>203.2</ele>
        <time>2020-06-08T09:21:33Z</time>
      </trkpt>
      <trkpt lat="48.12915" lon="-3.8326">
        <ele>203.2</ele>
        <time>2020-06-08T09:21:34Z</time>
      </trkpt>
      <trkpt lat="48.12918" lon="-3.83264">
        <ele>203.3</ele>
        <time>2020-06-08T09:21:35Z</time>
      </trkpt>
      <trkpt lat="48.1292" lon="-3.83268">
        <ele>203.3</ele>
        <time>2020-06-08T09:21:36Z</time>
      </trkpt>
      <trkpt lat="48.12923" lon="-3.83271">
        <ele>203.3</ele>
        <time>2020-06-08T09:21:37Z</time>
      </trkpt>
      <trkpt lat="48.12927" lon="-3.83274">
        <ele>203.4</ele>
        <time>2020-06-08T09:21:38Z</time>
      </trkpt>
      <trkpt lat="48.1293" lon="-3.83277">
        <ele>203.4</ele>
        <time>2020-06-08T09:21:39Z</time>
      </trkpt>
      <trkpt lat="48.12932" lon="-3.8328">
        <ele>203.5</ele>
        <time>2020-06-08T09:21:40Z</time>
      </trkpt>
      <trkpt lat="48.12935" lon="-3.83283">
        <ele>203.6</ele>
        <time>2020-06-08T09:21:41Z</time>
      </trkpt>
      <trkpt lat="48.12936" lon="-3.83284">
        <ele>203.6</ele>
        <time>2020-06-08T09:21:42Z</time>
      </trkpt>
      <trkpt lat="48.12939" lon="-3.83285">
        <ele>203.7</ele>
        <time>2020-06-08T09:21:43Z</time>
      </trkpt>
      <trkpt lat="48.12942" lon="-3.83286">
        <ele>203.8</ele>
        <time>2020-06-08T09:21:44Z</time>
      </trkpt>
      <trkpt lat="48.12943" lon="-3.83286">
        <ele>203.8</ele>
        <time>2020-06-08T09:21:45Z</time>
      </trkpt>
      <trkpt lat="48.12944" lon="-3.83286">
        <ele>203.8</ele>
        <time>2020-06-08T09:21:46Z</time>
      </trkpt>
      <trkpt lat="48.12944" lon="-3.83286">
        <ele>203.8</ele>
        <time>2020-06-08T09:21:47Z</time>
      </trkpt>
      <trkpt lat="48.12945" lon="-3.83286">
        <ele>203.9</ele>
        <time>2020-06-08T09:21:48Z</time>
      </trkpt>
      <trkpt lat="48.12947" lon="-3.83287">
        <ele>203.9</ele>
        <time>2020-06-08T09:21:49Z</time>
      </trkpt>
      <trkpt lat="48.12948" lon="-3.83288">
        <ele>204</ele>
        <time>2020-06-08T09:21:50Z</time>
      </trkpt>
      <trkpt lat="48.12949" lon="-3.83289">
        <ele>204</ele>
        <time>2020-06-08T09:21:51Z</time>
      </trkpt>
      <trkpt lat="48.1295" lon="-3.8329">
        <ele>204</ele>
        <time>2020-06-08T09:21:52Z</time>
      </trkpt>
      <trkpt lat="48.12951" lon="-3.83291">
        <ele>204.1</ele>
        <time>2020-06-08T09:21:53Z</time>
      </trkpt>
      <trkpt lat="48.12952" lon="-3.83292">
        <ele>204.1</ele>
        <time>2020-06-08T09:21:54Z</time>
      </trkpt>
      <trkpt lat="48.12953" lon="-3.83292">
        <ele>204.1</ele>
        <time>2020-06-08T09:21:55Z</time>
      </trkpt>
      <trkpt lat="48.12954" lon="-3.83291">
        <ele>204.2</ele>
        <time>2020-06-08T09:21:56Z</time>
      </trkpt>
      <trkpt lat="48.12954" lon="-3.83288">
        <ele>204.6</ele>
        <time>2020-06-08T09:21:57Z</time>
      </trkpt>
      <trkpt lat="48.12955" lon="-3.83287">
        <ele>204.7</ele>
        <time>2020-06-08T09:21:58Z</time>
      </trkpt>
      <trkpt lat="48.12955" lon="-3.83286">
        <ele>204.7</ele>
        <time>2020-06-08T09:21:59Z</time>
      </trkpt>
      <trkpt lat="48.12955" lon="-3.83285">
        <ele>204.7</ele>
        <time>2020-06-08T09:22:00Z</time>
      </trkpt>
      <trkpt lat="48.12956" lon="-3.83285">
        <ele>204.7</ele>
        <time>2020-06-08T09:22:01Z</time>
      </trkpt>
      <trkpt lat="48.12956" lon="-3.83284">
        <ele>204.8</ele>
        <time>2020-06-08T09:22:02Z</time>
      </trkpt>
      <trkpt lat="48.12956" lon="-3.83283">
        <ele>204.8</ele>
        <time>2020-06-08T09:22:03Z</time>
      </trkpt>
      <trkpt lat="48.12956" lon="-3.83283">
        <ele>204.8</ele>
        <time>2020-06-08T09:22:04Z</time>
      </trkpt>
      <trkpt lat="48.12957" lon="-3.83282">
        <ele>204.8</ele>
        <time>2020-06-08T09:22:05Z</time>
      </trkpt>
      <trkpt lat="48.12957" lon="-3.83281">
        <ele>204.8</ele>
        <time>2020-06-08T09:22:06Z</time>
      </trkpt>
      <trkpt lat="48.12957" lon="-3.83281">
        <ele>204.9</ele>
        <time>2020-06-08T09:22:07Z</time>
      </trkpt>
      <trkpt lat="48.12958" lon="-3.8328">
        <ele>204.9</ele>
        <time>2020-06-08T09:22:08Z</time>
      </trkpt>
      <trkpt lat="48.12958" lon="-3.83279">
        <ele>204.9</ele>
        <time>2020-06-08T09:23:16Z</time>
      </trkpt>
      <trkpt lat="48.12958" lon="-3.83279">
        <ele>204.9</ele>
        <time>2020-06-08T09:23:17Z</time>
      </trkpt>
      <trkpt lat="48.12959" lon="-3.83273">
        <ele>205.1</ele>
        <time>2020-06-08T09:23:18Z</time>
      </trkpt>
      <trkpt lat="48.12959" lon="-3.83272">
        <ele>205.2</ele>
        <time>2020-06-08T09:23:19Z</time>
      </trkpt>
      <trkpt lat="48.12959" lon="-3.83267">
        <ele>205.3</ele>
        <time>2020-06-08T09:23:20Z</time>
      </trkpt>
      <trkpt lat="48.12959" lon="-3.83263">
        <ele>205.4</ele>
        <time>2020-06-08T09:23:21Z</time>
      </trkpt>
      <trkpt lat="48.12959" lon="-3.83258">
        <ele>205.5</ele>
        <time>2020-06-08T09:23:22Z</time>
      </trkpt>
      <trkpt lat="48.1296" lon="-3.83254">
        <ele>205.6</ele>
        <time>2020-06-08T09:23:23Z</time>
      </trkpt>
      <trkpt lat="48.12961" lon="-3.83249">
        <ele>205.8</ele>
        <time>2020-06-08T09:23:24Z</time>
      </trkpt>
      <trkpt lat="48.12962" lon="-3.83244">
        <ele>205.9</ele>
        <time>2020-06-08T09:23:25Z</time>
      </trkpt>
      <trkpt lat="48.12963" lon="-3.83239">
        <ele>206</ele>
        <time>2020-06-08T09:23:26Z</time>
      </trkpt>
      <trkpt lat="48.12964" lon="-3.83234">
        <ele>206.1</ele>
        <time>2020-06-08T09:23:27Z</time>
      </trkpt>
      <trkpt lat="48.12965" lon="-3.83228">
        <ele>206.2</ele>
        <time>2020-06-08T09:23:28Z</time>
      </trkpt>
      <trkpt lat="48.12966" lon="-3.83223">
        <ele>206.3</ele>
        <time>2020-06-08T09:23:29Z</time>
      </trkpt>
      <trkpt lat="48.12967" lon="-3.83218">
        <ele>206.5</ele>
        <time>2020-06-08T09:23:30Z</time>
      </trkpt>
      <trkpt lat="48.12968" lon="-3.83213">
        <ele>206.7</ele>
        <time>2020-06-08T09:23:31Z</time>
      </trkpt>
      <trkpt lat="48.12969" lon="-3.83209">
        <ele>206.9</ele>
        <time>2020-06-08T09:23:32Z</time>
      </trkpt>
      <trkpt lat="48.1297" lon="-3.83204">
        <ele>207.1</ele>
        <time>2020-06-08T09:23:33Z</time>
      </trkpt>
      <trkpt lat="48.12971" lon="-3.832">
        <ele>207.3</ele>
        <time>2020-06-08T09:23:34Z</time>
      </trkpt>
      <trkpt lat="48.12972" lon="-3.83196">
        <ele>207.5</ele>
        <time>2020-06-08T09:23:35Z</time>
      </trkpt>
      <trkpt lat="48.12975" lon="-3.83191">
        <ele>207.7</ele>
        <time>2020-06-08T09:23:36Z</time>
      </trkpt>
      <trkpt lat="48.12975" lon="-3.8319">
        <ele>207.8</ele>
        <time>2020-06-08T09:23:37Z</time>
      </trkpt>
      <trkpt lat="48.12976" lon="-3.83186">
        <ele>208</ele>
        <time>2020-06-08T09:23:38Z</time>
      </trkpt>
      <trkpt lat="48.12977" lon="-3.83182">
        <ele>208.3</ele>
        <time>2020-06-08T09:23:39Z</time>
      </trkpt>
      <trkpt lat="48.12979" lon="-3.83176">
        <ele>208.7</ele>
        <time>2020-06-08T09:23:40Z</time>
      </trkpt>
      <trkpt lat="48.1298" lon="-3.83174">
        <ele>208.9</ele>
        <time>2020-06-08T09:23:41Z</time>
      </trkpt>
      <trkpt lat="48.12982" lon="-3.83169">
        <ele>209.3</ele>
        <time>2020-06-08T09:23:42Z</time>
      </trkpt>
      <trkpt lat="48.12983" lon="-3.83164">
        <ele>209.7</ele>
        <time>2020-06-08T09:23:43Z</time>
      </trkpt>
      <trkpt lat="48.12985" lon="-3.8316">
        <ele>210.1</ele>
        <time>2020-06-08T09:23:44Z</time>
      </trkpt>
      <trkpt lat="48.12986" lon="-3.83156">
        <ele>210.4</ele>
        <time>2020-06-08T09:23:45Z</time>
      </trkpt>
      <trkpt lat="48.12987" lon="-3.83152">
        <ele>210.8</ele>
        <time>2020-06-08T09:23:46Z</time>
      </trkpt>
      <trkpt lat="48.12988" lon="-3.83148">
        <ele>211.1</ele>
        <time>2020-06-08T09:23:47Z</time>
      </trkpt>
      <trkpt lat="48.12989" lon="-3.83142">
        <ele>211.5</ele>
        <time>2020-06-08T09:23:48Z</time>
      </trkpt>
      <trkpt lat="48.12991" lon="-3.83138">
        <ele>211.8</ele>
        <time>2020-06-08T09:23:49Z</time>
      </trkpt>
      <trkpt lat="48.12992" lon="-3.83134">
        <ele>212.1</ele>
        <time>2020-06-08T09:23:50Z</time>
      </trkpt>
      <trkpt lat="48.12994" lon="-3.83131">
        <ele>212.3</ele>
        <time>2020-06-08T09:23:51Z</time>
      </trkpt>
      <trkpt lat="48.12995" lon="-3.83127">
        <ele>212.6</ele>
        <time>2020-06-08T09:23:52Z</time>
      </trkpt>
      <trkpt lat="48.12996" lon="-3.83123">
        <ele>212.8</ele>
        <time>2020-06-08T09:23:53Z</time>
      </trkpt>
      <trkpt lat="48.12997" lon="-3.83119">
        <ele>213</ele>
        <time>2020-06-08T09:23:54Z</time>
      </trkpt>
      <trkpt lat="48.12999" lon="-3.83114">
        <ele>213.2</ele>
        <time>2020-06-08T09:23:55Z</time>
      </trkpt>
      <trkpt lat="48.13" lon="-3.83109">
        <ele>213.5</ele>
        <time>2020-06-08T09:23:56Z</time>
      </trkpt>
      <trkpt lat="48.13001" lon="-3.83104">
        <ele>213.7</ele>
        <time>2020-06-08T09:23:57Z</time>
      </trkpt>
      <trkpt lat="48.13003" lon="-3.83101">
        <ele>213.9</ele>
        <time>2020-06-08T09:23:58Z</time>
      </trkpt>
      <trkpt lat="48.13004" lon="-3.83097">
        <ele>214.1</ele>
        <time>2020-06-08T09:23:59Z</time>
      </trkpt>
      <trkpt lat="48.13007" lon="-3.83092">
        <ele>214.4</ele>
        <time>2020-06-08T09:24:00Z</time>
      </trkpt>
      <trkpt lat="48.13008" lon="-3.83091">
        <ele>214.4</ele>
        <time>2020-06-08T09:24:01Z</time>
      </trkpt>
      <trkpt lat="48.1301" lon="-3.83087">
        <ele>214.6</ele>
        <time>2020-06-08T09:24:02Z</time>
      </trkpt>
      <trkpt lat="48.13012" lon="-3.83084">
        <ele>214.7</ele>
        <time>2020-06-08T09:24:03Z</time>
      </trkpt>
      <trkpt lat="48.13015" lon="-3.83081">
        <ele>214.9</ele>
        <time>2020-06-08T09:24:04Z</time>
      </trkpt>
      <trkpt lat="48.13019" lon="-3.83079">
        <ele>215</ele>
        <time>2020-06-08T09:24:05Z</time>
      </trkpt>
      <trkpt lat="48.1302" lon="-3.83078">
        <ele>215.1</ele>
        <time>2020-06-08T09:24:06Z</time>
      </trkpt>
      <trkpt lat="48.13023" lon="-3.83077">
        <ele>215.2</ele>
        <time>2020-06-08T09:24:07Z</time>
      </trkpt>
      <trkpt lat="48.13024" lon="-3.83077">
        <ele>215.2</ele>
        <time>2020-06-08T09:24:08Z</time>
      </trkpt>
      <trkpt lat="48.13028" lon="-3.83078">
        <ele>215.3</ele>
        <time>2020-06-08T09:24:09Z</time>
      </trkpt>
      <trkpt lat="48.13029" lon="-3.83078">
        <ele>215.4</ele>
        <time>2020-06-08T09:24:10Z</time>
      </trkpt>
      <trkpt lat="48.13032" lon="-3.83079">
        <ele>215.5</ele>
        <time>2020-06-08T09:24:11Z</time>
      </trkpt>
      <trkpt lat="48.13035" lon="-3.83081">
        <ele>215.6</ele>
        <time>2020-06-08T09:24:12Z</time>
      </trkpt>
      <trkpt lat="48.13038" lon="-3.83082">
        <ele>215.7</ele>
        <time>2020-06-08T09:24:13Z</time>
      </trkpt>
      <trkpt lat="48.13041" lon="-3.83084">
        <ele>215.8</ele>
        <time>2020-06-08T09:24:14Z</time>
      </trkpt>
      <trkpt lat="48.13043" lon="-3.83084">
        <ele>215.9</ele>
        <time>2020-06-08T09:24:15Z</time>
      </trkpt>
      <trkpt lat="48.13047" lon="-3.83086">
        <ele>215.9</ele>
        <time>2020-06-08T09:24:16Z</time>
      </trkpt>
      <trkpt lat="48.13048" lon="-3.83086">
        <ele>215.9</ele>
        <time>2020-06-08T09:24:17Z</time>
      </trkpt>
      <trkpt lat="48.13051" lon="-3.83089">
        <ele>215.8</ele>
        <time>2020-06-08T09:24:18Z</time>
      </trkpt>
      <trkpt lat="48.13053" lon="-3.83089">
        <ele>215.6</ele>
        <time>2020-06-08T09:24:19Z</time>
      </trkpt>
      <trkpt lat="48.13055" lon="-3.83091">
        <ele>215.3</ele>
        <time>2020-06-08T09:24:20Z</time>
      </trkpt>
      <trkpt lat="48.13059" lon="-3.83093">
        <ele>214.6</ele>
        <time>2020-06-08T09:24:21Z</time>
      </trkpt>
      <trkpt lat="48.1306" lon="-3.83094">
        <ele>214.3</ele>
        <time>2020-06-08T09:24:22Z</time>
      </trkpt>
      <trkpt lat="48.13062" lon="-3.83095">
        <ele>213.5</ele>
        <time>2020-06-08T09:24:23Z</time>
      </trkpt>
      <trkpt lat="48.13065" lon="-3.83097">
        <ele>212.6</ele>
        <time>2020-06-08T09:24:24Z</time>
      </trkpt>
      <trkpt lat="48.13067" lon="-3.83099">
        <ele>211.4</ele>
        <time>2020-06-08T09:24:25Z</time>
      </trkpt>
      <trkpt lat="48.1307" lon="-3.83102">
        <ele>211.4</ele>
        <time>2020-06-08T09:24:26Z</time>
      </trkpt>
      <trkpt lat="48.13072" lon="-3.83103">
        <ele>211.5</ele>
        <time>2020-06-08T09:24:27Z</time>
      </trkpt>
      <trkpt lat="48.13076" lon="-3.83106">
        <ele>211.5</ele>
        <time>2020-06-08T09:24:28Z</time>
      </trkpt>
      <trkpt lat="48.13077" lon="-3.83108">
        <ele>211.5</ele>
        <time>2020-06-08T09:24:29Z</time>
      </trkpt>
      <trkpt lat="48.13079" lon="-3.83111">
        <ele>211.6</ele>
        <time>2020-06-08T09:24:30Z</time>
      </trkpt>
      <trkpt lat="48.13081" lon="-3.83114">
        <ele>211.6</ele>
        <time>2020-06-08T09:24:31Z</time>
      </trkpt>
      <trkpt lat="48.13084" lon="-3.83117">
        <ele>211.7</ele>
        <time>2020-06-08T09:24:32Z</time>
      </trkpt>
      <trkpt lat="48.13086" lon="-3.8312">
        <ele>211.7</ele>
        <time>2020-06-08T09:24:33Z</time>
      </trkpt>
      <trkpt lat="48.13089" lon="-3.83122">
        <ele>211.7</ele>
        <time>2020-06-08T09:24:34Z</time>
      </trkpt>
      <trkpt lat="48.1309" lon="-3.83123">
        <ele>211.7</ele>
        <time>2020-06-08T09:24:35Z</time>
      </trkpt>
      <trkpt lat="48.13094" lon="-3.83124">
        <ele>211.8</ele>
        <time>2020-06-08T09:24:36Z</time>
      </trkpt>
      <trkpt lat="48.13095" lon="-3.83125">
        <ele>211.8</ele>
        <time>2020-06-08T09:24:37Z</time>
      </trkpt>
      <trkpt lat="48.13097" lon="-3.83125">
        <ele>211.8</ele>
        <time>2020-06-08T09:24:38Z</time>
      </trkpt>
      <trkpt lat="48.13098" lon="-3.83126">
        <ele>211.8</ele>
        <time>2020-06-08T09:24:39Z</time>
      </trkpt>
      <trkpt lat="48.131" lon="-3.83126">
        <ele>211.8</ele>
        <time>2020-06-08T09:24:40Z</time>
      </trkpt>
      <trkpt lat="48.13102" lon="-3.83126">
        <ele>211.8</ele>
        <time>2020-06-08T09:24:41Z</time>
      </trkpt>
      <trkpt lat="48.13103" lon="-3.83126">
        <ele>211.9</ele>
        <time>2020-06-08T09:24:42Z</time>
      </trkpt>
      <trkpt lat="48.13105" lon="-3.83125">
        <ele>211.9</ele>
        <time>2020-06-08T09:24:43Z</time>
      </trkpt>
      <trkpt lat="48.13108" lon="-3.83126">
        <ele>211.9</ele>
        <time>2020-06-08T09:24:44Z</time>
      </trkpt>
      <trkpt lat="48.13109" lon="-3.83127">
        <ele>211.9</ele>
        <time>2020-06-08T09:24:45Z</time>
      </trkpt>
      <trkpt lat="48.13112" lon="-3.83126">
        <ele>211.9</ele>
        <time>2020-06-08T09:24:46Z</time>
      </trkpt>
      <trkpt lat="48.13113" lon="-3.83126">
        <ele>211.9</ele>
        <time>2020-06-08T09:24:47Z</time>
      </trkpt>
      <trkpt lat="48.13115" lon="-3.83125">
        <ele>211.9</ele>
        <time>2020-06-08T09:24:48Z</time>
      </trkpt>
      <trkpt lat="48.13116" lon="-3.83125">
        <ele>211.9</ele>
        <time>2020-06-08T09:24:49Z</time>
      </trkpt>
      <trkpt lat="48.13117" lon="-3.83124">
        <ele>211.9</ele>
        <time>2020-06-08T09:24:50Z</time>
      </trkpt>
      <trkpt lat="48.13118" lon="-3.83123">
        <ele>211.9</ele>
        <time>2020-06-08T09:24:51Z</time>
      </trkpt>
      <trkpt lat="48.1312" lon="-3.83123">
        <ele>211.9</ele>
        <time>2020-06-08T09:24:52Z</time>
      </trkpt>
      <trkpt lat="48.13123" lon="-3.83125">
        <ele>212</ele>
        <time>2020-06-08T09:24:53Z</time>
      </trkpt>
      <trkpt lat="48.13124" lon="-3.83125">
        <ele>212.1</ele>
        <time>2020-06-08T09:24:54Z</time>
      </trkpt>
      <trkpt lat="48.13128" lon="-3.83127">
        <ele>212.2</ele>
        <time>2020-06-08T09:24:55Z</time>
      </trkpt>
      <trkpt lat="48.13129" lon="-3.83126">
        <ele>212.2</ele>
        <time>2020-06-08T09:24:56Z</time>
      </trkpt>
      <trkpt lat="48.1313" lon="-3.83125">
        <ele>212.3</ele>
        <time>2020-06-08T09:24:57Z</time>
      </trkpt>
      <trkpt lat="48.13132" lon="-3.83125">
        <ele>212.3</ele>
        <time>2020-06-08T09:24:58Z</time>
      </trkpt>
      <trkpt lat="48.13133" lon="-3.83125">
        <ele>212.3</ele>
        <time>2020-06-08T09:24:59Z</time>
      </trkpt>
      <trkpt lat="48.13135" lon="-3.83126">
        <ele>212.4</ele>
        <time>2020-06-08T09:25:00Z</time>
      </trkpt>
      <trkpt lat="48.13138" lon="-3.83127">
        <ele>212.5</ele>
        <time>2020-06-08T09:25:01Z</time>
      </trkpt>
      <trkpt lat="48.13139" lon="-3.83128">
        <ele>212.5</ele>
        <time>2020-06-08T09:25:02Z</time>
      </trkpt>
      <trkpt lat="48.13142" lon="-3.83129">
        <ele>212.6</ele>
        <time>2020-06-08T09:25:03Z</time>
      </trkpt>
      <trkpt lat="48.13143" lon="-3.83129">
        <ele>212.7</ele>
        <time>2020-06-08T09:25:04Z</time>
      </trkpt>
      <trkpt lat="48.13147" lon="-3.8313">
        <ele>212.8</ele>
        <time>2020-06-08T09:25:05Z</time>
      </trkpt>
      <trkpt lat="48.13148" lon="-3.8313">
        <ele>212.8</ele>
        <time>2020-06-08T09:25:06Z</time>
      </trkpt>
      <trkpt lat="48.13151" lon="-3.83131">
        <ele>212.9</ele>
        <time>2020-06-08T09:25:07Z</time>
      </trkpt>
      <trkpt lat="48.13152" lon="-3.83131">
        <ele>212.9</ele>
        <time>2020-06-08T09:25:08Z</time>
      </trkpt>
      <trkpt lat="48.13156" lon="-3.83131">
        <ele>213.1</ele>
        <time>2020-06-08T09:25:09Z</time>
      </trkpt>
      <trkpt lat="48.13157" lon="-3.83132">
        <ele>213.1</ele>
        <time>2020-06-08T09:25:10Z</time>
      </trkpt>
      <trkpt lat="48.1316" lon="-3.83132">
        <ele>213.2</ele>
        <time>2020-06-08T09:25:11Z</time>
      </trkpt>
      <trkpt lat="48.13161" lon="-3.83133">
        <ele>213.2</ele>
        <time>2020-06-08T09:25:12Z</time>
      </trkpt>
      <trkpt lat="48.13165" lon="-3.83133">
        <ele>213.3</ele>
        <time>2020-06-08T09:25:13Z</time>
      </trkpt>
      <trkpt lat="48.13166" lon="-3.83133">
        <ele>213.4</ele>
        <time>2020-06-08T09:25:14Z</time>
      </trkpt>
      <trkpt lat="48.13169" lon="-3.83133">
        <ele>213.5</ele>
        <time>2020-06-08T09:25:15Z</time>
      </trkpt>
      <trkpt lat="48.13171" lon="-3.83134">
        <ele>213.5</ele>
        <time>2020-06-08T09:25:16Z</time>
      </trkpt>
      <trkpt lat="48.13172" lon="-3.83134">
        <ele>213.6</ele>
        <time>2020-06-08T09:25:17Z</time>
      </trkpt>
      <trkpt lat="48.13174" lon="-3.83135">
        <ele>213.6</ele>
        <time>2020-06-08T09:25:18Z</time>
      </trkpt>
      <trkpt lat="48.13175" lon="-3.83134">
        <ele>213.7</ele>
        <time>2020-06-08T09:25:19Z</time>
      </trkpt>
      <trkpt lat="48.13178" lon="-3.83134">
        <ele>213.7</ele>
        <time>2020-06-08T09:25:20Z</time>
      </trkpt>
      <trkpt lat="48.13179" lon="-3.83134">
        <ele>213.8</ele>
        <time>2020-06-08T09:25:21Z</time>
      </trkpt>
      <trkpt lat="48.13184" lon="-3.83135">
        <ele>213.9</ele>
        <time>2020-06-08T09:25:22Z</time>
      </trkpt>
      <trkpt lat="48.13185" lon="-3.83136">
        <ele>213.9</ele>
        <time>2020-06-08T09:25:23Z</time>
      </trkpt>
      <trkpt lat="48.13188" lon="-3.83136">
        <ele>214.1</ele>
        <time>2020-06-08T09:25:24Z</time>
      </trkpt>
      <trkpt lat="48.13191" lon="-3.83138">
        <ele>214.1</ele>
        <time>2020-06-08T09:25:25Z</time>
      </trkpt>
      <trkpt lat="48.13195" lon="-3.83138">
        <ele>214.2</ele>
        <time>2020-06-08T09:25:26Z</time>
      </trkpt>
      <trkpt lat="48.13198" lon="-3.83138">
        <ele>214.4</ele>
        <time>2020-06-08T09:25:27Z</time>
      </trkpt>
      <trkpt lat="48.13203" lon="-3.83139">
        <ele>214.5</ele>
        <time>2020-06-08T09:25:28Z</time>
      </trkpt>
      <trkpt lat="48.13207" lon="-3.8314">
        <ele>214.6</ele>
        <time>2020-06-08T09:25:29Z</time>
      </trkpt>
      <trkpt lat="48.1321" lon="-3.83141">
        <ele>214.7</ele>
        <time>2020-06-08T09:25:30Z</time>
      </trkpt>
      <trkpt lat="48.13214" lon="-3.83142">
        <ele>214.8</ele>
        <time>2020-06-08T09:25:31Z</time>
      </trkpt>
      <trkpt lat="48.13218" lon="-3.83144">
        <ele>215</ele>
        <time>2020-06-08T09:25:32Z</time>
      </trkpt>
      <trkpt lat="48.13222" lon="-3.83146">
        <ele>215.1</ele>
        <time>2020-06-08T09:25:33Z</time>
      </trkpt>
      <trkpt lat="48.13226" lon="-3.83148">
        <ele>215.2</ele>
        <time>2020-06-08T09:25:34Z</time>
      </trkpt>
      <trkpt lat="48.1323" lon="-3.83151">
        <ele>215.4</ele>
        <time>2020-06-08T09:25:35Z</time>
      </trkpt>
      <trkpt lat="48.13233" lon="-3.83153">
        <ele>215.5</ele>
        <time>2020-06-08T09:25:36Z</time>
      </trkpt>
      <trkpt lat="48.13238" lon="-3.83153">
        <ele>215.6</ele>
        <time>2020-06-08T09:25:37Z</time>
      </trkpt>
      <trkpt lat="48.13242" lon="-3.83153">
        <ele>215.7</ele>
        <time>2020-06-08T09:25:38Z</time>
      </trkpt>
      <trkpt lat="48.13246" lon="-3.83155">
        <ele>215.8</ele>
        <time>2020-06-08T09:25:39Z</time>
      </trkpt>
      <trkpt lat="48.13249" lon="-3.83157">
        <ele>216</ele>
        <time>2020-06-08T09:25:40Z</time>
      </trkpt>
      <trkpt lat="48.13253" lon="-3.83159">
        <ele>216.1</ele>
        <time>2020-06-08T09:25:41Z</time>
      </trkpt>
      <trkpt lat="48.13257" lon="-3.8316">
        <ele>216.2</ele>
        <time>2020-06-08T09:25:42Z</time>
      </trkpt>
      <trkpt lat="48.1326" lon="-3.83161">
        <ele>216.3</ele>
        <time>2020-06-08T09:25:43Z</time>
      </trkpt>
      <trkpt lat="48.13264" lon="-3.83162">
        <ele>216.4</ele>
        <time>2020-06-08T09:25:44Z</time>
      </trkpt>
      <trkpt lat="48.13267" lon="-3.83163">
        <ele>216.5</ele>
        <time>2020-06-08T09:25:45Z</time>
      </trkpt>
      <trkpt lat="48.13271" lon="-3.83165">
        <ele>216.6</ele>
        <time>2020-06-08T09:25:46Z</time>
      </trkpt>
      <trkpt lat="48.13275" lon="-3.83165">
        <ele>216.7</ele>
        <time>2020-06-08T09:25:47Z</time>
      </trkpt>
      <trkpt lat="48.13279" lon="-3.83165">
        <ele>216.9</ele>
        <time>2020-06-08T09:25:48Z</time>
      </trkpt>
      <trkpt lat="48.13283" lon="-3.83168">
        <ele>217</ele>
        <time>2020-06-08T09:25:49Z</time>
      </trkpt>
      <trkpt lat="48.13285" lon="-3.83169">
        <ele>217.1</ele>
        <time>2020-06-08T09:25:50Z</time>
      </trkpt>
      <trkpt lat="48.13288" lon="-3.83169">
        <ele>217.2</ele>
        <time>2020-06-08T09:25:51Z</time>
      </trkpt>
      <trkpt lat="48.13292" lon="-3.8317">
        <ele>217.3</ele>
        <time>2020-06-08T09:25:52Z</time>
      </trkpt>
      <trkpt lat="48.13296" lon="-3.83171">
        <ele>217.4</ele>
        <time>2020-06-08T09:25:53Z</time>
      </trkpt>
      <trkpt lat="48.13299" lon="-3.83172">
        <ele>217.5</ele>
        <time>2020-06-08T09:25:54Z</time>
      </trkpt>
      <trkpt lat="48.13302" lon="-3.83173">
        <ele>217.6</ele>
        <time>2020-06-08T09:25:55Z</time>
      </trkpt>
      <trkpt lat="48.13306" lon="-3.83175">
        <ele>217.7</ele>
        <time>2020-06-08T09:25:56Z</time>
      </trkpt>
      <trkpt lat="48.13307" lon="-3.83176">
        <ele>217.8</ele>
        <time>2020-06-08T09:25:57Z</time>
      </trkpt>
      <trkpt lat="48.13311" lon="-3.83177">
        <ele>217.9</ele>
        <time>2020-06-08T09:25:58Z</time>
      </trkpt>
      <trkpt lat="48.13314" lon="-3.83179">
        <ele>218</ele>
        <time>2020-06-08T09:25:59Z</time>
      </trkpt>
      <trkpt lat="48.13318" lon="-3.83181">
        <ele>218.1</ele>
        <time>2020-06-08T09:26:00Z</time>
      </trkpt>
      <trkpt lat="48.13321" lon="-3.83183">
        <ele>218.2</ele>
        <time>2020-06-08T09:26:01Z</time>
      </trkpt>
      <trkpt lat="48.13325" lon="-3.83185">
        <ele>218.3</ele>
        <time>2020-06-08T09:26:02Z</time>
      </trkpt>
      <trkpt lat="48.13329" lon="-3.83187">
        <ele>218.5</ele>
        <time>2020-06-08T09:26:03Z</time>
      </trkpt>
      <trkpt lat="48.13333" lon="-3.8319">
        <ele>218.6</ele>
        <time>2020-06-08T09:26:04Z</time>
      </trkpt>
      <trkpt lat="48.13336" lon="-3.83191">
        <ele>218.7</ele>
        <time>2020-06-08T09:26:05Z</time>
      </trkpt>
      <trkpt lat="48.1334" lon="-3.83194">
        <ele>218.8</ele>
        <time>2020-06-08T09:26:06Z</time>
      </trkpt>
      <trkpt lat="48.13343" lon="-3.83196">
        <ele>218.9</ele>
        <time>2020-06-08T09:26:07Z</time>
      </trkpt>
      <trkpt lat="48.13346" lon="-3.83197">
        <ele>219</ele>
        <time>2020-06-08T09:26:08Z</time>
      </trkpt>
      <trkpt lat="48.1335" lon="-3.83199">
        <ele>219.1</ele>
        <time>2020-06-08T09:26:09Z</time>
      </trkpt>
      <trkpt lat="48.13354" lon="-3.83201">
        <ele>219.2</ele>
        <time>2020-06-08T09:26:10Z</time>
      </trkpt>
      <trkpt lat="48.13356" lon="-3.83203">
        <ele>219.3</ele>
        <time>2020-06-08T09:26:11Z</time>
      </trkpt>
      <trkpt lat="48.1336" lon="-3.83205">
        <ele>219.5</ele>
        <time>2020-06-08T09:26:12Z</time>
      </trkpt>
      <trkpt lat="48.13364" lon="-3.83206">
        <ele>219.6</ele>
        <time>2020-06-08T09:26:13Z</time>
      </trkpt>
      <trkpt lat="48.13367" lon="-3.83208">
        <ele>219.7</ele>
        <time>2020-06-08T09:26:14Z</time>
      </trkpt>
      <trkpt lat="48.1337" lon="-3.83209">
        <ele>219.8</ele>
        <time>2020-06-08T09:26:15Z</time>
      </trkpt>
      <trkpt lat="48.13372" lon="-3.83211">
        <ele>219.8</ele>
        <time>2020-06-08T09:26:16Z</time>
      </trkpt>
      <trkpt lat="48.13375" lon="-3.83213">
        <ele>219.9</ele>
        <time>2020-06-08T09:26:17Z</time>
      </trkpt>
      <trkpt lat="48.13377" lon="-3.83215">
        <ele>220</ele>
        <time>2020-06-08T09:26:18Z</time>
      </trkpt>
      <trkpt lat="48.13381" lon="-3.83218">
        <ele>220.2</ele>
        <time>2020-06-08T09:26:19Z</time>
      </trkpt>
      <trkpt lat="48.13383" lon="-3.8322">
        <ele>220.2</ele>
        <time>2020-06-08T09:26:20Z</time>
      </trkpt>
      <trkpt lat="48.13386" lon="-3.83222">
        <ele>220.3</ele>
        <time>2020-06-08T09:26:21Z</time>
      </trkpt>
      <trkpt lat="48.13389" lon="-3.83223">
        <ele>220.4</ele>
        <time>2020-06-08T09:26:22Z</time>
      </trkpt>
      <trkpt lat="48.13391" lon="-3.83224">
        <ele>220.5</ele>
        <time>2020-06-08T09:26:23Z</time>
      </trkpt>
      <trkpt lat="48.13394" lon="-3.83226">
        <ele>220.6</ele>
        <time>2020-06-08T09:26:24Z</time>
      </trkpt>
      <trkpt lat="48.13397" lon="-3.83228">
        <ele>220.7</ele>
        <time>2020-06-08T09:26:25Z</time>
      </trkpt>
      <trkpt lat="48.13398" lon="-3.83229">
        <ele>220.7</ele>
        <time>2020-06-08T09:26:26Z</time>
      </trkpt>
      <trkpt lat="48.13403" lon="-3.83231">
        <ele>220.9</ele>
        <time>2020-06-08T09:26:27Z</time>
      </trkpt>
      <trkpt lat="48.13405" lon="-3.83232">
        <ele>220.9</ele>
        <time>2020-06-08T09:26:28Z</time>
      </trkpt>
      <trkpt lat="48.13408" lon="-3.83234">
        <ele>221</ele>
        <time>2020-06-08T09:26:29Z</time>
      </trkpt>
      <trkpt lat="48.13412" lon="-3.83236">
        <ele>221.1</ele>
        <time>2020-06-08T09:26:30Z</time>
      </trkpt>
      <trkpt lat="48.13415" lon="-3.83237">
        <ele>221.3</ele>
        <time>2020-06-08T09:26:31Z</time>
      </trkpt>
      <trkpt lat="48.13419" lon="-3.83239">
        <ele>221.4</ele>
        <time>2020-06-08T09:26:32Z</time>
      </trkpt>
      <trkpt lat="48.13422" lon="-3.83242">
        <ele>221.5</ele>
        <time>2020-06-08T09:26:33Z</time>
      </trkpt>
      <trkpt lat="48.13424" lon="-3.83242">
        <ele>221.5</ele>
        <time>2020-06-08T09:26:34Z</time>
      </trkpt>
      <trkpt lat="48.13426" lon="-3.83244">
        <ele>221.6</ele>
        <time>2020-06-08T09:26:35Z</time>
      </trkpt>
      <trkpt lat="48.1343" lon="-3.83244">
        <ele>221.7</ele>
        <time>2020-06-08T09:26:36Z</time>
      </trkpt>
      <trkpt lat="48.13431" lon="-3.83244">
        <ele>221.7</ele>
        <time>2020-06-08T09:26:37Z</time>
      </trkpt>
      <trkpt lat="48.13434" lon="-3.83246">
        <ele>221.9</ele>
        <time>2020-06-08T09:26:38Z</time>
      </trkpt>
      <trkpt lat="48.13435" lon="-3.83246">
        <ele>221.9</ele>
        <time>2020-06-08T09:26:39Z</time>
      </trkpt>
      <trkpt lat="48.13438" lon="-3.83247">
        <ele>222</ele>
        <time>2020-06-08T09:26:40Z</time>
      </trkpt>
      <trkpt lat="48.13439" lon="-3.83247">
        <ele>222</ele>
        <time>2020-06-08T09:26:41Z</time>
      </trkpt>
      <trkpt lat="48.13443" lon="-3.83249">
        <ele>222.1</ele>
        <time>2020-06-08T09:26:42Z</time>
      </trkpt>
      <trkpt lat="48.13444" lon="-3.83249">
        <ele>222.2</ele>
        <time>2020-06-08T09:26:43Z</time>
      </trkpt>
      <trkpt lat="48.13447" lon="-3.83251">
        <ele>222.3</ele>
        <time>2020-06-08T09:26:44Z</time>
      </trkpt>
      <trkpt lat="48.1345" lon="-3.83252">
        <ele>222.4</ele>
        <time>2020-06-08T09:26:45Z</time>
      </trkpt>
      <trkpt lat="48.13454" lon="-3.83253">
        <ele>222.5</ele>
        <time>2020-06-08T09:26:46Z</time>
      </trkpt>
      <trkpt lat="48.13457" lon="-3.83254">
        <ele>222.6</ele>
        <time>2020-06-08T09:26:47Z</time>
      </trkpt>
      <trkpt lat="48.1346" lon="-3.83256">
        <ele>222.7</ele>
        <time>2020-06-08T09:26:48Z</time>
      </trkpt>
      <trkpt lat="48.13464" lon="-3.83256">
        <ele>222.8</ele>
        <time>2020-06-08T09:26:49Z</time>
      </trkpt>
      <trkpt lat="48.13468" lon="-3.83257">
        <ele>222.9</ele>
        <time>2020-06-08T09:26:50Z</time>
      </trkpt>
      <trkpt lat="48.13473" lon="-3.83257">
        <ele>223</ele>
        <time>2020-06-08T09:26:51Z</time>
      </trkpt>
      <trkpt lat="48.13477" lon="-3.83259">
        <ele>223.2</ele>
        <time>2020-06-08T09:26:52Z</time>
      </trkpt>
      <trkpt lat="48.13481" lon="-3.83261">
        <ele>223.3</ele>
        <time>2020-06-08T09:26:53Z</time>
      </trkpt>
      <trkpt lat="48.13482" lon="-3.83262">
        <ele>223.3</ele>
        <time>2020-06-08T09:26:54Z</time>
      </trkpt>
      <trkpt lat="48.13485" lon="-3.83264">
        <ele>223.4</ele>
        <time>2020-06-08T09:26:55Z</time>
      </trkpt>
      <trkpt lat="48.13488" lon="-3.83266">
        <ele>223.5</ele>
        <time>2020-06-08T09:26:56Z</time>
      </trkpt>
      <trkpt lat="48.13491" lon="-3.83268">
        <ele>223.6</ele>
        <time>2020-06-08T09:26:57Z</time>
      </trkpt>
      <trkpt lat="48.13494" lon="-3.83268">
        <ele>223.7</ele>
        <time>2020-06-08T09:26:58Z</time>
      </trkpt>
      <trkpt lat="48.13498" lon="-3.8327">
        <ele>223.8</ele>
        <time>2020-06-08T09:26:59Z</time>
      </trkpt>
      <trkpt lat="48.13499" lon="-3.83271">
        <ele>223.9</ele>
        <time>2020-06-08T09:27:00Z</time>
      </trkpt>
      <trkpt lat="48.13502" lon="-3.83273">
        <ele>224</ele>
        <time>2020-06-08T09:27:01Z</time>
      </trkpt>
      <trkpt lat="48.13505" lon="-3.83273">
        <ele>224.1</ele>
        <time>2020-06-08T09:27:02Z</time>
      </trkpt>
      <trkpt lat="48.13509" lon="-3.83273">
        <ele>224.2</ele>
        <time>2020-06-08T09:27:03Z</time>
      </trkpt>
      <trkpt lat="48.13512" lon="-3.83274">
        <ele>224.3</ele>
        <time>2020-06-08T09:27:04Z</time>
      </trkpt>
      <trkpt lat="48.13516" lon="-3.83275">
        <ele>224.4</ele>
        <time>2020-06-08T09:27:05Z</time>
      </trkpt>
      <trkpt lat="48.1352" lon="-3.83276">
        <ele>224.5</ele>
        <time>2020-06-08T09:27:06Z</time>
      </trkpt>
      <trkpt lat="48.13524" lon="-3.83277">
        <ele>224.6</ele>
        <time>2020-06-08T09:27:07Z</time>
      </trkpt>
      <trkpt lat="48.13525" lon="-3.83277">
        <ele>224.7</ele>
        <time>2020-06-08T09:27:08Z</time>
      </trkpt>
      <trkpt lat="48.13529" lon="-3.83277">
        <ele>224.8</ele>
        <time>2020-06-08T09:27:09Z</time>
      </trkpt>
      <trkpt lat="48.1353" lon="-3.83277">
        <ele>224.8</ele>
        <time>2020-06-08T09:27:10Z</time>
      </trkpt>
      <trkpt lat="48.13533" lon="-3.83279">
        <ele>224.9</ele>
        <time>2020-06-08T09:27:11Z</time>
      </trkpt>
      <trkpt lat="48.13536" lon="-3.83279">
        <ele>225</ele>
        <time>2020-06-08T09:27:12Z</time>
      </trkpt>
      <trkpt lat="48.13539" lon="-3.83281">
        <ele>225.1</ele>
        <time>2020-06-08T09:27:13Z</time>
      </trkpt>
      <trkpt lat="48.13542" lon="-3.83282">
        <ele>225.2</ele>
        <time>2020-06-08T09:27:14Z</time>
      </trkpt>
      <trkpt lat="48.13546" lon="-3.83283">
        <ele>225.3</ele>
        <time>2020-06-08T09:27:15Z</time>
      </trkpt>
      <trkpt lat="48.13547" lon="-3.83283">
        <ele>225.4</ele>
        <time>2020-06-08T09:27:16Z</time>
      </trkpt>
      <trkpt lat="48.13551" lon="-3.83284">
        <ele>225.5</ele>
        <time>2020-06-08T09:27:17Z</time>
      </trkpt>
      <trkpt lat="48.13552" lon="-3.83285">
        <ele>225.5</ele>
        <time>2020-06-08T09:27:18Z</time>
      </trkpt>
      <trkpt lat="48.13556" lon="-3.83287">
        <ele>225.7</ele>
        <time>2020-06-08T09:27:19Z</time>
      </trkpt>
      <trkpt lat="48.1356" lon="-3.83288">
        <ele>225.8</ele>
        <time>2020-06-08T09:27:20Z</time>
      </trkpt>
      <trkpt lat="48.13563" lon="-3.83288">
        <ele>225.9</ele>
        <time>2020-06-08T09:27:21Z</time>
      </trkpt>
      <trkpt lat="48.13566" lon="-3.83289">
        <ele>225.9</ele>
        <time>2020-06-08T09:27:22Z</time>
      </trkpt>
      <trkpt lat="48.13569" lon="-3.83291">
        <ele>226</ele>
        <time>2020-06-08T09:27:23Z</time>
      </trkpt>
      <trkpt lat="48.13571" lon="-3.83291">
        <ele>226.1</ele>
        <time>2020-06-08T09:27:24Z</time>
      </trkpt>
      <trkpt lat="48.13575" lon="-3.83292">
        <ele>226.2</ele>
        <time>2020-06-08T09:27:25Z</time>
      </trkpt>
      <trkpt lat="48.13578" lon="-3.83294">
        <ele>226.3</ele>
        <time>2020-06-08T09:27:26Z</time>
      </trkpt>
      <trkpt lat="48.1358" lon="-3.83294">
        <ele>226.4</ele>
        <time>2020-06-08T09:27:27Z</time>
      </trkpt>
      <trkpt lat="48.13582" lon="-3.83296">
        <ele>226.5</ele>
        <time>2020-06-08T09:27:28Z</time>
      </trkpt>
      <trkpt lat="48.13585" lon="-3.83298">
        <ele>226.6</ele>
        <time>2020-06-08T09:27:29Z</time>
      </trkpt>
      <trkpt lat="48.13588" lon="-3.83299">
        <ele>226.6</ele>
        <time>2020-06-08T09:27:30Z</time>
      </trkpt>
      <trkpt lat="48.13594" lon="-3.83298">
        <ele>226.8</ele>
        <time>2020-06-08T09:27:31Z</time>
      </trkpt>
      <trkpt lat="48.136" lon="-3.83299">
        <ele>226.8</ele>
        <time>2020-06-08T09:27:32Z</time>
      </trkpt>
      <trkpt lat="48.13603" lon="-3.83299">
        <ele>226.8</ele>
        <time>2020-06-08T09:27:33Z</time>
      </trkpt>
      <trkpt lat="48.13607" lon="-3.83302">
        <ele>226.9</ele>
        <time>2020-06-08T09:27:34Z</time>
      </trkpt>
      <trkpt lat="48.13611" lon="-3.83303">
        <ele>226.9</ele>
        <time>2020-06-08T09:27:35Z</time>
      </trkpt>
      <trkpt lat="48.13612" lon="-3.83304">
        <ele>226.9</ele>
        <time>2020-06-08T09:27:36Z</time>
      </trkpt>
      <trkpt lat="48.13615" lon="-3.83305">
        <ele>227</ele>
        <time>2020-06-08T09:27:37Z</time>
      </trkpt>
      <trkpt lat="48.13618" lon="-3.83307">
        <ele>227.1</ele>
        <time>2020-06-08T09:27:38Z</time>
      </trkpt>
      <trkpt lat="48.13621" lon="-3.83308">
        <ele>227.2</ele>
        <time>2020-06-08T09:27:39Z</time>
      </trkpt>
      <trkpt lat="48.13625" lon="-3.8331">
        <ele>227.3</ele>
        <time>2020-06-08T09:27:40Z</time>
      </trkpt>
      <trkpt lat="48.13628" lon="-3.83311">
        <ele>227.4</ele>
        <time>2020-06-08T09:27:41Z</time>
      </trkpt>
      <trkpt lat="48.13631" lon="-3.83313">
        <ele>227.5</ele>
        <time>2020-06-08T09:27:42Z</time>
      </trkpt>
      <trkpt lat="48.13634" lon="-3.83315">
        <ele>227.6</ele>
        <time>2020-06-08T09:27:43Z</time>
      </trkpt>
      <trkpt lat="48.13637" lon="-3.83317">
        <ele>227.8</ele>
        <time>2020-06-08T09:27:44Z</time>
      </trkpt>
      <trkpt lat="48.1364" lon="-3.83319">
        <ele>227.9</ele>
        <time>2020-06-08T09:27:45Z</time>
      </trkpt>
      <trkpt lat="48.13642" lon="-3.8332">
        <ele>228</ele>
        <time>2020-06-08T09:27:46Z</time>
      </trkpt>
      <trkpt lat="48.13646" lon="-3.8332">
        <ele>228.2</ele>
        <time>2020-06-08T09:27:47Z</time>
      </trkpt>
      <trkpt lat="48.13649" lon="-3.83321">
        <ele>228.4</ele>
        <time>2020-06-08T09:27:48Z</time>
      </trkpt>
      <trkpt lat="48.13652" lon="-3.83323">
        <ele>228.6</ele>
        <time>2020-06-08T09:27:49Z</time>
      </trkpt>
      <trkpt lat="48.13656" lon="-3.83324">
        <ele>228.8</ele>
        <time>2020-06-08T09:27:50Z</time>
      </trkpt>
      <trkpt lat="48.13659" lon="-3.83325">
        <ele>229.2</ele>
        <time>2020-06-08T09:27:51Z</time>
      </trkpt>
      <trkpt lat="48.13662" lon="-3.83326">
        <ele>229.6</ele>
        <time>2020-06-08T09:27:52Z</time>
      </trkpt>
      <trkpt lat="48.13666" lon="-3.83327">
        <ele>230.1</ele>
        <time>2020-06-08T09:27:53Z</time>
      </trkpt>
      <trkpt lat="48.13668" lon="-3.83327">
        <ele>230.2</ele>
        <time>2020-06-08T09:27:54Z</time>
      </trkpt>
      <trkpt lat="48.13671" lon="-3.83329">
        <ele>230.6</ele>
        <time>2020-06-08T09:27:55Z</time>
      </trkpt>
      <trkpt lat="48.13673" lon="-3.8333">
        <ele>230.8</ele>
        <time>2020-06-08T09:27:56Z</time>
      </trkpt>
      <trkpt lat="48.13677" lon="-3.83332">
        <ele>231.1</ele>
        <time>2020-06-08T09:27:57Z</time>
      </trkpt>
      <trkpt lat="48.1368" lon="-3.83333">
        <ele>231.3</ele>
        <time>2020-06-08T09:27:58Z</time>
      </trkpt>
      <trkpt lat="48.13683" lon="-3.83335">
        <ele>231.5</ele>
        <time>2020-06-08T09:27:59Z</time>
      </trkpt>
      <trkpt lat="48.13686" lon="-3.83336">
        <ele>231.7</ele>
        <time>2020-06-08T09:28:00Z</time>
      </trkpt>
      <trkpt lat="48.13689" lon="-3.83337">
        <ele>231.8</ele>
        <time>2020-06-08T09:28:01Z</time>
      </trkpt>
      <trkpt lat="48.13695" lon="-3.83338">
        <ele>232.1</ele>
        <time>2020-06-08T09:28:02Z</time>
      </trkpt>
      <trkpt lat="48.13699" lon="-3.83339">
        <ele>232.3</ele>
        <time>2020-06-08T09:28:03Z</time>
      </trkpt>
      <trkpt lat="48.13703" lon="-3.83341">
        <ele>232.4</ele>
        <time>2020-06-08T09:28:04Z</time>
      </trkpt>
      <trkpt lat="48.13707" lon="-3.83342">
        <ele>232.6</ele>
        <time>2020-06-08T09:28:05Z</time>
      </trkpt>
      <trkpt lat="48.1371" lon="-3.83344">
        <ele>232.7</ele>
        <time>2020-06-08T09:28:06Z</time>
      </trkpt>
      <trkpt lat="48.13714" lon="-3.83345">
        <ele>232.9</ele>
        <time>2020-06-08T09:28:07Z</time>
      </trkpt>
      <trkpt lat="48.13717" lon="-3.83347">
        <ele>233.1</ele>
        <time>2020-06-08T09:28:08Z</time>
      </trkpt>
      <trkpt lat="48.13721" lon="-3.8335">
        <ele>233.3</ele>
        <time>2020-06-08T09:28:09Z</time>
      </trkpt>
      <trkpt lat="48.13722" lon="-3.8335">
        <ele>233.3</ele>
        <time>2020-06-08T09:28:10Z</time>
      </trkpt>
      <trkpt lat="48.13724" lon="-3.83352">
        <ele>233.5</ele>
        <time>2020-06-08T09:28:11Z</time>
      </trkpt>
      <trkpt lat="48.13727" lon="-3.83354">
        <ele>233.6</ele>
        <time>2020-06-08T09:28:12Z</time>
      </trkpt>
      <trkpt lat="48.1373" lon="-3.83356">
        <ele>233.8</ele>
        <time>2020-06-08T09:28:13Z</time>
      </trkpt>
      <trkpt lat="48.13733" lon="-3.83358">
        <ele>234</ele>
        <time>2020-06-08T09:28:14Z</time>
      </trkpt>
      <trkpt lat="48.13736" lon="-3.83361">
        <ele>234.1</ele>
        <time>2020-06-08T09:28:15Z</time>
      </trkpt>
      <trkpt lat="48.13739" lon="-3.83362">
        <ele>234.2</ele>
        <time>2020-06-08T09:28:16Z</time>
      </trkpt>
      <trkpt lat="48.1374" lon="-3.83362">
        <ele>234.3</ele>
        <time>2020-06-08T09:28:17Z</time>
      </trkpt>
      <trkpt lat="48.13742" lon="-3.83364">
        <ele>234.4</ele>
        <time>2020-06-08T09:28:18Z</time>
      </trkpt>
      <trkpt lat="48.13743" lon="-3.83365">
        <ele>234.4</ele>
        <time>2020-06-08T09:28:19Z</time>
      </trkpt>
      <trkpt lat="48.13746" lon="-3.83367">
        <ele>234.5</ele>
        <time>2020-06-08T09:28:20Z</time>
      </trkpt>
      <trkpt lat="48.13749" lon="-3.83369">
        <ele>234.6</ele>
        <time>2020-06-08T09:28:21Z</time>
      </trkpt>
      <trkpt lat="48.13752" lon="-3.83372">
        <ele>234.7</ele>
        <time>2020-06-08T09:28:22Z</time>
      </trkpt>
      <trkpt lat="48.13757" lon="-3.83371">
        <ele>234.9</ele>
        <time>2020-06-08T09:28:23Z</time>
      </trkpt>
      <trkpt lat="48.1376" lon="-3.83371">
        <ele>235</ele>
        <time>2020-06-08T09:28:24Z</time>
      </trkpt>
      <trkpt lat="48.13764" lon="-3.83373">
        <ele>235.1</ele>
        <time>2020-06-08T09:28:25Z</time>
      </trkpt>
      <trkpt lat="48.13765" lon="-3.83373">
        <ele>235.1</ele>
        <time>2020-06-08T09:28:26Z</time>
      </trkpt>
      <trkpt lat="48.13768" lon="-3.83375">
        <ele>235.2</ele>
        <time>2020-06-08T09:28:27Z</time>
      </trkpt>
      <trkpt lat="48.1377" lon="-3.83377">
        <ele>235.3</ele>
        <time>2020-06-08T09:28:28Z</time>
      </trkpt>
      <trkpt lat="48.13773" lon="-3.83379">
        <ele>235.4</ele>
        <time>2020-06-08T09:28:29Z</time>
      </trkpt>
      <trkpt lat="48.13776" lon="-3.83382">
        <ele>235.4</ele>
        <time>2020-06-08T09:28:30Z</time>
      </trkpt>
      <trkpt lat="48.13777" lon="-3.83383">
        <ele>235.5</ele>
        <time>2020-06-08T09:28:31Z</time>
      </trkpt>
      <trkpt lat="48.1378" lon="-3.83386">
        <ele>235.5</ele>
        <time>2020-06-08T09:28:32Z</time>
      </trkpt>
      <trkpt lat="48.13782" lon="-3.83391">
        <ele>235.5</ele>
        <time>2020-06-08T09:28:33Z</time>
      </trkpt>
      <trkpt lat="48.13783" lon="-3.83393">
        <ele>235.6</ele>
        <time>2020-06-08T09:28:34Z</time>
      </trkpt>
      <trkpt lat="48.13785" lon="-3.83396">
        <ele>235.6</ele>
        <time>2020-06-08T09:28:35Z</time>
      </trkpt>
      <trkpt lat="48.13788" lon="-3.83399">
        <ele>235.5</ele>
        <time>2020-06-08T09:28:36Z</time>
      </trkpt>
      <trkpt lat="48.13789" lon="-3.83401">
        <ele>235.5</ele>
        <time>2020-06-08T09:28:37Z</time>
      </trkpt>
      <trkpt lat="48.13792" lon="-3.83402">
        <ele>235.5</ele>
        <time>2020-06-08T09:28:38Z</time>
      </trkpt>
      <trkpt lat="48.13794" lon="-3.83405">
        <ele>235.4</ele>
        <time>2020-06-08T09:28:39Z</time>
      </trkpt>
      <trkpt lat="48.13797" lon="-3.83406">
        <ele>235.4</ele>
        <time>2020-06-08T09:28:40Z</time>
      </trkpt>
      <trkpt lat="48.13799" lon="-3.83407">
        <ele>235.3</ele>
        <time>2020-06-08T09:28:41Z</time>
      </trkpt>
      <trkpt lat="48.13802" lon="-3.83409">
        <ele>235.2</ele>
        <time>2020-06-08T09:28:42Z</time>
      </trkpt>
      <trkpt lat="48.13805" lon="-3.83407">
        <ele>235</ele>
        <time>2020-06-08T09:28:43Z</time>
      </trkpt>
      <trkpt lat="48.13808" lon="-3.83404">
        <ele>234.8</ele>
        <time>2020-06-08T09:28:44Z</time>
      </trkpt>
      <trkpt lat="48.13808" lon="-3.83403">
        <ele>234.8</ele>
        <time>2020-06-08T09:28:45Z</time>
      </trkpt>
      <trkpt lat="48.13809" lon="-3.83401">
        <ele>234.7</ele>
        <time>2020-06-08T09:28:46Z</time>
      </trkpt>
      <trkpt lat="48.1381" lon="-3.83402">
        <ele>234.6</ele>
        <time>2020-06-08T09:28:47Z</time>
      </trkpt>
      <trkpt lat="48.13811" lon="-3.83402">
        <ele>234.6</ele>
        <time>2020-06-08T09:28:48Z</time>
      </trkpt>
      <trkpt lat="48.13812" lon="-3.83402">
        <ele>234.6</ele>
        <time>2020-06-08T09:28:49Z</time>
      </trkpt>
      <trkpt lat="48.13812" lon="-3.83402">
        <ele>234.5</ele>
        <time>2020-06-08T09:28:50Z</time>
      </trkpt>
      <trkpt lat="48.13812" lon="-3.83403">
        <ele>234.5</ele>
        <time>2020-06-08T09:28:51Z</time>
      </trkpt>
      <trkpt lat="48.13813" lon="-3.83403">
        <ele>234.5</ele>
        <time>2020-06-08T09:28:52Z</time>
      </trkpt>
      <trkpt lat="48.13813" lon="-3.83404">
        <ele>234.4</ele>
        <time>2020-06-08T09:28:53Z</time>
      </trkpt>
      <trkpt lat="48.13814" lon="-3.83404">
        <ele>234.4</ele>
        <time>2020-06-08T09:28:54Z</time>
      </trkpt>
      <trkpt lat="48.13814" lon="-3.83405">
        <ele>233.3</ele>
        <time>2020-06-08T09:28:55Z</time>
      </trkpt>
      <trkpt lat="48.13815" lon="-3.83405">
        <ele>233.3</ele>
        <time>2020-06-08T09:28:56Z</time>
      </trkpt>
      <trkpt lat="48.13815" lon="-3.83406">
        <ele>233.2</ele>
        <time>2020-06-08T09:28:57Z</time>
      </trkpt>
      <trkpt lat="48.13815" lon="-3.83406">
        <ele>233.2</ele>
        <time>2020-06-08T09:28:58Z</time>
      </trkpt>
      <trkpt lat="48.13816" lon="-3.83407">
        <ele>233.2</ele>
        <time>2020-06-08T09:28:59Z</time>
      </trkpt>
      <trkpt lat="48.13816" lon="-3.83407">
        <ele>233.1</ele>
        <time>2020-06-08T09:29:00Z</time>
      </trkpt>
      <trkpt lat="48.13817" lon="-3.83408">
        <ele>233.1</ele>
        <time>2020-06-08T09:29:10Z</time>
      </trkpt>
      <trkpt lat="48.13817" lon="-3.83408">
        <ele>233.1</ele>
        <time>2020-06-08T09:29:11Z</time>
      </trkpt>
      <trkpt lat="48.13818" lon="-3.83412">
        <ele>232.9</ele>
        <time>2020-06-08T09:29:12Z</time>
      </trkpt>
      <trkpt lat="48.13819" lon="-3.83418">
        <ele>232.7</ele>
        <time>2020-06-08T09:29:13Z</time>
      </trkpt>
      <trkpt lat="48.1382" lon="-3.83423">
        <ele>232.5</ele>
        <time>2020-06-08T09:29:14Z</time>
      </trkpt>
      <trkpt lat="48.13821" lon="-3.83428">
        <ele>232.5</ele>
        <time>2020-06-08T09:29:15Z</time>
      </trkpt>
      <trkpt lat="48.13822" lon="-3.83432">
        <ele>232.5</ele>
        <time>2020-06-08T09:29:16Z</time>
      </trkpt>
      <trkpt lat="48.13823" lon="-3.83437">
        <ele>232.5</ele>
        <time>2020-06-08T09:29:17Z</time>
      </trkpt>
      <trkpt lat="48.13824" lon="-3.83442">
        <ele>232.4</ele>
        <time>2020-06-08T09:29:18Z</time>
      </trkpt>
      <trkpt lat="48.13825" lon="-3.83447">
        <ele>232.4</ele>
        <time>2020-06-08T09:29:19Z</time>
      </trkpt>
      <trkpt lat="48.13827" lon="-3.83452">
        <ele>232.4</ele>
        <time>2020-06-08T09:29:20Z</time>
      </trkpt>
      <trkpt lat="48.13828" lon="-3.83457">
        <ele>232.3</ele>
        <time>2020-06-08T09:29:21Z</time>
      </trkpt>
      <trkpt lat="48.1383" lon="-3.83461">
        <ele>232.2</ele>
        <time>2020-06-08T09:29:22Z</time>
      </trkpt>
      <trkpt lat="48.13831" lon="-3.83465">
        <ele>232</ele>
        <time>2020-06-08T09:29:23Z</time>
      </trkpt>
      <trkpt lat="48.13832" lon="-3.83469">
        <ele>231.9</ele>
        <time>2020-06-08T09:29:24Z</time>
      </trkpt>
      <trkpt lat="48.13833" lon="-3.83474">
        <ele>231.8</ele>
        <time>2020-06-08T09:29:25Z</time>
      </trkpt>
      <trkpt lat="48.13833" lon="-3.83481">
        <ele>231.5</ele>
        <time>2020-06-08T09:29:26Z</time>
      </trkpt>
      <trkpt lat="48.13831" lon="-3.83485">
        <ele>231.4</ele>
        <time>2020-06-08T09:29:27Z</time>
      </trkpt>
      <trkpt lat="48.1383" lon="-3.8349">
        <ele>231.2</ele>
        <time>2020-06-08T09:29:28Z</time>
      </trkpt>
      <trkpt lat="48.13829" lon="-3.83495">
        <ele>231</ele>
        <time>2020-06-08T09:29:29Z</time>
      </trkpt>
      <trkpt lat="48.13829" lon="-3.83496">
        <ele>231</ele>
        <time>2020-06-08T09:29:30Z</time>
      </trkpt>
      <trkpt lat="48.13829" lon="-3.83499">
        <ele>230.9</ele>
        <time>2020-06-08T09:29:31Z</time>
      </trkpt>
      <trkpt lat="48.13828" lon="-3.83502">
        <ele>230.8</ele>
        <time>2020-06-08T09:29:32Z</time>
      </trkpt>
      <trkpt lat="48.13828" lon="-3.83504">
        <ele>230.7</ele>
        <time>2020-06-08T09:29:33Z</time>
      </trkpt>
      <trkpt lat="48.13829" lon="-3.83507">
        <ele>230.6</ele>
        <time>2020-06-08T09:29:34Z</time>
      </trkpt>
      <trkpt lat="48.13829" lon="-3.83509">
        <ele>230.5</ele>
        <time>2020-06-08T09:29:35Z</time>
      </trkpt>
      <trkpt lat="48.1383" lon="-3.83511">
        <ele>230.4</ele>
        <time>2020-06-08T09:29:36Z</time>
      </trkpt>
      <trkpt lat="48.13831" lon="-3.83512">
        <ele>230.3</ele>
        <time>2020-06-08T09:29:37Z</time>
      </trkpt>
      <trkpt lat="48.13833" lon="-3.83513">
        <ele>230.2</ele>
        <time>2020-06-08T09:29:38Z</time>
      </trkpt>
      <trkpt lat="48.13834" lon="-3.83514">
        <ele>230.1</ele>
        <time>2020-06-08T09:29:39Z</time>
      </trkpt>
      <trkpt lat="48.13835" lon="-3.83515">
        <ele>230.1</ele>
        <time>2020-06-08T09:29:40Z</time>
      </trkpt>
      <trkpt lat="48.13836" lon="-3.83514">
        <ele>230</ele>
        <time>2020-06-08T09:29:41Z</time>
      </trkpt>
      <trkpt lat="48.13837" lon="-3.83516">
        <ele>229.9</ele>
        <time>2020-06-08T09:29:42Z</time>
      </trkpt>
      <trkpt lat="48.13838" lon="-3.83517">
        <ele>229.9</ele>
        <time>2020-06-08T09:29:43Z</time>
      </trkpt>
      <trkpt lat="48.13838" lon="-3.83517">
        <ele>229.9</ele>
        <time>2020-06-08T09:29:44Z</time>
      </trkpt>
      <trkpt lat="48.13838" lon="-3.83517">
        <ele>229.9</ele>
        <time>2020-06-08T09:29:45Z</time>
      </trkpt>
      <trkpt lat="48.13838" lon="-3.83517">
        <ele>229.8</ele>
        <time>2020-06-08T09:29:46Z</time>
      </trkpt>
      <trkpt lat="48.13839" lon="-3.83516">
        <ele>229.7</ele>
        <time>2020-06-08T09:29:47Z</time>
      </trkpt>
      <trkpt lat="48.13839" lon="-3.83516">
        <ele>229.7</ele>
        <time>2020-06-08T09:29:48Z</time>
      </trkpt>
      <trkpt lat="48.13839" lon="-3.83516">
        <ele>229.7</ele>
        <time>2020-06-08T09:29:49Z</time>
      </trkpt>
      <trkpt lat="48.13839" lon="-3.83516">
        <ele>229.7</ele>
        <time>2020-06-08T09:29:50Z</time>
      </trkpt>
      <trkpt lat="48.1384" lon="-3.83516">
        <ele>229.7</ele>
        <time>2020-06-08T09:29:51Z</time>
      </trkpt>
      <trkpt lat="48.1384" lon="-3.83516">
        <ele>229.7</ele>
        <time>2020-06-08T09:29:52Z</time>
      </trkpt>
      <trkpt lat="48.1384" lon="-3.83516">
        <ele>229.7</ele>
        <time>2020-06-08T09:29:53Z</time>
      </trkpt>
      <trkpt lat="48.13854" lon="-3.83515">
        <ele>228.9</ele>
        <time>2020-06-08T09:46:19Z</time>
      </trkpt>
      <trkpt lat="48.13854" lon="-3.83515">
        <ele>228.8</ele>
        <time>2020-06-08T09:46:20Z</time>
      </trkpt>
      <trkpt lat="48.13854" lon="-3.83516">
        <ele>228.8</ele>
        <time>2020-06-08T09:46:21Z</time>
      </trkpt>
      <trkpt lat="48.13855" lon="-3.83516">
        <ele>228.8</ele>
        <time>2020-06-08T09:46:22Z</time>
      </trkpt>
      <trkpt lat="48.13855" lon="-3.83516">
        <ele>228.8</ele>
        <time>2020-06-08T09:46:23Z</time>
      </trkpt>
      <trkpt lat="48.13855" lon="-3.83516">
        <ele>228.8</ele>
        <time>2020-06-08T09:46:24Z</time>
      </trkpt>
      <trkpt lat="48.13855" lon="-3.83516">
        <ele>228.8</ele>
        <time>2020-06-08T09:46:25Z</time>
      </trkpt>
      <trkpt lat="48.13855" lon="-3.83516">
        <ele>228.8</ele>
        <time>2020-06-08T09:46:26Z</time>
      </trkpt>
      <trkpt lat="48.13855" lon="-3.83516">
        <ele>228.8</ele>
        <time>2020-06-08T09:46:27Z</time>
      </trkpt>
      <trkpt lat="48.13855" lon="-3.83516">
        <ele>228.8</ele>
        <time>2020-06-08T09:46:28Z</time>
      </trkpt>
      <trkpt lat="48.13855" lon="-3.83517">
        <ele>228.7</ele>
        <time>2020-06-08T09:46:29Z</time>
      </trkpt>
      <trkpt lat="48.1386" lon="-3.83521">
        <ele>228.3</ele>
        <time>2020-06-08T09:59:33Z</time>
      </trkpt>
      <trkpt lat="48.13861" lon="-3.83521">
        <ele>228.3</ele>
        <time>2020-06-08T09:59:34Z</time>
      </trkpt>
      <trkpt lat="48.13861" lon="-3.83519">
        <ele>228.4</ele>
        <time>2020-06-08T09:59:35Z</time>
      </trkpt>
      <trkpt lat="48.13861" lon="-3.83519">
        <ele>228.4</ele>
        <time>2020-06-08T09:59:36Z</time>
      </trkpt>
      <trkpt lat="48.13862" lon="-3.8352">
        <ele>228.4</ele>
        <time>2020-06-08T09:59:37Z</time>
      </trkpt>
      <trkpt lat="48.13862" lon="-3.83519">
        <ele>228.4</ele>
        <time>2020-06-08T09:59:38Z</time>
      </trkpt>
      <trkpt lat="48.13863" lon="-3.83519">
        <ele>228.4</ele>
        <time>2020-06-08T09:59:39Z</time>
      </trkpt>
      <trkpt lat="48.13862" lon="-3.83518">
        <ele>228.5</ele>
        <time>2020-06-08T09:59:40Z</time>
      </trkpt>
      <trkpt lat="48.13861" lon="-3.83517">
        <ele>228.5</ele>
        <time>2020-06-08T09:59:41Z</time>
      </trkpt>
      <trkpt lat="48.13859" lon="-3.83518">
        <ele>228.6</ele>
        <time>2020-06-08T09:59:42Z</time>
      </trkpt>
      <trkpt lat="48.13858" lon="-3.83518">
        <ele>228.6</ele>
        <time>2020-06-08T09:59:43Z</time>
      </trkpt>
      <trkpt lat="48.13858" lon="-3.8352">
        <ele>228.6</ele>
        <time>2020-06-08T09:59:44Z</time>
      </trkpt>
      <trkpt lat="48.13858" lon="-3.83519">
        <ele>228.7</ele>
        <time>2020-06-08T09:59:45Z</time>
      </trkpt>
      <trkpt lat="48.13858" lon="-3.83519">
        <ele>228.7</ele>
        <time>2020-06-08T09:59:46Z</time>
      </trkpt>
      <trkpt lat="48.13858" lon="-3.83518">
        <ele>228.7</ele>
        <time>2020-06-08T09:59:47Z</time>
      </trkpt>
      <trkpt lat="48.13858" lon="-3.83518">
        <ele>228.7</ele>
        <time>2020-06-08T09:59:48Z</time>
      </trkpt>
      <trkpt lat="48.13858" lon="-3.83517">
        <ele>228.7</ele>
        <time>2020-06-08T09:59:49Z</time>
      </trkpt>
      <trkpt lat="48.13858" lon="-3.83515">
        <ele>228.8</ele>
        <time>2020-06-08T09:59:50Z</time>
      </trkpt>
      <trkpt lat="48.13858" lon="-3.83515">
        <ele>228.8</ele>
        <time>2020-06-08T09:59:51Z</time>
      </trkpt>
      <trkpt lat="48.13858" lon="-3.83515">
        <ele>228.8</ele>
        <time>2020-06-08T09:59:52Z</time>
      </trkpt>
      <trkpt lat="48.13847" lon="-3.83517">
        <ele>229.2</ele>
        <time>2020-06-08T10:09:28Z</time>
      </trkpt>
      <trkpt lat="48.13848" lon="-3.83516">
        <ele>229.2</ele>
        <time>2020-06-08T10:09:29Z</time>
      </trkpt>
      <trkpt lat="48.13849" lon="-3.83516">
        <ele>229.2</ele>
        <time>2020-06-08T10:09:30Z</time>
      </trkpt>
      <trkpt lat="48.13849" lon="-3.83516">
        <ele>229.2</ele>
        <time>2020-06-08T10:09:31Z</time>
      </trkpt>
      <trkpt lat="48.13849" lon="-3.83516">
        <ele>229.3</ele>
        <time>2020-06-08T10:09:32Z</time>
      </trkpt>
      <trkpt lat="48.1385" lon="-3.83516">
        <ele>229.3</ele>
        <time>2020-06-08T10:09:33Z</time>
      </trkpt>
      <trkpt lat="48.1385" lon="-3.83515">
        <ele>229.3</ele>
        <time>2020-06-08T10:09:34Z</time>
      </trkpt>
      <trkpt lat="48.1385" lon="-3.83515">
        <ele>229.3</ele>
        <time>2020-06-08T10:09:35Z</time>
      </trkpt>
      <trkpt lat="48.1385" lon="-3.83515">
        <ele>229.3</ele>
        <time>2020-06-08T10:09:36Z</time>
      </trkpt>
      <trkpt lat="48.13849" lon="-3.83515">
        <ele>229.3</ele>
        <time>2020-06-08T10:09:37Z</time>
      </trkpt>
      <trkpt lat="48.13849" lon="-3.83515">
        <ele>229.3</ele>
        <time>2020-06-08T10:09:38Z</time>
      </trkpt>
      <trkpt lat="48.13849" lon="-3.83515">
        <ele>229.3</ele>
        <time>2020-06-08T10:09:39Z</time>
      </trkpt>
      <trkpt lat="48.13849" lon="-3.83515">
        <ele>229.4</ele>
        <time>2020-06-08T10:09:40Z</time>
      </trkpt>
      <trkpt lat="48.13849" lon="-3.83515">
        <ele>229.4</ele>
        <time>2020-06-08T10:09:41Z</time>
      </trkpt>
      <trkpt lat="48.13848" lon="-3.83514">
        <ele>229.4</ele>
        <time>2020-06-08T10:09:42Z</time>
      </trkpt>
      <trkpt lat="48.13847" lon="-3.83515">
        <ele>229.4</ele>
        <time>2020-06-08T10:09:43Z</time>
      </trkpt>
      <trkpt lat="48.13846" lon="-3.83515">
        <ele>229.5</ele>
        <time>2020-06-08T10:09:44Z</time>
      </trkpt>
      <trkpt lat="48.13845" lon="-3.83516">
        <ele>229.5</ele>
        <time>2020-06-08T10:09:45Z</time>
      </trkpt>
      <trkpt lat="48.13845" lon="-3.83515">
        <ele>229.5</ele>
        <time>2020-06-08T10:09:46Z</time>
      </trkpt>
      <trkpt lat="48.1385" lon="-3.83506">
        <ele>229.8</ele>
        <time>2020-06-08T10:10:01Z</time>
      </trkpt>
      <trkpt lat="48.13851" lon="-3.83505">
        <ele>229.8</ele>
        <time>2020-06-08T10:10:02Z</time>
      </trkpt>
      <trkpt lat="48.13851" lon="-3.83503">
        <ele>229.9</ele>
        <time>2020-06-08T10:10:03Z</time>
      </trkpt>
      <trkpt lat="48.13851" lon="-3.83501">
        <ele>229.9</ele>
        <time>2020-06-08T10:10:04Z</time>
      </trkpt>
      <trkpt lat="48.13851" lon="-3.83501">
        <ele>229.9</ele>
        <time>2020-06-08T10:10:05Z</time>
      </trkpt>
      <trkpt lat="48.13851" lon="-3.835">
        <ele>230</ele>
        <time>2020-06-08T10:10:06Z</time>
      </trkpt>
      <trkpt lat="48.13851" lon="-3.835">
        <ele>230</ele>
        <time>2020-06-08T10:10:07Z</time>
      </trkpt>
      <trkpt lat="48.13851" lon="-3.835">
        <ele>230</ele>
        <time>2020-06-08T10:10:08Z</time>
      </trkpt>
      <trkpt lat="48.13851" lon="-3.835">
        <ele>230</ele>
        <time>2020-06-08T10:10:09Z</time>
      </trkpt>
      <trkpt lat="48.1385" lon="-3.835">
        <ele>230</ele>
        <time>2020-06-08T10:10:10Z</time>
      </trkpt>
      <trkpt lat="48.1385" lon="-3.83501">
        <ele>230.1</ele>
        <time>2020-06-08T10:10:11Z</time>
      </trkpt>
      <trkpt lat="48.1385" lon="-3.83503">
        <ele>230.1</ele>
        <time>2020-06-08T10:10:12Z</time>
      </trkpt>
      <trkpt lat="48.13849" lon="-3.83505">
        <ele>230.2</ele>
        <time>2020-06-08T10:10:13Z</time>
      </trkpt>
      <trkpt lat="48.13849" lon="-3.83507">
        <ele>230.2</ele>
        <time>2020-06-08T10:10:14Z</time>
      </trkpt>
      <trkpt lat="48.13848" lon="-3.83508">
        <ele>230.2</ele>
        <time>2020-06-08T10:10:15Z</time>
      </trkpt>
      <trkpt lat="48.13848" lon="-3.83509">
        <ele>230.3</ele>
        <time>2020-06-08T10:10:16Z</time>
      </trkpt>
      <trkpt lat="48.13848" lon="-3.8351">
        <ele>230.3</ele>
        <time>2020-06-08T10:10:17Z</time>
      </trkpt>
      <trkpt lat="48.13848" lon="-3.83511">
        <ele>230.3</ele>
        <time>2020-06-08T10:10:18Z</time>
      </trkpt>
      <trkpt lat="48.13847" lon="-3.83512">
        <ele>230.3</ele>
        <time>2020-06-08T10:10:19Z</time>
      </trkpt>
      <trkpt lat="48.13847" lon="-3.83513">
        <ele>230.3</ele>
        <time>2020-06-08T10:10:20Z</time>
      </trkpt>
      <trkpt lat="48.13847" lon="-3.83513">
        <ele>230.3</ele>
        <time>2020-06-08T10:10:21Z</time>
      </trkpt>
      <trkpt lat="48.13847" lon="-3.83514">
        <ele>230.4</ele>
        <time>2020-06-08T10:10:22Z</time>
      </trkpt>
      <trkpt lat="48.13847" lon="-3.83514">
        <ele>230.4</ele>
        <time>2020-06-08T10:10:23Z</time>
      </trkpt>
      <trkpt lat="48.13847" lon="-3.83514">
        <ele>230.4</ele>
        <time>2020-06-08T10:10:24Z</time>
      </trkpt>
      <trkpt lat="48.13847" lon="-3.83514">
        <ele>230.4</ele>
        <time>2020-06-08T10:10:25Z</time>
      </trkpt>
      <trkpt lat="48.13847" lon="-3.83514">
        <ele>230.4</ele>
        <time>2020-06-08T10:10:26Z</time>
      </trkpt>
      <trkpt lat="48.13847" lon="-3.83514">
        <ele>230.4</ele>
        <time>2020-06-08T10:10:27Z</time>
      </trkpt>
      <trkpt lat="48.13847" lon="-3.83514">
        <ele>230.4</ele>
        <time>2020-06-08T10:10:28Z</time>
      </trkpt>
      <trkpt lat="48.13847" lon="-3.83514">
        <ele>230.4</ele>
        <time>2020-06-08T10:10:29Z</time>
      </trkpt>
      <trkpt lat="48.13846" lon="-3.83515">
        <ele>230.4</ele>
        <time>2020-06-08T10:10:30Z</time>
      </trkpt>
      <trkpt lat="48.13847" lon="-3.83514">
        <ele>230.4</ele>
        <time>2020-06-08T10:10:31Z</time>
      </trkpt>
      <trkpt lat="48.13846" lon="-3.83522">
        <ele>230.6</ele>
        <time>2020-06-08T10:10:47Z</time>
      </trkpt>
      <trkpt lat="48.13846" lon="-3.83523">
        <ele>230.6</ele>
        <time>2020-06-08T10:10:48Z</time>
      </trkpt>
      <trkpt lat="48.13846" lon="-3.83524">
        <ele>230.6</ele>
        <time>2020-06-08T10:10:49Z</time>
      </trkpt>
      <trkpt lat="48.13846" lon="-3.83524">
        <ele>230.6</ele>
        <time>2020-06-08T10:10:50Z</time>
      </trkpt>
      <trkpt lat="48.13846" lon="-3.83524">
        <ele>230.6</ele>
        <time>2020-06-08T10:10:51Z</time>
      </trkpt>
      <trkpt lat="48.13846" lon="-3.83524">
        <ele>230.6</ele>
        <time>2020-06-08T10:10:52Z</time>
      </trkpt>
      <trkpt lat="48.13846" lon="-3.83524">
        <ele>230.6</ele>
        <time>2020-06-08T10:10:53Z</time>
      </trkpt>
      <trkpt lat="48.13846" lon="-3.83524">
        <ele>230.6</ele>
        <time>2020-06-08T10:10:54Z</time>
      </trkpt>
      <trkpt lat="48.13846" lon="-3.83524">
        <ele>230.6</ele>
        <time>2020-06-08T10:10:55Z</time>
      </trkpt>
      <trkpt lat="48.13845" lon="-3.83525">
        <ele>230.7</ele>
        <time>2020-06-08T10:10:56Z</time>
      </trkpt>
      <trkpt lat="48.13845" lon="-3.83525">
        <ele>230.7</ele>
        <time>2020-06-08T10:10:57Z</time>
      </trkpt>
      <trkpt lat="48.13845" lon="-3.83525">
        <ele>230.7</ele>
        <time>2020-06-08T10:10:58Z</time>
      </trkpt>
      <trkpt lat="48.13845" lon="-3.83525">
        <ele>230.7</ele>
        <time>2020-06-08T10:10:59Z</time>
      </trkpt>
      <trkpt lat="48.13846" lon="-3.83524">
        <ele>230.7</ele>
        <time>2020-06-08T10:11:00Z</time>
      </trkpt>
      <trkpt lat="48.13846" lon="-3.83525">
        <ele>230.7</ele>
        <time>2020-06-08T10:11:01Z</time>
      </trkpt>
      <trkpt lat="48.1384" lon="-3.83516">
        <ele>231</ele>
        <time>2020-06-08T10:11:23Z</time>
      </trkpt>
      <trkpt lat="48.13839" lon="-3.83511">
        <ele>231.1</ele>
        <time>2020-06-08T10:11:24Z</time>
      </trkpt>
      <trkpt lat="48.13838" lon="-3.83506">
        <ele>231.2</ele>
        <time>2020-06-08T10:11:25Z</time>
      </trkpt>
      <trkpt lat="48.13838" lon="-3.83501">
        <ele>231.3</ele>
        <time>2020-06-08T10:11:26Z</time>
      </trkpt>
      <trkpt lat="48.13839" lon="-3.83496">
        <ele>231.4</ele>
        <time>2020-06-08T10:11:27Z</time>
      </trkpt>
      <trkpt lat="48.13839" lon="-3.8349">
        <ele>231.6</ele>
        <time>2020-06-08T10:11:28Z</time>
      </trkpt>
      <trkpt lat="48.13839" lon="-3.83482">
        <ele>231.7</ele>
        <time>2020-06-08T10:11:29Z</time>
      </trkpt>
      <trkpt lat="48.13838" lon="-3.83475">
        <ele>231.8</ele>
        <time>2020-06-08T10:11:30Z</time>
      </trkpt>
      <trkpt lat="48.13836" lon="-3.83468">
        <ele>232</ele>
        <time>2020-06-08T10:11:31Z</time>
      </trkpt>
      <trkpt lat="48.13834" lon="-3.83462">
        <ele>232.1</ele>
        <time>2020-06-08T10:11:32Z</time>
      </trkpt>
      <trkpt lat="48.13831" lon="-3.83459">
        <ele>232.2</ele>
        <time>2020-06-08T10:11:33Z</time>
      </trkpt>
      <trkpt lat="48.13827" lon="-3.83456">
        <ele>232.3</ele>
        <time>2020-06-08T10:11:34Z</time>
      </trkpt>
      <trkpt lat="48.13824" lon="-3.83455">
        <ele>232.3</ele>
        <time>2020-06-08T10:11:35Z</time>
      </trkpt>
      <trkpt lat="48.13821" lon="-3.83454">
        <ele>232.4</ele>
        <time>2020-06-08T10:11:36Z</time>
      </trkpt>
      <trkpt lat="48.13819" lon="-3.83453">
        <ele>232.5</ele>
        <time>2020-06-08T10:11:37Z</time>
      </trkpt>
      <trkpt lat="48.13816" lon="-3.83451">
        <ele>232.6</ele>
        <time>2020-06-08T10:11:38Z</time>
      </trkpt>
      <trkpt lat="48.13815" lon="-3.8345">
        <ele>232.6</ele>
        <time>2020-06-08T10:11:39Z</time>
      </trkpt>
      <trkpt lat="48.13814" lon="-3.83445">
        <ele>232.7</ele>
        <time>2020-06-08T10:11:40Z</time>
      </trkpt>
      <trkpt lat="48.13813" lon="-3.83444">
        <ele>232.7</ele>
        <time>2020-06-08T10:11:41Z</time>
      </trkpt>
      <trkpt lat="48.13812" lon="-3.83439">
        <ele>233</ele>
        <time>2020-06-08T10:11:42Z</time>
      </trkpt>
      <trkpt lat="48.13812" lon="-3.83437">
        <ele>233</ele>
        <time>2020-06-08T10:11:43Z</time>
      </trkpt>
      <trkpt lat="48.13811" lon="-3.83431">
        <ele>233.1</ele>
        <time>2020-06-08T10:11:44Z</time>
      </trkpt>
      <trkpt lat="48.1381" lon="-3.83429">
        <ele>233.2</ele>
        <time>2020-06-08T10:11:45Z</time>
      </trkpt>
      <trkpt lat="48.1381" lon="-3.83424">
        <ele>233.3</ele>
        <time>2020-06-08T10:11:46Z</time>
      </trkpt>
      <trkpt lat="48.1381" lon="-3.8342">
        <ele>233.4</ele>
        <time>2020-06-08T10:11:47Z</time>
      </trkpt>
      <trkpt lat="48.1381" lon="-3.83416">
        <ele>233.5</ele>
        <time>2020-06-08T10:11:48Z</time>
      </trkpt>
      <trkpt lat="48.1381" lon="-3.8341">
        <ele>233.7</ele>
        <time>2020-06-08T10:11:49Z</time>
      </trkpt>
      <trkpt lat="48.1381" lon="-3.83408">
        <ele>233.8</ele>
        <time>2020-06-08T10:11:50Z</time>
      </trkpt>
      <trkpt lat="48.13811" lon="-3.83403">
        <ele>234.1</ele>
        <time>2020-06-08T10:11:51Z</time>
      </trkpt>
      <trkpt lat="48.13811" lon="-3.83401">
        <ele>234.1</ele>
        <time>2020-06-08T10:11:52Z</time>
      </trkpt>
      <trkpt lat="48.13811" lon="-3.83396">
        <ele>234.4</ele>
        <time>2020-06-08T10:11:53Z</time>
      </trkpt>
      <trkpt lat="48.13812" lon="-3.83394">
        <ele>234.4</ele>
        <time>2020-06-08T10:11:54Z</time>
      </trkpt>
      <trkpt lat="48.13813" lon="-3.8339">
        <ele>234.1</ele>
        <time>2020-06-08T10:11:55Z</time>
      </trkpt>
      <trkpt lat="48.13814" lon="-3.83389">
        <ele>233.9</ele>
        <time>2020-06-08T10:11:56Z</time>
      </trkpt>
      <trkpt lat="48.13817" lon="-3.83386">
        <ele>233.6</ele>
        <time>2020-06-08T10:11:57Z</time>
      </trkpt>
      <trkpt lat="48.13817" lon="-3.83386">
        <ele>233.5</ele>
        <time>2020-06-08T10:11:58Z</time>
      </trkpt>
      <trkpt lat="48.13821" lon="-3.83386">
        <ele>233.8</ele>
        <time>2020-06-08T10:11:59Z</time>
      </trkpt>
      <trkpt lat="48.13823" lon="-3.83386">
        <ele>233.6</ele>
        <time>2020-06-08T10:12:00Z</time>
      </trkpt>
      <trkpt lat="48.13826" lon="-3.83384">
        <ele>233.2</ele>
        <time>2020-06-08T10:12:01Z</time>
      </trkpt>
      <trkpt lat="48.13829" lon="-3.83382">
        <ele>232.8</ele>
        <time>2020-06-08T10:12:02Z</time>
      </trkpt>
      <trkpt lat="48.13832" lon="-3.8338">
        <ele>232</ele>
        <time>2020-06-08T10:12:03Z</time>
      </trkpt>
      <trkpt lat="48.13835" lon="-3.83376">
        <ele>231.9</ele>
        <time>2020-06-08T10:12:04Z</time>
      </trkpt>
      <trkpt lat="48.13838" lon="-3.83372">
        <ele>231.7</ele>
        <time>2020-06-08T10:12:05Z</time>
      </trkpt>
      <trkpt lat="48.13842" lon="-3.83369">
        <ele>231.6</ele>
        <time>2020-06-08T10:12:06Z</time>
      </trkpt>
      <trkpt lat="48.13846" lon="-3.83363">
        <ele>231.3</ele>
        <time>2020-06-08T10:12:07Z</time>
      </trkpt>
      <trkpt lat="48.13849" lon="-3.83358">
        <ele>231.1</ele>
        <time>2020-06-08T10:12:08Z</time>
      </trkpt>
      <trkpt lat="48.13853" lon="-3.83352">
        <ele>230.9</ele>
        <time>2020-06-08T10:12:09Z</time>
      </trkpt>
      <trkpt lat="48.13857" lon="-3.83346">
        <ele>230.7</ele>
        <time>2020-06-08T10:12:10Z</time>
      </trkpt>
      <trkpt lat="48.13862" lon="-3.8334">
        <ele>230.4</ele>
        <time>2020-06-08T10:12:11Z</time>
      </trkpt>
      <trkpt lat="48.13865" lon="-3.83333">
        <ele>230.2</ele>
        <time>2020-06-08T10:12:12Z</time>
      </trkpt>
      <trkpt lat="48.13869" lon="-3.83326">
        <ele>230</ele>
        <time>2020-06-08T10:12:13Z</time>
      </trkpt>
      <trkpt lat="48.13873" lon="-3.83318">
        <ele>229.7</ele>
        <time>2020-06-08T10:12:14Z</time>
      </trkpt>
      <trkpt lat="48.13877" lon="-3.83313">
        <ele>229.5</ele>
        <time>2020-06-08T10:12:15Z</time>
      </trkpt>
      <trkpt lat="48.13881" lon="-3.83307">
        <ele>229.3</ele>
        <time>2020-06-08T10:12:16Z</time>
      </trkpt>
      <trkpt lat="48.13884" lon="-3.83301">
        <ele>229.1</ele>
        <time>2020-06-08T10:12:17Z</time>
      </trkpt>
      <trkpt lat="48.13888" lon="-3.83295">
        <ele>228.9</ele>
        <time>2020-06-08T10:12:18Z</time>
      </trkpt>
      <trkpt lat="48.13891" lon="-3.83288">
        <ele>228.7</ele>
        <time>2020-06-08T10:12:19Z</time>
      </trkpt>
      <trkpt lat="48.13894" lon="-3.83281">
        <ele>228.5</ele>
        <time>2020-06-08T10:12:20Z</time>
      </trkpt>
      <trkpt lat="48.13898" lon="-3.83274">
        <ele>228.3</ele>
        <time>2020-06-08T10:12:21Z</time>
      </trkpt>
      <trkpt lat="48.13901" lon="-3.83268">
        <ele>228.1</ele>
        <time>2020-06-08T10:12:22Z</time>
      </trkpt>
      <trkpt lat="48.13905" lon="-3.83262">
        <ele>227.9</ele>
        <time>2020-06-08T10:12:23Z</time>
      </trkpt>
      <trkpt lat="48.13909" lon="-3.83255">
        <ele>227.7</ele>
        <time>2020-06-08T10:12:24Z</time>
      </trkpt>
      <trkpt lat="48.13913" lon="-3.83249">
        <ele>227.5</ele>
        <time>2020-06-08T10:12:25Z</time>
      </trkpt>
      <trkpt lat="48.13916" lon="-3.83242">
        <ele>227.4</ele>
        <time>2020-06-08T10:12:26Z</time>
      </trkpt>
      <trkpt lat="48.1392" lon="-3.83236">
        <ele>227.3</ele>
        <time>2020-06-08T10:12:27Z</time>
      </trkpt>
      <trkpt lat="48.13923" lon="-3.83229">
        <ele>227.2</ele>
        <time>2020-06-08T10:12:28Z</time>
      </trkpt>
      <trkpt lat="48.13927" lon="-3.83222">
        <ele>227.2</ele>
        <time>2020-06-08T10:12:29Z</time>
      </trkpt>
      <trkpt lat="48.13932" lon="-3.83216">
        <ele>227.1</ele>
        <time>2020-06-08T10:12:30Z</time>
      </trkpt>
      <trkpt lat="48.13936" lon="-3.83209">
        <ele>226.6</ele>
        <time>2020-06-08T10:12:31Z</time>
      </trkpt>
      <trkpt lat="48.13941" lon="-3.83206">
        <ele>226.1</ele>
        <time>2020-06-08T10:12:32Z</time>
      </trkpt>
      <trkpt lat="48.13946" lon="-3.83205">
        <ele>225.5</ele>
        <time>2020-06-08T10:12:33Z</time>
      </trkpt>
      <trkpt lat="48.13953" lon="-3.83208">
        <ele>224.7</ele>
        <time>2020-06-08T10:12:34Z</time>
      </trkpt>
      <trkpt lat="48.13961" lon="-3.8321">
        <ele>223.9</ele>
        <time>2020-06-08T10:12:35Z</time>
      </trkpt>
      <trkpt lat="48.13971" lon="-3.8321">
        <ele>223</ele>
        <time>2020-06-08T10:12:36Z</time>
      </trkpt>
      <trkpt lat="48.13981" lon="-3.8321">
        <ele>222.3</ele>
        <time>2020-06-08T10:12:37Z</time>
      </trkpt>
      <trkpt lat="48.13992" lon="-3.83212">
        <ele>221.5</ele>
        <time>2020-06-08T10:12:38Z</time>
      </trkpt>
      <trkpt lat="48.14003" lon="-3.83213">
        <ele>220.7</ele>
        <time>2020-06-08T10:12:39Z</time>
      </trkpt>
      <trkpt lat="48.14014" lon="-3.83213">
        <ele>219.9</ele>
        <time>2020-06-08T10:12:40Z</time>
      </trkpt>
      <trkpt lat="48.14024" lon="-3.83213">
        <ele>219.2</ele>
        <time>2020-06-08T10:12:41Z</time>
      </trkpt>
      <trkpt lat="48.14035" lon="-3.83212">
        <ele>218.5</ele>
        <time>2020-06-08T10:12:42Z</time>
      </trkpt>
      <trkpt lat="48.14045" lon="-3.83211">
        <ele>217.7</ele>
        <time>2020-06-08T10:12:43Z</time>
      </trkpt>
      <trkpt lat="48.14056" lon="-3.8321">
        <ele>216.9</ele>
        <time>2020-06-08T10:12:44Z</time>
      </trkpt>
      <trkpt lat="48.14067" lon="-3.83211">
        <ele>216.2</ele>
        <time>2020-06-08T10:12:45Z</time>
      </trkpt>
      <trkpt lat="48.14078" lon="-3.83212">
        <ele>215.5</ele>
        <time>2020-06-08T10:12:46Z</time>
      </trkpt>
      <trkpt lat="48.14089" lon="-3.83212">
        <ele>214.9</ele>
        <time>2020-06-08T10:12:47Z</time>
      </trkpt>
      <trkpt lat="48.14101" lon="-3.83212">
        <ele>214.2</ele>
        <time>2020-06-08T10:12:48Z</time>
      </trkpt>
      <trkpt lat="48.14112" lon="-3.83212">
        <ele>213.6</ele>
        <time>2020-06-08T10:12:49Z</time>
      </trkpt>
      <trkpt lat="48.14124" lon="-3.83213">
        <ele>213.1</ele>
        <time>2020-06-08T10:12:50Z</time>
      </trkpt>
      <trkpt lat="48.14135" lon="-3.83213">
        <ele>212.5</ele>
        <time>2020-06-08T10:12:51Z</time>
      </trkpt>
      <trkpt lat="48.14147" lon="-3.83215">
        <ele>211.9</ele>
        <time>2020-06-08T10:12:52Z</time>
      </trkpt>
      <trkpt lat="48.14158" lon="-3.83216">
        <ele>211.3</ele>
        <time>2020-06-08T10:12:53Z</time>
      </trkpt>
      <trkpt lat="48.14169" lon="-3.83218">
        <ele>210.6</ele>
        <time>2020-06-08T10:12:54Z</time>
      </trkpt>
      <trkpt lat="48.14181" lon="-3.83221">
        <ele>209.8</ele>
        <time>2020-06-08T10:12:55Z</time>
      </trkpt>
      <trkpt lat="48.14192" lon="-3.83225">
        <ele>209.1</ele>
        <time>2020-06-08T10:12:56Z</time>
      </trkpt>
      <trkpt lat="48.14203" lon="-3.83228">
        <ele>208.4</ele>
        <time>2020-06-08T10:12:57Z</time>
      </trkpt>
      <trkpt lat="48.14215" lon="-3.83232">
        <ele>207.7</ele>
        <time>2020-06-08T10:12:58Z</time>
      </trkpt>
      <trkpt lat="48.14227" lon="-3.83235">
        <ele>207</ele>
        <time>2020-06-08T10:12:59Z</time>
      </trkpt>
      <trkpt lat="48.14238" lon="-3.83239">
        <ele>206.3</ele>
        <time>2020-06-08T10:13:00Z</time>
      </trkpt>
      <trkpt lat="48.1425" lon="-3.83242">
        <ele>205.6</ele>
        <time>2020-06-08T10:13:01Z</time>
      </trkpt>
      <trkpt lat="48.14262" lon="-3.83246">
        <ele>204.8</ele>
        <time>2020-06-08T10:13:02Z</time>
      </trkpt>
      <trkpt lat="48.14274" lon="-3.83249">
        <ele>204</ele>
        <time>2020-06-08T10:13:03Z</time>
      </trkpt>
      <trkpt lat="48.14286" lon="-3.83252">
        <ele>203.2</ele>
        <time>2020-06-08T10:13:04Z</time>
      </trkpt>
      <trkpt lat="48.14298" lon="-3.83253">
        <ele>202.3</ele>
        <time>2020-06-08T10:13:05Z</time>
      </trkpt>
      <trkpt lat="48.1431" lon="-3.83256">
        <ele>201.6</ele>
        <time>2020-06-08T10:13:06Z</time>
      </trkpt>
      <trkpt lat="48.14323" lon="-3.83259">
        <ele>201.1</ele>
        <time>2020-06-08T10:13:07Z</time>
      </trkpt>
      <trkpt lat="48.14335" lon="-3.83262">
        <ele>200.7</ele>
        <time>2020-06-08T10:13:08Z</time>
      </trkpt>
      <trkpt lat="48.14347" lon="-3.83265">
        <ele>200.3</ele>
        <time>2020-06-08T10:13:09Z</time>
      </trkpt>
      <trkpt lat="48.14359" lon="-3.83268">
        <ele>200</ele>
        <time>2020-06-08T10:13:10Z</time>
      </trkpt>
      <trkpt lat="48.1437" lon="-3.83271">
        <ele>199.8</ele>
        <time>2020-06-08T10:13:11Z</time>
      </trkpt>
      <trkpt lat="48.14381" lon="-3.83273">
        <ele>199.9</ele>
        <time>2020-06-08T10:13:12Z</time>
      </trkpt>
      <trkpt lat="48.14392" lon="-3.83274">
        <ele>200</ele>
        <time>2020-06-08T10:13:13Z</time>
      </trkpt>
      <trkpt lat="48.14403" lon="-3.83274">
        <ele>200.1</ele>
        <time>2020-06-08T10:13:14Z</time>
      </trkpt>
      <trkpt lat="48.14412" lon="-3.83275">
        <ele>200.3</ele>
        <time>2020-06-08T10:13:15Z</time>
      </trkpt>
      <trkpt lat="48.14422" lon="-3.83276">
        <ele>200.4</ele>
        <time>2020-06-08T10:13:16Z</time>
      </trkpt>
      <trkpt lat="48.14431" lon="-3.83277">
        <ele>200.5</ele>
        <time>2020-06-08T10:13:17Z</time>
      </trkpt>
      <trkpt lat="48.14439" lon="-3.83277">
        <ele>200.6</ele>
        <time>2020-06-08T10:13:18Z</time>
      </trkpt>
      <trkpt lat="48.14447" lon="-3.83276">
        <ele>200.6</ele>
        <time>2020-06-08T10:13:19Z</time>
      </trkpt>
      <trkpt lat="48.14455" lon="-3.83276">
        <ele>200.7</ele>
        <time>2020-06-08T10:13:20Z</time>
      </trkpt>
      <trkpt lat="48.14462" lon="-3.83276">
        <ele>200.7</ele>
        <time>2020-06-08T10:13:21Z</time>
      </trkpt>
      <trkpt lat="48.14469" lon="-3.83277">
        <ele>200.8</ele>
        <time>2020-06-08T10:13:22Z</time>
      </trkpt>
      <trkpt lat="48.14477" lon="-3.83277">
        <ele>200.8</ele>
        <time>2020-06-08T10:13:23Z</time>
      </trkpt>
      <trkpt lat="48.14484" lon="-3.83278">
        <ele>200.9</ele>
        <time>2020-06-08T10:13:24Z</time>
      </trkpt>
      <trkpt lat="48.14491" lon="-3.83278">
        <ele>201.1</ele>
        <time>2020-06-08T10:13:25Z</time>
      </trkpt>
      <trkpt lat="48.14497" lon="-3.83278">
        <ele>201.2</ele>
        <time>2020-06-08T10:13:26Z</time>
      </trkpt>
      <trkpt lat="48.14504" lon="-3.83278">
        <ele>201.6</ele>
        <time>2020-06-08T10:13:27Z</time>
      </trkpt>
      <trkpt lat="48.1451" lon="-3.83278">
        <ele>201.8</ele>
        <time>2020-06-08T10:13:28Z</time>
      </trkpt>
      <trkpt lat="48.14517" lon="-3.83278">
        <ele>201.9</ele>
        <time>2020-06-08T10:13:29Z</time>
      </trkpt>
      <trkpt lat="48.14523" lon="-3.83278">
        <ele>202</ele>
        <time>2020-06-08T10:13:30Z</time>
      </trkpt>
      <trkpt lat="48.14529" lon="-3.83276">
        <ele>202.1</ele>
        <time>2020-06-08T10:13:31Z</time>
      </trkpt>
      <trkpt lat="48.14535" lon="-3.83276">
        <ele>202.1</ele>
        <time>2020-06-08T10:13:32Z</time>
      </trkpt>
      <trkpt lat="48.1454" lon="-3.83277">
        <ele>202.2</ele>
        <time>2020-06-08T10:13:33Z</time>
      </trkpt>
      <trkpt lat="48.14546" lon="-3.83277">
        <ele>202.3</ele>
        <time>2020-06-08T10:13:34Z</time>
      </trkpt>
      <trkpt lat="48.14551" lon="-3.83279">
        <ele>202.4</ele>
        <time>2020-06-08T10:13:35Z</time>
      </trkpt>
      <trkpt lat="48.14556" lon="-3.8328">
        <ele>202.5</ele>
        <time>2020-06-08T10:13:36Z</time>
      </trkpt>
      <trkpt lat="48.14562" lon="-3.83281">
        <ele>202.7</ele>
        <time>2020-06-08T10:13:37Z</time>
      </trkpt>
      <trkpt lat="48.14567" lon="-3.83281">
        <ele>202.9</ele>
        <time>2020-06-08T10:13:38Z</time>
      </trkpt>
      <trkpt lat="48.14573" lon="-3.83282">
        <ele>203</ele>
        <time>2020-06-08T10:13:39Z</time>
      </trkpt>
      <trkpt lat="48.14578" lon="-3.83283">
        <ele>203.2</ele>
        <time>2020-06-08T10:13:40Z</time>
      </trkpt>
      <trkpt lat="48.14583" lon="-3.83283">
        <ele>203.4</ele>
        <time>2020-06-08T10:13:41Z</time>
      </trkpt>
      <trkpt lat="48.14588" lon="-3.83284">
        <ele>203.6</ele>
        <time>2020-06-08T10:13:42Z</time>
      </trkpt>
      <trkpt lat="48.14592" lon="-3.83284">
        <ele>203.7</ele>
        <time>2020-06-08T10:13:43Z</time>
      </trkpt>
      <trkpt lat="48.14597" lon="-3.83284">
        <ele>203.9</ele>
        <time>2020-06-08T10:13:44Z</time>
      </trkpt>
      <trkpt lat="48.14601" lon="-3.83284">
        <ele>204.1</ele>
        <time>2020-06-08T10:13:45Z</time>
      </trkpt>
      <trkpt lat="48.14605" lon="-3.83284">
        <ele>204.2</ele>
        <time>2020-06-08T10:13:46Z</time>
      </trkpt>
      <trkpt lat="48.14609" lon="-3.83284">
        <ele>204.4</ele>
        <time>2020-06-08T10:13:47Z</time>
      </trkpt>
      <trkpt lat="48.14613" lon="-3.83283">
        <ele>204.6</ele>
        <time>2020-06-08T10:13:48Z</time>
      </trkpt>
      <trkpt lat="48.14617" lon="-3.83284">
        <ele>204.7</ele>
        <time>2020-06-08T10:13:49Z</time>
      </trkpt>
      <trkpt lat="48.14621" lon="-3.83284">
        <ele>204.9</ele>
        <time>2020-06-08T10:13:50Z</time>
      </trkpt>
      <trkpt lat="48.14625" lon="-3.83285">
        <ele>205.1</ele>
        <time>2020-06-08T10:13:51Z</time>
      </trkpt>
      <trkpt lat="48.14629" lon="-3.83286">
        <ele>205.2</ele>
        <time>2020-06-08T10:13:52Z</time>
      </trkpt>
      <trkpt lat="48.14633" lon="-3.83284">
        <ele>205.4</ele>
        <time>2020-06-08T10:13:53Z</time>
      </trkpt>
      <trkpt lat="48.14636" lon="-3.83282">
        <ele>205.6</ele>
        <time>2020-06-08T10:13:54Z</time>
      </trkpt>
      <trkpt lat="48.1464" lon="-3.83282">
        <ele>205.8</ele>
        <time>2020-06-08T10:13:55Z</time>
      </trkpt>
      <trkpt lat="48.14644" lon="-3.83281">
        <ele>205.9</ele>
        <time>2020-06-08T10:13:56Z</time>
      </trkpt>
      <trkpt lat="48.14647" lon="-3.8328">
        <ele>206.1</ele>
        <time>2020-06-08T10:13:57Z</time>
      </trkpt>
      <trkpt lat="48.14651" lon="-3.8328">
        <ele>206.2</ele>
        <time>2020-06-08T10:13:58Z</time>
      </trkpt>
      <trkpt lat="48.14655" lon="-3.83279">
        <ele>206.4</ele>
        <time>2020-06-08T10:13:59Z</time>
      </trkpt>
      <trkpt lat="48.14658" lon="-3.83278">
        <ele>206.5</ele>
        <time>2020-06-08T10:14:00Z</time>
      </trkpt>
      <trkpt lat="48.14662" lon="-3.83277">
        <ele>206.6</ele>
        <time>2020-06-08T10:14:01Z</time>
      </trkpt>
      <trkpt lat="48.14665" lon="-3.83276">
        <ele>206.7</ele>
        <time>2020-06-08T10:14:02Z</time>
      </trkpt>
      <trkpt lat="48.14669" lon="-3.83274">
        <ele>206.8</ele>
        <time>2020-06-08T10:14:03Z</time>
      </trkpt>
      <trkpt lat="48.14674" lon="-3.83274">
        <ele>207</ele>
        <time>2020-06-08T10:14:04Z</time>
      </trkpt>
      <trkpt lat="48.14679" lon="-3.83274">
        <ele>207.1</ele>
        <time>2020-06-08T10:14:05Z</time>
      </trkpt>
      <trkpt lat="48.14683" lon="-3.83273">
        <ele>207.2</ele>
        <time>2020-06-08T10:14:06Z</time>
      </trkpt>
      <trkpt lat="48.14688" lon="-3.83271">
        <ele>207.3</ele>
        <time>2020-06-08T10:14:07Z</time>
      </trkpt>
      <trkpt lat="48.14691" lon="-3.83269">
        <ele>207.4</ele>
        <time>2020-06-08T10:14:08Z</time>
      </trkpt>
      <trkpt lat="48.14695" lon="-3.83267">
        <ele>207.5</ele>
        <time>2020-06-08T10:14:09Z</time>
      </trkpt>
      <trkpt lat="48.147" lon="-3.83266">
        <ele>207.6</ele>
        <time>2020-06-08T10:14:10Z</time>
      </trkpt>
      <trkpt lat="48.14704" lon="-3.83263">
        <ele>207.7</ele>
        <time>2020-06-08T10:14:11Z</time>
      </trkpt>
      <trkpt lat="48.14708" lon="-3.83262">
        <ele>207.8</ele>
        <time>2020-06-08T10:14:12Z</time>
      </trkpt>
      <trkpt lat="48.14712" lon="-3.83261">
        <ele>207.9</ele>
        <time>2020-06-08T10:14:13Z</time>
      </trkpt>
      <trkpt lat="48.14716" lon="-3.8326">
        <ele>208</ele>
        <time>2020-06-08T10:14:14Z</time>
      </trkpt>
      <trkpt lat="48.1472" lon="-3.83259">
        <ele>208.2</ele>
        <time>2020-06-08T10:14:15Z</time>
      </trkpt>
      <trkpt lat="48.14723" lon="-3.83258">
        <ele>208.3</ele>
        <time>2020-06-08T10:14:16Z</time>
      </trkpt>
      <trkpt lat="48.14727" lon="-3.83256">
        <ele>208.4</ele>
        <time>2020-06-08T10:14:17Z</time>
      </trkpt>
      <trkpt lat="48.14731" lon="-3.83255">
        <ele>208.5</ele>
        <time>2020-06-08T10:14:18Z</time>
      </trkpt>
      <trkpt lat="48.14736" lon="-3.83253">
        <ele>208.6</ele>
        <time>2020-06-08T10:14:19Z</time>
      </trkpt>
      <trkpt lat="48.1474" lon="-3.83252">
        <ele>208.7</ele>
        <time>2020-06-08T10:14:20Z</time>
      </trkpt>
      <trkpt lat="48.14745" lon="-3.83249">
        <ele>208.9</ele>
        <time>2020-06-08T10:14:21Z</time>
      </trkpt>
      <trkpt lat="48.14749" lon="-3.83248">
        <ele>209</ele>
        <time>2020-06-08T10:14:22Z</time>
      </trkpt>
      <trkpt lat="48.14754" lon="-3.83247">
        <ele>209.1</ele>
        <time>2020-06-08T10:14:23Z</time>
      </trkpt>
      <trkpt lat="48.14758" lon="-3.83245">
        <ele>209.1</ele>
        <time>2020-06-08T10:14:24Z</time>
      </trkpt>
      <trkpt lat="48.14762" lon="-3.83244">
        <ele>209.2</ele>
        <time>2020-06-08T10:14:25Z</time>
      </trkpt>
      <trkpt lat="48.14766" lon="-3.83243">
        <ele>209.2</ele>
        <time>2020-06-08T10:14:26Z</time>
      </trkpt>
      <trkpt lat="48.1477" lon="-3.83242">
        <ele>209.3</ele>
        <time>2020-06-08T10:14:27Z</time>
      </trkpt>
      <trkpt lat="48.14773" lon="-3.8324">
        <ele>209.3</ele>
        <time>2020-06-08T10:14:28Z</time>
      </trkpt>
      <trkpt lat="48.14778" lon="-3.83239">
        <ele>209.4</ele>
        <time>2020-06-08T10:14:29Z</time>
      </trkpt>
      <trkpt lat="48.14781" lon="-3.83238">
        <ele>209.4</ele>
        <time>2020-06-08T10:14:30Z</time>
      </trkpt>
      <trkpt lat="48.14785" lon="-3.83237">
        <ele>209.5</ele>
        <time>2020-06-08T10:14:31Z</time>
      </trkpt>
      <trkpt lat="48.14788" lon="-3.83236">
        <ele>209.5</ele>
        <time>2020-06-08T10:14:32Z</time>
      </trkpt>
      <trkpt lat="48.14793" lon="-3.83235">
        <ele>209.5</ele>
        <time>2020-06-08T10:14:33Z</time>
      </trkpt>
      <trkpt lat="48.14797" lon="-3.83234">
        <ele>209.6</ele>
        <time>2020-06-08T10:14:34Z</time>
      </trkpt>
      <trkpt lat="48.14801" lon="-3.83234">
        <ele>209.6</ele>
        <time>2020-06-08T10:14:35Z</time>
      </trkpt>
      <trkpt lat="48.14804" lon="-3.83234">
        <ele>209.6</ele>
        <time>2020-06-08T10:14:36Z</time>
      </trkpt>
      <trkpt lat="48.14808" lon="-3.83233">
        <ele>209.7</ele>
        <time>2020-06-08T10:14:37Z</time>
      </trkpt>
      <trkpt lat="48.14811" lon="-3.83233">
        <ele>209.7</ele>
        <time>2020-06-08T10:14:38Z</time>
      </trkpt>
      <trkpt lat="48.14814" lon="-3.83232">
        <ele>209.7</ele>
        <time>2020-06-08T10:14:39Z</time>
      </trkpt>
      <trkpt lat="48.14817" lon="-3.83232">
        <ele>209.8</ele>
        <time>2020-06-08T10:14:40Z</time>
      </trkpt>
      <trkpt lat="48.14821" lon="-3.83232">
        <ele>209.8</ele>
        <time>2020-06-08T10:14:41Z</time>
      </trkpt>
      <trkpt lat="48.14825" lon="-3.83231">
        <ele>209.6</ele>
        <time>2020-06-08T10:14:42Z</time>
      </trkpt>
      <trkpt lat="48.14829" lon="-3.83231">
        <ele>209.5</ele>
        <time>2020-06-08T10:14:43Z</time>
      </trkpt>
      <trkpt lat="48.14834" lon="-3.83231">
        <ele>209.4</ele>
        <time>2020-06-08T10:14:44Z</time>
      </trkpt>
      <trkpt lat="48.14838" lon="-3.83232">
        <ele>209.3</ele>
        <time>2020-06-08T10:14:45Z</time>
      </trkpt>
      <trkpt lat="48.14842" lon="-3.83232">
        <ele>209.2</ele>
        <time>2020-06-08T10:14:46Z</time>
      </trkpt>
      <trkpt lat="48.14845" lon="-3.83233">
        <ele>209</ele>
        <time>2020-06-08T10:14:47Z</time>
      </trkpt>
      <trkpt lat="48.1485" lon="-3.83234">
        <ele>208.9</ele>
        <time>2020-06-08T10:14:48Z</time>
      </trkpt>
      <trkpt lat="48.14853" lon="-3.83235">
        <ele>208.8</ele>
        <time>2020-06-08T10:14:49Z</time>
      </trkpt>
      <trkpt lat="48.14857" lon="-3.83236">
        <ele>208.6</ele>
        <time>2020-06-08T10:14:50Z</time>
      </trkpt>
      <trkpt lat="48.1486" lon="-3.83237">
        <ele>208.5</ele>
        <time>2020-06-08T10:14:51Z</time>
      </trkpt>
      <trkpt lat="48.14862" lon="-3.83237">
        <ele>208.4</ele>
        <time>2020-06-08T10:14:52Z</time>
      </trkpt>
      <trkpt lat="48.14862" lon="-3.83237">
        <ele>208.4</ele>
        <time>2020-06-08T10:14:53Z</time>
      </trkpt>
      <trkpt lat="48.14863" lon="-3.83236">
        <ele>208.4</ele>
        <time>2020-06-08T10:14:54Z</time>
      </trkpt>
      <trkpt lat="48.14864" lon="-3.83236">
        <ele>208.4</ele>
        <time>2020-06-08T10:14:55Z</time>
      </trkpt>
      <trkpt lat="48.14864" lon="-3.83236">
        <ele>208.4</ele>
        <time>2020-06-08T10:14:56Z</time>
      </trkpt>
      <trkpt lat="48.14865" lon="-3.83236">
        <ele>208.3</ele>
        <time>2020-06-08T10:14:57Z</time>
      </trkpt>
      <trkpt lat="48.14865" lon="-3.83236">
        <ele>208.3</ele>
        <time>2020-06-08T10:14:58Z</time>
      </trkpt>
      <trkpt lat="48.14866" lon="-3.83235">
        <ele>208.3</ele>
        <time>2020-06-08T10:14:59Z</time>
      </trkpt>
      <trkpt lat="48.14866" lon="-3.83235">
        <ele>208.3</ele>
        <time>2020-06-08T10:15:00Z</time>
      </trkpt>
      <trkpt lat="48.14867" lon="-3.83235">
        <ele>208.2</ele>
        <time>2020-06-08T10:15:01Z</time>
      </trkpt>
      <trkpt lat="48.14868" lon="-3.83235">
        <ele>208.2</ele>
        <time>2020-06-08T10:15:02Z</time>
      </trkpt>
      <trkpt lat="48.14868" lon="-3.83235">
        <ele>208.2</ele>
        <time>2020-06-08T10:15:03Z</time>
      </trkpt>
      <trkpt lat="48.14869" lon="-3.83234">
        <ele>208.2</ele>
        <time>2020-06-08T10:16:41Z</time>
      </trkpt>
      <trkpt lat="48.14869" lon="-3.83234">
        <ele>208.2</ele>
        <time>2020-06-08T10:16:42Z</time>
      </trkpt>
      <trkpt lat="48.14873" lon="-3.83235">
        <ele>208</ele>
        <time>2020-06-08T10:16:43Z</time>
      </trkpt>
      <trkpt lat="48.14876" lon="-3.83237">
        <ele>207.8</ele>
        <time>2020-06-08T10:16:44Z</time>
      </trkpt>
      <trkpt lat="48.1488" lon="-3.83238">
        <ele>207.7</ele>
        <time>2020-06-08T10:16:45Z</time>
      </trkpt>
      <trkpt lat="48.14883" lon="-3.8324">
        <ele>207.5</ele>
        <time>2020-06-08T10:16:46Z</time>
      </trkpt>
      <trkpt lat="48.14887" lon="-3.83241">
        <ele>207.3</ele>
        <time>2020-06-08T10:16:47Z</time>
      </trkpt>
      <trkpt lat="48.14891" lon="-3.83242">
        <ele>207.1</ele>
        <time>2020-06-08T10:16:48Z</time>
      </trkpt>
      <trkpt lat="48.14895" lon="-3.83244">
        <ele>206.8</ele>
        <time>2020-06-08T10:16:49Z</time>
      </trkpt>
      <trkpt lat="48.149" lon="-3.83246">
        <ele>206.5</ele>
        <time>2020-06-08T10:16:50Z</time>
      </trkpt>
      <trkpt lat="48.14906" lon="-3.83248">
        <ele>206.2</ele>
        <time>2020-06-08T10:16:51Z</time>
      </trkpt>
      <trkpt lat="48.14911" lon="-3.83249">
        <ele>205.9</ele>
        <time>2020-06-08T10:16:52Z</time>
      </trkpt>
      <trkpt lat="48.14917" lon="-3.83251">
        <ele>205.5</ele>
        <time>2020-06-08T10:16:53Z</time>
      </trkpt>
      <trkpt lat="48.14924" lon="-3.83253">
        <ele>205.1</ele>
        <time>2020-06-08T10:16:54Z</time>
      </trkpt>
      <trkpt lat="48.14931" lon="-3.83255">
        <ele>204.6</ele>
        <time>2020-06-08T10:16:55Z</time>
      </trkpt>
      <trkpt lat="48.14939" lon="-3.83257">
        <ele>204.2</ele>
        <time>2020-06-08T10:16:56Z</time>
      </trkpt>
      <trkpt lat="48.14947" lon="-3.83259">
        <ele>203.6</ele>
        <time>2020-06-08T10:16:57Z</time>
      </trkpt>
      <trkpt lat="48.14957" lon="-3.83263">
        <ele>202.9</ele>
        <time>2020-06-08T10:16:58Z</time>
      </trkpt>
      <trkpt lat="48.14967" lon="-3.83267">
        <ele>202.1</ele>
        <time>2020-06-08T10:16:59Z</time>
      </trkpt>
      <trkpt lat="48.14978" lon="-3.83271">
        <ele>201.2</ele>
        <time>2020-06-08T10:17:00Z</time>
      </trkpt>
      <trkpt lat="48.14989" lon="-3.83273">
        <ele>200.1</ele>
        <time>2020-06-08T10:17:01Z</time>
      </trkpt>
      <trkpt lat="48.15" lon="-3.83275">
        <ele>198.9</ele>
        <time>2020-06-08T10:17:02Z</time>
      </trkpt>
      <trkpt lat="48.15011" lon="-3.83278">
        <ele>197.6</ele>
        <time>2020-06-08T10:17:03Z</time>
      </trkpt>
      <trkpt lat="48.15023" lon="-3.83281">
        <ele>196</ele>
        <time>2020-06-08T10:17:04Z</time>
      </trkpt>
      <trkpt lat="48.15036" lon="-3.83284">
        <ele>194.3</ele>
        <time>2020-06-08T10:17:05Z</time>
      </trkpt>
      <trkpt lat="48.15049" lon="-3.83288">
        <ele>192.5</ele>
        <time>2020-06-08T10:17:06Z</time>
      </trkpt>
      <trkpt lat="48.15063" lon="-3.83291">
        <ele>190.8</ele>
        <time>2020-06-08T10:17:07Z</time>
      </trkpt>
      <trkpt lat="48.15077" lon="-3.83292">
        <ele>189.1</ele>
        <time>2020-06-08T10:17:08Z</time>
      </trkpt>
      <trkpt lat="48.15092" lon="-3.83294">
        <ele>187.4</ele>
        <time>2020-06-08T10:17:09Z</time>
      </trkpt>
      <trkpt lat="48.15107" lon="-3.83293">
        <ele>185.9</ele>
        <time>2020-06-08T10:17:10Z</time>
      </trkpt>
      <trkpt lat="48.15122" lon="-3.8329">
        <ele>184.6</ele>
        <time>2020-06-08T10:17:11Z</time>
      </trkpt>
      <trkpt lat="48.15137" lon="-3.83287">
        <ele>183.5</ele>
        <time>2020-06-08T10:17:12Z</time>
      </trkpt>
      <trkpt lat="48.15153" lon="-3.83285">
        <ele>182.7</ele>
        <time>2020-06-08T10:17:13Z</time>
      </trkpt>
      <trkpt lat="48.15166" lon="-3.83283">
        <ele>181.9</ele>
        <time>2020-06-08T10:17:14Z</time>
      </trkpt>
      <trkpt lat="48.1518" lon="-3.8328">
        <ele>181.1</ele>
        <time>2020-06-08T10:17:15Z</time>
      </trkpt>
      <trkpt lat="48.15194" lon="-3.83279">
        <ele>180.1</ele>
        <time>2020-06-08T10:17:16Z</time>
      </trkpt>
      <trkpt lat="48.15208" lon="-3.83279">
        <ele>179.2</ele>
        <time>2020-06-08T10:17:17Z</time>
      </trkpt>
      <trkpt lat="48.15222" lon="-3.83281">
        <ele>178.4</ele>
        <time>2020-06-08T10:17:18Z</time>
      </trkpt>
      <trkpt lat="48.15234" lon="-3.83289">
        <ele>177.9</ele>
        <time>2020-06-08T10:17:19Z</time>
      </trkpt>
      <trkpt lat="48.15246" lon="-3.83301">
        <ele>177.7</ele>
        <time>2020-06-08T10:17:20Z</time>
      </trkpt>
      <trkpt lat="48.15255" lon="-3.83315">
        <ele>177.5</ele>
        <time>2020-06-08T10:17:21Z</time>
      </trkpt>
      <trkpt lat="48.15261" lon="-3.83328">
        <ele>177.5</ele>
        <time>2020-06-08T10:17:22Z</time>
      </trkpt>
      <trkpt lat="48.15265" lon="-3.83343">
        <ele>177.5</ele>
        <time>2020-06-08T10:17:23Z</time>
      </trkpt>
      <trkpt lat="48.15268" lon="-3.83359">
        <ele>177.6</ele>
        <time>2020-06-08T10:17:24Z</time>
      </trkpt>
      <trkpt lat="48.15271" lon="-3.83375">
        <ele>177.7</ele>
        <time>2020-06-08T10:17:25Z</time>
      </trkpt>
      <trkpt lat="48.15272" lon="-3.83391">
        <ele>177.8</ele>
        <time>2020-06-08T10:17:26Z</time>
      </trkpt>
      <trkpt lat="48.15273" lon="-3.83407">
        <ele>177.8</ele>
        <time>2020-06-08T10:17:27Z</time>
      </trkpt>
      <trkpt lat="48.15274" lon="-3.83422">
        <ele>177.9</ele>
        <time>2020-06-08T10:17:28Z</time>
      </trkpt>
      <trkpt lat="48.15275" lon="-3.83436">
        <ele>177.9</ele>
        <time>2020-06-08T10:17:29Z</time>
      </trkpt>
      <trkpt lat="48.15275" lon="-3.83451">
        <ele>177.9</ele>
        <time>2020-06-08T10:17:30Z</time>
      </trkpt>
      <trkpt lat="48.15278" lon="-3.83462">
        <ele>177.8</ele>
        <time>2020-06-08T10:17:31Z</time>
      </trkpt>
      <trkpt lat="48.15277" lon="-3.83473">
        <ele>177.8</ele>
        <time>2020-06-08T10:17:32Z</time>
      </trkpt>
      <trkpt lat="48.15276" lon="-3.83486">
        <ele>177.6</ele>
        <time>2020-06-08T10:17:33Z</time>
      </trkpt>
      <trkpt lat="48.15275" lon="-3.83498">
        <ele>177.4</ele>
        <time>2020-06-08T10:17:34Z</time>
      </trkpt>
      <trkpt lat="48.15276" lon="-3.83512">
        <ele>177.1</ele>
        <time>2020-06-08T10:17:35Z</time>
      </trkpt>
      <trkpt lat="48.15276" lon="-3.83526">
        <ele>176.8</ele>
        <time>2020-06-08T10:17:36Z</time>
      </trkpt>
      <trkpt lat="48.15274" lon="-3.83538">
        <ele>176.4</ele>
        <time>2020-06-08T10:17:37Z</time>
      </trkpt>
      <trkpt lat="48.15272" lon="-3.83551">
        <ele>175.9</ele>
        <time>2020-06-08T10:17:38Z</time>
      </trkpt>
      <trkpt lat="48.15273" lon="-3.83566">
        <ele>175.5</ele>
        <time>2020-06-08T10:17:39Z</time>
      </trkpt>
      <trkpt lat="48.1527" lon="-3.83582">
        <ele>174.9</ele>
        <time>2020-06-08T10:17:40Z</time>
      </trkpt>
      <trkpt lat="48.15269" lon="-3.83597">
        <ele>174.3</ele>
        <time>2020-06-08T10:17:41Z</time>
      </trkpt>
      <trkpt lat="48.15269" lon="-3.83615">
        <ele>173.7</ele>
        <time>2020-06-08T10:17:42Z</time>
      </trkpt>
      <trkpt lat="48.15268" lon="-3.83632">
        <ele>173.1</ele>
        <time>2020-06-08T10:17:43Z</time>
      </trkpt>
      <trkpt lat="48.15267" lon="-3.8365">
        <ele>172.5</ele>
        <time>2020-06-08T10:17:44Z</time>
      </trkpt>
      <trkpt lat="48.15265" lon="-3.83667">
        <ele>171.9</ele>
        <time>2020-06-08T10:17:45Z</time>
      </trkpt>
      <trkpt lat="48.15264" lon="-3.83686">
        <ele>171.2</ele>
        <time>2020-06-08T10:17:46Z</time>
      </trkpt>
      <trkpt lat="48.15263" lon="-3.83704">
        <ele>170.6</ele>
        <time>2020-06-08T10:17:47Z</time>
      </trkpt>
      <trkpt lat="48.15263" lon="-3.83722">
        <ele>170.1</ele>
        <time>2020-06-08T10:17:48Z</time>
      </trkpt>
      <trkpt lat="48.15262" lon="-3.8374">
        <ele>169.7</ele>
        <time>2020-06-08T10:17:49Z</time>
      </trkpt>
      <trkpt lat="48.15264" lon="-3.83758">
        <ele>169.4</ele>
        <time>2020-06-08T10:17:50Z</time>
      </trkpt>
      <trkpt lat="48.15266" lon="-3.83776">
        <ele>169.1</ele>
        <time>2020-06-08T10:17:51Z</time>
      </trkpt>
      <trkpt lat="48.15268" lon="-3.83793">
        <ele>168.8</ele>
        <time>2020-06-08T10:17:52Z</time>
      </trkpt>
      <trkpt lat="48.15271" lon="-3.83809">
        <ele>168.5</ele>
        <time>2020-06-08T10:17:53Z</time>
      </trkpt>
      <trkpt lat="48.15273" lon="-3.83824">
        <ele>168.1</ele>
        <time>2020-06-08T10:17:54Z</time>
      </trkpt>
      <trkpt lat="48.15274" lon="-3.83838">
        <ele>167.9</ele>
        <time>2020-06-08T10:17:55Z</time>
      </trkpt>
      <trkpt lat="48.15274" lon="-3.83854">
        <ele>167.5</ele>
        <time>2020-06-08T10:17:56Z</time>
      </trkpt>
      <trkpt lat="48.15276" lon="-3.8387">
        <ele>167.1</ele>
        <time>2020-06-08T10:17:57Z</time>
      </trkpt>
      <trkpt lat="48.15277" lon="-3.83885">
        <ele>166.7</ele>
        <time>2020-06-08T10:17:58Z</time>
      </trkpt>
      <trkpt lat="48.15276" lon="-3.839">
        <ele>166.4</ele>
        <time>2020-06-08T10:17:59Z</time>
      </trkpt>
      <trkpt lat="48.15279" lon="-3.83916">
        <ele>166</ele>
        <time>2020-06-08T10:18:00Z</time>
      </trkpt>
      <trkpt lat="48.1528" lon="-3.83932">
        <ele>165.6</ele>
        <time>2020-06-08T10:18:01Z</time>
      </trkpt>
      <trkpt lat="48.1528" lon="-3.83947">
        <ele>165.1</ele>
        <time>2020-06-08T10:18:02Z</time>
      </trkpt>
      <trkpt lat="48.1528" lon="-3.83963">
        <ele>164.6</ele>
        <time>2020-06-08T10:18:03Z</time>
      </trkpt>
      <trkpt lat="48.1528" lon="-3.8398">
        <ele>164.1</ele>
        <time>2020-06-08T10:18:04Z</time>
      </trkpt>
      <trkpt lat="48.15279" lon="-3.83996">
        <ele>163.6</ele>
        <time>2020-06-08T10:18:05Z</time>
      </trkpt>
      <trkpt lat="48.15279" lon="-3.84013">
        <ele>163.2</ele>
        <time>2020-06-08T10:18:06Z</time>
      </trkpt>
      <trkpt lat="48.15279" lon="-3.8403">
        <ele>162.8</ele>
        <time>2020-06-08T10:18:07Z</time>
      </trkpt>
      <trkpt lat="48.1528" lon="-3.84047">
        <ele>162.2</ele>
        <time>2020-06-08T10:18:08Z</time>
      </trkpt>
      <trkpt lat="48.15282" lon="-3.84063">
        <ele>161.7</ele>
        <time>2020-06-08T10:18:09Z</time>
      </trkpt>
      <trkpt lat="48.15282" lon="-3.84079">
        <ele>161.2</ele>
        <time>2020-06-08T10:18:10Z</time>
      </trkpt>
      <trkpt lat="48.15282" lon="-3.84097">
        <ele>160.7</ele>
        <time>2020-06-08T10:18:11Z</time>
      </trkpt>
      <trkpt lat="48.15285" lon="-3.84114">
        <ele>160.2</ele>
        <time>2020-06-08T10:18:12Z</time>
      </trkpt>
      <trkpt lat="48.1529" lon="-3.8413">
        <ele>159.6</ele>
        <time>2020-06-08T10:18:13Z</time>
      </trkpt>
      <trkpt lat="48.15292" lon="-3.84143">
        <ele>159.2</ele>
        <time>2020-06-08T10:18:14Z</time>
      </trkpt>
      <trkpt lat="48.15293" lon="-3.84158">
        <ele>158.7</ele>
        <time>2020-06-08T10:18:15Z</time>
      </trkpt>
      <trkpt lat="48.15295" lon="-3.84175">
        <ele>158.2</ele>
        <time>2020-06-08T10:18:16Z</time>
      </trkpt>
      <trkpt lat="48.15298" lon="-3.84189">
        <ele>157.8</ele>
        <time>2020-06-08T10:18:17Z</time>
      </trkpt>
      <trkpt lat="48.15299" lon="-3.84204">
        <ele>157.4</ele>
        <time>2020-06-08T10:18:18Z</time>
      </trkpt>
      <trkpt lat="48.15301" lon="-3.84218">
        <ele>156.9</ele>
        <time>2020-06-08T10:18:19Z</time>
      </trkpt>
      <trkpt lat="48.15303" lon="-3.84234">
        <ele>156.4</ele>
        <time>2020-06-08T10:18:20Z</time>
      </trkpt>
      <trkpt lat="48.15306" lon="-3.84249">
        <ele>155.9</ele>
        <time>2020-06-08T10:18:21Z</time>
      </trkpt>
      <trkpt lat="48.15306" lon="-3.84263">
        <ele>155.4</ele>
        <time>2020-06-08T10:18:22Z</time>
      </trkpt>
      <trkpt lat="48.15306" lon="-3.84277">
        <ele>154.9</ele>
        <time>2020-06-08T10:18:23Z</time>
      </trkpt>
      <trkpt lat="48.15306" lon="-3.84293">
        <ele>154.3</ele>
        <time>2020-06-08T10:18:24Z</time>
      </trkpt>
      <trkpt lat="48.15308" lon="-3.84307">
        <ele>153.7</ele>
        <time>2020-06-08T10:18:25Z</time>
      </trkpt>
      <trkpt lat="48.15311" lon="-3.8432">
        <ele>153.2</ele>
        <time>2020-06-08T10:18:26Z</time>
      </trkpt>
      <trkpt lat="48.15316" lon="-3.84334">
        <ele>152.6</ele>
        <time>2020-06-08T10:18:27Z</time>
      </trkpt>
      <trkpt lat="48.15319" lon="-3.84349">
        <ele>152</ele>
        <time>2020-06-08T10:18:28Z</time>
      </trkpt>
      <trkpt lat="48.15323" lon="-3.84364">
        <ele>151.4</ele>
        <time>2020-06-08T10:18:29Z</time>
      </trkpt>
      <trkpt lat="48.15325" lon="-3.84378">
        <ele>150.7</ele>
        <time>2020-06-08T10:18:30Z</time>
      </trkpt>
      <trkpt lat="48.15327" lon="-3.84393">
        <ele>149.9</ele>
        <time>2020-06-08T10:18:31Z</time>
      </trkpt>
      <trkpt lat="48.1533" lon="-3.84408">
        <ele>149</ele>
        <time>2020-06-08T10:18:32Z</time>
      </trkpt>
      <trkpt lat="48.15331" lon="-3.8442">
        <ele>148.3</ele>
        <time>2020-06-08T10:18:33Z</time>
      </trkpt>
      <trkpt lat="48.15331" lon="-3.84436">
        <ele>147.2</ele>
        <time>2020-06-08T10:18:34Z</time>
      </trkpt>
      <trkpt lat="48.15331" lon="-3.84453">
        <ele>146.2</ele>
        <time>2020-06-08T10:18:35Z</time>
      </trkpt>
      <trkpt lat="48.15332" lon="-3.84471">
        <ele>145.1</ele>
        <time>2020-06-08T10:18:36Z</time>
      </trkpt>
      <trkpt lat="48.15332" lon="-3.84489">
        <ele>144</ele>
        <time>2020-06-08T10:18:37Z</time>
      </trkpt>
      <trkpt lat="48.15333" lon="-3.84507">
        <ele>142.9</ele>
        <time>2020-06-08T10:18:38Z</time>
      </trkpt>
      <trkpt lat="48.15332" lon="-3.84525">
        <ele>141.8</ele>
        <time>2020-06-08T10:18:39Z</time>
      </trkpt>
      <trkpt lat="48.15333" lon="-3.84542">
        <ele>140.8</ele>
        <time>2020-06-08T10:18:40Z</time>
      </trkpt>
      <trkpt lat="48.15334" lon="-3.84562">
        <ele>139.7</ele>
        <time>2020-06-08T10:18:41Z</time>
      </trkpt>
      <trkpt lat="48.15339" lon="-3.84581">
        <ele>138.6</ele>
        <time>2020-06-08T10:18:42Z</time>
      </trkpt>
      <trkpt lat="48.15344" lon="-3.84597">
        <ele>137.6</ele>
        <time>2020-06-08T10:18:43Z</time>
      </trkpt>
      <trkpt lat="48.15349" lon="-3.84614">
        <ele>136.6</ele>
        <time>2020-06-08T10:18:44Z</time>
      </trkpt>
      <trkpt lat="48.15352" lon="-3.8463">
        <ele>135.8</ele>
        <time>2020-06-08T10:18:45Z</time>
      </trkpt>
      <trkpt lat="48.15357" lon="-3.84648">
        <ele>134.9</ele>
        <time>2020-06-08T10:18:46Z</time>
      </trkpt>
      <trkpt lat="48.15362" lon="-3.84666">
        <ele>134</ele>
        <time>2020-06-08T10:18:47Z</time>
      </trkpt>
      <trkpt lat="48.15364" lon="-3.84684">
        <ele>133.2</ele>
        <time>2020-06-08T10:18:48Z</time>
      </trkpt>
      <trkpt lat="48.15362" lon="-3.84702">
        <ele>132.4</ele>
        <time>2020-06-08T10:18:49Z</time>
      </trkpt>
      <trkpt lat="48.15359" lon="-3.84719">
        <ele>131.6</ele>
        <time>2020-06-08T10:18:50Z</time>
      </trkpt>
      <trkpt lat="48.15357" lon="-3.84734">
        <ele>130.8</ele>
        <time>2020-06-08T10:18:51Z</time>
      </trkpt>
      <trkpt lat="48.15351" lon="-3.8475">
        <ele>130</ele>
        <time>2020-06-08T10:18:52Z</time>
      </trkpt>
      <trkpt lat="48.15349" lon="-3.84766">
        <ele>129.2</ele>
        <time>2020-06-08T10:18:53Z</time>
      </trkpt>
      <trkpt lat="48.15345" lon="-3.84782">
        <ele>128.3</ele>
        <time>2020-06-08T10:18:54Z</time>
      </trkpt>
      <trkpt lat="48.15338" lon="-3.84798">
        <ele>127.4</ele>
        <time>2020-06-08T10:18:55Z</time>
      </trkpt>
      <trkpt lat="48.15335" lon="-3.84814">
        <ele>126.4</ele>
        <time>2020-06-08T10:18:56Z</time>
      </trkpt>
      <trkpt lat="48.15333" lon="-3.84829">
        <ele>125.9</ele>
        <time>2020-06-08T10:18:57Z</time>
      </trkpt>
      <trkpt lat="48.15333" lon="-3.84846">
        <ele>125</ele>
        <time>2020-06-08T10:18:58Z</time>
      </trkpt>
      <trkpt lat="48.15337" lon="-3.8486">
        <ele>124.1</ele>
        <time>2020-06-08T10:18:59Z</time>
      </trkpt>
      <trkpt lat="48.15345" lon="-3.8487">
        <ele>123.2</ele>
        <time>2020-06-08T10:19:00Z</time>
      </trkpt>
      <trkpt lat="48.15353" lon="-3.84882">
        <ele>122.3</ele>
        <time>2020-06-08T10:19:01Z</time>
      </trkpt>
      <trkpt lat="48.15361" lon="-3.84892">
        <ele>121.5</ele>
        <time>2020-06-08T10:19:02Z</time>
      </trkpt>
      <trkpt lat="48.15371" lon="-3.84897">
        <ele>120.8</ele>
        <time>2020-06-08T10:19:03Z</time>
      </trkpt>
      <trkpt lat="48.15382" lon="-3.84899">
        <ele>120</ele>
        <time>2020-06-08T10:19:04Z</time>
      </trkpt>
      <trkpt lat="48.15393" lon="-3.84902">
        <ele>119.4</ele>
        <time>2020-06-08T10:19:05Z</time>
      </trkpt>
      <trkpt lat="48.15405" lon="-3.84909">
        <ele>118.7</ele>
        <time>2020-06-08T10:19:06Z</time>
      </trkpt>
      <trkpt lat="48.15418" lon="-3.84911">
        <ele>118.2</ele>
        <time>2020-06-08T10:19:07Z</time>
      </trkpt>
      <trkpt lat="48.1543" lon="-3.84913">
        <ele>117.6</ele>
        <time>2020-06-08T10:19:08Z</time>
      </trkpt>
      <trkpt lat="48.15441" lon="-3.84915">
        <ele>117.3</ele>
        <time>2020-06-08T10:19:09Z</time>
      </trkpt>
      <trkpt lat="48.15455" lon="-3.84913">
        <ele>116.8</ele>
        <time>2020-06-08T10:19:10Z</time>
      </trkpt>
      <trkpt lat="48.15468" lon="-3.84917">
        <ele>116.4</ele>
        <time>2020-06-08T10:19:11Z</time>
      </trkpt>
      <trkpt lat="48.1548" lon="-3.8492">
        <ele>116</ele>
        <time>2020-06-08T10:19:12Z</time>
      </trkpt>
      <trkpt lat="48.15493" lon="-3.84922">
        <ele>115.5</ele>
        <time>2020-06-08T10:19:13Z</time>
      </trkpt>
      <trkpt lat="48.15505" lon="-3.84924">
        <ele>115.1</ele>
        <time>2020-06-08T10:19:14Z</time>
      </trkpt>
      <trkpt lat="48.15517" lon="-3.84927">
        <ele>114.7</ele>
        <time>2020-06-08T10:19:15Z</time>
      </trkpt>
      <trkpt lat="48.15529" lon="-3.84927">
        <ele>114.3</ele>
        <time>2020-06-08T10:19:16Z</time>
      </trkpt>
      <trkpt lat="48.1554" lon="-3.84929">
        <ele>113.8</ele>
        <time>2020-06-08T10:19:17Z</time>
      </trkpt>
      <trkpt lat="48.1555" lon="-3.84929">
        <ele>113.4</ele>
        <time>2020-06-08T10:19:18Z</time>
      </trkpt>
      <trkpt lat="48.15561" lon="-3.84931">
        <ele>113.1</ele>
        <time>2020-06-08T10:19:19Z</time>
      </trkpt>
      <trkpt lat="48.15571" lon="-3.84934">
        <ele>112.8</ele>
        <time>2020-06-08T10:19:20Z</time>
      </trkpt>
      <trkpt lat="48.15581" lon="-3.84937">
        <ele>112.5</ele>
        <time>2020-06-08T10:19:21Z</time>
      </trkpt>
      <trkpt lat="48.15591" lon="-3.8494">
        <ele>112.3</ele>
        <time>2020-06-08T10:19:22Z</time>
      </trkpt>
      <trkpt lat="48.15601" lon="-3.84942">
        <ele>112</ele>
        <time>2020-06-08T10:19:23Z</time>
      </trkpt>
      <trkpt lat="48.15611" lon="-3.84943">
        <ele>111.7</ele>
        <time>2020-06-08T10:19:24Z</time>
      </trkpt>
      <trkpt lat="48.15621" lon="-3.84945">
        <ele>111.5</ele>
        <time>2020-06-08T10:19:25Z</time>
      </trkpt>
      <trkpt lat="48.15629" lon="-3.84947">
        <ele>111.3</ele>
        <time>2020-06-08T10:19:26Z</time>
      </trkpt>
      <trkpt lat="48.15638" lon="-3.8495">
        <ele>111.1</ele>
        <time>2020-06-08T10:19:27Z</time>
      </trkpt>
      <trkpt lat="48.15646" lon="-3.84953">
        <ele>111</ele>
        <time>2020-06-08T10:19:28Z</time>
      </trkpt>
      <trkpt lat="48.15653" lon="-3.84956">
        <ele>110.8</ele>
        <time>2020-06-08T10:19:29Z</time>
      </trkpt>
      <trkpt lat="48.15659" lon="-3.84959">
        <ele>110.7</ele>
        <time>2020-06-08T10:19:30Z</time>
      </trkpt>
      <trkpt lat="48.15666" lon="-3.84963">
        <ele>110.5</ele>
        <time>2020-06-08T10:19:31Z</time>
      </trkpt>
      <trkpt lat="48.15672" lon="-3.84966">
        <ele>110.4</ele>
        <time>2020-06-08T10:19:32Z</time>
      </trkpt>
      <trkpt lat="48.15679" lon="-3.84969">
        <ele>110.2</ele>
        <time>2020-06-08T10:19:33Z</time>
      </trkpt>
      <trkpt lat="48.15686" lon="-3.84973">
        <ele>110.1</ele>
        <time>2020-06-08T10:19:34Z</time>
      </trkpt>
      <trkpt lat="48.15692" lon="-3.84978">
        <ele>109.9</ele>
        <time>2020-06-08T10:19:35Z</time>
      </trkpt>
      <trkpt lat="48.15699" lon="-3.84984">
        <ele>109.8</ele>
        <time>2020-06-08T10:19:36Z</time>
      </trkpt>
      <trkpt lat="48.15706" lon="-3.84989">
        <ele>109.7</ele>
        <time>2020-06-08T10:19:37Z</time>
      </trkpt>
      <trkpt lat="48.15713" lon="-3.84993">
        <ele>109.7</ele>
        <time>2020-06-08T10:19:38Z</time>
      </trkpt>
      <trkpt lat="48.1572" lon="-3.84997">
        <ele>109.5</ele>
        <time>2020-06-08T10:19:39Z</time>
      </trkpt>
      <trkpt lat="48.15728" lon="-3.85">
        <ele>109.4</ele>
        <time>2020-06-08T10:19:40Z</time>
      </trkpt>
      <trkpt lat="48.15735" lon="-3.85004">
        <ele>109.2</ele>
        <time>2020-06-08T10:19:41Z</time>
      </trkpt>
      <trkpt lat="48.15741" lon="-3.8501">
        <ele>108.8</ele>
        <time>2020-06-08T10:19:42Z</time>
      </trkpt>
      <trkpt lat="48.15748" lon="-3.85016">
        <ele>108.4</ele>
        <time>2020-06-08T10:19:43Z</time>
      </trkpt>
      <trkpt lat="48.15754" lon="-3.85023">
        <ele>107.8</ele>
        <time>2020-06-08T10:19:44Z</time>
      </trkpt>
      <trkpt lat="48.15761" lon="-3.85029">
        <ele>107</ele>
        <time>2020-06-08T10:19:45Z</time>
      </trkpt>
      <trkpt lat="48.15768" lon="-3.85035">
        <ele>106</ele>
        <time>2020-06-08T10:19:46Z</time>
      </trkpt>
      <trkpt lat="48.15774" lon="-3.85041">
        <ele>105</ele>
        <time>2020-06-08T10:19:47Z</time>
      </trkpt>
      <trkpt lat="48.15781" lon="-3.85046">
        <ele>103.8</ele>
        <time>2020-06-08T10:19:48Z</time>
      </trkpt>
      <trkpt lat="48.15788" lon="-3.85051">
        <ele>102.5</ele>
        <time>2020-06-08T10:19:49Z</time>
      </trkpt>
      <trkpt lat="48.15796" lon="-3.85057">
        <ele>101.1</ele>
        <time>2020-06-08T10:19:50Z</time>
      </trkpt>
      <trkpt lat="48.15803" lon="-3.85063">
        <ele>99.6</ele>
        <time>2020-06-08T10:19:51Z</time>
      </trkpt>
      <trkpt lat="48.15811" lon="-3.85069">
        <ele>98</ele>
        <time>2020-06-08T10:19:52Z</time>
      </trkpt>
      <trkpt lat="48.15819" lon="-3.85075">
        <ele>95.9</ele>
        <time>2020-06-08T10:19:53Z</time>
      </trkpt>
      <trkpt lat="48.15826" lon="-3.85081">
        <ele>94.4</ele>
        <time>2020-06-08T10:19:54Z</time>
      </trkpt>
      <trkpt lat="48.15833" lon="-3.85088">
        <ele>92.9</ele>
        <time>2020-06-08T10:19:55Z</time>
      </trkpt>
      <trkpt lat="48.1584" lon="-3.85097">
        <ele>91.3</ele>
        <time>2020-06-08T10:19:56Z</time>
      </trkpt>
      <trkpt lat="48.15848" lon="-3.85108">
        <ele>89.4</ele>
        <time>2020-06-08T10:19:57Z</time>
      </trkpt>
      <trkpt lat="48.15855" lon="-3.85122">
        <ele>87.2</ele>
        <time>2020-06-08T10:19:58Z</time>
      </trkpt>
      <trkpt lat="48.15863" lon="-3.85137">
        <ele>84.7</ele>
        <time>2020-06-08T10:19:59Z</time>
      </trkpt>
      <trkpt lat="48.15871" lon="-3.85153">
        <ele>82.1</ele>
        <time>2020-06-08T10:20:00Z</time>
      </trkpt>
      <trkpt lat="48.15879" lon="-3.8517">
        <ele>79.7</ele>
        <time>2020-06-08T10:20:01Z</time>
      </trkpt>
      <trkpt lat="48.15888" lon="-3.85188">
        <ele>77.3</ele>
        <time>2020-06-08T10:20:02Z</time>
      </trkpt>
      <trkpt lat="48.15896" lon="-3.85205">
        <ele>75.2</ele>
        <time>2020-06-08T10:20:03Z</time>
      </trkpt>
      <trkpt lat="48.15904" lon="-3.85222">
        <ele>73.1</ele>
        <time>2020-06-08T10:20:04Z</time>
      </trkpt>
      <trkpt lat="48.15912" lon="-3.85237">
        <ele>71.1</ele>
        <time>2020-06-08T10:20:05Z</time>
      </trkpt>
      <trkpt lat="48.1592" lon="-3.8525">
        <ele>69.2</ele>
        <time>2020-06-08T10:20:06Z</time>
      </trkpt>
      <trkpt lat="48.15927" lon="-3.85263">
        <ele>67.3</ele>
        <time>2020-06-08T10:20:07Z</time>
      </trkpt>
      <trkpt lat="48.15937" lon="-3.85275">
        <ele>65.2</ele>
        <time>2020-06-08T10:20:08Z</time>
      </trkpt>
      <trkpt lat="48.15948" lon="-3.85286">
        <ele>62.9</ele>
        <time>2020-06-08T10:20:09Z</time>
      </trkpt>
      <trkpt lat="48.15959" lon="-3.85297">
        <ele>60.6</ele>
        <time>2020-06-08T10:20:10Z</time>
      </trkpt>
      <trkpt lat="48.15971" lon="-3.8531">
        <ele>57.9</ele>
        <time>2020-06-08T10:20:11Z</time>
      </trkpt>
      <trkpt lat="48.15984" lon="-3.85322">
        <ele>55.1</ele>
        <time>2020-06-08T10:20:12Z</time>
      </trkpt>
      <trkpt lat="48.15996" lon="-3.85336">
        <ele>52.2</ele>
        <time>2020-06-08T10:20:13Z</time>
      </trkpt>
      <trkpt lat="48.16009" lon="-3.85351">
        <ele>49.7</ele>
        <time>2020-06-08T10:20:14Z</time>
      </trkpt>
      <trkpt lat="48.16021" lon="-3.85367">
        <ele>48.2</ele>
        <time>2020-06-08T10:20:15Z</time>
      </trkpt>
      <trkpt lat="48.16032" lon="-3.85383">
        <ele>46.7</ele>
        <time>2020-06-08T10:20:16Z</time>
      </trkpt>
      <trkpt lat="48.16045" lon="-3.85397">
        <ele>45.4</ele>
        <time>2020-06-08T10:20:17Z</time>
      </trkpt>
      <trkpt lat="48.16058" lon="-3.85413">
        <ele>44.2</ele>
        <time>2020-06-08T10:20:18Z</time>
      </trkpt>
      <trkpt lat="48.16071" lon="-3.85427">
        <ele>43.4</ele>
        <time>2020-06-08T10:20:19Z</time>
      </trkpt>
      <trkpt lat="48.16082" lon="-3.8544">
        <ele>43.1</ele>
        <time>2020-06-08T10:20:20Z</time>
      </trkpt>
      <trkpt lat="48.16092" lon="-3.85449">
        <ele>42.9</ele>
        <time>2020-06-08T10:20:21Z</time>
      </trkpt>
      <trkpt lat="48.16101" lon="-3.85455">
        <ele>42.9</ele>
        <time>2020-06-08T10:20:22Z</time>
      </trkpt>
      <trkpt lat="48.16109" lon="-3.85464">
        <ele>42.9</ele>
        <time>2020-06-08T10:20:23Z</time>
      </trkpt>
      <trkpt lat="48.16115" lon="-3.85475">
        <ele>43</ele>
        <time>2020-06-08T10:20:24Z</time>
      </trkpt>
      <trkpt lat="48.16119" lon="-3.85485">
        <ele>43.2</ele>
        <time>2020-06-08T10:20:25Z</time>
      </trkpt>
      <trkpt lat="48.16123" lon="-3.85495">
        <ele>43.3</ele>
        <time>2020-06-08T10:20:26Z</time>
      </trkpt>
      <trkpt lat="48.16127" lon="-3.85501">
        <ele>43.5</ele>
        <time>2020-06-08T10:20:27Z</time>
      </trkpt>
      <trkpt lat="48.16128" lon="-3.85507">
        <ele>43.6</ele>
        <time>2020-06-08T10:20:28Z</time>
      </trkpt>
      <trkpt lat="48.16131" lon="-3.85507">
        <ele>43.6</ele>
        <time>2020-06-08T10:20:29Z</time>
      </trkpt>
      <trkpt lat="48.16134" lon="-3.85508">
        <ele>43.7</ele>
        <time>2020-06-08T10:20:30Z</time>
      </trkpt>
      <trkpt lat="48.16135" lon="-3.85509">
        <ele>43.8</ele>
        <time>2020-06-08T10:20:31Z</time>
      </trkpt>
      <trkpt lat="48.16136" lon="-3.85508">
        <ele>43.8</ele>
        <time>2020-06-08T10:20:32Z</time>
      </trkpt>
      <trkpt lat="48.16135" lon="-3.85508">
        <ele>43.8</ele>
        <time>2020-06-08T10:20:33Z</time>
      </trkpt>
      <trkpt lat="48.16133" lon="-3.85509">
        <ele>43.9</ele>
        <time>2020-06-08T10:20:34Z</time>
      </trkpt>
      <trkpt lat="48.16134" lon="-3.85505">
        <ele>44</ele>
        <time>2020-06-08T10:20:35Z</time>
      </trkpt>
      <trkpt lat="48.16134" lon="-3.85506">
        <ele>44</ele>
        <time>2020-06-08T10:20:36Z</time>
      </trkpt>
      <trkpt lat="48.16133" lon="-3.85507">
        <ele>44</ele>
        <time>2020-06-08T10:20:37Z</time>
      </trkpt>
      <trkpt lat="48.16133" lon="-3.85505">
        <ele>44.1</ele>
        <time>2020-06-08T10:20:38Z</time>
      </trkpt>
      <trkpt lat="48.16135" lon="-3.85505">
        <ele>44.1</ele>
        <time>2020-06-08T10:20:39Z</time>
      </trkpt>
      <trkpt lat="48.16136" lon="-3.85504">
        <ele>44.2</ele>
        <time>2020-06-08T10:20:40Z</time>
      </trkpt>
      <trkpt lat="48.16135" lon="-3.85502">
        <ele>44.2</ele>
        <time>2020-06-08T10:20:41Z</time>
      </trkpt>
      <trkpt lat="48.16134" lon="-3.85503">
        <ele>44.2</ele>
        <time>2020-06-08T10:20:42Z</time>
      </trkpt>
      <trkpt lat="48.16135" lon="-3.85499">
        <ele>44.3</ele>
        <time>2020-06-08T10:20:43Z</time>
      </trkpt>
      <trkpt lat="48.16133" lon="-3.85506">
        <ele>44.5</ele>
        <time>2020-06-08T10:20:44Z</time>
      </trkpt>
      <trkpt lat="48.16133" lon="-3.85506">
        <ele>44.5</ele>
        <time>2020-06-08T10:20:45Z</time>
      </trkpt>
      <trkpt lat="48.16133" lon="-3.85506">
        <ele>44.5</ele>
        <time>2020-06-08T10:20:46Z</time>
      </trkpt>
      <trkpt lat="48.16133" lon="-3.85506">
        <ele>44.5</ele>
        <time>2020-06-08T10:20:47Z</time>
      </trkpt>
      <trkpt lat="48.16133" lon="-3.85506">
        <ele>44.5</ele>
        <time>2020-06-08T10:20:48Z</time>
      </trkpt>
      <trkpt lat="48.16133" lon="-3.85506">
        <ele>44.5</ele>
        <time>2020-06-08T10:20:49Z</time>
      </trkpt>
      <trkpt lat="48.16136" lon="-3.85516">
        <ele>44.8</ele>
        <time>2020-06-08T10:21:54Z</time>
      </trkpt>
      <trkpt lat="48.16136" lon="-3.85518">
        <ele>44.9</ele>
        <time>2020-06-08T10:21:55Z</time>
      </trkpt>
      <trkpt lat="48.16136" lon="-3.85523">
        <ele>45.1</ele>
        <time>2020-06-08T10:21:56Z</time>
      </trkpt>
      <trkpt lat="48.16135" lon="-3.85524">
        <ele>45.1</ele>
        <time>2020-06-08T10:21:57Z</time>
      </trkpt>
      <trkpt lat="48.16138" lon="-3.85527">
        <ele>45.3</ele>
        <time>2020-06-08T10:21:58Z</time>
      </trkpt>
      <trkpt lat="48.16136" lon="-3.85525">
        <ele>45.4</ele>
        <time>2020-06-08T10:21:59Z</time>
      </trkpt>
      <trkpt lat="48.16135" lon="-3.85525">
        <ele>45.4</ele>
        <time>2020-06-08T10:22:00Z</time>
      </trkpt>
      <trkpt lat="48.16135" lon="-3.85524">
        <ele>45.5</ele>
        <time>2020-06-08T10:22:01Z</time>
      </trkpt>
      <trkpt lat="48.16134" lon="-3.85527">
        <ele>45.6</ele>
        <time>2020-06-08T10:22:02Z</time>
      </trkpt>
      <trkpt lat="48.16133" lon="-3.85529">
        <ele>45.6</ele>
        <time>2020-06-08T10:22:03Z</time>
      </trkpt>
      <trkpt lat="48.16133" lon="-3.8553">
        <ele>45.7</ele>
        <time>2020-06-08T10:22:04Z</time>
      </trkpt>
      <trkpt lat="48.16133" lon="-3.85533">
        <ele>45.8</ele>
        <time>2020-06-08T10:22:05Z</time>
      </trkpt>
      <trkpt lat="48.16136" lon="-3.85533">
        <ele>46</ele>
        <time>2020-06-08T10:22:06Z</time>
      </trkpt>
      <trkpt lat="48.16137" lon="-3.85537">
        <ele>46.1</ele>
        <time>2020-06-08T10:22:07Z</time>
      </trkpt>
      <trkpt lat="48.16138" lon="-3.8554">
        <ele>46.3</ele>
        <time>2020-06-08T10:22:08Z</time>
      </trkpt>
      <trkpt lat="48.16136" lon="-3.85541">
        <ele>46.4</ele>
        <time>2020-06-08T10:22:09Z</time>
      </trkpt>
      <trkpt lat="48.16135" lon="-3.85543">
        <ele>46.5</ele>
        <time>2020-06-08T10:22:10Z</time>
      </trkpt>
      <trkpt lat="48.16135" lon="-3.85546">
        <ele>46.6</ele>
        <time>2020-06-08T10:22:11Z</time>
      </trkpt>
      <trkpt lat="48.16135" lon="-3.8555">
        <ele>46.7</ele>
        <time>2020-06-08T10:22:12Z</time>
      </trkpt>
      <trkpt lat="48.16134" lon="-3.85555">
        <ele>46.9</ele>
        <time>2020-06-08T10:22:13Z</time>
      </trkpt>
      <trkpt lat="48.16134" lon="-3.85557">
        <ele>47</ele>
        <time>2020-06-08T10:22:14Z</time>
      </trkpt>
      <trkpt lat="48.16133" lon="-3.85561">
        <ele>47.1</ele>
        <time>2020-06-08T10:22:15Z</time>
      </trkpt>
      <trkpt lat="48.16134" lon="-3.85565">
        <ele>47.2</ele>
        <time>2020-06-08T10:22:16Z</time>
      </trkpt>
      <trkpt lat="48.16134" lon="-3.85566">
        <ele>47.3</ele>
        <time>2020-06-08T10:22:17Z</time>
      </trkpt>
      <trkpt lat="48.16133" lon="-3.85571">
        <ele>47.4</ele>
        <time>2020-06-08T10:22:18Z</time>
      </trkpt>
      <trkpt lat="48.16132" lon="-3.85572">
        <ele>47.5</ele>
        <time>2020-06-08T10:22:19Z</time>
      </trkpt>
      <trkpt lat="48.1613" lon="-3.85577">
        <ele>47.7</ele>
        <time>2020-06-08T10:22:20Z</time>
      </trkpt>
      <trkpt lat="48.1613" lon="-3.85579">
        <ele>47.7</ele>
        <time>2020-06-08T10:22:21Z</time>
      </trkpt>
      <trkpt lat="48.16129" lon="-3.85583">
        <ele>47.8</ele>
        <time>2020-06-08T10:22:22Z</time>
      </trkpt>
      <trkpt lat="48.16128" lon="-3.85584">
        <ele>47.9</ele>
        <time>2020-06-08T10:22:23Z</time>
      </trkpt>
      <trkpt lat="48.16128" lon="-3.85588">
        <ele>48</ele>
        <time>2020-06-08T10:22:24Z</time>
      </trkpt>
      <trkpt lat="48.16127" lon="-3.85589">
        <ele>48.1</ele>
        <time>2020-06-08T10:22:25Z</time>
      </trkpt>
      <trkpt lat="48.16127" lon="-3.85595">
        <ele>48.2</ele>
        <time>2020-06-08T10:22:26Z</time>
      </trkpt>
      <trkpt lat="48.16126" lon="-3.85596">
        <ele>48.3</ele>
        <time>2020-06-08T10:22:27Z</time>
      </trkpt>
      <trkpt lat="48.16125" lon="-3.85601">
        <ele>48.4</ele>
        <time>2020-06-08T10:22:28Z</time>
      </trkpt>
      <trkpt lat="48.16124" lon="-3.85603">
        <ele>48.5</ele>
        <time>2020-06-08T10:22:29Z</time>
      </trkpt>
      <trkpt lat="48.16123" lon="-3.85607">
        <ele>48.6</ele>
        <time>2020-06-08T10:22:30Z</time>
      </trkpt>
      <trkpt lat="48.16122" lon="-3.85608">
        <ele>48.6</ele>
        <time>2020-06-08T10:22:31Z</time>
      </trkpt>
      <trkpt lat="48.16122" lon="-3.85611">
        <ele>48.7</ele>
        <time>2020-06-08T10:22:32Z</time>
      </trkpt>
      <trkpt lat="48.16122" lon="-3.85613">
        <ele>48.8</ele>
        <time>2020-06-08T10:22:33Z</time>
      </trkpt>
      <trkpt lat="48.16121" lon="-3.85618">
        <ele>48.9</ele>
        <time>2020-06-08T10:22:34Z</time>
      </trkpt>
      <trkpt lat="48.1612" lon="-3.8562">
        <ele>49</ele>
        <time>2020-06-08T10:22:35Z</time>
      </trkpt>
      <trkpt lat="48.16118" lon="-3.85625">
        <ele>49.1</ele>
        <time>2020-06-08T10:22:36Z</time>
      </trkpt>
      <trkpt lat="48.16118" lon="-3.85628">
        <ele>49.1</ele>
        <time>2020-06-08T10:22:37Z</time>
      </trkpt>
      <trkpt lat="48.16117" lon="-3.85632">
        <ele>49.2</ele>
        <time>2020-06-08T10:22:38Z</time>
      </trkpt>
      <trkpt lat="48.16117" lon="-3.85638">
        <ele>49.3</ele>
        <time>2020-06-08T10:22:39Z</time>
      </trkpt>
      <trkpt lat="48.16117" lon="-3.8564">
        <ele>49.4</ele>
        <time>2020-06-08T10:22:40Z</time>
      </trkpt>
      <trkpt lat="48.16116" lon="-3.85646">
        <ele>49.5</ele>
        <time>2020-06-08T10:22:41Z</time>
      </trkpt>
      <trkpt lat="48.16116" lon="-3.85648">
        <ele>49.5</ele>
        <time>2020-06-08T10:22:42Z</time>
      </trkpt>
      <trkpt lat="48.16116" lon="-3.85653">
        <ele>49.6</ele>
        <time>2020-06-08T10:22:43Z</time>
      </trkpt>
      <trkpt lat="48.16115" lon="-3.85655">
        <ele>49.6</ele>
        <time>2020-06-08T10:22:44Z</time>
      </trkpt>
      <trkpt lat="48.16115" lon="-3.85659">
        <ele>49.7</ele>
        <time>2020-06-08T10:22:45Z</time>
      </trkpt>
      <trkpt lat="48.16114" lon="-3.85665">
        <ele>49.8</ele>
        <time>2020-06-08T10:22:46Z</time>
      </trkpt>
      <trkpt lat="48.16114" lon="-3.85666">
        <ele>49.8</ele>
        <time>2020-06-08T10:22:47Z</time>
      </trkpt>
      <trkpt lat="48.16114" lon="-3.8567">
        <ele>49.8</ele>
        <time>2020-06-08T10:22:48Z</time>
      </trkpt>
      <trkpt lat="48.16113" lon="-3.85674">
        <ele>49.9</ele>
        <time>2020-06-08T10:22:49Z</time>
      </trkpt>
      <trkpt lat="48.16113" lon="-3.85679">
        <ele>50</ele>
        <time>2020-06-08T10:22:50Z</time>
      </trkpt>
      <trkpt lat="48.16113" lon="-3.85683">
        <ele>50.1</ele>
        <time>2020-06-08T10:22:51Z</time>
      </trkpt>
      <trkpt lat="48.16113" lon="-3.85689">
        <ele>50.2</ele>
        <time>2020-06-08T10:22:52Z</time>
      </trkpt>
      <trkpt lat="48.16113" lon="-3.85692">
        <ele>50.2</ele>
        <time>2020-06-08T10:22:53Z</time>
      </trkpt>
      <trkpt lat="48.16113" lon="-3.85696">
        <ele>50.3</ele>
        <time>2020-06-08T10:22:54Z</time>
      </trkpt>
      <trkpt lat="48.16113" lon="-3.85701">
        <ele>50.4</ele>
        <time>2020-06-08T10:22:55Z</time>
      </trkpt>
      <trkpt lat="48.16113" lon="-3.85705">
        <ele>50.5</ele>
        <time>2020-06-08T10:22:56Z</time>
      </trkpt>
      <trkpt lat="48.16113" lon="-3.85711">
        <ele>50.6</ele>
        <time>2020-06-08T10:22:57Z</time>
      </trkpt>
      <trkpt lat="48.16113" lon="-3.85713">
        <ele>50.6</ele>
        <time>2020-06-08T10:22:58Z</time>
      </trkpt>
      <trkpt lat="48.16113" lon="-3.85718">
        <ele>50.7</ele>
        <time>2020-06-08T10:22:59Z</time>
      </trkpt>
      <trkpt lat="48.16114" lon="-3.85722">
        <ele>50.8</ele>
        <time>2020-06-08T10:23:00Z</time>
      </trkpt>
      <trkpt lat="48.16115" lon="-3.85727">
        <ele>50.9</ele>
        <time>2020-06-08T10:23:01Z</time>
      </trkpt>
      <trkpt lat="48.16115" lon="-3.85732">
        <ele>51</ele>
        <time>2020-06-08T10:23:02Z</time>
      </trkpt>
      <trkpt lat="48.16116" lon="-3.85736">
        <ele>51.1</ele>
        <time>2020-06-08T10:23:03Z</time>
      </trkpt>
      <trkpt lat="48.16116" lon="-3.8574">
        <ele>51.2</ele>
        <time>2020-06-08T10:23:04Z</time>
      </trkpt>
      <trkpt lat="48.16116" lon="-3.85746">
        <ele>51.3</ele>
        <time>2020-06-08T10:23:05Z</time>
      </trkpt>
      <trkpt lat="48.16116" lon="-3.85748">
        <ele>51.4</ele>
        <time>2020-06-08T10:23:06Z</time>
      </trkpt>
      <trkpt lat="48.16117" lon="-3.85754">
        <ele>51.5</ele>
        <time>2020-06-08T10:23:07Z</time>
      </trkpt>
      <trkpt lat="48.16118" lon="-3.85756">
        <ele>51.5</ele>
        <time>2020-06-08T10:23:08Z</time>
      </trkpt>
      <trkpt lat="48.16117" lon="-3.85761">
        <ele>51.6</ele>
        <time>2020-06-08T10:23:09Z</time>
      </trkpt>
      <trkpt lat="48.16117" lon="-3.85764">
        <ele>51.7</ele>
        <time>2020-06-08T10:23:10Z</time>
      </trkpt>
      <trkpt lat="48.16118" lon="-3.85769">
        <ele>51.8</ele>
        <time>2020-06-08T10:23:11Z</time>
      </trkpt>
      <trkpt lat="48.16118" lon="-3.85771">
        <ele>51.8</ele>
        <time>2020-06-08T10:23:12Z</time>
      </trkpt>
      <trkpt lat="48.16119" lon="-3.85775">
        <ele>51.9</ele>
        <time>2020-06-08T10:23:13Z</time>
      </trkpt>
      <trkpt lat="48.1612" lon="-3.8578">
        <ele>52</ele>
        <time>2020-06-08T10:23:14Z</time>
      </trkpt>
      <trkpt lat="48.16121" lon="-3.85784">
        <ele>52.1</ele>
        <time>2020-06-08T10:23:15Z</time>
      </trkpt>
      <trkpt lat="48.16122" lon="-3.85789">
        <ele>52.3</ele>
        <time>2020-06-08T10:23:16Z</time>
      </trkpt>
      <trkpt lat="48.16122" lon="-3.85795">
        <ele>52.4</ele>
        <time>2020-06-08T10:23:17Z</time>
      </trkpt>
      <trkpt lat="48.16122" lon="-3.85801">
        <ele>52.5</ele>
        <time>2020-06-08T10:23:18Z</time>
      </trkpt>
      <trkpt lat="48.16123" lon="-3.85806">
        <ele>52.7</ele>
        <time>2020-06-08T10:23:19Z</time>
      </trkpt>
      <trkpt lat="48.16124" lon="-3.8581">
        <ele>52.8</ele>
        <time>2020-06-08T10:23:20Z</time>
      </trkpt>
      <trkpt lat="48.16124" lon="-3.85815">
        <ele>52.9</ele>
        <time>2020-06-08T10:23:21Z</time>
      </trkpt>
      <trkpt lat="48.16124" lon="-3.8582">
        <ele>53</ele>
        <time>2020-06-08T10:23:22Z</time>
      </trkpt>
      <trkpt lat="48.16124" lon="-3.85825">
        <ele>53.2</ele>
        <time>2020-06-08T10:23:23Z</time>
      </trkpt>
      <trkpt lat="48.16125" lon="-3.8583">
        <ele>53.4</ele>
        <time>2020-06-08T10:23:24Z</time>
      </trkpt>
      <trkpt lat="48.16126" lon="-3.85835">
        <ele>53.5</ele>
        <time>2020-06-08T10:23:25Z</time>
      </trkpt>
      <trkpt lat="48.16126" lon="-3.85839">
        <ele>53.7</ele>
        <time>2020-06-08T10:23:26Z</time>
      </trkpt>
      <trkpt lat="48.16126" lon="-3.85843">
        <ele>53.8</ele>
        <time>2020-06-08T10:23:27Z</time>
      </trkpt>
      <trkpt lat="48.16127" lon="-3.85848">
        <ele>54</ele>
        <time>2020-06-08T10:23:28Z</time>
      </trkpt>
      <trkpt lat="48.16126" lon="-3.85852">
        <ele>54.1</ele>
        <time>2020-06-08T10:23:29Z</time>
      </trkpt>
      <trkpt lat="48.16126" lon="-3.85858">
        <ele>54.2</ele>
        <time>2020-06-08T10:23:30Z</time>
      </trkpt>
      <trkpt lat="48.16125" lon="-3.85863">
        <ele>54.4</ele>
        <time>2020-06-08T10:23:31Z</time>
      </trkpt>
      <trkpt lat="48.16124" lon="-3.85869">
        <ele>54.5</ele>
        <time>2020-06-08T10:23:32Z</time>
      </trkpt>
      <trkpt lat="48.16124" lon="-3.85873">
        <ele>54.7</ele>
        <time>2020-06-08T10:23:33Z</time>
      </trkpt>
      <trkpt lat="48.16124" lon="-3.85878">
        <ele>54.8</ele>
        <time>2020-06-08T10:23:34Z</time>
      </trkpt>
      <trkpt lat="48.16123" lon="-3.85884">
        <ele>55</ele>
        <time>2020-06-08T10:23:35Z</time>
      </trkpt>
      <trkpt lat="48.16123" lon="-3.85889">
        <ele>55.2</ele>
        <time>2020-06-08T10:23:36Z</time>
      </trkpt>
      <trkpt lat="48.16123" lon="-3.85894">
        <ele>55.3</ele>
        <time>2020-06-08T10:23:37Z</time>
      </trkpt>
      <trkpt lat="48.16124" lon="-3.859">
        <ele>55.5</ele>
        <time>2020-06-08T10:23:38Z</time>
      </trkpt>
      <trkpt lat="48.16124" lon="-3.85905">
        <ele>55.7</ele>
        <time>2020-06-08T10:23:39Z</time>
      </trkpt>
      <trkpt lat="48.16124" lon="-3.8591">
        <ele>55.9</ele>
        <time>2020-06-08T10:23:40Z</time>
      </trkpt>
      <trkpt lat="48.16124" lon="-3.85915">
        <ele>56.1</ele>
        <time>2020-06-08T10:23:41Z</time>
      </trkpt>
      <trkpt lat="48.16124" lon="-3.8592">
        <ele>56.3</ele>
        <time>2020-06-08T10:23:42Z</time>
      </trkpt>
      <trkpt lat="48.16124" lon="-3.85925">
        <ele>56.5</ele>
        <time>2020-06-08T10:23:43Z</time>
      </trkpt>
      <trkpt lat="48.16124" lon="-3.8593">
        <ele>56.6</ele>
        <time>2020-06-08T10:23:44Z</time>
      </trkpt>
      <trkpt lat="48.16126" lon="-3.85933">
        <ele>56.8</ele>
        <time>2020-06-08T10:23:45Z</time>
      </trkpt>
      <trkpt lat="48.16126" lon="-3.85938">
        <ele>56.9</ele>
        <time>2020-06-08T10:23:46Z</time>
      </trkpt>
      <trkpt lat="48.16126" lon="-3.85942">
        <ele>57.1</ele>
        <time>2020-06-08T10:23:47Z</time>
      </trkpt>
      <trkpt lat="48.16125" lon="-3.85948">
        <ele>57.3</ele>
        <time>2020-06-08T10:23:48Z</time>
      </trkpt>
      <trkpt lat="48.16125" lon="-3.8595">
        <ele>57.4</ele>
        <time>2020-06-08T10:23:49Z</time>
      </trkpt>
      <trkpt lat="48.16124" lon="-3.85956">
        <ele>57.7</ele>
        <time>2020-06-08T10:23:50Z</time>
      </trkpt>
      <trkpt lat="48.16124" lon="-3.85958">
        <ele>57.8</ele>
        <time>2020-06-08T10:23:51Z</time>
      </trkpt>
      <trkpt lat="48.16123" lon="-3.85962">
        <ele>58</ele>
        <time>2020-06-08T10:23:52Z</time>
      </trkpt>
      <trkpt lat="48.16122" lon="-3.85966">
        <ele>58.2</ele>
        <time>2020-06-08T10:23:53Z</time>
      </trkpt>
      <trkpt lat="48.16123" lon="-3.85971">
        <ele>58.4</ele>
        <time>2020-06-08T10:23:54Z</time>
      </trkpt>
      <trkpt lat="48.16122" lon="-3.85976">
        <ele>58.6</ele>
        <time>2020-06-08T10:23:55Z</time>
      </trkpt>
      <trkpt lat="48.16122" lon="-3.85978">
        <ele>58.7</ele>
        <time>2020-06-08T10:23:56Z</time>
      </trkpt>
      <trkpt lat="48.16121" lon="-3.85983">
        <ele>59</ele>
        <time>2020-06-08T10:23:57Z</time>
      </trkpt>
      <trkpt lat="48.16122" lon="-3.85988">
        <ele>59.2</ele>
        <time>2020-06-08T10:23:58Z</time>
      </trkpt>
      <trkpt lat="48.16121" lon="-3.85992">
        <ele>59.4</ele>
        <time>2020-06-08T10:23:59Z</time>
      </trkpt>
      <trkpt lat="48.16121" lon="-3.85998">
        <ele>59.7</ele>
        <time>2020-06-08T10:24:00Z</time>
      </trkpt>
      <trkpt lat="48.16121" lon="-3.86">
        <ele>59.8</ele>
        <time>2020-06-08T10:24:01Z</time>
      </trkpt>
      <trkpt lat="48.1612" lon="-3.86004">
        <ele>60</ele>
        <time>2020-06-08T10:24:02Z</time>
      </trkpt>
      <trkpt lat="48.16121" lon="-3.86009">
        <ele>60.2</ele>
        <time>2020-06-08T10:24:03Z</time>
      </trkpt>
      <trkpt lat="48.1612" lon="-3.86015">
        <ele>60.5</ele>
        <time>2020-06-08T10:24:04Z</time>
      </trkpt>
      <trkpt lat="48.1612" lon="-3.86017">
        <ele>60.5</ele>
        <time>2020-06-08T10:24:05Z</time>
      </trkpt>
      <trkpt lat="48.16119" lon="-3.86023">
        <ele>60.8</ele>
        <time>2020-06-08T10:24:06Z</time>
      </trkpt>
      <trkpt lat="48.16119" lon="-3.86026">
        <ele>60.9</ele>
        <time>2020-06-08T10:24:07Z</time>
      </trkpt>
      <trkpt lat="48.16119" lon="-3.86032">
        <ele>61.1</ele>
        <time>2020-06-08T10:24:08Z</time>
      </trkpt>
      <trkpt lat="48.16119" lon="-3.86034">
        <ele>61.2</ele>
        <time>2020-06-08T10:24:09Z</time>
      </trkpt>
      <trkpt lat="48.16119" lon="-3.86038">
        <ele>61.4</ele>
        <time>2020-06-08T10:24:10Z</time>
      </trkpt>
      <trkpt lat="48.16118" lon="-3.86043">
        <ele>61.6</ele>
        <time>2020-06-08T10:24:11Z</time>
      </trkpt>
      <trkpt lat="48.16118" lon="-3.86044">
        <ele>61.6</ele>
        <time>2020-06-08T10:24:12Z</time>
      </trkpt>
      <trkpt lat="48.16118" lon="-3.8605">
        <ele>61.8</ele>
        <time>2020-06-08T10:24:13Z</time>
      </trkpt>
      <trkpt lat="48.16118" lon="-3.86052">
        <ele>61.9</ele>
        <time>2020-06-08T10:24:14Z</time>
      </trkpt>
      <trkpt lat="48.16118" lon="-3.86057">
        <ele>62</ele>
        <time>2020-06-08T10:24:15Z</time>
      </trkpt>
      <trkpt lat="48.16117" lon="-3.86058">
        <ele>62</ele>
        <time>2020-06-08T10:24:16Z</time>
      </trkpt>
      <trkpt lat="48.16118" lon="-3.86059">
        <ele>62</ele>
        <time>2020-06-08T10:24:17Z</time>
      </trkpt>
      <trkpt lat="48.16119" lon="-3.86062">
        <ele>62.1</ele>
        <time>2020-06-08T10:24:18Z</time>
      </trkpt>
      <trkpt lat="48.16119" lon="-3.86062">
        <ele>62.1</ele>
        <time>2020-06-08T10:24:19Z</time>
      </trkpt>
      <trkpt lat="48.16119" lon="-3.86064">
        <ele>62.1</ele>
        <time>2020-06-08T10:24:20Z</time>
      </trkpt>
      <trkpt lat="48.16119" lon="-3.86064">
        <ele>62.2</ele>
        <time>2020-06-08T10:24:21Z</time>
      </trkpt>
      <trkpt lat="48.16118" lon="-3.86064">
        <ele>62.1</ele>
        <time>2020-06-08T10:24:22Z</time>
      </trkpt>
      <trkpt lat="48.16118" lon="-3.86065">
        <ele>62.1</ele>
        <time>2020-06-08T10:24:23Z</time>
      </trkpt>
      <trkpt lat="48.16118" lon="-3.86065">
        <ele>62.1</ele>
        <time>2020-06-08T10:24:24Z</time>
      </trkpt>
      <trkpt lat="48.16118" lon="-3.86066">
        <ele>62</ele>
        <time>2020-06-08T10:24:25Z</time>
      </trkpt>
      <trkpt lat="48.16118" lon="-3.86066">
        <ele>62</ele>
        <time>2020-06-08T10:24:26Z</time>
      </trkpt>
      <trkpt lat="48.16118" lon="-3.86067">
        <ele>62</ele>
        <time>2020-06-08T10:24:27Z</time>
      </trkpt>
      <trkpt lat="48.16119" lon="-3.86068">
        <ele>61.9</ele>
        <time>2020-06-08T10:24:28Z</time>
      </trkpt>
      <trkpt lat="48.1612" lon="-3.86068">
        <ele>61.8</ele>
        <time>2020-06-08T10:24:29Z</time>
      </trkpt>
      <trkpt lat="48.16121" lon="-3.86069">
        <ele>61.8</ele>
        <time>2020-06-08T10:24:30Z</time>
      </trkpt>
      <trkpt lat="48.16121" lon="-3.8607">
        <ele>61.7</ele>
        <time>2020-06-08T10:24:31Z</time>
      </trkpt>
      <trkpt lat="48.16122" lon="-3.8607">
        <ele>61.7</ele>
        <time>2020-06-08T10:24:32Z</time>
      </trkpt>
      <trkpt lat="48.16122" lon="-3.86071">
        <ele>61.6</ele>
        <time>2020-06-08T10:24:33Z</time>
      </trkpt>
      <trkpt lat="48.16123" lon="-3.86072">
        <ele>61.6</ele>
        <time>2020-06-08T10:24:34Z</time>
      </trkpt>
      <trkpt lat="48.16124" lon="-3.86073">
        <ele>61.5</ele>
        <time>2020-06-08T10:24:35Z</time>
      </trkpt>
      <trkpt lat="48.16124" lon="-3.86073">
        <ele>61.5</ele>
        <time>2020-06-08T10:24:36Z</time>
      </trkpt>
      <trkpt lat="48.16125" lon="-3.86074">
        <ele>61.4</ele>
        <time>2020-06-08T10:24:37Z</time>
      </trkpt>
      <trkpt lat="48.16125" lon="-3.86075">
        <ele>61.3</ele>
        <time>2020-06-08T10:24:38Z</time>
      </trkpt>
      <trkpt lat="48.16126" lon="-3.86075">
        <ele>61.3</ele>
        <time>2020-06-08T10:25:10Z</time>
      </trkpt>
      <trkpt lat="48.16127" lon="-3.86076">
        <ele>61.2</ele>
        <time>2020-06-08T10:25:11Z</time>
      </trkpt>
      <trkpt lat="48.1613" lon="-3.86076">
        <ele>61</ele>
        <time>2020-06-08T10:25:12Z</time>
      </trkpt>
      <trkpt lat="48.16133" lon="-3.86076">
        <ele>60.7</ele>
        <time>2020-06-08T10:25:13Z</time>
      </trkpt>
      <trkpt lat="48.16136" lon="-3.86075">
        <ele>60.5</ele>
        <time>2020-06-08T10:25:14Z</time>
      </trkpt>
      <trkpt lat="48.16139" lon="-3.86074">
        <ele>60.2</ele>
        <time>2020-06-08T10:25:15Z</time>
      </trkpt>
      <trkpt lat="48.16142" lon="-3.86075">
        <ele>60</ele>
        <time>2020-06-08T10:25:16Z</time>
      </trkpt>
      <trkpt lat="48.16146" lon="-3.86076">
        <ele>59.7</ele>
        <time>2020-06-08T10:25:17Z</time>
      </trkpt>
      <trkpt lat="48.1615" lon="-3.86076">
        <ele>59.3</ele>
        <time>2020-06-08T10:25:18Z</time>
      </trkpt>
      <trkpt lat="48.16156" lon="-3.86076">
        <ele>58.8</ele>
        <time>2020-06-08T10:25:19Z</time>
      </trkpt>
      <trkpt lat="48.16163" lon="-3.86077">
        <ele>58.2</ele>
        <time>2020-06-08T10:25:20Z</time>
      </trkpt>
      <trkpt lat="48.16171" lon="-3.86077">
        <ele>57.5</ele>
        <time>2020-06-08T10:25:21Z</time>
      </trkpt>
      <trkpt lat="48.16179" lon="-3.86078">
        <ele>56.9</ele>
        <time>2020-06-08T10:25:22Z</time>
      </trkpt>
      <trkpt lat="48.16187" lon="-3.86079">
        <ele>56.1</ele>
        <time>2020-06-08T10:25:23Z</time>
      </trkpt>
      <trkpt lat="48.16197" lon="-3.8608">
        <ele>55.2</ele>
        <time>2020-06-08T10:25:24Z</time>
      </trkpt>
      <trkpt lat="48.16207" lon="-3.86082">
        <ele>54.3</ele>
        <time>2020-06-08T10:25:25Z</time>
      </trkpt>
      <trkpt lat="48.16218" lon="-3.86084">
        <ele>53.3</ele>
        <time>2020-06-08T10:25:26Z</time>
      </trkpt>
      <trkpt lat="48.16228" lon="-3.86085">
        <ele>52.5</ele>
        <time>2020-06-08T10:25:27Z</time>
      </trkpt>
      <trkpt lat="48.16238" lon="-3.86086">
        <ele>51.5</ele>
        <time>2020-06-08T10:25:28Z</time>
      </trkpt>
      <trkpt lat="48.16249" lon="-3.86087">
        <ele>50.6</ele>
        <time>2020-06-08T10:25:29Z</time>
      </trkpt>
      <trkpt lat="48.16259" lon="-3.86089">
        <ele>49.6</ele>
        <time>2020-06-08T10:25:30Z</time>
      </trkpt>
      <trkpt lat="48.16269" lon="-3.86092">
        <ele>48.6</ele>
        <time>2020-06-08T10:25:31Z</time>
      </trkpt>
      <trkpt lat="48.16279" lon="-3.86096">
        <ele>47.5</ele>
        <time>2020-06-08T10:25:32Z</time>
      </trkpt>
      <trkpt lat="48.16289" lon="-3.861">
        <ele>46.5</ele>
        <time>2020-06-08T10:25:33Z</time>
      </trkpt>
      <trkpt lat="48.16299" lon="-3.86106">
        <ele>45.3</ele>
        <time>2020-06-08T10:25:34Z</time>
      </trkpt>
      <trkpt lat="48.1631" lon="-3.86111">
        <ele>44.2</ele>
        <time>2020-06-08T10:25:35Z</time>
      </trkpt>
      <trkpt lat="48.1632" lon="-3.86116">
        <ele>43.1</ele>
        <time>2020-06-08T10:25:36Z</time>
      </trkpt>
      <trkpt lat="48.16331" lon="-3.86122">
        <ele>42.2</ele>
        <time>2020-06-08T10:25:37Z</time>
      </trkpt>
      <trkpt lat="48.16342" lon="-3.86127">
        <ele>41.3</ele>
        <time>2020-06-08T10:25:38Z</time>
      </trkpt>
      <trkpt lat="48.16352" lon="-3.86133">
        <ele>40.5</ele>
        <time>2020-06-08T10:25:39Z</time>
      </trkpt>
      <trkpt lat="48.16363" lon="-3.86139">
        <ele>40.1</ele>
        <time>2020-06-08T10:25:40Z</time>
      </trkpt>
      <trkpt lat="48.16373" lon="-3.86145">
        <ele>39.9</ele>
        <time>2020-06-08T10:25:41Z</time>
      </trkpt>
      <trkpt lat="48.16384" lon="-3.8615">
        <ele>39.6</ele>
        <time>2020-06-08T10:25:42Z</time>
      </trkpt>
      <trkpt lat="48.16394" lon="-3.86155">
        <ele>39.4</ele>
        <time>2020-06-08T10:25:43Z</time>
      </trkpt>
      <trkpt lat="48.16404" lon="-3.86161">
        <ele>39.3</ele>
        <time>2020-06-08T10:25:44Z</time>
      </trkpt>
      <trkpt lat="48.16414" lon="-3.86166">
        <ele>39.2</ele>
        <time>2020-06-08T10:25:45Z</time>
      </trkpt>
      <trkpt lat="48.16422" lon="-3.86171">
        <ele>39.2</ele>
        <time>2020-06-08T10:25:46Z</time>
      </trkpt>
      <trkpt lat="48.16429" lon="-3.86175">
        <ele>39.2</ele>
        <time>2020-06-08T10:25:47Z</time>
      </trkpt>
      <trkpt lat="48.16436" lon="-3.86177">
        <ele>38.1</ele>
        <time>2020-06-08T10:25:48Z</time>
      </trkpt>
      <trkpt lat="48.16443" lon="-3.86176">
        <ele>37.9</ele>
        <time>2020-06-08T10:25:49Z</time>
      </trkpt>
      <trkpt lat="48.1645" lon="-3.86173">
        <ele>37.8</ele>
        <time>2020-06-08T10:25:50Z</time>
      </trkpt>
      <trkpt lat="48.16456" lon="-3.86169">
        <ele>37.6</ele>
        <time>2020-06-08T10:25:51Z</time>
      </trkpt>
      <trkpt lat="48.16462" lon="-3.86164">
        <ele>37.2</ele>
        <time>2020-06-08T10:25:52Z</time>
      </trkpt>
      <trkpt lat="48.16467" lon="-3.8616">
        <ele>37.3</ele>
        <time>2020-06-08T10:25:53Z</time>
      </trkpt>
      <trkpt lat="48.16473" lon="-3.86157">
        <ele>37.3</ele>
        <time>2020-06-08T10:25:54Z</time>
      </trkpt>
      <trkpt lat="48.16477" lon="-3.86155">
        <ele>37.4</ele>
        <time>2020-06-08T10:25:55Z</time>
      </trkpt>
      <trkpt lat="48.16482" lon="-3.86154">
        <ele>37.4</ele>
        <time>2020-06-08T10:25:56Z</time>
      </trkpt>
      <trkpt lat="48.16485" lon="-3.86152">
        <ele>37.4</ele>
        <time>2020-06-08T10:25:57Z</time>
      </trkpt>
      <trkpt lat="48.16488" lon="-3.8615">
        <ele>37.4</ele>
        <time>2020-06-08T10:25:58Z</time>
      </trkpt>
      <trkpt lat="48.16492" lon="-3.86149">
        <ele>37.4</ele>
        <time>2020-06-08T10:25:59Z</time>
      </trkpt>
      <trkpt lat="48.16495" lon="-3.86148">
        <ele>37.4</ele>
        <time>2020-06-08T10:26:00Z</time>
      </trkpt>
      <trkpt lat="48.16497" lon="-3.86146">
        <ele>37.4</ele>
        <time>2020-06-08T10:26:01Z</time>
      </trkpt>
      <trkpt lat="48.16501" lon="-3.86146">
        <ele>37.4</ele>
        <time>2020-06-08T10:26:02Z</time>
      </trkpt>
      <trkpt lat="48.16504" lon="-3.86144">
        <ele>37.4</ele>
        <time>2020-06-08T10:26:03Z</time>
      </trkpt>
      <trkpt lat="48.16508" lon="-3.86143">
        <ele>37.4</ele>
        <time>2020-06-08T10:26:04Z</time>
      </trkpt>
      <trkpt lat="48.16511" lon="-3.86142">
        <ele>37.4</ele>
        <time>2020-06-08T10:26:05Z</time>
      </trkpt>
      <trkpt lat="48.16513" lon="-3.86141">
        <ele>37.3</ele>
        <time>2020-06-08T10:26:06Z</time>
      </trkpt>
      <trkpt lat="48.16516" lon="-3.86141">
        <ele>37.1</ele>
        <time>2020-06-08T10:26:07Z</time>
      </trkpt>
      <trkpt lat="48.16519" lon="-3.86141">
        <ele>36.9</ele>
        <time>2020-06-08T10:26:08Z</time>
      </trkpt>
      <trkpt lat="48.16522" lon="-3.86141">
        <ele>36.7</ele>
        <time>2020-06-08T10:26:09Z</time>
      </trkpt>
      <trkpt lat="48.16525" lon="-3.86139">
        <ele>36.6</ele>
        <time>2020-06-08T10:26:10Z</time>
      </trkpt>
      <trkpt lat="48.16527" lon="-3.86136">
        <ele>36.4</ele>
        <time>2020-06-08T10:26:11Z</time>
      </trkpt>
      <trkpt lat="48.1653" lon="-3.86134">
        <ele>36.2</ele>
        <time>2020-06-08T10:26:12Z</time>
      </trkpt>
      <trkpt lat="48.16533" lon="-3.86132">
        <ele>36</ele>
        <time>2020-06-08T10:26:13Z</time>
      </trkpt>
      <trkpt lat="48.16536" lon="-3.86131">
        <ele>35.8</ele>
        <time>2020-06-08T10:26:14Z</time>
      </trkpt>
      <trkpt lat="48.1654" lon="-3.8613">
        <ele>35.6</ele>
        <time>2020-06-08T10:26:15Z</time>
      </trkpt>
      <trkpt lat="48.16543" lon="-3.86129">
        <ele>35.4</ele>
        <time>2020-06-08T10:26:16Z</time>
      </trkpt>
      <trkpt lat="48.16547" lon="-3.86128">
        <ele>35.3</ele>
        <time>2020-06-08T10:26:17Z</time>
      </trkpt>
      <trkpt lat="48.16551" lon="-3.86127">
        <ele>35.2</ele>
        <time>2020-06-08T10:26:18Z</time>
      </trkpt>
      <trkpt lat="48.16554" lon="-3.86126">
        <ele>35.2</ele>
        <time>2020-06-08T10:26:19Z</time>
      </trkpt>
      <trkpt lat="48.16558" lon="-3.86124">
        <ele>35.2</ele>
        <time>2020-06-08T10:26:20Z</time>
      </trkpt>
      <trkpt lat="48.16561" lon="-3.86123">
        <ele>35.1</ele>
        <time>2020-06-08T10:26:21Z</time>
      </trkpt>
      <trkpt lat="48.16565" lon="-3.86122">
        <ele>35.1</ele>
        <time>2020-06-08T10:26:22Z</time>
      </trkpt>
      <trkpt lat="48.16569" lon="-3.86122">
        <ele>35</ele>
        <time>2020-06-08T10:26:23Z</time>
      </trkpt>
      <trkpt lat="48.16573" lon="-3.8612">
        <ele>35</ele>
        <time>2020-06-08T10:26:24Z</time>
      </trkpt>
      <trkpt lat="48.16577" lon="-3.86117">
        <ele>35</ele>
        <time>2020-06-08T10:26:25Z</time>
      </trkpt>
      <trkpt lat="48.16582" lon="-3.86115">
        <ele>35</ele>
        <time>2020-06-08T10:26:26Z</time>
      </trkpt>
      <trkpt lat="48.16586" lon="-3.86113">
        <ele>35</ele>
        <time>2020-06-08T10:26:27Z</time>
      </trkpt>
      <trkpt lat="48.16591" lon="-3.86111">
        <ele>35.1</ele>
        <time>2020-06-08T10:26:28Z</time>
      </trkpt>
      <trkpt lat="48.16596" lon="-3.8611">
        <ele>35.1</ele>
        <time>2020-06-08T10:26:29Z</time>
      </trkpt>
      <trkpt lat="48.16601" lon="-3.86109">
        <ele>35.1</ele>
        <time>2020-06-08T10:26:30Z</time>
      </trkpt>
      <trkpt lat="48.16606" lon="-3.86107">
        <ele>35.1</ele>
        <time>2020-06-08T10:26:31Z</time>
      </trkpt>
      <trkpt lat="48.1661" lon="-3.86105">
        <ele>35.2</ele>
        <time>2020-06-08T10:26:32Z</time>
      </trkpt>
      <trkpt lat="48.16615" lon="-3.86104">
        <ele>35.2</ele>
        <time>2020-06-08T10:26:33Z</time>
      </trkpt>
      <trkpt lat="48.16619" lon="-3.86102">
        <ele>35.2</ele>
        <time>2020-06-08T10:26:34Z</time>
      </trkpt>
      <trkpt lat="48.16623" lon="-3.86101">
        <ele>35.2</ele>
        <time>2020-06-08T10:26:35Z</time>
      </trkpt>
      <trkpt lat="48.16627" lon="-3.86099">
        <ele>35.2</ele>
        <time>2020-06-08T10:26:36Z</time>
      </trkpt>
      <trkpt lat="48.1663" lon="-3.86098">
        <ele>35.2</ele>
        <time>2020-06-08T10:26:37Z</time>
      </trkpt>
      <trkpt lat="48.16634" lon="-3.86097">
        <ele>35.2</ele>
        <time>2020-06-08T10:26:38Z</time>
      </trkpt>
      <trkpt lat="48.16638" lon="-3.86095">
        <ele>35.3</ele>
        <time>2020-06-08T10:26:39Z</time>
      </trkpt>
      <trkpt lat="48.16642" lon="-3.86093">
        <ele>35.3</ele>
        <time>2020-06-08T10:26:40Z</time>
      </trkpt>
      <trkpt lat="48.16645" lon="-3.8609">
        <ele>35.4</ele>
        <time>2020-06-08T10:26:41Z</time>
      </trkpt>
      <trkpt lat="48.16649" lon="-3.86086">
        <ele>35.4</ele>
        <time>2020-06-08T10:26:42Z</time>
      </trkpt>
      <trkpt lat="48.16653" lon="-3.86083">
        <ele>35.5</ele>
        <time>2020-06-08T10:26:43Z</time>
      </trkpt>
      <trkpt lat="48.16656" lon="-3.8608">
        <ele>35.5</ele>
        <time>2020-06-08T10:26:44Z</time>
      </trkpt>
      <trkpt lat="48.16659" lon="-3.86077">
        <ele>35.6</ele>
        <time>2020-06-08T10:26:45Z</time>
      </trkpt>
      <trkpt lat="48.16663" lon="-3.86074">
        <ele>35.6</ele>
        <time>2020-06-08T10:26:46Z</time>
      </trkpt>
      <trkpt lat="48.16666" lon="-3.86072">
        <ele>35.7</ele>
        <time>2020-06-08T10:26:47Z</time>
      </trkpt>
      <trkpt lat="48.16669" lon="-3.8607">
        <ele>35.8</ele>
        <time>2020-06-08T10:26:48Z</time>
      </trkpt>
      <trkpt lat="48.16672" lon="-3.86068">
        <ele>35.9</ele>
        <time>2020-06-08T10:26:49Z</time>
      </trkpt>
      <trkpt lat="48.16675" lon="-3.86067">
        <ele>36</ele>
        <time>2020-06-08T10:26:50Z</time>
      </trkpt>
      <trkpt lat="48.16678" lon="-3.86066">
        <ele>36.1</ele>
        <time>2020-06-08T10:26:51Z</time>
      </trkpt>
      <trkpt lat="48.16682" lon="-3.86066">
        <ele>36.2</ele>
        <time>2020-06-08T10:26:52Z</time>
      </trkpt>
      <trkpt lat="48.16683" lon="-3.86067">
        <ele>36.4</ele>
        <time>2020-06-08T10:26:53Z</time>
      </trkpt>
      <trkpt lat="48.16687" lon="-3.86068">
        <ele>36.5</ele>
        <time>2020-06-08T10:26:54Z</time>
      </trkpt>
      <trkpt lat="48.16688" lon="-3.86068">
        <ele>36.5</ele>
        <time>2020-06-08T10:26:55Z</time>
      </trkpt>
      <trkpt lat="48.16691" lon="-3.86069">
        <ele>36.6</ele>
        <time>2020-06-08T10:26:56Z</time>
      </trkpt>
      <trkpt lat="48.16694" lon="-3.8607">
        <ele>36.7</ele>
        <time>2020-06-08T10:26:57Z</time>
      </trkpt>
      <trkpt lat="48.16697" lon="-3.86071">
        <ele>36.8</ele>
        <time>2020-06-08T10:26:58Z</time>
      </trkpt>
      <trkpt lat="48.167" lon="-3.86072">
        <ele>36.8</ele>
        <time>2020-06-08T10:26:59Z</time>
      </trkpt>
      <trkpt lat="48.16703" lon="-3.86075">
        <ele>36.9</ele>
        <time>2020-06-08T10:27:00Z</time>
      </trkpt>
      <trkpt lat="48.16705" lon="-3.86078">
        <ele>36.9</ele>
        <time>2020-06-08T10:27:01Z</time>
      </trkpt>
      <trkpt lat="48.16706" lon="-3.86083">
        <ele>37</ele>
        <time>2020-06-08T10:27:02Z</time>
      </trkpt>
      <trkpt lat="48.16706" lon="-3.86087">
        <ele>36.9</ele>
        <time>2020-06-08T10:27:03Z</time>
      </trkpt>
      <trkpt lat="48.16707" lon="-3.86092">
        <ele>36.9</ele>
        <time>2020-06-08T10:27:04Z</time>
      </trkpt>
      <trkpt lat="48.16708" lon="-3.86096">
        <ele>36.9</ele>
        <time>2020-06-08T10:27:05Z</time>
      </trkpt>
      <trkpt lat="48.16709" lon="-3.861">
        <ele>36.9</ele>
        <time>2020-06-08T10:27:06Z</time>
      </trkpt>
      <trkpt lat="48.16711" lon="-3.86105">
        <ele>36.9</ele>
        <time>2020-06-08T10:27:07Z</time>
      </trkpt>
      <trkpt lat="48.16712" lon="-3.86107">
        <ele>36.8</ele>
        <time>2020-06-08T10:27:08Z</time>
      </trkpt>
      <trkpt lat="48.16714" lon="-3.8611">
        <ele>36.8</ele>
        <time>2020-06-08T10:27:09Z</time>
      </trkpt>
      <trkpt lat="48.16717" lon="-3.86114">
        <ele>36.8</ele>
        <time>2020-06-08T10:27:10Z</time>
      </trkpt>
      <trkpt lat="48.1672" lon="-3.86117">
        <ele>36.8</ele>
        <time>2020-06-08T10:27:11Z</time>
      </trkpt>
      <trkpt lat="48.16723" lon="-3.8612">
        <ele>36.8</ele>
        <time>2020-06-08T10:27:12Z</time>
      </trkpt>
      <trkpt lat="48.16726" lon="-3.86123">
        <ele>36.9</ele>
        <time>2020-06-08T10:27:13Z</time>
      </trkpt>
      <trkpt lat="48.1673" lon="-3.86125">
        <ele>36.9</ele>
        <time>2020-06-08T10:27:14Z</time>
      </trkpt>
      <trkpt lat="48.16733" lon="-3.86127">
        <ele>37</ele>
        <time>2020-06-08T10:27:15Z</time>
      </trkpt>
      <trkpt lat="48.16737" lon="-3.86129">
        <ele>37</ele>
        <time>2020-06-08T10:27:16Z</time>
      </trkpt>
      <trkpt lat="48.1674" lon="-3.86131">
        <ele>37.1</ele>
        <time>2020-06-08T10:27:17Z</time>
      </trkpt>
      <trkpt lat="48.16744" lon="-3.86133">
        <ele>37.2</ele>
        <time>2020-06-08T10:27:18Z</time>
      </trkpt>
      <trkpt lat="48.16747" lon="-3.86136">
        <ele>37.3</ele>
        <time>2020-06-08T10:27:19Z</time>
      </trkpt>
      <trkpt lat="48.1675" lon="-3.86139">
        <ele>37.4</ele>
        <time>2020-06-08T10:27:20Z</time>
      </trkpt>
      <trkpt lat="48.16754" lon="-3.86142">
        <ele>37.5</ele>
        <time>2020-06-08T10:27:21Z</time>
      </trkpt>
      <trkpt lat="48.16757" lon="-3.86144">
        <ele>37.6</ele>
        <time>2020-06-08T10:27:22Z</time>
      </trkpt>
      <trkpt lat="48.16761" lon="-3.86147">
        <ele>37.7</ele>
        <time>2020-06-08T10:27:23Z</time>
      </trkpt>
      <trkpt lat="48.16763" lon="-3.86151">
        <ele>37.7</ele>
        <time>2020-06-08T10:27:24Z</time>
      </trkpt>
      <trkpt lat="48.16766" lon="-3.86155">
        <ele>37.8</ele>
        <time>2020-06-08T10:27:25Z</time>
      </trkpt>
      <trkpt lat="48.16769" lon="-3.86158">
        <ele>37.9</ele>
        <time>2020-06-08T10:27:26Z</time>
      </trkpt>
      <trkpt lat="48.16772" lon="-3.86161">
        <ele>38</ele>
        <time>2020-06-08T10:27:27Z</time>
      </trkpt>
      <trkpt lat="48.16774" lon="-3.86164">
        <ele>38.1</ele>
        <time>2020-06-08T10:27:28Z</time>
      </trkpt>
      <trkpt lat="48.16776" lon="-3.86168">
        <ele>38.2</ele>
        <time>2020-06-08T10:27:29Z</time>
      </trkpt>
      <trkpt lat="48.16779" lon="-3.8617">
        <ele>38.3</ele>
        <time>2020-06-08T10:27:30Z</time>
      </trkpt>
      <trkpt lat="48.16781" lon="-3.86173">
        <ele>38.3</ele>
        <time>2020-06-08T10:27:31Z</time>
      </trkpt>
      <trkpt lat="48.16784" lon="-3.86177">
        <ele>38.5</ele>
        <time>2020-06-08T10:27:32Z</time>
      </trkpt>
      <trkpt lat="48.16785" lon="-3.86178">
        <ele>38.5</ele>
        <time>2020-06-08T10:27:33Z</time>
      </trkpt>
      <trkpt lat="48.16787" lon="-3.86182">
        <ele>38.6</ele>
        <time>2020-06-08T10:27:34Z</time>
      </trkpt>
      <trkpt lat="48.16789" lon="-3.86183">
        <ele>38.6</ele>
        <time>2020-06-08T10:27:35Z</time>
      </trkpt>
      <trkpt lat="48.16791" lon="-3.86186">
        <ele>38.7</ele>
        <time>2020-06-08T10:27:36Z</time>
      </trkpt>
      <trkpt lat="48.16792" lon="-3.86189">
        <ele>38.7</ele>
        <time>2020-06-08T10:27:37Z</time>
      </trkpt>
      <trkpt lat="48.16794" lon="-3.86193">
        <ele>38.8</ele>
        <time>2020-06-08T10:27:38Z</time>
      </trkpt>
      <trkpt lat="48.16796" lon="-3.86196">
        <ele>38.8</ele>
        <time>2020-06-08T10:27:39Z</time>
      </trkpt>
      <trkpt lat="48.16798" lon="-3.86199">
        <ele>38.9</ele>
        <time>2020-06-08T10:27:40Z</time>
      </trkpt>
      <trkpt lat="48.168" lon="-3.86203">
        <ele>38.9</ele>
        <time>2020-06-08T10:27:41Z</time>
      </trkpt>
      <trkpt lat="48.16802" lon="-3.86208">
        <ele>39</ele>
        <time>2020-06-08T10:27:42Z</time>
      </trkpt>
      <trkpt lat="48.16804" lon="-3.86213">
        <ele>39.1</ele>
        <time>2020-06-08T10:27:43Z</time>
      </trkpt>
      <trkpt lat="48.16806" lon="-3.86217">
        <ele>39.1</ele>
        <time>2020-06-08T10:27:44Z</time>
      </trkpt>
      <trkpt lat="48.16808" lon="-3.8622">
        <ele>39.2</ele>
        <time>2020-06-08T10:27:45Z</time>
      </trkpt>
      <trkpt lat="48.1681" lon="-3.86223">
        <ele>39.3</ele>
        <time>2020-06-08T10:27:46Z</time>
      </trkpt>
      <trkpt lat="48.16812" lon="-3.86227">
        <ele>39.3</ele>
        <time>2020-06-08T10:27:47Z</time>
      </trkpt>
      <trkpt lat="48.16814" lon="-3.86231">
        <ele>39.4</ele>
        <time>2020-06-08T10:27:48Z</time>
      </trkpt>
      <trkpt lat="48.16815" lon="-3.86235">
        <ele>39.5</ele>
        <time>2020-06-08T10:27:49Z</time>
      </trkpt>
      <trkpt lat="48.16817" lon="-3.86239">
        <ele>39.5</ele>
        <time>2020-06-08T10:27:50Z</time>
      </trkpt>
      <trkpt lat="48.16818" lon="-3.86244">
        <ele>39.6</ele>
        <time>2020-06-08T10:27:51Z</time>
      </trkpt>
      <trkpt lat="48.16819" lon="-3.86249">
        <ele>39.6</ele>
        <time>2020-06-08T10:27:52Z</time>
      </trkpt>
      <trkpt lat="48.16821" lon="-3.86254">
        <ele>39.7</ele>
        <time>2020-06-08T10:27:53Z</time>
      </trkpt>
      <trkpt lat="48.16822" lon="-3.86259">
        <ele>39.7</ele>
        <time>2020-06-08T10:27:54Z</time>
      </trkpt>
      <trkpt lat="48.16823" lon="-3.86264">
        <ele>39.8</ele>
        <time>2020-06-08T10:27:55Z</time>
      </trkpt>
      <trkpt lat="48.16824" lon="-3.86268">
        <ele>39.8</ele>
        <time>2020-06-08T10:27:56Z</time>
      </trkpt>
      <trkpt lat="48.16825" lon="-3.86273">
        <ele>39.8</ele>
        <time>2020-06-08T10:27:57Z</time>
      </trkpt>
      <trkpt lat="48.16826" lon="-3.86279">
        <ele>39.8</ele>
        <time>2020-06-08T10:27:58Z</time>
      </trkpt>
      <trkpt lat="48.16827" lon="-3.86285">
        <ele>39.9</ele>
        <time>2020-06-08T10:27:59Z</time>
      </trkpt>
      <trkpt lat="48.16827" lon="-3.8629">
        <ele>39.9</ele>
        <time>2020-06-08T10:28:00Z</time>
      </trkpt>
      <trkpt lat="48.16828" lon="-3.86294">
        <ele>39.9</ele>
        <time>2020-06-08T10:28:01Z</time>
      </trkpt>
      <trkpt lat="48.16827" lon="-3.863">
        <ele>39.9</ele>
        <time>2020-06-08T10:28:02Z</time>
      </trkpt>
      <trkpt lat="48.16828" lon="-3.86305">
        <ele>39.9</ele>
        <time>2020-06-08T10:28:03Z</time>
      </trkpt>
      <trkpt lat="48.16828" lon="-3.86311">
        <ele>39.9</ele>
        <time>2020-06-08T10:28:04Z</time>
      </trkpt>
      <trkpt lat="48.16829" lon="-3.86317">
        <ele>39.9</ele>
        <time>2020-06-08T10:28:05Z</time>
      </trkpt>
      <trkpt lat="48.16829" lon="-3.86323">
        <ele>39.9</ele>
        <time>2020-06-08T10:28:06Z</time>
      </trkpt>
      <trkpt lat="48.1683" lon="-3.86329">
        <ele>39.9</ele>
        <time>2020-06-08T10:28:07Z</time>
      </trkpt>
      <trkpt lat="48.16831" lon="-3.86335">
        <ele>39.9</ele>
        <time>2020-06-08T10:28:08Z</time>
      </trkpt>
      <trkpt lat="48.16831" lon="-3.86341">
        <ele>39.9</ele>
        <time>2020-06-08T10:28:09Z</time>
      </trkpt>
      <trkpt lat="48.16832" lon="-3.86347">
        <ele>39.9</ele>
        <time>2020-06-08T10:28:10Z</time>
      </trkpt>
      <trkpt lat="48.16834" lon="-3.86353">
        <ele>40</ele>
        <time>2020-06-08T10:28:11Z</time>
      </trkpt>
      <trkpt lat="48.16834" lon="-3.86358">
        <ele>40</ele>
        <time>2020-06-08T10:28:12Z</time>
      </trkpt>
      <trkpt lat="48.16835" lon="-3.86364">
        <ele>40.1</ele>
        <time>2020-06-08T10:28:13Z</time>
      </trkpt>
      <trkpt lat="48.16836" lon="-3.86369">
        <ele>40.1</ele>
        <time>2020-06-08T10:28:14Z</time>
      </trkpt>
      <trkpt lat="48.16836" lon="-3.86374">
        <ele>40.2</ele>
        <time>2020-06-08T10:28:15Z</time>
      </trkpt>
      <trkpt lat="48.16836" lon="-3.8638">
        <ele>40.2</ele>
        <time>2020-06-08T10:28:16Z</time>
      </trkpt>
      <trkpt lat="48.16837" lon="-3.86386">
        <ele>40.3</ele>
        <time>2020-06-08T10:28:17Z</time>
      </trkpt>
      <trkpt lat="48.16837" lon="-3.86392">
        <ele>40.4</ele>
        <time>2020-06-08T10:28:18Z</time>
      </trkpt>
      <trkpt lat="48.16839" lon="-3.86398">
        <ele>40.5</ele>
        <time>2020-06-08T10:28:19Z</time>
      </trkpt>
      <trkpt lat="48.1684" lon="-3.86404">
        <ele>40.5</ele>
        <time>2020-06-08T10:28:20Z</time>
      </trkpt>
      <trkpt lat="48.16842" lon="-3.86411">
        <ele>40.6</ele>
        <time>2020-06-08T10:28:21Z</time>
      </trkpt>
      <trkpt lat="48.16842" lon="-3.86418">
        <ele>40.7</ele>
        <time>2020-06-08T10:28:22Z</time>
      </trkpt>
      <trkpt lat="48.16843" lon="-3.86424">
        <ele>40.8</ele>
        <time>2020-06-08T10:28:23Z</time>
      </trkpt>
      <trkpt lat="48.16844" lon="-3.8643">
        <ele>40.8</ele>
        <time>2020-06-08T10:28:24Z</time>
      </trkpt>
      <trkpt lat="48.16845" lon="-3.86437">
        <ele>40.9</ele>
        <time>2020-06-08T10:28:25Z</time>
      </trkpt>
      <trkpt lat="48.16846" lon="-3.86443">
        <ele>41</ele>
        <time>2020-06-08T10:28:26Z</time>
      </trkpt>
      <trkpt lat="48.16847" lon="-3.86449">
        <ele>41.1</ele>
        <time>2020-06-08T10:28:27Z</time>
      </trkpt>
      <trkpt lat="48.16847" lon="-3.86456">
        <ele>41.2</ele>
        <time>2020-06-08T10:28:28Z</time>
      </trkpt>
      <trkpt lat="48.16848" lon="-3.86462">
        <ele>41.2</ele>
        <time>2020-06-08T10:28:29Z</time>
      </trkpt>
      <trkpt lat="48.16848" lon="-3.86469">
        <ele>41.3</ele>
        <time>2020-06-08T10:28:30Z</time>
      </trkpt>
      <trkpt lat="48.16849" lon="-3.86475">
        <ele>41.4</ele>
        <time>2020-06-08T10:28:31Z</time>
      </trkpt>
      <trkpt lat="48.1685" lon="-3.86482">
        <ele>41.5</ele>
        <time>2020-06-08T10:28:32Z</time>
      </trkpt>
      <trkpt lat="48.16851" lon="-3.86488">
        <ele>41.6</ele>
        <time>2020-06-08T10:28:33Z</time>
      </trkpt>
      <trkpt lat="48.16852" lon="-3.86494">
        <ele>41.7</ele>
        <time>2020-06-08T10:28:34Z</time>
      </trkpt>
      <trkpt lat="48.16853" lon="-3.865">
        <ele>41.8</ele>
        <time>2020-06-08T10:28:35Z</time>
      </trkpt>
      <trkpt lat="48.16853" lon="-3.86506">
        <ele>41.9</ele>
        <time>2020-06-08T10:28:36Z</time>
      </trkpt>
      <trkpt lat="48.16854" lon="-3.86513">
        <ele>42</ele>
        <time>2020-06-08T10:28:37Z</time>
      </trkpt>
      <trkpt lat="48.16855" lon="-3.86519">
        <ele>42</ele>
        <time>2020-06-08T10:28:38Z</time>
      </trkpt>
      <trkpt lat="48.16857" lon="-3.86525">
        <ele>42.1</ele>
        <time>2020-06-08T10:28:39Z</time>
      </trkpt>
      <trkpt lat="48.16859" lon="-3.86531">
        <ele>42.2</ele>
        <time>2020-06-08T10:28:40Z</time>
      </trkpt>
      <trkpt lat="48.1686" lon="-3.86537">
        <ele>42.3</ele>
        <time>2020-06-08T10:28:41Z</time>
      </trkpt>
      <trkpt lat="48.16861" lon="-3.86542">
        <ele>42.4</ele>
        <time>2020-06-08T10:28:42Z</time>
      </trkpt>
      <trkpt lat="48.16862" lon="-3.86548">
        <ele>42.5</ele>
        <time>2020-06-08T10:28:43Z</time>
      </trkpt>
      <trkpt lat="48.16862" lon="-3.86554">
        <ele>42.7</ele>
        <time>2020-06-08T10:28:44Z</time>
      </trkpt>
      <trkpt lat="48.16863" lon="-3.86559">
        <ele>42.8</ele>
        <time>2020-06-08T10:28:45Z</time>
      </trkpt>
      <trkpt lat="48.16865" lon="-3.86563">
        <ele>43</ele>
        <time>2020-06-08T10:28:46Z</time>
      </trkpt>
      <trkpt lat="48.16867" lon="-3.86567">
        <ele>43.1</ele>
        <time>2020-06-08T10:28:47Z</time>
      </trkpt>
      <trkpt lat="48.16869" lon="-3.8657">
        <ele>43.2</ele>
        <time>2020-06-08T10:28:48Z</time>
      </trkpt>
      <trkpt lat="48.1687" lon="-3.86574">
        <ele>43.4</ele>
        <time>2020-06-08T10:28:49Z</time>
      </trkpt>
      <trkpt lat="48.16872" lon="-3.86578">
        <ele>43.5</ele>
        <time>2020-06-08T10:28:50Z</time>
      </trkpt>
      <trkpt lat="48.16873" lon="-3.86581">
        <ele>43.7</ele>
        <time>2020-06-08T10:28:51Z</time>
      </trkpt>
      <trkpt lat="48.16876" lon="-3.86585">
        <ele>43.9</ele>
        <time>2020-06-08T10:28:52Z</time>
      </trkpt>
      <trkpt lat="48.16877" lon="-3.86586">
        <ele>43.9</ele>
        <time>2020-06-08T10:28:53Z</time>
      </trkpt>
      <trkpt lat="48.16879" lon="-3.86591">
        <ele>44.2</ele>
        <time>2020-06-08T10:28:54Z</time>
      </trkpt>
      <trkpt lat="48.16879" lon="-3.86593">
        <ele>44.3</ele>
        <time>2020-06-08T10:28:55Z</time>
      </trkpt>
      <trkpt lat="48.16881" lon="-3.86596">
        <ele>44.5</ele>
        <time>2020-06-08T10:28:56Z</time>
      </trkpt>
      <trkpt lat="48.16884" lon="-3.86601">
        <ele>44.8</ele>
        <time>2020-06-08T10:28:57Z</time>
      </trkpt>
      <trkpt lat="48.16884" lon="-3.86602">
        <ele>44.8</ele>
        <time>2020-06-08T10:28:58Z</time>
      </trkpt>
      <trkpt lat="48.16886" lon="-3.86607">
        <ele>45.1</ele>
        <time>2020-06-08T10:28:59Z</time>
      </trkpt>
      <trkpt lat="48.16887" lon="-3.86609">
        <ele>45.2</ele>
        <time>2020-06-08T10:29:00Z</time>
      </trkpt>
      <trkpt lat="48.16889" lon="-3.86612">
        <ele>45.4</ele>
        <time>2020-06-08T10:29:01Z</time>
      </trkpt>
      <trkpt lat="48.1689" lon="-3.86615">
        <ele>45.6</ele>
        <time>2020-06-08T10:29:02Z</time>
      </trkpt>
      <trkpt lat="48.16893" lon="-3.86617">
        <ele>45.8</ele>
        <time>2020-06-08T10:29:03Z</time>
      </trkpt>
      <trkpt lat="48.16895" lon="-3.86622">
        <ele>46.1</ele>
        <time>2020-06-08T10:29:04Z</time>
      </trkpt>
      <trkpt lat="48.16896" lon="-3.86623">
        <ele>46.2</ele>
        <time>2020-06-08T10:29:05Z</time>
      </trkpt>
      <trkpt lat="48.16897" lon="-3.86629">
        <ele>46.5</ele>
        <time>2020-06-08T10:29:06Z</time>
      </trkpt>
      <trkpt lat="48.16898" lon="-3.86632">
        <ele>46.7</ele>
        <time>2020-06-08T10:29:07Z</time>
      </trkpt>
      <trkpt lat="48.16899" lon="-3.86635">
        <ele>46.9</ele>
        <time>2020-06-08T10:29:08Z</time>
      </trkpt>
      <trkpt lat="48.16902" lon="-3.86639">
        <ele>47.2</ele>
        <time>2020-06-08T10:29:09Z</time>
      </trkpt>
      <trkpt lat="48.16902" lon="-3.8664">
        <ele>47.4</ele>
        <time>2020-06-08T10:29:10Z</time>
      </trkpt>
      <trkpt lat="48.16903" lon="-3.86644">
        <ele>47.6</ele>
        <time>2020-06-08T10:29:11Z</time>
      </trkpt>
      <trkpt lat="48.16906" lon="-3.86647">
        <ele>48</ele>
        <time>2020-06-08T10:29:12Z</time>
      </trkpt>
      <trkpt lat="48.16907" lon="-3.86648">
        <ele>48.1</ele>
        <time>2020-06-08T10:29:13Z</time>
      </trkpt>
      <trkpt lat="48.1691" lon="-3.8665">
        <ele>48.4</ele>
        <time>2020-06-08T10:29:14Z</time>
      </trkpt>
      <trkpt lat="48.16911" lon="-3.86651">
        <ele>48.5</ele>
        <time>2020-06-08T10:29:15Z</time>
      </trkpt>
      <trkpt lat="48.16913" lon="-3.86655">
        <ele>48.9</ele>
        <time>2020-06-08T10:29:16Z</time>
      </trkpt>
      <trkpt lat="48.16914" lon="-3.86656">
        <ele>49</ele>
        <time>2020-06-08T10:29:17Z</time>
      </trkpt>
      <trkpt lat="48.16917" lon="-3.86657">
        <ele>49.3</ele>
        <time>2020-06-08T10:29:18Z</time>
      </trkpt>
      <trkpt lat="48.16918" lon="-3.86658">
        <ele>49.4</ele>
        <time>2020-06-08T10:29:19Z</time>
      </trkpt>
      <trkpt lat="48.16921" lon="-3.86659">
        <ele>49.7</ele>
        <time>2020-06-08T10:29:20Z</time>
      </trkpt>
      <trkpt lat="48.16923" lon="-3.86659">
        <ele>49.8</ele>
        <time>2020-06-08T10:29:21Z</time>
      </trkpt>
      <trkpt lat="48.16925" lon="-3.8666">
        <ele>50.1</ele>
        <time>2020-06-08T10:29:22Z</time>
      </trkpt>
      <trkpt lat="48.16926" lon="-3.8666">
        <ele>50.1</ele>
        <time>2020-06-08T10:29:23Z</time>
      </trkpt>
      <trkpt lat="48.16928" lon="-3.86661">
        <ele>50.3</ele>
        <time>2020-06-08T10:29:24Z</time>
      </trkpt>
      <trkpt lat="48.16929" lon="-3.86662">
        <ele>50.4</ele>
        <time>2020-06-08T10:29:25Z</time>
      </trkpt>
      <trkpt lat="48.1693" lon="-3.86662">
        <ele>50.5</ele>
        <time>2020-06-08T10:29:26Z</time>
      </trkpt>
      <trkpt lat="48.16932" lon="-3.86663">
        <ele>50.7</ele>
        <time>2020-06-08T10:29:27Z</time>
      </trkpt>
      <trkpt lat="48.16933" lon="-3.86663">
        <ele>50.8</ele>
        <time>2020-06-08T10:29:28Z</time>
      </trkpt>
      <trkpt lat="48.16934" lon="-3.86664">
        <ele>50.9</ele>
        <time>2020-06-08T10:29:29Z</time>
      </trkpt>
      <trkpt lat="48.16935" lon="-3.86665">
        <ele>51</ele>
        <time>2020-06-08T10:29:30Z</time>
      </trkpt>
      <trkpt lat="48.16936" lon="-3.86665">
        <ele>51</ele>
        <time>2020-06-08T10:29:31Z</time>
      </trkpt>
      <trkpt lat="48.16936" lon="-3.86667">
        <ele>51.1</ele>
        <time>2020-06-08T10:29:32Z</time>
      </trkpt>
      <trkpt lat="48.16937" lon="-3.86667">
        <ele>51.2</ele>
        <time>2020-06-08T10:29:33Z</time>
      </trkpt>
      <trkpt lat="48.16939" lon="-3.86667">
        <ele>51.4</ele>
        <time>2020-06-08T10:29:34Z</time>
      </trkpt>
      <trkpt lat="48.16941" lon="-3.86666">
        <ele>51.5</ele>
        <time>2020-06-08T10:29:35Z</time>
      </trkpt>
      <trkpt lat="48.16943" lon="-3.86665">
        <ele>51.6</ele>
        <time>2020-06-08T10:29:36Z</time>
      </trkpt>
      <trkpt lat="48.16944" lon="-3.86665">
        <ele>51.8</ele>
        <time>2020-06-08T10:29:37Z</time>
      </trkpt>
      <trkpt lat="48.16947" lon="-3.86663">
        <ele>52</ele>
        <time>2020-06-08T10:29:38Z</time>
      </trkpt>
      <trkpt lat="48.16948" lon="-3.86663">
        <ele>52.1</ele>
        <time>2020-06-08T10:29:39Z</time>
      </trkpt>
      <trkpt lat="48.16951" lon="-3.86662">
        <ele>52.5</ele>
        <time>2020-06-08T10:29:40Z</time>
      </trkpt>
      <trkpt lat="48.16952" lon="-3.86662">
        <ele>52.7</ele>
        <time>2020-06-08T10:29:41Z</time>
      </trkpt>
      <trkpt lat="48.16955" lon="-3.86662">
        <ele>53.1</ele>
        <time>2020-06-08T10:29:42Z</time>
      </trkpt>
      <trkpt lat="48.16956" lon="-3.86662">
        <ele>53.2</ele>
        <time>2020-06-08T10:29:43Z</time>
      </trkpt>
      <trkpt lat="48.1696" lon="-3.86663">
        <ele>53.5</ele>
        <time>2020-06-08T10:29:44Z</time>
      </trkpt>
      <trkpt lat="48.16961" lon="-3.86663">
        <ele>53.7</ele>
        <time>2020-06-08T10:29:45Z</time>
      </trkpt>
      <trkpt lat="48.16963" lon="-3.86663">
        <ele>53.8</ele>
        <time>2020-06-08T10:29:46Z</time>
      </trkpt>
      <trkpt lat="48.16964" lon="-3.86663">
        <ele>54</ele>
        <time>2020-06-08T10:29:47Z</time>
      </trkpt>
      <trkpt lat="48.16967" lon="-3.86663">
        <ele>54.2</ele>
        <time>2020-06-08T10:29:48Z</time>
      </trkpt>
      <trkpt lat="48.16968" lon="-3.86664">
        <ele>54.3</ele>
        <time>2020-06-08T10:29:49Z</time>
      </trkpt>
      <trkpt lat="48.16972" lon="-3.86665">
        <ele>54.6</ele>
        <time>2020-06-08T10:29:50Z</time>
      </trkpt>
      <trkpt lat="48.16973" lon="-3.86664">
        <ele>54.7</ele>
        <time>2020-06-08T10:29:51Z</time>
      </trkpt>
      <trkpt lat="48.16976" lon="-3.86664">
        <ele>55</ele>
        <time>2020-06-08T10:29:52Z</time>
      </trkpt>
      <trkpt lat="48.16979" lon="-3.86664">
        <ele>55.2</ele>
        <time>2020-06-08T10:29:53Z</time>
      </trkpt>
      <trkpt lat="48.16982" lon="-3.86663">
        <ele>55.5</ele>
        <time>2020-06-08T10:29:54Z</time>
      </trkpt>
      <trkpt lat="48.16983" lon="-3.86662">
        <ele>55.6</ele>
        <time>2020-06-08T10:29:55Z</time>
      </trkpt>
      <trkpt lat="48.16986" lon="-3.86658">
        <ele>56</ele>
        <time>2020-06-08T10:29:56Z</time>
      </trkpt>
      <trkpt lat="48.16988" lon="-3.86657">
        <ele>56.2</ele>
        <time>2020-06-08T10:29:57Z</time>
      </trkpt>
      <trkpt lat="48.16991" lon="-3.86656">
        <ele>56.5</ele>
        <time>2020-06-08T10:29:58Z</time>
      </trkpt>
      <trkpt lat="48.16992" lon="-3.86656">
        <ele>56.6</ele>
        <time>2020-06-08T10:29:59Z</time>
      </trkpt>
      <trkpt lat="48.16996" lon="-3.86656">
        <ele>56.9</ele>
        <time>2020-06-08T10:30:00Z</time>
      </trkpt>
      <trkpt lat="48.16997" lon="-3.86656">
        <ele>57</ele>
        <time>2020-06-08T10:30:01Z</time>
      </trkpt>
      <trkpt lat="48.17" lon="-3.86656">
        <ele>57.3</ele>
        <time>2020-06-08T10:30:02Z</time>
      </trkpt>
      <trkpt lat="48.17" lon="-3.86656">
        <ele>57.4</ele>
        <time>2020-06-08T10:30:03Z</time>
      </trkpt>
      <trkpt lat="48.17003" lon="-3.86654">
        <ele>57.7</ele>
        <time>2020-06-08T10:30:04Z</time>
      </trkpt>
      <trkpt lat="48.17004" lon="-3.86653">
        <ele>57.8</ele>
        <time>2020-06-08T10:30:05Z</time>
      </trkpt>
      <trkpt lat="48.17007" lon="-3.86653">
        <ele>58.1</ele>
        <time>2020-06-08T10:30:06Z</time>
      </trkpt>
      <trkpt lat="48.17008" lon="-3.86653">
        <ele>58.2</ele>
        <time>2020-06-08T10:30:07Z</time>
      </trkpt>
      <trkpt lat="48.17009" lon="-3.86653">
        <ele>58.4</ele>
        <time>2020-06-08T10:30:08Z</time>
      </trkpt>
      <trkpt lat="48.17011" lon="-3.86654">
        <ele>58.6</ele>
        <time>2020-06-08T10:30:09Z</time>
      </trkpt>
      <trkpt lat="48.17011" lon="-3.86653">
        <ele>58.6</ele>
        <time>2020-06-08T10:30:10Z</time>
      </trkpt>
      <trkpt lat="48.17013" lon="-3.86653">
        <ele>58.8</ele>
        <time>2020-06-08T10:30:11Z</time>
      </trkpt>
      <trkpt lat="48.17014" lon="-3.86654">
        <ele>59</ele>
        <time>2020-06-08T10:30:12Z</time>
      </trkpt>
      <trkpt lat="48.17015" lon="-3.86656">
        <ele>59.2</ele>
        <time>2020-06-08T10:30:13Z</time>
      </trkpt>
      <trkpt lat="48.17017" lon="-3.86656">
        <ele>59.5</ele>
        <time>2020-06-08T10:30:14Z</time>
      </trkpt>
      <trkpt lat="48.17018" lon="-3.86655">
        <ele>59.6</ele>
        <time>2020-06-08T10:30:15Z</time>
      </trkpt>
      <trkpt lat="48.17018" lon="-3.86653">
        <ele>59.8</ele>
        <time>2020-06-08T10:30:16Z</time>
      </trkpt>
      <trkpt lat="48.1702" lon="-3.86653">
        <ele>59.9</ele>
        <time>2020-06-08T10:30:17Z</time>
      </trkpt>
      <trkpt lat="48.17021" lon="-3.86655">
        <ele>60.2</ele>
        <time>2020-06-08T10:30:18Z</time>
      </trkpt>
      <trkpt lat="48.17022" lon="-3.86656">
        <ele>60.3</ele>
        <time>2020-06-08T10:30:19Z</time>
      </trkpt>
      <trkpt lat="48.17023" lon="-3.86657">
        <ele>60.4</ele>
        <time>2020-06-08T10:30:20Z</time>
      </trkpt>
      <trkpt lat="48.17025" lon="-3.86655">
        <ele>60.7</ele>
        <time>2020-06-08T10:30:21Z</time>
      </trkpt>
      <trkpt lat="48.17026" lon="-3.86654">
        <ele>60.8</ele>
        <time>2020-06-08T10:30:22Z</time>
      </trkpt>
      <trkpt lat="48.17026" lon="-3.86653">
        <ele>60.9</ele>
        <time>2020-06-08T10:30:23Z</time>
      </trkpt>
      <trkpt lat="48.17028" lon="-3.86653">
        <ele>61.1</ele>
        <time>2020-06-08T10:30:24Z</time>
      </trkpt>
      <trkpt lat="48.17029" lon="-3.86654">
        <ele>61.3</ele>
        <time>2020-06-08T10:30:25Z</time>
      </trkpt>
      <trkpt lat="48.1703" lon="-3.86656">
        <ele>61.4</ele>
        <time>2020-06-08T10:30:26Z</time>
      </trkpt>
      <trkpt lat="48.17031" lon="-3.86657">
        <ele>61.6</ele>
        <time>2020-06-08T10:30:27Z</time>
      </trkpt>
      <trkpt lat="48.17034" lon="-3.86655">
        <ele>61.9</ele>
        <time>2020-06-08T10:30:28Z</time>
      </trkpt>
      <trkpt lat="48.17035" lon="-3.86654">
        <ele>62</ele>
        <time>2020-06-08T10:30:29Z</time>
      </trkpt>
      <trkpt lat="48.17036" lon="-3.86652">
        <ele>62.2</ele>
        <time>2020-06-08T10:30:30Z</time>
      </trkpt>
      <trkpt lat="48.17037" lon="-3.86651">
        <ele>62.4</ele>
        <time>2020-06-08T10:30:31Z</time>
      </trkpt>
      <trkpt lat="48.1704" lon="-3.86653">
        <ele>62.8</ele>
        <time>2020-06-08T10:30:32Z</time>
      </trkpt>
      <trkpt lat="48.17041" lon="-3.86653">
        <ele>62.9</ele>
        <time>2020-06-08T10:30:33Z</time>
      </trkpt>
      <trkpt lat="48.17044" lon="-3.86656">
        <ele>63.3</ele>
        <time>2020-06-08T10:30:34Z</time>
      </trkpt>
      <trkpt lat="48.17046" lon="-3.86657">
        <ele>63.5</ele>
        <time>2020-06-08T10:30:35Z</time>
      </trkpt>
      <trkpt lat="48.17048" lon="-3.86654">
        <ele>63.9</ele>
        <time>2020-06-08T10:30:36Z</time>
      </trkpt>
      <trkpt lat="48.17049" lon="-3.86653">
        <ele>64</ele>
        <time>2020-06-08T10:30:37Z</time>
      </trkpt>
      <trkpt lat="48.17051" lon="-3.86651">
        <ele>64.4</ele>
        <time>2020-06-08T10:30:38Z</time>
      </trkpt>
      <trkpt lat="48.17052" lon="-3.86651">
        <ele>64.5</ele>
        <time>2020-06-08T10:30:39Z</time>
      </trkpt>
      <trkpt lat="48.17054" lon="-3.86652">
        <ele>64.7</ele>
        <time>2020-06-08T10:30:40Z</time>
      </trkpt>
      <trkpt lat="48.17055" lon="-3.86654">
        <ele>65</ele>
        <time>2020-06-08T10:30:41Z</time>
      </trkpt>
      <trkpt lat="48.17058" lon="-3.86654">
        <ele>65.3</ele>
        <time>2020-06-08T10:30:42Z</time>
      </trkpt>
      <trkpt lat="48.17059" lon="-3.86653">
        <ele>65.5</ele>
        <time>2020-06-08T10:30:43Z</time>
      </trkpt>
      <trkpt lat="48.1706" lon="-3.86649">
        <ele>65.8</ele>
        <time>2020-06-08T10:30:44Z</time>
      </trkpt>
      <trkpt lat="48.17061" lon="-3.86648">
        <ele>65.9</ele>
        <time>2020-06-08T10:30:45Z</time>
      </trkpt>
      <trkpt lat="48.17062" lon="-3.86647">
        <ele>66.1</ele>
        <time>2020-06-08T10:30:46Z</time>
      </trkpt>
      <trkpt lat="48.17064" lon="-3.86649">
        <ele>66.3</ele>
        <time>2020-06-08T10:30:47Z</time>
      </trkpt>
      <trkpt lat="48.17067" lon="-3.86652">
        <ele>66.7</ele>
        <time>2020-06-08T10:30:48Z</time>
      </trkpt>
      <trkpt lat="48.17068" lon="-3.86653">
        <ele>66.8</ele>
        <time>2020-06-08T10:30:49Z</time>
      </trkpt>
      <trkpt lat="48.17069" lon="-3.86652">
        <ele>67</ele>
        <time>2020-06-08T10:30:50Z</time>
      </trkpt>
      <trkpt lat="48.1707" lon="-3.8665">
        <ele>67.2</ele>
        <time>2020-06-08T10:30:51Z</time>
      </trkpt>
      <trkpt lat="48.17071" lon="-3.86647">
        <ele>67.4</ele>
        <time>2020-06-08T10:30:52Z</time>
      </trkpt>
      <trkpt lat="48.17072" lon="-3.86646">
        <ele>67.6</ele>
        <time>2020-06-08T10:30:53Z</time>
      </trkpt>
      <trkpt lat="48.17073" lon="-3.86646">
        <ele>67.7</ele>
        <time>2020-06-08T10:30:54Z</time>
      </trkpt>
      <trkpt lat="48.17075" lon="-3.86646">
        <ele>68</ele>
        <time>2020-06-08T10:30:55Z</time>
      </trkpt>
      <trkpt lat="48.17079" lon="-3.86647">
        <ele>68.4</ele>
        <time>2020-06-08T10:30:56Z</time>
      </trkpt>
      <trkpt lat="48.1708" lon="-3.86646">
        <ele>68.5</ele>
        <time>2020-06-08T10:30:57Z</time>
      </trkpt>
      <trkpt lat="48.17083" lon="-3.86646">
        <ele>68.9</ele>
        <time>2020-06-08T10:30:58Z</time>
      </trkpt>
      <trkpt lat="48.17085" lon="-3.86647">
        <ele>69.1</ele>
        <time>2020-06-08T10:30:59Z</time>
      </trkpt>
      <trkpt lat="48.17088" lon="-3.86647">
        <ele>69.5</ele>
        <time>2020-06-08T10:31:00Z</time>
      </trkpt>
      <trkpt lat="48.17091" lon="-3.86646">
        <ele>69.8</ele>
        <time>2020-06-08T10:31:01Z</time>
      </trkpt>
      <trkpt lat="48.17094" lon="-3.86645">
        <ele>70.2</ele>
        <time>2020-06-08T10:31:02Z</time>
      </trkpt>
      <trkpt lat="48.17095" lon="-3.86645">
        <ele>70.3</ele>
        <time>2020-06-08T10:31:03Z</time>
      </trkpt>
      <trkpt lat="48.17099" lon="-3.86645">
        <ele>70.8</ele>
        <time>2020-06-08T10:31:04Z</time>
      </trkpt>
      <trkpt lat="48.171" lon="-3.86645">
        <ele>70.9</ele>
        <time>2020-06-08T10:31:05Z</time>
      </trkpt>
      <trkpt lat="48.17104" lon="-3.86644">
        <ele>71.3</ele>
        <time>2020-06-08T10:31:06Z</time>
      </trkpt>
      <trkpt lat="48.17105" lon="-3.86644">
        <ele>71.5</ele>
        <time>2020-06-08T10:31:07Z</time>
      </trkpt>
      <trkpt lat="48.17108" lon="-3.86643">
        <ele>71.9</ele>
        <time>2020-06-08T10:31:08Z</time>
      </trkpt>
      <trkpt lat="48.17109" lon="-3.86643">
        <ele>72</ele>
        <time>2020-06-08T10:31:09Z</time>
      </trkpt>
      <trkpt lat="48.17113" lon="-3.86643">
        <ele>72.3</ele>
        <time>2020-06-08T10:31:10Z</time>
      </trkpt>
      <trkpt lat="48.17114" lon="-3.86643">
        <ele>72.4</ele>
        <time>2020-06-08T10:31:11Z</time>
      </trkpt>
      <trkpt lat="48.17117" lon="-3.86642">
        <ele>72.8</ele>
        <time>2020-06-08T10:31:12Z</time>
      </trkpt>
      <trkpt lat="48.17118" lon="-3.86642">
        <ele>72.9</ele>
        <time>2020-06-08T10:31:13Z</time>
      </trkpt>
      <trkpt lat="48.17121" lon="-3.86643">
        <ele>73.2</ele>
        <time>2020-06-08T10:31:14Z</time>
      </trkpt>
      <trkpt lat="48.17122" lon="-3.86643">
        <ele>73.2</ele>
        <time>2020-06-08T10:31:15Z</time>
      </trkpt>
      <trkpt lat="48.17125" lon="-3.86643">
        <ele>73.5</ele>
        <time>2020-06-08T10:31:16Z</time>
      </trkpt>
      <trkpt lat="48.17126" lon="-3.86643">
        <ele>73.6</ele>
        <time>2020-06-08T10:31:17Z</time>
      </trkpt>
      <trkpt lat="48.17129" lon="-3.86642">
        <ele>73.8</ele>
        <time>2020-06-08T10:31:18Z</time>
      </trkpt>
      <trkpt lat="48.1713" lon="-3.86642">
        <ele>73.9</ele>
        <time>2020-06-08T10:31:19Z</time>
      </trkpt>
      <trkpt lat="48.17133" lon="-3.86641">
        <ele>74.2</ele>
        <time>2020-06-08T10:31:20Z</time>
      </trkpt>
      <trkpt lat="48.17134" lon="-3.86641">
        <ele>74.2</ele>
        <time>2020-06-08T10:31:21Z</time>
      </trkpt>
      <trkpt lat="48.17137" lon="-3.8664">
        <ele>74.5</ele>
        <time>2020-06-08T10:31:22Z</time>
      </trkpt>
      <trkpt lat="48.17138" lon="-3.8664">
        <ele>74.6</ele>
        <time>2020-06-08T10:31:23Z</time>
      </trkpt>
      <trkpt lat="48.17141" lon="-3.86641">
        <ele>74.9</ele>
        <time>2020-06-08T10:31:24Z</time>
      </trkpt>
      <trkpt lat="48.17143" lon="-3.86641">
        <ele>75</ele>
        <time>2020-06-08T10:31:25Z</time>
      </trkpt>
      <trkpt lat="48.17146" lon="-3.86641">
        <ele>75.3</ele>
        <time>2020-06-08T10:31:26Z</time>
      </trkpt>
      <trkpt lat="48.17146" lon="-3.86641">
        <ele>75.4</ele>
        <time>2020-06-08T10:31:27Z</time>
      </trkpt>
      <trkpt lat="48.17148" lon="-3.86641">
        <ele>75.5</ele>
        <time>2020-06-08T10:31:28Z</time>
      </trkpt>
      <trkpt lat="48.1715" lon="-3.86642">
        <ele>75.7</ele>
        <time>2020-06-08T10:31:29Z</time>
      </trkpt>
      <trkpt lat="48.17152" lon="-3.8664">
        <ele>76</ele>
        <time>2020-06-08T10:31:30Z</time>
      </trkpt>
      <trkpt lat="48.17153" lon="-3.86639">
        <ele>76.1</ele>
        <time>2020-06-08T10:31:31Z</time>
      </trkpt>
      <trkpt lat="48.17155" lon="-3.86637">
        <ele>76.3</ele>
        <time>2020-06-08T10:31:32Z</time>
      </trkpt>
      <trkpt lat="48.17157" lon="-3.86637">
        <ele>76.5</ele>
        <time>2020-06-08T10:31:33Z</time>
      </trkpt>
      <trkpt lat="48.1716" lon="-3.86636">
        <ele>76.8</ele>
        <time>2020-06-08T10:31:34Z</time>
      </trkpt>
      <trkpt lat="48.17161" lon="-3.86637">
        <ele>76.9</ele>
        <time>2020-06-08T10:31:35Z</time>
      </trkpt>
      <trkpt lat="48.17164" lon="-3.86637">
        <ele>77.2</ele>
        <time>2020-06-08T10:31:36Z</time>
      </trkpt>
      <trkpt lat="48.17165" lon="-3.86637">
        <ele>77.3</ele>
        <time>2020-06-08T10:31:37Z</time>
      </trkpt>
      <trkpt lat="48.17166" lon="-3.86637">
        <ele>77.5</ele>
        <time>2020-06-08T10:31:38Z</time>
      </trkpt>
      <trkpt lat="48.17168" lon="-3.86637">
        <ele>77.6</ele>
        <time>2020-06-08T10:31:39Z</time>
      </trkpt>
      <trkpt lat="48.1717" lon="-3.86637">
        <ele>77.8</ele>
        <time>2020-06-08T10:31:40Z</time>
      </trkpt>
      <trkpt lat="48.17172" lon="-3.86636">
        <ele>78</ele>
        <time>2020-06-08T10:31:41Z</time>
      </trkpt>
      <trkpt lat="48.17175" lon="-3.86636">
        <ele>78.3</ele>
        <time>2020-06-08T10:31:42Z</time>
      </trkpt>
      <trkpt lat="48.17176" lon="-3.86636">
        <ele>78.3</ele>
        <time>2020-06-08T10:31:43Z</time>
      </trkpt>
      <trkpt lat="48.17179" lon="-3.86636">
        <ele>78.6</ele>
        <time>2020-06-08T10:31:44Z</time>
      </trkpt>
      <trkpt lat="48.17179" lon="-3.86635">
        <ele>78.7</ele>
        <time>2020-06-08T10:31:45Z</time>
      </trkpt>
      <trkpt lat="48.17181" lon="-3.86635">
        <ele>78.8</ele>
        <time>2020-06-08T10:31:46Z</time>
      </trkpt>
      <trkpt lat="48.17183" lon="-3.86635">
        <ele>79</ele>
        <time>2020-06-08T10:31:47Z</time>
      </trkpt>
      <trkpt lat="48.17186" lon="-3.86634">
        <ele>79.2</ele>
        <time>2020-06-08T10:31:48Z</time>
      </trkpt>
      <trkpt lat="48.17187" lon="-3.86634">
        <ele>79.3</ele>
        <time>2020-06-08T10:31:49Z</time>
      </trkpt>
      <trkpt lat="48.17188" lon="-3.86633">
        <ele>79.5</ele>
        <time>2020-06-08T10:31:50Z</time>
      </trkpt>
      <trkpt lat="48.1719" lon="-3.86633">
        <ele>79.6</ele>
        <time>2020-06-08T10:31:51Z</time>
      </trkpt>
      <trkpt lat="48.17193" lon="-3.86632">
        <ele>79.9</ele>
        <time>2020-06-08T10:31:52Z</time>
      </trkpt>
      <trkpt lat="48.17194" lon="-3.86633">
        <ele>79.9</ele>
        <time>2020-06-08T10:31:53Z</time>
      </trkpt>
      <trkpt lat="48.17196" lon="-3.86632">
        <ele>80.2</ele>
        <time>2020-06-08T10:31:54Z</time>
      </trkpt>
      <trkpt lat="48.17197" lon="-3.86632">
        <ele>80.3</ele>
        <time>2020-06-08T10:31:55Z</time>
      </trkpt>
      <trkpt lat="48.172" lon="-3.86632">
        <ele>80.6</ele>
        <time>2020-06-08T10:31:56Z</time>
      </trkpt>
      <trkpt lat="48.17202" lon="-3.86632">
        <ele>80.7</ele>
        <time>2020-06-08T10:31:57Z</time>
      </trkpt>
      <trkpt lat="48.17205" lon="-3.86631">
        <ele>81</ele>
        <time>2020-06-08T10:31:58Z</time>
      </trkpt>
      <trkpt lat="48.17206" lon="-3.8663">
        <ele>81.1</ele>
        <time>2020-06-08T10:31:59Z</time>
      </trkpt>
      <trkpt lat="48.17209" lon="-3.86631">
        <ele>81.4</ele>
        <time>2020-06-08T10:32:00Z</time>
      </trkpt>
      <trkpt lat="48.1721" lon="-3.86632">
        <ele>81.5</ele>
        <time>2020-06-08T10:32:01Z</time>
      </trkpt>
      <trkpt lat="48.17213" lon="-3.86633">
        <ele>81.8</ele>
        <time>2020-06-08T10:32:02Z</time>
      </trkpt>
      <trkpt lat="48.17214" lon="-3.86633">
        <ele>81.9</ele>
        <time>2020-06-08T10:32:03Z</time>
      </trkpt>
      <trkpt lat="48.17215" lon="-3.86633">
        <ele>82</ele>
        <time>2020-06-08T10:32:04Z</time>
      </trkpt>
      <trkpt lat="48.17217" lon="-3.86633">
        <ele>82.2</ele>
        <time>2020-06-08T10:32:05Z</time>
      </trkpt>
      <trkpt lat="48.17219" lon="-3.86632">
        <ele>82.4</ele>
        <time>2020-06-08T10:32:06Z</time>
      </trkpt>
      <trkpt lat="48.17221" lon="-3.86631">
        <ele>82.6</ele>
        <time>2020-06-08T10:32:07Z</time>
      </trkpt>
      <trkpt lat="48.17223" lon="-3.86631">
        <ele>82.8</ele>
        <time>2020-06-08T10:32:08Z</time>
      </trkpt>
      <trkpt lat="48.17224" lon="-3.86631">
        <ele>82.9</ele>
        <time>2020-06-08T10:32:09Z</time>
      </trkpt>
      <trkpt lat="48.17227" lon="-3.8663">
        <ele>83.2</ele>
        <time>2020-06-08T10:32:10Z</time>
      </trkpt>
      <trkpt lat="48.17228" lon="-3.86629">
        <ele>83.3</ele>
        <time>2020-06-08T10:32:11Z</time>
      </trkpt>
      <trkpt lat="48.1723" lon="-3.86629">
        <ele>83.5</ele>
        <time>2020-06-08T10:32:12Z</time>
      </trkpt>
      <trkpt lat="48.17232" lon="-3.86629">
        <ele>83.7</ele>
        <time>2020-06-08T10:32:13Z</time>
      </trkpt>
      <trkpt lat="48.17236" lon="-3.86627">
        <ele>84.1</ele>
        <time>2020-06-08T10:32:14Z</time>
      </trkpt>
      <trkpt lat="48.17237" lon="-3.86627">
        <ele>84.2</ele>
        <time>2020-06-08T10:32:15Z</time>
      </trkpt>
      <trkpt lat="48.1724" lon="-3.86626">
        <ele>84.5</ele>
        <time>2020-06-08T10:32:16Z</time>
      </trkpt>
      <trkpt lat="48.17241" lon="-3.86626">
        <ele>84.6</ele>
        <time>2020-06-08T10:32:17Z</time>
      </trkpt>
      <trkpt lat="48.17243" lon="-3.86626">
        <ele>84.8</ele>
        <time>2020-06-08T10:32:18Z</time>
      </trkpt>
      <trkpt lat="48.17245" lon="-3.86626">
        <ele>84.9</ele>
        <time>2020-06-08T10:32:19Z</time>
      </trkpt>
      <trkpt lat="48.17248" lon="-3.86627">
        <ele>85.2</ele>
        <time>2020-06-08T10:32:20Z</time>
      </trkpt>
      <trkpt lat="48.17248" lon="-3.86627">
        <ele>85.3</ele>
        <time>2020-06-08T10:32:21Z</time>
      </trkpt>
      <trkpt lat="48.17251" lon="-3.86627">
        <ele>85.6</ele>
        <time>2020-06-08T10:32:22Z</time>
      </trkpt>
      <trkpt lat="48.17252" lon="-3.86627">
        <ele>85.7</ele>
        <time>2020-06-08T10:32:23Z</time>
      </trkpt>
      <trkpt lat="48.17255" lon="-3.86627">
        <ele>86</ele>
        <time>2020-06-08T10:32:24Z</time>
      </trkpt>
      <trkpt lat="48.17257" lon="-3.86627">
        <ele>86.1</ele>
        <time>2020-06-08T10:32:25Z</time>
      </trkpt>
      <trkpt lat="48.1726" lon="-3.86626">
        <ele>86.5</ele>
        <time>2020-06-08T10:32:26Z</time>
      </trkpt>
      <trkpt lat="48.17261" lon="-3.86626">
        <ele>86.6</ele>
        <time>2020-06-08T10:32:27Z</time>
      </trkpt>
      <trkpt lat="48.17264" lon="-3.86625">
        <ele>86.9</ele>
        <time>2020-06-08T10:32:28Z</time>
      </trkpt>
      <trkpt lat="48.17265" lon="-3.86625">
        <ele>87</ele>
        <time>2020-06-08T10:32:29Z</time>
      </trkpt>
      <trkpt lat="48.17268" lon="-3.86624">
        <ele>87.3</ele>
        <time>2020-06-08T10:32:30Z</time>
      </trkpt>
      <trkpt lat="48.17271" lon="-3.86623">
        <ele>87.6</ele>
        <time>2020-06-08T10:32:31Z</time>
      </trkpt>
      <trkpt lat="48.17272" lon="-3.86622">
        <ele>87.7</ele>
        <time>2020-06-08T10:32:32Z</time>
      </trkpt>
      <trkpt lat="48.17276" lon="-3.86621">
        <ele>88</ele>
        <time>2020-06-08T10:32:33Z</time>
      </trkpt>
      <trkpt lat="48.17277" lon="-3.86621">
        <ele>88.1</ele>
        <time>2020-06-08T10:32:34Z</time>
      </trkpt>
      <trkpt lat="48.1728" lon="-3.86621">
        <ele>88.4</ele>
        <time>2020-06-08T10:32:35Z</time>
      </trkpt>
      <trkpt lat="48.17282" lon="-3.86621">
        <ele>88.5</ele>
        <time>2020-06-08T10:32:36Z</time>
      </trkpt>
      <trkpt lat="48.17285" lon="-3.86621">
        <ele>88.8</ele>
        <time>2020-06-08T10:32:37Z</time>
      </trkpt>
      <trkpt lat="48.17286" lon="-3.86621">
        <ele>88.9</ele>
        <time>2020-06-08T10:32:38Z</time>
      </trkpt>
      <trkpt lat="48.17289" lon="-3.86621">
        <ele>89.2</ele>
        <time>2020-06-08T10:32:39Z</time>
      </trkpt>
      <trkpt lat="48.17293" lon="-3.86621">
        <ele>89.6</ele>
        <time>2020-06-08T10:32:40Z</time>
      </trkpt>
      <trkpt lat="48.17294" lon="-3.86621">
        <ele>89.7</ele>
        <time>2020-06-08T10:32:41Z</time>
      </trkpt>
      <trkpt lat="48.17295" lon="-3.86621">
        <ele>89.8</ele>
        <time>2020-06-08T10:32:42Z</time>
      </trkpt>
      <trkpt lat="48.17297" lon="-3.86621">
        <ele>90</ele>
        <time>2020-06-08T10:32:43Z</time>
      </trkpt>
      <trkpt lat="48.17301" lon="-3.86621">
        <ele>90.3</ele>
        <time>2020-06-08T10:32:44Z</time>
      </trkpt>
      <trkpt lat="48.17302" lon="-3.86621">
        <ele>90.4</ele>
        <time>2020-06-08T10:32:45Z</time>
      </trkpt>
      <trkpt lat="48.17305" lon="-3.86622">
        <ele>90.7</ele>
        <time>2020-06-08T10:32:46Z</time>
      </trkpt>
      <trkpt lat="48.17306" lon="-3.86622">
        <ele>90.8</ele>
        <time>2020-06-08T10:32:47Z</time>
      </trkpt>
      <trkpt lat="48.1731" lon="-3.86622">
        <ele>91.1</ele>
        <time>2020-06-08T10:32:48Z</time>
      </trkpt>
      <trkpt lat="48.17311" lon="-3.86623">
        <ele>91.2</ele>
        <time>2020-06-08T10:32:49Z</time>
      </trkpt>
      <trkpt lat="48.17313" lon="-3.86624">
        <ele>91.4</ele>
        <time>2020-06-08T10:32:50Z</time>
      </trkpt>
      <trkpt lat="48.17314" lon="-3.86624">
        <ele>91.5</ele>
        <time>2020-06-08T10:32:51Z</time>
      </trkpt>
      <trkpt lat="48.17317" lon="-3.86626">
        <ele>91.7</ele>
        <time>2020-06-08T10:32:52Z</time>
      </trkpt>
      <trkpt lat="48.17318" lon="-3.86626">
        <ele>91.8</ele>
        <time>2020-06-08T10:32:53Z</time>
      </trkpt>
      <trkpt lat="48.17319" lon="-3.86628">
        <ele>91.9</ele>
        <time>2020-06-08T10:32:54Z</time>
      </trkpt>
      <trkpt lat="48.17321" lon="-3.86629">
        <ele>92</ele>
        <time>2020-06-08T10:32:55Z</time>
      </trkpt>
      <trkpt lat="48.17324" lon="-3.8663">
        <ele>92.3</ele>
        <time>2020-06-08T10:32:56Z</time>
      </trkpt>
      <trkpt lat="48.17325" lon="-3.86631">
        <ele>92.3</ele>
        <time>2020-06-08T10:32:57Z</time>
      </trkpt>
      <trkpt lat="48.17328" lon="-3.86631">
        <ele>92.6</ele>
        <time>2020-06-08T10:32:58Z</time>
      </trkpt>
      <trkpt lat="48.17329" lon="-3.86631">
        <ele>92.7</ele>
        <time>2020-06-08T10:32:59Z</time>
      </trkpt>
      <trkpt lat="48.17333" lon="-3.86632">
        <ele>92.9</ele>
        <time>2020-06-08T10:33:00Z</time>
      </trkpt>
      <trkpt lat="48.17334" lon="-3.86632">
        <ele>93</ele>
        <time>2020-06-08T10:33:01Z</time>
      </trkpt>
      <trkpt lat="48.17338" lon="-3.86633">
        <ele>93.2</ele>
        <time>2020-06-08T10:33:02Z</time>
      </trkpt>
      <trkpt lat="48.17339" lon="-3.86634">
        <ele>93.3</ele>
        <time>2020-06-08T10:33:03Z</time>
      </trkpt>
      <trkpt lat="48.17341" lon="-3.86635">
        <ele>93.4</ele>
        <time>2020-06-08T10:33:04Z</time>
      </trkpt>
      <trkpt lat="48.17342" lon="-3.86637">
        <ele>93.5</ele>
        <time>2020-06-08T10:33:05Z</time>
      </trkpt>
      <trkpt lat="48.17345" lon="-3.8664">
        <ele>93.6</ele>
        <time>2020-06-08T10:33:06Z</time>
      </trkpt>
      <trkpt lat="48.17346" lon="-3.86641">
        <ele>93.7</ele>
        <time>2020-06-08T10:33:07Z</time>
      </trkpt>
      <trkpt lat="48.17349" lon="-3.86643">
        <ele>93.8</ele>
        <time>2020-06-08T10:33:08Z</time>
      </trkpt>
      <trkpt lat="48.17349" lon="-3.86644">
        <ele>93.9</ele>
        <time>2020-06-08T10:33:09Z</time>
      </trkpt>
      <trkpt lat="48.17352" lon="-3.86646">
        <ele>94</ele>
        <time>2020-06-08T10:33:10Z</time>
      </trkpt>
      <trkpt lat="48.17353" lon="-3.86647">
        <ele>94</ele>
        <time>2020-06-08T10:33:11Z</time>
      </trkpt>
      <trkpt lat="48.17356" lon="-3.86648">
        <ele>94.1</ele>
        <time>2020-06-08T10:33:12Z</time>
      </trkpt>
      <trkpt lat="48.17357" lon="-3.86648">
        <ele>94.2</ele>
        <time>2020-06-08T10:33:13Z</time>
      </trkpt>
      <trkpt lat="48.1736" lon="-3.86649">
        <ele>94.2</ele>
        <time>2020-06-08T10:33:14Z</time>
      </trkpt>
      <trkpt lat="48.17361" lon="-3.8665">
        <ele>94.2</ele>
        <time>2020-06-08T10:33:15Z</time>
      </trkpt>
      <trkpt lat="48.17362" lon="-3.8665">
        <ele>94.2</ele>
        <time>2020-06-08T10:33:16Z</time>
      </trkpt>
      <trkpt lat="48.17363" lon="-3.86651">
        <ele>94.3</ele>
        <time>2020-06-08T10:33:17Z</time>
      </trkpt>
      <trkpt lat="48.17365" lon="-3.86652">
        <ele>94.3</ele>
        <time>2020-06-08T10:33:18Z</time>
      </trkpt>
      <trkpt lat="48.17366" lon="-3.86653">
        <ele>94.3</ele>
        <time>2020-06-08T10:33:19Z</time>
      </trkpt>
      <trkpt lat="48.17368" lon="-3.86654">
        <ele>94.2</ele>
        <time>2020-06-08T10:33:20Z</time>
      </trkpt>
      <trkpt lat="48.17369" lon="-3.86654">
        <ele>94.2</ele>
        <time>2020-06-08T10:33:21Z</time>
      </trkpt>
      <trkpt lat="48.17369" lon="-3.86654">
        <ele>94.2</ele>
        <time>2020-06-08T10:33:22Z</time>
      </trkpt>
      <trkpt lat="48.17368" lon="-3.86654">
        <ele>94.2</ele>
        <time>2020-06-08T10:33:23Z</time>
      </trkpt>
      <trkpt lat="48.17368" lon="-3.86655">
        <ele>94.2</ele>
        <time>2020-06-08T10:33:24Z</time>
      </trkpt>
      <trkpt lat="48.17368" lon="-3.86655">
        <ele>94.2</ele>
        <time>2020-06-08T10:33:25Z</time>
      </trkpt>
      <trkpt lat="48.17368" lon="-3.86655">
        <ele>94.2</ele>
        <time>2020-06-08T10:33:26Z</time>
      </trkpt>
      <trkpt lat="48.17368" lon="-3.86655">
        <ele>94.2</ele>
        <time>2020-06-08T10:33:27Z</time>
      </trkpt>
      <trkpt lat="48.17368" lon="-3.86655">
        <ele>94.2</ele>
        <time>2020-06-08T10:33:28Z</time>
      </trkpt>
      <trkpt lat="48.17368" lon="-3.86655">
        <ele>94.2</ele>
        <time>2020-06-08T10:33:29Z</time>
      </trkpt>
      <trkpt lat="48.17368" lon="-3.86655">
        <ele>94.2</ele>
        <time>2020-06-08T10:33:30Z</time>
      </trkpt>
      <trkpt lat="48.17368" lon="-3.86655">
        <ele>94.2</ele>
        <time>2020-06-08T10:33:31Z</time>
      </trkpt>
      <trkpt lat="48.17368" lon="-3.86655">
        <ele>94.2</ele>
        <time>2020-06-08T10:33:32Z</time>
      </trkpt>
      <trkpt lat="48.1737" lon="-3.86654">
        <ele>94.2</ele>
        <time>2020-06-08T10:34:19Z</time>
      </trkpt>
      <trkpt lat="48.17371" lon="-3.86654">
        <ele>94.2</ele>
        <time>2020-06-08T10:34:20Z</time>
      </trkpt>
      <trkpt lat="48.17372" lon="-3.86653">
        <ele>94.2</ele>
        <time>2020-06-08T10:34:21Z</time>
      </trkpt>
      <trkpt lat="48.17372" lon="-3.86653">
        <ele>94.2</ele>
        <time>2020-06-08T10:34:22Z</time>
      </trkpt>
      <trkpt lat="48.17372" lon="-3.86653">
        <ele>94.2</ele>
        <time>2020-06-08T10:34:23Z</time>
      </trkpt>
      <trkpt lat="48.17372" lon="-3.86653">
        <ele>94.2</ele>
        <time>2020-06-08T10:34:24Z</time>
      </trkpt>
      <trkpt lat="48.17372" lon="-3.86653">
        <ele>94.2</ele>
        <time>2020-06-08T10:34:25Z</time>
      </trkpt>
      <trkpt lat="48.17372" lon="-3.86653">
        <ele>94.2</ele>
        <time>2020-06-08T10:34:26Z</time>
      </trkpt>
      <trkpt lat="48.17372" lon="-3.86653">
        <ele>94.2</ele>
        <time>2020-06-08T10:34:27Z</time>
      </trkpt>
      <trkpt lat="48.17372" lon="-3.86653">
        <ele>94.2</ele>
        <time>2020-06-08T10:34:28Z</time>
      </trkpt>
      <trkpt lat="48.17372" lon="-3.86653">
        <ele>94.2</ele>
        <time>2020-06-08T10:34:29Z</time>
      </trkpt>
      <trkpt lat="48.17372" lon="-3.86653">
        <ele>94.2</ele>
        <time>2020-06-08T10:34:30Z</time>
      </trkpt>
      <trkpt lat="48.17379" lon="-3.86659">
        <ele>94</ele>
        <time>2020-06-08T10:34:52Z</time>
      </trkpt>
      <trkpt lat="48.17383" lon="-3.8666">
        <ele>93.9</ele>
        <time>2020-06-08T10:34:53Z</time>
      </trkpt>
      <trkpt lat="48.17385" lon="-3.86662">
        <ele>93.8</ele>
        <time>2020-06-08T10:34:54Z</time>
      </trkpt>
      <trkpt lat="48.17388" lon="-3.86665">
        <ele>93.7</ele>
        <time>2020-06-08T10:34:55Z</time>
      </trkpt>
      <trkpt lat="48.17391" lon="-3.86666">
        <ele>93.6</ele>
        <time>2020-06-08T10:34:56Z</time>
      </trkpt>
      <trkpt lat="48.17394" lon="-3.86665">
        <ele>93.5</ele>
        <time>2020-06-08T10:34:57Z</time>
      </trkpt>
      <trkpt lat="48.17397" lon="-3.86666">
        <ele>93.4</ele>
        <time>2020-06-08T10:34:58Z</time>
      </trkpt>
      <trkpt lat="48.17401" lon="-3.86668">
        <ele>93.2</ele>
        <time>2020-06-08T10:34:59Z</time>
      </trkpt>
      <trkpt lat="48.17405" lon="-3.8667">
        <ele>93.1</ele>
        <time>2020-06-08T10:35:00Z</time>
      </trkpt>
      <trkpt lat="48.17409" lon="-3.86671">
        <ele>93</ele>
        <time>2020-06-08T10:35:01Z</time>
      </trkpt>
      <trkpt lat="48.17413" lon="-3.86672">
        <ele>92.8</ele>
        <time>2020-06-08T10:35:02Z</time>
      </trkpt>
      <trkpt lat="48.17418" lon="-3.86673">
        <ele>92.7</ele>
        <time>2020-06-08T10:35:03Z</time>
      </trkpt>
      <trkpt lat="48.17424" lon="-3.86674">
        <ele>92.5</ele>
        <time>2020-06-08T10:35:04Z</time>
      </trkpt>
      <trkpt lat="48.1743" lon="-3.86676">
        <ele>92.4</ele>
        <time>2020-06-08T10:35:05Z</time>
      </trkpt>
      <trkpt lat="48.17435" lon="-3.86677">
        <ele>92.2</ele>
        <time>2020-06-08T10:35:06Z</time>
      </trkpt>
      <trkpt lat="48.17441" lon="-3.86679">
        <ele>92</ele>
        <time>2020-06-08T10:35:07Z</time>
      </trkpt>
      <trkpt lat="48.17448" lon="-3.86681">
        <ele>91.9</ele>
        <time>2020-06-08T10:35:08Z</time>
      </trkpt>
      <trkpt lat="48.17454" lon="-3.86684">
        <ele>91.8</ele>
        <time>2020-06-08T10:35:09Z</time>
      </trkpt>
      <trkpt lat="48.17459" lon="-3.86684">
        <ele>91.7</ele>
        <time>2020-06-08T10:35:10Z</time>
      </trkpt>
      <trkpt lat="48.17465" lon="-3.86687">
        <ele>91.7</ele>
        <time>2020-06-08T10:35:11Z</time>
      </trkpt>
      <trkpt lat="48.17471" lon="-3.86689">
        <ele>91.8</ele>
        <time>2020-06-08T10:35:12Z</time>
      </trkpt>
      <trkpt lat="48.17477" lon="-3.86691">
        <ele>91.9</ele>
        <time>2020-06-08T10:35:13Z</time>
      </trkpt>
      <trkpt lat="48.17482" lon="-3.86693">
        <ele>92</ele>
        <time>2020-06-08T10:35:14Z</time>
      </trkpt>
      <trkpt lat="48.17488" lon="-3.86694">
        <ele>92</ele>
        <time>2020-06-08T10:35:15Z</time>
      </trkpt>
      <trkpt lat="48.17495" lon="-3.86695">
        <ele>92.1</ele>
        <time>2020-06-08T10:35:16Z</time>
      </trkpt>
      <trkpt lat="48.175" lon="-3.86697">
        <ele>92.2</ele>
        <time>2020-06-08T10:35:17Z</time>
      </trkpt>
      <trkpt lat="48.17506" lon="-3.86699">
        <ele>92.4</ele>
        <time>2020-06-08T10:35:18Z</time>
      </trkpt>
      <trkpt lat="48.17511" lon="-3.86701">
        <ele>92.6</ele>
        <time>2020-06-08T10:35:19Z</time>
      </trkpt>
      <trkpt lat="48.17516" lon="-3.86703">
        <ele>92.8</ele>
        <time>2020-06-08T10:35:20Z</time>
      </trkpt>
      <trkpt lat="48.17521" lon="-3.86704">
        <ele>92.9</ele>
        <time>2020-06-08T10:35:21Z</time>
      </trkpt>
      <trkpt lat="48.17526" lon="-3.86705">
        <ele>93.1</ele>
        <time>2020-06-08T10:35:22Z</time>
      </trkpt>
      <trkpt lat="48.1753" lon="-3.86706">
        <ele>93.2</ele>
        <time>2020-06-08T10:35:23Z</time>
      </trkpt>
      <trkpt lat="48.17534" lon="-3.86707">
        <ele>93.3</ele>
        <time>2020-06-08T10:35:24Z</time>
      </trkpt>
      <trkpt lat="48.17538" lon="-3.8671">
        <ele>93.4</ele>
        <time>2020-06-08T10:35:25Z</time>
      </trkpt>
      <trkpt lat="48.17544" lon="-3.86708">
        <ele>93.6</ele>
        <time>2020-06-08T10:35:26Z</time>
      </trkpt>
      <trkpt lat="48.17548" lon="-3.86709">
        <ele>93.7</ele>
        <time>2020-06-08T10:35:27Z</time>
      </trkpt>
      <trkpt lat="48.17553" lon="-3.8671">
        <ele>93.9</ele>
        <time>2020-06-08T10:35:28Z</time>
      </trkpt>
      <trkpt lat="48.17558" lon="-3.86711">
        <ele>94.1</ele>
        <time>2020-06-08T10:35:29Z</time>
      </trkpt>
      <trkpt lat="48.17562" lon="-3.86712">
        <ele>94.3</ele>
        <time>2020-06-08T10:35:30Z</time>
      </trkpt>
      <trkpt lat="48.17566" lon="-3.86715">
        <ele>94.5</ele>
        <time>2020-06-08T10:35:31Z</time>
      </trkpt>
      <trkpt lat="48.17571" lon="-3.86716">
        <ele>94.7</ele>
        <time>2020-06-08T10:35:32Z</time>
      </trkpt>
      <trkpt lat="48.17575" lon="-3.86717">
        <ele>95</ele>
        <time>2020-06-08T10:35:33Z</time>
      </trkpt>
      <trkpt lat="48.1758" lon="-3.86718">
        <ele>95.2</ele>
        <time>2020-06-08T10:35:34Z</time>
      </trkpt>
      <trkpt lat="48.17584" lon="-3.8672">
        <ele>95.4</ele>
        <time>2020-06-08T10:35:35Z</time>
      </trkpt>
      <trkpt lat="48.17588" lon="-3.86722">
        <ele>95.6</ele>
        <time>2020-06-08T10:35:36Z</time>
      </trkpt>
      <trkpt lat="48.17592" lon="-3.86723">
        <ele>95.8</ele>
        <time>2020-06-08T10:35:37Z</time>
      </trkpt>
      <trkpt lat="48.17597" lon="-3.86724">
        <ele>96</ele>
        <time>2020-06-08T10:35:38Z</time>
      </trkpt>
      <trkpt lat="48.17601" lon="-3.86726">
        <ele>96.2</ele>
        <time>2020-06-08T10:35:39Z</time>
      </trkpt>
      <trkpt lat="48.17605" lon="-3.86725">
        <ele>96.4</ele>
        <time>2020-06-08T10:35:40Z</time>
      </trkpt>
      <trkpt lat="48.17609" lon="-3.86726">
        <ele>96.6</ele>
        <time>2020-06-08T10:35:41Z</time>
      </trkpt>
      <trkpt lat="48.17613" lon="-3.86726">
        <ele>96.7</ele>
        <time>2020-06-08T10:35:42Z</time>
      </trkpt>
      <trkpt lat="48.17617" lon="-3.86727">
        <ele>96.8</ele>
        <time>2020-06-08T10:35:43Z</time>
      </trkpt>
      <trkpt lat="48.17621" lon="-3.86728">
        <ele>97</ele>
        <time>2020-06-08T10:35:44Z</time>
      </trkpt>
      <trkpt lat="48.17625" lon="-3.8673">
        <ele>97.1</ele>
        <time>2020-06-08T10:35:45Z</time>
      </trkpt>
      <trkpt lat="48.17629" lon="-3.86732">
        <ele>97.3</ele>
        <time>2020-06-08T10:35:46Z</time>
      </trkpt>
      <trkpt lat="48.17633" lon="-3.86733">
        <ele>97.5</ele>
        <time>2020-06-08T10:35:47Z</time>
      </trkpt>
      <trkpt lat="48.17638" lon="-3.86734">
        <ele>97.6</ele>
        <time>2020-06-08T10:35:48Z</time>
      </trkpt>
      <trkpt lat="48.17642" lon="-3.86736">
        <ele>97.8</ele>
        <time>2020-06-08T10:35:49Z</time>
      </trkpt>
      <trkpt lat="48.17646" lon="-3.8674">
        <ele>98</ele>
        <time>2020-06-08T10:35:50Z</time>
      </trkpt>
      <trkpt lat="48.17649" lon="-3.86742">
        <ele>98.1</ele>
        <time>2020-06-08T10:35:51Z</time>
      </trkpt>
      <trkpt lat="48.17654" lon="-3.86743">
        <ele>98.3</ele>
        <time>2020-06-08T10:35:52Z</time>
      </trkpt>
      <trkpt lat="48.17658" lon="-3.86744">
        <ele>98.4</ele>
        <time>2020-06-08T10:35:53Z</time>
      </trkpt>
      <trkpt lat="48.17661" lon="-3.86745">
        <ele>98.5</ele>
        <time>2020-06-08T10:35:54Z</time>
      </trkpt>
      <trkpt lat="48.17666" lon="-3.86747">
        <ele>98.6</ele>
        <time>2020-06-08T10:35:55Z</time>
      </trkpt>
      <trkpt lat="48.1767" lon="-3.86748">
        <ele>98.7</ele>
        <time>2020-06-08T10:35:56Z</time>
      </trkpt>
      <trkpt lat="48.17675" lon="-3.86749">
        <ele>98.8</ele>
        <time>2020-06-08T10:35:57Z</time>
      </trkpt>
      <trkpt lat="48.17679" lon="-3.8675">
        <ele>98.9</ele>
        <time>2020-06-08T10:35:58Z</time>
      </trkpt>
      <trkpt lat="48.17683" lon="-3.86751">
        <ele>99</ele>
        <time>2020-06-08T10:35:59Z</time>
      </trkpt>
      <trkpt lat="48.17687" lon="-3.86755">
        <ele>99.1</ele>
        <time>2020-06-08T10:36:00Z</time>
      </trkpt>
      <trkpt lat="48.17691" lon="-3.86757">
        <ele>99.1</ele>
        <time>2020-06-08T10:36:01Z</time>
      </trkpt>
      <trkpt lat="48.17694" lon="-3.86759">
        <ele>99.2</ele>
        <time>2020-06-08T10:36:02Z</time>
      </trkpt>
      <trkpt lat="48.17698" lon="-3.86761">
        <ele>99.3</ele>
        <time>2020-06-08T10:36:03Z</time>
      </trkpt>
      <trkpt lat="48.17703" lon="-3.86764">
        <ele>99.4</ele>
        <time>2020-06-08T10:36:04Z</time>
      </trkpt>
      <trkpt lat="48.17707" lon="-3.86766">
        <ele>99.4</ele>
        <time>2020-06-08T10:36:05Z</time>
      </trkpt>
      <trkpt lat="48.17711" lon="-3.86769">
        <ele>99.5</ele>
        <time>2020-06-08T10:36:06Z</time>
      </trkpt>
      <trkpt lat="48.17715" lon="-3.86772">
        <ele>99.5</ele>
        <time>2020-06-08T10:36:07Z</time>
      </trkpt>
      <trkpt lat="48.17719" lon="-3.86775">
        <ele>99.5</ele>
        <time>2020-06-08T10:36:08Z</time>
      </trkpt>
      <trkpt lat="48.17722" lon="-3.86779">
        <ele>99.6</ele>
        <time>2020-06-08T10:36:09Z</time>
      </trkpt>
      <trkpt lat="48.17726" lon="-3.86783">
        <ele>99.6</ele>
        <time>2020-06-08T10:36:10Z</time>
      </trkpt>
      <trkpt lat="48.1773" lon="-3.86786">
        <ele>99.6</ele>
        <time>2020-06-08T10:36:11Z</time>
      </trkpt>
      <trkpt lat="48.17735" lon="-3.86788">
        <ele>99.8</ele>
        <time>2020-06-08T10:36:12Z</time>
      </trkpt>
      <trkpt lat="48.17739" lon="-3.86791">
        <ele>99.9</ele>
        <time>2020-06-08T10:36:13Z</time>
      </trkpt>
      <trkpt lat="48.17743" lon="-3.86795">
        <ele>100</ele>
        <time>2020-06-08T10:36:14Z</time>
      </trkpt>
      <trkpt lat="48.17748" lon="-3.86798">
        <ele>100.2</ele>
        <time>2020-06-08T10:36:15Z</time>
      </trkpt>
      <trkpt lat="48.17752" lon="-3.86801">
        <ele>100.3</ele>
        <time>2020-06-08T10:36:16Z</time>
      </trkpt>
      <trkpt lat="48.17756" lon="-3.86804">
        <ele>100.4</ele>
        <time>2020-06-08T10:36:17Z</time>
      </trkpt>
      <trkpt lat="48.1776" lon="-3.86807">
        <ele>100.5</ele>
        <time>2020-06-08T10:36:18Z</time>
      </trkpt>
      <trkpt lat="48.17764" lon="-3.86811">
        <ele>100.6</ele>
        <time>2020-06-08T10:36:19Z</time>
      </trkpt>
      <trkpt lat="48.17767" lon="-3.86813">
        <ele>100.7</ele>
        <time>2020-06-08T10:36:20Z</time>
      </trkpt>
      <trkpt lat="48.17771" lon="-3.86816">
        <ele>100.7</ele>
        <time>2020-06-08T10:36:21Z</time>
      </trkpt>
      <trkpt lat="48.17773" lon="-3.86819">
        <ele>100.8</ele>
        <time>2020-06-08T10:36:22Z</time>
      </trkpt>
      <trkpt lat="48.17776" lon="-3.86821">
        <ele>100.8</ele>
        <time>2020-06-08T10:36:23Z</time>
      </trkpt>
      <trkpt lat="48.1778" lon="-3.86823">
        <ele>100.9</ele>
        <time>2020-06-08T10:36:24Z</time>
      </trkpt>
      <trkpt lat="48.17784" lon="-3.86825">
        <ele>100.9</ele>
        <time>2020-06-08T10:36:25Z</time>
      </trkpt>
      <trkpt lat="48.17787" lon="-3.86827">
        <ele>101</ele>
        <time>2020-06-08T10:36:26Z</time>
      </trkpt>
      <trkpt lat="48.17791" lon="-3.8683">
        <ele>101.2</ele>
        <time>2020-06-08T10:36:27Z</time>
      </trkpt>
      <trkpt lat="48.17795" lon="-3.86832">
        <ele>101.3</ele>
        <time>2020-06-08T10:36:28Z</time>
      </trkpt>
      <trkpt lat="48.17798" lon="-3.86832">
        <ele>101.4</ele>
        <time>2020-06-08T10:36:29Z</time>
      </trkpt>
      <trkpt lat="48.17803" lon="-3.86831">
        <ele>101.4</ele>
        <time>2020-06-08T10:36:30Z</time>
      </trkpt>
      <trkpt lat="48.17807" lon="-3.86831">
        <ele>101.4</ele>
        <time>2020-06-08T10:36:31Z</time>
      </trkpt>
      <trkpt lat="48.17812" lon="-3.86831">
        <ele>101.4</ele>
        <time>2020-06-08T10:36:32Z</time>
      </trkpt>
      <trkpt lat="48.17816" lon="-3.86831">
        <ele>101.4</ele>
        <time>2020-06-08T10:36:33Z</time>
      </trkpt>
      <trkpt lat="48.17819" lon="-3.8683">
        <ele>101.5</ele>
        <time>2020-06-08T10:36:34Z</time>
      </trkpt>
      <trkpt lat="48.17823" lon="-3.8683">
        <ele>101.5</ele>
        <time>2020-06-08T10:36:35Z</time>
      </trkpt>
      <trkpt lat="48.17827" lon="-3.86829">
        <ele>101.5</ele>
        <time>2020-06-08T10:36:36Z</time>
      </trkpt>
      <trkpt lat="48.17833" lon="-3.86827">
        <ele>101.6</ele>
        <time>2020-06-08T10:36:37Z</time>
      </trkpt>
      <trkpt lat="48.17837" lon="-3.86826">
        <ele>101.6</ele>
        <time>2020-06-08T10:36:38Z</time>
      </trkpt>
      <trkpt lat="48.17841" lon="-3.86826">
        <ele>101.5</ele>
        <time>2020-06-08T10:36:39Z</time>
      </trkpt>
      <trkpt lat="48.17845" lon="-3.86829">
        <ele>101.5</ele>
        <time>2020-06-08T10:36:40Z</time>
      </trkpt>
      <trkpt lat="48.17846" lon="-3.86833">
        <ele>101.5</ele>
        <time>2020-06-08T10:36:41Z</time>
      </trkpt>
      <trkpt lat="48.17848" lon="-3.86838">
        <ele>101.5</ele>
        <time>2020-06-08T10:36:42Z</time>
      </trkpt>
      <trkpt lat="48.17849" lon="-3.86844">
        <ele>101.5</ele>
        <time>2020-06-08T10:36:43Z</time>
      </trkpt>
      <trkpt lat="48.1785" lon="-3.8685">
        <ele>101.4</ele>
        <time>2020-06-08T10:36:44Z</time>
      </trkpt>
      <trkpt lat="48.17851" lon="-3.86858">
        <ele>101.2</ele>
        <time>2020-06-08T10:36:45Z</time>
      </trkpt>
      <trkpt lat="48.17851" lon="-3.86865">
        <ele>101.1</ele>
        <time>2020-06-08T10:36:46Z</time>
      </trkpt>
      <trkpt lat="48.17851" lon="-3.86872">
        <ele>100.9</ele>
        <time>2020-06-08T10:36:47Z</time>
      </trkpt>
      <trkpt lat="48.17853" lon="-3.86879">
        <ele>100.7</ele>
        <time>2020-06-08T10:36:48Z</time>
      </trkpt>
      <trkpt lat="48.17854" lon="-3.86886">
        <ele>100.6</ele>
        <time>2020-06-08T10:36:49Z</time>
      </trkpt>
      <trkpt lat="48.17855" lon="-3.86893">
        <ele>100.4</ele>
        <time>2020-06-08T10:36:50Z</time>
      </trkpt>
      <trkpt lat="48.17855" lon="-3.86902">
        <ele>100.2</ele>
        <time>2020-06-08T10:36:51Z</time>
      </trkpt>
      <trkpt lat="48.17855" lon="-3.86911">
        <ele>99.9</ele>
        <time>2020-06-08T10:36:52Z</time>
      </trkpt>
      <trkpt lat="48.17854" lon="-3.86921">
        <ele>99.7</ele>
        <time>2020-06-08T10:36:53Z</time>
      </trkpt>
      <trkpt lat="48.17854" lon="-3.8693">
        <ele>99.4</ele>
        <time>2020-06-08T10:36:54Z</time>
      </trkpt>
      <trkpt lat="48.17854" lon="-3.86941">
        <ele>99.2</ele>
        <time>2020-06-08T10:36:55Z</time>
      </trkpt>
      <trkpt lat="48.17853" lon="-3.8695">
        <ele>98.9</ele>
        <time>2020-06-08T10:36:56Z</time>
      </trkpt>
      <trkpt lat="48.17852" lon="-3.8696">
        <ele>98.7</ele>
        <time>2020-06-08T10:36:57Z</time>
      </trkpt>
      <trkpt lat="48.17851" lon="-3.86971">
        <ele>98.4</ele>
        <time>2020-06-08T10:36:58Z</time>
      </trkpt>
      <trkpt lat="48.17849" lon="-3.86982">
        <ele>98.1</ele>
        <time>2020-06-08T10:36:59Z</time>
      </trkpt>
      <trkpt lat="48.17846" lon="-3.86993">
        <ele>97.8</ele>
        <time>2020-06-08T10:37:00Z</time>
      </trkpt>
      <trkpt lat="48.17841" lon="-3.87003">
        <ele>97.5</ele>
        <time>2020-06-08T10:37:01Z</time>
      </trkpt>
      <trkpt lat="48.17836" lon="-3.87013">
        <ele>97.2</ele>
        <time>2020-06-08T10:37:02Z</time>
      </trkpt>
      <trkpt lat="48.17831" lon="-3.87023">
        <ele>96.7</ele>
        <time>2020-06-08T10:37:03Z</time>
      </trkpt>
      <trkpt lat="48.17826" lon="-3.87032">
        <ele>96.1</ele>
        <time>2020-06-08T10:37:04Z</time>
      </trkpt>
      <trkpt lat="48.17821" lon="-3.87043">
        <ele>95.5</ele>
        <time>2020-06-08T10:37:05Z</time>
      </trkpt>
      <trkpt lat="48.17817" lon="-3.87054">
        <ele>94.9</ele>
        <time>2020-06-08T10:37:06Z</time>
      </trkpt>
      <trkpt lat="48.17812" lon="-3.87066">
        <ele>94.4</ele>
        <time>2020-06-08T10:37:07Z</time>
      </trkpt>
      <trkpt lat="48.17807" lon="-3.87079">
        <ele>93.9</ele>
        <time>2020-06-08T10:37:08Z</time>
      </trkpt>
      <trkpt lat="48.17803" lon="-3.87091">
        <ele>93.5</ele>
        <time>2020-06-08T10:37:09Z</time>
      </trkpt>
      <trkpt lat="48.17799" lon="-3.87103">
        <ele>93.1</ele>
        <time>2020-06-08T10:37:10Z</time>
      </trkpt>
      <trkpt lat="48.17795" lon="-3.87116">
        <ele>92.8</ele>
        <time>2020-06-08T10:37:11Z</time>
      </trkpt>
      <trkpt lat="48.17791" lon="-3.87129">
        <ele>92.4</ele>
        <time>2020-06-08T10:37:12Z</time>
      </trkpt>
      <trkpt lat="48.17788" lon="-3.87142">
        <ele>92.2</ele>
        <time>2020-06-08T10:37:13Z</time>
      </trkpt>
      <trkpt lat="48.17784" lon="-3.87155">
        <ele>91.9</ele>
        <time>2020-06-08T10:37:14Z</time>
      </trkpt>
      <trkpt lat="48.1778" lon="-3.87167">
        <ele>91.7</ele>
        <time>2020-06-08T10:37:15Z</time>
      </trkpt>
      <trkpt lat="48.17777" lon="-3.87179">
        <ele>91.5</ele>
        <time>2020-06-08T10:37:16Z</time>
      </trkpt>
      <trkpt lat="48.17773" lon="-3.87192">
        <ele>91.4</ele>
        <time>2020-06-08T10:37:17Z</time>
      </trkpt>
      <trkpt lat="48.1777" lon="-3.87204">
        <ele>91.2</ele>
        <time>2020-06-08T10:37:18Z</time>
      </trkpt>
      <trkpt lat="48.17767" lon="-3.87217">
        <ele>91.1</ele>
        <time>2020-06-08T10:37:19Z</time>
      </trkpt>
      <trkpt lat="48.17765" lon="-3.87229">
        <ele>91</ele>
        <time>2020-06-08T10:37:20Z</time>
      </trkpt>
      <trkpt lat="48.17764" lon="-3.87242">
        <ele>90.8</ele>
        <time>2020-06-08T10:37:21Z</time>
      </trkpt>
      <trkpt lat="48.17765" lon="-3.87255">
        <ele>90.7</ele>
        <time>2020-06-08T10:37:22Z</time>
      </trkpt>
      <trkpt lat="48.17767" lon="-3.87267">
        <ele>90.5</ele>
        <time>2020-06-08T10:37:23Z</time>
      </trkpt>
      <trkpt lat="48.17769" lon="-3.87278">
        <ele>90.3</ele>
        <time>2020-06-08T10:37:24Z</time>
      </trkpt>
      <trkpt lat="48.17771" lon="-3.87289">
        <ele>90.1</ele>
        <time>2020-06-08T10:37:25Z</time>
      </trkpt>
      <trkpt lat="48.17773" lon="-3.87299">
        <ele>89.9</ele>
        <time>2020-06-08T10:37:26Z</time>
      </trkpt>
      <trkpt lat="48.17775" lon="-3.8731">
        <ele>89.8</ele>
        <time>2020-06-08T10:37:27Z</time>
      </trkpt>
      <trkpt lat="48.17777" lon="-3.8732">
        <ele>89.6</ele>
        <time>2020-06-08T10:37:28Z</time>
      </trkpt>
      <trkpt lat="48.17779" lon="-3.8733">
        <ele>89.4</ele>
        <time>2020-06-08T10:37:29Z</time>
      </trkpt>
      <trkpt lat="48.17781" lon="-3.8734">
        <ele>89.1</ele>
        <time>2020-06-08T10:37:30Z</time>
      </trkpt>
      <trkpt lat="48.17783" lon="-3.87349">
        <ele>88.9</ele>
        <time>2020-06-08T10:37:31Z</time>
      </trkpt>
      <trkpt lat="48.17785" lon="-3.87359">
        <ele>88.7</ele>
        <time>2020-06-08T10:37:32Z</time>
      </trkpt>
      <trkpt lat="48.17787" lon="-3.87369">
        <ele>88.4</ele>
        <time>2020-06-08T10:37:33Z</time>
      </trkpt>
      <trkpt lat="48.17789" lon="-3.87379">
        <ele>88.1</ele>
        <time>2020-06-08T10:37:34Z</time>
      </trkpt>
      <trkpt lat="48.17791" lon="-3.8739">
        <ele>87.8</ele>
        <time>2020-06-08T10:37:35Z</time>
      </trkpt>
      <trkpt lat="48.17792" lon="-3.87402">
        <ele>87.5</ele>
        <time>2020-06-08T10:37:36Z</time>
      </trkpt>
      <trkpt lat="48.17793" lon="-3.87415">
        <ele>87.1</ele>
        <time>2020-06-08T10:37:37Z</time>
      </trkpt>
      <trkpt lat="48.17793" lon="-3.87427">
        <ele>86.7</ele>
        <time>2020-06-08T10:37:38Z</time>
      </trkpt>
      <trkpt lat="48.17791" lon="-3.8744">
        <ele>86.2</ele>
        <time>2020-06-08T10:37:39Z</time>
      </trkpt>
      <trkpt lat="48.17789" lon="-3.87453">
        <ele>85.8</ele>
        <time>2020-06-08T10:37:40Z</time>
      </trkpt>
      <trkpt lat="48.17787" lon="-3.87467">
        <ele>85.5</ele>
        <time>2020-06-08T10:37:41Z</time>
      </trkpt>
      <trkpt lat="48.17786" lon="-3.87481">
        <ele>85.2</ele>
        <time>2020-06-08T10:37:42Z</time>
      </trkpt>
      <trkpt lat="48.17785" lon="-3.87494">
        <ele>84.9</ele>
        <time>2020-06-08T10:37:43Z</time>
      </trkpt>
      <trkpt lat="48.17784" lon="-3.87507">
        <ele>84.6</ele>
        <time>2020-06-08T10:37:44Z</time>
      </trkpt>
      <trkpt lat="48.17785" lon="-3.87521">
        <ele>83.9</ele>
        <time>2020-06-08T10:37:45Z</time>
      </trkpt>
      <trkpt lat="48.17787" lon="-3.87535">
        <ele>83.1</ele>
        <time>2020-06-08T10:37:46Z</time>
      </trkpt>
      <trkpt lat="48.17789" lon="-3.87549">
        <ele>82.4</ele>
        <time>2020-06-08T10:37:47Z</time>
      </trkpt>
      <trkpt lat="48.17792" lon="-3.87563">
        <ele>81.7</ele>
        <time>2020-06-08T10:37:48Z</time>
      </trkpt>
      <trkpt lat="48.17794" lon="-3.87578">
        <ele>81.1</ele>
        <time>2020-06-08T10:37:49Z</time>
      </trkpt>
      <trkpt lat="48.17796" lon="-3.87593">
        <ele>80.5</ele>
        <time>2020-06-08T10:37:50Z</time>
      </trkpt>
      <trkpt lat="48.17798" lon="-3.87608">
        <ele>80</ele>
        <time>2020-06-08T10:37:51Z</time>
      </trkpt>
      <trkpt lat="48.178" lon="-3.87624">
        <ele>79.6</ele>
        <time>2020-06-08T10:37:52Z</time>
      </trkpt>
      <trkpt lat="48.17803" lon="-3.8764">
        <ele>79.1</ele>
        <time>2020-06-08T10:37:53Z</time>
      </trkpt>
      <trkpt lat="48.17806" lon="-3.87657">
        <ele>78.1</ele>
        <time>2020-06-08T10:37:54Z</time>
      </trkpt>
      <trkpt lat="48.17808" lon="-3.87674">
        <ele>77.1</ele>
        <time>2020-06-08T10:37:55Z</time>
      </trkpt>
      <trkpt lat="48.1781" lon="-3.87691">
        <ele>76.3</ele>
        <time>2020-06-08T10:37:56Z</time>
      </trkpt>
      <trkpt lat="48.17813" lon="-3.87707">
        <ele>75.5</ele>
        <time>2020-06-08T10:37:57Z</time>
      </trkpt>
      <trkpt lat="48.17816" lon="-3.87724">
        <ele>74.8</ele>
        <time>2020-06-08T10:37:58Z</time>
      </trkpt>
      <trkpt lat="48.17818" lon="-3.87741">
        <ele>74</ele>
        <time>2020-06-08T10:37:59Z</time>
      </trkpt>
      <trkpt lat="48.1782" lon="-3.87758">
        <ele>73.3</ele>
        <time>2020-06-08T10:38:00Z</time>
      </trkpt>
      <trkpt lat="48.17822" lon="-3.87776">
        <ele>72.5</ele>
        <time>2020-06-08T10:38:01Z</time>
      </trkpt>
      <trkpt lat="48.17824" lon="-3.87793">
        <ele>71.7</ele>
        <time>2020-06-08T10:38:02Z</time>
      </trkpt>
      <trkpt lat="48.17825" lon="-3.87811">
        <ele>71</ele>
        <time>2020-06-08T10:38:03Z</time>
      </trkpt>
      <trkpt lat="48.17825" lon="-3.87828">
        <ele>70.2</ele>
        <time>2020-06-08T10:38:04Z</time>
      </trkpt>
      <trkpt lat="48.17825" lon="-3.87846">
        <ele>68.9</ele>
        <time>2020-06-08T10:38:05Z</time>
      </trkpt>
      <trkpt lat="48.17824" lon="-3.87864">
        <ele>67.5</ele>
        <time>2020-06-08T10:38:06Z</time>
      </trkpt>
      <trkpt lat="48.17822" lon="-3.87882">
        <ele>66.1</ele>
        <time>2020-06-08T10:38:07Z</time>
      </trkpt>
      <trkpt lat="48.1782" lon="-3.87899">
        <ele>64.9</ele>
        <time>2020-06-08T10:38:08Z</time>
      </trkpt>
      <trkpt lat="48.17817" lon="-3.87916">
        <ele>63.8</ele>
        <time>2020-06-08T10:38:09Z</time>
      </trkpt>
      <trkpt lat="48.17815" lon="-3.87934">
        <ele>63</ele>
        <time>2020-06-08T10:38:10Z</time>
      </trkpt>
      <trkpt lat="48.17812" lon="-3.87951">
        <ele>62.2</ele>
        <time>2020-06-08T10:38:11Z</time>
      </trkpt>
      <trkpt lat="48.1781" lon="-3.87969">
        <ele>61.6</ele>
        <time>2020-06-08T10:38:12Z</time>
      </trkpt>
      <trkpt lat="48.17809" lon="-3.87986">
        <ele>61.2</ele>
        <time>2020-06-08T10:38:13Z</time>
      </trkpt>
      <trkpt lat="48.17809" lon="-3.88003">
        <ele>60.9</ele>
        <time>2020-06-08T10:38:14Z</time>
      </trkpt>
      <trkpt lat="48.1781" lon="-3.88019">
        <ele>60.6</ele>
        <time>2020-06-08T10:38:15Z</time>
      </trkpt>
      <trkpt lat="48.17811" lon="-3.88034">
        <ele>60.3</ele>
        <time>2020-06-08T10:38:16Z</time>
      </trkpt>
      <trkpt lat="48.17812" lon="-3.88048">
        <ele>60.2</ele>
        <time>2020-06-08T10:38:17Z</time>
      </trkpt>
      <trkpt lat="48.17815" lon="-3.88062">
        <ele>60.1</ele>
        <time>2020-06-08T10:38:18Z</time>
      </trkpt>
      <trkpt lat="48.17817" lon="-3.88075">
        <ele>60</ele>
        <time>2020-06-08T10:38:19Z</time>
      </trkpt>
      <trkpt lat="48.1782" lon="-3.88087">
        <ele>59.9</ele>
        <time>2020-06-08T10:38:20Z</time>
      </trkpt>
      <trkpt lat="48.17823" lon="-3.88099">
        <ele>59.9</ele>
        <time>2020-06-08T10:38:21Z</time>
      </trkpt>
      <trkpt lat="48.17826" lon="-3.8811">
        <ele>60</ele>
        <time>2020-06-08T10:38:22Z</time>
      </trkpt>
      <trkpt lat="48.17828" lon="-3.88119">
        <ele>60</ele>
        <time>2020-06-08T10:38:23Z</time>
      </trkpt>
      <trkpt lat="48.17831" lon="-3.88128">
        <ele>60.1</ele>
        <time>2020-06-08T10:38:24Z</time>
      </trkpt>
      <trkpt lat="48.17833" lon="-3.88137">
        <ele>60.3</ele>
        <time>2020-06-08T10:38:25Z</time>
      </trkpt>
      <trkpt lat="48.17835" lon="-3.88145">
        <ele>60.5</ele>
        <time>2020-06-08T10:38:26Z</time>
      </trkpt>
      <trkpt lat="48.17836" lon="-3.88152">
        <ele>60.7</ele>
        <time>2020-06-08T10:38:27Z</time>
      </trkpt>
      <trkpt lat="48.17838" lon="-3.88158">
        <ele>60.8</ele>
        <time>2020-06-08T10:38:28Z</time>
      </trkpt>
      <trkpt lat="48.17839" lon="-3.88163">
        <ele>61</ele>
        <time>2020-06-08T10:38:29Z</time>
      </trkpt>
      <trkpt lat="48.1784" lon="-3.88168">
        <ele>61.1</ele>
        <time>2020-06-08T10:38:30Z</time>
      </trkpt>
      <trkpt lat="48.1784" lon="-3.88172">
        <ele>61.2</ele>
        <time>2020-06-08T10:38:31Z</time>
      </trkpt>
      <trkpt lat="48.1784" lon="-3.88177">
        <ele>61.4</ele>
        <time>2020-06-08T10:38:32Z</time>
      </trkpt>
      <trkpt lat="48.1784" lon="-3.88179">
        <ele>61.4</ele>
        <time>2020-06-08T10:38:33Z</time>
      </trkpt>
      <trkpt lat="48.17841" lon="-3.88181">
        <ele>61.5</ele>
        <time>2020-06-08T10:38:34Z</time>
      </trkpt>
      <trkpt lat="48.17842" lon="-3.88183">
        <ele>61.5</ele>
        <time>2020-06-08T10:38:35Z</time>
      </trkpt>
      <trkpt lat="48.17842" lon="-3.88185">
        <ele>61.6</ele>
        <time>2020-06-08T10:38:36Z</time>
      </trkpt>
      <trkpt lat="48.17843" lon="-3.88187">
        <ele>61.6</ele>
        <time>2020-06-08T10:38:37Z</time>
      </trkpt>
      <trkpt lat="48.17843" lon="-3.8819">
        <ele>61.7</ele>
        <time>2020-06-08T10:38:38Z</time>
      </trkpt>
      <trkpt lat="48.17843" lon="-3.88192">
        <ele>61.8</ele>
        <time>2020-06-08T10:38:39Z</time>
      </trkpt>
      <trkpt lat="48.17844" lon="-3.88194">
        <ele>61.8</ele>
        <time>2020-06-08T10:38:40Z</time>
      </trkpt>
      <trkpt lat="48.17844" lon="-3.88197">
        <ele>61.9</ele>
        <time>2020-06-08T10:38:41Z</time>
      </trkpt>
      <trkpt lat="48.17845" lon="-3.88202">
        <ele>62</ele>
        <time>2020-06-08T10:38:42Z</time>
      </trkpt>
      <trkpt lat="48.17845" lon="-3.88203">
        <ele>62.1</ele>
        <time>2020-06-08T10:38:43Z</time>
      </trkpt>
      <trkpt lat="48.17846" lon="-3.88207">
        <ele>62.2</ele>
        <time>2020-06-08T10:38:44Z</time>
      </trkpt>
      <trkpt lat="48.17848" lon="-3.88211">
        <ele>62.3</ele>
        <time>2020-06-08T10:38:45Z</time>
      </trkpt>
      <trkpt lat="48.17848" lon="-3.88215">
        <ele>62.4</ele>
        <time>2020-06-08T10:38:46Z</time>
      </trkpt>
      <trkpt lat="48.17848" lon="-3.8822">
        <ele>62.5</ele>
        <time>2020-06-08T10:38:47Z</time>
      </trkpt>
      <trkpt lat="48.17849" lon="-3.88224">
        <ele>62.7</ele>
        <time>2020-06-08T10:38:48Z</time>
      </trkpt>
      <trkpt lat="48.1785" lon="-3.88229">
        <ele>62.8</ele>
        <time>2020-06-08T10:38:49Z</time>
      </trkpt>
      <trkpt lat="48.17851" lon="-3.88234">
        <ele>63</ele>
        <time>2020-06-08T10:38:50Z</time>
      </trkpt>
      <trkpt lat="48.17852" lon="-3.8824">
        <ele>63.1</ele>
        <time>2020-06-08T10:38:51Z</time>
      </trkpt>
      <trkpt lat="48.17853" lon="-3.88245">
        <ele>63.2</ele>
        <time>2020-06-08T10:38:52Z</time>
      </trkpt>
      <trkpt lat="48.17854" lon="-3.88251">
        <ele>63.4</ele>
        <time>2020-06-08T10:38:53Z</time>
      </trkpt>
      <trkpt lat="48.17855" lon="-3.88256">
        <ele>63.5</ele>
        <time>2020-06-08T10:38:54Z</time>
      </trkpt>
      <trkpt lat="48.17856" lon="-3.88262">
        <ele>63.6</ele>
        <time>2020-06-08T10:38:55Z</time>
      </trkpt>
      <trkpt lat="48.17857" lon="-3.88269">
        <ele>63.7</ele>
        <time>2020-06-08T10:38:56Z</time>
      </trkpt>
      <trkpt lat="48.17858" lon="-3.88275">
        <ele>63.8</ele>
        <time>2020-06-08T10:38:57Z</time>
      </trkpt>
      <trkpt lat="48.1786" lon="-3.88283">
        <ele>63.9</ele>
        <time>2020-06-08T10:38:58Z</time>
      </trkpt>
      <trkpt lat="48.17861" lon="-3.88292">
        <ele>63.9</ele>
        <time>2020-06-08T10:38:59Z</time>
      </trkpt>
      <trkpt lat="48.17862" lon="-3.88302">
        <ele>64.1</ele>
        <time>2020-06-08T10:39:00Z</time>
      </trkpt>
      <trkpt lat="48.17862" lon="-3.88312">
        <ele>65</ele>
        <time>2020-06-08T10:39:01Z</time>
      </trkpt>
      <trkpt lat="48.17862" lon="-3.88322">
        <ele>65.4</ele>
        <time>2020-06-08T10:39:02Z</time>
      </trkpt>
      <trkpt lat="48.17862" lon="-3.88329">
        <ele>65.5</ele>
        <time>2020-06-08T10:39:03Z</time>
      </trkpt>
      <trkpt lat="48.17863" lon="-3.88338">
        <ele>65.5</ele>
        <time>2020-06-08T10:39:04Z</time>
      </trkpt>
      <trkpt lat="48.17865" lon="-3.88349">
        <ele>65.3</ele>
        <time>2020-06-08T10:39:05Z</time>
      </trkpt>
      <trkpt lat="48.17865" lon="-3.88358">
        <ele>65.2</ele>
        <time>2020-06-08T10:39:06Z</time>
      </trkpt>
      <trkpt lat="48.17867" lon="-3.88369">
        <ele>65</ele>
        <time>2020-06-08T10:39:07Z</time>
      </trkpt>
      <trkpt lat="48.17869" lon="-3.8838">
        <ele>64.9</ele>
        <time>2020-06-08T10:39:08Z</time>
      </trkpt>
      <trkpt lat="48.1787" lon="-3.88389">
        <ele>64.9</ele>
        <time>2020-06-08T10:39:09Z</time>
      </trkpt>
      <trkpt lat="48.17872" lon="-3.88398">
        <ele>64.9</ele>
        <time>2020-06-08T10:39:10Z</time>
      </trkpt>
      <trkpt lat="48.17874" lon="-3.88407">
        <ele>64.9</ele>
        <time>2020-06-08T10:39:11Z</time>
      </trkpt>
      <trkpt lat="48.17876" lon="-3.88417">
        <ele>64.9</ele>
        <time>2020-06-08T10:39:12Z</time>
      </trkpt>
      <trkpt lat="48.17878" lon="-3.88427">
        <ele>64.9</ele>
        <time>2020-06-08T10:39:13Z</time>
      </trkpt>
      <trkpt lat="48.1788" lon="-3.88437">
        <ele>64.8</ele>
        <time>2020-06-08T10:39:14Z</time>
      </trkpt>
      <trkpt lat="48.17882" lon="-3.88446">
        <ele>64.7</ele>
        <time>2020-06-08T10:39:15Z</time>
      </trkpt>
      <trkpt lat="48.17884" lon="-3.88455">
        <ele>64.6</ele>
        <time>2020-06-08T10:39:16Z</time>
      </trkpt>
      <trkpt lat="48.17885" lon="-3.88463">
        <ele>64.5</ele>
        <time>2020-06-08T10:39:17Z</time>
      </trkpt>
      <trkpt lat="48.17886" lon="-3.88472">
        <ele>64.3</ele>
        <time>2020-06-08T10:39:18Z</time>
      </trkpt>
      <trkpt lat="48.17888" lon="-3.88479">
        <ele>64.2</ele>
        <time>2020-06-08T10:39:19Z</time>
      </trkpt>
      <trkpt lat="48.1789" lon="-3.88487">
        <ele>64</ele>
        <time>2020-06-08T10:39:20Z</time>
      </trkpt>
      <trkpt lat="48.17892" lon="-3.88496">
        <ele>63.9</ele>
        <time>2020-06-08T10:39:21Z</time>
      </trkpt>
      <trkpt lat="48.17894" lon="-3.88504">
        <ele>63.8</ele>
        <time>2020-06-08T10:39:22Z</time>
      </trkpt>
      <trkpt lat="48.17895" lon="-3.88514">
        <ele>63.6</ele>
        <time>2020-06-08T10:39:23Z</time>
      </trkpt>
      <trkpt lat="48.17897" lon="-3.88523">
        <ele>63.4</ele>
        <time>2020-06-08T10:39:24Z</time>
      </trkpt>
      <trkpt lat="48.179" lon="-3.88532">
        <ele>63.3</ele>
        <time>2020-06-08T10:39:25Z</time>
      </trkpt>
      <trkpt lat="48.17902" lon="-3.8854">
        <ele>63.2</ele>
        <time>2020-06-08T10:39:26Z</time>
      </trkpt>
      <trkpt lat="48.17903" lon="-3.88549">
        <ele>63</ele>
        <time>2020-06-08T10:39:27Z</time>
      </trkpt>
      <trkpt lat="48.17905" lon="-3.88556">
        <ele>62.9</ele>
        <time>2020-06-08T10:39:28Z</time>
      </trkpt>
      <trkpt lat="48.17907" lon="-3.88565">
        <ele>62.7</ele>
        <time>2020-06-08T10:39:29Z</time>
      </trkpt>
      <trkpt lat="48.17908" lon="-3.88571">
        <ele>62.6</ele>
        <time>2020-06-08T10:39:30Z</time>
      </trkpt>
      <trkpt lat="48.17909" lon="-3.88576">
        <ele>62.5</ele>
        <time>2020-06-08T10:39:31Z</time>
      </trkpt>
      <trkpt lat="48.1791" lon="-3.88582">
        <ele>62.4</ele>
        <time>2020-06-08T10:39:32Z</time>
      </trkpt>
      <trkpt lat="48.17911" lon="-3.88589">
        <ele>62.2</ele>
        <time>2020-06-08T10:39:33Z</time>
      </trkpt>
      <trkpt lat="48.17913" lon="-3.88595">
        <ele>62.1</ele>
        <time>2020-06-08T10:39:34Z</time>
      </trkpt>
      <trkpt lat="48.17914" lon="-3.88602">
        <ele>61.9</ele>
        <time>2020-06-08T10:39:35Z</time>
      </trkpt>
      <trkpt lat="48.17916" lon="-3.8861">
        <ele>61.8</ele>
        <time>2020-06-08T10:39:36Z</time>
      </trkpt>
      <trkpt lat="48.17917" lon="-3.88619">
        <ele>61.6</ele>
        <time>2020-06-08T10:39:37Z</time>
      </trkpt>
      <trkpt lat="48.17919" lon="-3.88626">
        <ele>61.5</ele>
        <time>2020-06-08T10:39:38Z</time>
      </trkpt>
      <trkpt lat="48.17921" lon="-3.88634">
        <ele>61.3</ele>
        <time>2020-06-08T10:39:39Z</time>
      </trkpt>
      <trkpt lat="48.17923" lon="-3.88643">
        <ele>61.1</ele>
        <time>2020-06-08T10:39:40Z</time>
      </trkpt>
      <trkpt lat="48.17924" lon="-3.88652">
        <ele>60.9</ele>
        <time>2020-06-08T10:39:41Z</time>
      </trkpt>
      <trkpt lat="48.17926" lon="-3.88661">
        <ele>60.8</ele>
        <time>2020-06-08T10:39:42Z</time>
      </trkpt>
      <trkpt lat="48.17928" lon="-3.8867">
        <ele>60.7</ele>
        <time>2020-06-08T10:39:43Z</time>
      </trkpt>
      <trkpt lat="48.17929" lon="-3.8868">
        <ele>60.5</ele>
        <time>2020-06-08T10:39:44Z</time>
      </trkpt>
      <trkpt lat="48.17931" lon="-3.88689">
        <ele>60.4</ele>
        <time>2020-06-08T10:39:45Z</time>
      </trkpt>
      <trkpt lat="48.17933" lon="-3.88699">
        <ele>60.2</ele>
        <time>2020-06-08T10:39:46Z</time>
      </trkpt>
      <trkpt lat="48.17934" lon="-3.88709">
        <ele>60</ele>
        <time>2020-06-08T10:39:47Z</time>
      </trkpt>
      <trkpt lat="48.17936" lon="-3.88717">
        <ele>59.8</ele>
        <time>2020-06-08T10:39:48Z</time>
      </trkpt>
      <trkpt lat="48.17936" lon="-3.88726">
        <ele>59.7</ele>
        <time>2020-06-08T10:39:49Z</time>
      </trkpt>
      <trkpt lat="48.17938" lon="-3.88735">
        <ele>59.6</ele>
        <time>2020-06-08T10:39:50Z</time>
      </trkpt>
      <trkpt lat="48.17939" lon="-3.88745">
        <ele>59.5</ele>
        <time>2020-06-08T10:39:51Z</time>
      </trkpt>
      <trkpt lat="48.1794" lon="-3.88754">
        <ele>59.4</ele>
        <time>2020-06-08T10:39:52Z</time>
      </trkpt>
      <trkpt lat="48.17941" lon="-3.88764">
        <ele>59.4</ele>
        <time>2020-06-08T10:39:53Z</time>
      </trkpt>
      <trkpt lat="48.17942" lon="-3.88771">
        <ele>59.4</ele>
        <time>2020-06-08T10:39:54Z</time>
      </trkpt>
      <trkpt lat="48.17944" lon="-3.88782">
        <ele>59.4</ele>
        <time>2020-06-08T10:39:55Z</time>
      </trkpt>
      <trkpt lat="48.17946" lon="-3.88791">
        <ele>59.6</ele>
        <time>2020-06-08T10:39:56Z</time>
      </trkpt>
      <trkpt lat="48.17947" lon="-3.88799">
        <ele>59.5</ele>
        <time>2020-06-08T10:39:57Z</time>
      </trkpt>
      <trkpt lat="48.17947" lon="-3.88807">
        <ele>59.4</ele>
        <time>2020-06-08T10:39:58Z</time>
      </trkpt>
      <trkpt lat="48.17948" lon="-3.88816">
        <ele>59.2</ele>
        <time>2020-06-08T10:39:59Z</time>
      </trkpt>
      <trkpt lat="48.17948" lon="-3.88825">
        <ele>59</ele>
        <time>2020-06-08T10:40:00Z</time>
      </trkpt>
      <trkpt lat="48.17949" lon="-3.88834">
        <ele>58.7</ele>
        <time>2020-06-08T10:40:01Z</time>
      </trkpt>
      <trkpt lat="48.1795" lon="-3.88846">
        <ele>58.4</ele>
        <time>2020-06-08T10:40:02Z</time>
      </trkpt>
      <trkpt lat="48.1795" lon="-3.88856">
        <ele>58.2</ele>
        <time>2020-06-08T10:40:03Z</time>
      </trkpt>
      <trkpt lat="48.17951" lon="-3.88864">
        <ele>58</ele>
        <time>2020-06-08T10:40:04Z</time>
      </trkpt>
      <trkpt lat="48.17951" lon="-3.88874">
        <ele>57.7</ele>
        <time>2020-06-08T10:40:05Z</time>
      </trkpt>
      <trkpt lat="48.17952" lon="-3.88883">
        <ele>57.5</ele>
        <time>2020-06-08T10:40:06Z</time>
      </trkpt>
      <trkpt lat="48.17953" lon="-3.88893">
        <ele>57.3</ele>
        <time>2020-06-08T10:40:07Z</time>
      </trkpt>
      <trkpt lat="48.17954" lon="-3.88903">
        <ele>57.1</ele>
        <time>2020-06-08T10:40:08Z</time>
      </trkpt>
      <trkpt lat="48.17955" lon="-3.88912">
        <ele>56.8</ele>
        <time>2020-06-08T10:40:09Z</time>
      </trkpt>
      <trkpt lat="48.17955" lon="-3.88921">
        <ele>56.6</ele>
        <time>2020-06-08T10:40:10Z</time>
      </trkpt>
      <trkpt lat="48.17956" lon="-3.88931">
        <ele>56.4</ele>
        <time>2020-06-08T10:40:11Z</time>
      </trkpt>
      <trkpt lat="48.17957" lon="-3.88941">
        <ele>56.2</ele>
        <time>2020-06-08T10:40:12Z</time>
      </trkpt>
      <trkpt lat="48.17957" lon="-3.88951">
        <ele>56</ele>
        <time>2020-06-08T10:40:13Z</time>
      </trkpt>
      <trkpt lat="48.17958" lon="-3.88961">
        <ele>55.7</ele>
        <time>2020-06-08T10:40:14Z</time>
      </trkpt>
      <trkpt lat="48.17959" lon="-3.88972">
        <ele>55.5</ele>
        <time>2020-06-08T10:40:15Z</time>
      </trkpt>
      <trkpt lat="48.17959" lon="-3.88981">
        <ele>55.3</ele>
        <time>2020-06-08T10:40:16Z</time>
      </trkpt>
      <trkpt lat="48.1796" lon="-3.88991">
        <ele>55.1</ele>
        <time>2020-06-08T10:40:17Z</time>
      </trkpt>
      <trkpt lat="48.17961" lon="-3.89002">
        <ele>54.9</ele>
        <time>2020-06-08T10:40:18Z</time>
      </trkpt>
      <trkpt lat="48.17961" lon="-3.89012">
        <ele>54.6</ele>
        <time>2020-06-08T10:40:19Z</time>
      </trkpt>
      <trkpt lat="48.17962" lon="-3.89022">
        <ele>54.4</ele>
        <time>2020-06-08T10:40:20Z</time>
      </trkpt>
      <trkpt lat="48.17963" lon="-3.89033">
        <ele>54.1</ele>
        <time>2020-06-08T10:40:21Z</time>
      </trkpt>
      <trkpt lat="48.17963" lon="-3.89044">
        <ele>53.9</ele>
        <time>2020-06-08T10:40:22Z</time>
      </trkpt>
      <trkpt lat="48.17964" lon="-3.89055">
        <ele>53.6</ele>
        <time>2020-06-08T10:40:23Z</time>
      </trkpt>
      <trkpt lat="48.17964" lon="-3.89066">
        <ele>53.3</ele>
        <time>2020-06-08T10:40:24Z</time>
      </trkpt>
      <trkpt lat="48.17965" lon="-3.89078">
        <ele>53</ele>
        <time>2020-06-08T10:40:25Z</time>
      </trkpt>
      <trkpt lat="48.17965" lon="-3.8909">
        <ele>52.7</ele>
        <time>2020-06-08T10:40:26Z</time>
      </trkpt>
      <trkpt lat="48.17965" lon="-3.89101">
        <ele>52.4</ele>
        <time>2020-06-08T10:40:27Z</time>
      </trkpt>
      <trkpt lat="48.17966" lon="-3.89112">
        <ele>52.1</ele>
        <time>2020-06-08T10:40:28Z</time>
      </trkpt>
      <trkpt lat="48.17966" lon="-3.89121">
        <ele>51.9</ele>
        <time>2020-06-08T10:40:29Z</time>
      </trkpt>
      <trkpt lat="48.17966" lon="-3.89131">
        <ele>51.6</ele>
        <time>2020-06-08T10:40:30Z</time>
      </trkpt>
      <trkpt lat="48.17966" lon="-3.89138">
        <ele>51.5</ele>
        <time>2020-06-08T10:40:31Z</time>
      </trkpt>
      <trkpt lat="48.17965" lon="-3.89145">
        <ele>51.3</ele>
        <time>2020-06-08T10:40:32Z</time>
      </trkpt>
      <trkpt lat="48.17965" lon="-3.8915">
        <ele>51.2</ele>
        <time>2020-06-08T10:40:33Z</time>
      </trkpt>
      <trkpt lat="48.17962" lon="-3.89154">
        <ele>50.9</ele>
        <time>2020-06-08T10:40:34Z</time>
      </trkpt>
      <trkpt lat="48.17961" lon="-3.89155">
        <ele>50.8</ele>
        <time>2020-06-08T10:40:35Z</time>
      </trkpt>
      <trkpt lat="48.17962" lon="-3.89157">
        <ele>50.7</ele>
        <time>2020-06-08T10:40:36Z</time>
      </trkpt>
      <trkpt lat="48.17962" lon="-3.89157">
        <ele>50.6</ele>
        <time>2020-06-08T10:40:37Z</time>
      </trkpt>
      <trkpt lat="48.17963" lon="-3.89157">
        <ele>50.5</ele>
        <time>2020-06-08T10:40:38Z</time>
      </trkpt>
      <trkpt lat="48.17964" lon="-3.89157">
        <ele>50.5</ele>
        <time>2020-06-08T10:40:39Z</time>
      </trkpt>
      <trkpt lat="48.17964" lon="-3.89157">
        <ele>50.4</ele>
        <time>2020-06-08T10:40:40Z</time>
      </trkpt>
      <trkpt lat="48.17965" lon="-3.89157">
        <ele>50.3</ele>
        <time>2020-06-08T10:40:41Z</time>
      </trkpt>
      <trkpt lat="48.17966" lon="-3.89157">
        <ele>50.3</ele>
        <time>2020-06-08T10:40:42Z</time>
      </trkpt>
      <trkpt lat="48.17966" lon="-3.89157">
        <ele>50.2</ele>
        <time>2020-06-08T10:40:43Z</time>
      </trkpt>
      <trkpt lat="48.17967" lon="-3.89158">
        <ele>50.1</ele>
        <time>2020-06-08T10:40:44Z</time>
      </trkpt>
      <trkpt lat="48.17968" lon="-3.89158">
        <ele>50</ele>
        <time>2020-06-08T10:40:45Z</time>
      </trkpt>
      <trkpt lat="48.17968" lon="-3.89158">
        <ele>50</ele>
        <time>2020-06-08T10:40:46Z</time>
      </trkpt>
      <trkpt lat="48.17969" lon="-3.89158">
        <ele>49.9</ele>
        <time>2020-06-08T10:40:47Z</time>
      </trkpt>
      <trkpt lat="48.17969" lon="-3.89158">
        <ele>49.8</ele>
        <time>2020-06-08T10:40:48Z</time>
      </trkpt>
      <trkpt lat="48.1797" lon="-3.89158">
        <ele>49.7</ele>
        <time>2020-06-08T10:41:07Z</time>
      </trkpt>
      <trkpt lat="48.17971" lon="-3.89158">
        <ele>49.6</ele>
        <time>2020-06-08T10:41:08Z</time>
      </trkpt>
      <trkpt lat="48.17972" lon="-3.89162">
        <ele>49.3</ele>
        <time>2020-06-08T10:41:09Z</time>
      </trkpt>
      <trkpt lat="48.17974" lon="-3.89167">
        <ele>48.8</ele>
        <time>2020-06-08T10:41:10Z</time>
      </trkpt>
      <trkpt lat="48.17978" lon="-3.89172">
        <ele>48.2</ele>
        <time>2020-06-08T10:41:11Z</time>
      </trkpt>
      <trkpt lat="48.1798" lon="-3.8918">
        <ele>47.5</ele>
        <time>2020-06-08T10:41:12Z</time>
      </trkpt>
      <trkpt lat="48.17984" lon="-3.89188">
        <ele>46.6</ele>
        <time>2020-06-08T10:41:13Z</time>
      </trkpt>
      <trkpt lat="48.17988" lon="-3.89197">
        <ele>45.7</ele>
        <time>2020-06-08T10:41:14Z</time>
      </trkpt>
      <trkpt lat="48.17993" lon="-3.89207">
        <ele>44.8</ele>
        <time>2020-06-08T10:41:15Z</time>
      </trkpt>
      <trkpt lat="48.17998" lon="-3.89219">
        <ele>43.8</ele>
        <time>2020-06-08T10:41:16Z</time>
      </trkpt>
      <trkpt lat="48.18003" lon="-3.8923">
        <ele>42.8</ele>
        <time>2020-06-08T10:41:17Z</time>
      </trkpt>
      <trkpt lat="48.1801" lon="-3.89242">
        <ele>41.8</ele>
        <time>2020-06-08T10:41:18Z</time>
      </trkpt>
      <trkpt lat="48.18015" lon="-3.89255">
        <ele>40.8</ele>
        <time>2020-06-08T10:41:19Z</time>
      </trkpt>
      <trkpt lat="48.18022" lon="-3.89267">
        <ele>39.9</ele>
        <time>2020-06-08T10:41:20Z</time>
      </trkpt>
      <trkpt lat="48.18028" lon="-3.89281">
        <ele>39</ele>
        <time>2020-06-08T10:41:21Z</time>
      </trkpt>
      <trkpt lat="48.18035" lon="-3.89294">
        <ele>38.3</ele>
        <time>2020-06-08T10:41:22Z</time>
      </trkpt>
      <trkpt lat="48.18042" lon="-3.89307">
        <ele>37.6</ele>
        <time>2020-06-08T10:41:23Z</time>
      </trkpt>
      <trkpt lat="48.1805" lon="-3.8932">
        <ele>37.2</ele>
        <time>2020-06-08T10:41:24Z</time>
      </trkpt>
      <trkpt lat="48.18058" lon="-3.89332">
        <ele>37</ele>
        <time>2020-06-08T10:41:25Z</time>
      </trkpt>
      <trkpt lat="48.18065" lon="-3.89346">
        <ele>38.4</ele>
        <time>2020-06-08T10:41:26Z</time>
      </trkpt>
      <trkpt lat="48.18073" lon="-3.89359">
        <ele>36.8</ele>
        <time>2020-06-08T10:41:27Z</time>
      </trkpt>
      <trkpt lat="48.1808" lon="-3.89373">
        <ele>35.6</ele>
        <time>2020-06-08T10:41:28Z</time>
      </trkpt>
      <trkpt lat="48.18086" lon="-3.89388">
        <ele>34.7</ele>
        <time>2020-06-08T10:41:29Z</time>
      </trkpt>
      <trkpt lat="48.18094" lon="-3.89401">
        <ele>33.9</ele>
        <time>2020-06-08T10:41:30Z</time>
      </trkpt>
      <trkpt lat="48.18101" lon="-3.89414">
        <ele>33.5</ele>
        <time>2020-06-08T10:41:31Z</time>
      </trkpt>
      <trkpt lat="48.18108" lon="-3.89428">
        <ele>33.1</ele>
        <time>2020-06-08T10:41:32Z</time>
      </trkpt>
      <trkpt lat="48.18115" lon="-3.89441">
        <ele>32.7</ele>
        <time>2020-06-08T10:41:33Z</time>
      </trkpt>
      <trkpt lat="48.18121" lon="-3.89454">
        <ele>32.5</ele>
        <time>2020-06-08T10:41:34Z</time>
      </trkpt>
      <trkpt lat="48.18129" lon="-3.89465">
        <ele>32.5</ele>
        <time>2020-06-08T10:41:35Z</time>
      </trkpt>
      <trkpt lat="48.18137" lon="-3.89475">
        <ele>32.6</ele>
        <time>2020-06-08T10:41:36Z</time>
      </trkpt>
      <trkpt lat="48.18146" lon="-3.89482">
        <ele>32.8</ele>
        <time>2020-06-08T10:41:37Z</time>
      </trkpt>
      <trkpt lat="48.18154" lon="-3.89489">
        <ele>32.9</ele>
        <time>2020-06-08T10:41:38Z</time>
      </trkpt>
      <trkpt lat="48.1816" lon="-3.89497">
        <ele>33.1</ele>
        <time>2020-06-08T10:41:39Z</time>
      </trkpt>
      <trkpt lat="48.18166" lon="-3.89503">
        <ele>33.3</ele>
        <time>2020-06-08T10:41:40Z</time>
      </trkpt>
      <trkpt lat="48.18171" lon="-3.89508">
        <ele>34.1</ele>
        <time>2020-06-08T10:41:41Z</time>
      </trkpt>
      <trkpt lat="48.18175" lon="-3.89514">
        <ele>34.7</ele>
        <time>2020-06-08T10:41:42Z</time>
      </trkpt>
      <trkpt lat="48.18178" lon="-3.89519">
        <ele>35.2</ele>
        <time>2020-06-08T10:41:43Z</time>
      </trkpt>
      <trkpt lat="48.18181" lon="-3.89524">
        <ele>35.6</ele>
        <time>2020-06-08T10:41:44Z</time>
      </trkpt>
      <trkpt lat="48.18183" lon="-3.89529">
        <ele>36</ele>
        <time>2020-06-08T10:41:45Z</time>
      </trkpt>
      <trkpt lat="48.18185" lon="-3.89533">
        <ele>36.4</ele>
        <time>2020-06-08T10:41:46Z</time>
      </trkpt>
      <trkpt lat="48.18187" lon="-3.89536">
        <ele>36.7</ele>
        <time>2020-06-08T10:41:47Z</time>
      </trkpt>
      <trkpt lat="48.18188" lon="-3.8954">
        <ele>37</ele>
        <time>2020-06-08T10:41:48Z</time>
      </trkpt>
      <trkpt lat="48.1819" lon="-3.89543">
        <ele>37.4</ele>
        <time>2020-06-08T10:41:49Z</time>
      </trkpt>
      <trkpt lat="48.18191" lon="-3.89548">
        <ele>37.9</ele>
        <time>2020-06-08T10:41:50Z</time>
      </trkpt>
      <trkpt lat="48.18192" lon="-3.8955">
        <ele>38</ele>
        <time>2020-06-08T10:41:51Z</time>
      </trkpt>
      <trkpt lat="48.18194" lon="-3.89555">
        <ele>38.5</ele>
        <time>2020-06-08T10:41:52Z</time>
      </trkpt>
      <trkpt lat="48.18194" lon="-3.89556">
        <ele>38.7</ele>
        <time>2020-06-08T10:41:53Z</time>
      </trkpt>
      <trkpt lat="48.18196" lon="-3.8956">
        <ele>39.1</ele>
        <time>2020-06-08T10:41:54Z</time>
      </trkpt>
      <trkpt lat="48.18198" lon="-3.89564">
        <ele>39.5</ele>
        <time>2020-06-08T10:41:55Z</time>
      </trkpt>
      <trkpt lat="48.18199" lon="-3.89565">
        <ele>39.7</ele>
        <time>2020-06-08T10:41:56Z</time>
      </trkpt>
      <trkpt lat="48.18202" lon="-3.89568">
        <ele>40.1</ele>
        <time>2020-06-08T10:41:57Z</time>
      </trkpt>
      <trkpt lat="48.18202" lon="-3.89569">
        <ele>40.3</ele>
        <time>2020-06-08T10:41:58Z</time>
      </trkpt>
      <trkpt lat="48.18206" lon="-3.89572">
        <ele>40.8</ele>
        <time>2020-06-08T10:41:59Z</time>
      </trkpt>
      <trkpt lat="48.18207" lon="-3.89573">
        <ele>40.9</ele>
        <time>2020-06-08T10:42:00Z</time>
      </trkpt>
      <trkpt lat="48.1821" lon="-3.89574">
        <ele>41.4</ele>
        <time>2020-06-08T10:42:01Z</time>
      </trkpt>
      <trkpt lat="48.18211" lon="-3.89573">
        <ele>41.5</ele>
        <time>2020-06-08T10:42:02Z</time>
      </trkpt>
      <trkpt lat="48.18213" lon="-3.8957">
        <ele>41.8</ele>
        <time>2020-06-08T10:42:03Z</time>
      </trkpt>
      <trkpt lat="48.18214" lon="-3.89569">
        <ele>42.1</ele>
        <time>2020-06-08T10:42:04Z</time>
      </trkpt>
      <trkpt lat="48.18216" lon="-3.89566">
        <ele>42.8</ele>
        <time>2020-06-08T10:42:05Z</time>
      </trkpt>
      <trkpt lat="48.18217" lon="-3.89565">
        <ele>43</ele>
        <time>2020-06-08T10:42:06Z</time>
      </trkpt>
      <trkpt lat="48.18221" lon="-3.89563">
        <ele>43.8</ele>
        <time>2020-06-08T10:42:07Z</time>
      </trkpt>
      <trkpt lat="48.18222" lon="-3.89562">
        <ele>44.1</ele>
        <time>2020-06-08T10:42:08Z</time>
      </trkpt>
      <trkpt lat="48.18225" lon="-3.8956">
        <ele>44.8</ele>
        <time>2020-06-08T10:42:09Z</time>
      </trkpt>
      <trkpt lat="48.18229" lon="-3.89557">
        <ele>45.5</ele>
        <time>2020-06-08T10:42:10Z</time>
      </trkpt>
      <trkpt lat="48.18232" lon="-3.89555">
        <ele>46</ele>
        <time>2020-06-08T10:42:11Z</time>
      </trkpt>
      <trkpt lat="48.18235" lon="-3.89553">
        <ele>46.4</ele>
        <time>2020-06-08T10:42:12Z</time>
      </trkpt>
      <trkpt lat="48.18238" lon="-3.89552">
        <ele>46.8</ele>
        <time>2020-06-08T10:42:13Z</time>
      </trkpt>
      <trkpt lat="48.18239" lon="-3.89552">
        <ele>47</ele>
        <time>2020-06-08T10:42:14Z</time>
      </trkpt>
      <trkpt lat="48.18243" lon="-3.89552">
        <ele>47.4</ele>
        <time>2020-06-08T10:42:15Z</time>
      </trkpt>
      <trkpt lat="48.18244" lon="-3.89552">
        <ele>47.5</ele>
        <time>2020-06-08T10:42:16Z</time>
      </trkpt>
      <trkpt lat="48.18247" lon="-3.89552">
        <ele>47.8</ele>
        <time>2020-06-08T10:42:17Z</time>
      </trkpt>
      <trkpt lat="48.18248" lon="-3.89552">
        <ele>47.9</ele>
        <time>2020-06-08T10:42:18Z</time>
      </trkpt>
      <trkpt lat="48.18251" lon="-3.89553">
        <ele>48.2</ele>
        <time>2020-06-08T10:42:19Z</time>
      </trkpt>
      <trkpt lat="48.18254" lon="-3.89554">
        <ele>48.4</ele>
        <time>2020-06-08T10:42:20Z</time>
      </trkpt>
      <trkpt lat="48.18257" lon="-3.89555">
        <ele>48.7</ele>
        <time>2020-06-08T10:42:21Z</time>
      </trkpt>
      <trkpt lat="48.18259" lon="-3.89556">
        <ele>48.9</ele>
        <time>2020-06-08T10:42:22Z</time>
      </trkpt>
      <trkpt lat="48.18264" lon="-3.89555">
        <ele>49.2</ele>
        <time>2020-06-08T10:42:23Z</time>
      </trkpt>
      <trkpt lat="48.18265" lon="-3.89554">
        <ele>49.3</ele>
        <time>2020-06-08T10:42:24Z</time>
      </trkpt>
      <trkpt lat="48.18269" lon="-3.89555">
        <ele>49.5</ele>
        <time>2020-06-08T10:42:25Z</time>
      </trkpt>
      <trkpt lat="48.1827" lon="-3.89555">
        <ele>49.6</ele>
        <time>2020-06-08T10:42:26Z</time>
      </trkpt>
      <trkpt lat="48.18274" lon="-3.89555">
        <ele>49.8</ele>
        <time>2020-06-08T10:42:27Z</time>
      </trkpt>
      <trkpt lat="48.18275" lon="-3.89556">
        <ele>49.8</ele>
        <time>2020-06-08T10:42:28Z</time>
      </trkpt>
      <trkpt lat="48.18278" lon="-3.89555">
        <ele>50</ele>
        <time>2020-06-08T10:42:29Z</time>
      </trkpt>
      <trkpt lat="48.1828" lon="-3.89554">
        <ele>50</ele>
        <time>2020-06-08T10:42:30Z</time>
      </trkpt>
      <trkpt lat="48.18282" lon="-3.89552">
        <ele>50.2</ele>
        <time>2020-06-08T10:42:31Z</time>
      </trkpt>
      <trkpt lat="48.18286" lon="-3.8955">
        <ele>50.3</ele>
        <time>2020-06-08T10:42:32Z</time>
      </trkpt>
      <trkpt lat="48.18288" lon="-3.89547">
        <ele>50.4</ele>
        <time>2020-06-08T10:42:33Z</time>
      </trkpt>
      <trkpt lat="48.18291" lon="-3.89545">
        <ele>50.5</ele>
        <time>2020-06-08T10:42:34Z</time>
      </trkpt>
      <trkpt lat="48.18293" lon="-3.89541">
        <ele>50.6</ele>
        <time>2020-06-08T10:42:35Z</time>
      </trkpt>
      <trkpt lat="48.18295" lon="-3.89537">
        <ele>50.7</ele>
        <time>2020-06-08T10:42:36Z</time>
      </trkpt>
      <trkpt lat="48.18298" lon="-3.89533">
        <ele>50.8</ele>
        <time>2020-06-08T10:42:37Z</time>
      </trkpt>
      <trkpt lat="48.183" lon="-3.89529">
        <ele>50.8</ele>
        <time>2020-06-08T10:42:38Z</time>
      </trkpt>
      <trkpt lat="48.18302" lon="-3.89525">
        <ele>50.9</ele>
        <time>2020-06-08T10:42:39Z</time>
      </trkpt>
      <trkpt lat="48.18304" lon="-3.89521">
        <ele>51</ele>
        <time>2020-06-08T10:42:40Z</time>
      </trkpt>
      <trkpt lat="48.18306" lon="-3.89516">
        <ele>51.1</ele>
        <time>2020-06-08T10:42:41Z</time>
      </trkpt>
      <trkpt lat="48.18307" lon="-3.89514">
        <ele>51.1</ele>
        <time>2020-06-08T10:42:42Z</time>
      </trkpt>
      <trkpt lat="48.1831" lon="-3.8951">
        <ele>51.2</ele>
        <time>2020-06-08T10:42:43Z</time>
      </trkpt>
      <trkpt lat="48.18311" lon="-3.89508">
        <ele>51.2</ele>
        <time>2020-06-08T10:42:44Z</time>
      </trkpt>
      <trkpt lat="48.18314" lon="-3.89505">
        <ele>51.3</ele>
        <time>2020-06-08T10:42:45Z</time>
      </trkpt>
      <trkpt lat="48.18317" lon="-3.89502">
        <ele>51.4</ele>
        <time>2020-06-08T10:42:46Z</time>
      </trkpt>
      <trkpt lat="48.18321" lon="-3.895">
        <ele>51.4</ele>
        <time>2020-06-08T10:42:47Z</time>
      </trkpt>
      <trkpt lat="48.18324" lon="-3.89498">
        <ele>51.5</ele>
        <time>2020-06-08T10:42:48Z</time>
      </trkpt>
      <trkpt lat="48.18327" lon="-3.89497">
        <ele>51.5</ele>
        <time>2020-06-08T10:42:49Z</time>
      </trkpt>
      <trkpt lat="48.18329" lon="-3.89496">
        <ele>51.6</ele>
        <time>2020-06-08T10:42:50Z</time>
      </trkpt>
      <trkpt lat="48.18333" lon="-3.89496">
        <ele>51.6</ele>
        <time>2020-06-08T10:42:51Z</time>
      </trkpt>
      <trkpt lat="48.18335" lon="-3.89496">
        <ele>51.7</ele>
        <time>2020-06-08T10:42:52Z</time>
      </trkpt>
      <trkpt lat="48.18339" lon="-3.89496">
        <ele>51.8</ele>
        <time>2020-06-08T10:42:53Z</time>
      </trkpt>
      <trkpt lat="48.18341" lon="-3.89496">
        <ele>51.8</ele>
        <time>2020-06-08T10:42:54Z</time>
      </trkpt>
      <trkpt lat="48.18345" lon="-3.89496">
        <ele>51.9</ele>
        <time>2020-06-08T10:42:55Z</time>
      </trkpt>
      <trkpt lat="48.18346" lon="-3.89495">
        <ele>51.9</ele>
        <time>2020-06-08T10:42:56Z</time>
      </trkpt>
      <trkpt lat="48.18349" lon="-3.89495">
        <ele>51.9</ele>
        <time>2020-06-08T10:42:57Z</time>
      </trkpt>
      <trkpt lat="48.1835" lon="-3.89495">
        <ele>52</ele>
        <time>2020-06-08T10:42:58Z</time>
      </trkpt>
      <trkpt lat="48.18354" lon="-3.89495">
        <ele>52</ele>
        <time>2020-06-08T10:42:59Z</time>
      </trkpt>
      <trkpt lat="48.18357" lon="-3.89495">
        <ele>52.1</ele>
        <time>2020-06-08T10:43:00Z</time>
      </trkpt>
      <trkpt lat="48.1836" lon="-3.89494">
        <ele>52.1</ele>
        <time>2020-06-08T10:43:01Z</time>
      </trkpt>
      <trkpt lat="48.18362" lon="-3.89494">
        <ele>52.2</ele>
        <time>2020-06-08T10:43:02Z</time>
      </trkpt>
      <trkpt lat="48.18366" lon="-3.89494">
        <ele>52.2</ele>
        <time>2020-06-08T10:43:03Z</time>
      </trkpt>
      <trkpt lat="48.18369" lon="-3.89493">
        <ele>52.2</ele>
        <time>2020-06-08T10:43:04Z</time>
      </trkpt>
      <trkpt lat="48.18372" lon="-3.89492">
        <ele>52.3</ele>
        <time>2020-06-08T10:43:05Z</time>
      </trkpt>
      <trkpt lat="48.18376" lon="-3.89492">
        <ele>52.3</ele>
        <time>2020-06-08T10:43:06Z</time>
      </trkpt>
      <trkpt lat="48.18379" lon="-3.89491">
        <ele>52.3</ele>
        <time>2020-06-08T10:43:07Z</time>
      </trkpt>
      <trkpt lat="48.18383" lon="-3.89491">
        <ele>52.4</ele>
        <time>2020-06-08T10:43:08Z</time>
      </trkpt>
      <trkpt lat="48.18386" lon="-3.89491">
        <ele>52.4</ele>
        <time>2020-06-08T10:43:09Z</time>
      </trkpt>
      <trkpt lat="48.1839" lon="-3.8949">
        <ele>52.4</ele>
        <time>2020-06-08T10:43:10Z</time>
      </trkpt>
      <trkpt lat="48.18393" lon="-3.89489">
        <ele>52.4</ele>
        <time>2020-06-08T10:43:11Z</time>
      </trkpt>
      <trkpt lat="48.18396" lon="-3.89488">
        <ele>52.5</ele>
        <time>2020-06-08T10:43:12Z</time>
      </trkpt>
      <trkpt lat="48.18399" lon="-3.89489">
        <ele>52.5</ele>
        <time>2020-06-08T10:43:13Z</time>
      </trkpt>
      <trkpt lat="48.18402" lon="-3.89489">
        <ele>52.5</ele>
        <time>2020-06-08T10:43:14Z</time>
      </trkpt>
      <trkpt lat="48.18406" lon="-3.89489">
        <ele>52.5</ele>
        <time>2020-06-08T10:43:15Z</time>
      </trkpt>
      <trkpt lat="48.18409" lon="-3.89488">
        <ele>52.5</ele>
        <time>2020-06-08T10:43:16Z</time>
      </trkpt>
      <trkpt lat="48.18412" lon="-3.89486">
        <ele>52.5</ele>
        <time>2020-06-08T10:43:17Z</time>
      </trkpt>
      <trkpt lat="48.18415" lon="-3.89485">
        <ele>52.5</ele>
        <time>2020-06-08T10:43:18Z</time>
      </trkpt>
      <trkpt lat="48.18419" lon="-3.89483">
        <ele>52.5</ele>
        <time>2020-06-08T10:43:19Z</time>
      </trkpt>
      <trkpt lat="48.18422" lon="-3.89483">
        <ele>52.5</ele>
        <time>2020-06-08T10:43:20Z</time>
      </trkpt>
      <trkpt lat="48.18425" lon="-3.89482">
        <ele>52.5</ele>
        <time>2020-06-08T10:43:21Z</time>
      </trkpt>
      <trkpt lat="48.18428" lon="-3.89483">
        <ele>52.5</ele>
        <time>2020-06-08T10:43:22Z</time>
      </trkpt>
      <trkpt lat="48.18433" lon="-3.89483">
        <ele>52.5</ele>
        <time>2020-06-08T10:43:23Z</time>
      </trkpt>
      <trkpt lat="48.18437" lon="-3.89484">
        <ele>52.5</ele>
        <time>2020-06-08T10:43:24Z</time>
      </trkpt>
      <trkpt lat="48.18442" lon="-3.89482">
        <ele>52.5</ele>
        <time>2020-06-08T10:43:25Z</time>
      </trkpt>
      <trkpt lat="48.18446" lon="-3.89483">
        <ele>52.5</ele>
        <time>2020-06-08T10:43:26Z</time>
      </trkpt>
      <trkpt lat="48.18449" lon="-3.89482">
        <ele>52.5</ele>
        <time>2020-06-08T10:43:27Z</time>
      </trkpt>
      <trkpt lat="48.18453" lon="-3.89481">
        <ele>52.5</ele>
        <time>2020-06-08T10:43:28Z</time>
      </trkpt>
      <trkpt lat="48.18455" lon="-3.8948">
        <ele>52.5</ele>
        <time>2020-06-08T10:43:29Z</time>
      </trkpt>
      <trkpt lat="48.18458" lon="-3.89479">
        <ele>52.5</ele>
        <time>2020-06-08T10:43:30Z</time>
      </trkpt>
      <trkpt lat="48.18462" lon="-3.89479">
        <ele>52.5</ele>
        <time>2020-06-08T10:43:31Z</time>
      </trkpt>
      <trkpt lat="48.18465" lon="-3.89478">
        <ele>52.6</ele>
        <time>2020-06-08T10:43:32Z</time>
      </trkpt>
      <trkpt lat="48.18469" lon="-3.89478">
        <ele>52.6</ele>
        <time>2020-06-08T10:43:33Z</time>
      </trkpt>
      <trkpt lat="48.18473" lon="-3.89478">
        <ele>52.6</ele>
        <time>2020-06-08T10:43:34Z</time>
      </trkpt>
      <trkpt lat="48.18477" lon="-3.89479">
        <ele>52.6</ele>
        <time>2020-06-08T10:43:35Z</time>
      </trkpt>
      <trkpt lat="48.18482" lon="-3.89479">
        <ele>52.6</ele>
        <time>2020-06-08T10:43:36Z</time>
      </trkpt>
      <trkpt lat="48.18486" lon="-3.89479">
        <ele>52.6</ele>
        <time>2020-06-08T10:43:37Z</time>
      </trkpt>
      <trkpt lat="48.1849" lon="-3.89479">
        <ele>52.7</ele>
        <time>2020-06-08T10:43:38Z</time>
      </trkpt>
      <trkpt lat="48.18494" lon="-3.89481">
        <ele>52.7</ele>
        <time>2020-06-08T10:43:39Z</time>
      </trkpt>
      <trkpt lat="48.18499" lon="-3.89481">
        <ele>52.8</ele>
        <time>2020-06-08T10:43:40Z</time>
      </trkpt>
      <trkpt lat="48.18502" lon="-3.89483">
        <ele>52.8</ele>
        <time>2020-06-08T10:43:41Z</time>
      </trkpt>
      <trkpt lat="48.18506" lon="-3.89484">
        <ele>52.8</ele>
        <time>2020-06-08T10:43:42Z</time>
      </trkpt>
      <trkpt lat="48.18509" lon="-3.89485">
        <ele>52.9</ele>
        <time>2020-06-08T10:43:43Z</time>
      </trkpt>
      <trkpt lat="48.18512" lon="-3.89488">
        <ele>52.9</ele>
        <time>2020-06-08T10:43:44Z</time>
      </trkpt>
      <trkpt lat="48.18517" lon="-3.8949">
        <ele>53</ele>
        <time>2020-06-08T10:43:45Z</time>
      </trkpt>
      <trkpt lat="48.18521" lon="-3.89492">
        <ele>53.1</ele>
        <time>2020-06-08T10:43:46Z</time>
      </trkpt>
      <trkpt lat="48.18525" lon="-3.89494">
        <ele>53.1</ele>
        <time>2020-06-08T10:43:47Z</time>
      </trkpt>
      <trkpt lat="48.18529" lon="-3.89496">
        <ele>53.2</ele>
        <time>2020-06-08T10:43:48Z</time>
      </trkpt>
      <trkpt lat="48.18532" lon="-3.89499">
        <ele>53.3</ele>
        <time>2020-06-08T10:43:49Z</time>
      </trkpt>
      <trkpt lat="48.18536" lon="-3.89501">
        <ele>53.4</ele>
        <time>2020-06-08T10:43:50Z</time>
      </trkpt>
      <trkpt lat="48.18541" lon="-3.89502">
        <ele>53.5</ele>
        <time>2020-06-08T10:43:51Z</time>
      </trkpt>
      <trkpt lat="48.18544" lon="-3.89504">
        <ele>53.6</ele>
        <time>2020-06-08T10:43:52Z</time>
      </trkpt>
      <trkpt lat="48.18548" lon="-3.89506">
        <ele>53.7</ele>
        <time>2020-06-08T10:43:53Z</time>
      </trkpt>
      <trkpt lat="48.18551" lon="-3.89508">
        <ele>53.7</ele>
        <time>2020-06-08T10:43:54Z</time>
      </trkpt>
      <trkpt lat="48.18555" lon="-3.8951">
        <ele>53.8</ele>
        <time>2020-06-08T10:43:55Z</time>
      </trkpt>
      <trkpt lat="48.18558" lon="-3.89511">
        <ele>53.9</ele>
        <time>2020-06-08T10:43:56Z</time>
      </trkpt>
      <trkpt lat="48.18562" lon="-3.89512">
        <ele>54</ele>
        <time>2020-06-08T10:43:57Z</time>
      </trkpt>
      <trkpt lat="48.18565" lon="-3.89514">
        <ele>54.1</ele>
        <time>2020-06-08T10:43:58Z</time>
      </trkpt>
      <trkpt lat="48.18568" lon="-3.89515">
        <ele>54.3</ele>
        <time>2020-06-08T10:43:59Z</time>
      </trkpt>
      <trkpt lat="48.18572" lon="-3.89515">
        <ele>54.4</ele>
        <time>2020-06-08T10:44:00Z</time>
      </trkpt>
      <trkpt lat="48.18576" lon="-3.89517">
        <ele>54.6</ele>
        <time>2020-06-08T10:44:01Z</time>
      </trkpt>
      <trkpt lat="48.18579" lon="-3.89518">
        <ele>54.7</ele>
        <time>2020-06-08T10:44:02Z</time>
      </trkpt>
      <trkpt lat="48.18583" lon="-3.8952">
        <ele>54.9</ele>
        <time>2020-06-08T10:44:03Z</time>
      </trkpt>
      <trkpt lat="48.18586" lon="-3.89522">
        <ele>55</ele>
        <time>2020-06-08T10:44:04Z</time>
      </trkpt>
      <trkpt lat="48.18589" lon="-3.89524">
        <ele>55.2</ele>
        <time>2020-06-08T10:44:05Z</time>
      </trkpt>
      <trkpt lat="48.18592" lon="-3.89524">
        <ele>55.3</ele>
        <time>2020-06-08T10:44:06Z</time>
      </trkpt>
      <trkpt lat="48.18596" lon="-3.89527">
        <ele>55.5</ele>
        <time>2020-06-08T10:44:07Z</time>
      </trkpt>
      <trkpt lat="48.18597" lon="-3.89528">
        <ele>55.6</ele>
        <time>2020-06-08T10:44:08Z</time>
      </trkpt>
      <trkpt lat="48.18601" lon="-3.8953">
        <ele>55.8</ele>
        <time>2020-06-08T10:44:09Z</time>
      </trkpt>
      <trkpt lat="48.18602" lon="-3.89531">
        <ele>55.8</ele>
        <time>2020-06-08T10:44:10Z</time>
      </trkpt>
      <trkpt lat="48.18606" lon="-3.89532">
        <ele>56</ele>
        <time>2020-06-08T10:44:11Z</time>
      </trkpt>
      <trkpt lat="48.18607" lon="-3.89532">
        <ele>56</ele>
        <time>2020-06-08T10:44:12Z</time>
      </trkpt>
      <trkpt lat="48.1861" lon="-3.89534">
        <ele>56.2</ele>
        <time>2020-06-08T10:44:13Z</time>
      </trkpt>
      <trkpt lat="48.18612" lon="-3.89535">
        <ele>56.3</ele>
        <time>2020-06-08T10:44:14Z</time>
      </trkpt>
      <trkpt lat="48.18615" lon="-3.89536">
        <ele>56.5</ele>
        <time>2020-06-08T10:44:15Z</time>
      </trkpt>
      <trkpt lat="48.18617" lon="-3.89538">
        <ele>56.6</ele>
        <time>2020-06-08T10:44:16Z</time>
      </trkpt>
      <trkpt lat="48.1862" lon="-3.89539">
        <ele>56.8</ele>
        <time>2020-06-08T10:44:17Z</time>
      </trkpt>
      <trkpt lat="48.18623" lon="-3.8954">
        <ele>57</ele>
        <time>2020-06-08T10:44:18Z</time>
      </trkpt>
      <trkpt lat="48.18626" lon="-3.89541">
        <ele>57.2</ele>
        <time>2020-06-08T10:44:19Z</time>
      </trkpt>
      <trkpt lat="48.18629" lon="-3.89542">
        <ele>57.4</ele>
        <time>2020-06-08T10:44:20Z</time>
      </trkpt>
      <trkpt lat="48.18632" lon="-3.89543">
        <ele>57.6</ele>
        <time>2020-06-08T10:44:21Z</time>
      </trkpt>
      <trkpt lat="48.18634" lon="-3.89544">
        <ele>57.7</ele>
        <time>2020-06-08T10:44:22Z</time>
      </trkpt>
      <trkpt lat="48.18637" lon="-3.89545">
        <ele>58</ele>
        <time>2020-06-08T10:44:23Z</time>
      </trkpt>
      <trkpt lat="48.18638" lon="-3.89546">
        <ele>58.1</ele>
        <time>2020-06-08T10:44:24Z</time>
      </trkpt>
      <trkpt lat="48.18641" lon="-3.89548">
        <ele>58.3</ele>
        <time>2020-06-08T10:44:25Z</time>
      </trkpt>
      <trkpt lat="48.18642" lon="-3.89549">
        <ele>58.4</ele>
        <time>2020-06-08T10:44:26Z</time>
      </trkpt>
      <trkpt lat="48.18645" lon="-3.89551">
        <ele>58.7</ele>
        <time>2020-06-08T10:44:27Z</time>
      </trkpt>
      <trkpt lat="48.18647" lon="-3.89552">
        <ele>58.9</ele>
        <time>2020-06-08T10:44:28Z</time>
      </trkpt>
      <trkpt lat="48.1865" lon="-3.89553">
        <ele>59.2</ele>
        <time>2020-06-08T10:44:29Z</time>
      </trkpt>
      <trkpt lat="48.18653" lon="-3.89554">
        <ele>59.4</ele>
        <time>2020-06-08T10:44:30Z</time>
      </trkpt>
      <trkpt lat="48.18656" lon="-3.89554">
        <ele>59.7</ele>
        <time>2020-06-08T10:44:31Z</time>
      </trkpt>
      <trkpt lat="48.18659" lon="-3.89555">
        <ele>60</ele>
        <time>2020-06-08T10:44:32Z</time>
      </trkpt>
      <trkpt lat="48.18663" lon="-3.89555">
        <ele>60.3</ele>
        <time>2020-06-08T10:44:33Z</time>
      </trkpt>
      <trkpt lat="48.18664" lon="-3.89555">
        <ele>60.4</ele>
        <time>2020-06-08T10:44:34Z</time>
      </trkpt>
      <trkpt lat="48.18667" lon="-3.89555">
        <ele>60.7</ele>
        <time>2020-06-08T10:44:35Z</time>
      </trkpt>
      <trkpt lat="48.18668" lon="-3.89555">
        <ele>60.8</ele>
        <time>2020-06-08T10:44:36Z</time>
      </trkpt>
      <trkpt lat="48.18671" lon="-3.89556">
        <ele>61.1</ele>
        <time>2020-06-08T10:44:37Z</time>
      </trkpt>
      <trkpt lat="48.18673" lon="-3.89557">
        <ele>61.2</ele>
        <time>2020-06-08T10:44:38Z</time>
      </trkpt>
      <trkpt lat="48.18676" lon="-3.89557">
        <ele>61.5</ele>
        <time>2020-06-08T10:44:39Z</time>
      </trkpt>
      <trkpt lat="48.18677" lon="-3.89558">
        <ele>61.6</ele>
        <time>2020-06-08T10:44:40Z</time>
      </trkpt>
      <trkpt lat="48.1868" lon="-3.89559">
        <ele>61.9</ele>
        <time>2020-06-08T10:44:41Z</time>
      </trkpt>
      <trkpt lat="48.18681" lon="-3.89559">
        <ele>62</ele>
        <time>2020-06-08T10:44:42Z</time>
      </trkpt>
      <trkpt lat="48.18684" lon="-3.89559">
        <ele>62.2</ele>
        <time>2020-06-08T10:44:43Z</time>
      </trkpt>
      <trkpt lat="48.18685" lon="-3.89559">
        <ele>62.3</ele>
        <time>2020-06-08T10:44:44Z</time>
      </trkpt>
      <trkpt lat="48.18688" lon="-3.8956">
        <ele>62.6</ele>
        <time>2020-06-08T10:44:45Z</time>
      </trkpt>
      <trkpt lat="48.18689" lon="-3.8956">
        <ele>62.7</ele>
        <time>2020-06-08T10:44:46Z</time>
      </trkpt>
      <trkpt lat="48.18693" lon="-3.8956">
        <ele>63</ele>
        <time>2020-06-08T10:44:47Z</time>
      </trkpt>
      <trkpt lat="48.18694" lon="-3.89561">
        <ele>63.1</ele>
        <time>2020-06-08T10:44:48Z</time>
      </trkpt>
      <trkpt lat="48.18697" lon="-3.89561">
        <ele>63.3</ele>
        <time>2020-06-08T10:44:49Z</time>
      </trkpt>
      <trkpt lat="48.18698" lon="-3.89562">
        <ele>63.4</ele>
        <time>2020-06-08T10:44:50Z</time>
      </trkpt>
      <trkpt lat="48.187" lon="-3.89561">
        <ele>63.7</ele>
        <time>2020-06-08T10:44:51Z</time>
      </trkpt>
      <trkpt lat="48.18704" lon="-3.8956">
        <ele>64</ele>
        <time>2020-06-08T10:44:52Z</time>
      </trkpt>
      <trkpt lat="48.18705" lon="-3.89559">
        <ele>64.1</ele>
        <time>2020-06-08T10:44:53Z</time>
      </trkpt>
      <trkpt lat="48.18708" lon="-3.89558">
        <ele>64.3</ele>
        <time>2020-06-08T10:44:54Z</time>
      </trkpt>
      <trkpt lat="48.18712" lon="-3.89557">
        <ele>64.6</ele>
        <time>2020-06-08T10:44:55Z</time>
      </trkpt>
      <trkpt lat="48.18716" lon="-3.89557">
        <ele>64.8</ele>
        <time>2020-06-08T10:44:56Z</time>
      </trkpt>
      <trkpt lat="48.18719" lon="-3.89555">
        <ele>65</ele>
        <time>2020-06-08T10:44:57Z</time>
      </trkpt>
      <trkpt lat="48.1872" lon="-3.89554">
        <ele>65.1</ele>
        <time>2020-06-08T10:44:58Z</time>
      </trkpt>
      <trkpt lat="48.18723" lon="-3.89553">
        <ele>65.2</ele>
        <time>2020-06-08T10:44:59Z</time>
      </trkpt>
      <trkpt lat="48.18727" lon="-3.89552">
        <ele>65.4</ele>
        <time>2020-06-08T10:45:00Z</time>
      </trkpt>
      <trkpt lat="48.18729" lon="-3.89551">
        <ele>65.6</ele>
        <time>2020-06-08T10:45:01Z</time>
      </trkpt>
      <trkpt lat="48.18733" lon="-3.89549">
        <ele>65.8</ele>
        <time>2020-06-08T10:45:02Z</time>
      </trkpt>
      <trkpt lat="48.18734" lon="-3.89548">
        <ele>65.9</ele>
        <time>2020-06-08T10:45:03Z</time>
      </trkpt>
      <trkpt lat="48.18737" lon="-3.89547">
        <ele>66</ele>
        <time>2020-06-08T10:45:04Z</time>
      </trkpt>
      <trkpt lat="48.18739" lon="-3.89546">
        <ele>66.2</ele>
        <time>2020-06-08T10:45:05Z</time>
      </trkpt>
      <trkpt lat="48.18743" lon="-3.89544">
        <ele>66.4</ele>
        <time>2020-06-08T10:45:06Z</time>
      </trkpt>
      <trkpt lat="48.18745" lon="-3.89544">
        <ele>66.4</ele>
        <time>2020-06-08T10:45:07Z</time>
      </trkpt>
      <trkpt lat="48.18747" lon="-3.89542">
        <ele>66.6</ele>
        <time>2020-06-08T10:45:08Z</time>
      </trkpt>
      <trkpt lat="48.18751" lon="-3.8954">
        <ele>66.8</ele>
        <time>2020-06-08T10:45:09Z</time>
      </trkpt>
      <trkpt lat="48.18752" lon="-3.89539">
        <ele>66.8</ele>
        <time>2020-06-08T10:45:10Z</time>
      </trkpt>
      <trkpt lat="48.18755" lon="-3.89539">
        <ele>67</ele>
        <time>2020-06-08T10:45:11Z</time>
      </trkpt>
      <trkpt lat="48.18758" lon="-3.89537">
        <ele>67.2</ele>
        <time>2020-06-08T10:45:12Z</time>
      </trkpt>
      <trkpt lat="48.18759" lon="-3.89536">
        <ele>67.2</ele>
        <time>2020-06-08T10:45:13Z</time>
      </trkpt>
      <trkpt lat="48.18763" lon="-3.89535">
        <ele>67.5</ele>
        <time>2020-06-08T10:45:14Z</time>
      </trkpt>
      <trkpt lat="48.18764" lon="-3.89534">
        <ele>67.5</ele>
        <time>2020-06-08T10:45:15Z</time>
      </trkpt>
      <trkpt lat="48.18768" lon="-3.89533">
        <ele>67.7</ele>
        <time>2020-06-08T10:45:16Z</time>
      </trkpt>
      <trkpt lat="48.18768" lon="-3.89533">
        <ele>67.8</ele>
        <time>2020-06-08T10:45:17Z</time>
      </trkpt>
      <trkpt lat="48.18773" lon="-3.89533">
        <ele>68</ele>
        <time>2020-06-08T10:45:18Z</time>
      </trkpt>
      <trkpt lat="48.18774" lon="-3.89533">
        <ele>68.1</ele>
        <time>2020-06-08T10:45:19Z</time>
      </trkpt>
      <trkpt lat="48.18778" lon="-3.89531">
        <ele>68.3</ele>
        <time>2020-06-08T10:45:20Z</time>
      </trkpt>
      <trkpt lat="48.18779" lon="-3.8953">
        <ele>68.3</ele>
        <time>2020-06-08T10:45:21Z</time>
      </trkpt>
      <trkpt lat="48.18783" lon="-3.89526">
        <ele>68.6</ele>
        <time>2020-06-08T10:45:22Z</time>
      </trkpt>
      <trkpt lat="48.18784" lon="-3.89525">
        <ele>68.6</ele>
        <time>2020-06-08T10:45:23Z</time>
      </trkpt>
      <trkpt lat="48.18787" lon="-3.89523">
        <ele>68.8</ele>
        <time>2020-06-08T10:45:24Z</time>
      </trkpt>
      <trkpt lat="48.1879" lon="-3.89523">
        <ele>69</ele>
        <time>2020-06-08T10:45:25Z</time>
      </trkpt>
      <trkpt lat="48.18792" lon="-3.89523">
        <ele>69.1</ele>
        <time>2020-06-08T10:45:26Z</time>
      </trkpt>
      <trkpt lat="48.18795" lon="-3.89522">
        <ele>69.3</ele>
        <time>2020-06-08T10:45:27Z</time>
      </trkpt>
      <trkpt lat="48.18796" lon="-3.89521">
        <ele>69.4</ele>
        <time>2020-06-08T10:45:28Z</time>
      </trkpt>
      <trkpt lat="48.18799" lon="-3.89519">
        <ele>69.6</ele>
        <time>2020-06-08T10:45:29Z</time>
      </trkpt>
      <trkpt lat="48.18802" lon="-3.89518">
        <ele>69.9</ele>
        <time>2020-06-08T10:45:30Z</time>
      </trkpt>
      <trkpt lat="48.18804" lon="-3.89518">
        <ele>69.9</ele>
        <time>2020-06-08T10:45:31Z</time>
      </trkpt>
      <trkpt lat="48.18807" lon="-3.89518">
        <ele>70.2</ele>
        <time>2020-06-08T10:45:32Z</time>
      </trkpt>
      <trkpt lat="48.18808" lon="-3.89518">
        <ele>70.7</ele>
        <time>2020-06-08T10:45:33Z</time>
      </trkpt>
      <trkpt lat="48.18812" lon="-3.89518">
        <ele>71</ele>
        <time>2020-06-08T10:45:34Z</time>
      </trkpt>
      <trkpt lat="48.18813" lon="-3.89517">
        <ele>71.1</ele>
        <time>2020-06-08T10:45:35Z</time>
      </trkpt>
      <trkpt lat="48.18816" lon="-3.89517">
        <ele>71.4</ele>
        <time>2020-06-08T10:45:36Z</time>
      </trkpt>
      <trkpt lat="48.18817" lon="-3.89517">
        <ele>71.5</ele>
        <time>2020-06-08T10:45:37Z</time>
      </trkpt>
      <trkpt lat="48.1882" lon="-3.89515">
        <ele>71.9</ele>
        <time>2020-06-08T10:45:38Z</time>
      </trkpt>
      <trkpt lat="48.18822" lon="-3.89515">
        <ele>72</ele>
        <time>2020-06-08T10:45:39Z</time>
      </trkpt>
      <trkpt lat="48.18825" lon="-3.89516">
        <ele>72.3</ele>
        <time>2020-06-08T10:45:40Z</time>
      </trkpt>
      <trkpt lat="48.18826" lon="-3.89516">
        <ele>72.3</ele>
        <time>2020-06-08T10:45:41Z</time>
      </trkpt>
      <trkpt lat="48.18827" lon="-3.89515">
        <ele>72.5</ele>
        <time>2020-06-08T10:45:42Z</time>
      </trkpt>
      <trkpt lat="48.18829" lon="-3.89515">
        <ele>72.6</ele>
        <time>2020-06-08T10:45:43Z</time>
      </trkpt>
      <trkpt lat="48.1883" lon="-3.89514">
        <ele>72.8</ele>
        <time>2020-06-08T10:45:44Z</time>
      </trkpt>
      <trkpt lat="48.18832" lon="-3.89514">
        <ele>72.9</ele>
        <time>2020-06-08T10:45:45Z</time>
      </trkpt>
      <trkpt lat="48.18834" lon="-3.89514">
        <ele>73.2</ele>
        <time>2020-06-08T10:45:46Z</time>
      </trkpt>
      <trkpt lat="48.18835" lon="-3.89515">
        <ele>73.3</ele>
        <time>2020-06-08T10:45:47Z</time>
      </trkpt>
      <trkpt lat="48.18835" lon="-3.89514">
        <ele>73.4</ele>
        <time>2020-06-08T10:45:48Z</time>
      </trkpt>
      <trkpt lat="48.18837" lon="-3.89514">
        <ele>73.6</ele>
        <time>2020-06-08T10:45:49Z</time>
      </trkpt>
      <trkpt lat="48.18839" lon="-3.89515">
        <ele>73.8</ele>
        <time>2020-06-08T10:45:50Z</time>
      </trkpt>
      <trkpt lat="48.18842" lon="-3.89515">
        <ele>74.2</ele>
        <time>2020-06-08T10:45:51Z</time>
      </trkpt>
      <trkpt lat="48.18844" lon="-3.89515">
        <ele>74.4</ele>
        <time>2020-06-08T10:45:52Z</time>
      </trkpt>
      <trkpt lat="48.18845" lon="-3.89515">
        <ele>74.6</ele>
        <time>2020-06-08T10:45:53Z</time>
      </trkpt>
      <trkpt lat="48.18847" lon="-3.89515">
        <ele>74.9</ele>
        <time>2020-06-08T10:45:54Z</time>
      </trkpt>
      <trkpt lat="48.18848" lon="-3.89515">
        <ele>75</ele>
        <time>2020-06-08T10:45:55Z</time>
      </trkpt>
      <trkpt lat="48.18849" lon="-3.89515">
        <ele>75.1</ele>
        <time>2020-06-08T10:45:56Z</time>
      </trkpt>
      <trkpt lat="48.1885" lon="-3.89516">
        <ele>75.2</ele>
        <time>2020-06-08T10:45:57Z</time>
      </trkpt>
      <trkpt lat="48.18851" lon="-3.89516">
        <ele>75.3</ele>
        <time>2020-06-08T10:45:58Z</time>
      </trkpt>
      <trkpt lat="48.18852" lon="-3.89517">
        <ele>75.6</ele>
        <time>2020-06-08T10:45:59Z</time>
      </trkpt>
      <trkpt lat="48.18855" lon="-3.8952">
        <ele>76</ele>
        <time>2020-06-08T10:46:00Z</time>
      </trkpt>
      <trkpt lat="48.18856" lon="-3.89521">
        <ele>76.2</ele>
        <time>2020-06-08T10:46:01Z</time>
      </trkpt>
      <trkpt lat="48.1886" lon="-3.89522">
        <ele>76.6</ele>
        <time>2020-06-08T10:46:02Z</time>
      </trkpt>
      <trkpt lat="48.18863" lon="-3.89523">
        <ele>77.1</ele>
        <time>2020-06-08T10:46:03Z</time>
      </trkpt>
      <trkpt lat="48.18864" lon="-3.89523">
        <ele>77.2</ele>
        <time>2020-06-08T10:46:04Z</time>
      </trkpt>
      <trkpt lat="48.18867" lon="-3.89524">
        <ele>77.6</ele>
        <time>2020-06-08T10:46:05Z</time>
      </trkpt>
      <trkpt lat="48.18868" lon="-3.89524">
        <ele>77.8</ele>
        <time>2020-06-08T10:46:06Z</time>
      </trkpt>
      <trkpt lat="48.1887" lon="-3.89525">
        <ele>78.1</ele>
        <time>2020-06-08T10:46:07Z</time>
      </trkpt>
      <trkpt lat="48.18871" lon="-3.89525">
        <ele>78.2</ele>
        <time>2020-06-08T10:46:08Z</time>
      </trkpt>
      <trkpt lat="48.18872" lon="-3.89525">
        <ele>78.4</ele>
        <time>2020-06-08T10:46:09Z</time>
      </trkpt>
      <trkpt lat="48.18873" lon="-3.89525">
        <ele>78.6</ele>
        <time>2020-06-08T10:46:10Z</time>
      </trkpt>
      <trkpt lat="48.18874" lon="-3.89524">
        <ele>78.8</ele>
        <time>2020-06-08T10:46:11Z</time>
      </trkpt>
      <trkpt lat="48.18876" lon="-3.89524">
        <ele>79</ele>
        <time>2020-06-08T10:46:12Z</time>
      </trkpt>
      <trkpt lat="48.18877" lon="-3.89524">
        <ele>79.2</ele>
        <time>2020-06-08T10:46:13Z</time>
      </trkpt>
      <trkpt lat="48.18879" lon="-3.89524">
        <ele>79.4</ele>
        <time>2020-06-08T10:46:14Z</time>
      </trkpt>
      <trkpt lat="48.1888" lon="-3.89524">
        <ele>79.7</ele>
        <time>2020-06-08T10:46:15Z</time>
      </trkpt>
      <trkpt lat="48.18884" lon="-3.89525">
        <ele>80.2</ele>
        <time>2020-06-08T10:46:16Z</time>
      </trkpt>
      <trkpt lat="48.18885" lon="-3.89525">
        <ele>80.4</ele>
        <time>2020-06-08T10:46:17Z</time>
      </trkpt>
      <trkpt lat="48.18888" lon="-3.89527">
        <ele>80.9</ele>
        <time>2020-06-08T10:46:18Z</time>
      </trkpt>
      <trkpt lat="48.18889" lon="-3.89528">
        <ele>81</ele>
        <time>2020-06-08T10:46:19Z</time>
      </trkpt>
      <trkpt lat="48.18891" lon="-3.89529">
        <ele>81.3</ele>
        <time>2020-06-08T10:46:20Z</time>
      </trkpt>
      <trkpt lat="48.18892" lon="-3.89529">
        <ele>81.6</ele>
        <time>2020-06-08T10:46:21Z</time>
      </trkpt>
      <trkpt lat="48.18894" lon="-3.8953">
        <ele>81.8</ele>
        <time>2020-06-08T10:46:22Z</time>
      </trkpt>
      <trkpt lat="48.18895" lon="-3.89531">
        <ele>82</ele>
        <time>2020-06-08T10:46:23Z</time>
      </trkpt>
      <trkpt lat="48.18896" lon="-3.89531">
        <ele>82.1</ele>
        <time>2020-06-08T10:46:24Z</time>
      </trkpt>
      <trkpt lat="48.18896" lon="-3.89533">
        <ele>82.3</ele>
        <time>2020-06-08T10:46:25Z</time>
      </trkpt>
      <trkpt lat="48.18898" lon="-3.89534">
        <ele>82.6</ele>
        <time>2020-06-08T10:46:26Z</time>
      </trkpt>
      <trkpt lat="48.189" lon="-3.89537">
        <ele>83</ele>
        <time>2020-06-08T10:46:27Z</time>
      </trkpt>
      <trkpt lat="48.18901" lon="-3.89538">
        <ele>83.2</ele>
        <time>2020-06-08T10:46:28Z</time>
      </trkpt>
      <trkpt lat="48.18903" lon="-3.89542">
        <ele>83.7</ele>
        <time>2020-06-08T10:46:29Z</time>
      </trkpt>
      <trkpt lat="48.18904" lon="-3.89542">
        <ele>83.8</ele>
        <time>2020-06-08T10:46:30Z</time>
      </trkpt>
      <trkpt lat="48.18906" lon="-3.89546">
        <ele>84.3</ele>
        <time>2020-06-08T10:46:31Z</time>
      </trkpt>
      <trkpt lat="48.18906" lon="-3.89547">
        <ele>84.4</ele>
        <time>2020-06-08T10:46:32Z</time>
      </trkpt>
      <trkpt lat="48.18908" lon="-3.89548">
        <ele>84.7</ele>
        <time>2020-06-08T10:46:33Z</time>
      </trkpt>
      <trkpt lat="48.18909" lon="-3.89548">
        <ele>84.9</ele>
        <time>2020-06-08T10:46:34Z</time>
      </trkpt>
      <trkpt lat="48.18912" lon="-3.89548">
        <ele>85.3</ele>
        <time>2020-06-08T10:46:35Z</time>
      </trkpt>
      <trkpt lat="48.18913" lon="-3.89549">
        <ele>85.4</ele>
        <time>2020-06-08T10:46:36Z</time>
      </trkpt>
      <trkpt lat="48.18914" lon="-3.89551">
        <ele>85.7</ele>
        <time>2020-06-08T10:46:37Z</time>
      </trkpt>
      <trkpt lat="48.18914" lon="-3.89552">
        <ele>85.9</ele>
        <time>2020-06-08T10:46:38Z</time>
      </trkpt>
      <trkpt lat="48.18915" lon="-3.89553">
        <ele>86</ele>
        <time>2020-06-08T10:46:39Z</time>
      </trkpt>
      <trkpt lat="48.18915" lon="-3.89555">
        <ele>86.2</ele>
        <time>2020-06-08T10:46:40Z</time>
      </trkpt>
      <trkpt lat="48.18916" lon="-3.89558">
        <ele>86.5</ele>
        <time>2020-06-08T10:46:41Z</time>
      </trkpt>
      <trkpt lat="48.18918" lon="-3.8956">
        <ele>86.9</ele>
        <time>2020-06-08T10:46:42Z</time>
      </trkpt>
      <trkpt lat="48.18919" lon="-3.8956">
        <ele>87.1</ele>
        <time>2020-06-08T10:46:43Z</time>
      </trkpt>
      <trkpt lat="48.18921" lon="-3.89562">
        <ele>87.3</ele>
        <time>2020-06-08T10:46:44Z</time>
      </trkpt>
      <trkpt lat="48.18922" lon="-3.89563">
        <ele>87.6</ele>
        <time>2020-06-08T10:46:45Z</time>
      </trkpt>
      <trkpt lat="48.18923" lon="-3.89565">
        <ele>87.9</ele>
        <time>2020-06-08T10:46:46Z</time>
      </trkpt>
      <trkpt lat="48.18924" lon="-3.89567">
        <ele>88.1</ele>
        <time>2020-06-08T10:46:47Z</time>
      </trkpt>
      <trkpt lat="48.18926" lon="-3.89569">
        <ele>88.4</ele>
        <time>2020-06-08T10:46:48Z</time>
      </trkpt>
      <trkpt lat="48.18927" lon="-3.8957">
        <ele>88.6</ele>
        <time>2020-06-08T10:46:49Z</time>
      </trkpt>
      <trkpt lat="48.18929" lon="-3.89573">
        <ele>89.1</ele>
        <time>2020-06-08T10:46:50Z</time>
      </trkpt>
      <trkpt lat="48.1893" lon="-3.89574">
        <ele>89.3</ele>
        <time>2020-06-08T10:46:51Z</time>
      </trkpt>
      <trkpt lat="48.18931" lon="-3.89575">
        <ele>89.5</ele>
        <time>2020-06-08T10:46:52Z</time>
      </trkpt>
      <trkpt lat="48.18932" lon="-3.89576">
        <ele>89.6</ele>
        <time>2020-06-08T10:46:53Z</time>
      </trkpt>
      <trkpt lat="48.18933" lon="-3.89577">
        <ele>89.8</ele>
        <time>2020-06-08T10:46:54Z</time>
      </trkpt>
      <trkpt lat="48.18934" lon="-3.89579">
        <ele>90</ele>
        <time>2020-06-08T10:46:55Z</time>
      </trkpt>
      <trkpt lat="48.18934" lon="-3.89581">
        <ele>90.2</ele>
        <time>2020-06-08T10:46:56Z</time>
      </trkpt>
      <trkpt lat="48.18936" lon="-3.89583">
        <ele>90.5</ele>
        <time>2020-06-08T10:46:57Z</time>
      </trkpt>
      <trkpt lat="48.18937" lon="-3.89584">
        <ele>90.8</ele>
        <time>2020-06-08T10:46:58Z</time>
      </trkpt>
      <trkpt lat="48.18939" lon="-3.89586">
        <ele>91.1</ele>
        <time>2020-06-08T10:46:59Z</time>
      </trkpt>
      <trkpt lat="48.1894" lon="-3.89588">
        <ele>91.3</ele>
        <time>2020-06-08T10:47:00Z</time>
      </trkpt>
      <trkpt lat="48.18942" lon="-3.89591">
        <ele>91.7</ele>
        <time>2020-06-08T10:47:01Z</time>
      </trkpt>
      <trkpt lat="48.18943" lon="-3.89592">
        <ele>91.8</ele>
        <time>2020-06-08T10:47:02Z</time>
      </trkpt>
      <trkpt lat="48.18943" lon="-3.89592">
        <ele>91.9</ele>
        <time>2020-06-08T10:47:03Z</time>
      </trkpt>
      <trkpt lat="48.18945" lon="-3.89593">
        <ele>92.2</ele>
        <time>2020-06-08T10:47:04Z</time>
      </trkpt>
      <trkpt lat="48.18946" lon="-3.89593">
        <ele>92.3</ele>
        <time>2020-06-08T10:47:05Z</time>
      </trkpt>
      <trkpt lat="48.18948" lon="-3.89593">
        <ele>92.6</ele>
        <time>2020-06-08T10:47:06Z</time>
      </trkpt>
      <trkpt lat="48.1895" lon="-3.89594">
        <ele>93.5</ele>
        <time>2020-06-08T10:47:07Z</time>
      </trkpt>
      <trkpt lat="48.18951" lon="-3.89595">
        <ele>93.7</ele>
        <time>2020-06-08T10:47:08Z</time>
      </trkpt>
      <trkpt lat="48.18952" lon="-3.89597">
        <ele>94</ele>
        <time>2020-06-08T10:47:09Z</time>
      </trkpt>
      <trkpt lat="48.18952" lon="-3.896">
        <ele>94.3</ele>
        <time>2020-06-08T10:47:10Z</time>
      </trkpt>
      <trkpt lat="48.18953" lon="-3.89602">
        <ele>94.5</ele>
        <time>2020-06-08T10:47:11Z</time>
      </trkpt>
      <trkpt lat="48.18953" lon="-3.89604">
        <ele>94.7</ele>
        <time>2020-06-08T10:47:12Z</time>
      </trkpt>
      <trkpt lat="48.18953" lon="-3.89606">
        <ele>94.9</ele>
        <time>2020-06-08T10:47:13Z</time>
      </trkpt>
      <trkpt lat="48.18954" lon="-3.89608">
        <ele>95.1</ele>
        <time>2020-06-08T10:47:14Z</time>
      </trkpt>
      <trkpt lat="48.18955" lon="-3.8961">
        <ele>95.3</ele>
        <time>2020-06-08T10:47:15Z</time>
      </trkpt>
      <trkpt lat="48.18955" lon="-3.89612">
        <ele>95.5</ele>
        <time>2020-06-08T10:47:16Z</time>
      </trkpt>
      <trkpt lat="48.18957" lon="-3.89613">
        <ele>95.8</ele>
        <time>2020-06-08T10:47:17Z</time>
      </trkpt>
      <trkpt lat="48.18958" lon="-3.89616">
        <ele>96.1</ele>
        <time>2020-06-08T10:47:18Z</time>
      </trkpt>
      <trkpt lat="48.18958" lon="-3.89618">
        <ele>96.2</ele>
        <time>2020-06-08T10:47:19Z</time>
      </trkpt>
      <trkpt lat="48.18959" lon="-3.89619">
        <ele>96.4</ele>
        <time>2020-06-08T10:47:20Z</time>
      </trkpt>
      <trkpt lat="48.18961" lon="-3.8962">
        <ele>96.7</ele>
        <time>2020-06-08T10:47:21Z</time>
      </trkpt>
      <trkpt lat="48.18962" lon="-3.89621">
        <ele>96.9</ele>
        <time>2020-06-08T10:47:22Z</time>
      </trkpt>
      <trkpt lat="48.18963" lon="-3.89622">
        <ele>97</ele>
        <time>2020-06-08T10:47:23Z</time>
      </trkpt>
      <trkpt lat="48.18964" lon="-3.89624">
        <ele>97.2</ele>
        <time>2020-06-08T10:47:24Z</time>
      </trkpt>
      <trkpt lat="48.18965" lon="-3.89625">
        <ele>97.4</ele>
        <time>2020-06-08T10:47:25Z</time>
      </trkpt>
      <trkpt lat="48.18966" lon="-3.89627">
        <ele>97.6</ele>
        <time>2020-06-08T10:47:26Z</time>
      </trkpt>
      <trkpt lat="48.18967" lon="-3.89628">
        <ele>97.7</ele>
        <time>2020-06-08T10:47:27Z</time>
      </trkpt>
      <trkpt lat="48.18969" lon="-3.8963">
        <ele>98.1</ele>
        <time>2020-06-08T10:47:28Z</time>
      </trkpt>
      <trkpt lat="48.1897" lon="-3.89631">
        <ele>98.2</ele>
        <time>2020-06-08T10:47:29Z</time>
      </trkpt>
      <trkpt lat="48.18972" lon="-3.89634">
        <ele>98.5</ele>
        <time>2020-06-08T10:47:30Z</time>
      </trkpt>
      <trkpt lat="48.18972" lon="-3.89635">
        <ele>98.7</ele>
        <time>2020-06-08T10:47:31Z</time>
      </trkpt>
      <trkpt lat="48.18973" lon="-3.89636">
        <ele>98.8</ele>
        <time>2020-06-08T10:47:32Z</time>
      </trkpt>
      <trkpt lat="48.18975" lon="-3.89637">
        <ele>99</ele>
        <time>2020-06-08T10:47:33Z</time>
      </trkpt>
      <trkpt lat="48.18977" lon="-3.89638">
        <ele>99.2</ele>
        <time>2020-06-08T10:47:34Z</time>
      </trkpt>
      <trkpt lat="48.18978" lon="-3.89639">
        <ele>99.3</ele>
        <time>2020-06-08T10:47:35Z</time>
      </trkpt>
      <trkpt lat="48.18979" lon="-3.89639">
        <ele>99.5</ele>
        <time>2020-06-08T10:47:36Z</time>
      </trkpt>
      <trkpt lat="48.1898" lon="-3.8964">
        <ele>99.7</ele>
        <time>2020-06-08T10:47:37Z</time>
      </trkpt>
      <trkpt lat="48.18981" lon="-3.89642">
        <ele>99.8</ele>
        <time>2020-06-08T10:47:38Z</time>
      </trkpt>
      <trkpt lat="48.18982" lon="-3.89644">
        <ele>100</ele>
        <time>2020-06-08T10:47:39Z</time>
      </trkpt>
      <trkpt lat="48.18983" lon="-3.89645">
        <ele>100.1</ele>
        <time>2020-06-08T10:47:40Z</time>
      </trkpt>
      <trkpt lat="48.18985" lon="-3.89649">
        <ele>100.4</ele>
        <time>2020-06-08T10:47:41Z</time>
      </trkpt>
      <trkpt lat="48.18985" lon="-3.8965">
        <ele>100.5</ele>
        <time>2020-06-08T10:47:42Z</time>
      </trkpt>
      <trkpt lat="48.18986" lon="-3.89652">
        <ele>100.7</ele>
        <time>2020-06-08T10:47:43Z</time>
      </trkpt>
      <trkpt lat="48.18987" lon="-3.89654">
        <ele>100.9</ele>
        <time>2020-06-08T10:47:44Z</time>
      </trkpt>
      <trkpt lat="48.18988" lon="-3.89656">
        <ele>101.1</ele>
        <time>2020-06-08T10:47:45Z</time>
      </trkpt>
      <trkpt lat="48.18989" lon="-3.89658">
        <ele>101.3</ele>
        <time>2020-06-08T10:47:46Z</time>
      </trkpt>
      <trkpt lat="48.18991" lon="-3.89659">
        <ele>101.4</ele>
        <time>2020-06-08T10:47:47Z</time>
      </trkpt>
      <trkpt lat="48.18992" lon="-3.8966">
        <ele>101.6</ele>
        <time>2020-06-08T10:47:48Z</time>
      </trkpt>
      <trkpt lat="48.18994" lon="-3.89661">
        <ele>101.8</ele>
        <time>2020-06-08T10:47:49Z</time>
      </trkpt>
      <trkpt lat="48.18995" lon="-3.89663">
        <ele>102</ele>
        <time>2020-06-08T10:47:50Z</time>
      </trkpt>
      <trkpt lat="48.18998" lon="-3.89664">
        <ele>102.3</ele>
        <time>2020-06-08T10:47:51Z</time>
      </trkpt>
      <trkpt lat="48.18998" lon="-3.89665">
        <ele>102.4</ele>
        <time>2020-06-08T10:47:52Z</time>
      </trkpt>
      <trkpt lat="48.19001" lon="-3.89667">
        <ele>102.7</ele>
        <time>2020-06-08T10:47:53Z</time>
      </trkpt>
      <trkpt lat="48.19002" lon="-3.89667">
        <ele>102.7</ele>
        <time>2020-06-08T10:47:54Z</time>
      </trkpt>
      <trkpt lat="48.19004" lon="-3.89671">
        <ele>103.1</ele>
        <time>2020-06-08T10:47:55Z</time>
      </trkpt>
      <trkpt lat="48.19005" lon="-3.89672">
        <ele>103.2</ele>
        <time>2020-06-08T10:47:56Z</time>
      </trkpt>
      <trkpt lat="48.19007" lon="-3.89675">
        <ele>103.5</ele>
        <time>2020-06-08T10:47:57Z</time>
      </trkpt>
      <trkpt lat="48.19007" lon="-3.89676">
        <ele>103.6</ele>
        <time>2020-06-08T10:47:58Z</time>
      </trkpt>
      <trkpt lat="48.19009" lon="-3.89676">
        <ele>103.7</ele>
        <time>2020-06-08T10:47:59Z</time>
      </trkpt>
      <trkpt lat="48.1901" lon="-3.89678">
        <ele>103.9</ele>
        <time>2020-06-08T10:48:00Z</time>
      </trkpt>
      <trkpt lat="48.19013" lon="-3.89679">
        <ele>104.1</ele>
        <time>2020-06-08T10:48:01Z</time>
      </trkpt>
      <trkpt lat="48.19014" lon="-3.8968">
        <ele>104.2</ele>
        <time>2020-06-08T10:48:02Z</time>
      </trkpt>
      <trkpt lat="48.19015" lon="-3.89681">
        <ele>104.4</ele>
        <time>2020-06-08T10:48:03Z</time>
      </trkpt>
      <trkpt lat="48.19016" lon="-3.89681">
        <ele>104.4</ele>
        <time>2020-06-08T10:48:04Z</time>
      </trkpt>
      <trkpt lat="48.19017" lon="-3.89682">
        <ele>104.5</ele>
        <time>2020-06-08T10:48:05Z</time>
      </trkpt>
      <trkpt lat="48.19018" lon="-3.89683">
        <ele>104.7</ele>
        <time>2020-06-08T10:48:06Z</time>
      </trkpt>
      <trkpt lat="48.1902" lon="-3.89686">
        <ele>104.8</ele>
        <time>2020-06-08T10:48:07Z</time>
      </trkpt>
      <trkpt lat="48.19022" lon="-3.89689">
        <ele>105</ele>
        <time>2020-06-08T10:48:08Z</time>
      </trkpt>
      <trkpt lat="48.19022" lon="-3.8969">
        <ele>105.1</ele>
        <time>2020-06-08T10:48:09Z</time>
      </trkpt>
      <trkpt lat="48.19025" lon="-3.89692">
        <ele>105.3</ele>
        <time>2020-06-08T10:48:10Z</time>
      </trkpt>
      <trkpt lat="48.19026" lon="-3.89693">
        <ele>105.4</ele>
        <time>2020-06-08T10:48:11Z</time>
      </trkpt>
      <trkpt lat="48.19027" lon="-3.89695">
        <ele>105.5</ele>
        <time>2020-06-08T10:48:12Z</time>
      </trkpt>
      <trkpt lat="48.19028" lon="-3.89696">
        <ele>105.6</ele>
        <time>2020-06-08T10:48:13Z</time>
      </trkpt>
      <trkpt lat="48.1903" lon="-3.897">
        <ele>105.8</ele>
        <time>2020-06-08T10:48:14Z</time>
      </trkpt>
      <trkpt lat="48.1903" lon="-3.89701">
        <ele>105.9</ele>
        <time>2020-06-08T10:48:15Z</time>
      </trkpt>
      <trkpt lat="48.19031" lon="-3.89703">
        <ele>106</ele>
        <time>2020-06-08T10:48:16Z</time>
      </trkpt>
      <trkpt lat="48.19032" lon="-3.89706">
        <ele>106.2</ele>
        <time>2020-06-08T10:48:17Z</time>
      </trkpt>
      <trkpt lat="48.19034" lon="-3.8971">
        <ele>106.4</ele>
        <time>2020-06-08T10:48:18Z</time>
      </trkpt>
      <trkpt lat="48.19035" lon="-3.89712">
        <ele>106.5</ele>
        <time>2020-06-08T10:48:19Z</time>
      </trkpt>
      <trkpt lat="48.19036" lon="-3.89716">
        <ele>106.7</ele>
        <time>2020-06-08T10:48:20Z</time>
      </trkpt>
      <trkpt lat="48.19037" lon="-3.89718">
        <ele>106.8</ele>
        <time>2020-06-08T10:48:21Z</time>
      </trkpt>
      <trkpt lat="48.19039" lon="-3.89721">
        <ele>107</ele>
        <time>2020-06-08T10:48:22Z</time>
      </trkpt>
      <trkpt lat="48.19039" lon="-3.89722">
        <ele>107.1</ele>
        <time>2020-06-08T10:48:23Z</time>
      </trkpt>
      <trkpt lat="48.19042" lon="-3.89727">
        <ele>107.3</ele>
        <time>2020-06-08T10:48:24Z</time>
      </trkpt>
      <trkpt lat="48.19042" lon="-3.89728">
        <ele>107.4</ele>
        <time>2020-06-08T10:48:25Z</time>
      </trkpt>
      <trkpt lat="48.19044" lon="-3.89731">
        <ele>107.5</ele>
        <time>2020-06-08T10:48:26Z</time>
      </trkpt>
      <trkpt lat="48.19046" lon="-3.89736">
        <ele>107.8</ele>
        <time>2020-06-08T10:48:27Z</time>
      </trkpt>
      <trkpt lat="48.19047" lon="-3.89738">
        <ele>107.8</ele>
        <time>2020-06-08T10:48:28Z</time>
      </trkpt>
      <trkpt lat="48.1905" lon="-3.89742">
        <ele>108.1</ele>
        <time>2020-06-08T10:48:29Z</time>
      </trkpt>
      <trkpt lat="48.19051" lon="-3.89743">
        <ele>108.1</ele>
        <time>2020-06-08T10:48:30Z</time>
      </trkpt>
      <trkpt lat="48.19053" lon="-3.89746">
        <ele>108.3</ele>
        <time>2020-06-08T10:48:31Z</time>
      </trkpt>
      <trkpt lat="48.19054" lon="-3.89747">
        <ele>108.4</ele>
        <time>2020-06-08T10:48:32Z</time>
      </trkpt>
      <trkpt lat="48.19057" lon="-3.8975">
        <ele>108.6</ele>
        <time>2020-06-08T10:48:33Z</time>
      </trkpt>
      <trkpt lat="48.19058" lon="-3.89751">
        <ele>108.6</ele>
        <time>2020-06-08T10:48:34Z</time>
      </trkpt>
      <trkpt lat="48.19061" lon="-3.89753">
        <ele>108.8</ele>
        <time>2020-06-08T10:48:35Z</time>
      </trkpt>
      <trkpt lat="48.19061" lon="-3.89754">
        <ele>108.8</ele>
        <time>2020-06-08T10:48:36Z</time>
      </trkpt>
      <trkpt lat="48.19064" lon="-3.89757">
        <ele>109</ele>
        <time>2020-06-08T10:48:37Z</time>
      </trkpt>
      <trkpt lat="48.19064" lon="-3.89757">
        <ele>109</ele>
        <time>2020-06-08T10:48:38Z</time>
      </trkpt>
      <trkpt lat="48.19067" lon="-3.8976">
        <ele>109.2</ele>
        <time>2020-06-08T10:48:39Z</time>
      </trkpt>
      <trkpt lat="48.19067" lon="-3.89761">
        <ele>109.2</ele>
        <time>2020-06-08T10:48:40Z</time>
      </trkpt>
      <trkpt lat="48.19068" lon="-3.89763">
        <ele>109.3</ele>
        <time>2020-06-08T10:48:41Z</time>
      </trkpt>
      <trkpt lat="48.1907" lon="-3.89766">
        <ele>109.4</ele>
        <time>2020-06-08T10:48:42Z</time>
      </trkpt>
      <trkpt lat="48.19072" lon="-3.89769">
        <ele>109.5</ele>
        <time>2020-06-08T10:48:43Z</time>
      </trkpt>
      <trkpt lat="48.19072" lon="-3.8977">
        <ele>109.6</ele>
        <time>2020-06-08T10:48:44Z</time>
      </trkpt>
      <trkpt lat="48.19075" lon="-3.89771">
        <ele>109.7</ele>
        <time>2020-06-08T10:48:45Z</time>
      </trkpt>
      <trkpt lat="48.19076" lon="-3.89772">
        <ele>109.7</ele>
        <time>2020-06-08T10:48:46Z</time>
      </trkpt>
      <trkpt lat="48.19077" lon="-3.89777">
        <ele>109.9</ele>
        <time>2020-06-08T10:48:47Z</time>
      </trkpt>
      <trkpt lat="48.19078" lon="-3.89778">
        <ele>109.9</ele>
        <time>2020-06-08T10:48:48Z</time>
      </trkpt>
      <trkpt lat="48.1908" lon="-3.89783">
        <ele>110.1</ele>
        <time>2020-06-08T10:48:49Z</time>
      </trkpt>
      <trkpt lat="48.1908" lon="-3.89785">
        <ele>110.2</ele>
        <time>2020-06-08T10:48:50Z</time>
      </trkpt>
      <trkpt lat="48.19082" lon="-3.89789">
        <ele>110.3</ele>
        <time>2020-06-08T10:48:51Z</time>
      </trkpt>
      <trkpt lat="48.19082" lon="-3.8979">
        <ele>110.3</ele>
        <time>2020-06-08T10:48:52Z</time>
      </trkpt>
      <trkpt lat="48.19083" lon="-3.89792">
        <ele>110.4</ele>
        <time>2020-06-08T10:48:53Z</time>
      </trkpt>
      <trkpt lat="48.19084" lon="-3.89794">
        <ele>110.4</ele>
        <time>2020-06-08T10:48:54Z</time>
      </trkpt>
      <trkpt lat="48.19086" lon="-3.89798">
        <ele>110.3</ele>
        <time>2020-06-08T10:48:55Z</time>
      </trkpt>
      <trkpt lat="48.19087" lon="-3.89799">
        <ele>110.2</ele>
        <time>2020-06-08T10:48:56Z</time>
      </trkpt>
      <trkpt lat="48.19088" lon="-3.89801">
        <ele>110.2</ele>
        <time>2020-06-08T10:48:57Z</time>
      </trkpt>
      <trkpt lat="48.19089" lon="-3.89801">
        <ele>110.1</ele>
        <time>2020-06-08T10:48:58Z</time>
      </trkpt>
      <trkpt lat="48.19091" lon="-3.89802">
        <ele>110.1</ele>
        <time>2020-06-08T10:48:59Z</time>
      </trkpt>
      <trkpt lat="48.19091" lon="-3.89803">
        <ele>110</ele>
        <time>2020-06-08T10:49:00Z</time>
      </trkpt>
      <trkpt lat="48.19092" lon="-3.89803">
        <ele>110</ele>
        <time>2020-06-08T10:49:01Z</time>
      </trkpt>
      <trkpt lat="48.19092" lon="-3.89803">
        <ele>110</ele>
        <time>2020-06-08T10:49:02Z</time>
      </trkpt>
      <trkpt lat="48.19092" lon="-3.89802">
        <ele>110</ele>
        <time>2020-06-08T10:49:03Z</time>
      </trkpt>
      <trkpt lat="48.19092" lon="-3.89802">
        <ele>110</ele>
        <time>2020-06-08T10:49:04Z</time>
      </trkpt>
      <trkpt lat="48.19092" lon="-3.89801">
        <ele>110</ele>
        <time>2020-06-08T10:49:05Z</time>
      </trkpt>
      <trkpt lat="48.19091" lon="-3.89801">
        <ele>110</ele>
        <time>2020-06-08T10:49:06Z</time>
      </trkpt>
      <trkpt lat="48.19091" lon="-3.89801">
        <ele>109.9</ele>
        <time>2020-06-08T10:49:07Z</time>
      </trkpt>
      <trkpt lat="48.19091" lon="-3.898">
        <ele>109.9</ele>
        <time>2020-06-08T10:49:08Z</time>
      </trkpt>
      <trkpt lat="48.19091" lon="-3.898">
        <ele>109.9</ele>
        <time>2020-06-08T10:49:09Z</time>
      </trkpt>
      <trkpt lat="48.19091" lon="-3.89799">
        <ele>109.9</ele>
        <time>2020-06-08T10:49:10Z</time>
      </trkpt>
      <trkpt lat="48.1909" lon="-3.89799">
        <ele>109.9</ele>
        <time>2020-06-08T10:49:11Z</time>
      </trkpt>
      <trkpt lat="48.1909" lon="-3.89799">
        <ele>109.9</ele>
        <time>2020-06-08T10:50:23Z</time>
      </trkpt>
      <trkpt lat="48.1909" lon="-3.89798">
        <ele>109.9</ele>
        <time>2020-06-08T10:50:24Z</time>
      </trkpt>
      <trkpt lat="48.1909" lon="-3.89798">
        <ele>109.9</ele>
        <time>2020-06-08T10:50:25Z</time>
      </trkpt>
      <trkpt lat="48.1909" lon="-3.89798">
        <ele>109.9</ele>
        <time>2020-06-08T10:50:26Z</time>
      </trkpt>
      <trkpt lat="48.19089" lon="-3.89797">
        <ele>109.8</ele>
        <time>2020-06-08T10:50:27Z</time>
      </trkpt>
      <trkpt lat="48.19089" lon="-3.89797">
        <ele>109.8</ele>
        <time>2020-06-08T10:50:28Z</time>
      </trkpt>
      <trkpt lat="48.19089" lon="-3.89796">
        <ele>109.8</ele>
        <time>2020-06-08T10:50:29Z</time>
      </trkpt>
      <trkpt lat="48.19089" lon="-3.89796">
        <ele>109.8</ele>
        <time>2020-06-08T10:50:30Z</time>
      </trkpt>
      <trkpt lat="48.19089" lon="-3.89796">
        <ele>109.8</ele>
        <time>2020-06-08T10:50:31Z</time>
      </trkpt>
      <trkpt lat="48.19088" lon="-3.89795">
        <ele>109.8</ele>
        <time>2020-06-08T10:50:32Z</time>
      </trkpt>
      <trkpt lat="48.19088" lon="-3.89795">
        <ele>109.8</ele>
        <time>2020-06-08T10:50:33Z</time>
      </trkpt>
      <trkpt lat="48.19088" lon="-3.89794">
        <ele>109.8</ele>
        <time>2020-06-08T10:50:34Z</time>
      </trkpt>
      <trkpt lat="48.19088" lon="-3.89794">
        <ele>109.8</ele>
        <time>2020-06-08T10:50:35Z</time>
      </trkpt>
      <trkpt lat="48.19088" lon="-3.89794">
        <ele>109.7</ele>
        <time>2020-06-08T10:51:11Z</time>
      </trkpt>
      <trkpt lat="48.19087" lon="-3.89793">
        <ele>109.7</ele>
        <time>2020-06-08T10:51:12Z</time>
      </trkpt>
      <trkpt lat="48.19087" lon="-3.89793">
        <ele>109.7</ele>
        <time>2020-06-08T10:51:13Z</time>
      </trkpt>
      <trkpt lat="48.19084" lon="-3.8979">
        <ele>109.6</ele>
        <time>2020-06-08T10:51:14Z</time>
      </trkpt>
      <trkpt lat="48.19083" lon="-3.89788">
        <ele>109.5</ele>
        <time>2020-06-08T10:51:15Z</time>
      </trkpt>
      <trkpt lat="48.1908" lon="-3.89786">
        <ele>109.4</ele>
        <time>2020-06-08T10:51:16Z</time>
      </trkpt>
      <trkpt lat="48.19077" lon="-3.89782">
        <ele>109.3</ele>
        <time>2020-06-08T10:51:17Z</time>
      </trkpt>
      <trkpt lat="48.19074" lon="-3.89777">
        <ele>109.1</ele>
        <time>2020-06-08T10:51:18Z</time>
      </trkpt>
      <trkpt lat="48.1907" lon="-3.89772">
        <ele>109</ele>
        <time>2020-06-08T10:51:19Z</time>
      </trkpt>
      <trkpt lat="48.19067" lon="-3.89768">
        <ele>108.8</ele>
        <time>2020-06-08T10:51:20Z</time>
      </trkpt>
      <trkpt lat="48.19064" lon="-3.89763">
        <ele>108.6</ele>
        <time>2020-06-08T10:51:21Z</time>
      </trkpt>
      <trkpt lat="48.19062" lon="-3.89758">
        <ele>108.5</ele>
        <time>2020-06-08T10:51:22Z</time>
      </trkpt>
      <trkpt lat="48.19059" lon="-3.89751">
        <ele>108.3</ele>
        <time>2020-06-08T10:51:23Z</time>
      </trkpt>
      <trkpt lat="48.19055" lon="-3.89746">
        <ele>108</ele>
        <time>2020-06-08T10:51:24Z</time>
      </trkpt>
      <trkpt lat="48.19052" lon="-3.89741">
        <ele>107.8</ele>
        <time>2020-06-08T10:51:25Z</time>
      </trkpt>
      <trkpt lat="48.19049" lon="-3.89736">
        <ele>107.6</ele>
        <time>2020-06-08T10:51:26Z</time>
      </trkpt>
      <trkpt lat="48.19045" lon="-3.8973">
        <ele>107.4</ele>
        <time>2020-06-08T10:51:27Z</time>
      </trkpt>
      <trkpt lat="48.19042" lon="-3.89724">
        <ele>107.2</ele>
        <time>2020-06-08T10:51:28Z</time>
      </trkpt>
      <trkpt lat="48.19039" lon="-3.89718">
        <ele>107</ele>
        <time>2020-06-08T10:51:29Z</time>
      </trkpt>
      <trkpt lat="48.19035" lon="-3.89712">
        <ele>106.7</ele>
        <time>2020-06-08T10:51:30Z</time>
      </trkpt>
      <trkpt lat="48.19032" lon="-3.89708">
        <ele>106.5</ele>
        <time>2020-06-08T10:51:31Z</time>
      </trkpt>
      <trkpt lat="48.19029" lon="-3.89705">
        <ele>106.3</ele>
        <time>2020-06-08T10:51:32Z</time>
      </trkpt>
      <trkpt lat="48.19029" lon="-3.89704">
        <ele>106.2</ele>
        <time>2020-06-08T10:51:33Z</time>
      </trkpt>
      <trkpt lat="48.19026" lon="-3.89702">
        <ele>106.1</ele>
        <time>2020-06-08T10:51:34Z</time>
      </trkpt>
      <trkpt lat="48.19025" lon="-3.89701">
        <ele>106</ele>
        <time>2020-06-08T10:51:35Z</time>
      </trkpt>
      <trkpt lat="48.19023" lon="-3.89697">
        <ele>105.9</ele>
        <time>2020-06-08T10:51:36Z</time>
      </trkpt>
      <trkpt lat="48.19023" lon="-3.89695">
        <ele>105.8</ele>
        <time>2020-06-08T10:51:37Z</time>
      </trkpt>
      <trkpt lat="48.19021" lon="-3.89692">
        <ele>105.6</ele>
        <time>2020-06-08T10:51:38Z</time>
      </trkpt>
      <trkpt lat="48.19021" lon="-3.89691">
        <ele>105.6</ele>
        <time>2020-06-08T10:51:39Z</time>
      </trkpt>
      <trkpt lat="48.1902" lon="-3.8969">
        <ele>105.5</ele>
        <time>2020-06-08T10:51:40Z</time>
      </trkpt>
      <trkpt lat="48.19021" lon="-3.8969">
        <ele>105.5</ele>
        <time>2020-06-08T10:51:41Z</time>
      </trkpt>
      <trkpt lat="48.19021" lon="-3.89691">
        <ele>105.5</ele>
        <time>2020-06-08T10:51:42Z</time>
      </trkpt>
      <trkpt lat="48.19021" lon="-3.89691">
        <ele>105.4</ele>
        <time>2020-06-08T10:51:43Z</time>
      </trkpt>
      <trkpt lat="48.19021" lon="-3.89691">
        <ele>105.4</ele>
        <time>2020-06-08T10:51:44Z</time>
      </trkpt>
      <trkpt lat="48.19021" lon="-3.89691">
        <ele>105.4</ele>
        <time>2020-06-08T10:51:45Z</time>
      </trkpt>
      <trkpt lat="48.19021" lon="-3.89691">
        <ele>105.4</ele>
        <time>2020-06-08T10:51:46Z</time>
      </trkpt>
      <trkpt lat="48.19021" lon="-3.89691">
        <ele>105.4</ele>
        <time>2020-06-08T10:51:47Z</time>
      </trkpt>
      <trkpt lat="48.19021" lon="-3.89691">
        <ele>105.4</ele>
        <time>2020-06-08T10:51:48Z</time>
      </trkpt>
      <trkpt lat="48.19022" lon="-3.89691">
        <ele>105.4</ele>
        <time>2020-06-08T10:51:49Z</time>
      </trkpt>
      <trkpt lat="48.19022" lon="-3.89691">
        <ele>105.4</ele>
        <time>2020-06-08T10:51:50Z</time>
      </trkpt>
      <trkpt lat="48.19022" lon="-3.89691">
        <ele>105.4</ele>
        <time>2020-06-08T10:51:51Z</time>
      </trkpt>
      <trkpt lat="48.19021" lon="-3.89695">
        <ele>105.2</ele>
        <time>2020-06-08T10:52:34Z</time>
      </trkpt>
      <trkpt lat="48.19021" lon="-3.89696">
        <ele>105.2</ele>
        <time>2020-06-08T10:52:35Z</time>
      </trkpt>
      <trkpt lat="48.19022" lon="-3.89699">
        <ele>105.4</ele>
        <time>2020-06-08T10:52:36Z</time>
      </trkpt>
      <trkpt lat="48.19022" lon="-3.897">
        <ele>105.4</ele>
        <time>2020-06-08T10:52:37Z</time>
      </trkpt>
      <trkpt lat="48.19023" lon="-3.89701">
        <ele>105.5</ele>
        <time>2020-06-08T10:52:38Z</time>
      </trkpt>
      <trkpt lat="48.19025" lon="-3.89704">
        <ele>105.7</ele>
        <time>2020-06-08T10:52:39Z</time>
      </trkpt>
      <trkpt lat="48.19026" lon="-3.89705">
        <ele>105.8</ele>
        <time>2020-06-08T10:52:40Z</time>
      </trkpt>
      <trkpt lat="48.19027" lon="-3.89707">
        <ele>105.9</ele>
        <time>2020-06-08T10:52:41Z</time>
      </trkpt>
      <trkpt lat="48.19028" lon="-3.89709">
        <ele>106</ele>
        <time>2020-06-08T10:52:42Z</time>
      </trkpt>
      <trkpt lat="48.1903" lon="-3.89712">
        <ele>106.2</ele>
        <time>2020-06-08T10:52:43Z</time>
      </trkpt>
      <trkpt lat="48.19031" lon="-3.89713">
        <ele>106.3</ele>
        <time>2020-06-08T10:52:44Z</time>
      </trkpt>
      <trkpt lat="48.19035" lon="-3.89716">
        <ele>106.6</ele>
        <time>2020-06-08T10:52:45Z</time>
      </trkpt>
      <trkpt lat="48.19036" lon="-3.89717">
        <ele>106.7</ele>
        <time>2020-06-08T10:52:46Z</time>
      </trkpt>
      <trkpt lat="48.19038" lon="-3.8972">
        <ele>106.9</ele>
        <time>2020-06-08T10:52:47Z</time>
      </trkpt>
      <trkpt lat="48.1904" lon="-3.89723">
        <ele>107.1</ele>
        <time>2020-06-08T10:52:48Z</time>
      </trkpt>
      <trkpt lat="48.19041" lon="-3.89724">
        <ele>107.1</ele>
        <time>2020-06-08T10:52:49Z</time>
      </trkpt>
      <trkpt lat="48.19044" lon="-3.89727">
        <ele>107.3</ele>
        <time>2020-06-08T10:52:50Z</time>
      </trkpt>
      <trkpt lat="48.19045" lon="-3.89728">
        <ele>107.4</ele>
        <time>2020-06-08T10:52:51Z</time>
      </trkpt>
      <trkpt lat="48.19047" lon="-3.89731">
        <ele>107.6</ele>
        <time>2020-06-08T10:52:52Z</time>
      </trkpt>
      <trkpt lat="48.19048" lon="-3.89732">
        <ele>107.6</ele>
        <time>2020-06-08T10:52:53Z</time>
      </trkpt>
      <trkpt lat="48.1905" lon="-3.89736">
        <ele>107.8</ele>
        <time>2020-06-08T10:52:54Z</time>
      </trkpt>
      <trkpt lat="48.1905" lon="-3.89738">
        <ele>107.9</ele>
        <time>2020-06-08T10:52:55Z</time>
      </trkpt>
      <trkpt lat="48.19051" lon="-3.89743">
        <ele>108.1</ele>
        <time>2020-06-08T10:52:56Z</time>
      </trkpt>
      <trkpt lat="48.19051" lon="-3.89745">
        <ele>108.1</ele>
        <time>2020-06-08T10:52:57Z</time>
      </trkpt>
      <trkpt lat="48.19053" lon="-3.8975">
        <ele>108.3</ele>
        <time>2020-06-08T10:52:58Z</time>
      </trkpt>
      <trkpt lat="48.19054" lon="-3.89751">
        <ele>108.4</ele>
        <time>2020-06-08T10:52:59Z</time>
      </trkpt>
      <trkpt lat="48.19057" lon="-3.89754">
        <ele>108.6</ele>
        <time>2020-06-08T10:53:00Z</time>
      </trkpt>
      <trkpt lat="48.19059" lon="-3.89757">
        <ele>108.8</ele>
        <time>2020-06-08T10:53:01Z</time>
      </trkpt>
      <trkpt lat="48.19062" lon="-3.8976">
        <ele>108.9</ele>
        <time>2020-06-08T10:53:02Z</time>
      </trkpt>
      <trkpt lat="48.19063" lon="-3.8976">
        <ele>109</ele>
        <time>2020-06-08T10:53:03Z</time>
      </trkpt>
      <trkpt lat="48.19066" lon="-3.89762">
        <ele>109.1</ele>
        <time>2020-06-08T10:53:04Z</time>
      </trkpt>
      <trkpt lat="48.19067" lon="-3.89762">
        <ele>109.2</ele>
        <time>2020-06-08T10:53:05Z</time>
      </trkpt>
      <trkpt lat="48.1907" lon="-3.89765">
        <ele>109.3</ele>
        <time>2020-06-08T10:53:06Z</time>
      </trkpt>
      <trkpt lat="48.19071" lon="-3.89766">
        <ele>109.4</ele>
        <time>2020-06-08T10:53:07Z</time>
      </trkpt>
      <trkpt lat="48.19073" lon="-3.8977">
        <ele>109.5</ele>
        <time>2020-06-08T10:53:08Z</time>
      </trkpt>
      <trkpt lat="48.19074" lon="-3.89771">
        <ele>109.6</ele>
        <time>2020-06-08T10:53:09Z</time>
      </trkpt>
      <trkpt lat="48.19076" lon="-3.89776">
        <ele>109.8</ele>
        <time>2020-06-08T10:53:10Z</time>
      </trkpt>
      <trkpt lat="48.19077" lon="-3.89777">
        <ele>109.8</ele>
        <time>2020-06-08T10:53:11Z</time>
      </trkpt>
      <trkpt lat="48.1908" lon="-3.89781">
        <ele>110</ele>
        <time>2020-06-08T10:53:12Z</time>
      </trkpt>
      <trkpt lat="48.1908" lon="-3.89783">
        <ele>110</ele>
        <time>2020-06-08T10:53:13Z</time>
      </trkpt>
      <trkpt lat="48.19083" lon="-3.89786">
        <ele>110.2</ele>
        <time>2020-06-08T10:53:14Z</time>
      </trkpt>
      <trkpt lat="48.19083" lon="-3.89788">
        <ele>110.2</ele>
        <time>2020-06-08T10:53:15Z</time>
      </trkpt>
      <trkpt lat="48.19085" lon="-3.89791">
        <ele>110.3</ele>
        <time>2020-06-08T10:53:16Z</time>
      </trkpt>
      <trkpt lat="48.19086" lon="-3.89792">
        <ele>110.4</ele>
        <time>2020-06-08T10:53:17Z</time>
      </trkpt>
      <trkpt lat="48.19088" lon="-3.89795">
        <ele>110.5</ele>
        <time>2020-06-08T10:53:18Z</time>
      </trkpt>
      <trkpt lat="48.19088" lon="-3.89796">
        <ele>110.6</ele>
        <time>2020-06-08T10:53:19Z</time>
      </trkpt>
      <trkpt lat="48.1909" lon="-3.89798">
        <ele>110.6</ele>
        <time>2020-06-08T10:53:20Z</time>
      </trkpt>
      <trkpt lat="48.19091" lon="-3.89799">
        <ele>110.7</ele>
        <time>2020-06-08T10:53:21Z</time>
      </trkpt>
      <trkpt lat="48.19093" lon="-3.89799">
        <ele>110.8</ele>
        <time>2020-06-08T10:53:22Z</time>
      </trkpt>
      <trkpt lat="48.19093" lon="-3.89799">
        <ele>110.8</ele>
        <time>2020-06-08T10:53:23Z</time>
      </trkpt>
      <trkpt lat="48.19094" lon="-3.89798">
        <ele>110.8</ele>
        <time>2020-06-08T10:53:24Z</time>
      </trkpt>
      <trkpt lat="48.19094" lon="-3.89798">
        <ele>110.9</ele>
        <time>2020-06-08T10:53:25Z</time>
      </trkpt>
      <trkpt lat="48.19094" lon="-3.89797">
        <ele>110.9</ele>
        <time>2020-06-08T10:53:26Z</time>
      </trkpt>
      <trkpt lat="48.19094" lon="-3.89797">
        <ele>110.9</ele>
        <time>2020-06-08T10:53:27Z</time>
      </trkpt>
      <trkpt lat="48.19095" lon="-3.89797">
        <ele>110.9</ele>
        <time>2020-06-08T10:53:28Z</time>
      </trkpt>
      <trkpt lat="48.19095" lon="-3.89796">
        <ele>110.9</ele>
        <time>2020-06-08T10:53:29Z</time>
      </trkpt>
      <trkpt lat="48.19095" lon="-3.89796">
        <ele>111</ele>
        <time>2020-06-08T10:53:30Z</time>
      </trkpt>
      <trkpt lat="48.19095" lon="-3.89795">
        <ele>111</ele>
        <time>2020-06-08T10:53:31Z</time>
      </trkpt>
      <trkpt lat="48.19096" lon="-3.89795">
        <ele>111</ele>
        <time>2020-06-08T10:53:32Z</time>
      </trkpt>
      <trkpt lat="48.19096" lon="-3.89795">
        <ele>111</ele>
        <time>2020-06-08T10:53:33Z</time>
      </trkpt>
      <trkpt lat="48.19096" lon="-3.89794">
        <ele>111</ele>
        <time>2020-06-08T10:53:41Z</time>
      </trkpt>
      <trkpt lat="48.19097" lon="-3.89794">
        <ele>111.1</ele>
        <time>2020-06-08T10:53:42Z</time>
      </trkpt>
      <trkpt lat="48.19097" lon="-3.89793">
        <ele>111.3</ele>
        <time>2020-06-08T10:53:43Z</time>
      </trkpt>
      <trkpt lat="48.191" lon="-3.89796">
        <ele>111.5</ele>
        <time>2020-06-08T10:53:44Z</time>
      </trkpt>
      <trkpt lat="48.19101" lon="-3.89798">
        <ele>111.6</ele>
        <time>2020-06-08T10:53:45Z</time>
      </trkpt>
      <trkpt lat="48.19104" lon="-3.89799">
        <ele>111.8</ele>
        <time>2020-06-08T10:53:46Z</time>
      </trkpt>
      <trkpt lat="48.19107" lon="-3.89801">
        <ele>112</ele>
        <time>2020-06-08T10:53:47Z</time>
      </trkpt>
      <trkpt lat="48.19108" lon="-3.89801">
        <ele>112.1</ele>
        <time>2020-06-08T10:53:48Z</time>
      </trkpt>
      <trkpt lat="48.19109" lon="-3.89802">
        <ele>112.2</ele>
        <time>2020-06-08T10:53:49Z</time>
      </trkpt>
      <trkpt lat="48.19111" lon="-3.89803">
        <ele>112.3</ele>
        <time>2020-06-08T10:53:50Z</time>
      </trkpt>
      <trkpt lat="48.19114" lon="-3.89804">
        <ele>112.5</ele>
        <time>2020-06-08T10:53:51Z</time>
      </trkpt>
      <trkpt lat="48.19115" lon="-3.89804">
        <ele>112.6</ele>
        <time>2020-06-08T10:53:52Z</time>
      </trkpt>
      <trkpt lat="48.19119" lon="-3.89806">
        <ele>112.8</ele>
        <time>2020-06-08T10:53:53Z</time>
      </trkpt>
      <trkpt lat="48.1912" lon="-3.89806">
        <ele>112.9</ele>
        <time>2020-06-08T10:53:54Z</time>
      </trkpt>
      <trkpt lat="48.19123" lon="-3.89807">
        <ele>113.1</ele>
        <time>2020-06-08T10:53:55Z</time>
      </trkpt>
      <trkpt lat="48.19124" lon="-3.89807">
        <ele>113.2</ele>
        <time>2020-06-08T10:53:56Z</time>
      </trkpt>
      <trkpt lat="48.19126" lon="-3.89807">
        <ele>113.3</ele>
        <time>2020-06-08T10:53:57Z</time>
      </trkpt>
      <trkpt lat="48.19127" lon="-3.89807">
        <ele>113.4</ele>
        <time>2020-06-08T10:53:58Z</time>
      </trkpt>
      <trkpt lat="48.19128" lon="-3.89809">
        <ele>113.5</ele>
        <time>2020-06-08T10:53:59Z</time>
      </trkpt>
      <trkpt lat="48.1913" lon="-3.8981">
        <ele>113.5</ele>
        <time>2020-06-08T10:54:00Z</time>
      </trkpt>
      <trkpt lat="48.19131" lon="-3.8981">
        <ele>113.6</ele>
        <time>2020-06-08T10:54:01Z</time>
      </trkpt>
      <trkpt lat="48.19133" lon="-3.89811">
        <ele>113.8</ele>
        <time>2020-06-08T10:54:02Z</time>
      </trkpt>
      <trkpt lat="48.19136" lon="-3.89812">
        <ele>114</ele>
        <time>2020-06-08T10:54:03Z</time>
      </trkpt>
      <trkpt lat="48.19137" lon="-3.89813">
        <ele>114.1</ele>
        <time>2020-06-08T10:54:04Z</time>
      </trkpt>
      <trkpt lat="48.1914" lon="-3.89814">
        <ele>114.2</ele>
        <time>2020-06-08T10:54:05Z</time>
      </trkpt>
      <trkpt lat="48.19141" lon="-3.89815">
        <ele>114.3</ele>
        <time>2020-06-08T10:54:06Z</time>
      </trkpt>
      <trkpt lat="48.19144" lon="-3.89815">
        <ele>114.5</ele>
        <time>2020-06-08T10:54:07Z</time>
      </trkpt>
      <trkpt lat="48.19148" lon="-3.89816">
        <ele>114.8</ele>
        <time>2020-06-08T10:54:08Z</time>
      </trkpt>
      <trkpt lat="48.19149" lon="-3.89816">
        <ele>114.8</ele>
        <time>2020-06-08T10:54:09Z</time>
      </trkpt>
      <trkpt lat="48.19152" lon="-3.89818">
        <ele>115.1</ele>
        <time>2020-06-08T10:54:10Z</time>
      </trkpt>
      <trkpt lat="48.19153" lon="-3.89819">
        <ele>115.1</ele>
        <time>2020-06-08T10:54:11Z</time>
      </trkpt>
      <trkpt lat="48.19155" lon="-3.8982">
        <ele>115.3</ele>
        <time>2020-06-08T10:54:12Z</time>
      </trkpt>
      <trkpt lat="48.19156" lon="-3.8982">
        <ele>115.4</ele>
        <time>2020-06-08T10:54:13Z</time>
      </trkpt>
      <trkpt lat="48.19159" lon="-3.89821">
        <ele>115.6</ele>
        <time>2020-06-08T10:54:14Z</time>
      </trkpt>
      <trkpt lat="48.1916" lon="-3.89822">
        <ele>115.7</ele>
        <time>2020-06-08T10:54:15Z</time>
      </trkpt>
      <trkpt lat="48.19163" lon="-3.89824">
        <ele>115.9</ele>
        <time>2020-06-08T10:54:16Z</time>
      </trkpt>
      <trkpt lat="48.19165" lon="-3.89824">
        <ele>116</ele>
        <time>2020-06-08T10:54:17Z</time>
      </trkpt>
      <trkpt lat="48.19168" lon="-3.89824">
        <ele>116.2</ele>
        <time>2020-06-08T10:54:18Z</time>
      </trkpt>
      <trkpt lat="48.19169" lon="-3.89824">
        <ele>116.3</ele>
        <time>2020-06-08T10:54:19Z</time>
      </trkpt>
      <trkpt lat="48.19172" lon="-3.89825">
        <ele>116.4</ele>
        <time>2020-06-08T10:54:20Z</time>
      </trkpt>
      <trkpt lat="48.19173" lon="-3.89826">
        <ele>116.7</ele>
        <time>2020-06-08T10:54:21Z</time>
      </trkpt>
      <trkpt lat="48.19174" lon="-3.89825">
        <ele>116.7</ele>
        <time>2020-06-08T10:54:22Z</time>
      </trkpt>
      <trkpt lat="48.19176" lon="-3.89825">
        <ele>116.7</ele>
        <time>2020-06-08T10:54:23Z</time>
      </trkpt>
      <trkpt lat="48.19178" lon="-3.89824">
        <ele>116.8</ele>
        <time>2020-06-08T10:54:24Z</time>
      </trkpt>
      <trkpt lat="48.19179" lon="-3.89823">
        <ele>116.8</ele>
        <time>2020-06-08T10:54:25Z</time>
      </trkpt>
      <trkpt lat="48.19181" lon="-3.89819">
        <ele>116.9</ele>
        <time>2020-06-08T10:54:26Z</time>
      </trkpt>
      <trkpt lat="48.19181" lon="-3.89818">
        <ele>116.9</ele>
        <time>2020-06-08T10:54:27Z</time>
      </trkpt>
      <trkpt lat="48.19184" lon="-3.89815">
        <ele>117.4</ele>
        <time>2020-06-08T10:54:28Z</time>
      </trkpt>
      <trkpt lat="48.19185" lon="-3.89814">
        <ele>117.4</ele>
        <time>2020-06-08T10:54:29Z</time>
      </trkpt>
      <trkpt lat="48.19187" lon="-3.89811">
        <ele>117.5</ele>
        <time>2020-06-08T10:54:30Z</time>
      </trkpt>
      <trkpt lat="48.1919" lon="-3.8981">
        <ele>117.6</ele>
        <time>2020-06-08T10:54:31Z</time>
      </trkpt>
      <trkpt lat="48.19193" lon="-3.89809">
        <ele>117.7</ele>
        <time>2020-06-08T10:54:32Z</time>
      </trkpt>
      <trkpt lat="48.19195" lon="-3.89809">
        <ele>117.7</ele>
        <time>2020-06-08T10:54:33Z</time>
      </trkpt>
      <trkpt lat="48.19198" lon="-3.89809">
        <ele>117.8</ele>
        <time>2020-06-08T10:54:34Z</time>
      </trkpt>
      <trkpt lat="48.19199" lon="-3.89809">
        <ele>117.8</ele>
        <time>2020-06-08T10:54:35Z</time>
      </trkpt>
      <trkpt lat="48.192" lon="-3.89809">
        <ele>117.9</ele>
        <time>2020-06-08T10:54:36Z</time>
      </trkpt>
      <trkpt lat="48.19202" lon="-3.89809">
        <ele>118</ele>
        <time>2020-06-08T10:54:37Z</time>
      </trkpt>
      <trkpt lat="48.19205" lon="-3.89809">
        <ele>118.1</ele>
        <time>2020-06-08T10:54:38Z</time>
      </trkpt>
      <trkpt lat="48.19206" lon="-3.89808">
        <ele>118.1</ele>
        <time>2020-06-08T10:54:39Z</time>
      </trkpt>
      <trkpt lat="48.19209" lon="-3.89808">
        <ele>118.2</ele>
        <time>2020-06-08T10:54:40Z</time>
      </trkpt>
      <trkpt lat="48.19212" lon="-3.89808">
        <ele>118.3</ele>
        <time>2020-06-08T10:54:41Z</time>
      </trkpt>
      <trkpt lat="48.19213" lon="-3.89808">
        <ele>118.3</ele>
        <time>2020-06-08T10:54:42Z</time>
      </trkpt>
      <trkpt lat="48.19216" lon="-3.89807">
        <ele>118.4</ele>
        <time>2020-06-08T10:54:43Z</time>
      </trkpt>
      <trkpt lat="48.19219" lon="-3.89806">
        <ele>118.5</ele>
        <time>2020-06-08T10:54:44Z</time>
      </trkpt>
      <trkpt lat="48.1922" lon="-3.89805">
        <ele>118.5</ele>
        <time>2020-06-08T10:54:45Z</time>
      </trkpt>
      <trkpt lat="48.19224" lon="-3.89805">
        <ele>118.6</ele>
        <time>2020-06-08T10:54:46Z</time>
      </trkpt>
      <trkpt lat="48.19225" lon="-3.89804">
        <ele>118.6</ele>
        <time>2020-06-08T10:54:47Z</time>
      </trkpt>
      <trkpt lat="48.19229" lon="-3.89804">
        <ele>118.8</ele>
        <time>2020-06-08T10:54:48Z</time>
      </trkpt>
      <trkpt lat="48.1923" lon="-3.89804">
        <ele>118.8</ele>
        <time>2020-06-08T10:54:49Z</time>
      </trkpt>
      <trkpt lat="48.19233" lon="-3.89803">
        <ele>119</ele>
        <time>2020-06-08T10:54:50Z</time>
      </trkpt>
      <trkpt lat="48.19236" lon="-3.89802">
        <ele>119.1</ele>
        <time>2020-06-08T10:54:51Z</time>
      </trkpt>
      <trkpt lat="48.19237" lon="-3.89802">
        <ele>119.2</ele>
        <time>2020-06-08T10:54:52Z</time>
      </trkpt>
      <trkpt lat="48.1924" lon="-3.89803">
        <ele>119.3</ele>
        <time>2020-06-08T10:54:53Z</time>
      </trkpt>
      <trkpt lat="48.19241" lon="-3.89803">
        <ele>119.3</ele>
        <time>2020-06-08T10:54:54Z</time>
      </trkpt>
      <trkpt lat="48.19244" lon="-3.89803">
        <ele>119.5</ele>
        <time>2020-06-08T10:54:55Z</time>
      </trkpt>
      <trkpt lat="48.19245" lon="-3.89803">
        <ele>119.6</ele>
        <time>2020-06-08T10:54:56Z</time>
      </trkpt>
      <trkpt lat="48.19249" lon="-3.89803">
        <ele>119.7</ele>
        <time>2020-06-08T10:54:57Z</time>
      </trkpt>
      <trkpt lat="48.1925" lon="-3.89803">
        <ele>119.8</ele>
        <time>2020-06-08T10:54:58Z</time>
      </trkpt>
      <trkpt lat="48.19253" lon="-3.89803">
        <ele>120</ele>
        <time>2020-06-08T10:54:59Z</time>
      </trkpt>
      <trkpt lat="48.19254" lon="-3.89803">
        <ele>120</ele>
        <time>2020-06-08T10:55:00Z</time>
      </trkpt>
      <trkpt lat="48.19257" lon="-3.89803">
        <ele>120.1</ele>
        <time>2020-06-08T10:55:01Z</time>
      </trkpt>
      <trkpt lat="48.19258" lon="-3.89803">
        <ele>120.2</ele>
        <time>2020-06-08T10:55:02Z</time>
      </trkpt>
      <trkpt lat="48.19259" lon="-3.89804">
        <ele>120.2</ele>
        <time>2020-06-08T10:55:03Z</time>
      </trkpt>
      <trkpt lat="48.19261" lon="-3.89803">
        <ele>120.2</ele>
        <time>2020-06-08T10:55:04Z</time>
      </trkpt>
      <trkpt lat="48.19263" lon="-3.89803">
        <ele>120.2</ele>
        <time>2020-06-08T10:55:05Z</time>
      </trkpt>
      <trkpt lat="48.19264" lon="-3.89804">
        <ele>120.3</ele>
        <time>2020-06-08T10:55:06Z</time>
      </trkpt>
      <trkpt lat="48.19267" lon="-3.89806">
        <ele>120.3</ele>
        <time>2020-06-08T10:55:07Z</time>
      </trkpt>
      <trkpt lat="48.19268" lon="-3.89807">
        <ele>120.3</ele>
        <time>2020-06-08T10:55:08Z</time>
      </trkpt>
      <trkpt lat="48.19272" lon="-3.89808">
        <ele>120.5</ele>
        <time>2020-06-08T10:55:09Z</time>
      </trkpt>
      <trkpt lat="48.19273" lon="-3.89809">
        <ele>120.5</ele>
        <time>2020-06-08T10:55:10Z</time>
      </trkpt>
      <trkpt lat="48.19275" lon="-3.89811">
        <ele>120.6</ele>
        <time>2020-06-08T10:55:11Z</time>
      </trkpt>
      <trkpt lat="48.19278" lon="-3.89813">
        <ele>120.7</ele>
        <time>2020-06-08T10:55:12Z</time>
      </trkpt>
      <trkpt lat="48.19281" lon="-3.89814">
        <ele>120.8</ele>
        <time>2020-06-08T10:55:13Z</time>
      </trkpt>
      <trkpt lat="48.19282" lon="-3.89815">
        <ele>120.8</ele>
        <time>2020-06-08T10:55:14Z</time>
      </trkpt>
      <trkpt lat="48.19284" lon="-3.89815">
        <ele>120.9</ele>
        <time>2020-06-08T10:55:15Z</time>
      </trkpt>
      <trkpt lat="48.19285" lon="-3.89816">
        <ele>121</ele>
        <time>2020-06-08T10:55:16Z</time>
      </trkpt>
      <trkpt lat="48.19288" lon="-3.89818">
        <ele>121.1</ele>
        <time>2020-06-08T10:55:17Z</time>
      </trkpt>
      <trkpt lat="48.19289" lon="-3.89818">
        <ele>121.1</ele>
        <time>2020-06-08T10:55:18Z</time>
      </trkpt>
      <trkpt lat="48.19293" lon="-3.8982">
        <ele>121.2</ele>
        <time>2020-06-08T10:55:19Z</time>
      </trkpt>
      <trkpt lat="48.19294" lon="-3.89821">
        <ele>121.3</ele>
        <time>2020-06-08T10:55:20Z</time>
      </trkpt>
      <trkpt lat="48.19296" lon="-3.89822">
        <ele>121.4</ele>
        <time>2020-06-08T10:55:21Z</time>
      </trkpt>
      <trkpt lat="48.193" lon="-3.89824">
        <ele>121.5</ele>
        <time>2020-06-08T10:55:22Z</time>
      </trkpt>
      <trkpt lat="48.19301" lon="-3.89825">
        <ele>121.5</ele>
        <time>2020-06-08T10:55:23Z</time>
      </trkpt>
      <trkpt lat="48.19304" lon="-3.89828">
        <ele>121.7</ele>
        <time>2020-06-08T10:55:24Z</time>
      </trkpt>
      <trkpt lat="48.19306" lon="-3.89829">
        <ele>121.7</ele>
        <time>2020-06-08T10:55:25Z</time>
      </trkpt>
      <trkpt lat="48.19309" lon="-3.8983">
        <ele>121.8</ele>
        <time>2020-06-08T10:55:26Z</time>
      </trkpt>
      <trkpt lat="48.19311" lon="-3.89831">
        <ele>121.9</ele>
        <time>2020-06-08T10:55:27Z</time>
      </trkpt>
      <trkpt lat="48.19315" lon="-3.89833">
        <ele>122</ele>
        <time>2020-06-08T10:55:28Z</time>
      </trkpt>
      <trkpt lat="48.19316" lon="-3.89833">
        <ele>122</ele>
        <time>2020-06-08T10:55:29Z</time>
      </trkpt>
      <trkpt lat="48.19319" lon="-3.89835">
        <ele>122.1</ele>
        <time>2020-06-08T10:55:30Z</time>
      </trkpt>
      <trkpt lat="48.1932" lon="-3.89836">
        <ele>122.1</ele>
        <time>2020-06-08T10:55:31Z</time>
      </trkpt>
      <trkpt lat="48.19324" lon="-3.89837">
        <ele>122.2</ele>
        <time>2020-06-08T10:55:32Z</time>
      </trkpt>
      <trkpt lat="48.19325" lon="-3.89837">
        <ele>122.2</ele>
        <time>2020-06-08T10:55:33Z</time>
      </trkpt>
      <trkpt lat="48.19328" lon="-3.89839">
        <ele>122.3</ele>
        <time>2020-06-08T10:55:34Z</time>
      </trkpt>
      <trkpt lat="48.19332" lon="-3.89838">
        <ele>122.3</ele>
        <time>2020-06-08T10:55:35Z</time>
      </trkpt>
      <trkpt lat="48.19334" lon="-3.89838">
        <ele>122.4</ele>
        <time>2020-06-08T10:55:36Z</time>
      </trkpt>
      <trkpt lat="48.19338" lon="-3.8984">
        <ele>122.4</ele>
        <time>2020-06-08T10:55:37Z</time>
      </trkpt>
      <trkpt lat="48.19339" lon="-3.89841">
        <ele>122.4</ele>
        <time>2020-06-08T10:55:38Z</time>
      </trkpt>
      <trkpt lat="48.19342" lon="-3.89843">
        <ele>122.5</ele>
        <time>2020-06-08T10:55:39Z</time>
      </trkpt>
      <trkpt lat="48.19344" lon="-3.89844">
        <ele>122.5</ele>
        <time>2020-06-08T10:55:40Z</time>
      </trkpt>
      <trkpt lat="48.19346" lon="-3.89846">
        <ele>122.5</ele>
        <time>2020-06-08T10:55:41Z</time>
      </trkpt>
      <trkpt lat="48.1935" lon="-3.89847">
        <ele>122.5</ele>
        <time>2020-06-08T10:55:42Z</time>
      </trkpt>
      <trkpt lat="48.19352" lon="-3.89846">
        <ele>122.5</ele>
        <time>2020-06-08T10:55:43Z</time>
      </trkpt>
      <trkpt lat="48.19355" lon="-3.89848">
        <ele>122.5</ele>
        <time>2020-06-08T10:55:44Z</time>
      </trkpt>
      <trkpt lat="48.19356" lon="-3.89849">
        <ele>122.5</ele>
        <time>2020-06-08T10:55:45Z</time>
      </trkpt>
      <trkpt lat="48.1936" lon="-3.8985">
        <ele>122.5</ele>
        <time>2020-06-08T10:55:46Z</time>
      </trkpt>
      <trkpt lat="48.19361" lon="-3.89851">
        <ele>122.5</ele>
        <time>2020-06-08T10:55:47Z</time>
      </trkpt>
      <trkpt lat="48.19364" lon="-3.89853">
        <ele>122.5</ele>
        <time>2020-06-08T10:55:48Z</time>
      </trkpt>
      <trkpt lat="48.19368" lon="-3.89852">
        <ele>122.4</ele>
        <time>2020-06-08T10:55:49Z</time>
      </trkpt>
      <trkpt lat="48.19369" lon="-3.89852">
        <ele>122.4</ele>
        <time>2020-06-08T10:55:50Z</time>
      </trkpt>
      <trkpt lat="48.19372" lon="-3.89852">
        <ele>122.3</ele>
        <time>2020-06-08T10:55:51Z</time>
      </trkpt>
      <trkpt lat="48.19375" lon="-3.89852">
        <ele>122.3</ele>
        <time>2020-06-08T10:55:52Z</time>
      </trkpt>
      <trkpt lat="48.19378" lon="-3.89853">
        <ele>122.2</ele>
        <time>2020-06-08T10:55:53Z</time>
      </trkpt>
      <trkpt lat="48.19382" lon="-3.89853">
        <ele>122</ele>
        <time>2020-06-08T10:55:54Z</time>
      </trkpt>
      <trkpt lat="48.19384" lon="-3.89852">
        <ele>121.9</ele>
        <time>2020-06-08T10:55:55Z</time>
      </trkpt>
      <trkpt lat="48.19388" lon="-3.89849">
        <ele>121.7</ele>
        <time>2020-06-08T10:55:56Z</time>
      </trkpt>
      <trkpt lat="48.19392" lon="-3.89848">
        <ele>121.6</ele>
        <time>2020-06-08T10:55:57Z</time>
      </trkpt>
      <trkpt lat="48.19397" lon="-3.89849">
        <ele>121.4</ele>
        <time>2020-06-08T10:55:58Z</time>
      </trkpt>
      <trkpt lat="48.194" lon="-3.8985">
        <ele>121.2</ele>
        <time>2020-06-08T10:55:59Z</time>
      </trkpt>
      <trkpt lat="48.19403" lon="-3.8985">
        <ele>121.1</ele>
        <time>2020-06-08T10:56:00Z</time>
      </trkpt>
      <trkpt lat="48.19406" lon="-3.89851">
        <ele>120.9</ele>
        <time>2020-06-08T10:56:01Z</time>
      </trkpt>
      <trkpt lat="48.19409" lon="-3.89851">
        <ele>120.8</ele>
        <time>2020-06-08T10:56:02Z</time>
      </trkpt>
      <trkpt lat="48.19413" lon="-3.89851">
        <ele>120.7</ele>
        <time>2020-06-08T10:56:03Z</time>
      </trkpt>
      <trkpt lat="48.19414" lon="-3.89851">
        <ele>120.6</ele>
        <time>2020-06-08T10:56:04Z</time>
      </trkpt>
      <trkpt lat="48.19419" lon="-3.89851">
        <ele>120.5</ele>
        <time>2020-06-08T10:56:05Z</time>
      </trkpt>
      <trkpt lat="48.19423" lon="-3.8985">
        <ele>120.3</ele>
        <time>2020-06-08T10:56:06Z</time>
      </trkpt>
      <trkpt lat="48.19427" lon="-3.8985">
        <ele>120.1</ele>
        <time>2020-06-08T10:56:07Z</time>
      </trkpt>
      <trkpt lat="48.19432" lon="-3.89848">
        <ele>119.9</ele>
        <time>2020-06-08T10:56:08Z</time>
      </trkpt>
      <trkpt lat="48.19435" lon="-3.89848">
        <ele>119.8</ele>
        <time>2020-06-08T10:56:09Z</time>
      </trkpt>
      <trkpt lat="48.19439" lon="-3.89849">
        <ele>119.7</ele>
        <time>2020-06-08T10:56:10Z</time>
      </trkpt>
      <trkpt lat="48.19443" lon="-3.89849">
        <ele>119.5</ele>
        <time>2020-06-08T10:56:11Z</time>
      </trkpt>
      <trkpt lat="48.19448" lon="-3.89849">
        <ele>119.3</ele>
        <time>2020-06-08T10:56:12Z</time>
      </trkpt>
      <trkpt lat="48.19453" lon="-3.89849">
        <ele>119.1</ele>
        <time>2020-06-08T10:56:13Z</time>
      </trkpt>
      <trkpt lat="48.19459" lon="-3.89849">
        <ele>118.8</ele>
        <time>2020-06-08T10:56:14Z</time>
      </trkpt>
      <trkpt lat="48.19464" lon="-3.8985">
        <ele>118.4</ele>
        <time>2020-06-08T10:56:15Z</time>
      </trkpt>
      <trkpt lat="48.1947" lon="-3.8985">
        <ele>118.1</ele>
        <time>2020-06-08T10:56:16Z</time>
      </trkpt>
      <trkpt lat="48.19476" lon="-3.89851">
        <ele>117.8</ele>
        <time>2020-06-08T10:56:17Z</time>
      </trkpt>
      <trkpt lat="48.19484" lon="-3.89851">
        <ele>117.4</ele>
        <time>2020-06-08T10:56:18Z</time>
      </trkpt>
      <trkpt lat="48.1949" lon="-3.89853">
        <ele>117.1</ele>
        <time>2020-06-08T10:56:19Z</time>
      </trkpt>
      <trkpt lat="48.19496" lon="-3.89855">
        <ele>116.7</ele>
        <time>2020-06-08T10:56:20Z</time>
      </trkpt>
      <trkpt lat="48.19503" lon="-3.89858">
        <ele>116.4</ele>
        <time>2020-06-08T10:56:21Z</time>
      </trkpt>
      <trkpt lat="48.19511" lon="-3.89862">
        <ele>116</ele>
        <time>2020-06-08T10:56:22Z</time>
      </trkpt>
      <trkpt lat="48.1952" lon="-3.89864">
        <ele>115.7</ele>
        <time>2020-06-08T10:56:23Z</time>
      </trkpt>
      <trkpt lat="48.19528" lon="-3.89866">
        <ele>115.4</ele>
        <time>2020-06-08T10:56:24Z</time>
      </trkpt>
      <trkpt lat="48.19537" lon="-3.89869">
        <ele>115.9</ele>
        <time>2020-06-08T10:56:25Z</time>
      </trkpt>
      <trkpt lat="48.19546" lon="-3.89873">
        <ele>114.8</ele>
        <time>2020-06-08T10:56:26Z</time>
      </trkpt>
      <trkpt lat="48.19555" lon="-3.89877">
        <ele>113.6</ele>
        <time>2020-06-08T10:56:27Z</time>
      </trkpt>
      <trkpt lat="48.19563" lon="-3.8988">
        <ele>112.6</ele>
        <time>2020-06-08T10:56:28Z</time>
      </trkpt>
      <trkpt lat="48.19571" lon="-3.89884">
        <ele>111.9</ele>
        <time>2020-06-08T10:56:29Z</time>
      </trkpt>
      <trkpt lat="48.19579" lon="-3.89888">
        <ele>111.6</ele>
        <time>2020-06-08T10:56:30Z</time>
      </trkpt>
      <trkpt lat="48.19587" lon="-3.89891">
        <ele>111.2</ele>
        <time>2020-06-08T10:56:31Z</time>
      </trkpt>
      <trkpt lat="48.19595" lon="-3.89894">
        <ele>110.9</ele>
        <time>2020-06-08T10:56:32Z</time>
      </trkpt>
      <trkpt lat="48.19604" lon="-3.89897">
        <ele>110.5</ele>
        <time>2020-06-08T10:56:33Z</time>
      </trkpt>
      <trkpt lat="48.19611" lon="-3.899">
        <ele>110.2</ele>
        <time>2020-06-08T10:56:34Z</time>
      </trkpt>
      <trkpt lat="48.19619" lon="-3.89904">
        <ele>109.9</ele>
        <time>2020-06-08T10:56:35Z</time>
      </trkpt>
      <trkpt lat="48.19626" lon="-3.89907">
        <ele>109.5</ele>
        <time>2020-06-08T10:56:36Z</time>
      </trkpt>
      <trkpt lat="48.19633" lon="-3.89912">
        <ele>109.2</ele>
        <time>2020-06-08T10:56:37Z</time>
      </trkpt>
      <trkpt lat="48.1964" lon="-3.89916">
        <ele>108.9</ele>
        <time>2020-06-08T10:56:38Z</time>
      </trkpt>
      <trkpt lat="48.19647" lon="-3.8992">
        <ele>108.8</ele>
        <time>2020-06-08T10:56:39Z</time>
      </trkpt>
      <trkpt lat="48.19654" lon="-3.89923">
        <ele>108.6</ele>
        <time>2020-06-08T10:56:40Z</time>
      </trkpt>
      <trkpt lat="48.19661" lon="-3.89926">
        <ele>108.4</ele>
        <time>2020-06-08T10:56:41Z</time>
      </trkpt>
      <trkpt lat="48.19668" lon="-3.89928">
        <ele>108.2</ele>
        <time>2020-06-08T10:56:42Z</time>
      </trkpt>
      <trkpt lat="48.19675" lon="-3.8993">
        <ele>107.9</ele>
        <time>2020-06-08T10:56:43Z</time>
      </trkpt>
      <trkpt lat="48.19683" lon="-3.89931">
        <ele>107.6</ele>
        <time>2020-06-08T10:56:44Z</time>
      </trkpt>
      <trkpt lat="48.1969" lon="-3.89932">
        <ele>107.4</ele>
        <time>2020-06-08T10:56:45Z</time>
      </trkpt>
      <trkpt lat="48.19698" lon="-3.89933">
        <ele>107.1</ele>
        <time>2020-06-08T10:56:46Z</time>
      </trkpt>
      <trkpt lat="48.19705" lon="-3.89934">
        <ele>106.9</ele>
        <time>2020-06-08T10:56:47Z</time>
      </trkpt>
      <trkpt lat="48.19712" lon="-3.89936">
        <ele>106.7</ele>
        <time>2020-06-08T10:56:48Z</time>
      </trkpt>
      <trkpt lat="48.1972" lon="-3.89937">
        <ele>106.5</ele>
        <time>2020-06-08T10:56:49Z</time>
      </trkpt>
      <trkpt lat="48.19727" lon="-3.89939">
        <ele>106.3</ele>
        <time>2020-06-08T10:56:50Z</time>
      </trkpt>
      <trkpt lat="48.19734" lon="-3.8994">
        <ele>106.2</ele>
        <time>2020-06-08T10:56:51Z</time>
      </trkpt>
      <trkpt lat="48.19742" lon="-3.8994">
        <ele>105.9</ele>
        <time>2020-06-08T10:56:52Z</time>
      </trkpt>
      <trkpt lat="48.19749" lon="-3.89941">
        <ele>105.7</ele>
        <time>2020-06-08T10:56:53Z</time>
      </trkpt>
      <trkpt lat="48.19757" lon="-3.89941">
        <ele>105.6</ele>
        <time>2020-06-08T10:56:54Z</time>
      </trkpt>
      <trkpt lat="48.19765" lon="-3.89942">
        <ele>105.4</ele>
        <time>2020-06-08T10:56:55Z</time>
      </trkpt>
      <trkpt lat="48.19772" lon="-3.89942">
        <ele>105.2</ele>
        <time>2020-06-08T10:56:56Z</time>
      </trkpt>
      <trkpt lat="48.19779" lon="-3.89943">
        <ele>105</ele>
        <time>2020-06-08T10:56:57Z</time>
      </trkpt>
      <trkpt lat="48.19786" lon="-3.89946">
        <ele>104.9</ele>
        <time>2020-06-08T10:56:58Z</time>
      </trkpt>
      <trkpt lat="48.19793" lon="-3.89948">
        <ele>104.8</ele>
        <time>2020-06-08T10:56:59Z</time>
      </trkpt>
      <trkpt lat="48.198" lon="-3.8995">
        <ele>104.7</ele>
        <time>2020-06-08T10:57:00Z</time>
      </trkpt>
      <trkpt lat="48.19807" lon="-3.89952">
        <ele>104.6</ele>
        <time>2020-06-08T10:57:01Z</time>
      </trkpt>
      <trkpt lat="48.19814" lon="-3.89955">
        <ele>104.5</ele>
        <time>2020-06-08T10:57:02Z</time>
      </trkpt>
      <trkpt lat="48.19821" lon="-3.89957">
        <ele>104.4</ele>
        <time>2020-06-08T10:57:03Z</time>
      </trkpt>
      <trkpt lat="48.19828" lon="-3.89958">
        <ele>104.3</ele>
        <time>2020-06-08T10:57:04Z</time>
      </trkpt>
      <trkpt lat="48.19835" lon="-3.8996">
        <ele>104.2</ele>
        <time>2020-06-08T10:57:05Z</time>
      </trkpt>
      <trkpt lat="48.19841" lon="-3.89963">
        <ele>104.1</ele>
        <time>2020-06-08T10:57:06Z</time>
      </trkpt>
      <trkpt lat="48.19848" lon="-3.89966">
        <ele>104</ele>
        <time>2020-06-08T10:57:07Z</time>
      </trkpt>
      <trkpt lat="48.19855" lon="-3.89969">
        <ele>104</ele>
        <time>2020-06-08T10:57:08Z</time>
      </trkpt>
      <trkpt lat="48.19862" lon="-3.89973">
        <ele>104</ele>
        <time>2020-06-08T10:57:09Z</time>
      </trkpt>
      <trkpt lat="48.19869" lon="-3.89976">
        <ele>104</ele>
        <time>2020-06-08T10:57:10Z</time>
      </trkpt>
      <trkpt lat="48.19876" lon="-3.89979">
        <ele>104.1</ele>
        <time>2020-06-08T10:57:11Z</time>
      </trkpt>
      <trkpt lat="48.19883" lon="-3.89983">
        <ele>104.2</ele>
        <time>2020-06-08T10:57:12Z</time>
      </trkpt>
      <trkpt lat="48.1989" lon="-3.89988">
        <ele>104.2</ele>
        <time>2020-06-08T10:57:13Z</time>
      </trkpt>
      <trkpt lat="48.19896" lon="-3.89991">
        <ele>104.3</ele>
        <time>2020-06-08T10:57:14Z</time>
      </trkpt>
      <trkpt lat="48.19903" lon="-3.89995">
        <ele>104.4</ele>
        <time>2020-06-08T10:57:15Z</time>
      </trkpt>
      <trkpt lat="48.1991" lon="-3.89999">
        <ele>104.4</ele>
        <time>2020-06-08T10:57:16Z</time>
      </trkpt>
      <trkpt lat="48.19916" lon="-3.90003">
        <ele>104.5</ele>
        <time>2020-06-08T10:57:17Z</time>
      </trkpt>
      <trkpt lat="48.19922" lon="-3.90006">
        <ele>104.6</ele>
        <time>2020-06-08T10:57:18Z</time>
      </trkpt>
      <trkpt lat="48.19928" lon="-3.9001">
        <ele>104.8</ele>
        <time>2020-06-08T10:57:19Z</time>
      </trkpt>
      <trkpt lat="48.19934" lon="-3.90014">
        <ele>105</ele>
        <time>2020-06-08T10:57:20Z</time>
      </trkpt>
      <trkpt lat="48.1994" lon="-3.90018">
        <ele>105.1</ele>
        <time>2020-06-08T10:57:21Z</time>
      </trkpt>
      <trkpt lat="48.19946" lon="-3.90022">
        <ele>105.8</ele>
        <time>2020-06-08T10:57:22Z</time>
      </trkpt>
      <trkpt lat="48.19952" lon="-3.90026">
        <ele>105.8</ele>
        <time>2020-06-08T10:57:23Z</time>
      </trkpt>
      <trkpt lat="48.19957" lon="-3.90029">
        <ele>105.7</ele>
        <time>2020-06-08T10:57:24Z</time>
      </trkpt>
      <trkpt lat="48.19961" lon="-3.90034">
        <ele>105.7</ele>
        <time>2020-06-08T10:57:25Z</time>
      </trkpt>
      <trkpt lat="48.19965" lon="-3.90038">
        <ele>105.7</ele>
        <time>2020-06-08T10:57:26Z</time>
      </trkpt>
      <trkpt lat="48.19967" lon="-3.90044">
        <ele>105.7</ele>
        <time>2020-06-08T10:57:27Z</time>
      </trkpt>
      <trkpt lat="48.1997" lon="-3.90047">
        <ele>105.7</ele>
        <time>2020-06-08T10:57:28Z</time>
      </trkpt>
      <trkpt lat="48.19973" lon="-3.90046">
        <ele>105.7</ele>
        <time>2020-06-08T10:57:29Z</time>
      </trkpt>
      <trkpt lat="48.19976" lon="-3.90046">
        <ele>105.8</ele>
        <time>2020-06-08T10:57:30Z</time>
      </trkpt>
      <trkpt lat="48.1998" lon="-3.90045">
        <ele>105.8</ele>
        <time>2020-06-08T10:57:31Z</time>
      </trkpt>
      <trkpt lat="48.19984" lon="-3.90045">
        <ele>105.8</ele>
        <time>2020-06-08T10:57:32Z</time>
      </trkpt>
      <trkpt lat="48.19988" lon="-3.90046">
        <ele>105.8</ele>
        <time>2020-06-08T10:57:33Z</time>
      </trkpt>
      <trkpt lat="48.19992" lon="-3.90048">
        <ele>105.8</ele>
        <time>2020-06-08T10:57:34Z</time>
      </trkpt>
      <trkpt lat="48.19997" lon="-3.9005">
        <ele>105.8</ele>
        <time>2020-06-08T10:57:35Z</time>
      </trkpt>
      <trkpt lat="48.20001" lon="-3.90053">
        <ele>105.9</ele>
        <time>2020-06-08T10:57:36Z</time>
      </trkpt>
      <trkpt lat="48.20005" lon="-3.90057">
        <ele>105.9</ele>
        <time>2020-06-08T10:57:37Z</time>
      </trkpt>
      <trkpt lat="48.20009" lon="-3.9006">
        <ele>105.9</ele>
        <time>2020-06-08T10:57:38Z</time>
      </trkpt>
      <trkpt lat="48.20014" lon="-3.90063">
        <ele>105.9</ele>
        <time>2020-06-08T10:57:39Z</time>
      </trkpt>
      <trkpt lat="48.20018" lon="-3.90065">
        <ele>105.9</ele>
        <time>2020-06-08T10:57:40Z</time>
      </trkpt>
      <trkpt lat="48.20023" lon="-3.90068">
        <ele>105.9</ele>
        <time>2020-06-08T10:57:41Z</time>
      </trkpt>
      <trkpt lat="48.20028" lon="-3.90071">
        <ele>105.9</ele>
        <time>2020-06-08T10:57:42Z</time>
      </trkpt>
      <trkpt lat="48.20032" lon="-3.90074">
        <ele>105.9</ele>
        <time>2020-06-08T10:57:43Z</time>
      </trkpt>
      <trkpt lat="48.20037" lon="-3.90076">
        <ele>106</ele>
        <time>2020-06-08T10:57:44Z</time>
      </trkpt>
      <trkpt lat="48.20042" lon="-3.90078">
        <ele>106</ele>
        <time>2020-06-08T10:57:45Z</time>
      </trkpt>
      <trkpt lat="48.20047" lon="-3.90081">
        <ele>106</ele>
        <time>2020-06-08T10:57:46Z</time>
      </trkpt>
      <trkpt lat="48.20052" lon="-3.9008">
        <ele>106</ele>
        <time>2020-06-08T10:57:47Z</time>
      </trkpt>
      <trkpt lat="48.20056" lon="-3.90083">
        <ele>106.1</ele>
        <time>2020-06-08T10:57:48Z</time>
      </trkpt>
      <trkpt lat="48.20061" lon="-3.90084">
        <ele>106.1</ele>
        <time>2020-06-08T10:57:49Z</time>
      </trkpt>
      <trkpt lat="48.20066" lon="-3.90087">
        <ele>106.2</ele>
        <time>2020-06-08T10:57:50Z</time>
      </trkpt>
      <trkpt lat="48.2007" lon="-3.90089">
        <ele>106.2</ele>
        <time>2020-06-08T10:57:51Z</time>
      </trkpt>
      <trkpt lat="48.20075" lon="-3.90091">
        <ele>106.2</ele>
        <time>2020-06-08T10:57:52Z</time>
      </trkpt>
      <trkpt lat="48.20079" lon="-3.90094">
        <ele>106.3</ele>
        <time>2020-06-08T10:57:53Z</time>
      </trkpt>
      <trkpt lat="48.20084" lon="-3.90096">
        <ele>106.3</ele>
        <time>2020-06-08T10:57:54Z</time>
      </trkpt>
      <trkpt lat="48.20089" lon="-3.90097">
        <ele>106.4</ele>
        <time>2020-06-08T10:57:55Z</time>
      </trkpt>
      <trkpt lat="48.20093" lon="-3.90099">
        <ele>106.4</ele>
        <time>2020-06-08T10:57:56Z</time>
      </trkpt>
      <trkpt lat="48.20098" lon="-3.90101">
        <ele>106.5</ele>
        <time>2020-06-08T10:57:57Z</time>
      </trkpt>
      <trkpt lat="48.20102" lon="-3.90103">
        <ele>106.5</ele>
        <time>2020-06-08T10:57:58Z</time>
      </trkpt>
      <trkpt lat="48.20107" lon="-3.90105">
        <ele>106.6</ele>
        <time>2020-06-08T10:57:59Z</time>
      </trkpt>
      <trkpt lat="48.20111" lon="-3.90108">
        <ele>106.6</ele>
        <time>2020-06-08T10:58:00Z</time>
      </trkpt>
      <trkpt lat="48.20116" lon="-3.9011">
        <ele>106.8</ele>
        <time>2020-06-08T10:58:01Z</time>
      </trkpt>
      <trkpt lat="48.2012" lon="-3.90111">
        <ele>106.9</ele>
        <time>2020-06-08T10:58:02Z</time>
      </trkpt>
      <trkpt lat="48.20125" lon="-3.90112">
        <ele>107</ele>
        <time>2020-06-08T10:58:03Z</time>
      </trkpt>
      <trkpt lat="48.2013" lon="-3.90114">
        <ele>107.2</ele>
        <time>2020-06-08T10:58:04Z</time>
      </trkpt>
      <trkpt lat="48.20135" lon="-3.90115">
        <ele>107.3</ele>
        <time>2020-06-08T10:58:05Z</time>
      </trkpt>
      <trkpt lat="48.2014" lon="-3.90117">
        <ele>107.5</ele>
        <time>2020-06-08T10:58:06Z</time>
      </trkpt>
      <trkpt lat="48.20143" lon="-3.90119">
        <ele>107.6</ele>
        <time>2020-06-08T10:58:07Z</time>
      </trkpt>
      <trkpt lat="48.20147" lon="-3.9012">
        <ele>107.8</ele>
        <time>2020-06-08T10:58:08Z</time>
      </trkpt>
      <trkpt lat="48.20151" lon="-3.90121">
        <ele>107.9</ele>
        <time>2020-06-08T10:58:09Z</time>
      </trkpt>
      <trkpt lat="48.20155" lon="-3.90122">
        <ele>108.1</ele>
        <time>2020-06-08T10:58:10Z</time>
      </trkpt>
      <trkpt lat="48.20159" lon="-3.90123">
        <ele>108.2</ele>
        <time>2020-06-08T10:58:11Z</time>
      </trkpt>
      <trkpt lat="48.20163" lon="-3.90124">
        <ele>108.4</ele>
        <time>2020-06-08T10:58:12Z</time>
      </trkpt>
      <trkpt lat="48.20168" lon="-3.90126">
        <ele>108.5</ele>
        <time>2020-06-08T10:58:13Z</time>
      </trkpt>
      <trkpt lat="48.20174" lon="-3.90127">
        <ele>108.7</ele>
        <time>2020-06-08T10:58:14Z</time>
      </trkpt>
      <trkpt lat="48.20178" lon="-3.90127">
        <ele>108.8</ele>
        <time>2020-06-08T10:58:15Z</time>
      </trkpt>
      <trkpt lat="48.20183" lon="-3.90128">
        <ele>109</ele>
        <time>2020-06-08T10:58:16Z</time>
      </trkpt>
      <trkpt lat="48.20188" lon="-3.90129">
        <ele>109.1</ele>
        <time>2020-06-08T10:58:17Z</time>
      </trkpt>
      <trkpt lat="48.20194" lon="-3.90129">
        <ele>109.3</ele>
        <time>2020-06-08T10:58:18Z</time>
      </trkpt>
      <trkpt lat="48.20199" lon="-3.9013">
        <ele>109.3</ele>
        <time>2020-06-08T10:58:19Z</time>
      </trkpt>
      <trkpt lat="48.20203" lon="-3.9013">
        <ele>109.4</ele>
        <time>2020-06-08T10:58:20Z</time>
      </trkpt>
      <trkpt lat="48.20206" lon="-3.90132">
        <ele>109.4</ele>
        <time>2020-06-08T10:58:21Z</time>
      </trkpt>
      <trkpt lat="48.20211" lon="-3.90132">
        <ele>109.5</ele>
        <time>2020-06-08T10:58:22Z</time>
      </trkpt>
      <trkpt lat="48.20216" lon="-3.90133">
        <ele>109.6</ele>
        <time>2020-06-08T10:58:23Z</time>
      </trkpt>
      <trkpt lat="48.2022" lon="-3.90134">
        <ele>109.6</ele>
        <time>2020-06-08T10:58:24Z</time>
      </trkpt>
      <trkpt lat="48.20224" lon="-3.90136">
        <ele>109.7</ele>
        <time>2020-06-08T10:58:25Z</time>
      </trkpt>
      <trkpt lat="48.20228" lon="-3.90137">
        <ele>109.7</ele>
        <time>2020-06-08T10:58:26Z</time>
      </trkpt>
      <trkpt lat="48.20233" lon="-3.90138">
        <ele>109.8</ele>
        <time>2020-06-08T10:58:27Z</time>
      </trkpt>
      <trkpt lat="48.20237" lon="-3.90139">
        <ele>109.8</ele>
        <time>2020-06-08T10:58:28Z</time>
      </trkpt>
      <trkpt lat="48.20242" lon="-3.9014">
        <ele>109.8</ele>
        <time>2020-06-08T10:58:29Z</time>
      </trkpt>
      <trkpt lat="48.20247" lon="-3.9014">
        <ele>109.8</ele>
        <time>2020-06-08T10:58:30Z</time>
      </trkpt>
      <trkpt lat="48.20252" lon="-3.9014">
        <ele>109.9</ele>
        <time>2020-06-08T10:58:31Z</time>
      </trkpt>
      <trkpt lat="48.20257" lon="-3.9014">
        <ele>109.9</ele>
        <time>2020-06-08T10:58:32Z</time>
      </trkpt>
      <trkpt lat="48.20261" lon="-3.90141">
        <ele>109.9</ele>
        <time>2020-06-08T10:58:33Z</time>
      </trkpt>
      <trkpt lat="48.20266" lon="-3.90143">
        <ele>109.9</ele>
        <time>2020-06-08T10:58:34Z</time>
      </trkpt>
      <trkpt lat="48.20272" lon="-3.90143">
        <ele>109.9</ele>
        <time>2020-06-08T10:58:35Z</time>
      </trkpt>
      <trkpt lat="48.20277" lon="-3.90143">
        <ele>109.9</ele>
        <time>2020-06-08T10:58:36Z</time>
      </trkpt>
      <trkpt lat="48.20281" lon="-3.90144">
        <ele>109.8</ele>
        <time>2020-06-08T10:58:37Z</time>
      </trkpt>
      <trkpt lat="48.20286" lon="-3.90144">
        <ele>109.8</ele>
        <time>2020-06-08T10:58:38Z</time>
      </trkpt>
      <trkpt lat="48.20291" lon="-3.90144">
        <ele>109.7</ele>
        <time>2020-06-08T10:58:39Z</time>
      </trkpt>
      <trkpt lat="48.20296" lon="-3.90145">
        <ele>109.7</ele>
        <time>2020-06-08T10:58:40Z</time>
      </trkpt>
      <trkpt lat="48.20301" lon="-3.90146">
        <ele>109.6</ele>
        <time>2020-06-08T10:58:41Z</time>
      </trkpt>
      <trkpt lat="48.20306" lon="-3.90147">
        <ele>109.6</ele>
        <time>2020-06-08T10:58:42Z</time>
      </trkpt>
      <trkpt lat="48.2031" lon="-3.90148">
        <ele>109.5</ele>
        <time>2020-06-08T10:58:43Z</time>
      </trkpt>
      <trkpt lat="48.20315" lon="-3.90149">
        <ele>109.5</ele>
        <time>2020-06-08T10:58:44Z</time>
      </trkpt>
      <trkpt lat="48.2032" lon="-3.9015">
        <ele>109.4</ele>
        <time>2020-06-08T10:58:45Z</time>
      </trkpt>
      <trkpt lat="48.20324" lon="-3.90151">
        <ele>109.4</ele>
        <time>2020-06-08T10:58:46Z</time>
      </trkpt>
      <trkpt lat="48.20329" lon="-3.90151">
        <ele>109.3</ele>
        <time>2020-06-08T10:58:47Z</time>
      </trkpt>
      <trkpt lat="48.20334" lon="-3.90151">
        <ele>109.3</ele>
        <time>2020-06-08T10:58:48Z</time>
      </trkpt>
      <trkpt lat="48.2034" lon="-3.90152">
        <ele>109.3</ele>
        <time>2020-06-08T10:58:49Z</time>
      </trkpt>
      <trkpt lat="48.20345" lon="-3.90152">
        <ele>109.3</ele>
        <time>2020-06-08T10:58:50Z</time>
      </trkpt>
      <trkpt lat="48.2035" lon="-3.90153">
        <ele>109.4</ele>
        <time>2020-06-08T10:58:51Z</time>
      </trkpt>
      <trkpt lat="48.20355" lon="-3.90154">
        <ele>109.4</ele>
        <time>2020-06-08T10:58:52Z</time>
      </trkpt>
      <trkpt lat="48.2036" lon="-3.90154">
        <ele>109.5</ele>
        <time>2020-06-08T10:58:53Z</time>
      </trkpt>
      <trkpt lat="48.20365" lon="-3.90154">
        <ele>109.6</ele>
        <time>2020-06-08T10:58:54Z</time>
      </trkpt>
      <trkpt lat="48.20371" lon="-3.90155">
        <ele>109.8</ele>
        <time>2020-06-08T10:58:55Z</time>
      </trkpt>
      <trkpt lat="48.20376" lon="-3.90156">
        <ele>109.8</ele>
        <time>2020-06-08T10:58:56Z</time>
      </trkpt>
      <trkpt lat="48.20382" lon="-3.90157">
        <ele>109.8</ele>
        <time>2020-06-08T10:58:57Z</time>
      </trkpt>
      <trkpt lat="48.20387" lon="-3.90158">
        <ele>109.9</ele>
        <time>2020-06-08T10:58:58Z</time>
      </trkpt>
      <trkpt lat="48.20391" lon="-3.9016">
        <ele>109.9</ele>
        <time>2020-06-08T10:58:59Z</time>
      </trkpt>
      <trkpt lat="48.20396" lon="-3.9016">
        <ele>109.9</ele>
        <time>2020-06-08T10:59:00Z</time>
      </trkpt>
      <trkpt lat="48.204" lon="-3.90161">
        <ele>109.9</ele>
        <time>2020-06-08T10:59:01Z</time>
      </trkpt>
      <trkpt lat="48.20406" lon="-3.90162">
        <ele>110</ele>
        <time>2020-06-08T10:59:02Z</time>
      </trkpt>
      <trkpt lat="48.2041" lon="-3.90161">
        <ele>110.1</ele>
        <time>2020-06-08T10:59:03Z</time>
      </trkpt>
      <trkpt lat="48.20414" lon="-3.90161">
        <ele>110.2</ele>
        <time>2020-06-08T10:59:04Z</time>
      </trkpt>
      <trkpt lat="48.20419" lon="-3.90161">
        <ele>110.3</ele>
        <time>2020-06-08T10:59:05Z</time>
      </trkpt>
      <trkpt lat="48.20423" lon="-3.90162">
        <ele>110.4</ele>
        <time>2020-06-08T10:59:06Z</time>
      </trkpt>
      <trkpt lat="48.20429" lon="-3.90163">
        <ele>110.5</ele>
        <time>2020-06-08T10:59:07Z</time>
      </trkpt>
      <trkpt lat="48.20434" lon="-3.90163">
        <ele>110.7</ele>
        <time>2020-06-08T10:59:08Z</time>
      </trkpt>
      <trkpt lat="48.20438" lon="-3.90165">
        <ele>110.8</ele>
        <time>2020-06-08T10:59:09Z</time>
      </trkpt>
      <trkpt lat="48.20442" lon="-3.90165">
        <ele>110.9</ele>
        <time>2020-06-08T10:59:10Z</time>
      </trkpt>
      <trkpt lat="48.20446" lon="-3.90165">
        <ele>111.1</ele>
        <time>2020-06-08T10:59:11Z</time>
      </trkpt>
      <trkpt lat="48.2045" lon="-3.90167">
        <ele>111.2</ele>
        <time>2020-06-08T10:59:12Z</time>
      </trkpt>
      <trkpt lat="48.20454" lon="-3.90167">
        <ele>111.4</ele>
        <time>2020-06-08T10:59:13Z</time>
      </trkpt>
      <trkpt lat="48.20458" lon="-3.90168">
        <ele>111.5</ele>
        <time>2020-06-08T10:59:14Z</time>
      </trkpt>
      <trkpt lat="48.20462" lon="-3.90169">
        <ele>111.6</ele>
        <time>2020-06-08T10:59:15Z</time>
      </trkpt>
      <trkpt lat="48.20467" lon="-3.90169">
        <ele>111.7</ele>
        <time>2020-06-08T10:59:16Z</time>
      </trkpt>
      <trkpt lat="48.20472" lon="-3.90169">
        <ele>111.8</ele>
        <time>2020-06-08T10:59:17Z</time>
      </trkpt>
      <trkpt lat="48.20477" lon="-3.9017">
        <ele>111.9</ele>
        <time>2020-06-08T10:59:18Z</time>
      </trkpt>
      <trkpt lat="48.20482" lon="-3.90171">
        <ele>112</ele>
        <time>2020-06-08T10:59:19Z</time>
      </trkpt>
      <trkpt lat="48.20487" lon="-3.90172">
        <ele>111.9</ele>
        <time>2020-06-08T10:59:20Z</time>
      </trkpt>
      <trkpt lat="48.20492" lon="-3.90173">
        <ele>111.8</ele>
        <time>2020-06-08T10:59:21Z</time>
      </trkpt>
      <trkpt lat="48.20496" lon="-3.90173">
        <ele>111.8</ele>
        <time>2020-06-08T10:59:22Z</time>
      </trkpt>
      <trkpt lat="48.205" lon="-3.90174">
        <ele>111.8</ele>
        <time>2020-06-08T10:59:23Z</time>
      </trkpt>
      <trkpt lat="48.20505" lon="-3.90175">
        <ele>111.7</ele>
        <time>2020-06-08T10:59:24Z</time>
      </trkpt>
      <trkpt lat="48.20509" lon="-3.90175">
        <ele>111.7</ele>
        <time>2020-06-08T10:59:25Z</time>
      </trkpt>
      <trkpt lat="48.20513" lon="-3.90176">
        <ele>111.6</ele>
        <time>2020-06-08T10:59:26Z</time>
      </trkpt>
      <trkpt lat="48.20517" lon="-3.90176">
        <ele>111.6</ele>
        <time>2020-06-08T10:59:27Z</time>
      </trkpt>
      <trkpt lat="48.2052" lon="-3.90176">
        <ele>111.6</ele>
        <time>2020-06-08T10:59:28Z</time>
      </trkpt>
      <trkpt lat="48.20524" lon="-3.90175">
        <ele>111.6</ele>
        <time>2020-06-08T10:59:29Z</time>
      </trkpt>
      <trkpt lat="48.20526" lon="-3.90175">
        <ele>111.5</ele>
        <time>2020-06-08T10:59:30Z</time>
      </trkpt>
      <trkpt lat="48.20528" lon="-3.90175">
        <ele>111.5</ele>
        <time>2020-06-08T10:59:31Z</time>
      </trkpt>
      <trkpt lat="48.20528" lon="-3.90175">
        <ele>111.5</ele>
        <time>2020-06-08T10:59:32Z</time>
      </trkpt>
      <trkpt lat="48.20528" lon="-3.90174">
        <ele>111.5</ele>
        <time>2020-06-08T10:59:33Z</time>
      </trkpt>
      <trkpt lat="48.20528" lon="-3.90174">
        <ele>111.5</ele>
        <time>2020-06-08T10:59:34Z</time>
      </trkpt>
      <trkpt lat="48.20528" lon="-3.90173">
        <ele>111.5</ele>
        <time>2020-06-08T10:59:35Z</time>
      </trkpt>
      <trkpt lat="48.20528" lon="-3.90173">
        <ele>111.5</ele>
        <time>2020-06-08T10:59:36Z</time>
      </trkpt>
      <trkpt lat="48.20526" lon="-3.90175">
        <ele>111.5</ele>
        <time>2020-06-08T10:59:37Z</time>
      </trkpt>
      <trkpt lat="48.20526" lon="-3.90175">
        <ele>111.5</ele>
        <time>2020-06-08T10:59:38Z</time>
      </trkpt>
      <trkpt lat="48.20527" lon="-3.90175">
        <ele>111.5</ele>
        <time>2020-06-08T10:59:39Z</time>
      </trkpt>
      <trkpt lat="48.20527" lon="-3.90175">
        <ele>111.5</ele>
        <time>2020-06-08T10:59:40Z</time>
      </trkpt>
      <trkpt lat="48.20527" lon="-3.90175">
        <ele>111.5</ele>
        <time>2020-06-08T10:59:41Z</time>
      </trkpt>
      <trkpt lat="48.20528" lon="-3.90176">
        <ele>111.5</ele>
        <time>2020-06-08T10:59:42Z</time>
      </trkpt>
      <trkpt lat="48.2053" lon="-3.90177">
        <ele>111.5</ele>
        <time>2020-06-08T10:59:44Z</time>
      </trkpt>
      <trkpt lat="48.20533" lon="-3.90179">
        <ele>111.4</ele>
        <time>2020-06-08T10:59:45Z</time>
      </trkpt>
      <trkpt lat="48.20536" lon="-3.90181">
        <ele>111.4</ele>
        <time>2020-06-08T10:59:46Z</time>
      </trkpt>
      <trkpt lat="48.20538" lon="-3.90182">
        <ele>111.4</ele>
        <time>2020-06-08T10:59:47Z</time>
      </trkpt>
      <trkpt lat="48.20541" lon="-3.90183">
        <ele>111.3</ele>
        <time>2020-06-08T10:59:48Z</time>
      </trkpt>
      <trkpt lat="48.20544" lon="-3.90184">
        <ele>111.3</ele>
        <time>2020-06-08T10:59:49Z</time>
      </trkpt>
      <trkpt lat="48.20547" lon="-3.90184">
        <ele>111.2</ele>
        <time>2020-06-08T10:59:50Z</time>
      </trkpt>
      <trkpt lat="48.2055" lon="-3.90186">
        <ele>111.2</ele>
        <time>2020-06-08T10:59:51Z</time>
      </trkpt>
      <trkpt lat="48.20554" lon="-3.90187">
        <ele>111.2</ele>
        <time>2020-06-08T10:59:52Z</time>
      </trkpt>
      <trkpt lat="48.20557" lon="-3.90187">
        <ele>111.2</ele>
        <time>2020-06-08T10:59:53Z</time>
      </trkpt>
      <trkpt lat="48.20561" lon="-3.90187">
        <ele>111.1</ele>
        <time>2020-06-08T10:59:54Z</time>
      </trkpt>
      <trkpt lat="48.20564" lon="-3.90187">
        <ele>111.1</ele>
        <time>2020-06-08T10:59:55Z</time>
      </trkpt>
      <trkpt lat="48.20567" lon="-3.90187">
        <ele>111.1</ele>
        <time>2020-06-08T10:59:56Z</time>
      </trkpt>
      <trkpt lat="48.20572" lon="-3.90189">
        <ele>111</ele>
        <time>2020-06-08T10:59:57Z</time>
      </trkpt>
      <trkpt lat="48.20576" lon="-3.90189">
        <ele>110.9</ele>
        <time>2020-06-08T10:59:58Z</time>
      </trkpt>
      <trkpt lat="48.2058" lon="-3.90189">
        <ele>110.8</ele>
        <time>2020-06-08T10:59:59Z</time>
      </trkpt>
      <trkpt lat="48.20585" lon="-3.9019">
        <ele>110.7</ele>
        <time>2020-06-08T11:00:00Z</time>
      </trkpt>
      <trkpt lat="48.2059" lon="-3.90189">
        <ele>110.5</ele>
        <time>2020-06-08T11:00:01Z</time>
      </trkpt>
      <trkpt lat="48.20594" lon="-3.90189">
        <ele>110.3</ele>
        <time>2020-06-08T11:00:02Z</time>
      </trkpt>
      <trkpt lat="48.206" lon="-3.9019">
        <ele>110.1</ele>
        <time>2020-06-08T11:00:03Z</time>
      </trkpt>
      <trkpt lat="48.20606" lon="-3.90191">
        <ele>109.9</ele>
        <time>2020-06-08T11:00:04Z</time>
      </trkpt>
      <trkpt lat="48.20613" lon="-3.90192">
        <ele>109.6</ele>
        <time>2020-06-08T11:00:05Z</time>
      </trkpt>
      <trkpt lat="48.20619" lon="-3.90192">
        <ele>109.4</ele>
        <time>2020-06-08T11:00:06Z</time>
      </trkpt>
      <trkpt lat="48.20625" lon="-3.90192">
        <ele>109.1</ele>
        <time>2020-06-08T11:00:07Z</time>
      </trkpt>
      <trkpt lat="48.20634" lon="-3.90191">
        <ele>108.7</ele>
        <time>2020-06-08T11:00:08Z</time>
      </trkpt>
      <trkpt lat="48.20641" lon="-3.90193">
        <ele>108.4</ele>
        <time>2020-06-08T11:00:09Z</time>
      </trkpt>
      <trkpt lat="48.20649" lon="-3.90195">
        <ele>108.1</ele>
        <time>2020-06-08T11:00:10Z</time>
      </trkpt>
      <trkpt lat="48.20657" lon="-3.90197">
        <ele>107.8</ele>
        <time>2020-06-08T11:00:11Z</time>
      </trkpt>
      <trkpt lat="48.20666" lon="-3.90199">
        <ele>107.5</ele>
        <time>2020-06-08T11:00:12Z</time>
      </trkpt>
      <trkpt lat="48.20674" lon="-3.90201">
        <ele>107.3</ele>
        <time>2020-06-08T11:00:13Z</time>
      </trkpt>
      <trkpt lat="48.20681" lon="-3.90201">
        <ele>107.1</ele>
        <time>2020-06-08T11:00:14Z</time>
      </trkpt>
      <trkpt lat="48.20688" lon="-3.90203">
        <ele>107</ele>
        <time>2020-06-08T11:00:15Z</time>
      </trkpt>
      <trkpt lat="48.20694" lon="-3.90204">
        <ele>106.9</ele>
        <time>2020-06-08T11:00:16Z</time>
      </trkpt>
      <trkpt lat="48.20701" lon="-3.90204">
        <ele>106.8</ele>
        <time>2020-06-08T11:00:17Z</time>
      </trkpt>
      <trkpt lat="48.20707" lon="-3.90206">
        <ele>106.8</ele>
        <time>2020-06-08T11:00:18Z</time>
      </trkpt>
      <trkpt lat="48.20713" lon="-3.90208">
        <ele>106.8</ele>
        <time>2020-06-08T11:00:19Z</time>
      </trkpt>
      <trkpt lat="48.20719" lon="-3.90208">
        <ele>106.8</ele>
        <time>2020-06-08T11:00:20Z</time>
      </trkpt>
      <trkpt lat="48.20725" lon="-3.9021">
        <ele>106.8</ele>
        <time>2020-06-08T11:00:21Z</time>
      </trkpt>
      <trkpt lat="48.2073" lon="-3.90211">
        <ele>106.7</ele>
        <time>2020-06-08T11:00:22Z</time>
      </trkpt>
      <trkpt lat="48.20735" lon="-3.90212">
        <ele>106.7</ele>
        <time>2020-06-08T11:00:23Z</time>
      </trkpt>
      <trkpt lat="48.2074" lon="-3.90213">
        <ele>106.7</ele>
        <time>2020-06-08T11:00:24Z</time>
      </trkpt>
      <trkpt lat="48.20746" lon="-3.90213">
        <ele>106.7</ele>
        <time>2020-06-08T11:00:25Z</time>
      </trkpt>
      <trkpt lat="48.20751" lon="-3.90213">
        <ele>106.7</ele>
        <time>2020-06-08T11:00:26Z</time>
      </trkpt>
      <trkpt lat="48.20756" lon="-3.90213">
        <ele>106.9</ele>
        <time>2020-06-08T11:00:27Z</time>
      </trkpt>
      <trkpt lat="48.20761" lon="-3.90214">
        <ele>107.1</ele>
        <time>2020-06-08T11:00:28Z</time>
      </trkpt>
      <trkpt lat="48.20766" lon="-3.90214">
        <ele>107.3</ele>
        <time>2020-06-08T11:00:29Z</time>
      </trkpt>
      <trkpt lat="48.20771" lon="-3.90216">
        <ele>107.5</ele>
        <time>2020-06-08T11:00:30Z</time>
      </trkpt>
      <trkpt lat="48.20777" lon="-3.90217">
        <ele>107.7</ele>
        <time>2020-06-08T11:00:31Z</time>
      </trkpt>
      <trkpt lat="48.20782" lon="-3.90217">
        <ele>107.9</ele>
        <time>2020-06-08T11:00:32Z</time>
      </trkpt>
      <trkpt lat="48.20787" lon="-3.90216">
        <ele>108.1</ele>
        <time>2020-06-08T11:00:33Z</time>
      </trkpt>
      <trkpt lat="48.20792" lon="-3.90217">
        <ele>108.3</ele>
        <time>2020-06-08T11:00:34Z</time>
      </trkpt>
      <trkpt lat="48.20796" lon="-3.90217">
        <ele>108.6</ele>
        <time>2020-06-08T11:00:35Z</time>
      </trkpt>
      <trkpt lat="48.20801" lon="-3.90218">
        <ele>108.8</ele>
        <time>2020-06-08T11:00:36Z</time>
      </trkpt>
      <trkpt lat="48.20805" lon="-3.90218">
        <ele>109.8</ele>
        <time>2020-06-08T11:00:37Z</time>
      </trkpt>
      <trkpt lat="48.20808" lon="-3.90221">
        <ele>109.8</ele>
        <time>2020-06-08T11:00:38Z</time>
      </trkpt>
      <trkpt lat="48.2081" lon="-3.90226">
        <ele>109.8</ele>
        <time>2020-06-08T11:00:39Z</time>
      </trkpt>
      <trkpt lat="48.20813" lon="-3.9023">
        <ele>109.7</ele>
        <time>2020-06-08T11:00:40Z</time>
      </trkpt>
      <trkpt lat="48.20814" lon="-3.90235">
        <ele>109.5</ele>
        <time>2020-06-08T11:00:41Z</time>
      </trkpt>
      <trkpt lat="48.20814" lon="-3.90242">
        <ele>109.3</ele>
        <time>2020-06-08T11:00:42Z</time>
      </trkpt>
      <trkpt lat="48.20814" lon="-3.90249">
        <ele>109</ele>
        <time>2020-06-08T11:00:43Z</time>
      </trkpt>
      <trkpt lat="48.20813" lon="-3.90256">
        <ele>108.8</ele>
        <time>2020-06-08T11:00:44Z</time>
      </trkpt>
      <trkpt lat="48.20813" lon="-3.90263">
        <ele>108.5</ele>
        <time>2020-06-08T11:00:45Z</time>
      </trkpt>
      <trkpt lat="48.20813" lon="-3.9027">
        <ele>108.3</ele>
        <time>2020-06-08T11:00:46Z</time>
      </trkpt>
      <trkpt lat="48.20813" lon="-3.90277">
        <ele>108</ele>
        <time>2020-06-08T11:00:47Z</time>
      </trkpt>
      <trkpt lat="48.20813" lon="-3.90285">
        <ele>107.7</ele>
        <time>2020-06-08T11:00:48Z</time>
      </trkpt>
      <trkpt lat="48.20811" lon="-3.90293">
        <ele>107.5</ele>
        <time>2020-06-08T11:00:49Z</time>
      </trkpt>
      <trkpt lat="48.20811" lon="-3.90301">
        <ele>107.2</ele>
        <time>2020-06-08T11:00:50Z</time>
      </trkpt>
      <trkpt lat="48.20811" lon="-3.90309">
        <ele>106.9</ele>
        <time>2020-06-08T11:00:51Z</time>
      </trkpt>
      <trkpt lat="48.2081" lon="-3.90317">
        <ele>106.7</ele>
        <time>2020-06-08T11:00:52Z</time>
      </trkpt>
      <trkpt lat="48.2081" lon="-3.90325">
        <ele>106.5</ele>
        <time>2020-06-08T11:00:53Z</time>
      </trkpt>
      <trkpt lat="48.20809" lon="-3.90334">
        <ele>106.2</ele>
        <time>2020-06-08T11:00:54Z</time>
      </trkpt>
      <trkpt lat="48.20808" lon="-3.90343">
        <ele>106</ele>
        <time>2020-06-08T11:00:55Z</time>
      </trkpt>
      <trkpt lat="48.20808" lon="-3.90352">
        <ele>105.7</ele>
        <time>2020-06-08T11:00:56Z</time>
      </trkpt>
      <trkpt lat="48.20808" lon="-3.90362">
        <ele>105.5</ele>
        <time>2020-06-08T11:00:57Z</time>
      </trkpt>
      <trkpt lat="48.20807" lon="-3.90372">
        <ele>105.2</ele>
        <time>2020-06-08T11:00:58Z</time>
      </trkpt>
      <trkpt lat="48.20806" lon="-3.90382">
        <ele>105</ele>
        <time>2020-06-08T11:00:59Z</time>
      </trkpt>
      <trkpt lat="48.20805" lon="-3.90393">
        <ele>104.8</ele>
        <time>2020-06-08T11:01:00Z</time>
      </trkpt>
      <trkpt lat="48.20804" lon="-3.90403">
        <ele>104.5</ele>
        <time>2020-06-08T11:01:01Z</time>
      </trkpt>
      <trkpt lat="48.20803" lon="-3.90413">
        <ele>104.5</ele>
        <time>2020-06-08T11:01:02Z</time>
      </trkpt>
      <trkpt lat="48.20801" lon="-3.90423">
        <ele>104.4</ele>
        <time>2020-06-08T11:01:03Z</time>
      </trkpt>
      <trkpt lat="48.208" lon="-3.90433">
        <ele>104.3</ele>
        <time>2020-06-08T11:01:04Z</time>
      </trkpt>
      <trkpt lat="48.208" lon="-3.90443">
        <ele>104.1</ele>
        <time>2020-06-08T11:01:05Z</time>
      </trkpt>
      <trkpt lat="48.208" lon="-3.90452">
        <ele>103.9</ele>
        <time>2020-06-08T11:01:06Z</time>
      </trkpt>
      <trkpt lat="48.20798" lon="-3.90462">
        <ele>103.7</ele>
        <time>2020-06-08T11:01:07Z</time>
      </trkpt>
      <trkpt lat="48.20797" lon="-3.90471">
        <ele>103.5</ele>
        <time>2020-06-08T11:01:08Z</time>
      </trkpt>
      <trkpt lat="48.20797" lon="-3.9048">
        <ele>103.4</ele>
        <time>2020-06-08T11:01:09Z</time>
      </trkpt>
      <trkpt lat="48.20796" lon="-3.90489">
        <ele>103.3</ele>
        <time>2020-06-08T11:01:10Z</time>
      </trkpt>
      <trkpt lat="48.20795" lon="-3.90499">
        <ele>103.1</ele>
        <time>2020-06-08T11:01:11Z</time>
      </trkpt>
      <trkpt lat="48.20795" lon="-3.90508">
        <ele>103</ele>
        <time>2020-06-08T11:01:12Z</time>
      </trkpt>
      <trkpt lat="48.20794" lon="-3.90517">
        <ele>102.9</ele>
        <time>2020-06-08T11:01:13Z</time>
      </trkpt>
      <trkpt lat="48.20794" lon="-3.90527">
        <ele>102.8</ele>
        <time>2020-06-08T11:01:14Z</time>
      </trkpt>
      <trkpt lat="48.20793" lon="-3.90536">
        <ele>102.7</ele>
        <time>2020-06-08T11:01:15Z</time>
      </trkpt>
      <trkpt lat="48.20792" lon="-3.90546">
        <ele>102.6</ele>
        <time>2020-06-08T11:01:16Z</time>
      </trkpt>
      <trkpt lat="48.20791" lon="-3.90555">
        <ele>102.4</ele>
        <time>2020-06-08T11:01:17Z</time>
      </trkpt>
      <trkpt lat="48.2079" lon="-3.90564">
        <ele>102.3</ele>
        <time>2020-06-08T11:01:18Z</time>
      </trkpt>
      <trkpt lat="48.20789" lon="-3.90574">
        <ele>102.2</ele>
        <time>2020-06-08T11:01:19Z</time>
      </trkpt>
      <trkpt lat="48.20789" lon="-3.90583">
        <ele>102.1</ele>
        <time>2020-06-08T11:01:20Z</time>
      </trkpt>
      <trkpt lat="48.20788" lon="-3.90592">
        <ele>102</ele>
        <time>2020-06-08T11:01:21Z</time>
      </trkpt>
      <trkpt lat="48.20787" lon="-3.90601">
        <ele>101.8</ele>
        <time>2020-06-08T11:01:22Z</time>
      </trkpt>
      <trkpt lat="48.20787" lon="-3.9061">
        <ele>101.7</ele>
        <time>2020-06-08T11:01:23Z</time>
      </trkpt>
      <trkpt lat="48.20786" lon="-3.9062">
        <ele>101.6</ele>
        <time>2020-06-08T11:01:24Z</time>
      </trkpt>
      <trkpt lat="48.20786" lon="-3.90629">
        <ele>101.5</ele>
        <time>2020-06-08T11:01:25Z</time>
      </trkpt>
      <trkpt lat="48.20786" lon="-3.90638">
        <ele>101.4</ele>
        <time>2020-06-08T11:01:26Z</time>
      </trkpt>
      <trkpt lat="48.20785" lon="-3.90647">
        <ele>101.3</ele>
        <time>2020-06-08T11:01:27Z</time>
      </trkpt>
      <trkpt lat="48.20785" lon="-3.90656">
        <ele>101.2</ele>
        <time>2020-06-08T11:01:28Z</time>
      </trkpt>
      <trkpt lat="48.20784" lon="-3.90665">
        <ele>101.2</ele>
        <time>2020-06-08T11:01:29Z</time>
      </trkpt>
      <trkpt lat="48.20783" lon="-3.90674">
        <ele>101.1</ele>
        <time>2020-06-08T11:01:30Z</time>
      </trkpt>
      <trkpt lat="48.20782" lon="-3.90683">
        <ele>101.1</ele>
        <time>2020-06-08T11:01:31Z</time>
      </trkpt>
      <trkpt lat="48.2078" lon="-3.90691">
        <ele>101.1</ele>
        <time>2020-06-08T11:01:32Z</time>
      </trkpt>
      <trkpt lat="48.2078" lon="-3.907">
        <ele>101.1</ele>
        <time>2020-06-08T11:01:33Z</time>
      </trkpt>
      <trkpt lat="48.20779" lon="-3.9071">
        <ele>101.1</ele>
        <time>2020-06-08T11:01:34Z</time>
      </trkpt>
      <trkpt lat="48.20779" lon="-3.90719">
        <ele>101.1</ele>
        <time>2020-06-08T11:01:35Z</time>
      </trkpt>
      <trkpt lat="48.20779" lon="-3.90728">
        <ele>101.1</ele>
        <time>2020-06-08T11:01:36Z</time>
      </trkpt>
      <trkpt lat="48.20779" lon="-3.90737">
        <ele>101.1</ele>
        <time>2020-06-08T11:01:37Z</time>
      </trkpt>
      <trkpt lat="48.20779" lon="-3.90746">
        <ele>101.1</ele>
        <time>2020-06-08T11:01:38Z</time>
      </trkpt>
      <trkpt lat="48.20779" lon="-3.90755">
        <ele>101.2</ele>
        <time>2020-06-08T11:01:39Z</time>
      </trkpt>
      <trkpt lat="48.20779" lon="-3.90764">
        <ele>101.2</ele>
        <time>2020-06-08T11:01:40Z</time>
      </trkpt>
      <trkpt lat="48.20779" lon="-3.90773">
        <ele>101.3</ele>
        <time>2020-06-08T11:01:41Z</time>
      </trkpt>
      <trkpt lat="48.20779" lon="-3.90782">
        <ele>101.4</ele>
        <time>2020-06-08T11:01:42Z</time>
      </trkpt>
      <trkpt lat="48.20778" lon="-3.90791">
        <ele>101.5</ele>
        <time>2020-06-08T11:01:43Z</time>
      </trkpt>
      <trkpt lat="48.20778" lon="-3.90801">
        <ele>101.6</ele>
        <time>2020-06-08T11:01:44Z</time>
      </trkpt>
      <trkpt lat="48.20779" lon="-3.90809">
        <ele>101.8</ele>
        <time>2020-06-08T11:01:45Z</time>
      </trkpt>
      <trkpt lat="48.20778" lon="-3.90818">
        <ele>101.8</ele>
        <time>2020-06-08T11:01:46Z</time>
      </trkpt>
      <trkpt lat="48.20779" lon="-3.90827">
        <ele>101.9</ele>
        <time>2020-06-08T11:01:47Z</time>
      </trkpt>
      <trkpt lat="48.20779" lon="-3.90836">
        <ele>101.9</ele>
        <time>2020-06-08T11:01:48Z</time>
      </trkpt>
      <trkpt lat="48.2078" lon="-3.90844">
        <ele>101.9</ele>
        <time>2020-06-08T11:01:49Z</time>
      </trkpt>
      <trkpt lat="48.20779" lon="-3.90854">
        <ele>102</ele>
        <time>2020-06-08T11:01:50Z</time>
      </trkpt>
      <trkpt lat="48.20779" lon="-3.90863">
        <ele>102</ele>
        <time>2020-06-08T11:01:51Z</time>
      </trkpt>
      <trkpt lat="48.2078" lon="-3.90872">
        <ele>102.1</ele>
        <time>2020-06-08T11:01:52Z</time>
      </trkpt>
      <trkpt lat="48.20781" lon="-3.90881">
        <ele>102.1</ele>
        <time>2020-06-08T11:01:53Z</time>
      </trkpt>
      <trkpt lat="48.20781" lon="-3.9089">
        <ele>102.2</ele>
        <time>2020-06-08T11:01:54Z</time>
      </trkpt>
      <trkpt lat="48.20782" lon="-3.909">
        <ele>102.3</ele>
        <time>2020-06-08T11:01:55Z</time>
      </trkpt>
      <trkpt lat="48.20782" lon="-3.90909">
        <ele>102.3</ele>
        <time>2020-06-08T11:01:56Z</time>
      </trkpt>
      <trkpt lat="48.20782" lon="-3.90918">
        <ele>102.3</ele>
        <time>2020-06-08T11:01:57Z</time>
      </trkpt>
      <trkpt lat="48.20782" lon="-3.90925">
        <ele>102.3</ele>
        <time>2020-06-08T11:01:58Z</time>
      </trkpt>
      <trkpt lat="48.20782" lon="-3.90933">
        <ele>102.3</ele>
        <time>2020-06-08T11:01:59Z</time>
      </trkpt>
      <trkpt lat="48.20782" lon="-3.90943">
        <ele>102.2</ele>
        <time>2020-06-08T11:02:00Z</time>
      </trkpt>
      <trkpt lat="48.20783" lon="-3.90951">
        <ele>102.2</ele>
        <time>2020-06-08T11:02:01Z</time>
      </trkpt>
      <trkpt lat="48.20784" lon="-3.90956">
        <ele>102.1</ele>
        <time>2020-06-08T11:02:02Z</time>
      </trkpt>
      <trkpt lat="48.20785" lon="-3.90965">
        <ele>102.1</ele>
        <time>2020-06-08T11:02:03Z</time>
      </trkpt>
      <trkpt lat="48.20786" lon="-3.90974">
        <ele>102</ele>
        <time>2020-06-08T11:02:04Z</time>
      </trkpt>
      <trkpt lat="48.20786" lon="-3.90984">
        <ele>101.9</ele>
        <time>2020-06-08T11:02:05Z</time>
      </trkpt>
      <trkpt lat="48.20788" lon="-3.90993">
        <ele>101.9</ele>
        <time>2020-06-08T11:02:06Z</time>
      </trkpt>
      <trkpt lat="48.20788" lon="-3.91003">
        <ele>101.8</ele>
        <time>2020-06-08T11:02:07Z</time>
      </trkpt>
      <trkpt lat="48.20788" lon="-3.91011">
        <ele>101.8</ele>
        <time>2020-06-08T11:02:08Z</time>
      </trkpt>
      <trkpt lat="48.20788" lon="-3.91021">
        <ele>101.8</ele>
        <time>2020-06-08T11:02:09Z</time>
      </trkpt>
      <trkpt lat="48.20787" lon="-3.91029">
        <ele>101.7</ele>
        <time>2020-06-08T11:02:10Z</time>
      </trkpt>
      <trkpt lat="48.20786" lon="-3.91037">
        <ele>101.7</ele>
        <time>2020-06-08T11:02:11Z</time>
      </trkpt>
      <trkpt lat="48.20786" lon="-3.91046">
        <ele>101.6</ele>
        <time>2020-06-08T11:02:12Z</time>
      </trkpt>
      <trkpt lat="48.20785" lon="-3.91055">
        <ele>101.6</ele>
        <time>2020-06-08T11:02:13Z</time>
      </trkpt>
      <trkpt lat="48.20784" lon="-3.91063">
        <ele>101.5</ele>
        <time>2020-06-08T11:02:14Z</time>
      </trkpt>
      <trkpt lat="48.20784" lon="-3.91073">
        <ele>101.5</ele>
        <time>2020-06-08T11:02:15Z</time>
      </trkpt>
      <trkpt lat="48.20784" lon="-3.91083">
        <ele>101.4</ele>
        <time>2020-06-08T11:02:16Z</time>
      </trkpt>
      <trkpt lat="48.20783" lon="-3.91092">
        <ele>101.4</ele>
        <time>2020-06-08T11:02:17Z</time>
      </trkpt>
      <trkpt lat="48.20783" lon="-3.91101">
        <ele>101.4</ele>
        <time>2020-06-08T11:02:18Z</time>
      </trkpt>
      <trkpt lat="48.20782" lon="-3.91111">
        <ele>101.4</ele>
        <time>2020-06-08T11:02:19Z</time>
      </trkpt>
      <trkpt lat="48.20782" lon="-3.9112">
        <ele>101.4</ele>
        <time>2020-06-08T11:02:20Z</time>
      </trkpt>
      <trkpt lat="48.20781" lon="-3.91131">
        <ele>101.4</ele>
        <time>2020-06-08T11:02:21Z</time>
      </trkpt>
      <trkpt lat="48.20781" lon="-3.9114">
        <ele>101.4</ele>
        <time>2020-06-08T11:02:22Z</time>
      </trkpt>
      <trkpt lat="48.2078" lon="-3.91149">
        <ele>101.5</ele>
        <time>2020-06-08T11:02:23Z</time>
      </trkpt>
      <trkpt lat="48.20779" lon="-3.91159">
        <ele>101.6</ele>
        <time>2020-06-08T11:02:24Z</time>
      </trkpt>
      <trkpt lat="48.20779" lon="-3.91168">
        <ele>101.7</ele>
        <time>2020-06-08T11:02:25Z</time>
      </trkpt>
      <trkpt lat="48.20779" lon="-3.91178">
        <ele>101.9</ele>
        <time>2020-06-08T11:02:26Z</time>
      </trkpt>
      <trkpt lat="48.20779" lon="-3.91187">
        <ele>102</ele>
        <time>2020-06-08T11:02:27Z</time>
      </trkpt>
      <trkpt lat="48.20778" lon="-3.91197">
        <ele>102.1</ele>
        <time>2020-06-08T11:02:28Z</time>
      </trkpt>
      <trkpt lat="48.20777" lon="-3.91206">
        <ele>102.2</ele>
        <time>2020-06-08T11:02:29Z</time>
      </trkpt>
      <trkpt lat="48.20776" lon="-3.91214">
        <ele>102.3</ele>
        <time>2020-06-08T11:02:30Z</time>
      </trkpt>
      <trkpt lat="48.20775" lon="-3.91221">
        <ele>102.4</ele>
        <time>2020-06-08T11:02:31Z</time>
      </trkpt>
      <trkpt lat="48.20774" lon="-3.91228">
        <ele>102.5</ele>
        <time>2020-06-08T11:02:32Z</time>
      </trkpt>
      <trkpt lat="48.20773" lon="-3.91235">
        <ele>102.6</ele>
        <time>2020-06-08T11:02:33Z</time>
      </trkpt>
      <trkpt lat="48.20772" lon="-3.91242">
        <ele>102.8</ele>
        <time>2020-06-08T11:02:34Z</time>
      </trkpt>
      <trkpt lat="48.20772" lon="-3.91249">
        <ele>102.9</ele>
        <time>2020-06-08T11:02:35Z</time>
      </trkpt>
      <trkpt lat="48.20771" lon="-3.91255">
        <ele>103</ele>
        <time>2020-06-08T11:02:36Z</time>
      </trkpt>
      <trkpt lat="48.20771" lon="-3.91261">
        <ele>103.2</ele>
        <time>2020-06-08T11:02:37Z</time>
      </trkpt>
      <trkpt lat="48.2077" lon="-3.91268">
        <ele>103.3</ele>
        <time>2020-06-08T11:02:38Z</time>
      </trkpt>
      <trkpt lat="48.20768" lon="-3.91277">
        <ele>103.5</ele>
        <time>2020-06-08T11:02:39Z</time>
      </trkpt>
      <trkpt lat="48.20767" lon="-3.91285">
        <ele>103.7</ele>
        <time>2020-06-08T11:02:40Z</time>
      </trkpt>
      <trkpt lat="48.20765" lon="-3.91292">
        <ele>103.9</ele>
        <time>2020-06-08T11:02:41Z</time>
      </trkpt>
      <trkpt lat="48.20764" lon="-3.91299">
        <ele>104.1</ele>
        <time>2020-06-08T11:02:42Z</time>
      </trkpt>
      <trkpt lat="48.20762" lon="-3.91305">
        <ele>104.2</ele>
        <time>2020-06-08T11:02:43Z</time>
      </trkpt>
      <trkpt lat="48.20761" lon="-3.91311">
        <ele>104.3</ele>
        <time>2020-06-08T11:02:44Z</time>
      </trkpt>
      <trkpt lat="48.2076" lon="-3.91318">
        <ele>104.5</ele>
        <time>2020-06-08T11:02:45Z</time>
      </trkpt>
      <trkpt lat="48.20759" lon="-3.91325">
        <ele>104.6</ele>
        <time>2020-06-08T11:02:46Z</time>
      </trkpt>
      <trkpt lat="48.20758" lon="-3.91332">
        <ele>104.7</ele>
        <time>2020-06-08T11:02:47Z</time>
      </trkpt>
      <trkpt lat="48.20756" lon="-3.91338">
        <ele>104.8</ele>
        <time>2020-06-08T11:02:48Z</time>
      </trkpt>
      <trkpt lat="48.20754" lon="-3.91345">
        <ele>104.9</ele>
        <time>2020-06-08T11:02:49Z</time>
      </trkpt>
      <trkpt lat="48.20752" lon="-3.91353">
        <ele>105</ele>
        <time>2020-06-08T11:02:50Z</time>
      </trkpt>
      <trkpt lat="48.20751" lon="-3.9136">
        <ele>105.1</ele>
        <time>2020-06-08T11:02:51Z</time>
      </trkpt>
      <trkpt lat="48.2075" lon="-3.91367">
        <ele>105.2</ele>
        <time>2020-06-08T11:02:52Z</time>
      </trkpt>
      <trkpt lat="48.20748" lon="-3.91374">
        <ele>105.2</ele>
        <time>2020-06-08T11:02:53Z</time>
      </trkpt>
      <trkpt lat="48.20747" lon="-3.91379">
        <ele>105.2</ele>
        <time>2020-06-08T11:02:54Z</time>
      </trkpt>
      <trkpt lat="48.20746" lon="-3.91385">
        <ele>105.2</ele>
        <time>2020-06-08T11:02:55Z</time>
      </trkpt>
      <trkpt lat="48.20745" lon="-3.91391">
        <ele>105.2</ele>
        <time>2020-06-08T11:02:56Z</time>
      </trkpt>
      <trkpt lat="48.20744" lon="-3.91396">
        <ele>105.1</ele>
        <time>2020-06-08T11:02:57Z</time>
      </trkpt>
      <trkpt lat="48.20743" lon="-3.91402">
        <ele>105</ele>
        <time>2020-06-08T11:02:58Z</time>
      </trkpt>
      <trkpt lat="48.20742" lon="-3.91408">
        <ele>105</ele>
        <time>2020-06-08T11:02:59Z</time>
      </trkpt>
      <trkpt lat="48.20741" lon="-3.91414">
        <ele>104.9</ele>
        <time>2020-06-08T11:03:00Z</time>
      </trkpt>
      <trkpt lat="48.2074" lon="-3.91421">
        <ele>104.8</ele>
        <time>2020-06-08T11:03:01Z</time>
      </trkpt>
      <trkpt lat="48.2074" lon="-3.91428">
        <ele>104.7</ele>
        <time>2020-06-08T11:03:02Z</time>
      </trkpt>
      <trkpt lat="48.20738" lon="-3.91435">
        <ele>104.5</ele>
        <time>2020-06-08T11:03:03Z</time>
      </trkpt>
      <trkpt lat="48.20737" lon="-3.91441">
        <ele>104.4</ele>
        <time>2020-06-08T11:03:04Z</time>
      </trkpt>
      <trkpt lat="48.20736" lon="-3.91448">
        <ele>104.3</ele>
        <time>2020-06-08T11:03:05Z</time>
      </trkpt>
      <trkpt lat="48.20735" lon="-3.91455">
        <ele>104.1</ele>
        <time>2020-06-08T11:03:06Z</time>
      </trkpt>
      <trkpt lat="48.20734" lon="-3.91463">
        <ele>104</ele>
        <time>2020-06-08T11:03:07Z</time>
      </trkpt>
      <trkpt lat="48.20732" lon="-3.91471">
        <ele>103.8</ele>
        <time>2020-06-08T11:03:08Z</time>
      </trkpt>
      <trkpt lat="48.20729" lon="-3.91479">
        <ele>103.6</ele>
        <time>2020-06-08T11:03:09Z</time>
      </trkpt>
      <trkpt lat="48.20727" lon="-3.91487">
        <ele>103.4</ele>
        <time>2020-06-08T11:03:10Z</time>
      </trkpt>
      <trkpt lat="48.20726" lon="-3.91496">
        <ele>103.1</ele>
        <time>2020-06-08T11:03:11Z</time>
      </trkpt>
      <trkpt lat="48.20725" lon="-3.91506">
        <ele>102.9</ele>
        <time>2020-06-08T11:03:12Z</time>
      </trkpt>
      <trkpt lat="48.20724" lon="-3.91515">
        <ele>102.6</ele>
        <time>2020-06-08T11:03:13Z</time>
      </trkpt>
      <trkpt lat="48.20723" lon="-3.91523">
        <ele>102.4</ele>
        <time>2020-06-08T11:03:14Z</time>
      </trkpt>
      <trkpt lat="48.20722" lon="-3.91533">
        <ele>102.1</ele>
        <time>2020-06-08T11:03:15Z</time>
      </trkpt>
      <trkpt lat="48.2072" lon="-3.91543">
        <ele>101.9</ele>
        <time>2020-06-08T11:03:16Z</time>
      </trkpt>
      <trkpt lat="48.20719" lon="-3.91552">
        <ele>101.6</ele>
        <time>2020-06-08T11:03:17Z</time>
      </trkpt>
      <trkpt lat="48.20717" lon="-3.91563">
        <ele>101.3</ele>
        <time>2020-06-08T11:03:18Z</time>
      </trkpt>
      <trkpt lat="48.20716" lon="-3.91574">
        <ele>100.9</ele>
        <time>2020-06-08T11:03:19Z</time>
      </trkpt>
      <trkpt lat="48.20714" lon="-3.91586">
        <ele>100.5</ele>
        <time>2020-06-08T11:03:20Z</time>
      </trkpt>
      <trkpt lat="48.20712" lon="-3.91598">
        <ele>100.2</ele>
        <time>2020-06-08T11:03:21Z</time>
      </trkpt>
      <trkpt lat="48.20711" lon="-3.91608">
        <ele>99.8</ele>
        <time>2020-06-08T11:03:22Z</time>
      </trkpt>
      <trkpt lat="48.20708" lon="-3.91618">
        <ele>99.5</ele>
        <time>2020-06-08T11:03:23Z</time>
      </trkpt>
      <trkpt lat="48.20707" lon="-3.91628">
        <ele>99.2</ele>
        <time>2020-06-08T11:03:24Z</time>
      </trkpt>
      <trkpt lat="48.20704" lon="-3.9164">
        <ele>98.9</ele>
        <time>2020-06-08T11:03:25Z</time>
      </trkpt>
      <trkpt lat="48.20702" lon="-3.91652">
        <ele>98.5</ele>
        <time>2020-06-08T11:03:26Z</time>
      </trkpt>
      <trkpt lat="48.207" lon="-3.91663">
        <ele>98.2</ele>
        <time>2020-06-08T11:03:27Z</time>
      </trkpt>
      <trkpt lat="48.20698" lon="-3.91675">
        <ele>97.8</ele>
        <time>2020-06-08T11:03:28Z</time>
      </trkpt>
      <trkpt lat="48.20696" lon="-3.91687">
        <ele>97.4</ele>
        <time>2020-06-08T11:03:29Z</time>
      </trkpt>
      <trkpt lat="48.20694" lon="-3.91698">
        <ele>96.9</ele>
        <time>2020-06-08T11:03:30Z</time>
      </trkpt>
      <trkpt lat="48.20692" lon="-3.9171">
        <ele>96.2</ele>
        <time>2020-06-08T11:03:31Z</time>
      </trkpt>
      <trkpt lat="48.20691" lon="-3.91722">
        <ele>95.6</ele>
        <time>2020-06-08T11:03:32Z</time>
      </trkpt>
      <trkpt lat="48.2069" lon="-3.91733">
        <ele>95.1</ele>
        <time>2020-06-08T11:03:33Z</time>
      </trkpt>
      <trkpt lat="48.2069" lon="-3.91746">
        <ele>94.6</ele>
        <time>2020-06-08T11:03:34Z</time>
      </trkpt>
      <trkpt lat="48.2069" lon="-3.91758">
        <ele>94.1</ele>
        <time>2020-06-08T11:03:35Z</time>
      </trkpt>
      <trkpt lat="48.20692" lon="-3.9177">
        <ele>93.6</ele>
        <time>2020-06-08T11:03:36Z</time>
      </trkpt>
      <trkpt lat="48.20693" lon="-3.91782">
        <ele>93.2</ele>
        <time>2020-06-08T11:03:37Z</time>
      </trkpt>
      <trkpt lat="48.20696" lon="-3.91794">
        <ele>92.7</ele>
        <time>2020-06-08T11:03:38Z</time>
      </trkpt>
      <trkpt lat="48.20698" lon="-3.91805">
        <ele>92.3</ele>
        <time>2020-06-08T11:03:39Z</time>
      </trkpt>
      <trkpt lat="48.20701" lon="-3.91817">
        <ele>91.8</ele>
        <time>2020-06-08T11:03:40Z</time>
      </trkpt>
      <trkpt lat="48.20704" lon="-3.91829">
        <ele>91.4</ele>
        <time>2020-06-08T11:03:41Z</time>
      </trkpt>
      <trkpt lat="48.20707" lon="-3.91841">
        <ele>90.9</ele>
        <time>2020-06-08T11:03:42Z</time>
      </trkpt>
      <trkpt lat="48.20709" lon="-3.91853">
        <ele>90.5</ele>
        <time>2020-06-08T11:03:43Z</time>
      </trkpt>
      <trkpt lat="48.20712" lon="-3.91866">
        <ele>90</ele>
        <time>2020-06-08T11:03:44Z</time>
      </trkpt>
      <trkpt lat="48.20714" lon="-3.91878">
        <ele>89.5</ele>
        <time>2020-06-08T11:03:45Z</time>
      </trkpt>
      <trkpt lat="48.20717" lon="-3.9189">
        <ele>89</ele>
        <time>2020-06-08T11:03:46Z</time>
      </trkpt>
      <trkpt lat="48.20721" lon="-3.91902">
        <ele>88.6</ele>
        <time>2020-06-08T11:03:47Z</time>
      </trkpt>
      <trkpt lat="48.20724" lon="-3.91914">
        <ele>88.1</ele>
        <time>2020-06-08T11:03:48Z</time>
      </trkpt>
      <trkpt lat="48.20727" lon="-3.91926">
        <ele>87.7</ele>
        <time>2020-06-08T11:03:49Z</time>
      </trkpt>
      <trkpt lat="48.2073" lon="-3.91938">
        <ele>87.2</ele>
        <time>2020-06-08T11:03:50Z</time>
      </trkpt>
      <trkpt lat="48.20733" lon="-3.9195">
        <ele>86.7</ele>
        <time>2020-06-08T11:03:51Z</time>
      </trkpt>
      <trkpt lat="48.20737" lon="-3.91962">
        <ele>86.2</ele>
        <time>2020-06-08T11:03:52Z</time>
      </trkpt>
      <trkpt lat="48.2074" lon="-3.91974">
        <ele>85.7</ele>
        <time>2020-06-08T11:03:53Z</time>
      </trkpt>
      <trkpt lat="48.20744" lon="-3.91986">
        <ele>85.3</ele>
        <time>2020-06-08T11:03:54Z</time>
      </trkpt>
      <trkpt lat="48.20748" lon="-3.91998">
        <ele>84.8</ele>
        <time>2020-06-08T11:03:55Z</time>
      </trkpt>
      <trkpt lat="48.20752" lon="-3.9201">
        <ele>84.3</ele>
        <time>2020-06-08T11:03:56Z</time>
      </trkpt>
      <trkpt lat="48.20756" lon="-3.92021">
        <ele>83.8</ele>
        <time>2020-06-08T11:03:57Z</time>
      </trkpt>
      <trkpt lat="48.2076" lon="-3.92033">
        <ele>83.4</ele>
        <time>2020-06-08T11:03:58Z</time>
      </trkpt>
      <trkpt lat="48.20763" lon="-3.92045">
        <ele>82.9</ele>
        <time>2020-06-08T11:03:59Z</time>
      </trkpt>
      <trkpt lat="48.20767" lon="-3.92056">
        <ele>82.5</ele>
        <time>2020-06-08T11:04:00Z</time>
      </trkpt>
      <trkpt lat="48.20771" lon="-3.92068">
        <ele>82</ele>
        <time>2020-06-08T11:04:01Z</time>
      </trkpt>
      <trkpt lat="48.20774" lon="-3.9208">
        <ele>81.5</ele>
        <time>2020-06-08T11:04:02Z</time>
      </trkpt>
      <trkpt lat="48.20778" lon="-3.92092">
        <ele>81.1</ele>
        <time>2020-06-08T11:04:03Z</time>
      </trkpt>
      <trkpt lat="48.20782" lon="-3.92103">
        <ele>80.6</ele>
        <time>2020-06-08T11:04:04Z</time>
      </trkpt>
      <trkpt lat="48.20786" lon="-3.92115">
        <ele>80.2</ele>
        <time>2020-06-08T11:04:05Z</time>
      </trkpt>
      <trkpt lat="48.20792" lon="-3.92125">
        <ele>79.8</ele>
        <time>2020-06-08T11:04:06Z</time>
      </trkpt>
      <trkpt lat="48.20798" lon="-3.92135">
        <ele>79.4</ele>
        <time>2020-06-08T11:04:07Z</time>
      </trkpt>
      <trkpt lat="48.20804" lon="-3.92144">
        <ele>79</ele>
        <time>2020-06-08T11:04:08Z</time>
      </trkpt>
      <trkpt lat="48.20811" lon="-3.92153">
        <ele>78.5</ele>
        <time>2020-06-08T11:04:09Z</time>
      </trkpt>
      <trkpt lat="48.20818" lon="-3.9216">
        <ele>78</ele>
        <time>2020-06-08T11:04:10Z</time>
      </trkpt>
      <trkpt lat="48.20825" lon="-3.92166">
        <ele>77.6</ele>
        <time>2020-06-08T11:04:11Z</time>
      </trkpt>
      <trkpt lat="48.20833" lon="-3.92172">
        <ele>77</ele>
        <time>2020-06-08T11:04:12Z</time>
      </trkpt>
      <trkpt lat="48.20841" lon="-3.92177">
        <ele>76.5</ele>
        <time>2020-06-08T11:04:13Z</time>
      </trkpt>
      <trkpt lat="48.20849" lon="-3.92182">
        <ele>75.9</ele>
        <time>2020-06-08T11:04:14Z</time>
      </trkpt>
      <trkpt lat="48.20856" lon="-3.92189">
        <ele>75.4</ele>
        <time>2020-06-08T11:04:15Z</time>
      </trkpt>
      <trkpt lat="48.20862" lon="-3.92197">
        <ele>74.9</ele>
        <time>2020-06-08T11:04:16Z</time>
      </trkpt>
      <trkpt lat="48.20869" lon="-3.92206">
        <ele>74.3</ele>
        <time>2020-06-08T11:04:17Z</time>
      </trkpt>
      <trkpt lat="48.20875" lon="-3.92216">
        <ele>73.7</ele>
        <time>2020-06-08T11:04:18Z</time>
      </trkpt>
      <trkpt lat="48.2088" lon="-3.92228">
        <ele>73.1</ele>
        <time>2020-06-08T11:04:19Z</time>
      </trkpt>
      <trkpt lat="48.20886" lon="-3.9224">
        <ele>72.5</ele>
        <time>2020-06-08T11:04:20Z</time>
      </trkpt>
      <trkpt lat="48.2089" lon="-3.92253">
        <ele>72.1</ele>
        <time>2020-06-08T11:04:21Z</time>
      </trkpt>
      <trkpt lat="48.20894" lon="-3.92267">
        <ele>71.7</ele>
        <time>2020-06-08T11:04:22Z</time>
      </trkpt>
      <trkpt lat="48.20898" lon="-3.9228">
        <ele>71.3</ele>
        <time>2020-06-08T11:04:23Z</time>
      </trkpt>
      <trkpt lat="48.209" lon="-3.92293">
        <ele>71.1</ele>
        <time>2020-06-08T11:04:24Z</time>
      </trkpt>
      <trkpt lat="48.20901" lon="-3.92307">
        <ele>70.9</ele>
        <time>2020-06-08T11:04:25Z</time>
      </trkpt>
      <trkpt lat="48.20902" lon="-3.9232">
        <ele>70.8</ele>
        <time>2020-06-08T11:04:26Z</time>
      </trkpt>
      <trkpt lat="48.20903" lon="-3.92333">
        <ele>70.7</ele>
        <time>2020-06-08T11:04:27Z</time>
      </trkpt>
      <trkpt lat="48.20904" lon="-3.92345">
        <ele>70.7</ele>
        <time>2020-06-08T11:04:28Z</time>
      </trkpt>
      <trkpt lat="48.20905" lon="-3.92357">
        <ele>70.6</ele>
        <time>2020-06-08T11:04:29Z</time>
      </trkpt>
      <trkpt lat="48.20906" lon="-3.92369">
        <ele>70.6</ele>
        <time>2020-06-08T11:04:30Z</time>
      </trkpt>
      <trkpt lat="48.20907" lon="-3.92381">
        <ele>70.6</ele>
        <time>2020-06-08T11:04:31Z</time>
      </trkpt>
      <trkpt lat="48.20909" lon="-3.92393">
        <ele>70.6</ele>
        <time>2020-06-08T11:04:32Z</time>
      </trkpt>
      <trkpt lat="48.2091" lon="-3.92405">
        <ele>70.6</ele>
        <time>2020-06-08T11:04:33Z</time>
      </trkpt>
      <trkpt lat="48.20911" lon="-3.92418">
        <ele>70.6</ele>
        <time>2020-06-08T11:04:34Z</time>
      </trkpt>
      <trkpt lat="48.20912" lon="-3.92431">
        <ele>70.7</ele>
        <time>2020-06-08T11:04:35Z</time>
      </trkpt>
      <trkpt lat="48.20913" lon="-3.92444">
        <ele>70.9</ele>
        <time>2020-06-08T11:04:36Z</time>
      </trkpt>
      <trkpt lat="48.20914" lon="-3.92456">
        <ele>71.1</ele>
        <time>2020-06-08T11:04:37Z</time>
      </trkpt>
      <trkpt lat="48.20916" lon="-3.92469">
        <ele>71.4</ele>
        <time>2020-06-08T11:04:38Z</time>
      </trkpt>
      <trkpt lat="48.20918" lon="-3.92481">
        <ele>71.8</ele>
        <time>2020-06-08T11:04:39Z</time>
      </trkpt>
      <trkpt lat="48.2092" lon="-3.92492">
        <ele>72.4</ele>
        <time>2020-06-08T11:04:40Z</time>
      </trkpt>
      <trkpt lat="48.20923" lon="-3.92503">
        <ele>73</ele>
        <time>2020-06-08T11:04:41Z</time>
      </trkpt>
      <trkpt lat="48.20926" lon="-3.92513">
        <ele>73.5</ele>
        <time>2020-06-08T11:04:42Z</time>
      </trkpt>
      <trkpt lat="48.20928" lon="-3.92522">
        <ele>73.8</ele>
        <time>2020-06-08T11:04:43Z</time>
      </trkpt>
      <trkpt lat="48.2093" lon="-3.92531">
        <ele>74.1</ele>
        <time>2020-06-08T11:04:44Z</time>
      </trkpt>
      <trkpt lat="48.20933" lon="-3.9254">
        <ele>74.5</ele>
        <time>2020-06-08T11:04:45Z</time>
      </trkpt>
      <trkpt lat="48.20937" lon="-3.92548">
        <ele>74.8</ele>
        <time>2020-06-08T11:04:46Z</time>
      </trkpt>
      <trkpt lat="48.2094" lon="-3.92556">
        <ele>75.2</ele>
        <time>2020-06-08T11:04:47Z</time>
      </trkpt>
      <trkpt lat="48.20943" lon="-3.92563">
        <ele>75.5</ele>
        <time>2020-06-08T11:04:48Z</time>
      </trkpt>
      <trkpt lat="48.20946" lon="-3.92571">
        <ele>76</ele>
        <time>2020-06-08T11:04:49Z</time>
      </trkpt>
      <trkpt lat="48.2095" lon="-3.92577">
        <ele>76.4</ele>
        <time>2020-06-08T11:04:50Z</time>
      </trkpt>
      <trkpt lat="48.20954" lon="-3.92583">
        <ele>76.7</ele>
        <time>2020-06-08T11:04:51Z</time>
      </trkpt>
      <trkpt lat="48.20957" lon="-3.92589">
        <ele>77.1</ele>
        <time>2020-06-08T11:04:52Z</time>
      </trkpt>
      <trkpt lat="48.20961" lon="-3.92595">
        <ele>77.4</ele>
        <time>2020-06-08T11:04:53Z</time>
      </trkpt>
      <trkpt lat="48.20965" lon="-3.92601">
        <ele>77.7</ele>
        <time>2020-06-08T11:04:54Z</time>
      </trkpt>
      <trkpt lat="48.20968" lon="-3.92606">
        <ele>78</ele>
        <time>2020-06-08T11:04:55Z</time>
      </trkpt>
      <trkpt lat="48.20972" lon="-3.92611">
        <ele>78.4</ele>
        <time>2020-06-08T11:04:56Z</time>
      </trkpt>
      <trkpt lat="48.20976" lon="-3.92615">
        <ele>78.7</ele>
        <time>2020-06-08T11:04:57Z</time>
      </trkpt>
      <trkpt lat="48.2098" lon="-3.92619">
        <ele>79.1</ele>
        <time>2020-06-08T11:04:58Z</time>
      </trkpt>
      <trkpt lat="48.20984" lon="-3.92623">
        <ele>79.4</ele>
        <time>2020-06-08T11:04:59Z</time>
      </trkpt>
      <trkpt lat="48.20988" lon="-3.92627">
        <ele>79.7</ele>
        <time>2020-06-08T11:05:00Z</time>
      </trkpt>
      <trkpt lat="48.20991" lon="-3.92631">
        <ele>79.9</ele>
        <time>2020-06-08T11:05:01Z</time>
      </trkpt>
      <trkpt lat="48.20994" lon="-3.92634">
        <ele>80.2</ele>
        <time>2020-06-08T11:05:02Z</time>
      </trkpt>
      <trkpt lat="48.20997" lon="-3.92636">
        <ele>80.4</ele>
        <time>2020-06-08T11:05:03Z</time>
      </trkpt>
      <trkpt lat="48.21" lon="-3.92639">
        <ele>80.7</ele>
        <time>2020-06-08T11:05:04Z</time>
      </trkpt>
      <trkpt lat="48.21003" lon="-3.92643">
        <ele>80.9</ele>
        <time>2020-06-08T11:05:05Z</time>
      </trkpt>
      <trkpt lat="48.21007" lon="-3.92644">
        <ele>81.2</ele>
        <time>2020-06-08T11:05:06Z</time>
      </trkpt>
      <trkpt lat="48.21011" lon="-3.92646">
        <ele>81.4</ele>
        <time>2020-06-08T11:05:07Z</time>
      </trkpt>
      <trkpt lat="48.21014" lon="-3.92648">
        <ele>81.6</ele>
        <time>2020-06-08T11:05:08Z</time>
      </trkpt>
      <trkpt lat="48.21018" lon="-3.92651">
        <ele>81.9</ele>
        <time>2020-06-08T11:05:09Z</time>
      </trkpt>
      <trkpt lat="48.21022" lon="-3.92654">
        <ele>82.2</ele>
        <time>2020-06-08T11:05:10Z</time>
      </trkpt>
      <trkpt lat="48.21027" lon="-3.92657">
        <ele>82.4</ele>
        <time>2020-06-08T11:05:11Z</time>
      </trkpt>
      <trkpt lat="48.2103" lon="-3.92659">
        <ele>82.6</ele>
        <time>2020-06-08T11:05:12Z</time>
      </trkpt>
      <trkpt lat="48.21034" lon="-3.92663">
        <ele>82.9</ele>
        <time>2020-06-08T11:05:13Z</time>
      </trkpt>
      <trkpt lat="48.21037" lon="-3.92665">
        <ele>83.1</ele>
        <time>2020-06-08T11:05:14Z</time>
      </trkpt>
      <trkpt lat="48.21041" lon="-3.92667">
        <ele>83.3</ele>
        <time>2020-06-08T11:05:15Z</time>
      </trkpt>
      <trkpt lat="48.21044" lon="-3.9267">
        <ele>83.5</ele>
        <time>2020-06-08T11:05:16Z</time>
      </trkpt>
      <trkpt lat="48.21047" lon="-3.92674">
        <ele>83.7</ele>
        <time>2020-06-08T11:05:17Z</time>
      </trkpt>
      <trkpt lat="48.2105" lon="-3.92675">
        <ele>83.8</ele>
        <time>2020-06-08T11:05:18Z</time>
      </trkpt>
      <trkpt lat="48.21053" lon="-3.92677">
        <ele>84</ele>
        <time>2020-06-08T11:05:19Z</time>
      </trkpt>
      <trkpt lat="48.21056" lon="-3.92679">
        <ele>84.1</ele>
        <time>2020-06-08T11:05:20Z</time>
      </trkpt>
      <trkpt lat="48.21059" lon="-3.92682">
        <ele>84.4</ele>
        <time>2020-06-08T11:05:21Z</time>
      </trkpt>
      <trkpt lat="48.21062" lon="-3.92684">
        <ele>84.5</ele>
        <time>2020-06-08T11:05:22Z</time>
      </trkpt>
      <trkpt lat="48.21065" lon="-3.92686">
        <ele>84.7</ele>
        <time>2020-06-08T11:05:23Z</time>
      </trkpt>
      <trkpt lat="48.21068" lon="-3.92688">
        <ele>84.9</ele>
        <time>2020-06-08T11:05:24Z</time>
      </trkpt>
      <trkpt lat="48.21071" lon="-3.9269">
        <ele>85</ele>
        <time>2020-06-08T11:05:25Z</time>
      </trkpt>
      <trkpt lat="48.21075" lon="-3.92691">
        <ele>85.2</ele>
        <time>2020-06-08T11:05:26Z</time>
      </trkpt>
      <trkpt lat="48.21076" lon="-3.92691">
        <ele>85.3</ele>
        <time>2020-06-08T11:05:27Z</time>
      </trkpt>
      <trkpt lat="48.21077" lon="-3.92692">
        <ele>85.4</ele>
        <time>2020-06-08T11:05:28Z</time>
      </trkpt>
      <trkpt lat="48.21079" lon="-3.92692">
        <ele>85.5</ele>
        <time>2020-06-08T11:05:29Z</time>
      </trkpt>
      <trkpt lat="48.21083" lon="-3.92694">
        <ele>85.7</ele>
        <time>2020-06-08T11:05:30Z</time>
      </trkpt>
      <trkpt lat="48.21084" lon="-3.92694">
        <ele>85.8</ele>
        <time>2020-06-08T11:05:31Z</time>
      </trkpt>
      <trkpt lat="48.21087" lon="-3.92697">
        <ele>86</ele>
        <time>2020-06-08T11:05:32Z</time>
      </trkpt>
      <trkpt lat="48.21088" lon="-3.92698">
        <ele>86</ele>
        <time>2020-06-08T11:05:33Z</time>
      </trkpt>
      <trkpt lat="48.21091" lon="-3.927">
        <ele>86.2</ele>
        <time>2020-06-08T11:05:34Z</time>
      </trkpt>
      <trkpt lat="48.21092" lon="-3.92701">
        <ele>86.2</ele>
        <time>2020-06-08T11:05:35Z</time>
      </trkpt>
      <trkpt lat="48.21094" lon="-3.92703">
        <ele>86.3</ele>
        <time>2020-06-08T11:05:36Z</time>
      </trkpt>
      <trkpt lat="48.21098" lon="-3.92703">
        <ele>86.5</ele>
        <time>2020-06-08T11:05:37Z</time>
      </trkpt>
      <trkpt lat="48.21098" lon="-3.92704">
        <ele>86.5</ele>
        <time>2020-06-08T11:05:38Z</time>
      </trkpt>
      <trkpt lat="48.21101" lon="-3.92705">
        <ele>86.7</ele>
        <time>2020-06-08T11:05:39Z</time>
      </trkpt>
      <trkpt lat="48.21102" lon="-3.92706">
        <ele>86.7</ele>
        <time>2020-06-08T11:05:40Z</time>
      </trkpt>
      <trkpt lat="48.21105" lon="-3.92708">
        <ele>86.8</ele>
        <time>2020-06-08T11:05:41Z</time>
      </trkpt>
      <trkpt lat="48.21106" lon="-3.92708">
        <ele>86.9</ele>
        <time>2020-06-08T11:05:42Z</time>
      </trkpt>
      <trkpt lat="48.21109" lon="-3.92711">
        <ele>87</ele>
        <time>2020-06-08T11:05:43Z</time>
      </trkpt>
      <trkpt lat="48.2111" lon="-3.92711">
        <ele>87.1</ele>
        <time>2020-06-08T11:05:44Z</time>
      </trkpt>
      <trkpt lat="48.21114" lon="-3.92713">
        <ele>87.2</ele>
        <time>2020-06-08T11:05:45Z</time>
      </trkpt>
      <trkpt lat="48.21115" lon="-3.92714">
        <ele>87.3</ele>
        <time>2020-06-08T11:05:46Z</time>
      </trkpt>
      <trkpt lat="48.21118" lon="-3.92715">
        <ele>87.4</ele>
        <time>2020-06-08T11:05:47Z</time>
      </trkpt>
      <trkpt lat="48.2112" lon="-3.92717">
        <ele>87.5</ele>
        <time>2020-06-08T11:05:48Z</time>
      </trkpt>
      <trkpt lat="48.21121" lon="-3.92717">
        <ele>87.5</ele>
        <time>2020-06-08T11:05:49Z</time>
      </trkpt>
      <trkpt lat="48.21124" lon="-3.92719">
        <ele>87.7</ele>
        <time>2020-06-08T11:05:50Z</time>
      </trkpt>
      <trkpt lat="48.21128" lon="-3.92722">
        <ele>87.8</ele>
        <time>2020-06-08T11:05:51Z</time>
      </trkpt>
      <trkpt lat="48.21129" lon="-3.92723">
        <ele>87.9</ele>
        <time>2020-06-08T11:05:52Z</time>
      </trkpt>
      <trkpt lat="48.21132" lon="-3.92725">
        <ele>88</ele>
        <time>2020-06-08T11:05:53Z</time>
      </trkpt>
      <trkpt lat="48.21133" lon="-3.92726">
        <ele>88.1</ele>
        <time>2020-06-08T11:05:54Z</time>
      </trkpt>
      <trkpt lat="48.21136" lon="-3.92728">
        <ele>88.2</ele>
        <time>2020-06-08T11:05:55Z</time>
      </trkpt>
      <trkpt lat="48.21136" lon="-3.92729">
        <ele>88.3</ele>
        <time>2020-06-08T11:05:56Z</time>
      </trkpt>
      <trkpt lat="48.2114" lon="-3.9273">
        <ele>88.4</ele>
        <time>2020-06-08T11:05:57Z</time>
      </trkpt>
      <trkpt lat="48.21141" lon="-3.9273">
        <ele>88.5</ele>
        <time>2020-06-08T11:05:58Z</time>
      </trkpt>
      <trkpt lat="48.21143" lon="-3.92731">
        <ele>88.6</ele>
        <time>2020-06-08T11:05:59Z</time>
      </trkpt>
      <trkpt lat="48.21144" lon="-3.92732">
        <ele>88.7</ele>
        <time>2020-06-08T11:06:00Z</time>
      </trkpt>
      <trkpt lat="48.21148" lon="-3.92733">
        <ele>88.8</ele>
        <time>2020-06-08T11:06:01Z</time>
      </trkpt>
      <trkpt lat="48.21149" lon="-3.92733">
        <ele>88.9</ele>
        <time>2020-06-08T11:06:02Z</time>
      </trkpt>
      <trkpt lat="48.21152" lon="-3.92735">
        <ele>89</ele>
        <time>2020-06-08T11:06:03Z</time>
      </trkpt>
      <trkpt lat="48.21156" lon="-3.92736">
        <ele>89.2</ele>
        <time>2020-06-08T11:06:04Z</time>
      </trkpt>
      <trkpt lat="48.21157" lon="-3.92736">
        <ele>89.3</ele>
        <time>2020-06-08T11:06:05Z</time>
      </trkpt>
      <trkpt lat="48.2116" lon="-3.92738">
        <ele>89.4</ele>
        <time>2020-06-08T11:06:06Z</time>
      </trkpt>
      <trkpt lat="48.21161" lon="-3.92739">
        <ele>89.5</ele>
        <time>2020-06-08T11:06:07Z</time>
      </trkpt>
      <trkpt lat="48.21164" lon="-3.92742">
        <ele>89.7</ele>
        <time>2020-06-08T11:06:08Z</time>
      </trkpt>
      <trkpt lat="48.21165" lon="-3.92743">
        <ele>89.7</ele>
        <time>2020-06-08T11:06:09Z</time>
      </trkpt>
      <trkpt lat="48.21168" lon="-3.92745">
        <ele>89.9</ele>
        <time>2020-06-08T11:06:10Z</time>
      </trkpt>
      <trkpt lat="48.21169" lon="-3.92745">
        <ele>89.9</ele>
        <time>2020-06-08T11:06:11Z</time>
      </trkpt>
      <trkpt lat="48.21172" lon="-3.92748">
        <ele>90.1</ele>
        <time>2020-06-08T11:06:12Z</time>
      </trkpt>
      <trkpt lat="48.21173" lon="-3.92749">
        <ele>90.1</ele>
        <time>2020-06-08T11:06:13Z</time>
      </trkpt>
      <trkpt lat="48.21177" lon="-3.9275">
        <ele>90.3</ele>
        <time>2020-06-08T11:06:14Z</time>
      </trkpt>
      <trkpt lat="48.21179" lon="-3.92751">
        <ele>90.4</ele>
        <time>2020-06-08T11:06:15Z</time>
      </trkpt>
      <trkpt lat="48.21182" lon="-3.92754">
        <ele>90.6</ele>
        <time>2020-06-08T11:06:16Z</time>
      </trkpt>
      <trkpt lat="48.21184" lon="-3.92756">
        <ele>90.6</ele>
        <time>2020-06-08T11:06:17Z</time>
      </trkpt>
      <trkpt lat="48.21188" lon="-3.92758">
        <ele>90.8</ele>
        <time>2020-06-08T11:06:18Z</time>
      </trkpt>
      <trkpt lat="48.21192" lon="-3.9276">
        <ele>91</ele>
        <time>2020-06-08T11:06:19Z</time>
      </trkpt>
      <trkpt lat="48.21196" lon="-3.92762">
        <ele>91.2</ele>
        <time>2020-06-08T11:06:20Z</time>
      </trkpt>
      <trkpt lat="48.212" lon="-3.92764">
        <ele>91.4</ele>
        <time>2020-06-08T11:06:21Z</time>
      </trkpt>
      <trkpt lat="48.21204" lon="-3.92766">
        <ele>91.6</ele>
        <time>2020-06-08T11:06:22Z</time>
      </trkpt>
      <trkpt lat="48.21208" lon="-3.92769">
        <ele>91.8</ele>
        <time>2020-06-08T11:06:23Z</time>
      </trkpt>
      <trkpt lat="48.21212" lon="-3.9277">
        <ele>92</ele>
        <time>2020-06-08T11:06:24Z</time>
      </trkpt>
      <trkpt lat="48.21217" lon="-3.92772">
        <ele>92.2</ele>
        <time>2020-06-08T11:06:25Z</time>
      </trkpt>
      <trkpt lat="48.21221" lon="-3.92774">
        <ele>92.4</ele>
        <time>2020-06-08T11:06:26Z</time>
      </trkpt>
      <trkpt lat="48.21226" lon="-3.92777">
        <ele>92.6</ele>
        <time>2020-06-08T11:06:27Z</time>
      </trkpt>
      <trkpt lat="48.21231" lon="-3.9278">
        <ele>92.8</ele>
        <time>2020-06-08T11:06:28Z</time>
      </trkpt>
      <trkpt lat="48.21235" lon="-3.92782">
        <ele>93</ele>
        <time>2020-06-08T11:06:29Z</time>
      </trkpt>
      <trkpt lat="48.21238" lon="-3.92784">
        <ele>93.2</ele>
        <time>2020-06-08T11:06:30Z</time>
      </trkpt>
      <trkpt lat="48.21242" lon="-3.92786">
        <ele>93.4</ele>
        <time>2020-06-08T11:06:31Z</time>
      </trkpt>
      <trkpt lat="48.21246" lon="-3.92789">
        <ele>93.6</ele>
        <time>2020-06-08T11:06:32Z</time>
      </trkpt>
      <trkpt lat="48.2125" lon="-3.9279">
        <ele>93.7</ele>
        <time>2020-06-08T11:06:33Z</time>
      </trkpt>
      <trkpt lat="48.21252" lon="-3.92793">
        <ele>93.9</ele>
        <time>2020-06-08T11:06:34Z</time>
      </trkpt>
      <trkpt lat="48.21256" lon="-3.92795">
        <ele>94.1</ele>
        <time>2020-06-08T11:06:35Z</time>
      </trkpt>
      <trkpt lat="48.21259" lon="-3.92797">
        <ele>94.2</ele>
        <time>2020-06-08T11:06:36Z</time>
      </trkpt>
      <trkpt lat="48.21263" lon="-3.928">
        <ele>94.4</ele>
        <time>2020-06-08T11:06:37Z</time>
      </trkpt>
      <trkpt lat="48.21267" lon="-3.92804">
        <ele>94.6</ele>
        <time>2020-06-08T11:06:38Z</time>
      </trkpt>
      <trkpt lat="48.21272" lon="-3.92806">
        <ele>94.8</ele>
        <time>2020-06-08T11:06:39Z</time>
      </trkpt>
      <trkpt lat="48.21276" lon="-3.92808">
        <ele>95</ele>
        <time>2020-06-08T11:06:40Z</time>
      </trkpt>
      <trkpt lat="48.21281" lon="-3.9281">
        <ele>95.3</ele>
        <time>2020-06-08T11:06:41Z</time>
      </trkpt>
      <trkpt lat="48.21285" lon="-3.92812">
        <ele>95.5</ele>
        <time>2020-06-08T11:06:42Z</time>
      </trkpt>
      <trkpt lat="48.2129" lon="-3.92812">
        <ele>95.7</ele>
        <time>2020-06-08T11:06:43Z</time>
      </trkpt>
      <trkpt lat="48.21294" lon="-3.92814">
        <ele>95.9</ele>
        <time>2020-06-08T11:06:44Z</time>
      </trkpt>
      <trkpt lat="48.21298" lon="-3.92816">
        <ele>96</ele>
        <time>2020-06-08T11:06:45Z</time>
      </trkpt>
      <trkpt lat="48.21302" lon="-3.92818">
        <ele>96.2</ele>
        <time>2020-06-08T11:06:46Z</time>
      </trkpt>
      <trkpt lat="48.21307" lon="-3.9282">
        <ele>96.5</ele>
        <time>2020-06-08T11:06:47Z</time>
      </trkpt>
      <trkpt lat="48.2131" lon="-3.92822">
        <ele>96.6</ele>
        <time>2020-06-08T11:06:48Z</time>
      </trkpt>
      <trkpt lat="48.21313" lon="-3.92825">
        <ele>96.8</ele>
        <time>2020-06-08T11:06:49Z</time>
      </trkpt>
      <trkpt lat="48.21317" lon="-3.92828">
        <ele>97</ele>
        <time>2020-06-08T11:06:50Z</time>
      </trkpt>
      <trkpt lat="48.21319" lon="-3.9283">
        <ele>97.1</ele>
        <time>2020-06-08T11:06:51Z</time>
      </trkpt>
      <trkpt lat="48.21323" lon="-3.92833">
        <ele>97.3</ele>
        <time>2020-06-08T11:06:52Z</time>
      </trkpt>
      <trkpt lat="48.21327" lon="-3.92835">
        <ele>97.5</ele>
        <time>2020-06-08T11:06:53Z</time>
      </trkpt>
      <trkpt lat="48.2133" lon="-3.92837">
        <ele>97.6</ele>
        <time>2020-06-08T11:06:54Z</time>
      </trkpt>
      <trkpt lat="48.21333" lon="-3.92838">
        <ele>97.8</ele>
        <time>2020-06-08T11:06:55Z</time>
      </trkpt>
      <trkpt lat="48.21336" lon="-3.92841">
        <ele>97.9</ele>
        <time>2020-06-08T11:06:56Z</time>
      </trkpt>
      <trkpt lat="48.2134" lon="-3.92844">
        <ele>98.1</ele>
        <time>2020-06-08T11:06:57Z</time>
      </trkpt>
      <trkpt lat="48.21346" lon="-3.92847">
        <ele>98.3</ele>
        <time>2020-06-08T11:06:58Z</time>
      </trkpt>
      <trkpt lat="48.2135" lon="-3.92849">
        <ele>98.5</ele>
        <time>2020-06-08T11:06:59Z</time>
      </trkpt>
      <trkpt lat="48.21353" lon="-3.9285">
        <ele>98.6</ele>
        <time>2020-06-08T11:07:00Z</time>
      </trkpt>
      <trkpt lat="48.21358" lon="-3.92853">
        <ele>98.6</ele>
        <time>2020-06-08T11:07:01Z</time>
      </trkpt>
      <trkpt lat="48.21365" lon="-3.92855">
        <ele>98.9</ele>
        <time>2020-06-08T11:07:02Z</time>
      </trkpt>
      <trkpt lat="48.2137" lon="-3.92857">
        <ele>99.2</ele>
        <time>2020-06-08T11:07:03Z</time>
      </trkpt>
      <trkpt lat="48.21374" lon="-3.92859">
        <ele>99.5</ele>
        <time>2020-06-08T11:07:04Z</time>
      </trkpt>
      <trkpt lat="48.21378" lon="-3.92861">
        <ele>99.6</ele>
        <time>2020-06-08T11:07:05Z</time>
      </trkpt>
      <trkpt lat="48.21381" lon="-3.92864">
        <ele>99.8</ele>
        <time>2020-06-08T11:07:06Z</time>
      </trkpt>
      <trkpt lat="48.21384" lon="-3.92867">
        <ele>99.9</ele>
        <time>2020-06-08T11:07:07Z</time>
      </trkpt>
      <trkpt lat="48.21386" lon="-3.9287">
        <ele>100</ele>
        <time>2020-06-08T11:07:08Z</time>
      </trkpt>
      <trkpt lat="48.2139" lon="-3.92873">
        <ele>100.1</ele>
        <time>2020-06-08T11:07:09Z</time>
      </trkpt>
      <trkpt lat="48.21393" lon="-3.92875">
        <ele>100.3</ele>
        <time>2020-06-08T11:07:10Z</time>
      </trkpt>
      <trkpt lat="48.21398" lon="-3.92878">
        <ele>100.4</ele>
        <time>2020-06-08T11:07:11Z</time>
      </trkpt>
      <trkpt lat="48.21401" lon="-3.92881">
        <ele>100.5</ele>
        <time>2020-06-08T11:07:12Z</time>
      </trkpt>
      <trkpt lat="48.21403" lon="-3.92882">
        <ele>100.6</ele>
        <time>2020-06-08T11:07:13Z</time>
      </trkpt>
      <trkpt lat="48.21406" lon="-3.92883">
        <ele>100.6</ele>
        <time>2020-06-08T11:07:14Z</time>
      </trkpt>
      <trkpt lat="48.21409" lon="-3.92885">
        <ele>100.7</ele>
        <time>2020-06-08T11:07:15Z</time>
      </trkpt>
      <trkpt lat="48.2141" lon="-3.92886">
        <ele>100.7</ele>
        <time>2020-06-08T11:07:16Z</time>
      </trkpt>
      <trkpt lat="48.21413" lon="-3.92886">
        <ele>100.8</ele>
        <time>2020-06-08T11:07:17Z</time>
      </trkpt>
      <trkpt lat="48.21416" lon="-3.92888">
        <ele>100.9</ele>
        <time>2020-06-08T11:07:18Z</time>
      </trkpt>
      <trkpt lat="48.21417" lon="-3.92888">
        <ele>100.9</ele>
        <time>2020-06-08T11:07:19Z</time>
      </trkpt>
      <trkpt lat="48.21419" lon="-3.9289">
        <ele>100.9</ele>
        <time>2020-06-08T11:07:20Z</time>
      </trkpt>
      <trkpt lat="48.2142" lon="-3.92891">
        <ele>101</ele>
        <time>2020-06-08T11:07:21Z</time>
      </trkpt>
      <trkpt lat="48.21423" lon="-3.92892">
        <ele>101</ele>
        <time>2020-06-08T11:07:22Z</time>
      </trkpt>
      <trkpt lat="48.21426" lon="-3.92894">
        <ele>101.1</ele>
        <time>2020-06-08T11:07:23Z</time>
      </trkpt>
      <trkpt lat="48.21429" lon="-3.92895">
        <ele>101.2</ele>
        <time>2020-06-08T11:07:24Z</time>
      </trkpt>
      <trkpt lat="48.21432" lon="-3.92897">
        <ele>101.2</ele>
        <time>2020-06-08T11:07:25Z</time>
      </trkpt>
      <trkpt lat="48.21436" lon="-3.92899">
        <ele>101.3</ele>
        <time>2020-06-08T11:07:26Z</time>
      </trkpt>
      <trkpt lat="48.2144" lon="-3.92901">
        <ele>101.3</ele>
        <time>2020-06-08T11:07:27Z</time>
      </trkpt>
      <trkpt lat="48.21443" lon="-3.92903">
        <ele>101.4</ele>
        <time>2020-06-08T11:07:28Z</time>
      </trkpt>
      <trkpt lat="48.21447" lon="-3.92905">
        <ele>101.4</ele>
        <time>2020-06-08T11:07:29Z</time>
      </trkpt>
      <trkpt lat="48.2145" lon="-3.92906">
        <ele>101.4</ele>
        <time>2020-06-08T11:07:30Z</time>
      </trkpt>
      <trkpt lat="48.21453" lon="-3.92909">
        <ele>101.4</ele>
        <time>2020-06-08T11:07:31Z</time>
      </trkpt>
      <trkpt lat="48.21455" lon="-3.9291">
        <ele>101.4</ele>
        <time>2020-06-08T11:07:32Z</time>
      </trkpt>
      <trkpt lat="48.21457" lon="-3.92911">
        <ele>101.4</ele>
        <time>2020-06-08T11:07:33Z</time>
      </trkpt>
      <trkpt lat="48.2146" lon="-3.92914">
        <ele>101.4</ele>
        <time>2020-06-08T11:07:34Z</time>
      </trkpt>
      <trkpt lat="48.21463" lon="-3.92916">
        <ele>101.4</ele>
        <time>2020-06-08T11:07:35Z</time>
      </trkpt>
      <trkpt lat="48.21466" lon="-3.92918">
        <ele>101.4</ele>
        <time>2020-06-08T11:07:36Z</time>
      </trkpt>
      <trkpt lat="48.21468" lon="-3.92918">
        <ele>101.4</ele>
        <time>2020-06-08T11:07:37Z</time>
      </trkpt>
      <trkpt lat="48.21471" lon="-3.92919">
        <ele>101.4</ele>
        <time>2020-06-08T11:07:38Z</time>
      </trkpt>
      <trkpt lat="48.21474" lon="-3.9292">
        <ele>101.3</ele>
        <time>2020-06-08T11:07:39Z</time>
      </trkpt>
      <trkpt lat="48.21475" lon="-3.9292">
        <ele>101.3</ele>
        <time>2020-06-08T11:07:40Z</time>
      </trkpt>
      <trkpt lat="48.21478" lon="-3.9292">
        <ele>101.3</ele>
        <time>2020-06-08T11:07:41Z</time>
      </trkpt>
      <trkpt lat="48.21481" lon="-3.92921">
        <ele>101.3</ele>
        <time>2020-06-08T11:07:42Z</time>
      </trkpt>
      <trkpt lat="48.21482" lon="-3.92922">
        <ele>101.3</ele>
        <time>2020-06-08T11:07:43Z</time>
      </trkpt>
      <trkpt lat="48.21484" lon="-3.92923">
        <ele>101.3</ele>
        <time>2020-06-08T11:07:44Z</time>
      </trkpt>
      <trkpt lat="48.21487" lon="-3.92925">
        <ele>101.3</ele>
        <time>2020-06-08T11:07:45Z</time>
      </trkpt>
      <trkpt lat="48.21488" lon="-3.92926">
        <ele>101.2</ele>
        <time>2020-06-08T11:07:46Z</time>
      </trkpt>
      <trkpt lat="48.21491" lon="-3.92927">
        <ele>101.2</ele>
        <time>2020-06-08T11:07:47Z</time>
      </trkpt>
      <trkpt lat="48.21492" lon="-3.92928">
        <ele>101.2</ele>
        <time>2020-06-08T11:07:48Z</time>
      </trkpt>
      <trkpt lat="48.21492" lon="-3.92929">
        <ele>101.2</ele>
        <time>2020-06-08T11:07:49Z</time>
      </trkpt>
      <trkpt lat="48.21494" lon="-3.92931">
        <ele>101.2</ele>
        <time>2020-06-08T11:07:50Z</time>
      </trkpt>
      <trkpt lat="48.21496" lon="-3.92931">
        <ele>101.2</ele>
        <time>2020-06-08T11:07:51Z</time>
      </trkpt>
      <trkpt lat="48.21498" lon="-3.92931">
        <ele>101.2</ele>
        <time>2020-06-08T11:07:52Z</time>
      </trkpt>
      <trkpt lat="48.21501" lon="-3.92932">
        <ele>101.1</ele>
        <time>2020-06-08T11:07:53Z</time>
      </trkpt>
      <trkpt lat="48.21501" lon="-3.92932">
        <ele>101.1</ele>
        <time>2020-06-08T11:07:54Z</time>
      </trkpt>
      <trkpt lat="48.21504" lon="-3.92933">
        <ele>101.1</ele>
        <time>2020-06-08T11:07:55Z</time>
      </trkpt>
      <trkpt lat="48.21504" lon="-3.92934">
        <ele>101.1</ele>
        <time>2020-06-08T11:07:56Z</time>
      </trkpt>
      <trkpt lat="48.21505" lon="-3.92935">
        <ele>101.1</ele>
        <time>2020-06-08T11:07:57Z</time>
      </trkpt>
      <trkpt lat="48.21506" lon="-3.92936">
        <ele>101.1</ele>
        <time>2020-06-08T11:07:58Z</time>
      </trkpt>
      <trkpt lat="48.21508" lon="-3.92938">
        <ele>101</ele>
        <time>2020-06-08T11:07:59Z</time>
      </trkpt>
      <trkpt lat="48.21509" lon="-3.92938">
        <ele>101</ele>
        <time>2020-06-08T11:08:00Z</time>
      </trkpt>
      <trkpt lat="48.21509" lon="-3.92939">
        <ele>101</ele>
        <time>2020-06-08T11:08:01Z</time>
      </trkpt>
      <trkpt lat="48.2151" lon="-3.9294">
        <ele>101</ele>
        <time>2020-06-08T11:08:02Z</time>
      </trkpt>
      <trkpt lat="48.21512" lon="-3.92942">
        <ele>100.9</ele>
        <time>2020-06-08T11:08:03Z</time>
      </trkpt>
      <trkpt lat="48.21513" lon="-3.92943">
        <ele>100.9</ele>
        <time>2020-06-08T11:08:04Z</time>
      </trkpt>
      <trkpt lat="48.21514" lon="-3.92943">
        <ele>100.9</ele>
        <time>2020-06-08T11:08:05Z</time>
      </trkpt>
      <trkpt lat="48.21516" lon="-3.92945">
        <ele>100.8</ele>
        <time>2020-06-08T11:08:06Z</time>
      </trkpt>
      <trkpt lat="48.21517" lon="-3.92945">
        <ele>100.8</ele>
        <time>2020-06-08T11:08:07Z</time>
      </trkpt>
      <trkpt lat="48.21518" lon="-3.92946">
        <ele>100.8</ele>
        <time>2020-06-08T11:08:08Z</time>
      </trkpt>
      <trkpt lat="48.2152" lon="-3.92948">
        <ele>100.8</ele>
        <time>2020-06-08T11:08:09Z</time>
      </trkpt>
      <trkpt lat="48.21522" lon="-3.92951">
        <ele>100.7</ele>
        <time>2020-06-08T11:08:10Z</time>
      </trkpt>
      <trkpt lat="48.21523" lon="-3.92953">
        <ele>100.7</ele>
        <time>2020-06-08T11:08:11Z</time>
      </trkpt>
      <trkpt lat="48.21525" lon="-3.92957">
        <ele>100.6</ele>
        <time>2020-06-08T11:08:12Z</time>
      </trkpt>
      <trkpt lat="48.21526" lon="-3.92958">
        <ele>100.6</ele>
        <time>2020-06-08T11:08:13Z</time>
      </trkpt>
      <trkpt lat="48.21529" lon="-3.92959">
        <ele>100.5</ele>
        <time>2020-06-08T11:08:14Z</time>
      </trkpt>
      <trkpt lat="48.21532" lon="-3.92962">
        <ele>100.4</ele>
        <time>2020-06-08T11:08:15Z</time>
      </trkpt>
      <trkpt lat="48.21534" lon="-3.92965">
        <ele>100.4</ele>
        <time>2020-06-08T11:08:16Z</time>
      </trkpt>
      <trkpt lat="48.21535" lon="-3.92966">
        <ele>100.3</ele>
        <time>2020-06-08T11:08:17Z</time>
      </trkpt>
      <trkpt lat="48.21537" lon="-3.92968">
        <ele>100.3</ele>
        <time>2020-06-08T11:08:18Z</time>
      </trkpt>
      <trkpt lat="48.21538" lon="-3.92968">
        <ele>100.3</ele>
        <time>2020-06-08T11:08:19Z</time>
      </trkpt>
      <trkpt lat="48.21541" lon="-3.92971">
        <ele>100.2</ele>
        <time>2020-06-08T11:08:20Z</time>
      </trkpt>
      <trkpt lat="48.21542" lon="-3.92972">
        <ele>100.1</ele>
        <time>2020-06-08T11:08:21Z</time>
      </trkpt>
      <trkpt lat="48.21546" lon="-3.92976">
        <ele>100</ele>
        <time>2020-06-08T11:08:22Z</time>
      </trkpt>
      <trkpt lat="48.21546" lon="-3.92977">
        <ele>100</ele>
        <time>2020-06-08T11:08:23Z</time>
      </trkpt>
      <trkpt lat="48.2155" lon="-3.9298">
        <ele>99.9</ele>
        <time>2020-06-08T11:08:24Z</time>
      </trkpt>
      <trkpt lat="48.21551" lon="-3.92982">
        <ele>99.8</ele>
        <time>2020-06-08T11:08:25Z</time>
      </trkpt>
      <trkpt lat="48.21553" lon="-3.92984">
        <ele>99.7</ele>
        <time>2020-06-08T11:08:26Z</time>
      </trkpt>
      <trkpt lat="48.21555" lon="-3.92988">
        <ele>99.6</ele>
        <time>2020-06-08T11:08:27Z</time>
      </trkpt>
      <trkpt lat="48.21558" lon="-3.92991">
        <ele>99.5</ele>
        <time>2020-06-08T11:08:28Z</time>
      </trkpt>
      <trkpt lat="48.2156" lon="-3.92994">
        <ele>99.4</ele>
        <time>2020-06-08T11:08:29Z</time>
      </trkpt>
      <trkpt lat="48.21563" lon="-3.92997">
        <ele>99.2</ele>
        <time>2020-06-08T11:08:30Z</time>
      </trkpt>
      <trkpt lat="48.21564" lon="-3.92998">
        <ele>99.2</ele>
        <time>2020-06-08T11:08:31Z</time>
      </trkpt>
      <trkpt lat="48.21566" lon="-3.93001">
        <ele>99.1</ele>
        <time>2020-06-08T11:08:32Z</time>
      </trkpt>
      <trkpt lat="48.21567" lon="-3.93002">
        <ele>99</ele>
        <time>2020-06-08T11:08:33Z</time>
      </trkpt>
      <trkpt lat="48.21569" lon="-3.93006">
        <ele>98.9</ele>
        <time>2020-06-08T11:08:34Z</time>
      </trkpt>
      <trkpt lat="48.21571" lon="-3.93009">
        <ele>98.8</ele>
        <time>2020-06-08T11:08:35Z</time>
      </trkpt>
      <trkpt lat="48.21574" lon="-3.93015">
        <ele>98.6</ele>
        <time>2020-06-08T11:08:36Z</time>
      </trkpt>
      <trkpt lat="48.21575" lon="-3.93017">
        <ele>98.6</ele>
        <time>2020-06-08T11:08:37Z</time>
      </trkpt>
      <trkpt lat="48.21579" lon="-3.93022">
        <ele>98.4</ele>
        <time>2020-06-08T11:08:38Z</time>
      </trkpt>
      <trkpt lat="48.21581" lon="-3.93025">
        <ele>98.2</ele>
        <time>2020-06-08T11:08:39Z</time>
      </trkpt>
      <trkpt lat="48.21584" lon="-3.93029">
        <ele>98.1</ele>
        <time>2020-06-08T11:08:40Z</time>
      </trkpt>
      <trkpt lat="48.21587" lon="-3.93032">
        <ele>97.9</ele>
        <time>2020-06-08T11:08:41Z</time>
      </trkpt>
      <trkpt lat="48.21589" lon="-3.93037">
        <ele>97.8</ele>
        <time>2020-06-08T11:08:42Z</time>
      </trkpt>
      <trkpt lat="48.2159" lon="-3.93039">
        <ele>97.7</ele>
        <time>2020-06-08T11:08:43Z</time>
      </trkpt>
      <trkpt lat="48.21592" lon="-3.93042">
        <ele>97.5</ele>
        <time>2020-06-08T11:08:44Z</time>
      </trkpt>
      <trkpt lat="48.21595" lon="-3.93049">
        <ele>97.3</ele>
        <time>2020-06-08T11:08:45Z</time>
      </trkpt>
      <trkpt lat="48.21598" lon="-3.93056">
        <ele>97.1</ele>
        <time>2020-06-08T11:08:46Z</time>
      </trkpt>
      <trkpt lat="48.216" lon="-3.93061">
        <ele>96.9</ele>
        <time>2020-06-08T11:08:47Z</time>
      </trkpt>
      <trkpt lat="48.21603" lon="-3.93067">
        <ele>96.7</ele>
        <time>2020-06-08T11:08:48Z</time>
      </trkpt>
      <trkpt lat="48.21605" lon="-3.93073">
        <ele>96.6</ele>
        <time>2020-06-08T11:08:49Z</time>
      </trkpt>
      <trkpt lat="48.21607" lon="-3.93081">
        <ele>96.4</ele>
        <time>2020-06-08T11:08:50Z</time>
      </trkpt>
      <trkpt lat="48.2161" lon="-3.93087">
        <ele>96.2</ele>
        <time>2020-06-08T11:08:51Z</time>
      </trkpt>
      <trkpt lat="48.21612" lon="-3.93093">
        <ele>96</ele>
        <time>2020-06-08T11:08:52Z</time>
      </trkpt>
      <trkpt lat="48.21615" lon="-3.93098">
        <ele>95.7</ele>
        <time>2020-06-08T11:08:53Z</time>
      </trkpt>
      <trkpt lat="48.21617" lon="-3.93105">
        <ele>95.5</ele>
        <time>2020-06-08T11:08:54Z</time>
      </trkpt>
      <trkpt lat="48.21618" lon="-3.93112">
        <ele>95.3</ele>
        <time>2020-06-08T11:08:55Z</time>
      </trkpt>
      <trkpt lat="48.21619" lon="-3.93118">
        <ele>95.1</ele>
        <time>2020-06-08T11:08:56Z</time>
      </trkpt>
      <trkpt lat="48.2162" lon="-3.93123">
        <ele>94.9</ele>
        <time>2020-06-08T11:08:57Z</time>
      </trkpt>
      <trkpt lat="48.21621" lon="-3.93127">
        <ele>94.8</ele>
        <time>2020-06-08T11:08:58Z</time>
      </trkpt>
      <trkpt lat="48.21624" lon="-3.93133">
        <ele>94.6</ele>
        <time>2020-06-08T11:08:59Z</time>
      </trkpt>
      <trkpt lat="48.21625" lon="-3.93137">
        <ele>94.5</ele>
        <time>2020-06-08T11:09:00Z</time>
      </trkpt>
      <trkpt lat="48.21626" lon="-3.93142">
        <ele>94.3</ele>
        <time>2020-06-08T11:09:01Z</time>
      </trkpt>
      <trkpt lat="48.21626" lon="-3.93147">
        <ele>94.2</ele>
        <time>2020-06-08T11:09:02Z</time>
      </trkpt>
      <trkpt lat="48.21627" lon="-3.93153">
        <ele>94</ele>
        <time>2020-06-08T11:09:03Z</time>
      </trkpt>
      <trkpt lat="48.21628" lon="-3.93157">
        <ele>93.9</ele>
        <time>2020-06-08T11:09:04Z</time>
      </trkpt>
      <trkpt lat="48.21628" lon="-3.93163">
        <ele>93.8</ele>
        <time>2020-06-08T11:09:05Z</time>
      </trkpt>
      <trkpt lat="48.21627" lon="-3.93166">
        <ele>93.7</ele>
        <time>2020-06-08T11:09:06Z</time>
      </trkpt>
      <trkpt lat="48.21627" lon="-3.93168">
        <ele>93.6</ele>
        <time>2020-06-08T11:09:07Z</time>
      </trkpt>
      <trkpt lat="48.21624" lon="-3.93171">
        <ele>93.5</ele>
        <time>2020-06-08T11:09:08Z</time>
      </trkpt>
      <trkpt lat="48.21623" lon="-3.93172">
        <ele>93.5</ele>
        <time>2020-06-08T11:09:09Z</time>
      </trkpt>
      <trkpt lat="48.21621" lon="-3.93172">
        <ele>93.4</ele>
        <time>2020-06-08T11:09:10Z</time>
      </trkpt>
      <trkpt lat="48.21621" lon="-3.93173">
        <ele>93.4</ele>
        <time>2020-06-08T11:09:11Z</time>
      </trkpt>
      <trkpt lat="48.21621" lon="-3.93172">
        <ele>93.4</ele>
        <time>2020-06-08T11:09:12Z</time>
      </trkpt>
      <trkpt lat="48.21621" lon="-3.93171">
        <ele>93.4</ele>
        <time>2020-06-08T11:09:13Z</time>
      </trkpt>
      <trkpt lat="48.21621" lon="-3.93171">
        <ele>93.4</ele>
        <time>2020-06-08T11:09:14Z</time>
      </trkpt>
      <trkpt lat="48.21621" lon="-3.93171">
        <ele>93.3</ele>
        <time>2020-06-08T11:09:15Z</time>
      </trkpt>
      <trkpt lat="48.21621" lon="-3.93172">
        <ele>93.3</ele>
        <time>2020-06-08T11:09:16Z</time>
      </trkpt>
      <trkpt lat="48.2162" lon="-3.93172">
        <ele>93.3</ele>
        <time>2020-06-08T11:09:17Z</time>
      </trkpt>
      <trkpt lat="48.21621" lon="-3.93173">
        <ele>93.3</ele>
        <time>2020-06-08T11:09:18Z</time>
      </trkpt>
      <trkpt lat="48.21621" lon="-3.93174">
        <ele>93.3</ele>
        <time>2020-06-08T11:09:19Z</time>
      </trkpt>
      <trkpt lat="48.2162" lon="-3.93173">
        <ele>93.2</ele>
        <time>2020-06-08T11:09:20Z</time>
      </trkpt>
      <trkpt lat="48.21619" lon="-3.93173">
        <ele>93.2</ele>
        <time>2020-06-08T11:09:21Z</time>
      </trkpt>
      <trkpt lat="48.21618" lon="-3.93172">
        <ele>93.2</ele>
        <time>2020-06-08T11:09:22Z</time>
      </trkpt>
      <trkpt lat="48.21614" lon="-3.9317">
        <ele>93.1</ele>
        <time>2020-06-08T11:09:23Z</time>
      </trkpt>
      <trkpt lat="48.21613" lon="-3.9317">
        <ele>93</ele>
        <time>2020-06-08T11:09:24Z</time>
      </trkpt>
      <trkpt lat="48.21612" lon="-3.93169">
        <ele>93</ele>
        <time>2020-06-08T11:09:25Z</time>
      </trkpt>
      <trkpt lat="48.21612" lon="-3.93169">
        <ele>93</ele>
        <time>2020-06-08T11:09:26Z</time>
      </trkpt>
      <trkpt lat="48.21612" lon="-3.93169">
        <ele>93</ele>
        <time>2020-06-08T11:09:27Z</time>
      </trkpt>
      <trkpt lat="48.21612" lon="-3.93168">
        <ele>92.9</ele>
        <time>2020-06-08T11:09:28Z</time>
      </trkpt>
      <trkpt lat="48.21613" lon="-3.93168">
        <ele>92.9</ele>
        <time>2020-06-08T11:09:29Z</time>
      </trkpt>
      <trkpt lat="48.21612" lon="-3.93168">
        <ele>92.9</ele>
        <time>2020-06-08T11:09:30Z</time>
      </trkpt>
      <trkpt lat="48.21612" lon="-3.93168">
        <ele>92.9</ele>
        <time>2020-06-08T11:09:31Z</time>
      </trkpt>
      <trkpt lat="48.21613" lon="-3.93167">
        <ele>92.9</ele>
        <time>2020-06-08T11:09:32Z</time>
      </trkpt>
      <trkpt lat="48.21613" lon="-3.93166">
        <ele>92.8</ele>
        <time>2020-06-08T11:09:33Z</time>
      </trkpt>
      <trkpt lat="48.21615" lon="-3.93166">
        <ele>92.8</ele>
        <time>2020-06-08T11:09:34Z</time>
      </trkpt>
      <trkpt lat="48.21615" lon="-3.93166">
        <ele>92.8</ele>
        <time>2020-06-08T11:09:35Z</time>
      </trkpt>
      <trkpt lat="48.21615" lon="-3.93166">
        <ele>92.8</ele>
        <time>2020-06-08T11:09:36Z</time>
      </trkpt>
      <trkpt lat="48.21616" lon="-3.93167">
        <ele>92.8</ele>
        <time>2020-06-08T11:09:37Z</time>
      </trkpt>
      <trkpt lat="48.21616" lon="-3.93167">
        <ele>92.7</ele>
        <time>2020-06-08T11:09:38Z</time>
      </trkpt>
      <trkpt lat="48.21617" lon="-3.93167">
        <ele>92.7</ele>
        <time>2020-06-08T11:09:39Z</time>
      </trkpt>
      <trkpt lat="48.21617" lon="-3.93168">
        <ele>92.7</ele>
        <time>2020-06-08T11:09:40Z</time>
      </trkpt>
      <trkpt lat="48.21618" lon="-3.93168">
        <ele>92.7</ele>
        <time>2020-06-08T11:09:41Z</time>
      </trkpt>
      <trkpt lat="48.21618" lon="-3.93169">
        <ele>92.7</ele>
        <time>2020-06-08T11:09:42Z</time>
      </trkpt>
      <trkpt lat="48.21619" lon="-3.93169">
        <ele>92.7</ele>
        <time>2020-06-08T11:09:43Z</time>
      </trkpt>
      <trkpt lat="48.21619" lon="-3.93169">
        <ele>92.6</ele>
        <time>2020-06-08T11:09:44Z</time>
      </trkpt>
      <trkpt lat="48.2162" lon="-3.9317">
        <ele>92.6</ele>
        <time>2020-06-08T11:09:45Z</time>
      </trkpt>
      <trkpt lat="48.2162" lon="-3.9317">
        <ele>92.6</ele>
        <time>2020-06-08T11:09:46Z</time>
      </trkpt>
      <trkpt lat="48.21621" lon="-3.93171">
        <ele>92.6</ele>
        <time>2020-06-08T11:09:47Z</time>
      </trkpt>
      <trkpt lat="48.21621" lon="-3.93171">
        <ele>92.6</ele>
        <time>2020-06-08T11:09:48Z</time>
      </trkpt>
      <trkpt lat="48.21621" lon="-3.93171">
        <ele>92.6</ele>
        <time>2020-06-08T11:11:53Z</time>
      </trkpt>
      <trkpt lat="48.21622" lon="-3.93172">
        <ele>92.5</ele>
        <time>2020-06-08T11:11:54Z</time>
      </trkpt>
      <trkpt lat="48.21622" lon="-3.93172">
        <ele>92.5</ele>
        <time>2020-06-08T11:11:55Z</time>
      </trkpt>
      <trkpt lat="48.21624" lon="-3.93173">
        <ele>92.5</ele>
        <time>2020-06-08T11:11:56Z</time>
      </trkpt>
      <trkpt lat="48.21625" lon="-3.93174">
        <ele>92.4</ele>
        <time>2020-06-08T11:11:57Z</time>
      </trkpt>
      <trkpt lat="48.21628" lon="-3.93175">
        <ele>92.3</ele>
        <time>2020-06-08T11:11:58Z</time>
      </trkpt>
      <trkpt lat="48.21629" lon="-3.93175">
        <ele>92.3</ele>
        <time>2020-06-08T11:11:59Z</time>
      </trkpt>
      <trkpt lat="48.21631" lon="-3.93177">
        <ele>92.2</ele>
        <time>2020-06-08T11:12:00Z</time>
      </trkpt>
      <trkpt lat="48.21632" lon="-3.93178">
        <ele>92.2</ele>
        <time>2020-06-08T11:12:01Z</time>
      </trkpt>
      <trkpt lat="48.21634" lon="-3.93182">
        <ele>92.1</ele>
        <time>2020-06-08T11:12:02Z</time>
      </trkpt>
      <trkpt lat="48.21634" lon="-3.93184">
        <ele>92.1</ele>
        <time>2020-06-08T11:12:03Z</time>
      </trkpt>
      <trkpt lat="48.21636" lon="-3.93189">
        <ele>92</ele>
        <time>2020-06-08T11:12:04Z</time>
      </trkpt>
      <trkpt lat="48.21636" lon="-3.93191">
        <ele>91.9</ele>
        <time>2020-06-08T11:12:05Z</time>
      </trkpt>
      <trkpt lat="48.21637" lon="-3.93197">
        <ele>91.8</ele>
        <time>2020-06-08T11:12:06Z</time>
      </trkpt>
      <trkpt lat="48.21638" lon="-3.93199">
        <ele>91.8</ele>
        <time>2020-06-08T11:12:07Z</time>
      </trkpt>
      <trkpt lat="48.21639" lon="-3.93203">
        <ele>91.7</ele>
        <time>2020-06-08T11:12:08Z</time>
      </trkpt>
      <trkpt lat="48.2164" lon="-3.93208">
        <ele>91.6</ele>
        <time>2020-06-08T11:12:09Z</time>
      </trkpt>
      <trkpt lat="48.21642" lon="-3.93214">
        <ele>91.5</ele>
        <time>2020-06-08T11:12:10Z</time>
      </trkpt>
      <trkpt lat="48.21643" lon="-3.93219">
        <ele>91.4</ele>
        <time>2020-06-08T11:12:11Z</time>
      </trkpt>
      <trkpt lat="48.21645" lon="-3.93225">
        <ele>91.3</ele>
        <time>2020-06-08T11:12:12Z</time>
      </trkpt>
      <trkpt lat="48.21646" lon="-3.9323">
        <ele>91.2</ele>
        <time>2020-06-08T11:12:13Z</time>
      </trkpt>
      <trkpt lat="48.21648" lon="-3.93236">
        <ele>91.1</ele>
        <time>2020-06-08T11:12:14Z</time>
      </trkpt>
      <trkpt lat="48.21649" lon="-3.93241">
        <ele>91</ele>
        <time>2020-06-08T11:12:15Z</time>
      </trkpt>
      <trkpt lat="48.2165" lon="-3.93247">
        <ele>91</ele>
        <time>2020-06-08T11:12:16Z</time>
      </trkpt>
      <trkpt lat="48.2165" lon="-3.93252">
        <ele>90.9</ele>
        <time>2020-06-08T11:12:17Z</time>
      </trkpt>
      <trkpt lat="48.21652" lon="-3.93257">
        <ele>90.8</ele>
        <time>2020-06-08T11:12:18Z</time>
      </trkpt>
      <trkpt lat="48.21653" lon="-3.93263">
        <ele>90.7</ele>
        <time>2020-06-08T11:12:19Z</time>
      </trkpt>
      <trkpt lat="48.21654" lon="-3.93268">
        <ele>90.7</ele>
        <time>2020-06-08T11:12:20Z</time>
      </trkpt>
      <trkpt lat="48.21655" lon="-3.93273">
        <ele>90.6</ele>
        <time>2020-06-08T11:12:21Z</time>
      </trkpt>
      <trkpt lat="48.21655" lon="-3.9328">
        <ele>90.5</ele>
        <time>2020-06-08T11:12:22Z</time>
      </trkpt>
      <trkpt lat="48.21656" lon="-3.93285">
        <ele>90.5</ele>
        <time>2020-06-08T11:12:23Z</time>
      </trkpt>
      <trkpt lat="48.21657" lon="-3.9329">
        <ele>90.4</ele>
        <time>2020-06-08T11:12:24Z</time>
      </trkpt>
      <trkpt lat="48.21658" lon="-3.93295">
        <ele>90.4</ele>
        <time>2020-06-08T11:12:25Z</time>
      </trkpt>
      <trkpt lat="48.21659" lon="-3.933">
        <ele>90.3</ele>
        <time>2020-06-08T11:12:26Z</time>
      </trkpt>
      <trkpt lat="48.2166" lon="-3.93305">
        <ele>90.2</ele>
        <time>2020-06-08T11:12:27Z</time>
      </trkpt>
      <trkpt lat="48.21662" lon="-3.93311">
        <ele>90.2</ele>
        <time>2020-06-08T11:12:28Z</time>
      </trkpt>
      <trkpt lat="48.21663" lon="-3.93316">
        <ele>90.1</ele>
        <time>2020-06-08T11:12:29Z</time>
      </trkpt>
      <trkpt lat="48.21664" lon="-3.93322">
        <ele>90</ele>
        <time>2020-06-08T11:12:30Z</time>
      </trkpt>
      <trkpt lat="48.21664" lon="-3.93327">
        <ele>90</ele>
        <time>2020-06-08T11:12:31Z</time>
      </trkpt>
      <trkpt lat="48.21663" lon="-3.93333">
        <ele>89.9</ele>
        <time>2020-06-08T11:12:32Z</time>
      </trkpt>
      <trkpt lat="48.21663" lon="-3.93338">
        <ele>89.9</ele>
        <time>2020-06-08T11:12:33Z</time>
      </trkpt>
      <trkpt lat="48.21664" lon="-3.93344">
        <ele>89.9</ele>
        <time>2020-06-08T11:12:34Z</time>
      </trkpt>
      <trkpt lat="48.21664" lon="-3.93349">
        <ele>89.9</ele>
        <time>2020-06-08T11:12:35Z</time>
      </trkpt>
      <trkpt lat="48.21664" lon="-3.93353">
        <ele>89.9</ele>
        <time>2020-06-08T11:12:36Z</time>
      </trkpt>
      <trkpt lat="48.21664" lon="-3.93358">
        <ele>89.9</ele>
        <time>2020-06-08T11:12:37Z</time>
      </trkpt>
      <trkpt lat="48.21663" lon="-3.93363">
        <ele>89.9</ele>
        <time>2020-06-08T11:12:38Z</time>
      </trkpt>
      <trkpt lat="48.21664" lon="-3.93368">
        <ele>89.8</ele>
        <time>2020-06-08T11:12:39Z</time>
      </trkpt>
      <trkpt lat="48.21664" lon="-3.93372">
        <ele>89.8</ele>
        <time>2020-06-08T11:12:40Z</time>
      </trkpt>
      <trkpt lat="48.21663" lon="-3.93379">
        <ele>89.7</ele>
        <time>2020-06-08T11:12:41Z</time>
      </trkpt>
      <trkpt lat="48.21663" lon="-3.93381">
        <ele>89.7</ele>
        <time>2020-06-08T11:12:42Z</time>
      </trkpt>
      <trkpt lat="48.21662" lon="-3.93385">
        <ele>89.7</ele>
        <time>2020-06-08T11:12:43Z</time>
      </trkpt>
      <trkpt lat="48.21661" lon="-3.93389">
        <ele>89.7</ele>
        <time>2020-06-08T11:12:44Z</time>
      </trkpt>
      <trkpt lat="48.2166" lon="-3.93394">
        <ele>89.7</ele>
        <time>2020-06-08T11:12:45Z</time>
      </trkpt>
      <trkpt lat="48.2166" lon="-3.93398">
        <ele>89.7</ele>
        <time>2020-06-08T11:12:46Z</time>
      </trkpt>
      <trkpt lat="48.21659" lon="-3.93404">
        <ele>89.7</ele>
        <time>2020-06-08T11:12:47Z</time>
      </trkpt>
      <trkpt lat="48.2166" lon="-3.93408">
        <ele>89.8</ele>
        <time>2020-06-08T11:12:48Z</time>
      </trkpt>
      <trkpt lat="48.2166" lon="-3.93414">
        <ele>89.8</ele>
        <time>2020-06-08T11:12:49Z</time>
      </trkpt>
      <trkpt lat="48.2166" lon="-3.93419">
        <ele>89.8</ele>
        <time>2020-06-08T11:12:50Z</time>
      </trkpt>
      <trkpt lat="48.2166" lon="-3.93424">
        <ele>89.9</ele>
        <time>2020-06-08T11:12:51Z</time>
      </trkpt>
      <trkpt lat="48.21659" lon="-3.93429">
        <ele>89.9</ele>
        <time>2020-06-08T11:12:52Z</time>
      </trkpt>
      <trkpt lat="48.21658" lon="-3.93434">
        <ele>90</ele>
        <time>2020-06-08T11:12:53Z</time>
      </trkpt>
      <trkpt lat="48.21657" lon="-3.93438">
        <ele>90</ele>
        <time>2020-06-08T11:12:54Z</time>
      </trkpt>
      <trkpt lat="48.21656" lon="-3.93443">
        <ele>90.1</ele>
        <time>2020-06-08T11:12:55Z</time>
      </trkpt>
      <trkpt lat="48.21654" lon="-3.93448">
        <ele>90.2</ele>
        <time>2020-06-08T11:12:56Z</time>
      </trkpt>
      <trkpt lat="48.21653" lon="-3.9345">
        <ele>90.2</ele>
        <time>2020-06-08T11:12:57Z</time>
      </trkpt>
      <trkpt lat="48.2165" lon="-3.93455">
        <ele>90.3</ele>
        <time>2020-06-08T11:12:58Z</time>
      </trkpt>
      <trkpt lat="48.21648" lon="-3.9346">
        <ele>90.4</ele>
        <time>2020-06-08T11:12:59Z</time>
      </trkpt>
      <trkpt lat="48.21647" lon="-3.93464">
        <ele>90.4</ele>
        <time>2020-06-08T11:13:00Z</time>
      </trkpt>
      <trkpt lat="48.21645" lon="-3.9347">
        <ele>90.5</ele>
        <time>2020-06-08T11:13:01Z</time>
      </trkpt>
      <trkpt lat="48.21643" lon="-3.93474">
        <ele>90.6</ele>
        <time>2020-06-08T11:13:02Z</time>
      </trkpt>
      <trkpt lat="48.21642" lon="-3.9348">
        <ele>90.7</ele>
        <time>2020-06-08T11:13:03Z</time>
      </trkpt>
      <trkpt lat="48.2164" lon="-3.93486">
        <ele>90.8</ele>
        <time>2020-06-08T11:13:04Z</time>
      </trkpt>
      <trkpt lat="48.21639" lon="-3.93491">
        <ele>90.9</ele>
        <time>2020-06-08T11:13:05Z</time>
      </trkpt>
      <trkpt lat="48.21639" lon="-3.93496">
        <ele>91.1</ele>
        <time>2020-06-08T11:13:06Z</time>
      </trkpt>
      <trkpt lat="48.21637" lon="-3.93502">
        <ele>91.2</ele>
        <time>2020-06-08T11:13:07Z</time>
      </trkpt>
      <trkpt lat="48.21636" lon="-3.93507">
        <ele>91.3</ele>
        <time>2020-06-08T11:13:08Z</time>
      </trkpt>
      <trkpt lat="48.21634" lon="-3.93512">
        <ele>91.4</ele>
        <time>2020-06-08T11:13:09Z</time>
      </trkpt>
      <trkpt lat="48.21633" lon="-3.93517">
        <ele>91.5</ele>
        <time>2020-06-08T11:13:10Z</time>
      </trkpt>
      <trkpt lat="48.2163" lon="-3.93522">
        <ele>91.7</ele>
        <time>2020-06-08T11:13:11Z</time>
      </trkpt>
      <trkpt lat="48.21629" lon="-3.93527">
        <ele>91.8</ele>
        <time>2020-06-08T11:13:12Z</time>
      </trkpt>
      <trkpt lat="48.21628" lon="-3.93532">
        <ele>91.9</ele>
        <time>2020-06-08T11:13:13Z</time>
      </trkpt>
      <trkpt lat="48.21626" lon="-3.93537">
        <ele>92</ele>
        <time>2020-06-08T11:13:14Z</time>
      </trkpt>
      <trkpt lat="48.21624" lon="-3.93543">
        <ele>92.2</ele>
        <time>2020-06-08T11:13:15Z</time>
      </trkpt>
      <trkpt lat="48.21623" lon="-3.93548">
        <ele>92.4</ele>
        <time>2020-06-08T11:13:16Z</time>
      </trkpt>
      <trkpt lat="48.21622" lon="-3.93553">
        <ele>92.5</ele>
        <time>2020-06-08T11:13:17Z</time>
      </trkpt>
      <trkpt lat="48.2162" lon="-3.9356">
        <ele>92.7</ele>
        <time>2020-06-08T11:13:18Z</time>
      </trkpt>
      <trkpt lat="48.21619" lon="-3.93565">
        <ele>93</ele>
        <time>2020-06-08T11:13:19Z</time>
      </trkpt>
      <trkpt lat="48.21619" lon="-3.93571">
        <ele>93.2</ele>
        <time>2020-06-08T11:13:20Z</time>
      </trkpt>
      <trkpt lat="48.21618" lon="-3.93577">
        <ele>93.4</ele>
        <time>2020-06-08T11:13:21Z</time>
      </trkpt>
      <trkpt lat="48.21618" lon="-3.93583">
        <ele>93.6</ele>
        <time>2020-06-08T11:13:22Z</time>
      </trkpt>
      <trkpt lat="48.21618" lon="-3.93588">
        <ele>93.7</ele>
        <time>2020-06-08T11:13:23Z</time>
      </trkpt>
      <trkpt lat="48.21618" lon="-3.93593">
        <ele>93.9</ele>
        <time>2020-06-08T11:13:24Z</time>
      </trkpt>
      <trkpt lat="48.21617" lon="-3.93598">
        <ele>94</ele>
        <time>2020-06-08T11:13:25Z</time>
      </trkpt>
      <trkpt lat="48.21617" lon="-3.93603">
        <ele>94.2</ele>
        <time>2020-06-08T11:13:26Z</time>
      </trkpt>
      <trkpt lat="48.21618" lon="-3.93608">
        <ele>94.3</ele>
        <time>2020-06-08T11:13:27Z</time>
      </trkpt>
      <trkpt lat="48.21619" lon="-3.93614">
        <ele>94.6</ele>
        <time>2020-06-08T11:13:28Z</time>
      </trkpt>
      <trkpt lat="48.21619" lon="-3.93619">
        <ele>94.8</ele>
        <time>2020-06-08T11:13:29Z</time>
      </trkpt>
      <trkpt lat="48.2162" lon="-3.93623">
        <ele>94.9</ele>
        <time>2020-06-08T11:13:30Z</time>
      </trkpt>
      <trkpt lat="48.21621" lon="-3.93628">
        <ele>95.2</ele>
        <time>2020-06-08T11:13:31Z</time>
      </trkpt>
      <trkpt lat="48.21621" lon="-3.93634">
        <ele>95.4</ele>
        <time>2020-06-08T11:13:32Z</time>
      </trkpt>
      <trkpt lat="48.21622" lon="-3.93637">
        <ele>95.5</ele>
        <time>2020-06-08T11:13:33Z</time>
      </trkpt>
      <trkpt lat="48.21623" lon="-3.93641">
        <ele>95.6</ele>
        <time>2020-06-08T11:13:34Z</time>
      </trkpt>
      <trkpt lat="48.21623" lon="-3.93646">
        <ele>95.8</ele>
        <time>2020-06-08T11:13:35Z</time>
      </trkpt>
      <trkpt lat="48.21625" lon="-3.93652">
        <ele>96</ele>
        <time>2020-06-08T11:13:36Z</time>
      </trkpt>
      <trkpt lat="48.21625" lon="-3.93656">
        <ele>96.2</ele>
        <time>2020-06-08T11:13:37Z</time>
      </trkpt>
      <trkpt lat="48.21625" lon="-3.93662">
        <ele>96.4</ele>
        <time>2020-06-08T11:13:38Z</time>
      </trkpt>
      <trkpt lat="48.21626" lon="-3.93664">
        <ele>96.5</ele>
        <time>2020-06-08T11:13:39Z</time>
      </trkpt>
      <trkpt lat="48.21627" lon="-3.9367">
        <ele>96.7</ele>
        <time>2020-06-08T11:13:40Z</time>
      </trkpt>
      <trkpt lat="48.21628" lon="-3.93674">
        <ele>96.8</ele>
        <time>2020-06-08T11:13:41Z</time>
      </trkpt>
      <trkpt lat="48.2163" lon="-3.93678">
        <ele>97</ele>
        <time>2020-06-08T11:13:42Z</time>
      </trkpt>
      <trkpt lat="48.21631" lon="-3.93682">
        <ele>97.1</ele>
        <time>2020-06-08T11:13:43Z</time>
      </trkpt>
      <trkpt lat="48.21633" lon="-3.93687">
        <ele>97.3</ele>
        <time>2020-06-08T11:13:44Z</time>
      </trkpt>
      <trkpt lat="48.21634" lon="-3.93692">
        <ele>97.5</ele>
        <time>2020-06-08T11:13:45Z</time>
      </trkpt>
      <trkpt lat="48.21636" lon="-3.93697">
        <ele>97.7</ele>
        <time>2020-06-08T11:13:46Z</time>
      </trkpt>
      <trkpt lat="48.21637" lon="-3.937">
        <ele>97.8</ele>
        <time>2020-06-08T11:13:47Z</time>
      </trkpt>
      <trkpt lat="48.21639" lon="-3.93704">
        <ele>98</ele>
        <time>2020-06-08T11:13:48Z</time>
      </trkpt>
      <trkpt lat="48.2164" lon="-3.93709">
        <ele>98.2</ele>
        <time>2020-06-08T11:13:49Z</time>
      </trkpt>
      <trkpt lat="48.21641" lon="-3.93714">
        <ele>98.4</ele>
        <time>2020-06-08T11:13:50Z</time>
      </trkpt>
      <trkpt lat="48.21643" lon="-3.93718">
        <ele>98.6</ele>
        <time>2020-06-08T11:13:51Z</time>
      </trkpt>
      <trkpt lat="48.21643" lon="-3.93723">
        <ele>98.8</ele>
        <time>2020-06-08T11:13:52Z</time>
      </trkpt>
      <trkpt lat="48.21645" lon="-3.93727">
        <ele>98.9</ele>
        <time>2020-06-08T11:13:53Z</time>
      </trkpt>
      <trkpt lat="48.21646" lon="-3.93731">
        <ele>99.1</ele>
        <time>2020-06-08T11:13:54Z</time>
      </trkpt>
      <trkpt lat="48.21648" lon="-3.93735">
        <ele>99.2</ele>
        <time>2020-06-08T11:13:55Z</time>
      </trkpt>
      <trkpt lat="48.2165" lon="-3.93738">
        <ele>99.4</ele>
        <time>2020-06-08T11:13:56Z</time>
      </trkpt>
      <trkpt lat="48.21653" lon="-3.93742">
        <ele>99.5</ele>
        <time>2020-06-08T11:13:57Z</time>
      </trkpt>
      <trkpt lat="48.21655" lon="-3.93745">
        <ele>99.7</ele>
        <time>2020-06-08T11:13:58Z</time>
      </trkpt>
      <trkpt lat="48.21657" lon="-3.93749">
        <ele>99.9</ele>
        <time>2020-06-08T11:13:59Z</time>
      </trkpt>
      <trkpt lat="48.2166" lon="-3.93752">
        <ele>100</ele>
        <time>2020-06-08T11:14:00Z</time>
      </trkpt>
      <trkpt lat="48.21663" lon="-3.93756">
        <ele>100.2</ele>
        <time>2020-06-08T11:14:01Z</time>
      </trkpt>
      <trkpt lat="48.21666" lon="-3.93756">
        <ele>100.4</ele>
        <time>2020-06-08T11:14:02Z</time>
      </trkpt>
      <trkpt lat="48.21668" lon="-3.93759">
        <ele>100.5</ele>
        <time>2020-06-08T11:14:03Z</time>
      </trkpt>
      <trkpt lat="48.2167" lon="-3.93762">
        <ele>100.6</ele>
        <time>2020-06-08T11:14:04Z</time>
      </trkpt>
      <trkpt lat="48.21672" lon="-3.93765">
        <ele>100.7</ele>
        <time>2020-06-08T11:14:05Z</time>
      </trkpt>
      <trkpt lat="48.21674" lon="-3.93768">
        <ele>100.9</ele>
        <time>2020-06-08T11:14:06Z</time>
      </trkpt>
      <trkpt lat="48.21676" lon="-3.93772">
        <ele>101</ele>
        <time>2020-06-08T11:14:07Z</time>
      </trkpt>
      <trkpt lat="48.21677" lon="-3.93774">
        <ele>101.1</ele>
        <time>2020-06-08T11:14:08Z</time>
      </trkpt>
      <trkpt lat="48.2168" lon="-3.93778">
        <ele>101.2</ele>
        <time>2020-06-08T11:14:09Z</time>
      </trkpt>
      <trkpt lat="48.21681" lon="-3.9378">
        <ele>101.3</ele>
        <time>2020-06-08T11:14:10Z</time>
      </trkpt>
      <trkpt lat="48.21685" lon="-3.93783">
        <ele>101.5</ele>
        <time>2020-06-08T11:14:11Z</time>
      </trkpt>
      <trkpt lat="48.21686" lon="-3.93784">
        <ele>101.5</ele>
        <time>2020-06-08T11:14:12Z</time>
      </trkpt>
      <trkpt lat="48.21688" lon="-3.93787">
        <ele>101.7</ele>
        <time>2020-06-08T11:14:13Z</time>
      </trkpt>
      <trkpt lat="48.21691" lon="-3.93788">
        <ele>101.8</ele>
        <time>2020-06-08T11:14:14Z</time>
      </trkpt>
      <trkpt lat="48.21694" lon="-3.93792">
        <ele>101.9</ele>
        <time>2020-06-08T11:14:15Z</time>
      </trkpt>
      <trkpt lat="48.21697" lon="-3.93793">
        <ele>102.1</ele>
        <time>2020-06-08T11:14:16Z</time>
      </trkpt>
      <trkpt lat="48.21698" lon="-3.93795">
        <ele>102.1</ele>
        <time>2020-06-08T11:14:17Z</time>
      </trkpt>
      <trkpt lat="48.21701" lon="-3.93797">
        <ele>102.2</ele>
        <time>2020-06-08T11:14:18Z</time>
      </trkpt>
      <trkpt lat="48.21702" lon="-3.93798">
        <ele>102.3</ele>
        <time>2020-06-08T11:14:19Z</time>
      </trkpt>
      <trkpt lat="48.21705" lon="-3.93801">
        <ele>102.4</ele>
        <time>2020-06-08T11:14:20Z</time>
      </trkpt>
      <trkpt lat="48.21706" lon="-3.93803">
        <ele>102.5</ele>
        <time>2020-06-08T11:14:21Z</time>
      </trkpt>
      <trkpt lat="48.21709" lon="-3.93806">
        <ele>102.6</ele>
        <time>2020-06-08T11:14:22Z</time>
      </trkpt>
      <trkpt lat="48.2171" lon="-3.93807">
        <ele>102.7</ele>
        <time>2020-06-08T11:14:23Z</time>
      </trkpt>
      <trkpt lat="48.21714" lon="-3.9381">
        <ele>102.9</ele>
        <time>2020-06-08T11:14:24Z</time>
      </trkpt>
      <trkpt lat="48.21714" lon="-3.93811">
        <ele>102.9</ele>
        <time>2020-06-08T11:14:25Z</time>
      </trkpt>
      <trkpt lat="48.21717" lon="-3.93814">
        <ele>103.1</ele>
        <time>2020-06-08T11:14:26Z</time>
      </trkpt>
      <trkpt lat="48.21719" lon="-3.93817">
        <ele>103.2</ele>
        <time>2020-06-08T11:14:27Z</time>
      </trkpt>
      <trkpt lat="48.21721" lon="-3.9382">
        <ele>103.4</ele>
        <time>2020-06-08T11:14:28Z</time>
      </trkpt>
      <trkpt lat="48.21724" lon="-3.93823">
        <ele>103.5</ele>
        <time>2020-06-08T11:14:29Z</time>
      </trkpt>
      <trkpt lat="48.21727" lon="-3.93825">
        <ele>103.6</ele>
        <time>2020-06-08T11:14:30Z</time>
      </trkpt>
      <trkpt lat="48.21729" lon="-3.93828">
        <ele>103.8</ele>
        <time>2020-06-08T11:14:31Z</time>
      </trkpt>
      <trkpt lat="48.21732" lon="-3.93831">
        <ele>103.9</ele>
        <time>2020-06-08T11:14:32Z</time>
      </trkpt>
      <trkpt lat="48.21735" lon="-3.93835">
        <ele>104.1</ele>
        <time>2020-06-08T11:14:33Z</time>
      </trkpt>
      <trkpt lat="48.21736" lon="-3.93836">
        <ele>104.1</ele>
        <time>2020-06-08T11:14:34Z</time>
      </trkpt>
      <trkpt lat="48.21739" lon="-3.9384">
        <ele>104.3</ele>
        <time>2020-06-08T11:14:35Z</time>
      </trkpt>
      <trkpt lat="48.2174" lon="-3.93842">
        <ele>104.3</ele>
        <time>2020-06-08T11:14:36Z</time>
      </trkpt>
      <trkpt lat="48.21742" lon="-3.93845">
        <ele>104.5</ele>
        <time>2020-06-08T11:14:37Z</time>
      </trkpt>
      <trkpt lat="48.21745" lon="-3.93849">
        <ele>104.6</ele>
        <time>2020-06-08T11:14:38Z</time>
      </trkpt>
      <trkpt lat="48.21747" lon="-3.93852">
        <ele>104.6</ele>
        <time>2020-06-08T11:14:39Z</time>
      </trkpt>
      <trkpt lat="48.21749" lon="-3.93855">
        <ele>104.7</ele>
        <time>2020-06-08T11:14:40Z</time>
      </trkpt>
      <trkpt lat="48.21751" lon="-3.93858">
        <ele>104.8</ele>
        <time>2020-06-08T11:14:41Z</time>
      </trkpt>
      <trkpt lat="48.21753" lon="-3.93861">
        <ele>104.9</ele>
        <time>2020-06-08T11:14:42Z</time>
      </trkpt>
      <trkpt lat="48.21755" lon="-3.93865">
        <ele>105</ele>
        <time>2020-06-08T11:14:43Z</time>
      </trkpt>
      <trkpt lat="48.21757" lon="-3.93868">
        <ele>105.1</ele>
        <time>2020-06-08T11:14:44Z</time>
      </trkpt>
      <trkpt lat="48.2176" lon="-3.9387">
        <ele>105.2</ele>
        <time>2020-06-08T11:14:45Z</time>
      </trkpt>
      <trkpt lat="48.21763" lon="-3.93874">
        <ele>105.3</ele>
        <time>2020-06-08T11:14:46Z</time>
      </trkpt>
      <trkpt lat="48.21764" lon="-3.93875">
        <ele>105.3</ele>
        <time>2020-06-08T11:14:47Z</time>
      </trkpt>
      <trkpt lat="48.21767" lon="-3.93878">
        <ele>105.4</ele>
        <time>2020-06-08T11:14:48Z</time>
      </trkpt>
      <trkpt lat="48.21769" lon="-3.9388">
        <ele>105.4</ele>
        <time>2020-06-08T11:14:49Z</time>
      </trkpt>
      <trkpt lat="48.21772" lon="-3.93883">
        <ele>105.5</ele>
        <time>2020-06-08T11:14:50Z</time>
      </trkpt>
      <trkpt lat="48.21777" lon="-3.93884">
        <ele>105.6</ele>
        <time>2020-06-08T11:14:51Z</time>
      </trkpt>
      <trkpt lat="48.21779" lon="-3.93885">
        <ele>105.7</ele>
        <time>2020-06-08T11:14:52Z</time>
      </trkpt>
      <trkpt lat="48.21782" lon="-3.93886">
        <ele>105.8</ele>
        <time>2020-06-08T11:14:53Z</time>
      </trkpt>
      <trkpt lat="48.21785" lon="-3.93887">
        <ele>105.9</ele>
        <time>2020-06-08T11:14:54Z</time>
      </trkpt>
      <trkpt lat="48.21789" lon="-3.93889">
        <ele>106</ele>
        <time>2020-06-08T11:14:55Z</time>
      </trkpt>
      <trkpt lat="48.21791" lon="-3.93889">
        <ele>106</ele>
        <time>2020-06-08T11:14:56Z</time>
      </trkpt>
      <trkpt lat="48.21794" lon="-3.9389">
        <ele>106.1</ele>
        <time>2020-06-08T11:14:57Z</time>
      </trkpt>
      <trkpt lat="48.21798" lon="-3.9389">
        <ele>106.2</ele>
        <time>2020-06-08T11:14:58Z</time>
      </trkpt>
      <trkpt lat="48.21798" lon="-3.9389">
        <ele>106.3</ele>
        <time>2020-06-08T11:14:59Z</time>
      </trkpt>
      <trkpt lat="48.21801" lon="-3.93893">
        <ele>106.3</ele>
        <time>2020-06-08T11:15:00Z</time>
      </trkpt>
      <trkpt lat="48.21801" lon="-3.93893">
        <ele>106.4</ele>
        <time>2020-06-08T11:15:01Z</time>
      </trkpt>
      <trkpt lat="48.21805" lon="-3.93893">
        <ele>106.4</ele>
        <time>2020-06-08T11:15:02Z</time>
      </trkpt>
      <trkpt lat="48.21806" lon="-3.93893">
        <ele>106.5</ele>
        <time>2020-06-08T11:15:03Z</time>
      </trkpt>
      <trkpt lat="48.21809" lon="-3.93894">
        <ele>106.6</ele>
        <time>2020-06-08T11:15:04Z</time>
      </trkpt>
      <trkpt lat="48.21812" lon="-3.93895">
        <ele>106.7</ele>
        <time>2020-06-08T11:15:05Z</time>
      </trkpt>
      <trkpt lat="48.21815" lon="-3.93897">
        <ele>106.8</ele>
        <time>2020-06-08T11:15:06Z</time>
      </trkpt>
      <trkpt lat="48.21816" lon="-3.93897">
        <ele>106.9</ele>
        <time>2020-06-08T11:15:07Z</time>
      </trkpt>
      <trkpt lat="48.2182" lon="-3.93897">
        <ele>107</ele>
        <time>2020-06-08T11:15:08Z</time>
      </trkpt>
      <trkpt lat="48.21821" lon="-3.93898">
        <ele>107.1</ele>
        <time>2020-06-08T11:15:09Z</time>
      </trkpt>
      <trkpt lat="48.21825" lon="-3.93898">
        <ele>107.2</ele>
        <time>2020-06-08T11:15:10Z</time>
      </trkpt>
      <trkpt lat="48.21826" lon="-3.93898">
        <ele>107.3</ele>
        <time>2020-06-08T11:15:11Z</time>
      </trkpt>
      <trkpt lat="48.2183" lon="-3.93895">
        <ele>107.4</ele>
        <time>2020-06-08T11:15:12Z</time>
      </trkpt>
      <trkpt lat="48.21833" lon="-3.93895">
        <ele>107.5</ele>
        <time>2020-06-08T11:15:13Z</time>
      </trkpt>
      <trkpt lat="48.21834" lon="-3.93895">
        <ele>107.6</ele>
        <time>2020-06-08T11:15:14Z</time>
      </trkpt>
      <trkpt lat="48.21837" lon="-3.93895">
        <ele>107.7</ele>
        <time>2020-06-08T11:15:15Z</time>
      </trkpt>
      <trkpt lat="48.21841" lon="-3.93895">
        <ele>107.9</ele>
        <time>2020-06-08T11:15:16Z</time>
      </trkpt>
      <trkpt lat="48.21842" lon="-3.93895">
        <ele>107.9</ele>
        <time>2020-06-08T11:15:17Z</time>
      </trkpt>
      <trkpt lat="48.21846" lon="-3.93895">
        <ele>108.1</ele>
        <time>2020-06-08T11:15:18Z</time>
      </trkpt>
      <trkpt lat="48.21848" lon="-3.93894">
        <ele>108.1</ele>
        <time>2020-06-08T11:15:19Z</time>
      </trkpt>
      <trkpt lat="48.21851" lon="-3.93895">
        <ele>108.3</ele>
        <time>2020-06-08T11:15:20Z</time>
      </trkpt>
      <trkpt lat="48.21855" lon="-3.93895">
        <ele>108.4</ele>
        <time>2020-06-08T11:15:21Z</time>
      </trkpt>
      <trkpt lat="48.21857" lon="-3.93895">
        <ele>108.5</ele>
        <time>2020-06-08T11:15:22Z</time>
      </trkpt>
      <trkpt lat="48.2186" lon="-3.93895">
        <ele>108.6</ele>
        <time>2020-06-08T11:15:23Z</time>
      </trkpt>
      <trkpt lat="48.21863" lon="-3.93895">
        <ele>108.8</ele>
        <time>2020-06-08T11:15:24Z</time>
      </trkpt>
      <trkpt lat="48.21867" lon="-3.93897">
        <ele>109</ele>
        <time>2020-06-08T11:15:25Z</time>
      </trkpt>
      <trkpt lat="48.21869" lon="-3.93898">
        <ele>109.1</ele>
        <time>2020-06-08T11:15:26Z</time>
      </trkpt>
      <trkpt lat="48.21872" lon="-3.93898">
        <ele>109.2</ele>
        <time>2020-06-08T11:15:27Z</time>
      </trkpt>
      <trkpt lat="48.21874" lon="-3.93898">
        <ele>109.4</ele>
        <time>2020-06-08T11:15:28Z</time>
      </trkpt>
      <trkpt lat="48.21878" lon="-3.93898">
        <ele>109.6</ele>
        <time>2020-06-08T11:15:29Z</time>
      </trkpt>
      <trkpt lat="48.21879" lon="-3.93898">
        <ele>109.7</ele>
        <time>2020-06-08T11:15:30Z</time>
      </trkpt>
      <trkpt lat="48.21883" lon="-3.93898">
        <ele>109.9</ele>
        <time>2020-06-08T11:15:31Z</time>
      </trkpt>
      <trkpt lat="48.21885" lon="-3.93898">
        <ele>110</ele>
        <time>2020-06-08T11:15:32Z</time>
      </trkpt>
      <trkpt lat="48.21888" lon="-3.93899">
        <ele>110.1</ele>
        <time>2020-06-08T11:15:33Z</time>
      </trkpt>
      <trkpt lat="48.21891" lon="-3.939">
        <ele>110.3</ele>
        <time>2020-06-08T11:15:34Z</time>
      </trkpt>
      <trkpt lat="48.21894" lon="-3.939">
        <ele>110.5</ele>
        <time>2020-06-08T11:15:35Z</time>
      </trkpt>
      <trkpt lat="48.21896" lon="-3.93903">
        <ele>110.7</ele>
        <time>2020-06-08T11:15:36Z</time>
      </trkpt>
      <trkpt lat="48.21899" lon="-3.93904">
        <ele>110.8</ele>
        <time>2020-06-08T11:15:37Z</time>
      </trkpt>
      <trkpt lat="48.21902" lon="-3.93905">
        <ele>111</ele>
        <time>2020-06-08T11:15:38Z</time>
      </trkpt>
      <trkpt lat="48.21904" lon="-3.93905">
        <ele>111.2</ele>
        <time>2020-06-08T11:15:39Z</time>
      </trkpt>
      <trkpt lat="48.21907" lon="-3.93906">
        <ele>111.3</ele>
        <time>2020-06-08T11:15:40Z</time>
      </trkpt>
      <trkpt lat="48.2191" lon="-3.93907">
        <ele>111.5</ele>
        <time>2020-06-08T11:15:41Z</time>
      </trkpt>
      <trkpt lat="48.21913" lon="-3.93909">
        <ele>111.7</ele>
        <time>2020-06-08T11:15:42Z</time>
      </trkpt>
      <trkpt lat="48.21916" lon="-3.93911">
        <ele>111.9</ele>
        <time>2020-06-08T11:15:43Z</time>
      </trkpt>
      <trkpt lat="48.21919" lon="-3.93914">
        <ele>112</ele>
        <time>2020-06-08T11:15:44Z</time>
      </trkpt>
      <trkpt lat="48.2192" lon="-3.93915">
        <ele>112.1</ele>
        <time>2020-06-08T11:15:45Z</time>
      </trkpt>
      <trkpt lat="48.21924" lon="-3.93916">
        <ele>112.3</ele>
        <time>2020-06-08T11:15:46Z</time>
      </trkpt>
      <trkpt lat="48.21925" lon="-3.93917">
        <ele>112.4</ele>
        <time>2020-06-08T11:15:47Z</time>
      </trkpt>
      <trkpt lat="48.21929" lon="-3.93919">
        <ele>112.6</ele>
        <time>2020-06-08T11:15:48Z</time>
      </trkpt>
      <trkpt lat="48.2193" lon="-3.9392">
        <ele>112.6</ele>
        <time>2020-06-08T11:15:49Z</time>
      </trkpt>
      <trkpt lat="48.21933" lon="-3.93923">
        <ele>112.9</ele>
        <time>2020-06-08T11:15:50Z</time>
      </trkpt>
      <trkpt lat="48.21934" lon="-3.93924">
        <ele>112.9</ele>
        <time>2020-06-08T11:15:51Z</time>
      </trkpt>
      <trkpt lat="48.21937" lon="-3.93928">
        <ele>113.2</ele>
        <time>2020-06-08T11:15:52Z</time>
      </trkpt>
      <trkpt lat="48.21938" lon="-3.9393">
        <ele>113.2</ele>
        <time>2020-06-08T11:15:53Z</time>
      </trkpt>
      <trkpt lat="48.2194" lon="-3.93934">
        <ele>113.4</ele>
        <time>2020-06-08T11:15:54Z</time>
      </trkpt>
      <trkpt lat="48.21943" lon="-3.93938">
        <ele>113.6</ele>
        <time>2020-06-08T11:15:55Z</time>
      </trkpt>
      <trkpt lat="48.21944" lon="-3.9394">
        <ele>113.7</ele>
        <time>2020-06-08T11:15:56Z</time>
      </trkpt>
      <trkpt lat="48.21947" lon="-3.93943">
        <ele>113.9</ele>
        <time>2020-06-08T11:15:57Z</time>
      </trkpt>
      <trkpt lat="48.21949" lon="-3.93945">
        <ele>114</ele>
        <time>2020-06-08T11:15:58Z</time>
      </trkpt>
      <trkpt lat="48.21952" lon="-3.93947">
        <ele>114.2</ele>
        <time>2020-06-08T11:15:59Z</time>
      </trkpt>
      <trkpt lat="48.21954" lon="-3.9395">
        <ele>114.4</ele>
        <time>2020-06-08T11:16:00Z</time>
      </trkpt>
      <trkpt lat="48.21957" lon="-3.93953">
        <ele>114.6</ele>
        <time>2020-06-08T11:16:01Z</time>
      </trkpt>
      <trkpt lat="48.21959" lon="-3.93957">
        <ele>114.8</ele>
        <time>2020-06-08T11:16:02Z</time>
      </trkpt>
      <trkpt lat="48.21961" lon="-3.9396">
        <ele>115</ele>
        <time>2020-06-08T11:16:03Z</time>
      </trkpt>
      <trkpt lat="48.21964" lon="-3.93962">
        <ele>115.2</ele>
        <time>2020-06-08T11:16:04Z</time>
      </trkpt>
      <trkpt lat="48.21966" lon="-3.93965">
        <ele>115.4</ele>
        <time>2020-06-08T11:16:05Z</time>
      </trkpt>
      <trkpt lat="48.21969" lon="-3.93968">
        <ele>115.6</ele>
        <time>2020-06-08T11:16:06Z</time>
      </trkpt>
      <trkpt lat="48.21971" lon="-3.9397">
        <ele>115.8</ele>
        <time>2020-06-08T11:16:07Z</time>
      </trkpt>
      <trkpt lat="48.21973" lon="-3.93974">
        <ele>116</ele>
        <time>2020-06-08T11:16:08Z</time>
      </trkpt>
      <trkpt lat="48.21976" lon="-3.93978">
        <ele>116.2</ele>
        <time>2020-06-08T11:16:09Z</time>
      </trkpt>
      <trkpt lat="48.21978" lon="-3.93979">
        <ele>116.3</ele>
        <time>2020-06-08T11:16:10Z</time>
      </trkpt>
      <trkpt lat="48.2198" lon="-3.93981">
        <ele>116.5</ele>
        <time>2020-06-08T11:16:11Z</time>
      </trkpt>
      <trkpt lat="48.21983" lon="-3.93983">
        <ele>116.6</ele>
        <time>2020-06-08T11:16:12Z</time>
      </trkpt>
      <trkpt lat="48.21985" lon="-3.93985">
        <ele>116.8</ele>
        <time>2020-06-08T11:16:13Z</time>
      </trkpt>
      <trkpt lat="48.21988" lon="-3.93988">
        <ele>116.9</ele>
        <time>2020-06-08T11:16:14Z</time>
      </trkpt>
      <trkpt lat="48.2199" lon="-3.93993">
        <ele>117.2</ele>
        <time>2020-06-08T11:16:15Z</time>
      </trkpt>
      <trkpt lat="48.21993" lon="-3.93996">
        <ele>117.4</ele>
        <time>2020-06-08T11:16:16Z</time>
      </trkpt>
      <trkpt lat="48.21996" lon="-3.93999">
        <ele>117.6</ele>
        <time>2020-06-08T11:16:17Z</time>
      </trkpt>
      <trkpt lat="48.21998" lon="-3.94002">
        <ele>117.7</ele>
        <time>2020-06-08T11:16:18Z</time>
      </trkpt>
      <trkpt lat="48.22" lon="-3.94005">
        <ele>117.9</ele>
        <time>2020-06-08T11:16:19Z</time>
      </trkpt>
      <trkpt lat="48.22004" lon="-3.94008">
        <ele>118.1</ele>
        <time>2020-06-08T11:16:20Z</time>
      </trkpt>
      <trkpt lat="48.22005" lon="-3.9401">
        <ele>118.2</ele>
        <time>2020-06-08T11:16:21Z</time>
      </trkpt>
      <trkpt lat="48.22008" lon="-3.94014">
        <ele>118.4</ele>
        <time>2020-06-08T11:16:22Z</time>
      </trkpt>
      <trkpt lat="48.22009" lon="-3.94016">
        <ele>118.5</ele>
        <time>2020-06-08T11:16:23Z</time>
      </trkpt>
      <trkpt lat="48.22012" lon="-3.94019">
        <ele>118.7</ele>
        <time>2020-06-08T11:16:24Z</time>
      </trkpt>
      <trkpt lat="48.22013" lon="-3.94019">
        <ele>118.8</ele>
        <time>2020-06-08T11:16:25Z</time>
      </trkpt>
      <trkpt lat="48.22015" lon="-3.94022">
        <ele>119</ele>
        <time>2020-06-08T11:16:26Z</time>
      </trkpt>
      <trkpt lat="48.22018" lon="-3.94025">
        <ele>119.1</ele>
        <time>2020-06-08T11:16:27Z</time>
      </trkpt>
      <trkpt lat="48.2202" lon="-3.94028">
        <ele>119.3</ele>
        <time>2020-06-08T11:16:28Z</time>
      </trkpt>
      <trkpt lat="48.22023" lon="-3.94031">
        <ele>119.5</ele>
        <time>2020-06-08T11:16:29Z</time>
      </trkpt>
      <trkpt lat="48.22026" lon="-3.94034">
        <ele>119.6</ele>
        <time>2020-06-08T11:16:30Z</time>
      </trkpt>
      <trkpt lat="48.22028" lon="-3.94036">
        <ele>119.8</ele>
        <time>2020-06-08T11:16:31Z</time>
      </trkpt>
      <trkpt lat="48.22032" lon="-3.9404">
        <ele>120</ele>
        <time>2020-06-08T11:16:32Z</time>
      </trkpt>
      <trkpt lat="48.22033" lon="-3.94043">
        <ele>120.1</ele>
        <time>2020-06-08T11:16:33Z</time>
      </trkpt>
      <trkpt lat="48.22037" lon="-3.94045">
        <ele>120.3</ele>
        <time>2020-06-08T11:16:34Z</time>
      </trkpt>
      <trkpt lat="48.2204" lon="-3.94049">
        <ele>120.4</ele>
        <time>2020-06-08T11:16:35Z</time>
      </trkpt>
      <trkpt lat="48.22042" lon="-3.94052">
        <ele>120.6</ele>
        <time>2020-06-08T11:16:36Z</time>
      </trkpt>
      <trkpt lat="48.22045" lon="-3.94055">
        <ele>120.7</ele>
        <time>2020-06-08T11:16:37Z</time>
      </trkpt>
      <trkpt lat="48.22046" lon="-3.9406">
        <ele>120.8</ele>
        <time>2020-06-08T11:16:38Z</time>
      </trkpt>
      <trkpt lat="48.2205" lon="-3.9406">
        <ele>121</ele>
        <time>2020-06-08T11:16:39Z</time>
      </trkpt>
      <trkpt lat="48.22052" lon="-3.94064">
        <ele>121.1</ele>
        <time>2020-06-08T11:16:40Z</time>
      </trkpt>
      <trkpt lat="48.22056" lon="-3.94066">
        <ele>121.3</ele>
        <time>2020-06-08T11:16:41Z</time>
      </trkpt>
      <trkpt lat="48.22058" lon="-3.94069">
        <ele>121.4</ele>
        <time>2020-06-08T11:16:42Z</time>
      </trkpt>
      <trkpt lat="48.22061" lon="-3.94072">
        <ele>121.5</ele>
        <time>2020-06-08T11:16:43Z</time>
      </trkpt>
      <trkpt lat="48.22065" lon="-3.94076">
        <ele>121.7</ele>
        <time>2020-06-08T11:16:44Z</time>
      </trkpt>
      <trkpt lat="48.22068" lon="-3.94079">
        <ele>121.8</ele>
        <time>2020-06-08T11:16:45Z</time>
      </trkpt>
      <trkpt lat="48.22071" lon="-3.94082">
        <ele>122</ele>
        <time>2020-06-08T11:16:46Z</time>
      </trkpt>
      <trkpt lat="48.22073" lon="-3.94084">
        <ele>122.1</ele>
        <time>2020-06-08T11:16:47Z</time>
      </trkpt>
      <trkpt lat="48.22076" lon="-3.94087">
        <ele>122.2</ele>
        <time>2020-06-08T11:16:48Z</time>
      </trkpt>
      <trkpt lat="48.22077" lon="-3.94088">
        <ele>122.2</ele>
        <time>2020-06-08T11:16:49Z</time>
      </trkpt>
      <trkpt lat="48.2208" lon="-3.9409">
        <ele>122.3</ele>
        <time>2020-06-08T11:16:50Z</time>
      </trkpt>
      <trkpt lat="48.22082" lon="-3.94091">
        <ele>122.4</ele>
        <time>2020-06-08T11:16:51Z</time>
      </trkpt>
      <trkpt lat="48.22084" lon="-3.94092">
        <ele>122.4</ele>
        <time>2020-06-08T11:16:52Z</time>
      </trkpt>
      <trkpt lat="48.22087" lon="-3.94094">
        <ele>122.5</ele>
        <time>2020-06-08T11:16:53Z</time>
      </trkpt>
      <trkpt lat="48.22091" lon="-3.94096">
        <ele>122.6</ele>
        <time>2020-06-08T11:16:54Z</time>
      </trkpt>
      <trkpt lat="48.22093" lon="-3.94097">
        <ele>122.7</ele>
        <time>2020-06-08T11:16:55Z</time>
      </trkpt>
      <trkpt lat="48.22096" lon="-3.941">
        <ele>122.8</ele>
        <time>2020-06-08T11:16:56Z</time>
      </trkpt>
      <trkpt lat="48.22097" lon="-3.94101">
        <ele>122.8</ele>
        <time>2020-06-08T11:16:57Z</time>
      </trkpt>
      <trkpt lat="48.22101" lon="-3.94102">
        <ele>122.9</ele>
        <time>2020-06-08T11:16:58Z</time>
      </trkpt>
      <trkpt lat="48.22102" lon="-3.94103">
        <ele>123</ele>
        <time>2020-06-08T11:16:59Z</time>
      </trkpt>
      <trkpt lat="48.22104" lon="-3.94106">
        <ele>123</ele>
        <time>2020-06-08T11:17:00Z</time>
      </trkpt>
      <trkpt lat="48.22107" lon="-3.94108">
        <ele>123.1</ele>
        <time>2020-06-08T11:17:01Z</time>
      </trkpt>
      <trkpt lat="48.2211" lon="-3.94109">
        <ele>123.2</ele>
        <time>2020-06-08T11:17:02Z</time>
      </trkpt>
      <trkpt lat="48.22113" lon="-3.94111">
        <ele>123.3</ele>
        <time>2020-06-08T11:17:03Z</time>
      </trkpt>
      <trkpt lat="48.22116" lon="-3.94111">
        <ele>123.4</ele>
        <time>2020-06-08T11:17:04Z</time>
      </trkpt>
      <trkpt lat="48.22119" lon="-3.94111">
        <ele>123.5</ele>
        <time>2020-06-08T11:17:05Z</time>
      </trkpt>
      <trkpt lat="48.22123" lon="-3.94112">
        <ele>123.6</ele>
        <time>2020-06-08T11:17:06Z</time>
      </trkpt>
      <trkpt lat="48.22124" lon="-3.94112">
        <ele>123.6</ele>
        <time>2020-06-08T11:17:07Z</time>
      </trkpt>
      <trkpt lat="48.22127" lon="-3.94113">
        <ele>123.7</ele>
        <time>2020-06-08T11:17:08Z</time>
      </trkpt>
      <trkpt lat="48.2213" lon="-3.94112">
        <ele>123.8</ele>
        <time>2020-06-08T11:17:09Z</time>
      </trkpt>
      <trkpt lat="48.22133" lon="-3.94113">
        <ele>123.8</ele>
        <time>2020-06-08T11:17:10Z</time>
      </trkpt>
      <trkpt lat="48.22136" lon="-3.94113">
        <ele>123.9</ele>
        <time>2020-06-08T11:17:11Z</time>
      </trkpt>
      <trkpt lat="48.22139" lon="-3.94114">
        <ele>124</ele>
        <time>2020-06-08T11:17:12Z</time>
      </trkpt>
      <trkpt lat="48.22142" lon="-3.94115">
        <ele>124</ele>
        <time>2020-06-08T11:17:13Z</time>
      </trkpt>
      <trkpt lat="48.22146" lon="-3.94116">
        <ele>124.1</ele>
        <time>2020-06-08T11:17:14Z</time>
      </trkpt>
      <trkpt lat="48.22149" lon="-3.94117">
        <ele>124.2</ele>
        <time>2020-06-08T11:17:15Z</time>
      </trkpt>
      <trkpt lat="48.22152" lon="-3.94118">
        <ele>124.3</ele>
        <time>2020-06-08T11:17:16Z</time>
      </trkpt>
      <trkpt lat="48.22156" lon="-3.94118">
        <ele>124.4</ele>
        <time>2020-06-08T11:17:17Z</time>
      </trkpt>
      <trkpt lat="48.22159" lon="-3.94119">
        <ele>124.4</ele>
        <time>2020-06-08T11:17:18Z</time>
      </trkpt>
      <trkpt lat="48.22162" lon="-3.94119">
        <ele>124.5</ele>
        <time>2020-06-08T11:17:19Z</time>
      </trkpt>
      <trkpt lat="48.22165" lon="-3.94119">
        <ele>124.6</ele>
        <time>2020-06-08T11:17:20Z</time>
      </trkpt>
      <trkpt lat="48.22168" lon="-3.94119">
        <ele>124.6</ele>
        <time>2020-06-08T11:17:21Z</time>
      </trkpt>
      <trkpt lat="48.22171" lon="-3.9412">
        <ele>124.7</ele>
        <time>2020-06-08T11:17:22Z</time>
      </trkpt>
      <trkpt lat="48.22173" lon="-3.94121">
        <ele>124.7</ele>
        <time>2020-06-08T11:17:23Z</time>
      </trkpt>
      <trkpt lat="48.22177" lon="-3.94121">
        <ele>124.8</ele>
        <time>2020-06-08T11:17:24Z</time>
      </trkpt>
      <trkpt lat="48.22178" lon="-3.9412">
        <ele>124.9</ele>
        <time>2020-06-08T11:17:25Z</time>
      </trkpt>
      <trkpt lat="48.22182" lon="-3.94121">
        <ele>124.9</ele>
        <time>2020-06-08T11:17:26Z</time>
      </trkpt>
      <trkpt lat="48.22185" lon="-3.94122">
        <ele>125</ele>
        <time>2020-06-08T11:17:27Z</time>
      </trkpt>
      <trkpt lat="48.22188" lon="-3.94123">
        <ele>125.1</ele>
        <time>2020-06-08T11:17:28Z</time>
      </trkpt>
      <trkpt lat="48.22193" lon="-3.94124">
        <ele>125.2</ele>
        <time>2020-06-08T11:17:29Z</time>
      </trkpt>
      <trkpt lat="48.22198" lon="-3.94125">
        <ele>125.3</ele>
        <time>2020-06-08T11:17:30Z</time>
      </trkpt>
      <trkpt lat="48.22203" lon="-3.94125">
        <ele>125.4</ele>
        <time>2020-06-08T11:17:31Z</time>
      </trkpt>
      <trkpt lat="48.22206" lon="-3.94126">
        <ele>125.4</ele>
        <time>2020-06-08T11:17:32Z</time>
      </trkpt>
      <trkpt lat="48.2221" lon="-3.94127">
        <ele>125.5</ele>
        <time>2020-06-08T11:17:33Z</time>
      </trkpt>
      <trkpt lat="48.22214" lon="-3.9413">
        <ele>125.6</ele>
        <time>2020-06-08T11:17:34Z</time>
      </trkpt>
      <trkpt lat="48.22218" lon="-3.94131">
        <ele>125.7</ele>
        <time>2020-06-08T11:17:35Z</time>
      </trkpt>
      <trkpt lat="48.22223" lon="-3.94133">
        <ele>125.8</ele>
        <time>2020-06-08T11:17:36Z</time>
      </trkpt>
      <trkpt lat="48.22227" lon="-3.94136">
        <ele>125.9</ele>
        <time>2020-06-08T11:17:37Z</time>
      </trkpt>
      <trkpt lat="48.2223" lon="-3.94138">
        <ele>125.9</ele>
        <time>2020-06-08T11:17:38Z</time>
      </trkpt>
      <trkpt lat="48.22234" lon="-3.9414">
        <ele>126</ele>
        <time>2020-06-08T11:17:39Z</time>
      </trkpt>
      <trkpt lat="48.22237" lon="-3.94143">
        <ele>126.1</ele>
        <time>2020-06-08T11:17:40Z</time>
      </trkpt>
      <trkpt lat="48.22241" lon="-3.94146">
        <ele>126.2</ele>
        <time>2020-06-08T11:17:41Z</time>
      </trkpt>
      <trkpt lat="48.22244" lon="-3.94151">
        <ele>126.3</ele>
        <time>2020-06-08T11:17:42Z</time>
      </trkpt>
      <trkpt lat="48.22247" lon="-3.94154">
        <ele>126.3</ele>
        <time>2020-06-08T11:17:43Z</time>
      </trkpt>
      <trkpt lat="48.2225" lon="-3.94157">
        <ele>126.4</ele>
        <time>2020-06-08T11:17:44Z</time>
      </trkpt>
      <trkpt lat="48.22253" lon="-3.9416">
        <ele>126.4</ele>
        <time>2020-06-08T11:17:45Z</time>
      </trkpt>
      <trkpt lat="48.22256" lon="-3.94163">
        <ele>126.5</ele>
        <time>2020-06-08T11:17:46Z</time>
      </trkpt>
      <trkpt lat="48.22258" lon="-3.94167">
        <ele>126.5</ele>
        <time>2020-06-08T11:17:47Z</time>
      </trkpt>
      <trkpt lat="48.22261" lon="-3.9417">
        <ele>126.6</ele>
        <time>2020-06-08T11:17:48Z</time>
      </trkpt>
      <trkpt lat="48.22265" lon="-3.94173">
        <ele>126.6</ele>
        <time>2020-06-08T11:17:49Z</time>
      </trkpt>
      <trkpt lat="48.22267" lon="-3.94175">
        <ele>126.7</ele>
        <time>2020-06-08T11:17:50Z</time>
      </trkpt>
      <trkpt lat="48.22269" lon="-3.94178">
        <ele>126.7</ele>
        <time>2020-06-08T11:17:51Z</time>
      </trkpt>
      <trkpt lat="48.22272" lon="-3.94182">
        <ele>126.7</ele>
        <time>2020-06-08T11:17:52Z</time>
      </trkpt>
      <trkpt lat="48.22275" lon="-3.94186">
        <ele>126.8</ele>
        <time>2020-06-08T11:17:53Z</time>
      </trkpt>
      <trkpt lat="48.22278" lon="-3.94191">
        <ele>126.8</ele>
        <time>2020-06-08T11:17:54Z</time>
      </trkpt>
      <trkpt lat="48.22279" lon="-3.94195">
        <ele>126.8</ele>
        <time>2020-06-08T11:17:55Z</time>
      </trkpt>
      <trkpt lat="48.22282" lon="-3.94198">
        <ele>126.8</ele>
        <time>2020-06-08T11:17:56Z</time>
      </trkpt>
      <trkpt lat="48.22283" lon="-3.94203">
        <ele>126.8</ele>
        <time>2020-06-08T11:17:57Z</time>
      </trkpt>
      <trkpt lat="48.22285" lon="-3.94208">
        <ele>126.8</ele>
        <time>2020-06-08T11:17:58Z</time>
      </trkpt>
      <trkpt lat="48.22288" lon="-3.94212">
        <ele>126.8</ele>
        <time>2020-06-08T11:17:59Z</time>
      </trkpt>
      <trkpt lat="48.2229" lon="-3.94217">
        <ele>126.8</ele>
        <time>2020-06-08T11:18:00Z</time>
      </trkpt>
      <trkpt lat="48.22291" lon="-3.94221">
        <ele>126.7</ele>
        <time>2020-06-08T11:18:01Z</time>
      </trkpt>
      <trkpt lat="48.22293" lon="-3.94225">
        <ele>126.7</ele>
        <time>2020-06-08T11:18:02Z</time>
      </trkpt>
      <trkpt lat="48.22295" lon="-3.94228">
        <ele>126.6</ele>
        <time>2020-06-08T11:18:03Z</time>
      </trkpt>
      <trkpt lat="48.22298" lon="-3.94232">
        <ele>126.6</ele>
        <time>2020-06-08T11:18:04Z</time>
      </trkpt>
      <trkpt lat="48.22299" lon="-3.94233">
        <ele>126.6</ele>
        <time>2020-06-08T11:18:05Z</time>
      </trkpt>
      <trkpt lat="48.22301" lon="-3.94235">
        <ele>126.5</ele>
        <time>2020-06-08T11:18:06Z</time>
      </trkpt>
      <trkpt lat="48.22302" lon="-3.94236">
        <ele>126.5</ele>
        <time>2020-06-08T11:18:07Z</time>
      </trkpt>
      <trkpt lat="48.22302" lon="-3.94237">
        <ele>126.5</ele>
        <time>2020-06-08T11:18:08Z</time>
      </trkpt>
      <trkpt lat="48.22302" lon="-3.94241">
        <ele>126.5</ele>
        <time>2020-06-08T11:18:09Z</time>
      </trkpt>
      <trkpt lat="48.22303" lon="-3.94242">
        <ele>126.5</ele>
        <time>2020-06-08T11:18:10Z</time>
      </trkpt>
      <trkpt lat="48.22303" lon="-3.94243">
        <ele>126.5</ele>
        <time>2020-06-08T11:18:11Z</time>
      </trkpt>
      <trkpt lat="48.22303" lon="-3.94245">
        <ele>126.5</ele>
        <time>2020-06-08T11:18:12Z</time>
      </trkpt>
      <trkpt lat="48.22303" lon="-3.94246">
        <ele>126.4</ele>
        <time>2020-06-08T11:18:13Z</time>
      </trkpt>
      <trkpt lat="48.22303" lon="-3.94247">
        <ele>126.4</ele>
        <time>2020-06-08T11:18:14Z</time>
      </trkpt>
      <trkpt lat="48.22303" lon="-3.94248">
        <ele>126.4</ele>
        <time>2020-06-08T11:18:15Z</time>
      </trkpt>
      <trkpt lat="48.22303" lon="-3.94249">
        <ele>126.4</ele>
        <time>2020-06-08T11:18:16Z</time>
      </trkpt>
      <trkpt lat="48.22303" lon="-3.94251">
        <ele>126.4</ele>
        <time>2020-06-08T11:18:17Z</time>
      </trkpt>
      <trkpt lat="48.22303" lon="-3.94252">
        <ele>126.4</ele>
        <time>2020-06-08T11:18:18Z</time>
      </trkpt>
      <trkpt lat="48.22303" lon="-3.94253">
        <ele>126.4</ele>
        <time>2020-06-08T11:18:19Z</time>
      </trkpt>
      <trkpt lat="48.22303" lon="-3.94254">
        <ele>126.4</ele>
        <time>2020-06-08T11:18:20Z</time>
      </trkpt>
      <trkpt lat="48.22303" lon="-3.94255">
        <ele>126.4</ele>
        <time>2020-06-08T11:18:21Z</time>
      </trkpt>
      <trkpt lat="48.22303" lon="-3.94256">
        <ele>126.4</ele>
        <time>2020-06-08T11:18:22Z</time>
      </trkpt>
      <trkpt lat="48.22303" lon="-3.94258">
        <ele>126.4</ele>
        <time>2020-06-08T11:18:23Z</time>
      </trkpt>
      <trkpt lat="48.22303" lon="-3.94259">
        <ele>126.4</ele>
        <time>2020-06-08T11:18:59Z</time>
      </trkpt>
      <trkpt lat="48.22303" lon="-3.9426">
        <ele>126.4</ele>
        <time>2020-06-08T11:19:00Z</time>
      </trkpt>
      <trkpt lat="48.22303" lon="-3.94266">
        <ele>126.3</ele>
        <time>2020-06-08T11:19:01Z</time>
      </trkpt>
      <trkpt lat="48.22304" lon="-3.94273">
        <ele>126.3</ele>
        <time>2020-06-08T11:19:02Z</time>
      </trkpt>
      <trkpt lat="48.22304" lon="-3.94279">
        <ele>126.3</ele>
        <time>2020-06-08T11:19:03Z</time>
      </trkpt>
      <trkpt lat="48.22305" lon="-3.94285">
        <ele>126.2</ele>
        <time>2020-06-08T11:19:04Z</time>
      </trkpt>
      <trkpt lat="48.22305" lon="-3.94291">
        <ele>126.2</ele>
        <time>2020-06-08T11:19:05Z</time>
      </trkpt>
      <trkpt lat="48.22306" lon="-3.94297">
        <ele>126.1</ele>
        <time>2020-06-08T11:19:06Z</time>
      </trkpt>
      <trkpt lat="48.22306" lon="-3.94304">
        <ele>126</ele>
        <time>2020-06-08T11:19:07Z</time>
      </trkpt>
      <trkpt lat="48.22306" lon="-3.94311">
        <ele>126</ele>
        <time>2020-06-08T11:19:08Z</time>
      </trkpt>
      <trkpt lat="48.22307" lon="-3.94317">
        <ele>125.9</ele>
        <time>2020-06-08T11:19:09Z</time>
      </trkpt>
      <trkpt lat="48.22307" lon="-3.94322">
        <ele>125.8</ele>
        <time>2020-06-08T11:19:10Z</time>
      </trkpt>
      <trkpt lat="48.22307" lon="-3.94329">
        <ele>125.7</ele>
        <time>2020-06-08T11:19:11Z</time>
      </trkpt>
      <trkpt lat="48.22308" lon="-3.94336">
        <ele>125.6</ele>
        <time>2020-06-08T11:19:12Z</time>
      </trkpt>
      <trkpt lat="48.22308" lon="-3.94343">
        <ele>125.5</ele>
        <time>2020-06-08T11:19:13Z</time>
      </trkpt>
      <trkpt lat="48.22308" lon="-3.94349">
        <ele>125.5</ele>
        <time>2020-06-08T11:19:14Z</time>
      </trkpt>
      <trkpt lat="48.22307" lon="-3.94355">
        <ele>125.4</ele>
        <time>2020-06-08T11:19:15Z</time>
      </trkpt>
      <trkpt lat="48.22308" lon="-3.94363">
        <ele>125.3</ele>
        <time>2020-06-08T11:19:16Z</time>
      </trkpt>
      <trkpt lat="48.22307" lon="-3.94369">
        <ele>125.2</ele>
        <time>2020-06-08T11:19:17Z</time>
      </trkpt>
      <trkpt lat="48.22307" lon="-3.94375">
        <ele>125.2</ele>
        <time>2020-06-08T11:19:18Z</time>
      </trkpt>
      <trkpt lat="48.22307" lon="-3.94382">
        <ele>125.1</ele>
        <time>2020-06-08T11:19:19Z</time>
      </trkpt>
      <trkpt lat="48.22306" lon="-3.9439">
        <ele>125</ele>
        <time>2020-06-08T11:19:20Z</time>
      </trkpt>
      <trkpt lat="48.22306" lon="-3.94398">
        <ele>124.9</ele>
        <time>2020-06-08T11:19:21Z</time>
      </trkpt>
      <trkpt lat="48.22306" lon="-3.94406">
        <ele>124.8</ele>
        <time>2020-06-08T11:19:22Z</time>
      </trkpt>
      <trkpt lat="48.22306" lon="-3.94411">
        <ele>124.7</ele>
        <time>2020-06-08T11:19:23Z</time>
      </trkpt>
      <trkpt lat="48.22307" lon="-3.94418">
        <ele>124.6</ele>
        <time>2020-06-08T11:19:24Z</time>
      </trkpt>
      <trkpt lat="48.22306" lon="-3.94424">
        <ele>124.5</ele>
        <time>2020-06-08T11:19:25Z</time>
      </trkpt>
      <trkpt lat="48.22306" lon="-3.94431">
        <ele>124.4</ele>
        <time>2020-06-08T11:19:26Z</time>
      </trkpt>
      <trkpt lat="48.22306" lon="-3.94437">
        <ele>124.3</ele>
        <time>2020-06-08T11:19:27Z</time>
      </trkpt>
      <trkpt lat="48.22307" lon="-3.94445">
        <ele>124.2</ele>
        <time>2020-06-08T11:19:28Z</time>
      </trkpt>
      <trkpt lat="48.22307" lon="-3.94452">
        <ele>124.1</ele>
        <time>2020-06-08T11:19:29Z</time>
      </trkpt>
      <trkpt lat="48.22307" lon="-3.94459">
        <ele>124</ele>
        <time>2020-06-08T11:19:30Z</time>
      </trkpt>
      <trkpt lat="48.22307" lon="-3.94466">
        <ele>123.9</ele>
        <time>2020-06-08T11:19:31Z</time>
      </trkpt>
      <trkpt lat="48.22308" lon="-3.94473">
        <ele>123.9</ele>
        <time>2020-06-08T11:19:32Z</time>
      </trkpt>
      <trkpt lat="48.22308" lon="-3.9448">
        <ele>123.8</ele>
        <time>2020-06-08T11:19:33Z</time>
      </trkpt>
      <trkpt lat="48.22308" lon="-3.94487">
        <ele>123.7</ele>
        <time>2020-06-08T11:19:34Z</time>
      </trkpt>
      <trkpt lat="48.22308" lon="-3.94494">
        <ele>123.7</ele>
        <time>2020-06-08T11:19:35Z</time>
      </trkpt>
      <trkpt lat="48.22308" lon="-3.94501">
        <ele>123.6</ele>
        <time>2020-06-08T11:19:36Z</time>
      </trkpt>
      <trkpt lat="48.22308" lon="-3.94509">
        <ele>123.5</ele>
        <time>2020-06-08T11:19:37Z</time>
      </trkpt>
      <trkpt lat="48.22306" lon="-3.94516">
        <ele>123.5</ele>
        <time>2020-06-08T11:19:38Z</time>
      </trkpt>
      <trkpt lat="48.22305" lon="-3.94522">
        <ele>123.4</ele>
        <time>2020-06-08T11:19:39Z</time>
      </trkpt>
      <trkpt lat="48.22304" lon="-3.94529">
        <ele>123.3</ele>
        <time>2020-06-08T11:19:40Z</time>
      </trkpt>
      <trkpt lat="48.22302" lon="-3.94536">
        <ele>123.3</ele>
        <time>2020-06-08T11:19:41Z</time>
      </trkpt>
      <trkpt lat="48.22299" lon="-3.94543">
        <ele>123.2</ele>
        <time>2020-06-08T11:19:42Z</time>
      </trkpt>
      <trkpt lat="48.22296" lon="-3.94551">
        <ele>123.1</ele>
        <time>2020-06-08T11:19:43Z</time>
      </trkpt>
      <trkpt lat="48.22294" lon="-3.94558">
        <ele>123.1</ele>
        <time>2020-06-08T11:19:44Z</time>
      </trkpt>
      <trkpt lat="48.22291" lon="-3.94564">
        <ele>123</ele>
        <time>2020-06-08T11:19:45Z</time>
      </trkpt>
      <trkpt lat="48.22287" lon="-3.94571">
        <ele>122.9</ele>
        <time>2020-06-08T11:19:46Z</time>
      </trkpt>
      <trkpt lat="48.22284" lon="-3.94579">
        <ele>122.8</ele>
        <time>2020-06-08T11:19:47Z</time>
      </trkpt>
      <trkpt lat="48.22281" lon="-3.94587">
        <ele>122.8</ele>
        <time>2020-06-08T11:19:48Z</time>
      </trkpt>
      <trkpt lat="48.2228" lon="-3.94595">
        <ele>122.7</ele>
        <time>2020-06-08T11:19:49Z</time>
      </trkpt>
      <trkpt lat="48.22281" lon="-3.94601">
        <ele>122.7</ele>
        <time>2020-06-08T11:19:50Z</time>
      </trkpt>
      <trkpt lat="48.22284" lon="-3.94608">
        <ele>122.6</ele>
        <time>2020-06-08T11:19:51Z</time>
      </trkpt>
      <trkpt lat="48.22288" lon="-3.94613">
        <ele>122.5</ele>
        <time>2020-06-08T11:19:52Z</time>
      </trkpt>
      <trkpt lat="48.22292" lon="-3.94618">
        <ele>122.4</ele>
        <time>2020-06-08T11:19:53Z</time>
      </trkpt>
      <trkpt lat="48.22296" lon="-3.94622">
        <ele>122.3</ele>
        <time>2020-06-08T11:19:54Z</time>
      </trkpt>
      <trkpt lat="48.22299" lon="-3.94626">
        <ele>122.1</ele>
        <time>2020-06-08T11:19:55Z</time>
      </trkpt>
      <trkpt lat="48.22303" lon="-3.9463">
        <ele>122</ele>
        <time>2020-06-08T11:19:56Z</time>
      </trkpt>
      <trkpt lat="48.22306" lon="-3.94635">
        <ele>121.9</ele>
        <time>2020-06-08T11:19:57Z</time>
      </trkpt>
      <trkpt lat="48.22308" lon="-3.94641">
        <ele>121.8</ele>
        <time>2020-06-08T11:19:58Z</time>
      </trkpt>
      <trkpt lat="48.22309" lon="-3.94646">
        <ele>121.7</ele>
        <time>2020-06-08T11:19:59Z</time>
      </trkpt>
      <trkpt lat="48.22308" lon="-3.94652">
        <ele>121.7</ele>
        <time>2020-06-08T11:20:00Z</time>
      </trkpt>
      <trkpt lat="48.22308" lon="-3.9466">
        <ele>121.6</ele>
        <time>2020-06-08T11:20:01Z</time>
      </trkpt>
      <trkpt lat="48.22308" lon="-3.94667">
        <ele>121.5</ele>
        <time>2020-06-08T11:20:02Z</time>
      </trkpt>
      <trkpt lat="48.22308" lon="-3.94675">
        <ele>121.4</ele>
        <time>2020-06-08T11:20:03Z</time>
      </trkpt>
      <trkpt lat="48.22307" lon="-3.94683">
        <ele>121.3</ele>
        <time>2020-06-08T11:20:04Z</time>
      </trkpt>
      <trkpt lat="48.22307" lon="-3.94691">
        <ele>121</ele>
        <time>2020-06-08T11:20:05Z</time>
      </trkpt>
      <trkpt lat="48.22307" lon="-3.947">
        <ele>120.9</ele>
        <time>2020-06-08T11:20:06Z</time>
      </trkpt>
      <trkpt lat="48.22306" lon="-3.94706">
        <ele>120.8</ele>
        <time>2020-06-08T11:20:07Z</time>
      </trkpt>
      <trkpt lat="48.22306" lon="-3.94714">
        <ele>120.7</ele>
        <time>2020-06-08T11:20:08Z</time>
      </trkpt>
      <trkpt lat="48.22305" lon="-3.9472">
        <ele>120.6</ele>
        <time>2020-06-08T11:20:09Z</time>
      </trkpt>
      <trkpt lat="48.22305" lon="-3.94727">
        <ele>120.6</ele>
        <time>2020-06-08T11:20:10Z</time>
      </trkpt>
      <trkpt lat="48.22304" lon="-3.94735">
        <ele>120.5</ele>
        <time>2020-06-08T11:20:11Z</time>
      </trkpt>
      <trkpt lat="48.22305" lon="-3.94743">
        <ele>120.4</ele>
        <time>2020-06-08T11:20:12Z</time>
      </trkpt>
      <trkpt lat="48.22305" lon="-3.94751">
        <ele>120.4</ele>
        <time>2020-06-08T11:20:13Z</time>
      </trkpt>
      <trkpt lat="48.22304" lon="-3.94759">
        <ele>120.3</ele>
        <time>2020-06-08T11:20:14Z</time>
      </trkpt>
      <trkpt lat="48.22304" lon="-3.94768">
        <ele>120.3</ele>
        <time>2020-06-08T11:20:15Z</time>
      </trkpt>
      <trkpt lat="48.22304" lon="-3.94777">
        <ele>120.2</ele>
        <time>2020-06-08T11:20:16Z</time>
      </trkpt>
      <trkpt lat="48.22303" lon="-3.94786">
        <ele>120.1</ele>
        <time>2020-06-08T11:20:17Z</time>
      </trkpt>
      <trkpt lat="48.22303" lon="-3.94795">
        <ele>120</ele>
        <time>2020-06-08T11:20:18Z</time>
      </trkpt>
      <trkpt lat="48.22303" lon="-3.94804">
        <ele>120</ele>
        <time>2020-06-08T11:20:19Z</time>
      </trkpt>
      <trkpt lat="48.22303" lon="-3.94813">
        <ele>120</ele>
        <time>2020-06-08T11:20:20Z</time>
      </trkpt>
      <trkpt lat="48.22303" lon="-3.94821">
        <ele>120</ele>
        <time>2020-06-08T11:20:21Z</time>
      </trkpt>
      <trkpt lat="48.22302" lon="-3.94829">
        <ele>120</ele>
        <time>2020-06-08T11:20:22Z</time>
      </trkpt>
      <trkpt lat="48.22302" lon="-3.94838">
        <ele>120</ele>
        <time>2020-06-08T11:20:23Z</time>
      </trkpt>
      <trkpt lat="48.22302" lon="-3.94846">
        <ele>119.9</ele>
        <time>2020-06-08T11:20:24Z</time>
      </trkpt>
      <trkpt lat="48.22302" lon="-3.94855">
        <ele>119.9</ele>
        <time>2020-06-08T11:20:25Z</time>
      </trkpt>
      <trkpt lat="48.22303" lon="-3.94864">
        <ele>119.8</ele>
        <time>2020-06-08T11:20:26Z</time>
      </trkpt>
      <trkpt lat="48.22305" lon="-3.94872">
        <ele>119.8</ele>
        <time>2020-06-08T11:20:27Z</time>
      </trkpt>
      <trkpt lat="48.22307" lon="-3.94881">
        <ele>119.8</ele>
        <time>2020-06-08T11:20:28Z</time>
      </trkpt>
      <trkpt lat="48.22309" lon="-3.94889">
        <ele>119.8</ele>
        <time>2020-06-08T11:20:29Z</time>
      </trkpt>
      <trkpt lat="48.22311" lon="-3.94897">
        <ele>119.8</ele>
        <time>2020-06-08T11:20:30Z</time>
      </trkpt>
      <trkpt lat="48.22313" lon="-3.94904">
        <ele>119.8</ele>
        <time>2020-06-08T11:20:31Z</time>
      </trkpt>
      <trkpt lat="48.22315" lon="-3.94911">
        <ele>119.8</ele>
        <time>2020-06-08T11:20:32Z</time>
      </trkpt>
      <trkpt lat="48.22317" lon="-3.94918">
        <ele>119.8</ele>
        <time>2020-06-08T11:20:33Z</time>
      </trkpt>
      <trkpt lat="48.2232" lon="-3.94926">
        <ele>119.9</ele>
        <time>2020-06-08T11:20:34Z</time>
      </trkpt>
      <trkpt lat="48.22322" lon="-3.94933">
        <ele>119.9</ele>
        <time>2020-06-08T11:20:35Z</time>
      </trkpt>
      <trkpt lat="48.22324" lon="-3.94942">
        <ele>119.9</ele>
        <time>2020-06-08T11:20:36Z</time>
      </trkpt>
      <trkpt lat="48.22327" lon="-3.9495">
        <ele>120</ele>
        <time>2020-06-08T11:20:37Z</time>
      </trkpt>
      <trkpt lat="48.22329" lon="-3.94958">
        <ele>120</ele>
        <time>2020-06-08T11:20:38Z</time>
      </trkpt>
      <trkpt lat="48.22331" lon="-3.94966">
        <ele>120.1</ele>
        <time>2020-06-08T11:20:39Z</time>
      </trkpt>
      <trkpt lat="48.22333" lon="-3.94974">
        <ele>120.1</ele>
        <time>2020-06-08T11:20:40Z</time>
      </trkpt>
      <trkpt lat="48.22335" lon="-3.94983">
        <ele>120.2</ele>
        <time>2020-06-08T11:20:41Z</time>
      </trkpt>
      <trkpt lat="48.22337" lon="-3.94991">
        <ele>120.2</ele>
        <time>2020-06-08T11:20:42Z</time>
      </trkpt>
      <trkpt lat="48.22338" lon="-3.94999">
        <ele>120.3</ele>
        <time>2020-06-08T11:20:43Z</time>
      </trkpt>
      <trkpt lat="48.2234" lon="-3.95007">
        <ele>120.3</ele>
        <time>2020-06-08T11:20:44Z</time>
      </trkpt>
      <trkpt lat="48.22342" lon="-3.95014">
        <ele>120.4</ele>
        <time>2020-06-08T11:20:45Z</time>
      </trkpt>
      <trkpt lat="48.22344" lon="-3.95021">
        <ele>120.4</ele>
        <time>2020-06-08T11:20:46Z</time>
      </trkpt>
      <trkpt lat="48.22345" lon="-3.95028">
        <ele>120.5</ele>
        <time>2020-06-08T11:20:47Z</time>
      </trkpt>
      <trkpt lat="48.22347" lon="-3.95036">
        <ele>120.5</ele>
        <time>2020-06-08T11:20:48Z</time>
      </trkpt>
      <trkpt lat="48.22349" lon="-3.95044">
        <ele>120.5</ele>
        <time>2020-06-08T11:20:49Z</time>
      </trkpt>
      <trkpt lat="48.22349" lon="-3.95051">
        <ele>120.5</ele>
        <time>2020-06-08T11:20:50Z</time>
      </trkpt>
      <trkpt lat="48.2235" lon="-3.95059">
        <ele>120.5</ele>
        <time>2020-06-08T11:20:51Z</time>
      </trkpt>
      <trkpt lat="48.22352" lon="-3.95066">
        <ele>120.4</ele>
        <time>2020-06-08T11:20:52Z</time>
      </trkpt>
      <trkpt lat="48.22353" lon="-3.95074">
        <ele>120.4</ele>
        <time>2020-06-08T11:20:53Z</time>
      </trkpt>
      <trkpt lat="48.22354" lon="-3.95082">
        <ele>120.4</ele>
        <time>2020-06-08T11:20:54Z</time>
      </trkpt>
      <trkpt lat="48.22356" lon="-3.95091">
        <ele>120.3</ele>
        <time>2020-06-08T11:20:55Z</time>
      </trkpt>
      <trkpt lat="48.22357" lon="-3.95099">
        <ele>120.3</ele>
        <time>2020-06-08T11:20:56Z</time>
      </trkpt>
      <trkpt lat="48.22358" lon="-3.95106">
        <ele>120.3</ele>
        <time>2020-06-08T11:20:57Z</time>
      </trkpt>
      <trkpt lat="48.2236" lon="-3.95114">
        <ele>120.3</ele>
        <time>2020-06-08T11:20:58Z</time>
      </trkpt>
      <trkpt lat="48.22361" lon="-3.95122">
        <ele>120.3</ele>
        <time>2020-06-08T11:20:59Z</time>
      </trkpt>
      <trkpt lat="48.22362" lon="-3.9513">
        <ele>120.3</ele>
        <time>2020-06-08T11:21:00Z</time>
      </trkpt>
      <trkpt lat="48.22364" lon="-3.95139">
        <ele>120.3</ele>
        <time>2020-06-08T11:21:01Z</time>
      </trkpt>
      <trkpt lat="48.22365" lon="-3.95147">
        <ele>120.2</ele>
        <time>2020-06-08T11:21:02Z</time>
      </trkpt>
      <trkpt lat="48.22367" lon="-3.95155">
        <ele>120.2</ele>
        <time>2020-06-08T11:21:03Z</time>
      </trkpt>
      <trkpt lat="48.22368" lon="-3.95164">
        <ele>120.2</ele>
        <time>2020-06-08T11:21:04Z</time>
      </trkpt>
      <trkpt lat="48.2237" lon="-3.95172">
        <ele>120.2</ele>
        <time>2020-06-08T11:21:05Z</time>
      </trkpt>
      <trkpt lat="48.22371" lon="-3.95179">
        <ele>120.2</ele>
        <time>2020-06-08T11:21:06Z</time>
      </trkpt>
      <trkpt lat="48.22372" lon="-3.95188">
        <ele>120.2</ele>
        <time>2020-06-08T11:21:07Z</time>
      </trkpt>
      <trkpt lat="48.22372" lon="-3.95195">
        <ele>120.2</ele>
        <time>2020-06-08T11:21:08Z</time>
      </trkpt>
      <trkpt lat="48.22373" lon="-3.95205">
        <ele>120.2</ele>
        <time>2020-06-08T11:21:09Z</time>
      </trkpt>
      <trkpt lat="48.22374" lon="-3.95212">
        <ele>120.2</ele>
        <time>2020-06-08T11:21:10Z</time>
      </trkpt>
      <trkpt lat="48.22375" lon="-3.95222">
        <ele>120.2</ele>
        <time>2020-06-08T11:21:11Z</time>
      </trkpt>
      <trkpt lat="48.22376" lon="-3.95231">
        <ele>120.3</ele>
        <time>2020-06-08T11:21:12Z</time>
      </trkpt>
      <trkpt lat="48.22377" lon="-3.9524">
        <ele>120.2</ele>
        <time>2020-06-08T11:21:13Z</time>
      </trkpt>
      <trkpt lat="48.22377" lon="-3.95248">
        <ele>120.1</ele>
        <time>2020-06-08T11:21:14Z</time>
      </trkpt>
      <trkpt lat="48.22378" lon="-3.95257">
        <ele>120</ele>
        <time>2020-06-08T11:21:15Z</time>
      </trkpt>
      <trkpt lat="48.22378" lon="-3.95266">
        <ele>120</ele>
        <time>2020-06-08T11:21:16Z</time>
      </trkpt>
      <trkpt lat="48.22379" lon="-3.95273">
        <ele>119.9</ele>
        <time>2020-06-08T11:21:17Z</time>
      </trkpt>
      <trkpt lat="48.22379" lon="-3.9528">
        <ele>119.9</ele>
        <time>2020-06-08T11:21:18Z</time>
      </trkpt>
      <trkpt lat="48.2238" lon="-3.95288">
        <ele>119.9</ele>
        <time>2020-06-08T11:21:19Z</time>
      </trkpt>
      <trkpt lat="48.22381" lon="-3.95296">
        <ele>119.9</ele>
        <time>2020-06-08T11:21:20Z</time>
      </trkpt>
      <trkpt lat="48.22381" lon="-3.95305">
        <ele>119.9</ele>
        <time>2020-06-08T11:21:21Z</time>
      </trkpt>
      <trkpt lat="48.22382" lon="-3.95313">
        <ele>119.9</ele>
        <time>2020-06-08T11:21:22Z</time>
      </trkpt>
      <trkpt lat="48.22382" lon="-3.95321">
        <ele>119.9</ele>
        <time>2020-06-08T11:21:23Z</time>
      </trkpt>
      <trkpt lat="48.22382" lon="-3.95329">
        <ele>119.9</ele>
        <time>2020-06-08T11:21:24Z</time>
      </trkpt>
      <trkpt lat="48.22383" lon="-3.95337">
        <ele>119.9</ele>
        <time>2020-06-08T11:21:25Z</time>
      </trkpt>
      <trkpt lat="48.22383" lon="-3.95345">
        <ele>119.9</ele>
        <time>2020-06-08T11:21:26Z</time>
      </trkpt>
      <trkpt lat="48.22384" lon="-3.95352">
        <ele>119.9</ele>
        <time>2020-06-08T11:21:27Z</time>
      </trkpt>
      <trkpt lat="48.22383" lon="-3.95359">
        <ele>119.9</ele>
        <time>2020-06-08T11:21:28Z</time>
      </trkpt>
      <trkpt lat="48.22383" lon="-3.95367">
        <ele>119.9</ele>
        <time>2020-06-08T11:21:29Z</time>
      </trkpt>
      <trkpt lat="48.22383" lon="-3.95375">
        <ele>119.9</ele>
        <time>2020-06-08T11:21:30Z</time>
      </trkpt>
      <trkpt lat="48.22383" lon="-3.95382">
        <ele>119.9</ele>
        <time>2020-06-08T11:21:31Z</time>
      </trkpt>
      <trkpt lat="48.22384" lon="-3.9539">
        <ele>119.9</ele>
        <time>2020-06-08T11:21:32Z</time>
      </trkpt>
      <trkpt lat="48.22384" lon="-3.95399">
        <ele>119.9</ele>
        <time>2020-06-08T11:21:33Z</time>
      </trkpt>
      <trkpt lat="48.22385" lon="-3.95407">
        <ele>119.9</ele>
        <time>2020-06-08T11:21:34Z</time>
      </trkpt>
      <trkpt lat="48.22386" lon="-3.95416">
        <ele>119.9</ele>
        <time>2020-06-08T11:21:35Z</time>
      </trkpt>
      <trkpt lat="48.22385" lon="-3.95424">
        <ele>119.8</ele>
        <time>2020-06-08T11:21:36Z</time>
      </trkpt>
      <trkpt lat="48.22385" lon="-3.95432">
        <ele>119.8</ele>
        <time>2020-06-08T11:21:37Z</time>
      </trkpt>
      <trkpt lat="48.22385" lon="-3.9544">
        <ele>119.8</ele>
        <time>2020-06-08T11:21:38Z</time>
      </trkpt>
      <trkpt lat="48.22385" lon="-3.95448">
        <ele>119.8</ele>
        <time>2020-06-08T11:21:39Z</time>
      </trkpt>
      <trkpt lat="48.22384" lon="-3.95456">
        <ele>119.7</ele>
        <time>2020-06-08T11:21:40Z</time>
      </trkpt>
      <trkpt lat="48.22385" lon="-3.95465">
        <ele>119.7</ele>
        <time>2020-06-08T11:21:41Z</time>
      </trkpt>
      <trkpt lat="48.22385" lon="-3.95473">
        <ele>119.6</ele>
        <time>2020-06-08T11:21:42Z</time>
      </trkpt>
      <trkpt lat="48.22385" lon="-3.9548">
        <ele>119.6</ele>
        <time>2020-06-08T11:21:43Z</time>
      </trkpt>
      <trkpt lat="48.22385" lon="-3.95489">
        <ele>119.6</ele>
        <time>2020-06-08T11:21:44Z</time>
      </trkpt>
      <trkpt lat="48.22386" lon="-3.95498">
        <ele>119.5</ele>
        <time>2020-06-08T11:21:45Z</time>
      </trkpt>
      <trkpt lat="48.22386" lon="-3.95506">
        <ele>119.5</ele>
        <time>2020-06-08T11:21:46Z</time>
      </trkpt>
      <trkpt lat="48.22386" lon="-3.95514">
        <ele>119.4</ele>
        <time>2020-06-08T11:21:47Z</time>
      </trkpt>
      <trkpt lat="48.22386" lon="-3.95522">
        <ele>119.4</ele>
        <time>2020-06-08T11:21:48Z</time>
      </trkpt>
      <trkpt lat="48.22387" lon="-3.9553">
        <ele>119.2</ele>
        <time>2020-06-08T11:21:49Z</time>
      </trkpt>
      <trkpt lat="48.22387" lon="-3.95539">
        <ele>119.1</ele>
        <time>2020-06-08T11:21:50Z</time>
      </trkpt>
      <trkpt lat="48.22386" lon="-3.95547">
        <ele>119</ele>
        <time>2020-06-08T11:21:51Z</time>
      </trkpt>
      <trkpt lat="48.22386" lon="-3.95556">
        <ele>118.9</ele>
        <time>2020-06-08T11:21:52Z</time>
      </trkpt>
      <trkpt lat="48.22386" lon="-3.95564">
        <ele>118.8</ele>
        <time>2020-06-08T11:21:53Z</time>
      </trkpt>
      <trkpt lat="48.22386" lon="-3.95573">
        <ele>118.7</ele>
        <time>2020-06-08T11:21:54Z</time>
      </trkpt>
      <trkpt lat="48.22387" lon="-3.95583">
        <ele>118.5</ele>
        <time>2020-06-08T11:21:55Z</time>
      </trkpt>
      <trkpt lat="48.22387" lon="-3.95591">
        <ele>118.4</ele>
        <time>2020-06-08T11:21:56Z</time>
      </trkpt>
      <trkpt lat="48.22387" lon="-3.956">
        <ele>118.2</ele>
        <time>2020-06-08T11:21:57Z</time>
      </trkpt>
      <trkpt lat="48.22388" lon="-3.95609">
        <ele>118</ele>
        <time>2020-06-08T11:21:58Z</time>
      </trkpt>
      <trkpt lat="48.22388" lon="-3.95618">
        <ele>117.9</ele>
        <time>2020-06-08T11:21:59Z</time>
      </trkpt>
      <trkpt lat="48.22389" lon="-3.95627">
        <ele>117.7</ele>
        <time>2020-06-08T11:22:00Z</time>
      </trkpt>
      <trkpt lat="48.22389" lon="-3.95636">
        <ele>117.7</ele>
        <time>2020-06-08T11:22:01Z</time>
      </trkpt>
      <trkpt lat="48.2239" lon="-3.95644">
        <ele>117.6</ele>
        <time>2020-06-08T11:22:02Z</time>
      </trkpt>
      <trkpt lat="48.2239" lon="-3.95654">
        <ele>117.5</ele>
        <time>2020-06-08T11:22:03Z</time>
      </trkpt>
      <trkpt lat="48.22391" lon="-3.95664">
        <ele>117.5</ele>
        <time>2020-06-08T11:22:04Z</time>
      </trkpt>
      <trkpt lat="48.22393" lon="-3.95672">
        <ele>117.4</ele>
        <time>2020-06-08T11:22:05Z</time>
      </trkpt>
      <trkpt lat="48.22394" lon="-3.95681">
        <ele>117.3</ele>
        <time>2020-06-08T11:22:06Z</time>
      </trkpt>
      <trkpt lat="48.22395" lon="-3.9569">
        <ele>117.2</ele>
        <time>2020-06-08T11:22:07Z</time>
      </trkpt>
      <trkpt lat="48.22395" lon="-3.95699">
        <ele>117.1</ele>
        <time>2020-06-08T11:22:08Z</time>
      </trkpt>
      <trkpt lat="48.22395" lon="-3.95707">
        <ele>117</ele>
        <time>2020-06-08T11:22:09Z</time>
      </trkpt>
      <trkpt lat="48.22394" lon="-3.95715">
        <ele>116.9</ele>
        <time>2020-06-08T11:22:10Z</time>
      </trkpt>
      <trkpt lat="48.22393" lon="-3.95724">
        <ele>116.8</ele>
        <time>2020-06-08T11:22:11Z</time>
      </trkpt>
      <trkpt lat="48.22393" lon="-3.95732">
        <ele>116.8</ele>
        <time>2020-06-08T11:22:12Z</time>
      </trkpt>
      <trkpt lat="48.22393" lon="-3.95742">
        <ele>116.7</ele>
        <time>2020-06-08T11:22:13Z</time>
      </trkpt>
      <trkpt lat="48.22393" lon="-3.95751">
        <ele>116.7</ele>
        <time>2020-06-08T11:22:14Z</time>
      </trkpt>
      <trkpt lat="48.22394" lon="-3.9576">
        <ele>116.7</ele>
        <time>2020-06-08T11:22:15Z</time>
      </trkpt>
      <trkpt lat="48.22395" lon="-3.95767">
        <ele>116.7</ele>
        <time>2020-06-08T11:22:16Z</time>
      </trkpt>
      <trkpt lat="48.22398" lon="-3.95773">
        <ele>116.7</ele>
        <time>2020-06-08T11:22:17Z</time>
      </trkpt>
      <trkpt lat="48.22401" lon="-3.95779">
        <ele>116.7</ele>
        <time>2020-06-08T11:22:18Z</time>
      </trkpt>
      <trkpt lat="48.22404" lon="-3.95786">
        <ele>116.7</ele>
        <time>2020-06-08T11:22:19Z</time>
      </trkpt>
      <trkpt lat="48.22407" lon="-3.95793">
        <ele>116.7</ele>
        <time>2020-06-08T11:22:20Z</time>
      </trkpt>
      <trkpt lat="48.22409" lon="-3.95798">
        <ele>116.7</ele>
        <time>2020-06-08T11:22:21Z</time>
      </trkpt>
      <trkpt lat="48.22411" lon="-3.95807">
        <ele>116.7</ele>
        <time>2020-06-08T11:22:22Z</time>
      </trkpt>
      <trkpt lat="48.22414" lon="-3.95812">
        <ele>116.7</ele>
        <time>2020-06-08T11:22:23Z</time>
      </trkpt>
      <trkpt lat="48.22416" lon="-3.9582">
        <ele>116.7</ele>
        <time>2020-06-08T11:22:24Z</time>
      </trkpt>
      <trkpt lat="48.22419" lon="-3.95828">
        <ele>116.8</ele>
        <time>2020-06-08T11:22:25Z</time>
      </trkpt>
      <trkpt lat="48.22422" lon="-3.95835">
        <ele>116.8</ele>
        <time>2020-06-08T11:22:26Z</time>
      </trkpt>
      <trkpt lat="48.22425" lon="-3.95841">
        <ele>116.9</ele>
        <time>2020-06-08T11:22:27Z</time>
      </trkpt>
      <trkpt lat="48.22428" lon="-3.95847">
        <ele>116.9</ele>
        <time>2020-06-08T11:22:28Z</time>
      </trkpt>
      <trkpt lat="48.22429" lon="-3.95853">
        <ele>117</ele>
        <time>2020-06-08T11:22:29Z</time>
      </trkpt>
      <trkpt lat="48.22431" lon="-3.95862">
        <ele>117</ele>
        <time>2020-06-08T11:22:30Z</time>
      </trkpt>
      <trkpt lat="48.22433" lon="-3.95868">
        <ele>117.1</ele>
        <time>2020-06-08T11:22:31Z</time>
      </trkpt>
      <trkpt lat="48.22435" lon="-3.95876">
        <ele>117.1</ele>
        <time>2020-06-08T11:22:32Z</time>
      </trkpt>
      <trkpt lat="48.22436" lon="-3.95883">
        <ele>117.1</ele>
        <time>2020-06-08T11:22:33Z</time>
      </trkpt>
      <trkpt lat="48.22438" lon="-3.95889">
        <ele>117.1</ele>
        <time>2020-06-08T11:22:34Z</time>
      </trkpt>
      <trkpt lat="48.2244" lon="-3.95895">
        <ele>117.1</ele>
        <time>2020-06-08T11:22:35Z</time>
      </trkpt>
      <trkpt lat="48.22444" lon="-3.95901">
        <ele>117.1</ele>
        <time>2020-06-08T11:22:36Z</time>
      </trkpt>
      <trkpt lat="48.22446" lon="-3.95907">
        <ele>117.1</ele>
        <time>2020-06-08T11:22:37Z</time>
      </trkpt>
      <trkpt lat="48.22448" lon="-3.95911">
        <ele>117.1</ele>
        <time>2020-06-08T11:22:38Z</time>
      </trkpt>
      <trkpt lat="48.2245" lon="-3.95917">
        <ele>117.2</ele>
        <time>2020-06-08T11:22:39Z</time>
      </trkpt>
      <trkpt lat="48.22453" lon="-3.95923">
        <ele>117.3</ele>
        <time>2020-06-08T11:22:40Z</time>
      </trkpt>
      <trkpt lat="48.22455" lon="-3.9593">
        <ele>117.3</ele>
        <time>2020-06-08T11:22:41Z</time>
      </trkpt>
      <trkpt lat="48.22458" lon="-3.95937">
        <ele>117.4</ele>
        <time>2020-06-08T11:22:42Z</time>
      </trkpt>
      <trkpt lat="48.2246" lon="-3.95942">
        <ele>117.4</ele>
        <time>2020-06-08T11:22:43Z</time>
      </trkpt>
      <trkpt lat="48.22462" lon="-3.95947">
        <ele>117.5</ele>
        <time>2020-06-08T11:22:44Z</time>
      </trkpt>
      <trkpt lat="48.22465" lon="-3.95953">
        <ele>117.5</ele>
        <time>2020-06-08T11:22:45Z</time>
      </trkpt>
      <trkpt lat="48.22467" lon="-3.95958">
        <ele>117.6</ele>
        <time>2020-06-08T11:22:46Z</time>
      </trkpt>
      <trkpt lat="48.2247" lon="-3.95965">
        <ele>117.6</ele>
        <time>2020-06-08T11:22:47Z</time>
      </trkpt>
      <trkpt lat="48.22471" lon="-3.95971">
        <ele>117.6</ele>
        <time>2020-06-08T11:22:48Z</time>
      </trkpt>
      <trkpt lat="48.22472" lon="-3.95978">
        <ele>117.7</ele>
        <time>2020-06-08T11:22:49Z</time>
      </trkpt>
      <trkpt lat="48.22473" lon="-3.95986">
        <ele>117.7</ele>
        <time>2020-06-08T11:22:50Z</time>
      </trkpt>
      <trkpt lat="48.22474" lon="-3.95994">
        <ele>117.7</ele>
        <time>2020-06-08T11:22:51Z</time>
      </trkpt>
      <trkpt lat="48.22475" lon="-3.95997">
        <ele>117.7</ele>
        <time>2020-06-08T11:22:52Z</time>
      </trkpt>
      <trkpt lat="48.22478" lon="-3.96003">
        <ele>117.7</ele>
        <time>2020-06-08T11:22:53Z</time>
      </trkpt>
      <trkpt lat="48.2248" lon="-3.96007">
        <ele>117.7</ele>
        <time>2020-06-08T11:22:54Z</time>
      </trkpt>
      <trkpt lat="48.22482" lon="-3.96015">
        <ele>117.7</ele>
        <time>2020-06-08T11:22:55Z</time>
      </trkpt>
      <trkpt lat="48.22484" lon="-3.9602">
        <ele>117.7</ele>
        <time>2020-06-08T11:22:56Z</time>
      </trkpt>
      <trkpt lat="48.22486" lon="-3.96027">
        <ele>117.6</ele>
        <time>2020-06-08T11:22:57Z</time>
      </trkpt>
      <trkpt lat="48.22489" lon="-3.96034">
        <ele>117.6</ele>
        <time>2020-06-08T11:22:58Z</time>
      </trkpt>
      <trkpt lat="48.22492" lon="-3.9604">
        <ele>117.5</ele>
        <time>2020-06-08T11:22:59Z</time>
      </trkpt>
      <trkpt lat="48.22495" lon="-3.96049">
        <ele>117.4</ele>
        <time>2020-06-08T11:23:00Z</time>
      </trkpt>
      <trkpt lat="48.22498" lon="-3.96056">
        <ele>117.2</ele>
        <time>2020-06-08T11:23:01Z</time>
      </trkpt>
      <trkpt lat="48.22501" lon="-3.96062">
        <ele>117</ele>
        <time>2020-06-08T11:23:02Z</time>
      </trkpt>
      <trkpt lat="48.22504" lon="-3.96069">
        <ele>116.9</ele>
        <time>2020-06-08T11:23:03Z</time>
      </trkpt>
      <trkpt lat="48.22506" lon="-3.96075">
        <ele>116.7</ele>
        <time>2020-06-08T11:23:04Z</time>
      </trkpt>
      <trkpt lat="48.22508" lon="-3.96081">
        <ele>116.6</ele>
        <time>2020-06-08T11:23:05Z</time>
      </trkpt>
      <trkpt lat="48.2251" lon="-3.96089">
        <ele>116.4</ele>
        <time>2020-06-08T11:23:06Z</time>
      </trkpt>
      <trkpt lat="48.22512" lon="-3.96096">
        <ele>116.2</ele>
        <time>2020-06-08T11:23:07Z</time>
      </trkpt>
      <trkpt lat="48.22514" lon="-3.96102">
        <ele>116</ele>
        <time>2020-06-08T11:23:08Z</time>
      </trkpt>
      <trkpt lat="48.22517" lon="-3.96108">
        <ele>115.9</ele>
        <time>2020-06-08T11:23:09Z</time>
      </trkpt>
      <trkpt lat="48.2252" lon="-3.96114">
        <ele>115.7</ele>
        <time>2020-06-08T11:23:10Z</time>
      </trkpt>
      <trkpt lat="48.22524" lon="-3.96123">
        <ele>115.4</ele>
        <time>2020-06-08T11:23:11Z</time>
      </trkpt>
      <trkpt lat="48.22527" lon="-3.9613">
        <ele>115.1</ele>
        <time>2020-06-08T11:23:12Z</time>
      </trkpt>
      <trkpt lat="48.22529" lon="-3.96137">
        <ele>114.9</ele>
        <time>2020-06-08T11:23:13Z</time>
      </trkpt>
      <trkpt lat="48.22532" lon="-3.96144">
        <ele>114.7</ele>
        <time>2020-06-08T11:23:14Z</time>
      </trkpt>
      <trkpt lat="48.22534" lon="-3.96149">
        <ele>114.5</ele>
        <time>2020-06-08T11:23:15Z</time>
      </trkpt>
      <trkpt lat="48.22537" lon="-3.96157">
        <ele>114.2</ele>
        <time>2020-06-08T11:23:16Z</time>
      </trkpt>
      <trkpt lat="48.22541" lon="-3.96164">
        <ele>113.9</ele>
        <time>2020-06-08T11:23:17Z</time>
      </trkpt>
      <trkpt lat="48.22544" lon="-3.96172">
        <ele>113.7</ele>
        <time>2020-06-08T11:23:18Z</time>
      </trkpt>
      <trkpt lat="48.22547" lon="-3.96181">
        <ele>113.4</ele>
        <time>2020-06-08T11:23:19Z</time>
      </trkpt>
      <trkpt lat="48.2255" lon="-3.9619">
        <ele>113.1</ele>
        <time>2020-06-08T11:23:20Z</time>
      </trkpt>
      <trkpt lat="48.22553" lon="-3.96198">
        <ele>112.8</ele>
        <time>2020-06-08T11:23:21Z</time>
      </trkpt>
      <trkpt lat="48.22557" lon="-3.96208">
        <ele>112.5</ele>
        <time>2020-06-08T11:23:22Z</time>
      </trkpt>
      <trkpt lat="48.2256" lon="-3.96218">
        <ele>112.3</ele>
        <time>2020-06-08T11:23:23Z</time>
      </trkpt>
      <trkpt lat="48.22564" lon="-3.96228">
        <ele>112</ele>
        <time>2020-06-08T11:23:24Z</time>
      </trkpt>
      <trkpt lat="48.22567" lon="-3.96238">
        <ele>111.8</ele>
        <time>2020-06-08T11:23:25Z</time>
      </trkpt>
      <trkpt lat="48.22571" lon="-3.96249">
        <ele>111.5</ele>
        <time>2020-06-08T11:23:26Z</time>
      </trkpt>
      <trkpt lat="48.22575" lon="-3.96258">
        <ele>111.2</ele>
        <time>2020-06-08T11:23:27Z</time>
      </trkpt>
      <trkpt lat="48.22579" lon="-3.96269">
        <ele>110.9</ele>
        <time>2020-06-08T11:23:28Z</time>
      </trkpt>
      <trkpt lat="48.22583" lon="-3.96279">
        <ele>110.7</ele>
        <time>2020-06-08T11:23:29Z</time>
      </trkpt>
      <trkpt lat="48.22587" lon="-3.96289">
        <ele>110.4</ele>
        <time>2020-06-08T11:23:30Z</time>
      </trkpt>
      <trkpt lat="48.2259" lon="-3.96299">
        <ele>110.2</ele>
        <time>2020-06-08T11:23:31Z</time>
      </trkpt>
      <trkpt lat="48.22593" lon="-3.96308">
        <ele>110</ele>
        <time>2020-06-08T11:23:32Z</time>
      </trkpt>
      <trkpt lat="48.22595" lon="-3.96317">
        <ele>109.8</ele>
        <time>2020-06-08T11:23:33Z</time>
      </trkpt>
      <trkpt lat="48.22598" lon="-3.96327">
        <ele>109.6</ele>
        <time>2020-06-08T11:23:34Z</time>
      </trkpt>
      <trkpt lat="48.226" lon="-3.96336">
        <ele>109.4</ele>
        <time>2020-06-08T11:23:35Z</time>
      </trkpt>
      <trkpt lat="48.22602" lon="-3.96346">
        <ele>109.2</ele>
        <time>2020-06-08T11:23:36Z</time>
      </trkpt>
      <trkpt lat="48.22604" lon="-3.96356">
        <ele>108.9</ele>
        <time>2020-06-08T11:23:37Z</time>
      </trkpt>
      <trkpt lat="48.22606" lon="-3.96365">
        <ele>108.7</ele>
        <time>2020-06-08T11:23:38Z</time>
      </trkpt>
      <trkpt lat="48.22608" lon="-3.96374">
        <ele>108.5</ele>
        <time>2020-06-08T11:23:39Z</time>
      </trkpt>
      <trkpt lat="48.22611" lon="-3.96384">
        <ele>108.3</ele>
        <time>2020-06-08T11:23:40Z</time>
      </trkpt>
      <trkpt lat="48.22613" lon="-3.96393">
        <ele>108.1</ele>
        <time>2020-06-08T11:23:41Z</time>
      </trkpt>
      <trkpt lat="48.22616" lon="-3.96402">
        <ele>107.8</ele>
        <time>2020-06-08T11:23:42Z</time>
      </trkpt>
      <trkpt lat="48.22618" lon="-3.96412">
        <ele>107.6</ele>
        <time>2020-06-08T11:23:43Z</time>
      </trkpt>
      <trkpt lat="48.22621" lon="-3.96421">
        <ele>107.3</ele>
        <time>2020-06-08T11:23:44Z</time>
      </trkpt>
      <trkpt lat="48.22623" lon="-3.9643">
        <ele>107.2</ele>
        <time>2020-06-08T11:23:45Z</time>
      </trkpt>
      <trkpt lat="48.22625" lon="-3.9644">
        <ele>107</ele>
        <time>2020-06-08T11:23:46Z</time>
      </trkpt>
      <trkpt lat="48.22627" lon="-3.96449">
        <ele>106.8</ele>
        <time>2020-06-08T11:23:47Z</time>
      </trkpt>
      <trkpt lat="48.22629" lon="-3.96459">
        <ele>106.6</ele>
        <time>2020-06-08T11:23:48Z</time>
      </trkpt>
      <trkpt lat="48.22632" lon="-3.96468">
        <ele>106.5</ele>
        <time>2020-06-08T11:23:49Z</time>
      </trkpt>
      <trkpt lat="48.22634" lon="-3.96477">
        <ele>106.4</ele>
        <time>2020-06-08T11:23:50Z</time>
      </trkpt>
      <trkpt lat="48.22636" lon="-3.96487">
        <ele>106.2</ele>
        <time>2020-06-08T11:23:51Z</time>
      </trkpt>
      <trkpt lat="48.22638" lon="-3.96496">
        <ele>106.1</ele>
        <time>2020-06-08T11:23:52Z</time>
      </trkpt>
      <trkpt lat="48.2264" lon="-3.96506">
        <ele>105.9</ele>
        <time>2020-06-08T11:23:53Z</time>
      </trkpt>
      <trkpt lat="48.22642" lon="-3.96516">
        <ele>105.8</ele>
        <time>2020-06-08T11:23:54Z</time>
      </trkpt>
      <trkpt lat="48.22643" lon="-3.96526">
        <ele>105.7</ele>
        <time>2020-06-08T11:23:55Z</time>
      </trkpt>
      <trkpt lat="48.22645" lon="-3.96536">
        <ele>105.5</ele>
        <time>2020-06-08T11:23:56Z</time>
      </trkpt>
      <trkpt lat="48.22647" lon="-3.96546">
        <ele>105.3</ele>
        <time>2020-06-08T11:23:57Z</time>
      </trkpt>
      <trkpt lat="48.22649" lon="-3.96556">
        <ele>105.2</ele>
        <time>2020-06-08T11:23:58Z</time>
      </trkpt>
      <trkpt lat="48.2265" lon="-3.96566">
        <ele>105</ele>
        <time>2020-06-08T11:23:59Z</time>
      </trkpt>
      <trkpt lat="48.22651" lon="-3.96577">
        <ele>105</ele>
        <time>2020-06-08T11:24:00Z</time>
      </trkpt>
      <trkpt lat="48.22653" lon="-3.96587">
        <ele>105</ele>
        <time>2020-06-08T11:24:01Z</time>
      </trkpt>
      <trkpt lat="48.22654" lon="-3.96597">
        <ele>105</ele>
        <time>2020-06-08T11:24:02Z</time>
      </trkpt>
      <trkpt lat="48.22655" lon="-3.96607">
        <ele>105.1</ele>
        <time>2020-06-08T11:24:03Z</time>
      </trkpt>
      <trkpt lat="48.22656" lon="-3.96617">
        <ele>105.2</ele>
        <time>2020-06-08T11:24:04Z</time>
      </trkpt>
      <trkpt lat="48.22656" lon="-3.96627">
        <ele>105.3</ele>
        <time>2020-06-08T11:24:05Z</time>
      </trkpt>
      <trkpt lat="48.22656" lon="-3.96637">
        <ele>105.4</ele>
        <time>2020-06-08T11:24:06Z</time>
      </trkpt>
      <trkpt lat="48.22656" lon="-3.96646">
        <ele>105.5</ele>
        <time>2020-06-08T11:24:07Z</time>
      </trkpt>
      <trkpt lat="48.22656" lon="-3.96656">
        <ele>105.8</ele>
        <time>2020-06-08T11:24:08Z</time>
      </trkpt>
      <trkpt lat="48.22657" lon="-3.96666">
        <ele>105.9</ele>
        <time>2020-06-08T11:24:09Z</time>
      </trkpt>
      <trkpt lat="48.22657" lon="-3.96675">
        <ele>106.2</ele>
        <time>2020-06-08T11:24:10Z</time>
      </trkpt>
      <trkpt lat="48.22657" lon="-3.96685">
        <ele>106.4</ele>
        <time>2020-06-08T11:24:11Z</time>
      </trkpt>
      <trkpt lat="48.22657" lon="-3.96694">
        <ele>106.7</ele>
        <time>2020-06-08T11:24:12Z</time>
      </trkpt>
      <trkpt lat="48.22658" lon="-3.96703">
        <ele>107</ele>
        <time>2020-06-08T11:24:13Z</time>
      </trkpt>
      <trkpt lat="48.22659" lon="-3.96712">
        <ele>107.2</ele>
        <time>2020-06-08T11:24:14Z</time>
      </trkpt>
      <trkpt lat="48.2266" lon="-3.9672">
        <ele>107.5</ele>
        <time>2020-06-08T11:24:15Z</time>
      </trkpt>
      <trkpt lat="48.2266" lon="-3.96728">
        <ele>107.7</ele>
        <time>2020-06-08T11:24:16Z</time>
      </trkpt>
      <trkpt lat="48.22661" lon="-3.96736">
        <ele>107.9</ele>
        <time>2020-06-08T11:24:17Z</time>
      </trkpt>
      <trkpt lat="48.22662" lon="-3.96745">
        <ele>108.2</ele>
        <time>2020-06-08T11:24:18Z</time>
      </trkpt>
      <trkpt lat="48.22662" lon="-3.96753">
        <ele>108.4</ele>
        <time>2020-06-08T11:24:19Z</time>
      </trkpt>
      <trkpt lat="48.22663" lon="-3.96761">
        <ele>108.6</ele>
        <time>2020-06-08T11:24:20Z</time>
      </trkpt>
      <trkpt lat="48.22663" lon="-3.96769">
        <ele>108.8</ele>
        <time>2020-06-08T11:24:21Z</time>
      </trkpt>
      <trkpt lat="48.22663" lon="-3.96777">
        <ele>109.1</ele>
        <time>2020-06-08T11:24:22Z</time>
      </trkpt>
      <trkpt lat="48.22663" lon="-3.96785">
        <ele>109.4</ele>
        <time>2020-06-08T11:24:23Z</time>
      </trkpt>
      <trkpt lat="48.22664" lon="-3.96792">
        <ele>109.6</ele>
        <time>2020-06-08T11:24:24Z</time>
      </trkpt>
      <trkpt lat="48.22664" lon="-3.96799">
        <ele>109.9</ele>
        <time>2020-06-08T11:24:25Z</time>
      </trkpt>
      <trkpt lat="48.22665" lon="-3.96805">
        <ele>110.1</ele>
        <time>2020-06-08T11:24:26Z</time>
      </trkpt>
      <trkpt lat="48.22666" lon="-3.96811">
        <ele>110.4</ele>
        <time>2020-06-08T11:24:27Z</time>
      </trkpt>
      <trkpt lat="48.22667" lon="-3.96819">
        <ele>110.7</ele>
        <time>2020-06-08T11:24:28Z</time>
      </trkpt>
      <trkpt lat="48.22666" lon="-3.96826">
        <ele>111</ele>
        <time>2020-06-08T11:24:29Z</time>
      </trkpt>
      <trkpt lat="48.22666" lon="-3.96834">
        <ele>111.4</ele>
        <time>2020-06-08T11:24:30Z</time>
      </trkpt>
      <trkpt lat="48.22666" lon="-3.9684">
        <ele>111.6</ele>
        <time>2020-06-08T11:24:31Z</time>
      </trkpt>
      <trkpt lat="48.22666" lon="-3.96848">
        <ele>112</ele>
        <time>2020-06-08T11:24:32Z</time>
      </trkpt>
      <trkpt lat="48.22667" lon="-3.96855">
        <ele>112.3</ele>
        <time>2020-06-08T11:24:33Z</time>
      </trkpt>
      <trkpt lat="48.22667" lon="-3.96861">
        <ele>112.6</ele>
        <time>2020-06-08T11:24:34Z</time>
      </trkpt>
      <trkpt lat="48.22667" lon="-3.96867">
        <ele>112.9</ele>
        <time>2020-06-08T11:24:35Z</time>
      </trkpt>
      <trkpt lat="48.22667" lon="-3.96873">
        <ele>113.2</ele>
        <time>2020-06-08T11:24:36Z</time>
      </trkpt>
      <trkpt lat="48.22667" lon="-3.96879">
        <ele>113.5</ele>
        <time>2020-06-08T11:24:37Z</time>
      </trkpt>
      <trkpt lat="48.22667" lon="-3.96885">
        <ele>113.8</ele>
        <time>2020-06-08T11:24:38Z</time>
      </trkpt>
      <trkpt lat="48.22668" lon="-3.96891">
        <ele>114</ele>
        <time>2020-06-08T11:24:39Z</time>
      </trkpt>
      <trkpt lat="48.22669" lon="-3.96897">
        <ele>114.3</ele>
        <time>2020-06-08T11:24:40Z</time>
      </trkpt>
      <trkpt lat="48.2267" lon="-3.96902">
        <ele>114.6</ele>
        <time>2020-06-08T11:24:41Z</time>
      </trkpt>
      <trkpt lat="48.22671" lon="-3.96907">
        <ele>114.8</ele>
        <time>2020-06-08T11:24:42Z</time>
      </trkpt>
      <trkpt lat="48.22672" lon="-3.96912">
        <ele>115.1</ele>
        <time>2020-06-08T11:24:43Z</time>
      </trkpt>
      <trkpt lat="48.22672" lon="-3.96914">
        <ele>115.2</ele>
        <time>2020-06-08T11:24:44Z</time>
      </trkpt>
      <trkpt lat="48.22671" lon="-3.9692">
        <ele>115.4</ele>
        <time>2020-06-08T11:24:45Z</time>
      </trkpt>
      <trkpt lat="48.2267" lon="-3.96921">
        <ele>115.5</ele>
        <time>2020-06-08T11:24:46Z</time>
      </trkpt>
      <trkpt lat="48.2267" lon="-3.96925">
        <ele>115.6</ele>
        <time>2020-06-08T11:24:47Z</time>
      </trkpt>
      <trkpt lat="48.22671" lon="-3.96927">
        <ele>115.7</ele>
        <time>2020-06-08T11:24:48Z</time>
      </trkpt>
      <trkpt lat="48.22671" lon="-3.9693">
        <ele>115.8</ele>
        <time>2020-06-08T11:24:49Z</time>
      </trkpt>
      <trkpt lat="48.22671" lon="-3.96931">
        <ele>115.9</ele>
        <time>2020-06-08T11:24:50Z</time>
      </trkpt>
      <trkpt lat="48.22671" lon="-3.96934">
        <ele>116.1</ele>
        <time>2020-06-08T11:24:51Z</time>
      </trkpt>
      <trkpt lat="48.22671" lon="-3.96935">
        <ele>116.1</ele>
        <time>2020-06-08T11:24:52Z</time>
      </trkpt>
      <trkpt lat="48.2267" lon="-3.96937">
        <ele>116.2</ele>
        <time>2020-06-08T11:24:53Z</time>
      </trkpt>
      <trkpt lat="48.22671" lon="-3.96939">
        <ele>116.3</ele>
        <time>2020-06-08T11:24:54Z</time>
      </trkpt>
      <trkpt lat="48.2267" lon="-3.96941">
        <ele>116.3</ele>
        <time>2020-06-08T11:24:55Z</time>
      </trkpt>
      <trkpt lat="48.2267" lon="-3.96943">
        <ele>116.5</ele>
        <time>2020-06-08T11:24:56Z</time>
      </trkpt>
      <trkpt lat="48.22669" lon="-3.96946">
        <ele>116.5</ele>
        <time>2020-06-08T11:24:57Z</time>
      </trkpt>
      <trkpt lat="48.22669" lon="-3.96948">
        <ele>116.5</ele>
        <time>2020-06-08T11:24:58Z</time>
      </trkpt>
      <trkpt lat="48.22668" lon="-3.96949">
        <ele>116.5</ele>
        <time>2020-06-08T11:24:59Z</time>
      </trkpt>
      <trkpt lat="48.22667" lon="-3.9695">
        <ele>116.5</ele>
        <time>2020-06-08T11:25:00Z</time>
      </trkpt>
      <trkpt lat="48.22665" lon="-3.96953">
        <ele>116.5</ele>
        <time>2020-06-08T11:25:01Z</time>
      </trkpt>
      <trkpt lat="48.22662" lon="-3.96956">
        <ele>116.5</ele>
        <time>2020-06-08T11:25:02Z</time>
      </trkpt>
      <trkpt lat="48.22661" lon="-3.96957">
        <ele>116.5</ele>
        <time>2020-06-08T11:25:03Z</time>
      </trkpt>
      <trkpt lat="48.22659" lon="-3.96959">
        <ele>116.5</ele>
        <time>2020-06-08T11:25:04Z</time>
      </trkpt>
      <trkpt lat="48.22657" lon="-3.96964">
        <ele>116.5</ele>
        <time>2020-06-08T11:25:05Z</time>
      </trkpt>
      <trkpt lat="48.22657" lon="-3.96966">
        <ele>116.7</ele>
        <time>2020-06-08T11:25:06Z</time>
      </trkpt>
      <trkpt lat="48.22656" lon="-3.96971">
        <ele>116.7</ele>
        <time>2020-06-08T11:25:07Z</time>
      </trkpt>
      <trkpt lat="48.22656" lon="-3.96976">
        <ele>116.8</ele>
        <time>2020-06-08T11:25:08Z</time>
      </trkpt>
      <trkpt lat="48.22656" lon="-3.96982">
        <ele>116.8</ele>
        <time>2020-06-08T11:25:09Z</time>
      </trkpt>
      <trkpt lat="48.22655" lon="-3.96983">
        <ele>116.8</ele>
        <time>2020-06-08T11:25:10Z</time>
      </trkpt>
      <trkpt lat="48.22656" lon="-3.96986">
        <ele>116.8</ele>
        <time>2020-06-08T11:25:11Z</time>
      </trkpt>
      <trkpt lat="48.22655" lon="-3.96989">
        <ele>116.9</ele>
        <time>2020-06-08T11:25:12Z</time>
      </trkpt>
      <trkpt lat="48.22655" lon="-3.96992">
        <ele>116.9</ele>
        <time>2020-06-08T11:25:13Z</time>
      </trkpt>
      <trkpt lat="48.22653" lon="-3.96993">
        <ele>116.9</ele>
        <time>2020-06-08T11:25:14Z</time>
      </trkpt>
      <trkpt lat="48.22651" lon="-3.96996">
        <ele>116.9</ele>
        <time>2020-06-08T11:25:15Z</time>
      </trkpt>
      <trkpt lat="48.2265" lon="-3.96997">
        <ele>116.9</ele>
        <time>2020-06-08T11:25:16Z</time>
      </trkpt>
      <trkpt lat="48.22647" lon="-3.96999">
        <ele>116.9</ele>
        <time>2020-06-08T11:25:17Z</time>
      </trkpt>
      <trkpt lat="48.22646" lon="-3.97">
        <ele>116.9</ele>
        <time>2020-06-08T11:25:18Z</time>
      </trkpt>
      <trkpt lat="48.22642" lon="-3.97003">
        <ele>116.9</ele>
        <time>2020-06-08T11:25:19Z</time>
      </trkpt>
      <trkpt lat="48.22641" lon="-3.97004">
        <ele>116.8</ele>
        <time>2020-06-08T11:25:20Z</time>
      </trkpt>
      <trkpt lat="48.22639" lon="-3.97006">
        <ele>116.8</ele>
        <time>2020-06-08T11:25:21Z</time>
      </trkpt>
      <trkpt lat="48.22636" lon="-3.97009">
        <ele>116.8</ele>
        <time>2020-06-08T11:25:22Z</time>
      </trkpt>
      <trkpt lat="48.22633" lon="-3.97011">
        <ele>116.8</ele>
        <time>2020-06-08T11:25:23Z</time>
      </trkpt>
      <trkpt lat="48.22632" lon="-3.97011">
        <ele>116.8</ele>
        <time>2020-06-08T11:25:24Z</time>
      </trkpt>
      <trkpt lat="48.2263" lon="-3.97011">
        <ele>116.7</ele>
        <time>2020-06-08T11:25:25Z</time>
      </trkpt>
      <trkpt lat="48.22628" lon="-3.97011">
        <ele>116.7</ele>
        <time>2020-06-08T11:25:26Z</time>
      </trkpt>
      <trkpt lat="48.22625" lon="-3.97012">
        <ele>116.6</ele>
        <time>2020-06-08T11:25:27Z</time>
      </trkpt>
      <trkpt lat="48.22623" lon="-3.97014">
        <ele>116.6</ele>
        <time>2020-06-08T11:25:28Z</time>
      </trkpt>
      <trkpt lat="48.22619" lon="-3.97015">
        <ele>116.5</ele>
        <time>2020-06-08T11:25:29Z</time>
      </trkpt>
      <trkpt lat="48.22615" lon="-3.97016">
        <ele>116.4</ele>
        <time>2020-06-08T11:25:30Z</time>
      </trkpt>
      <trkpt lat="48.22611" lon="-3.97018">
        <ele>116.3</ele>
        <time>2020-06-08T11:25:31Z</time>
      </trkpt>
      <trkpt lat="48.22608" lon="-3.97019">
        <ele>116.2</ele>
        <time>2020-06-08T11:25:32Z</time>
      </trkpt>
      <trkpt lat="48.22607" lon="-3.97019">
        <ele>116.2</ele>
        <time>2020-06-08T11:25:33Z</time>
      </trkpt>
      <trkpt lat="48.22604" lon="-3.97019">
        <ele>116.1</ele>
        <time>2020-06-08T11:25:34Z</time>
      </trkpt>
      <trkpt lat="48.22601" lon="-3.97019">
        <ele>115.9</ele>
        <time>2020-06-08T11:25:35Z</time>
      </trkpt>
      <trkpt lat="48.22598" lon="-3.97019">
        <ele>115.8</ele>
        <time>2020-06-08T11:25:36Z</time>
      </trkpt>
      <trkpt lat="48.22594" lon="-3.97019">
        <ele>115.8</ele>
        <time>2020-06-08T11:25:37Z</time>
      </trkpt>
      <trkpt lat="48.22592" lon="-3.97015">
        <ele>115.7</ele>
        <time>2020-06-08T11:25:38Z</time>
      </trkpt>
      <trkpt lat="48.22591" lon="-3.9701">
        <ele>115.4</ele>
        <time>2020-06-08T11:25:39Z</time>
      </trkpt>
      <trkpt lat="48.22591" lon="-3.97009">
        <ele>115.4</ele>
        <time>2020-06-08T11:25:40Z</time>
      </trkpt>
      <trkpt lat="48.22588" lon="-3.97006">
        <ele>115.4</ele>
        <time>2020-06-08T11:25:41Z</time>
      </trkpt>
      <trkpt lat="48.22588" lon="-3.97005">
        <ele>115.4</ele>
        <time>2020-06-08T11:25:42Z</time>
      </trkpt>
      <trkpt lat="48.22586" lon="-3.97001">
        <ele>115.4</ele>
        <time>2020-06-08T11:25:43Z</time>
      </trkpt>
      <trkpt lat="48.22585" lon="-3.96999">
        <ele>116.1</ele>
        <time>2020-06-08T11:25:44Z</time>
      </trkpt>
      <trkpt lat="48.22583" lon="-3.96996">
        <ele>116.4</ele>
        <time>2020-06-08T11:25:45Z</time>
      </trkpt>
      <trkpt lat="48.22582" lon="-3.96994">
        <ele>116.4</ele>
        <time>2020-06-08T11:25:46Z</time>
      </trkpt>
      <trkpt lat="48.2258" lon="-3.96991">
        <ele>116.4</ele>
        <time>2020-06-08T11:25:47Z</time>
      </trkpt>
      <trkpt lat="48.22578" lon="-3.96988">
        <ele>116.4</ele>
        <time>2020-06-08T11:25:48Z</time>
      </trkpt>
      <trkpt lat="48.22576" lon="-3.96983">
        <ele>116.4</ele>
        <time>2020-06-08T11:25:49Z</time>
      </trkpt>
      <trkpt lat="48.22575" lon="-3.96982">
        <ele>116.4</ele>
        <time>2020-06-08T11:25:50Z</time>
      </trkpt>
      <trkpt lat="48.22573" lon="-3.96977">
        <ele>116.4</ele>
        <time>2020-06-08T11:25:51Z</time>
      </trkpt>
      <trkpt lat="48.22572" lon="-3.96975">
        <ele>116.4</ele>
        <time>2020-06-08T11:25:52Z</time>
      </trkpt>
      <trkpt lat="48.22569" lon="-3.96973">
        <ele>116.5</ele>
        <time>2020-06-08T11:25:53Z</time>
      </trkpt>
      <trkpt lat="48.22568" lon="-3.96972">
        <ele>116.5</ele>
        <time>2020-06-08T11:25:54Z</time>
      </trkpt>
      <trkpt lat="48.22566" lon="-3.96969">
        <ele>116.5</ele>
        <time>2020-06-08T11:25:55Z</time>
      </trkpt>
      <trkpt lat="48.22564" lon="-3.96966">
        <ele>116.5</ele>
        <time>2020-06-08T11:25:56Z</time>
      </trkpt>
      <trkpt lat="48.22561" lon="-3.96965">
        <ele>116.5</ele>
        <time>2020-06-08T11:25:57Z</time>
      </trkpt>
      <trkpt lat="48.22559" lon="-3.96962">
        <ele>116.5</ele>
        <time>2020-06-08T11:25:58Z</time>
      </trkpt>
      <trkpt lat="48.22556" lon="-3.96959">
        <ele>116.4</ele>
        <time>2020-06-08T11:25:59Z</time>
      </trkpt>
      <trkpt lat="48.22553" lon="-3.96957">
        <ele>116.4</ele>
        <time>2020-06-08T11:26:00Z</time>
      </trkpt>
      <trkpt lat="48.22551" lon="-3.96954">
        <ele>116.3</ele>
        <time>2020-06-08T11:26:01Z</time>
      </trkpt>
      <trkpt lat="48.22549" lon="-3.9695">
        <ele>116.2</ele>
        <time>2020-06-08T11:26:02Z</time>
      </trkpt>
      <trkpt lat="48.22547" lon="-3.96947">
        <ele>115.9</ele>
        <time>2020-06-08T11:26:03Z</time>
      </trkpt>
      <trkpt lat="48.22545" lon="-3.96942">
        <ele>115.5</ele>
        <time>2020-06-08T11:26:04Z</time>
      </trkpt>
      <trkpt lat="48.22545" lon="-3.9694">
        <ele>115.4</ele>
        <time>2020-06-08T11:26:05Z</time>
      </trkpt>
      <trkpt lat="48.22543" lon="-3.96935">
        <ele>115</ele>
        <time>2020-06-08T11:26:06Z</time>
      </trkpt>
      <trkpt lat="48.22543" lon="-3.96933">
        <ele>114.8</ele>
        <time>2020-06-08T11:26:07Z</time>
      </trkpt>
      <trkpt lat="48.22542" lon="-3.96928">
        <ele>114.5</ele>
        <time>2020-06-08T11:26:08Z</time>
      </trkpt>
      <trkpt lat="48.22543" lon="-3.96924">
        <ele>114.1</ele>
        <time>2020-06-08T11:26:09Z</time>
      </trkpt>
      <trkpt lat="48.22543" lon="-3.96922">
        <ele>113.4</ele>
        <time>2020-06-08T11:26:10Z</time>
      </trkpt>
      <trkpt lat="48.22545" lon="-3.96919">
        <ele>113.5</ele>
        <time>2020-06-08T11:26:11Z</time>
      </trkpt>
      <trkpt lat="48.22545" lon="-3.96918">
        <ele>113.5</ele>
        <time>2020-06-08T11:26:12Z</time>
      </trkpt>
      <trkpt lat="48.22546" lon="-3.96915">
        <ele>113.5</ele>
        <time>2020-06-08T11:26:13Z</time>
      </trkpt>
      <trkpt lat="48.22546" lon="-3.96914">
        <ele>113.5</ele>
        <time>2020-06-08T11:26:14Z</time>
      </trkpt>
      <trkpt lat="48.22546" lon="-3.96913">
        <ele>113.5</ele>
        <time>2020-06-08T11:26:15Z</time>
      </trkpt>
      <trkpt lat="48.22545" lon="-3.96912">
        <ele>113.5</ele>
        <time>2020-06-08T11:26:16Z</time>
      </trkpt>
      <trkpt lat="48.22543" lon="-3.96912">
        <ele>113.5</ele>
        <time>2020-06-08T11:26:17Z</time>
      </trkpt>
      <trkpt lat="48.22542" lon="-3.96912">
        <ele>113.5</ele>
        <time>2020-06-08T11:26:18Z</time>
      </trkpt>
      <trkpt lat="48.22542" lon="-3.96913">
        <ele>113.5</ele>
        <time>2020-06-08T11:26:19Z</time>
      </trkpt>
      <trkpt lat="48.22543" lon="-3.96912">
        <ele>113.5</ele>
        <time>2020-06-08T11:26:20Z</time>
      </trkpt>
      <trkpt lat="48.22543" lon="-3.96912">
        <ele>113.5</ele>
        <time>2020-06-08T11:26:21Z</time>
      </trkpt>
      <trkpt lat="48.22542" lon="-3.96912">
        <ele>113.5</ele>
        <time>2020-06-08T11:26:22Z</time>
      </trkpt>
      <trkpt lat="48.22542" lon="-3.96911">
        <ele>113.5</ele>
        <time>2020-06-08T11:26:23Z</time>
      </trkpt>
      <trkpt lat="48.22541" lon="-3.96911">
        <ele>113.5</ele>
        <time>2020-06-08T11:26:24Z</time>
      </trkpt>
      <trkpt lat="48.22541" lon="-3.96915">
        <ele>113.5</ele>
        <time>2020-06-08T11:26:25Z</time>
      </trkpt>
      <trkpt lat="48.22541" lon="-3.96916">
        <ele>113.5</ele>
        <time>2020-06-08T11:26:26Z</time>
      </trkpt>
      <trkpt lat="48.22541" lon="-3.96915">
        <ele>113.5</ele>
        <time>2020-06-08T11:26:27Z</time>
      </trkpt>
      <trkpt lat="48.2254" lon="-3.96919">
        <ele>113.5</ele>
        <time>2020-06-08T11:26:28Z</time>
      </trkpt>
      <trkpt lat="48.2254" lon="-3.9692">
        <ele>113.5</ele>
        <time>2020-06-08T11:26:29Z</time>
      </trkpt>
      <trkpt lat="48.22539" lon="-3.96922">
        <ele>113.5</ele>
        <time>2020-06-08T11:26:30Z</time>
      </trkpt>
      <trkpt lat="48.22538" lon="-3.96928">
        <ele>113.4</ele>
        <time>2020-06-08T11:26:31Z</time>
      </trkpt>
      <trkpt lat="48.22537" lon="-3.9693">
        <ele>113.4</ele>
        <time>2020-06-08T11:26:32Z</time>
      </trkpt>
      <trkpt lat="48.22535" lon="-3.96936">
        <ele>113.4</ele>
        <time>2020-06-08T11:26:33Z</time>
      </trkpt>
      <trkpt lat="48.22534" lon="-3.96942">
        <ele>113.3</ele>
        <time>2020-06-08T11:26:34Z</time>
      </trkpt>
      <trkpt lat="48.22535" lon="-3.96948">
        <ele>113.3</ele>
        <time>2020-06-08T11:26:35Z</time>
      </trkpt>
      <trkpt lat="48.22536" lon="-3.96954">
        <ele>113.2</ele>
        <time>2020-06-08T11:26:36Z</time>
      </trkpt>
      <trkpt lat="48.22536" lon="-3.96961">
        <ele>113.2</ele>
        <time>2020-06-08T11:26:37Z</time>
      </trkpt>
      <trkpt lat="48.22535" lon="-3.96968">
        <ele>113.2</ele>
        <time>2020-06-08T11:26:38Z</time>
      </trkpt>
      <trkpt lat="48.22534" lon="-3.96975">
        <ele>113.1</ele>
        <time>2020-06-08T11:26:39Z</time>
      </trkpt>
      <trkpt lat="48.22534" lon="-3.96982">
        <ele>113.1</ele>
        <time>2020-06-08T11:26:40Z</time>
      </trkpt>
      <trkpt lat="48.22535" lon="-3.96989">
        <ele>113.1</ele>
        <time>2020-06-08T11:26:41Z</time>
      </trkpt>
      <trkpt lat="48.22536" lon="-3.96996">
        <ele>113.1</ele>
        <time>2020-06-08T11:26:42Z</time>
      </trkpt>
      <trkpt lat="48.22536" lon="-3.97003">
        <ele>113.1</ele>
        <time>2020-06-08T11:26:43Z</time>
      </trkpt>
      <trkpt lat="48.22536" lon="-3.9701">
        <ele>113.1</ele>
        <time>2020-06-08T11:26:44Z</time>
      </trkpt>
      <trkpt lat="48.22536" lon="-3.97016">
        <ele>113.1</ele>
        <time>2020-06-08T11:26:45Z</time>
      </trkpt>
      <trkpt lat="48.22535" lon="-3.97021">
        <ele>113.1</ele>
        <time>2020-06-08T11:26:46Z</time>
      </trkpt>
      <trkpt lat="48.22534" lon="-3.97026">
        <ele>113.1</ele>
        <time>2020-06-08T11:26:47Z</time>
      </trkpt>
      <trkpt lat="48.22534" lon="-3.97031">
        <ele>113.1</ele>
        <time>2020-06-08T11:26:48Z</time>
      </trkpt>
      <trkpt lat="48.22533" lon="-3.97033">
        <ele>113.1</ele>
        <time>2020-06-08T11:26:49Z</time>
      </trkpt>
      <trkpt lat="48.22532" lon="-3.97034">
        <ele>113.1</ele>
        <time>2020-06-08T11:26:50Z</time>
      </trkpt>
      <trkpt lat="48.22532" lon="-3.97034">
        <ele>113.1</ele>
        <time>2020-06-08T11:26:51Z</time>
      </trkpt>
      <trkpt lat="48.22532" lon="-3.97034">
        <ele>113.1</ele>
        <time>2020-06-08T11:26:52Z</time>
      </trkpt>
      <trkpt lat="48.22533" lon="-3.97034">
        <ele>113.1</ele>
        <time>2020-06-08T11:26:53Z</time>
      </trkpt>
      <trkpt lat="48.22534" lon="-3.97035">
        <ele>113.1</ele>
        <time>2020-06-08T11:26:54Z</time>
      </trkpt>
      <trkpt lat="48.22534" lon="-3.97035">
        <ele>113.1</ele>
        <time>2020-06-08T11:26:55Z</time>
      </trkpt>
      <trkpt lat="48.22533" lon="-3.97034">
        <ele>113.1</ele>
        <time>2020-06-08T11:26:56Z</time>
      </trkpt>
      <trkpt lat="48.22533" lon="-3.97034">
        <ele>113.1</ele>
        <time>2020-06-08T11:26:57Z</time>
      </trkpt>
      <trkpt lat="48.22533" lon="-3.97035">
        <ele>113.1</ele>
        <time>2020-06-08T11:26:58Z</time>
      </trkpt>
      <trkpt lat="48.22533" lon="-3.97035">
        <ele>113.1</ele>
        <time>2020-06-08T11:26:59Z</time>
      </trkpt>
      <trkpt lat="48.22533" lon="-3.97036">
        <ele>113.1</ele>
        <time>2020-06-08T11:27:00Z</time>
      </trkpt>
      <trkpt lat="48.22532" lon="-3.97037">
        <ele>113.1</ele>
        <time>2020-06-08T11:27:01Z</time>
      </trkpt>
      <trkpt lat="48.22532" lon="-3.97037">
        <ele>113.1</ele>
        <time>2020-06-08T11:27:02Z</time>
      </trkpt>
      <trkpt lat="48.22532" lon="-3.97036">
        <ele>113.1</ele>
        <time>2020-06-08T11:27:03Z</time>
      </trkpt>
      <trkpt lat="48.22532" lon="-3.97036">
        <ele>113.1</ele>
        <time>2020-06-08T11:27:04Z</time>
      </trkpt>
      <trkpt lat="48.22532" lon="-3.97036">
        <ele>113.1</ele>
        <time>2020-06-08T11:27:05Z</time>
      </trkpt>
      <trkpt lat="48.22532" lon="-3.97036">
        <ele>113.1</ele>
        <time>2020-06-08T11:27:06Z</time>
      </trkpt>
      <trkpt lat="48.22532" lon="-3.97035">
        <ele>113.1</ele>
        <time>2020-06-08T11:27:07Z</time>
      </trkpt>
      <trkpt lat="48.22532" lon="-3.97035">
        <ele>113.1</ele>
        <time>2020-06-08T11:27:08Z</time>
      </trkpt>
      <trkpt lat="48.22532" lon="-3.97035">
        <ele>113.1</ele>
        <time>2020-06-08T11:27:09Z</time>
      </trkpt>
      <trkpt lat="48.22532" lon="-3.97035">
        <ele>113.1</ele>
        <time>2020-06-08T11:27:10Z</time>
      </trkpt>
      <trkpt lat="48.22532" lon="-3.97035">
        <ele>113.1</ele>
        <time>2020-06-08T11:27:11Z</time>
      </trkpt>
      <trkpt lat="48.22532" lon="-3.97034">
        <ele>113.1</ele>
        <time>2020-06-08T11:27:20Z</time>
      </trkpt>
      <trkpt lat="48.22532" lon="-3.97034">
        <ele>113.1</ele>
        <time>2020-06-08T11:27:21Z</time>
      </trkpt>
      <trkpt lat="48.22532" lon="-3.97034">
        <ele>113.1</ele>
        <time>2020-06-08T11:27:22Z</time>
      </trkpt>
      <trkpt lat="48.22532" lon="-3.97034">
        <ele>113.1</ele>
        <time>2020-06-08T11:27:23Z</time>
      </trkpt>
      <trkpt lat="48.22532" lon="-3.97034">
        <ele>113.1</ele>
        <time>2020-06-08T11:27:24Z</time>
      </trkpt>
      <trkpt lat="48.22532" lon="-3.97033">
        <ele>113.1</ele>
        <time>2020-06-08T11:27:25Z</time>
      </trkpt>
      <trkpt lat="48.22532" lon="-3.97033">
        <ele>113.1</ele>
        <time>2020-06-08T11:27:26Z</time>
      </trkpt>
      <trkpt lat="48.22532" lon="-3.97033">
        <ele>113.1</ele>
        <time>2020-06-08T11:27:27Z</time>
      </trkpt>
      <trkpt lat="48.22532" lon="-3.97033">
        <ele>113.1</ele>
        <time>2020-06-08T11:27:28Z</time>
      </trkpt>
      <trkpt lat="48.2253" lon="-3.97027">
        <ele>113.1</ele>
        <time>2020-06-08T11:27:29Z</time>
      </trkpt>
      <trkpt lat="48.22529" lon="-3.97022">
        <ele>113.1</ele>
        <time>2020-06-08T11:27:30Z</time>
      </trkpt>
      <trkpt lat="48.2253" lon="-3.97016">
        <ele>113.1</ele>
        <time>2020-06-08T11:27:31Z</time>
      </trkpt>
      <trkpt lat="48.2253" lon="-3.9701">
        <ele>113.1</ele>
        <time>2020-06-08T11:27:32Z</time>
      </trkpt>
      <trkpt lat="48.22531" lon="-3.97004">
        <ele>113.2</ele>
        <time>2020-06-08T11:27:33Z</time>
      </trkpt>
      <trkpt lat="48.22531" lon="-3.96999">
        <ele>113.2</ele>
        <time>2020-06-08T11:27:34Z</time>
      </trkpt>
      <trkpt lat="48.22531" lon="-3.96993">
        <ele>113.2</ele>
        <time>2020-06-08T11:27:35Z</time>
      </trkpt>
      <trkpt lat="48.22532" lon="-3.96987">
        <ele>113.3</ele>
        <time>2020-06-08T11:27:36Z</time>
      </trkpt>
      <trkpt lat="48.22533" lon="-3.96981">
        <ele>113.3</ele>
        <time>2020-06-08T11:27:37Z</time>
      </trkpt>
      <trkpt lat="48.22533" lon="-3.96974">
        <ele>113.4</ele>
        <time>2020-06-08T11:27:38Z</time>
      </trkpt>
      <trkpt lat="48.22533" lon="-3.96967">
        <ele>113.4</ele>
        <time>2020-06-08T11:27:39Z</time>
      </trkpt>
      <trkpt lat="48.22534" lon="-3.96962">
        <ele>113.4</ele>
        <time>2020-06-08T11:27:40Z</time>
      </trkpt>
      <trkpt lat="48.22534" lon="-3.96956">
        <ele>113.5</ele>
        <time>2020-06-08T11:27:41Z</time>
      </trkpt>
      <trkpt lat="48.22533" lon="-3.96951">
        <ele>113.5</ele>
        <time>2020-06-08T11:27:42Z</time>
      </trkpt>
      <trkpt lat="48.22534" lon="-3.96945">
        <ele>113.5</ele>
        <time>2020-06-08T11:27:43Z</time>
      </trkpt>
      <trkpt lat="48.22534" lon="-3.9694">
        <ele>113.5</ele>
        <time>2020-06-08T11:27:44Z</time>
      </trkpt>
      <trkpt lat="48.22535" lon="-3.96935">
        <ele>113.5</ele>
        <time>2020-06-08T11:27:45Z</time>
      </trkpt>
      <trkpt lat="48.22535" lon="-3.9693">
        <ele>113.5</ele>
        <time>2020-06-08T11:27:46Z</time>
      </trkpt>
      <trkpt lat="48.22538" lon="-3.96926">
        <ele>113.5</ele>
        <time>2020-06-08T11:27:47Z</time>
      </trkpt>
      <trkpt lat="48.22539" lon="-3.96925">
        <ele>113.7</ele>
        <time>2020-06-08T11:27:48Z</time>
      </trkpt>
      <trkpt lat="48.2254" lon="-3.96922">
        <ele>113.7</ele>
        <time>2020-06-08T11:27:49Z</time>
      </trkpt>
      <trkpt lat="48.2254" lon="-3.96922">
        <ele>113.7</ele>
        <time>2020-06-08T11:27:50Z</time>
      </trkpt>
      <trkpt lat="48.2254" lon="-3.96922">
        <ele>113.7</ele>
        <time>2020-06-08T11:27:51Z</time>
      </trkpt>
      <trkpt lat="48.2254" lon="-3.96923">
        <ele>113.7</ele>
        <time>2020-06-08T11:27:52Z</time>
      </trkpt>
      <trkpt lat="48.22541" lon="-3.96923">
        <ele>113.7</ele>
        <time>2020-06-08T11:27:53Z</time>
      </trkpt>
      <trkpt lat="48.22542" lon="-3.96923">
        <ele>113.7</ele>
        <time>2020-06-08T11:27:54Z</time>
      </trkpt>
      <trkpt lat="48.22543" lon="-3.96922">
        <ele>113.8</ele>
        <time>2020-06-08T11:27:55Z</time>
      </trkpt>
      <trkpt lat="48.22543" lon="-3.96922">
        <ele>113.8</ele>
        <time>2020-06-08T11:27:56Z</time>
      </trkpt>
      <trkpt lat="48.22543" lon="-3.96921">
        <ele>113.8</ele>
        <time>2020-06-08T11:27:57Z</time>
      </trkpt>
      <trkpt lat="48.22543" lon="-3.9692">
        <ele>113.8</ele>
        <time>2020-06-08T11:27:58Z</time>
      </trkpt>
      <trkpt lat="48.22543" lon="-3.96919">
        <ele>113.8</ele>
        <time>2020-06-08T11:27:59Z</time>
      </trkpt>
      <trkpt lat="48.22543" lon="-3.96918">
        <ele>113.8</ele>
        <time>2020-06-08T11:28:00Z</time>
      </trkpt>
      <trkpt lat="48.22543" lon="-3.96917">
        <ele>113.8</ele>
        <time>2020-06-08T11:28:01Z</time>
      </trkpt>
      <trkpt lat="48.22543" lon="-3.96916">
        <ele>113.8</ele>
        <time>2020-06-08T11:28:02Z</time>
      </trkpt>
      <trkpt lat="48.22543" lon="-3.96916">
        <ele>113.8</ele>
        <time>2020-06-08T11:28:03Z</time>
      </trkpt>
      <trkpt lat="48.22543" lon="-3.96915">
        <ele>113.8</ele>
        <time>2020-06-08T11:28:04Z</time>
      </trkpt>
      <trkpt lat="48.22543" lon="-3.96914">
        <ele>113.8</ele>
        <time>2020-06-08T11:28:05Z</time>
      </trkpt>
      <trkpt lat="48.22543" lon="-3.96913">
        <ele>113.9</ele>
        <time>2020-06-08T11:28:06Z</time>
      </trkpt>
      <trkpt lat="48.22543" lon="-3.96912">
        <ele>113.9</ele>
        <time>2020-06-08T11:28:07Z</time>
      </trkpt>
      <trkpt lat="48.22543" lon="-3.96911">
        <ele>113.9</ele>
        <time>2020-06-08T11:28:08Z</time>
      </trkpt>
      <trkpt lat="48.22543" lon="-3.9691">
        <ele>113.9</ele>
        <time>2020-06-08T11:28:09Z</time>
      </trkpt>
      <trkpt lat="48.22544" lon="-3.96909">
        <ele>113.9</ele>
        <time>2020-06-08T11:28:10Z</time>
      </trkpt>
      <trkpt lat="48.22544" lon="-3.96909">
        <ele>113.9</ele>
        <time>2020-06-08T11:28:11Z</time>
      </trkpt>
      <trkpt lat="48.22544" lon="-3.96908">
        <ele>113.9</ele>
        <time>2020-06-08T11:28:12Z</time>
      </trkpt>
      <trkpt lat="48.22544" lon="-3.96907">
        <ele>113.9</ele>
        <time>2020-06-08T11:29:56Z</time>
      </trkpt>
      <trkpt lat="48.22544" lon="-3.96906">
        <ele>113.9</ele>
        <time>2020-06-08T11:29:57Z</time>
      </trkpt>
      <trkpt lat="48.22544" lon="-3.96905">
        <ele>113.9</ele>
        <time>2020-06-08T11:29:58Z</time>
      </trkpt>
      <trkpt lat="48.22545" lon="-3.96903">
        <ele>113.9</ele>
        <time>2020-06-08T11:29:59Z</time>
      </trkpt>
      <trkpt lat="48.22545" lon="-3.96902">
        <ele>114</ele>
        <time>2020-06-08T11:30:00Z</time>
      </trkpt>
      <trkpt lat="48.22545" lon="-3.969">
        <ele>114</ele>
        <time>2020-06-08T11:30:01Z</time>
      </trkpt>
      <trkpt lat="48.22546" lon="-3.969">
        <ele>114</ele>
        <time>2020-06-08T11:30:02Z</time>
      </trkpt>
      <trkpt lat="48.22547" lon="-3.96899">
        <ele>114</ele>
        <time>2020-06-08T11:30:03Z</time>
      </trkpt>
      <trkpt lat="48.22548" lon="-3.96899">
        <ele>114</ele>
        <time>2020-06-08T11:30:04Z</time>
      </trkpt>
      <trkpt lat="48.2255" lon="-3.96898">
        <ele>114</ele>
        <time>2020-06-08T11:30:05Z</time>
      </trkpt>
      <trkpt lat="48.22551" lon="-3.96899">
        <ele>114.1</ele>
        <time>2020-06-08T11:30:06Z</time>
      </trkpt>
      <trkpt lat="48.22552" lon="-3.96898">
        <ele>114.1</ele>
        <time>2020-06-08T11:30:07Z</time>
      </trkpt>
      <trkpt lat="48.22553" lon="-3.96898">
        <ele>114.1</ele>
        <time>2020-06-08T11:30:08Z</time>
      </trkpt>
      <trkpt lat="48.22553" lon="-3.96898">
        <ele>114.1</ele>
        <time>2020-06-08T11:30:09Z</time>
      </trkpt>
      <trkpt lat="48.22554" lon="-3.96899">
        <ele>114.1</ele>
        <time>2020-06-08T11:30:10Z</time>
      </trkpt>
      <trkpt lat="48.22554" lon="-3.96899">
        <ele>114.1</ele>
        <time>2020-06-08T11:30:11Z</time>
      </trkpt>
      <trkpt lat="48.22555" lon="-3.969">
        <ele>114.1</ele>
        <time>2020-06-08T11:30:12Z</time>
      </trkpt>
      <trkpt lat="48.22555" lon="-3.969">
        <ele>114.1</ele>
        <time>2020-06-08T11:30:13Z</time>
      </trkpt>
      <trkpt lat="48.22555" lon="-3.969">
        <ele>114.1</ele>
        <time>2020-06-08T11:30:14Z</time>
      </trkpt>
      <trkpt lat="48.22556" lon="-3.96901">
        <ele>114.1</ele>
        <time>2020-06-08T11:30:15Z</time>
      </trkpt>
      <trkpt lat="48.22556" lon="-3.96901">
        <ele>114.1</ele>
        <time>2020-06-08T11:30:16Z</time>
      </trkpt>
      <trkpt lat="48.22556" lon="-3.96901">
        <ele>114.1</ele>
        <time>2020-06-08T11:30:17Z</time>
      </trkpt>
      <trkpt lat="48.22556" lon="-3.96901">
        <ele>114.1</ele>
        <time>2020-06-08T11:30:18Z</time>
      </trkpt>
      <trkpt lat="48.22556" lon="-3.96901">
        <ele>114.1</ele>
        <time>2020-06-08T11:30:19Z</time>
      </trkpt>
      <trkpt lat="48.22556" lon="-3.96901">
        <ele>114.1</ele>
        <time>2020-06-08T11:30:20Z</time>
      </trkpt>
      <trkpt lat="48.22556" lon="-3.96901">
        <ele>114.1</ele>
        <time>2020-06-08T11:30:21Z</time>
      </trkpt>
      <trkpt lat="48.22556" lon="-3.96901">
        <ele>114.1</ele>
        <time>2020-06-08T11:30:22Z</time>
      </trkpt>
      <trkpt lat="48.22556" lon="-3.96901">
        <ele>114.1</ele>
        <time>2020-06-08T11:30:23Z</time>
      </trkpt>
      <trkpt lat="48.22556" lon="-3.96894">
        <ele>114.2</ele>
        <time>2020-06-08T11:30:57Z</time>
      </trkpt>
      <trkpt lat="48.22557" lon="-3.96891">
        <ele>114.2</ele>
        <time>2020-06-08T11:30:58Z</time>
      </trkpt>
      <trkpt lat="48.22557" lon="-3.96891">
        <ele>114.2</ele>
        <time>2020-06-08T11:30:59Z</time>
      </trkpt>
      <trkpt lat="48.22557" lon="-3.96891">
        <ele>114.2</ele>
        <time>2020-06-08T11:31:00Z</time>
      </trkpt>
      <trkpt lat="48.22557" lon="-3.96891">
        <ele>114.2</ele>
        <time>2020-06-08T11:31:01Z</time>
      </trkpt>
      <trkpt lat="48.22558" lon="-3.9689">
        <ele>114.2</ele>
        <time>2020-06-08T11:31:02Z</time>
      </trkpt>
      <trkpt lat="48.22557" lon="-3.9689">
        <ele>114.2</ele>
        <time>2020-06-08T11:31:03Z</time>
      </trkpt>
      <trkpt lat="48.22557" lon="-3.96892">
        <ele>114.2</ele>
        <time>2020-06-08T11:31:04Z</time>
      </trkpt>
      <trkpt lat="48.22557" lon="-3.96891">
        <ele>114.2</ele>
        <time>2020-06-08T11:31:05Z</time>
      </trkpt>
      <trkpt lat="48.22556" lon="-3.96892">
        <ele>114.3</ele>
        <time>2020-06-08T11:31:06Z</time>
      </trkpt>
      <trkpt lat="48.22556" lon="-3.96896">
        <ele>114.3</ele>
        <time>2020-06-08T11:31:07Z</time>
      </trkpt>
      <trkpt lat="48.22556" lon="-3.96897">
        <ele>114.3</ele>
        <time>2020-06-08T11:31:08Z</time>
      </trkpt>
      <trkpt lat="48.22555" lon="-3.96897">
        <ele>114.3</ele>
        <time>2020-06-08T11:31:09Z</time>
      </trkpt>
      <trkpt lat="48.22556" lon="-3.96898">
        <ele>114.3</ele>
        <time>2020-06-08T11:31:10Z</time>
      </trkpt>
      <trkpt lat="48.22555" lon="-3.96899">
        <ele>114.3</ele>
        <time>2020-06-08T11:31:11Z</time>
      </trkpt>
      <trkpt lat="48.22556" lon="-3.96899">
        <ele>114.3</ele>
        <time>2020-06-08T11:31:12Z</time>
      </trkpt>
      <trkpt lat="48.22556" lon="-3.969">
        <ele>114.3</ele>
        <time>2020-06-08T11:31:13Z</time>
      </trkpt>
      <trkpt lat="48.22556" lon="-3.969">
        <ele>114.3</ele>
        <time>2020-06-08T11:31:14Z</time>
      </trkpt>
      <trkpt lat="48.22556" lon="-3.969">
        <ele>114.3</ele>
        <time>2020-06-08T11:31:15Z</time>
      </trkpt>
      <trkpt lat="48.22556" lon="-3.96899">
        <ele>114.3</ele>
        <time>2020-06-08T11:31:16Z</time>
      </trkpt>
      <trkpt lat="48.22556" lon="-3.96899">
        <ele>114.3</ele>
        <time>2020-06-08T11:31:17Z</time>
      </trkpt>
      <trkpt lat="48.22556" lon="-3.96899">
        <ele>114.3</ele>
        <time>2020-06-08T11:31:18Z</time>
      </trkpt>
      <trkpt lat="48.22556" lon="-3.96899">
        <ele>114.3</ele>
        <time>2020-06-08T11:31:19Z</time>
      </trkpt>
      <trkpt lat="48.22556" lon="-3.96899">
        <ele>114.3</ele>
        <time>2020-06-08T11:31:20Z</time>
      </trkpt>
      <trkpt lat="48.22556" lon="-3.96899">
        <ele>114.3</ele>
        <time>2020-06-08T11:31:21Z</time>
      </trkpt>
      <trkpt lat="48.22556" lon="-3.96899">
        <ele>114.3</ele>
        <time>2020-06-08T11:31:22Z</time>
      </trkpt>
      <trkpt lat="48.22556" lon="-3.96899">
        <ele>114.3</ele>
        <time>2020-06-08T11:31:23Z</time>
      </trkpt>
      <trkpt lat="48.22556" lon="-3.96899">
        <ele>114.3</ele>
        <time>2020-06-08T11:31:24Z</time>
      </trkpt>
      <trkpt lat="48.22556" lon="-3.96899">
        <ele>114.3</ele>
        <time>2020-06-08T11:31:25Z</time>
      </trkpt>
      <trkpt lat="48.22556" lon="-3.96899">
        <ele>114.3</ele>
        <time>2020-06-08T11:31:26Z</time>
      </trkpt>
      <trkpt lat="48.22556" lon="-3.96899">
        <ele>114.3</ele>
        <time>2020-06-08T11:31:27Z</time>
      </trkpt>
      <trkpt lat="48.22558" lon="-3.96868">
        <ele>114.5</ele>
        <time>2020-06-08T12:01:11Z</time>
      </trkpt>
      <trkpt lat="48.22558" lon="-3.96869">
        <ele>114.5</ele>
        <time>2020-06-08T12:01:12Z</time>
      </trkpt>
      <trkpt lat="48.22558" lon="-3.96869">
        <ele>114.5</ele>
        <time>2020-06-08T12:01:13Z</time>
      </trkpt>
      <trkpt lat="48.22558" lon="-3.9687">
        <ele>114.5</ele>
        <time>2020-06-08T12:01:14Z</time>
      </trkpt>
      <trkpt lat="48.22557" lon="-3.96869">
        <ele>114.6</ele>
        <time>2020-06-08T12:01:15Z</time>
      </trkpt>
      <trkpt lat="48.22557" lon="-3.96869">
        <ele>114.6</ele>
        <time>2020-06-08T12:01:16Z</time>
      </trkpt>
      <trkpt lat="48.22557" lon="-3.96868">
        <ele>114.6</ele>
        <time>2020-06-08T12:01:17Z</time>
      </trkpt>
      <trkpt lat="48.22557" lon="-3.96868">
        <ele>114.6</ele>
        <time>2020-06-08T12:01:18Z</time>
      </trkpt>
      <trkpt lat="48.22557" lon="-3.96867">
        <ele>114.6</ele>
        <time>2020-06-08T12:01:19Z</time>
      </trkpt>
      <trkpt lat="48.22557" lon="-3.96867">
        <ele>114.6</ele>
        <time>2020-06-08T12:01:20Z</time>
      </trkpt>
      <trkpt lat="48.22556" lon="-3.96867">
        <ele>114.6</ele>
        <time>2020-06-08T12:01:21Z</time>
      </trkpt>
      <trkpt lat="48.22556" lon="-3.96867">
        <ele>114.6</ele>
        <time>2020-06-08T12:01:22Z</time>
      </trkpt>
      <trkpt lat="48.22556" lon="-3.96867">
        <ele>114.6</ele>
        <time>2020-06-08T12:01:23Z</time>
      </trkpt>
      <trkpt lat="48.22555" lon="-3.96866">
        <ele>114.6</ele>
        <time>2020-06-08T12:01:24Z</time>
      </trkpt>
      <trkpt lat="48.22555" lon="-3.96866">
        <ele>114.6</ele>
        <time>2020-06-08T12:01:25Z</time>
      </trkpt>
      <trkpt lat="48.2255" lon="-3.96915">
        <ele>114.9</ele>
        <time>2020-06-08T13:03:43Z</time>
      </trkpt>
      <trkpt lat="48.22551" lon="-3.96916">
        <ele>114.9</ele>
        <time>2020-06-08T13:03:44Z</time>
      </trkpt>
      <trkpt lat="48.22551" lon="-3.96917">
        <ele>114.9</ele>
        <time>2020-06-08T13:03:45Z</time>
      </trkpt>
      <trkpt lat="48.22552" lon="-3.96917">
        <ele>114.9</ele>
        <time>2020-06-08T13:03:46Z</time>
      </trkpt>
      <trkpt lat="48.22552" lon="-3.96918">
        <ele>114.9</ele>
        <time>2020-06-08T13:03:47Z</time>
      </trkpt>
      <trkpt lat="48.22552" lon="-3.96918">
        <ele>114.9</ele>
        <time>2020-06-08T13:03:48Z</time>
      </trkpt>
      <trkpt lat="48.22553" lon="-3.96918">
        <ele>115</ele>
        <time>2020-06-08T13:03:49Z</time>
      </trkpt>
      <trkpt lat="48.22553" lon="-3.96919">
        <ele>115</ele>
        <time>2020-06-08T13:03:50Z</time>
      </trkpt>
      <trkpt lat="48.22554" lon="-3.96919">
        <ele>115</ele>
        <time>2020-06-08T13:03:51Z</time>
      </trkpt>
      <trkpt lat="48.22554" lon="-3.96919">
        <ele>115</ele>
        <time>2020-06-08T13:03:52Z</time>
      </trkpt>
      <trkpt lat="48.22554" lon="-3.9692">
        <ele>115</ele>
        <time>2020-06-08T13:03:53Z</time>
      </trkpt>
      <trkpt lat="48.22555" lon="-3.9692">
        <ele>115</ele>
        <time>2020-06-08T13:03:54Z</time>
      </trkpt>
      <trkpt lat="48.22555" lon="-3.9692">
        <ele>115</ele>
        <time>2020-06-08T13:03:55Z</time>
      </trkpt>
      <trkpt lat="48.22555" lon="-3.96921">
        <ele>115</ele>
        <time>2020-06-08T13:03:56Z</time>
      </trkpt>
      <trkpt lat="48.22556" lon="-3.96921">
        <ele>115</ele>
        <time>2020-06-08T13:03:57Z</time>
      </trkpt>
      <trkpt lat="48.22556" lon="-3.96921">
        <ele>115</ele>
        <time>2020-06-08T13:03:58Z</time>
      </trkpt>
      <trkpt lat="48.22556" lon="-3.96922">
        <ele>115</ele>
        <time>2020-06-08T13:03:59Z</time>
      </trkpt>
      <trkpt lat="48.22557" lon="-3.96922">
        <ele>115</ele>
        <time>2020-06-08T13:04:00Z</time>
      </trkpt>
      <trkpt lat="48.22557" lon="-3.96922">
        <ele>115</ele>
        <time>2020-06-08T13:04:01Z</time>
      </trkpt>
      <trkpt lat="48.22558" lon="-3.96923">
        <ele>115</ele>
        <time>2020-06-08T13:04:02Z</time>
      </trkpt>
      <trkpt lat="48.22558" lon="-3.96923">
        <ele>115</ele>
        <time>2020-06-08T13:04:03Z</time>
      </trkpt>
      <trkpt lat="48.22558" lon="-3.96923">
        <ele>115</ele>
        <time>2020-06-08T13:04:25Z</time>
      </trkpt>
      <trkpt lat="48.22559" lon="-3.96923">
        <ele>115</ele>
        <time>2020-06-08T13:04:26Z</time>
      </trkpt>
      <trkpt lat="48.22561" lon="-3.96927">
        <ele>115.1</ele>
        <time>2020-06-08T13:04:27Z</time>
      </trkpt>
      <trkpt lat="48.22564" lon="-3.9693">
        <ele>115.1</ele>
        <time>2020-06-08T13:04:28Z</time>
      </trkpt>
      <trkpt lat="48.22566" lon="-3.96931">
        <ele>115.2</ele>
        <time>2020-06-08T13:04:29Z</time>
      </trkpt>
      <trkpt lat="48.22569" lon="-3.96933">
        <ele>115.2</ele>
        <time>2020-06-08T13:04:30Z</time>
      </trkpt>
      <trkpt lat="48.22573" lon="-3.96936">
        <ele>115.3</ele>
        <time>2020-06-08T13:04:31Z</time>
      </trkpt>
      <trkpt lat="48.22577" lon="-3.96937">
        <ele>115.3</ele>
        <time>2020-06-08T13:04:32Z</time>
      </trkpt>
      <trkpt lat="48.22581" lon="-3.96939">
        <ele>115.4</ele>
        <time>2020-06-08T13:04:33Z</time>
      </trkpt>
      <trkpt lat="48.22585" lon="-3.9694">
        <ele>115.4</ele>
        <time>2020-06-08T13:04:34Z</time>
      </trkpt>
      <trkpt lat="48.22588" lon="-3.96941">
        <ele>115.5</ele>
        <time>2020-06-08T13:04:35Z</time>
      </trkpt>
      <trkpt lat="48.22592" lon="-3.96943">
        <ele>115.5</ele>
        <time>2020-06-08T13:04:36Z</time>
      </trkpt>
      <trkpt lat="48.22595" lon="-3.96944">
        <ele>115.5</ele>
        <time>2020-06-08T13:04:37Z</time>
      </trkpt>
      <trkpt lat="48.22599" lon="-3.96946">
        <ele>115.6</ele>
        <time>2020-06-08T13:04:38Z</time>
      </trkpt>
      <trkpt lat="48.22603" lon="-3.96947">
        <ele>115.6</ele>
        <time>2020-06-08T13:04:39Z</time>
      </trkpt>
      <trkpt lat="48.22607" lon="-3.96949">
        <ele>115.7</ele>
        <time>2020-06-08T13:04:40Z</time>
      </trkpt>
      <trkpt lat="48.22611" lon="-3.96949">
        <ele>115.7</ele>
        <time>2020-06-08T13:04:41Z</time>
      </trkpt>
      <trkpt lat="48.22616" lon="-3.96949">
        <ele>115.8</ele>
        <time>2020-06-08T13:04:42Z</time>
      </trkpt>
      <trkpt lat="48.2262" lon="-3.96949">
        <ele>116.3</ele>
        <time>2020-06-08T13:04:43Z</time>
      </trkpt>
      <trkpt lat="48.22624" lon="-3.96949">
        <ele>116.3</ele>
        <time>2020-06-08T13:04:44Z</time>
      </trkpt>
      <trkpt lat="48.22628" lon="-3.96948">
        <ele>116.3</ele>
        <time>2020-06-08T13:04:45Z</time>
      </trkpt>
      <trkpt lat="48.22631" lon="-3.96947">
        <ele>116.4</ele>
        <time>2020-06-08T13:04:46Z</time>
      </trkpt>
      <trkpt lat="48.22634" lon="-3.96945">
        <ele>116.4</ele>
        <time>2020-06-08T13:04:47Z</time>
      </trkpt>
      <trkpt lat="48.22637" lon="-3.96944">
        <ele>116.4</ele>
        <time>2020-06-08T13:04:48Z</time>
      </trkpt>
      <trkpt lat="48.2264" lon="-3.96943">
        <ele>116.4</ele>
        <time>2020-06-08T13:04:49Z</time>
      </trkpt>
      <trkpt lat="48.22643" lon="-3.96942">
        <ele>116.4</ele>
        <time>2020-06-08T13:04:50Z</time>
      </trkpt>
      <trkpt lat="48.22646" lon="-3.96944">
        <ele>116.5</ele>
        <time>2020-06-08T13:04:51Z</time>
      </trkpt>
      <trkpt lat="48.22649" lon="-3.96947">
        <ele>116.5</ele>
        <time>2020-06-08T13:04:52Z</time>
      </trkpt>
      <trkpt lat="48.2265" lon="-3.96949">
        <ele>116.5</ele>
        <time>2020-06-08T13:04:53Z</time>
      </trkpt>
      <trkpt lat="48.22652" lon="-3.96953">
        <ele>116.5</ele>
        <time>2020-06-08T13:04:54Z</time>
      </trkpt>
      <trkpt lat="48.22654" lon="-3.96956">
        <ele>116.5</ele>
        <time>2020-06-08T13:04:55Z</time>
      </trkpt>
      <trkpt lat="48.22656" lon="-3.96959">
        <ele>116.6</ele>
        <time>2020-06-08T13:04:56Z</time>
      </trkpt>
      <trkpt lat="48.22659" lon="-3.96962">
        <ele>116.6</ele>
        <time>2020-06-08T13:04:57Z</time>
      </trkpt>
      <trkpt lat="48.2266" lon="-3.96963">
        <ele>116.7</ele>
        <time>2020-06-08T13:04:58Z</time>
      </trkpt>
      <trkpt lat="48.22662" lon="-3.96969">
        <ele>116.7</ele>
        <time>2020-06-08T13:04:59Z</time>
      </trkpt>
      <trkpt lat="48.22662" lon="-3.96971">
        <ele>116.7</ele>
        <time>2020-06-08T13:05:00Z</time>
      </trkpt>
      <trkpt lat="48.22662" lon="-3.96976">
        <ele>116.8</ele>
        <time>2020-06-08T13:05:01Z</time>
      </trkpt>
      <trkpt lat="48.22662" lon="-3.96978">
        <ele>116.8</ele>
        <time>2020-06-08T13:05:02Z</time>
      </trkpt>
      <trkpt lat="48.22662" lon="-3.96982">
        <ele>116.8</ele>
        <time>2020-06-08T13:05:03Z</time>
      </trkpt>
      <trkpt lat="48.22663" lon="-3.96984">
        <ele>116.8</ele>
        <time>2020-06-08T13:05:04Z</time>
      </trkpt>
      <trkpt lat="48.22662" lon="-3.96986">
        <ele>116.9</ele>
        <time>2020-06-08T13:05:05Z</time>
      </trkpt>
      <trkpt lat="48.22663" lon="-3.96989">
        <ele>116.9</ele>
        <time>2020-06-08T13:05:06Z</time>
      </trkpt>
      <trkpt lat="48.22664" lon="-3.96994">
        <ele>117</ele>
        <time>2020-06-08T13:05:07Z</time>
      </trkpt>
      <trkpt lat="48.22665" lon="-3.96996">
        <ele>117</ele>
        <time>2020-06-08T13:05:08Z</time>
      </trkpt>
      <trkpt lat="48.22666" lon="-3.96999">
        <ele>117</ele>
        <time>2020-06-08T13:05:09Z</time>
      </trkpt>
      <trkpt lat="48.22667" lon="-3.97">
        <ele>117.1</ele>
        <time>2020-06-08T13:05:10Z</time>
      </trkpt>
      <trkpt lat="48.22669" lon="-3.97004">
        <ele>117.1</ele>
        <time>2020-06-08T13:05:11Z</time>
      </trkpt>
      <trkpt lat="48.2267" lon="-3.97004">
        <ele>117.1</ele>
        <time>2020-06-08T13:05:12Z</time>
      </trkpt>
      <trkpt lat="48.22673" lon="-3.97006">
        <ele>117.1</ele>
        <time>2020-06-08T13:05:13Z</time>
      </trkpt>
      <trkpt lat="48.22676" lon="-3.97007">
        <ele>117.1</ele>
        <time>2020-06-08T13:05:14Z</time>
      </trkpt>
      <trkpt lat="48.22679" lon="-3.97009">
        <ele>117.1</ele>
        <time>2020-06-08T13:05:15Z</time>
      </trkpt>
      <trkpt lat="48.22682" lon="-3.9701">
        <ele>117.2</ele>
        <time>2020-06-08T13:05:16Z</time>
      </trkpt>
      <trkpt lat="48.22685" lon="-3.97012">
        <ele>117.2</ele>
        <time>2020-06-08T13:05:17Z</time>
      </trkpt>
      <trkpt lat="48.22686" lon="-3.97012">
        <ele>117.2</ele>
        <time>2020-06-08T13:05:18Z</time>
      </trkpt>
      <trkpt lat="48.2269" lon="-3.97013">
        <ele>117.3</ele>
        <time>2020-06-08T13:05:19Z</time>
      </trkpt>
      <trkpt lat="48.22691" lon="-3.97013">
        <ele>117.3</ele>
        <time>2020-06-08T13:05:20Z</time>
      </trkpt>
      <trkpt lat="48.22694" lon="-3.97014">
        <ele>117.4</ele>
        <time>2020-06-08T13:05:21Z</time>
      </trkpt>
      <trkpt lat="48.22695" lon="-3.97015">
        <ele>117.4</ele>
        <time>2020-06-08T13:05:22Z</time>
      </trkpt>
      <trkpt lat="48.22696" lon="-3.97016">
        <ele>117.4</ele>
        <time>2020-06-08T13:05:23Z</time>
      </trkpt>
      <trkpt lat="48.22698" lon="-3.97017">
        <ele>117.4</ele>
        <time>2020-06-08T13:05:24Z</time>
      </trkpt>
      <trkpt lat="48.22701" lon="-3.97019">
        <ele>117.6</ele>
        <time>2020-06-08T13:05:25Z</time>
      </trkpt>
      <trkpt lat="48.22703" lon="-3.97019">
        <ele>117.7</ele>
        <time>2020-06-08T13:05:26Z</time>
      </trkpt>
      <trkpt lat="48.22706" lon="-3.97018">
        <ele>118.1</ele>
        <time>2020-06-08T13:05:27Z</time>
      </trkpt>
      <trkpt lat="48.22708" lon="-3.97018">
        <ele>118.2</ele>
        <time>2020-06-08T13:05:28Z</time>
      </trkpt>
      <trkpt lat="48.22711" lon="-3.97016">
        <ele>118.6</ele>
        <time>2020-06-08T13:05:29Z</time>
      </trkpt>
      <trkpt lat="48.22714" lon="-3.97017">
        <ele>118.6</ele>
        <time>2020-06-08T13:05:30Z</time>
      </trkpt>
      <trkpt lat="48.22717" lon="-3.97015">
        <ele>118.5</ele>
        <time>2020-06-08T13:05:31Z</time>
      </trkpt>
      <trkpt lat="48.2272" lon="-3.97014">
        <ele>118.5</ele>
        <time>2020-06-08T13:05:32Z</time>
      </trkpt>
      <trkpt lat="48.22724" lon="-3.97013">
        <ele>118.5</ele>
        <time>2020-06-08T13:05:33Z</time>
      </trkpt>
      <trkpt lat="48.22728" lon="-3.97012">
        <ele>118.4</ele>
        <time>2020-06-08T13:05:34Z</time>
      </trkpt>
      <trkpt lat="48.22732" lon="-3.97011">
        <ele>118.3</ele>
        <time>2020-06-08T13:05:35Z</time>
      </trkpt>
      <trkpt lat="48.22735" lon="-3.9701">
        <ele>118.3</ele>
        <time>2020-06-08T13:05:36Z</time>
      </trkpt>
      <trkpt lat="48.22739" lon="-3.97011">
        <ele>118.2</ele>
        <time>2020-06-08T13:05:37Z</time>
      </trkpt>
      <trkpt lat="48.22742" lon="-3.9701">
        <ele>118.1</ele>
        <time>2020-06-08T13:05:38Z</time>
      </trkpt>
      <trkpt lat="48.22746" lon="-3.97009">
        <ele>118.1</ele>
        <time>2020-06-08T13:05:39Z</time>
      </trkpt>
      <trkpt lat="48.22749" lon="-3.97009">
        <ele>118</ele>
        <time>2020-06-08T13:05:40Z</time>
      </trkpt>
      <trkpt lat="48.22752" lon="-3.97009">
        <ele>117.9</ele>
        <time>2020-06-08T13:05:41Z</time>
      </trkpt>
      <trkpt lat="48.22756" lon="-3.97008">
        <ele>117.8</ele>
        <time>2020-06-08T13:05:42Z</time>
      </trkpt>
      <trkpt lat="48.22759" lon="-3.97009">
        <ele>117.8</ele>
        <time>2020-06-08T13:05:43Z</time>
      </trkpt>
      <trkpt lat="48.22763" lon="-3.97009">
        <ele>117.8</ele>
        <time>2020-06-08T13:05:44Z</time>
      </trkpt>
      <trkpt lat="48.22767" lon="-3.97011">
        <ele>117.9</ele>
        <time>2020-06-08T13:05:45Z</time>
      </trkpt>
      <trkpt lat="48.22771" lon="-3.97012">
        <ele>117.9</ele>
        <time>2020-06-08T13:05:46Z</time>
      </trkpt>
      <trkpt lat="48.22774" lon="-3.97013">
        <ele>117.9</ele>
        <time>2020-06-08T13:05:47Z</time>
      </trkpt>
      <trkpt lat="48.22778" lon="-3.97015">
        <ele>117.9</ele>
        <time>2020-06-08T13:05:48Z</time>
      </trkpt>
      <trkpt lat="48.22781" lon="-3.97017">
        <ele>117.9</ele>
        <time>2020-06-08T13:05:49Z</time>
      </trkpt>
      <trkpt lat="48.22785" lon="-3.9702">
        <ele>117.8</ele>
        <time>2020-06-08T13:05:50Z</time>
      </trkpt>
      <trkpt lat="48.22787" lon="-3.97025">
        <ele>117.7</ele>
        <time>2020-06-08T13:05:51Z</time>
      </trkpt>
      <trkpt lat="48.22788" lon="-3.97032">
        <ele>117.4</ele>
        <time>2020-06-08T13:05:52Z</time>
      </trkpt>
      <trkpt lat="48.22789" lon="-3.97039">
        <ele>117.2</ele>
        <time>2020-06-08T13:05:53Z</time>
      </trkpt>
      <trkpt lat="48.22789" lon="-3.97046">
        <ele>117</ele>
        <time>2020-06-08T13:05:54Z</time>
      </trkpt>
      <trkpt lat="48.22789" lon="-3.97053">
        <ele>116.8</ele>
        <time>2020-06-08T13:05:55Z</time>
      </trkpt>
      <trkpt lat="48.22789" lon="-3.9706">
        <ele>116.7</ele>
        <time>2020-06-08T13:05:56Z</time>
      </trkpt>
      <trkpt lat="48.22789" lon="-3.97067">
        <ele>116.6</ele>
        <time>2020-06-08T13:05:57Z</time>
      </trkpt>
      <trkpt lat="48.22788" lon="-3.97073">
        <ele>116.5</ele>
        <time>2020-06-08T13:05:58Z</time>
      </trkpt>
      <trkpt lat="48.22787" lon="-3.9708">
        <ele>116.3</ele>
        <time>2020-06-08T13:05:59Z</time>
      </trkpt>
      <trkpt lat="48.22784" lon="-3.97086">
        <ele>116</ele>
        <time>2020-06-08T13:06:00Z</time>
      </trkpt>
      <trkpt lat="48.22782" lon="-3.97094">
        <ele>115.6</ele>
        <time>2020-06-08T13:06:01Z</time>
      </trkpt>
      <trkpt lat="48.2278" lon="-3.97102">
        <ele>115.2</ele>
        <time>2020-06-08T13:06:02Z</time>
      </trkpt>
      <trkpt lat="48.22777" lon="-3.97111">
        <ele>114.7</ele>
        <time>2020-06-08T13:06:03Z</time>
      </trkpt>
      <trkpt lat="48.22775" lon="-3.9712">
        <ele>114.1</ele>
        <time>2020-06-08T13:06:04Z</time>
      </trkpt>
      <trkpt lat="48.22775" lon="-3.9713">
        <ele>113.6</ele>
        <time>2020-06-08T13:06:05Z</time>
      </trkpt>
      <trkpt lat="48.22775" lon="-3.97139">
        <ele>113.1</ele>
        <time>2020-06-08T13:06:06Z</time>
      </trkpt>
      <trkpt lat="48.22775" lon="-3.97148">
        <ele>112.5</ele>
        <time>2020-06-08T13:06:07Z</time>
      </trkpt>
      <trkpt lat="48.22776" lon="-3.97156">
        <ele>112</ele>
        <time>2020-06-08T13:06:08Z</time>
      </trkpt>
      <trkpt lat="48.22778" lon="-3.97166">
        <ele>111.5</ele>
        <time>2020-06-08T13:06:09Z</time>
      </trkpt>
      <trkpt lat="48.22781" lon="-3.97176">
        <ele>111</ele>
        <time>2020-06-08T13:06:10Z</time>
      </trkpt>
      <trkpt lat="48.22783" lon="-3.97186">
        <ele>110.4</ele>
        <time>2020-06-08T13:06:11Z</time>
      </trkpt>
      <trkpt lat="48.22786" lon="-3.97197">
        <ele>109.8</ele>
        <time>2020-06-08T13:06:12Z</time>
      </trkpt>
      <trkpt lat="48.22789" lon="-3.97208">
        <ele>109.2</ele>
        <time>2020-06-08T13:06:13Z</time>
      </trkpt>
      <trkpt lat="48.22793" lon="-3.97218">
        <ele>108.5</ele>
        <time>2020-06-08T13:06:14Z</time>
      </trkpt>
      <trkpt lat="48.22798" lon="-3.97228">
        <ele>107.8</ele>
        <time>2020-06-08T13:06:15Z</time>
      </trkpt>
      <trkpt lat="48.22803" lon="-3.97239">
        <ele>107.1</ele>
        <time>2020-06-08T13:06:16Z</time>
      </trkpt>
      <trkpt lat="48.22808" lon="-3.9725">
        <ele>106.4</ele>
        <time>2020-06-08T13:06:17Z</time>
      </trkpt>
      <trkpt lat="48.22813" lon="-3.97261">
        <ele>105.6</ele>
        <time>2020-06-08T13:06:18Z</time>
      </trkpt>
      <trkpt lat="48.22818" lon="-3.97272">
        <ele>104.8</ele>
        <time>2020-06-08T13:06:19Z</time>
      </trkpt>
      <trkpt lat="48.22824" lon="-3.97284">
        <ele>104</ele>
        <time>2020-06-08T13:06:20Z</time>
      </trkpt>
      <trkpt lat="48.22831" lon="-3.97295">
        <ele>103.1</ele>
        <time>2020-06-08T13:06:21Z</time>
      </trkpt>
      <trkpt lat="48.22837" lon="-3.97307">
        <ele>102.2</ele>
        <time>2020-06-08T13:06:22Z</time>
      </trkpt>
      <trkpt lat="48.22844" lon="-3.97319">
        <ele>101.3</ele>
        <time>2020-06-08T13:06:23Z</time>
      </trkpt>
      <trkpt lat="48.22851" lon="-3.97331">
        <ele>100.3</ele>
        <time>2020-06-08T13:06:24Z</time>
      </trkpt>
      <trkpt lat="48.22859" lon="-3.97343">
        <ele>99.4</ele>
        <time>2020-06-08T13:06:25Z</time>
      </trkpt>
      <trkpt lat="48.22866" lon="-3.97356">
        <ele>98.4</ele>
        <time>2020-06-08T13:06:26Z</time>
      </trkpt>
      <trkpt lat="48.22873" lon="-3.97369">
        <ele>97.4</ele>
        <time>2020-06-08T13:06:27Z</time>
      </trkpt>
      <trkpt lat="48.22881" lon="-3.97382">
        <ele>96.4</ele>
        <time>2020-06-08T13:06:28Z</time>
      </trkpt>
      <trkpt lat="48.22889" lon="-3.97395">
        <ele>95.4</ele>
        <time>2020-06-08T13:06:29Z</time>
      </trkpt>
      <trkpt lat="48.22896" lon="-3.97409">
        <ele>94.2</ele>
        <time>2020-06-08T13:06:30Z</time>
      </trkpt>
      <trkpt lat="48.22904" lon="-3.97423">
        <ele>93.1</ele>
        <time>2020-06-08T13:06:31Z</time>
      </trkpt>
      <trkpt lat="48.22911" lon="-3.97438">
        <ele>92</ele>
        <time>2020-06-08T13:06:32Z</time>
      </trkpt>
      <trkpt lat="48.22919" lon="-3.97453">
        <ele>90.9</ele>
        <time>2020-06-08T13:06:33Z</time>
      </trkpt>
      <trkpt lat="48.22926" lon="-3.97468">
        <ele>89.6</ele>
        <time>2020-06-08T13:06:34Z</time>
      </trkpt>
      <trkpt lat="48.22932" lon="-3.97484">
        <ele>88.9</ele>
        <time>2020-06-08T13:06:35Z</time>
      </trkpt>
      <trkpt lat="48.22939" lon="-3.975">
        <ele>88.2</ele>
        <time>2020-06-08T13:06:36Z</time>
      </trkpt>
      <trkpt lat="48.22945" lon="-3.97518">
        <ele>87.4</ele>
        <time>2020-06-08T13:06:37Z</time>
      </trkpt>
      <trkpt lat="48.2295" lon="-3.97536">
        <ele>86.3</ele>
        <time>2020-06-08T13:06:38Z</time>
      </trkpt>
      <trkpt lat="48.22955" lon="-3.97554">
        <ele>85</ele>
        <time>2020-06-08T13:06:39Z</time>
      </trkpt>
      <trkpt lat="48.22959" lon="-3.97573">
        <ele>83.8</ele>
        <time>2020-06-08T13:06:40Z</time>
      </trkpt>
      <trkpt lat="48.22963" lon="-3.97593">
        <ele>82.7</ele>
        <time>2020-06-08T13:06:41Z</time>
      </trkpt>
      <trkpt lat="48.22967" lon="-3.97612">
        <ele>81.6</ele>
        <time>2020-06-08T13:06:42Z</time>
      </trkpt>
      <trkpt lat="48.2297" lon="-3.97631">
        <ele>80.6</ele>
        <time>2020-06-08T13:06:43Z</time>
      </trkpt>
      <trkpt lat="48.22973" lon="-3.97651">
        <ele>79.7</ele>
        <time>2020-06-08T13:06:44Z</time>
      </trkpt>
      <trkpt lat="48.22976" lon="-3.9767">
        <ele>78.9</ele>
        <time>2020-06-08T13:06:45Z</time>
      </trkpt>
      <trkpt lat="48.22979" lon="-3.97688">
        <ele>78.2</ele>
        <time>2020-06-08T13:06:46Z</time>
      </trkpt>
      <trkpt lat="48.22981" lon="-3.97707">
        <ele>77.7</ele>
        <time>2020-06-08T13:06:47Z</time>
      </trkpt>
      <trkpt lat="48.22984" lon="-3.97725">
        <ele>77</ele>
        <time>2020-06-08T13:06:48Z</time>
      </trkpt>
      <trkpt lat="48.22987" lon="-3.97742">
        <ele>76.5</ele>
        <time>2020-06-08T13:06:49Z</time>
      </trkpt>
      <trkpt lat="48.2299" lon="-3.9776">
        <ele>76.1</ele>
        <time>2020-06-08T13:06:50Z</time>
      </trkpt>
      <trkpt lat="48.22992" lon="-3.97777">
        <ele>75.9</ele>
        <time>2020-06-08T13:06:51Z</time>
      </trkpt>
      <trkpt lat="48.22994" lon="-3.97794">
        <ele>75.8</ele>
        <time>2020-06-08T13:06:52Z</time>
      </trkpt>
      <trkpt lat="48.22996" lon="-3.97809">
        <ele>75.8</ele>
        <time>2020-06-08T13:06:53Z</time>
      </trkpt>
      <trkpt lat="48.22998" lon="-3.97825">
        <ele>75.9</ele>
        <time>2020-06-08T13:06:54Z</time>
      </trkpt>
      <trkpt lat="48.22999" lon="-3.97839">
        <ele>76.1</ele>
        <time>2020-06-08T13:06:55Z</time>
      </trkpt>
      <trkpt lat="48.23002" lon="-3.97853">
        <ele>76.2</ele>
        <time>2020-06-08T13:06:56Z</time>
      </trkpt>
      <trkpt lat="48.23004" lon="-3.97866">
        <ele>76.5</ele>
        <time>2020-06-08T13:06:57Z</time>
      </trkpt>
      <trkpt lat="48.23006" lon="-3.97878">
        <ele>76.8</ele>
        <time>2020-06-08T13:06:58Z</time>
      </trkpt>
      <trkpt lat="48.23008" lon="-3.9789">
        <ele>77.2</ele>
        <time>2020-06-08T13:06:59Z</time>
      </trkpt>
      <trkpt lat="48.23009" lon="-3.97901">
        <ele>77.3</ele>
        <time>2020-06-08T13:07:00Z</time>
      </trkpt>
      <trkpt lat="48.2301" lon="-3.9791">
        <ele>77.3</ele>
        <time>2020-06-08T13:07:01Z</time>
      </trkpt>
      <trkpt lat="48.23011" lon="-3.97919">
        <ele>77.4</ele>
        <time>2020-06-08T13:07:02Z</time>
      </trkpt>
      <trkpt lat="48.23013" lon="-3.97927">
        <ele>77.6</ele>
        <time>2020-06-08T13:07:03Z</time>
      </trkpt>
      <trkpt lat="48.23014" lon="-3.97935">
        <ele>77.7</ele>
        <time>2020-06-08T13:07:04Z</time>
      </trkpt>
      <trkpt lat="48.23015" lon="-3.97942">
        <ele>77.9</ele>
        <time>2020-06-08T13:07:05Z</time>
      </trkpt>
      <trkpt lat="48.23015" lon="-3.97948">
        <ele>78</ele>
        <time>2020-06-08T13:07:06Z</time>
      </trkpt>
      <trkpt lat="48.23016" lon="-3.97953">
        <ele>78.2</ele>
        <time>2020-06-08T13:07:07Z</time>
      </trkpt>
      <trkpt lat="48.23016" lon="-3.97958">
        <ele>78.3</ele>
        <time>2020-06-08T13:07:08Z</time>
      </trkpt>
      <trkpt lat="48.23017" lon="-3.97962">
        <ele>78.4</ele>
        <time>2020-06-08T13:07:09Z</time>
      </trkpt>
      <trkpt lat="48.23017" lon="-3.97967">
        <ele>78.6</ele>
        <time>2020-06-08T13:07:10Z</time>
      </trkpt>
      <trkpt lat="48.23018" lon="-3.97971">
        <ele>78.7</ele>
        <time>2020-06-08T13:07:11Z</time>
      </trkpt>
      <trkpt lat="48.23019" lon="-3.97976">
        <ele>79</ele>
        <time>2020-06-08T13:07:12Z</time>
      </trkpt>
      <trkpt lat="48.23019" lon="-3.97978">
        <ele>79</ele>
        <time>2020-06-08T13:07:13Z</time>
      </trkpt>
      <trkpt lat="48.23019" lon="-3.97983">
        <ele>79.2</ele>
        <time>2020-06-08T13:07:14Z</time>
      </trkpt>
      <trkpt lat="48.2302" lon="-3.97985">
        <ele>79.3</ele>
        <time>2020-06-08T13:07:15Z</time>
      </trkpt>
      <trkpt lat="48.23021" lon="-3.9799">
        <ele>79.5</ele>
        <time>2020-06-08T13:07:16Z</time>
      </trkpt>
      <trkpt lat="48.23022" lon="-3.97992">
        <ele>79.5</ele>
        <time>2020-06-08T13:07:17Z</time>
      </trkpt>
      <trkpt lat="48.23022" lon="-3.97997">
        <ele>79.7</ele>
        <time>2020-06-08T13:07:18Z</time>
      </trkpt>
      <trkpt lat="48.23022" lon="-3.97998">
        <ele>79.8</ele>
        <time>2020-06-08T13:07:19Z</time>
      </trkpt>
      <trkpt lat="48.23023" lon="-3.98003">
        <ele>80</ele>
        <time>2020-06-08T13:07:20Z</time>
      </trkpt>
      <trkpt lat="48.23023" lon="-3.98005">
        <ele>80</ele>
        <time>2020-06-08T13:07:21Z</time>
      </trkpt>
      <trkpt lat="48.23024" lon="-3.98009">
        <ele>80.2</ele>
        <time>2020-06-08T13:07:22Z</time>
      </trkpt>
      <trkpt lat="48.23024" lon="-3.98013">
        <ele>80.3</ele>
        <time>2020-06-08T13:07:23Z</time>
      </trkpt>
      <trkpt lat="48.23024" lon="-3.98019">
        <ele>80.5</ele>
        <time>2020-06-08T13:07:24Z</time>
      </trkpt>
      <trkpt lat="48.23024" lon="-3.98021">
        <ele>80.5</ele>
        <time>2020-06-08T13:07:25Z</time>
      </trkpt>
      <trkpt lat="48.23025" lon="-3.98025">
        <ele>80.7</ele>
        <time>2020-06-08T13:07:26Z</time>
      </trkpt>
      <trkpt lat="48.23026" lon="-3.98029">
        <ele>80.8</ele>
        <time>2020-06-08T13:07:27Z</time>
      </trkpt>
      <trkpt lat="48.23027" lon="-3.98033">
        <ele>81</ele>
        <time>2020-06-08T13:07:28Z</time>
      </trkpt>
      <trkpt lat="48.23027" lon="-3.98037">
        <ele>81.1</ele>
        <time>2020-06-08T13:07:29Z</time>
      </trkpt>
      <trkpt lat="48.23027" lon="-3.98042">
        <ele>81.6</ele>
        <time>2020-06-08T13:07:30Z</time>
      </trkpt>
      <trkpt lat="48.23027" lon="-3.98047">
        <ele>81.8</ele>
        <time>2020-06-08T13:07:31Z</time>
      </trkpt>
      <trkpt lat="48.23028" lon="-3.98052">
        <ele>82</ele>
        <time>2020-06-08T13:07:32Z</time>
      </trkpt>
      <trkpt lat="48.23028" lon="-3.98058">
        <ele>82.3</ele>
        <time>2020-06-08T13:07:33Z</time>
      </trkpt>
      <trkpt lat="48.23029" lon="-3.98061">
        <ele>82.4</ele>
        <time>2020-06-08T13:07:34Z</time>
      </trkpt>
      <trkpt lat="48.23029" lon="-3.98065">
        <ele>82.6</ele>
        <time>2020-06-08T13:07:35Z</time>
      </trkpt>
      <trkpt lat="48.23028" lon="-3.98072">
        <ele>82.9</ele>
        <time>2020-06-08T13:07:36Z</time>
      </trkpt>
      <trkpt lat="48.23028" lon="-3.98074">
        <ele>83</ele>
        <time>2020-06-08T13:07:37Z</time>
      </trkpt>
      <trkpt lat="48.23028" lon="-3.98079">
        <ele>83.2</ele>
        <time>2020-06-08T13:07:38Z</time>
      </trkpt>
      <trkpt lat="48.23029" lon="-3.98083">
        <ele>83.4</ele>
        <time>2020-06-08T13:07:39Z</time>
      </trkpt>
      <trkpt lat="48.23028" lon="-3.98089">
        <ele>83.6</ele>
        <time>2020-06-08T13:07:40Z</time>
      </trkpt>
      <trkpt lat="48.23029" lon="-3.98097">
        <ele>83.9</ele>
        <time>2020-06-08T13:07:41Z</time>
      </trkpt>
      <trkpt lat="48.23029" lon="-3.98103">
        <ele>84.2</ele>
        <time>2020-06-08T13:07:42Z</time>
      </trkpt>
      <trkpt lat="48.23029" lon="-3.98111">
        <ele>84.4</ele>
        <time>2020-06-08T13:07:43Z</time>
      </trkpt>
      <trkpt lat="48.23029" lon="-3.98118">
        <ele>84.6</ele>
        <time>2020-06-08T13:07:44Z</time>
      </trkpt>
      <trkpt lat="48.23029" lon="-3.98125">
        <ele>84.9</ele>
        <time>2020-06-08T13:07:45Z</time>
      </trkpt>
      <trkpt lat="48.23029" lon="-3.9813">
        <ele>85</ele>
        <time>2020-06-08T13:07:46Z</time>
      </trkpt>
      <trkpt lat="48.23029" lon="-3.98137">
        <ele>85.2</ele>
        <time>2020-06-08T13:07:47Z</time>
      </trkpt>
      <trkpt lat="48.23028" lon="-3.98141">
        <ele>85.3</ele>
        <time>2020-06-08T13:07:48Z</time>
      </trkpt>
      <trkpt lat="48.23027" lon="-3.98146">
        <ele>85.5</ele>
        <time>2020-06-08T13:07:49Z</time>
      </trkpt>
      <trkpt lat="48.23026" lon="-3.98152">
        <ele>85.7</ele>
        <time>2020-06-08T13:07:50Z</time>
      </trkpt>
      <trkpt lat="48.23025" lon="-3.98158">
        <ele>85.9</ele>
        <time>2020-06-08T13:07:51Z</time>
      </trkpt>
      <trkpt lat="48.23025" lon="-3.9816">
        <ele>85.9</ele>
        <time>2020-06-08T13:07:52Z</time>
      </trkpt>
      <trkpt lat="48.23025" lon="-3.98165">
        <ele>86.1</ele>
        <time>2020-06-08T13:07:53Z</time>
      </trkpt>
      <trkpt lat="48.23024" lon="-3.9817">
        <ele>86.2</ele>
        <time>2020-06-08T13:07:54Z</time>
      </trkpt>
      <trkpt lat="48.23022" lon="-3.98175">
        <ele>86.4</ele>
        <time>2020-06-08T13:07:55Z</time>
      </trkpt>
      <trkpt lat="48.23021" lon="-3.98181">
        <ele>86.6</ele>
        <time>2020-06-08T13:07:56Z</time>
      </trkpt>
      <trkpt lat="48.23021" lon="-3.98187">
        <ele>86.8</ele>
        <time>2020-06-08T13:07:57Z</time>
      </trkpt>
      <trkpt lat="48.23022" lon="-3.98192">
        <ele>87</ele>
        <time>2020-06-08T13:07:58Z</time>
      </trkpt>
      <trkpt lat="48.23022" lon="-3.98198">
        <ele>87.2</ele>
        <time>2020-06-08T13:07:59Z</time>
      </trkpt>
      <trkpt lat="48.23021" lon="-3.98206">
        <ele>87.5</ele>
        <time>2020-06-08T13:08:00Z</time>
      </trkpt>
      <trkpt lat="48.23021" lon="-3.98211">
        <ele>87.7</ele>
        <time>2020-06-08T13:08:01Z</time>
      </trkpt>
      <trkpt lat="48.2302" lon="-3.98216">
        <ele>87.8</ele>
        <time>2020-06-08T13:08:02Z</time>
      </trkpt>
      <trkpt lat="48.23019" lon="-3.98221">
        <ele>88</ele>
        <time>2020-06-08T13:08:03Z</time>
      </trkpt>
      <trkpt lat="48.23018" lon="-3.98226">
        <ele>88.2</ele>
        <time>2020-06-08T13:08:04Z</time>
      </trkpt>
      <trkpt lat="48.23018" lon="-3.98232">
        <ele>88.4</ele>
        <time>2020-06-08T13:08:05Z</time>
      </trkpt>
      <trkpt lat="48.23016" lon="-3.98238">
        <ele>88.5</ele>
        <time>2020-06-08T13:08:06Z</time>
      </trkpt>
      <trkpt lat="48.23014" lon="-3.98243">
        <ele>88.7</ele>
        <time>2020-06-08T13:08:07Z</time>
      </trkpt>
      <trkpt lat="48.23012" lon="-3.98248">
        <ele>88.8</ele>
        <time>2020-06-08T13:08:08Z</time>
      </trkpt>
      <trkpt lat="48.23011" lon="-3.98252">
        <ele>88.9</ele>
        <time>2020-06-08T13:08:09Z</time>
      </trkpt>
      <trkpt lat="48.23009" lon="-3.98255">
        <ele>89.1</ele>
        <time>2020-06-08T13:08:10Z</time>
      </trkpt>
      <trkpt lat="48.23007" lon="-3.9826">
        <ele>89.2</ele>
        <time>2020-06-08T13:08:11Z</time>
      </trkpt>
      <trkpt lat="48.23005" lon="-3.98268">
        <ele>89.4</ele>
        <time>2020-06-08T13:08:12Z</time>
      </trkpt>
      <trkpt lat="48.23003" lon="-3.98274">
        <ele>89.6</ele>
        <time>2020-06-08T13:08:13Z</time>
      </trkpt>
      <trkpt lat="48.23002" lon="-3.98279">
        <ele>89.8</ele>
        <time>2020-06-08T13:08:14Z</time>
      </trkpt>
      <trkpt lat="48.23001" lon="-3.98286">
        <ele>89.9</ele>
        <time>2020-06-08T13:08:15Z</time>
      </trkpt>
      <trkpt lat="48.22999" lon="-3.98292">
        <ele>90.1</ele>
        <time>2020-06-08T13:08:16Z</time>
      </trkpt>
      <trkpt lat="48.22998" lon="-3.98299">
        <ele>90.3</ele>
        <time>2020-06-08T13:08:17Z</time>
      </trkpt>
      <trkpt lat="48.22996" lon="-3.98306">
        <ele>90.3</ele>
        <time>2020-06-08T13:08:18Z</time>
      </trkpt>
      <trkpt lat="48.22995" lon="-3.98314">
        <ele>90.4</ele>
        <time>2020-06-08T13:08:19Z</time>
      </trkpt>
      <trkpt lat="48.22993" lon="-3.98321">
        <ele>90.5</ele>
        <time>2020-06-08T13:08:20Z</time>
      </trkpt>
      <trkpt lat="48.22991" lon="-3.98327">
        <ele>90.5</ele>
        <time>2020-06-08T13:08:21Z</time>
      </trkpt>
      <trkpt lat="48.22989" lon="-3.98334">
        <ele>90.6</ele>
        <time>2020-06-08T13:08:22Z</time>
      </trkpt>
      <trkpt lat="48.22987" lon="-3.9834">
        <ele>90.6</ele>
        <time>2020-06-08T13:08:23Z</time>
      </trkpt>
      <trkpt lat="48.22985" lon="-3.98346">
        <ele>90.7</ele>
        <time>2020-06-08T13:08:24Z</time>
      </trkpt>
      <trkpt lat="48.22983" lon="-3.9835">
        <ele>90.7</ele>
        <time>2020-06-08T13:08:25Z</time>
      </trkpt>
      <trkpt lat="48.22981" lon="-3.98355">
        <ele>90.7</ele>
        <time>2020-06-08T13:08:26Z</time>
      </trkpt>
      <trkpt lat="48.22978" lon="-3.98364">
        <ele>90.8</ele>
        <time>2020-06-08T13:08:27Z</time>
      </trkpt>
      <trkpt lat="48.22976" lon="-3.9837">
        <ele>90.8</ele>
        <time>2020-06-08T13:08:28Z</time>
      </trkpt>
      <trkpt lat="48.22975" lon="-3.98378">
        <ele>90.8</ele>
        <time>2020-06-08T13:08:29Z</time>
      </trkpt>
      <trkpt lat="48.22975" lon="-3.98382">
        <ele>90.7</ele>
        <time>2020-06-08T13:08:30Z</time>
      </trkpt>
      <trkpt lat="48.22974" lon="-3.98388">
        <ele>90.7</ele>
        <time>2020-06-08T13:08:31Z</time>
      </trkpt>
      <trkpt lat="48.22972" lon="-3.98395">
        <ele>90.6</ele>
        <time>2020-06-08T13:08:32Z</time>
      </trkpt>
      <trkpt lat="48.22971" lon="-3.98402">
        <ele>90.6</ele>
        <time>2020-06-08T13:08:33Z</time>
      </trkpt>
      <trkpt lat="48.22969" lon="-3.9841">
        <ele>90.4</ele>
        <time>2020-06-08T13:08:34Z</time>
      </trkpt>
      <trkpt lat="48.22969" lon="-3.98416">
        <ele>90.3</ele>
        <time>2020-06-08T13:08:35Z</time>
      </trkpt>
      <trkpt lat="48.22968" lon="-3.98423">
        <ele>90.1</ele>
        <time>2020-06-08T13:08:36Z</time>
      </trkpt>
      <trkpt lat="48.22967" lon="-3.98432">
        <ele>89.9</ele>
        <time>2020-06-08T13:08:37Z</time>
      </trkpt>
      <trkpt lat="48.22966" lon="-3.98441">
        <ele>89.7</ele>
        <time>2020-06-08T13:08:38Z</time>
      </trkpt>
      <trkpt lat="48.22965" lon="-3.98447">
        <ele>89.5</ele>
        <time>2020-06-08T13:08:39Z</time>
      </trkpt>
      <trkpt lat="48.22964" lon="-3.98454">
        <ele>89.3</ele>
        <time>2020-06-08T13:08:40Z</time>
      </trkpt>
      <trkpt lat="48.22964" lon="-3.98462">
        <ele>88.9</ele>
        <time>2020-06-08T13:08:41Z</time>
      </trkpt>
      <trkpt lat="48.22963" lon="-3.98474">
        <ele>88.5</ele>
        <time>2020-06-08T13:08:42Z</time>
      </trkpt>
      <trkpt lat="48.22963" lon="-3.98485">
        <ele>88</ele>
        <time>2020-06-08T13:08:43Z</time>
      </trkpt>
      <trkpt lat="48.22962" lon="-3.98496">
        <ele>87.5</ele>
        <time>2020-06-08T13:08:44Z</time>
      </trkpt>
      <trkpt lat="48.22962" lon="-3.9851">
        <ele>87</ele>
        <time>2020-06-08T13:08:45Z</time>
      </trkpt>
      <trkpt lat="48.22962" lon="-3.98523">
        <ele>86.5</ele>
        <time>2020-06-08T13:08:46Z</time>
      </trkpt>
      <trkpt lat="48.22962" lon="-3.98536">
        <ele>86.1</ele>
        <time>2020-06-08T13:08:47Z</time>
      </trkpt>
      <trkpt lat="48.22963" lon="-3.9855">
        <ele>85.7</ele>
        <time>2020-06-08T13:08:48Z</time>
      </trkpt>
      <trkpt lat="48.22964" lon="-3.98563">
        <ele>85.4</ele>
        <time>2020-06-08T13:08:49Z</time>
      </trkpt>
      <trkpt lat="48.22965" lon="-3.98577">
        <ele>85.1</ele>
        <time>2020-06-08T13:08:50Z</time>
      </trkpt>
      <trkpt lat="48.22967" lon="-3.98591">
        <ele>85</ele>
        <time>2020-06-08T13:08:51Z</time>
      </trkpt>
      <trkpt lat="48.22969" lon="-3.98604">
        <ele>88</ele>
        <time>2020-06-08T13:08:52Z</time>
      </trkpt>
      <trkpt lat="48.22971" lon="-3.98618">
        <ele>87.8</ele>
        <time>2020-06-08T13:08:53Z</time>
      </trkpt>
      <trkpt lat="48.22974" lon="-3.98631">
        <ele>87.3</ele>
        <time>2020-06-08T13:08:54Z</time>
      </trkpt>
      <trkpt lat="48.22977" lon="-3.98644">
        <ele>86.8</ele>
        <time>2020-06-08T13:08:55Z</time>
      </trkpt>
      <trkpt lat="48.2298" lon="-3.98657">
        <ele>86.3</ele>
        <time>2020-06-08T13:08:56Z</time>
      </trkpt>
      <trkpt lat="48.22985" lon="-3.98668">
        <ele>85.9</ele>
        <time>2020-06-08T13:08:57Z</time>
      </trkpt>
      <trkpt lat="48.2299" lon="-3.98679">
        <ele>85.5</ele>
        <time>2020-06-08T13:08:58Z</time>
      </trkpt>
      <trkpt lat="48.22994" lon="-3.9869">
        <ele>85.1</ele>
        <time>2020-06-08T13:08:59Z</time>
      </trkpt>
      <trkpt lat="48.23" lon="-3.987">
        <ele>84.7</ele>
        <time>2020-06-08T13:09:00Z</time>
      </trkpt>
      <trkpt lat="48.23006" lon="-3.98711">
        <ele>84.4</ele>
        <time>2020-06-08T13:09:01Z</time>
      </trkpt>
      <trkpt lat="48.23012" lon="-3.98721">
        <ele>84</ele>
        <time>2020-06-08T13:09:02Z</time>
      </trkpt>
      <trkpt lat="48.23018" lon="-3.9873">
        <ele>83.7</ele>
        <time>2020-06-08T13:09:03Z</time>
      </trkpt>
      <trkpt lat="48.23025" lon="-3.98738">
        <ele>83.4</ele>
        <time>2020-06-08T13:09:04Z</time>
      </trkpt>
      <trkpt lat="48.23032" lon="-3.98745">
        <ele>83.1</ele>
        <time>2020-06-08T13:09:05Z</time>
      </trkpt>
      <trkpt lat="48.23038" lon="-3.98752">
        <ele>82.8</ele>
        <time>2020-06-08T13:09:06Z</time>
      </trkpt>
      <trkpt lat="48.23044" lon="-3.98759">
        <ele>82.5</ele>
        <time>2020-06-08T13:09:07Z</time>
      </trkpt>
      <trkpt lat="48.23051" lon="-3.98765">
        <ele>82.2</ele>
        <time>2020-06-08T13:09:08Z</time>
      </trkpt>
      <trkpt lat="48.23058" lon="-3.98771">
        <ele>81.9</ele>
        <time>2020-06-08T13:09:09Z</time>
      </trkpt>
      <trkpt lat="48.23065" lon="-3.98777">
        <ele>81.6</ele>
        <time>2020-06-08T13:09:10Z</time>
      </trkpt>
      <trkpt lat="48.23072" lon="-3.98783">
        <ele>81.2</ele>
        <time>2020-06-08T13:09:11Z</time>
      </trkpt>
      <trkpt lat="48.23079" lon="-3.98789">
        <ele>80.9</ele>
        <time>2020-06-08T13:09:12Z</time>
      </trkpt>
      <trkpt lat="48.23086" lon="-3.98795">
        <ele>80.5</ele>
        <time>2020-06-08T13:09:13Z</time>
      </trkpt>
      <trkpt lat="48.23093" lon="-3.98802">
        <ele>80.2</ele>
        <time>2020-06-08T13:09:14Z</time>
      </trkpt>
      <trkpt lat="48.231" lon="-3.98809">
        <ele>79.8</ele>
        <time>2020-06-08T13:09:15Z</time>
      </trkpt>
      <trkpt lat="48.23106" lon="-3.98816">
        <ele>79.5</ele>
        <time>2020-06-08T13:09:16Z</time>
      </trkpt>
      <trkpt lat="48.23113" lon="-3.98823">
        <ele>79.3</ele>
        <time>2020-06-08T13:09:17Z</time>
      </trkpt>
      <trkpt lat="48.23119" lon="-3.98831">
        <ele>79.1</ele>
        <time>2020-06-08T13:09:18Z</time>
      </trkpt>
      <trkpt lat="48.23125" lon="-3.9884">
        <ele>78.9</ele>
        <time>2020-06-08T13:09:19Z</time>
      </trkpt>
      <trkpt lat="48.2313" lon="-3.98848">
        <ele>78.8</ele>
        <time>2020-06-08T13:09:20Z</time>
      </trkpt>
      <trkpt lat="48.23136" lon="-3.98856">
        <ele>78.6</ele>
        <time>2020-06-08T13:09:21Z</time>
      </trkpt>
      <trkpt lat="48.23141" lon="-3.98865">
        <ele>78.5</ele>
        <time>2020-06-08T13:09:22Z</time>
      </trkpt>
      <trkpt lat="48.23146" lon="-3.98874">
        <ele>78.3</ele>
        <time>2020-06-08T13:09:23Z</time>
      </trkpt>
      <trkpt lat="48.2315" lon="-3.98884">
        <ele>78.1</ele>
        <time>2020-06-08T13:09:24Z</time>
      </trkpt>
      <trkpt lat="48.23154" lon="-3.98894">
        <ele>77.9</ele>
        <time>2020-06-08T13:09:25Z</time>
      </trkpt>
      <trkpt lat="48.23156" lon="-3.98906">
        <ele>77.9</ele>
        <time>2020-06-08T13:09:26Z</time>
      </trkpt>
      <trkpt lat="48.23159" lon="-3.98917">
        <ele>77.9</ele>
        <time>2020-06-08T13:09:27Z</time>
      </trkpt>
      <trkpt lat="48.23161" lon="-3.98928">
        <ele>78</ele>
        <time>2020-06-08T13:09:28Z</time>
      </trkpt>
      <trkpt lat="48.23165" lon="-3.98937">
        <ele>78.2</ele>
        <time>2020-06-08T13:09:29Z</time>
      </trkpt>
      <trkpt lat="48.23167" lon="-3.98947">
        <ele>78.5</ele>
        <time>2020-06-08T13:09:30Z</time>
      </trkpt>
      <trkpt lat="48.23169" lon="-3.98956">
        <ele>78.8</ele>
        <time>2020-06-08T13:09:31Z</time>
      </trkpt>
      <trkpt lat="48.23171" lon="-3.98965">
        <ele>79</ele>
        <time>2020-06-08T13:09:32Z</time>
      </trkpt>
      <trkpt lat="48.23173" lon="-3.98973">
        <ele>79.3</ele>
        <time>2020-06-08T13:09:33Z</time>
      </trkpt>
      <trkpt lat="48.23175" lon="-3.9898">
        <ele>79.5</ele>
        <time>2020-06-08T13:09:34Z</time>
      </trkpt>
      <trkpt lat="48.23176" lon="-3.98987">
        <ele>79.8</ele>
        <time>2020-06-08T13:09:35Z</time>
      </trkpt>
      <trkpt lat="48.23178" lon="-3.98994">
        <ele>80.1</ele>
        <time>2020-06-08T13:09:36Z</time>
      </trkpt>
      <trkpt lat="48.2318" lon="-3.99">
        <ele>80.4</ele>
        <time>2020-06-08T13:09:37Z</time>
      </trkpt>
      <trkpt lat="48.23183" lon="-3.99005">
        <ele>80.7</ele>
        <time>2020-06-08T13:09:38Z</time>
      </trkpt>
      <trkpt lat="48.23185" lon="-3.9901">
        <ele>81</ele>
        <time>2020-06-08T13:09:39Z</time>
      </trkpt>
      <trkpt lat="48.23187" lon="-3.99014">
        <ele>81.3</ele>
        <time>2020-06-08T13:09:40Z</time>
      </trkpt>
      <trkpt lat="48.23188" lon="-3.99019">
        <ele>81.6</ele>
        <time>2020-06-08T13:09:41Z</time>
      </trkpt>
      <trkpt lat="48.23189" lon="-3.99023">
        <ele>81.8</ele>
        <time>2020-06-08T13:09:42Z</time>
      </trkpt>
      <trkpt lat="48.23191" lon="-3.99027">
        <ele>82</ele>
        <time>2020-06-08T13:09:43Z</time>
      </trkpt>
      <trkpt lat="48.23192" lon="-3.99031">
        <ele>82.3</ele>
        <time>2020-06-08T13:09:44Z</time>
      </trkpt>
      <trkpt lat="48.23194" lon="-3.99034">
        <ele>82.5</ele>
        <time>2020-06-08T13:09:45Z</time>
      </trkpt>
      <trkpt lat="48.23196" lon="-3.99038">
        <ele>82.8</ele>
        <time>2020-06-08T13:09:46Z</time>
      </trkpt>
      <trkpt lat="48.23199" lon="-3.99042">
        <ele>83</ele>
        <time>2020-06-08T13:09:47Z</time>
      </trkpt>
      <trkpt lat="48.232" lon="-3.99047">
        <ele>83.3</ele>
        <time>2020-06-08T13:09:48Z</time>
      </trkpt>
      <trkpt lat="48.23202" lon="-3.99052">
        <ele>83.6</ele>
        <time>2020-06-08T13:09:49Z</time>
      </trkpt>
      <trkpt lat="48.23203" lon="-3.99058">
        <ele>83.9</ele>
        <time>2020-06-08T13:09:50Z</time>
      </trkpt>
      <trkpt lat="48.23206" lon="-3.99064">
        <ele>84.2</ele>
        <time>2020-06-08T13:09:51Z</time>
      </trkpt>
      <trkpt lat="48.23209" lon="-3.9907">
        <ele>84.6</ele>
        <time>2020-06-08T13:09:52Z</time>
      </trkpt>
      <trkpt lat="48.23211" lon="-3.99076">
        <ele>84.9</ele>
        <time>2020-06-08T13:09:53Z</time>
      </trkpt>
      <trkpt lat="48.23213" lon="-3.99082">
        <ele>85.2</ele>
        <time>2020-06-08T13:09:54Z</time>
      </trkpt>
      <trkpt lat="48.23214" lon="-3.99087">
        <ele>85.4</ele>
        <time>2020-06-08T13:09:55Z</time>
      </trkpt>
      <trkpt lat="48.23216" lon="-3.99092">
        <ele>85.7</ele>
        <time>2020-06-08T13:09:56Z</time>
      </trkpt>
      <trkpt lat="48.23219" lon="-3.99098">
        <ele>86</ele>
        <time>2020-06-08T13:09:57Z</time>
      </trkpt>
      <trkpt lat="48.23221" lon="-3.99103">
        <ele>86.2</ele>
        <time>2020-06-08T13:09:58Z</time>
      </trkpt>
      <trkpt lat="48.23223" lon="-3.99108">
        <ele>86.4</ele>
        <time>2020-06-08T13:09:59Z</time>
      </trkpt>
      <trkpt lat="48.23225" lon="-3.99112">
        <ele>86.7</ele>
        <time>2020-06-08T13:10:00Z</time>
      </trkpt>
      <trkpt lat="48.23228" lon="-3.99118">
        <ele>86.9</ele>
        <time>2020-06-08T13:10:01Z</time>
      </trkpt>
      <trkpt lat="48.2323" lon="-3.99123">
        <ele>87.1</ele>
        <time>2020-06-08T13:10:02Z</time>
      </trkpt>
      <trkpt lat="48.23232" lon="-3.99128">
        <ele>87.4</ele>
        <time>2020-06-08T13:10:03Z</time>
      </trkpt>
      <trkpt lat="48.23235" lon="-3.99133">
        <ele>87.6</ele>
        <time>2020-06-08T13:10:04Z</time>
      </trkpt>
      <trkpt lat="48.23238" lon="-3.99136">
        <ele>87.8</ele>
        <time>2020-06-08T13:10:05Z</time>
      </trkpt>
      <trkpt lat="48.2324" lon="-3.9914">
        <ele>87.9</ele>
        <time>2020-06-08T13:10:06Z</time>
      </trkpt>
      <trkpt lat="48.23242" lon="-3.99145">
        <ele>88.1</ele>
        <time>2020-06-08T13:10:07Z</time>
      </trkpt>
      <trkpt lat="48.23243" lon="-3.9915">
        <ele>88.3</ele>
        <time>2020-06-08T13:10:08Z</time>
      </trkpt>
      <trkpt lat="48.23245" lon="-3.99156">
        <ele>88.5</ele>
        <time>2020-06-08T13:10:09Z</time>
      </trkpt>
      <trkpt lat="48.23247" lon="-3.99162">
        <ele>88.7</ele>
        <time>2020-06-08T13:10:10Z</time>
      </trkpt>
      <trkpt lat="48.23249" lon="-3.99169">
        <ele>88.9</ele>
        <time>2020-06-08T13:10:11Z</time>
      </trkpt>
      <trkpt lat="48.2325" lon="-3.99175">
        <ele>89.2</ele>
        <time>2020-06-08T13:10:12Z</time>
      </trkpt>
      <trkpt lat="48.23252" lon="-3.99181">
        <ele>89.4</ele>
        <time>2020-06-08T13:10:13Z</time>
      </trkpt>
      <trkpt lat="48.23254" lon="-3.99187">
        <ele>89.7</ele>
        <time>2020-06-08T13:10:14Z</time>
      </trkpt>
      <trkpt lat="48.23255" lon="-3.99193">
        <ele>89.9</ele>
        <time>2020-06-08T13:10:15Z</time>
      </trkpt>
      <trkpt lat="48.23257" lon="-3.99199">
        <ele>90.1</ele>
        <time>2020-06-08T13:10:16Z</time>
      </trkpt>
      <trkpt lat="48.23258" lon="-3.99201">
        <ele>90.2</ele>
        <time>2020-06-08T13:10:17Z</time>
      </trkpt>
      <trkpt lat="48.23259" lon="-3.99205">
        <ele>90.4</ele>
        <time>2020-06-08T13:10:18Z</time>
      </trkpt>
      <trkpt lat="48.23259" lon="-3.99211">
        <ele>90.6</ele>
        <time>2020-06-08T13:10:19Z</time>
      </trkpt>
      <trkpt lat="48.2326" lon="-3.99216">
        <ele>90.8</ele>
        <time>2020-06-08T13:10:20Z</time>
      </trkpt>
      <trkpt lat="48.2326" lon="-3.99221">
        <ele>91</ele>
        <time>2020-06-08T13:10:21Z</time>
      </trkpt>
      <trkpt lat="48.23261" lon="-3.99228">
        <ele>91.2</ele>
        <time>2020-06-08T13:10:22Z</time>
      </trkpt>
      <trkpt lat="48.23262" lon="-3.99234">
        <ele>91.4</ele>
        <time>2020-06-08T13:10:23Z</time>
      </trkpt>
      <trkpt lat="48.23263" lon="-3.9924">
        <ele>91.6</ele>
        <time>2020-06-08T13:10:24Z</time>
      </trkpt>
      <trkpt lat="48.23263" lon="-3.99245">
        <ele>91.8</ele>
        <time>2020-06-08T13:10:25Z</time>
      </trkpt>
      <trkpt lat="48.23264" lon="-3.9925">
        <ele>92</ele>
        <time>2020-06-08T13:10:26Z</time>
      </trkpt>
      <trkpt lat="48.23265" lon="-3.99256">
        <ele>92.2</ele>
        <time>2020-06-08T13:10:27Z</time>
      </trkpt>
      <trkpt lat="48.23265" lon="-3.99262">
        <ele>92.4</ele>
        <time>2020-06-08T13:10:28Z</time>
      </trkpt>
      <trkpt lat="48.23266" lon="-3.99267">
        <ele>92.5</ele>
        <time>2020-06-08T13:10:29Z</time>
      </trkpt>
      <trkpt lat="48.23267" lon="-3.99273">
        <ele>92.7</ele>
        <time>2020-06-08T13:10:30Z</time>
      </trkpt>
      <trkpt lat="48.23268" lon="-3.99279">
        <ele>92.8</ele>
        <time>2020-06-08T13:10:31Z</time>
      </trkpt>
      <trkpt lat="48.2327" lon="-3.99285">
        <ele>93</ele>
        <time>2020-06-08T13:10:32Z</time>
      </trkpt>
      <trkpt lat="48.23271" lon="-3.9929">
        <ele>93.1</ele>
        <time>2020-06-08T13:10:33Z</time>
      </trkpt>
      <trkpt lat="48.23271" lon="-3.99296">
        <ele>93.2</ele>
        <time>2020-06-08T13:10:34Z</time>
      </trkpt>
      <trkpt lat="48.23272" lon="-3.99301">
        <ele>93.3</ele>
        <time>2020-06-08T13:10:35Z</time>
      </trkpt>
      <trkpt lat="48.23273" lon="-3.99306">
        <ele>93.4</ele>
        <time>2020-06-08T13:10:36Z</time>
      </trkpt>
      <trkpt lat="48.23273" lon="-3.99312">
        <ele>93.5</ele>
        <time>2020-06-08T13:10:37Z</time>
      </trkpt>
      <trkpt lat="48.23275" lon="-3.99317">
        <ele>93.6</ele>
        <time>2020-06-08T13:10:38Z</time>
      </trkpt>
      <trkpt lat="48.23276" lon="-3.99321">
        <ele>93.7</ele>
        <time>2020-06-08T13:10:39Z</time>
      </trkpt>
      <trkpt lat="48.23277" lon="-3.99329">
        <ele>93.9</ele>
        <time>2020-06-08T13:10:40Z</time>
      </trkpt>
      <trkpt lat="48.23279" lon="-3.99335">
        <ele>94</ele>
        <time>2020-06-08T13:10:41Z</time>
      </trkpt>
      <trkpt lat="48.2328" lon="-3.99342">
        <ele>94.2</ele>
        <time>2020-06-08T13:10:42Z</time>
      </trkpt>
      <trkpt lat="48.2328" lon="-3.99349">
        <ele>94.4</ele>
        <time>2020-06-08T13:10:43Z</time>
      </trkpt>
      <trkpt lat="48.2328" lon="-3.99356">
        <ele>94.6</ele>
        <time>2020-06-08T13:10:44Z</time>
      </trkpt>
      <trkpt lat="48.23281" lon="-3.99361">
        <ele>94.7</ele>
        <time>2020-06-08T13:10:45Z</time>
      </trkpt>
      <trkpt lat="48.23281" lon="-3.99367">
        <ele>94.9</ele>
        <time>2020-06-08T13:10:46Z</time>
      </trkpt>
      <trkpt lat="48.23282" lon="-3.99374">
        <ele>95.2</ele>
        <time>2020-06-08T13:10:47Z</time>
      </trkpt>
      <trkpt lat="48.23284" lon="-3.9938">
        <ele>95.4</ele>
        <time>2020-06-08T13:10:48Z</time>
      </trkpt>
      <trkpt lat="48.23285" lon="-3.99386">
        <ele>95.6</ele>
        <time>2020-06-08T13:10:49Z</time>
      </trkpt>
      <trkpt lat="48.23286" lon="-3.99392">
        <ele>95.9</ele>
        <time>2020-06-08T13:10:50Z</time>
      </trkpt>
      <trkpt lat="48.23288" lon="-3.99397">
        <ele>96.1</ele>
        <time>2020-06-08T13:10:51Z</time>
      </trkpt>
      <trkpt lat="48.23289" lon="-3.99402">
        <ele>96.3</ele>
        <time>2020-06-08T13:10:52Z</time>
      </trkpt>
      <trkpt lat="48.23291" lon="-3.99407">
        <ele>96.5</ele>
        <time>2020-06-08T13:10:53Z</time>
      </trkpt>
      <trkpt lat="48.23293" lon="-3.99411">
        <ele>96.7</ele>
        <time>2020-06-08T13:10:54Z</time>
      </trkpt>
      <trkpt lat="48.23294" lon="-3.99416">
        <ele>96.9</ele>
        <time>2020-06-08T13:10:55Z</time>
      </trkpt>
      <trkpt lat="48.23297" lon="-3.99419">
        <ele>97</ele>
        <time>2020-06-08T13:10:56Z</time>
      </trkpt>
      <trkpt lat="48.23297" lon="-3.99421">
        <ele>97.1</ele>
        <time>2020-06-08T13:10:57Z</time>
      </trkpt>
      <trkpt lat="48.23299" lon="-3.99425">
        <ele>97.3</ele>
        <time>2020-06-08T13:10:58Z</time>
      </trkpt>
      <trkpt lat="48.233" lon="-3.99429">
        <ele>97.4</ele>
        <time>2020-06-08T13:10:59Z</time>
      </trkpt>
      <trkpt lat="48.23302" lon="-3.99433">
        <ele>97.4</ele>
        <time>2020-06-08T13:11:00Z</time>
      </trkpt>
      <trkpt lat="48.23304" lon="-3.99436">
        <ele>97.5</ele>
        <time>2020-06-08T13:11:01Z</time>
      </trkpt>
      <trkpt lat="48.23307" lon="-3.9944">
        <ele>97.6</ele>
        <time>2020-06-08T13:11:02Z</time>
      </trkpt>
      <trkpt lat="48.23309" lon="-3.99442">
        <ele>97.7</ele>
        <time>2020-06-08T13:11:03Z</time>
      </trkpt>
      <trkpt lat="48.23311" lon="-3.99444">
        <ele>97.7</ele>
        <time>2020-06-08T13:11:04Z</time>
      </trkpt>
      <trkpt lat="48.23313" lon="-3.99446">
        <ele>97.8</ele>
        <time>2020-06-08T13:11:05Z</time>
      </trkpt>
      <trkpt lat="48.23315" lon="-3.99449">
        <ele>97.9</ele>
        <time>2020-06-08T13:11:06Z</time>
      </trkpt>
      <trkpt lat="48.23318" lon="-3.99454">
        <ele>98</ele>
        <time>2020-06-08T13:11:07Z</time>
      </trkpt>
      <trkpt lat="48.23322" lon="-3.99459">
        <ele>98.2</ele>
        <time>2020-06-08T13:11:08Z</time>
      </trkpt>
      <trkpt lat="48.23324" lon="-3.99463">
        <ele>98.3</ele>
        <time>2020-06-08T13:11:09Z</time>
      </trkpt>
      <trkpt lat="48.23326" lon="-3.99466">
        <ele>98.4</ele>
        <time>2020-06-08T13:11:10Z</time>
      </trkpt>
      <trkpt lat="48.23329" lon="-3.99469">
        <ele>98.5</ele>
        <time>2020-06-08T13:11:11Z</time>
      </trkpt>
      <trkpt lat="48.23332" lon="-3.99473">
        <ele>98.7</ele>
        <time>2020-06-08T13:11:12Z</time>
      </trkpt>
      <trkpt lat="48.23335" lon="-3.99478">
        <ele>98.8</ele>
        <time>2020-06-08T13:11:13Z</time>
      </trkpt>
      <trkpt lat="48.23338" lon="-3.99481">
        <ele>99</ele>
        <time>2020-06-08T13:11:14Z</time>
      </trkpt>
      <trkpt lat="48.23341" lon="-3.99483">
        <ele>99</ele>
        <time>2020-06-08T13:11:15Z</time>
      </trkpt>
      <trkpt lat="48.23344" lon="-3.99487">
        <ele>99.2</ele>
        <time>2020-06-08T13:11:16Z</time>
      </trkpt>
      <trkpt lat="48.23346" lon="-3.99488">
        <ele>99.2</ele>
        <time>2020-06-08T13:11:17Z</time>
      </trkpt>
      <trkpt lat="48.23349" lon="-3.99492">
        <ele>99.3</ele>
        <time>2020-06-08T13:11:18Z</time>
      </trkpt>
      <trkpt lat="48.23352" lon="-3.99496">
        <ele>99.5</ele>
        <time>2020-06-08T13:11:19Z</time>
      </trkpt>
      <trkpt lat="48.23354" lon="-3.995">
        <ele>99.6</ele>
        <time>2020-06-08T13:11:20Z</time>
      </trkpt>
      <trkpt lat="48.23356" lon="-3.99504">
        <ele>99.7</ele>
        <time>2020-06-08T13:11:21Z</time>
      </trkpt>
      <trkpt lat="48.23358" lon="-3.99507">
        <ele>99.9</ele>
        <time>2020-06-08T13:11:22Z</time>
      </trkpt>
      <trkpt lat="48.23361" lon="-3.9951">
        <ele>100</ele>
        <time>2020-06-08T13:11:23Z</time>
      </trkpt>
      <trkpt lat="48.23363" lon="-3.99513">
        <ele>100.1</ele>
        <time>2020-06-08T13:11:24Z</time>
      </trkpt>
      <trkpt lat="48.23365" lon="-3.99516">
        <ele>100.2</ele>
        <time>2020-06-08T13:11:25Z</time>
      </trkpt>
      <trkpt lat="48.23368" lon="-3.99519">
        <ele>100.4</ele>
        <time>2020-06-08T13:11:26Z</time>
      </trkpt>
      <trkpt lat="48.23371" lon="-3.99523">
        <ele>100.5</ele>
        <time>2020-06-08T13:11:27Z</time>
      </trkpt>
      <trkpt lat="48.23374" lon="-3.99527">
        <ele>100.7</ele>
        <time>2020-06-08T13:11:28Z</time>
      </trkpt>
      <trkpt lat="48.23377" lon="-3.99531">
        <ele>100.8</ele>
        <time>2020-06-08T13:11:29Z</time>
      </trkpt>
      <trkpt lat="48.2338" lon="-3.99534">
        <ele>100.9</ele>
        <time>2020-06-08T13:11:30Z</time>
      </trkpt>
      <trkpt lat="48.23383" lon="-3.99538">
        <ele>101.1</ele>
        <time>2020-06-08T13:11:31Z</time>
      </trkpt>
      <trkpt lat="48.23385" lon="-3.99541">
        <ele>101.2</ele>
        <time>2020-06-08T13:11:32Z</time>
      </trkpt>
      <trkpt lat="48.23387" lon="-3.99544">
        <ele>101.3</ele>
        <time>2020-06-08T13:11:33Z</time>
      </trkpt>
      <trkpt lat="48.2339" lon="-3.99547">
        <ele>101.5</ele>
        <time>2020-06-08T13:11:34Z</time>
      </trkpt>
      <trkpt lat="48.23392" lon="-3.9955">
        <ele>101.6</ele>
        <time>2020-06-08T13:11:35Z</time>
      </trkpt>
      <trkpt lat="48.23395" lon="-3.99553">
        <ele>101.7</ele>
        <time>2020-06-08T13:11:36Z</time>
      </trkpt>
      <trkpt lat="48.23398" lon="-3.99556">
        <ele>101.8</ele>
        <time>2020-06-08T13:11:37Z</time>
      </trkpt>
      <trkpt lat="48.23401" lon="-3.9956">
        <ele>102</ele>
        <time>2020-06-08T13:11:38Z</time>
      </trkpt>
      <trkpt lat="48.23404" lon="-3.99563">
        <ele>102.2</ele>
        <time>2020-06-08T13:11:39Z</time>
      </trkpt>
      <trkpt lat="48.23406" lon="-3.99566">
        <ele>102.3</ele>
        <time>2020-06-08T13:11:40Z</time>
      </trkpt>
      <trkpt lat="48.23408" lon="-3.99568">
        <ele>102.4</ele>
        <time>2020-06-08T13:11:41Z</time>
      </trkpt>
      <trkpt lat="48.2341" lon="-3.99572">
        <ele>102.6</ele>
        <time>2020-06-08T13:11:42Z</time>
      </trkpt>
      <trkpt lat="48.23413" lon="-3.99576">
        <ele>102.7</ele>
        <time>2020-06-08T13:11:43Z</time>
      </trkpt>
      <trkpt lat="48.23416" lon="-3.99581">
        <ele>102.9</ele>
        <time>2020-06-08T13:11:44Z</time>
      </trkpt>
      <trkpt lat="48.23418" lon="-3.99585">
        <ele>103.1</ele>
        <time>2020-06-08T13:11:45Z</time>
      </trkpt>
      <trkpt lat="48.23421" lon="-3.99589">
        <ele>103.3</ele>
        <time>2020-06-08T13:11:46Z</time>
      </trkpt>
      <trkpt lat="48.23423" lon="-3.99593">
        <ele>103.5</ele>
        <time>2020-06-08T13:11:47Z</time>
      </trkpt>
      <trkpt lat="48.23425" lon="-3.99597">
        <ele>103.7</ele>
        <time>2020-06-08T13:11:48Z</time>
      </trkpt>
      <trkpt lat="48.23426" lon="-3.99599">
        <ele>103.8</ele>
        <time>2020-06-08T13:11:49Z</time>
      </trkpt>
      <trkpt lat="48.23427" lon="-3.99604">
        <ele>104.1</ele>
        <time>2020-06-08T13:11:50Z</time>
      </trkpt>
      <trkpt lat="48.23429" lon="-3.99609">
        <ele>104.3</ele>
        <time>2020-06-08T13:11:51Z</time>
      </trkpt>
      <trkpt lat="48.2343" lon="-3.99615">
        <ele>104.6</ele>
        <time>2020-06-08T13:11:52Z</time>
      </trkpt>
      <trkpt lat="48.23431" lon="-3.99617">
        <ele>104.7</ele>
        <time>2020-06-08T13:11:53Z</time>
      </trkpt>
      <trkpt lat="48.23432" lon="-3.99622">
        <ele>105</ele>
        <time>2020-06-08T13:11:54Z</time>
      </trkpt>
      <trkpt lat="48.23433" lon="-3.99627">
        <ele>105.3</ele>
        <time>2020-06-08T13:11:55Z</time>
      </trkpt>
      <trkpt lat="48.23433" lon="-3.99629">
        <ele>105.4</ele>
        <time>2020-06-08T13:11:56Z</time>
      </trkpt>
      <trkpt lat="48.23433" lon="-3.99633">
        <ele>105.6</ele>
        <time>2020-06-08T13:11:57Z</time>
      </trkpt>
      <trkpt lat="48.23434" lon="-3.99638">
        <ele>105.9</ele>
        <time>2020-06-08T13:11:58Z</time>
      </trkpt>
      <trkpt lat="48.23434" lon="-3.99644">
        <ele>106.2</ele>
        <time>2020-06-08T13:11:59Z</time>
      </trkpt>
      <trkpt lat="48.23434" lon="-3.99645">
        <ele>106.2</ele>
        <time>2020-06-08T13:12:00Z</time>
      </trkpt>
      <trkpt lat="48.23433" lon="-3.99651">
        <ele>106.5</ele>
        <time>2020-06-08T13:12:01Z</time>
      </trkpt>
      <trkpt lat="48.23432" lon="-3.99653">
        <ele>106.7</ele>
        <time>2020-06-08T13:12:02Z</time>
      </trkpt>
      <trkpt lat="48.23431" lon="-3.99659">
        <ele>107</ele>
        <time>2020-06-08T13:12:03Z</time>
      </trkpt>
      <trkpt lat="48.23431" lon="-3.99665">
        <ele>107.3</ele>
        <time>2020-06-08T13:12:04Z</time>
      </trkpt>
      <trkpt lat="48.23431" lon="-3.9967">
        <ele>107.6</ele>
        <time>2020-06-08T13:12:05Z</time>
      </trkpt>
      <trkpt lat="48.23431" lon="-3.99671">
        <ele>107.7</ele>
        <time>2020-06-08T13:12:06Z</time>
      </trkpt>
      <trkpt lat="48.2343" lon="-3.99676">
        <ele>107.9</ele>
        <time>2020-06-08T13:12:07Z</time>
      </trkpt>
      <trkpt lat="48.23429" lon="-3.99682">
        <ele>108.3</ele>
        <time>2020-06-08T13:12:08Z</time>
      </trkpt>
      <trkpt lat="48.23428" lon="-3.99687">
        <ele>108.6</ele>
        <time>2020-06-08T13:12:09Z</time>
      </trkpt>
      <trkpt lat="48.23427" lon="-3.99692">
        <ele>108.9</ele>
        <time>2020-06-08T13:12:10Z</time>
      </trkpt>
      <trkpt lat="48.23426" lon="-3.99696">
        <ele>109.2</ele>
        <time>2020-06-08T13:12:11Z</time>
      </trkpt>
      <trkpt lat="48.23425" lon="-3.997">
        <ele>109.5</ele>
        <time>2020-06-08T13:12:12Z</time>
      </trkpt>
      <trkpt lat="48.23425" lon="-3.99702">
        <ele>109.6</ele>
        <time>2020-06-08T13:12:13Z</time>
      </trkpt>
      <trkpt lat="48.23423" lon="-3.99707">
        <ele>109.9</ele>
        <time>2020-06-08T13:12:14Z</time>
      </trkpt>
      <trkpt lat="48.23422" lon="-3.99711">
        <ele>110.2</ele>
        <time>2020-06-08T13:12:15Z</time>
      </trkpt>
      <trkpt lat="48.2342" lon="-3.99717">
        <ele>110.6</ele>
        <time>2020-06-08T13:12:16Z</time>
      </trkpt>
      <trkpt lat="48.2342" lon="-3.99718">
        <ele>110.7</ele>
        <time>2020-06-08T13:12:17Z</time>
      </trkpt>
      <trkpt lat="48.23418" lon="-3.99724">
        <ele>111.1</ele>
        <time>2020-06-08T13:12:18Z</time>
      </trkpt>
      <trkpt lat="48.23417" lon="-3.99728">
        <ele>111.3</ele>
        <time>2020-06-08T13:12:19Z</time>
      </trkpt>
      <trkpt lat="48.23416" lon="-3.99733">
        <ele>111.6</ele>
        <time>2020-06-08T13:12:20Z</time>
      </trkpt>
      <trkpt lat="48.23415" lon="-3.99736">
        <ele>111.8</ele>
        <time>2020-06-08T13:12:21Z</time>
      </trkpt>
      <trkpt lat="48.23416" lon="-3.99737">
        <ele>111.9</ele>
        <time>2020-06-08T13:12:22Z</time>
      </trkpt>
      <trkpt lat="48.23416" lon="-3.99742">
        <ele>112.2</ele>
        <time>2020-06-08T13:12:23Z</time>
      </trkpt>
      <trkpt lat="48.23416" lon="-3.99743">
        <ele>112.3</ele>
        <time>2020-06-08T13:12:24Z</time>
      </trkpt>
      <trkpt lat="48.23415" lon="-3.99747">
        <ele>112.5</ele>
        <time>2020-06-08T13:12:25Z</time>
      </trkpt>
      <trkpt lat="48.23414" lon="-3.99749">
        <ele>112.6</ele>
        <time>2020-06-08T13:12:26Z</time>
      </trkpt>
      <trkpt lat="48.23413" lon="-3.99754">
        <ele>113</ele>
        <time>2020-06-08T13:12:27Z</time>
      </trkpt>
      <trkpt lat="48.23411" lon="-3.99759">
        <ele>113.3</ele>
        <time>2020-06-08T13:12:28Z</time>
      </trkpt>
      <trkpt lat="48.2341" lon="-3.99764">
        <ele>114</ele>
        <time>2020-06-08T13:12:29Z</time>
      </trkpt>
      <trkpt lat="48.2341" lon="-3.99765">
        <ele>114.3</ele>
        <time>2020-06-08T13:12:30Z</time>
      </trkpt>
      <trkpt lat="48.23409" lon="-3.9977">
        <ele>115</ele>
        <time>2020-06-08T13:12:31Z</time>
      </trkpt>
      <trkpt lat="48.23408" lon="-3.99771">
        <ele>115.3</ele>
        <time>2020-06-08T13:12:32Z</time>
      </trkpt>
      <trkpt lat="48.23409" lon="-3.99774">
        <ele>115.7</ele>
        <time>2020-06-08T13:12:33Z</time>
      </trkpt>
      <trkpt lat="48.23409" lon="-3.99776">
        <ele>115.9</ele>
        <time>2020-06-08T13:12:34Z</time>
      </trkpt>
      <trkpt lat="48.23408" lon="-3.99781">
        <ele>116.6</ele>
        <time>2020-06-08T13:12:35Z</time>
      </trkpt>
      <trkpt lat="48.23407" lon="-3.99783">
        <ele>116.8</ele>
        <time>2020-06-08T13:12:36Z</time>
      </trkpt>
      <trkpt lat="48.23406" lon="-3.99788">
        <ele>117.2</ele>
        <time>2020-06-08T13:12:37Z</time>
      </trkpt>
      <trkpt lat="48.23405" lon="-3.99792">
        <ele>117.6</ele>
        <time>2020-06-08T13:12:38Z</time>
      </trkpt>
      <trkpt lat="48.23405" lon="-3.99794">
        <ele>117.8</ele>
        <time>2020-06-08T13:12:39Z</time>
      </trkpt>
      <trkpt lat="48.23404" lon="-3.99798">
        <ele>118.1</ele>
        <time>2020-06-08T13:12:40Z</time>
      </trkpt>
      <trkpt lat="48.23404" lon="-3.998">
        <ele>118.2</ele>
        <time>2020-06-08T13:12:41Z</time>
      </trkpt>
      <trkpt lat="48.23403" lon="-3.99804">
        <ele>118.6</ele>
        <time>2020-06-08T13:12:42Z</time>
      </trkpt>
      <trkpt lat="48.23402" lon="-3.99806">
        <ele>118.7</ele>
        <time>2020-06-08T13:12:43Z</time>
      </trkpt>
      <trkpt lat="48.234" lon="-3.9981">
        <ele>119</ele>
        <time>2020-06-08T13:12:44Z</time>
      </trkpt>
      <trkpt lat="48.234" lon="-3.99815">
        <ele>119.2</ele>
        <time>2020-06-08T13:12:45Z</time>
      </trkpt>
      <trkpt lat="48.23398" lon="-3.9982">
        <ele>119.6</ele>
        <time>2020-06-08T13:12:46Z</time>
      </trkpt>
      <trkpt lat="48.23397" lon="-3.99822">
        <ele>119.7</ele>
        <time>2020-06-08T13:12:47Z</time>
      </trkpt>
      <trkpt lat="48.23396" lon="-3.99826">
        <ele>119.9</ele>
        <time>2020-06-08T13:12:48Z</time>
      </trkpt>
      <trkpt lat="48.23394" lon="-3.9983">
        <ele>120.1</ele>
        <time>2020-06-08T13:12:49Z</time>
      </trkpt>
      <trkpt lat="48.23393" lon="-3.99834">
        <ele>120.3</ele>
        <time>2020-06-08T13:12:50Z</time>
      </trkpt>
      <trkpt lat="48.23392" lon="-3.99835">
        <ele>120.3</ele>
        <time>2020-06-08T13:12:51Z</time>
      </trkpt>
      <trkpt lat="48.2339" lon="-3.99839">
        <ele>120.5</ele>
        <time>2020-06-08T13:12:52Z</time>
      </trkpt>
      <trkpt lat="48.23389" lon="-3.9984">
        <ele>120.6</ele>
        <time>2020-06-08T13:12:53Z</time>
      </trkpt>
      <trkpt lat="48.23388" lon="-3.99844">
        <ele>120.7</ele>
        <time>2020-06-08T13:12:54Z</time>
      </trkpt>
      <trkpt lat="48.23386" lon="-3.99846">
        <ele>120.8</ele>
        <time>2020-06-08T13:12:55Z</time>
      </trkpt>
      <trkpt lat="48.23385" lon="-3.99848">
        <ele>120.8</ele>
        <time>2020-06-08T13:12:56Z</time>
      </trkpt>
      <trkpt lat="48.23384" lon="-3.99852">
        <ele>120.9</ele>
        <time>2020-06-08T13:12:57Z</time>
      </trkpt>
      <trkpt lat="48.23381" lon="-3.99854">
        <ele>121</ele>
        <time>2020-06-08T13:12:58Z</time>
      </trkpt>
      <trkpt lat="48.2338" lon="-3.99856">
        <ele>121</ele>
        <time>2020-06-08T13:12:59Z</time>
      </trkpt>
      <trkpt lat="48.23379" lon="-3.99856">
        <ele>121.1</ele>
        <time>2020-06-08T13:13:00Z</time>
      </trkpt>
      <trkpt lat="48.23378" lon="-3.99857">
        <ele>121.1</ele>
        <time>2020-06-08T13:13:01Z</time>
      </trkpt>
      <trkpt lat="48.23377" lon="-3.99859">
        <ele>121.1</ele>
        <time>2020-06-08T13:13:02Z</time>
      </trkpt>
      <trkpt lat="48.23377" lon="-3.99861">
        <ele>121.1</ele>
        <time>2020-06-08T13:13:03Z</time>
      </trkpt>
      <trkpt lat="48.23377" lon="-3.99863">
        <ele>121.1</ele>
        <time>2020-06-08T13:13:04Z</time>
      </trkpt>
      <trkpt lat="48.23377" lon="-3.99864">
        <ele>121.1</ele>
        <time>2020-06-08T13:13:05Z</time>
      </trkpt>
      <trkpt lat="48.23376" lon="-3.99866">
        <ele>121.1</ele>
        <time>2020-06-08T13:13:06Z</time>
      </trkpt>
      <trkpt lat="48.23376" lon="-3.99867">
        <ele>121.1</ele>
        <time>2020-06-08T13:13:07Z</time>
      </trkpt>
      <trkpt lat="48.23375" lon="-3.99868">
        <ele>121.1</ele>
        <time>2020-06-08T13:13:08Z</time>
      </trkpt>
      <trkpt lat="48.23374" lon="-3.9987">
        <ele>121.1</ele>
        <time>2020-06-08T13:13:09Z</time>
      </trkpt>
      <trkpt lat="48.23374" lon="-3.99872">
        <ele>121.1</ele>
        <time>2020-06-08T13:13:10Z</time>
      </trkpt>
      <trkpt lat="48.23372" lon="-3.99874">
        <ele>121.1</ele>
        <time>2020-06-08T13:13:11Z</time>
      </trkpt>
      <trkpt lat="48.23372" lon="-3.99876">
        <ele>121.1</ele>
        <time>2020-06-08T13:13:12Z</time>
      </trkpt>
      <trkpt lat="48.23371" lon="-3.99878">
        <ele>121.1</ele>
        <time>2020-06-08T13:13:13Z</time>
      </trkpt>
      <trkpt lat="48.2337" lon="-3.9988">
        <ele>121.1</ele>
        <time>2020-06-08T13:13:14Z</time>
      </trkpt>
      <trkpt lat="48.23369" lon="-3.99882">
        <ele>121</ele>
        <time>2020-06-08T13:13:15Z</time>
      </trkpt>
      <trkpt lat="48.23368" lon="-3.99883">
        <ele>121</ele>
        <time>2020-06-08T13:13:16Z</time>
      </trkpt>
      <trkpt lat="48.23367" lon="-3.99887">
        <ele>121</ele>
        <time>2020-06-08T13:13:17Z</time>
      </trkpt>
      <trkpt lat="48.23367" lon="-3.99888">
        <ele>121</ele>
        <time>2020-06-08T13:13:18Z</time>
      </trkpt>
      <trkpt lat="48.23366" lon="-3.9989">
        <ele>121</ele>
        <time>2020-06-08T13:13:19Z</time>
      </trkpt>
      <trkpt lat="48.23365" lon="-3.99892">
        <ele>121</ele>
        <time>2020-06-08T13:13:20Z</time>
      </trkpt>
      <trkpt lat="48.23363" lon="-3.99895">
        <ele>120.9</ele>
        <time>2020-06-08T13:13:21Z</time>
      </trkpt>
      <trkpt lat="48.23362" lon="-3.99899">
        <ele>120.9</ele>
        <time>2020-06-08T13:13:22Z</time>
      </trkpt>
      <trkpt lat="48.23361" lon="-3.99903">
        <ele>120.9</ele>
        <time>2020-06-08T13:13:23Z</time>
      </trkpt>
      <trkpt lat="48.23361" lon="-3.99906">
        <ele>120.8</ele>
        <time>2020-06-08T13:13:24Z</time>
      </trkpt>
      <trkpt lat="48.23359" lon="-3.99907">
        <ele>120.8</ele>
        <time>2020-06-08T13:13:25Z</time>
      </trkpt>
      <trkpt lat="48.23356" lon="-3.99911">
        <ele>120.8</ele>
        <time>2020-06-08T13:13:26Z</time>
      </trkpt>
      <trkpt lat="48.23355" lon="-3.99912">
        <ele>120.8</ele>
        <time>2020-06-08T13:13:27Z</time>
      </trkpt>
      <trkpt lat="48.23353" lon="-3.99915">
        <ele>120.7</ele>
        <time>2020-06-08T13:13:28Z</time>
      </trkpt>
      <trkpt lat="48.23352" lon="-3.99919">
        <ele>120.7</ele>
        <time>2020-06-08T13:13:29Z</time>
      </trkpt>
      <trkpt lat="48.23351" lon="-3.99923">
        <ele>120.7</ele>
        <time>2020-06-08T13:13:30Z</time>
      </trkpt>
      <trkpt lat="48.23349" lon="-3.99927">
        <ele>120.7</ele>
        <time>2020-06-08T13:13:31Z</time>
      </trkpt>
      <trkpt lat="48.23346" lon="-3.99932">
        <ele>120.6</ele>
        <time>2020-06-08T13:13:32Z</time>
      </trkpt>
      <trkpt lat="48.23345" lon="-3.99934">
        <ele>120.6</ele>
        <time>2020-06-08T13:13:33Z</time>
      </trkpt>
      <trkpt lat="48.23342" lon="-3.99939">
        <ele>120.6</ele>
        <time>2020-06-08T13:13:34Z</time>
      </trkpt>
      <trkpt lat="48.23341" lon="-3.99942">
        <ele>120.6</ele>
        <time>2020-06-08T13:13:35Z</time>
      </trkpt>
      <trkpt lat="48.23339" lon="-3.99945">
        <ele>120.6</ele>
        <time>2020-06-08T13:13:36Z</time>
      </trkpt>
      <trkpt lat="48.23338" lon="-3.99947">
        <ele>120.6</ele>
        <time>2020-06-08T13:13:37Z</time>
      </trkpt>
      <trkpt lat="48.23336" lon="-3.99949">
        <ele>120.6</ele>
        <time>2020-06-08T13:13:38Z</time>
      </trkpt>
      <trkpt lat="48.23336" lon="-3.9995">
        <ele>120.6</ele>
        <time>2020-06-08T13:13:39Z</time>
      </trkpt>
      <trkpt lat="48.23334" lon="-3.99953">
        <ele>120.6</ele>
        <time>2020-06-08T13:13:40Z</time>
      </trkpt>
      <trkpt lat="48.23333" lon="-3.99954">
        <ele>120.7</ele>
        <time>2020-06-08T13:13:41Z</time>
      </trkpt>
      <trkpt lat="48.23334" lon="-3.99954">
        <ele>120.7</ele>
        <time>2020-06-08T13:13:42Z</time>
      </trkpt>
      <trkpt lat="48.23333" lon="-3.99958">
        <ele>120.7</ele>
        <time>2020-06-08T13:13:43Z</time>
      </trkpt>
      <trkpt lat="48.23333" lon="-3.99965">
        <ele>120.8</ele>
        <time>2020-06-08T13:13:44Z</time>
      </trkpt>
      <trkpt lat="48.23333" lon="-3.99972">
        <ele>120.9</ele>
        <time>2020-06-08T13:13:45Z</time>
      </trkpt>
      <trkpt lat="48.23334" lon="-3.99976">
        <ele>120.9</ele>
        <time>2020-06-08T13:13:46Z</time>
      </trkpt>
      <trkpt lat="48.23334" lon="-3.99978">
        <ele>121</ele>
        <time>2020-06-08T13:13:47Z</time>
      </trkpt>
      <trkpt lat="48.23334" lon="-3.99979">
        <ele>121</ele>
        <time>2020-06-08T13:13:48Z</time>
      </trkpt>
      <trkpt lat="48.23334" lon="-3.99982">
        <ele>121.1</ele>
        <time>2020-06-08T13:13:49Z</time>
      </trkpt>
      <trkpt lat="48.23333" lon="-3.99983">
        <ele>121.1</ele>
        <time>2020-06-08T13:13:50Z</time>
      </trkpt>
      <trkpt lat="48.23333" lon="-3.99988">
        <ele>121.2</ele>
        <time>2020-06-08T13:13:51Z</time>
      </trkpt>
      <trkpt lat="48.23333" lon="-3.99992">
        <ele>121.3</ele>
        <time>2020-06-08T13:13:52Z</time>
      </trkpt>
      <trkpt lat="48.23333" lon="-3.99994">
        <ele>121.4</ele>
        <time>2020-06-08T13:13:53Z</time>
      </trkpt>
      <trkpt lat="48.23333" lon="-3.99997">
        <ele>121.5</ele>
        <time>2020-06-08T13:13:54Z</time>
      </trkpt>
      <trkpt lat="48.23333" lon="-4">
        <ele>121.5</ele>
        <time>2020-06-08T13:13:55Z</time>
      </trkpt>
      <trkpt lat="48.23334" lon="-4.00004">
        <ele>121.7</ele>
        <time>2020-06-08T13:13:56Z</time>
      </trkpt>
      <trkpt lat="48.23334" lon="-4.00005">
        <ele>121.7</ele>
        <time>2020-06-08T13:13:57Z</time>
      </trkpt>
      <trkpt lat="48.23333" lon="-4.0001">
        <ele>121.8</ele>
        <time>2020-06-08T13:13:58Z</time>
      </trkpt>
      <trkpt lat="48.23334" lon="-4.00011">
        <ele>121.9</ele>
        <time>2020-06-08T13:13:59Z</time>
      </trkpt>
      <trkpt lat="48.23334" lon="-4.00016">
        <ele>122.1</ele>
        <time>2020-06-08T13:14:00Z</time>
      </trkpt>
      <trkpt lat="48.23335" lon="-4.00021">
        <ele>122.3</ele>
        <time>2020-06-08T13:14:01Z</time>
      </trkpt>
      <trkpt lat="48.23335" lon="-4.00023">
        <ele>122.3</ele>
        <time>2020-06-08T13:14:02Z</time>
      </trkpt>
      <trkpt lat="48.23335" lon="-4.00025">
        <ele>122.4</ele>
        <time>2020-06-08T13:14:03Z</time>
      </trkpt>
      <trkpt lat="48.23335" lon="-4.00028">
        <ele>122.5</ele>
        <time>2020-06-08T13:14:04Z</time>
      </trkpt>
      <trkpt lat="48.23335" lon="-4.00033">
        <ele>122.7</ele>
        <time>2020-06-08T13:14:05Z</time>
      </trkpt>
      <trkpt lat="48.23335" lon="-4.00034">
        <ele>122.7</ele>
        <time>2020-06-08T13:14:06Z</time>
      </trkpt>
      <trkpt lat="48.23336" lon="-4.00038">
        <ele>122.9</ele>
        <time>2020-06-08T13:14:07Z</time>
      </trkpt>
      <trkpt lat="48.23336" lon="-4.0004">
        <ele>122.9</ele>
        <time>2020-06-08T13:14:08Z</time>
      </trkpt>
      <trkpt lat="48.23336" lon="-4.00045">
        <ele>123.1</ele>
        <time>2020-06-08T13:14:09Z</time>
      </trkpt>
      <trkpt lat="48.23336" lon="-4.00047">
        <ele>123.2</ele>
        <time>2020-06-08T13:14:10Z</time>
      </trkpt>
      <trkpt lat="48.23338" lon="-4.00051">
        <ele>123.4</ele>
        <time>2020-06-08T13:14:11Z</time>
      </trkpt>
      <trkpt lat="48.23338" lon="-4.00052">
        <ele>123.4</ele>
        <time>2020-06-08T13:14:12Z</time>
      </trkpt>
      <trkpt lat="48.23338" lon="-4.00057">
        <ele>123.6</ele>
        <time>2020-06-08T13:14:13Z</time>
      </trkpt>
      <trkpt lat="48.23338" lon="-4.00059">
        <ele>123.7</ele>
        <time>2020-06-08T13:14:14Z</time>
      </trkpt>
      <trkpt lat="48.23338" lon="-4.00061">
        <ele>123.8</ele>
        <time>2020-06-08T13:14:15Z</time>
      </trkpt>
      <trkpt lat="48.23337" lon="-4.00063">
        <ele>123.9</ele>
        <time>2020-06-08T13:14:16Z</time>
      </trkpt>
      <trkpt lat="48.23336" lon="-4.00066">
        <ele>124</ele>
        <time>2020-06-08T13:14:17Z</time>
      </trkpt>
      <trkpt lat="48.23336" lon="-4.00067">
        <ele>124.1</ele>
        <time>2020-06-08T13:14:18Z</time>
      </trkpt>
      <trkpt lat="48.23335" lon="-4.00068">
        <ele>124.2</ele>
        <time>2020-06-08T13:14:19Z</time>
      </trkpt>
      <trkpt lat="48.23335" lon="-4.00073">
        <ele>124.4</ele>
        <time>2020-06-08T13:14:20Z</time>
      </trkpt>
      <trkpt lat="48.23335" lon="-4.00075">
        <ele>124.5</ele>
        <time>2020-06-08T13:14:21Z</time>
      </trkpt>
      <trkpt lat="48.23336" lon="-4.00077">
        <ele>124.6</ele>
        <time>2020-06-08T13:14:22Z</time>
      </trkpt>
      <trkpt lat="48.23337" lon="-4.00079">
        <ele>124.7</ele>
        <time>2020-06-08T13:14:23Z</time>
      </trkpt>
      <trkpt lat="48.23338" lon="-4.00082">
        <ele>124.9</ele>
        <time>2020-06-08T13:14:24Z</time>
      </trkpt>
      <trkpt lat="48.23339" lon="-4.00084">
        <ele>125</ele>
        <time>2020-06-08T13:14:25Z</time>
      </trkpt>
      <trkpt lat="48.2334" lon="-4.00088">
        <ele>125.2</ele>
        <time>2020-06-08T13:14:26Z</time>
      </trkpt>
      <trkpt lat="48.2334" lon="-4.00089">
        <ele>125.2</ele>
        <time>2020-06-08T13:14:27Z</time>
      </trkpt>
      <trkpt lat="48.2334" lon="-4.00092">
        <ele>125.4</ele>
        <time>2020-06-08T13:14:28Z</time>
      </trkpt>
      <trkpt lat="48.2334" lon="-4.00094">
        <ele>125.5</ele>
        <time>2020-06-08T13:14:29Z</time>
      </trkpt>
      <trkpt lat="48.2334" lon="-4.00095">
        <ele>125.6</ele>
        <time>2020-06-08T13:14:30Z</time>
      </trkpt>
      <trkpt lat="48.23341" lon="-4.00097">
        <ele>125.7</ele>
        <time>2020-06-08T13:14:31Z</time>
      </trkpt>
      <trkpt lat="48.23341" lon="-4.00099">
        <ele>125.7</ele>
        <time>2020-06-08T13:14:32Z</time>
      </trkpt>
      <trkpt lat="48.23341" lon="-4.001">
        <ele>125.8</ele>
        <time>2020-06-08T13:14:33Z</time>
      </trkpt>
      <trkpt lat="48.23341" lon="-4.00101">
        <ele>125.9</ele>
        <time>2020-06-08T13:14:34Z</time>
      </trkpt>
      <trkpt lat="48.23341" lon="-4.00103">
        <ele>126</ele>
        <time>2020-06-08T13:14:35Z</time>
      </trkpt>
      <trkpt lat="48.23342" lon="-4.00105">
        <ele>126.1</ele>
        <time>2020-06-08T13:14:36Z</time>
      </trkpt>
      <trkpt lat="48.23342" lon="-4.00107">
        <ele>126.2</ele>
        <time>2020-06-08T13:14:37Z</time>
      </trkpt>
      <trkpt lat="48.23341" lon="-4.0011">
        <ele>126.3</ele>
        <time>2020-06-08T13:14:38Z</time>
      </trkpt>
      <trkpt lat="48.23341" lon="-4.00112">
        <ele>126.4</ele>
        <time>2020-06-08T13:14:39Z</time>
      </trkpt>
      <trkpt lat="48.23341" lon="-4.00115">
        <ele>126.6</ele>
        <time>2020-06-08T13:14:40Z</time>
      </trkpt>
      <trkpt lat="48.23342" lon="-4.00118">
        <ele>126.7</ele>
        <time>2020-06-08T13:14:41Z</time>
      </trkpt>
      <trkpt lat="48.23342" lon="-4.0012">
        <ele>126.8</ele>
        <time>2020-06-08T13:14:42Z</time>
      </trkpt>
      <trkpt lat="48.23342" lon="-4.00123">
        <ele>127</ele>
        <time>2020-06-08T13:14:43Z</time>
      </trkpt>
      <trkpt lat="48.23342" lon="-4.00124">
        <ele>127.1</ele>
        <time>2020-06-08T13:14:44Z</time>
      </trkpt>
      <trkpt lat="48.23342" lon="-4.00126">
        <ele>127.2</ele>
        <time>2020-06-08T13:14:45Z</time>
      </trkpt>
      <trkpt lat="48.23343" lon="-4.00127">
        <ele>127.2</ele>
        <time>2020-06-08T13:14:46Z</time>
      </trkpt>
      <trkpt lat="48.23343" lon="-4.0013">
        <ele>127.4</ele>
        <time>2020-06-08T13:14:47Z</time>
      </trkpt>
      <trkpt lat="48.23344" lon="-4.00132">
        <ele>127.5</ele>
        <time>2020-06-08T13:14:48Z</time>
      </trkpt>
      <trkpt lat="48.23344" lon="-4.00133">
        <ele>127.6</ele>
        <time>2020-06-08T13:14:49Z</time>
      </trkpt>
      <trkpt lat="48.23345" lon="-4.00135">
        <ele>127.6</ele>
        <time>2020-06-08T13:14:50Z</time>
      </trkpt>
      <trkpt lat="48.23345" lon="-4.00138">
        <ele>127.8</ele>
        <time>2020-06-08T13:14:51Z</time>
      </trkpt>
      <trkpt lat="48.23346" lon="-4.0014">
        <ele>127.9</ele>
        <time>2020-06-08T13:14:52Z</time>
      </trkpt>
      <trkpt lat="48.23346" lon="-4.00142">
        <ele>128</ele>
        <time>2020-06-08T13:14:53Z</time>
      </trkpt>
      <trkpt lat="48.23346" lon="-4.00143">
        <ele>128.1</ele>
        <time>2020-06-08T13:14:54Z</time>
      </trkpt>
      <trkpt lat="48.23345" lon="-4.00145">
        <ele>128.2</ele>
        <time>2020-06-08T13:14:55Z</time>
      </trkpt>
      <trkpt lat="48.23345" lon="-4.00147">
        <ele>128.3</ele>
        <time>2020-06-08T13:14:56Z</time>
      </trkpt>
      <trkpt lat="48.23346" lon="-4.00149">
        <ele>128.4</ele>
        <time>2020-06-08T13:14:57Z</time>
      </trkpt>
      <trkpt lat="48.23346" lon="-4.00151">
        <ele>128.5</ele>
        <time>2020-06-08T13:14:58Z</time>
      </trkpt>
      <trkpt lat="48.23347" lon="-4.00154">
        <ele>128.6</ele>
        <time>2020-06-08T13:14:59Z</time>
      </trkpt>
      <trkpt lat="48.23347" lon="-4.00157">
        <ele>128.8</ele>
        <time>2020-06-08T13:15:00Z</time>
      </trkpt>
      <trkpt lat="48.23348" lon="-4.00158">
        <ele>128.9</ele>
        <time>2020-06-08T13:15:01Z</time>
      </trkpt>
      <trkpt lat="48.23348" lon="-4.00162">
        <ele>129.1</ele>
        <time>2020-06-08T13:15:02Z</time>
      </trkpt>
      <trkpt lat="48.23348" lon="-4.00164">
        <ele>129.2</ele>
        <time>2020-06-08T13:15:03Z</time>
      </trkpt>
      <trkpt lat="48.23349" lon="-4.00167">
        <ele>129.4</ele>
        <time>2020-06-08T13:15:04Z</time>
      </trkpt>
      <trkpt lat="48.2335" lon="-4.00168">
        <ele>129.5</ele>
        <time>2020-06-08T13:15:05Z</time>
      </trkpt>
      <trkpt lat="48.2335" lon="-4.0017">
        <ele>129.5</ele>
        <time>2020-06-08T13:15:06Z</time>
      </trkpt>
      <trkpt lat="48.2335" lon="-4.00172">
        <ele>129.7</ele>
        <time>2020-06-08T13:15:07Z</time>
      </trkpt>
      <trkpt lat="48.2335" lon="-4.00175">
        <ele>129.9</ele>
        <time>2020-06-08T13:15:08Z</time>
      </trkpt>
      <trkpt lat="48.2335" lon="-4.00177">
        <ele>130</ele>
        <time>2020-06-08T13:15:09Z</time>
      </trkpt>
      <trkpt lat="48.2335" lon="-4.0018">
        <ele>130.1</ele>
        <time>2020-06-08T13:15:10Z</time>
      </trkpt>
      <trkpt lat="48.23349" lon="-4.00181">
        <ele>130.2</ele>
        <time>2020-06-08T13:15:11Z</time>
      </trkpt>
      <trkpt lat="48.23349" lon="-4.00182">
        <ele>130.3</ele>
        <time>2020-06-08T13:15:12Z</time>
      </trkpt>
      <trkpt lat="48.23349" lon="-4.00185">
        <ele>130.4</ele>
        <time>2020-06-08T13:15:13Z</time>
      </trkpt>
      <trkpt lat="48.23349" lon="-4.00187">
        <ele>130.6</ele>
        <time>2020-06-08T13:15:14Z</time>
      </trkpt>
      <trkpt lat="48.23349" lon="-4.00189">
        <ele>130.7</ele>
        <time>2020-06-08T13:15:15Z</time>
      </trkpt>
      <trkpt lat="48.2335" lon="-4.00191">
        <ele>130.8</ele>
        <time>2020-06-08T13:15:16Z</time>
      </trkpt>
      <trkpt lat="48.2335" lon="-4.00193">
        <ele>131</ele>
        <time>2020-06-08T13:15:17Z</time>
      </trkpt>
      <trkpt lat="48.23351" lon="-4.00196">
        <ele>131.1</ele>
        <time>2020-06-08T13:15:18Z</time>
      </trkpt>
      <trkpt lat="48.23351" lon="-4.00197">
        <ele>131.2</ele>
        <time>2020-06-08T13:15:19Z</time>
      </trkpt>
      <trkpt lat="48.23351" lon="-4.00199">
        <ele>131.3</ele>
        <time>2020-06-08T13:15:20Z</time>
      </trkpt>
      <trkpt lat="48.23351" lon="-4.002">
        <ele>131.4</ele>
        <time>2020-06-08T13:15:21Z</time>
      </trkpt>
      <trkpt lat="48.23352" lon="-4.00202">
        <ele>131.5</ele>
        <time>2020-06-08T13:15:22Z</time>
      </trkpt>
      <trkpt lat="48.23352" lon="-4.00204">
        <ele>131.6</ele>
        <time>2020-06-08T13:15:23Z</time>
      </trkpt>
      <trkpt lat="48.23353" lon="-4.00207">
        <ele>131.8</ele>
        <time>2020-06-08T13:15:24Z</time>
      </trkpt>
      <trkpt lat="48.23354" lon="-4.00207">
        <ele>131.9</ele>
        <time>2020-06-08T13:15:25Z</time>
      </trkpt>
      <trkpt lat="48.23355" lon="-4.00208">
        <ele>132</ele>
        <time>2020-06-08T13:15:26Z</time>
      </trkpt>
      <trkpt lat="48.23356" lon="-4.0021">
        <ele>132.1</ele>
        <time>2020-06-08T13:15:27Z</time>
      </trkpt>
      <trkpt lat="48.23357" lon="-4.00212">
        <ele>132.3</ele>
        <time>2020-06-08T13:15:28Z</time>
      </trkpt>
      <trkpt lat="48.23358" lon="-4.00214">
        <ele>132.4</ele>
        <time>2020-06-08T13:15:29Z</time>
      </trkpt>
      <trkpt lat="48.23358" lon="-4.00215">
        <ele>132.5</ele>
        <time>2020-06-08T13:15:30Z</time>
      </trkpt>
      <trkpt lat="48.23358" lon="-4.00216">
        <ele>132.5</ele>
        <time>2020-06-08T13:15:31Z</time>
      </trkpt>
      <trkpt lat="48.23359" lon="-4.00217">
        <ele>132.6</ele>
        <time>2020-06-08T13:15:32Z</time>
      </trkpt>
      <trkpt lat="48.23359" lon="-4.00218">
        <ele>132.7</ele>
        <time>2020-06-08T13:15:33Z</time>
      </trkpt>
      <trkpt lat="48.23359" lon="-4.0022">
        <ele>132.8</ele>
        <time>2020-06-08T13:15:34Z</time>
      </trkpt>
      <trkpt lat="48.23359" lon="-4.00221">
        <ele>132.9</ele>
        <time>2020-06-08T13:15:35Z</time>
      </trkpt>
      <trkpt lat="48.23359" lon="-4.00224">
        <ele>133</ele>
        <time>2020-06-08T13:15:36Z</time>
      </trkpt>
      <trkpt lat="48.23359" lon="-4.00226">
        <ele>133.1</ele>
        <time>2020-06-08T13:15:37Z</time>
      </trkpt>
      <trkpt lat="48.23359" lon="-4.00227">
        <ele>133.2</ele>
        <time>2020-06-08T13:15:38Z</time>
      </trkpt>
      <trkpt lat="48.2336" lon="-4.00231">
        <ele>133.5</ele>
        <time>2020-06-08T13:15:39Z</time>
      </trkpt>
      <trkpt lat="48.2336" lon="-4.00233">
        <ele>133.5</ele>
        <time>2020-06-08T13:15:40Z</time>
      </trkpt>
      <trkpt lat="48.23361" lon="-4.00238">
        <ele>133.9</ele>
        <time>2020-06-08T13:15:41Z</time>
      </trkpt>
      <trkpt lat="48.23362" lon="-4.0024">
        <ele>134</ele>
        <time>2020-06-08T13:15:42Z</time>
      </trkpt>
      <trkpt lat="48.23364" lon="-4.00245">
        <ele>134.3</ele>
        <time>2020-06-08T13:15:43Z</time>
      </trkpt>
      <trkpt lat="48.23364" lon="-4.00247">
        <ele>134.5</ele>
        <time>2020-06-08T13:15:44Z</time>
      </trkpt>
      <trkpt lat="48.23365" lon="-4.00252">
        <ele>134.7</ele>
        <time>2020-06-08T13:15:45Z</time>
      </trkpt>
      <trkpt lat="48.23365" lon="-4.00253">
        <ele>134.8</ele>
        <time>2020-06-08T13:15:46Z</time>
      </trkpt>
      <trkpt lat="48.23366" lon="-4.00258">
        <ele>135.1</ele>
        <time>2020-06-08T13:15:47Z</time>
      </trkpt>
      <trkpt lat="48.23366" lon="-4.0026">
        <ele>135.2</ele>
        <time>2020-06-08T13:15:48Z</time>
      </trkpt>
      <trkpt lat="48.23367" lon="-4.00265">
        <ele>135.5</ele>
        <time>2020-06-08T13:15:49Z</time>
      </trkpt>
      <trkpt lat="48.23367" lon="-4.00267">
        <ele>135.6</ele>
        <time>2020-06-08T13:15:50Z</time>
      </trkpt>
      <trkpt lat="48.23368" lon="-4.00271">
        <ele>135.9</ele>
        <time>2020-06-08T13:15:51Z</time>
      </trkpt>
      <trkpt lat="48.23369" lon="-4.00275">
        <ele>136.1</ele>
        <time>2020-06-08T13:15:52Z</time>
      </trkpt>
      <trkpt lat="48.2337" lon="-4.00281">
        <ele>136.4</ele>
        <time>2020-06-08T13:15:53Z</time>
      </trkpt>
      <trkpt lat="48.2337" lon="-4.00282">
        <ele>136.4</ele>
        <time>2020-06-08T13:15:54Z</time>
      </trkpt>
      <trkpt lat="48.23371" lon="-4.00287">
        <ele>136.7</ele>
        <time>2020-06-08T13:15:55Z</time>
      </trkpt>
      <trkpt lat="48.23372" lon="-4.00288">
        <ele>136.8</ele>
        <time>2020-06-08T13:15:56Z</time>
      </trkpt>
      <trkpt lat="48.23373" lon="-4.00293">
        <ele>137</ele>
        <time>2020-06-08T13:15:57Z</time>
      </trkpt>
      <trkpt lat="48.23373" lon="-4.00294">
        <ele>137.1</ele>
        <time>2020-06-08T13:15:58Z</time>
      </trkpt>
      <trkpt lat="48.23376" lon="-4.00296">
        <ele>137.3</ele>
        <time>2020-06-08T13:15:59Z</time>
      </trkpt>
      <trkpt lat="48.23377" lon="-4.00302">
        <ele>137.6</ele>
        <time>2020-06-08T13:16:00Z</time>
      </trkpt>
      <trkpt lat="48.23378" lon="-4.00304">
        <ele>137.7</ele>
        <time>2020-06-08T13:16:01Z</time>
      </trkpt>
      <trkpt lat="48.23378" lon="-4.00309">
        <ele>138</ele>
        <time>2020-06-08T13:16:02Z</time>
      </trkpt>
      <trkpt lat="48.23379" lon="-4.00312">
        <ele>138.1</ele>
        <time>2020-06-08T13:16:03Z</time>
      </trkpt>
      <trkpt lat="48.23379" lon="-4.00316">
        <ele>138.3</ele>
        <time>2020-06-08T13:16:04Z</time>
      </trkpt>
      <trkpt lat="48.23378" lon="-4.00317">
        <ele>138.3</ele>
        <time>2020-06-08T13:16:05Z</time>
      </trkpt>
      <trkpt lat="48.23378" lon="-4.00319">
        <ele>138.4</ele>
        <time>2020-06-08T13:16:06Z</time>
      </trkpt>
      <trkpt lat="48.23379" lon="-4.00322">
        <ele>138.5</ele>
        <time>2020-06-08T13:16:07Z</time>
      </trkpt>
      <trkpt lat="48.2338" lon="-4.00326">
        <ele>138.7</ele>
        <time>2020-06-08T13:16:08Z</time>
      </trkpt>
      <trkpt lat="48.2338" lon="-4.00327">
        <ele>138.8</ele>
        <time>2020-06-08T13:16:09Z</time>
      </trkpt>
      <trkpt lat="48.23381" lon="-4.0033">
        <ele>138.9</ele>
        <time>2020-06-08T13:16:10Z</time>
      </trkpt>
      <trkpt lat="48.23381" lon="-4.00332">
        <ele>139</ele>
        <time>2020-06-08T13:16:11Z</time>
      </trkpt>
      <trkpt lat="48.2338" lon="-4.00336">
        <ele>139.1</ele>
        <time>2020-06-08T13:16:12Z</time>
      </trkpt>
      <trkpt lat="48.23381" lon="-4.00338">
        <ele>139.2</ele>
        <time>2020-06-08T13:16:13Z</time>
      </trkpt>
      <trkpt lat="48.23383" lon="-4.00343">
        <ele>139.4</ele>
        <time>2020-06-08T13:16:14Z</time>
      </trkpt>
      <trkpt lat="48.23383" lon="-4.00344">
        <ele>139.4</ele>
        <time>2020-06-08T13:16:15Z</time>
      </trkpt>
      <trkpt lat="48.23384" lon="-4.00349">
        <ele>139.5</ele>
        <time>2020-06-08T13:16:16Z</time>
      </trkpt>
      <trkpt lat="48.23384" lon="-4.00353">
        <ele>139.7</ele>
        <time>2020-06-08T13:16:17Z</time>
      </trkpt>
      <trkpt lat="48.23386" lon="-4.00357">
        <ele>139.8</ele>
        <time>2020-06-08T13:16:18Z</time>
      </trkpt>
      <trkpt lat="48.23386" lon="-4.00362">
        <ele>139.9</ele>
        <time>2020-06-08T13:16:19Z</time>
      </trkpt>
      <trkpt lat="48.23387" lon="-4.00366">
        <ele>140</ele>
        <time>2020-06-08T13:16:20Z</time>
      </trkpt>
      <trkpt lat="48.23387" lon="-4.00368">
        <ele>140</ele>
        <time>2020-06-08T13:16:21Z</time>
      </trkpt>
      <trkpt lat="48.23388" lon="-4.00372">
        <ele>140.2</ele>
        <time>2020-06-08T13:16:22Z</time>
      </trkpt>
      <trkpt lat="48.23389" lon="-4.00377">
        <ele>140.3</ele>
        <time>2020-06-08T13:16:23Z</time>
      </trkpt>
      <trkpt lat="48.23389" lon="-4.00379">
        <ele>140.3</ele>
        <time>2020-06-08T13:16:24Z</time>
      </trkpt>
      <trkpt lat="48.2339" lon="-4.00383">
        <ele>140.4</ele>
        <time>2020-06-08T13:16:25Z</time>
      </trkpt>
      <trkpt lat="48.23391" lon="-4.00388">
        <ele>140.5</ele>
        <time>2020-06-08T13:16:26Z</time>
      </trkpt>
      <trkpt lat="48.23391" lon="-4.0039">
        <ele>140.5</ele>
        <time>2020-06-08T13:16:27Z</time>
      </trkpt>
      <trkpt lat="48.23391" lon="-4.00395">
        <ele>140.6</ele>
        <time>2020-06-08T13:16:28Z</time>
      </trkpt>
      <trkpt lat="48.23393" lon="-4.004">
        <ele>140.7</ele>
        <time>2020-06-08T13:16:29Z</time>
      </trkpt>
      <trkpt lat="48.23393" lon="-4.00402">
        <ele>140.7</ele>
        <time>2020-06-08T13:16:30Z</time>
      </trkpt>
      <trkpt lat="48.23395" lon="-4.00408">
        <ele>140.7</ele>
        <time>2020-06-08T13:16:31Z</time>
      </trkpt>
      <trkpt lat="48.23395" lon="-4.00409">
        <ele>140.7</ele>
        <time>2020-06-08T13:16:32Z</time>
      </trkpt>
      <trkpt lat="48.23395" lon="-4.00414">
        <ele>140.7</ele>
        <time>2020-06-08T13:16:33Z</time>
      </trkpt>
      <trkpt lat="48.23395" lon="-4.00416">
        <ele>140.7</ele>
        <time>2020-06-08T13:16:34Z</time>
      </trkpt>
      <trkpt lat="48.23395" lon="-4.00421">
        <ele>140.7</ele>
        <time>2020-06-08T13:16:35Z</time>
      </trkpt>
      <trkpt lat="48.23395" lon="-4.00423">
        <ele>140.7</ele>
        <time>2020-06-08T13:16:36Z</time>
      </trkpt>
      <trkpt lat="48.23396" lon="-4.00429">
        <ele>140.7</ele>
        <time>2020-06-08T13:16:37Z</time>
      </trkpt>
      <trkpt lat="48.23396" lon="-4.00431">
        <ele>140.7</ele>
        <time>2020-06-08T13:16:38Z</time>
      </trkpt>
      <trkpt lat="48.23396" lon="-4.00437">
        <ele>140.6</ele>
        <time>2020-06-08T13:16:39Z</time>
      </trkpt>
      <trkpt lat="48.23396" lon="-4.00439">
        <ele>140.6</ele>
        <time>2020-06-08T13:16:40Z</time>
      </trkpt>
      <trkpt lat="48.23397" lon="-4.00444">
        <ele>140.5</ele>
        <time>2020-06-08T13:16:41Z</time>
      </trkpt>
      <trkpt lat="48.23398" lon="-4.00449">
        <ele>140.4</ele>
        <time>2020-06-08T13:16:42Z</time>
      </trkpt>
      <trkpt lat="48.23399" lon="-4.00454">
        <ele>140.3</ele>
        <time>2020-06-08T13:16:43Z</time>
      </trkpt>
      <trkpt lat="48.234" lon="-4.0046">
        <ele>140.2</ele>
        <time>2020-06-08T13:16:44Z</time>
      </trkpt>
      <trkpt lat="48.23401" lon="-4.00466">
        <ele>140</ele>
        <time>2020-06-08T13:16:45Z</time>
      </trkpt>
      <trkpt lat="48.23401" lon="-4.00471">
        <ele>139.8</ele>
        <time>2020-06-08T13:16:46Z</time>
      </trkpt>
      <trkpt lat="48.23401" lon="-4.00478">
        <ele>139.6</ele>
        <time>2020-06-08T13:16:47Z</time>
      </trkpt>
      <trkpt lat="48.23402" lon="-4.00484">
        <ele>139.4</ele>
        <time>2020-06-08T13:16:48Z</time>
      </trkpt>
      <trkpt lat="48.23403" lon="-4.00491">
        <ele>139.2</ele>
        <time>2020-06-08T13:16:49Z</time>
      </trkpt>
      <trkpt lat="48.23403" lon="-4.00499">
        <ele>138.9</ele>
        <time>2020-06-08T13:16:50Z</time>
      </trkpt>
      <trkpt lat="48.23404" lon="-4.00507">
        <ele>138.6</ele>
        <time>2020-06-08T13:16:51Z</time>
      </trkpt>
      <trkpt lat="48.23405" lon="-4.00515">
        <ele>138.3</ele>
        <time>2020-06-08T13:16:52Z</time>
      </trkpt>
      <trkpt lat="48.23406" lon="-4.00524">
        <ele>138</ele>
        <time>2020-06-08T13:16:53Z</time>
      </trkpt>
      <trkpt lat="48.23407" lon="-4.00533">
        <ele>137.6</ele>
        <time>2020-06-08T13:16:54Z</time>
      </trkpt>
      <trkpt lat="48.23408" lon="-4.00543">
        <ele>137.2</ele>
        <time>2020-06-08T13:16:55Z</time>
      </trkpt>
      <trkpt lat="48.23409" lon="-4.00554">
        <ele>136.7</ele>
        <time>2020-06-08T13:16:56Z</time>
      </trkpt>
      <trkpt lat="48.2341" lon="-4.00566">
        <ele>136.2</ele>
        <time>2020-06-08T13:16:57Z</time>
      </trkpt>
      <trkpt lat="48.2341" lon="-4.00577">
        <ele>135.6</ele>
        <time>2020-06-08T13:16:58Z</time>
      </trkpt>
      <trkpt lat="48.23409" lon="-4.00589">
        <ele>135</ele>
        <time>2020-06-08T13:16:59Z</time>
      </trkpt>
      <trkpt lat="48.23409" lon="-4.00602">
        <ele>134.4</ele>
        <time>2020-06-08T13:17:00Z</time>
      </trkpt>
      <trkpt lat="48.2341" lon="-4.00615">
        <ele>133.7</ele>
        <time>2020-06-08T13:17:01Z</time>
      </trkpt>
      <trkpt lat="48.2341" lon="-4.00628">
        <ele>133.1</ele>
        <time>2020-06-08T13:17:02Z</time>
      </trkpt>
      <trkpt lat="48.23411" lon="-4.00642">
        <ele>132.4</ele>
        <time>2020-06-08T13:17:03Z</time>
      </trkpt>
      <trkpt lat="48.23411" lon="-4.00656">
        <ele>131.7</ele>
        <time>2020-06-08T13:17:04Z</time>
      </trkpt>
      <trkpt lat="48.23411" lon="-4.0067">
        <ele>130.9</ele>
        <time>2020-06-08T13:17:05Z</time>
      </trkpt>
      <trkpt lat="48.23411" lon="-4.00685">
        <ele>130.1</ele>
        <time>2020-06-08T13:17:06Z</time>
      </trkpt>
      <trkpt lat="48.2341" lon="-4.00701">
        <ele>129.2</ele>
        <time>2020-06-08T13:17:07Z</time>
      </trkpt>
      <trkpt lat="48.23408" lon="-4.00717">
        <ele>128.3</ele>
        <time>2020-06-08T13:17:08Z</time>
      </trkpt>
      <trkpt lat="48.23405" lon="-4.00733">
        <ele>127.2</ele>
        <time>2020-06-08T13:17:09Z</time>
      </trkpt>
      <trkpt lat="48.23402" lon="-4.00749">
        <ele>126.1</ele>
        <time>2020-06-08T13:17:10Z</time>
      </trkpt>
      <trkpt lat="48.234" lon="-4.00767">
        <ele>124.9</ele>
        <time>2020-06-08T13:17:11Z</time>
      </trkpt>
      <trkpt lat="48.23397" lon="-4.00785">
        <ele>123.6</ele>
        <time>2020-06-08T13:17:12Z</time>
      </trkpt>
      <trkpt lat="48.23394" lon="-4.00804">
        <ele>122</ele>
        <time>2020-06-08T13:17:13Z</time>
      </trkpt>
      <trkpt lat="48.23392" lon="-4.00823">
        <ele>120.4</ele>
        <time>2020-06-08T13:17:14Z</time>
      </trkpt>
      <trkpt lat="48.2339" lon="-4.00842">
        <ele>118.8</ele>
        <time>2020-06-08T13:17:15Z</time>
      </trkpt>
      <trkpt lat="48.23389" lon="-4.00862">
        <ele>117.3</ele>
        <time>2020-06-08T13:17:16Z</time>
      </trkpt>
      <trkpt lat="48.2339" lon="-4.00882">
        <ele>115.8</ele>
        <time>2020-06-08T13:17:17Z</time>
      </trkpt>
      <trkpt lat="48.23392" lon="-4.00902">
        <ele>114.4</ele>
        <time>2020-06-08T13:17:18Z</time>
      </trkpt>
      <trkpt lat="48.23394" lon="-4.00922">
        <ele>113.2</ele>
        <time>2020-06-08T13:17:19Z</time>
      </trkpt>
      <trkpt lat="48.23396" lon="-4.00943">
        <ele>112.3</ele>
        <time>2020-06-08T13:17:20Z</time>
      </trkpt>
      <trkpt lat="48.23398" lon="-4.00963">
        <ele>111.8</ele>
        <time>2020-06-08T13:17:21Z</time>
      </trkpt>
      <trkpt lat="48.234" lon="-4.00983">
        <ele>111.8</ele>
        <time>2020-06-08T13:17:22Z</time>
      </trkpt>
      <trkpt lat="48.23402" lon="-4.01002">
        <ele>112</ele>
        <time>2020-06-08T13:17:23Z</time>
      </trkpt>
      <trkpt lat="48.23405" lon="-4.01021">
        <ele>111.6</ele>
        <time>2020-06-08T13:17:24Z</time>
      </trkpt>
      <trkpt lat="48.23408" lon="-4.01038">
        <ele>111.5</ele>
        <time>2020-06-08T13:17:25Z</time>
      </trkpt>
      <trkpt lat="48.2341" lon="-4.01054">
        <ele>111.7</ele>
        <time>2020-06-08T13:17:26Z</time>
      </trkpt>
      <trkpt lat="48.23412" lon="-4.01069">
        <ele>112.2</ele>
        <time>2020-06-08T13:17:27Z</time>
      </trkpt>
      <trkpt lat="48.23413" lon="-4.01083">
        <ele>112.9</ele>
        <time>2020-06-08T13:17:28Z</time>
      </trkpt>
      <trkpt lat="48.23415" lon="-4.01096">
        <ele>113.6</ele>
        <time>2020-06-08T13:17:29Z</time>
      </trkpt>
      <trkpt lat="48.23416" lon="-4.01108">
        <ele>114.2</ele>
        <time>2020-06-08T13:17:30Z</time>
      </trkpt>
      <trkpt lat="48.23418" lon="-4.01118">
        <ele>114.9</ele>
        <time>2020-06-08T13:17:31Z</time>
      </trkpt>
      <trkpt lat="48.2342" lon="-4.01127">
        <ele>115.5</ele>
        <time>2020-06-08T13:17:32Z</time>
      </trkpt>
      <trkpt lat="48.23422" lon="-4.01135">
        <ele>116.1</ele>
        <time>2020-06-08T13:17:33Z</time>
      </trkpt>
      <trkpt lat="48.23424" lon="-4.01143">
        <ele>116.7</ele>
        <time>2020-06-08T13:17:34Z</time>
      </trkpt>
      <trkpt lat="48.23427" lon="-4.0115">
        <ele>117.3</ele>
        <time>2020-06-08T13:17:35Z</time>
      </trkpt>
      <trkpt lat="48.23429" lon="-4.01157">
        <ele>117.8</ele>
        <time>2020-06-08T13:17:36Z</time>
      </trkpt>
      <trkpt lat="48.2343" lon="-4.01165">
        <ele>118.4</ele>
        <time>2020-06-08T13:17:37Z</time>
      </trkpt>
      <trkpt lat="48.23432" lon="-4.01172">
        <ele>118.9</ele>
        <time>2020-06-08T13:17:38Z</time>
      </trkpt>
      <trkpt lat="48.23435" lon="-4.01178">
        <ele>119.5</ele>
        <time>2020-06-08T13:17:39Z</time>
      </trkpt>
      <trkpt lat="48.23437" lon="-4.01184">
        <ele>120.1</ele>
        <time>2020-06-08T13:17:40Z</time>
      </trkpt>
      <trkpt lat="48.2344" lon="-4.01189">
        <ele>120.6</ele>
        <time>2020-06-08T13:17:41Z</time>
      </trkpt>
      <trkpt lat="48.23443" lon="-4.01195">
        <ele>121.2</ele>
        <time>2020-06-08T13:17:42Z</time>
      </trkpt>
      <trkpt lat="48.23445" lon="-4.01201">
        <ele>121.8</ele>
        <time>2020-06-08T13:17:43Z</time>
      </trkpt>
      <trkpt lat="48.23447" lon="-4.01206">
        <ele>122.3</ele>
        <time>2020-06-08T13:17:44Z</time>
      </trkpt>
      <trkpt lat="48.2345" lon="-4.01211">
        <ele>122.8</ele>
        <time>2020-06-08T13:17:45Z</time>
      </trkpt>
      <trkpt lat="48.23453" lon="-4.01214">
        <ele>123.2</ele>
        <time>2020-06-08T13:17:46Z</time>
      </trkpt>
      <trkpt lat="48.23456" lon="-4.01218">
        <ele>123.7</ele>
        <time>2020-06-08T13:17:47Z</time>
      </trkpt>
      <trkpt lat="48.23458" lon="-4.01223">
        <ele>124.1</ele>
        <time>2020-06-08T13:17:48Z</time>
      </trkpt>
      <trkpt lat="48.2346" lon="-4.01229">
        <ele>124.5</ele>
        <time>2020-06-08T13:17:49Z</time>
      </trkpt>
      <trkpt lat="48.23462" lon="-4.01233">
        <ele>124.8</ele>
        <time>2020-06-08T13:17:50Z</time>
      </trkpt>
      <trkpt lat="48.23464" lon="-4.01236">
        <ele>125.2</ele>
        <time>2020-06-08T13:17:51Z</time>
      </trkpt>
      <trkpt lat="48.23467" lon="-4.0124">
        <ele>125.5</ele>
        <time>2020-06-08T13:17:52Z</time>
      </trkpt>
      <trkpt lat="48.23468" lon="-4.01245">
        <ele>125.9</ele>
        <time>2020-06-08T13:17:53Z</time>
      </trkpt>
      <trkpt lat="48.2347" lon="-4.01249">
        <ele>126.2</ele>
        <time>2020-06-08T13:17:54Z</time>
      </trkpt>
      <trkpt lat="48.23473" lon="-4.01254">
        <ele>126.6</ele>
        <time>2020-06-08T13:17:55Z</time>
      </trkpt>
      <trkpt lat="48.23475" lon="-4.01259">
        <ele>126.9</ele>
        <time>2020-06-08T13:17:56Z</time>
      </trkpt>
      <trkpt lat="48.23478" lon="-4.01263">
        <ele>127.2</ele>
        <time>2020-06-08T13:17:57Z</time>
      </trkpt>
      <trkpt lat="48.2348" lon="-4.01266">
        <ele>127.5</ele>
        <time>2020-06-08T13:17:58Z</time>
      </trkpt>
      <trkpt lat="48.23483" lon="-4.01269">
        <ele>127.7</ele>
        <time>2020-06-08T13:17:59Z</time>
      </trkpt>
      <trkpt lat="48.23485" lon="-4.01274">
        <ele>128</ele>
        <time>2020-06-08T13:18:00Z</time>
      </trkpt>
      <trkpt lat="48.23487" lon="-4.01277">
        <ele>128.2</ele>
        <time>2020-06-08T13:18:01Z</time>
      </trkpt>
      <trkpt lat="48.2349" lon="-4.01281">
        <ele>128.5</ele>
        <time>2020-06-08T13:18:02Z</time>
      </trkpt>
      <trkpt lat="48.23492" lon="-4.01283">
        <ele>128.6</ele>
        <time>2020-06-08T13:18:03Z</time>
      </trkpt>
      <trkpt lat="48.23494" lon="-4.01286">
        <ele>128.9</ele>
        <time>2020-06-08T13:18:04Z</time>
      </trkpt>
      <trkpt lat="48.23496" lon="-4.01291">
        <ele>129.1</ele>
        <time>2020-06-08T13:18:05Z</time>
      </trkpt>
      <trkpt lat="48.23498" lon="-4.01296">
        <ele>129.4</ele>
        <time>2020-06-08T13:18:06Z</time>
      </trkpt>
      <trkpt lat="48.235" lon="-4.013">
        <ele>129.6</ele>
        <time>2020-06-08T13:18:07Z</time>
      </trkpt>
      <trkpt lat="48.23502" lon="-4.01305">
        <ele>129.9</ele>
        <time>2020-06-08T13:18:08Z</time>
      </trkpt>
      <trkpt lat="48.23504" lon="-4.01309">
        <ele>130.1</ele>
        <time>2020-06-08T13:18:09Z</time>
      </trkpt>
      <trkpt lat="48.23506" lon="-4.01312">
        <ele>130.2</ele>
        <time>2020-06-08T13:18:10Z</time>
      </trkpt>
      <trkpt lat="48.23508" lon="-4.01316">
        <ele>130.4</ele>
        <time>2020-06-08T13:18:11Z</time>
      </trkpt>
      <trkpt lat="48.23509" lon="-4.01321">
        <ele>130.7</ele>
        <time>2020-06-08T13:18:12Z</time>
      </trkpt>
      <trkpt lat="48.23511" lon="-4.01325">
        <ele>130.8</ele>
        <time>2020-06-08T13:18:13Z</time>
      </trkpt>
      <trkpt lat="48.23514" lon="-4.01329">
        <ele>131</ele>
        <time>2020-06-08T13:18:14Z</time>
      </trkpt>
      <trkpt lat="48.23515" lon="-4.01331">
        <ele>131.1</ele>
        <time>2020-06-08T13:18:15Z</time>
      </trkpt>
      <trkpt lat="48.23517" lon="-4.01336">
        <ele>131.3</ele>
        <time>2020-06-08T13:18:16Z</time>
      </trkpt>
      <trkpt lat="48.23519" lon="-4.01339">
        <ele>131.4</ele>
        <time>2020-06-08T13:18:17Z</time>
      </trkpt>
      <trkpt lat="48.23519" lon="-4.01341">
        <ele>131.4</ele>
        <time>2020-06-08T13:18:18Z</time>
      </trkpt>
      <trkpt lat="48.23521" lon="-4.01345">
        <ele>131.6</ele>
        <time>2020-06-08T13:18:19Z</time>
      </trkpt>
      <trkpt lat="48.23523" lon="-4.01349">
        <ele>131.7</ele>
        <time>2020-06-08T13:18:20Z</time>
      </trkpt>
      <trkpt lat="48.23524" lon="-4.0135">
        <ele>131.8</ele>
        <time>2020-06-08T13:18:21Z</time>
      </trkpt>
      <trkpt lat="48.23525" lon="-4.01354">
        <ele>131.9</ele>
        <time>2020-06-08T13:18:22Z</time>
      </trkpt>
      <trkpt lat="48.23528" lon="-4.01358">
        <ele>132.1</ele>
        <time>2020-06-08T13:18:23Z</time>
      </trkpt>
      <trkpt lat="48.23531" lon="-4.01362">
        <ele>132.3</ele>
        <time>2020-06-08T13:18:24Z</time>
      </trkpt>
      <trkpt lat="48.23532" lon="-4.01363">
        <ele>132.4</ele>
        <time>2020-06-08T13:18:25Z</time>
      </trkpt>
      <trkpt lat="48.23534" lon="-4.01368">
        <ele>132.6</ele>
        <time>2020-06-08T13:18:26Z</time>
      </trkpt>
      <trkpt lat="48.23535" lon="-4.01373">
        <ele>132.8</ele>
        <time>2020-06-08T13:18:27Z</time>
      </trkpt>
      <trkpt lat="48.23536" lon="-4.01375">
        <ele>132.9</ele>
        <time>2020-06-08T13:18:28Z</time>
      </trkpt>
      <trkpt lat="48.23537" lon="-4.01378">
        <ele>133</ele>
        <time>2020-06-08T13:18:29Z</time>
      </trkpt>
      <trkpt lat="48.23539" lon="-4.01382">
        <ele>133.2</ele>
        <time>2020-06-08T13:18:30Z</time>
      </trkpt>
      <trkpt lat="48.2354" lon="-4.01383">
        <ele>133.3</ele>
        <time>2020-06-08T13:18:31Z</time>
      </trkpt>
      <trkpt lat="48.23541" lon="-4.01385">
        <ele>133.3</ele>
        <time>2020-06-08T13:18:32Z</time>
      </trkpt>
      <trkpt lat="48.23542" lon="-4.01389">
        <ele>133.5</ele>
        <time>2020-06-08T13:18:33Z</time>
      </trkpt>
      <trkpt lat="48.23543" lon="-4.01391">
        <ele>133.6</ele>
        <time>2020-06-08T13:18:34Z</time>
      </trkpt>
      <trkpt lat="48.23544" lon="-4.01395">
        <ele>133.7</ele>
        <time>2020-06-08T13:18:35Z</time>
      </trkpt>
      <trkpt lat="48.23546" lon="-4.01401">
        <ele>133.9</ele>
        <time>2020-06-08T13:18:36Z</time>
      </trkpt>
      <trkpt lat="48.23547" lon="-4.01403">
        <ele>134</ele>
        <time>2020-06-08T13:18:37Z</time>
      </trkpt>
      <trkpt lat="48.23548" lon="-4.01405">
        <ele>134.1</ele>
        <time>2020-06-08T13:18:38Z</time>
      </trkpt>
      <trkpt lat="48.23549" lon="-4.01407">
        <ele>134.2</ele>
        <time>2020-06-08T13:18:39Z</time>
      </trkpt>
      <trkpt lat="48.23549" lon="-4.01409">
        <ele>134.3</ele>
        <time>2020-06-08T13:18:40Z</time>
      </trkpt>
      <trkpt lat="48.2355" lon="-4.01411">
        <ele>134.4</ele>
        <time>2020-06-08T13:18:41Z</time>
      </trkpt>
      <trkpt lat="48.2355" lon="-4.01415">
        <ele>134.5</ele>
        <time>2020-06-08T13:18:42Z</time>
      </trkpt>
      <trkpt lat="48.2355" lon="-4.01417">
        <ele>134.5</ele>
        <time>2020-06-08T13:18:43Z</time>
      </trkpt>
      <trkpt lat="48.23551" lon="-4.01419">
        <ele>134.6</ele>
        <time>2020-06-08T13:18:44Z</time>
      </trkpt>
      <trkpt lat="48.23552" lon="-4.01421">
        <ele>134.7</ele>
        <time>2020-06-08T13:18:45Z</time>
      </trkpt>
      <trkpt lat="48.23553" lon="-4.01425">
        <ele>134.8</ele>
        <time>2020-06-08T13:18:46Z</time>
      </trkpt>
      <trkpt lat="48.23556" lon="-4.0143">
        <ele>135</ele>
        <time>2020-06-08T13:18:47Z</time>
      </trkpt>
      <trkpt lat="48.23557" lon="-4.01432">
        <ele>135.1</ele>
        <time>2020-06-08T13:18:48Z</time>
      </trkpt>
      <trkpt lat="48.23558" lon="-4.01437">
        <ele>135.2</ele>
        <time>2020-06-08T13:18:49Z</time>
      </trkpt>
      <trkpt lat="48.2356" lon="-4.01442">
        <ele>135.3</ele>
        <time>2020-06-08T13:18:50Z</time>
      </trkpt>
      <trkpt lat="48.23562" lon="-4.01446">
        <ele>135.4</ele>
        <time>2020-06-08T13:18:51Z</time>
      </trkpt>
      <trkpt lat="48.23563" lon="-4.01448">
        <ele>135.5</ele>
        <time>2020-06-08T13:18:52Z</time>
      </trkpt>
      <trkpt lat="48.23564" lon="-4.01452">
        <ele>135.5</ele>
        <time>2020-06-08T13:18:53Z</time>
      </trkpt>
      <trkpt lat="48.23564" lon="-4.01454">
        <ele>135.6</ele>
        <time>2020-06-08T13:18:54Z</time>
      </trkpt>
      <trkpt lat="48.23564" lon="-4.01456">
        <ele>135.6</ele>
        <time>2020-06-08T13:18:55Z</time>
      </trkpt>
      <trkpt lat="48.23565" lon="-4.01461">
        <ele>135.7</ele>
        <time>2020-06-08T13:18:56Z</time>
      </trkpt>
      <trkpt lat="48.23565" lon="-4.01465">
        <ele>135.8</ele>
        <time>2020-06-08T13:18:57Z</time>
      </trkpt>
      <trkpt lat="48.23567" lon="-4.0147">
        <ele>135.9</ele>
        <time>2020-06-08T13:18:58Z</time>
      </trkpt>
      <trkpt lat="48.23568" lon="-4.01477">
        <ele>136</ele>
        <time>2020-06-08T13:18:59Z</time>
      </trkpt>
      <trkpt lat="48.2357" lon="-4.01481">
        <ele>136</ele>
        <time>2020-06-08T13:19:00Z</time>
      </trkpt>
      <trkpt lat="48.23571" lon="-4.01483">
        <ele>136.1</ele>
        <time>2020-06-08T13:19:01Z</time>
      </trkpt>
      <trkpt lat="48.23572" lon="-4.01488">
        <ele>136.1</ele>
        <time>2020-06-08T13:19:02Z</time>
      </trkpt>
      <trkpt lat="48.23572" lon="-4.01492">
        <ele>136.2</ele>
        <time>2020-06-08T13:19:03Z</time>
      </trkpt>
      <trkpt lat="48.23573" lon="-4.01495">
        <ele>136.2</ele>
        <time>2020-06-08T13:19:04Z</time>
      </trkpt>
      <trkpt lat="48.23573" lon="-4.015">
        <ele>136.3</ele>
        <time>2020-06-08T13:19:05Z</time>
      </trkpt>
      <trkpt lat="48.23573" lon="-4.01504">
        <ele>136.4</ele>
        <time>2020-06-08T13:19:06Z</time>
      </trkpt>
      <trkpt lat="48.23573" lon="-4.01508">
        <ele>136.4</ele>
        <time>2020-06-08T13:19:07Z</time>
      </trkpt>
      <trkpt lat="48.23573" lon="-4.01512">
        <ele>136.4</ele>
        <time>2020-06-08T13:19:08Z</time>
      </trkpt>
      <trkpt lat="48.23572" lon="-4.01516">
        <ele>136.5</ele>
        <time>2020-06-08T13:19:09Z</time>
      </trkpt>
      <trkpt lat="48.23572" lon="-4.01521">
        <ele>136.5</ele>
        <time>2020-06-08T13:19:10Z</time>
      </trkpt>
      <trkpt lat="48.23572" lon="-4.01526">
        <ele>136.6</ele>
        <time>2020-06-08T13:19:11Z</time>
      </trkpt>
      <trkpt lat="48.23572" lon="-4.01531">
        <ele>136.6</ele>
        <time>2020-06-08T13:19:12Z</time>
      </trkpt>
      <trkpt lat="48.23573" lon="-4.01536">
        <ele>136.6</ele>
        <time>2020-06-08T13:19:13Z</time>
      </trkpt>
      <trkpt lat="48.23572" lon="-4.01543">
        <ele>136.7</ele>
        <time>2020-06-08T13:19:14Z</time>
      </trkpt>
      <trkpt lat="48.23572" lon="-4.01548">
        <ele>136.7</ele>
        <time>2020-06-08T13:19:15Z</time>
      </trkpt>
      <trkpt lat="48.23572" lon="-4.01553">
        <ele>136.7</ele>
        <time>2020-06-08T13:19:16Z</time>
      </trkpt>
      <trkpt lat="48.23572" lon="-4.01555">
        <ele>136.7</ele>
        <time>2020-06-08T13:19:17Z</time>
      </trkpt>
      <trkpt lat="48.23572" lon="-4.0156">
        <ele>136.7</ele>
        <time>2020-06-08T13:19:18Z</time>
      </trkpt>
      <trkpt lat="48.23572" lon="-4.01565">
        <ele>136.8</ele>
        <time>2020-06-08T13:19:19Z</time>
      </trkpt>
      <trkpt lat="48.23573" lon="-4.0157">
        <ele>136.8</ele>
        <time>2020-06-08T13:19:20Z</time>
      </trkpt>
      <trkpt lat="48.23573" lon="-4.01575">
        <ele>136.9</ele>
        <time>2020-06-08T13:19:21Z</time>
      </trkpt>
      <trkpt lat="48.23573" lon="-4.01582">
        <ele>136.9</ele>
        <time>2020-06-08T13:19:22Z</time>
      </trkpt>
      <trkpt lat="48.23573" lon="-4.01585">
        <ele>136.9</ele>
        <time>2020-06-08T13:19:23Z</time>
      </trkpt>
      <trkpt lat="48.23573" lon="-4.01592">
        <ele>136.9</ele>
        <time>2020-06-08T13:19:24Z</time>
      </trkpt>
      <trkpt lat="48.23574" lon="-4.01597">
        <ele>136.9</ele>
        <time>2020-06-08T13:19:25Z</time>
      </trkpt>
      <trkpt lat="48.23574" lon="-4.01603">
        <ele>137</ele>
        <time>2020-06-08T13:19:26Z</time>
      </trkpt>
      <trkpt lat="48.23576" lon="-4.01608">
        <ele>137</ele>
        <time>2020-06-08T13:19:27Z</time>
      </trkpt>
      <trkpt lat="48.23577" lon="-4.01614">
        <ele>137</ele>
        <time>2020-06-08T13:19:28Z</time>
      </trkpt>
      <trkpt lat="48.23578" lon="-4.01619">
        <ele>137</ele>
        <time>2020-06-08T13:19:29Z</time>
      </trkpt>
      <trkpt lat="48.23579" lon="-4.01624">
        <ele>137</ele>
        <time>2020-06-08T13:19:30Z</time>
      </trkpt>
      <trkpt lat="48.23582" lon="-4.0163">
        <ele>137.1</ele>
        <time>2020-06-08T13:19:31Z</time>
      </trkpt>
      <trkpt lat="48.23584" lon="-4.01634">
        <ele>137.1</ele>
        <time>2020-06-08T13:19:32Z</time>
      </trkpt>
      <trkpt lat="48.23585" lon="-4.01639">
        <ele>137</ele>
        <time>2020-06-08T13:19:33Z</time>
      </trkpt>
      <trkpt lat="48.23587" lon="-4.01644">
        <ele>137</ele>
        <time>2020-06-08T13:19:34Z</time>
      </trkpt>
      <trkpt lat="48.23589" lon="-4.01649">
        <ele>137</ele>
        <time>2020-06-08T13:19:35Z</time>
      </trkpt>
      <trkpt lat="48.2359" lon="-4.01652">
        <ele>137</ele>
        <time>2020-06-08T13:19:36Z</time>
      </trkpt>
      <trkpt lat="48.23592" lon="-4.01656">
        <ele>137.1</ele>
        <time>2020-06-08T13:19:37Z</time>
      </trkpt>
      <trkpt lat="48.23595" lon="-4.0166">
        <ele>137.1</ele>
        <time>2020-06-08T13:19:38Z</time>
      </trkpt>
      <trkpt lat="48.23597" lon="-4.01664">
        <ele>137.1</ele>
        <time>2020-06-08T13:19:39Z</time>
      </trkpt>
      <trkpt lat="48.236" lon="-4.01669">
        <ele>137.1</ele>
        <time>2020-06-08T13:19:40Z</time>
      </trkpt>
      <trkpt lat="48.23603" lon="-4.01671">
        <ele>137.1</ele>
        <time>2020-06-08T13:19:41Z</time>
      </trkpt>
      <trkpt lat="48.23606" lon="-4.01674">
        <ele>137.2</ele>
        <time>2020-06-08T13:19:42Z</time>
      </trkpt>
      <trkpt lat="48.23609" lon="-4.01677">
        <ele>137.2</ele>
        <time>2020-06-08T13:19:43Z</time>
      </trkpt>
      <trkpt lat="48.23612" lon="-4.01679">
        <ele>137.2</ele>
        <time>2020-06-08T13:19:44Z</time>
      </trkpt>
      <trkpt lat="48.23615" lon="-4.01683">
        <ele>137.3</ele>
        <time>2020-06-08T13:19:45Z</time>
      </trkpt>
      <trkpt lat="48.23618" lon="-4.01687">
        <ele>137.3</ele>
        <time>2020-06-08T13:19:46Z</time>
      </trkpt>
      <trkpt lat="48.23622" lon="-4.0169">
        <ele>137.4</ele>
        <time>2020-06-08T13:19:47Z</time>
      </trkpt>
      <trkpt lat="48.23623" lon="-4.01691">
        <ele>137.4</ele>
        <time>2020-06-08T13:19:48Z</time>
      </trkpt>
      <trkpt lat="48.23626" lon="-4.01695">
        <ele>137.5</ele>
        <time>2020-06-08T13:19:49Z</time>
      </trkpt>
      <trkpt lat="48.23628" lon="-4.01698">
        <ele>137.5</ele>
        <time>2020-06-08T13:19:50Z</time>
      </trkpt>
      <trkpt lat="48.23631" lon="-4.017">
        <ele>137.6</ele>
        <time>2020-06-08T13:19:51Z</time>
      </trkpt>
      <trkpt lat="48.23633" lon="-4.01704">
        <ele>137.6</ele>
        <time>2020-06-08T13:19:52Z</time>
      </trkpt>
      <trkpt lat="48.23636" lon="-4.01708">
        <ele>137.7</ele>
        <time>2020-06-08T13:19:53Z</time>
      </trkpt>
      <trkpt lat="48.23639" lon="-4.0171">
        <ele>137.8</ele>
        <time>2020-06-08T13:19:54Z</time>
      </trkpt>
      <trkpt lat="48.23642" lon="-4.01713">
        <ele>137.8</ele>
        <time>2020-06-08T13:19:55Z</time>
      </trkpt>
      <trkpt lat="48.23645" lon="-4.01717">
        <ele>137.9</ele>
        <time>2020-06-08T13:19:56Z</time>
      </trkpt>
      <trkpt lat="48.23649" lon="-4.01721">
        <ele>138</ele>
        <time>2020-06-08T13:19:57Z</time>
      </trkpt>
      <trkpt lat="48.23653" lon="-4.01724">
        <ele>138.1</ele>
        <time>2020-06-08T13:19:58Z</time>
      </trkpt>
      <trkpt lat="48.23656" lon="-4.01728">
        <ele>138.1</ele>
        <time>2020-06-08T13:19:59Z</time>
      </trkpt>
      <trkpt lat="48.23659" lon="-4.01731">
        <ele>138.2</ele>
        <time>2020-06-08T13:20:00Z</time>
      </trkpt>
      <trkpt lat="48.23662" lon="-4.01734">
        <ele>138.3</ele>
        <time>2020-06-08T13:20:01Z</time>
      </trkpt>
      <trkpt lat="48.23665" lon="-4.01736">
        <ele>138.3</ele>
        <time>2020-06-08T13:20:02Z</time>
      </trkpt>
      <trkpt lat="48.23666" lon="-4.01737">
        <ele>138.3</ele>
        <time>2020-06-08T13:20:03Z</time>
      </trkpt>
      <trkpt lat="48.23669" lon="-4.0174">
        <ele>138.4</ele>
        <time>2020-06-08T13:20:04Z</time>
      </trkpt>
      <trkpt lat="48.23673" lon="-4.01744">
        <ele>138.4</ele>
        <time>2020-06-08T13:20:05Z</time>
      </trkpt>
      <trkpt lat="48.23676" lon="-4.01747">
        <ele>138.5</ele>
        <time>2020-06-08T13:20:06Z</time>
      </trkpt>
      <trkpt lat="48.23678" lon="-4.01751">
        <ele>138.5</ele>
        <time>2020-06-08T13:20:07Z</time>
      </trkpt>
      <trkpt lat="48.23681" lon="-4.01755">
        <ele>138.5</ele>
        <time>2020-06-08T13:20:08Z</time>
      </trkpt>
      <trkpt lat="48.23684" lon="-4.01759">
        <ele>138.5</ele>
        <time>2020-06-08T13:20:09Z</time>
      </trkpt>
      <trkpt lat="48.23686" lon="-4.01762">
        <ele>138.6</ele>
        <time>2020-06-08T13:20:10Z</time>
      </trkpt>
      <trkpt lat="48.23689" lon="-4.01765">
        <ele>138.6</ele>
        <time>2020-06-08T13:20:11Z</time>
      </trkpt>
      <trkpt lat="48.23691" lon="-4.01768">
        <ele>138.6</ele>
        <time>2020-06-08T13:20:12Z</time>
      </trkpt>
      <trkpt lat="48.23694" lon="-4.01772">
        <ele>138.6</ele>
        <time>2020-06-08T13:20:13Z</time>
      </trkpt>
      <trkpt lat="48.23697" lon="-4.01776">
        <ele>138.6</ele>
        <time>2020-06-08T13:20:14Z</time>
      </trkpt>
      <trkpt lat="48.237" lon="-4.01781">
        <ele>138.5</ele>
        <time>2020-06-08T13:20:15Z</time>
      </trkpt>
      <trkpt lat="48.23703" lon="-4.01785">
        <ele>138.5</ele>
        <time>2020-06-08T13:20:16Z</time>
      </trkpt>
      <trkpt lat="48.23706" lon="-4.01789">
        <ele>138.5</ele>
        <time>2020-06-08T13:20:17Z</time>
      </trkpt>
      <trkpt lat="48.23709" lon="-4.01793">
        <ele>138.5</ele>
        <time>2020-06-08T13:20:18Z</time>
      </trkpt>
      <trkpt lat="48.23712" lon="-4.01798">
        <ele>138.5</ele>
        <time>2020-06-08T13:20:19Z</time>
      </trkpt>
      <trkpt lat="48.23714" lon="-4.01803">
        <ele>138.4</ele>
        <time>2020-06-08T13:20:20Z</time>
      </trkpt>
      <trkpt lat="48.23716" lon="-4.01808">
        <ele>138.4</ele>
        <time>2020-06-08T13:20:21Z</time>
      </trkpt>
      <trkpt lat="48.23719" lon="-4.01813">
        <ele>138.4</ele>
        <time>2020-06-08T13:20:22Z</time>
      </trkpt>
      <trkpt lat="48.23723" lon="-4.01818">
        <ele>138.4</ele>
        <time>2020-06-08T13:20:23Z</time>
      </trkpt>
      <trkpt lat="48.23725" lon="-4.01821">
        <ele>138.4</ele>
        <time>2020-06-08T13:20:24Z</time>
      </trkpt>
      <trkpt lat="48.23729" lon="-4.01825">
        <ele>138.3</ele>
        <time>2020-06-08T13:20:25Z</time>
      </trkpt>
      <trkpt lat="48.23732" lon="-4.0183">
        <ele>138.3</ele>
        <time>2020-06-08T13:20:26Z</time>
      </trkpt>
      <trkpt lat="48.23735" lon="-4.01834">
        <ele>138.3</ele>
        <time>2020-06-08T13:20:27Z</time>
      </trkpt>
      <trkpt lat="48.23739" lon="-4.01839">
        <ele>138.2</ele>
        <time>2020-06-08T13:20:28Z</time>
      </trkpt>
      <trkpt lat="48.23743" lon="-4.01843">
        <ele>138.2</ele>
        <time>2020-06-08T13:20:29Z</time>
      </trkpt>
      <trkpt lat="48.23748" lon="-4.01846">
        <ele>138.2</ele>
        <time>2020-06-08T13:20:30Z</time>
      </trkpt>
      <trkpt lat="48.23751" lon="-4.0185">
        <ele>138.1</ele>
        <time>2020-06-08T13:20:31Z</time>
      </trkpt>
      <trkpt lat="48.23755" lon="-4.01853">
        <ele>138.1</ele>
        <time>2020-06-08T13:20:32Z</time>
      </trkpt>
      <trkpt lat="48.23759" lon="-4.01855">
        <ele>138.1</ele>
        <time>2020-06-08T13:20:33Z</time>
      </trkpt>
      <trkpt lat="48.23763" lon="-4.01858">
        <ele>138.1</ele>
        <time>2020-06-08T13:20:34Z</time>
      </trkpt>
      <trkpt lat="48.23766" lon="-4.0186">
        <ele>138.1</ele>
        <time>2020-06-08T13:20:35Z</time>
      </trkpt>
      <trkpt lat="48.23769" lon="-4.01863">
        <ele>138.1</ele>
        <time>2020-06-08T13:20:36Z</time>
      </trkpt>
      <trkpt lat="48.23773" lon="-4.01867">
        <ele>138.1</ele>
        <time>2020-06-08T13:20:37Z</time>
      </trkpt>
      <trkpt lat="48.23776" lon="-4.01871">
        <ele>138.1</ele>
        <time>2020-06-08T13:20:38Z</time>
      </trkpt>
      <trkpt lat="48.23779" lon="-4.01873">
        <ele>138.1</ele>
        <time>2020-06-08T13:20:39Z</time>
      </trkpt>
      <trkpt lat="48.23782" lon="-4.01876">
        <ele>138.1</ele>
        <time>2020-06-08T13:20:40Z</time>
      </trkpt>
      <trkpt lat="48.23786" lon="-4.01879">
        <ele>138</ele>
        <time>2020-06-08T13:20:41Z</time>
      </trkpt>
      <trkpt lat="48.23791" lon="-4.01882">
        <ele>138</ele>
        <time>2020-06-08T13:20:42Z</time>
      </trkpt>
      <trkpt lat="48.23795" lon="-4.01886">
        <ele>138</ele>
        <time>2020-06-08T13:20:43Z</time>
      </trkpt>
      <trkpt lat="48.23798" lon="-4.01889">
        <ele>138</ele>
        <time>2020-06-08T13:20:44Z</time>
      </trkpt>
      <trkpt lat="48.23801" lon="-4.01893">
        <ele>137.9</ele>
        <time>2020-06-08T13:20:45Z</time>
      </trkpt>
      <trkpt lat="48.23804" lon="-4.01896">
        <ele>137.9</ele>
        <time>2020-06-08T13:20:46Z</time>
      </trkpt>
      <trkpt lat="48.23808" lon="-4.01899">
        <ele>137.9</ele>
        <time>2020-06-08T13:20:47Z</time>
      </trkpt>
      <trkpt lat="48.2381" lon="-4.01901">
        <ele>137.8</ele>
        <time>2020-06-08T13:20:48Z</time>
      </trkpt>
      <trkpt lat="48.23813" lon="-4.01904">
        <ele>137.8</ele>
        <time>2020-06-08T13:20:49Z</time>
      </trkpt>
      <trkpt lat="48.23816" lon="-4.01907">
        <ele>137.8</ele>
        <time>2020-06-08T13:20:50Z</time>
      </trkpt>
      <trkpt lat="48.23818" lon="-4.0191">
        <ele>137.8</ele>
        <time>2020-06-08T13:20:51Z</time>
      </trkpt>
      <trkpt lat="48.23821" lon="-4.01914">
        <ele>137.7</ele>
        <time>2020-06-08T13:20:52Z</time>
      </trkpt>
      <trkpt lat="48.23824" lon="-4.01919">
        <ele>137.7</ele>
        <time>2020-06-08T13:20:53Z</time>
      </trkpt>
      <trkpt lat="48.23828" lon="-4.01923">
        <ele>137.7</ele>
        <time>2020-06-08T13:20:54Z</time>
      </trkpt>
      <trkpt lat="48.2383" lon="-4.01926">
        <ele>137.6</ele>
        <time>2020-06-08T13:20:55Z</time>
      </trkpt>
      <trkpt lat="48.23833" lon="-4.0193">
        <ele>137.6</ele>
        <time>2020-06-08T13:20:56Z</time>
      </trkpt>
      <trkpt lat="48.23836" lon="-4.01932">
        <ele>137.6</ele>
        <time>2020-06-08T13:20:57Z</time>
      </trkpt>
      <trkpt lat="48.23839" lon="-4.01935">
        <ele>137.6</ele>
        <time>2020-06-08T13:20:58Z</time>
      </trkpt>
      <trkpt lat="48.23843" lon="-4.01938">
        <ele>137.6</ele>
        <time>2020-06-08T13:20:59Z</time>
      </trkpt>
      <trkpt lat="48.23846" lon="-4.01941">
        <ele>137.6</ele>
        <time>2020-06-08T13:21:00Z</time>
      </trkpt>
      <trkpt lat="48.2385" lon="-4.01943">
        <ele>137.6</ele>
        <time>2020-06-08T13:21:01Z</time>
      </trkpt>
      <trkpt lat="48.23854" lon="-4.01947">
        <ele>137.6</ele>
        <time>2020-06-08T13:21:02Z</time>
      </trkpt>
      <trkpt lat="48.23857" lon="-4.01949">
        <ele>137.6</ele>
        <time>2020-06-08T13:21:03Z</time>
      </trkpt>
      <trkpt lat="48.2386" lon="-4.01952">
        <ele>137.6</ele>
        <time>2020-06-08T13:21:04Z</time>
      </trkpt>
      <trkpt lat="48.23863" lon="-4.01955">
        <ele>137.6</ele>
        <time>2020-06-08T13:21:05Z</time>
      </trkpt>
      <trkpt lat="48.23866" lon="-4.0196">
        <ele>137.6</ele>
        <time>2020-06-08T13:21:06Z</time>
      </trkpt>
      <trkpt lat="48.2387" lon="-4.01963">
        <ele>137.6</ele>
        <time>2020-06-08T13:21:07Z</time>
      </trkpt>
      <trkpt lat="48.23873" lon="-4.01967">
        <ele>137.6</ele>
        <time>2020-06-08T13:21:08Z</time>
      </trkpt>
      <trkpt lat="48.23878" lon="-4.0197">
        <ele>137.6</ele>
        <time>2020-06-08T13:21:09Z</time>
      </trkpt>
      <trkpt lat="48.2388" lon="-4.01972">
        <ele>137.5</ele>
        <time>2020-06-08T13:21:10Z</time>
      </trkpt>
      <trkpt lat="48.23884" lon="-4.01975">
        <ele>137.5</ele>
        <time>2020-06-08T13:21:11Z</time>
      </trkpt>
      <trkpt lat="48.23887" lon="-4.01979">
        <ele>137.5</ele>
        <time>2020-06-08T13:21:12Z</time>
      </trkpt>
      <trkpt lat="48.23889" lon="-4.01981">
        <ele>137.5</ele>
        <time>2020-06-08T13:21:13Z</time>
      </trkpt>
      <trkpt lat="48.23892" lon="-4.01984">
        <ele>137.4</ele>
        <time>2020-06-08T13:21:14Z</time>
      </trkpt>
      <trkpt lat="48.23896" lon="-4.01987">
        <ele>137.4</ele>
        <time>2020-06-08T13:21:15Z</time>
      </trkpt>
      <trkpt lat="48.23899" lon="-4.01989">
        <ele>137.4</ele>
        <time>2020-06-08T13:21:16Z</time>
      </trkpt>
      <trkpt lat="48.23903" lon="-4.01992">
        <ele>137.4</ele>
        <time>2020-06-08T13:21:17Z</time>
      </trkpt>
      <trkpt lat="48.23907" lon="-4.01995">
        <ele>137.4</ele>
        <time>2020-06-08T13:21:18Z</time>
      </trkpt>
      <trkpt lat="48.23911" lon="-4.01999">
        <ele>137.4</ele>
        <time>2020-06-08T13:21:19Z</time>
      </trkpt>
      <trkpt lat="48.23915" lon="-4.02002">
        <ele>137.4</ele>
        <time>2020-06-08T13:21:20Z</time>
      </trkpt>
      <trkpt lat="48.23919" lon="-4.02006">
        <ele>137.4</ele>
        <time>2020-06-08T13:21:21Z</time>
      </trkpt>
      <trkpt lat="48.23923" lon="-4.0201">
        <ele>137.4</ele>
        <time>2020-06-08T13:21:22Z</time>
      </trkpt>
      <trkpt lat="48.23926" lon="-4.02014">
        <ele>137.4</ele>
        <time>2020-06-08T13:21:23Z</time>
      </trkpt>
      <trkpt lat="48.2393" lon="-4.02017">
        <ele>137.4</ele>
        <time>2020-06-08T13:21:24Z</time>
      </trkpt>
      <trkpt lat="48.23933" lon="-4.0202">
        <ele>137.4</ele>
        <time>2020-06-08T13:21:25Z</time>
      </trkpt>
      <trkpt lat="48.23936" lon="-4.02024">
        <ele>137.4</ele>
        <time>2020-06-08T13:21:26Z</time>
      </trkpt>
      <trkpt lat="48.2394" lon="-4.02028">
        <ele>137.3</ele>
        <time>2020-06-08T13:21:27Z</time>
      </trkpt>
      <trkpt lat="48.23943" lon="-4.02031">
        <ele>137.3</ele>
        <time>2020-06-08T13:21:28Z</time>
      </trkpt>
      <trkpt lat="48.23947" lon="-4.02034">
        <ele>137.3</ele>
        <time>2020-06-08T13:21:29Z</time>
      </trkpt>
      <trkpt lat="48.2395" lon="-4.02038">
        <ele>137.3</ele>
        <time>2020-06-08T13:21:30Z</time>
      </trkpt>
      <trkpt lat="48.23953" lon="-4.02041">
        <ele>137.2</ele>
        <time>2020-06-08T13:21:31Z</time>
      </trkpt>
      <trkpt lat="48.23955" lon="-4.02045">
        <ele>137.2</ele>
        <time>2020-06-08T13:21:32Z</time>
      </trkpt>
      <trkpt lat="48.23957" lon="-4.02048">
        <ele>137.2</ele>
        <time>2020-06-08T13:21:33Z</time>
      </trkpt>
      <trkpt lat="48.23959" lon="-4.02054">
        <ele>137.1</ele>
        <time>2020-06-08T13:21:34Z</time>
      </trkpt>
      <trkpt lat="48.23959" lon="-4.0206">
        <ele>137</ele>
        <time>2020-06-08T13:21:35Z</time>
      </trkpt>
      <trkpt lat="48.23959" lon="-4.02067">
        <ele>136.7</ele>
        <time>2020-06-08T13:21:36Z</time>
      </trkpt>
      <trkpt lat="48.23958" lon="-4.02074">
        <ele>136.5</ele>
        <time>2020-06-08T13:21:37Z</time>
      </trkpt>
      <trkpt lat="48.23956" lon="-4.0208">
        <ele>136.4</ele>
        <time>2020-06-08T13:21:38Z</time>
      </trkpt>
      <trkpt lat="48.23954" lon="-4.02086">
        <ele>136.2</ele>
        <time>2020-06-08T13:21:39Z</time>
      </trkpt>
      <trkpt lat="48.2395" lon="-4.02091">
        <ele>136</ele>
        <time>2020-06-08T13:21:40Z</time>
      </trkpt>
      <trkpt lat="48.23948" lon="-4.02098">
        <ele>135.8</ele>
        <time>2020-06-08T13:21:41Z</time>
      </trkpt>
      <trkpt lat="48.23945" lon="-4.02103">
        <ele>135.7</ele>
        <time>2020-06-08T13:21:42Z</time>
      </trkpt>
      <trkpt lat="48.23943" lon="-4.02108">
        <ele>135.6</ele>
        <time>2020-06-08T13:21:43Z</time>
      </trkpt>
      <trkpt lat="48.2394" lon="-4.02114">
        <ele>135.5</ele>
        <time>2020-06-08T13:21:44Z</time>
      </trkpt>
      <trkpt lat="48.23937" lon="-4.02119">
        <ele>135.4</ele>
        <time>2020-06-08T13:21:45Z</time>
      </trkpt>
      <trkpt lat="48.23934" lon="-4.02125">
        <ele>135.3</ele>
        <time>2020-06-08T13:21:46Z</time>
      </trkpt>
      <trkpt lat="48.23933" lon="-4.0213">
        <ele>135.3</ele>
        <time>2020-06-08T13:21:47Z</time>
      </trkpt>
      <trkpt lat="48.23931" lon="-4.02134">
        <ele>135.2</ele>
        <time>2020-06-08T13:21:48Z</time>
      </trkpt>
      <trkpt lat="48.23931" lon="-4.02137">
        <ele>135.2</ele>
        <time>2020-06-08T13:21:49Z</time>
      </trkpt>
      <trkpt lat="48.23931" lon="-4.02138">
        <ele>135.2</ele>
        <time>2020-06-08T13:21:50Z</time>
      </trkpt>
      <trkpt lat="48.23931" lon="-4.02141">
        <ele>135.2</ele>
        <time>2020-06-08T13:21:51Z</time>
      </trkpt>
      <trkpt lat="48.2393" lon="-4.02143">
        <ele>135.1</ele>
        <time>2020-06-08T13:21:52Z</time>
      </trkpt>
      <trkpt lat="48.2393" lon="-4.02144">
        <ele>135.1</ele>
        <time>2020-06-08T13:21:53Z</time>
      </trkpt>
      <trkpt lat="48.23928" lon="-4.02148">
        <ele>135.1</ele>
        <time>2020-06-08T13:21:54Z</time>
      </trkpt>
      <trkpt lat="48.23927" lon="-4.02149">
        <ele>135.1</ele>
        <time>2020-06-08T13:21:55Z</time>
      </trkpt>
      <trkpt lat="48.23926" lon="-4.02153">
        <ele>135.1</ele>
        <time>2020-06-08T13:21:56Z</time>
      </trkpt>
      <trkpt lat="48.23925" lon="-4.02155">
        <ele>135</ele>
        <time>2020-06-08T13:21:57Z</time>
      </trkpt>
      <trkpt lat="48.23923" lon="-4.02159">
        <ele>135</ele>
        <time>2020-06-08T13:21:58Z</time>
      </trkpt>
      <trkpt lat="48.23922" lon="-4.02164">
        <ele>135</ele>
        <time>2020-06-08T13:21:59Z</time>
      </trkpt>
      <trkpt lat="48.23922" lon="-4.02169">
        <ele>135</ele>
        <time>2020-06-08T13:22:00Z</time>
      </trkpt>
      <trkpt lat="48.23921" lon="-4.02174">
        <ele>134.9</ele>
        <time>2020-06-08T13:22:01Z</time>
      </trkpt>
      <trkpt lat="48.23919" lon="-4.0218">
        <ele>134.9</ele>
        <time>2020-06-08T13:22:02Z</time>
      </trkpt>
      <trkpt lat="48.23917" lon="-4.02185">
        <ele>134.9</ele>
        <time>2020-06-08T13:22:03Z</time>
      </trkpt>
      <trkpt lat="48.23915" lon="-4.02191">
        <ele>134.8</ele>
        <time>2020-06-08T13:22:04Z</time>
      </trkpt>
      <trkpt lat="48.23914" lon="-4.02197">
        <ele>134.8</ele>
        <time>2020-06-08T13:22:05Z</time>
      </trkpt>
      <trkpt lat="48.23912" lon="-4.02203">
        <ele>134.8</ele>
        <time>2020-06-08T13:22:06Z</time>
      </trkpt>
      <trkpt lat="48.2391" lon="-4.0221">
        <ele>134.8</ele>
        <time>2020-06-08T13:22:07Z</time>
      </trkpt>
      <trkpt lat="48.23908" lon="-4.02216">
        <ele>134.8</ele>
        <time>2020-06-08T13:22:08Z</time>
      </trkpt>
      <trkpt lat="48.23906" lon="-4.02223">
        <ele>134.9</ele>
        <time>2020-06-08T13:22:09Z</time>
      </trkpt>
      <trkpt lat="48.23904" lon="-4.02229">
        <ele>134.9</ele>
        <time>2020-06-08T13:22:10Z</time>
      </trkpt>
      <trkpt lat="48.23903" lon="-4.02235">
        <ele>135</ele>
        <time>2020-06-08T13:22:11Z</time>
      </trkpt>
      <trkpt lat="48.23902" lon="-4.02242">
        <ele>135</ele>
        <time>2020-06-08T13:22:12Z</time>
      </trkpt>
      <trkpt lat="48.23901" lon="-4.02248">
        <ele>135.1</ele>
        <time>2020-06-08T13:22:13Z</time>
      </trkpt>
      <trkpt lat="48.23899" lon="-4.02255">
        <ele>135.2</ele>
        <time>2020-06-08T13:22:14Z</time>
      </trkpt>
      <trkpt lat="48.23897" lon="-4.02261">
        <ele>135.2</ele>
        <time>2020-06-08T13:22:15Z</time>
      </trkpt>
      <trkpt lat="48.23897" lon="-4.02268">
        <ele>135.3</ele>
        <time>2020-06-08T13:22:16Z</time>
      </trkpt>
      <trkpt lat="48.23895" lon="-4.02274">
        <ele>135.4</ele>
        <time>2020-06-08T13:22:17Z</time>
      </trkpt>
      <trkpt lat="48.23893" lon="-4.0228">
        <ele>135.5</ele>
        <time>2020-06-08T13:22:18Z</time>
      </trkpt>
      <trkpt lat="48.23892" lon="-4.02286">
        <ele>135.6</ele>
        <time>2020-06-08T13:22:19Z</time>
      </trkpt>
      <trkpt lat="48.23891" lon="-4.02293">
        <ele>135.6</ele>
        <time>2020-06-08T13:22:20Z</time>
      </trkpt>
      <trkpt lat="48.23891" lon="-4.02299">
        <ele>135.7</ele>
        <time>2020-06-08T13:22:21Z</time>
      </trkpt>
      <trkpt lat="48.2389" lon="-4.02306">
        <ele>135.8</ele>
        <time>2020-06-08T13:22:22Z</time>
      </trkpt>
      <trkpt lat="48.23889" lon="-4.02313">
        <ele>135.9</ele>
        <time>2020-06-08T13:22:23Z</time>
      </trkpt>
      <trkpt lat="48.23888" lon="-4.02319">
        <ele>136</ele>
        <time>2020-06-08T13:22:24Z</time>
      </trkpt>
      <trkpt lat="48.23886" lon="-4.02326">
        <ele>136.1</ele>
        <time>2020-06-08T13:22:25Z</time>
      </trkpt>
      <trkpt lat="48.23884" lon="-4.02333">
        <ele>136.2</ele>
        <time>2020-06-08T13:22:26Z</time>
      </trkpt>
      <trkpt lat="48.23883" lon="-4.02339">
        <ele>136.4</ele>
        <time>2020-06-08T13:22:27Z</time>
      </trkpt>
      <trkpt lat="48.23883" lon="-4.02345">
        <ele>136.5</ele>
        <time>2020-06-08T13:22:28Z</time>
      </trkpt>
      <trkpt lat="48.23881" lon="-4.02351">
        <ele>136.6</ele>
        <time>2020-06-08T13:22:29Z</time>
      </trkpt>
      <trkpt lat="48.23881" lon="-4.02358">
        <ele>136.7</ele>
        <time>2020-06-08T13:22:30Z</time>
      </trkpt>
      <trkpt lat="48.2388" lon="-4.02364">
        <ele>136.9</ele>
        <time>2020-06-08T13:22:31Z</time>
      </trkpt>
      <trkpt lat="48.23879" lon="-4.02371">
        <ele>137</ele>
        <time>2020-06-08T13:22:32Z</time>
      </trkpt>
      <trkpt lat="48.23878" lon="-4.02377">
        <ele>137.2</ele>
        <time>2020-06-08T13:22:33Z</time>
      </trkpt>
      <trkpt lat="48.23876" lon="-4.02385">
        <ele>137.4</ele>
        <time>2020-06-08T13:22:34Z</time>
      </trkpt>
      <trkpt lat="48.23874" lon="-4.02393">
        <ele>137.6</ele>
        <time>2020-06-08T13:22:35Z</time>
      </trkpt>
      <trkpt lat="48.23872" lon="-4.02399">
        <ele>137.8</ele>
        <time>2020-06-08T13:22:36Z</time>
      </trkpt>
      <trkpt lat="48.2387" lon="-4.02407">
        <ele>138</ele>
        <time>2020-06-08T13:22:37Z</time>
      </trkpt>
      <trkpt lat="48.23869" lon="-4.02413">
        <ele>138.2</ele>
        <time>2020-06-08T13:22:38Z</time>
      </trkpt>
      <trkpt lat="48.23868" lon="-4.02419">
        <ele>138.4</ele>
        <time>2020-06-08T13:22:39Z</time>
      </trkpt>
      <trkpt lat="48.23866" lon="-4.02427">
        <ele>138.7</ele>
        <time>2020-06-08T13:22:40Z</time>
      </trkpt>
      <trkpt lat="48.23865" lon="-4.02432">
        <ele>138.9</ele>
        <time>2020-06-08T13:22:41Z</time>
      </trkpt>
      <trkpt lat="48.23863" lon="-4.02437">
        <ele>139.1</ele>
        <time>2020-06-08T13:22:42Z</time>
      </trkpt>
      <trkpt lat="48.23861" lon="-4.02442">
        <ele>139.3</ele>
        <time>2020-06-08T13:22:43Z</time>
      </trkpt>
      <trkpt lat="48.23859" lon="-4.0245">
        <ele>139.6</ele>
        <time>2020-06-08T13:22:44Z</time>
      </trkpt>
      <trkpt lat="48.23857" lon="-4.02455">
        <ele>139.9</ele>
        <time>2020-06-08T13:22:45Z</time>
      </trkpt>
      <trkpt lat="48.23855" lon="-4.02461">
        <ele>140.2</ele>
        <time>2020-06-08T13:22:46Z</time>
      </trkpt>
      <trkpt lat="48.23854" lon="-4.02466">
        <ele>140.4</ele>
        <time>2020-06-08T13:22:47Z</time>
      </trkpt>
      <trkpt lat="48.23853" lon="-4.02471">
        <ele>140.6</ele>
        <time>2020-06-08T13:22:48Z</time>
      </trkpt>
      <trkpt lat="48.23851" lon="-4.02478">
        <ele>140.9</ele>
        <time>2020-06-08T13:22:49Z</time>
      </trkpt>
      <trkpt lat="48.23849" lon="-4.02482">
        <ele>141.1</ele>
        <time>2020-06-08T13:22:50Z</time>
      </trkpt>
      <trkpt lat="48.23847" lon="-4.02486">
        <ele>141.3</ele>
        <time>2020-06-08T13:22:51Z</time>
      </trkpt>
      <trkpt lat="48.23846" lon="-4.02491">
        <ele>141.5</ele>
        <time>2020-06-08T13:22:52Z</time>
      </trkpt>
      <trkpt lat="48.23845" lon="-4.02495">
        <ele>141.7</ele>
        <time>2020-06-08T13:22:53Z</time>
      </trkpt>
      <trkpt lat="48.23844" lon="-4.025">
        <ele>141.8</ele>
        <time>2020-06-08T13:22:54Z</time>
      </trkpt>
      <trkpt lat="48.23843" lon="-4.02504">
        <ele>142</ele>
        <time>2020-06-08T13:22:55Z</time>
      </trkpt>
      <trkpt lat="48.2384" lon="-4.02509">
        <ele>142.1</ele>
        <time>2020-06-08T13:22:56Z</time>
      </trkpt>
      <trkpt lat="48.23839" lon="-4.02514">
        <ele>142.3</ele>
        <time>2020-06-08T13:22:57Z</time>
      </trkpt>
      <trkpt lat="48.23839" lon="-4.02516">
        <ele>142.3</ele>
        <time>2020-06-08T13:22:58Z</time>
      </trkpt>
      <trkpt lat="48.23837" lon="-4.02521">
        <ele>142.5</ele>
        <time>2020-06-08T13:22:59Z</time>
      </trkpt>
      <trkpt lat="48.23836" lon="-4.02526">
        <ele>142.6</ele>
        <time>2020-06-08T13:23:00Z</time>
      </trkpt>
      <trkpt lat="48.23835" lon="-4.02529">
        <ele>142.7</ele>
        <time>2020-06-08T13:23:01Z</time>
      </trkpt>
      <trkpt lat="48.23835" lon="-4.02533">
        <ele>142.7</ele>
        <time>2020-06-08T13:23:02Z</time>
      </trkpt>
      <trkpt lat="48.23834" lon="-4.02538">
        <ele>142.8</ele>
        <time>2020-06-08T13:23:03Z</time>
      </trkpt>
      <trkpt lat="48.23832" lon="-4.02545">
        <ele>142.9</ele>
        <time>2020-06-08T13:23:04Z</time>
      </trkpt>
      <trkpt lat="48.23831" lon="-4.02549">
        <ele>142.9</ele>
        <time>2020-06-08T13:23:05Z</time>
      </trkpt>
      <trkpt lat="48.23829" lon="-4.02553">
        <ele>142.9</ele>
        <time>2020-06-08T13:23:06Z</time>
      </trkpt>
      <trkpt lat="48.23827" lon="-4.02558">
        <ele>142.9</ele>
        <time>2020-06-08T13:23:07Z</time>
      </trkpt>
      <trkpt lat="48.23826" lon="-4.02562">
        <ele>142.8</ele>
        <time>2020-06-08T13:23:08Z</time>
      </trkpt>
      <trkpt lat="48.23824" lon="-4.02567">
        <ele>142.8</ele>
        <time>2020-06-08T13:23:09Z</time>
      </trkpt>
      <trkpt lat="48.23823" lon="-4.02572">
        <ele>142.7</ele>
        <time>2020-06-08T13:23:10Z</time>
      </trkpt>
      <trkpt lat="48.23822" lon="-4.02577">
        <ele>142.7</ele>
        <time>2020-06-08T13:23:11Z</time>
      </trkpt>
      <trkpt lat="48.23821" lon="-4.02582">
        <ele>142.6</ele>
        <time>2020-06-08T13:23:12Z</time>
      </trkpt>
      <trkpt lat="48.23819" lon="-4.02589">
        <ele>142.5</ele>
        <time>2020-06-08T13:23:13Z</time>
      </trkpt>
      <trkpt lat="48.23817" lon="-4.02596">
        <ele>142.3</ele>
        <time>2020-06-08T13:23:14Z</time>
      </trkpt>
      <trkpt lat="48.23815" lon="-4.02604">
        <ele>142.2</ele>
        <time>2020-06-08T13:23:15Z</time>
      </trkpt>
      <trkpt lat="48.23812" lon="-4.0261">
        <ele>142.1</ele>
        <time>2020-06-08T13:23:16Z</time>
      </trkpt>
      <trkpt lat="48.23809" lon="-4.02617">
        <ele>141.9</ele>
        <time>2020-06-08T13:23:17Z</time>
      </trkpt>
      <trkpt lat="48.23805" lon="-4.02626">
        <ele>141.8</ele>
        <time>2020-06-08T13:23:18Z</time>
      </trkpt>
      <trkpt lat="48.23803" lon="-4.02632">
        <ele>141.7</ele>
        <time>2020-06-08T13:23:19Z</time>
      </trkpt>
      <trkpt lat="48.238" lon="-4.0264">
        <ele>141.6</ele>
        <time>2020-06-08T13:23:20Z</time>
      </trkpt>
      <trkpt lat="48.23797" lon="-4.02648">
        <ele>141.5</ele>
        <time>2020-06-08T13:23:21Z</time>
      </trkpt>
      <trkpt lat="48.23794" lon="-4.02656">
        <ele>141.4</ele>
        <time>2020-06-08T13:23:22Z</time>
      </trkpt>
      <trkpt lat="48.23791" lon="-4.02665">
        <ele>141.4</ele>
        <time>2020-06-08T13:23:23Z</time>
      </trkpt>
      <trkpt lat="48.23788" lon="-4.02674">
        <ele>141.4</ele>
        <time>2020-06-08T13:23:24Z</time>
      </trkpt>
      <trkpt lat="48.23786" lon="-4.02681">
        <ele>141.4</ele>
        <time>2020-06-08T13:23:25Z</time>
      </trkpt>
      <trkpt lat="48.23783" lon="-4.0269">
        <ele>141.4</ele>
        <time>2020-06-08T13:23:26Z</time>
      </trkpt>
      <trkpt lat="48.23781" lon="-4.02697">
        <ele>141.2</ele>
        <time>2020-06-08T13:23:27Z</time>
      </trkpt>
      <trkpt lat="48.23779" lon="-4.02705">
        <ele>141.1</ele>
        <time>2020-06-08T13:23:28Z</time>
      </trkpt>
      <trkpt lat="48.23777" lon="-4.02712">
        <ele>141</ele>
        <time>2020-06-08T13:23:29Z</time>
      </trkpt>
      <trkpt lat="48.23775" lon="-4.02718">
        <ele>140.9</ele>
        <time>2020-06-08T13:23:30Z</time>
      </trkpt>
      <trkpt lat="48.23771" lon="-4.02726">
        <ele>140.8</ele>
        <time>2020-06-08T13:23:31Z</time>
      </trkpt>
      <trkpt lat="48.23768" lon="-4.02734">
        <ele>140.8</ele>
        <time>2020-06-08T13:23:32Z</time>
      </trkpt>
      <trkpt lat="48.23765" lon="-4.02741">
        <ele>140.8</ele>
        <time>2020-06-08T13:23:33Z</time>
      </trkpt>
      <trkpt lat="48.23762" lon="-4.02748">
        <ele>140.8</ele>
        <time>2020-06-08T13:23:34Z</time>
      </trkpt>
      <trkpt lat="48.23758" lon="-4.02756">
        <ele>140.8</ele>
        <time>2020-06-08T13:23:35Z</time>
      </trkpt>
      <trkpt lat="48.23755" lon="-4.02764">
        <ele>140.8</ele>
        <time>2020-06-08T13:23:36Z</time>
      </trkpt>
      <trkpt lat="48.23752" lon="-4.02772">
        <ele>140.9</ele>
        <time>2020-06-08T13:23:37Z</time>
      </trkpt>
      <trkpt lat="48.23751" lon="-4.0278">
        <ele>140.9</ele>
        <time>2020-06-08T13:23:38Z</time>
      </trkpt>
      <trkpt lat="48.23748" lon="-4.02787">
        <ele>140.9</ele>
        <time>2020-06-08T13:23:39Z</time>
      </trkpt>
      <trkpt lat="48.23745" lon="-4.02796">
        <ele>141</ele>
        <time>2020-06-08T13:23:40Z</time>
      </trkpt>
      <trkpt lat="48.23743" lon="-4.02803">
        <ele>141.1</ele>
        <time>2020-06-08T13:23:41Z</time>
      </trkpt>
      <trkpt lat="48.23742" lon="-4.02813">
        <ele>141.2</ele>
        <time>2020-06-08T13:23:42Z</time>
      </trkpt>
      <trkpt lat="48.2374" lon="-4.02818">
        <ele>141.3</ele>
        <time>2020-06-08T13:23:43Z</time>
      </trkpt>
      <trkpt lat="48.23737" lon="-4.02823">
        <ele>141.4</ele>
        <time>2020-06-08T13:23:44Z</time>
      </trkpt>
      <trkpt lat="48.23735" lon="-4.02829">
        <ele>141.4</ele>
        <time>2020-06-08T13:23:45Z</time>
      </trkpt>
      <trkpt lat="48.23733" lon="-4.02835">
        <ele>141.4</ele>
        <time>2020-06-08T13:23:46Z</time>
      </trkpt>
      <trkpt lat="48.2373" lon="-4.02841">
        <ele>141.4</ele>
        <time>2020-06-08T13:23:47Z</time>
      </trkpt>
      <trkpt lat="48.23728" lon="-4.02847">
        <ele>141.4</ele>
        <time>2020-06-08T13:23:48Z</time>
      </trkpt>
      <trkpt lat="48.23726" lon="-4.02852">
        <ele>141.4</ele>
        <time>2020-06-08T13:23:49Z</time>
      </trkpt>
      <trkpt lat="48.23724" lon="-4.02858">
        <ele>141.4</ele>
        <time>2020-06-08T13:23:50Z</time>
      </trkpt>
      <trkpt lat="48.23722" lon="-4.02866">
        <ele>141.4</ele>
        <time>2020-06-08T13:23:51Z</time>
      </trkpt>
      <trkpt lat="48.2372" lon="-4.02872">
        <ele>141.4</ele>
        <time>2020-06-08T13:23:52Z</time>
      </trkpt>
      <trkpt lat="48.23717" lon="-4.02879">
        <ele>141.3</ele>
        <time>2020-06-08T13:23:53Z</time>
      </trkpt>
      <trkpt lat="48.23714" lon="-4.02886">
        <ele>141.3</ele>
        <time>2020-06-08T13:23:54Z</time>
      </trkpt>
      <trkpt lat="48.23712" lon="-4.02893">
        <ele>141.2</ele>
        <time>2020-06-08T13:23:55Z</time>
      </trkpt>
      <trkpt lat="48.23708" lon="-4.029">
        <ele>141.1</ele>
        <time>2020-06-08T13:23:56Z</time>
      </trkpt>
      <trkpt lat="48.23707" lon="-4.02907">
        <ele>141.1</ele>
        <time>2020-06-08T13:23:57Z</time>
      </trkpt>
      <trkpt lat="48.23704" lon="-4.02914">
        <ele>141</ele>
        <time>2020-06-08T13:23:58Z</time>
      </trkpt>
      <trkpt lat="48.23702" lon="-4.02922">
        <ele>140.9</ele>
        <time>2020-06-08T13:23:59Z</time>
      </trkpt>
      <trkpt lat="48.237" lon="-4.02928">
        <ele>140.8</ele>
        <time>2020-06-08T13:24:00Z</time>
      </trkpt>
      <trkpt lat="48.23698" lon="-4.02935">
        <ele>140.7</ele>
        <time>2020-06-08T13:24:01Z</time>
      </trkpt>
      <trkpt lat="48.23696" lon="-4.02942">
        <ele>140.6</ele>
        <time>2020-06-08T13:24:02Z</time>
      </trkpt>
      <trkpt lat="48.23693" lon="-4.0295">
        <ele>140.5</ele>
        <time>2020-06-08T13:24:03Z</time>
      </trkpt>
      <trkpt lat="48.23689" lon="-4.02959">
        <ele>140.3</ele>
        <time>2020-06-08T13:24:04Z</time>
      </trkpt>
      <trkpt lat="48.23686" lon="-4.02967">
        <ele>140.1</ele>
        <time>2020-06-08T13:24:05Z</time>
      </trkpt>
      <trkpt lat="48.23683" lon="-4.02973">
        <ele>139.9</ele>
        <time>2020-06-08T13:24:06Z</time>
      </trkpt>
      <trkpt lat="48.2368" lon="-4.02982">
        <ele>139.7</ele>
        <time>2020-06-08T13:24:07Z</time>
      </trkpt>
      <trkpt lat="48.23675" lon="-4.02991">
        <ele>139.3</ele>
        <time>2020-06-08T13:24:08Z</time>
      </trkpt>
      <trkpt lat="48.23671" lon="-4.02999">
        <ele>139</ele>
        <time>2020-06-08T13:24:09Z</time>
      </trkpt>
      <trkpt lat="48.23666" lon="-4.03008">
        <ele>138.6</ele>
        <time>2020-06-08T13:24:10Z</time>
      </trkpt>
      <trkpt lat="48.23662" lon="-4.03018">
        <ele>138.3</ele>
        <time>2020-06-08T13:24:11Z</time>
      </trkpt>
      <trkpt lat="48.23658" lon="-4.03028">
        <ele>137.9</ele>
        <time>2020-06-08T13:24:12Z</time>
      </trkpt>
      <trkpt lat="48.23653" lon="-4.03039">
        <ele>137.5</ele>
        <time>2020-06-08T13:24:13Z</time>
      </trkpt>
      <trkpt lat="48.23649" lon="-4.0305">
        <ele>137.2</ele>
        <time>2020-06-08T13:24:14Z</time>
      </trkpt>
      <trkpt lat="48.23644" lon="-4.0306">
        <ele>136.9</ele>
        <time>2020-06-08T13:24:15Z</time>
      </trkpt>
      <trkpt lat="48.23639" lon="-4.0307">
        <ele>136.7</ele>
        <time>2020-06-08T13:24:16Z</time>
      </trkpt>
      <trkpt lat="48.23635" lon="-4.03081">
        <ele>136.5</ele>
        <time>2020-06-08T13:24:17Z</time>
      </trkpt>
      <trkpt lat="48.2363" lon="-4.03091">
        <ele>136.3</ele>
        <time>2020-06-08T13:24:18Z</time>
      </trkpt>
      <trkpt lat="48.23626" lon="-4.03101">
        <ele>136.1</ele>
        <time>2020-06-08T13:24:19Z</time>
      </trkpt>
      <trkpt lat="48.23622" lon="-4.03111">
        <ele>136</ele>
        <time>2020-06-08T13:24:20Z</time>
      </trkpt>
      <trkpt lat="48.23617" lon="-4.03121">
        <ele>135.8</ele>
        <time>2020-06-08T13:24:21Z</time>
      </trkpt>
      <trkpt lat="48.23614" lon="-4.03131">
        <ele>135.7</ele>
        <time>2020-06-08T13:24:22Z</time>
      </trkpt>
      <trkpt lat="48.23611" lon="-4.03141">
        <ele>135.6</ele>
        <time>2020-06-08T13:24:23Z</time>
      </trkpt>
      <trkpt lat="48.23607" lon="-4.03151">
        <ele>135.5</ele>
        <time>2020-06-08T13:24:24Z</time>
      </trkpt>
      <trkpt lat="48.23604" lon="-4.03161">
        <ele>135.4</ele>
        <time>2020-06-08T13:24:25Z</time>
      </trkpt>
      <trkpt lat="48.23601" lon="-4.03171">
        <ele>135.3</ele>
        <time>2020-06-08T13:24:26Z</time>
      </trkpt>
      <trkpt lat="48.23597" lon="-4.0318">
        <ele>135.3</ele>
        <time>2020-06-08T13:24:27Z</time>
      </trkpt>
      <trkpt lat="48.23593" lon="-4.0319">
        <ele>135.2</ele>
        <time>2020-06-08T13:24:28Z</time>
      </trkpt>
      <trkpt lat="48.23589" lon="-4.03199">
        <ele>135.2</ele>
        <time>2020-06-08T13:24:29Z</time>
      </trkpt>
      <trkpt lat="48.23585" lon="-4.03208">
        <ele>135.1</ele>
        <time>2020-06-08T13:24:30Z</time>
      </trkpt>
      <trkpt lat="48.23581" lon="-4.03216">
        <ele>135</ele>
        <time>2020-06-08T13:24:31Z</time>
      </trkpt>
      <trkpt lat="48.23577" lon="-4.03225">
        <ele>135</ele>
        <time>2020-06-08T13:24:32Z</time>
      </trkpt>
      <trkpt lat="48.23573" lon="-4.03234">
        <ele>135</ele>
        <time>2020-06-08T13:24:33Z</time>
      </trkpt>
      <trkpt lat="48.23569" lon="-4.03243">
        <ele>135</ele>
        <time>2020-06-08T13:24:34Z</time>
      </trkpt>
      <trkpt lat="48.23565" lon="-4.03252">
        <ele>135.1</ele>
        <time>2020-06-08T13:24:35Z</time>
      </trkpt>
      <trkpt lat="48.23562" lon="-4.03261">
        <ele>135.2</ele>
        <time>2020-06-08T13:24:36Z</time>
      </trkpt>
      <trkpt lat="48.23558" lon="-4.0327">
        <ele>135.1</ele>
        <time>2020-06-08T13:24:37Z</time>
      </trkpt>
      <trkpt lat="48.23555" lon="-4.03279">
        <ele>135.2</ele>
        <time>2020-06-08T13:24:38Z</time>
      </trkpt>
      <trkpt lat="48.23551" lon="-4.03287">
        <ele>135.2</ele>
        <time>2020-06-08T13:24:39Z</time>
      </trkpt>
      <trkpt lat="48.23547" lon="-4.03295">
        <ele>135.2</ele>
        <time>2020-06-08T13:24:40Z</time>
      </trkpt>
      <trkpt lat="48.23543" lon="-4.03303">
        <ele>135.2</ele>
        <time>2020-06-08T13:24:41Z</time>
      </trkpt>
      <trkpt lat="48.23538" lon="-4.03309">
        <ele>135.2</ele>
        <time>2020-06-08T13:24:42Z</time>
      </trkpt>
      <trkpt lat="48.23533" lon="-4.03316">
        <ele>135.2</ele>
        <time>2020-06-08T13:24:43Z</time>
      </trkpt>
      <trkpt lat="48.23529" lon="-4.03323">
        <ele>135.2</ele>
        <time>2020-06-08T13:24:44Z</time>
      </trkpt>
      <trkpt lat="48.23524" lon="-4.0333">
        <ele>135.2</ele>
        <time>2020-06-08T13:24:45Z</time>
      </trkpt>
      <trkpt lat="48.23519" lon="-4.03337">
        <ele>135.1</ele>
        <time>2020-06-08T13:24:46Z</time>
      </trkpt>
      <trkpt lat="48.23515" lon="-4.03344">
        <ele>135</ele>
        <time>2020-06-08T13:24:47Z</time>
      </trkpt>
      <trkpt lat="48.23511" lon="-4.03352">
        <ele>134.9</ele>
        <time>2020-06-08T13:24:48Z</time>
      </trkpt>
      <trkpt lat="48.23506" lon="-4.03358">
        <ele>134.8</ele>
        <time>2020-06-08T13:24:49Z</time>
      </trkpt>
      <trkpt lat="48.23501" lon="-4.03365">
        <ele>134.7</ele>
        <time>2020-06-08T13:24:50Z</time>
      </trkpt>
      <trkpt lat="48.23497" lon="-4.03372">
        <ele>134.5</ele>
        <time>2020-06-08T13:24:51Z</time>
      </trkpt>
      <trkpt lat="48.23492" lon="-4.03379">
        <ele>134.3</ele>
        <time>2020-06-08T13:24:52Z</time>
      </trkpt>
      <trkpt lat="48.23487" lon="-4.03386">
        <ele>134.1</ele>
        <time>2020-06-08T13:24:53Z</time>
      </trkpt>
      <trkpt lat="48.23482" lon="-4.03394">
        <ele>134</ele>
        <time>2020-06-08T13:24:54Z</time>
      </trkpt>
      <trkpt lat="48.23476" lon="-4.03402">
        <ele>133.8</ele>
        <time>2020-06-08T13:24:55Z</time>
      </trkpt>
      <trkpt lat="48.23471" lon="-4.0341">
        <ele>133.6</ele>
        <time>2020-06-08T13:24:56Z</time>
      </trkpt>
      <trkpt lat="48.23466" lon="-4.03418">
        <ele>133.5</ele>
        <time>2020-06-08T13:24:57Z</time>
      </trkpt>
      <trkpt lat="48.23461" lon="-4.03426">
        <ele>133.3</ele>
        <time>2020-06-08T13:24:58Z</time>
      </trkpt>
      <trkpt lat="48.23456" lon="-4.03434">
        <ele>133.2</ele>
        <time>2020-06-08T13:24:59Z</time>
      </trkpt>
      <trkpt lat="48.23451" lon="-4.03442">
        <ele>133</ele>
        <time>2020-06-08T13:25:00Z</time>
      </trkpt>
      <trkpt lat="48.23446" lon="-4.0345">
        <ele>132.8</ele>
        <time>2020-06-08T13:25:01Z</time>
      </trkpt>
      <trkpt lat="48.23442" lon="-4.03459">
        <ele>132.7</ele>
        <time>2020-06-08T13:25:02Z</time>
      </trkpt>
      <trkpt lat="48.23438" lon="-4.03468">
        <ele>132.5</ele>
        <time>2020-06-08T13:25:03Z</time>
      </trkpt>
      <trkpt lat="48.23434" lon="-4.03477">
        <ele>132.4</ele>
        <time>2020-06-08T13:25:04Z</time>
      </trkpt>
      <trkpt lat="48.2343" lon="-4.03486">
        <ele>132.4</ele>
        <time>2020-06-08T13:25:05Z</time>
      </trkpt>
      <trkpt lat="48.23426" lon="-4.03495">
        <ele>132.3</ele>
        <time>2020-06-08T13:25:06Z</time>
      </trkpt>
      <trkpt lat="48.23422" lon="-4.03504">
        <ele>132.2</ele>
        <time>2020-06-08T13:25:07Z</time>
      </trkpt>
      <trkpt lat="48.23421" lon="-4.03514">
        <ele>132.2</ele>
        <time>2020-06-08T13:25:08Z</time>
      </trkpt>
      <trkpt lat="48.23421" lon="-4.03524">
        <ele>132.1</ele>
        <time>2020-06-08T13:25:09Z</time>
      </trkpt>
      <trkpt lat="48.23422" lon="-4.03534">
        <ele>132.1</ele>
        <time>2020-06-08T13:25:10Z</time>
      </trkpt>
      <trkpt lat="48.23424" lon="-4.03544">
        <ele>132</ele>
        <time>2020-06-08T13:25:11Z</time>
      </trkpt>
      <trkpt lat="48.23427" lon="-4.03552">
        <ele>131.7</ele>
        <time>2020-06-08T13:25:12Z</time>
      </trkpt>
      <trkpt lat="48.23431" lon="-4.0356">
        <ele>131.5</ele>
        <time>2020-06-08T13:25:13Z</time>
      </trkpt>
      <trkpt lat="48.23434" lon="-4.03569">
        <ele>131.3</ele>
        <time>2020-06-08T13:25:14Z</time>
      </trkpt>
      <trkpt lat="48.23437" lon="-4.03577">
        <ele>131.1</ele>
        <time>2020-06-08T13:25:15Z</time>
      </trkpt>
      <trkpt lat="48.2344" lon="-4.03585">
        <ele>130.9</ele>
        <time>2020-06-08T13:25:16Z</time>
      </trkpt>
      <trkpt lat="48.23443" lon="-4.03593">
        <ele>130.7</ele>
        <time>2020-06-08T13:25:17Z</time>
      </trkpt>
      <trkpt lat="48.23446" lon="-4.03601">
        <ele>130.5</ele>
        <time>2020-06-08T13:25:18Z</time>
      </trkpt>
      <trkpt lat="48.23448" lon="-4.0361">
        <ele>130.3</ele>
        <time>2020-06-08T13:25:19Z</time>
      </trkpt>
      <trkpt lat="48.2345" lon="-4.03618">
        <ele>130.2</ele>
        <time>2020-06-08T13:25:20Z</time>
      </trkpt>
      <trkpt lat="48.23453" lon="-4.03627">
        <ele>130.1</ele>
        <time>2020-06-08T13:25:21Z</time>
      </trkpt>
      <trkpt lat="48.23455" lon="-4.03635">
        <ele>129.9</ele>
        <time>2020-06-08T13:25:22Z</time>
      </trkpt>
      <trkpt lat="48.23458" lon="-4.03644">
        <ele>129.8</ele>
        <time>2020-06-08T13:25:23Z</time>
      </trkpt>
      <trkpt lat="48.2346" lon="-4.03652">
        <ele>129.6</ele>
        <time>2020-06-08T13:25:24Z</time>
      </trkpt>
      <trkpt lat="48.23462" lon="-4.03661">
        <ele>129.5</ele>
        <time>2020-06-08T13:25:25Z</time>
      </trkpt>
      <trkpt lat="48.23464" lon="-4.0367">
        <ele>129.3</ele>
        <time>2020-06-08T13:25:26Z</time>
      </trkpt>
      <trkpt lat="48.23466" lon="-4.03679">
        <ele>129.2</ele>
        <time>2020-06-08T13:25:27Z</time>
      </trkpt>
      <trkpt lat="48.23469" lon="-4.03687">
        <ele>129</ele>
        <time>2020-06-08T13:25:28Z</time>
      </trkpt>
      <trkpt lat="48.23471" lon="-4.03696">
        <ele>128.8</ele>
        <time>2020-06-08T13:25:29Z</time>
      </trkpt>
      <trkpt lat="48.23474" lon="-4.03704">
        <ele>128.6</ele>
        <time>2020-06-08T13:25:30Z</time>
      </trkpt>
      <trkpt lat="48.23477" lon="-4.03713">
        <ele>128.4</ele>
        <time>2020-06-08T13:25:31Z</time>
      </trkpt>
      <trkpt lat="48.23479" lon="-4.03721">
        <ele>128.3</ele>
        <time>2020-06-08T13:25:32Z</time>
      </trkpt>
      <trkpt lat="48.23482" lon="-4.0373">
        <ele>128.1</ele>
        <time>2020-06-08T13:25:33Z</time>
      </trkpt>
      <trkpt lat="48.23484" lon="-4.03739">
        <ele>127.9</ele>
        <time>2020-06-08T13:25:34Z</time>
      </trkpt>
      <trkpt lat="48.23486" lon="-4.03748">
        <ele>127.7</ele>
        <time>2020-06-08T13:25:35Z</time>
      </trkpt>
      <trkpt lat="48.23489" lon="-4.03757">
        <ele>127.5</ele>
        <time>2020-06-08T13:25:36Z</time>
      </trkpt>
      <trkpt lat="48.23492" lon="-4.03766">
        <ele>127.4</ele>
        <time>2020-06-08T13:25:37Z</time>
      </trkpt>
      <trkpt lat="48.23494" lon="-4.03776">
        <ele>127.1</ele>
        <time>2020-06-08T13:25:38Z</time>
      </trkpt>
      <trkpt lat="48.23497" lon="-4.03785">
        <ele>126.9</ele>
        <time>2020-06-08T13:25:39Z</time>
      </trkpt>
      <trkpt lat="48.23499" lon="-4.03795">
        <ele>126.7</ele>
        <time>2020-06-08T13:25:40Z</time>
      </trkpt>
      <trkpt lat="48.23502" lon="-4.03805">
        <ele>126.5</ele>
        <time>2020-06-08T13:25:41Z</time>
      </trkpt>
      <trkpt lat="48.23505" lon="-4.03814">
        <ele>126.2</ele>
        <time>2020-06-08T13:25:42Z</time>
      </trkpt>
      <trkpt lat="48.23507" lon="-4.03825">
        <ele>125.9</ele>
        <time>2020-06-08T13:25:43Z</time>
      </trkpt>
      <trkpt lat="48.2351" lon="-4.03834">
        <ele>125.7</ele>
        <time>2020-06-08T13:25:44Z</time>
      </trkpt>
      <trkpt lat="48.23514" lon="-4.03844">
        <ele>125.4</ele>
        <time>2020-06-08T13:25:45Z</time>
      </trkpt>
      <trkpt lat="48.23517" lon="-4.03855">
        <ele>125.2</ele>
        <time>2020-06-08T13:25:46Z</time>
      </trkpt>
      <trkpt lat="48.2352" lon="-4.03865">
        <ele>124.9</ele>
        <time>2020-06-08T13:25:47Z</time>
      </trkpt>
      <trkpt lat="48.23523" lon="-4.03876">
        <ele>124.7</ele>
        <time>2020-06-08T13:25:48Z</time>
      </trkpt>
      <trkpt lat="48.23526" lon="-4.03887">
        <ele>124.4</ele>
        <time>2020-06-08T13:25:49Z</time>
      </trkpt>
      <trkpt lat="48.23529" lon="-4.03898">
        <ele>124.1</ele>
        <time>2020-06-08T13:25:50Z</time>
      </trkpt>
      <trkpt lat="48.23532" lon="-4.03908">
        <ele>123.8</ele>
        <time>2020-06-08T13:25:51Z</time>
      </trkpt>
      <trkpt lat="48.23535" lon="-4.0392">
        <ele>123.5</ele>
        <time>2020-06-08T13:25:52Z</time>
      </trkpt>
      <trkpt lat="48.23539" lon="-4.03931">
        <ele>123.3</ele>
        <time>2020-06-08T13:25:53Z</time>
      </trkpt>
      <trkpt lat="48.23542" lon="-4.03943">
        <ele>123.1</ele>
        <time>2020-06-08T13:25:54Z</time>
      </trkpt>
      <trkpt lat="48.23545" lon="-4.03954">
        <ele>122.8</ele>
        <time>2020-06-08T13:25:55Z</time>
      </trkpt>
      <trkpt lat="48.23548" lon="-4.03966">
        <ele>122.7</ele>
        <time>2020-06-08T13:25:56Z</time>
      </trkpt>
      <trkpt lat="48.23551" lon="-4.03978">
        <ele>122.5</ele>
        <time>2020-06-08T13:25:57Z</time>
      </trkpt>
      <trkpt lat="48.23554" lon="-4.0399">
        <ele>122.4</ele>
        <time>2020-06-08T13:25:58Z</time>
      </trkpt>
      <trkpt lat="48.23557" lon="-4.04002">
        <ele>122.2</ele>
        <time>2020-06-08T13:25:59Z</time>
      </trkpt>
      <trkpt lat="48.23561" lon="-4.04013">
        <ele>122.1</ele>
        <time>2020-06-08T13:26:00Z</time>
      </trkpt>
      <trkpt lat="48.23564" lon="-4.04025">
        <ele>121.9</ele>
        <time>2020-06-08T13:26:01Z</time>
      </trkpt>
      <trkpt lat="48.23567" lon="-4.04037">
        <ele>121.8</ele>
        <time>2020-06-08T13:26:02Z</time>
      </trkpt>
      <trkpt lat="48.2357" lon="-4.04049">
        <ele>121.8</ele>
        <time>2020-06-08T13:26:03Z</time>
      </trkpt>
      <trkpt lat="48.23573" lon="-4.0406">
        <ele>121.7</ele>
        <time>2020-06-08T13:26:04Z</time>
      </trkpt>
      <trkpt lat="48.23576" lon="-4.04072">
        <ele>121.7</ele>
        <time>2020-06-08T13:26:05Z</time>
      </trkpt>
      <trkpt lat="48.2358" lon="-4.04083">
        <ele>121.7</ele>
        <time>2020-06-08T13:26:06Z</time>
      </trkpt>
      <trkpt lat="48.23584" lon="-4.04094">
        <ele>121.7</ele>
        <time>2020-06-08T13:26:07Z</time>
      </trkpt>
      <trkpt lat="48.23587" lon="-4.04105">
        <ele>121.8</ele>
        <time>2020-06-08T13:26:08Z</time>
      </trkpt>
      <trkpt lat="48.23589" lon="-4.04116">
        <ele>121.8</ele>
        <time>2020-06-08T13:26:09Z</time>
      </trkpt>
      <trkpt lat="48.23592" lon="-4.04127">
        <ele>121.9</ele>
        <time>2020-06-08T13:26:10Z</time>
      </trkpt>
      <trkpt lat="48.23595" lon="-4.04138">
        <ele>122</ele>
        <time>2020-06-08T13:26:11Z</time>
      </trkpt>
      <trkpt lat="48.23598" lon="-4.04149">
        <ele>122.1</ele>
        <time>2020-06-08T13:26:12Z</time>
      </trkpt>
      <trkpt lat="48.236" lon="-4.0416">
        <ele>122.2</ele>
        <time>2020-06-08T13:26:13Z</time>
      </trkpt>
      <trkpt lat="48.23603" lon="-4.0417">
        <ele>122.3</ele>
        <time>2020-06-08T13:26:14Z</time>
      </trkpt>
      <trkpt lat="48.23606" lon="-4.04181">
        <ele>122.4</ele>
        <time>2020-06-08T13:26:15Z</time>
      </trkpt>
      <trkpt lat="48.23609" lon="-4.04191">
        <ele>122.5</ele>
        <time>2020-06-08T13:26:16Z</time>
      </trkpt>
      <trkpt lat="48.23611" lon="-4.04201">
        <ele>122.6</ele>
        <time>2020-06-08T13:26:17Z</time>
      </trkpt>
      <trkpt lat="48.23614" lon="-4.04211">
        <ele>122.7</ele>
        <time>2020-06-08T13:26:18Z</time>
      </trkpt>
      <trkpt lat="48.23617" lon="-4.04221">
        <ele>122.8</ele>
        <time>2020-06-08T13:26:19Z</time>
      </trkpt>
      <trkpt lat="48.23619" lon="-4.04231">
        <ele>122.9</ele>
        <time>2020-06-08T13:26:20Z</time>
      </trkpt>
      <trkpt lat="48.23621" lon="-4.0424">
        <ele>123.1</ele>
        <time>2020-06-08T13:26:21Z</time>
      </trkpt>
      <trkpt lat="48.23624" lon="-4.04249">
        <ele>123.2</ele>
        <time>2020-06-08T13:26:22Z</time>
      </trkpt>
      <trkpt lat="48.23626" lon="-4.04258">
        <ele>123.3</ele>
        <time>2020-06-08T13:26:23Z</time>
      </trkpt>
      <trkpt lat="48.23628" lon="-4.04268">
        <ele>123.4</ele>
        <time>2020-06-08T13:26:24Z</time>
      </trkpt>
      <trkpt lat="48.23629" lon="-4.04276">
        <ele>123.5</ele>
        <time>2020-06-08T13:26:25Z</time>
      </trkpt>
      <trkpt lat="48.23631" lon="-4.04285">
        <ele>123.6</ele>
        <time>2020-06-08T13:26:26Z</time>
      </trkpt>
      <trkpt lat="48.23633" lon="-4.04294">
        <ele>123.7</ele>
        <time>2020-06-08T13:26:27Z</time>
      </trkpt>
      <trkpt lat="48.23634" lon="-4.04302">
        <ele>123.8</ele>
        <time>2020-06-08T13:26:28Z</time>
      </trkpt>
      <trkpt lat="48.23635" lon="-4.0431">
        <ele>123.9</ele>
        <time>2020-06-08T13:26:29Z</time>
      </trkpt>
      <trkpt lat="48.23636" lon="-4.04318">
        <ele>123.9</ele>
        <time>2020-06-08T13:26:30Z</time>
      </trkpt>
      <trkpt lat="48.23638" lon="-4.04326">
        <ele>124</ele>
        <time>2020-06-08T13:26:31Z</time>
      </trkpt>
      <trkpt lat="48.23639" lon="-4.04333">
        <ele>124</ele>
        <time>2020-06-08T13:26:32Z</time>
      </trkpt>
      <trkpt lat="48.23641" lon="-4.04341">
        <ele>124</ele>
        <time>2020-06-08T13:26:33Z</time>
      </trkpt>
      <trkpt lat="48.23642" lon="-4.04349">
        <ele>124</ele>
        <time>2020-06-08T13:26:34Z</time>
      </trkpt>
      <trkpt lat="48.23643" lon="-4.04358">
        <ele>124</ele>
        <time>2020-06-08T13:26:35Z</time>
      </trkpt>
      <trkpt lat="48.23643" lon="-4.04366">
        <ele>124</ele>
        <time>2020-06-08T13:26:36Z</time>
      </trkpt>
      <trkpt lat="48.23644" lon="-4.04375">
        <ele>123.9</ele>
        <time>2020-06-08T13:26:37Z</time>
      </trkpt>
      <trkpt lat="48.23645" lon="-4.04383">
        <ele>123.8</ele>
        <time>2020-06-08T13:26:38Z</time>
      </trkpt>
      <trkpt lat="48.23646" lon="-4.04392">
        <ele>123.7</ele>
        <time>2020-06-08T13:26:39Z</time>
      </trkpt>
      <trkpt lat="48.23647" lon="-4.04401">
        <ele>123.6</ele>
        <time>2020-06-08T13:26:40Z</time>
      </trkpt>
      <trkpt lat="48.23648" lon="-4.0441">
        <ele>123.4</ele>
        <time>2020-06-08T13:26:41Z</time>
      </trkpt>
      <trkpt lat="48.23649" lon="-4.04419">
        <ele>123.3</ele>
        <time>2020-06-08T13:26:42Z</time>
      </trkpt>
      <trkpt lat="48.23651" lon="-4.04429">
        <ele>123</ele>
        <time>2020-06-08T13:26:43Z</time>
      </trkpt>
      <trkpt lat="48.23651" lon="-4.04439">
        <ele>122.8</ele>
        <time>2020-06-08T13:26:44Z</time>
      </trkpt>
      <trkpt lat="48.23652" lon="-4.04449">
        <ele>122.5</ele>
        <time>2020-06-08T13:26:45Z</time>
      </trkpt>
      <trkpt lat="48.23653" lon="-4.0446">
        <ele>122.1</ele>
        <time>2020-06-08T13:26:46Z</time>
      </trkpt>
      <trkpt lat="48.23654" lon="-4.04471">
        <ele>121.7</ele>
        <time>2020-06-08T13:26:47Z</time>
      </trkpt>
      <trkpt lat="48.23655" lon="-4.04483">
        <ele>121.2</ele>
        <time>2020-06-08T13:26:48Z</time>
      </trkpt>
      <trkpt lat="48.23655" lon="-4.04495">
        <ele>120.6</ele>
        <time>2020-06-08T13:26:49Z</time>
      </trkpt>
      <trkpt lat="48.23655" lon="-4.04508">
        <ele>120</ele>
        <time>2020-06-08T13:26:50Z</time>
      </trkpt>
      <trkpt lat="48.23655" lon="-4.04521">
        <ele>119.4</ele>
        <time>2020-06-08T13:26:51Z</time>
      </trkpt>
      <trkpt lat="48.23655" lon="-4.04535">
        <ele>118.7</ele>
        <time>2020-06-08T13:26:52Z</time>
      </trkpt>
      <trkpt lat="48.23654" lon="-4.04549">
        <ele>118</ele>
        <time>2020-06-08T13:26:53Z</time>
      </trkpt>
      <trkpt lat="48.23653" lon="-4.04564">
        <ele>117.3</ele>
        <time>2020-06-08T13:26:54Z</time>
      </trkpt>
      <trkpt lat="48.23652" lon="-4.0458">
        <ele>116.7</ele>
        <time>2020-06-08T13:26:55Z</time>
      </trkpt>
      <trkpt lat="48.23651" lon="-4.04595">
        <ele>116.2</ele>
        <time>2020-06-08T13:26:56Z</time>
      </trkpt>
      <trkpt lat="48.23649" lon="-4.04611">
        <ele>115.7</ele>
        <time>2020-06-08T13:26:57Z</time>
      </trkpt>
      <trkpt lat="48.23648" lon="-4.04626">
        <ele>115.2</ele>
        <time>2020-06-08T13:26:58Z</time>
      </trkpt>
      <trkpt lat="48.23647" lon="-4.04642">
        <ele>114.7</ele>
        <time>2020-06-08T13:26:59Z</time>
      </trkpt>
      <trkpt lat="48.23647" lon="-4.04658">
        <ele>114.1</ele>
        <time>2020-06-08T13:27:00Z</time>
      </trkpt>
      <trkpt lat="48.23647" lon="-4.04673">
        <ele>113.5</ele>
        <time>2020-06-08T13:27:01Z</time>
      </trkpt>
      <trkpt lat="48.23647" lon="-4.04689">
        <ele>113</ele>
        <time>2020-06-08T13:27:02Z</time>
      </trkpt>
      <trkpt lat="48.23646" lon="-4.04705">
        <ele>112.5</ele>
        <time>2020-06-08T13:27:03Z</time>
      </trkpt>
      <trkpt lat="48.23645" lon="-4.04721">
        <ele>112</ele>
        <time>2020-06-08T13:27:04Z</time>
      </trkpt>
      <trkpt lat="48.23644" lon="-4.04736">
        <ele>111.5</ele>
        <time>2020-06-08T13:27:05Z</time>
      </trkpt>
      <trkpt lat="48.23644" lon="-4.04752">
        <ele>111.1</ele>
        <time>2020-06-08T13:27:06Z</time>
      </trkpt>
      <trkpt lat="48.23643" lon="-4.04768">
        <ele>110.7</ele>
        <time>2020-06-08T13:27:07Z</time>
      </trkpt>
      <trkpt lat="48.23642" lon="-4.04783">
        <ele>110.3</ele>
        <time>2020-06-08T13:27:08Z</time>
      </trkpt>
      <trkpt lat="48.23642" lon="-4.04798">
        <ele>110.1</ele>
        <time>2020-06-08T13:27:09Z</time>
      </trkpt>
      <trkpt lat="48.23642" lon="-4.04813">
        <ele>110</ele>
        <time>2020-06-08T13:27:10Z</time>
      </trkpt>
      <trkpt lat="48.23641" lon="-4.04828">
        <ele>109.8</ele>
        <time>2020-06-08T13:27:11Z</time>
      </trkpt>
      <trkpt lat="48.2364" lon="-4.04843">
        <ele>109.7</ele>
        <time>2020-06-08T13:27:12Z</time>
      </trkpt>
      <trkpt lat="48.2364" lon="-4.04857">
        <ele>109.6</ele>
        <time>2020-06-08T13:27:13Z</time>
      </trkpt>
      <trkpt lat="48.23639" lon="-4.04871">
        <ele>109.6</ele>
        <time>2020-06-08T13:27:14Z</time>
      </trkpt>
      <trkpt lat="48.23638" lon="-4.04885">
        <ele>109.5</ele>
        <time>2020-06-08T13:27:15Z</time>
      </trkpt>
      <trkpt lat="48.23638" lon="-4.04899">
        <ele>109.4</ele>
        <time>2020-06-08T13:27:16Z</time>
      </trkpt>
      <trkpt lat="48.23638" lon="-4.04914">
        <ele>109.3</ele>
        <time>2020-06-08T13:27:17Z</time>
      </trkpt>
      <trkpt lat="48.23638" lon="-4.04928">
        <ele>109.2</ele>
        <time>2020-06-08T13:27:18Z</time>
      </trkpt>
      <trkpt lat="48.23637" lon="-4.04942">
        <ele>109</ele>
        <time>2020-06-08T13:27:19Z</time>
      </trkpt>
      <trkpt lat="48.23636" lon="-4.04955">
        <ele>109</ele>
        <time>2020-06-08T13:27:20Z</time>
      </trkpt>
      <trkpt lat="48.23636" lon="-4.04969">
        <ele>109</ele>
        <time>2020-06-08T13:27:21Z</time>
      </trkpt>
      <trkpt lat="48.23636" lon="-4.04983">
        <ele>109</ele>
        <time>2020-06-08T13:27:22Z</time>
      </trkpt>
      <trkpt lat="48.23635" lon="-4.04996">
        <ele>109</ele>
        <time>2020-06-08T13:27:23Z</time>
      </trkpt>
      <trkpt lat="48.23633" lon="-4.0501">
        <ele>109</ele>
        <time>2020-06-08T13:27:24Z</time>
      </trkpt>
      <trkpt lat="48.23633" lon="-4.05022">
        <ele>109.1</ele>
        <time>2020-06-08T13:27:25Z</time>
      </trkpt>
      <trkpt lat="48.23634" lon="-4.05035">
        <ele>109.3</ele>
        <time>2020-06-08T13:27:26Z</time>
      </trkpt>
      <trkpt lat="48.23634" lon="-4.05048">
        <ele>109.5</ele>
        <time>2020-06-08T13:27:27Z</time>
      </trkpt>
      <trkpt lat="48.23634" lon="-4.05061">
        <ele>109.7</ele>
        <time>2020-06-08T13:27:28Z</time>
      </trkpt>
      <trkpt lat="48.23635" lon="-4.05073">
        <ele>110</ele>
        <time>2020-06-08T13:27:29Z</time>
      </trkpt>
      <trkpt lat="48.23636" lon="-4.05085">
        <ele>110.2</ele>
        <time>2020-06-08T13:27:30Z</time>
      </trkpt>
      <trkpt lat="48.23637" lon="-4.05096">
        <ele>110.5</ele>
        <time>2020-06-08T13:27:31Z</time>
      </trkpt>
      <trkpt lat="48.23638" lon="-4.05108">
        <ele>110.7</ele>
        <time>2020-06-08T13:27:32Z</time>
      </trkpt>
      <trkpt lat="48.23639" lon="-4.05119">
        <ele>110.9</ele>
        <time>2020-06-08T13:27:33Z</time>
      </trkpt>
      <trkpt lat="48.2364" lon="-4.05129">
        <ele>111.2</ele>
        <time>2020-06-08T13:27:34Z</time>
      </trkpt>
      <trkpt lat="48.23641" lon="-4.0514">
        <ele>111.4</ele>
        <time>2020-06-08T13:27:35Z</time>
      </trkpt>
      <trkpt lat="48.23642" lon="-4.0515">
        <ele>111.6</ele>
        <time>2020-06-08T13:27:36Z</time>
      </trkpt>
      <trkpt lat="48.23643" lon="-4.0516">
        <ele>111.9</ele>
        <time>2020-06-08T13:27:37Z</time>
      </trkpt>
      <trkpt lat="48.23644" lon="-4.05169">
        <ele>112.1</ele>
        <time>2020-06-08T13:27:38Z</time>
      </trkpt>
      <trkpt lat="48.23646" lon="-4.05178">
        <ele>112.3</ele>
        <time>2020-06-08T13:27:39Z</time>
      </trkpt>
      <trkpt lat="48.23648" lon="-4.05188">
        <ele>112.5</ele>
        <time>2020-06-08T13:27:40Z</time>
      </trkpt>
      <trkpt lat="48.23649" lon="-4.05197">
        <ele>112.6</ele>
        <time>2020-06-08T13:27:41Z</time>
      </trkpt>
      <trkpt lat="48.2365" lon="-4.05206">
        <ele>112.8</ele>
        <time>2020-06-08T13:27:42Z</time>
      </trkpt>
      <trkpt lat="48.23651" lon="-4.05215">
        <ele>112.8</ele>
        <time>2020-06-08T13:27:43Z</time>
      </trkpt>
      <trkpt lat="48.23653" lon="-4.05224">
        <ele>113</ele>
        <time>2020-06-08T13:27:44Z</time>
      </trkpt>
      <trkpt lat="48.23654" lon="-4.05232">
        <ele>113.1</ele>
        <time>2020-06-08T13:27:45Z</time>
      </trkpt>
      <trkpt lat="48.23655" lon="-4.05241">
        <ele>113.3</ele>
        <time>2020-06-08T13:27:46Z</time>
      </trkpt>
      <trkpt lat="48.23657" lon="-4.05249">
        <ele>113.4</ele>
        <time>2020-06-08T13:27:47Z</time>
      </trkpt>
      <trkpt lat="48.2366" lon="-4.05257">
        <ele>113.6</ele>
        <time>2020-06-08T13:27:48Z</time>
      </trkpt>
      <trkpt lat="48.23662" lon="-4.05265">
        <ele>113.7</ele>
        <time>2020-06-08T13:27:49Z</time>
      </trkpt>
      <trkpt lat="48.23663" lon="-4.05274">
        <ele>113.8</ele>
        <time>2020-06-08T13:27:50Z</time>
      </trkpt>
      <trkpt lat="48.23665" lon="-4.05282">
        <ele>113.9</ele>
        <time>2020-06-08T13:27:51Z</time>
      </trkpt>
      <trkpt lat="48.23666" lon="-4.0529">
        <ele>114</ele>
        <time>2020-06-08T13:27:52Z</time>
      </trkpt>
      <trkpt lat="48.23667" lon="-4.05299">
        <ele>114.1</ele>
        <time>2020-06-08T13:27:53Z</time>
      </trkpt>
      <trkpt lat="48.23669" lon="-4.05307">
        <ele>114.3</ele>
        <time>2020-06-08T13:27:54Z</time>
      </trkpt>
      <trkpt lat="48.2367" lon="-4.05316">
        <ele>114.4</ele>
        <time>2020-06-08T13:27:55Z</time>
      </trkpt>
      <trkpt lat="48.23671" lon="-4.05324">
        <ele>114.5</ele>
        <time>2020-06-08T13:27:56Z</time>
      </trkpt>
      <trkpt lat="48.23672" lon="-4.05333">
        <ele>114.6</ele>
        <time>2020-06-08T13:27:57Z</time>
      </trkpt>
      <trkpt lat="48.23674" lon="-4.05341">
        <ele>114.7</ele>
        <time>2020-06-08T13:27:58Z</time>
      </trkpt>
      <trkpt lat="48.23676" lon="-4.05349">
        <ele>114.8</ele>
        <time>2020-06-08T13:27:59Z</time>
      </trkpt>
      <trkpt lat="48.23678" lon="-4.05358">
        <ele>114.9</ele>
        <time>2020-06-08T13:28:00Z</time>
      </trkpt>
      <trkpt lat="48.2368" lon="-4.05366">
        <ele>115</ele>
        <time>2020-06-08T13:28:01Z</time>
      </trkpt>
      <trkpt lat="48.23682" lon="-4.05374">
        <ele>115.1</ele>
        <time>2020-06-08T13:28:02Z</time>
      </trkpt>
      <trkpt lat="48.23683" lon="-4.05382">
        <ele>115.2</ele>
        <time>2020-06-08T13:28:03Z</time>
      </trkpt>
      <trkpt lat="48.23684" lon="-4.0539">
        <ele>115.3</ele>
        <time>2020-06-08T13:28:04Z</time>
      </trkpt>
      <trkpt lat="48.23686" lon="-4.05398">
        <ele>115.4</ele>
        <time>2020-06-08T13:28:05Z</time>
      </trkpt>
      <trkpt lat="48.23687" lon="-4.05407">
        <ele>115.5</ele>
        <time>2020-06-08T13:28:06Z</time>
      </trkpt>
      <trkpt lat="48.23688" lon="-4.05414">
        <ele>115.6</ele>
        <time>2020-06-08T13:28:07Z</time>
      </trkpt>
      <trkpt lat="48.23689" lon="-4.05424">
        <ele>115.8</ele>
        <time>2020-06-08T13:28:08Z</time>
      </trkpt>
      <trkpt lat="48.2369" lon="-4.05431">
        <ele>115.9</ele>
        <time>2020-06-08T13:28:09Z</time>
      </trkpt>
      <trkpt lat="48.23691" lon="-4.05439">
        <ele>116</ele>
        <time>2020-06-08T13:28:10Z</time>
      </trkpt>
      <trkpt lat="48.23692" lon="-4.05446">
        <ele>116</ele>
        <time>2020-06-08T13:28:11Z</time>
      </trkpt>
      <trkpt lat="48.23692" lon="-4.05453">
        <ele>116.1</ele>
        <time>2020-06-08T13:28:12Z</time>
      </trkpt>
      <trkpt lat="48.23692" lon="-4.05459">
        <ele>116.2</ele>
        <time>2020-06-08T13:28:13Z</time>
      </trkpt>
      <trkpt lat="48.23693" lon="-4.05466">
        <ele>116.2</ele>
        <time>2020-06-08T13:28:14Z</time>
      </trkpt>
      <trkpt lat="48.23693" lon="-4.05474">
        <ele>116.3</ele>
        <time>2020-06-08T13:28:15Z</time>
      </trkpt>
      <trkpt lat="48.23692" lon="-4.05481">
        <ele>116.4</ele>
        <time>2020-06-08T13:28:16Z</time>
      </trkpt>
      <trkpt lat="48.23691" lon="-4.05488">
        <ele>116.5</ele>
        <time>2020-06-08T13:28:17Z</time>
      </trkpt>
      <trkpt lat="48.23691" lon="-4.05494">
        <ele>116.5</ele>
        <time>2020-06-08T13:28:18Z</time>
      </trkpt>
      <trkpt lat="48.23691" lon="-4.055">
        <ele>116.6</ele>
        <time>2020-06-08T13:28:19Z</time>
      </trkpt>
      <trkpt lat="48.2369" lon="-4.05505">
        <ele>116.6</ele>
        <time>2020-06-08T13:28:20Z</time>
      </trkpt>
      <trkpt lat="48.23691" lon="-4.05511">
        <ele>116.7</ele>
        <time>2020-06-08T13:28:21Z</time>
      </trkpt>
      <trkpt lat="48.23691" lon="-4.05515">
        <ele>116.7</ele>
        <time>2020-06-08T13:28:22Z</time>
      </trkpt>
      <trkpt lat="48.23692" lon="-4.05521">
        <ele>116.8</ele>
        <time>2020-06-08T13:28:23Z</time>
      </trkpt>
      <trkpt lat="48.23692" lon="-4.05528">
        <ele>116.8</ele>
        <time>2020-06-08T13:28:24Z</time>
      </trkpt>
      <trkpt lat="48.23692" lon="-4.05533">
        <ele>116.9</ele>
        <time>2020-06-08T13:28:25Z</time>
      </trkpt>
      <trkpt lat="48.23692" lon="-4.05539">
        <ele>116.9</ele>
        <time>2020-06-08T13:28:26Z</time>
      </trkpt>
      <trkpt lat="48.23691" lon="-4.05546">
        <ele>116.9</ele>
        <time>2020-06-08T13:28:27Z</time>
      </trkpt>
      <trkpt lat="48.23691" lon="-4.05553">
        <ele>116.9</ele>
        <time>2020-06-08T13:28:28Z</time>
      </trkpt>
      <trkpt lat="48.23691" lon="-4.0556">
        <ele>117</ele>
        <time>2020-06-08T13:28:29Z</time>
      </trkpt>
      <trkpt lat="48.23691" lon="-4.05565">
        <ele>117</ele>
        <time>2020-06-08T13:28:30Z</time>
      </trkpt>
      <trkpt lat="48.23691" lon="-4.05572">
        <ele>117</ele>
        <time>2020-06-08T13:28:31Z</time>
      </trkpt>
      <trkpt lat="48.23691" lon="-4.05578">
        <ele>117</ele>
        <time>2020-06-08T13:28:32Z</time>
      </trkpt>
      <trkpt lat="48.2369" lon="-4.05586">
        <ele>117</ele>
        <time>2020-06-08T13:28:33Z</time>
      </trkpt>
      <trkpt lat="48.2369" lon="-4.05593">
        <ele>116.9</ele>
        <time>2020-06-08T13:28:34Z</time>
      </trkpt>
      <trkpt lat="48.23691" lon="-4.05597">
        <ele>116.9</ele>
        <time>2020-06-08T13:28:35Z</time>
      </trkpt>
      <trkpt lat="48.23692" lon="-4.05604">
        <ele>116.9</ele>
        <time>2020-06-08T13:28:36Z</time>
      </trkpt>
      <trkpt lat="48.23691" lon="-4.05609">
        <ele>116.9</ele>
        <time>2020-06-08T13:28:37Z</time>
      </trkpt>
      <trkpt lat="48.2369" lon="-4.05613">
        <ele>116.9</ele>
        <time>2020-06-08T13:28:38Z</time>
      </trkpt>
      <trkpt lat="48.2369" lon="-4.05619">
        <ele>116.8</ele>
        <time>2020-06-08T13:28:39Z</time>
      </trkpt>
      <trkpt lat="48.2369" lon="-4.05624">
        <ele>116.7</ele>
        <time>2020-06-08T13:28:40Z</time>
      </trkpt>
      <trkpt lat="48.2369" lon="-4.05629">
        <ele>116.6</ele>
        <time>2020-06-08T13:28:41Z</time>
      </trkpt>
      <trkpt lat="48.2369" lon="-4.05636">
        <ele>116.5</ele>
        <time>2020-06-08T13:28:42Z</time>
      </trkpt>
      <trkpt lat="48.2369" lon="-4.05642">
        <ele>116.4</ele>
        <time>2020-06-08T13:28:43Z</time>
      </trkpt>
      <trkpt lat="48.23689" lon="-4.05647">
        <ele>116.3</ele>
        <time>2020-06-08T13:28:44Z</time>
      </trkpt>
      <trkpt lat="48.23689" lon="-4.05653">
        <ele>116.2</ele>
        <time>2020-06-08T13:28:45Z</time>
      </trkpt>
      <trkpt lat="48.23688" lon="-4.0566">
        <ele>116.1</ele>
        <time>2020-06-08T13:28:46Z</time>
      </trkpt>
      <trkpt lat="48.23688" lon="-4.05668">
        <ele>115.9</ele>
        <time>2020-06-08T13:28:47Z</time>
      </trkpt>
      <trkpt lat="48.23688" lon="-4.05674">
        <ele>115.8</ele>
        <time>2020-06-08T13:28:48Z</time>
      </trkpt>
      <trkpt lat="48.23688" lon="-4.05681">
        <ele>115.6</ele>
        <time>2020-06-08T13:28:49Z</time>
      </trkpt>
      <trkpt lat="48.23689" lon="-4.05689">
        <ele>115.4</ele>
        <time>2020-06-08T13:28:50Z</time>
      </trkpt>
      <trkpt lat="48.23689" lon="-4.05695">
        <ele>115.3</ele>
        <time>2020-06-08T13:28:51Z</time>
      </trkpt>
      <trkpt lat="48.23689" lon="-4.05703">
        <ele>115.1</ele>
        <time>2020-06-08T13:28:52Z</time>
      </trkpt>
      <trkpt lat="48.2369" lon="-4.05712">
        <ele>114.9</ele>
        <time>2020-06-08T13:28:53Z</time>
      </trkpt>
      <trkpt lat="48.23691" lon="-4.05721">
        <ele>114.8</ele>
        <time>2020-06-08T13:28:54Z</time>
      </trkpt>
      <trkpt lat="48.23691" lon="-4.05729">
        <ele>114.6</ele>
        <time>2020-06-08T13:28:55Z</time>
      </trkpt>
      <trkpt lat="48.23692" lon="-4.05736">
        <ele>114.4</ele>
        <time>2020-06-08T13:28:56Z</time>
      </trkpt>
      <trkpt lat="48.23692" lon="-4.05743">
        <ele>114.2</ele>
        <time>2020-06-08T13:28:57Z</time>
      </trkpt>
      <trkpt lat="48.23691" lon="-4.05753">
        <ele>113.8</ele>
        <time>2020-06-08T13:28:58Z</time>
      </trkpt>
      <trkpt lat="48.23692" lon="-4.05762">
        <ele>113.5</ele>
        <time>2020-06-08T13:28:59Z</time>
      </trkpt>
      <trkpt lat="48.23692" lon="-4.05772">
        <ele>113.2</ele>
        <time>2020-06-08T13:29:00Z</time>
      </trkpt>
      <trkpt lat="48.23692" lon="-4.05784">
        <ele>112.8</ele>
        <time>2020-06-08T13:29:01Z</time>
      </trkpt>
      <trkpt lat="48.23691" lon="-4.05793">
        <ele>112.5</ele>
        <time>2020-06-08T13:29:02Z</time>
      </trkpt>
      <trkpt lat="48.23691" lon="-4.05803">
        <ele>112.1</ele>
        <time>2020-06-08T13:29:03Z</time>
      </trkpt>
      <trkpt lat="48.23691" lon="-4.05815">
        <ele>111.8</ele>
        <time>2020-06-08T13:29:04Z</time>
      </trkpt>
      <trkpt lat="48.23691" lon="-4.05826">
        <ele>111.4</ele>
        <time>2020-06-08T13:29:05Z</time>
      </trkpt>
      <trkpt lat="48.23691" lon="-4.05835">
        <ele>111.1</ele>
        <time>2020-06-08T13:29:06Z</time>
      </trkpt>
      <trkpt lat="48.23692" lon="-4.05845">
        <ele>110.8</ele>
        <time>2020-06-08T13:29:07Z</time>
      </trkpt>
      <trkpt lat="48.23692" lon="-4.05857">
        <ele>110.5</ele>
        <time>2020-06-08T13:29:08Z</time>
      </trkpt>
      <trkpt lat="48.23692" lon="-4.05869">
        <ele>110.2</ele>
        <time>2020-06-08T13:29:09Z</time>
      </trkpt>
      <trkpt lat="48.23691" lon="-4.05881">
        <ele>110</ele>
        <time>2020-06-08T13:29:10Z</time>
      </trkpt>
      <trkpt lat="48.23691" lon="-4.05892">
        <ele>109.7</ele>
        <time>2020-06-08T13:29:11Z</time>
      </trkpt>
      <trkpt lat="48.23691" lon="-4.05903">
        <ele>109.4</ele>
        <time>2020-06-08T13:29:12Z</time>
      </trkpt>
      <trkpt lat="48.23691" lon="-4.05915">
        <ele>109</ele>
        <time>2020-06-08T13:29:13Z</time>
      </trkpt>
      <trkpt lat="48.23691" lon="-4.05926">
        <ele>108.7</ele>
        <time>2020-06-08T13:29:14Z</time>
      </trkpt>
      <trkpt lat="48.23691" lon="-4.05937">
        <ele>108.4</ele>
        <time>2020-06-08T13:29:15Z</time>
      </trkpt>
      <trkpt lat="48.23691" lon="-4.05949">
        <ele>108.1</ele>
        <time>2020-06-08T13:29:16Z</time>
      </trkpt>
      <trkpt lat="48.23691" lon="-4.05961">
        <ele>107.9</ele>
        <time>2020-06-08T13:29:17Z</time>
      </trkpt>
      <trkpt lat="48.23692" lon="-4.05972">
        <ele>107.6</ele>
        <time>2020-06-08T13:29:18Z</time>
      </trkpt>
      <trkpt lat="48.23693" lon="-4.05984">
        <ele>107.3</ele>
        <time>2020-06-08T13:29:19Z</time>
      </trkpt>
      <trkpt lat="48.23693" lon="-4.05996">
        <ele>107.1</ele>
        <time>2020-06-08T13:29:20Z</time>
      </trkpt>
      <trkpt lat="48.23694" lon="-4.06007">
        <ele>106.8</ele>
        <time>2020-06-08T13:29:21Z</time>
      </trkpt>
      <trkpt lat="48.23695" lon="-4.06019">
        <ele>106.5</ele>
        <time>2020-06-08T13:29:22Z</time>
      </trkpt>
      <trkpt lat="48.23696" lon="-4.0603">
        <ele>106.2</ele>
        <time>2020-06-08T13:29:23Z</time>
      </trkpt>
      <trkpt lat="48.23698" lon="-4.06042">
        <ele>105.9</ele>
        <time>2020-06-08T13:29:24Z</time>
      </trkpt>
      <trkpt lat="48.23699" lon="-4.06053">
        <ele>105.6</ele>
        <time>2020-06-08T13:29:25Z</time>
      </trkpt>
      <trkpt lat="48.23701" lon="-4.06065">
        <ele>105.2</ele>
        <time>2020-06-08T13:29:26Z</time>
      </trkpt>
      <trkpt lat="48.23703" lon="-4.06076">
        <ele>104.8</ele>
        <time>2020-06-08T13:29:27Z</time>
      </trkpt>
      <trkpt lat="48.23705" lon="-4.06088">
        <ele>104.5</ele>
        <time>2020-06-08T13:29:28Z</time>
      </trkpt>
      <trkpt lat="48.23709" lon="-4.06098">
        <ele>104.2</ele>
        <time>2020-06-08T13:29:29Z</time>
      </trkpt>
      <trkpt lat="48.23713" lon="-4.0611">
        <ele>103.8</ele>
        <time>2020-06-08T13:29:30Z</time>
      </trkpt>
      <trkpt lat="48.23716" lon="-4.06121">
        <ele>103.4</ele>
        <time>2020-06-08T13:29:31Z</time>
      </trkpt>
      <trkpt lat="48.2372" lon="-4.06132">
        <ele>103.1</ele>
        <time>2020-06-08T13:29:32Z</time>
      </trkpt>
      <trkpt lat="48.23724" lon="-4.06143">
        <ele>102.7</ele>
        <time>2020-06-08T13:29:33Z</time>
      </trkpt>
      <trkpt lat="48.23728" lon="-4.06154">
        <ele>102.3</ele>
        <time>2020-06-08T13:29:34Z</time>
      </trkpt>
      <trkpt lat="48.23732" lon="-4.06165">
        <ele>102</ele>
        <time>2020-06-08T13:29:35Z</time>
      </trkpt>
      <trkpt lat="48.23737" lon="-4.06175">
        <ele>101.7</ele>
        <time>2020-06-08T13:29:36Z</time>
      </trkpt>
      <trkpt lat="48.23743" lon="-4.06185">
        <ele>101.4</ele>
        <time>2020-06-08T13:29:37Z</time>
      </trkpt>
      <trkpt lat="48.23748" lon="-4.06196">
        <ele>101</ele>
        <time>2020-06-08T13:29:38Z</time>
      </trkpt>
      <trkpt lat="48.23753" lon="-4.06205">
        <ele>100.7</ele>
        <time>2020-06-08T13:29:39Z</time>
      </trkpt>
      <trkpt lat="48.23759" lon="-4.06215">
        <ele>100.3</ele>
        <time>2020-06-08T13:29:40Z</time>
      </trkpt>
      <trkpt lat="48.23766" lon="-4.06224">
        <ele>99.9</ele>
        <time>2020-06-08T13:29:41Z</time>
      </trkpt>
      <trkpt lat="48.23772" lon="-4.06233">
        <ele>99.6</ele>
        <time>2020-06-08T13:29:42Z</time>
      </trkpt>
      <trkpt lat="48.23777" lon="-4.06242">
        <ele>99.3</ele>
        <time>2020-06-08T13:29:43Z</time>
      </trkpt>
      <trkpt lat="48.23783" lon="-4.06252">
        <ele>99</ele>
        <time>2020-06-08T13:29:44Z</time>
      </trkpt>
      <trkpt lat="48.23789" lon="-4.06261">
        <ele>98.7</ele>
        <time>2020-06-08T13:29:45Z</time>
      </trkpt>
      <trkpt lat="48.23795" lon="-4.06269">
        <ele>98.5</ele>
        <time>2020-06-08T13:29:46Z</time>
      </trkpt>
      <trkpt lat="48.23801" lon="-4.06278">
        <ele>98.3</ele>
        <time>2020-06-08T13:29:47Z</time>
      </trkpt>
      <trkpt lat="48.23807" lon="-4.06286">
        <ele>98.2</ele>
        <time>2020-06-08T13:29:48Z</time>
      </trkpt>
      <trkpt lat="48.23813" lon="-4.06294">
        <ele>98</ele>
        <time>2020-06-08T13:29:49Z</time>
      </trkpt>
      <trkpt lat="48.23818" lon="-4.06302">
        <ele>97.9</ele>
        <time>2020-06-08T13:29:50Z</time>
      </trkpt>
      <trkpt lat="48.23825" lon="-4.06309">
        <ele>97.7</ele>
        <time>2020-06-08T13:29:51Z</time>
      </trkpt>
      <trkpt lat="48.23831" lon="-4.06314">
        <ele>97.6</ele>
        <time>2020-06-08T13:29:52Z</time>
      </trkpt>
      <trkpt lat="48.23838" lon="-4.06318">
        <ele>97.5</ele>
        <time>2020-06-08T13:29:53Z</time>
      </trkpt>
      <trkpt lat="48.23845" lon="-4.06323">
        <ele>97.4</ele>
        <time>2020-06-08T13:29:54Z</time>
      </trkpt>
      <trkpt lat="48.23851" lon="-4.06326">
        <ele>97.4</ele>
        <time>2020-06-08T13:29:55Z</time>
      </trkpt>
      <trkpt lat="48.23858" lon="-4.06328">
        <ele>97.4</ele>
        <time>2020-06-08T13:29:56Z</time>
      </trkpt>
      <trkpt lat="48.23864" lon="-4.0633">
        <ele>97.4</ele>
        <time>2020-06-08T13:29:57Z</time>
      </trkpt>
      <trkpt lat="48.23871" lon="-4.06332">
        <ele>97.5</ele>
        <time>2020-06-08T13:29:58Z</time>
      </trkpt>
      <trkpt lat="48.23877" lon="-4.06334">
        <ele>97.5</ele>
        <time>2020-06-08T13:29:59Z</time>
      </trkpt>
      <trkpt lat="48.23883" lon="-4.06335">
        <ele>97.5</ele>
        <time>2020-06-08T13:30:00Z</time>
      </trkpt>
      <trkpt lat="48.23889" lon="-4.06337">
        <ele>97.6</ele>
        <time>2020-06-08T13:30:01Z</time>
      </trkpt>
      <trkpt lat="48.23895" lon="-4.0634">
        <ele>97.7</ele>
        <time>2020-06-08T13:30:02Z</time>
      </trkpt>
      <trkpt lat="48.239" lon="-4.06343">
        <ele>97.8</ele>
        <time>2020-06-08T13:30:03Z</time>
      </trkpt>
      <trkpt lat="48.23904" lon="-4.06349">
        <ele>97.8</ele>
        <time>2020-06-08T13:30:04Z</time>
      </trkpt>
      <trkpt lat="48.23907" lon="-4.06355">
        <ele>98</ele>
        <time>2020-06-08T13:30:05Z</time>
      </trkpt>
      <trkpt lat="48.23909" lon="-4.06361">
        <ele>98.2</ele>
        <time>2020-06-08T13:30:06Z</time>
      </trkpt>
      <trkpt lat="48.23911" lon="-4.06368">
        <ele>98.3</ele>
        <time>2020-06-08T13:30:07Z</time>
      </trkpt>
      <trkpt lat="48.23913" lon="-4.06373">
        <ele>98.4</ele>
        <time>2020-06-08T13:30:08Z</time>
      </trkpt>
      <trkpt lat="48.23914" lon="-4.06379">
        <ele>98.6</ele>
        <time>2020-06-08T13:30:09Z</time>
      </trkpt>
      <trkpt lat="48.23916" lon="-4.06385">
        <ele>98.7</ele>
        <time>2020-06-08T13:30:10Z</time>
      </trkpt>
      <trkpt lat="48.23917" lon="-4.0639">
        <ele>98.9</ele>
        <time>2020-06-08T13:30:11Z</time>
      </trkpt>
      <trkpt lat="48.23917" lon="-4.06396">
        <ele>99</ele>
        <time>2020-06-08T13:30:12Z</time>
      </trkpt>
      <trkpt lat="48.2392" lon="-4.064">
        <ele>99.2</ele>
        <time>2020-06-08T13:30:13Z</time>
      </trkpt>
      <trkpt lat="48.2392" lon="-4.06405">
        <ele>99.3</ele>
        <time>2020-06-08T13:30:14Z</time>
      </trkpt>
      <trkpt lat="48.2392" lon="-4.0641">
        <ele>99.5</ele>
        <time>2020-06-08T13:30:15Z</time>
      </trkpt>
      <trkpt lat="48.23921" lon="-4.06415">
        <ele>99.7</ele>
        <time>2020-06-08T13:30:16Z</time>
      </trkpt>
      <trkpt lat="48.23922" lon="-4.06421">
        <ele>99.8</ele>
        <time>2020-06-08T13:30:17Z</time>
      </trkpt>
      <trkpt lat="48.23924" lon="-4.06426">
        <ele>100</ele>
        <time>2020-06-08T13:30:18Z</time>
      </trkpt>
      <trkpt lat="48.23926" lon="-4.06431">
        <ele>100.2</ele>
        <time>2020-06-08T13:30:19Z</time>
      </trkpt>
      <trkpt lat="48.23929" lon="-4.06436">
        <ele>100.3</ele>
        <time>2020-06-08T13:30:20Z</time>
      </trkpt>
      <trkpt lat="48.23931" lon="-4.06441">
        <ele>100.5</ele>
        <time>2020-06-08T13:30:21Z</time>
      </trkpt>
      <trkpt lat="48.23934" lon="-4.06444">
        <ele>100.7</ele>
        <time>2020-06-08T13:30:22Z</time>
      </trkpt>
      <trkpt lat="48.23937" lon="-4.06447">
        <ele>101.1</ele>
        <time>2020-06-08T13:30:23Z</time>
      </trkpt>
      <trkpt lat="48.2394" lon="-4.0645">
        <ele>101.3</ele>
        <time>2020-06-08T13:30:24Z</time>
      </trkpt>
      <trkpt lat="48.23943" lon="-4.06453">
        <ele>101.5</ele>
        <time>2020-06-08T13:30:25Z</time>
      </trkpt>
      <trkpt lat="48.23945" lon="-4.06457">
        <ele>101.7</ele>
        <time>2020-06-08T13:30:26Z</time>
      </trkpt>
      <trkpt lat="48.23946" lon="-4.06462">
        <ele>101.9</ele>
        <time>2020-06-08T13:30:27Z</time>
      </trkpt>
      <trkpt lat="48.23948" lon="-4.06467">
        <ele>102.2</ele>
        <time>2020-06-08T13:30:28Z</time>
      </trkpt>
      <trkpt lat="48.23949" lon="-4.06468">
        <ele>102.2</ele>
        <time>2020-06-08T13:30:29Z</time>
      </trkpt>
      <trkpt lat="48.23952" lon="-4.06471">
        <ele>102.5</ele>
        <time>2020-06-08T13:30:30Z</time>
      </trkpt>
      <trkpt lat="48.23952" lon="-4.06473">
        <ele>102.6</ele>
        <time>2020-06-08T13:30:31Z</time>
      </trkpt>
      <trkpt lat="48.23955" lon="-4.06477">
        <ele>102.9</ele>
        <time>2020-06-08T13:30:32Z</time>
      </trkpt>
      <trkpt lat="48.23956" lon="-4.06478">
        <ele>103</ele>
        <time>2020-06-08T13:30:33Z</time>
      </trkpt>
      <trkpt lat="48.23959" lon="-4.06481">
        <ele>103.2</ele>
        <time>2020-06-08T13:30:34Z</time>
      </trkpt>
      <trkpt lat="48.23961" lon="-4.06483">
        <ele>103.4</ele>
        <time>2020-06-08T13:30:35Z</time>
      </trkpt>
      <trkpt lat="48.23963" lon="-4.06486">
        <ele>103.6</ele>
        <time>2020-06-08T13:30:36Z</time>
      </trkpt>
      <trkpt lat="48.23966" lon="-4.06489">
        <ele>103.8</ele>
        <time>2020-06-08T13:30:37Z</time>
      </trkpt>
      <trkpt lat="48.23968" lon="-4.06492">
        <ele>104</ele>
        <time>2020-06-08T13:30:38Z</time>
      </trkpt>
      <trkpt lat="48.23971" lon="-4.06495">
        <ele>104.3</ele>
        <time>2020-06-08T13:30:39Z</time>
      </trkpt>
      <trkpt lat="48.23973" lon="-4.06498">
        <ele>104.5</ele>
        <time>2020-06-08T13:30:40Z</time>
      </trkpt>
      <trkpt lat="48.23975" lon="-4.06501">
        <ele>104.7</ele>
        <time>2020-06-08T13:30:41Z</time>
      </trkpt>
      <trkpt lat="48.23977" lon="-4.06505">
        <ele>104.9</ele>
        <time>2020-06-08T13:30:42Z</time>
      </trkpt>
      <trkpt lat="48.23977" lon="-4.06506">
        <ele>105</ele>
        <time>2020-06-08T13:30:43Z</time>
      </trkpt>
      <trkpt lat="48.23981" lon="-4.06509">
        <ele>105.3</ele>
        <time>2020-06-08T13:30:44Z</time>
      </trkpt>
      <trkpt lat="48.23982" lon="-4.0651">
        <ele>105.4</ele>
        <time>2020-06-08T13:30:45Z</time>
      </trkpt>
      <trkpt lat="48.23984" lon="-4.06515">
        <ele>105.7</ele>
        <time>2020-06-08T13:30:46Z</time>
      </trkpt>
      <trkpt lat="48.23985" lon="-4.06516">
        <ele>105.8</ele>
        <time>2020-06-08T13:30:47Z</time>
      </trkpt>
      <trkpt lat="48.23988" lon="-4.06517">
        <ele>106</ele>
        <time>2020-06-08T13:30:48Z</time>
      </trkpt>
      <trkpt lat="48.23991" lon="-4.06517">
        <ele>106.2</ele>
        <time>2020-06-08T13:30:49Z</time>
      </trkpt>
      <trkpt lat="48.23993" lon="-4.06519">
        <ele>106.2</ele>
        <time>2020-06-08T13:30:50Z</time>
      </trkpt>
      <trkpt lat="48.23996" lon="-4.06521">
        <ele>106.3</ele>
        <time>2020-06-08T13:30:51Z</time>
      </trkpt>
      <trkpt lat="48.23998" lon="-4.06525">
        <ele>106.5</ele>
        <time>2020-06-08T13:30:52Z</time>
      </trkpt>
      <trkpt lat="48.23999" lon="-4.06525">
        <ele>106.5</ele>
        <time>2020-06-08T13:30:53Z</time>
      </trkpt>
      <trkpt lat="48.24002" lon="-4.06528">
        <ele>106.7</ele>
        <time>2020-06-08T13:30:54Z</time>
      </trkpt>
      <trkpt lat="48.24004" lon="-4.06529">
        <ele>106.8</ele>
        <time>2020-06-08T13:30:55Z</time>
      </trkpt>
      <trkpt lat="48.24007" lon="-4.06532">
        <ele>107</ele>
        <time>2020-06-08T13:30:56Z</time>
      </trkpt>
      <trkpt lat="48.2401" lon="-4.06535">
        <ele>107.2</ele>
        <time>2020-06-08T13:30:57Z</time>
      </trkpt>
      <trkpt lat="48.24013" lon="-4.06536">
        <ele>107.3</ele>
        <time>2020-06-08T13:30:58Z</time>
      </trkpt>
      <trkpt lat="48.24016" lon="-4.06538">
        <ele>107.5</ele>
        <time>2020-06-08T13:30:59Z</time>
      </trkpt>
      <trkpt lat="48.24018" lon="-4.0654">
        <ele>107.6</ele>
        <time>2020-06-08T13:31:00Z</time>
      </trkpt>
      <trkpt lat="48.24021" lon="-4.06545">
        <ele>107.7</ele>
        <time>2020-06-08T13:31:01Z</time>
      </trkpt>
      <trkpt lat="48.24024" lon="-4.06548">
        <ele>107.8</ele>
        <time>2020-06-08T13:31:02Z</time>
      </trkpt>
      <trkpt lat="48.24026" lon="-4.06552">
        <ele>108</ele>
        <time>2020-06-08T13:31:03Z</time>
      </trkpt>
      <trkpt lat="48.24029" lon="-4.06555">
        <ele>108.1</ele>
        <time>2020-06-08T13:31:04Z</time>
      </trkpt>
      <trkpt lat="48.24032" lon="-4.06559">
        <ele>108.2</ele>
        <time>2020-06-08T13:31:05Z</time>
      </trkpt>
      <trkpt lat="48.24035" lon="-4.06562">
        <ele>108.3</ele>
        <time>2020-06-08T13:31:06Z</time>
      </trkpt>
      <trkpt lat="48.24038" lon="-4.06565">
        <ele>108.4</ele>
        <time>2020-06-08T13:31:07Z</time>
      </trkpt>
      <trkpt lat="48.24041" lon="-4.06568">
        <ele>108.5</ele>
        <time>2020-06-08T13:31:08Z</time>
      </trkpt>
      <trkpt lat="48.24043" lon="-4.06572">
        <ele>108.6</ele>
        <time>2020-06-08T13:31:09Z</time>
      </trkpt>
      <trkpt lat="48.24046" lon="-4.06575">
        <ele>108.7</ele>
        <time>2020-06-08T13:31:10Z</time>
      </trkpt>
      <trkpt lat="48.2405" lon="-4.06575">
        <ele>108.9</ele>
        <time>2020-06-08T13:31:11Z</time>
      </trkpt>
      <trkpt lat="48.24053" lon="-4.06578">
        <ele>109</ele>
        <time>2020-06-08T13:31:12Z</time>
      </trkpt>
      <trkpt lat="48.24055" lon="-4.06581">
        <ele>109.1</ele>
        <time>2020-06-08T13:31:13Z</time>
      </trkpt>
      <trkpt lat="48.24057" lon="-4.06585">
        <ele>109.2</ele>
        <time>2020-06-08T13:31:14Z</time>
      </trkpt>
      <trkpt lat="48.2406" lon="-4.06588">
        <ele>109.2</ele>
        <time>2020-06-08T13:31:15Z</time>
      </trkpt>
      <trkpt lat="48.24062" lon="-4.06591">
        <ele>109.3</ele>
        <time>2020-06-08T13:31:16Z</time>
      </trkpt>
      <trkpt lat="48.24065" lon="-4.06593">
        <ele>109.4</ele>
        <time>2020-06-08T13:31:17Z</time>
      </trkpt>
      <trkpt lat="48.24067" lon="-4.06596">
        <ele>109.5</ele>
        <time>2020-06-08T13:31:18Z</time>
      </trkpt>
      <trkpt lat="48.24068" lon="-4.066">
        <ele>109.6</ele>
        <time>2020-06-08T13:31:19Z</time>
      </trkpt>
      <trkpt lat="48.2407" lon="-4.06604">
        <ele>109.7</ele>
        <time>2020-06-08T13:31:20Z</time>
      </trkpt>
      <trkpt lat="48.24073" lon="-4.06606">
        <ele>109.7</ele>
        <time>2020-06-08T13:31:21Z</time>
      </trkpt>
      <trkpt lat="48.24075" lon="-4.0661">
        <ele>109.8</ele>
        <time>2020-06-08T13:31:22Z</time>
      </trkpt>
      <trkpt lat="48.24077" lon="-4.06614">
        <ele>109.9</ele>
        <time>2020-06-08T13:31:23Z</time>
      </trkpt>
      <trkpt lat="48.2408" lon="-4.06616">
        <ele>109.9</ele>
        <time>2020-06-08T13:31:24Z</time>
      </trkpt>
      <trkpt lat="48.24081" lon="-4.0662">
        <ele>110</ele>
        <time>2020-06-08T13:31:25Z</time>
      </trkpt>
      <trkpt lat="48.24081" lon="-4.06624">
        <ele>110.1</ele>
        <time>2020-06-08T13:31:26Z</time>
      </trkpt>
      <trkpt lat="48.24081" lon="-4.06629">
        <ele>110.1</ele>
        <time>2020-06-08T13:31:27Z</time>
      </trkpt>
      <trkpt lat="48.24083" lon="-4.06634">
        <ele>110.2</ele>
        <time>2020-06-08T13:31:28Z</time>
      </trkpt>
      <trkpt lat="48.24083" lon="-4.06636">
        <ele>110.3</ele>
        <time>2020-06-08T13:31:29Z</time>
      </trkpt>
      <trkpt lat="48.24083" lon="-4.06641">
        <ele>110.4</ele>
        <time>2020-06-08T13:31:30Z</time>
      </trkpt>
      <trkpt lat="48.24084" lon="-4.06646">
        <ele>110.5</ele>
        <time>2020-06-08T13:31:31Z</time>
      </trkpt>
      <trkpt lat="48.24085" lon="-4.0665">
        <ele>110.5</ele>
        <time>2020-06-08T13:31:32Z</time>
      </trkpt>
      <trkpt lat="48.24086" lon="-4.06655">
        <ele>110.6</ele>
        <time>2020-06-08T13:31:33Z</time>
      </trkpt>
      <trkpt lat="48.24088" lon="-4.0666">
        <ele>110.7</ele>
        <time>2020-06-08T13:31:34Z</time>
      </trkpt>
      <trkpt lat="48.24087" lon="-4.06665">
        <ele>110.8</ele>
        <time>2020-06-08T13:31:35Z</time>
      </trkpt>
      <trkpt lat="48.24088" lon="-4.0667">
        <ele>110.9</ele>
        <time>2020-06-08T13:31:36Z</time>
      </trkpt>
      <trkpt lat="48.24088" lon="-4.06675">
        <ele>111</ele>
        <time>2020-06-08T13:31:37Z</time>
      </trkpt>
      <trkpt lat="48.24089" lon="-4.06679">
        <ele>111.1</ele>
        <time>2020-06-08T13:31:38Z</time>
      </trkpt>
      <trkpt lat="48.24092" lon="-4.06683">
        <ele>111.2</ele>
        <time>2020-06-08T13:31:39Z</time>
      </trkpt>
      <trkpt lat="48.24093" lon="-4.06687">
        <ele>111.3</ele>
        <time>2020-06-08T13:31:40Z</time>
      </trkpt>
      <trkpt lat="48.24094" lon="-4.06692">
        <ele>111.4</ele>
        <time>2020-06-08T13:31:41Z</time>
      </trkpt>
      <trkpt lat="48.24095" lon="-4.06697">
        <ele>111.4</ele>
        <time>2020-06-08T13:31:42Z</time>
      </trkpt>
      <trkpt lat="48.24096" lon="-4.06702">
        <ele>111.5</ele>
        <time>2020-06-08T13:31:43Z</time>
      </trkpt>
      <trkpt lat="48.24098" lon="-4.06707">
        <ele>111.6</ele>
        <time>2020-06-08T13:31:44Z</time>
      </trkpt>
      <trkpt lat="48.24098" lon="-4.06712">
        <ele>111.6</ele>
        <time>2020-06-08T13:31:45Z</time>
      </trkpt>
      <trkpt lat="48.24098" lon="-4.06717">
        <ele>111.7</ele>
        <time>2020-06-08T13:31:46Z</time>
      </trkpt>
      <trkpt lat="48.24099" lon="-4.06722">
        <ele>111.8</ele>
        <time>2020-06-08T13:31:47Z</time>
      </trkpt>
      <trkpt lat="48.241" lon="-4.06726">
        <ele>111.8</ele>
        <time>2020-06-08T13:31:48Z</time>
      </trkpt>
      <trkpt lat="48.241" lon="-4.0673">
        <ele>111.9</ele>
        <time>2020-06-08T13:31:49Z</time>
      </trkpt>
      <trkpt lat="48.24101" lon="-4.06735">
        <ele>112</ele>
        <time>2020-06-08T13:31:50Z</time>
      </trkpt>
      <trkpt lat="48.24102" lon="-4.06739">
        <ele>112.1</ele>
        <time>2020-06-08T13:31:51Z</time>
      </trkpt>
      <trkpt lat="48.24104" lon="-4.06743">
        <ele>112.1</ele>
        <time>2020-06-08T13:31:52Z</time>
      </trkpt>
      <trkpt lat="48.24105" lon="-4.06748">
        <ele>112.2</ele>
        <time>2020-06-08T13:31:53Z</time>
      </trkpt>
      <trkpt lat="48.24106" lon="-4.06752">
        <ele>112.3</ele>
        <time>2020-06-08T13:31:54Z</time>
      </trkpt>
      <trkpt lat="48.24107" lon="-4.06757">
        <ele>112.4</ele>
        <time>2020-06-08T13:31:55Z</time>
      </trkpt>
      <trkpt lat="48.24108" lon="-4.06762">
        <ele>112.5</ele>
        <time>2020-06-08T13:31:56Z</time>
      </trkpt>
      <trkpt lat="48.24107" lon="-4.06767">
        <ele>112.5</ele>
        <time>2020-06-08T13:31:57Z</time>
      </trkpt>
      <trkpt lat="48.24108" lon="-4.06772">
        <ele>112.6</ele>
        <time>2020-06-08T13:31:58Z</time>
      </trkpt>
      <trkpt lat="48.24109" lon="-4.06777">
        <ele>112.7</ele>
        <time>2020-06-08T13:31:59Z</time>
      </trkpt>
      <trkpt lat="48.24109" lon="-4.06781">
        <ele>112.8</ele>
        <time>2020-06-08T13:32:00Z</time>
      </trkpt>
      <trkpt lat="48.24112" lon="-4.06785">
        <ele>112.9</ele>
        <time>2020-06-08T13:32:01Z</time>
      </trkpt>
      <trkpt lat="48.24112" lon="-4.0679">
        <ele>112.9</ele>
        <time>2020-06-08T13:32:02Z</time>
      </trkpt>
      <trkpt lat="48.24114" lon="-4.06795">
        <ele>113</ele>
        <time>2020-06-08T13:32:03Z</time>
      </trkpt>
      <trkpt lat="48.24115" lon="-4.06799">
        <ele>113.1</ele>
        <time>2020-06-08T13:32:04Z</time>
      </trkpt>
      <trkpt lat="48.24117" lon="-4.06803">
        <ele>113.1</ele>
        <time>2020-06-08T13:32:05Z</time>
      </trkpt>
      <trkpt lat="48.24117" lon="-4.06808">
        <ele>113.1</ele>
        <time>2020-06-08T13:32:06Z</time>
      </trkpt>
      <trkpt lat="48.24118" lon="-4.06812">
        <ele>113.1</ele>
        <time>2020-06-08T13:32:07Z</time>
      </trkpt>
      <trkpt lat="48.24118" lon="-4.06816">
        <ele>113.2</ele>
        <time>2020-06-08T13:32:08Z</time>
      </trkpt>
      <trkpt lat="48.24119" lon="-4.06821">
        <ele>113.2</ele>
        <time>2020-06-08T13:32:09Z</time>
      </trkpt>
      <trkpt lat="48.2412" lon="-4.06825">
        <ele>113.2</ele>
        <time>2020-06-08T13:32:10Z</time>
      </trkpt>
      <trkpt lat="48.2412" lon="-4.0683">
        <ele>113.3</ele>
        <time>2020-06-08T13:32:11Z</time>
      </trkpt>
      <trkpt lat="48.24121" lon="-4.06835">
        <ele>113.3</ele>
        <time>2020-06-08T13:32:12Z</time>
      </trkpt>
      <trkpt lat="48.24121" lon="-4.06841">
        <ele>113.4</ele>
        <time>2020-06-08T13:32:13Z</time>
      </trkpt>
      <trkpt lat="48.24122" lon="-4.06846">
        <ele>113.5</ele>
        <time>2020-06-08T13:32:14Z</time>
      </trkpt>
      <trkpt lat="48.24124" lon="-4.0685">
        <ele>113.5</ele>
        <time>2020-06-08T13:32:15Z</time>
      </trkpt>
      <trkpt lat="48.24125" lon="-4.06855">
        <ele>113.6</ele>
        <time>2020-06-08T13:32:16Z</time>
      </trkpt>
      <trkpt lat="48.24127" lon="-4.06859">
        <ele>113.7</ele>
        <time>2020-06-08T13:32:17Z</time>
      </trkpt>
      <trkpt lat="48.24128" lon="-4.06864">
        <ele>113.7</ele>
        <time>2020-06-08T13:32:18Z</time>
      </trkpt>
      <trkpt lat="48.24129" lon="-4.06869">
        <ele>113.8</ele>
        <time>2020-06-08T13:32:19Z</time>
      </trkpt>
      <trkpt lat="48.2413" lon="-4.06874">
        <ele>113.8</ele>
        <time>2020-06-08T13:32:20Z</time>
      </trkpt>
      <trkpt lat="48.24131" lon="-4.06879">
        <ele>113.9</ele>
        <time>2020-06-08T13:32:21Z</time>
      </trkpt>
      <trkpt lat="48.24131" lon="-4.06884">
        <ele>113.9</ele>
        <time>2020-06-08T13:32:22Z</time>
      </trkpt>
      <trkpt lat="48.24132" lon="-4.06889">
        <ele>114</ele>
        <time>2020-06-08T13:32:23Z</time>
      </trkpt>
      <trkpt lat="48.24133" lon="-4.06894">
        <ele>114</ele>
        <time>2020-06-08T13:32:24Z</time>
      </trkpt>
      <trkpt lat="48.24134" lon="-4.06899">
        <ele>114.1</ele>
        <time>2020-06-08T13:32:25Z</time>
      </trkpt>
      <trkpt lat="48.24136" lon="-4.06903">
        <ele>114.1</ele>
        <time>2020-06-08T13:32:26Z</time>
      </trkpt>
      <trkpt lat="48.24137" lon="-4.06908">
        <ele>114.1</ele>
        <time>2020-06-08T13:32:27Z</time>
      </trkpt>
      <trkpt lat="48.24138" lon="-4.06913">
        <ele>114.2</ele>
        <time>2020-06-08T13:32:28Z</time>
      </trkpt>
      <trkpt lat="48.24139" lon="-4.06918">
        <ele>114.2</ele>
        <time>2020-06-08T13:32:29Z</time>
      </trkpt>
      <trkpt lat="48.24139" lon="-4.06923">
        <ele>114.2</ele>
        <time>2020-06-08T13:32:30Z</time>
      </trkpt>
      <trkpt lat="48.2414" lon="-4.06928">
        <ele>114.2</ele>
        <time>2020-06-08T13:32:31Z</time>
      </trkpt>
      <trkpt lat="48.2414" lon="-4.06933">
        <ele>114.3</ele>
        <time>2020-06-08T13:32:32Z</time>
      </trkpt>
      <trkpt lat="48.24142" lon="-4.06938">
        <ele>114.3</ele>
        <time>2020-06-08T13:32:33Z</time>
      </trkpt>
      <trkpt lat="48.24144" lon="-4.06942">
        <ele>114.3</ele>
        <time>2020-06-08T13:32:34Z</time>
      </trkpt>
      <trkpt lat="48.24145" lon="-4.06947">
        <ele>114.4</ele>
        <time>2020-06-08T13:32:35Z</time>
      </trkpt>
      <trkpt lat="48.24146" lon="-4.06953">
        <ele>114.4</ele>
        <time>2020-06-08T13:32:36Z</time>
      </trkpt>
      <trkpt lat="48.24147" lon="-4.06958">
        <ele>114.5</ele>
        <time>2020-06-08T13:32:37Z</time>
      </trkpt>
      <trkpt lat="48.24149" lon="-4.06962">
        <ele>114.5</ele>
        <time>2020-06-08T13:32:38Z</time>
      </trkpt>
      <trkpt lat="48.24149" lon="-4.06967">
        <ele>114.6</ele>
        <time>2020-06-08T13:32:39Z</time>
      </trkpt>
      <trkpt lat="48.24152" lon="-4.06971">
        <ele>114.7</ele>
        <time>2020-06-08T13:32:40Z</time>
      </trkpt>
      <trkpt lat="48.24154" lon="-4.06976">
        <ele>114.8</ele>
        <time>2020-06-08T13:32:41Z</time>
      </trkpt>
      <trkpt lat="48.24155" lon="-4.0698">
        <ele>114.8</ele>
        <time>2020-06-08T13:32:42Z</time>
      </trkpt>
      <trkpt lat="48.24157" lon="-4.06985">
        <ele>114.9</ele>
        <time>2020-06-08T13:32:43Z</time>
      </trkpt>
      <trkpt lat="48.24158" lon="-4.06989">
        <ele>115</ele>
        <time>2020-06-08T13:32:44Z</time>
      </trkpt>
      <trkpt lat="48.2416" lon="-4.06994">
        <ele>115.1</ele>
        <time>2020-06-08T13:32:45Z</time>
      </trkpt>
      <trkpt lat="48.24162" lon="-4.06998">
        <ele>115.1</ele>
        <time>2020-06-08T13:32:46Z</time>
      </trkpt>
      <trkpt lat="48.24163" lon="-4.07004">
        <ele>115.2</ele>
        <time>2020-06-08T13:32:47Z</time>
      </trkpt>
      <trkpt lat="48.24164" lon="-4.07008">
        <ele>115.2</ele>
        <time>2020-06-08T13:32:48Z</time>
      </trkpt>
      <trkpt lat="48.24166" lon="-4.07013">
        <ele>115.2</ele>
        <time>2020-06-08T13:32:49Z</time>
      </trkpt>
      <trkpt lat="48.24168" lon="-4.07018">
        <ele>115.3</ele>
        <time>2020-06-08T13:32:50Z</time>
      </trkpt>
      <trkpt lat="48.24169" lon="-4.07024">
        <ele>115.3</ele>
        <time>2020-06-08T13:32:51Z</time>
      </trkpt>
      <trkpt lat="48.24171" lon="-4.07028">
        <ele>115.3</ele>
        <time>2020-06-08T13:32:52Z</time>
      </trkpt>
      <trkpt lat="48.24172" lon="-4.07034">
        <ele>115.4</ele>
        <time>2020-06-08T13:32:53Z</time>
      </trkpt>
      <trkpt lat="48.24173" lon="-4.07039">
        <ele>115.4</ele>
        <time>2020-06-08T13:32:54Z</time>
      </trkpt>
      <trkpt lat="48.24175" lon="-4.07043">
        <ele>115.4</ele>
        <time>2020-06-08T13:32:55Z</time>
      </trkpt>
      <trkpt lat="48.24177" lon="-4.07047">
        <ele>115.5</ele>
        <time>2020-06-08T13:32:56Z</time>
      </trkpt>
      <trkpt lat="48.24179" lon="-4.07051">
        <ele>115.5</ele>
        <time>2020-06-08T13:32:57Z</time>
      </trkpt>
      <trkpt lat="48.24183" lon="-4.07054">
        <ele>115.5</ele>
        <time>2020-06-08T13:32:58Z</time>
      </trkpt>
      <trkpt lat="48.24184" lon="-4.0706">
        <ele>115.5</ele>
        <time>2020-06-08T13:32:59Z</time>
      </trkpt>
      <trkpt lat="48.24186" lon="-4.07064">
        <ele>115.6</ele>
        <time>2020-06-08T13:33:00Z</time>
      </trkpt>
      <trkpt lat="48.24188" lon="-4.07069">
        <ele>115.6</ele>
        <time>2020-06-08T13:33:01Z</time>
      </trkpt>
      <trkpt lat="48.2419" lon="-4.07073">
        <ele>115.6</ele>
        <time>2020-06-08T13:33:02Z</time>
      </trkpt>
      <trkpt lat="48.24193" lon="-4.07078">
        <ele>115.6</ele>
        <time>2020-06-08T13:33:03Z</time>
      </trkpt>
      <trkpt lat="48.24194" lon="-4.07083">
        <ele>115.6</ele>
        <time>2020-06-08T13:33:04Z</time>
      </trkpt>
      <trkpt lat="48.24196" lon="-4.07088">
        <ele>115.7</ele>
        <time>2020-06-08T13:33:05Z</time>
      </trkpt>
      <trkpt lat="48.24198" lon="-4.07094">
        <ele>115.7</ele>
        <time>2020-06-08T13:33:06Z</time>
      </trkpt>
      <trkpt lat="48.24199" lon="-4.07099">
        <ele>115.8</ele>
        <time>2020-06-08T13:33:07Z</time>
      </trkpt>
      <trkpt lat="48.24201" lon="-4.07103">
        <ele>115.8</ele>
        <time>2020-06-08T13:33:08Z</time>
      </trkpt>
      <trkpt lat="48.24203" lon="-4.07108">
        <ele>115.9</ele>
        <time>2020-06-08T13:33:09Z</time>
      </trkpt>
      <trkpt lat="48.24205" lon="-4.07112">
        <ele>116</ele>
        <time>2020-06-08T13:33:10Z</time>
      </trkpt>
      <trkpt lat="48.24208" lon="-4.07117">
        <ele>116</ele>
        <time>2020-06-08T13:33:11Z</time>
      </trkpt>
      <trkpt lat="48.2421" lon="-4.07121">
        <ele>116.1</ele>
        <time>2020-06-08T13:33:12Z</time>
      </trkpt>
      <trkpt lat="48.24213" lon="-4.07125">
        <ele>116.2</ele>
        <time>2020-06-08T13:33:13Z</time>
      </trkpt>
      <trkpt lat="48.24215" lon="-4.0713">
        <ele>116.3</ele>
        <time>2020-06-08T13:33:14Z</time>
      </trkpt>
      <trkpt lat="48.24217" lon="-4.07134">
        <ele>116.3</ele>
        <time>2020-06-08T13:33:15Z</time>
      </trkpt>
      <trkpt lat="48.2422" lon="-4.07137">
        <ele>116.4</ele>
        <time>2020-06-08T13:33:16Z</time>
      </trkpt>
      <trkpt lat="48.24223" lon="-4.07141">
        <ele>116.5</ele>
        <time>2020-06-08T13:33:17Z</time>
      </trkpt>
      <trkpt lat="48.24224" lon="-4.07146">
        <ele>116.5</ele>
        <time>2020-06-08T13:33:18Z</time>
      </trkpt>
      <trkpt lat="48.24226" lon="-4.07151">
        <ele>116.6</ele>
        <time>2020-06-08T13:33:19Z</time>
      </trkpt>
      <trkpt lat="48.24228" lon="-4.07156">
        <ele>116.7</ele>
        <time>2020-06-08T13:33:20Z</time>
      </trkpt>
      <trkpt lat="48.24231" lon="-4.0716">
        <ele>116.8</ele>
        <time>2020-06-08T13:33:21Z</time>
      </trkpt>
      <trkpt lat="48.24233" lon="-4.07165">
        <ele>116.8</ele>
        <time>2020-06-08T13:33:22Z</time>
      </trkpt>
      <trkpt lat="48.24235" lon="-4.07169">
        <ele>116.9</ele>
        <time>2020-06-08T13:33:23Z</time>
      </trkpt>
      <trkpt lat="48.24236" lon="-4.07174">
        <ele>117</ele>
        <time>2020-06-08T13:33:24Z</time>
      </trkpt>
      <trkpt lat="48.24237" lon="-4.07179">
        <ele>117</ele>
        <time>2020-06-08T13:33:25Z</time>
      </trkpt>
      <trkpt lat="48.24239" lon="-4.07184">
        <ele>117.1</ele>
        <time>2020-06-08T13:33:26Z</time>
      </trkpt>
      <trkpt lat="48.2424" lon="-4.07189">
        <ele>117.1</ele>
        <time>2020-06-08T13:33:27Z</time>
      </trkpt>
      <trkpt lat="48.24243" lon="-4.07192">
        <ele>117.2</ele>
        <time>2020-06-08T13:33:28Z</time>
      </trkpt>
      <trkpt lat="48.24244" lon="-4.07197">
        <ele>117.2</ele>
        <time>2020-06-08T13:33:29Z</time>
      </trkpt>
      <trkpt lat="48.24246" lon="-4.07201">
        <ele>117.3</ele>
        <time>2020-06-08T13:33:30Z</time>
      </trkpt>
      <trkpt lat="48.24248" lon="-4.07205">
        <ele>117.3</ele>
        <time>2020-06-08T13:33:31Z</time>
      </trkpt>
      <trkpt lat="48.2425" lon="-4.0721">
        <ele>117.4</ele>
        <time>2020-06-08T13:33:32Z</time>
      </trkpt>
      <trkpt lat="48.24251" lon="-4.07214">
        <ele>117.5</ele>
        <time>2020-06-08T13:33:33Z</time>
      </trkpt>
      <trkpt lat="48.24254" lon="-4.07219">
        <ele>117.5</ele>
        <time>2020-06-08T13:33:34Z</time>
      </trkpt>
      <trkpt lat="48.24256" lon="-4.07223">
        <ele>117.6</ele>
        <time>2020-06-08T13:33:35Z</time>
      </trkpt>
      <trkpt lat="48.24258" lon="-4.07227">
        <ele>117.7</ele>
        <time>2020-06-08T13:33:36Z</time>
      </trkpt>
      <trkpt lat="48.24259" lon="-4.07232">
        <ele>117.7</ele>
        <time>2020-06-08T13:33:37Z</time>
      </trkpt>
      <trkpt lat="48.24262" lon="-4.07235">
        <ele>117.8</ele>
        <time>2020-06-08T13:33:38Z</time>
      </trkpt>
      <trkpt lat="48.24265" lon="-4.07239">
        <ele>117.9</ele>
        <time>2020-06-08T13:33:39Z</time>
      </trkpt>
      <trkpt lat="48.24267" lon="-4.07242">
        <ele>117.9</ele>
        <time>2020-06-08T13:33:40Z</time>
      </trkpt>
      <trkpt lat="48.24269" lon="-4.07246">
        <ele>118</ele>
        <time>2020-06-08T13:33:41Z</time>
      </trkpt>
      <trkpt lat="48.24271" lon="-4.07251">
        <ele>118.1</ele>
        <time>2020-06-08T13:33:42Z</time>
      </trkpt>
      <trkpt lat="48.24273" lon="-4.07255">
        <ele>118.1</ele>
        <time>2020-06-08T13:33:43Z</time>
      </trkpt>
      <trkpt lat="48.24274" lon="-4.0726">
        <ele>118.1</ele>
        <time>2020-06-08T13:33:44Z</time>
      </trkpt>
      <trkpt lat="48.24276" lon="-4.07264">
        <ele>118.2</ele>
        <time>2020-06-08T13:33:45Z</time>
      </trkpt>
      <trkpt lat="48.24278" lon="-4.07269">
        <ele>118.2</ele>
        <time>2020-06-08T13:33:46Z</time>
      </trkpt>
      <trkpt lat="48.24279" lon="-4.07274">
        <ele>118.2</ele>
        <time>2020-06-08T13:33:47Z</time>
      </trkpt>
      <trkpt lat="48.24281" lon="-4.07278">
        <ele>118.2</ele>
        <time>2020-06-08T13:33:48Z</time>
      </trkpt>
      <trkpt lat="48.24283" lon="-4.07283">
        <ele>118.2</ele>
        <time>2020-06-08T13:33:49Z</time>
      </trkpt>
      <trkpt lat="48.24284" lon="-4.07288">
        <ele>118.3</ele>
        <time>2020-06-08T13:33:50Z</time>
      </trkpt>
      <trkpt lat="48.24286" lon="-4.07292">
        <ele>118.3</ele>
        <time>2020-06-08T13:33:51Z</time>
      </trkpt>
      <trkpt lat="48.24288" lon="-4.07297">
        <ele>118.3</ele>
        <time>2020-06-08T13:33:52Z</time>
      </trkpt>
      <trkpt lat="48.2429" lon="-4.07301">
        <ele>118.3</ele>
        <time>2020-06-08T13:33:53Z</time>
      </trkpt>
      <trkpt lat="48.24292" lon="-4.07306">
        <ele>118.3</ele>
        <time>2020-06-08T13:33:54Z</time>
      </trkpt>
      <trkpt lat="48.24294" lon="-4.0731">
        <ele>118.3</ele>
        <time>2020-06-08T13:33:55Z</time>
      </trkpt>
      <trkpt lat="48.24295" lon="-4.07315">
        <ele>118.3</ele>
        <time>2020-06-08T13:33:56Z</time>
      </trkpt>
      <trkpt lat="48.24297" lon="-4.0732">
        <ele>118.3</ele>
        <time>2020-06-08T13:33:57Z</time>
      </trkpt>
      <trkpt lat="48.24298" lon="-4.07325">
        <ele>118.2</ele>
        <time>2020-06-08T13:33:58Z</time>
      </trkpt>
      <trkpt lat="48.243" lon="-4.0733">
        <ele>118.2</ele>
        <time>2020-06-08T13:33:59Z</time>
      </trkpt>
      <trkpt lat="48.24301" lon="-4.07336">
        <ele>118.2</ele>
        <time>2020-06-08T13:34:00Z</time>
      </trkpt>
      <trkpt lat="48.24303" lon="-4.07341">
        <ele>118.1</ele>
        <time>2020-06-08T13:34:01Z</time>
      </trkpt>
      <trkpt lat="48.24306" lon="-4.07345">
        <ele>118</ele>
        <time>2020-06-08T13:34:02Z</time>
      </trkpt>
      <trkpt lat="48.24308" lon="-4.0735">
        <ele>117.9</ele>
        <time>2020-06-08T13:34:03Z</time>
      </trkpt>
      <trkpt lat="48.24311" lon="-4.07354">
        <ele>117.8</ele>
        <time>2020-06-08T13:34:04Z</time>
      </trkpt>
      <trkpt lat="48.24313" lon="-4.0736">
        <ele>117.7</ele>
        <time>2020-06-08T13:34:05Z</time>
      </trkpt>
      <trkpt lat="48.24316" lon="-4.07366">
        <ele>117.5</ele>
        <time>2020-06-08T13:34:06Z</time>
      </trkpt>
      <trkpt lat="48.24318" lon="-4.07372">
        <ele>117.3</ele>
        <time>2020-06-08T13:34:07Z</time>
      </trkpt>
      <trkpt lat="48.24321" lon="-4.07378">
        <ele>117.1</ele>
        <time>2020-06-08T13:34:08Z</time>
      </trkpt>
      <trkpt lat="48.24323" lon="-4.07385">
        <ele>116.9</ele>
        <time>2020-06-08T13:34:09Z</time>
      </trkpt>
      <trkpt lat="48.24326" lon="-4.07392">
        <ele>116.7</ele>
        <time>2020-06-08T13:34:10Z</time>
      </trkpt>
      <trkpt lat="48.2433" lon="-4.07398">
        <ele>116.3</ele>
        <time>2020-06-08T13:34:11Z</time>
      </trkpt>
      <trkpt lat="48.24332" lon="-4.07406">
        <ele>116.1</ele>
        <time>2020-06-08T13:34:12Z</time>
      </trkpt>
      <trkpt lat="48.24336" lon="-4.07413">
        <ele>115.8</ele>
        <time>2020-06-08T13:34:13Z</time>
      </trkpt>
      <trkpt lat="48.24338" lon="-4.07421">
        <ele>115.5</ele>
        <time>2020-06-08T13:34:14Z</time>
      </trkpt>
      <trkpt lat="48.24342" lon="-4.07429">
        <ele>115.1</ele>
        <time>2020-06-08T13:34:15Z</time>
      </trkpt>
      <trkpt lat="48.24346" lon="-4.07438">
        <ele>114.8</ele>
        <time>2020-06-08T13:34:16Z</time>
      </trkpt>
      <trkpt lat="48.24349" lon="-4.07448">
        <ele>114.3</ele>
        <time>2020-06-08T13:34:17Z</time>
      </trkpt>
      <trkpt lat="48.24353" lon="-4.07458">
        <ele>113.8</ele>
        <time>2020-06-08T13:34:18Z</time>
      </trkpt>
      <trkpt lat="48.24357" lon="-4.07468">
        <ele>113.2</ele>
        <time>2020-06-08T13:34:19Z</time>
      </trkpt>
      <trkpt lat="48.24362" lon="-4.07479">
        <ele>112.6</ele>
        <time>2020-06-08T13:34:20Z</time>
      </trkpt>
      <trkpt lat="48.24366" lon="-4.0749">
        <ele>112</ele>
        <time>2020-06-08T13:34:21Z</time>
      </trkpt>
      <trkpt lat="48.24372" lon="-4.07501">
        <ele>111.5</ele>
        <time>2020-06-08T13:34:22Z</time>
      </trkpt>
      <trkpt lat="48.24377" lon="-4.07512">
        <ele>110.9</ele>
        <time>2020-06-08T13:34:23Z</time>
      </trkpt>
      <trkpt lat="48.24382" lon="-4.07523">
        <ele>110.4</ele>
        <time>2020-06-08T13:34:24Z</time>
      </trkpt>
      <trkpt lat="48.24387" lon="-4.07535">
        <ele>109.9</ele>
        <time>2020-06-08T13:34:25Z</time>
      </trkpt>
      <trkpt lat="48.24392" lon="-4.07547">
        <ele>109.4</ele>
        <time>2020-06-08T13:34:26Z</time>
      </trkpt>
      <trkpt lat="48.24397" lon="-4.07559">
        <ele>108.9</ele>
        <time>2020-06-08T13:34:27Z</time>
      </trkpt>
      <trkpt lat="48.24402" lon="-4.07571">
        <ele>108.4</ele>
        <time>2020-06-08T13:34:28Z</time>
      </trkpt>
      <trkpt lat="48.24408" lon="-4.07583">
        <ele>108</ele>
        <time>2020-06-08T13:34:29Z</time>
      </trkpt>
      <trkpt lat="48.24413" lon="-4.07594">
        <ele>107.6</ele>
        <time>2020-06-08T13:34:30Z</time>
      </trkpt>
      <trkpt lat="48.24418" lon="-4.07605">
        <ele>107.3</ele>
        <time>2020-06-08T13:34:31Z</time>
      </trkpt>
      <trkpt lat="48.24423" lon="-4.07616">
        <ele>107.1</ele>
        <time>2020-06-08T13:34:32Z</time>
      </trkpt>
      <trkpt lat="48.24428" lon="-4.07626">
        <ele>107</ele>
        <time>2020-06-08T13:34:33Z</time>
      </trkpt>
      <trkpt lat="48.24433" lon="-4.07636">
        <ele>106.9</ele>
        <time>2020-06-08T13:34:34Z</time>
      </trkpt>
      <trkpt lat="48.24439" lon="-4.07645">
        <ele>106.8</ele>
        <time>2020-06-08T13:34:35Z</time>
      </trkpt>
      <trkpt lat="48.24444" lon="-4.07653">
        <ele>106.7</ele>
        <time>2020-06-08T13:34:36Z</time>
      </trkpt>
      <trkpt lat="48.2445" lon="-4.07661">
        <ele>106.6</ele>
        <time>2020-06-08T13:34:37Z</time>
      </trkpt>
      <trkpt lat="48.24456" lon="-4.07669">
        <ele>106.5</ele>
        <time>2020-06-08T13:34:38Z</time>
      </trkpt>
      <trkpt lat="48.24461" lon="-4.07676">
        <ele>106.5</ele>
        <time>2020-06-08T13:34:39Z</time>
      </trkpt>
      <trkpt lat="48.24467" lon="-4.07683">
        <ele>106.4</ele>
        <time>2020-06-08T13:34:40Z</time>
      </trkpt>
      <trkpt lat="48.24472" lon="-4.07691">
        <ele>106.4</ele>
        <time>2020-06-08T13:34:41Z</time>
      </trkpt>
      <trkpt lat="48.24477" lon="-4.07697">
        <ele>106.5</ele>
        <time>2020-06-08T13:34:42Z</time>
      </trkpt>
      <trkpt lat="48.24482" lon="-4.07703">
        <ele>106.5</ele>
        <time>2020-06-08T13:34:43Z</time>
      </trkpt>
      <trkpt lat="48.24487" lon="-4.07708">
        <ele>106.5</ele>
        <time>2020-06-08T13:34:44Z</time>
      </trkpt>
      <trkpt lat="48.24492" lon="-4.07713">
        <ele>106.6</ele>
        <time>2020-06-08T13:34:45Z</time>
      </trkpt>
      <trkpt lat="48.24497" lon="-4.07718">
        <ele>106.6</ele>
        <time>2020-06-08T13:34:46Z</time>
      </trkpt>
      <trkpt lat="48.24502" lon="-4.07723">
        <ele>106.6</ele>
        <time>2020-06-08T13:34:47Z</time>
      </trkpt>
      <trkpt lat="48.24507" lon="-4.07727">
        <ele>106.6</ele>
        <time>2020-06-08T13:34:48Z</time>
      </trkpt>
      <trkpt lat="48.24511" lon="-4.07732">
        <ele>106.6</ele>
        <time>2020-06-08T13:34:49Z</time>
      </trkpt>
      <trkpt lat="48.24516" lon="-4.07736">
        <ele>106.6</ele>
        <time>2020-06-08T13:34:50Z</time>
      </trkpt>
      <trkpt lat="48.2452" lon="-4.07739">
        <ele>106.6</ele>
        <time>2020-06-08T13:34:51Z</time>
      </trkpt>
      <trkpt lat="48.24525" lon="-4.07744">
        <ele>106.6</ele>
        <time>2020-06-08T13:34:52Z</time>
      </trkpt>
      <trkpt lat="48.24529" lon="-4.07748">
        <ele>106.6</ele>
        <time>2020-06-08T13:34:53Z</time>
      </trkpt>
      <trkpt lat="48.24533" lon="-4.07752">
        <ele>106.6</ele>
        <time>2020-06-08T13:34:54Z</time>
      </trkpt>
      <trkpt lat="48.24537" lon="-4.07757">
        <ele>106.6</ele>
        <time>2020-06-08T13:34:55Z</time>
      </trkpt>
      <trkpt lat="48.24542" lon="-4.07761">
        <ele>106.6</ele>
        <time>2020-06-08T13:34:56Z</time>
      </trkpt>
      <trkpt lat="48.24548" lon="-4.07764">
        <ele>106.6</ele>
        <time>2020-06-08T13:34:57Z</time>
      </trkpt>
      <trkpt lat="48.24552" lon="-4.07769">
        <ele>106.5</ele>
        <time>2020-06-08T13:34:58Z</time>
      </trkpt>
      <trkpt lat="48.24557" lon="-4.07773">
        <ele>106.5</ele>
        <time>2020-06-08T13:34:59Z</time>
      </trkpt>
      <trkpt lat="48.24562" lon="-4.07778">
        <ele>106.5</ele>
        <time>2020-06-08T13:35:00Z</time>
      </trkpt>
      <trkpt lat="48.24566" lon="-4.07783">
        <ele>106.5</ele>
        <time>2020-06-08T13:35:01Z</time>
      </trkpt>
      <trkpt lat="48.2457" lon="-4.07788">
        <ele>106.4</ele>
        <time>2020-06-08T13:35:02Z</time>
      </trkpt>
      <trkpt lat="48.24575" lon="-4.07793">
        <ele>106.3</ele>
        <time>2020-06-08T13:35:03Z</time>
      </trkpt>
      <trkpt lat="48.24579" lon="-4.07799">
        <ele>106.2</ele>
        <time>2020-06-08T13:35:04Z</time>
      </trkpt>
      <trkpt lat="48.24584" lon="-4.07806">
        <ele>106.1</ele>
        <time>2020-06-08T13:35:05Z</time>
      </trkpt>
      <trkpt lat="48.24588" lon="-4.07811">
        <ele>105.9</ele>
        <time>2020-06-08T13:35:06Z</time>
      </trkpt>
      <trkpt lat="48.24593" lon="-4.07817">
        <ele>105.8</ele>
        <time>2020-06-08T13:35:07Z</time>
      </trkpt>
      <trkpt lat="48.24597" lon="-4.07822">
        <ele>105.7</ele>
        <time>2020-06-08T13:35:08Z</time>
      </trkpt>
      <trkpt lat="48.24602" lon="-4.07827">
        <ele>105.5</ele>
        <time>2020-06-08T13:35:09Z</time>
      </trkpt>
      <trkpt lat="48.24605" lon="-4.07834">
        <ele>105.4</ele>
        <time>2020-06-08T13:35:10Z</time>
      </trkpt>
      <trkpt lat="48.24609" lon="-4.07841">
        <ele>105.2</ele>
        <time>2020-06-08T13:35:11Z</time>
      </trkpt>
      <trkpt lat="48.24613" lon="-4.07848">
        <ele>105.1</ele>
        <time>2020-06-08T13:35:12Z</time>
      </trkpt>
      <trkpt lat="48.24617" lon="-4.07855">
        <ele>104.9</ele>
        <time>2020-06-08T13:35:13Z</time>
      </trkpt>
      <trkpt lat="48.24621" lon="-4.07862">
        <ele>104.7</ele>
        <time>2020-06-08T13:35:14Z</time>
      </trkpt>
      <trkpt lat="48.24626" lon="-4.07869">
        <ele>104.5</ele>
        <time>2020-06-08T13:35:15Z</time>
      </trkpt>
      <trkpt lat="48.24631" lon="-4.07876">
        <ele>104.4</ele>
        <time>2020-06-08T13:35:16Z</time>
      </trkpt>
      <trkpt lat="48.24637" lon="-4.07883">
        <ele>104.2</ele>
        <time>2020-06-08T13:35:17Z</time>
      </trkpt>
      <trkpt lat="48.24643" lon="-4.07891">
        <ele>104.1</ele>
        <time>2020-06-08T13:35:18Z</time>
      </trkpt>
      <trkpt lat="48.24647" lon="-4.079">
        <ele>103.9</ele>
        <time>2020-06-08T13:35:19Z</time>
      </trkpt>
      <trkpt lat="48.24652" lon="-4.07908">
        <ele>103.6</ele>
        <time>2020-06-08T13:35:20Z</time>
      </trkpt>
      <trkpt lat="48.24658" lon="-4.07916">
        <ele>103.3</ele>
        <time>2020-06-08T13:35:21Z</time>
      </trkpt>
      <trkpt lat="48.24663" lon="-4.07924">
        <ele>103</ele>
        <time>2020-06-08T13:35:22Z</time>
      </trkpt>
      <trkpt lat="48.24668" lon="-4.07933">
        <ele>102.7</ele>
        <time>2020-06-08T13:35:23Z</time>
      </trkpt>
      <trkpt lat="48.24674" lon="-4.07942">
        <ele>102.4</ele>
        <time>2020-06-08T13:35:24Z</time>
      </trkpt>
      <trkpt lat="48.24679" lon="-4.0795">
        <ele>102.1</ele>
        <time>2020-06-08T13:35:25Z</time>
      </trkpt>
      <trkpt lat="48.24684" lon="-4.07958">
        <ele>101.8</ele>
        <time>2020-06-08T13:35:26Z</time>
      </trkpt>
      <trkpt lat="48.24689" lon="-4.07965">
        <ele>101.5</ele>
        <time>2020-06-08T13:35:27Z</time>
      </trkpt>
      <trkpt lat="48.24694" lon="-4.07973">
        <ele>101.2</ele>
        <time>2020-06-08T13:35:28Z</time>
      </trkpt>
      <trkpt lat="48.24699" lon="-4.07981">
        <ele>100.8</ele>
        <time>2020-06-08T13:35:29Z</time>
      </trkpt>
      <trkpt lat="48.24704" lon="-4.0799">
        <ele>100.5</ele>
        <time>2020-06-08T13:35:30Z</time>
      </trkpt>
      <trkpt lat="48.24709" lon="-4.07998">
        <ele>100.1</ele>
        <time>2020-06-08T13:35:31Z</time>
      </trkpt>
      <trkpt lat="48.24715" lon="-4.08007">
        <ele>99.7</ele>
        <time>2020-06-08T13:35:32Z</time>
      </trkpt>
      <trkpt lat="48.24721" lon="-4.08015">
        <ele>99.4</ele>
        <time>2020-06-08T13:35:33Z</time>
      </trkpt>
      <trkpt lat="48.24726" lon="-4.08024">
        <ele>99.2</ele>
        <time>2020-06-08T13:35:34Z</time>
      </trkpt>
      <trkpt lat="48.24731" lon="-4.08033">
        <ele>98.9</ele>
        <time>2020-06-08T13:35:35Z</time>
      </trkpt>
      <trkpt lat="48.24737" lon="-4.08042">
        <ele>98.7</ele>
        <time>2020-06-08T13:35:36Z</time>
      </trkpt>
      <trkpt lat="48.24742" lon="-4.08051">
        <ele>98.5</ele>
        <time>2020-06-08T13:35:37Z</time>
      </trkpt>
      <trkpt lat="48.24748" lon="-4.08059">
        <ele>98.3</ele>
        <time>2020-06-08T13:35:38Z</time>
      </trkpt>
      <trkpt lat="48.24754" lon="-4.08067">
        <ele>98.2</ele>
        <time>2020-06-08T13:35:39Z</time>
      </trkpt>
      <trkpt lat="48.24759" lon="-4.08076">
        <ele>98</ele>
        <time>2020-06-08T13:35:40Z</time>
      </trkpt>
      <trkpt lat="48.24765" lon="-4.08084">
        <ele>97.9</ele>
        <time>2020-06-08T13:35:41Z</time>
      </trkpt>
      <trkpt lat="48.2477" lon="-4.08092">
        <ele>97.9</ele>
        <time>2020-06-08T13:35:42Z</time>
      </trkpt>
      <trkpt lat="48.24776" lon="-4.08099">
        <ele>97.8</ele>
        <time>2020-06-08T13:35:43Z</time>
      </trkpt>
      <trkpt lat="48.24781" lon="-4.08107">
        <ele>97.7</ele>
        <time>2020-06-08T13:35:44Z</time>
      </trkpt>
      <trkpt lat="48.24786" lon="-4.08116">
        <ele>97.7</ele>
        <time>2020-06-08T13:35:45Z</time>
      </trkpt>
      <trkpt lat="48.24792" lon="-4.08123">
        <ele>97.7</ele>
        <time>2020-06-08T13:35:46Z</time>
      </trkpt>
      <trkpt lat="48.24797" lon="-4.08131">
        <ele>97.7</ele>
        <time>2020-06-08T13:35:47Z</time>
      </trkpt>
      <trkpt lat="48.24802" lon="-4.08137">
        <ele>97.7</ele>
        <time>2020-06-08T13:35:48Z</time>
      </trkpt>
      <trkpt lat="48.24807" lon="-4.08142">
        <ele>97.7</ele>
        <time>2020-06-08T13:35:49Z</time>
      </trkpt>
      <trkpt lat="48.24812" lon="-4.08148">
        <ele>97.8</ele>
        <time>2020-06-08T13:35:50Z</time>
      </trkpt>
      <trkpt lat="48.24816" lon="-4.08155">
        <ele>97.8</ele>
        <time>2020-06-08T13:35:51Z</time>
      </trkpt>
      <trkpt lat="48.2482" lon="-4.08161">
        <ele>97.9</ele>
        <time>2020-06-08T13:35:52Z</time>
      </trkpt>
      <trkpt lat="48.24823" lon="-4.08167">
        <ele>98</ele>
        <time>2020-06-08T13:35:53Z</time>
      </trkpt>
      <trkpt lat="48.24827" lon="-4.08174">
        <ele>98</ele>
        <time>2020-06-08T13:35:54Z</time>
      </trkpt>
      <trkpt lat="48.2483" lon="-4.0818">
        <ele>98.1</ele>
        <time>2020-06-08T13:35:55Z</time>
      </trkpt>
      <trkpt lat="48.24833" lon="-4.08185">
        <ele>98.2</ele>
        <time>2020-06-08T13:35:56Z</time>
      </trkpt>
      <trkpt lat="48.24836" lon="-4.08189">
        <ele>98.4</ele>
        <time>2020-06-08T13:35:57Z</time>
      </trkpt>
      <trkpt lat="48.24839" lon="-4.08191">
        <ele>98.4</ele>
        <time>2020-06-08T13:35:58Z</time>
      </trkpt>
      <trkpt lat="48.24843" lon="-4.08188">
        <ele>98.4</ele>
        <time>2020-06-08T13:35:59Z</time>
      </trkpt>
      <trkpt lat="48.24846" lon="-4.08184">
        <ele>98.4</ele>
        <time>2020-06-08T13:36:00Z</time>
      </trkpt>
      <trkpt lat="48.2485" lon="-4.0818">
        <ele>98.4</ele>
        <time>2020-06-08T13:36:01Z</time>
      </trkpt>
      <trkpt lat="48.24854" lon="-4.08175">
        <ele>98.3</ele>
        <time>2020-06-08T13:36:02Z</time>
      </trkpt>
      <trkpt lat="48.24859" lon="-4.0817">
        <ele>98.3</ele>
        <time>2020-06-08T13:36:03Z</time>
      </trkpt>
      <trkpt lat="48.24865" lon="-4.08166">
        <ele>98.3</ele>
        <time>2020-06-08T13:36:04Z</time>
      </trkpt>
      <trkpt lat="48.2487" lon="-4.08162">
        <ele>98.2</ele>
        <time>2020-06-08T13:36:05Z</time>
      </trkpt>
      <trkpt lat="48.24875" lon="-4.08157">
        <ele>98.2</ele>
        <time>2020-06-08T13:36:06Z</time>
      </trkpt>
      <trkpt lat="48.2488" lon="-4.08153">
        <ele>98.2</ele>
        <time>2020-06-08T13:36:07Z</time>
      </trkpt>
      <trkpt lat="48.24884" lon="-4.08149">
        <ele>98.2</ele>
        <time>2020-06-08T13:36:08Z</time>
      </trkpt>
      <trkpt lat="48.24889" lon="-4.08144">
        <ele>98.2</ele>
        <time>2020-06-08T13:36:09Z</time>
      </trkpt>
      <trkpt lat="48.24894" lon="-4.08142">
        <ele>98.2</ele>
        <time>2020-06-08T13:36:10Z</time>
      </trkpt>
      <trkpt lat="48.24898" lon="-4.08136">
        <ele>98.3</ele>
        <time>2020-06-08T13:36:11Z</time>
      </trkpt>
      <trkpt lat="48.24903" lon="-4.08132">
        <ele>98.3</ele>
        <time>2020-06-08T13:36:12Z</time>
      </trkpt>
      <trkpt lat="48.24907" lon="-4.08129">
        <ele>98.4</ele>
        <time>2020-06-08T13:36:13Z</time>
      </trkpt>
      <trkpt lat="48.24912" lon="-4.08126">
        <ele>98.4</ele>
        <time>2020-06-08T13:36:14Z</time>
      </trkpt>
      <trkpt lat="48.24916" lon="-4.08123">
        <ele>98.4</ele>
        <time>2020-06-08T13:36:15Z</time>
      </trkpt>
      <trkpt lat="48.24921" lon="-4.0812">
        <ele>98.4</ele>
        <time>2020-06-08T13:36:16Z</time>
      </trkpt>
      <trkpt lat="48.24925" lon="-4.08116">
        <ele>98.5</ele>
        <time>2020-06-08T13:36:17Z</time>
      </trkpt>
      <trkpt lat="48.24929" lon="-4.08112">
        <ele>98.5</ele>
        <time>2020-06-08T13:36:18Z</time>
      </trkpt>
      <trkpt lat="48.24933" lon="-4.08109">
        <ele>98.5</ele>
        <time>2020-06-08T13:36:19Z</time>
      </trkpt>
      <trkpt lat="48.24937" lon="-4.08105">
        <ele>98.5</ele>
        <time>2020-06-08T13:36:20Z</time>
      </trkpt>
      <trkpt lat="48.2494" lon="-4.08102">
        <ele>98.4</ele>
        <time>2020-06-08T13:36:21Z</time>
      </trkpt>
      <trkpt lat="48.24942" lon="-4.08099">
        <ele>98.4</ele>
        <time>2020-06-08T13:36:22Z</time>
      </trkpt>
      <trkpt lat="48.24946" lon="-4.08096">
        <ele>98.4</ele>
        <time>2020-06-08T13:36:23Z</time>
      </trkpt>
      <trkpt lat="48.24949" lon="-4.08094">
        <ele>98.4</ele>
        <time>2020-06-08T13:36:24Z</time>
      </trkpt>
      <trkpt lat="48.24953" lon="-4.08092">
        <ele>98.3</ele>
        <time>2020-06-08T13:36:25Z</time>
      </trkpt>
      <trkpt lat="48.24957" lon="-4.08091">
        <ele>98.3</ele>
        <time>2020-06-08T13:36:26Z</time>
      </trkpt>
      <trkpt lat="48.24961" lon="-4.0809">
        <ele>98.3</ele>
        <time>2020-06-08T13:36:27Z</time>
      </trkpt>
      <trkpt lat="48.24965" lon="-4.08089">
        <ele>98.2</ele>
        <time>2020-06-08T13:36:28Z</time>
      </trkpt>
      <trkpt lat="48.24969" lon="-4.08087">
        <ele>98.2</ele>
        <time>2020-06-08T13:36:29Z</time>
      </trkpt>
      <trkpt lat="48.24973" lon="-4.08084">
        <ele>98.1</ele>
        <time>2020-06-08T13:36:30Z</time>
      </trkpt>
      <trkpt lat="48.24978" lon="-4.08079">
        <ele>98.1</ele>
        <time>2020-06-08T13:36:31Z</time>
      </trkpt>
      <trkpt lat="48.24981" lon="-4.08073">
        <ele>98</ele>
        <time>2020-06-08T13:36:32Z</time>
      </trkpt>
      <trkpt lat="48.24986" lon="-4.0807">
        <ele>98</ele>
        <time>2020-06-08T13:36:33Z</time>
      </trkpt>
      <trkpt lat="48.24991" lon="-4.08066">
        <ele>97.9</ele>
        <time>2020-06-08T13:36:34Z</time>
      </trkpt>
      <trkpt lat="48.24995" lon="-4.08064">
        <ele>97.8</ele>
        <time>2020-06-08T13:36:35Z</time>
      </trkpt>
      <trkpt lat="48.24999" lon="-4.08061">
        <ele>97.8</ele>
        <time>2020-06-08T13:36:36Z</time>
      </trkpt>
      <trkpt lat="48.25003" lon="-4.08058">
        <ele>97.8</ele>
        <time>2020-06-08T13:36:37Z</time>
      </trkpt>
      <trkpt lat="48.25007" lon="-4.08055">
        <ele>97.8</ele>
        <time>2020-06-08T13:36:38Z</time>
      </trkpt>
      <trkpt lat="48.25013" lon="-4.08053">
        <ele>97.8</ele>
        <time>2020-06-08T13:36:39Z</time>
      </trkpt>
      <trkpt lat="48.25017" lon="-4.0805">
        <ele>97.8</ele>
        <time>2020-06-08T13:36:40Z</time>
      </trkpt>
      <trkpt lat="48.25022" lon="-4.08047">
        <ele>97.8</ele>
        <time>2020-06-08T13:36:41Z</time>
      </trkpt>
      <trkpt lat="48.25025" lon="-4.08045">
        <ele>97.8</ele>
        <time>2020-06-08T13:36:42Z</time>
      </trkpt>
      <trkpt lat="48.25026" lon="-4.08044">
        <ele>97.9</ele>
        <time>2020-06-08T13:36:43Z</time>
      </trkpt>
      <trkpt lat="48.25027" lon="-4.08044">
        <ele>97.9</ele>
        <time>2020-06-08T13:36:44Z</time>
      </trkpt>
      <trkpt lat="48.25027" lon="-4.08045">
        <ele>97.9</ele>
        <time>2020-06-08T13:36:45Z</time>
      </trkpt>
      <trkpt lat="48.25026" lon="-4.08047">
        <ele>97.9</ele>
        <time>2020-06-08T13:36:46Z</time>
      </trkpt>
      <trkpt lat="48.25023" lon="-4.08048">
        <ele>97.9</ele>
        <time>2020-06-08T13:36:47Z</time>
      </trkpt>
      <trkpt lat="48.25021" lon="-4.08052">
        <ele>97.9</ele>
        <time>2020-06-08T13:36:48Z</time>
      </trkpt>
      <trkpt lat="48.2502" lon="-4.08054">
        <ele>97.9</ele>
        <time>2020-06-08T13:36:49Z</time>
      </trkpt>
      <trkpt lat="48.25019" lon="-4.08059">
        <ele>97.9</ele>
        <time>2020-06-08T13:36:50Z</time>
      </trkpt>
      <trkpt lat="48.25018" lon="-4.08061">
        <ele>97.9</ele>
        <time>2020-06-08T13:36:51Z</time>
      </trkpt>
      <trkpt lat="48.25019" lon="-4.08066">
        <ele>97.9</ele>
        <time>2020-06-08T13:36:52Z</time>
      </trkpt>
      <trkpt lat="48.25019" lon="-4.0807">
        <ele>98</ele>
        <time>2020-06-08T13:36:53Z</time>
      </trkpt>
      <trkpt lat="48.25021" lon="-4.08074">
        <ele>98</ele>
        <time>2020-06-08T13:36:54Z</time>
      </trkpt>
      <trkpt lat="48.25022" lon="-4.08078">
        <ele>98</ele>
        <time>2020-06-08T13:36:55Z</time>
      </trkpt>
      <trkpt lat="48.25024" lon="-4.08083">
        <ele>98</ele>
        <time>2020-06-08T13:36:56Z</time>
      </trkpt>
      <trkpt lat="48.25025" lon="-4.08088">
        <ele>98</ele>
        <time>2020-06-08T13:36:57Z</time>
      </trkpt>
      <trkpt lat="48.25026" lon="-4.08094">
        <ele>98.1</ele>
        <time>2020-06-08T13:36:58Z</time>
      </trkpt>
      <trkpt lat="48.25027" lon="-4.08099">
        <ele>98.1</ele>
        <time>2020-06-08T13:36:59Z</time>
      </trkpt>
      <trkpt lat="48.25029" lon="-4.08103">
        <ele>98.1</ele>
        <time>2020-06-08T13:37:00Z</time>
      </trkpt>
      <trkpt lat="48.2503" lon="-4.08107">
        <ele>98.1</ele>
        <time>2020-06-08T13:37:01Z</time>
      </trkpt>
      <trkpt lat="48.25031" lon="-4.08111">
        <ele>98.2</ele>
        <time>2020-06-08T13:37:02Z</time>
      </trkpt>
      <trkpt lat="48.25032" lon="-4.08115">
        <ele>98.1</ele>
        <time>2020-06-08T13:37:03Z</time>
      </trkpt>
      <trkpt lat="48.25033" lon="-4.0812">
        <ele>98.1</ele>
        <time>2020-06-08T13:37:04Z</time>
      </trkpt>
      <trkpt lat="48.25034" lon="-4.08124">
        <ele>98.1</ele>
        <time>2020-06-08T13:37:05Z</time>
      </trkpt>
      <trkpt lat="48.25036" lon="-4.08128">
        <ele>98.1</ele>
        <time>2020-06-08T13:37:06Z</time>
      </trkpt>
      <trkpt lat="48.25037" lon="-4.08132">
        <ele>98</ele>
        <time>2020-06-08T13:37:07Z</time>
      </trkpt>
      <trkpt lat="48.25037" lon="-4.08137">
        <ele>98</ele>
        <time>2020-06-08T13:37:08Z</time>
      </trkpt>
      <trkpt lat="48.25038" lon="-4.08142">
        <ele>98</ele>
        <time>2020-06-08T13:37:09Z</time>
      </trkpt>
      <trkpt lat="48.25039" lon="-4.08146">
        <ele>98.1</ele>
        <time>2020-06-08T13:37:10Z</time>
      </trkpt>
      <trkpt lat="48.25039" lon="-4.08151">
        <ele>98.1</ele>
        <time>2020-06-08T13:37:11Z</time>
      </trkpt>
      <trkpt lat="48.2504" lon="-4.08156">
        <ele>98.2</ele>
        <time>2020-06-08T13:37:12Z</time>
      </trkpt>
      <trkpt lat="48.25041" lon="-4.0816">
        <ele>98.2</ele>
        <time>2020-06-08T13:37:13Z</time>
      </trkpt>
      <trkpt lat="48.25043" lon="-4.08165">
        <ele>98.3</ele>
        <time>2020-06-08T13:37:14Z</time>
      </trkpt>
      <trkpt lat="48.25043" lon="-4.0817">
        <ele>98.3</ele>
        <time>2020-06-08T13:37:15Z</time>
      </trkpt>
      <trkpt lat="48.25043" lon="-4.08174">
        <ele>98.4</ele>
        <time>2020-06-08T13:37:16Z</time>
      </trkpt>
      <trkpt lat="48.25044" lon="-4.08179">
        <ele>98.4</ele>
        <time>2020-06-08T13:37:17Z</time>
      </trkpt>
      <trkpt lat="48.25045" lon="-4.08184">
        <ele>98.5</ele>
        <time>2020-06-08T13:37:18Z</time>
      </trkpt>
      <trkpt lat="48.25047" lon="-4.08189">
        <ele>98.6</ele>
        <time>2020-06-08T13:37:19Z</time>
      </trkpt>
      <trkpt lat="48.25048" lon="-4.08194">
        <ele>98.7</ele>
        <time>2020-06-08T13:37:20Z</time>
      </trkpt>
      <trkpt lat="48.2505" lon="-4.08199">
        <ele>98.8</ele>
        <time>2020-06-08T13:37:21Z</time>
      </trkpt>
      <trkpt lat="48.25052" lon="-4.08203">
        <ele>98.8</ele>
        <time>2020-06-08T13:37:22Z</time>
      </trkpt>
      <trkpt lat="48.25053" lon="-4.08208">
        <ele>98.9</ele>
        <time>2020-06-08T13:37:23Z</time>
      </trkpt>
      <trkpt lat="48.25054" lon="-4.08213">
        <ele>98.9</ele>
        <time>2020-06-08T13:37:24Z</time>
      </trkpt>
      <trkpt lat="48.25056" lon="-4.08218">
        <ele>98.9</ele>
        <time>2020-06-08T13:37:25Z</time>
      </trkpt>
      <trkpt lat="48.25058" lon="-4.08223">
        <ele>99</ele>
        <time>2020-06-08T13:37:26Z</time>
      </trkpt>
      <trkpt lat="48.25059" lon="-4.08228">
        <ele>99</ele>
        <time>2020-06-08T13:37:27Z</time>
      </trkpt>
      <trkpt lat="48.25061" lon="-4.08233">
        <ele>99</ele>
        <time>2020-06-08T13:37:28Z</time>
      </trkpt>
      <trkpt lat="48.25063" lon="-4.08238">
        <ele>99.1</ele>
        <time>2020-06-08T13:37:29Z</time>
      </trkpt>
      <trkpt lat="48.25064" lon="-4.08243">
        <ele>99.1</ele>
        <time>2020-06-08T13:37:30Z</time>
      </trkpt>
      <trkpt lat="48.25066" lon="-4.08247">
        <ele>99.1</ele>
        <time>2020-06-08T13:37:31Z</time>
      </trkpt>
      <trkpt lat="48.25068" lon="-4.08251">
        <ele>99.1</ele>
        <time>2020-06-08T13:37:32Z</time>
      </trkpt>
      <trkpt lat="48.2507" lon="-4.08255">
        <ele>99.2</ele>
        <time>2020-06-08T13:37:33Z</time>
      </trkpt>
      <trkpt lat="48.25073" lon="-4.08259">
        <ele>99.2</ele>
        <time>2020-06-08T13:37:34Z</time>
      </trkpt>
      <trkpt lat="48.25075" lon="-4.08263">
        <ele>99.2</ele>
        <time>2020-06-08T13:37:35Z</time>
      </trkpt>
      <trkpt lat="48.25077" lon="-4.08268">
        <ele>99.1</ele>
        <time>2020-06-08T13:37:36Z</time>
      </trkpt>
      <trkpt lat="48.25079" lon="-4.08272">
        <ele>99.1</ele>
        <time>2020-06-08T13:37:37Z</time>
      </trkpt>
      <trkpt lat="48.25082" lon="-4.08275">
        <ele>99.1</ele>
        <time>2020-06-08T13:37:38Z</time>
      </trkpt>
      <trkpt lat="48.25084" lon="-4.0828">
        <ele>99.1</ele>
        <time>2020-06-08T13:37:39Z</time>
      </trkpt>
      <trkpt lat="48.25087" lon="-4.08284">
        <ele>99</ele>
        <time>2020-06-08T13:37:40Z</time>
      </trkpt>
      <trkpt lat="48.2509" lon="-4.08287">
        <ele>98.9</ele>
        <time>2020-06-08T13:37:41Z</time>
      </trkpt>
      <trkpt lat="48.25093" lon="-4.0829">
        <ele>98.8</ele>
        <time>2020-06-08T13:37:42Z</time>
      </trkpt>
      <trkpt lat="48.25097" lon="-4.08293">
        <ele>98.7</ele>
        <time>2020-06-08T13:37:43Z</time>
      </trkpt>
      <trkpt lat="48.251" lon="-4.08296">
        <ele>98.6</ele>
        <time>2020-06-08T13:37:44Z</time>
      </trkpt>
      <trkpt lat="48.25103" lon="-4.08299">
        <ele>98.5</ele>
        <time>2020-06-08T13:37:45Z</time>
      </trkpt>
      <trkpt lat="48.25106" lon="-4.08303">
        <ele>98.4</ele>
        <time>2020-06-08T13:37:46Z</time>
      </trkpt>
      <trkpt lat="48.25108" lon="-4.08307">
        <ele>98.3</ele>
        <time>2020-06-08T13:37:47Z</time>
      </trkpt>
      <trkpt lat="48.2511" lon="-4.08312">
        <ele>98.1</ele>
        <time>2020-06-08T13:37:48Z</time>
      </trkpt>
      <trkpt lat="48.25112" lon="-4.08317">
        <ele>97.9</ele>
        <time>2020-06-08T13:37:49Z</time>
      </trkpt>
      <trkpt lat="48.25114" lon="-4.08322">
        <ele>97.7</ele>
        <time>2020-06-08T13:37:50Z</time>
      </trkpt>
      <trkpt lat="48.25117" lon="-4.08326">
        <ele>97.4</ele>
        <time>2020-06-08T13:37:51Z</time>
      </trkpt>
      <trkpt lat="48.25118" lon="-4.08331">
        <ele>97.3</ele>
        <time>2020-06-08T13:37:52Z</time>
      </trkpt>
      <trkpt lat="48.2512" lon="-4.08336">
        <ele>97.1</ele>
        <time>2020-06-08T13:37:53Z</time>
      </trkpt>
      <trkpt lat="48.25123" lon="-4.0834">
        <ele>96.9</ele>
        <time>2020-06-08T13:37:54Z</time>
      </trkpt>
      <trkpt lat="48.25125" lon="-4.08345">
        <ele>96.8</ele>
        <time>2020-06-08T13:37:55Z</time>
      </trkpt>
      <trkpt lat="48.25128" lon="-4.08349">
        <ele>96.6</ele>
        <time>2020-06-08T13:37:56Z</time>
      </trkpt>
      <trkpt lat="48.2513" lon="-4.08353">
        <ele>96.4</ele>
        <time>2020-06-08T13:37:57Z</time>
      </trkpt>
      <trkpt lat="48.25133" lon="-4.08356">
        <ele>96.3</ele>
        <time>2020-06-08T13:37:58Z</time>
      </trkpt>
      <trkpt lat="48.25137" lon="-4.0836">
        <ele>96</ele>
        <time>2020-06-08T13:37:59Z</time>
      </trkpt>
      <trkpt lat="48.25141" lon="-4.08365">
        <ele>95.7</ele>
        <time>2020-06-08T13:38:00Z</time>
      </trkpt>
      <trkpt lat="48.25144" lon="-4.08371">
        <ele>95.5</ele>
        <time>2020-06-08T13:38:01Z</time>
      </trkpt>
      <trkpt lat="48.25148" lon="-4.08376">
        <ele>95.2</ele>
        <time>2020-06-08T13:38:02Z</time>
      </trkpt>
      <trkpt lat="48.25152" lon="-4.0838">
        <ele>94.8</ele>
        <time>2020-06-08T13:38:03Z</time>
      </trkpt>
      <trkpt lat="48.25157" lon="-4.08386">
        <ele>94.5</ele>
        <time>2020-06-08T13:38:04Z</time>
      </trkpt>
      <trkpt lat="48.25162" lon="-4.08392">
        <ele>94.3</ele>
        <time>2020-06-08T13:38:05Z</time>
      </trkpt>
      <trkpt lat="48.25167" lon="-4.08397">
        <ele>94</ele>
        <time>2020-06-08T13:38:06Z</time>
      </trkpt>
      <trkpt lat="48.25173" lon="-4.08403">
        <ele>93.7</ele>
        <time>2020-06-08T13:38:07Z</time>
      </trkpt>
      <trkpt lat="48.25179" lon="-4.08409">
        <ele>93.5</ele>
        <time>2020-06-08T13:38:08Z</time>
      </trkpt>
      <trkpt lat="48.25186" lon="-4.08415">
        <ele>93.2</ele>
        <time>2020-06-08T13:38:09Z</time>
      </trkpt>
      <trkpt lat="48.25193" lon="-4.0842">
        <ele>92.9</ele>
        <time>2020-06-08T13:38:10Z</time>
      </trkpt>
      <trkpt lat="48.252" lon="-4.08425">
        <ele>92.6</ele>
        <time>2020-06-08T13:38:11Z</time>
      </trkpt>
      <trkpt lat="48.25206" lon="-4.08429">
        <ele>91.8</ele>
        <time>2020-06-08T13:38:12Z</time>
      </trkpt>
      <trkpt lat="48.25213" lon="-4.08434">
        <ele>91</ele>
        <time>2020-06-08T13:38:13Z</time>
      </trkpt>
      <trkpt lat="48.25219" lon="-4.08438">
        <ele>90.2</ele>
        <time>2020-06-08T13:38:14Z</time>
      </trkpt>
      <trkpt lat="48.25225" lon="-4.08442">
        <ele>89.5</ele>
        <time>2020-06-08T13:38:15Z</time>
      </trkpt>
      <trkpt lat="48.2523" lon="-4.08445">
        <ele>88.8</ele>
        <time>2020-06-08T13:38:16Z</time>
      </trkpt>
      <trkpt lat="48.25235" lon="-4.0845">
        <ele>88.1</ele>
        <time>2020-06-08T13:38:17Z</time>
      </trkpt>
      <trkpt lat="48.25239" lon="-4.08456">
        <ele>87.3</ele>
        <time>2020-06-08T13:38:18Z</time>
      </trkpt>
      <trkpt lat="48.2524" lon="-4.08465">
        <ele>86.3</ele>
        <time>2020-06-08T13:38:19Z</time>
      </trkpt>
      <trkpt lat="48.25238" lon="-4.08474">
        <ele>86.2</ele>
        <time>2020-06-08T13:38:20Z</time>
      </trkpt>
      <trkpt lat="48.25237" lon="-4.08483">
        <ele>86.2</ele>
        <time>2020-06-08T13:38:21Z</time>
      </trkpt>
      <trkpt lat="48.25236" lon="-4.08491">
        <ele>86.1</ele>
        <time>2020-06-08T13:38:22Z</time>
      </trkpt>
      <trkpt lat="48.25236" lon="-4.08498">
        <ele>86.1</ele>
        <time>2020-06-08T13:38:23Z</time>
      </trkpt>
      <trkpt lat="48.25239" lon="-4.08501">
        <ele>85.5</ele>
        <time>2020-06-08T13:38:24Z</time>
      </trkpt>
      <trkpt lat="48.2524" lon="-4.08501">
        <ele>85.4</ele>
        <time>2020-06-08T13:38:25Z</time>
      </trkpt>
      <trkpt lat="48.25242" lon="-4.08501">
        <ele>85</ele>
        <time>2020-06-08T13:38:26Z</time>
      </trkpt>
      <trkpt lat="48.25246" lon="-4.08499">
        <ele>84.5</ele>
        <time>2020-06-08T13:38:27Z</time>
      </trkpt>
      <trkpt lat="48.25251" lon="-4.08498">
        <ele>83.8</ele>
        <time>2020-06-08T13:38:28Z</time>
      </trkpt>
      <trkpt lat="48.25256" lon="-4.08494">
        <ele>83.1</ele>
        <time>2020-06-08T13:38:29Z</time>
      </trkpt>
      <trkpt lat="48.2526" lon="-4.0849">
        <ele>82.5</ele>
        <time>2020-06-08T13:38:30Z</time>
      </trkpt>
      <trkpt lat="48.25266" lon="-4.08488">
        <ele>81.8</ele>
        <time>2020-06-08T13:38:31Z</time>
      </trkpt>
      <trkpt lat="48.25271" lon="-4.08485">
        <ele>81.1</ele>
        <time>2020-06-08T13:38:32Z</time>
      </trkpt>
      <trkpt lat="48.25276" lon="-4.08482">
        <ele>80.4</ele>
        <time>2020-06-08T13:38:33Z</time>
      </trkpt>
      <trkpt lat="48.25283" lon="-4.08481">
        <ele>79.6</ele>
        <time>2020-06-08T13:38:34Z</time>
      </trkpt>
      <trkpt lat="48.25289" lon="-4.0848">
        <ele>78.7</ele>
        <time>2020-06-08T13:38:35Z</time>
      </trkpt>
      <trkpt lat="48.25296" lon="-4.08482">
        <ele>78.5</ele>
        <time>2020-06-08T13:38:36Z</time>
      </trkpt>
      <trkpt lat="48.25303" lon="-4.08484">
        <ele>78.2</ele>
        <time>2020-06-08T13:38:37Z</time>
      </trkpt>
      <trkpt lat="48.2531" lon="-4.08488">
        <ele>78</ele>
        <time>2020-06-08T13:38:38Z</time>
      </trkpt>
      <trkpt lat="48.25316" lon="-4.08491">
        <ele>77.7</ele>
        <time>2020-06-08T13:38:39Z</time>
      </trkpt>
      <trkpt lat="48.25321" lon="-4.08493">
        <ele>77.5</ele>
        <time>2020-06-08T13:38:40Z</time>
      </trkpt>
      <trkpt lat="48.25325" lon="-4.08495">
        <ele>77.1</ele>
        <time>2020-06-08T13:38:41Z</time>
      </trkpt>
      <trkpt lat="48.25329" lon="-4.08496">
        <ele>77</ele>
        <time>2020-06-08T13:38:42Z</time>
      </trkpt>
      <trkpt lat="48.25332" lon="-4.08496">
        <ele>76.9</ele>
        <time>2020-06-08T13:38:43Z</time>
      </trkpt>
      <trkpt lat="48.25333" lon="-4.0849">
        <ele>76.7</ele>
        <time>2020-06-08T13:38:44Z</time>
      </trkpt>
      <trkpt lat="48.25334" lon="-4.08483">
        <ele>76.5</ele>
        <time>2020-06-08T13:38:45Z</time>
      </trkpt>
      <trkpt lat="48.25337" lon="-4.08478">
        <ele>76.4</ele>
        <time>2020-06-08T13:38:46Z</time>
      </trkpt>
      <trkpt lat="48.25341" lon="-4.08473">
        <ele>76.2</ele>
        <time>2020-06-08T13:38:47Z</time>
      </trkpt>
      <trkpt lat="48.25345" lon="-4.08468">
        <ele>75.9</ele>
        <time>2020-06-08T13:38:48Z</time>
      </trkpt>
      <trkpt lat="48.25349" lon="-4.08463">
        <ele>75.7</ele>
        <time>2020-06-08T13:38:49Z</time>
      </trkpt>
      <trkpt lat="48.25355" lon="-4.0846">
        <ele>75.5</ele>
        <time>2020-06-08T13:38:50Z</time>
      </trkpt>
      <trkpt lat="48.2536" lon="-4.08457">
        <ele>75.3</ele>
        <time>2020-06-08T13:38:51Z</time>
      </trkpt>
      <trkpt lat="48.25366" lon="-4.08454">
        <ele>75.1</ele>
        <time>2020-06-08T13:38:52Z</time>
      </trkpt>
      <trkpt lat="48.25371" lon="-4.08453">
        <ele>74.8</ele>
        <time>2020-06-08T13:38:53Z</time>
      </trkpt>
      <trkpt lat="48.25377" lon="-4.08452">
        <ele>74.6</ele>
        <time>2020-06-08T13:38:54Z</time>
      </trkpt>
      <trkpt lat="48.25384" lon="-4.08452">
        <ele>74.3</ele>
        <time>2020-06-08T13:38:55Z</time>
      </trkpt>
      <trkpt lat="48.2539" lon="-4.08452">
        <ele>73.8</ele>
        <time>2020-06-08T13:38:56Z</time>
      </trkpt>
      <trkpt lat="48.25396" lon="-4.08455">
        <ele>73.5</ele>
        <time>2020-06-08T13:38:57Z</time>
      </trkpt>
      <trkpt lat="48.25403" lon="-4.0846">
        <ele>73.1</ele>
        <time>2020-06-08T13:38:58Z</time>
      </trkpt>
      <trkpt lat="48.25408" lon="-4.08467">
        <ele>72.7</ele>
        <time>2020-06-08T13:38:59Z</time>
      </trkpt>
      <trkpt lat="48.25414" lon="-4.08473">
        <ele>72.3</ele>
        <time>2020-06-08T13:39:00Z</time>
      </trkpt>
      <trkpt lat="48.2542" lon="-4.0848">
        <ele>72</ele>
        <time>2020-06-08T13:39:01Z</time>
      </trkpt>
      <trkpt lat="48.25423" lon="-4.08489">
        <ele>71.7</ele>
        <time>2020-06-08T13:39:02Z</time>
      </trkpt>
      <trkpt lat="48.25427" lon="-4.08498">
        <ele>71.4</ele>
        <time>2020-06-08T13:39:03Z</time>
      </trkpt>
      <trkpt lat="48.25431" lon="-4.08508">
        <ele>71.2</ele>
        <time>2020-06-08T13:39:04Z</time>
      </trkpt>
      <trkpt lat="48.25435" lon="-4.08518">
        <ele>70.7</ele>
        <time>2020-06-08T13:39:05Z</time>
      </trkpt>
      <trkpt lat="48.25439" lon="-4.08529">
        <ele>70.4</ele>
        <time>2020-06-08T13:39:06Z</time>
      </trkpt>
      <trkpt lat="48.25444" lon="-4.08539">
        <ele>70.1</ele>
        <time>2020-06-08T13:39:07Z</time>
      </trkpt>
      <trkpt lat="48.25447" lon="-4.08549">
        <ele>69.8</ele>
        <time>2020-06-08T13:39:08Z</time>
      </trkpt>
      <trkpt lat="48.2545" lon="-4.08558">
        <ele>69.6</ele>
        <time>2020-06-08T13:39:09Z</time>
      </trkpt>
      <trkpt lat="48.25452" lon="-4.08566">
        <ele>69.5</ele>
        <time>2020-06-08T13:39:10Z</time>
      </trkpt>
      <trkpt lat="48.25454" lon="-4.08574">
        <ele>69.4</ele>
        <time>2020-06-08T13:39:11Z</time>
      </trkpt>
      <trkpt lat="48.25457" lon="-4.08581">
        <ele>69.3</ele>
        <time>2020-06-08T13:39:12Z</time>
      </trkpt>
      <trkpt lat="48.25458" lon="-4.08588">
        <ele>69.2</ele>
        <time>2020-06-08T13:39:13Z</time>
      </trkpt>
      <trkpt lat="48.25461" lon="-4.08594">
        <ele>69.1</ele>
        <time>2020-06-08T13:39:14Z</time>
      </trkpt>
      <trkpt lat="48.25463" lon="-4.086">
        <ele>69</ele>
        <time>2020-06-08T13:39:15Z</time>
      </trkpt>
      <trkpt lat="48.25466" lon="-4.08605">
        <ele>68.8</ele>
        <time>2020-06-08T13:39:16Z</time>
      </trkpt>
      <trkpt lat="48.25467" lon="-4.0861">
        <ele>68.7</ele>
        <time>2020-06-08T13:39:17Z</time>
      </trkpt>
      <trkpt lat="48.25464" lon="-4.08615">
        <ele>68.6</ele>
        <time>2020-06-08T13:39:18Z</time>
      </trkpt>
      <trkpt lat="48.2546" lon="-4.08617">
        <ele>68.5</ele>
        <time>2020-06-08T13:39:19Z</time>
      </trkpt>
      <trkpt lat="48.25456" lon="-4.0862">
        <ele>68.2</ele>
        <time>2020-06-08T13:39:20Z</time>
      </trkpt>
      <trkpt lat="48.25453" lon="-4.08624">
        <ele>68.1</ele>
        <time>2020-06-08T13:39:21Z</time>
      </trkpt>
      <trkpt lat="48.2545" lon="-4.08629">
        <ele>68</ele>
        <time>2020-06-08T13:39:22Z</time>
      </trkpt>
      <trkpt lat="48.25447" lon="-4.08634">
        <ele>68</ele>
        <time>2020-06-08T13:39:23Z</time>
      </trkpt>
      <trkpt lat="48.25445" lon="-4.08639">
        <ele>67.9</ele>
        <time>2020-06-08T13:39:24Z</time>
      </trkpt>
      <trkpt lat="48.25442" lon="-4.08644">
        <ele>67.8</ele>
        <time>2020-06-08T13:39:25Z</time>
      </trkpt>
      <trkpt lat="48.25439" lon="-4.08648">
        <ele>67.8</ele>
        <time>2020-06-08T13:39:26Z</time>
      </trkpt>
      <trkpt lat="48.25436" lon="-4.08653">
        <ele>67.7</ele>
        <time>2020-06-08T13:39:27Z</time>
      </trkpt>
      <trkpt lat="48.25434" lon="-4.08659">
        <ele>67.7</ele>
        <time>2020-06-08T13:39:28Z</time>
      </trkpt>
      <trkpt lat="48.2543" lon="-4.08663">
        <ele>67.6</ele>
        <time>2020-06-08T13:39:29Z</time>
      </trkpt>
      <trkpt lat="48.25428" lon="-4.08668">
        <ele>67.5</ele>
        <time>2020-06-08T13:39:30Z</time>
      </trkpt>
      <trkpt lat="48.25426" lon="-4.08675">
        <ele>67.4</ele>
        <time>2020-06-08T13:39:31Z</time>
      </trkpt>
      <trkpt lat="48.25424" lon="-4.08681">
        <ele>67.3</ele>
        <time>2020-06-08T13:39:32Z</time>
      </trkpt>
      <trkpt lat="48.25422" lon="-4.08687">
        <ele>67.3</ele>
        <time>2020-06-08T13:39:33Z</time>
      </trkpt>
      <trkpt lat="48.2542" lon="-4.08694">
        <ele>67.3</ele>
        <time>2020-06-08T13:39:34Z</time>
      </trkpt>
      <trkpt lat="48.25417" lon="-4.08701">
        <ele>67.3</ele>
        <time>2020-06-08T13:39:35Z</time>
      </trkpt>
      <trkpt lat="48.25414" lon="-4.08707">
        <ele>67.3</ele>
        <time>2020-06-08T13:39:36Z</time>
      </trkpt>
      <trkpt lat="48.2541" lon="-4.08712">
        <ele>67.3</ele>
        <time>2020-06-08T13:39:37Z</time>
      </trkpt>
      <trkpt lat="48.25408" lon="-4.08718">
        <ele>67.3</ele>
        <time>2020-06-08T13:39:38Z</time>
      </trkpt>
      <trkpt lat="48.25405" lon="-4.08724">
        <ele>67.4</ele>
        <time>2020-06-08T13:39:39Z</time>
      </trkpt>
      <trkpt lat="48.25403" lon="-4.08729">
        <ele>67.4</ele>
        <time>2020-06-08T13:39:40Z</time>
      </trkpt>
      <trkpt lat="48.25401" lon="-4.08734">
        <ele>67.5</ele>
        <time>2020-06-08T13:39:41Z</time>
      </trkpt>
      <trkpt lat="48.254" lon="-4.08739">
        <ele>67.5</ele>
        <time>2020-06-08T13:39:42Z</time>
      </trkpt>
      <trkpt lat="48.25398" lon="-4.08744">
        <ele>67.6</ele>
        <time>2020-06-08T13:39:43Z</time>
      </trkpt>
      <trkpt lat="48.25396" lon="-4.08749">
        <ele>67.6</ele>
        <time>2020-06-08T13:39:44Z</time>
      </trkpt>
      <trkpt lat="48.25394" lon="-4.08754">
        <ele>67.7</ele>
        <time>2020-06-08T13:39:45Z</time>
      </trkpt>
      <trkpt lat="48.25392" lon="-4.0876">
        <ele>67.8</ele>
        <time>2020-06-08T13:39:46Z</time>
      </trkpt>
      <trkpt lat="48.25391" lon="-4.08766">
        <ele>67.8</ele>
        <time>2020-06-08T13:39:47Z</time>
      </trkpt>
      <trkpt lat="48.25388" lon="-4.08771">
        <ele>67.9</ele>
        <time>2020-06-08T13:39:48Z</time>
      </trkpt>
      <trkpt lat="48.25386" lon="-4.08776">
        <ele>67.9</ele>
        <time>2020-06-08T13:39:49Z</time>
      </trkpt>
      <trkpt lat="48.25384" lon="-4.0878">
        <ele>68</ele>
        <time>2020-06-08T13:39:50Z</time>
      </trkpt>
      <trkpt lat="48.25382" lon="-4.08785">
        <ele>68</ele>
        <time>2020-06-08T13:39:51Z</time>
      </trkpt>
      <trkpt lat="48.25382" lon="-4.08789">
        <ele>68</ele>
        <time>2020-06-08T13:39:52Z</time>
      </trkpt>
      <trkpt lat="48.25381" lon="-4.08795">
        <ele>68.1</ele>
        <time>2020-06-08T13:39:53Z</time>
      </trkpt>
      <trkpt lat="48.25381" lon="-4.08797">
        <ele>68.1</ele>
        <time>2020-06-08T13:39:54Z</time>
      </trkpt>
      <trkpt lat="48.2538" lon="-4.08803">
        <ele>68.2</ele>
        <time>2020-06-08T13:39:55Z</time>
      </trkpt>
      <trkpt lat="48.25381" lon="-4.08808">
        <ele>68.1</ele>
        <time>2020-06-08T13:39:56Z</time>
      </trkpt>
      <trkpt lat="48.25383" lon="-4.08814">
        <ele>68</ele>
        <time>2020-06-08T13:39:57Z</time>
      </trkpt>
      <trkpt lat="48.25385" lon="-4.0882">
        <ele>67.8</ele>
        <time>2020-06-08T13:39:58Z</time>
      </trkpt>
      <trkpt lat="48.25388" lon="-4.08826">
        <ele>67.6</ele>
        <time>2020-06-08T13:39:59Z</time>
      </trkpt>
      <trkpt lat="48.2539" lon="-4.08834">
        <ele>67.3</ele>
        <time>2020-06-08T13:40:00Z</time>
      </trkpt>
      <trkpt lat="48.25392" lon="-4.08843">
        <ele>66.9</ele>
        <time>2020-06-08T13:40:01Z</time>
      </trkpt>
      <trkpt lat="48.25394" lon="-4.08853">
        <ele>66.5</ele>
        <time>2020-06-08T13:40:02Z</time>
      </trkpt>
      <trkpt lat="48.25395" lon="-4.08865">
        <ele>66</ele>
        <time>2020-06-08T13:40:03Z</time>
      </trkpt>
      <trkpt lat="48.25398" lon="-4.08876">
        <ele>65.2</ele>
        <time>2020-06-08T13:40:04Z</time>
      </trkpt>
      <trkpt lat="48.254" lon="-4.08888">
        <ele>64.5</ele>
        <time>2020-06-08T13:40:05Z</time>
      </trkpt>
      <trkpt lat="48.25403" lon="-4.08899">
        <ele>63.8</ele>
        <time>2020-06-08T13:40:06Z</time>
      </trkpt>
      <trkpt lat="48.25406" lon="-4.08912">
        <ele>63.1</ele>
        <time>2020-06-08T13:40:07Z</time>
      </trkpt>
      <trkpt lat="48.25409" lon="-4.08925">
        <ele>63.8</ele>
        <time>2020-06-08T13:40:08Z</time>
      </trkpt>
      <trkpt lat="48.25411" lon="-4.08937">
        <ele>62.5</ele>
        <time>2020-06-08T13:40:09Z</time>
      </trkpt>
      <trkpt lat="48.25413" lon="-4.0895">
        <ele>61.2</ele>
        <time>2020-06-08T13:40:10Z</time>
      </trkpt>
      <trkpt lat="48.25416" lon="-4.08963">
        <ele>59.8</ele>
        <time>2020-06-08T13:40:11Z</time>
      </trkpt>
      <trkpt lat="48.25418" lon="-4.08977">
        <ele>58.4</ele>
        <time>2020-06-08T13:40:12Z</time>
      </trkpt>
      <trkpt lat="48.2542" lon="-4.08991">
        <ele>56.9</ele>
        <time>2020-06-08T13:40:13Z</time>
      </trkpt>
      <trkpt lat="48.25422" lon="-4.09005">
        <ele>55.7</ele>
        <time>2020-06-08T13:40:14Z</time>
      </trkpt>
      <trkpt lat="48.25425" lon="-4.09018">
        <ele>54.4</ele>
        <time>2020-06-08T13:40:15Z</time>
      </trkpt>
      <trkpt lat="48.25428" lon="-4.09031">
        <ele>53.2</ele>
        <time>2020-06-08T13:40:16Z</time>
      </trkpt>
      <trkpt lat="48.2543" lon="-4.09044">
        <ele>52.1</ele>
        <time>2020-06-08T13:40:17Z</time>
      </trkpt>
      <trkpt lat="48.25433" lon="-4.09056">
        <ele>51.1</ele>
        <time>2020-06-08T13:40:18Z</time>
      </trkpt>
      <trkpt lat="48.25435" lon="-4.09067">
        <ele>50</ele>
        <time>2020-06-08T13:40:19Z</time>
      </trkpt>
      <trkpt lat="48.25435" lon="-4.09078">
        <ele>49.1</ele>
        <time>2020-06-08T13:40:20Z</time>
      </trkpt>
      <trkpt lat="48.25435" lon="-4.09087">
        <ele>48.2</ele>
        <time>2020-06-08T13:40:21Z</time>
      </trkpt>
      <trkpt lat="48.25433" lon="-4.09098">
        <ele>47.2</ele>
        <time>2020-06-08T13:40:22Z</time>
      </trkpt>
      <trkpt lat="48.2543" lon="-4.09108">
        <ele>46.1</ele>
        <time>2020-06-08T13:40:23Z</time>
      </trkpt>
      <trkpt lat="48.25427" lon="-4.09119">
        <ele>45</ele>
        <time>2020-06-08T13:40:24Z</time>
      </trkpt>
      <trkpt lat="48.25424" lon="-4.0913">
        <ele>43.9</ele>
        <time>2020-06-08T13:40:25Z</time>
      </trkpt>
      <trkpt lat="48.25422" lon="-4.09142">
        <ele>43</ele>
        <time>2020-06-08T13:40:26Z</time>
      </trkpt>
      <trkpt lat="48.25419" lon="-4.09152">
        <ele>42.1</ele>
        <time>2020-06-08T13:40:27Z</time>
      </trkpt>
      <trkpt lat="48.25417" lon="-4.09162">
        <ele>41.4</ele>
        <time>2020-06-08T13:40:28Z</time>
      </trkpt>
      <trkpt lat="48.25415" lon="-4.0917">
        <ele>40.7</ele>
        <time>2020-06-08T13:40:29Z</time>
      </trkpt>
      <trkpt lat="48.25414" lon="-4.09178">
        <ele>40.2</ele>
        <time>2020-06-08T13:40:30Z</time>
      </trkpt>
      <trkpt lat="48.25413" lon="-4.09186">
        <ele>39.6</ele>
        <time>2020-06-08T13:40:31Z</time>
      </trkpt>
      <trkpt lat="48.25412" lon="-4.09193">
        <ele>39.1</ele>
        <time>2020-06-08T13:40:32Z</time>
      </trkpt>
      <trkpt lat="48.25414" lon="-4.092">
        <ele>38.6</ele>
        <time>2020-06-08T13:40:33Z</time>
      </trkpt>
      <trkpt lat="48.25418" lon="-4.09202">
        <ele>38</ele>
        <time>2020-06-08T13:40:34Z</time>
      </trkpt>
      <trkpt lat="48.25423" lon="-4.09203">
        <ele>37.3</ele>
        <time>2020-06-08T13:40:35Z</time>
      </trkpt>
      <trkpt lat="48.25428" lon="-4.09202">
        <ele>35.8</ele>
        <time>2020-06-08T13:40:36Z</time>
      </trkpt>
      <trkpt lat="48.25433" lon="-4.09198">
        <ele>35.1</ele>
        <time>2020-06-08T13:40:37Z</time>
      </trkpt>
      <trkpt lat="48.25438" lon="-4.09192">
        <ele>34.4</ele>
        <time>2020-06-08T13:40:38Z</time>
      </trkpt>
      <trkpt lat="48.25444" lon="-4.09189">
        <ele>33.7</ele>
        <time>2020-06-08T13:40:39Z</time>
      </trkpt>
      <trkpt lat="48.2545" lon="-4.09185">
        <ele>33.1</ele>
        <time>2020-06-08T13:40:40Z</time>
      </trkpt>
      <trkpt lat="48.25457" lon="-4.09184">
        <ele>32.6</ele>
        <time>2020-06-08T13:40:41Z</time>
      </trkpt>
      <trkpt lat="48.25463" lon="-4.09182">
        <ele>32</ele>
        <time>2020-06-08T13:40:42Z</time>
      </trkpt>
      <trkpt lat="48.25469" lon="-4.09177">
        <ele>31.5</ele>
        <time>2020-06-08T13:40:43Z</time>
      </trkpt>
      <trkpt lat="48.25476" lon="-4.09172">
        <ele>31</ele>
        <time>2020-06-08T13:40:44Z</time>
      </trkpt>
      <trkpt lat="48.25481" lon="-4.09168">
        <ele>30.4</ele>
        <time>2020-06-08T13:40:45Z</time>
      </trkpt>
      <trkpt lat="48.25487" lon="-4.09163">
        <ele>29.8</ele>
        <time>2020-06-08T13:40:46Z</time>
      </trkpt>
      <trkpt lat="48.25493" lon="-4.09159">
        <ele>29.1</ele>
        <time>2020-06-08T13:40:47Z</time>
      </trkpt>
      <trkpt lat="48.25498" lon="-4.09157">
        <ele>28.4</ele>
        <time>2020-06-08T13:40:48Z</time>
      </trkpt>
      <trkpt lat="48.25503" lon="-4.09155">
        <ele>27.9</ele>
        <time>2020-06-08T13:40:49Z</time>
      </trkpt>
      <trkpt lat="48.25508" lon="-4.09153">
        <ele>27.5</ele>
        <time>2020-06-08T13:40:50Z</time>
      </trkpt>
      <trkpt lat="48.25513" lon="-4.0915">
        <ele>26.9</ele>
        <time>2020-06-08T13:40:51Z</time>
      </trkpt>
      <trkpt lat="48.25518" lon="-4.09147">
        <ele>26.4</ele>
        <time>2020-06-08T13:40:52Z</time>
      </trkpt>
      <trkpt lat="48.25522" lon="-4.09144">
        <ele>25.8</ele>
        <time>2020-06-08T13:40:53Z</time>
      </trkpt>
      <trkpt lat="48.25527" lon="-4.0914">
        <ele>25.3</ele>
        <time>2020-06-08T13:40:54Z</time>
      </trkpt>
      <trkpt lat="48.25533" lon="-4.09136">
        <ele>24.6</ele>
        <time>2020-06-08T13:40:55Z</time>
      </trkpt>
      <trkpt lat="48.25539" lon="-4.09132">
        <ele>24.1</ele>
        <time>2020-06-08T13:40:56Z</time>
      </trkpt>
      <trkpt lat="48.25544" lon="-4.09129">
        <ele>23.6</ele>
        <time>2020-06-08T13:40:57Z</time>
      </trkpt>
      <trkpt lat="48.2555" lon="-4.09126">
        <ele>23.1</ele>
        <time>2020-06-08T13:40:58Z</time>
      </trkpt>
      <trkpt lat="48.25556" lon="-4.09124">
        <ele>22.7</ele>
        <time>2020-06-08T13:40:59Z</time>
      </trkpt>
      <trkpt lat="48.25561" lon="-4.0912">
        <ele>22.3</ele>
        <time>2020-06-08T13:41:00Z</time>
      </trkpt>
      <trkpt lat="48.25565" lon="-4.09113">
        <ele>21.9</ele>
        <time>2020-06-08T13:41:01Z</time>
      </trkpt>
      <trkpt lat="48.25569" lon="-4.09105">
        <ele>21.3</ele>
        <time>2020-06-08T13:41:02Z</time>
      </trkpt>
      <trkpt lat="48.25571" lon="-4.09096">
        <ele>20.9</ele>
        <time>2020-06-08T13:41:03Z</time>
      </trkpt>
      <trkpt lat="48.25574" lon="-4.09087">
        <ele>20.4</ele>
        <time>2020-06-08T13:41:04Z</time>
      </trkpt>
      <trkpt lat="48.25578" lon="-4.09078">
        <ele>20</ele>
        <time>2020-06-08T13:41:05Z</time>
      </trkpt>
      <trkpt lat="48.25581" lon="-4.09069">
        <ele>19.6</ele>
        <time>2020-06-08T13:41:06Z</time>
      </trkpt>
      <trkpt lat="48.25584" lon="-4.09059">
        <ele>19.2</ele>
        <time>2020-06-08T13:41:07Z</time>
      </trkpt>
      <trkpt lat="48.25587" lon="-4.09049">
        <ele>18.8</ele>
        <time>2020-06-08T13:41:08Z</time>
      </trkpt>
      <trkpt lat="48.25589" lon="-4.0904">
        <ele>18.4</ele>
        <time>2020-06-08T13:41:09Z</time>
      </trkpt>
      <trkpt lat="48.25592" lon="-4.0903">
        <ele>17.9</ele>
        <time>2020-06-08T13:41:10Z</time>
      </trkpt>
      <trkpt lat="48.25595" lon="-4.09022">
        <ele>17.5</ele>
        <time>2020-06-08T13:41:11Z</time>
      </trkpt>
      <trkpt lat="48.25597" lon="-4.09013">
        <ele>17</ele>
        <time>2020-06-08T13:41:12Z</time>
      </trkpt>
      <trkpt lat="48.25599" lon="-4.09004">
        <ele>16.5</ele>
        <time>2020-06-08T13:41:13Z</time>
      </trkpt>
      <trkpt lat="48.25601" lon="-4.08996">
        <ele>16.1</ele>
        <time>2020-06-08T13:41:14Z</time>
      </trkpt>
      <trkpt lat="48.25603" lon="-4.08987">
        <ele>15.6</ele>
        <time>2020-06-08T13:41:15Z</time>
      </trkpt>
      <trkpt lat="48.25605" lon="-4.0898">
        <ele>15.1</ele>
        <time>2020-06-08T13:41:16Z</time>
      </trkpt>
      <trkpt lat="48.25608" lon="-4.08972">
        <ele>14.7</ele>
        <time>2020-06-08T13:41:17Z</time>
      </trkpt>
      <trkpt lat="48.25609" lon="-4.08965">
        <ele>14.4</ele>
        <time>2020-06-08T13:41:18Z</time>
      </trkpt>
      <trkpt lat="48.25611" lon="-4.08958">
        <ele>14.1</ele>
        <time>2020-06-08T13:41:19Z</time>
      </trkpt>
      <trkpt lat="48.25612" lon="-4.08951">
        <ele>13.9</ele>
        <time>2020-06-08T13:41:20Z</time>
      </trkpt>
      <trkpt lat="48.25614" lon="-4.08946">
        <ele>13.8</ele>
        <time>2020-06-08T13:41:21Z</time>
      </trkpt>
      <trkpt lat="48.25615" lon="-4.0894">
        <ele>13.9</ele>
        <time>2020-06-08T13:41:22Z</time>
      </trkpt>
      <trkpt lat="48.25618" lon="-4.08935">
        <ele>14</ele>
        <time>2020-06-08T13:41:23Z</time>
      </trkpt>
      <trkpt lat="48.2562" lon="-4.08929">
        <ele>13.5</ele>
        <time>2020-06-08T13:41:24Z</time>
      </trkpt>
      <trkpt lat="48.25622" lon="-4.08922">
        <ele>12.9</ele>
        <time>2020-06-08T13:41:25Z</time>
      </trkpt>
      <trkpt lat="48.25625" lon="-4.08915">
        <ele>12.3</ele>
        <time>2020-06-08T13:41:26Z</time>
      </trkpt>
      <trkpt lat="48.25627" lon="-4.08908">
        <ele>11.8</ele>
        <time>2020-06-08T13:41:27Z</time>
      </trkpt>
      <trkpt lat="48.25629" lon="-4.08902">
        <ele>11.3</ele>
        <time>2020-06-08T13:41:28Z</time>
      </trkpt>
      <trkpt lat="48.2563" lon="-4.08896">
        <ele>11</ele>
        <time>2020-06-08T13:41:29Z</time>
      </trkpt>
      <trkpt lat="48.25633" lon="-4.08891">
        <ele>10.7</ele>
        <time>2020-06-08T13:41:30Z</time>
      </trkpt>
      <trkpt lat="48.25636" lon="-4.08886">
        <ele>10.4</ele>
        <time>2020-06-08T13:41:31Z</time>
      </trkpt>
      <trkpt lat="48.2564" lon="-4.08884">
        <ele>10.1</ele>
        <time>2020-06-08T13:41:32Z</time>
      </trkpt>
      <trkpt lat="48.25645" lon="-4.08882">
        <ele>9.9</ele>
        <time>2020-06-08T13:41:33Z</time>
      </trkpt>
      <trkpt lat="48.2565" lon="-4.08878">
        <ele>9.6</ele>
        <time>2020-06-08T13:41:34Z</time>
      </trkpt>
      <trkpt lat="48.25654" lon="-4.08874">
        <ele>12</ele>
        <time>2020-06-08T13:41:35Z</time>
      </trkpt>
      <trkpt lat="48.25658" lon="-4.0887">
        <ele>11.9</ele>
        <time>2020-06-08T13:41:36Z</time>
      </trkpt>
      <trkpt lat="48.25662" lon="-4.08868">
        <ele>11</ele>
        <time>2020-06-08T13:41:37Z</time>
      </trkpt>
      <trkpt lat="48.25667" lon="-4.08864">
        <ele>10.1</ele>
        <time>2020-06-08T13:41:38Z</time>
      </trkpt>
      <trkpt lat="48.25672" lon="-4.08862">
        <ele>10</ele>
        <time>2020-06-08T13:41:39Z</time>
      </trkpt>
      <trkpt lat="48.25674" lon="-4.08856">
        <ele>10</ele>
        <time>2020-06-08T13:41:40Z</time>
      </trkpt>
      <trkpt lat="48.25676" lon="-4.0885">
        <ele>10.1</ele>
        <time>2020-06-08T13:41:41Z</time>
      </trkpt>
      <trkpt lat="48.25677" lon="-4.08844">
        <ele>10.2</ele>
        <time>2020-06-08T13:41:42Z</time>
      </trkpt>
      <trkpt lat="48.25677" lon="-4.08838">
        <ele>10.4</ele>
        <time>2020-06-08T13:41:43Z</time>
      </trkpt>
      <trkpt lat="48.25678" lon="-4.08832">
        <ele>10.5</ele>
        <time>2020-06-08T13:41:44Z</time>
      </trkpt>
      <trkpt lat="48.25679" lon="-4.08828">
        <ele>10.7</ele>
        <time>2020-06-08T13:41:45Z</time>
      </trkpt>
      <trkpt lat="48.25679" lon="-4.08823">
        <ele>10.9</ele>
        <time>2020-06-08T13:41:46Z</time>
      </trkpt>
      <trkpt lat="48.25679" lon="-4.08821">
        <ele>10.9</ele>
        <time>2020-06-08T13:41:47Z</time>
      </trkpt>
      <trkpt lat="48.25681" lon="-4.08817">
        <ele>11.1</ele>
        <time>2020-06-08T13:41:48Z</time>
      </trkpt>
      <trkpt lat="48.25683" lon="-4.08812">
        <ele>11.4</ele>
        <time>2020-06-08T13:41:49Z</time>
      </trkpt>
      <trkpt lat="48.25684" lon="-4.08811">
        <ele>11.5</ele>
        <time>2020-06-08T13:41:50Z</time>
      </trkpt>
      <trkpt lat="48.25684" lon="-4.08806">
        <ele>11.7</ele>
        <time>2020-06-08T13:41:51Z</time>
      </trkpt>
      <trkpt lat="48.25684" lon="-4.08805">
        <ele>11.8</ele>
        <time>2020-06-08T13:41:52Z</time>
      </trkpt>
      <trkpt lat="48.25684" lon="-4.08802">
        <ele>11.9</ele>
        <time>2020-06-08T13:41:53Z</time>
      </trkpt>
      <trkpt lat="48.25686" lon="-4.08801">
        <ele>12</ele>
        <time>2020-06-08T13:41:54Z</time>
      </trkpt>
      <trkpt lat="48.25686" lon="-4.08796">
        <ele>12.3</ele>
        <time>2020-06-08T13:41:55Z</time>
      </trkpt>
      <trkpt lat="48.25689" lon="-4.08794">
        <ele>12.5</ele>
        <time>2020-06-08T13:41:56Z</time>
      </trkpt>
      <trkpt lat="48.25692" lon="-4.08792">
        <ele>12.8</ele>
        <time>2020-06-08T13:41:57Z</time>
      </trkpt>
      <trkpt lat="48.25693" lon="-4.08791">
        <ele>12.8</ele>
        <time>2020-06-08T13:41:58Z</time>
      </trkpt>
      <trkpt lat="48.25695" lon="-4.08793">
        <ele>13.1</ele>
        <time>2020-06-08T13:41:59Z</time>
      </trkpt>
      <trkpt lat="48.25696" lon="-4.08794">
        <ele>13.2</ele>
        <time>2020-06-08T13:42:00Z</time>
      </trkpt>
      <trkpt lat="48.25697" lon="-4.08797">
        <ele>13.4</ele>
        <time>2020-06-08T13:42:01Z</time>
      </trkpt>
      <trkpt lat="48.25698" lon="-4.08799">
        <ele>14.2</ele>
        <time>2020-06-08T13:42:02Z</time>
      </trkpt>
      <trkpt lat="48.25697" lon="-4.08801">
        <ele>14.4</ele>
        <time>2020-06-08T13:42:03Z</time>
      </trkpt>
      <trkpt lat="48.25698" lon="-4.08803">
        <ele>14.5</ele>
        <time>2020-06-08T13:42:04Z</time>
      </trkpt>
      <trkpt lat="48.25698" lon="-4.08805">
        <ele>14.7</ele>
        <time>2020-06-08T13:42:05Z</time>
      </trkpt>
      <trkpt lat="48.25698" lon="-4.08807">
        <ele>14.8</ele>
        <time>2020-06-08T13:42:06Z</time>
      </trkpt>
      <trkpt lat="48.25698" lon="-4.08808">
        <ele>14.9</ele>
        <time>2020-06-08T13:42:07Z</time>
      </trkpt>
      <trkpt lat="48.257" lon="-4.08812">
        <ele>15.3</ele>
        <time>2020-06-08T13:42:08Z</time>
      </trkpt>
      <trkpt lat="48.25701" lon="-4.08813">
        <ele>15.5</ele>
        <time>2020-06-08T13:42:09Z</time>
      </trkpt>
      <trkpt lat="48.25702" lon="-4.08815">
        <ele>15.7</ele>
        <time>2020-06-08T13:42:10Z</time>
      </trkpt>
      <trkpt lat="48.25702" lon="-4.08817">
        <ele>15.9</ele>
        <time>2020-06-08T13:42:11Z</time>
      </trkpt>
      <trkpt lat="48.25703" lon="-4.08821">
        <ele>16.3</ele>
        <time>2020-06-08T13:42:12Z</time>
      </trkpt>
      <trkpt lat="48.25704" lon="-4.08823">
        <ele>16.4</ele>
        <time>2020-06-08T13:42:13Z</time>
      </trkpt>
      <trkpt lat="48.25705" lon="-4.08825">
        <ele>16.6</ele>
        <time>2020-06-08T13:42:14Z</time>
      </trkpt>
      <trkpt lat="48.25704" lon="-4.08826">
        <ele>16.7</ele>
        <time>2020-06-08T13:42:15Z</time>
      </trkpt>
      <trkpt lat="48.25705" lon="-4.08828">
        <ele>16.9</ele>
        <time>2020-06-08T13:42:16Z</time>
      </trkpt>
      <trkpt lat="48.25706" lon="-4.08831">
        <ele>17.1</ele>
        <time>2020-06-08T13:42:17Z</time>
      </trkpt>
      <trkpt lat="48.25706" lon="-4.08833">
        <ele>17.3</ele>
        <time>2020-06-08T13:42:18Z</time>
      </trkpt>
      <trkpt lat="48.25707" lon="-4.08834">
        <ele>17.5</ele>
        <time>2020-06-08T13:42:19Z</time>
      </trkpt>
      <trkpt lat="48.25708" lon="-4.08838">
        <ele>17.8</ele>
        <time>2020-06-08T13:42:20Z</time>
      </trkpt>
      <trkpt lat="48.25708" lon="-4.08839">
        <ele>17.9</ele>
        <time>2020-06-08T13:42:21Z</time>
      </trkpt>
      <trkpt lat="48.25709" lon="-4.0884">
        <ele>18</ele>
        <time>2020-06-08T13:42:22Z</time>
      </trkpt>
      <trkpt lat="48.2571" lon="-4.08843">
        <ele>18.3</ele>
        <time>2020-06-08T13:42:23Z</time>
      </trkpt>
      <trkpt lat="48.25711" lon="-4.08845">
        <ele>18.5</ele>
        <time>2020-06-08T13:42:24Z</time>
      </trkpt>
      <trkpt lat="48.25713" lon="-4.08848">
        <ele>18.8</ele>
        <time>2020-06-08T13:42:25Z</time>
      </trkpt>
      <trkpt lat="48.25713" lon="-4.08849">
        <ele>18.9</ele>
        <time>2020-06-08T13:42:26Z</time>
      </trkpt>
      <trkpt lat="48.25715" lon="-4.08852">
        <ele>19.3</ele>
        <time>2020-06-08T13:42:27Z</time>
      </trkpt>
      <trkpt lat="48.25715" lon="-4.08853">
        <ele>19.3</ele>
        <time>2020-06-08T13:42:28Z</time>
      </trkpt>
      <trkpt lat="48.25716" lon="-4.08857">
        <ele>19.6</ele>
        <time>2020-06-08T13:42:29Z</time>
      </trkpt>
      <trkpt lat="48.25718" lon="-4.08861">
        <ele>20.1</ele>
        <time>2020-06-08T13:42:30Z</time>
      </trkpt>
      <trkpt lat="48.25719" lon="-4.08866">
        <ele>20.6</ele>
        <time>2020-06-08T13:42:31Z</time>
      </trkpt>
      <trkpt lat="48.2572" lon="-4.08867">
        <ele>20.7</ele>
        <time>2020-06-08T13:42:32Z</time>
      </trkpt>
      <trkpt lat="48.25722" lon="-4.08869">
        <ele>21</ele>
        <time>2020-06-08T13:42:33Z</time>
      </trkpt>
      <trkpt lat="48.25722" lon="-4.0887">
        <ele>21.1</ele>
        <time>2020-06-08T13:42:34Z</time>
      </trkpt>
      <trkpt lat="48.25723" lon="-4.08871">
        <ele>21.3</ele>
        <time>2020-06-08T13:42:35Z</time>
      </trkpt>
      <trkpt lat="48.25724" lon="-4.08874">
        <ele>21.6</ele>
        <time>2020-06-08T13:42:36Z</time>
      </trkpt>
      <trkpt lat="48.25725" lon="-4.08875">
        <ele>21.7</ele>
        <time>2020-06-08T13:42:37Z</time>
      </trkpt>
      <trkpt lat="48.25725" lon="-4.08876">
        <ele>21.8</ele>
        <time>2020-06-08T13:42:38Z</time>
      </trkpt>
      <trkpt lat="48.25727" lon="-4.08879">
        <ele>22.2</ele>
        <time>2020-06-08T13:42:39Z</time>
      </trkpt>
      <trkpt lat="48.25727" lon="-4.0888">
        <ele>22.4</ele>
        <time>2020-06-08T13:42:40Z</time>
      </trkpt>
      <trkpt lat="48.25728" lon="-4.08883">
        <ele>22.6</ele>
        <time>2020-06-08T13:42:41Z</time>
      </trkpt>
      <trkpt lat="48.2573" lon="-4.08884">
        <ele>22.9</ele>
        <time>2020-06-08T13:42:42Z</time>
      </trkpt>
      <trkpt lat="48.2573" lon="-4.08886">
        <ele>23.1</ele>
        <time>2020-06-08T13:42:43Z</time>
      </trkpt>
      <trkpt lat="48.25732" lon="-4.08888">
        <ele>23.3</ele>
        <time>2020-06-08T13:42:44Z</time>
      </trkpt>
      <trkpt lat="48.25732" lon="-4.08888">
        <ele>23.5</ele>
        <time>2020-06-08T13:42:45Z</time>
      </trkpt>
      <trkpt lat="48.25732" lon="-4.08889">
        <ele>23.6</ele>
        <time>2020-06-08T13:42:46Z</time>
      </trkpt>
      <trkpt lat="48.25733" lon="-4.08891">
        <ele>23.8</ele>
        <time>2020-06-08T13:42:47Z</time>
      </trkpt>
      <trkpt lat="48.25735" lon="-4.08892">
        <ele>24</ele>
        <time>2020-06-08T13:42:48Z</time>
      </trkpt>
      <trkpt lat="48.25735" lon="-4.08894">
        <ele>24.2</ele>
        <time>2020-06-08T13:42:49Z</time>
      </trkpt>
      <trkpt lat="48.25736" lon="-4.08895">
        <ele>24.4</ele>
        <time>2020-06-08T13:42:50Z</time>
      </trkpt>
      <trkpt lat="48.25736" lon="-4.08899">
        <ele>24.7</ele>
        <time>2020-06-08T13:42:51Z</time>
      </trkpt>
      <trkpt lat="48.25737" lon="-4.08901">
        <ele>24.9</ele>
        <time>2020-06-08T13:42:52Z</time>
      </trkpt>
      <trkpt lat="48.25738" lon="-4.08904">
        <ele>25.2</ele>
        <time>2020-06-08T13:42:53Z</time>
      </trkpt>
      <trkpt lat="48.25738" lon="-4.08906">
        <ele>25.5</ele>
        <time>2020-06-08T13:42:54Z</time>
      </trkpt>
      <trkpt lat="48.25739" lon="-4.08908">
        <ele>25.7</ele>
        <time>2020-06-08T13:42:55Z</time>
      </trkpt>
      <trkpt lat="48.25742" lon="-4.08909">
        <ele>26</ele>
        <time>2020-06-08T13:42:56Z</time>
      </trkpt>
      <trkpt lat="48.25742" lon="-4.0891">
        <ele>26.2</ele>
        <time>2020-06-08T13:42:57Z</time>
      </trkpt>
      <trkpt lat="48.25744" lon="-4.08913">
        <ele>26.5</ele>
        <time>2020-06-08T13:42:58Z</time>
      </trkpt>
      <trkpt lat="48.25745" lon="-4.08915">
        <ele>26.7</ele>
        <time>2020-06-08T13:42:59Z</time>
      </trkpt>
      <trkpt lat="48.25746" lon="-4.08918">
        <ele>27.1</ele>
        <time>2020-06-08T13:43:00Z</time>
      </trkpt>
      <trkpt lat="48.25747" lon="-4.0892">
        <ele>27.3</ele>
        <time>2020-06-08T13:43:01Z</time>
      </trkpt>
      <trkpt lat="48.25748" lon="-4.08922">
        <ele>27.5</ele>
        <time>2020-06-08T13:43:02Z</time>
      </trkpt>
      <trkpt lat="48.25748" lon="-4.08924">
        <ele>27.7</ele>
        <time>2020-06-08T13:43:03Z</time>
      </trkpt>
      <trkpt lat="48.25748" lon="-4.08924">
        <ele>27.7</ele>
        <time>2020-06-08T13:43:04Z</time>
      </trkpt>
      <trkpt lat="48.2575" lon="-4.08926">
        <ele>28</ele>
        <time>2020-06-08T13:43:05Z</time>
      </trkpt>
      <trkpt lat="48.25751" lon="-4.08928">
        <ele>28.2</ele>
        <time>2020-06-08T13:43:06Z</time>
      </trkpt>
      <trkpt lat="48.25753" lon="-4.08931">
        <ele>28.6</ele>
        <time>2020-06-08T13:43:07Z</time>
      </trkpt>
      <trkpt lat="48.25754" lon="-4.08933">
        <ele>28.8</ele>
        <time>2020-06-08T13:43:08Z</time>
      </trkpt>
      <trkpt lat="48.25755" lon="-4.08936">
        <ele>29.1</ele>
        <time>2020-06-08T13:43:09Z</time>
      </trkpt>
      <trkpt lat="48.25755" lon="-4.08938">
        <ele>29.3</ele>
        <time>2020-06-08T13:43:10Z</time>
      </trkpt>
      <trkpt lat="48.25756" lon="-4.08939">
        <ele>29.5</ele>
        <time>2020-06-08T13:43:11Z</time>
      </trkpt>
      <trkpt lat="48.25757" lon="-4.0894">
        <ele>29.6</ele>
        <time>2020-06-08T13:43:12Z</time>
      </trkpt>
      <trkpt lat="48.25758" lon="-4.08941">
        <ele>29.8</ele>
        <time>2020-06-08T13:43:13Z</time>
      </trkpt>
      <trkpt lat="48.2576" lon="-4.08943">
        <ele>30.1</ele>
        <time>2020-06-08T13:43:14Z</time>
      </trkpt>
      <trkpt lat="48.2576" lon="-4.08944">
        <ele>30.2</ele>
        <time>2020-06-08T13:43:15Z</time>
      </trkpt>
      <trkpt lat="48.2576" lon="-4.08945">
        <ele>30.3</ele>
        <time>2020-06-08T13:43:16Z</time>
      </trkpt>
      <trkpt lat="48.25761" lon="-4.08947">
        <ele>30.5</ele>
        <time>2020-06-08T13:43:17Z</time>
      </trkpt>
      <trkpt lat="48.25762" lon="-4.08949">
        <ele>30.7</ele>
        <time>2020-06-08T13:43:18Z</time>
      </trkpt>
      <trkpt lat="48.25764" lon="-4.08952">
        <ele>31.1</ele>
        <time>2020-06-08T13:43:19Z</time>
      </trkpt>
      <trkpt lat="48.25765" lon="-4.08953">
        <ele>31.2</ele>
        <time>2020-06-08T13:43:20Z</time>
      </trkpt>
      <trkpt lat="48.25768" lon="-4.08954">
        <ele>31.6</ele>
        <time>2020-06-08T13:43:21Z</time>
      </trkpt>
      <trkpt lat="48.25769" lon="-4.08954">
        <ele>31.7</ele>
        <time>2020-06-08T13:43:22Z</time>
      </trkpt>
      <trkpt lat="48.25772" lon="-4.08956">
        <ele>32.1</ele>
        <time>2020-06-08T13:43:23Z</time>
      </trkpt>
      <trkpt lat="48.25773" lon="-4.08959">
        <ele>32.4</ele>
        <time>2020-06-08T13:43:24Z</time>
      </trkpt>
      <trkpt lat="48.25774" lon="-4.0896">
        <ele>32.5</ele>
        <time>2020-06-08T13:43:25Z</time>
      </trkpt>
      <trkpt lat="48.25774" lon="-4.08961">
        <ele>32.6</ele>
        <time>2020-06-08T13:43:26Z</time>
      </trkpt>
      <trkpt lat="48.25775" lon="-4.08962">
        <ele>32.8</ele>
        <time>2020-06-08T13:43:27Z</time>
      </trkpt>
      <trkpt lat="48.25777" lon="-4.08963">
        <ele>33</ele>
        <time>2020-06-08T13:43:28Z</time>
      </trkpt>
      <trkpt lat="48.2578" lon="-4.08965">
        <ele>33.4</ele>
        <time>2020-06-08T13:43:29Z</time>
      </trkpt>
      <trkpt lat="48.25781" lon="-4.08966">
        <ele>33.5</ele>
        <time>2020-06-08T13:43:30Z</time>
      </trkpt>
      <trkpt lat="48.25781" lon="-4.08968">
        <ele>33.7</ele>
        <time>2020-06-08T13:43:31Z</time>
      </trkpt>
      <trkpt lat="48.25782" lon="-4.08969">
        <ele>33.9</ele>
        <time>2020-06-08T13:43:32Z</time>
      </trkpt>
      <trkpt lat="48.25783" lon="-4.08971">
        <ele>34</ele>
        <time>2020-06-08T13:43:33Z</time>
      </trkpt>
      <trkpt lat="48.25784" lon="-4.08973">
        <ele>34.2</ele>
        <time>2020-06-08T13:43:34Z</time>
      </trkpt>
      <trkpt lat="48.25785" lon="-4.08973">
        <ele>34.3</ele>
        <time>2020-06-08T13:43:35Z</time>
      </trkpt>
      <trkpt lat="48.25785" lon="-4.08975">
        <ele>34.4</ele>
        <time>2020-06-08T13:43:36Z</time>
      </trkpt>
      <trkpt lat="48.25788" lon="-4.08977">
        <ele>34.8</ele>
        <time>2020-06-08T13:43:37Z</time>
      </trkpt>
      <trkpt lat="48.25788" lon="-4.08978">
        <ele>34.9</ele>
        <time>2020-06-08T13:43:38Z</time>
      </trkpt>
      <trkpt lat="48.2579" lon="-4.0898">
        <ele>35.2</ele>
        <time>2020-06-08T13:43:39Z</time>
      </trkpt>
      <trkpt lat="48.25791" lon="-4.08981">
        <ele>35.3</ele>
        <time>2020-06-08T13:43:40Z</time>
      </trkpt>
      <trkpt lat="48.25794" lon="-4.08984">
        <ele>35.7</ele>
        <time>2020-06-08T13:43:41Z</time>
      </trkpt>
      <trkpt lat="48.25795" lon="-4.08985">
        <ele>35.9</ele>
        <time>2020-06-08T13:43:42Z</time>
      </trkpt>
      <trkpt lat="48.25796" lon="-4.08988">
        <ele>36.1</ele>
        <time>2020-06-08T13:43:43Z</time>
      </trkpt>
      <trkpt lat="48.25797" lon="-4.08989">
        <ele>36.2</ele>
        <time>2020-06-08T13:43:44Z</time>
      </trkpt>
      <trkpt lat="48.25798" lon="-4.08989">
        <ele>36.3</ele>
        <time>2020-06-08T13:43:45Z</time>
      </trkpt>
      <trkpt lat="48.25799" lon="-4.08992">
        <ele>36.6</ele>
        <time>2020-06-08T13:43:46Z</time>
      </trkpt>
      <trkpt lat="48.25801" lon="-4.08993">
        <ele>36.7</ele>
        <time>2020-06-08T13:43:47Z</time>
      </trkpt>
      <trkpt lat="48.25801" lon="-4.08995">
        <ele>36.9</ele>
        <time>2020-06-08T13:43:48Z</time>
      </trkpt>
      <trkpt lat="48.25801" lon="-4.08997">
        <ele>37.1</ele>
        <time>2020-06-08T13:43:49Z</time>
      </trkpt>
      <trkpt lat="48.25803" lon="-4.09">
        <ele>37.3</ele>
        <time>2020-06-08T13:43:50Z</time>
      </trkpt>
      <trkpt lat="48.25804" lon="-4.09002">
        <ele>37.5</ele>
        <time>2020-06-08T13:43:51Z</time>
      </trkpt>
      <trkpt lat="48.25804" lon="-4.09002">
        <ele>37.6</ele>
        <time>2020-06-08T13:43:52Z</time>
      </trkpt>
      <trkpt lat="48.25805" lon="-4.09003">
        <ele>37.7</ele>
        <time>2020-06-08T13:43:53Z</time>
      </trkpt>
      <trkpt lat="48.25805" lon="-4.09005">
        <ele>37.8</ele>
        <time>2020-06-08T13:43:54Z</time>
      </trkpt>
      <trkpt lat="48.25807" lon="-4.09008">
        <ele>38.1</ele>
        <time>2020-06-08T13:43:55Z</time>
      </trkpt>
      <trkpt lat="48.25809" lon="-4.09012">
        <ele>38.5</ele>
        <time>2020-06-08T13:43:56Z</time>
      </trkpt>
      <trkpt lat="48.2581" lon="-4.09013">
        <ele>38.6</ele>
        <time>2020-06-08T13:43:57Z</time>
      </trkpt>
      <trkpt lat="48.25811" lon="-4.09015">
        <ele>38.8</ele>
        <time>2020-06-08T13:43:58Z</time>
      </trkpt>
      <trkpt lat="48.25812" lon="-4.09016">
        <ele>39</ele>
        <time>2020-06-08T13:43:59Z</time>
      </trkpt>
      <trkpt lat="48.25813" lon="-4.09017">
        <ele>39.2</ele>
        <time>2020-06-08T13:44:00Z</time>
      </trkpt>
      <trkpt lat="48.25814" lon="-4.09016">
        <ele>39.3</ele>
        <time>2020-06-08T13:44:01Z</time>
      </trkpt>
      <trkpt lat="48.25815" lon="-4.09016">
        <ele>39.5</ele>
        <time>2020-06-08T13:44:02Z</time>
      </trkpt>
      <trkpt lat="48.25819" lon="-4.09016">
        <ele>39.9</ele>
        <time>2020-06-08T13:44:03Z</time>
      </trkpt>
      <trkpt lat="48.2582" lon="-4.09017">
        <ele>40.1</ele>
        <time>2020-06-08T13:44:04Z</time>
      </trkpt>
      <trkpt lat="48.25821" lon="-4.09018">
        <ele>40.2</ele>
        <time>2020-06-08T13:44:05Z</time>
      </trkpt>
      <trkpt lat="48.25823" lon="-4.09021">
        <ele>40.5</ele>
        <time>2020-06-08T13:44:06Z</time>
      </trkpt>
      <trkpt lat="48.25824" lon="-4.09022">
        <ele>40.7</ele>
        <time>2020-06-08T13:44:07Z</time>
      </trkpt>
      <trkpt lat="48.25824" lon="-4.09024">
        <ele>40.9</ele>
        <time>2020-06-08T13:44:08Z</time>
      </trkpt>
      <trkpt lat="48.25825" lon="-4.09027">
        <ele>41.1</ele>
        <time>2020-06-08T13:44:09Z</time>
      </trkpt>
      <trkpt lat="48.25825" lon="-4.0903">
        <ele>41.3</ele>
        <time>2020-06-08T13:44:10Z</time>
      </trkpt>
      <trkpt lat="48.25825" lon="-4.09032">
        <ele>41.6</ele>
        <time>2020-06-08T13:44:11Z</time>
      </trkpt>
      <trkpt lat="48.25826" lon="-4.09034">
        <ele>41.7</ele>
        <time>2020-06-08T13:44:12Z</time>
      </trkpt>
      <trkpt lat="48.25827" lon="-4.09035">
        <ele>41.8</ele>
        <time>2020-06-08T13:44:13Z</time>
      </trkpt>
      <trkpt lat="48.25828" lon="-4.09036">
        <ele>42</ele>
        <time>2020-06-08T13:44:14Z</time>
      </trkpt>
      <trkpt lat="48.25829" lon="-4.09038">
        <ele>42.2</ele>
        <time>2020-06-08T13:44:15Z</time>
      </trkpt>
      <trkpt lat="48.2583" lon="-4.09041">
        <ele>42.5</ele>
        <time>2020-06-08T13:44:16Z</time>
      </trkpt>
      <trkpt lat="48.25831" lon="-4.09041">
        <ele>42.6</ele>
        <time>2020-06-08T13:44:17Z</time>
      </trkpt>
      <trkpt lat="48.25831" lon="-4.09043">
        <ele>42.7</ele>
        <time>2020-06-08T13:44:18Z</time>
      </trkpt>
      <trkpt lat="48.25832" lon="-4.09044">
        <ele>42.9</ele>
        <time>2020-06-08T13:44:19Z</time>
      </trkpt>
      <trkpt lat="48.25833" lon="-4.09046">
        <ele>43.1</ele>
        <time>2020-06-08T13:44:20Z</time>
      </trkpt>
      <trkpt lat="48.25834" lon="-4.09047">
        <ele>43.3</ele>
        <time>2020-06-08T13:44:21Z</time>
      </trkpt>
      <trkpt lat="48.25836" lon="-4.09048">
        <ele>43.5</ele>
        <time>2020-06-08T13:44:22Z</time>
      </trkpt>
      <trkpt lat="48.25837" lon="-4.09052">
        <ele>44</ele>
        <time>2020-06-08T13:44:23Z</time>
      </trkpt>
      <trkpt lat="48.25838" lon="-4.09053">
        <ele>44.1</ele>
        <time>2020-06-08T13:44:24Z</time>
      </trkpt>
      <trkpt lat="48.25839" lon="-4.09056">
        <ele>44.4</ele>
        <time>2020-06-08T13:44:25Z</time>
      </trkpt>
      <trkpt lat="48.2584" lon="-4.09057">
        <ele>44.6</ele>
        <time>2020-06-08T13:44:26Z</time>
      </trkpt>
      <trkpt lat="48.2584" lon="-4.0906">
        <ele>44.9</ele>
        <time>2020-06-08T13:44:27Z</time>
      </trkpt>
      <trkpt lat="48.25841" lon="-4.09062">
        <ele>45.1</ele>
        <time>2020-06-08T13:44:28Z</time>
      </trkpt>
      <trkpt lat="48.25841" lon="-4.09063">
        <ele>45.2</ele>
        <time>2020-06-08T13:44:29Z</time>
      </trkpt>
      <trkpt lat="48.25842" lon="-4.09064">
        <ele>45.4</ele>
        <time>2020-06-08T13:44:30Z</time>
      </trkpt>
      <trkpt lat="48.25843" lon="-4.09066">
        <ele>45.6</ele>
        <time>2020-06-08T13:44:31Z</time>
      </trkpt>
      <trkpt lat="48.25843" lon="-4.09067">
        <ele>45.7</ele>
        <time>2020-06-08T13:44:32Z</time>
      </trkpt>
      <trkpt lat="48.25842" lon="-4.09067">
        <ele>45.8</ele>
        <time>2020-06-08T13:44:33Z</time>
      </trkpt>
      <trkpt lat="48.25842" lon="-4.09068">
        <ele>45.9</ele>
        <time>2020-06-08T13:44:34Z</time>
      </trkpt>
      <trkpt lat="48.25843" lon="-4.09069">
        <ele>46</ele>
        <time>2020-06-08T13:44:35Z</time>
      </trkpt>
      <trkpt lat="48.25844" lon="-4.09071">
        <ele>46.2</ele>
        <time>2020-06-08T13:44:36Z</time>
      </trkpt>
      <trkpt lat="48.25846" lon="-4.09073">
        <ele>46.6</ele>
        <time>2020-06-08T13:44:37Z</time>
      </trkpt>
      <trkpt lat="48.25847" lon="-4.09074">
        <ele>46.8</ele>
        <time>2020-06-08T13:44:38Z</time>
      </trkpt>
      <trkpt lat="48.25848" lon="-4.09075">
        <ele>47</ele>
        <time>2020-06-08T13:44:39Z</time>
      </trkpt>
      <trkpt lat="48.25849" lon="-4.09078">
        <ele>47.4</ele>
        <time>2020-06-08T13:44:40Z</time>
      </trkpt>
      <trkpt lat="48.25851" lon="-4.09079">
        <ele>47.6</ele>
        <time>2020-06-08T13:44:41Z</time>
      </trkpt>
      <trkpt lat="48.25852" lon="-4.09081">
        <ele>47.9</ele>
        <time>2020-06-08T13:44:42Z</time>
      </trkpt>
      <trkpt lat="48.25853" lon="-4.09082">
        <ele>48.1</ele>
        <time>2020-06-08T13:44:43Z</time>
      </trkpt>
      <trkpt lat="48.25854" lon="-4.09083">
        <ele>48.3</ele>
        <time>2020-06-08T13:44:44Z</time>
      </trkpt>
      <trkpt lat="48.25856" lon="-4.09085">
        <ele>48.6</ele>
        <time>2020-06-08T13:44:45Z</time>
      </trkpt>
      <trkpt lat="48.25856" lon="-4.09085">
        <ele>48.7</ele>
        <time>2020-06-08T13:44:46Z</time>
      </trkpt>
      <trkpt lat="48.25857" lon="-4.09086">
        <ele>48.8</ele>
        <time>2020-06-08T13:44:47Z</time>
      </trkpt>
      <trkpt lat="48.25858" lon="-4.09088">
        <ele>49.1</ele>
        <time>2020-06-08T13:44:48Z</time>
      </trkpt>
      <trkpt lat="48.25859" lon="-4.09089">
        <ele>49.3</ele>
        <time>2020-06-08T13:44:49Z</time>
      </trkpt>
      <trkpt lat="48.2586" lon="-4.09089">
        <ele>49.4</ele>
        <time>2020-06-08T13:44:50Z</time>
      </trkpt>
      <trkpt lat="48.25861" lon="-4.09091">
        <ele>49.6</ele>
        <time>2020-06-08T13:44:51Z</time>
      </trkpt>
      <trkpt lat="48.25862" lon="-4.09093">
        <ele>49.9</ele>
        <time>2020-06-08T13:44:52Z</time>
      </trkpt>
      <trkpt lat="48.25864" lon="-4.09095">
        <ele>50.2</ele>
        <time>2020-06-08T13:44:53Z</time>
      </trkpt>
      <trkpt lat="48.25864" lon="-4.09097">
        <ele>50.4</ele>
        <time>2020-06-08T13:44:54Z</time>
      </trkpt>
      <trkpt lat="48.25865" lon="-4.09099">
        <ele>50.6</ele>
        <time>2020-06-08T13:44:55Z</time>
      </trkpt>
      <trkpt lat="48.25865" lon="-4.091">
        <ele>50.7</ele>
        <time>2020-06-08T13:44:56Z</time>
      </trkpt>
      <trkpt lat="48.25866" lon="-4.09101">
        <ele>50.9</ele>
        <time>2020-06-08T13:44:57Z</time>
      </trkpt>
      <trkpt lat="48.25866" lon="-4.09101">
        <ele>51</ele>
        <time>2020-06-08T13:44:58Z</time>
      </trkpt>
      <trkpt lat="48.25867" lon="-4.09104">
        <ele>51.3</ele>
        <time>2020-06-08T13:44:59Z</time>
      </trkpt>
      <trkpt lat="48.25869" lon="-4.09104">
        <ele>51.5</ele>
        <time>2020-06-08T13:45:00Z</time>
      </trkpt>
      <trkpt lat="48.25869" lon="-4.09105">
        <ele>51.6</ele>
        <time>2020-06-08T13:45:01Z</time>
      </trkpt>
      <trkpt lat="48.2587" lon="-4.09108">
        <ele>51.8</ele>
        <time>2020-06-08T13:45:02Z</time>
      </trkpt>
      <trkpt lat="48.25871" lon="-4.09108">
        <ele>52</ele>
        <time>2020-06-08T13:45:03Z</time>
      </trkpt>
      <trkpt lat="48.25872" lon="-4.09109">
        <ele>52.1</ele>
        <time>2020-06-08T13:45:04Z</time>
      </trkpt>
      <trkpt lat="48.25873" lon="-4.09111">
        <ele>52.3</ele>
        <time>2020-06-08T13:45:05Z</time>
      </trkpt>
      <trkpt lat="48.25874" lon="-4.09113">
        <ele>52.6</ele>
        <time>2020-06-08T13:45:06Z</time>
      </trkpt>
      <trkpt lat="48.25875" lon="-4.09116">
        <ele>52.8</ele>
        <time>2020-06-08T13:45:07Z</time>
      </trkpt>
      <trkpt lat="48.25875" lon="-4.09117">
        <ele>53</ele>
        <time>2020-06-08T13:45:08Z</time>
      </trkpt>
      <trkpt lat="48.25876" lon="-4.09119">
        <ele>53.2</ele>
        <time>2020-06-08T13:45:09Z</time>
      </trkpt>
      <trkpt lat="48.25876" lon="-4.0912">
        <ele>53.3</ele>
        <time>2020-06-08T13:45:10Z</time>
      </trkpt>
      <trkpt lat="48.25878" lon="-4.09122">
        <ele>53.6</ele>
        <time>2020-06-08T13:45:11Z</time>
      </trkpt>
      <trkpt lat="48.25879" lon="-4.09123">
        <ele>53.8</ele>
        <time>2020-06-08T13:45:12Z</time>
      </trkpt>
      <trkpt lat="48.25881" lon="-4.09125">
        <ele>54</ele>
        <time>2020-06-08T13:45:13Z</time>
      </trkpt>
      <trkpt lat="48.25882" lon="-4.09126">
        <ele>54.1</ele>
        <time>2020-06-08T13:45:14Z</time>
      </trkpt>
      <trkpt lat="48.25882" lon="-4.09127">
        <ele>54.2</ele>
        <time>2020-06-08T13:45:15Z</time>
      </trkpt>
      <trkpt lat="48.25885" lon="-4.09132">
        <ele>54.7</ele>
        <time>2020-06-08T13:45:16Z</time>
      </trkpt>
      <trkpt lat="48.25886" lon="-4.09133">
        <ele>54.8</ele>
        <time>2020-06-08T13:45:17Z</time>
      </trkpt>
      <trkpt lat="48.25889" lon="-4.09137">
        <ele>55.2</ele>
        <time>2020-06-08T13:45:18Z</time>
      </trkpt>
      <trkpt lat="48.2589" lon="-4.09138">
        <ele>55.3</ele>
        <time>2020-06-08T13:45:19Z</time>
      </trkpt>
      <trkpt lat="48.25892" lon="-4.09138">
        <ele>55.5</ele>
        <time>2020-06-08T13:45:20Z</time>
      </trkpt>
      <trkpt lat="48.25893" lon="-4.09139">
        <ele>55.6</ele>
        <time>2020-06-08T13:45:21Z</time>
      </trkpt>
      <trkpt lat="48.25895" lon="-4.0914">
        <ele>55.8</ele>
        <time>2020-06-08T13:45:22Z</time>
      </trkpt>
      <trkpt lat="48.25897" lon="-4.09141">
        <ele>56</ele>
        <time>2020-06-08T13:45:23Z</time>
      </trkpt>
      <trkpt lat="48.25899" lon="-4.09143">
        <ele>56.3</ele>
        <time>2020-06-08T13:45:24Z</time>
      </trkpt>
      <trkpt lat="48.259" lon="-4.09144">
        <ele>56.4</ele>
        <time>2020-06-08T13:45:25Z</time>
      </trkpt>
      <trkpt lat="48.25903" lon="-4.09147">
        <ele>56.7</ele>
        <time>2020-06-08T13:45:26Z</time>
      </trkpt>
      <trkpt lat="48.25906" lon="-4.09151">
        <ele>57</ele>
        <time>2020-06-08T13:45:27Z</time>
      </trkpt>
      <trkpt lat="48.25907" lon="-4.09152">
        <ele>57.1</ele>
        <time>2020-06-08T13:45:28Z</time>
      </trkpt>
      <trkpt lat="48.25909" lon="-4.09155">
        <ele>57.4</ele>
        <time>2020-06-08T13:45:29Z</time>
      </trkpt>
      <trkpt lat="48.2591" lon="-4.09156">
        <ele>57.5</ele>
        <time>2020-06-08T13:45:30Z</time>
      </trkpt>
      <trkpt lat="48.25912" lon="-4.09159">
        <ele>57.7</ele>
        <time>2020-06-08T13:45:31Z</time>
      </trkpt>
      <trkpt lat="48.25913" lon="-4.0916">
        <ele>57.8</ele>
        <time>2020-06-08T13:45:32Z</time>
      </trkpt>
      <trkpt lat="48.25916" lon="-4.09163">
        <ele>58.1</ele>
        <time>2020-06-08T13:45:33Z</time>
      </trkpt>
      <trkpt lat="48.25917" lon="-4.09164">
        <ele>58.2</ele>
        <time>2020-06-08T13:45:34Z</time>
      </trkpt>
      <trkpt lat="48.2592" lon="-4.09166">
        <ele>58.4</ele>
        <time>2020-06-08T13:45:35Z</time>
      </trkpt>
      <trkpt lat="48.25921" lon="-4.09168">
        <ele>58.5</ele>
        <time>2020-06-08T13:45:36Z</time>
      </trkpt>
      <trkpt lat="48.25924" lon="-4.09171">
        <ele>58.8</ele>
        <time>2020-06-08T13:45:37Z</time>
      </trkpt>
      <trkpt lat="48.25924" lon="-4.09172">
        <ele>58.9</ele>
        <time>2020-06-08T13:45:38Z</time>
      </trkpt>
      <trkpt lat="48.25926" lon="-4.09173">
        <ele>59</ele>
        <time>2020-06-08T13:45:39Z</time>
      </trkpt>
      <trkpt lat="48.25927" lon="-4.09174">
        <ele>59.1</ele>
        <time>2020-06-08T13:45:40Z</time>
      </trkpt>
      <trkpt lat="48.25928" lon="-4.09175">
        <ele>59.3</ele>
        <time>2020-06-08T13:45:41Z</time>
      </trkpt>
      <trkpt lat="48.25931" lon="-4.09177">
        <ele>59.5</ele>
        <time>2020-06-08T13:45:42Z</time>
      </trkpt>
      <trkpt lat="48.25932" lon="-4.09178">
        <ele>59.5</ele>
        <time>2020-06-08T13:45:43Z</time>
      </trkpt>
      <trkpt lat="48.25935" lon="-4.0918">
        <ele>59.7</ele>
        <time>2020-06-08T13:45:44Z</time>
      </trkpt>
      <trkpt lat="48.25938" lon="-4.09182">
        <ele>59.9</ele>
        <time>2020-06-08T13:45:45Z</time>
      </trkpt>
      <trkpt lat="48.25939" lon="-4.09183">
        <ele>60</ele>
        <time>2020-06-08T13:45:46Z</time>
      </trkpt>
      <trkpt lat="48.25941" lon="-4.09184">
        <ele>60.1</ele>
        <time>2020-06-08T13:45:47Z</time>
      </trkpt>
      <trkpt lat="48.25944" lon="-4.09186">
        <ele>60.2</ele>
        <time>2020-06-08T13:45:48Z</time>
      </trkpt>
      <trkpt lat="48.25945" lon="-4.09187">
        <ele>60.3</ele>
        <time>2020-06-08T13:45:49Z</time>
      </trkpt>
      <trkpt lat="48.25944" lon="-4.09189">
        <ele>60.4</ele>
        <time>2020-06-08T13:45:50Z</time>
      </trkpt>
      <trkpt lat="48.25947" lon="-4.0919">
        <ele>60.5</ele>
        <time>2020-06-08T13:45:51Z</time>
      </trkpt>
      <trkpt lat="48.25949" lon="-4.09192">
        <ele>60.6</ele>
        <time>2020-06-08T13:45:52Z</time>
      </trkpt>
      <trkpt lat="48.2595" lon="-4.09193">
        <ele>60.7</ele>
        <time>2020-06-08T13:45:53Z</time>
      </trkpt>
      <trkpt lat="48.25951" lon="-4.09194">
        <ele>60.7</ele>
        <time>2020-06-08T13:45:54Z</time>
      </trkpt>
      <trkpt lat="48.25953" lon="-4.09197">
        <ele>60.9</ele>
        <time>2020-06-08T13:45:55Z</time>
      </trkpt>
      <trkpt lat="48.25954" lon="-4.09199">
        <ele>61</ele>
        <time>2020-06-08T13:45:56Z</time>
      </trkpt>
      <trkpt lat="48.25956" lon="-4.092">
        <ele>61.1</ele>
        <time>2020-06-08T13:45:57Z</time>
      </trkpt>
      <trkpt lat="48.25958" lon="-4.09202">
        <ele>61.3</ele>
        <time>2020-06-08T13:45:58Z</time>
      </trkpt>
      <trkpt lat="48.25962" lon="-4.09205">
        <ele>61.6</ele>
        <time>2020-06-08T13:45:59Z</time>
      </trkpt>
      <trkpt lat="48.25963" lon="-4.09205">
        <ele>61.6</ele>
        <time>2020-06-08T13:46:00Z</time>
      </trkpt>
      <trkpt lat="48.25966" lon="-4.09207">
        <ele>61.8</ele>
        <time>2020-06-08T13:46:01Z</time>
      </trkpt>
      <trkpt lat="48.25967" lon="-4.09207">
        <ele>61.9</ele>
        <time>2020-06-08T13:46:02Z</time>
      </trkpt>
      <trkpt lat="48.25969" lon="-4.09209">
        <ele>62.1</ele>
        <time>2020-06-08T13:46:03Z</time>
      </trkpt>
      <trkpt lat="48.2597" lon="-4.09209">
        <ele>62.1</ele>
        <time>2020-06-08T13:46:04Z</time>
      </trkpt>
      <trkpt lat="48.2597" lon="-4.0921">
        <ele>62.2</ele>
        <time>2020-06-08T13:46:05Z</time>
      </trkpt>
      <trkpt lat="48.25971" lon="-4.09211">
        <ele>62.2</ele>
        <time>2020-06-08T13:46:06Z</time>
      </trkpt>
      <trkpt lat="48.25972" lon="-4.09212">
        <ele>62.3</ele>
        <time>2020-06-08T13:46:07Z</time>
      </trkpt>
      <trkpt lat="48.25973" lon="-4.09213">
        <ele>62.4</ele>
        <time>2020-06-08T13:46:08Z</time>
      </trkpt>
      <trkpt lat="48.25974" lon="-4.09214">
        <ele>62.4</ele>
        <time>2020-06-08T13:46:09Z</time>
      </trkpt>
      <trkpt lat="48.25975" lon="-4.09217">
        <ele>62.6</ele>
        <time>2020-06-08T13:46:10Z</time>
      </trkpt>
      <trkpt lat="48.25977" lon="-4.09219">
        <ele>62.7</ele>
        <time>2020-06-08T13:46:11Z</time>
      </trkpt>
      <trkpt lat="48.25977" lon="-4.09221">
        <ele>62.8</ele>
        <time>2020-06-08T13:46:12Z</time>
      </trkpt>
      <trkpt lat="48.2598" lon="-4.09224">
        <ele>63.2</ele>
        <time>2020-06-08T13:46:13Z</time>
      </trkpt>
      <trkpt lat="48.25981" lon="-4.09225">
        <ele>63.3</ele>
        <time>2020-06-08T13:46:14Z</time>
      </trkpt>
      <trkpt lat="48.25983" lon="-4.09227">
        <ele>63.4</ele>
        <time>2020-06-08T13:46:15Z</time>
      </trkpt>
      <trkpt lat="48.25986" lon="-4.0923">
        <ele>63.5</ele>
        <time>2020-06-08T13:46:16Z</time>
      </trkpt>
      <trkpt lat="48.25988" lon="-4.09232">
        <ele>63.6</ele>
        <time>2020-06-08T13:46:17Z</time>
      </trkpt>
      <trkpt lat="48.25989" lon="-4.09234">
        <ele>63.6</ele>
        <time>2020-06-08T13:46:18Z</time>
      </trkpt>
      <trkpt lat="48.2599" lon="-4.09235">
        <ele>63.7</ele>
        <time>2020-06-08T13:46:19Z</time>
      </trkpt>
      <trkpt lat="48.25991" lon="-4.09237">
        <ele>63.7</ele>
        <time>2020-06-08T13:46:20Z</time>
      </trkpt>
      <trkpt lat="48.25994" lon="-4.0924">
        <ele>63.9</ele>
        <time>2020-06-08T13:46:21Z</time>
      </trkpt>
      <trkpt lat="48.25995" lon="-4.0924">
        <ele>63.9</ele>
        <time>2020-06-08T13:46:22Z</time>
      </trkpt>
      <trkpt lat="48.25996" lon="-4.0924">
        <ele>64</ele>
        <time>2020-06-08T13:46:23Z</time>
      </trkpt>
      <trkpt lat="48.25998" lon="-4.09241">
        <ele>64</ele>
        <time>2020-06-08T13:46:24Z</time>
      </trkpt>
      <trkpt lat="48.26" lon="-4.09242">
        <ele>64.1</ele>
        <time>2020-06-08T13:46:25Z</time>
      </trkpt>
      <trkpt lat="48.26001" lon="-4.09242">
        <ele>64.1</ele>
        <time>2020-06-08T13:46:26Z</time>
      </trkpt>
      <trkpt lat="48.26003" lon="-4.09243">
        <ele>64.2</ele>
        <time>2020-06-08T13:46:27Z</time>
      </trkpt>
      <trkpt lat="48.26004" lon="-4.09244">
        <ele>64.2</ele>
        <time>2020-06-08T13:46:28Z</time>
      </trkpt>
      <trkpt lat="48.26004" lon="-4.09245">
        <ele>64.2</ele>
        <time>2020-06-08T13:46:29Z</time>
      </trkpt>
      <trkpt lat="48.26005" lon="-4.09246">
        <ele>64.2</ele>
        <time>2020-06-08T13:46:30Z</time>
      </trkpt>
      <trkpt lat="48.26006" lon="-4.09247">
        <ele>64.3</ele>
        <time>2020-06-08T13:46:31Z</time>
      </trkpt>
      <trkpt lat="48.26008" lon="-4.09248">
        <ele>64.3</ele>
        <time>2020-06-08T13:46:32Z</time>
      </trkpt>
      <trkpt lat="48.26009" lon="-4.0925">
        <ele>64.3</ele>
        <time>2020-06-08T13:46:33Z</time>
      </trkpt>
      <trkpt lat="48.2601" lon="-4.09251">
        <ele>64.3</ele>
        <time>2020-06-08T13:46:34Z</time>
      </trkpt>
      <trkpt lat="48.2601" lon="-4.09252">
        <ele>64.4</ele>
        <time>2020-06-08T13:46:35Z</time>
      </trkpt>
      <trkpt lat="48.2601" lon="-4.09253">
        <ele>64.4</ele>
        <time>2020-06-08T13:46:36Z</time>
      </trkpt>
      <trkpt lat="48.2601" lon="-4.09254">
        <ele>64.4</ele>
        <time>2020-06-08T13:46:37Z</time>
      </trkpt>
      <trkpt lat="48.26011" lon="-4.09255">
        <ele>64.4</ele>
        <time>2020-06-08T13:46:38Z</time>
      </trkpt>
      <trkpt lat="48.26011" lon="-4.09255">
        <ele>64.4</ele>
        <time>2020-06-08T13:46:39Z</time>
      </trkpt>
      <trkpt lat="48.26011" lon="-4.09256">
        <ele>64.4</ele>
        <time>2020-06-08T13:46:40Z</time>
      </trkpt>
      <trkpt lat="48.26012" lon="-4.09257">
        <ele>64.4</ele>
        <time>2020-06-08T13:46:41Z</time>
      </trkpt>
      <trkpt lat="48.26012" lon="-4.09258">
        <ele>64.4</ele>
        <time>2020-06-08T13:46:42Z</time>
      </trkpt>
      <trkpt lat="48.26012" lon="-4.09259">
        <ele>64.4</ele>
        <time>2020-06-08T13:46:43Z</time>
      </trkpt>
      <trkpt lat="48.26012" lon="-4.0926">
        <ele>64.4</ele>
        <time>2020-06-08T13:46:44Z</time>
      </trkpt>
      <trkpt lat="48.26013" lon="-4.09261">
        <ele>64.4</ele>
        <time>2020-06-08T13:46:45Z</time>
      </trkpt>
      <trkpt lat="48.26013" lon="-4.09262">
        <ele>64.4</ele>
        <time>2020-06-08T13:46:46Z</time>
      </trkpt>
      <trkpt lat="48.26013" lon="-4.09262">
        <ele>64.4</ele>
        <time>2020-06-08T13:49:38Z</time>
      </trkpt>
      <trkpt lat="48.26013" lon="-4.09263">
        <ele>64.4</ele>
        <time>2020-06-08T13:49:39Z</time>
      </trkpt>
      <trkpt lat="48.26015" lon="-4.09267">
        <ele>64.4</ele>
        <time>2020-06-08T13:49:40Z</time>
      </trkpt>
      <trkpt lat="48.26016" lon="-4.09269">
        <ele>64.4</ele>
        <time>2020-06-08T13:49:41Z</time>
      </trkpt>
      <trkpt lat="48.2602" lon="-4.09272">
        <ele>64.3</ele>
        <time>2020-06-08T13:49:42Z</time>
      </trkpt>
      <trkpt lat="48.26022" lon="-4.09273">
        <ele>64.2</ele>
        <time>2020-06-08T13:49:43Z</time>
      </trkpt>
      <trkpt lat="48.26026" lon="-4.09275">
        <ele>64.1</ele>
        <time>2020-06-08T13:49:44Z</time>
      </trkpt>
      <trkpt lat="48.26028" lon="-4.09276">
        <ele>63.9</ele>
        <time>2020-06-08T13:49:45Z</time>
      </trkpt>
      <trkpt lat="48.26034" lon="-4.09276">
        <ele>63.7</ele>
        <time>2020-06-08T13:49:46Z</time>
      </trkpt>
      <trkpt lat="48.26037" lon="-4.09278">
        <ele>63.6</ele>
        <time>2020-06-08T13:49:47Z</time>
      </trkpt>
      <trkpt lat="48.2604" lon="-4.09282">
        <ele>63.5</ele>
        <time>2020-06-08T13:49:48Z</time>
      </trkpt>
      <trkpt lat="48.26043" lon="-4.09286">
        <ele>63.4</ele>
        <time>2020-06-08T13:49:49Z</time>
      </trkpt>
      <trkpt lat="48.26047" lon="-4.0929">
        <ele>63.3</ele>
        <time>2020-06-08T13:49:50Z</time>
      </trkpt>
      <trkpt lat="48.2605" lon="-4.09294">
        <ele>63.2</ele>
        <time>2020-06-08T13:49:51Z</time>
      </trkpt>
      <trkpt lat="48.26054" lon="-4.09298">
        <ele>63.1</ele>
        <time>2020-06-08T13:49:52Z</time>
      </trkpt>
      <trkpt lat="48.26058" lon="-4.09302">
        <ele>63.1</ele>
        <time>2020-06-08T13:49:53Z</time>
      </trkpt>
      <trkpt lat="48.26061" lon="-4.09307">
        <ele>63</ele>
        <time>2020-06-08T13:49:54Z</time>
      </trkpt>
      <trkpt lat="48.26065" lon="-4.09311">
        <ele>63</ele>
        <time>2020-06-08T13:49:55Z</time>
      </trkpt>
      <trkpt lat="48.26068" lon="-4.09314">
        <ele>63</ele>
        <time>2020-06-08T13:49:56Z</time>
      </trkpt>
      <trkpt lat="48.26071" lon="-4.09318">
        <ele>63</ele>
        <time>2020-06-08T13:49:57Z</time>
      </trkpt>
      <trkpt lat="48.26075" lon="-4.09324">
        <ele>63</ele>
        <time>2020-06-08T13:49:58Z</time>
      </trkpt>
      <trkpt lat="48.26079" lon="-4.09327">
        <ele>63</ele>
        <time>2020-06-08T13:49:59Z</time>
      </trkpt>
      <trkpt lat="48.26083" lon="-4.0933">
        <ele>63</ele>
        <time>2020-06-08T13:50:00Z</time>
      </trkpt>
      <trkpt lat="48.26086" lon="-4.09333">
        <ele>63</ele>
        <time>2020-06-08T13:50:01Z</time>
      </trkpt>
      <trkpt lat="48.2609" lon="-4.09334">
        <ele>63</ele>
        <time>2020-06-08T13:50:02Z</time>
      </trkpt>
      <trkpt lat="48.26094" lon="-4.09336">
        <ele>63</ele>
        <time>2020-06-08T13:50:03Z</time>
      </trkpt>
      <trkpt lat="48.26096" lon="-4.0934">
        <ele>63.1</ele>
        <time>2020-06-08T13:50:04Z</time>
      </trkpt>
      <trkpt lat="48.261" lon="-4.09343">
        <ele>63.1</ele>
        <time>2020-06-08T13:50:05Z</time>
      </trkpt>
      <trkpt lat="48.26104" lon="-4.09347">
        <ele>63.2</ele>
        <time>2020-06-08T13:50:06Z</time>
      </trkpt>
      <trkpt lat="48.26107" lon="-4.0935">
        <ele>63.3</ele>
        <time>2020-06-08T13:50:07Z</time>
      </trkpt>
      <trkpt lat="48.2611" lon="-4.09352">
        <ele>63.5</ele>
        <time>2020-06-08T13:50:08Z</time>
      </trkpt>
      <trkpt lat="48.26113" lon="-4.09356">
        <ele>63.7</ele>
        <time>2020-06-08T13:50:09Z</time>
      </trkpt>
      <trkpt lat="48.26116" lon="-4.09358">
        <ele>63.8</ele>
        <time>2020-06-08T13:50:10Z</time>
      </trkpt>
      <trkpt lat="48.2612" lon="-4.0936">
        <ele>63.9</ele>
        <time>2020-06-08T13:50:11Z</time>
      </trkpt>
      <trkpt lat="48.26123" lon="-4.09362">
        <ele>64</ele>
        <time>2020-06-08T13:50:12Z</time>
      </trkpt>
      <trkpt lat="48.26126" lon="-4.09364">
        <ele>64.1</ele>
        <time>2020-06-08T13:50:13Z</time>
      </trkpt>
      <trkpt lat="48.26128" lon="-4.09367">
        <ele>64.2</ele>
        <time>2020-06-08T13:50:14Z</time>
      </trkpt>
      <trkpt lat="48.26131" lon="-4.0937">
        <ele>64.3</ele>
        <time>2020-06-08T13:50:15Z</time>
      </trkpt>
      <trkpt lat="48.26134" lon="-4.09372">
        <ele>64.3</ele>
        <time>2020-06-08T13:50:16Z</time>
      </trkpt>
      <trkpt lat="48.26137" lon="-4.09374">
        <ele>64.4</ele>
        <time>2020-06-08T13:50:17Z</time>
      </trkpt>
      <trkpt lat="48.26141" lon="-4.09377">
        <ele>64.5</ele>
        <time>2020-06-08T13:50:18Z</time>
      </trkpt>
      <trkpt lat="48.26143" lon="-4.09379">
        <ele>64.6</ele>
        <time>2020-06-08T13:50:19Z</time>
      </trkpt>
      <trkpt lat="48.26147" lon="-4.09382">
        <ele>64.7</ele>
        <time>2020-06-08T13:50:20Z</time>
      </trkpt>
      <trkpt lat="48.2615" lon="-4.09385">
        <ele>64.8</ele>
        <time>2020-06-08T13:50:21Z</time>
      </trkpt>
      <trkpt lat="48.26153" lon="-4.09387">
        <ele>64.9</ele>
        <time>2020-06-08T13:50:22Z</time>
      </trkpt>
      <trkpt lat="48.26157" lon="-4.0939">
        <ele>65</ele>
        <time>2020-06-08T13:50:23Z</time>
      </trkpt>
      <trkpt lat="48.26158" lon="-4.09391">
        <ele>65.1</ele>
        <time>2020-06-08T13:50:24Z</time>
      </trkpt>
      <trkpt lat="48.26162" lon="-4.09394">
        <ele>65.2</ele>
        <time>2020-06-08T13:50:25Z</time>
      </trkpt>
      <trkpt lat="48.26163" lon="-4.09395">
        <ele>65.3</ele>
        <time>2020-06-08T13:50:26Z</time>
      </trkpt>
      <trkpt lat="48.26166" lon="-4.09398">
        <ele>65.5</ele>
        <time>2020-06-08T13:50:27Z</time>
      </trkpt>
      <trkpt lat="48.26168" lon="-4.09401">
        <ele>65.6</ele>
        <time>2020-06-08T13:50:28Z</time>
      </trkpt>
      <trkpt lat="48.26171" lon="-4.09403">
        <ele>65.8</ele>
        <time>2020-06-08T13:50:29Z</time>
      </trkpt>
      <trkpt lat="48.26173" lon="-4.09405">
        <ele>65.9</ele>
        <time>2020-06-08T13:50:30Z</time>
      </trkpt>
      <trkpt lat="48.26177" lon="-4.09408">
        <ele>66.2</ele>
        <time>2020-06-08T13:50:31Z</time>
      </trkpt>
      <trkpt lat="48.26179" lon="-4.09409">
        <ele>66.3</ele>
        <time>2020-06-08T13:50:32Z</time>
      </trkpt>
      <trkpt lat="48.26182" lon="-4.09411">
        <ele>66.5</ele>
        <time>2020-06-08T13:50:33Z</time>
      </trkpt>
      <trkpt lat="48.26185" lon="-4.09414">
        <ele>66.7</ele>
        <time>2020-06-08T13:50:34Z</time>
      </trkpt>
      <trkpt lat="48.26186" lon="-4.09415">
        <ele>66.8</ele>
        <time>2020-06-08T13:50:35Z</time>
      </trkpt>
      <trkpt lat="48.2619" lon="-4.09418">
        <ele>67</ele>
        <time>2020-06-08T13:50:36Z</time>
      </trkpt>
      <trkpt lat="48.26192" lon="-4.09421">
        <ele>67.2</ele>
        <time>2020-06-08T13:50:37Z</time>
      </trkpt>
      <trkpt lat="48.26195" lon="-4.09422">
        <ele>67.4</ele>
        <time>2020-06-08T13:50:38Z</time>
      </trkpt>
      <trkpt lat="48.26197" lon="-4.09423">
        <ele>67.6</ele>
        <time>2020-06-08T13:50:39Z</time>
      </trkpt>
      <trkpt lat="48.26201" lon="-4.09425">
        <ele>67.8</ele>
        <time>2020-06-08T13:50:40Z</time>
      </trkpt>
      <trkpt lat="48.26203" lon="-4.09426">
        <ele>67.9</ele>
        <time>2020-06-08T13:50:41Z</time>
      </trkpt>
      <trkpt lat="48.26206" lon="-4.09427">
        <ele>68.1</ele>
        <time>2020-06-08T13:50:42Z</time>
      </trkpt>
      <trkpt lat="48.26209" lon="-4.09429">
        <ele>68.3</ele>
        <time>2020-06-08T13:50:43Z</time>
      </trkpt>
      <trkpt lat="48.26211" lon="-4.0943">
        <ele>68.5</ele>
        <time>2020-06-08T13:50:44Z</time>
      </trkpt>
      <trkpt lat="48.26215" lon="-4.09434">
        <ele>68.8</ele>
        <time>2020-06-08T13:50:45Z</time>
      </trkpt>
      <trkpt lat="48.26216" lon="-4.09435">
        <ele>68.9</ele>
        <time>2020-06-08T13:50:46Z</time>
      </trkpt>
      <trkpt lat="48.26218" lon="-4.09437">
        <ele>69.1</ele>
        <time>2020-06-08T13:50:47Z</time>
      </trkpt>
      <trkpt lat="48.26219" lon="-4.09437">
        <ele>69.1</ele>
        <time>2020-06-08T13:50:48Z</time>
      </trkpt>
      <trkpt lat="48.26222" lon="-4.09438">
        <ele>69.3</ele>
        <time>2020-06-08T13:50:49Z</time>
      </trkpt>
      <trkpt lat="48.26225" lon="-4.0944">
        <ele>69.6</ele>
        <time>2020-06-08T13:50:50Z</time>
      </trkpt>
      <trkpt lat="48.26228" lon="-4.09443">
        <ele>69.9</ele>
        <time>2020-06-08T13:50:51Z</time>
      </trkpt>
      <trkpt lat="48.26232" lon="-4.09443">
        <ele>70.1</ele>
        <time>2020-06-08T13:50:52Z</time>
      </trkpt>
      <trkpt lat="48.26235" lon="-4.09446">
        <ele>70.4</ele>
        <time>2020-06-08T13:50:53Z</time>
      </trkpt>
      <trkpt lat="48.26238" lon="-4.09447">
        <ele>70.6</ele>
        <time>2020-06-08T13:50:54Z</time>
      </trkpt>
      <trkpt lat="48.26242" lon="-4.0945">
        <ele>70.9</ele>
        <time>2020-06-08T13:50:55Z</time>
      </trkpt>
      <trkpt lat="48.26244" lon="-4.0945">
        <ele>71</ele>
        <time>2020-06-08T13:50:56Z</time>
      </trkpt>
      <trkpt lat="48.26247" lon="-4.09452">
        <ele>71.3</ele>
        <time>2020-06-08T13:50:57Z</time>
      </trkpt>
      <trkpt lat="48.2625" lon="-4.09454">
        <ele>71.5</ele>
        <time>2020-06-08T13:50:58Z</time>
      </trkpt>
      <trkpt lat="48.26253" lon="-4.09455">
        <ele>71.7</ele>
        <time>2020-06-08T13:50:59Z</time>
      </trkpt>
      <trkpt lat="48.26257" lon="-4.09457">
        <ele>72</ele>
        <time>2020-06-08T13:51:00Z</time>
      </trkpt>
      <trkpt lat="48.26258" lon="-4.09458">
        <ele>72.1</ele>
        <time>2020-06-08T13:51:01Z</time>
      </trkpt>
      <trkpt lat="48.26261" lon="-4.0946">
        <ele>72.4</ele>
        <time>2020-06-08T13:51:02Z</time>
      </trkpt>
      <trkpt lat="48.26262" lon="-4.09461">
        <ele>72.5</ele>
        <time>2020-06-08T13:51:03Z</time>
      </trkpt>
      <trkpt lat="48.26265" lon="-4.09462">
        <ele>72.7</ele>
        <time>2020-06-08T13:51:04Z</time>
      </trkpt>
      <trkpt lat="48.26268" lon="-4.09462">
        <ele>73</ele>
        <time>2020-06-08T13:51:05Z</time>
      </trkpt>
      <trkpt lat="48.26272" lon="-4.09464">
        <ele>73.2</ele>
        <time>2020-06-08T13:51:06Z</time>
      </trkpt>
      <trkpt lat="48.26273" lon="-4.09465">
        <ele>73.3</ele>
        <time>2020-06-08T13:51:07Z</time>
      </trkpt>
      <trkpt lat="48.26274" lon="-4.09467">
        <ele>73.4</ele>
        <time>2020-06-08T13:51:08Z</time>
      </trkpt>
      <trkpt lat="48.26275" lon="-4.09469">
        <ele>73.5</ele>
        <time>2020-06-08T13:51:09Z</time>
      </trkpt>
      <trkpt lat="48.26279" lon="-4.09471">
        <ele>73.8</ele>
        <time>2020-06-08T13:51:10Z</time>
      </trkpt>
      <trkpt lat="48.2628" lon="-4.09472">
        <ele>73.9</ele>
        <time>2020-06-08T13:51:11Z</time>
      </trkpt>
      <trkpt lat="48.26284" lon="-4.09473">
        <ele>74.3</ele>
        <time>2020-06-08T13:51:12Z</time>
      </trkpt>
      <trkpt lat="48.26285" lon="-4.09473">
        <ele>74.5</ele>
        <time>2020-06-08T13:51:13Z</time>
      </trkpt>
      <trkpt lat="48.2629" lon="-4.09473">
        <ele>74.8</ele>
        <time>2020-06-08T13:51:14Z</time>
      </trkpt>
      <trkpt lat="48.26291" lon="-4.09473">
        <ele>75</ele>
        <time>2020-06-08T13:51:15Z</time>
      </trkpt>
      <trkpt lat="48.26294" lon="-4.09477">
        <ele>75.3</ele>
        <time>2020-06-08T13:51:16Z</time>
      </trkpt>
      <trkpt lat="48.26295" lon="-4.09478">
        <ele>75.4</ele>
        <time>2020-06-08T13:51:17Z</time>
      </trkpt>
      <trkpt lat="48.26298" lon="-4.09481">
        <ele>75.8</ele>
        <time>2020-06-08T13:51:18Z</time>
      </trkpt>
      <trkpt lat="48.263" lon="-4.09483">
        <ele>75.9</ele>
        <time>2020-06-08T13:51:19Z</time>
      </trkpt>
      <trkpt lat="48.26303" lon="-4.09485">
        <ele>76.2</ele>
        <time>2020-06-08T13:51:20Z</time>
      </trkpt>
      <trkpt lat="48.26305" lon="-4.09487">
        <ele>76.4</ele>
        <time>2020-06-08T13:51:21Z</time>
      </trkpt>
      <trkpt lat="48.26308" lon="-4.09489">
        <ele>76.7</ele>
        <time>2020-06-08T13:51:22Z</time>
      </trkpt>
      <trkpt lat="48.26311" lon="-4.09489">
        <ele>76.9</ele>
        <time>2020-06-08T13:51:23Z</time>
      </trkpt>
      <trkpt lat="48.26315" lon="-4.0949">
        <ele>77.2</ele>
        <time>2020-06-08T13:51:24Z</time>
      </trkpt>
      <trkpt lat="48.26316" lon="-4.09491">
        <ele>77.3</ele>
        <time>2020-06-08T13:51:25Z</time>
      </trkpt>
      <trkpt lat="48.26319" lon="-4.09493">
        <ele>77.6</ele>
        <time>2020-06-08T13:51:26Z</time>
      </trkpt>
      <trkpt lat="48.26322" lon="-4.09494">
        <ele>77.8</ele>
        <time>2020-06-08T13:51:27Z</time>
      </trkpt>
      <trkpt lat="48.26323" lon="-4.09494">
        <ele>77.9</ele>
        <time>2020-06-08T13:51:28Z</time>
      </trkpt>
      <trkpt lat="48.26326" lon="-4.09495">
        <ele>78.1</ele>
        <time>2020-06-08T13:51:29Z</time>
      </trkpt>
      <trkpt lat="48.26328" lon="-4.09496">
        <ele>78.3</ele>
        <time>2020-06-08T13:51:30Z</time>
      </trkpt>
      <trkpt lat="48.26331" lon="-4.09498">
        <ele>78.5</ele>
        <time>2020-06-08T13:51:31Z</time>
      </trkpt>
      <trkpt lat="48.26334" lon="-4.09499">
        <ele>78.8</ele>
        <time>2020-06-08T13:51:32Z</time>
      </trkpt>
      <trkpt lat="48.26337" lon="-4.09501">
        <ele>79</ele>
        <time>2020-06-08T13:51:33Z</time>
      </trkpt>
      <trkpt lat="48.2634" lon="-4.09503">
        <ele>79.2</ele>
        <time>2020-06-08T13:51:34Z</time>
      </trkpt>
      <trkpt lat="48.26343" lon="-4.09504">
        <ele>79.4</ele>
        <time>2020-06-08T13:51:35Z</time>
      </trkpt>
      <trkpt lat="48.26346" lon="-4.09505">
        <ele>79.6</ele>
        <time>2020-06-08T13:51:36Z</time>
      </trkpt>
      <trkpt lat="48.2635" lon="-4.09508">
        <ele>79.9</ele>
        <time>2020-06-08T13:51:37Z</time>
      </trkpt>
      <trkpt lat="48.26351" lon="-4.09508">
        <ele>80</ele>
        <time>2020-06-08T13:51:38Z</time>
      </trkpt>
      <trkpt lat="48.26355" lon="-4.0951">
        <ele>80.3</ele>
        <time>2020-06-08T13:51:39Z</time>
      </trkpt>
      <trkpt lat="48.26359" lon="-4.09511">
        <ele>80.5</ele>
        <time>2020-06-08T13:51:40Z</time>
      </trkpt>
      <trkpt lat="48.26361" lon="-4.09513">
        <ele>80.8</ele>
        <time>2020-06-08T13:51:41Z</time>
      </trkpt>
      <trkpt lat="48.26364" lon="-4.09515">
        <ele>81</ele>
        <time>2020-06-08T13:51:42Z</time>
      </trkpt>
      <trkpt lat="48.26367" lon="-4.09518">
        <ele>81.2</ele>
        <time>2020-06-08T13:51:43Z</time>
      </trkpt>
      <trkpt lat="48.2637" lon="-4.0952">
        <ele>81.5</ele>
        <time>2020-06-08T13:51:44Z</time>
      </trkpt>
      <trkpt lat="48.26372" lon="-4.09521">
        <ele>81.6</ele>
        <time>2020-06-08T13:51:45Z</time>
      </trkpt>
      <trkpt lat="48.26374" lon="-4.09523">
        <ele>81.8</ele>
        <time>2020-06-08T13:51:46Z</time>
      </trkpt>
      <trkpt lat="48.26377" lon="-4.09524">
        <ele>82.1</ele>
        <time>2020-06-08T13:51:47Z</time>
      </trkpt>
      <trkpt lat="48.2638" lon="-4.09527">
        <ele>82.3</ele>
        <time>2020-06-08T13:51:48Z</time>
      </trkpt>
      <trkpt lat="48.26381" lon="-4.09528">
        <ele>82.4</ele>
        <time>2020-06-08T13:51:49Z</time>
      </trkpt>
      <trkpt lat="48.26384" lon="-4.09529">
        <ele>82.6</ele>
        <time>2020-06-08T13:51:50Z</time>
      </trkpt>
      <trkpt lat="48.26387" lon="-4.09531">
        <ele>82.8</ele>
        <time>2020-06-08T13:51:51Z</time>
      </trkpt>
      <trkpt lat="48.2639" lon="-4.09532">
        <ele>83.1</ele>
        <time>2020-06-08T13:51:52Z</time>
      </trkpt>
      <trkpt lat="48.26393" lon="-4.09534">
        <ele>83.3</ele>
        <time>2020-06-08T13:51:53Z</time>
      </trkpt>
      <trkpt lat="48.26397" lon="-4.09536">
        <ele>83.6</ele>
        <time>2020-06-08T13:51:54Z</time>
      </trkpt>
      <trkpt lat="48.264" lon="-4.09537">
        <ele>83.8</ele>
        <time>2020-06-08T13:51:55Z</time>
      </trkpt>
      <trkpt lat="48.26403" lon="-4.09538">
        <ele>84</ele>
        <time>2020-06-08T13:51:56Z</time>
      </trkpt>
      <trkpt lat="48.26407" lon="-4.0954">
        <ele>84.2</ele>
        <time>2020-06-08T13:51:57Z</time>
      </trkpt>
      <trkpt lat="48.2641" lon="-4.09542">
        <ele>84.5</ele>
        <time>2020-06-08T13:51:58Z</time>
      </trkpt>
      <trkpt lat="48.26412" lon="-4.09543">
        <ele>84.6</ele>
        <time>2020-06-08T13:51:59Z</time>
      </trkpt>
      <trkpt lat="48.26415" lon="-4.09545">
        <ele>84.8</ele>
        <time>2020-06-08T13:52:00Z</time>
      </trkpt>
      <trkpt lat="48.26417" lon="-4.09547">
        <ele>85.1</ele>
        <time>2020-06-08T13:52:01Z</time>
      </trkpt>
      <trkpt lat="48.2642" lon="-4.09549">
        <ele>85.4</ele>
        <time>2020-06-08T13:52:02Z</time>
      </trkpt>
      <trkpt lat="48.26421" lon="-4.09549">
        <ele>85.5</ele>
        <time>2020-06-08T13:52:03Z</time>
      </trkpt>
      <trkpt lat="48.26424" lon="-4.09549">
        <ele>85.8</ele>
        <time>2020-06-08T13:52:04Z</time>
      </trkpt>
      <trkpt lat="48.26427" lon="-4.09549">
        <ele>86</ele>
        <time>2020-06-08T13:52:05Z</time>
      </trkpt>
      <trkpt lat="48.26428" lon="-4.0955">
        <ele>86.1</ele>
        <time>2020-06-08T13:52:06Z</time>
      </trkpt>
      <trkpt lat="48.26432" lon="-4.09549">
        <ele>86.4</ele>
        <time>2020-06-08T13:52:07Z</time>
      </trkpt>
      <trkpt lat="48.26433" lon="-4.09549">
        <ele>86.5</ele>
        <time>2020-06-08T13:52:08Z</time>
      </trkpt>
      <trkpt lat="48.26436" lon="-4.09549">
        <ele>86.8</ele>
        <time>2020-06-08T13:52:09Z</time>
      </trkpt>
      <trkpt lat="48.26439" lon="-4.09549">
        <ele>87</ele>
        <time>2020-06-08T13:52:10Z</time>
      </trkpt>
      <trkpt lat="48.26443" lon="-4.09548">
        <ele>87.3</ele>
        <time>2020-06-08T13:52:11Z</time>
      </trkpt>
      <trkpt lat="48.26444" lon="-4.09548">
        <ele>87.4</ele>
        <time>2020-06-08T13:52:12Z</time>
      </trkpt>
      <trkpt lat="48.26448" lon="-4.09549">
        <ele>87.7</ele>
        <time>2020-06-08T13:52:13Z</time>
      </trkpt>
      <trkpt lat="48.26449" lon="-4.0955">
        <ele>87.8</ele>
        <time>2020-06-08T13:52:14Z</time>
      </trkpt>
      <trkpt lat="48.26453" lon="-4.09549">
        <ele>88.1</ele>
        <time>2020-06-08T13:52:15Z</time>
      </trkpt>
      <trkpt lat="48.26453" lon="-4.09548">
        <ele>88.2</ele>
        <time>2020-06-08T13:52:16Z</time>
      </trkpt>
      <trkpt lat="48.26457" lon="-4.09548">
        <ele>88.5</ele>
        <time>2020-06-08T13:52:17Z</time>
      </trkpt>
      <trkpt lat="48.26458" lon="-4.09549">
        <ele>88.6</ele>
        <time>2020-06-08T13:52:18Z</time>
      </trkpt>
      <trkpt lat="48.26461" lon="-4.09548">
        <ele>88.9</ele>
        <time>2020-06-08T13:52:19Z</time>
      </trkpt>
      <trkpt lat="48.26463" lon="-4.09548">
        <ele>89</ele>
        <time>2020-06-08T13:52:20Z</time>
      </trkpt>
      <trkpt lat="48.26466" lon="-4.09549">
        <ele>89.2</ele>
        <time>2020-06-08T13:52:21Z</time>
      </trkpt>
      <trkpt lat="48.26467" lon="-4.09549">
        <ele>89.4</ele>
        <time>2020-06-08T13:52:22Z</time>
      </trkpt>
      <trkpt lat="48.26468" lon="-4.09548">
        <ele>89.5</ele>
        <time>2020-06-08T13:52:23Z</time>
      </trkpt>
      <trkpt lat="48.26471" lon="-4.09547">
        <ele>89.7</ele>
        <time>2020-06-08T13:52:24Z</time>
      </trkpt>
      <trkpt lat="48.26473" lon="-4.09547">
        <ele>89.9</ele>
        <time>2020-06-08T13:52:25Z</time>
      </trkpt>
      <trkpt lat="48.26476" lon="-4.09547">
        <ele>90.1</ele>
        <time>2020-06-08T13:52:26Z</time>
      </trkpt>
      <trkpt lat="48.26479" lon="-4.09548">
        <ele>90.3</ele>
        <time>2020-06-08T13:52:27Z</time>
      </trkpt>
      <trkpt lat="48.26481" lon="-4.09548">
        <ele>90.4</ele>
        <time>2020-06-08T13:52:28Z</time>
      </trkpt>
      <trkpt lat="48.26484" lon="-4.09548">
        <ele>90.7</ele>
        <time>2020-06-08T13:52:29Z</time>
      </trkpt>
      <trkpt lat="48.26485" lon="-4.09548">
        <ele>90.8</ele>
        <time>2020-06-08T13:52:30Z</time>
      </trkpt>
      <trkpt lat="48.26489" lon="-4.09549">
        <ele>91</ele>
        <time>2020-06-08T13:52:31Z</time>
      </trkpt>
      <trkpt lat="48.2649" lon="-4.09549">
        <ele>91.2</ele>
        <time>2020-06-08T13:52:32Z</time>
      </trkpt>
      <trkpt lat="48.26494" lon="-4.09549">
        <ele>91.4</ele>
        <time>2020-06-08T13:52:33Z</time>
      </trkpt>
      <trkpt lat="48.26496" lon="-4.09549">
        <ele>91.5</ele>
        <time>2020-06-08T13:52:34Z</time>
      </trkpt>
      <trkpt lat="48.26499" lon="-4.0955">
        <ele>91.8</ele>
        <time>2020-06-08T13:52:35Z</time>
      </trkpt>
      <trkpt lat="48.26503" lon="-4.09551">
        <ele>92.1</ele>
        <time>2020-06-08T13:52:36Z</time>
      </trkpt>
      <trkpt lat="48.26506" lon="-4.09551">
        <ele>92.3</ele>
        <time>2020-06-08T13:52:37Z</time>
      </trkpt>
      <trkpt lat="48.2651" lon="-4.09551">
        <ele>92.6</ele>
        <time>2020-06-08T13:52:38Z</time>
      </trkpt>
      <trkpt lat="48.26512" lon="-4.09551">
        <ele>92.6</ele>
        <time>2020-06-08T13:52:39Z</time>
      </trkpt>
      <trkpt lat="48.26515" lon="-4.09551">
        <ele>92.8</ele>
        <time>2020-06-08T13:52:40Z</time>
      </trkpt>
      <trkpt lat="48.26519" lon="-4.0955">
        <ele>93.1</ele>
        <time>2020-06-08T13:52:41Z</time>
      </trkpt>
      <trkpt lat="48.2652" lon="-4.0955">
        <ele>93.1</ele>
        <time>2020-06-08T13:52:42Z</time>
      </trkpt>
      <trkpt lat="48.26524" lon="-4.09549">
        <ele>93.3</ele>
        <time>2020-06-08T13:52:43Z</time>
      </trkpt>
      <trkpt lat="48.26527" lon="-4.0955">
        <ele>93.4</ele>
        <time>2020-06-08T13:52:44Z</time>
      </trkpt>
      <trkpt lat="48.26528" lon="-4.0955">
        <ele>93.5</ele>
        <time>2020-06-08T13:52:45Z</time>
      </trkpt>
      <trkpt lat="48.26531" lon="-4.0955">
        <ele>93.6</ele>
        <time>2020-06-08T13:52:46Z</time>
      </trkpt>
      <trkpt lat="48.26532" lon="-4.09549">
        <ele>93.6</ele>
        <time>2020-06-08T13:52:47Z</time>
      </trkpt>
      <trkpt lat="48.26536" lon="-4.0955">
        <ele>93.7</ele>
        <time>2020-06-08T13:52:48Z</time>
      </trkpt>
      <trkpt lat="48.26537" lon="-4.0955">
        <ele>93.7</ele>
        <time>2020-06-08T13:52:49Z</time>
      </trkpt>
      <trkpt lat="48.2654" lon="-4.09551">
        <ele>93.7</ele>
        <time>2020-06-08T13:52:50Z</time>
      </trkpt>
      <trkpt lat="48.26542" lon="-4.09553">
        <ele>93.8</ele>
        <time>2020-06-08T13:52:51Z</time>
      </trkpt>
      <trkpt lat="48.26544" lon="-4.09555">
        <ele>93.8</ele>
        <time>2020-06-08T13:52:52Z</time>
      </trkpt>
      <trkpt lat="48.26545" lon="-4.09556">
        <ele>93.9</ele>
        <time>2020-06-08T13:52:53Z</time>
      </trkpt>
      <trkpt lat="48.26547" lon="-4.09556">
        <ele>94</ele>
        <time>2020-06-08T13:52:54Z</time>
      </trkpt>
      <trkpt lat="48.26548" lon="-4.09556">
        <ele>94.1</ele>
        <time>2020-06-08T13:52:55Z</time>
      </trkpt>
      <trkpt lat="48.26551" lon="-4.09557">
        <ele>93.9</ele>
        <time>2020-06-08T13:52:56Z</time>
      </trkpt>
      <trkpt lat="48.26552" lon="-4.09557">
        <ele>93.9</ele>
        <time>2020-06-08T13:52:57Z</time>
      </trkpt>
      <trkpt lat="48.26553" lon="-4.09557">
        <ele>93.9</ele>
        <time>2020-06-08T13:52:58Z</time>
      </trkpt>
      <trkpt lat="48.26556" lon="-4.09555">
        <ele>93.9</ele>
        <time>2020-06-08T13:52:59Z</time>
      </trkpt>
      <trkpt lat="48.26557" lon="-4.09554">
        <ele>93.9</ele>
        <time>2020-06-08T13:53:00Z</time>
      </trkpt>
      <trkpt lat="48.2656" lon="-4.09554">
        <ele>93.9</ele>
        <time>2020-06-08T13:53:01Z</time>
      </trkpt>
      <trkpt lat="48.26563" lon="-4.09554">
        <ele>93.9</ele>
        <time>2020-06-08T13:53:02Z</time>
      </trkpt>
      <trkpt lat="48.26566" lon="-4.09555">
        <ele>94</ele>
        <time>2020-06-08T13:53:03Z</time>
      </trkpt>
      <trkpt lat="48.26569" lon="-4.09556">
        <ele>94</ele>
        <time>2020-06-08T13:53:04Z</time>
      </trkpt>
      <trkpt lat="48.26572" lon="-4.09557">
        <ele>94</ele>
        <time>2020-06-08T13:53:05Z</time>
      </trkpt>
      <trkpt lat="48.26573" lon="-4.09557">
        <ele>94</ele>
        <time>2020-06-08T13:53:06Z</time>
      </trkpt>
      <trkpt lat="48.26575" lon="-4.09558">
        <ele>94</ele>
        <time>2020-06-08T13:53:07Z</time>
      </trkpt>
      <trkpt lat="48.26576" lon="-4.09559">
        <ele>94</ele>
        <time>2020-06-08T13:53:08Z</time>
      </trkpt>
      <trkpt lat="48.26578" lon="-4.0956">
        <ele>94</ele>
        <time>2020-06-08T13:53:09Z</time>
      </trkpt>
      <trkpt lat="48.2658" lon="-4.09562">
        <ele>94</ele>
        <time>2020-06-08T13:53:10Z</time>
      </trkpt>
      <trkpt lat="48.26582" lon="-4.09563">
        <ele>94</ele>
        <time>2020-06-08T13:53:11Z</time>
      </trkpt>
      <trkpt lat="48.26585" lon="-4.09562">
        <ele>94</ele>
        <time>2020-06-08T13:53:12Z</time>
      </trkpt>
      <trkpt lat="48.26586" lon="-4.09562">
        <ele>94</ele>
        <time>2020-06-08T13:53:13Z</time>
      </trkpt>
      <trkpt lat="48.26589" lon="-4.09563">
        <ele>94</ele>
        <time>2020-06-08T13:53:14Z</time>
      </trkpt>
      <trkpt lat="48.2659" lon="-4.09563">
        <ele>94</ele>
        <time>2020-06-08T13:53:15Z</time>
      </trkpt>
      <trkpt lat="48.26593" lon="-4.09563">
        <ele>94</ele>
        <time>2020-06-08T13:53:16Z</time>
      </trkpt>
      <trkpt lat="48.26594" lon="-4.09563">
        <ele>94</ele>
        <time>2020-06-08T13:53:17Z</time>
      </trkpt>
      <trkpt lat="48.26597" lon="-4.09562">
        <ele>94.1</ele>
        <time>2020-06-08T13:53:18Z</time>
      </trkpt>
      <trkpt lat="48.26598" lon="-4.09562">
        <ele>94.1</ele>
        <time>2020-06-08T13:53:19Z</time>
      </trkpt>
      <trkpt lat="48.26601" lon="-4.09562">
        <ele>94.1</ele>
        <time>2020-06-08T13:53:20Z</time>
      </trkpt>
      <trkpt lat="48.26603" lon="-4.09561">
        <ele>94.1</ele>
        <time>2020-06-08T13:53:21Z</time>
      </trkpt>
      <trkpt lat="48.26607" lon="-4.09562">
        <ele>94.1</ele>
        <time>2020-06-08T13:53:22Z</time>
      </trkpt>
      <trkpt lat="48.26608" lon="-4.09562">
        <ele>94.2</ele>
        <time>2020-06-08T13:53:23Z</time>
      </trkpt>
      <trkpt lat="48.26611" lon="-4.09564">
        <ele>94.2</ele>
        <time>2020-06-08T13:53:24Z</time>
      </trkpt>
      <trkpt lat="48.26614" lon="-4.09565">
        <ele>94.2</ele>
        <time>2020-06-08T13:53:25Z</time>
      </trkpt>
      <trkpt lat="48.26615" lon="-4.09566">
        <ele>94.2</ele>
        <time>2020-06-08T13:53:26Z</time>
      </trkpt>
      <trkpt lat="48.26619" lon="-4.09566">
        <ele>94.2</ele>
        <time>2020-06-08T13:53:27Z</time>
      </trkpt>
      <trkpt lat="48.2662" lon="-4.09567">
        <ele>94.2</ele>
        <time>2020-06-08T13:53:28Z</time>
      </trkpt>
      <trkpt lat="48.26624" lon="-4.09566">
        <ele>94.2</ele>
        <time>2020-06-08T13:53:29Z</time>
      </trkpt>
      <trkpt lat="48.26625" lon="-4.09565">
        <ele>94.2</ele>
        <time>2020-06-08T13:53:30Z</time>
      </trkpt>
      <trkpt lat="48.26628" lon="-4.09563">
        <ele>94.2</ele>
        <time>2020-06-08T13:53:31Z</time>
      </trkpt>
      <trkpt lat="48.26631" lon="-4.09564">
        <ele>94.2</ele>
        <time>2020-06-08T13:53:32Z</time>
      </trkpt>
      <trkpt lat="48.26634" lon="-4.09565">
        <ele>94.2</ele>
        <time>2020-06-08T13:53:33Z</time>
      </trkpt>
      <trkpt lat="48.26635" lon="-4.09566">
        <ele>94.2</ele>
        <time>2020-06-08T13:53:34Z</time>
      </trkpt>
      <trkpt lat="48.26636" lon="-4.09565">
        <ele>94.2</ele>
        <time>2020-06-08T13:53:35Z</time>
      </trkpt>
      <trkpt lat="48.26638" lon="-4.09565">
        <ele>94.2</ele>
        <time>2020-06-08T13:53:36Z</time>
      </trkpt>
      <trkpt lat="48.26639" lon="-4.09564">
        <ele>94.2</ele>
        <time>2020-06-08T13:53:37Z</time>
      </trkpt>
      <trkpt lat="48.26641" lon="-4.09565">
        <ele>94.2</ele>
        <time>2020-06-08T13:53:38Z</time>
      </trkpt>
      <trkpt lat="48.26644" lon="-4.09565">
        <ele>94.2</ele>
        <time>2020-06-08T13:53:39Z</time>
      </trkpt>
      <trkpt lat="48.26645" lon="-4.09565">
        <ele>94.2</ele>
        <time>2020-06-08T13:53:40Z</time>
      </trkpt>
      <trkpt lat="48.26648" lon="-4.09566">
        <ele>94.2</ele>
        <time>2020-06-08T13:53:41Z</time>
      </trkpt>
      <trkpt lat="48.26648" lon="-4.09567">
        <ele>94.2</ele>
        <time>2020-06-08T13:53:42Z</time>
      </trkpt>
      <trkpt lat="48.2665" lon="-4.09568">
        <ele>94.1</ele>
        <time>2020-06-08T13:53:43Z</time>
      </trkpt>
      <trkpt lat="48.26651" lon="-4.09567">
        <ele>94.1</ele>
        <time>2020-06-08T13:53:44Z</time>
      </trkpt>
      <trkpt lat="48.26652" lon="-4.09568">
        <ele>94.1</ele>
        <time>2020-06-08T13:53:45Z</time>
      </trkpt>
      <trkpt lat="48.26653" lon="-4.09569">
        <ele>94.1</ele>
        <time>2020-06-08T13:53:46Z</time>
      </trkpt>
      <trkpt lat="48.26655" lon="-4.09568">
        <ele>94.1</ele>
        <time>2020-06-08T13:53:47Z</time>
      </trkpt>
      <trkpt lat="48.26658" lon="-4.09569">
        <ele>94</ele>
        <time>2020-06-08T13:53:48Z</time>
      </trkpt>
      <trkpt lat="48.26659" lon="-4.09569">
        <ele>94</ele>
        <time>2020-06-08T13:53:49Z</time>
      </trkpt>
      <trkpt lat="48.26661" lon="-4.0957">
        <ele>94</ele>
        <time>2020-06-08T13:53:50Z</time>
      </trkpt>
      <trkpt lat="48.26662" lon="-4.09571">
        <ele>93.9</ele>
        <time>2020-06-08T13:53:51Z</time>
      </trkpt>
      <trkpt lat="48.26663" lon="-4.09571">
        <ele>93.9</ele>
        <time>2020-06-08T13:53:52Z</time>
      </trkpt>
      <trkpt lat="48.26666" lon="-4.09571">
        <ele>93.8</ele>
        <time>2020-06-08T13:53:53Z</time>
      </trkpt>
      <trkpt lat="48.26667" lon="-4.09571">
        <ele>93.8</ele>
        <time>2020-06-08T13:53:54Z</time>
      </trkpt>
      <trkpt lat="48.2667" lon="-4.09572">
        <ele>93.7</ele>
        <time>2020-06-08T13:53:55Z</time>
      </trkpt>
      <trkpt lat="48.26671" lon="-4.09572">
        <ele>93.7</ele>
        <time>2020-06-08T13:53:56Z</time>
      </trkpt>
      <trkpt lat="48.26673" lon="-4.0957">
        <ele>93.7</ele>
        <time>2020-06-08T13:53:57Z</time>
      </trkpt>
      <trkpt lat="48.26674" lon="-4.09569">
        <ele>93.6</ele>
        <time>2020-06-08T13:53:58Z</time>
      </trkpt>
      <trkpt lat="48.26677" lon="-4.09568">
        <ele>93.6</ele>
        <time>2020-06-08T13:53:59Z</time>
      </trkpt>
      <trkpt lat="48.26678" lon="-4.09568">
        <ele>93.5</ele>
        <time>2020-06-08T13:54:00Z</time>
      </trkpt>
      <trkpt lat="48.26682" lon="-4.09568">
        <ele>93.5</ele>
        <time>2020-06-08T13:54:01Z</time>
      </trkpt>
      <trkpt lat="48.26683" lon="-4.09568">
        <ele>93.4</ele>
        <time>2020-06-08T13:54:02Z</time>
      </trkpt>
      <trkpt lat="48.26686" lon="-4.09566">
        <ele>93.4</ele>
        <time>2020-06-08T13:54:03Z</time>
      </trkpt>
      <trkpt lat="48.26689" lon="-4.09564">
        <ele>93.2</ele>
        <time>2020-06-08T13:54:04Z</time>
      </trkpt>
      <trkpt lat="48.26691" lon="-4.09565">
        <ele>93.1</ele>
        <time>2020-06-08T13:54:05Z</time>
      </trkpt>
      <trkpt lat="48.26694" lon="-4.09565">
        <ele>93</ele>
        <time>2020-06-08T13:54:06Z</time>
      </trkpt>
      <trkpt lat="48.26697" lon="-4.09565">
        <ele>92.8</ele>
        <time>2020-06-08T13:54:07Z</time>
      </trkpt>
      <trkpt lat="48.267" lon="-4.09566">
        <ele>92.7</ele>
        <time>2020-06-08T13:54:08Z</time>
      </trkpt>
      <trkpt lat="48.26703" lon="-4.09566">
        <ele>92.5</ele>
        <time>2020-06-08T13:54:09Z</time>
      </trkpt>
      <trkpt lat="48.26707" lon="-4.09566">
        <ele>92.3</ele>
        <time>2020-06-08T13:54:10Z</time>
      </trkpt>
      <trkpt lat="48.26711" lon="-4.09567">
        <ele>92.1</ele>
        <time>2020-06-08T13:54:11Z</time>
      </trkpt>
      <trkpt lat="48.26714" lon="-4.09566">
        <ele>91.9</ele>
        <time>2020-06-08T13:54:12Z</time>
      </trkpt>
      <trkpt lat="48.26718" lon="-4.09564">
        <ele>91.7</ele>
        <time>2020-06-08T13:54:13Z</time>
      </trkpt>
      <trkpt lat="48.26722" lon="-4.09561">
        <ele>91.4</ele>
        <time>2020-06-08T13:54:14Z</time>
      </trkpt>
      <trkpt lat="48.26728" lon="-4.09561">
        <ele>91</ele>
        <time>2020-06-08T13:54:15Z</time>
      </trkpt>
      <trkpt lat="48.26733" lon="-4.09559">
        <ele>90.6</ele>
        <time>2020-06-08T13:54:16Z</time>
      </trkpt>
      <trkpt lat="48.26738" lon="-4.09557">
        <ele>90.2</ele>
        <time>2020-06-08T13:54:17Z</time>
      </trkpt>
      <trkpt lat="48.26743" lon="-4.09554">
        <ele>89.8</ele>
        <time>2020-06-08T13:54:18Z</time>
      </trkpt>
      <trkpt lat="48.2675" lon="-4.09549">
        <ele>89.1</ele>
        <time>2020-06-08T13:54:19Z</time>
      </trkpt>
      <trkpt lat="48.26757" lon="-4.09545">
        <ele>88.4</ele>
        <time>2020-06-08T13:54:20Z</time>
      </trkpt>
      <trkpt lat="48.26765" lon="-4.09542">
        <ele>87.8</ele>
        <time>2020-06-08T13:54:21Z</time>
      </trkpt>
      <trkpt lat="48.26773" lon="-4.09538">
        <ele>87.2</ele>
        <time>2020-06-08T13:54:22Z</time>
      </trkpt>
      <trkpt lat="48.26782" lon="-4.09535">
        <ele>86.5</ele>
        <time>2020-06-08T13:54:23Z</time>
      </trkpt>
      <trkpt lat="48.26791" lon="-4.09532">
        <ele>85.8</ele>
        <time>2020-06-08T13:54:24Z</time>
      </trkpt>
      <trkpt lat="48.268" lon="-4.09528">
        <ele>85.3</ele>
        <time>2020-06-08T13:54:25Z</time>
      </trkpt>
      <trkpt lat="48.26809" lon="-4.09526">
        <ele>84.9</ele>
        <time>2020-06-08T13:54:26Z</time>
      </trkpt>
      <trkpt lat="48.26819" lon="-4.09526">
        <ele>84.6</ele>
        <time>2020-06-08T13:54:27Z</time>
      </trkpt>
      <trkpt lat="48.26829" lon="-4.09527">
        <ele>84.2</ele>
        <time>2020-06-08T13:54:28Z</time>
      </trkpt>
      <trkpt lat="48.26838" lon="-4.0953">
        <ele>83.8</ele>
        <time>2020-06-08T13:54:29Z</time>
      </trkpt>
      <trkpt lat="48.26847" lon="-4.09534">
        <ele>83.3</ele>
        <time>2020-06-08T13:54:30Z</time>
      </trkpt>
      <trkpt lat="48.26856" lon="-4.09537">
        <ele>82.9</ele>
        <time>2020-06-08T13:54:31Z</time>
      </trkpt>
      <trkpt lat="48.26864" lon="-4.0954">
        <ele>82.6</ele>
        <time>2020-06-08T13:54:32Z</time>
      </trkpt>
      <trkpt lat="48.26873" lon="-4.09543">
        <ele>82.5</ele>
        <time>2020-06-08T13:54:33Z</time>
      </trkpt>
      <trkpt lat="48.26881" lon="-4.09546">
        <ele>82.4</ele>
        <time>2020-06-08T13:54:34Z</time>
      </trkpt>
      <trkpt lat="48.26889" lon="-4.09549">
        <ele>82.3</ele>
        <time>2020-06-08T13:54:35Z</time>
      </trkpt>
      <trkpt lat="48.26896" lon="-4.09553">
        <ele>82.3</ele>
        <time>2020-06-08T13:54:36Z</time>
      </trkpt>
      <trkpt lat="48.26903" lon="-4.09557">
        <ele>82.4</ele>
        <time>2020-06-08T13:54:37Z</time>
      </trkpt>
      <trkpt lat="48.2691" lon="-4.09561">
        <ele>82.4</ele>
        <time>2020-06-08T13:54:38Z</time>
      </trkpt>
      <trkpt lat="48.26916" lon="-4.09565">
        <ele>82.4</ele>
        <time>2020-06-08T13:54:39Z</time>
      </trkpt>
      <trkpt lat="48.26922" lon="-4.09569">
        <ele>82.5</ele>
        <time>2020-06-08T13:54:40Z</time>
      </trkpt>
      <trkpt lat="48.26928" lon="-4.09572">
        <ele>82.5</ele>
        <time>2020-06-08T13:54:41Z</time>
      </trkpt>
      <trkpt lat="48.26933" lon="-4.09575">
        <ele>82.6</ele>
        <time>2020-06-08T13:54:42Z</time>
      </trkpt>
      <trkpt lat="48.26939" lon="-4.09577">
        <ele>82.6</ele>
        <time>2020-06-08T13:54:43Z</time>
      </trkpt>
      <trkpt lat="48.26944" lon="-4.0958">
        <ele>82.7</ele>
        <time>2020-06-08T13:54:44Z</time>
      </trkpt>
      <trkpt lat="48.26949" lon="-4.09582">
        <ele>82.7</ele>
        <time>2020-06-08T13:54:45Z</time>
      </trkpt>
      <trkpt lat="48.26954" lon="-4.09586">
        <ele>82.8</ele>
        <time>2020-06-08T13:54:46Z</time>
      </trkpt>
      <trkpt lat="48.26959" lon="-4.09588">
        <ele>82.8</ele>
        <time>2020-06-08T13:54:47Z</time>
      </trkpt>
      <trkpt lat="48.26963" lon="-4.0959">
        <ele>82.9</ele>
        <time>2020-06-08T13:54:48Z</time>
      </trkpt>
      <trkpt lat="48.26967" lon="-4.09592">
        <ele>82.9</ele>
        <time>2020-06-08T13:54:49Z</time>
      </trkpt>
      <trkpt lat="48.26971" lon="-4.09595">
        <ele>83</ele>
        <time>2020-06-08T13:54:50Z</time>
      </trkpt>
      <trkpt lat="48.26974" lon="-4.09597">
        <ele>83</ele>
        <time>2020-06-08T13:54:51Z</time>
      </trkpt>
      <trkpt lat="48.26978" lon="-4.096">
        <ele>83.1</ele>
        <time>2020-06-08T13:54:52Z</time>
      </trkpt>
      <trkpt lat="48.26981" lon="-4.09603">
        <ele>83.1</ele>
        <time>2020-06-08T13:54:53Z</time>
      </trkpt>
      <trkpt lat="48.26985" lon="-4.09605">
        <ele>83.2</ele>
        <time>2020-06-08T13:54:54Z</time>
      </trkpt>
      <trkpt lat="48.26989" lon="-4.09608">
        <ele>83.2</ele>
        <time>2020-06-08T13:54:55Z</time>
      </trkpt>
      <trkpt lat="48.26993" lon="-4.0961">
        <ele>83.2</ele>
        <time>2020-06-08T13:54:56Z</time>
      </trkpt>
      <trkpt lat="48.26997" lon="-4.09612">
        <ele>83.3</ele>
        <time>2020-06-08T13:54:57Z</time>
      </trkpt>
      <trkpt lat="48.27001" lon="-4.09614">
        <ele>83.3</ele>
        <time>2020-06-08T13:54:58Z</time>
      </trkpt>
      <trkpt lat="48.27004" lon="-4.09616">
        <ele>83.3</ele>
        <time>2020-06-08T13:54:59Z</time>
      </trkpt>
      <trkpt lat="48.27008" lon="-4.09617">
        <ele>83.4</ele>
        <time>2020-06-08T13:55:00Z</time>
      </trkpt>
      <trkpt lat="48.27012" lon="-4.09619">
        <ele>83.4</ele>
        <time>2020-06-08T13:55:01Z</time>
      </trkpt>
      <trkpt lat="48.27015" lon="-4.09621">
        <ele>83.4</ele>
        <time>2020-06-08T13:55:02Z</time>
      </trkpt>
      <trkpt lat="48.27019" lon="-4.09623">
        <ele>83.5</ele>
        <time>2020-06-08T13:55:03Z</time>
      </trkpt>
      <trkpt lat="48.27023" lon="-4.09625">
        <ele>83.5</ele>
        <time>2020-06-08T13:55:04Z</time>
      </trkpt>
      <trkpt lat="48.27026" lon="-4.09627">
        <ele>83.5</ele>
        <time>2020-06-08T13:55:05Z</time>
      </trkpt>
      <trkpt lat="48.2703" lon="-4.09628">
        <ele>83.4</ele>
        <time>2020-06-08T13:55:06Z</time>
      </trkpt>
      <trkpt lat="48.27034" lon="-4.09629">
        <ele>83.4</ele>
        <time>2020-06-08T13:55:07Z</time>
      </trkpt>
      <trkpt lat="48.27037" lon="-4.09631">
        <ele>83.4</ele>
        <time>2020-06-08T13:55:08Z</time>
      </trkpt>
      <trkpt lat="48.27041" lon="-4.09633">
        <ele>83.4</ele>
        <time>2020-06-08T13:55:09Z</time>
      </trkpt>
      <trkpt lat="48.27044" lon="-4.09636">
        <ele>83.4</ele>
        <time>2020-06-08T13:55:10Z</time>
      </trkpt>
      <trkpt lat="48.27047" lon="-4.09638">
        <ele>83.4</ele>
        <time>2020-06-08T13:55:11Z</time>
      </trkpt>
      <trkpt lat="48.2705" lon="-4.0964">
        <ele>83.4</ele>
        <time>2020-06-08T13:55:12Z</time>
      </trkpt>
      <trkpt lat="48.27053" lon="-4.09643">
        <ele>83.5</ele>
        <time>2020-06-08T13:55:13Z</time>
      </trkpt>
      <trkpt lat="48.27056" lon="-4.09645">
        <ele>83.5</ele>
        <time>2020-06-08T13:55:14Z</time>
      </trkpt>
      <trkpt lat="48.27059" lon="-4.09647">
        <ele>83.6</ele>
        <time>2020-06-08T13:55:15Z</time>
      </trkpt>
      <trkpt lat="48.27062" lon="-4.09649">
        <ele>83.6</ele>
        <time>2020-06-08T13:55:16Z</time>
      </trkpt>
      <trkpt lat="48.27065" lon="-4.0965">
        <ele>83.7</ele>
        <time>2020-06-08T13:55:17Z</time>
      </trkpt>
      <trkpt lat="48.27069" lon="-4.09652">
        <ele>83.8</ele>
        <time>2020-06-08T13:55:18Z</time>
      </trkpt>
      <trkpt lat="48.2707" lon="-4.09652">
        <ele>83.8</ele>
        <time>2020-06-08T13:55:19Z</time>
      </trkpt>
      <trkpt lat="48.27072" lon="-4.09655">
        <ele>83.8</ele>
        <time>2020-06-08T13:55:20Z</time>
      </trkpt>
      <trkpt lat="48.27075" lon="-4.09657">
        <ele>83.9</ele>
        <time>2020-06-08T13:55:21Z</time>
      </trkpt>
      <trkpt lat="48.27078" lon="-4.09659">
        <ele>83.9</ele>
        <time>2020-06-08T13:55:22Z</time>
      </trkpt>
      <trkpt lat="48.27081" lon="-4.09661">
        <ele>84</ele>
        <time>2020-06-08T13:55:23Z</time>
      </trkpt>
      <trkpt lat="48.27084" lon="-4.09662">
        <ele>84.1</ele>
        <time>2020-06-08T13:55:24Z</time>
      </trkpt>
      <trkpt lat="48.27087" lon="-4.09664">
        <ele>84.1</ele>
        <time>2020-06-08T13:55:25Z</time>
      </trkpt>
      <trkpt lat="48.27089" lon="-4.09666">
        <ele>84.2</ele>
        <time>2020-06-08T13:55:26Z</time>
      </trkpt>
      <trkpt lat="48.27093" lon="-4.09667">
        <ele>84.3</ele>
        <time>2020-06-08T13:55:27Z</time>
      </trkpt>
      <trkpt lat="48.27096" lon="-4.0967">
        <ele>84.4</ele>
        <time>2020-06-08T13:55:28Z</time>
      </trkpt>
      <trkpt lat="48.27099" lon="-4.09672">
        <ele>84.5</ele>
        <time>2020-06-08T13:55:29Z</time>
      </trkpt>
      <trkpt lat="48.27102" lon="-4.09673">
        <ele>84.6</ele>
        <time>2020-06-08T13:55:30Z</time>
      </trkpt>
      <trkpt lat="48.27106" lon="-4.09674">
        <ele>84.7</ele>
        <time>2020-06-08T13:55:31Z</time>
      </trkpt>
      <trkpt lat="48.27109" lon="-4.09676">
        <ele>84.9</ele>
        <time>2020-06-08T13:55:32Z</time>
      </trkpt>
      <trkpt lat="48.27112" lon="-4.09678">
        <ele>85</ele>
        <time>2020-06-08T13:55:33Z</time>
      </trkpt>
      <trkpt lat="48.27115" lon="-4.09679">
        <ele>85.1</ele>
        <time>2020-06-08T13:55:34Z</time>
      </trkpt>
      <trkpt lat="48.27118" lon="-4.09681">
        <ele>85.2</ele>
        <time>2020-06-08T13:55:35Z</time>
      </trkpt>
      <trkpt lat="48.27121" lon="-4.09682">
        <ele>85.3</ele>
        <time>2020-06-08T13:55:36Z</time>
      </trkpt>
      <trkpt lat="48.27124" lon="-4.09683">
        <ele>85.4</ele>
        <time>2020-06-08T13:55:37Z</time>
      </trkpt>
      <trkpt lat="48.27127" lon="-4.09684">
        <ele>85.5</ele>
        <time>2020-06-08T13:55:38Z</time>
      </trkpt>
      <trkpt lat="48.2713" lon="-4.09686">
        <ele>85.5</ele>
        <time>2020-06-08T13:55:39Z</time>
      </trkpt>
      <trkpt lat="48.27133" lon="-4.09688">
        <ele>85.6</ele>
        <time>2020-06-08T13:55:40Z</time>
      </trkpt>
      <trkpt lat="48.27136" lon="-4.0969">
        <ele>85.7</ele>
        <time>2020-06-08T13:55:41Z</time>
      </trkpt>
      <trkpt lat="48.2714" lon="-4.09691">
        <ele>85.8</ele>
        <time>2020-06-08T13:55:42Z</time>
      </trkpt>
      <trkpt lat="48.27143" lon="-4.09693">
        <ele>85.9</ele>
        <time>2020-06-08T13:55:43Z</time>
      </trkpt>
      <trkpt lat="48.27147" lon="-4.09696">
        <ele>86</ele>
        <time>2020-06-08T13:55:44Z</time>
      </trkpt>
      <trkpt lat="48.2715" lon="-4.09698">
        <ele>86.1</ele>
        <time>2020-06-08T13:55:45Z</time>
      </trkpt>
      <trkpt lat="48.27153" lon="-4.09698">
        <ele>86.2</ele>
        <time>2020-06-08T13:55:46Z</time>
      </trkpt>
      <trkpt lat="48.27156" lon="-4.097">
        <ele>86.3</ele>
        <time>2020-06-08T13:55:47Z</time>
      </trkpt>
      <trkpt lat="48.2716" lon="-4.09701">
        <ele>86.4</ele>
        <time>2020-06-08T13:55:48Z</time>
      </trkpt>
      <trkpt lat="48.27163" lon="-4.09703">
        <ele>86.5</ele>
        <time>2020-06-08T13:55:49Z</time>
      </trkpt>
      <trkpt lat="48.27166" lon="-4.09707">
        <ele>86.6</ele>
        <time>2020-06-08T13:55:50Z</time>
      </trkpt>
      <trkpt lat="48.27168" lon="-4.09708">
        <ele>86.7</ele>
        <time>2020-06-08T13:55:51Z</time>
      </trkpt>
      <trkpt lat="48.27171" lon="-4.09711">
        <ele>86.8</ele>
        <time>2020-06-08T13:55:52Z</time>
      </trkpt>
      <trkpt lat="48.27175" lon="-4.09713">
        <ele>86.9</ele>
        <time>2020-06-08T13:55:53Z</time>
      </trkpt>
      <trkpt lat="48.27179" lon="-4.09715">
        <ele>87</ele>
        <time>2020-06-08T13:55:54Z</time>
      </trkpt>
      <trkpt lat="48.27183" lon="-4.09717">
        <ele>87.1</ele>
        <time>2020-06-08T13:55:55Z</time>
      </trkpt>
      <trkpt lat="48.27185" lon="-4.09717">
        <ele>87.2</ele>
        <time>2020-06-08T13:55:56Z</time>
      </trkpt>
      <trkpt lat="48.27188" lon="-4.09718">
        <ele>87.3</ele>
        <time>2020-06-08T13:55:57Z</time>
      </trkpt>
      <trkpt lat="48.27192" lon="-4.09719">
        <ele>87.4</ele>
        <time>2020-06-08T13:55:58Z</time>
      </trkpt>
      <trkpt lat="48.27195" lon="-4.0972">
        <ele>87.5</ele>
        <time>2020-06-08T13:55:59Z</time>
      </trkpt>
      <trkpt lat="48.27198" lon="-4.0972">
        <ele>87.6</ele>
        <time>2020-06-08T13:56:00Z</time>
      </trkpt>
      <trkpt lat="48.27201" lon="-4.09721">
        <ele>87.7</ele>
        <time>2020-06-08T13:56:01Z</time>
      </trkpt>
      <trkpt lat="48.27204" lon="-4.09723">
        <ele>87.8</ele>
        <time>2020-06-08T13:56:02Z</time>
      </trkpt>
      <trkpt lat="48.27207" lon="-4.09725">
        <ele>88</ele>
        <time>2020-06-08T13:56:03Z</time>
      </trkpt>
      <trkpt lat="48.2721" lon="-4.09727">
        <ele>88.1</ele>
        <time>2020-06-08T13:56:04Z</time>
      </trkpt>
      <trkpt lat="48.27213" lon="-4.09728">
        <ele>88.2</ele>
        <time>2020-06-08T13:56:05Z</time>
      </trkpt>
      <trkpt lat="48.27216" lon="-4.0973">
        <ele>88.3</ele>
        <time>2020-06-08T13:56:06Z</time>
      </trkpt>
      <trkpt lat="48.27219" lon="-4.09732">
        <ele>88.4</ele>
        <time>2020-06-08T13:56:07Z</time>
      </trkpt>
      <trkpt lat="48.27222" lon="-4.09734">
        <ele>88.5</ele>
        <time>2020-06-08T13:56:08Z</time>
      </trkpt>
      <trkpt lat="48.27225" lon="-4.09737">
        <ele>88.6</ele>
        <time>2020-06-08T13:56:09Z</time>
      </trkpt>
      <trkpt lat="48.27228" lon="-4.09739">
        <ele>88.7</ele>
        <time>2020-06-08T13:56:10Z</time>
      </trkpt>
      <trkpt lat="48.27231" lon="-4.09741">
        <ele>88.8</ele>
        <time>2020-06-08T13:56:11Z</time>
      </trkpt>
      <trkpt lat="48.27235" lon="-4.09744">
        <ele>89</ele>
        <time>2020-06-08T13:56:12Z</time>
      </trkpt>
      <trkpt lat="48.27239" lon="-4.09747">
        <ele>89.1</ele>
        <time>2020-06-08T13:56:13Z</time>
      </trkpt>
      <trkpt lat="48.2724" lon="-4.09748">
        <ele>89.2</ele>
        <time>2020-06-08T13:56:14Z</time>
      </trkpt>
      <trkpt lat="48.27243" lon="-4.09749">
        <ele>89.2</ele>
        <time>2020-06-08T13:56:15Z</time>
      </trkpt>
      <trkpt lat="48.27247" lon="-4.0975">
        <ele>89.4</ele>
        <time>2020-06-08T13:56:16Z</time>
      </trkpt>
      <trkpt lat="48.27249" lon="-4.09751">
        <ele>89.4</ele>
        <time>2020-06-08T13:56:17Z</time>
      </trkpt>
      <trkpt lat="48.27253" lon="-4.09753">
        <ele>89.6</ele>
        <time>2020-06-08T13:56:18Z</time>
      </trkpt>
      <trkpt lat="48.27256" lon="-4.09754">
        <ele>89.6</ele>
        <time>2020-06-08T13:56:19Z</time>
      </trkpt>
      <trkpt lat="48.27257" lon="-4.09754">
        <ele>89.7</ele>
        <time>2020-06-08T13:56:20Z</time>
      </trkpt>
      <trkpt lat="48.2726" lon="-4.09756">
        <ele>89.8</ele>
        <time>2020-06-08T13:56:21Z</time>
      </trkpt>
      <trkpt lat="48.27264" lon="-4.09757">
        <ele>89.9</ele>
        <time>2020-06-08T13:56:22Z</time>
      </trkpt>
      <trkpt lat="48.27268" lon="-4.0976">
        <ele>90</ele>
        <time>2020-06-08T13:56:23Z</time>
      </trkpt>
      <trkpt lat="48.27271" lon="-4.0976">
        <ele>90.1</ele>
        <time>2020-06-08T13:56:24Z</time>
      </trkpt>
      <trkpt lat="48.27274" lon="-4.09763">
        <ele>90.2</ele>
        <time>2020-06-08T13:56:25Z</time>
      </trkpt>
      <trkpt lat="48.27276" lon="-4.09764">
        <ele>90.3</ele>
        <time>2020-06-08T13:56:26Z</time>
      </trkpt>
      <trkpt lat="48.27279" lon="-4.09765">
        <ele>90.3</ele>
        <time>2020-06-08T13:56:27Z</time>
      </trkpt>
      <trkpt lat="48.27282" lon="-4.09767">
        <ele>90.4</ele>
        <time>2020-06-08T13:56:28Z</time>
      </trkpt>
      <trkpt lat="48.27285" lon="-4.0977">
        <ele>90.5</ele>
        <time>2020-06-08T13:56:29Z</time>
      </trkpt>
      <trkpt lat="48.27289" lon="-4.09773">
        <ele>90.6</ele>
        <time>2020-06-08T13:56:30Z</time>
      </trkpt>
      <trkpt lat="48.27292" lon="-4.09775">
        <ele>90.6</ele>
        <time>2020-06-08T13:56:31Z</time>
      </trkpt>
      <trkpt lat="48.27294" lon="-4.0978">
        <ele>90.6</ele>
        <time>2020-06-08T13:56:32Z</time>
      </trkpt>
      <trkpt lat="48.27296" lon="-4.09783">
        <ele>90.6</ele>
        <time>2020-06-08T13:56:33Z</time>
      </trkpt>
      <trkpt lat="48.27299" lon="-4.09784">
        <ele>90.7</ele>
        <time>2020-06-08T13:56:34Z</time>
      </trkpt>
      <trkpt lat="48.27301" lon="-4.09786">
        <ele>90.7</ele>
        <time>2020-06-08T13:56:35Z</time>
      </trkpt>
      <trkpt lat="48.27304" lon="-4.09788">
        <ele>90.7</ele>
        <time>2020-06-08T13:56:36Z</time>
      </trkpt>
      <trkpt lat="48.27307" lon="-4.09789">
        <ele>90.7</ele>
        <time>2020-06-08T13:56:37Z</time>
      </trkpt>
      <trkpt lat="48.2731" lon="-4.09792">
        <ele>90.8</ele>
        <time>2020-06-08T13:56:38Z</time>
      </trkpt>
      <trkpt lat="48.27313" lon="-4.09794">
        <ele>90.8</ele>
        <time>2020-06-08T13:56:39Z</time>
      </trkpt>
      <trkpt lat="48.27316" lon="-4.09796">
        <ele>90.8</ele>
        <time>2020-06-08T13:56:40Z</time>
      </trkpt>
      <trkpt lat="48.27319" lon="-4.09797">
        <ele>90.9</ele>
        <time>2020-06-08T13:56:41Z</time>
      </trkpt>
      <trkpt lat="48.27323" lon="-4.09797">
        <ele>90.9</ele>
        <time>2020-06-08T13:56:42Z</time>
      </trkpt>
      <trkpt lat="48.27327" lon="-4.09796">
        <ele>90.9</ele>
        <time>2020-06-08T13:56:43Z</time>
      </trkpt>
      <trkpt lat="48.27328" lon="-4.09795">
        <ele>90.9</ele>
        <time>2020-06-08T13:56:44Z</time>
      </trkpt>
      <trkpt lat="48.27332" lon="-4.09796">
        <ele>90.9</ele>
        <time>2020-06-08T13:56:45Z</time>
      </trkpt>
      <trkpt lat="48.27336" lon="-4.09797">
        <ele>90.9</ele>
        <time>2020-06-08T13:56:46Z</time>
      </trkpt>
      <trkpt lat="48.2734" lon="-4.09797">
        <ele>90.8</ele>
        <time>2020-06-08T13:56:47Z</time>
      </trkpt>
      <trkpt lat="48.27344" lon="-4.09798">
        <ele>90.7</ele>
        <time>2020-06-08T13:56:48Z</time>
      </trkpt>
      <trkpt lat="48.27348" lon="-4.09802">
        <ele>90.6</ele>
        <time>2020-06-08T13:56:49Z</time>
      </trkpt>
      <trkpt lat="48.27351" lon="-4.09805">
        <ele>90.5</ele>
        <time>2020-06-08T13:56:50Z</time>
      </trkpt>
      <trkpt lat="48.27353" lon="-4.09808">
        <ele>90.4</ele>
        <time>2020-06-08T13:56:51Z</time>
      </trkpt>
      <trkpt lat="48.27356" lon="-4.0981">
        <ele>90.3</ele>
        <time>2020-06-08T13:56:52Z</time>
      </trkpt>
      <trkpt lat="48.2736" lon="-4.09814">
        <ele>90.1</ele>
        <time>2020-06-08T13:56:53Z</time>
      </trkpt>
      <trkpt lat="48.27364" lon="-4.09815">
        <ele>89.9</ele>
        <time>2020-06-08T13:56:54Z</time>
      </trkpt>
      <trkpt lat="48.27368" lon="-4.09817">
        <ele>89.7</ele>
        <time>2020-06-08T13:56:55Z</time>
      </trkpt>
      <trkpt lat="48.27373" lon="-4.0982">
        <ele>89.5</ele>
        <time>2020-06-08T13:56:56Z</time>
      </trkpt>
      <trkpt lat="48.27379" lon="-4.09824">
        <ele>89.2</ele>
        <time>2020-06-08T13:56:57Z</time>
      </trkpt>
      <trkpt lat="48.27385" lon="-4.09829">
        <ele>88.8</ele>
        <time>2020-06-08T13:56:58Z</time>
      </trkpt>
      <trkpt lat="48.27392" lon="-4.09836">
        <ele>88.3</ele>
        <time>2020-06-08T13:56:59Z</time>
      </trkpt>
      <trkpt lat="48.274" lon="-4.09841">
        <ele>87.8</ele>
        <time>2020-06-08T13:57:00Z</time>
      </trkpt>
      <trkpt lat="48.27406" lon="-4.09845">
        <ele>87.5</ele>
        <time>2020-06-08T13:57:01Z</time>
      </trkpt>
      <trkpt lat="48.27412" lon="-4.0985">
        <ele>87.2</ele>
        <time>2020-06-08T13:57:02Z</time>
      </trkpt>
      <trkpt lat="48.27418" lon="-4.09854">
        <ele>86.7</ele>
        <time>2020-06-08T13:57:03Z</time>
      </trkpt>
      <trkpt lat="48.27426" lon="-4.09858">
        <ele>86.3</ele>
        <time>2020-06-08T13:57:04Z</time>
      </trkpt>
      <trkpt lat="48.27434" lon="-4.09862">
        <ele>85.8</ele>
        <time>2020-06-08T13:57:05Z</time>
      </trkpt>
      <trkpt lat="48.27442" lon="-4.09865">
        <ele>85.4</ele>
        <time>2020-06-08T13:57:06Z</time>
      </trkpt>
      <trkpt lat="48.27449" lon="-4.09869">
        <ele>84.9</ele>
        <time>2020-06-08T13:57:07Z</time>
      </trkpt>
      <trkpt lat="48.27458" lon="-4.09874">
        <ele>84.5</ele>
        <time>2020-06-08T13:57:08Z</time>
      </trkpt>
      <trkpt lat="48.27466" lon="-4.09879">
        <ele>84</ele>
        <time>2020-06-08T13:57:09Z</time>
      </trkpt>
      <trkpt lat="48.27474" lon="-4.09884">
        <ele>83.6</ele>
        <time>2020-06-08T13:57:10Z</time>
      </trkpt>
      <trkpt lat="48.27483" lon="-4.0989">
        <ele>83.3</ele>
        <time>2020-06-08T13:57:11Z</time>
      </trkpt>
      <trkpt lat="48.27491" lon="-4.09895">
        <ele>82.9</ele>
        <time>2020-06-08T13:57:12Z</time>
      </trkpt>
      <trkpt lat="48.275" lon="-4.099">
        <ele>82.6</ele>
        <time>2020-06-08T13:57:13Z</time>
      </trkpt>
      <trkpt lat="48.27509" lon="-4.09905">
        <ele>82.3</ele>
        <time>2020-06-08T13:57:14Z</time>
      </trkpt>
      <trkpt lat="48.27518" lon="-4.0991">
        <ele>82.1</ele>
        <time>2020-06-08T13:57:15Z</time>
      </trkpt>
      <trkpt lat="48.27527" lon="-4.09916">
        <ele>82</ele>
        <time>2020-06-08T13:57:16Z</time>
      </trkpt>
      <trkpt lat="48.27536" lon="-4.09921">
        <ele>81.9</ele>
        <time>2020-06-08T13:57:17Z</time>
      </trkpt>
      <trkpt lat="48.27545" lon="-4.09926">
        <ele>81.9</ele>
        <time>2020-06-08T13:57:18Z</time>
      </trkpt>
      <trkpt lat="48.27554" lon="-4.09931">
        <ele>82</ele>
        <time>2020-06-08T13:57:19Z</time>
      </trkpt>
      <trkpt lat="48.27562" lon="-4.09935">
        <ele>82.2</ele>
        <time>2020-06-08T13:57:20Z</time>
      </trkpt>
      <trkpt lat="48.2757" lon="-4.0994">
        <ele>82.5</ele>
        <time>2020-06-08T13:57:21Z</time>
      </trkpt>
      <trkpt lat="48.27578" lon="-4.09944">
        <ele>82.9</ele>
        <time>2020-06-08T13:57:22Z</time>
      </trkpt>
      <trkpt lat="48.27586" lon="-4.09948">
        <ele>83.3</ele>
        <time>2020-06-08T13:57:23Z</time>
      </trkpt>
      <trkpt lat="48.27593" lon="-4.09952">
        <ele>83.6</ele>
        <time>2020-06-08T13:57:24Z</time>
      </trkpt>
      <trkpt lat="48.276" lon="-4.09956">
        <ele>84</ele>
        <time>2020-06-08T13:57:25Z</time>
      </trkpt>
      <trkpt lat="48.27607" lon="-4.09959">
        <ele>84.3</ele>
        <time>2020-06-08T13:57:26Z</time>
      </trkpt>
      <trkpt lat="48.27613" lon="-4.09962">
        <ele>84.8</ele>
        <time>2020-06-08T13:57:27Z</time>
      </trkpt>
      <trkpt lat="48.2762" lon="-4.09966">
        <ele>85.3</ele>
        <time>2020-06-08T13:57:28Z</time>
      </trkpt>
      <trkpt lat="48.27625" lon="-4.09969">
        <ele>85.7</ele>
        <time>2020-06-08T13:57:29Z</time>
      </trkpt>
      <trkpt lat="48.2763" lon="-4.09973">
        <ele>86.2</ele>
        <time>2020-06-08T13:57:30Z</time>
      </trkpt>
      <trkpt lat="48.27634" lon="-4.09976">
        <ele>86.6</ele>
        <time>2020-06-08T13:57:31Z</time>
      </trkpt>
      <trkpt lat="48.27638" lon="-4.09978">
        <ele>87</ele>
        <time>2020-06-08T13:57:32Z</time>
      </trkpt>
      <trkpt lat="48.27643" lon="-4.09979">
        <ele>87.5</ele>
        <time>2020-06-08T13:57:33Z</time>
      </trkpt>
      <trkpt lat="48.27646" lon="-4.09981">
        <ele>87.9</ele>
        <time>2020-06-08T13:57:34Z</time>
      </trkpt>
      <trkpt lat="48.2765" lon="-4.09983">
        <ele>88.4</ele>
        <time>2020-06-08T13:57:35Z</time>
      </trkpt>
      <trkpt lat="48.27654" lon="-4.09984">
        <ele>88.8</ele>
        <time>2020-06-08T13:57:36Z</time>
      </trkpt>
      <trkpt lat="48.27657" lon="-4.09986">
        <ele>89.2</ele>
        <time>2020-06-08T13:57:37Z</time>
      </trkpt>
      <trkpt lat="48.27661" lon="-4.09987">
        <ele>89.7</ele>
        <time>2020-06-08T13:57:38Z</time>
      </trkpt>
      <trkpt lat="48.27664" lon="-4.09989">
        <ele>90</ele>
        <time>2020-06-08T13:57:39Z</time>
      </trkpt>
      <trkpt lat="48.27666" lon="-4.09991">
        <ele>90.3</ele>
        <time>2020-06-08T13:57:40Z</time>
      </trkpt>
      <trkpt lat="48.2767" lon="-4.09993">
        <ele>90.8</ele>
        <time>2020-06-08T13:57:41Z</time>
      </trkpt>
      <trkpt lat="48.27671" lon="-4.09993">
        <ele>90.9</ele>
        <time>2020-06-08T13:57:42Z</time>
      </trkpt>
      <trkpt lat="48.27674" lon="-4.09996">
        <ele>91.3</ele>
        <time>2020-06-08T13:57:43Z</time>
      </trkpt>
      <trkpt lat="48.27675" lon="-4.09997">
        <ele>91.5</ele>
        <time>2020-06-08T13:57:44Z</time>
      </trkpt>
      <trkpt lat="48.27678" lon="-4.09999">
        <ele>91.9</ele>
        <time>2020-06-08T13:57:45Z</time>
      </trkpt>
      <trkpt lat="48.27679" lon="-4.09999">
        <ele>92</ele>
        <time>2020-06-08T13:57:46Z</time>
      </trkpt>
      <trkpt lat="48.27681" lon="-4.1">
        <ele>92.3</ele>
        <time>2020-06-08T13:57:47Z</time>
      </trkpt>
      <trkpt lat="48.27682" lon="-4.1">
        <ele>92.5</ele>
        <time>2020-06-08T13:57:48Z</time>
      </trkpt>
      <trkpt lat="48.27686" lon="-4.1">
        <ele>93</ele>
        <time>2020-06-08T13:57:49Z</time>
      </trkpt>
      <trkpt lat="48.27688" lon="-4.1">
        <ele>93.2</ele>
        <time>2020-06-08T13:57:50Z</time>
      </trkpt>
      <trkpt lat="48.27688" lon="-4.10001">
        <ele>93.3</ele>
        <time>2020-06-08T13:57:51Z</time>
      </trkpt>
      <trkpt lat="48.2769" lon="-4.10003">
        <ele>93.6</ele>
        <time>2020-06-08T13:57:52Z</time>
      </trkpt>
      <trkpt lat="48.27691" lon="-4.10004">
        <ele>93.8</ele>
        <time>2020-06-08T13:57:53Z</time>
      </trkpt>
      <trkpt lat="48.27693" lon="-4.10004">
        <ele>94</ele>
        <time>2020-06-08T13:57:54Z</time>
      </trkpt>
      <trkpt lat="48.27696" lon="-4.10007">
        <ele>94.4</ele>
        <time>2020-06-08T13:57:55Z</time>
      </trkpt>
      <trkpt lat="48.27696" lon="-4.10007">
        <ele>94.4</ele>
        <time>2020-06-08T13:57:56Z</time>
      </trkpt>
      <trkpt lat="48.27699" lon="-4.10009">
        <ele>94.8</ele>
        <time>2020-06-08T13:57:57Z</time>
      </trkpt>
      <trkpt lat="48.277" lon="-4.10009">
        <ele>94.9</ele>
        <time>2020-06-08T13:57:58Z</time>
      </trkpt>
      <trkpt lat="48.27703" lon="-4.10012">
        <ele>95.3</ele>
        <time>2020-06-08T13:57:59Z</time>
      </trkpt>
      <trkpt lat="48.27704" lon="-4.10013">
        <ele>95.5</ele>
        <time>2020-06-08T13:58:00Z</time>
      </trkpt>
      <trkpt lat="48.27708" lon="-4.10015">
        <ele>95.9</ele>
        <time>2020-06-08T13:58:01Z</time>
      </trkpt>
      <trkpt lat="48.27709" lon="-4.10016">
        <ele>96</ele>
        <time>2020-06-08T13:58:02Z</time>
      </trkpt>
      <trkpt lat="48.27712" lon="-4.10018">
        <ele>96.3</ele>
        <time>2020-06-08T13:58:03Z</time>
      </trkpt>
      <trkpt lat="48.27713" lon="-4.10018">
        <ele>96.4</ele>
        <time>2020-06-08T13:58:04Z</time>
      </trkpt>
      <trkpt lat="48.27716" lon="-4.1002">
        <ele>96.7</ele>
        <time>2020-06-08T13:58:05Z</time>
      </trkpt>
      <trkpt lat="48.27718" lon="-4.10021">
        <ele>96.9</ele>
        <time>2020-06-08T13:58:06Z</time>
      </trkpt>
      <trkpt lat="48.2772" lon="-4.10023">
        <ele>97.1</ele>
        <time>2020-06-08T13:58:07Z</time>
      </trkpt>
      <trkpt lat="48.27723" lon="-4.10025">
        <ele>97.4</ele>
        <time>2020-06-08T13:58:08Z</time>
      </trkpt>
      <trkpt lat="48.27724" lon="-4.10025">
        <ele>97.5</ele>
        <time>2020-06-08T13:58:09Z</time>
      </trkpt>
      <trkpt lat="48.27727" lon="-4.10028">
        <ele>97.8</ele>
        <time>2020-06-08T13:58:10Z</time>
      </trkpt>
      <trkpt lat="48.2773" lon="-4.1003">
        <ele>98.1</ele>
        <time>2020-06-08T13:58:11Z</time>
      </trkpt>
      <trkpt lat="48.27731" lon="-4.10031">
        <ele>98.2</ele>
        <time>2020-06-08T13:58:12Z</time>
      </trkpt>
      <trkpt lat="48.27735" lon="-4.10034">
        <ele>98.5</ele>
        <time>2020-06-08T13:58:13Z</time>
      </trkpt>
      <trkpt lat="48.27736" lon="-4.10035">
        <ele>98.6</ele>
        <time>2020-06-08T13:58:14Z</time>
      </trkpt>
      <trkpt lat="48.27738" lon="-4.10037">
        <ele>98.8</ele>
        <time>2020-06-08T13:58:15Z</time>
      </trkpt>
      <trkpt lat="48.27741" lon="-4.10039">
        <ele>99</ele>
        <time>2020-06-08T13:58:16Z</time>
      </trkpt>
      <trkpt lat="48.27743" lon="-4.10042">
        <ele>99.2</ele>
        <time>2020-06-08T13:58:17Z</time>
      </trkpt>
      <trkpt lat="48.27746" lon="-4.10045">
        <ele>99.4</ele>
        <time>2020-06-08T13:58:18Z</time>
      </trkpt>
      <trkpt lat="48.27747" lon="-4.10046">
        <ele>99.5</ele>
        <time>2020-06-08T13:58:19Z</time>
      </trkpt>
      <trkpt lat="48.27751" lon="-4.10048">
        <ele>99.7</ele>
        <time>2020-06-08T13:58:20Z</time>
      </trkpt>
      <trkpt lat="48.27752" lon="-4.10049">
        <ele>99.8</ele>
        <time>2020-06-08T13:58:21Z</time>
      </trkpt>
      <trkpt lat="48.27755" lon="-4.10051">
        <ele>99.9</ele>
        <time>2020-06-08T13:58:22Z</time>
      </trkpt>
      <trkpt lat="48.27758" lon="-4.10054">
        <ele>100.1</ele>
        <time>2020-06-08T13:58:23Z</time>
      </trkpt>
      <trkpt lat="48.27759" lon="-4.10055">
        <ele>100.1</ele>
        <time>2020-06-08T13:58:24Z</time>
      </trkpt>
      <trkpt lat="48.27761" lon="-4.10057">
        <ele>100.3</ele>
        <time>2020-06-08T13:58:25Z</time>
      </trkpt>
      <trkpt lat="48.27762" lon="-4.10058">
        <ele>100.3</ele>
        <time>2020-06-08T13:58:26Z</time>
      </trkpt>
      <trkpt lat="48.27765" lon="-4.1006">
        <ele>100.4</ele>
        <time>2020-06-08T13:58:27Z</time>
      </trkpt>
      <trkpt lat="48.27765" lon="-4.1006">
        <ele>100.5</ele>
        <time>2020-06-08T13:58:28Z</time>
      </trkpt>
      <trkpt lat="48.27767" lon="-4.10062">
        <ele>100.5</ele>
        <time>2020-06-08T13:58:29Z</time>
      </trkpt>
      <trkpt lat="48.27768" lon="-4.10064">
        <ele>100.6</ele>
        <time>2020-06-08T13:58:30Z</time>
      </trkpt>
      <trkpt lat="48.2777" lon="-4.10068">
        <ele>100.8</ele>
        <time>2020-06-08T13:58:31Z</time>
      </trkpt>
      <trkpt lat="48.27771" lon="-4.10069">
        <ele>100.8</ele>
        <time>2020-06-08T13:58:32Z</time>
      </trkpt>
      <trkpt lat="48.27774" lon="-4.10073">
        <ele>100.9</ele>
        <time>2020-06-08T13:58:33Z</time>
      </trkpt>
      <trkpt lat="48.27774" lon="-4.10074">
        <ele>101</ele>
        <time>2020-06-08T13:58:34Z</time>
      </trkpt>
      <trkpt lat="48.27777" lon="-4.10077">
        <ele>101.1</ele>
        <time>2020-06-08T13:58:35Z</time>
      </trkpt>
      <trkpt lat="48.27778" lon="-4.10078">
        <ele>101.1</ele>
        <time>2020-06-08T13:58:36Z</time>
      </trkpt>
      <trkpt lat="48.2778" lon="-4.10081">
        <ele>101.2</ele>
        <time>2020-06-08T13:58:37Z</time>
      </trkpt>
      <trkpt lat="48.27781" lon="-4.10082">
        <ele>101.3</ele>
        <time>2020-06-08T13:58:38Z</time>
      </trkpt>
      <trkpt lat="48.27784" lon="-4.10084">
        <ele>101.3</ele>
        <time>2020-06-08T13:58:39Z</time>
      </trkpt>
      <trkpt lat="48.27785" lon="-4.10084">
        <ele>101.3</ele>
        <time>2020-06-08T13:58:40Z</time>
      </trkpt>
      <trkpt lat="48.27788" lon="-4.10085">
        <ele>101.4</ele>
        <time>2020-06-08T13:58:41Z</time>
      </trkpt>
      <trkpt lat="48.27789" lon="-4.10086">
        <ele>101.4</ele>
        <time>2020-06-08T13:58:42Z</time>
      </trkpt>
      <trkpt lat="48.27791" lon="-4.10089">
        <ele>101.4</ele>
        <time>2020-06-08T13:58:43Z</time>
      </trkpt>
      <trkpt lat="48.27791" lon="-4.1009">
        <ele>101.4</ele>
        <time>2020-06-08T13:58:44Z</time>
      </trkpt>
      <trkpt lat="48.27793" lon="-4.10092">
        <ele>101.4</ele>
        <time>2020-06-08T13:58:45Z</time>
      </trkpt>
      <trkpt lat="48.27794" lon="-4.10093">
        <ele>101.4</ele>
        <time>2020-06-08T13:58:46Z</time>
      </trkpt>
      <trkpt lat="48.27795" lon="-4.10096">
        <ele>101.5</ele>
        <time>2020-06-08T13:58:47Z</time>
      </trkpt>
      <trkpt lat="48.27796" lon="-4.10097">
        <ele>101.5</ele>
        <time>2020-06-08T13:58:48Z</time>
      </trkpt>
      <trkpt lat="48.27797" lon="-4.10098">
        <ele>101.5</ele>
        <time>2020-06-08T13:58:49Z</time>
      </trkpt>
      <trkpt lat="48.27798" lon="-4.10099">
        <ele>101.5</ele>
        <time>2020-06-08T13:58:50Z</time>
      </trkpt>
      <trkpt lat="48.27799" lon="-4.101">
        <ele>101.5</ele>
        <time>2020-06-08T13:58:51Z</time>
      </trkpt>
      <trkpt lat="48.27802" lon="-4.10103">
        <ele>101.6</ele>
        <time>2020-06-08T13:58:52Z</time>
      </trkpt>
      <trkpt lat="48.27803" lon="-4.10104">
        <ele>101.6</ele>
        <time>2020-06-08T13:58:53Z</time>
      </trkpt>
      <trkpt lat="48.27806" lon="-4.10108">
        <ele>101.7</ele>
        <time>2020-06-08T13:58:54Z</time>
      </trkpt>
      <trkpt lat="48.27807" lon="-4.1011">
        <ele>101.7</ele>
        <time>2020-06-08T13:58:55Z</time>
      </trkpt>
      <trkpt lat="48.27809" lon="-4.10112">
        <ele>101.7</ele>
        <time>2020-06-08T13:58:56Z</time>
      </trkpt>
      <trkpt lat="48.27811" lon="-4.10115">
        <ele>101.8</ele>
        <time>2020-06-08T13:58:57Z</time>
      </trkpt>
      <trkpt lat="48.27814" lon="-4.10118">
        <ele>101.9</ele>
        <time>2020-06-08T13:58:58Z</time>
      </trkpt>
      <trkpt lat="48.27815" lon="-4.10119">
        <ele>101.9</ele>
        <time>2020-06-08T13:58:59Z</time>
      </trkpt>
      <trkpt lat="48.27816" lon="-4.1012">
        <ele>101.9</ele>
        <time>2020-06-08T13:59:00Z</time>
      </trkpt>
      <trkpt lat="48.27817" lon="-4.10122">
        <ele>102</ele>
        <time>2020-06-08T13:59:01Z</time>
      </trkpt>
      <trkpt lat="48.27819" lon="-4.10123">
        <ele>102</ele>
        <time>2020-06-08T13:59:02Z</time>
      </trkpt>
      <trkpt lat="48.2782" lon="-4.10125">
        <ele>102</ele>
        <time>2020-06-08T13:59:03Z</time>
      </trkpt>
      <trkpt lat="48.2782" lon="-4.10126">
        <ele>102</ele>
        <time>2020-06-08T13:59:04Z</time>
      </trkpt>
      <trkpt lat="48.27822" lon="-4.10127">
        <ele>102.1</ele>
        <time>2020-06-08T13:59:05Z</time>
      </trkpt>
      <trkpt lat="48.27824" lon="-4.10128">
        <ele>102.1</ele>
        <time>2020-06-08T13:59:06Z</time>
      </trkpt>
      <trkpt lat="48.27824" lon="-4.10129">
        <ele>102.1</ele>
        <time>2020-06-08T13:59:07Z</time>
      </trkpt>
      <trkpt lat="48.27825" lon="-4.10131">
        <ele>102.1</ele>
        <time>2020-06-08T13:59:08Z</time>
      </trkpt>
      <trkpt lat="48.27827" lon="-4.10132">
        <ele>102.2</ele>
        <time>2020-06-08T13:59:09Z</time>
      </trkpt>
      <trkpt lat="48.27828" lon="-4.10133">
        <ele>102.2</ele>
        <time>2020-06-08T13:59:10Z</time>
      </trkpt>
      <trkpt lat="48.27829" lon="-4.10134">
        <ele>102.2</ele>
        <time>2020-06-08T13:59:11Z</time>
      </trkpt>
      <trkpt lat="48.27831" lon="-4.10136">
        <ele>102.3</ele>
        <time>2020-06-08T13:59:12Z</time>
      </trkpt>
      <trkpt lat="48.27832" lon="-4.10137">
        <ele>102.3</ele>
        <time>2020-06-08T13:59:13Z</time>
      </trkpt>
      <trkpt lat="48.27833" lon="-4.10138">
        <ele>102.3</ele>
        <time>2020-06-08T13:59:14Z</time>
      </trkpt>
      <trkpt lat="48.27835" lon="-4.1014">
        <ele>102.4</ele>
        <time>2020-06-08T13:59:15Z</time>
      </trkpt>
      <trkpt lat="48.27836" lon="-4.10141">
        <ele>102.4</ele>
        <time>2020-06-08T13:59:16Z</time>
      </trkpt>
      <trkpt lat="48.27837" lon="-4.10141">
        <ele>102.4</ele>
        <time>2020-06-08T13:59:17Z</time>
      </trkpt>
      <trkpt lat="48.27839" lon="-4.10143">
        <ele>102.4</ele>
        <time>2020-06-08T13:59:18Z</time>
      </trkpt>
      <trkpt lat="48.27839" lon="-4.10143">
        <ele>102.4</ele>
        <time>2020-06-08T13:59:19Z</time>
      </trkpt>
      <trkpt lat="48.27841" lon="-4.10144">
        <ele>102.4</ele>
        <time>2020-06-08T13:59:20Z</time>
      </trkpt>
      <trkpt lat="48.27841" lon="-4.10145">
        <ele>102.5</ele>
        <time>2020-06-08T13:59:21Z</time>
      </trkpt>
      <trkpt lat="48.27843" lon="-4.10146">
        <ele>102.5</ele>
        <time>2020-06-08T13:59:22Z</time>
      </trkpt>
      <trkpt lat="48.27844" lon="-4.10147">
        <ele>102.5</ele>
        <time>2020-06-08T13:59:23Z</time>
      </trkpt>
      <trkpt lat="48.27844" lon="-4.10148">
        <ele>102.5</ele>
        <time>2020-06-08T13:59:24Z</time>
      </trkpt>
      <trkpt lat="48.27845" lon="-4.10149">
        <ele>102.5</ele>
        <time>2020-06-08T13:59:25Z</time>
      </trkpt>
      <trkpt lat="48.27845" lon="-4.10149">
        <ele>102.5</ele>
        <time>2020-06-08T13:59:26Z</time>
      </trkpt>
      <trkpt lat="48.27846" lon="-4.10149">
        <ele>102.6</ele>
        <time>2020-06-08T13:59:27Z</time>
      </trkpt>
      <trkpt lat="48.27847" lon="-4.10149">
        <ele>102.6</ele>
        <time>2020-06-08T13:59:28Z</time>
      </trkpt>
      <trkpt lat="48.27847" lon="-4.1015">
        <ele>102.6</ele>
        <time>2020-06-08T13:59:29Z</time>
      </trkpt>
      <trkpt lat="48.27848" lon="-4.10151">
        <ele>102.6</ele>
        <time>2020-06-08T13:59:30Z</time>
      </trkpt>
      <trkpt lat="48.2785" lon="-4.10153">
        <ele>102.6</ele>
        <time>2020-06-08T13:59:31Z</time>
      </trkpt>
      <trkpt lat="48.27853" lon="-4.10156">
        <ele>102.7</ele>
        <time>2020-06-08T13:59:32Z</time>
      </trkpt>
      <trkpt lat="48.27854" lon="-4.10157">
        <ele>102.7</ele>
        <time>2020-06-08T13:59:33Z</time>
      </trkpt>
      <trkpt lat="48.27855" lon="-4.10157">
        <ele>102.7</ele>
        <time>2020-06-08T13:59:34Z</time>
      </trkpt>
      <trkpt lat="48.27857" lon="-4.10158">
        <ele>102.7</ele>
        <time>2020-06-08T13:59:35Z</time>
      </trkpt>
      <trkpt lat="48.27857" lon="-4.10158">
        <ele>102.7</ele>
        <time>2020-06-08T13:59:36Z</time>
      </trkpt>
      <trkpt lat="48.27858" lon="-4.10159">
        <ele>102.7</ele>
        <time>2020-06-08T13:59:37Z</time>
      </trkpt>
      <trkpt lat="48.27857" lon="-4.10157">
        <ele>102.7</ele>
        <time>2020-06-08T13:59:38Z</time>
      </trkpt>
      <trkpt lat="48.27857" lon="-4.10158">
        <ele>102.7</ele>
        <time>2020-06-08T13:59:39Z</time>
      </trkpt>
      <trkpt lat="48.27858" lon="-4.10157">
        <ele>102.7</ele>
        <time>2020-06-08T13:59:40Z</time>
      </trkpt>
      <trkpt lat="48.27858" lon="-4.10157">
        <ele>102.7</ele>
        <time>2020-06-08T13:59:41Z</time>
      </trkpt>
      <trkpt lat="48.27858" lon="-4.10157">
        <ele>102.7</ele>
        <time>2020-06-08T13:59:42Z</time>
      </trkpt>
      <trkpt lat="48.27858" lon="-4.10156">
        <ele>102.7</ele>
        <time>2020-06-08T13:59:43Z</time>
      </trkpt>
      <trkpt lat="48.27858" lon="-4.10155">
        <ele>102.7</ele>
        <time>2020-06-08T13:59:44Z</time>
      </trkpt>
      <trkpt lat="48.27858" lon="-4.10155">
        <ele>102.7</ele>
        <time>2020-06-08T13:59:45Z</time>
      </trkpt>
      <trkpt lat="48.27858" lon="-4.10155">
        <ele>102.7</ele>
        <time>2020-06-08T13:59:46Z</time>
      </trkpt>
      <trkpt lat="48.27859" lon="-4.10155">
        <ele>102.7</ele>
        <time>2020-06-08T13:59:47Z</time>
      </trkpt>
      <trkpt lat="48.27859" lon="-4.10155">
        <ele>102.7</ele>
        <time>2020-06-08T13:59:48Z</time>
      </trkpt>
      <trkpt lat="48.27861" lon="-4.10161">
        <ele>102.8</ele>
        <time>2020-06-08T14:00:25Z</time>
      </trkpt>
      <trkpt lat="48.27862" lon="-4.10163">
        <ele>102.8</ele>
        <time>2020-06-08T14:00:26Z</time>
      </trkpt>
      <trkpt lat="48.27863" lon="-4.10164">
        <ele>102.8</ele>
        <time>2020-06-08T14:00:27Z</time>
      </trkpt>
      <trkpt lat="48.27864" lon="-4.10165">
        <ele>102.8</ele>
        <time>2020-06-08T14:00:28Z</time>
      </trkpt>
      <trkpt lat="48.27864" lon="-4.10165">
        <ele>102.8</ele>
        <time>2020-06-08T14:00:29Z</time>
      </trkpt>
      <trkpt lat="48.27866" lon="-4.10164">
        <ele>102.8</ele>
        <time>2020-06-08T14:00:30Z</time>
      </trkpt>
      <trkpt lat="48.27867" lon="-4.10164">
        <ele>102.8</ele>
        <time>2020-06-08T14:00:31Z</time>
      </trkpt>
      <trkpt lat="48.27869" lon="-4.10164">
        <ele>102.8</ele>
        <time>2020-06-08T14:00:32Z</time>
      </trkpt>
      <trkpt lat="48.2787" lon="-4.10164">
        <ele>102.8</ele>
        <time>2020-06-08T14:00:33Z</time>
      </trkpt>
      <trkpt lat="48.27872" lon="-4.10164">
        <ele>102.8</ele>
        <time>2020-06-08T14:00:34Z</time>
      </trkpt>
      <trkpt lat="48.27873" lon="-4.10164">
        <ele>102.8</ele>
        <time>2020-06-08T14:00:35Z</time>
      </trkpt>
      <trkpt lat="48.27875" lon="-4.10164">
        <ele>102.8</ele>
        <time>2020-06-08T14:00:36Z</time>
      </trkpt>
      <trkpt lat="48.27876" lon="-4.10164">
        <ele>102.8</ele>
        <time>2020-06-08T14:00:37Z</time>
      </trkpt>
      <trkpt lat="48.27878" lon="-4.10164">
        <ele>102.8</ele>
        <time>2020-06-08T14:00:38Z</time>
      </trkpt>
      <trkpt lat="48.27879" lon="-4.10164">
        <ele>102.8</ele>
        <time>2020-06-08T14:01:54Z</time>
      </trkpt>
      <trkpt lat="48.27881" lon="-4.10164">
        <ele>102.7</ele>
        <time>2020-06-08T14:01:55Z</time>
      </trkpt>
      <trkpt lat="48.27884" lon="-4.10166">
        <ele>102.7</ele>
        <time>2020-06-08T14:01:56Z</time>
      </trkpt>
      <trkpt lat="48.27885" lon="-4.10166">
        <ele>102.7</ele>
        <time>2020-06-08T14:01:57Z</time>
      </trkpt>
      <trkpt lat="48.27887" lon="-4.10166">
        <ele>102.6</ele>
        <time>2020-06-08T14:01:58Z</time>
      </trkpt>
      <trkpt lat="48.27887" lon="-4.10166">
        <ele>102.6</ele>
        <time>2020-06-08T14:01:59Z</time>
      </trkpt>
      <trkpt lat="48.27888" lon="-4.10167">
        <ele>102.6</ele>
        <time>2020-06-08T14:02:00Z</time>
      </trkpt>
      <trkpt lat="48.27889" lon="-4.10167">
        <ele>102.6</ele>
        <time>2020-06-08T14:02:01Z</time>
      </trkpt>
      <trkpt lat="48.2789" lon="-4.10167">
        <ele>102.6</ele>
        <time>2020-06-08T14:02:02Z</time>
      </trkpt>
      <trkpt lat="48.27891" lon="-4.10168">
        <ele>102.6</ele>
        <time>2020-06-08T14:02:03Z</time>
      </trkpt>
      <trkpt lat="48.27891" lon="-4.10168">
        <ele>102.5</ele>
        <time>2020-06-08T14:02:04Z</time>
      </trkpt>
      <trkpt lat="48.27892" lon="-4.10169">
        <ele>102.5</ele>
        <time>2020-06-08T14:02:05Z</time>
      </trkpt>
      <trkpt lat="48.27893" lon="-4.10169">
        <ele>102.5</ele>
        <time>2020-06-08T14:02:06Z</time>
      </trkpt>
      <trkpt lat="48.27894" lon="-4.10169">
        <ele>102.5</ele>
        <time>2020-06-08T14:02:07Z</time>
      </trkpt>
      <trkpt lat="48.27895" lon="-4.1017">
        <ele>102.5</ele>
        <time>2020-06-08T14:02:08Z</time>
      </trkpt>
      <trkpt lat="48.27896" lon="-4.1017">
        <ele>102.5</ele>
        <time>2020-06-08T14:02:09Z</time>
      </trkpt>
      <trkpt lat="48.27896" lon="-4.1017">
        <ele>102.5</ele>
        <time>2020-06-08T14:03:33Z</time>
      </trkpt>
      <trkpt lat="48.27897" lon="-4.10171">
        <ele>102.4</ele>
        <time>2020-06-08T14:03:34Z</time>
      </trkpt>
      <trkpt lat="48.27898" lon="-4.10171">
        <ele>102.4</ele>
        <time>2020-06-08T14:03:35Z</time>
      </trkpt>
      <trkpt lat="48.279" lon="-4.10171">
        <ele>102.4</ele>
        <time>2020-06-08T14:03:36Z</time>
      </trkpt>
      <trkpt lat="48.27901" lon="-4.10173">
        <ele>102.3</ele>
        <time>2020-06-08T14:03:37Z</time>
      </trkpt>
      <trkpt lat="48.27903" lon="-4.10173">
        <ele>102.3</ele>
        <time>2020-06-08T14:03:38Z</time>
      </trkpt>
      <trkpt lat="48.27904" lon="-4.10174">
        <ele>102.3</ele>
        <time>2020-06-08T14:03:39Z</time>
      </trkpt>
      <trkpt lat="48.27906" lon="-4.10177">
        <ele>102.2</ele>
        <time>2020-06-08T14:03:40Z</time>
      </trkpt>
      <trkpt lat="48.27907" lon="-4.10177">
        <ele>102.2</ele>
        <time>2020-06-08T14:03:41Z</time>
      </trkpt>
      <trkpt lat="48.27908" lon="-4.10178">
        <ele>102.1</ele>
        <time>2020-06-08T14:03:42Z</time>
      </trkpt>
      <trkpt lat="48.2791" lon="-4.1018">
        <ele>102</ele>
        <time>2020-06-08T14:03:43Z</time>
      </trkpt>
      <trkpt lat="48.27911" lon="-4.1018">
        <ele>102</ele>
        <time>2020-06-08T14:03:44Z</time>
      </trkpt>
      <trkpt lat="48.27913" lon="-4.10183">
        <ele>101.9</ele>
        <time>2020-06-08T14:03:45Z</time>
      </trkpt>
      <trkpt lat="48.27914" lon="-4.10184">
        <ele>101.8</ele>
        <time>2020-06-08T14:03:46Z</time>
      </trkpt>
      <trkpt lat="48.27917" lon="-4.10186">
        <ele>101.7</ele>
        <time>2020-06-08T14:03:47Z</time>
      </trkpt>
      <trkpt lat="48.27918" lon="-4.10186">
        <ele>101.7</ele>
        <time>2020-06-08T14:03:48Z</time>
      </trkpt>
      <trkpt lat="48.27921" lon="-4.10188">
        <ele>101.5</ele>
        <time>2020-06-08T14:03:49Z</time>
      </trkpt>
      <trkpt lat="48.27924" lon="-4.10189">
        <ele>101.3</ele>
        <time>2020-06-08T14:03:50Z</time>
      </trkpt>
      <trkpt lat="48.27926" lon="-4.1019">
        <ele>101.3</ele>
        <time>2020-06-08T14:03:51Z</time>
      </trkpt>
      <trkpt lat="48.27929" lon="-4.10191">
        <ele>101.1</ele>
        <time>2020-06-08T14:03:52Z</time>
      </trkpt>
      <trkpt lat="48.27932" lon="-4.10193">
        <ele>100.9</ele>
        <time>2020-06-08T14:03:53Z</time>
      </trkpt>
      <trkpt lat="48.27936" lon="-4.10195">
        <ele>100.6</ele>
        <time>2020-06-08T14:03:54Z</time>
      </trkpt>
      <trkpt lat="48.27939" lon="-4.10198">
        <ele>100.4</ele>
        <time>2020-06-08T14:03:55Z</time>
      </trkpt>
      <trkpt lat="48.27943" lon="-4.10201">
        <ele>100.1</ele>
        <time>2020-06-08T14:03:56Z</time>
      </trkpt>
      <trkpt lat="48.27948" lon="-4.10204">
        <ele>99.7</ele>
        <time>2020-06-08T14:03:57Z</time>
      </trkpt>
      <trkpt lat="48.27952" lon="-4.10207">
        <ele>99.4</ele>
        <time>2020-06-08T14:03:58Z</time>
      </trkpt>
      <trkpt lat="48.27958" lon="-4.1021">
        <ele>99</ele>
        <time>2020-06-08T14:03:59Z</time>
      </trkpt>
      <trkpt lat="48.27964" lon="-4.10212">
        <ele>98.6</ele>
        <time>2020-06-08T14:04:00Z</time>
      </trkpt>
      <trkpt lat="48.27969" lon="-4.10215">
        <ele>98.1</ele>
        <time>2020-06-08T14:04:01Z</time>
      </trkpt>
      <trkpt lat="48.27974" lon="-4.10218">
        <ele>97.9</ele>
        <time>2020-06-08T14:04:02Z</time>
      </trkpt>
      <trkpt lat="48.2798" lon="-4.10222">
        <ele>97.7</ele>
        <time>2020-06-08T14:04:03Z</time>
      </trkpt>
      <trkpt lat="48.27987" lon="-4.10228">
        <ele>97.3</ele>
        <time>2020-06-08T14:04:04Z</time>
      </trkpt>
      <trkpt lat="48.27993" lon="-4.10231">
        <ele>96.9</ele>
        <time>2020-06-08T14:04:05Z</time>
      </trkpt>
      <trkpt lat="48.28001" lon="-4.10236">
        <ele>96.4</ele>
        <time>2020-06-08T14:04:06Z</time>
      </trkpt>
      <trkpt lat="48.28009" lon="-4.10242">
        <ele>95.9</ele>
        <time>2020-06-08T14:04:07Z</time>
      </trkpt>
      <trkpt lat="48.28016" lon="-4.10246">
        <ele>95.5</ele>
        <time>2020-06-08T14:04:08Z</time>
      </trkpt>
      <trkpt lat="48.28023" lon="-4.1025">
        <ele>95.1</ele>
        <time>2020-06-08T14:04:09Z</time>
      </trkpt>
      <trkpt lat="48.28031" lon="-4.10254">
        <ele>94.7</ele>
        <time>2020-06-08T14:04:10Z</time>
      </trkpt>
      <trkpt lat="48.28038" lon="-4.10256">
        <ele>94.5</ele>
        <time>2020-06-08T14:04:11Z</time>
      </trkpt>
      <trkpt lat="48.28045" lon="-4.10262">
        <ele>94.3</ele>
        <time>2020-06-08T14:04:12Z</time>
      </trkpt>
      <trkpt lat="48.28052" lon="-4.10267">
        <ele>94.1</ele>
        <time>2020-06-08T14:04:13Z</time>
      </trkpt>
      <trkpt lat="48.28058" lon="-4.10271">
        <ele>94</ele>
        <time>2020-06-08T14:04:14Z</time>
      </trkpt>
      <trkpt lat="48.28065" lon="-4.10275">
        <ele>93.8</ele>
        <time>2020-06-08T14:04:15Z</time>
      </trkpt>
      <trkpt lat="48.28071" lon="-4.10278">
        <ele>93.7</ele>
        <time>2020-06-08T14:04:16Z</time>
      </trkpt>
      <trkpt lat="48.28077" lon="-4.10282">
        <ele>93.7</ele>
        <time>2020-06-08T14:04:17Z</time>
      </trkpt>
      <trkpt lat="48.28082" lon="-4.10286">
        <ele>93.6</ele>
        <time>2020-06-08T14:04:18Z</time>
      </trkpt>
      <trkpt lat="48.28086" lon="-4.1029">
        <ele>93.6</ele>
        <time>2020-06-08T14:04:19Z</time>
      </trkpt>
      <trkpt lat="48.2809" lon="-4.10296">
        <ele>93.7</ele>
        <time>2020-06-08T14:04:20Z</time>
      </trkpt>
      <trkpt lat="48.28094" lon="-4.103">
        <ele>93.7</ele>
        <time>2020-06-08T14:04:21Z</time>
      </trkpt>
      <trkpt lat="48.28098" lon="-4.10305">
        <ele>93.8</ele>
        <time>2020-06-08T14:04:22Z</time>
      </trkpt>
      <trkpt lat="48.28102" lon="-4.10309">
        <ele>93.9</ele>
        <time>2020-06-08T14:04:23Z</time>
      </trkpt>
      <trkpt lat="48.28105" lon="-4.10313">
        <ele>93.9</ele>
        <time>2020-06-08T14:04:24Z</time>
      </trkpt>
      <trkpt lat="48.28109" lon="-4.10317">
        <ele>94</ele>
        <time>2020-06-08T14:04:25Z</time>
      </trkpt>
      <trkpt lat="48.28112" lon="-4.10321">
        <ele>94</ele>
        <time>2020-06-08T14:04:26Z</time>
      </trkpt>
      <trkpt lat="48.28115" lon="-4.10324">
        <ele>94.1</ele>
        <time>2020-06-08T14:04:27Z</time>
      </trkpt>
      <trkpt lat="48.28118" lon="-4.10328">
        <ele>94.1</ele>
        <time>2020-06-08T14:04:28Z</time>
      </trkpt>
      <trkpt lat="48.28121" lon="-4.10332">
        <ele>94.2</ele>
        <time>2020-06-08T14:04:29Z</time>
      </trkpt>
      <trkpt lat="48.28124" lon="-4.10336">
        <ele>94.3</ele>
        <time>2020-06-08T14:04:30Z</time>
      </trkpt>
      <trkpt lat="48.28127" lon="-4.10341">
        <ele>94.4</ele>
        <time>2020-06-08T14:04:31Z</time>
      </trkpt>
      <trkpt lat="48.2813" lon="-4.10345">
        <ele>94.5</ele>
        <time>2020-06-08T14:04:32Z</time>
      </trkpt>
      <trkpt lat="48.28133" lon="-4.10349">
        <ele>94.7</ele>
        <time>2020-06-08T14:04:33Z</time>
      </trkpt>
      <trkpt lat="48.28137" lon="-4.10353">
        <ele>94.8</ele>
        <time>2020-06-08T14:04:34Z</time>
      </trkpt>
      <trkpt lat="48.2814" lon="-4.10357">
        <ele>94.9</ele>
        <time>2020-06-08T14:04:35Z</time>
      </trkpt>
      <trkpt lat="48.28143" lon="-4.10361">
        <ele>95</ele>
        <time>2020-06-08T14:04:36Z</time>
      </trkpt>
      <trkpt lat="48.28146" lon="-4.10365">
        <ele>95.2</ele>
        <time>2020-06-08T14:04:37Z</time>
      </trkpt>
      <trkpt lat="48.2815" lon="-4.10368">
        <ele>95.3</ele>
        <time>2020-06-08T14:04:38Z</time>
      </trkpt>
      <trkpt lat="48.28152" lon="-4.10371">
        <ele>95.5</ele>
        <time>2020-06-08T14:04:39Z</time>
      </trkpt>
      <trkpt lat="48.28155" lon="-4.10374">
        <ele>95.6</ele>
        <time>2020-06-08T14:04:40Z</time>
      </trkpt>
      <trkpt lat="48.28158" lon="-4.10377">
        <ele>95.8</ele>
        <time>2020-06-08T14:04:41Z</time>
      </trkpt>
      <trkpt lat="48.28161" lon="-4.1038">
        <ele>96</ele>
        <time>2020-06-08T14:04:42Z</time>
      </trkpt>
      <trkpt lat="48.28163" lon="-4.10383">
        <ele>96.1</ele>
        <time>2020-06-08T14:04:43Z</time>
      </trkpt>
      <trkpt lat="48.28166" lon="-4.10386">
        <ele>96.3</ele>
        <time>2020-06-08T14:04:44Z</time>
      </trkpt>
      <trkpt lat="48.28168" lon="-4.10389">
        <ele>96.4</ele>
        <time>2020-06-08T14:04:45Z</time>
      </trkpt>
      <trkpt lat="48.28171" lon="-4.10392">
        <ele>96.6</ele>
        <time>2020-06-08T14:04:46Z</time>
      </trkpt>
      <trkpt lat="48.28173" lon="-4.10395">
        <ele>96.8</ele>
        <time>2020-06-08T14:04:47Z</time>
      </trkpt>
      <trkpt lat="48.28176" lon="-4.10398">
        <ele>97</ele>
        <time>2020-06-08T14:04:48Z</time>
      </trkpt>
      <trkpt lat="48.28178" lon="-4.10401">
        <ele>97.1</ele>
        <time>2020-06-08T14:04:49Z</time>
      </trkpt>
      <trkpt lat="48.28181" lon="-4.10403">
        <ele>97.3</ele>
        <time>2020-06-08T14:04:50Z</time>
      </trkpt>
      <trkpt lat="48.28183" lon="-4.10407">
        <ele>97.5</ele>
        <time>2020-06-08T14:04:51Z</time>
      </trkpt>
      <trkpt lat="48.28185" lon="-4.1041">
        <ele>97.8</ele>
        <time>2020-06-08T14:04:52Z</time>
      </trkpt>
      <trkpt lat="48.28187" lon="-4.10415">
        <ele>98</ele>
        <time>2020-06-08T14:04:53Z</time>
      </trkpt>
      <trkpt lat="48.28188" lon="-4.10416">
        <ele>98.1</ele>
        <time>2020-06-08T14:04:54Z</time>
      </trkpt>
      <trkpt lat="48.2819" lon="-4.10421">
        <ele>98.4</ele>
        <time>2020-06-08T14:04:55Z</time>
      </trkpt>
      <trkpt lat="48.28191" lon="-4.10422">
        <ele>98.5</ele>
        <time>2020-06-08T14:04:56Z</time>
      </trkpt>
      <trkpt lat="48.28192" lon="-4.10427">
        <ele>98.8</ele>
        <time>2020-06-08T14:04:57Z</time>
      </trkpt>
      <trkpt lat="48.28193" lon="-4.10429">
        <ele>98.9</ele>
        <time>2020-06-08T14:04:58Z</time>
      </trkpt>
      <trkpt lat="48.28194" lon="-4.10434">
        <ele>99.2</ele>
        <time>2020-06-08T14:04:59Z</time>
      </trkpt>
      <trkpt lat="48.28195" lon="-4.10435">
        <ele>99.3</ele>
        <time>2020-06-08T14:05:00Z</time>
      </trkpt>
      <trkpt lat="48.28196" lon="-4.10439">
        <ele>99.5</ele>
        <time>2020-06-08T14:05:01Z</time>
      </trkpt>
      <trkpt lat="48.28196" lon="-4.1044">
        <ele>99.6</ele>
        <time>2020-06-08T14:05:02Z</time>
      </trkpt>
      <trkpt lat="48.28199" lon="-4.10443">
        <ele>99.8</ele>
        <time>2020-06-08T14:05:03Z</time>
      </trkpt>
      <trkpt lat="48.282" lon="-4.10445">
        <ele>99.9</ele>
        <time>2020-06-08T14:05:04Z</time>
      </trkpt>
      <trkpt lat="48.28201" lon="-4.1045">
        <ele>100.2</ele>
        <time>2020-06-08T14:05:05Z</time>
      </trkpt>
      <trkpt lat="48.28201" lon="-4.10452">
        <ele>100.3</ele>
        <time>2020-06-08T14:05:06Z</time>
      </trkpt>
      <trkpt lat="48.28203" lon="-4.10457">
        <ele>100.6</ele>
        <time>2020-06-08T14:05:07Z</time>
      </trkpt>
      <trkpt lat="48.28204" lon="-4.10459">
        <ele>100.7</ele>
        <time>2020-06-08T14:05:08Z</time>
      </trkpt>
      <trkpt lat="48.28206" lon="-4.10464">
        <ele>101.1</ele>
        <time>2020-06-08T14:05:09Z</time>
      </trkpt>
      <trkpt lat="48.28207" lon="-4.10466">
        <ele>101.2</ele>
        <time>2020-06-08T14:05:10Z</time>
      </trkpt>
      <trkpt lat="48.28208" lon="-4.1047">
        <ele>101.4</ele>
        <time>2020-06-08T14:05:11Z</time>
      </trkpt>
      <trkpt lat="48.28209" lon="-4.10473">
        <ele>101.6</ele>
        <time>2020-06-08T14:05:12Z</time>
      </trkpt>
      <trkpt lat="48.28212" lon="-4.10478">
        <ele>102</ele>
        <time>2020-06-08T14:05:13Z</time>
      </trkpt>
      <trkpt lat="48.28212" lon="-4.1048">
        <ele>102.1</ele>
        <time>2020-06-08T14:05:14Z</time>
      </trkpt>
      <trkpt lat="48.28213" lon="-4.10484">
        <ele>102.3</ele>
        <time>2020-06-08T14:05:15Z</time>
      </trkpt>
      <trkpt lat="48.28214" lon="-4.10488">
        <ele>102.5</ele>
        <time>2020-06-08T14:05:16Z</time>
      </trkpt>
      <trkpt lat="48.28215" lon="-4.10494">
        <ele>102.8</ele>
        <time>2020-06-08T14:05:17Z</time>
      </trkpt>
      <trkpt lat="48.28215" lon="-4.10496">
        <ele>102.9</ele>
        <time>2020-06-08T14:05:18Z</time>
      </trkpt>
      <trkpt lat="48.28217" lon="-4.105">
        <ele>103.2</ele>
        <time>2020-06-08T14:05:19Z</time>
      </trkpt>
      <trkpt lat="48.28218" lon="-4.10502">
        <ele>103.3</ele>
        <time>2020-06-08T14:05:20Z</time>
      </trkpt>
      <trkpt lat="48.2822" lon="-4.10507">
        <ele>103.6</ele>
        <time>2020-06-08T14:05:21Z</time>
      </trkpt>
      <trkpt lat="48.28221" lon="-4.10512">
        <ele>103.8</ele>
        <time>2020-06-08T14:05:22Z</time>
      </trkpt>
      <trkpt lat="48.28221" lon="-4.10515">
        <ele>104</ele>
        <time>2020-06-08T14:05:23Z</time>
      </trkpt>
      <trkpt lat="48.28222" lon="-4.10519">
        <ele>104.2</ele>
        <time>2020-06-08T14:05:24Z</time>
      </trkpt>
      <trkpt lat="48.28223" lon="-4.10523">
        <ele>104.4</ele>
        <time>2020-06-08T14:05:25Z</time>
      </trkpt>
      <trkpt lat="48.28223" lon="-4.10524">
        <ele>104.5</ele>
        <time>2020-06-08T14:05:26Z</time>
      </trkpt>
      <trkpt lat="48.28224" lon="-4.10529">
        <ele>104.7</ele>
        <time>2020-06-08T14:05:27Z</time>
      </trkpt>
      <trkpt lat="48.28224" lon="-4.10533">
        <ele>104.9</ele>
        <time>2020-06-08T14:05:28Z</time>
      </trkpt>
      <trkpt lat="48.28225" lon="-4.10534">
        <ele>105</ele>
        <time>2020-06-08T14:05:29Z</time>
      </trkpt>
      <trkpt lat="48.28227" lon="-4.1054">
        <ele>105.3</ele>
        <time>2020-06-08T14:05:30Z</time>
      </trkpt>
      <trkpt lat="48.28228" lon="-4.10541">
        <ele>105.4</ele>
        <time>2020-06-08T14:05:31Z</time>
      </trkpt>
      <trkpt lat="48.2823" lon="-4.10546">
        <ele>105.7</ele>
        <time>2020-06-08T14:05:32Z</time>
      </trkpt>
      <trkpt lat="48.2823" lon="-4.10548">
        <ele>105.7</ele>
        <time>2020-06-08T14:05:33Z</time>
      </trkpt>
      <trkpt lat="48.28232" lon="-4.10552">
        <ele>105.9</ele>
        <time>2020-06-08T14:05:34Z</time>
      </trkpt>
      <trkpt lat="48.28233" lon="-4.10557">
        <ele>106.2</ele>
        <time>2020-06-08T14:05:35Z</time>
      </trkpt>
      <trkpt lat="48.28233" lon="-4.10558">
        <ele>106.3</ele>
        <time>2020-06-08T14:05:36Z</time>
      </trkpt>
      <trkpt lat="48.28234" lon="-4.10562">
        <ele>106.5</ele>
        <time>2020-06-08T14:05:37Z</time>
      </trkpt>
      <trkpt lat="48.28235" lon="-4.10564">
        <ele>106.5</ele>
        <time>2020-06-08T14:05:38Z</time>
      </trkpt>
      <trkpt lat="48.28235" lon="-4.10565">
        <ele>106.6</ele>
        <time>2020-06-08T14:05:39Z</time>
      </trkpt>
      <trkpt lat="48.28236" lon="-4.10568">
        <ele>106.7</ele>
        <time>2020-06-08T14:05:40Z</time>
      </trkpt>
      <trkpt lat="48.28238" lon="-4.10572">
        <ele>106.9</ele>
        <time>2020-06-08T14:05:41Z</time>
      </trkpt>
      <trkpt lat="48.28238" lon="-4.10573">
        <ele>107</ele>
        <time>2020-06-08T14:05:42Z</time>
      </trkpt>
      <trkpt lat="48.28241" lon="-4.10577">
        <ele>107.2</ele>
        <time>2020-06-08T14:05:43Z</time>
      </trkpt>
      <trkpt lat="48.28242" lon="-4.10579">
        <ele>107.3</ele>
        <time>2020-06-08T14:05:44Z</time>
      </trkpt>
      <trkpt lat="48.28244" lon="-4.10581">
        <ele>107.5</ele>
        <time>2020-06-08T14:05:45Z</time>
      </trkpt>
      <trkpt lat="48.28247" lon="-4.10584">
        <ele>107.8</ele>
        <time>2020-06-08T14:05:46Z</time>
      </trkpt>
      <trkpt lat="48.28248" lon="-4.10585">
        <ele>107.8</ele>
        <time>2020-06-08T14:05:47Z</time>
      </trkpt>
      <trkpt lat="48.28251" lon="-4.10586">
        <ele>108</ele>
        <time>2020-06-08T14:05:48Z</time>
      </trkpt>
      <trkpt lat="48.28254" lon="-4.10588">
        <ele>108.1</ele>
        <time>2020-06-08T14:05:49Z</time>
      </trkpt>
      <trkpt lat="48.28257" lon="-4.10589">
        <ele>108.2</ele>
        <time>2020-06-08T14:05:50Z</time>
      </trkpt>
      <trkpt lat="48.2826" lon="-4.10589">
        <ele>108.4</ele>
        <time>2020-06-08T14:05:51Z</time>
      </trkpt>
      <trkpt lat="48.28261" lon="-4.10589">
        <ele>108.4</ele>
        <time>2020-06-08T14:05:52Z</time>
      </trkpt>
      <trkpt lat="48.28265" lon="-4.1059">
        <ele>108.5</ele>
        <time>2020-06-08T14:05:53Z</time>
      </trkpt>
      <trkpt lat="48.28265" lon="-4.1059">
        <ele>108.6</ele>
        <time>2020-06-08T14:05:54Z</time>
      </trkpt>
      <trkpt lat="48.28269" lon="-4.10591">
        <ele>108.7</ele>
        <time>2020-06-08T14:05:55Z</time>
      </trkpt>
      <trkpt lat="48.28269" lon="-4.10592">
        <ele>108.7</ele>
        <time>2020-06-08T14:05:56Z</time>
      </trkpt>
      <trkpt lat="48.28272" lon="-4.10593">
        <ele>108.8</ele>
        <time>2020-06-08T14:05:57Z</time>
      </trkpt>
      <trkpt lat="48.28275" lon="-4.10595">
        <ele>108.9</ele>
        <time>2020-06-08T14:05:58Z</time>
      </trkpt>
      <trkpt lat="48.28277" lon="-4.10596">
        <ele>108.9</ele>
        <time>2020-06-08T14:05:59Z</time>
      </trkpt>
      <trkpt lat="48.2828" lon="-4.10598">
        <ele>108.9</ele>
        <time>2020-06-08T14:06:00Z</time>
      </trkpt>
      <trkpt lat="48.28282" lon="-4.10602">
        <ele>108.9</ele>
        <time>2020-06-08T14:06:01Z</time>
      </trkpt>
      <trkpt lat="48.28283" lon="-4.10604">
        <ele>109</ele>
        <time>2020-06-08T14:06:02Z</time>
      </trkpt>
      <trkpt lat="48.28283" lon="-4.10608">
        <ele>109</ele>
        <time>2020-06-08T14:06:03Z</time>
      </trkpt>
      <trkpt lat="48.28283" lon="-4.10613">
        <ele>109</ele>
        <time>2020-06-08T14:06:04Z</time>
      </trkpt>
      <trkpt lat="48.28283" lon="-4.10617">
        <ele>109.1</ele>
        <time>2020-06-08T14:06:05Z</time>
      </trkpt>
      <trkpt lat="48.28282" lon="-4.10623">
        <ele>109.4</ele>
        <time>2020-06-08T14:06:06Z</time>
      </trkpt>
      <trkpt lat="48.28282" lon="-4.10626">
        <ele>109.5</ele>
        <time>2020-06-08T14:06:07Z</time>
      </trkpt>
      <trkpt lat="48.28281" lon="-4.10631">
        <ele>109.7</ele>
        <time>2020-06-08T14:06:08Z</time>
      </trkpt>
      <trkpt lat="48.2828" lon="-4.10637">
        <ele>109.9</ele>
        <time>2020-06-08T14:06:09Z</time>
      </trkpt>
      <trkpt lat="48.28279" lon="-4.10639">
        <ele>110</ele>
        <time>2020-06-08T14:06:10Z</time>
      </trkpt>
      <trkpt lat="48.28278" lon="-4.10644">
        <ele>110.2</ele>
        <time>2020-06-08T14:06:11Z</time>
      </trkpt>
      <trkpt lat="48.28277" lon="-4.10648">
        <ele>110.4</ele>
        <time>2020-06-08T14:06:12Z</time>
      </trkpt>
      <trkpt lat="48.28276" lon="-4.1065">
        <ele>110.5</ele>
        <time>2020-06-08T14:06:13Z</time>
      </trkpt>
      <trkpt lat="48.28276" lon="-4.10652">
        <ele>110.6</ele>
        <time>2020-06-08T14:06:14Z</time>
      </trkpt>
      <trkpt lat="48.28274" lon="-4.10657">
        <ele>110.8</ele>
        <time>2020-06-08T14:06:15Z</time>
      </trkpt>
      <trkpt lat="48.28274" lon="-4.10659">
        <ele>110.9</ele>
        <time>2020-06-08T14:06:16Z</time>
      </trkpt>
      <trkpt lat="48.28273" lon="-4.10663">
        <ele>111.1</ele>
        <time>2020-06-08T14:06:17Z</time>
      </trkpt>
      <trkpt lat="48.28272" lon="-4.10669">
        <ele>111.3</ele>
        <time>2020-06-08T14:06:18Z</time>
      </trkpt>
      <trkpt lat="48.28272" lon="-4.10674">
        <ele>111.5</ele>
        <time>2020-06-08T14:06:19Z</time>
      </trkpt>
      <trkpt lat="48.28273" lon="-4.1068">
        <ele>111.7</ele>
        <time>2020-06-08T14:06:20Z</time>
      </trkpt>
      <trkpt lat="48.28274" lon="-4.10682">
        <ele>111.8</ele>
        <time>2020-06-08T14:06:21Z</time>
      </trkpt>
      <trkpt lat="48.28274" lon="-4.10687">
        <ele>112.1</ele>
        <time>2020-06-08T14:06:22Z</time>
      </trkpt>
      <trkpt lat="48.28274" lon="-4.10689">
        <ele>112.2</ele>
        <time>2020-06-08T14:06:23Z</time>
      </trkpt>
      <trkpt lat="48.28275" lon="-4.10694">
        <ele>112.4</ele>
        <time>2020-06-08T14:06:24Z</time>
      </trkpt>
      <trkpt lat="48.28275" lon="-4.10696">
        <ele>112.5</ele>
        <time>2020-06-08T14:06:25Z</time>
      </trkpt>
      <trkpt lat="48.28276" lon="-4.10701">
        <ele>112.7</ele>
        <time>2020-06-08T14:06:26Z</time>
      </trkpt>
      <trkpt lat="48.28277" lon="-4.10705">
        <ele>113</ele>
        <time>2020-06-08T14:06:27Z</time>
      </trkpt>
      <trkpt lat="48.28278" lon="-4.10707">
        <ele>113.1</ele>
        <time>2020-06-08T14:06:28Z</time>
      </trkpt>
      <trkpt lat="48.2828" lon="-4.10711">
        <ele>113.4</ele>
        <time>2020-06-08T14:06:29Z</time>
      </trkpt>
      <trkpt lat="48.2828" lon="-4.10712">
        <ele>113.5</ele>
        <time>2020-06-08T14:06:30Z</time>
      </trkpt>
      <trkpt lat="48.28283" lon="-4.10717">
        <ele>113.8</ele>
        <time>2020-06-08T14:06:31Z</time>
      </trkpt>
      <trkpt lat="48.28284" lon="-4.10718">
        <ele>114</ele>
        <time>2020-06-08T14:06:32Z</time>
      </trkpt>
      <trkpt lat="48.28285" lon="-4.10722">
        <ele>114.3</ele>
        <time>2020-06-08T14:06:33Z</time>
      </trkpt>
      <trkpt lat="48.28286" lon="-4.10724">
        <ele>114.4</ele>
        <time>2020-06-08T14:06:34Z</time>
      </trkpt>
      <trkpt lat="48.28287" lon="-4.10728">
        <ele>114.6</ele>
        <time>2020-06-08T14:06:35Z</time>
      </trkpt>
      <trkpt lat="48.28288" lon="-4.10731">
        <ele>114.6</ele>
        <time>2020-06-08T14:06:36Z</time>
      </trkpt>
      <trkpt lat="48.28289" lon="-4.10733">
        <ele>114.7</ele>
        <time>2020-06-08T14:06:37Z</time>
      </trkpt>
      <trkpt lat="48.2829" lon="-4.10737">
        <ele>114.7</ele>
        <time>2020-06-08T14:06:38Z</time>
      </trkpt>
      <trkpt lat="48.2829" lon="-4.10739">
        <ele>114.8</ele>
        <time>2020-06-08T14:06:39Z</time>
      </trkpt>
      <trkpt lat="48.2829" lon="-4.10743">
        <ele>115.1</ele>
        <time>2020-06-08T14:06:40Z</time>
      </trkpt>
      <trkpt lat="48.2829" lon="-4.10745">
        <ele>115.1</ele>
        <time>2020-06-08T14:06:41Z</time>
      </trkpt>
      <trkpt lat="48.28291" lon="-4.10749">
        <ele>115.4</ele>
        <time>2020-06-08T14:06:42Z</time>
      </trkpt>
      <trkpt lat="48.28292" lon="-4.10751">
        <ele>115.5</ele>
        <time>2020-06-08T14:06:43Z</time>
      </trkpt>
      <trkpt lat="48.28292" lon="-4.10754">
        <ele>115.7</ele>
        <time>2020-06-08T14:06:44Z</time>
      </trkpt>
      <trkpt lat="48.28292" lon="-4.10756">
        <ele>115.8</ele>
        <time>2020-06-08T14:06:45Z</time>
      </trkpt>
      <trkpt lat="48.28293" lon="-4.1076">
        <ele>116.1</ele>
        <time>2020-06-08T14:06:46Z</time>
      </trkpt>
      <trkpt lat="48.28294" lon="-4.10762">
        <ele>116.1</ele>
        <time>2020-06-08T14:06:47Z</time>
      </trkpt>
      <trkpt lat="48.28294" lon="-4.10764">
        <ele>116.3</ele>
        <time>2020-06-08T14:06:48Z</time>
      </trkpt>
      <trkpt lat="48.28294" lon="-4.10766">
        <ele>116.4</ele>
        <time>2020-06-08T14:06:49Z</time>
      </trkpt>
      <trkpt lat="48.28295" lon="-4.1077">
        <ele>116.6</ele>
        <time>2020-06-08T14:06:50Z</time>
      </trkpt>
      <trkpt lat="48.28296" lon="-4.10775">
        <ele>116.9</ele>
        <time>2020-06-08T14:06:51Z</time>
      </trkpt>
      <trkpt lat="48.28296" lon="-4.10776">
        <ele>117</ele>
        <time>2020-06-08T14:06:52Z</time>
      </trkpt>
      <trkpt lat="48.28296" lon="-4.1078">
        <ele>117.2</ele>
        <time>2020-06-08T14:06:53Z</time>
      </trkpt>
      <trkpt lat="48.28296" lon="-4.10781">
        <ele>117.3</ele>
        <time>2020-06-08T14:06:54Z</time>
      </trkpt>
      <trkpt lat="48.28297" lon="-4.10785">
        <ele>117.6</ele>
        <time>2020-06-08T14:06:55Z</time>
      </trkpt>
      <trkpt lat="48.28297" lon="-4.10787">
        <ele>117.7</ele>
        <time>2020-06-08T14:06:56Z</time>
      </trkpt>
      <trkpt lat="48.28297" lon="-4.10792">
        <ele>118</ele>
        <time>2020-06-08T14:06:57Z</time>
      </trkpt>
      <trkpt lat="48.28297" lon="-4.10793">
        <ele>118.1</ele>
        <time>2020-06-08T14:06:58Z</time>
      </trkpt>
      <trkpt lat="48.28297" lon="-4.10797">
        <ele>118.3</ele>
        <time>2020-06-08T14:06:59Z</time>
      </trkpt>
      <trkpt lat="48.28298" lon="-4.10801">
        <ele>118.6</ele>
        <time>2020-06-08T14:07:00Z</time>
      </trkpt>
      <trkpt lat="48.28298" lon="-4.10804">
        <ele>118.8</ele>
        <time>2020-06-08T14:07:01Z</time>
      </trkpt>
      <trkpt lat="48.28299" lon="-4.10806">
        <ele>118.9</ele>
        <time>2020-06-08T14:07:02Z</time>
      </trkpt>
      <trkpt lat="48.28299" lon="-4.10811">
        <ele>119.2</ele>
        <time>2020-06-08T14:07:03Z</time>
      </trkpt>
      <trkpt lat="48.283" lon="-4.10815">
        <ele>119.4</ele>
        <time>2020-06-08T14:07:04Z</time>
      </trkpt>
      <trkpt lat="48.283" lon="-4.10817">
        <ele>119.5</ele>
        <time>2020-06-08T14:07:05Z</time>
      </trkpt>
      <trkpt lat="48.283" lon="-4.10819">
        <ele>119.6</ele>
        <time>2020-06-08T14:07:06Z</time>
      </trkpt>
      <trkpt lat="48.283" lon="-4.10822">
        <ele>119.8</ele>
        <time>2020-06-08T14:07:07Z</time>
      </trkpt>
      <trkpt lat="48.283" lon="-4.10827">
        <ele>120.1</ele>
        <time>2020-06-08T14:07:08Z</time>
      </trkpt>
      <trkpt lat="48.283" lon="-4.10829">
        <ele>120.2</ele>
        <time>2020-06-08T14:07:09Z</time>
      </trkpt>
      <trkpt lat="48.283" lon="-4.10833">
        <ele>120.4</ele>
        <time>2020-06-08T14:07:10Z</time>
      </trkpt>
      <trkpt lat="48.283" lon="-4.10836">
        <ele>120.6</ele>
        <time>2020-06-08T14:07:11Z</time>
      </trkpt>
      <trkpt lat="48.28299" lon="-4.10839">
        <ele>120.7</ele>
        <time>2020-06-08T14:07:12Z</time>
      </trkpt>
      <trkpt lat="48.28299" lon="-4.10841">
        <ele>120.8</ele>
        <time>2020-06-08T14:07:13Z</time>
      </trkpt>
      <trkpt lat="48.283" lon="-4.10846">
        <ele>121.1</ele>
        <time>2020-06-08T14:07:14Z</time>
      </trkpt>
      <trkpt lat="48.283" lon="-4.10848">
        <ele>121.2</ele>
        <time>2020-06-08T14:07:15Z</time>
      </trkpt>
      <trkpt lat="48.28301" lon="-4.10852">
        <ele>121.4</ele>
        <time>2020-06-08T14:07:16Z</time>
      </trkpt>
      <trkpt lat="48.28302" lon="-4.10857">
        <ele>121.6</ele>
        <time>2020-06-08T14:07:17Z</time>
      </trkpt>
      <trkpt lat="48.28302" lon="-4.1086">
        <ele>121.8</ele>
        <time>2020-06-08T14:07:18Z</time>
      </trkpt>
      <trkpt lat="48.28302" lon="-4.10862">
        <ele>121.9</ele>
        <time>2020-06-08T14:07:19Z</time>
      </trkpt>
      <trkpt lat="48.28304" lon="-4.10866">
        <ele>122.1</ele>
        <time>2020-06-08T14:07:20Z</time>
      </trkpt>
      <trkpt lat="48.28304" lon="-4.10868">
        <ele>122.2</ele>
        <time>2020-06-08T14:07:21Z</time>
      </trkpt>
      <trkpt lat="48.28305" lon="-4.10873">
        <ele>122.5</ele>
        <time>2020-06-08T14:07:22Z</time>
      </trkpt>
      <trkpt lat="48.28305" lon="-4.10876">
        <ele>122.6</ele>
        <time>2020-06-08T14:07:23Z</time>
      </trkpt>
      <trkpt lat="48.28306" lon="-4.1088">
        <ele>122.8</ele>
        <time>2020-06-08T14:07:24Z</time>
      </trkpt>
      <trkpt lat="48.28306" lon="-4.10882">
        <ele>122.9</ele>
        <time>2020-06-08T14:07:25Z</time>
      </trkpt>
      <trkpt lat="48.28308" lon="-4.10887">
        <ele>123.2</ele>
        <time>2020-06-08T14:07:26Z</time>
      </trkpt>
      <trkpt lat="48.28308" lon="-4.10889">
        <ele>123.3</ele>
        <time>2020-06-08T14:07:27Z</time>
      </trkpt>
      <trkpt lat="48.28309" lon="-4.10893">
        <ele>123.5</ele>
        <time>2020-06-08T14:07:28Z</time>
      </trkpt>
      <trkpt lat="48.28309" lon="-4.10895">
        <ele>123.6</ele>
        <time>2020-06-08T14:07:29Z</time>
      </trkpt>
      <trkpt lat="48.2831" lon="-4.10898">
        <ele>123.8</ele>
        <time>2020-06-08T14:07:30Z</time>
      </trkpt>
      <trkpt lat="48.2831" lon="-4.109">
        <ele>123.8</ele>
        <time>2020-06-08T14:07:31Z</time>
      </trkpt>
      <trkpt lat="48.28312" lon="-4.10904">
        <ele>124.1</ele>
        <time>2020-06-08T14:07:32Z</time>
      </trkpt>
      <trkpt lat="48.28312" lon="-4.10906">
        <ele>124.2</ele>
        <time>2020-06-08T14:07:33Z</time>
      </trkpt>
      <trkpt lat="48.28312" lon="-4.10909">
        <ele>124.3</ele>
        <time>2020-06-08T14:07:34Z</time>
      </trkpt>
      <trkpt lat="48.28312" lon="-4.10915">
        <ele>124.6</ele>
        <time>2020-06-08T14:07:35Z</time>
      </trkpt>
      <trkpt lat="48.28312" lon="-4.10917">
        <ele>124.6</ele>
        <time>2020-06-08T14:07:36Z</time>
      </trkpt>
      <trkpt lat="48.28313" lon="-4.10922">
        <ele>124.9</ele>
        <time>2020-06-08T14:07:37Z</time>
      </trkpt>
      <trkpt lat="48.28313" lon="-4.10924">
        <ele>125</ele>
        <time>2020-06-08T14:07:38Z</time>
      </trkpt>
      <trkpt lat="48.28313" lon="-4.10929">
        <ele>125.2</ele>
        <time>2020-06-08T14:07:39Z</time>
      </trkpt>
      <trkpt lat="48.28313" lon="-4.10931">
        <ele>125.3</ele>
        <time>2020-06-08T14:07:40Z</time>
      </trkpt>
      <trkpt lat="48.28313" lon="-4.10935">
        <ele>125.4</ele>
        <time>2020-06-08T14:07:41Z</time>
      </trkpt>
      <trkpt lat="48.28313" lon="-4.10937">
        <ele>125.5</ele>
        <time>2020-06-08T14:07:42Z</time>
      </trkpt>
      <trkpt lat="48.28314" lon="-4.10942">
        <ele>125.7</ele>
        <time>2020-06-08T14:07:43Z</time>
      </trkpt>
      <trkpt lat="48.28315" lon="-4.10944">
        <ele>125.8</ele>
        <time>2020-06-08T14:07:44Z</time>
      </trkpt>
      <trkpt lat="48.28315" lon="-4.10949">
        <ele>126</ele>
        <time>2020-06-08T14:07:45Z</time>
      </trkpt>
      <trkpt lat="48.28315" lon="-4.10951">
        <ele>126</ele>
        <time>2020-06-08T14:07:46Z</time>
      </trkpt>
      <trkpt lat="48.28316" lon="-4.10956">
        <ele>126.3</ele>
        <time>2020-06-08T14:07:47Z</time>
      </trkpt>
      <trkpt lat="48.28316" lon="-4.10959">
        <ele>126.3</ele>
        <time>2020-06-08T14:07:48Z</time>
      </trkpt>
      <trkpt lat="48.28317" lon="-4.10964">
        <ele>126.5</ele>
        <time>2020-06-08T14:07:49Z</time>
      </trkpt>
      <trkpt lat="48.28317" lon="-4.10968">
        <ele>126.7</ele>
        <time>2020-06-08T14:07:50Z</time>
      </trkpt>
      <trkpt lat="48.28317" lon="-4.10972">
        <ele>126.8</ele>
        <time>2020-06-08T14:07:51Z</time>
      </trkpt>
      <trkpt lat="48.28317" lon="-4.10974">
        <ele>126.9</ele>
        <time>2020-06-08T14:07:52Z</time>
      </trkpt>
      <trkpt lat="48.28317" lon="-4.10977">
        <ele>127</ele>
        <time>2020-06-08T14:07:53Z</time>
      </trkpt>
      <trkpt lat="48.28317" lon="-4.10982">
        <ele>127.2</ele>
        <time>2020-06-08T14:07:54Z</time>
      </trkpt>
      <trkpt lat="48.28317" lon="-4.10983">
        <ele>127.3</ele>
        <time>2020-06-08T14:07:55Z</time>
      </trkpt>
      <trkpt lat="48.28316" lon="-4.10986">
        <ele>127.4</ele>
        <time>2020-06-08T14:07:56Z</time>
      </trkpt>
      <trkpt lat="48.28317" lon="-4.10991">
        <ele>127.7</ele>
        <time>2020-06-08T14:07:57Z</time>
      </trkpt>
      <trkpt lat="48.28317" lon="-4.10994">
        <ele>127.8</ele>
        <time>2020-06-08T14:07:58Z</time>
      </trkpt>
      <trkpt lat="48.28318" lon="-4.10997">
        <ele>128</ele>
        <time>2020-06-08T14:07:59Z</time>
      </trkpt>
      <trkpt lat="48.28318" lon="-4.10999">
        <ele>128</ele>
        <time>2020-06-08T14:08:00Z</time>
      </trkpt>
      <trkpt lat="48.28318" lon="-4.11">
        <ele>128.1</ele>
        <time>2020-06-08T14:08:01Z</time>
      </trkpt>
      <trkpt lat="48.28319" lon="-4.11003">
        <ele>128.3</ele>
        <time>2020-06-08T14:08:02Z</time>
      </trkpt>
      <trkpt lat="48.28319" lon="-4.11004">
        <ele>128.3</ele>
        <time>2020-06-08T14:08:03Z</time>
      </trkpt>
      <trkpt lat="48.2832" lon="-4.11007">
        <ele>128.5</ele>
        <time>2020-06-08T14:08:04Z</time>
      </trkpt>
      <trkpt lat="48.2832" lon="-4.11009">
        <ele>128.6</ele>
        <time>2020-06-08T14:08:05Z</time>
      </trkpt>
      <trkpt lat="48.2832" lon="-4.11015">
        <ele>128.9</ele>
        <time>2020-06-08T14:08:06Z</time>
      </trkpt>
      <trkpt lat="48.28321" lon="-4.11018">
        <ele>129</ele>
        <time>2020-06-08T14:08:07Z</time>
      </trkpt>
      <trkpt lat="48.28321" lon="-4.11021">
        <ele>129.2</ele>
        <time>2020-06-08T14:08:08Z</time>
      </trkpt>
      <trkpt lat="48.28322" lon="-4.11023">
        <ele>129.3</ele>
        <time>2020-06-08T14:08:09Z</time>
      </trkpt>
      <trkpt lat="48.28323" lon="-4.11025">
        <ele>129.4</ele>
        <time>2020-06-08T14:08:10Z</time>
      </trkpt>
      <trkpt lat="48.28324" lon="-4.11026">
        <ele>129.5</ele>
        <time>2020-06-08T14:08:11Z</time>
      </trkpt>
      <trkpt lat="48.28326" lon="-4.11028">
        <ele>129.7</ele>
        <time>2020-06-08T14:08:12Z</time>
      </trkpt>
      <trkpt lat="48.28327" lon="-4.11029">
        <ele>129.8</ele>
        <time>2020-06-08T14:08:13Z</time>
      </trkpt>
      <trkpt lat="48.28329" lon="-4.11031">
        <ele>129.9</ele>
        <time>2020-06-08T14:08:14Z</time>
      </trkpt>
      <trkpt lat="48.2833" lon="-4.11031">
        <ele>130.1</ele>
        <time>2020-06-08T14:08:15Z</time>
      </trkpt>
      <trkpt lat="48.28331" lon="-4.11032">
        <ele>130.1</ele>
        <time>2020-06-08T14:08:16Z</time>
      </trkpt>
      <trkpt lat="48.28333" lon="-4.11035">
        <ele>130.3</ele>
        <time>2020-06-08T14:08:17Z</time>
      </trkpt>
      <trkpt lat="48.28334" lon="-4.11036">
        <ele>130.3</ele>
        <time>2020-06-08T14:08:18Z</time>
      </trkpt>
      <trkpt lat="48.28335" lon="-4.11041">
        <ele>130.5</ele>
        <time>2020-06-08T14:08:19Z</time>
      </trkpt>
      <trkpt lat="48.28336" lon="-4.11042">
        <ele>130.6</ele>
        <time>2020-06-08T14:08:20Z</time>
      </trkpt>
      <trkpt lat="48.28336" lon="-4.11045">
        <ele>130.7</ele>
        <time>2020-06-08T14:08:21Z</time>
      </trkpt>
      <trkpt lat="48.28335" lon="-4.11047">
        <ele>130.8</ele>
        <time>2020-06-08T14:08:22Z</time>
      </trkpt>
      <trkpt lat="48.28336" lon="-4.11051">
        <ele>130.9</ele>
        <time>2020-06-08T14:08:23Z</time>
      </trkpt>
      <trkpt lat="48.28335" lon="-4.11053">
        <ele>130.9</ele>
        <time>2020-06-08T14:08:24Z</time>
      </trkpt>
      <trkpt lat="48.28335" lon="-4.11055">
        <ele>131</ele>
        <time>2020-06-08T14:08:25Z</time>
      </trkpt>
      <trkpt lat="48.28335" lon="-4.11058">
        <ele>131.1</ele>
        <time>2020-06-08T14:08:26Z</time>
      </trkpt>
      <trkpt lat="48.28335" lon="-4.1106">
        <ele>131.2</ele>
        <time>2020-06-08T14:08:27Z</time>
      </trkpt>
      <trkpt lat="48.28335" lon="-4.11063">
        <ele>131.3</ele>
        <time>2020-06-08T14:08:28Z</time>
      </trkpt>
      <trkpt lat="48.28336" lon="-4.11068">
        <ele>131.4</ele>
        <time>2020-06-08T14:08:29Z</time>
      </trkpt>
      <trkpt lat="48.28336" lon="-4.11069">
        <ele>131.5</ele>
        <time>2020-06-08T14:08:30Z</time>
      </trkpt>
      <trkpt lat="48.28337" lon="-4.11074">
        <ele>131.6</ele>
        <time>2020-06-08T14:08:31Z</time>
      </trkpt>
      <trkpt lat="48.28337" lon="-4.11076">
        <ele>131.7</ele>
        <time>2020-06-08T14:08:32Z</time>
      </trkpt>
      <trkpt lat="48.28338" lon="-4.11081">
        <ele>131.9</ele>
        <time>2020-06-08T14:08:33Z</time>
      </trkpt>
      <trkpt lat="48.28339" lon="-4.11084">
        <ele>132</ele>
        <time>2020-06-08T14:08:34Z</time>
      </trkpt>
      <trkpt lat="48.28339" lon="-4.11089">
        <ele>132.2</ele>
        <time>2020-06-08T14:08:35Z</time>
      </trkpt>
      <trkpt lat="48.28339" lon="-4.1109">
        <ele>132.2</ele>
        <time>2020-06-08T14:08:36Z</time>
      </trkpt>
      <trkpt lat="48.28339" lon="-4.11095">
        <ele>132.4</ele>
        <time>2020-06-08T14:08:37Z</time>
      </trkpt>
      <trkpt lat="48.28339" lon="-4.11098">
        <ele>132.5</ele>
        <time>2020-06-08T14:08:38Z</time>
      </trkpt>
      <trkpt lat="48.2834" lon="-4.11102">
        <ele>132.7</ele>
        <time>2020-06-08T14:08:39Z</time>
      </trkpt>
      <trkpt lat="48.2834" lon="-4.11104">
        <ele>132.7</ele>
        <time>2020-06-08T14:08:40Z</time>
      </trkpt>
      <trkpt lat="48.2834" lon="-4.11109">
        <ele>132.9</ele>
        <time>2020-06-08T14:08:41Z</time>
      </trkpt>
      <trkpt lat="48.2834" lon="-4.1111">
        <ele>133</ele>
        <time>2020-06-08T14:08:42Z</time>
      </trkpt>
      <trkpt lat="48.28341" lon="-4.11115">
        <ele>133.1</ele>
        <time>2020-06-08T14:08:43Z</time>
      </trkpt>
      <trkpt lat="48.28341" lon="-4.11116">
        <ele>133.2</ele>
        <time>2020-06-08T14:08:44Z</time>
      </trkpt>
      <trkpt lat="48.28342" lon="-4.11122">
        <ele>133.4</ele>
        <time>2020-06-08T14:08:45Z</time>
      </trkpt>
      <trkpt lat="48.28342" lon="-4.11124">
        <ele>133.5</ele>
        <time>2020-06-08T14:08:46Z</time>
      </trkpt>
      <trkpt lat="48.28342" lon="-4.11129">
        <ele>133.7</ele>
        <time>2020-06-08T14:08:47Z</time>
      </trkpt>
      <trkpt lat="48.28342" lon="-4.1113">
        <ele>133.7</ele>
        <time>2020-06-08T14:08:48Z</time>
      </trkpt>
      <trkpt lat="48.28343" lon="-4.11136">
        <ele>133.9</ele>
        <time>2020-06-08T14:08:49Z</time>
      </trkpt>
      <trkpt lat="48.28343" lon="-4.11138">
        <ele>134</ele>
        <time>2020-06-08T14:08:50Z</time>
      </trkpt>
      <trkpt lat="48.28344" lon="-4.11142">
        <ele>134.1</ele>
        <time>2020-06-08T14:08:51Z</time>
      </trkpt>
      <trkpt lat="48.28344" lon="-4.11144">
        <ele>134.2</ele>
        <time>2020-06-08T14:08:52Z</time>
      </trkpt>
      <trkpt lat="48.28344" lon="-4.11148">
        <ele>134.4</ele>
        <time>2020-06-08T14:08:53Z</time>
      </trkpt>
      <trkpt lat="48.28344" lon="-4.11153">
        <ele>134.5</ele>
        <time>2020-06-08T14:08:54Z</time>
      </trkpt>
      <trkpt lat="48.28345" lon="-4.11157">
        <ele>134.6</ele>
        <time>2020-06-08T14:08:55Z</time>
      </trkpt>
      <trkpt lat="48.28347" lon="-4.11161">
        <ele>134.8</ele>
        <time>2020-06-08T14:08:56Z</time>
      </trkpt>
      <trkpt lat="48.28347" lon="-4.11163">
        <ele>134.9</ele>
        <time>2020-06-08T14:08:57Z</time>
      </trkpt>
      <trkpt lat="48.28349" lon="-4.11167">
        <ele>135</ele>
        <time>2020-06-08T14:08:58Z</time>
      </trkpt>
      <trkpt lat="48.2835" lon="-4.11169">
        <ele>135.1</ele>
        <time>2020-06-08T14:08:59Z</time>
      </trkpt>
      <trkpt lat="48.28351" lon="-4.11174">
        <ele>135.2</ele>
        <time>2020-06-08T14:09:00Z</time>
      </trkpt>
      <trkpt lat="48.28351" lon="-4.11175">
        <ele>135.3</ele>
        <time>2020-06-08T14:09:01Z</time>
      </trkpt>
      <trkpt lat="48.28352" lon="-4.11179">
        <ele>135.4</ele>
        <time>2020-06-08T14:09:02Z</time>
      </trkpt>
      <trkpt lat="48.28352" lon="-4.11185">
        <ele>135.6</ele>
        <time>2020-06-08T14:09:03Z</time>
      </trkpt>
      <trkpt lat="48.28353" lon="-4.11187">
        <ele>135.7</ele>
        <time>2020-06-08T14:09:04Z</time>
      </trkpt>
      <trkpt lat="48.28353" lon="-4.11192">
        <ele>135.9</ele>
        <time>2020-06-08T14:09:05Z</time>
      </trkpt>
      <trkpt lat="48.28354" lon="-4.11197">
        <ele>136.1</ele>
        <time>2020-06-08T14:09:06Z</time>
      </trkpt>
      <trkpt lat="48.28354" lon="-4.11199">
        <ele>136.1</ele>
        <time>2020-06-08T14:09:07Z</time>
      </trkpt>
      <trkpt lat="48.28354" lon="-4.11204">
        <ele>136.3</ele>
        <time>2020-06-08T14:09:08Z</time>
      </trkpt>
      <trkpt lat="48.28355" lon="-4.11206">
        <ele>136.4</ele>
        <time>2020-06-08T14:09:09Z</time>
      </trkpt>
      <trkpt lat="48.28355" lon="-4.11212">
        <ele>136.6</ele>
        <time>2020-06-08T14:09:10Z</time>
      </trkpt>
      <trkpt lat="48.28356" lon="-4.11213">
        <ele>136.6</ele>
        <time>2020-06-08T14:09:11Z</time>
      </trkpt>
      <trkpt lat="48.28355" lon="-4.11218">
        <ele>136.8</ele>
        <time>2020-06-08T14:09:12Z</time>
      </trkpt>
      <trkpt lat="48.28355" lon="-4.11219">
        <ele>136.8</ele>
        <time>2020-06-08T14:09:13Z</time>
      </trkpt>
      <trkpt lat="48.28355" lon="-4.11225">
        <ele>137</ele>
        <time>2020-06-08T14:09:14Z</time>
      </trkpt>
      <trkpt lat="48.28355" lon="-4.11227">
        <ele>137.1</ele>
        <time>2020-06-08T14:09:15Z</time>
      </trkpt>
      <trkpt lat="48.28356" lon="-4.11232">
        <ele>137.3</ele>
        <time>2020-06-08T14:09:16Z</time>
      </trkpt>
      <trkpt lat="48.28356" lon="-4.11237">
        <ele>137.4</ele>
        <time>2020-06-08T14:09:17Z</time>
      </trkpt>
      <trkpt lat="48.28357" lon="-4.11242">
        <ele>137.6</ele>
        <time>2020-06-08T14:09:18Z</time>
      </trkpt>
      <trkpt lat="48.28357" lon="-4.11243">
        <ele>137.7</ele>
        <time>2020-06-08T14:09:19Z</time>
      </trkpt>
      <trkpt lat="48.28357" lon="-4.11248">
        <ele>137.8</ele>
        <time>2020-06-08T14:09:20Z</time>
      </trkpt>
      <trkpt lat="48.28357" lon="-4.1125">
        <ele>137.9</ele>
        <time>2020-06-08T14:09:21Z</time>
      </trkpt>
      <trkpt lat="48.28358" lon="-4.11255">
        <ele>138</ele>
        <time>2020-06-08T14:09:22Z</time>
      </trkpt>
      <trkpt lat="48.28359" lon="-4.11257">
        <ele>138.1</ele>
        <time>2020-06-08T14:09:23Z</time>
      </trkpt>
      <trkpt lat="48.2836" lon="-4.11262">
        <ele>138.3</ele>
        <time>2020-06-08T14:09:24Z</time>
      </trkpt>
      <trkpt lat="48.28361" lon="-4.11264">
        <ele>138.4</ele>
        <time>2020-06-08T14:09:25Z</time>
      </trkpt>
      <trkpt lat="48.28361" lon="-4.11268">
        <ele>138.5</ele>
        <time>2020-06-08T14:09:26Z</time>
      </trkpt>
      <trkpt lat="48.28362" lon="-4.11274">
        <ele>138.7</ele>
        <time>2020-06-08T14:09:27Z</time>
      </trkpt>
      <trkpt lat="48.28362" lon="-4.11276">
        <ele>138.7</ele>
        <time>2020-06-08T14:09:28Z</time>
      </trkpt>
      <trkpt lat="48.28362" lon="-4.11282">
        <ele>138.9</ele>
        <time>2020-06-08T14:09:29Z</time>
      </trkpt>
      <trkpt lat="48.28362" lon="-4.11284">
        <ele>139</ele>
        <time>2020-06-08T14:09:30Z</time>
      </trkpt>
      <trkpt lat="48.28362" lon="-4.1129">
        <ele>139.2</ele>
        <time>2020-06-08T14:09:31Z</time>
      </trkpt>
      <trkpt lat="48.28362" lon="-4.11292">
        <ele>139.2</ele>
        <time>2020-06-08T14:09:32Z</time>
      </trkpt>
      <trkpt lat="48.28362" lon="-4.11297">
        <ele>139.4</ele>
        <time>2020-06-08T14:09:33Z</time>
      </trkpt>
      <trkpt lat="48.28363" lon="-4.11299">
        <ele>139.1</ele>
        <time>2020-06-08T14:09:34Z</time>
      </trkpt>
      <trkpt lat="48.28364" lon="-4.11303">
        <ele>139.2</ele>
        <time>2020-06-08T14:09:35Z</time>
      </trkpt>
      <trkpt lat="48.28365" lon="-4.11305">
        <ele>139.3</ele>
        <time>2020-06-08T14:09:36Z</time>
      </trkpt>
      <trkpt lat="48.28365" lon="-4.1131">
        <ele>139.4</ele>
        <time>2020-06-08T14:09:37Z</time>
      </trkpt>
      <trkpt lat="48.28366" lon="-4.11315">
        <ele>139.5</ele>
        <time>2020-06-08T14:09:38Z</time>
      </trkpt>
      <trkpt lat="48.28367" lon="-4.11321">
        <ele>139.7</ele>
        <time>2020-06-08T14:09:39Z</time>
      </trkpt>
      <trkpt lat="48.28368" lon="-4.11324">
        <ele>139.8</ele>
        <time>2020-06-08T14:09:40Z</time>
      </trkpt>
      <trkpt lat="48.28368" lon="-4.11328">
        <ele>139.9</ele>
        <time>2020-06-08T14:09:41Z</time>
      </trkpt>
      <trkpt lat="48.28369" lon="-4.1133">
        <ele>140</ele>
        <time>2020-06-08T14:09:42Z</time>
      </trkpt>
      <trkpt lat="48.28369" lon="-4.11334">
        <ele>140.1</ele>
        <time>2020-06-08T14:09:43Z</time>
      </trkpt>
      <trkpt lat="48.2837" lon="-4.11338">
        <ele>140.2</ele>
        <time>2020-06-08T14:09:44Z</time>
      </trkpt>
      <trkpt lat="48.2837" lon="-4.1134">
        <ele>140.3</ele>
        <time>2020-06-08T14:09:45Z</time>
      </trkpt>
      <trkpt lat="48.28371" lon="-4.11346">
        <ele>140.4</ele>
        <time>2020-06-08T14:09:46Z</time>
      </trkpt>
      <trkpt lat="48.28372" lon="-4.11347">
        <ele>140.5</ele>
        <time>2020-06-08T14:09:47Z</time>
      </trkpt>
      <trkpt lat="48.28372" lon="-4.11353">
        <ele>140.6</ele>
        <time>2020-06-08T14:09:48Z</time>
      </trkpt>
      <trkpt lat="48.28372" lon="-4.11359">
        <ele>140.8</ele>
        <time>2020-06-08T14:09:50Z</time>
      </trkpt>
      <trkpt lat="48.28373" lon="-4.11365">
        <ele>141</ele>
        <time>2020-06-08T14:09:51Z</time>
      </trkpt>
      <trkpt lat="48.28373" lon="-4.11367">
        <ele>141.1</ele>
        <time>2020-06-08T14:09:52Z</time>
      </trkpt>
      <trkpt lat="48.28373" lon="-4.11372">
        <ele>141.2</ele>
        <time>2020-06-08T14:09:53Z</time>
      </trkpt>
      <trkpt lat="48.28374" lon="-4.11376">
        <ele>141.3</ele>
        <time>2020-06-08T14:09:54Z</time>
      </trkpt>
      <trkpt lat="48.28374" lon="-4.11382">
        <ele>141.4</ele>
        <time>2020-06-08T14:09:55Z</time>
      </trkpt>
      <trkpt lat="48.28374" lon="-4.11384">
        <ele>141.5</ele>
        <time>2020-06-08T14:09:56Z</time>
      </trkpt>
      <trkpt lat="48.28375" lon="-4.1139">
        <ele>141.6</ele>
        <time>2020-06-08T14:09:57Z</time>
      </trkpt>
      <trkpt lat="48.28376" lon="-4.11392">
        <ele>141.7</ele>
        <time>2020-06-08T14:09:58Z</time>
      </trkpt>
      <trkpt lat="48.28377" lon="-4.11396">
        <ele>141.8</ele>
        <time>2020-06-08T14:09:59Z</time>
      </trkpt>
      <trkpt lat="48.28378" lon="-4.11402">
        <ele>142</ele>
        <time>2020-06-08T14:10:00Z</time>
      </trkpt>
      <trkpt lat="48.28378" lon="-4.11407">
        <ele>142.1</ele>
        <time>2020-06-08T14:10:01Z</time>
      </trkpt>
      <trkpt lat="48.28378" lon="-4.11412">
        <ele>142.2</ele>
        <time>2020-06-08T14:10:02Z</time>
      </trkpt>
      <trkpt lat="48.28379" lon="-4.11418">
        <ele>142.4</ele>
        <time>2020-06-08T14:10:03Z</time>
      </trkpt>
      <trkpt lat="48.2838" lon="-4.11421">
        <ele>142.4</ele>
        <time>2020-06-08T14:10:04Z</time>
      </trkpt>
      <trkpt lat="48.2838" lon="-4.11425">
        <ele>142.5</ele>
        <time>2020-06-08T14:10:05Z</time>
      </trkpt>
      <trkpt lat="48.28381" lon="-4.1143">
        <ele>142.7</ele>
        <time>2020-06-08T14:10:06Z</time>
      </trkpt>
      <trkpt lat="48.28382" lon="-4.11435">
        <ele>142.8</ele>
        <time>2020-06-08T14:10:07Z</time>
      </trkpt>
      <trkpt lat="48.28382" lon="-4.11439">
        <ele>142.9</ele>
        <time>2020-06-08T14:10:08Z</time>
      </trkpt>
      <trkpt lat="48.28383" lon="-4.11444">
        <ele>143</ele>
        <time>2020-06-08T14:10:09Z</time>
      </trkpt>
      <trkpt lat="48.28384" lon="-4.11447">
        <ele>143.1</ele>
        <time>2020-06-08T14:10:10Z</time>
      </trkpt>
      <trkpt lat="48.28384" lon="-4.11451">
        <ele>143.2</ele>
        <time>2020-06-08T14:10:11Z</time>
      </trkpt>
      <trkpt lat="48.28385" lon="-4.11457">
        <ele>143.4</ele>
        <time>2020-06-08T14:10:12Z</time>
      </trkpt>
      <trkpt lat="48.28385" lon="-4.11459">
        <ele>143.5</ele>
        <time>2020-06-08T14:10:13Z</time>
      </trkpt>
      <trkpt lat="48.28386" lon="-4.11464">
        <ele>143.6</ele>
        <time>2020-06-08T14:10:14Z</time>
      </trkpt>
      <trkpt lat="48.28386" lon="-4.11468">
        <ele>143.7</ele>
        <time>2020-06-08T14:10:15Z</time>
      </trkpt>
      <trkpt lat="48.28387" lon="-4.11472">
        <ele>143.8</ele>
        <time>2020-06-08T14:10:16Z</time>
      </trkpt>
      <trkpt lat="48.28387" lon="-4.11478">
        <ele>143.9</ele>
        <time>2020-06-08T14:10:17Z</time>
      </trkpt>
      <trkpt lat="48.28388" lon="-4.1148">
        <ele>144</ele>
        <time>2020-06-08T14:10:18Z</time>
      </trkpt>
      <trkpt lat="48.28388" lon="-4.11484">
        <ele>144.1</ele>
        <time>2020-06-08T14:10:19Z</time>
      </trkpt>
      <trkpt lat="48.28388" lon="-4.11485">
        <ele>144.1</ele>
        <time>2020-06-08T14:10:20Z</time>
      </trkpt>
      <trkpt lat="48.28388" lon="-4.11492">
        <ele>144.3</ele>
        <time>2020-06-08T14:10:21Z</time>
      </trkpt>
      <trkpt lat="48.28389" lon="-4.11497">
        <ele>144.5</ele>
        <time>2020-06-08T14:10:22Z</time>
      </trkpt>
      <trkpt lat="48.28389" lon="-4.11499">
        <ele>144.5</ele>
        <time>2020-06-08T14:10:23Z</time>
      </trkpt>
      <trkpt lat="48.2839" lon="-4.11504">
        <ele>144.7</ele>
        <time>2020-06-08T14:10:24Z</time>
      </trkpt>
      <trkpt lat="48.2839" lon="-4.11506">
        <ele>144.7</ele>
        <time>2020-06-08T14:10:25Z</time>
      </trkpt>
      <trkpt lat="48.28391" lon="-4.11512">
        <ele>144.9</ele>
        <time>2020-06-08T14:10:26Z</time>
      </trkpt>
      <trkpt lat="48.28392" lon="-4.11518">
        <ele>145</ele>
        <time>2020-06-08T14:10:27Z</time>
      </trkpt>
      <trkpt lat="48.28392" lon="-4.11523">
        <ele>145.2</ele>
        <time>2020-06-08T14:10:28Z</time>
      </trkpt>
      <trkpt lat="48.28393" lon="-4.11529">
        <ele>145.3</ele>
        <time>2020-06-08T14:10:29Z</time>
      </trkpt>
      <trkpt lat="48.28393" lon="-4.11531">
        <ele>145.4</ele>
        <time>2020-06-08T14:10:30Z</time>
      </trkpt>
      <trkpt lat="48.28394" lon="-4.11536">
        <ele>145.5</ele>
        <time>2020-06-08T14:10:31Z</time>
      </trkpt>
      <trkpt lat="48.28394" lon="-4.11541">
        <ele>145.7</ele>
        <time>2020-06-08T14:10:32Z</time>
      </trkpt>
      <trkpt lat="48.28394" lon="-4.11546">
        <ele>145.8</ele>
        <time>2020-06-08T14:10:33Z</time>
      </trkpt>
      <trkpt lat="48.28395" lon="-4.11551">
        <ele>145.9</ele>
        <time>2020-06-08T14:10:34Z</time>
      </trkpt>
      <trkpt lat="48.28396" lon="-4.11555">
        <ele>146.1</ele>
        <time>2020-06-08T14:10:35Z</time>
      </trkpt>
      <trkpt lat="48.28396" lon="-4.11561">
        <ele>146.2</ele>
        <time>2020-06-08T14:10:36Z</time>
      </trkpt>
      <trkpt lat="48.28396" lon="-4.11563">
        <ele>146.3</ele>
        <time>2020-06-08T14:10:37Z</time>
      </trkpt>
      <trkpt lat="48.28397" lon="-4.11569">
        <ele>146.5</ele>
        <time>2020-06-08T14:10:38Z</time>
      </trkpt>
      <trkpt lat="48.28397" lon="-4.1157">
        <ele>146.5</ele>
        <time>2020-06-08T14:10:39Z</time>
      </trkpt>
      <trkpt lat="48.28398" lon="-4.11575">
        <ele>146.7</ele>
        <time>2020-06-08T14:10:40Z</time>
      </trkpt>
      <trkpt lat="48.28399" lon="-4.1158">
        <ele>146.8</ele>
        <time>2020-06-08T14:10:41Z</time>
      </trkpt>
      <trkpt lat="48.28399" lon="-4.11586">
        <ele>147</ele>
        <time>2020-06-08T14:10:42Z</time>
      </trkpt>
      <trkpt lat="48.28399" lon="-4.11587">
        <ele>147</ele>
        <time>2020-06-08T14:10:43Z</time>
      </trkpt>
      <trkpt lat="48.284" lon="-4.11592">
        <ele>147.2</ele>
        <time>2020-06-08T14:10:44Z</time>
      </trkpt>
      <trkpt lat="48.28401" lon="-4.11594">
        <ele>147.2</ele>
        <time>2020-06-08T14:10:45Z</time>
      </trkpt>
      <trkpt lat="48.28402" lon="-4.11599">
        <ele>147.4</ele>
        <time>2020-06-08T14:10:46Z</time>
      </trkpt>
      <trkpt lat="48.28404" lon="-4.11604">
        <ele>147.5</ele>
        <time>2020-06-08T14:10:47Z</time>
      </trkpt>
      <trkpt lat="48.28404" lon="-4.11609">
        <ele>147.7</ele>
        <time>2020-06-08T14:10:48Z</time>
      </trkpt>
      <trkpt lat="48.28405" lon="-4.11615">
        <ele>147.8</ele>
        <time>2020-06-08T14:10:49Z</time>
      </trkpt>
      <trkpt lat="48.28406" lon="-4.11619">
        <ele>148</ele>
        <time>2020-06-08T14:10:50Z</time>
      </trkpt>
      <trkpt lat="48.28407" lon="-4.11623">
        <ele>148.1</ele>
        <time>2020-06-08T14:10:51Z</time>
      </trkpt>
      <trkpt lat="48.28407" lon="-4.11627">
        <ele>148.2</ele>
        <time>2020-06-08T14:10:52Z</time>
      </trkpt>
      <trkpt lat="48.28408" lon="-4.11633">
        <ele>148.4</ele>
        <time>2020-06-08T14:10:53Z</time>
      </trkpt>
      <trkpt lat="48.28409" lon="-4.11636">
        <ele>148.4</ele>
        <time>2020-06-08T14:10:54Z</time>
      </trkpt>
      <trkpt lat="48.28408" lon="-4.1164">
        <ele>148.6</ele>
        <time>2020-06-08T14:10:55Z</time>
      </trkpt>
      <trkpt lat="48.28409" lon="-4.11645">
        <ele>148.7</ele>
        <time>2020-06-08T14:10:56Z</time>
      </trkpt>
      <trkpt lat="48.28409" lon="-4.11648">
        <ele>148.8</ele>
        <time>2020-06-08T14:10:57Z</time>
      </trkpt>
      <trkpt lat="48.2841" lon="-4.11653">
        <ele>149</ele>
        <time>2020-06-08T14:10:58Z</time>
      </trkpt>
      <trkpt lat="48.2841" lon="-4.11656">
        <ele>149</ele>
        <time>2020-06-08T14:10:59Z</time>
      </trkpt>
      <trkpt lat="48.28411" lon="-4.11663">
        <ele>149.2</ele>
        <time>2020-06-08T14:11:00Z</time>
      </trkpt>
      <trkpt lat="48.28411" lon="-4.11666">
        <ele>149.3</ele>
        <time>2020-06-08T14:11:01Z</time>
      </trkpt>
      <trkpt lat="48.28412" lon="-4.1167">
        <ele>149.4</ele>
        <time>2020-06-08T14:11:02Z</time>
      </trkpt>
      <trkpt lat="48.28412" lon="-4.11676">
        <ele>149.6</ele>
        <time>2020-06-08T14:11:03Z</time>
      </trkpt>
      <trkpt lat="48.28413" lon="-4.1168">
        <ele>149.7</ele>
        <time>2020-06-08T14:11:04Z</time>
      </trkpt>
      <trkpt lat="48.28414" lon="-4.11685">
        <ele>149.9</ele>
        <time>2020-06-08T14:11:05Z</time>
      </trkpt>
      <trkpt lat="48.28415" lon="-4.1169">
        <ele>150.1</ele>
        <time>2020-06-08T14:11:06Z</time>
      </trkpt>
      <trkpt lat="48.28416" lon="-4.11696">
        <ele>150.3</ele>
        <time>2020-06-08T14:11:07Z</time>
      </trkpt>
      <trkpt lat="48.28416" lon="-4.11698">
        <ele>150.3</ele>
        <time>2020-06-08T14:11:08Z</time>
      </trkpt>
      <trkpt lat="48.28417" lon="-4.11704">
        <ele>150.5</ele>
        <time>2020-06-08T14:11:09Z</time>
      </trkpt>
      <trkpt lat="48.28417" lon="-4.1171">
        <ele>150.7</ele>
        <time>2020-06-08T14:11:10Z</time>
      </trkpt>
      <trkpt lat="48.28417" lon="-4.11711">
        <ele>150.8</ele>
        <time>2020-06-08T14:11:11Z</time>
      </trkpt>
      <trkpt lat="48.28418" lon="-4.11716">
        <ele>150.9</ele>
        <time>2020-06-08T14:11:12Z</time>
      </trkpt>
      <trkpt lat="48.28417" lon="-4.11721">
        <ele>151.1</ele>
        <time>2020-06-08T14:11:13Z</time>
      </trkpt>
      <trkpt lat="48.28417" lon="-4.11726">
        <ele>151.2</ele>
        <time>2020-06-08T14:11:14Z</time>
      </trkpt>
      <trkpt lat="48.28417" lon="-4.11728">
        <ele>151.3</ele>
        <time>2020-06-08T14:11:15Z</time>
      </trkpt>
      <trkpt lat="48.28418" lon="-4.11734">
        <ele>151.5</ele>
        <time>2020-06-08T14:11:16Z</time>
      </trkpt>
      <trkpt lat="48.28419" lon="-4.11736">
        <ele>151.6</ele>
        <time>2020-06-08T14:11:17Z</time>
      </trkpt>
      <trkpt lat="48.2842" lon="-4.11741">
        <ele>151.7</ele>
        <time>2020-06-08T14:11:18Z</time>
      </trkpt>
      <trkpt lat="48.28421" lon="-4.11746">
        <ele>151.9</ele>
        <time>2020-06-08T14:11:19Z</time>
      </trkpt>
      <trkpt lat="48.28422" lon="-4.11751">
        <ele>152.1</ele>
        <time>2020-06-08T14:11:20Z</time>
      </trkpt>
      <trkpt lat="48.28422" lon="-4.11753">
        <ele>152.2</ele>
        <time>2020-06-08T14:11:21Z</time>
      </trkpt>
      <trkpt lat="48.28423" lon="-4.11758">
        <ele>152.3</ele>
        <time>2020-06-08T14:11:22Z</time>
      </trkpt>
      <trkpt lat="48.28423" lon="-4.11764">
        <ele>152.5</ele>
        <time>2020-06-08T14:11:23Z</time>
      </trkpt>
      <trkpt lat="48.28424" lon="-4.11768">
        <ele>152.6</ele>
        <time>2020-06-08T14:11:24Z</time>
      </trkpt>
      <trkpt lat="48.28425" lon="-4.11772">
        <ele>152.7</ele>
        <time>2020-06-08T14:11:25Z</time>
      </trkpt>
      <trkpt lat="48.28424" lon="-4.11777">
        <ele>152.9</ele>
        <time>2020-06-08T14:11:26Z</time>
      </trkpt>
      <trkpt lat="48.28426" lon="-4.11782">
        <ele>153.1</ele>
        <time>2020-06-08T14:11:27Z</time>
      </trkpt>
      <trkpt lat="48.28426" lon="-4.11784">
        <ele>153.1</ele>
        <time>2020-06-08T14:11:28Z</time>
      </trkpt>
      <trkpt lat="48.28427" lon="-4.11788">
        <ele>153.2</ele>
        <time>2020-06-08T14:11:29Z</time>
      </trkpt>
      <trkpt lat="48.28428" lon="-4.11794">
        <ele>153.4</ele>
        <time>2020-06-08T14:11:30Z</time>
      </trkpt>
      <trkpt lat="48.28428" lon="-4.11797">
        <ele>153.5</ele>
        <time>2020-06-08T14:11:31Z</time>
      </trkpt>
      <trkpt lat="48.28428" lon="-4.11802">
        <ele>153.7</ele>
        <time>2020-06-08T14:11:32Z</time>
      </trkpt>
      <trkpt lat="48.2843" lon="-4.11806">
        <ele>153.8</ele>
        <time>2020-06-08T14:11:33Z</time>
      </trkpt>
      <trkpt lat="48.2843" lon="-4.11812">
        <ele>154</ele>
        <time>2020-06-08T14:11:34Z</time>
      </trkpt>
      <trkpt lat="48.2843" lon="-4.11814">
        <ele>154.1</ele>
        <time>2020-06-08T14:11:35Z</time>
      </trkpt>
      <trkpt lat="48.2843" lon="-4.1182">
        <ele>154.3</ele>
        <time>2020-06-08T14:11:36Z</time>
      </trkpt>
      <trkpt lat="48.28431" lon="-4.11825">
        <ele>154.4</ele>
        <time>2020-06-08T14:11:37Z</time>
      </trkpt>
      <trkpt lat="48.28431" lon="-4.11829">
        <ele>154.6</ele>
        <time>2020-06-08T14:11:38Z</time>
      </trkpt>
      <trkpt lat="48.28431" lon="-4.11834">
        <ele>154.7</ele>
        <time>2020-06-08T14:11:39Z</time>
      </trkpt>
      <trkpt lat="48.28432" lon="-4.11838">
        <ele>154.9</ele>
        <time>2020-06-08T14:11:40Z</time>
      </trkpt>
      <trkpt lat="48.28433" lon="-4.11844">
        <ele>155.1</ele>
        <time>2020-06-08T14:11:41Z</time>
      </trkpt>
      <trkpt lat="48.28433" lon="-4.11846">
        <ele>155.2</ele>
        <time>2020-06-08T14:11:42Z</time>
      </trkpt>
      <trkpt lat="48.28433" lon="-4.11851">
        <ele>155.4</ele>
        <time>2020-06-08T14:11:43Z</time>
      </trkpt>
      <trkpt lat="48.28434" lon="-4.11857">
        <ele>155.5</ele>
        <time>2020-06-08T14:11:44Z</time>
      </trkpt>
      <trkpt lat="48.28434" lon="-4.11862">
        <ele>155.7</ele>
        <time>2020-06-08T14:11:45Z</time>
      </trkpt>
      <trkpt lat="48.28435" lon="-4.11866">
        <ele>155.9</ele>
        <time>2020-06-08T14:11:46Z</time>
      </trkpt>
      <trkpt lat="48.28435" lon="-4.11871">
        <ele>156</ele>
        <time>2020-06-08T14:11:47Z</time>
      </trkpt>
      <trkpt lat="48.28436" lon="-4.11873">
        <ele>156.1</ele>
        <time>2020-06-08T14:11:48Z</time>
      </trkpt>
      <trkpt lat="48.28436" lon="-4.11877">
        <ele>156.2</ele>
        <time>2020-06-08T14:11:49Z</time>
      </trkpt>
      <trkpt lat="48.28437" lon="-4.11883">
        <ele>156.4</ele>
        <time>2020-06-08T14:11:50Z</time>
      </trkpt>
      <trkpt lat="48.28438" lon="-4.11885">
        <ele>156.5</ele>
        <time>2020-06-08T14:11:51Z</time>
      </trkpt>
      <trkpt lat="48.28438" lon="-4.11889">
        <ele>156.6</ele>
        <time>2020-06-08T14:11:52Z</time>
      </trkpt>
      <trkpt lat="48.28439" lon="-4.11897">
        <ele>156.9</ele>
        <time>2020-06-08T14:11:53Z</time>
      </trkpt>
      <trkpt lat="48.28438" lon="-4.11899">
        <ele>157</ele>
        <time>2020-06-08T14:11:54Z</time>
      </trkpt>
      <trkpt lat="48.28439" lon="-4.11901">
        <ele>157.1</ele>
        <time>2020-06-08T14:11:55Z</time>
      </trkpt>
      <trkpt lat="48.28439" lon="-4.11906">
        <ele>157.2</ele>
        <time>2020-06-08T14:11:56Z</time>
      </trkpt>
      <trkpt lat="48.2844" lon="-4.11911">
        <ele>157.4</ele>
        <time>2020-06-08T14:11:57Z</time>
      </trkpt>
      <trkpt lat="48.28441" lon="-4.11915">
        <ele>157.5</ele>
        <time>2020-06-08T14:11:58Z</time>
      </trkpt>
      <trkpt lat="48.28442" lon="-4.1192">
        <ele>157.7</ele>
        <time>2020-06-08T14:11:59Z</time>
      </trkpt>
      <trkpt lat="48.28443" lon="-4.11925">
        <ele>157.9</ele>
        <time>2020-06-08T14:12:00Z</time>
      </trkpt>
      <trkpt lat="48.28443" lon="-4.11927">
        <ele>158</ele>
        <time>2020-06-08T14:12:01Z</time>
      </trkpt>
      <trkpt lat="48.28443" lon="-4.11934">
        <ele>158.2</ele>
        <time>2020-06-08T14:12:02Z</time>
      </trkpt>
      <trkpt lat="48.28443" lon="-4.11936">
        <ele>158.3</ele>
        <time>2020-06-08T14:12:03Z</time>
      </trkpt>
      <trkpt lat="48.28444" lon="-4.11943">
        <ele>158.5</ele>
        <time>2020-06-08T14:12:04Z</time>
      </trkpt>
      <trkpt lat="48.28444" lon="-4.11945">
        <ele>158.6</ele>
        <time>2020-06-08T14:12:05Z</time>
      </trkpt>
      <trkpt lat="48.28445" lon="-4.11951">
        <ele>158.8</ele>
        <time>2020-06-08T14:12:06Z</time>
      </trkpt>
      <trkpt lat="48.28446" lon="-4.11953">
        <ele>158.8</ele>
        <time>2020-06-08T14:12:07Z</time>
      </trkpt>
      <trkpt lat="48.28447" lon="-4.11957">
        <ele>159</ele>
        <time>2020-06-08T14:12:08Z</time>
      </trkpt>
      <trkpt lat="48.28447" lon="-4.11962">
        <ele>159.2</ele>
        <time>2020-06-08T14:12:09Z</time>
      </trkpt>
      <trkpt lat="48.28448" lon="-4.11968">
        <ele>159.4</ele>
        <time>2020-06-08T14:12:10Z</time>
      </trkpt>
      <trkpt lat="48.28449" lon="-4.1197">
        <ele>159.4</ele>
        <time>2020-06-08T14:12:11Z</time>
      </trkpt>
      <trkpt lat="48.2845" lon="-4.11974">
        <ele>159.6</ele>
        <time>2020-06-08T14:12:12Z</time>
      </trkpt>
      <trkpt lat="48.28451" lon="-4.11979">
        <ele>159.7</ele>
        <time>2020-06-08T14:12:13Z</time>
      </trkpt>
      <trkpt lat="48.28452" lon="-4.11985">
        <ele>159.9</ele>
        <time>2020-06-08T14:12:14Z</time>
      </trkpt>
      <trkpt lat="48.28452" lon="-4.11987">
        <ele>160</ele>
        <time>2020-06-08T14:12:15Z</time>
      </trkpt>
      <trkpt lat="48.28452" lon="-4.11991">
        <ele>160.2</ele>
        <time>2020-06-08T14:12:16Z</time>
      </trkpt>
      <trkpt lat="48.28453" lon="-4.11996">
        <ele>160.3</ele>
        <time>2020-06-08T14:12:17Z</time>
      </trkpt>
      <trkpt lat="48.28454" lon="-4.12">
        <ele>160.5</ele>
        <time>2020-06-08T14:12:18Z</time>
      </trkpt>
      <trkpt lat="48.28454" lon="-4.12005">
        <ele>160.6</ele>
        <time>2020-06-08T14:12:19Z</time>
      </trkpt>
      <trkpt lat="48.28455" lon="-4.12007">
        <ele>160.7</ele>
        <time>2020-06-08T14:12:20Z</time>
      </trkpt>
      <trkpt lat="48.28455" lon="-4.12011">
        <ele>160.8</ele>
        <time>2020-06-08T14:12:21Z</time>
      </trkpt>
      <trkpt lat="48.28456" lon="-4.12016">
        <ele>161</ele>
        <time>2020-06-08T14:12:22Z</time>
      </trkpt>
      <trkpt lat="48.28457" lon="-4.1202">
        <ele>161.1</ele>
        <time>2020-06-08T14:12:23Z</time>
      </trkpt>
      <trkpt lat="48.28459" lon="-4.12025">
        <ele>161.4</ele>
        <time>2020-06-08T14:12:24Z</time>
      </trkpt>
      <trkpt lat="48.2846" lon="-4.12027">
        <ele>161.4</ele>
        <time>2020-06-08T14:12:25Z</time>
      </trkpt>
      <trkpt lat="48.28462" lon="-4.12032">
        <ele>161.6</ele>
        <time>2020-06-08T14:12:26Z</time>
      </trkpt>
      <trkpt lat="48.28463" lon="-4.12034">
        <ele>161.7</ele>
        <time>2020-06-08T14:12:27Z</time>
      </trkpt>
      <trkpt lat="48.28466" lon="-4.12038">
        <ele>161.9</ele>
        <time>2020-06-08T14:12:28Z</time>
      </trkpt>
      <trkpt lat="48.28467" lon="-4.12039">
        <ele>161.9</ele>
        <time>2020-06-08T14:12:29Z</time>
      </trkpt>
      <trkpt lat="48.28468" lon="-4.12043">
        <ele>162.1</ele>
        <time>2020-06-08T14:12:30Z</time>
      </trkpt>
      <trkpt lat="48.2847" lon="-4.12047">
        <ele>162.3</ele>
        <time>2020-06-08T14:12:31Z</time>
      </trkpt>
      <trkpt lat="48.28472" lon="-4.12052">
        <ele>162.5</ele>
        <time>2020-06-08T14:12:32Z</time>
      </trkpt>
      <trkpt lat="48.28473" lon="-4.12056">
        <ele>162.6</ele>
        <time>2020-06-08T14:12:33Z</time>
      </trkpt>
      <trkpt lat="48.28475" lon="-4.12059">
        <ele>162.8</ele>
        <time>2020-06-08T14:12:34Z</time>
      </trkpt>
      <trkpt lat="48.28476" lon="-4.12064">
        <ele>163</ele>
        <time>2020-06-08T14:12:35Z</time>
      </trkpt>
      <trkpt lat="48.28479" lon="-4.12068">
        <ele>163.1</ele>
        <time>2020-06-08T14:12:36Z</time>
      </trkpt>
      <trkpt lat="48.2848" lon="-4.1207">
        <ele>163.2</ele>
        <time>2020-06-08T14:12:37Z</time>
      </trkpt>
      <trkpt lat="48.28481" lon="-4.12072">
        <ele>163.3</ele>
        <time>2020-06-08T14:12:38Z</time>
      </trkpt>
      <trkpt lat="48.28481" lon="-4.12075">
        <ele>163.4</ele>
        <time>2020-06-08T14:12:39Z</time>
      </trkpt>
      <trkpt lat="48.28483" lon="-4.12078">
        <ele>163.6</ele>
        <time>2020-06-08T14:12:40Z</time>
      </trkpt>
      <trkpt lat="48.28484" lon="-4.1208">
        <ele>163.6</ele>
        <time>2020-06-08T14:12:41Z</time>
      </trkpt>
      <trkpt lat="48.28485" lon="-4.12085">
        <ele>163.8</ele>
        <time>2020-06-08T14:12:42Z</time>
      </trkpt>
      <trkpt lat="48.28485" lon="-4.12086">
        <ele>163.9</ele>
        <time>2020-06-08T14:12:43Z</time>
      </trkpt>
      <trkpt lat="48.28487" lon="-4.12091">
        <ele>164</ele>
        <time>2020-06-08T14:12:44Z</time>
      </trkpt>
      <trkpt lat="48.28488" lon="-4.12092">
        <ele>164.1</ele>
        <time>2020-06-08T14:12:45Z</time>
      </trkpt>
      <trkpt lat="48.28489" lon="-4.12095">
        <ele>164.2</ele>
        <time>2020-06-08T14:12:46Z</time>
      </trkpt>
      <trkpt lat="48.2849" lon="-4.12096">
        <ele>164.3</ele>
        <time>2020-06-08T14:12:47Z</time>
      </trkpt>
      <trkpt lat="48.28491" lon="-4.12096">
        <ele>164.3</ele>
        <time>2020-06-08T14:12:48Z</time>
      </trkpt>
      <trkpt lat="48.28493" lon="-4.12097">
        <ele>164.6</ele>
        <time>2020-06-08T14:12:49Z</time>
      </trkpt>
      <trkpt lat="48.28496" lon="-4.121">
        <ele>164.7</ele>
        <time>2020-06-08T14:12:50Z</time>
      </trkpt>
      <trkpt lat="48.28496" lon="-4.12101">
        <ele>164.7</ele>
        <time>2020-06-08T14:12:51Z</time>
      </trkpt>
      <trkpt lat="48.28499" lon="-4.12104">
        <ele>164.8</ele>
        <time>2020-06-08T14:12:52Z</time>
      </trkpt>
      <trkpt lat="48.28501" lon="-4.12107">
        <ele>164.9</ele>
        <time>2020-06-08T14:12:53Z</time>
      </trkpt>
      <trkpt lat="48.28501" lon="-4.12108">
        <ele>164.9</ele>
        <time>2020-06-08T14:12:54Z</time>
      </trkpt>
      <trkpt lat="48.28503" lon="-4.1211">
        <ele>164.9</ele>
        <time>2020-06-08T14:12:55Z</time>
      </trkpt>
      <trkpt lat="48.28504" lon="-4.12111">
        <ele>164.9</ele>
        <time>2020-06-08T14:12:56Z</time>
      </trkpt>
      <trkpt lat="48.28506" lon="-4.12116">
        <ele>165</ele>
        <time>2020-06-08T14:12:57Z</time>
      </trkpt>
      <trkpt lat="48.28507" lon="-4.12118">
        <ele>165</ele>
        <time>2020-06-08T14:12:58Z</time>
      </trkpt>
      <trkpt lat="48.28509" lon="-4.12121">
        <ele>165.1</ele>
        <time>2020-06-08T14:12:59Z</time>
      </trkpt>
      <trkpt lat="48.28511" lon="-4.12125">
        <ele>165.1</ele>
        <time>2020-06-08T14:13:00Z</time>
      </trkpt>
      <trkpt lat="48.28511" lon="-4.12125">
        <ele>165.1</ele>
        <time>2020-06-08T14:13:01Z</time>
      </trkpt>
      <trkpt lat="48.28513" lon="-4.12127">
        <ele>165.1</ele>
        <time>2020-06-08T14:13:02Z</time>
      </trkpt>
      <trkpt lat="48.28513" lon="-4.12128">
        <ele>165.1</ele>
        <time>2020-06-08T14:13:03Z</time>
      </trkpt>
      <trkpt lat="48.28514" lon="-4.12128">
        <ele>165.1</ele>
        <time>2020-06-08T14:13:04Z</time>
      </trkpt>
      <trkpt lat="48.28515" lon="-4.12129">
        <ele>165.2</ele>
        <time>2020-06-08T14:13:05Z</time>
      </trkpt>
      <trkpt lat="48.28516" lon="-4.12129">
        <ele>165.2</ele>
        <time>2020-06-08T14:13:06Z</time>
      </trkpt>
      <trkpt lat="48.28517" lon="-4.1213">
        <ele>165.2</ele>
        <time>2020-06-08T14:13:07Z</time>
      </trkpt>
      <trkpt lat="48.28517" lon="-4.1213">
        <ele>165.2</ele>
        <time>2020-06-08T14:13:08Z</time>
      </trkpt>
      <trkpt lat="48.28516" lon="-4.12131">
        <ele>165.2</ele>
        <time>2020-06-08T14:13:09Z</time>
      </trkpt>
      <trkpt lat="48.28516" lon="-4.12131">
        <ele>165.2</ele>
        <time>2020-06-08T14:13:10Z</time>
      </trkpt>
      <trkpt lat="48.28516" lon="-4.12131">
        <ele>165.2</ele>
        <time>2020-06-08T14:13:11Z</time>
      </trkpt>
      <trkpt lat="48.28517" lon="-4.1213">
        <ele>165.2</ele>
        <time>2020-06-08T14:13:12Z</time>
      </trkpt>
      <trkpt lat="48.28517" lon="-4.12131">
        <ele>165.2</ele>
        <time>2020-06-08T14:13:13Z</time>
      </trkpt>
      <trkpt lat="48.28517" lon="-4.12132">
        <ele>165.2</ele>
        <time>2020-06-08T14:13:14Z</time>
      </trkpt>
      <trkpt lat="48.28517" lon="-4.12133">
        <ele>165.2</ele>
        <time>2020-06-08T14:13:15Z</time>
      </trkpt>
      <trkpt lat="48.28515" lon="-4.12132">
        <ele>165.3</ele>
        <time>2020-06-08T14:13:16Z</time>
      </trkpt>
      <trkpt lat="48.28514" lon="-4.12132">
        <ele>165.3</ele>
        <time>2020-06-08T14:13:17Z</time>
      </trkpt>
      <trkpt lat="48.28518" lon="-4.12132">
        <ele>165.3</ele>
        <time>2020-06-08T14:13:18Z</time>
      </trkpt>
      <trkpt lat="48.28522" lon="-4.12133">
        <ele>165.3</ele>
        <time>2020-06-08T14:13:19Z</time>
      </trkpt>
      <trkpt lat="48.28525" lon="-4.12134">
        <ele>165.4</ele>
        <time>2020-06-08T14:14:28Z</time>
      </trkpt>
      <trkpt lat="48.28528" lon="-4.12135">
        <ele>165.4</ele>
        <time>2020-06-08T14:14:29Z</time>
      </trkpt>
      <trkpt lat="48.28531" lon="-4.1214">
        <ele>165.4</ele>
        <time>2020-06-08T14:14:30Z</time>
      </trkpt>
      <trkpt lat="48.28531" lon="-4.12142">
        <ele>165.4</ele>
        <time>2020-06-08T14:14:31Z</time>
      </trkpt>
      <trkpt lat="48.28533" lon="-4.12145">
        <ele>165.4</ele>
        <time>2020-06-08T14:14:32Z</time>
      </trkpt>
      <trkpt lat="48.28536" lon="-4.1215">
        <ele>165.5</ele>
        <time>2020-06-08T14:14:33Z</time>
      </trkpt>
      <trkpt lat="48.28537" lon="-4.12151">
        <ele>165.5</ele>
        <time>2020-06-08T14:14:34Z</time>
      </trkpt>
      <trkpt lat="48.28539" lon="-4.12156">
        <ele>165.5</ele>
        <time>2020-06-08T14:14:35Z</time>
      </trkpt>
      <trkpt lat="48.28542" lon="-4.1216">
        <ele>165.5</ele>
        <time>2020-06-08T14:14:36Z</time>
      </trkpt>
      <trkpt lat="48.28543" lon="-4.12164">
        <ele>165.6</ele>
        <time>2020-06-08T14:14:37Z</time>
      </trkpt>
      <trkpt lat="48.28545" lon="-4.12167">
        <ele>165.6</ele>
        <time>2020-06-08T14:14:38Z</time>
      </trkpt>
      <trkpt lat="48.28548" lon="-4.12172">
        <ele>165.6</ele>
        <time>2020-06-08T14:14:39Z</time>
      </trkpt>
      <trkpt lat="48.2855" lon="-4.12177">
        <ele>165.6</ele>
        <time>2020-06-08T14:14:40Z</time>
      </trkpt>
      <trkpt lat="48.28552" lon="-4.12182">
        <ele>165.6</ele>
        <time>2020-06-08T14:14:41Z</time>
      </trkpt>
      <trkpt lat="48.28554" lon="-4.12187">
        <ele>165.6</ele>
        <time>2020-06-08T14:14:42Z</time>
      </trkpt>
      <trkpt lat="48.28557" lon="-4.1219">
        <ele>165.5</ele>
        <time>2020-06-08T14:14:43Z</time>
      </trkpt>
      <trkpt lat="48.2856" lon="-4.12194">
        <ele>165.5</ele>
        <time>2020-06-08T14:14:44Z</time>
      </trkpt>
      <trkpt lat="48.28563" lon="-4.12197">
        <ele>165.5</ele>
        <time>2020-06-08T14:14:45Z</time>
      </trkpt>
      <trkpt lat="48.28565" lon="-4.122">
        <ele>165.5</ele>
        <time>2020-06-08T14:14:46Z</time>
      </trkpt>
      <trkpt lat="48.28568" lon="-4.12204">
        <ele>165.4</ele>
        <time>2020-06-08T14:14:47Z</time>
      </trkpt>
      <trkpt lat="48.28571" lon="-4.12208">
        <ele>165.4</ele>
        <time>2020-06-08T14:14:48Z</time>
      </trkpt>
      <trkpt lat="48.28574" lon="-4.12212">
        <ele>165.3</ele>
        <time>2020-06-08T14:14:49Z</time>
      </trkpt>
      <trkpt lat="48.28577" lon="-4.12216">
        <ele>165.3</ele>
        <time>2020-06-08T14:14:50Z</time>
      </trkpt>
      <trkpt lat="48.28579" lon="-4.1222">
        <ele>165.3</ele>
        <time>2020-06-08T14:14:51Z</time>
      </trkpt>
      <trkpt lat="48.28581" lon="-4.12223">
        <ele>165.2</ele>
        <time>2020-06-08T14:14:52Z</time>
      </trkpt>
      <trkpt lat="48.28584" lon="-4.12227">
        <ele>165.2</ele>
        <time>2020-06-08T14:14:53Z</time>
      </trkpt>
      <trkpt lat="48.28587" lon="-4.1223">
        <ele>165.1</ele>
        <time>2020-06-08T14:14:54Z</time>
      </trkpt>
      <trkpt lat="48.28589" lon="-4.12233">
        <ele>165</ele>
        <time>2020-06-08T14:14:55Z</time>
      </trkpt>
      <trkpt lat="48.28593" lon="-4.12236">
        <ele>165</ele>
        <time>2020-06-08T14:14:56Z</time>
      </trkpt>
      <trkpt lat="48.28594" lon="-4.12238">
        <ele>164.9</ele>
        <time>2020-06-08T14:14:57Z</time>
      </trkpt>
      <trkpt lat="48.28596" lon="-4.1224">
        <ele>164.9</ele>
        <time>2020-06-08T14:14:58Z</time>
      </trkpt>
      <trkpt lat="48.28598" lon="-4.12244">
        <ele>164.8</ele>
        <time>2020-06-08T14:14:59Z</time>
      </trkpt>
      <trkpt lat="48.28601" lon="-4.12248">
        <ele>164.7</ele>
        <time>2020-06-08T14:15:00Z</time>
      </trkpt>
      <trkpt lat="48.28604" lon="-4.12253">
        <ele>164.5</ele>
        <time>2020-06-08T14:15:01Z</time>
      </trkpt>
      <trkpt lat="48.28606" lon="-4.12259">
        <ele>164.4</ele>
        <time>2020-06-08T14:15:02Z</time>
      </trkpt>
      <trkpt lat="48.28609" lon="-4.12264">
        <ele>164.2</ele>
        <time>2020-06-08T14:15:03Z</time>
      </trkpt>
      <trkpt lat="48.2861" lon="-4.12269">
        <ele>164.1</ele>
        <time>2020-06-08T14:15:04Z</time>
      </trkpt>
      <trkpt lat="48.28613" lon="-4.12274">
        <ele>163.9</ele>
        <time>2020-06-08T14:15:05Z</time>
      </trkpt>
      <trkpt lat="48.28616" lon="-4.1228">
        <ele>163.7</ele>
        <time>2020-06-08T14:15:06Z</time>
      </trkpt>
      <trkpt lat="48.28618" lon="-4.12287">
        <ele>163.5</ele>
        <time>2020-06-08T14:15:07Z</time>
      </trkpt>
      <trkpt lat="48.28621" lon="-4.12293">
        <ele>163.3</ele>
        <time>2020-06-08T14:15:08Z</time>
      </trkpt>
      <trkpt lat="48.28624" lon="-4.12299">
        <ele>163.1</ele>
        <time>2020-06-08T14:15:09Z</time>
      </trkpt>
      <trkpt lat="48.28626" lon="-4.12305">
        <ele>163</ele>
        <time>2020-06-08T14:15:10Z</time>
      </trkpt>
      <trkpt lat="48.28628" lon="-4.12314">
        <ele>162.7</ele>
        <time>2020-06-08T14:15:11Z</time>
      </trkpt>
      <trkpt lat="48.2863" lon="-4.1232">
        <ele>162.5</ele>
        <time>2020-06-08T14:15:12Z</time>
      </trkpt>
      <trkpt lat="48.28633" lon="-4.12328">
        <ele>162.3</ele>
        <time>2020-06-08T14:15:13Z</time>
      </trkpt>
      <trkpt lat="48.28635" lon="-4.12338">
        <ele>162</ele>
        <time>2020-06-08T14:15:14Z</time>
      </trkpt>
      <trkpt lat="48.28637" lon="-4.12347">
        <ele>161.7</ele>
        <time>2020-06-08T14:15:15Z</time>
      </trkpt>
      <trkpt lat="48.2864" lon="-4.12356">
        <ele>161.4</ele>
        <time>2020-06-08T14:15:16Z</time>
      </trkpt>
      <trkpt lat="48.28642" lon="-4.12365">
        <ele>161.2</ele>
        <time>2020-06-08T14:15:17Z</time>
      </trkpt>
      <trkpt lat="48.28644" lon="-4.12375">
        <ele>160.9</ele>
        <time>2020-06-08T14:15:18Z</time>
      </trkpt>
      <trkpt lat="48.28646" lon="-4.12384">
        <ele>160.6</ele>
        <time>2020-06-08T14:15:19Z</time>
      </trkpt>
      <trkpt lat="48.28649" lon="-4.12392">
        <ele>160</ele>
        <time>2020-06-08T14:15:20Z</time>
      </trkpt>
      <trkpt lat="48.28652" lon="-4.12401">
        <ele>159.7</ele>
        <time>2020-06-08T14:15:21Z</time>
      </trkpt>
      <trkpt lat="48.28654" lon="-4.12411">
        <ele>159.4</ele>
        <time>2020-06-08T14:15:22Z</time>
      </trkpt>
      <trkpt lat="48.28656" lon="-4.12419">
        <ele>159.1</ele>
        <time>2020-06-08T14:15:23Z</time>
      </trkpt>
      <trkpt lat="48.28657" lon="-4.12427">
        <ele>158.9</ele>
        <time>2020-06-08T14:15:24Z</time>
      </trkpt>
      <trkpt lat="48.28659" lon="-4.12435">
        <ele>158.7</ele>
        <time>2020-06-08T14:15:25Z</time>
      </trkpt>
      <trkpt lat="48.28661" lon="-4.12441">
        <ele>158.6</ele>
        <time>2020-06-08T14:15:26Z</time>
      </trkpt>
      <trkpt lat="48.28662" lon="-4.12448">
        <ele>158.5</ele>
        <time>2020-06-08T14:15:27Z</time>
      </trkpt>
      <trkpt lat="48.28664" lon="-4.12452">
        <ele>158.4</ele>
        <time>2020-06-08T14:15:28Z</time>
      </trkpt>
      <trkpt lat="48.28665" lon="-4.12453">
        <ele>158.4</ele>
        <time>2020-06-08T14:15:29Z</time>
      </trkpt>
      <trkpt lat="48.28665" lon="-4.12453">
        <ele>158.4</ele>
        <time>2020-06-08T14:15:30Z</time>
      </trkpt>
      <trkpt lat="48.28665" lon="-4.12453">
        <ele>158.4</ele>
        <time>2020-06-08T14:15:31Z</time>
      </trkpt>
      <trkpt lat="48.28665" lon="-4.12453">
        <ele>158.4</ele>
        <time>2020-06-08T14:15:32Z</time>
      </trkpt>
      <trkpt lat="48.28665" lon="-4.12454">
        <ele>158.4</ele>
        <time>2020-06-08T14:15:33Z</time>
      </trkpt>
      <trkpt lat="48.28665" lon="-4.12454">
        <ele>158.4</ele>
        <time>2020-06-08T14:15:34Z</time>
      </trkpt>
      <trkpt lat="48.28665" lon="-4.12454">
        <ele>158.4</ele>
        <time>2020-06-08T14:15:35Z</time>
      </trkpt>
      <trkpt lat="48.28665" lon="-4.12455">
        <ele>158.4</ele>
        <time>2020-06-08T14:15:36Z</time>
      </trkpt>
      <trkpt lat="48.28665" lon="-4.12455">
        <ele>158.4</ele>
        <time>2020-06-08T14:15:37Z</time>
      </trkpt>
      <trkpt lat="48.28665" lon="-4.12455">
        <ele>158.4</ele>
        <time>2020-06-08T14:15:38Z</time>
      </trkpt>
      <trkpt lat="48.28665" lon="-4.12455">
        <ele>158.4</ele>
        <time>2020-06-08T14:15:39Z</time>
      </trkpt>
      <trkpt lat="48.28665" lon="-4.12456">
        <ele>158.4</ele>
        <time>2020-06-08T14:15:40Z</time>
      </trkpt>
      <trkpt lat="48.28665" lon="-4.12456">
        <ele>158.4</ele>
        <time>2020-06-08T14:15:41Z</time>
      </trkpt>
      <trkpt lat="48.28665" lon="-4.12456">
        <ele>158.4</ele>
        <time>2020-06-08T14:15:42Z</time>
      </trkpt>
      <trkpt lat="48.28665" lon="-4.12457">
        <ele>158.4</ele>
        <time>2020-06-08T14:15:43Z</time>
      </trkpt>
      <trkpt lat="48.28665" lon="-4.12457">
        <ele>158.4</ele>
        <time>2020-06-08T14:15:44Z</time>
      </trkpt>
      <trkpt lat="48.28665" lon="-4.12457">
        <ele>158.4</ele>
        <time>2020-06-08T14:15:45Z</time>
      </trkpt>
      <trkpt lat="48.28665" lon="-4.12458">
        <ele>158.4</ele>
        <time>2020-06-08T14:15:46Z</time>
      </trkpt>
      <trkpt lat="48.28665" lon="-4.12458">
        <ele>158.3</ele>
        <time>2020-06-08T14:15:47Z</time>
      </trkpt>
      <trkpt lat="48.28665" lon="-4.12458">
        <ele>158.3</ele>
        <time>2020-06-08T14:15:48Z</time>
      </trkpt>
      <trkpt lat="48.28665" lon="-4.12458">
        <ele>158.3</ele>
        <time>2020-06-08T14:15:49Z</time>
      </trkpt>
      <trkpt lat="48.28666" lon="-4.1246">
        <ele>158.3</ele>
        <time>2020-06-08T14:15:50Z</time>
      </trkpt>
      <trkpt lat="48.28668" lon="-4.12461">
        <ele>158.3</ele>
        <time>2020-06-08T14:15:51Z</time>
      </trkpt>
      <trkpt lat="48.28669" lon="-4.12462">
        <ele>158.2</ele>
        <time>2020-06-08T14:15:52Z</time>
      </trkpt>
      <trkpt lat="48.2867" lon="-4.12463">
        <ele>158.2</ele>
        <time>2020-06-08T14:15:53Z</time>
      </trkpt>
      <trkpt lat="48.2867" lon="-4.12464">
        <ele>158.2</ele>
        <time>2020-06-08T14:15:54Z</time>
      </trkpt>
      <trkpt lat="48.2867" lon="-4.12466">
        <ele>158.2</ele>
        <time>2020-06-08T14:15:55Z</time>
      </trkpt>
      <trkpt lat="48.2867" lon="-4.12466">
        <ele>158.2</ele>
        <time>2020-06-08T14:15:56Z</time>
      </trkpt>
      <trkpt lat="48.2867" lon="-4.12467">
        <ele>158.2</ele>
        <time>2020-06-08T14:15:57Z</time>
      </trkpt>
      <trkpt lat="48.2867" lon="-4.12467">
        <ele>158.2</ele>
        <time>2020-06-08T14:15:58Z</time>
      </trkpt>
      <trkpt lat="48.2867" lon="-4.12467">
        <ele>158.2</ele>
        <time>2020-06-08T14:15:59Z</time>
      </trkpt>
      <trkpt lat="48.2867" lon="-4.12468">
        <ele>158.2</ele>
        <time>2020-06-08T14:16:00Z</time>
      </trkpt>
      <trkpt lat="48.2867" lon="-4.12468">
        <ele>158.2</ele>
        <time>2020-06-08T14:16:01Z</time>
      </trkpt>
      <trkpt lat="48.2867" lon="-4.12468">
        <ele>158.2</ele>
        <time>2020-06-08T14:16:02Z</time>
      </trkpt>
      <trkpt lat="48.2867" lon="-4.12468">
        <ele>158.2</ele>
        <time>2020-06-08T14:16:03Z</time>
      </trkpt>
      <trkpt lat="48.2867" lon="-4.12468">
        <ele>158.2</ele>
        <time>2020-06-08T14:16:04Z</time>
      </trkpt>
      <trkpt lat="48.2867" lon="-4.12468">
        <ele>158.1</ele>
        <time>2020-06-08T14:16:05Z</time>
      </trkpt>
      <trkpt lat="48.2867" lon="-4.12468">
        <ele>158.1</ele>
        <time>2020-06-08T14:16:06Z</time>
      </trkpt>
      <trkpt lat="48.28671" lon="-4.12468">
        <ele>158.1</ele>
        <time>2020-06-08T14:16:07Z</time>
      </trkpt>
      <trkpt lat="48.28671" lon="-4.12468">
        <ele>158.1</ele>
        <time>2020-06-08T14:16:08Z</time>
      </trkpt>
      <trkpt lat="48.28671" lon="-4.12467">
        <ele>158.1</ele>
        <time>2020-06-08T14:16:09Z</time>
      </trkpt>
      <trkpt lat="48.28676" lon="-4.12462">
        <ele>158</ele>
        <time>2020-06-08T14:18:38Z</time>
      </trkpt>
      <trkpt lat="48.28676" lon="-4.12462">
        <ele>157.9</ele>
        <time>2020-06-08T14:18:39Z</time>
      </trkpt>
      <trkpt lat="48.28675" lon="-4.12462">
        <ele>157.9</ele>
        <time>2020-06-08T14:18:40Z</time>
      </trkpt>
      <trkpt lat="48.28675" lon="-4.12462">
        <ele>157.9</ele>
        <time>2020-06-08T14:18:41Z</time>
      </trkpt>
      <trkpt lat="48.28675" lon="-4.12462">
        <ele>157.9</ele>
        <time>2020-06-08T14:18:42Z</time>
      </trkpt>
      <trkpt lat="48.28675" lon="-4.12462">
        <ele>157.9</ele>
        <time>2020-06-08T14:18:43Z</time>
      </trkpt>
      <trkpt lat="48.28674" lon="-4.12462">
        <ele>157.9</ele>
        <time>2020-06-08T14:18:44Z</time>
      </trkpt>
      <trkpt lat="48.28675" lon="-4.12462">
        <ele>157.9</ele>
        <time>2020-06-08T14:18:45Z</time>
      </trkpt>
      <trkpt lat="48.28675" lon="-4.12463">
        <ele>157.8</ele>
        <time>2020-06-08T14:18:46Z</time>
      </trkpt>
      <trkpt lat="48.28675" lon="-4.12462">
        <ele>157.8</ele>
        <time>2020-06-08T14:18:47Z</time>
      </trkpt>
      <trkpt lat="48.28675" lon="-4.12463">
        <ele>157.8</ele>
        <time>2020-06-08T14:18:48Z</time>
      </trkpt>
      <trkpt lat="48.28675" lon="-4.12464">
        <ele>157.8</ele>
        <time>2020-06-08T14:18:49Z</time>
      </trkpt>
      <trkpt lat="48.28676" lon="-4.12464">
        <ele>157.8</ele>
        <time>2020-06-08T14:18:50Z</time>
      </trkpt>
      <trkpt lat="48.28676" lon="-4.12464">
        <ele>157.8</ele>
        <time>2020-06-08T14:18:51Z</time>
      </trkpt>
      <trkpt lat="48.28676" lon="-4.12464">
        <ele>157.8</ele>
        <time>2020-06-08T14:18:52Z</time>
      </trkpt>
      <trkpt lat="48.28676" lon="-4.12464">
        <ele>157.8</ele>
        <time>2020-06-08T14:18:53Z</time>
      </trkpt>
      <trkpt lat="48.28676" lon="-4.12464">
        <ele>157.8</ele>
        <time>2020-06-08T14:18:54Z</time>
      </trkpt>
      <trkpt lat="48.28676" lon="-4.12464">
        <ele>157.8</ele>
        <time>2020-06-08T14:18:55Z</time>
      </trkpt>
      <trkpt lat="48.28676" lon="-4.12464">
        <ele>157.8</ele>
        <time>2020-06-08T14:18:56Z</time>
      </trkpt>
      <trkpt lat="48.28676" lon="-4.12464">
        <ele>157.8</ele>
        <time>2020-06-08T14:18:57Z</time>
      </trkpt>
      <trkpt lat="48.28675" lon="-4.12465">
        <ele>157.7</ele>
        <time>2020-06-08T14:18:58Z</time>
      </trkpt>
      <trkpt lat="48.28675" lon="-4.12465">
        <ele>157.7</ele>
        <time>2020-06-08T14:18:59Z</time>
      </trkpt>
      <trkpt lat="48.28675" lon="-4.12463">
        <ele>157.7</ele>
        <time>2020-06-08T14:19:00Z</time>
      </trkpt>
      <trkpt lat="48.28665" lon="-4.12456">
        <ele>157.3</ele>
        <time>2020-06-08T14:20:36Z</time>
      </trkpt>
      <trkpt lat="48.28663" lon="-4.12456">
        <ele>157.3</ele>
        <time>2020-06-08T14:20:37Z</time>
      </trkpt>
      <trkpt lat="48.28662" lon="-4.12454">
        <ele>157.2</ele>
        <time>2020-06-08T14:20:38Z</time>
      </trkpt>
      <trkpt lat="48.28662" lon="-4.12452">
        <ele>157.2</ele>
        <time>2020-06-08T14:20:39Z</time>
      </trkpt>
      <trkpt lat="48.28662" lon="-4.12451">
        <ele>157.1</ele>
        <time>2020-06-08T14:20:40Z</time>
      </trkpt>
      <trkpt lat="48.28662" lon="-4.1245">
        <ele>157.1</ele>
        <time>2020-06-08T14:20:41Z</time>
      </trkpt>
      <trkpt lat="48.28662" lon="-4.12449">
        <ele>157.1</ele>
        <time>2020-06-08T14:20:42Z</time>
      </trkpt>
      <trkpt lat="48.28662" lon="-4.12449">
        <ele>157.1</ele>
        <time>2020-06-08T14:20:43Z</time>
      </trkpt>
      <trkpt lat="48.28662" lon="-4.12448">
        <ele>157.1</ele>
        <time>2020-06-08T14:20:44Z</time>
      </trkpt>
      <trkpt lat="48.28661" lon="-4.12446">
        <ele>157</ele>
        <time>2020-06-08T14:20:45Z</time>
      </trkpt>
      <trkpt lat="48.28661" lon="-4.12446">
        <ele>157</ele>
        <time>2020-06-08T14:20:46Z</time>
      </trkpt>
      <trkpt lat="48.28661" lon="-4.12446">
        <ele>157</ele>
        <time>2020-06-08T14:20:47Z</time>
      </trkpt>
      <trkpt lat="48.28661" lon="-4.12446">
        <ele>157</ele>
        <time>2020-06-08T14:20:48Z</time>
      </trkpt>
      <trkpt lat="48.28661" lon="-4.12446">
        <ele>157</ele>
        <time>2020-06-08T14:20:49Z</time>
      </trkpt>
      <trkpt lat="48.28661" lon="-4.12446">
        <ele>157</ele>
        <time>2020-06-08T14:20:50Z</time>
      </trkpt>
      <trkpt lat="48.28663" lon="-4.12447">
        <ele>157</ele>
        <time>2020-06-08T14:20:51Z</time>
      </trkpt>
      <trkpt lat="48.28663" lon="-4.12448">
        <ele>157</ele>
        <time>2020-06-08T14:20:52Z</time>
      </trkpt>
      <trkpt lat="48.28664" lon="-4.12448">
        <ele>156.9</ele>
        <time>2020-06-08T14:20:53Z</time>
      </trkpt>
      <trkpt lat="48.28664" lon="-4.12448">
        <ele>156.9</ele>
        <time>2020-06-08T14:20:54Z</time>
      </trkpt>
      <trkpt lat="48.28664" lon="-4.12448">
        <ele>156.9</ele>
        <time>2020-06-08T14:20:55Z</time>
      </trkpt>
      <trkpt lat="48.28666" lon="-4.12459">
        <ele>156.7</ele>
        <time>2020-06-08T14:22:56Z</time>
      </trkpt>
      <trkpt lat="48.28666" lon="-4.12459">
        <ele>156.7</ele>
        <time>2020-06-08T14:22:57Z</time>
      </trkpt>
      <trkpt lat="48.28665" lon="-4.12461">
        <ele>156.7</ele>
        <time>2020-06-08T14:22:58Z</time>
      </trkpt>
      <trkpt lat="48.28665" lon="-4.12462">
        <ele>156.7</ele>
        <time>2020-06-08T14:22:59Z</time>
      </trkpt>
      <trkpt lat="48.28664" lon="-4.12463">
        <ele>156.6</ele>
        <time>2020-06-08T14:23:00Z</time>
      </trkpt>
      <trkpt lat="48.28664" lon="-4.12464">
        <ele>156.6</ele>
        <time>2020-06-08T14:23:01Z</time>
      </trkpt>
      <trkpt lat="48.28664" lon="-4.12465">
        <ele>156.6</ele>
        <time>2020-06-08T14:23:02Z</time>
      </trkpt>
      <trkpt lat="48.28663" lon="-4.12466">
        <ele>156.6</ele>
        <time>2020-06-08T14:23:03Z</time>
      </trkpt>
      <trkpt lat="48.28663" lon="-4.12467">
        <ele>156.6</ele>
        <time>2020-06-08T14:23:04Z</time>
      </trkpt>
      <trkpt lat="48.28663" lon="-4.12468">
        <ele>156.5</ele>
        <time>2020-06-08T14:23:05Z</time>
      </trkpt>
      <trkpt lat="48.28662" lon="-4.12468">
        <ele>156.5</ele>
        <time>2020-06-08T14:23:06Z</time>
      </trkpt>
      <trkpt lat="48.28662" lon="-4.12469">
        <ele>156.5</ele>
        <time>2020-06-08T14:23:07Z</time>
      </trkpt>
      <trkpt lat="48.28662" lon="-4.1247">
        <ele>156.5</ele>
        <time>2020-06-08T14:23:32Z</time>
      </trkpt>
      <trkpt lat="48.28661" lon="-4.12471">
        <ele>156.5</ele>
        <time>2020-06-08T14:23:33Z</time>
      </trkpt>
      <trkpt lat="48.28661" lon="-4.12476">
        <ele>156.3</ele>
        <time>2020-06-08T14:23:34Z</time>
      </trkpt>
      <trkpt lat="48.2866" lon="-4.1248">
        <ele>156.3</ele>
        <time>2020-06-08T14:23:35Z</time>
      </trkpt>
      <trkpt lat="48.28659" lon="-4.12484">
        <ele>156.2</ele>
        <time>2020-06-08T14:23:36Z</time>
      </trkpt>
      <trkpt lat="48.28656" lon="-4.12488">
        <ele>156</ele>
        <time>2020-06-08T14:23:37Z</time>
      </trkpt>
      <trkpt lat="48.28654" lon="-4.12492">
        <ele>155.9</ele>
        <time>2020-06-08T14:23:38Z</time>
      </trkpt>
      <trkpt lat="48.28652" lon="-4.12498">
        <ele>155.8</ele>
        <time>2020-06-08T14:23:39Z</time>
      </trkpt>
      <trkpt lat="48.2865" lon="-4.12503">
        <ele>155.7</ele>
        <time>2020-06-08T14:23:40Z</time>
      </trkpt>
      <trkpt lat="48.28648" lon="-4.12509">
        <ele>155.6</ele>
        <time>2020-06-08T14:23:41Z</time>
      </trkpt>
      <trkpt lat="48.28646" lon="-4.12514">
        <ele>155.5</ele>
        <time>2020-06-08T14:23:42Z</time>
      </trkpt>
      <trkpt lat="48.28644" lon="-4.12519">
        <ele>155.4</ele>
        <time>2020-06-08T14:23:43Z</time>
      </trkpt>
      <trkpt lat="48.28641" lon="-4.12523">
        <ele>155.3</ele>
        <time>2020-06-08T14:23:44Z</time>
      </trkpt>
      <trkpt lat="48.28639" lon="-4.12526">
        <ele>155.2</ele>
        <time>2020-06-08T14:23:45Z</time>
      </trkpt>
      <trkpt lat="48.28637" lon="-4.12529">
        <ele>155.2</ele>
        <time>2020-06-08T14:23:46Z</time>
      </trkpt>
      <trkpt lat="48.28636" lon="-4.1253">
        <ele>155.1</ele>
        <time>2020-06-08T14:23:47Z</time>
      </trkpt>
      <trkpt lat="48.28634" lon="-4.12531">
        <ele>155.1</ele>
        <time>2020-06-08T14:23:48Z</time>
      </trkpt>
      <trkpt lat="48.28634" lon="-4.12533">
        <ele>155.1</ele>
        <time>2020-06-08T14:23:49Z</time>
      </trkpt>
      <trkpt lat="48.28632" lon="-4.12538">
        <ele>155</ele>
        <time>2020-06-08T14:23:50Z</time>
      </trkpt>
      <trkpt lat="48.28631" lon="-4.1254">
        <ele>154.9</ele>
        <time>2020-06-08T14:23:51Z</time>
      </trkpt>
      <trkpt lat="48.28629" lon="-4.12545">
        <ele>154.7</ele>
        <time>2020-06-08T14:23:52Z</time>
      </trkpt>
      <trkpt lat="48.28628" lon="-4.12551">
        <ele>154.5</ele>
        <time>2020-06-08T14:23:53Z</time>
      </trkpt>
      <trkpt lat="48.28627" lon="-4.12557">
        <ele>154.4</ele>
        <time>2020-06-08T14:23:54Z</time>
      </trkpt>
      <trkpt lat="48.28626" lon="-4.12562">
        <ele>154.2</ele>
        <time>2020-06-08T14:23:55Z</time>
      </trkpt>
      <trkpt lat="48.28625" lon="-4.12569">
        <ele>154</ele>
        <time>2020-06-08T14:23:56Z</time>
      </trkpt>
      <trkpt lat="48.28624" lon="-4.12576">
        <ele>153.8</ele>
        <time>2020-06-08T14:23:57Z</time>
      </trkpt>
      <trkpt lat="48.28623" lon="-4.12584">
        <ele>153.5</ele>
        <time>2020-06-08T14:23:58Z</time>
      </trkpt>
      <trkpt lat="48.28622" lon="-4.12591">
        <ele>153.3</ele>
        <time>2020-06-08T14:23:59Z</time>
      </trkpt>
      <trkpt lat="48.28621" lon="-4.12599">
        <ele>153.1</ele>
        <time>2020-06-08T14:24:00Z</time>
      </trkpt>
      <trkpt lat="48.2862" lon="-4.12607">
        <ele>152.8</ele>
        <time>2020-06-08T14:24:01Z</time>
      </trkpt>
      <trkpt lat="48.28618" lon="-4.12615">
        <ele>152.6</ele>
        <time>2020-06-08T14:24:02Z</time>
      </trkpt>
      <trkpt lat="48.28616" lon="-4.12624">
        <ele>152.3</ele>
        <time>2020-06-08T14:24:03Z</time>
      </trkpt>
      <trkpt lat="48.28614" lon="-4.12634">
        <ele>152</ele>
        <time>2020-06-08T14:24:04Z</time>
      </trkpt>
      <trkpt lat="48.28612" lon="-4.12644">
        <ele>151.7</ele>
        <time>2020-06-08T14:24:05Z</time>
      </trkpt>
      <trkpt lat="48.2861" lon="-4.12656">
        <ele>151.3</ele>
        <time>2020-06-08T14:24:06Z</time>
      </trkpt>
      <trkpt lat="48.28609" lon="-4.12666">
        <ele>151</ele>
        <time>2020-06-08T14:24:07Z</time>
      </trkpt>
      <trkpt lat="48.28606" lon="-4.12677">
        <ele>150.7</ele>
        <time>2020-06-08T14:24:08Z</time>
      </trkpt>
      <trkpt lat="48.28604" lon="-4.1269">
        <ele>150.3</ele>
        <time>2020-06-08T14:24:09Z</time>
      </trkpt>
      <trkpt lat="48.28601" lon="-4.12704">
        <ele>149.9</ele>
        <time>2020-06-08T14:24:10Z</time>
      </trkpt>
      <trkpt lat="48.28598" lon="-4.12717">
        <ele>149.5</ele>
        <time>2020-06-08T14:24:11Z</time>
      </trkpt>
      <trkpt lat="48.28595" lon="-4.12731">
        <ele>149.1</ele>
        <time>2020-06-08T14:24:12Z</time>
      </trkpt>
      <trkpt lat="48.28593" lon="-4.12744">
        <ele>148.7</ele>
        <time>2020-06-08T14:24:13Z</time>
      </trkpt>
      <trkpt lat="48.28589" lon="-4.12757">
        <ele>148.3</ele>
        <time>2020-06-08T14:24:14Z</time>
      </trkpt>
      <trkpt lat="48.28586" lon="-4.1277">
        <ele>147.8</ele>
        <time>2020-06-08T14:24:15Z</time>
      </trkpt>
      <trkpt lat="48.28583" lon="-4.12784">
        <ele>147.4</ele>
        <time>2020-06-08T14:24:16Z</time>
      </trkpt>
      <trkpt lat="48.2858" lon="-4.12797">
        <ele>147</ele>
        <time>2020-06-08T14:24:17Z</time>
      </trkpt>
      <trkpt lat="48.28577" lon="-4.12811">
        <ele>146.6</ele>
        <time>2020-06-08T14:24:18Z</time>
      </trkpt>
      <trkpt lat="48.28574" lon="-4.12824">
        <ele>146.2</ele>
        <time>2020-06-08T14:24:19Z</time>
      </trkpt>
      <trkpt lat="48.2857" lon="-4.12837">
        <ele>145.8</ele>
        <time>2020-06-08T14:24:20Z</time>
      </trkpt>
      <trkpt lat="48.28567" lon="-4.12852">
        <ele>145.4</ele>
        <time>2020-06-08T14:24:21Z</time>
      </trkpt>
      <trkpt lat="48.28564" lon="-4.12866">
        <ele>145</ele>
        <time>2020-06-08T14:24:22Z</time>
      </trkpt>
      <trkpt lat="48.2856" lon="-4.1288">
        <ele>144.6</ele>
        <time>2020-06-08T14:24:23Z</time>
      </trkpt>
      <trkpt lat="48.28556" lon="-4.12894">
        <ele>144.2</ele>
        <time>2020-06-08T14:24:24Z</time>
      </trkpt>
      <trkpt lat="48.28552" lon="-4.12908">
        <ele>143.7</ele>
        <time>2020-06-08T14:24:25Z</time>
      </trkpt>
      <trkpt lat="48.28548" lon="-4.12922">
        <ele>143.2</ele>
        <time>2020-06-08T14:24:26Z</time>
      </trkpt>
      <trkpt lat="48.28544" lon="-4.12936">
        <ele>142.8</ele>
        <time>2020-06-08T14:24:27Z</time>
      </trkpt>
      <trkpt lat="48.2854" lon="-4.12949">
        <ele>142.3</ele>
        <time>2020-06-08T14:24:28Z</time>
      </trkpt>
      <trkpt lat="48.28536" lon="-4.12963">
        <ele>141.8</ele>
        <time>2020-06-08T14:24:29Z</time>
      </trkpt>
      <trkpt lat="48.28533" lon="-4.12977">
        <ele>141.3</ele>
        <time>2020-06-08T14:24:30Z</time>
      </trkpt>
      <trkpt lat="48.28529" lon="-4.12991">
        <ele>140.8</ele>
        <time>2020-06-08T14:24:31Z</time>
      </trkpt>
      <trkpt lat="48.28526" lon="-4.13005">
        <ele>140.2</ele>
        <time>2020-06-08T14:24:32Z</time>
      </trkpt>
      <trkpt lat="48.28522" lon="-4.1302">
        <ele>139.7</ele>
        <time>2020-06-08T14:24:33Z</time>
      </trkpt>
      <trkpt lat="48.28519" lon="-4.13035">
        <ele>139.1</ele>
        <time>2020-06-08T14:24:34Z</time>
      </trkpt>
      <trkpt lat="48.28515" lon="-4.13049">
        <ele>138.6</ele>
        <time>2020-06-08T14:24:35Z</time>
      </trkpt>
      <trkpt lat="48.2851" lon="-4.13064">
        <ele>138.1</ele>
        <time>2020-06-08T14:24:36Z</time>
      </trkpt>
      <trkpt lat="48.28505" lon="-4.13078">
        <ele>137.5</ele>
        <time>2020-06-08T14:24:37Z</time>
      </trkpt>
      <trkpt lat="48.28501" lon="-4.13093">
        <ele>137</ele>
        <time>2020-06-08T14:24:38Z</time>
      </trkpt>
      <trkpt lat="48.28498" lon="-4.13108">
        <ele>136.5</ele>
        <time>2020-06-08T14:24:39Z</time>
      </trkpt>
      <trkpt lat="48.28494" lon="-4.13123">
        <ele>136</ele>
        <time>2020-06-08T14:24:40Z</time>
      </trkpt>
      <trkpt lat="48.28489" lon="-4.13138">
        <ele>135.5</ele>
        <time>2020-06-08T14:24:41Z</time>
      </trkpt>
      <trkpt lat="48.28485" lon="-4.13152">
        <ele>135.1</ele>
        <time>2020-06-08T14:24:42Z</time>
      </trkpt>
      <trkpt lat="48.2848" lon="-4.13167">
        <ele>134.6</ele>
        <time>2020-06-08T14:24:43Z</time>
      </trkpt>
      <trkpt lat="48.28475" lon="-4.13182">
        <ele>134.1</ele>
        <time>2020-06-08T14:24:44Z</time>
      </trkpt>
      <trkpt lat="48.28471" lon="-4.13197">
        <ele>133.7</ele>
        <time>2020-06-08T14:24:45Z</time>
      </trkpt>
      <trkpt lat="48.28466" lon="-4.13211">
        <ele>133.2</ele>
        <time>2020-06-08T14:24:46Z</time>
      </trkpt>
      <trkpt lat="48.28462" lon="-4.13226">
        <ele>132.7</ele>
        <time>2020-06-08T14:24:47Z</time>
      </trkpt>
      <trkpt lat="48.28457" lon="-4.13241">
        <ele>132.3</ele>
        <time>2020-06-08T14:24:48Z</time>
      </trkpt>
      <trkpt lat="48.28453" lon="-4.13255">
        <ele>131.9</ele>
        <time>2020-06-08T14:24:49Z</time>
      </trkpt>
      <trkpt lat="48.2845" lon="-4.1327">
        <ele>131.5</ele>
        <time>2020-06-08T14:24:50Z</time>
      </trkpt>
      <trkpt lat="48.28446" lon="-4.13285">
        <ele>131.1</ele>
        <time>2020-06-08T14:24:51Z</time>
      </trkpt>
      <trkpt lat="48.28442" lon="-4.13299">
        <ele>130.6</ele>
        <time>2020-06-08T14:24:52Z</time>
      </trkpt>
      <trkpt lat="48.28439" lon="-4.13314">
        <ele>130.2</ele>
        <time>2020-06-08T14:24:53Z</time>
      </trkpt>
      <trkpt lat="48.28436" lon="-4.13328">
        <ele>129.8</ele>
        <time>2020-06-08T14:24:54Z</time>
      </trkpt>
      <trkpt lat="48.28433" lon="-4.13342">
        <ele>129.4</ele>
        <time>2020-06-08T14:24:55Z</time>
      </trkpt>
      <trkpt lat="48.28431" lon="-4.13356">
        <ele>128.9</ele>
        <time>2020-06-08T14:24:56Z</time>
      </trkpt>
      <trkpt lat="48.28428" lon="-4.13371">
        <ele>128.5</ele>
        <time>2020-06-08T14:24:57Z</time>
      </trkpt>
      <trkpt lat="48.28427" lon="-4.13386">
        <ele>128</ele>
        <time>2020-06-08T14:24:58Z</time>
      </trkpt>
      <trkpt lat="48.28425" lon="-4.13401">
        <ele>127.6</ele>
        <time>2020-06-08T14:24:59Z</time>
      </trkpt>
      <trkpt lat="48.28424" lon="-4.13416">
        <ele>127.2</ele>
        <time>2020-06-08T14:25:00Z</time>
      </trkpt>
      <trkpt lat="48.28423" lon="-4.13431">
        <ele>126.8</ele>
        <time>2020-06-08T14:25:01Z</time>
      </trkpt>
      <trkpt lat="48.28422" lon="-4.13446">
        <ele>126.4</ele>
        <time>2020-06-08T14:25:02Z</time>
      </trkpt>
      <trkpt lat="48.28423" lon="-4.13461">
        <ele>125.9</ele>
        <time>2020-06-08T14:25:03Z</time>
      </trkpt>
      <trkpt lat="48.28423" lon="-4.13476">
        <ele>125.5</ele>
        <time>2020-06-08T14:25:04Z</time>
      </trkpt>
      <trkpt lat="48.28423" lon="-4.13491">
        <ele>125.1</ele>
        <time>2020-06-08T14:25:05Z</time>
      </trkpt>
      <trkpt lat="48.28424" lon="-4.13505">
        <ele>124.7</ele>
        <time>2020-06-08T14:25:06Z</time>
      </trkpt>
      <trkpt lat="48.28425" lon="-4.1352">
        <ele>124.3</ele>
        <time>2020-06-08T14:25:07Z</time>
      </trkpt>
      <trkpt lat="48.28426" lon="-4.13535">
        <ele>123.9</ele>
        <time>2020-06-08T14:25:08Z</time>
      </trkpt>
      <trkpt lat="48.28428" lon="-4.1355">
        <ele>123.6</ele>
        <time>2020-06-08T14:25:09Z</time>
      </trkpt>
      <trkpt lat="48.28429" lon="-4.13564">
        <ele>123.2</ele>
        <time>2020-06-08T14:25:10Z</time>
      </trkpt>
      <trkpt lat="48.28431" lon="-4.13579">
        <ele>122.8</ele>
        <time>2020-06-08T14:25:11Z</time>
      </trkpt>
      <trkpt lat="48.28432" lon="-4.13593">
        <ele>122.4</ele>
        <time>2020-06-08T14:25:12Z</time>
      </trkpt>
      <trkpt lat="48.28433" lon="-4.13608">
        <ele>122</ele>
        <time>2020-06-08T14:25:13Z</time>
      </trkpt>
      <trkpt lat="48.28435" lon="-4.13622">
        <ele>121.7</ele>
        <time>2020-06-08T14:25:14Z</time>
      </trkpt>
      <trkpt lat="48.28436" lon="-4.13637">
        <ele>121.3</ele>
        <time>2020-06-08T14:25:15Z</time>
      </trkpt>
      <trkpt lat="48.28439" lon="-4.13652">
        <ele>120.9</ele>
        <time>2020-06-08T14:25:16Z</time>
      </trkpt>
      <trkpt lat="48.28441" lon="-4.13668">
        <ele>120.5</ele>
        <time>2020-06-08T14:25:17Z</time>
      </trkpt>
      <trkpt lat="48.28443" lon="-4.13684">
        <ele>120</ele>
        <time>2020-06-08T14:25:18Z</time>
      </trkpt>
      <trkpt lat="48.28445" lon="-4.137">
        <ele>119.6</ele>
        <time>2020-06-08T14:25:19Z</time>
      </trkpt>
      <trkpt lat="48.28447" lon="-4.13717">
        <ele>119.2</ele>
        <time>2020-06-08T14:25:20Z</time>
      </trkpt>
      <trkpt lat="48.28448" lon="-4.13733">
        <ele>118.8</ele>
        <time>2020-06-08T14:25:21Z</time>
      </trkpt>
      <trkpt lat="48.2845" lon="-4.1375">
        <ele>118.4</ele>
        <time>2020-06-08T14:25:22Z</time>
      </trkpt>
      <trkpt lat="48.28451" lon="-4.13767">
        <ele>117.9</ele>
        <time>2020-06-08T14:25:23Z</time>
      </trkpt>
      <trkpt lat="48.28453" lon="-4.13783">
        <ele>117.5</ele>
        <time>2020-06-08T14:25:24Z</time>
      </trkpt>
      <trkpt lat="48.28456" lon="-4.13799">
        <ele>117.1</ele>
        <time>2020-06-08T14:25:25Z</time>
      </trkpt>
      <trkpt lat="48.28458" lon="-4.13816">
        <ele>116.7</ele>
        <time>2020-06-08T14:25:26Z</time>
      </trkpt>
      <trkpt lat="48.2846" lon="-4.13833">
        <ele>116.3</ele>
        <time>2020-06-08T14:25:27Z</time>
      </trkpt>
      <trkpt lat="48.28462" lon="-4.13849">
        <ele>115.9</ele>
        <time>2020-06-08T14:25:28Z</time>
      </trkpt>
      <trkpt lat="48.28464" lon="-4.13865">
        <ele>115.5</ele>
        <time>2020-06-08T14:25:29Z</time>
      </trkpt>
      <trkpt lat="48.28465" lon="-4.13881">
        <ele>115.1</ele>
        <time>2020-06-08T14:25:30Z</time>
      </trkpt>
      <trkpt lat="48.28466" lon="-4.13896">
        <ele>114.8</ele>
        <time>2020-06-08T14:25:31Z</time>
      </trkpt>
      <trkpt lat="48.28466" lon="-4.13913">
        <ele>114.4</ele>
        <time>2020-06-08T14:25:32Z</time>
      </trkpt>
      <trkpt lat="48.28467" lon="-4.13929">
        <ele>114.1</ele>
        <time>2020-06-08T14:25:33Z</time>
      </trkpt>
      <trkpt lat="48.28468" lon="-4.13945">
        <ele>113.7</ele>
        <time>2020-06-08T14:25:34Z</time>
      </trkpt>
      <trkpt lat="48.28468" lon="-4.13961">
        <ele>113.4</ele>
        <time>2020-06-08T14:25:35Z</time>
      </trkpt>
      <trkpt lat="48.28468" lon="-4.13977">
        <ele>112.9</ele>
        <time>2020-06-08T14:25:36Z</time>
      </trkpt>
      <trkpt lat="48.28468" lon="-4.13993">
        <ele>112.5</ele>
        <time>2020-06-08T14:25:37Z</time>
      </trkpt>
      <trkpt lat="48.28467" lon="-4.14009">
        <ele>112</ele>
        <time>2020-06-08T14:25:38Z</time>
      </trkpt>
      <trkpt lat="48.28466" lon="-4.14025">
        <ele>111.6</ele>
        <time>2020-06-08T14:25:39Z</time>
      </trkpt>
      <trkpt lat="48.28464" lon="-4.14041">
        <ele>111.2</ele>
        <time>2020-06-08T14:25:40Z</time>
      </trkpt>
      <trkpt lat="48.28461" lon="-4.14057">
        <ele>110.7</ele>
        <time>2020-06-08T14:25:41Z</time>
      </trkpt>
      <trkpt lat="48.28458" lon="-4.14072">
        <ele>110.2</ele>
        <time>2020-06-08T14:25:42Z</time>
      </trkpt>
      <trkpt lat="48.28454" lon="-4.14086">
        <ele>109.8</ele>
        <time>2020-06-08T14:25:43Z</time>
      </trkpt>
      <trkpt lat="48.28451" lon="-4.14101">
        <ele>109.3</ele>
        <time>2020-06-08T14:25:44Z</time>
      </trkpt>
      <trkpt lat="48.28448" lon="-4.14115">
        <ele>108.9</ele>
        <time>2020-06-08T14:25:45Z</time>
      </trkpt>
      <trkpt lat="48.28446" lon="-4.14131">
        <ele>108.5</ele>
        <time>2020-06-08T14:25:46Z</time>
      </trkpt>
      <trkpt lat="48.28443" lon="-4.14146">
        <ele>108.1</ele>
        <time>2020-06-08T14:25:47Z</time>
      </trkpt>
      <trkpt lat="48.2844" lon="-4.14161">
        <ele>107.7</ele>
        <time>2020-06-08T14:25:48Z</time>
      </trkpt>
      <trkpt lat="48.28436" lon="-4.14176">
        <ele>107.3</ele>
        <time>2020-06-08T14:25:49Z</time>
      </trkpt>
      <trkpt lat="48.28432" lon="-4.14193">
        <ele>106.8</ele>
        <time>2020-06-08T14:25:50Z</time>
      </trkpt>
      <trkpt lat="48.28429" lon="-4.14208">
        <ele>106.3</ele>
        <time>2020-06-08T14:25:51Z</time>
      </trkpt>
      <trkpt lat="48.28425" lon="-4.14223">
        <ele>105.9</ele>
        <time>2020-06-08T14:25:52Z</time>
      </trkpt>
      <trkpt lat="48.28422" lon="-4.14239">
        <ele>105.4</ele>
        <time>2020-06-08T14:25:53Z</time>
      </trkpt>
      <trkpt lat="48.28419" lon="-4.14255">
        <ele>104.9</ele>
        <time>2020-06-08T14:25:54Z</time>
      </trkpt>
      <trkpt lat="48.28417" lon="-4.14271">
        <ele>104.5</ele>
        <time>2020-06-08T14:25:55Z</time>
      </trkpt>
      <trkpt lat="48.28417" lon="-4.14288">
        <ele>104</ele>
        <time>2020-06-08T14:25:56Z</time>
      </trkpt>
      <trkpt lat="48.28415" lon="-4.14305">
        <ele>103.5</ele>
        <time>2020-06-08T14:25:57Z</time>
      </trkpt>
      <trkpt lat="48.28415" lon="-4.14322">
        <ele>103.1</ele>
        <time>2020-06-08T14:25:58Z</time>
      </trkpt>
      <trkpt lat="48.28415" lon="-4.14339">
        <ele>102.6</ele>
        <time>2020-06-08T14:25:59Z</time>
      </trkpt>
      <trkpt lat="48.28417" lon="-4.14356">
        <ele>102.2</ele>
        <time>2020-06-08T14:26:00Z</time>
      </trkpt>
      <trkpt lat="48.28418" lon="-4.14372">
        <ele>101.8</ele>
        <time>2020-06-08T14:26:01Z</time>
      </trkpt>
      <trkpt lat="48.28419" lon="-4.14388">
        <ele>101.4</ele>
        <time>2020-06-08T14:26:02Z</time>
      </trkpt>
      <trkpt lat="48.2842" lon="-4.14404">
        <ele>101</ele>
        <time>2020-06-08T14:26:03Z</time>
      </trkpt>
      <trkpt lat="48.28421" lon="-4.14418">
        <ele>100.7</ele>
        <time>2020-06-08T14:26:04Z</time>
      </trkpt>
      <trkpt lat="48.28424" lon="-4.14433">
        <ele>100.3</ele>
        <time>2020-06-08T14:26:05Z</time>
      </trkpt>
      <trkpt lat="48.28426" lon="-4.14447">
        <ele>100</ele>
        <time>2020-06-08T14:26:06Z</time>
      </trkpt>
      <trkpt lat="48.28428" lon="-4.1446">
        <ele>99.7</ele>
        <time>2020-06-08T14:26:07Z</time>
      </trkpt>
      <trkpt lat="48.28431" lon="-4.14473">
        <ele>99.6</ele>
        <time>2020-06-08T14:26:08Z</time>
      </trkpt>
      <trkpt lat="48.28434" lon="-4.14487">
        <ele>99.1</ele>
        <time>2020-06-08T14:26:09Z</time>
      </trkpt>
      <trkpt lat="48.28436" lon="-4.145">
        <ele>98.7</ele>
        <time>2020-06-08T14:26:10Z</time>
      </trkpt>
      <trkpt lat="48.28439" lon="-4.14512">
        <ele>98.4</ele>
        <time>2020-06-08T14:26:11Z</time>
      </trkpt>
      <trkpt lat="48.28442" lon="-4.14525">
        <ele>98.1</ele>
        <time>2020-06-08T14:26:12Z</time>
      </trkpt>
      <trkpt lat="48.28445" lon="-4.14538">
        <ele>97.7</ele>
        <time>2020-06-08T14:26:13Z</time>
      </trkpt>
      <trkpt lat="48.28448" lon="-4.14551">
        <ele>97.4</ele>
        <time>2020-06-08T14:26:14Z</time>
      </trkpt>
      <trkpt lat="48.2845" lon="-4.14563">
        <ele>97.1</ele>
        <time>2020-06-08T14:26:15Z</time>
      </trkpt>
      <trkpt lat="48.28454" lon="-4.14576">
        <ele>96.7</ele>
        <time>2020-06-08T14:26:16Z</time>
      </trkpt>
      <trkpt lat="48.28458" lon="-4.14587">
        <ele>96.4</ele>
        <time>2020-06-08T14:26:17Z</time>
      </trkpt>
      <trkpt lat="48.28463" lon="-4.14598">
        <ele>96.1</ele>
        <time>2020-06-08T14:26:18Z</time>
      </trkpt>
      <trkpt lat="48.28468" lon="-4.1461">
        <ele>95.7</ele>
        <time>2020-06-08T14:26:19Z</time>
      </trkpt>
      <trkpt lat="48.28474" lon="-4.14621">
        <ele>95.4</ele>
        <time>2020-06-08T14:26:20Z</time>
      </trkpt>
      <trkpt lat="48.28479" lon="-4.14631">
        <ele>95</ele>
        <time>2020-06-08T14:26:21Z</time>
      </trkpt>
      <trkpt lat="48.28485" lon="-4.14641">
        <ele>94.6</ele>
        <time>2020-06-08T14:26:22Z</time>
      </trkpt>
      <trkpt lat="48.28491" lon="-4.14651">
        <ele>94.2</ele>
        <time>2020-06-08T14:26:23Z</time>
      </trkpt>
      <trkpt lat="48.28497" lon="-4.14661">
        <ele>93.8</ele>
        <time>2020-06-08T14:26:24Z</time>
      </trkpt>
      <trkpt lat="48.28503" lon="-4.1467">
        <ele>93.4</ele>
        <time>2020-06-08T14:26:25Z</time>
      </trkpt>
      <trkpt lat="48.28509" lon="-4.1468">
        <ele>93</ele>
        <time>2020-06-08T14:26:26Z</time>
      </trkpt>
      <trkpt lat="48.28516" lon="-4.1469">
        <ele>92.7</ele>
        <time>2020-06-08T14:26:27Z</time>
      </trkpt>
      <trkpt lat="48.28522" lon="-4.147">
        <ele>92.3</ele>
        <time>2020-06-08T14:26:28Z</time>
      </trkpt>
      <trkpt lat="48.28528" lon="-4.14709">
        <ele>91.9</ele>
        <time>2020-06-08T14:26:29Z</time>
      </trkpt>
      <trkpt lat="48.28535" lon="-4.14719">
        <ele>91.5</ele>
        <time>2020-06-08T14:26:30Z</time>
      </trkpt>
      <trkpt lat="48.28541" lon="-4.14728">
        <ele>91.1</ele>
        <time>2020-06-08T14:26:31Z</time>
      </trkpt>
      <trkpt lat="48.28547" lon="-4.14738">
        <ele>90.7</ele>
        <time>2020-06-08T14:26:32Z</time>
      </trkpt>
      <trkpt lat="48.28553" lon="-4.14748">
        <ele>90.3</ele>
        <time>2020-06-08T14:26:33Z</time>
      </trkpt>
      <trkpt lat="48.28559" lon="-4.14759">
        <ele>89.8</ele>
        <time>2020-06-08T14:26:34Z</time>
      </trkpt>
      <trkpt lat="48.28564" lon="-4.1477">
        <ele>89.4</ele>
        <time>2020-06-08T14:26:35Z</time>
      </trkpt>
      <trkpt lat="48.28569" lon="-4.14781">
        <ele>89</ele>
        <time>2020-06-08T14:26:36Z</time>
      </trkpt>
      <trkpt lat="48.28574" lon="-4.14793">
        <ele>88.7</ele>
        <time>2020-06-08T14:26:37Z</time>
      </trkpt>
      <trkpt lat="48.28578" lon="-4.14804">
        <ele>88.3</ele>
        <time>2020-06-08T14:26:38Z</time>
      </trkpt>
      <trkpt lat="48.28583" lon="-4.14816">
        <ele>87.9</ele>
        <time>2020-06-08T14:26:39Z</time>
      </trkpt>
      <trkpt lat="48.28587" lon="-4.14828">
        <ele>87.6</ele>
        <time>2020-06-08T14:26:40Z</time>
      </trkpt>
      <trkpt lat="48.2859" lon="-4.14841">
        <ele>87.2</ele>
        <time>2020-06-08T14:26:41Z</time>
      </trkpt>
      <trkpt lat="48.28593" lon="-4.14854">
        <ele>86.8</ele>
        <time>2020-06-08T14:26:42Z</time>
      </trkpt>
      <trkpt lat="48.28596" lon="-4.14867">
        <ele>86.4</ele>
        <time>2020-06-08T14:26:43Z</time>
      </trkpt>
      <trkpt lat="48.28598" lon="-4.14879">
        <ele>86</ele>
        <time>2020-06-08T14:26:44Z</time>
      </trkpt>
      <trkpt lat="48.286" lon="-4.14892">
        <ele>85.6</ele>
        <time>2020-06-08T14:26:45Z</time>
      </trkpt>
      <trkpt lat="48.28602" lon="-4.14905">
        <ele>85.1</ele>
        <time>2020-06-08T14:26:46Z</time>
      </trkpt>
      <trkpt lat="48.28603" lon="-4.14918">
        <ele>84.6</ele>
        <time>2020-06-08T14:26:47Z</time>
      </trkpt>
      <trkpt lat="48.28604" lon="-4.14931">
        <ele>84.1</ele>
        <time>2020-06-08T14:26:48Z</time>
      </trkpt>
      <trkpt lat="48.28604" lon="-4.14945">
        <ele>83.6</ele>
        <time>2020-06-08T14:26:49Z</time>
      </trkpt>
      <trkpt lat="48.28604" lon="-4.14959">
        <ele>83.2</ele>
        <time>2020-06-08T14:26:50Z</time>
      </trkpt>
      <trkpt lat="48.28604" lon="-4.14973">
        <ele>82.7</ele>
        <time>2020-06-08T14:26:51Z</time>
      </trkpt>
      <trkpt lat="48.28603" lon="-4.14988">
        <ele>82.1</ele>
        <time>2020-06-08T14:26:52Z</time>
      </trkpt>
      <trkpt lat="48.28602" lon="-4.15002">
        <ele>81.6</ele>
        <time>2020-06-08T14:26:53Z</time>
      </trkpt>
      <trkpt lat="48.28601" lon="-4.15017">
        <ele>81</ele>
        <time>2020-06-08T14:26:54Z</time>
      </trkpt>
      <trkpt lat="48.28598" lon="-4.15031">
        <ele>80.5</ele>
        <time>2020-06-08T14:26:55Z</time>
      </trkpt>
      <trkpt lat="48.28596" lon="-4.15046">
        <ele>80</ele>
        <time>2020-06-08T14:26:56Z</time>
      </trkpt>
      <trkpt lat="48.28593" lon="-4.1506">
        <ele>79.4</ele>
        <time>2020-06-08T14:26:57Z</time>
      </trkpt>
      <trkpt lat="48.2859" lon="-4.15074">
        <ele>78.9</ele>
        <time>2020-06-08T14:26:58Z</time>
      </trkpt>
      <trkpt lat="48.28586" lon="-4.15088">
        <ele>78.5</ele>
        <time>2020-06-08T14:26:59Z</time>
      </trkpt>
      <trkpt lat="48.28583" lon="-4.15101">
        <ele>78.2</ele>
        <time>2020-06-08T14:27:00Z</time>
      </trkpt>
      <trkpt lat="48.28579" lon="-4.15115">
        <ele>77.9</ele>
        <time>2020-06-08T14:27:01Z</time>
      </trkpt>
      <trkpt lat="48.28575" lon="-4.15128">
        <ele>77.4</ele>
        <time>2020-06-08T14:27:02Z</time>
      </trkpt>
      <trkpt lat="48.2857" lon="-4.15142">
        <ele>77</ele>
        <time>2020-06-08T14:27:03Z</time>
      </trkpt>
      <trkpt lat="48.28566" lon="-4.15156">
        <ele>76.4</ele>
        <time>2020-06-08T14:27:04Z</time>
      </trkpt>
      <trkpt lat="48.28563" lon="-4.1517">
        <ele>75.9</ele>
        <time>2020-06-08T14:27:05Z</time>
      </trkpt>
      <trkpt lat="48.2856" lon="-4.15185">
        <ele>75.4</ele>
        <time>2020-06-08T14:27:06Z</time>
      </trkpt>
      <trkpt lat="48.28557" lon="-4.152">
        <ele>74.8</ele>
        <time>2020-06-08T14:27:07Z</time>
      </trkpt>
      <trkpt lat="48.28554" lon="-4.15215">
        <ele>74.3</ele>
        <time>2020-06-08T14:27:08Z</time>
      </trkpt>
      <trkpt lat="48.28551" lon="-4.1523">
        <ele>73.8</ele>
        <time>2020-06-08T14:27:09Z</time>
      </trkpt>
      <trkpt lat="48.28549" lon="-4.15245">
        <ele>73.5</ele>
        <time>2020-06-08T14:27:10Z</time>
      </trkpt>
      <trkpt lat="48.28549" lon="-4.1526">
        <ele>73</ele>
        <time>2020-06-08T14:27:11Z</time>
      </trkpt>
      <trkpt lat="48.28549" lon="-4.15276">
        <ele>72.6</ele>
        <time>2020-06-08T14:27:12Z</time>
      </trkpt>
      <trkpt lat="48.28549" lon="-4.15292">
        <ele>72.1</ele>
        <time>2020-06-08T14:27:13Z</time>
      </trkpt>
      <trkpt lat="48.28549" lon="-4.15307">
        <ele>71.7</ele>
        <time>2020-06-08T14:27:14Z</time>
      </trkpt>
      <trkpt lat="48.2855" lon="-4.15323">
        <ele>71.5</ele>
        <time>2020-06-08T14:27:15Z</time>
      </trkpt>
      <trkpt lat="48.28551" lon="-4.15338">
        <ele>71.1</ele>
        <time>2020-06-08T14:27:16Z</time>
      </trkpt>
      <trkpt lat="48.28552" lon="-4.15354">
        <ele>70.7</ele>
        <time>2020-06-08T14:27:17Z</time>
      </trkpt>
      <trkpt lat="48.28554" lon="-4.15369">
        <ele>70.3</ele>
        <time>2020-06-08T14:27:18Z</time>
      </trkpt>
      <trkpt lat="48.28556" lon="-4.15385">
        <ele>69.9</ele>
        <time>2020-06-08T14:27:19Z</time>
      </trkpt>
      <trkpt lat="48.28559" lon="-4.154">
        <ele>69.6</ele>
        <time>2020-06-08T14:27:20Z</time>
      </trkpt>
      <trkpt lat="48.28562" lon="-4.15414">
        <ele>69.2</ele>
        <time>2020-06-08T14:27:21Z</time>
      </trkpt>
      <trkpt lat="48.28566" lon="-4.15428">
        <ele>69</ele>
        <time>2020-06-08T14:27:22Z</time>
      </trkpt>
      <trkpt lat="48.28571" lon="-4.15442">
        <ele>68.5</ele>
        <time>2020-06-08T14:27:23Z</time>
      </trkpt>
      <trkpt lat="48.28576" lon="-4.15455">
        <ele>68</ele>
        <time>2020-06-08T14:27:24Z</time>
      </trkpt>
      <trkpt lat="48.28581" lon="-4.15469">
        <ele>67.4</ele>
        <time>2020-06-08T14:27:25Z</time>
      </trkpt>
      <trkpt lat="48.28586" lon="-4.15482">
        <ele>67</ele>
        <time>2020-06-08T14:27:26Z</time>
      </trkpt>
      <trkpt lat="48.28592" lon="-4.15495">
        <ele>66.5</ele>
        <time>2020-06-08T14:27:27Z</time>
      </trkpt>
      <trkpt lat="48.28597" lon="-4.15507">
        <ele>66</ele>
        <time>2020-06-08T14:27:28Z</time>
      </trkpt>
      <trkpt lat="48.28603" lon="-4.15519">
        <ele>65.5</ele>
        <time>2020-06-08T14:27:29Z</time>
      </trkpt>
      <trkpt lat="48.2861" lon="-4.15531">
        <ele>65</ele>
        <time>2020-06-08T14:27:30Z</time>
      </trkpt>
      <trkpt lat="48.28616" lon="-4.15543">
        <ele>64.6</ele>
        <time>2020-06-08T14:27:31Z</time>
      </trkpt>
      <trkpt lat="48.28623" lon="-4.15555">
        <ele>64.2</ele>
        <time>2020-06-08T14:27:32Z</time>
      </trkpt>
      <trkpt lat="48.28629" lon="-4.15567">
        <ele>63.8</ele>
        <time>2020-06-08T14:27:33Z</time>
      </trkpt>
      <trkpt lat="48.28635" lon="-4.15579">
        <ele>63.4</ele>
        <time>2020-06-08T14:27:34Z</time>
      </trkpt>
      <trkpt lat="48.28641" lon="-4.15591">
        <ele>63.1</ele>
        <time>2020-06-08T14:27:35Z</time>
      </trkpt>
      <trkpt lat="48.28647" lon="-4.15603">
        <ele>62.8</ele>
        <time>2020-06-08T14:27:36Z</time>
      </trkpt>
      <trkpt lat="48.28653" lon="-4.15615">
        <ele>62.6</ele>
        <time>2020-06-08T14:27:37Z</time>
      </trkpt>
      <trkpt lat="48.28658" lon="-4.15627">
        <ele>62.4</ele>
        <time>2020-06-08T14:27:38Z</time>
      </trkpt>
      <trkpt lat="48.28663" lon="-4.15639">
        <ele>62.3</ele>
        <time>2020-06-08T14:27:39Z</time>
      </trkpt>
      <trkpt lat="48.28668" lon="-4.15651">
        <ele>62.2</ele>
        <time>2020-06-08T14:27:40Z</time>
      </trkpt>
      <trkpt lat="48.28673" lon="-4.15662">
        <ele>62.1</ele>
        <time>2020-06-08T14:27:41Z</time>
      </trkpt>
      <trkpt lat="48.28677" lon="-4.15673">
        <ele>62</ele>
        <time>2020-06-08T14:27:42Z</time>
      </trkpt>
      <trkpt lat="48.28681" lon="-4.15684">
        <ele>61.9</ele>
        <time>2020-06-08T14:27:43Z</time>
      </trkpt>
      <trkpt lat="48.28686" lon="-4.15694">
        <ele>61.7</ele>
        <time>2020-06-08T14:27:44Z</time>
      </trkpt>
      <trkpt lat="48.28689" lon="-4.15705">
        <ele>61.7</ele>
        <time>2020-06-08T14:27:45Z</time>
      </trkpt>
      <trkpt lat="48.28694" lon="-4.15715">
        <ele>61.9</ele>
        <time>2020-06-08T14:27:46Z</time>
      </trkpt>
      <trkpt lat="48.28698" lon="-4.15725">
        <ele>61.9</ele>
        <time>2020-06-08T14:27:47Z</time>
      </trkpt>
      <trkpt lat="48.28702" lon="-4.15735">
        <ele>61.8</ele>
        <time>2020-06-08T14:27:48Z</time>
      </trkpt>
      <trkpt lat="48.28704" lon="-4.15746">
        <ele>61.8</ele>
        <time>2020-06-08T14:27:49Z</time>
      </trkpt>
      <trkpt lat="48.28707" lon="-4.15757">
        <ele>61.8</ele>
        <time>2020-06-08T14:27:50Z</time>
      </trkpt>
      <trkpt lat="48.2871" lon="-4.15767">
        <ele>61.9</ele>
        <time>2020-06-08T14:27:51Z</time>
      </trkpt>
      <trkpt lat="48.28713" lon="-4.15777">
        <ele>61.9</ele>
        <time>2020-06-08T14:27:52Z</time>
      </trkpt>
      <trkpt lat="48.28715" lon="-4.15788">
        <ele>61.9</ele>
        <time>2020-06-08T14:27:53Z</time>
      </trkpt>
      <trkpt lat="48.28719" lon="-4.15797">
        <ele>61.9</ele>
        <time>2020-06-08T14:27:54Z</time>
      </trkpt>
      <trkpt lat="48.28723" lon="-4.15806">
        <ele>61.9</ele>
        <time>2020-06-08T14:27:55Z</time>
      </trkpt>
      <trkpt lat="48.28727" lon="-4.15816">
        <ele>61.9</ele>
        <time>2020-06-08T14:27:56Z</time>
      </trkpt>
      <trkpt lat="48.28729" lon="-4.15826">
        <ele>61.8</ele>
        <time>2020-06-08T14:27:57Z</time>
      </trkpt>
      <trkpt lat="48.28732" lon="-4.15835">
        <ele>61.8</ele>
        <time>2020-06-08T14:27:58Z</time>
      </trkpt>
      <trkpt lat="48.28735" lon="-4.15844">
        <ele>61.7</ele>
        <time>2020-06-08T14:27:59Z</time>
      </trkpt>
      <trkpt lat="48.28738" lon="-4.15853">
        <ele>61.6</ele>
        <time>2020-06-08T14:28:00Z</time>
      </trkpt>
      <trkpt lat="48.2874" lon="-4.15861">
        <ele>61.5</ele>
        <time>2020-06-08T14:28:01Z</time>
      </trkpt>
      <trkpt lat="48.28743" lon="-4.1587">
        <ele>61.4</ele>
        <time>2020-06-08T14:28:02Z</time>
      </trkpt>
      <trkpt lat="48.28745" lon="-4.15879">
        <ele>61.3</ele>
        <time>2020-06-08T14:28:03Z</time>
      </trkpt>
      <trkpt lat="48.28748" lon="-4.15887">
        <ele>61.1</ele>
        <time>2020-06-08T14:28:04Z</time>
      </trkpt>
      <trkpt lat="48.2875" lon="-4.15896">
        <ele>61</ele>
        <time>2020-06-08T14:28:05Z</time>
      </trkpt>
      <trkpt lat="48.28752" lon="-4.15904">
        <ele>60.8</ele>
        <time>2020-06-08T14:28:06Z</time>
      </trkpt>
      <trkpt lat="48.28754" lon="-4.15913">
        <ele>60.6</ele>
        <time>2020-06-08T14:28:07Z</time>
      </trkpt>
      <trkpt lat="48.28758" lon="-4.15921">
        <ele>60.4</ele>
        <time>2020-06-08T14:28:08Z</time>
      </trkpt>
      <trkpt lat="48.28761" lon="-4.15929">
        <ele>60.1</ele>
        <time>2020-06-08T14:28:09Z</time>
      </trkpt>
      <trkpt lat="48.28764" lon="-4.15938">
        <ele>59.9</ele>
        <time>2020-06-08T14:28:10Z</time>
      </trkpt>
      <trkpt lat="48.28767" lon="-4.15947">
        <ele>59.6</ele>
        <time>2020-06-08T14:28:11Z</time>
      </trkpt>
      <trkpt lat="48.28769" lon="-4.15957">
        <ele>59.2</ele>
        <time>2020-06-08T14:28:12Z</time>
      </trkpt>
      <trkpt lat="48.28772" lon="-4.15966">
        <ele>58.9</ele>
        <time>2020-06-08T14:28:13Z</time>
      </trkpt>
      <trkpt lat="48.28774" lon="-4.15976">
        <ele>58.5</ele>
        <time>2020-06-08T14:28:14Z</time>
      </trkpt>
      <trkpt lat="48.28778" lon="-4.15986">
        <ele>58.2</ele>
        <time>2020-06-08T14:28:15Z</time>
      </trkpt>
      <trkpt lat="48.28781" lon="-4.15996">
        <ele>57.8</ele>
        <time>2020-06-08T14:28:16Z</time>
      </trkpt>
      <trkpt lat="48.28784" lon="-4.16006">
        <ele>57.4</ele>
        <time>2020-06-08T14:28:17Z</time>
      </trkpt>
      <trkpt lat="48.28788" lon="-4.16016">
        <ele>57</ele>
        <time>2020-06-08T14:28:18Z</time>
      </trkpt>
      <trkpt lat="48.28791" lon="-4.16026">
        <ele>56.6</ele>
        <time>2020-06-08T14:28:19Z</time>
      </trkpt>
      <trkpt lat="48.28795" lon="-4.16037">
        <ele>56.2</ele>
        <time>2020-06-08T14:28:20Z</time>
      </trkpt>
      <trkpt lat="48.28799" lon="-4.16048">
        <ele>55.8</ele>
        <time>2020-06-08T14:28:21Z</time>
      </trkpt>
      <trkpt lat="48.28802" lon="-4.16059">
        <ele>55.4</ele>
        <time>2020-06-08T14:28:22Z</time>
      </trkpt>
      <trkpt lat="48.28806" lon="-4.1607">
        <ele>55.1</ele>
        <time>2020-06-08T14:28:23Z</time>
      </trkpt>
      <trkpt lat="48.2881" lon="-4.16081">
        <ele>54.8</ele>
        <time>2020-06-08T14:28:24Z</time>
      </trkpt>
      <trkpt lat="48.28815" lon="-4.16093">
        <ele>54.6</ele>
        <time>2020-06-08T14:28:25Z</time>
      </trkpt>
      <trkpt lat="48.28819" lon="-4.16104">
        <ele>54.5</ele>
        <time>2020-06-08T14:28:26Z</time>
      </trkpt>
      <trkpt lat="48.28824" lon="-4.16114">
        <ele>54.3</ele>
        <time>2020-06-08T14:28:27Z</time>
      </trkpt>
      <trkpt lat="48.28829" lon="-4.16124">
        <ele>54.2</ele>
        <time>2020-06-08T14:28:28Z</time>
      </trkpt>
      <trkpt lat="48.28835" lon="-4.16134">
        <ele>54</ele>
        <time>2020-06-08T14:28:29Z</time>
      </trkpt>
      <trkpt lat="48.2884" lon="-4.16143">
        <ele>53.9</ele>
        <time>2020-06-08T14:28:30Z</time>
      </trkpt>
      <trkpt lat="48.28846" lon="-4.1615">
        <ele>53.8</ele>
        <time>2020-06-08T14:28:31Z</time>
      </trkpt>
      <trkpt lat="48.28852" lon="-4.16157">
        <ele>53.6</ele>
        <time>2020-06-08T14:28:32Z</time>
      </trkpt>
      <trkpt lat="48.28859" lon="-4.16161">
        <ele>53.5</ele>
        <time>2020-06-08T14:28:33Z</time>
      </trkpt>
      <trkpt lat="48.28866" lon="-4.16166">
        <ele>53.3</ele>
        <time>2020-06-08T14:28:34Z</time>
      </trkpt>
      <trkpt lat="48.28872" lon="-4.16172">
        <ele>53.1</ele>
        <time>2020-06-08T14:28:35Z</time>
      </trkpt>
      <trkpt lat="48.28878" lon="-4.16178">
        <ele>53</ele>
        <time>2020-06-08T14:28:36Z</time>
      </trkpt>
      <trkpt lat="48.28884" lon="-4.16184">
        <ele>52.7</ele>
        <time>2020-06-08T14:28:37Z</time>
      </trkpt>
      <trkpt lat="48.2889" lon="-4.1619">
        <ele>52.5</ele>
        <time>2020-06-08T14:28:38Z</time>
      </trkpt>
      <trkpt lat="48.28895" lon="-4.16196">
        <ele>52.3</ele>
        <time>2020-06-08T14:28:39Z</time>
      </trkpt>
      <trkpt lat="48.289" lon="-4.16202">
        <ele>52</ele>
        <time>2020-06-08T14:28:40Z</time>
      </trkpt>
      <trkpt lat="48.28906" lon="-4.16209">
        <ele>51.8</ele>
        <time>2020-06-08T14:28:41Z</time>
      </trkpt>
      <trkpt lat="48.28911" lon="-4.16217">
        <ele>51.5</ele>
        <time>2020-06-08T14:28:42Z</time>
      </trkpt>
      <trkpt lat="48.28916" lon="-4.16224">
        <ele>51.2</ele>
        <time>2020-06-08T14:28:43Z</time>
      </trkpt>
      <trkpt lat="48.28921" lon="-4.1623">
        <ele>50.9</ele>
        <time>2020-06-08T14:28:44Z</time>
      </trkpt>
      <trkpt lat="48.28927" lon="-4.16237">
        <ele>50.6</ele>
        <time>2020-06-08T14:28:45Z</time>
      </trkpt>
      <trkpt lat="48.28932" lon="-4.16245">
        <ele>50.3</ele>
        <time>2020-06-08T14:28:46Z</time>
      </trkpt>
      <trkpt lat="48.28938" lon="-4.16251">
        <ele>50</ele>
        <time>2020-06-08T14:28:47Z</time>
      </trkpt>
      <trkpt lat="48.28943" lon="-4.1626">
        <ele>49.6</ele>
        <time>2020-06-08T14:28:48Z</time>
      </trkpt>
      <trkpt lat="48.28948" lon="-4.16269">
        <ele>49.2</ele>
        <time>2020-06-08T14:28:49Z</time>
      </trkpt>
      <trkpt lat="48.28953" lon="-4.16278">
        <ele>48.7</ele>
        <time>2020-06-08T14:28:50Z</time>
      </trkpt>
      <trkpt lat="48.28958" lon="-4.16288">
        <ele>48.3</ele>
        <time>2020-06-08T14:28:51Z</time>
      </trkpt>
      <trkpt lat="48.28962" lon="-4.16298">
        <ele>47.8</ele>
        <time>2020-06-08T14:28:52Z</time>
      </trkpt>
      <trkpt lat="48.28967" lon="-4.16308">
        <ele>47.3</ele>
        <time>2020-06-08T14:28:53Z</time>
      </trkpt>
      <trkpt lat="48.28972" lon="-4.16319">
        <ele>46.9</ele>
        <time>2020-06-08T14:28:54Z</time>
      </trkpt>
      <trkpt lat="48.28976" lon="-4.1633">
        <ele>46.4</ele>
        <time>2020-06-08T14:28:55Z</time>
      </trkpt>
      <trkpt lat="48.28981" lon="-4.16342">
        <ele>45.9</ele>
        <time>2020-06-08T14:28:56Z</time>
      </trkpt>
      <trkpt lat="48.28985" lon="-4.16354">
        <ele>45.3</ele>
        <time>2020-06-08T14:28:57Z</time>
      </trkpt>
      <trkpt lat="48.28989" lon="-4.16366">
        <ele>44.8</ele>
        <time>2020-06-08T14:28:58Z</time>
      </trkpt>
      <trkpt lat="48.28993" lon="-4.16379">
        <ele>44.3</ele>
        <time>2020-06-08T14:28:59Z</time>
      </trkpt>
      <trkpt lat="48.28996" lon="-4.16392">
        <ele>43.8</ele>
        <time>2020-06-08T14:29:00Z</time>
      </trkpt>
      <trkpt lat="48.28999" lon="-4.16406">
        <ele>43.3</ele>
        <time>2020-06-08T14:29:01Z</time>
      </trkpt>
      <trkpt lat="48.29002" lon="-4.1642">
        <ele>42.7</ele>
        <time>2020-06-08T14:29:02Z</time>
      </trkpt>
      <trkpt lat="48.29005" lon="-4.16434">
        <ele>42.2</ele>
        <time>2020-06-08T14:29:03Z</time>
      </trkpt>
      <trkpt lat="48.29008" lon="-4.16448">
        <ele>41.6</ele>
        <time>2020-06-08T14:29:04Z</time>
      </trkpt>
      <trkpt lat="48.2901" lon="-4.16463">
        <ele>41.1</ele>
        <time>2020-06-08T14:29:05Z</time>
      </trkpt>
      <trkpt lat="48.29012" lon="-4.16479">
        <ele>40.4</ele>
        <time>2020-06-08T14:29:06Z</time>
      </trkpt>
      <trkpt lat="48.29014" lon="-4.16494">
        <ele>39.8</ele>
        <time>2020-06-08T14:29:07Z</time>
      </trkpt>
      <trkpt lat="48.29017" lon="-4.16508">
        <ele>39.2</ele>
        <time>2020-06-08T14:29:08Z</time>
      </trkpt>
      <trkpt lat="48.2902" lon="-4.16523">
        <ele>38.6</ele>
        <time>2020-06-08T14:29:09Z</time>
      </trkpt>
      <trkpt lat="48.29023" lon="-4.16538">
        <ele>38.1</ele>
        <time>2020-06-08T14:29:10Z</time>
      </trkpt>
      <trkpt lat="48.29025" lon="-4.16553">
        <ele>37.5</ele>
        <time>2020-06-08T14:29:11Z</time>
      </trkpt>
      <trkpt lat="48.29027" lon="-4.16568">
        <ele>36.9</ele>
        <time>2020-06-08T14:29:12Z</time>
      </trkpt>
      <trkpt lat="48.2903" lon="-4.16584">
        <ele>36.2</ele>
        <time>2020-06-08T14:29:13Z</time>
      </trkpt>
      <trkpt lat="48.29033" lon="-4.16599">
        <ele>35.6</ele>
        <time>2020-06-08T14:29:14Z</time>
      </trkpt>
      <trkpt lat="48.29036" lon="-4.16614">
        <ele>35</ele>
        <time>2020-06-08T14:29:15Z</time>
      </trkpt>
      <trkpt lat="48.29037" lon="-4.1663">
        <ele>34.4</ele>
        <time>2020-06-08T14:29:16Z</time>
      </trkpt>
      <trkpt lat="48.29039" lon="-4.16646">
        <ele>33.8</ele>
        <time>2020-06-08T14:29:17Z</time>
      </trkpt>
      <trkpt lat="48.29042" lon="-4.16662">
        <ele>33.2</ele>
        <time>2020-06-08T14:29:18Z</time>
      </trkpt>
      <trkpt lat="48.29045" lon="-4.16677">
        <ele>32.6</ele>
        <time>2020-06-08T14:29:19Z</time>
      </trkpt>
      <trkpt lat="48.29047" lon="-4.16693">
        <ele>31.9</ele>
        <time>2020-06-08T14:29:20Z</time>
      </trkpt>
      <trkpt lat="48.2905" lon="-4.16709">
        <ele>31.3</ele>
        <time>2020-06-08T14:29:21Z</time>
      </trkpt>
      <trkpt lat="48.29053" lon="-4.16725">
        <ele>30.6</ele>
        <time>2020-06-08T14:29:22Z</time>
      </trkpt>
      <trkpt lat="48.29055" lon="-4.1674">
        <ele>30</ele>
        <time>2020-06-08T14:29:23Z</time>
      </trkpt>
      <trkpt lat="48.29058" lon="-4.16756">
        <ele>29.3</ele>
        <time>2020-06-08T14:29:24Z</time>
      </trkpt>
      <trkpt lat="48.2906" lon="-4.16772">
        <ele>28.7</ele>
        <time>2020-06-08T14:29:25Z</time>
      </trkpt>
      <trkpt lat="48.29063" lon="-4.16788">
        <ele>28.1</ele>
        <time>2020-06-08T14:29:26Z</time>
      </trkpt>
      <trkpt lat="48.29066" lon="-4.16804">
        <ele>27.6</ele>
        <time>2020-06-08T14:29:27Z</time>
      </trkpt>
      <trkpt lat="48.29069" lon="-4.1682">
        <ele>27.3</ele>
        <time>2020-06-08T14:29:28Z</time>
      </trkpt>
      <trkpt lat="48.29072" lon="-4.16835">
        <ele>26.9</ele>
        <time>2020-06-08T14:29:29Z</time>
      </trkpt>
      <trkpt lat="48.29074" lon="-4.16851">
        <ele>26.6</ele>
        <time>2020-06-08T14:29:30Z</time>
      </trkpt>
      <trkpt lat="48.29076" lon="-4.16867">
        <ele>26.3</ele>
        <time>2020-06-08T14:29:31Z</time>
      </trkpt>
      <trkpt lat="48.29079" lon="-4.16883">
        <ele>26</ele>
        <time>2020-06-08T14:29:32Z</time>
      </trkpt>
      <trkpt lat="48.29082" lon="-4.16899">
        <ele>25.7</ele>
        <time>2020-06-08T14:29:33Z</time>
      </trkpt>
      <trkpt lat="48.29084" lon="-4.16914">
        <ele>25.5</ele>
        <time>2020-06-08T14:29:34Z</time>
      </trkpt>
      <trkpt lat="48.29087" lon="-4.1693">
        <ele>25.3</ele>
        <time>2020-06-08T14:29:35Z</time>
      </trkpt>
      <trkpt lat="48.2909" lon="-4.16944">
        <ele>25.1</ele>
        <time>2020-06-08T14:29:36Z</time>
      </trkpt>
      <trkpt lat="48.29092" lon="-4.16959">
        <ele>24.9</ele>
        <time>2020-06-08T14:29:37Z</time>
      </trkpt>
      <trkpt lat="48.29095" lon="-4.16974">
        <ele>24.7</ele>
        <time>2020-06-08T14:29:38Z</time>
      </trkpt>
      <trkpt lat="48.29097" lon="-4.16988">
        <ele>24.6</ele>
        <time>2020-06-08T14:29:39Z</time>
      </trkpt>
      <trkpt lat="48.29099" lon="-4.17002">
        <ele>24.4</ele>
        <time>2020-06-08T14:29:40Z</time>
      </trkpt>
      <trkpt lat="48.29101" lon="-4.17016">
        <ele>24.3</ele>
        <time>2020-06-08T14:29:41Z</time>
      </trkpt>
      <trkpt lat="48.29103" lon="-4.17029">
        <ele>23.9</ele>
        <time>2020-06-08T14:29:42Z</time>
      </trkpt>
      <trkpt lat="48.29105" lon="-4.17042">
        <ele>23.4</ele>
        <time>2020-06-08T14:29:43Z</time>
      </trkpt>
      <trkpt lat="48.29108" lon="-4.17055">
        <ele>23</ele>
        <time>2020-06-08T14:29:44Z</time>
      </trkpt>
      <trkpt lat="48.29111" lon="-4.17068">
        <ele>22.6</ele>
        <time>2020-06-08T14:29:45Z</time>
      </trkpt>
      <trkpt lat="48.29114" lon="-4.17081">
        <ele>22.2</ele>
        <time>2020-06-08T14:29:46Z</time>
      </trkpt>
      <trkpt lat="48.29118" lon="-4.17094">
        <ele>21.7</ele>
        <time>2020-06-08T14:29:47Z</time>
      </trkpt>
      <trkpt lat="48.29121" lon="-4.17106">
        <ele>21.2</ele>
        <time>2020-06-08T14:29:48Z</time>
      </trkpt>
      <trkpt lat="48.29125" lon="-4.17119">
        <ele>20.8</ele>
        <time>2020-06-08T14:29:49Z</time>
      </trkpt>
      <trkpt lat="48.29129" lon="-4.17132">
        <ele>20.3</ele>
        <time>2020-06-08T14:29:50Z</time>
      </trkpt>
      <trkpt lat="48.29133" lon="-4.17144">
        <ele>19.9</ele>
        <time>2020-06-08T14:29:51Z</time>
      </trkpt>
      <trkpt lat="48.29137" lon="-4.17157">
        <ele>19.5</ele>
        <time>2020-06-08T14:29:52Z</time>
      </trkpt>
      <trkpt lat="48.2914" lon="-4.1717">
        <ele>19</ele>
        <time>2020-06-08T14:29:53Z</time>
      </trkpt>
      <trkpt lat="48.29144" lon="-4.17184">
        <ele>18.6</ele>
        <time>2020-06-08T14:29:54Z</time>
      </trkpt>
      <trkpt lat="48.29148" lon="-4.17196">
        <ele>18.2</ele>
        <time>2020-06-08T14:29:55Z</time>
      </trkpt>
      <trkpt lat="48.29152" lon="-4.17209">
        <ele>17.8</ele>
        <time>2020-06-08T14:29:56Z</time>
      </trkpt>
      <trkpt lat="48.29156" lon="-4.17222">
        <ele>17.4</ele>
        <time>2020-06-08T14:29:57Z</time>
      </trkpt>
      <trkpt lat="48.29159" lon="-4.17234">
        <ele>17.1</ele>
        <time>2020-06-08T14:29:58Z</time>
      </trkpt>
      <trkpt lat="48.29162" lon="-4.17247">
        <ele>16.7</ele>
        <time>2020-06-08T14:29:59Z</time>
      </trkpt>
      <trkpt lat="48.29166" lon="-4.17259">
        <ele>16.4</ele>
        <time>2020-06-08T14:30:00Z</time>
      </trkpt>
      <trkpt lat="48.2917" lon="-4.17271">
        <ele>16</ele>
        <time>2020-06-08T14:30:01Z</time>
      </trkpt>
      <trkpt lat="48.29175" lon="-4.17283">
        <ele>15.6</ele>
        <time>2020-06-08T14:30:02Z</time>
      </trkpt>
      <trkpt lat="48.29178" lon="-4.17296">
        <ele>15.2</ele>
        <time>2020-06-08T14:30:03Z</time>
      </trkpt>
      <trkpt lat="48.29182" lon="-4.17309">
        <ele>14.9</ele>
        <time>2020-06-08T14:30:04Z</time>
      </trkpt>
      <trkpt lat="48.29186" lon="-4.17321">
        <ele>14.6</ele>
        <time>2020-06-08T14:30:05Z</time>
      </trkpt>
      <trkpt lat="48.2919" lon="-4.17334">
        <ele>14.4</ele>
        <time>2020-06-08T14:30:06Z</time>
      </trkpt>
      <trkpt lat="48.29193" lon="-4.17347">
        <ele>14.3</ele>
        <time>2020-06-08T14:30:07Z</time>
      </trkpt>
      <trkpt lat="48.29197" lon="-4.1736">
        <ele>14.2</ele>
        <time>2020-06-08T14:30:08Z</time>
      </trkpt>
      <trkpt lat="48.29201" lon="-4.17373">
        <ele>14.1</ele>
        <time>2020-06-08T14:30:09Z</time>
      </trkpt>
      <trkpt lat="48.29206" lon="-4.17385">
        <ele>14</ele>
        <time>2020-06-08T14:30:10Z</time>
      </trkpt>
      <trkpt lat="48.2921" lon="-4.17397">
        <ele>13.9</ele>
        <time>2020-06-08T14:30:11Z</time>
      </trkpt>
      <trkpt lat="48.29214" lon="-4.1741">
        <ele>14</ele>
        <time>2020-06-08T14:30:12Z</time>
      </trkpt>
      <trkpt lat="48.29218" lon="-4.17421">
        <ele>13.9</ele>
        <time>2020-06-08T14:30:13Z</time>
      </trkpt>
      <trkpt lat="48.29223" lon="-4.17433">
        <ele>13.7</ele>
        <time>2020-06-08T14:30:14Z</time>
      </trkpt>
      <trkpt lat="48.29228" lon="-4.17443">
        <ele>13.6</ele>
        <time>2020-06-08T14:30:15Z</time>
      </trkpt>
      <trkpt lat="48.29233" lon="-4.17453">
        <ele>13.5</ele>
        <time>2020-06-08T14:30:16Z</time>
      </trkpt>
      <trkpt lat="48.29237" lon="-4.17463">
        <ele>13.4</ele>
        <time>2020-06-08T14:30:17Z</time>
      </trkpt>
      <trkpt lat="48.29242" lon="-4.17471">
        <ele>13.3</ele>
        <time>2020-06-08T14:30:18Z</time>
      </trkpt>
      <trkpt lat="48.29246" lon="-4.1748">
        <ele>13.2</ele>
        <time>2020-06-08T14:30:19Z</time>
      </trkpt>
      <trkpt lat="48.2925" lon="-4.17489">
        <ele>13.1</ele>
        <time>2020-06-08T14:30:20Z</time>
      </trkpt>
      <trkpt lat="48.29254" lon="-4.17497">
        <ele>13</ele>
        <time>2020-06-08T14:30:21Z</time>
      </trkpt>
      <trkpt lat="48.29257" lon="-4.17505">
        <ele>13</ele>
        <time>2020-06-08T14:30:22Z</time>
      </trkpt>
      <trkpt lat="48.2926" lon="-4.17514">
        <ele>12.9</ele>
        <time>2020-06-08T14:30:23Z</time>
      </trkpt>
      <trkpt lat="48.29264" lon="-4.17521">
        <ele>12.8</ele>
        <time>2020-06-08T14:30:24Z</time>
      </trkpt>
      <trkpt lat="48.29267" lon="-4.17529">
        <ele>12.7</ele>
        <time>2020-06-08T14:30:25Z</time>
      </trkpt>
      <trkpt lat="48.2927" lon="-4.17535">
        <ele>12.6</ele>
        <time>2020-06-08T14:30:26Z</time>
      </trkpt>
      <trkpt lat="48.29273" lon="-4.17542">
        <ele>12.5</ele>
        <time>2020-06-08T14:30:27Z</time>
      </trkpt>
      <trkpt lat="48.29277" lon="-4.1755">
        <ele>12.4</ele>
        <time>2020-06-08T14:30:28Z</time>
      </trkpt>
      <trkpt lat="48.2928" lon="-4.17557">
        <ele>12.3</ele>
        <time>2020-06-08T14:30:29Z</time>
      </trkpt>
      <trkpt lat="48.29282" lon="-4.17565">
        <ele>12.3</ele>
        <time>2020-06-08T14:30:30Z</time>
      </trkpt>
      <trkpt lat="48.29285" lon="-4.17572">
        <ele>12.2</ele>
        <time>2020-06-08T14:30:31Z</time>
      </trkpt>
      <trkpt lat="48.29288" lon="-4.17579">
        <ele>12.1</ele>
        <time>2020-06-08T14:30:32Z</time>
      </trkpt>
      <trkpt lat="48.29291" lon="-4.17585">
        <ele>12.1</ele>
        <time>2020-06-08T14:30:33Z</time>
      </trkpt>
      <trkpt lat="48.29294" lon="-4.17592">
        <ele>12</ele>
        <time>2020-06-08T14:30:34Z</time>
      </trkpt>
      <trkpt lat="48.29297" lon="-4.17598">
        <ele>12</ele>
        <time>2020-06-08T14:30:35Z</time>
      </trkpt>
      <trkpt lat="48.29302" lon="-4.17603">
        <ele>12</ele>
        <time>2020-06-08T14:30:36Z</time>
      </trkpt>
      <trkpt lat="48.29305" lon="-4.17609">
        <ele>11.9</ele>
        <time>2020-06-08T14:30:37Z</time>
      </trkpt>
      <trkpt lat="48.29309" lon="-4.17614">
        <ele>11.9</ele>
        <time>2020-06-08T14:30:38Z</time>
      </trkpt>
      <trkpt lat="48.29312" lon="-4.1762">
        <ele>11.9</ele>
        <time>2020-06-08T14:30:39Z</time>
      </trkpt>
      <trkpt lat="48.29314" lon="-4.17625">
        <ele>11.9</ele>
        <time>2020-06-08T14:30:40Z</time>
      </trkpt>
      <trkpt lat="48.29316" lon="-4.17631">
        <ele>11.8</ele>
        <time>2020-06-08T14:30:41Z</time>
      </trkpt>
      <trkpt lat="48.29318" lon="-4.17636">
        <ele>11.8</ele>
        <time>2020-06-08T14:30:42Z</time>
      </trkpt>
      <trkpt lat="48.29321" lon="-4.17642">
        <ele>11.8</ele>
        <time>2020-06-08T14:30:43Z</time>
      </trkpt>
      <trkpt lat="48.29323" lon="-4.17647">
        <ele>11.7</ele>
        <time>2020-06-08T14:30:44Z</time>
      </trkpt>
      <trkpt lat="48.29326" lon="-4.17652">
        <ele>11.7</ele>
        <time>2020-06-08T14:30:45Z</time>
      </trkpt>
      <trkpt lat="48.29328" lon="-4.17657">
        <ele>11.7</ele>
        <time>2020-06-08T14:30:46Z</time>
      </trkpt>
      <trkpt lat="48.2933" lon="-4.17663">
        <ele>11.6</ele>
        <time>2020-06-08T14:30:47Z</time>
      </trkpt>
      <trkpt lat="48.29332" lon="-4.17669">
        <ele>11.6</ele>
        <time>2020-06-08T14:30:48Z</time>
      </trkpt>
      <trkpt lat="48.29335" lon="-4.17675">
        <ele>11.6</ele>
        <time>2020-06-08T14:30:49Z</time>
      </trkpt>
      <trkpt lat="48.29338" lon="-4.17682">
        <ele>11.5</ele>
        <time>2020-06-08T14:30:50Z</time>
      </trkpt>
      <trkpt lat="48.29341" lon="-4.17688">
        <ele>11.5</ele>
        <time>2020-06-08T14:30:51Z</time>
      </trkpt>
      <trkpt lat="48.29343" lon="-4.17693">
        <ele>11.4</ele>
        <time>2020-06-08T14:30:52Z</time>
      </trkpt>
      <trkpt lat="48.29346" lon="-4.17698">
        <ele>11.4</ele>
        <time>2020-06-08T14:30:53Z</time>
      </trkpt>
      <trkpt lat="48.29348" lon="-4.17704">
        <ele>11.4</ele>
        <time>2020-06-08T14:30:54Z</time>
      </trkpt>
      <trkpt lat="48.2935" lon="-4.1771">
        <ele>11.4</ele>
        <time>2020-06-08T14:30:55Z</time>
      </trkpt>
      <trkpt lat="48.29352" lon="-4.17716">
        <ele>11.4</ele>
        <time>2020-06-08T14:30:56Z</time>
      </trkpt>
      <trkpt lat="48.29354" lon="-4.17723">
        <ele>11.3</ele>
        <time>2020-06-08T14:30:57Z</time>
      </trkpt>
      <trkpt lat="48.29357" lon="-4.17727">
        <ele>11.3</ele>
        <time>2020-06-08T14:30:58Z</time>
      </trkpt>
      <trkpt lat="48.2936" lon="-4.17731">
        <ele>11.3</ele>
        <time>2020-06-08T14:30:59Z</time>
      </trkpt>
      <trkpt lat="48.29363" lon="-4.17736">
        <ele>11.3</ele>
        <time>2020-06-08T14:31:00Z</time>
      </trkpt>
      <trkpt lat="48.29364" lon="-4.1774">
        <ele>11.4</ele>
        <time>2020-06-08T14:31:01Z</time>
      </trkpt>
      <trkpt lat="48.29366" lon="-4.17745">
        <ele>11.4</ele>
        <time>2020-06-08T14:31:02Z</time>
      </trkpt>
      <trkpt lat="48.29368" lon="-4.17748">
        <ele>11.4</ele>
        <time>2020-06-08T14:31:03Z</time>
      </trkpt>
      <trkpt lat="48.29371" lon="-4.17751">
        <ele>11.4</ele>
        <time>2020-06-08T14:31:04Z</time>
      </trkpt>
      <trkpt lat="48.29374" lon="-4.17755">
        <ele>11.4</ele>
        <time>2020-06-08T14:31:05Z</time>
      </trkpt>
      <trkpt lat="48.29376" lon="-4.17757">
        <ele>11.4</ele>
        <time>2020-06-08T14:31:06Z</time>
      </trkpt>
      <trkpt lat="48.29378" lon="-4.1776">
        <ele>11.4</ele>
        <time>2020-06-08T14:31:07Z</time>
      </trkpt>
      <trkpt lat="48.2938" lon="-4.17764">
        <ele>11.3</ele>
        <time>2020-06-08T14:31:08Z</time>
      </trkpt>
      <trkpt lat="48.29381" lon="-4.17765">
        <ele>11.3</ele>
        <time>2020-06-08T14:31:09Z</time>
      </trkpt>
      <trkpt lat="48.29382" lon="-4.1777">
        <ele>11.3</ele>
        <time>2020-06-08T14:31:10Z</time>
      </trkpt>
      <trkpt lat="48.29383" lon="-4.17771">
        <ele>11.3</ele>
        <time>2020-06-08T14:31:11Z</time>
      </trkpt>
      <trkpt lat="48.29384" lon="-4.17775">
        <ele>11.3</ele>
        <time>2020-06-08T14:31:12Z</time>
      </trkpt>
      <trkpt lat="48.29385" lon="-4.17776">
        <ele>11.3</ele>
        <time>2020-06-08T14:31:13Z</time>
      </trkpt>
      <trkpt lat="48.29385" lon="-4.17778">
        <ele>11.3</ele>
        <time>2020-06-08T14:31:14Z</time>
      </trkpt>
      <trkpt lat="48.29386" lon="-4.1778">
        <ele>11.2</ele>
        <time>2020-06-08T14:31:15Z</time>
      </trkpt>
      <trkpt lat="48.29388" lon="-4.17784">
        <ele>11.2</ele>
        <time>2020-06-08T14:31:16Z</time>
      </trkpt>
      <trkpt lat="48.29389" lon="-4.17785">
        <ele>11.2</ele>
        <time>2020-06-08T14:31:17Z</time>
      </trkpt>
      <trkpt lat="48.29392" lon="-4.17787">
        <ele>11.2</ele>
        <time>2020-06-08T14:31:18Z</time>
      </trkpt>
      <trkpt lat="48.29392" lon="-4.17788">
        <ele>11.2</ele>
        <time>2020-06-08T14:31:19Z</time>
      </trkpt>
      <trkpt lat="48.29394" lon="-4.17792">
        <ele>11.2</ele>
        <time>2020-06-08T14:31:20Z</time>
      </trkpt>
      <trkpt lat="48.29395" lon="-4.17794">
        <ele>11.2</ele>
        <time>2020-06-08T14:31:21Z</time>
      </trkpt>
      <trkpt lat="48.29397" lon="-4.17798">
        <ele>11.1</ele>
        <time>2020-06-08T14:31:22Z</time>
      </trkpt>
      <trkpt lat="48.29398" lon="-4.178">
        <ele>11.1</ele>
        <time>2020-06-08T14:31:23Z</time>
      </trkpt>
      <trkpt lat="48.294" lon="-4.17804">
        <ele>11.1</ele>
        <time>2020-06-08T14:31:24Z</time>
      </trkpt>
      <trkpt lat="48.29401" lon="-4.17805">
        <ele>11.1</ele>
        <time>2020-06-08T14:31:25Z</time>
      </trkpt>
      <trkpt lat="48.29404" lon="-4.1781">
        <ele>11.1</ele>
        <time>2020-06-08T14:31:26Z</time>
      </trkpt>
      <trkpt lat="48.29404" lon="-4.17811">
        <ele>11.1</ele>
        <time>2020-06-08T14:31:27Z</time>
      </trkpt>
      <trkpt lat="48.29406" lon="-4.17815">
        <ele>11.1</ele>
        <time>2020-06-08T14:31:28Z</time>
      </trkpt>
      <trkpt lat="48.29407" lon="-4.17819">
        <ele>11.1</ele>
        <time>2020-06-08T14:31:29Z</time>
      </trkpt>
      <trkpt lat="48.29409" lon="-4.17824">
        <ele>11.1</ele>
        <time>2020-06-08T14:31:30Z</time>
      </trkpt>
      <trkpt lat="48.29409" lon="-4.17825">
        <ele>11.1</ele>
        <time>2020-06-08T14:31:31Z</time>
      </trkpt>
      <trkpt lat="48.29411" lon="-4.17829">
        <ele>11.1</ele>
        <time>2020-06-08T14:31:32Z</time>
      </trkpt>
      <trkpt lat="48.29412" lon="-4.17833">
        <ele>11.1</ele>
        <time>2020-06-08T14:31:33Z</time>
      </trkpt>
      <trkpt lat="48.29414" lon="-4.17838">
        <ele>11.1</ele>
        <time>2020-06-08T14:31:34Z</time>
      </trkpt>
      <trkpt lat="48.29415" lon="-4.17839">
        <ele>11.1</ele>
        <time>2020-06-08T14:31:35Z</time>
      </trkpt>
      <trkpt lat="48.29417" lon="-4.17842">
        <ele>11.1</ele>
        <time>2020-06-08T14:31:36Z</time>
      </trkpt>
      <trkpt lat="48.29418" lon="-4.17844">
        <ele>11.1</ele>
        <time>2020-06-08T14:31:37Z</time>
      </trkpt>
      <trkpt lat="48.29418" lon="-4.17846">
        <ele>11.1</ele>
        <time>2020-06-08T14:31:38Z</time>
      </trkpt>
      <trkpt lat="48.29418" lon="-4.17846">
        <ele>11.1</ele>
        <time>2020-06-08T14:31:39Z</time>
      </trkpt>
      <trkpt lat="48.29418" lon="-4.17846">
        <ele>11.1</ele>
        <time>2020-06-08T14:31:40Z</time>
      </trkpt>
      <trkpt lat="48.29418" lon="-4.17846">
        <ele>11.1</ele>
        <time>2020-06-08T14:31:41Z</time>
      </trkpt>
      <trkpt lat="48.29418" lon="-4.17846">
        <ele>11.1</ele>
        <time>2020-06-08T14:31:42Z</time>
      </trkpt>
      <trkpt lat="48.29418" lon="-4.17845">
        <ele>11.1</ele>
        <time>2020-06-08T14:31:43Z</time>
      </trkpt>
      <trkpt lat="48.29418" lon="-4.17846">
        <ele>11.1</ele>
        <time>2020-06-08T14:31:44Z</time>
      </trkpt>
      <trkpt lat="48.29418" lon="-4.17846">
        <ele>11.1</ele>
        <time>2020-06-08T14:31:45Z</time>
      </trkpt>
      <trkpt lat="48.29419" lon="-4.17846">
        <ele>11.1</ele>
        <time>2020-06-08T14:31:46Z</time>
      </trkpt>
      <trkpt lat="48.29419" lon="-4.17846">
        <ele>11.1</ele>
        <time>2020-06-08T14:31:47Z</time>
      </trkpt>
      <trkpt lat="48.2942" lon="-4.17846">
        <ele>11.1</ele>
        <time>2020-06-08T14:31:48Z</time>
      </trkpt>
      <trkpt lat="48.2942" lon="-4.17846">
        <ele>11.1</ele>
        <time>2020-06-08T14:31:49Z</time>
      </trkpt>
      <trkpt lat="48.29419" lon="-4.17847">
        <ele>11.1</ele>
        <time>2020-06-08T14:31:50Z</time>
      </trkpt>
      <trkpt lat="48.2942" lon="-4.17847">
        <ele>11.1</ele>
        <time>2020-06-08T14:31:51Z</time>
      </trkpt>
      <trkpt lat="48.2942" lon="-4.17847">
        <ele>11.1</ele>
        <time>2020-06-08T14:31:52Z</time>
      </trkpt>
      <trkpt lat="48.29421" lon="-4.17846">
        <ele>11.1</ele>
        <time>2020-06-08T14:31:53Z</time>
      </trkpt>
      <trkpt lat="48.29421" lon="-4.17846">
        <ele>11.1</ele>
        <time>2020-06-08T14:31:54Z</time>
      </trkpt>
      <trkpt lat="48.29421" lon="-4.17846">
        <ele>11.1</ele>
        <time>2020-06-08T14:31:55Z</time>
      </trkpt>
      <trkpt lat="48.29423" lon="-4.17853">
        <ele>11.1</ele>
        <time>2020-06-08T14:32:10Z</time>
      </trkpt>
      <trkpt lat="48.29423" lon="-4.17856">
        <ele>11.1</ele>
        <time>2020-06-08T14:32:11Z</time>
      </trkpt>
      <trkpt lat="48.29424" lon="-4.17859">
        <ele>11.1</ele>
        <time>2020-06-08T14:32:12Z</time>
      </trkpt>
      <trkpt lat="48.29425" lon="-4.17861">
        <ele>11.1</ele>
        <time>2020-06-08T14:32:13Z</time>
      </trkpt>
      <trkpt lat="48.29427" lon="-4.17866">
        <ele>10.8</ele>
        <time>2020-06-08T14:32:14Z</time>
      </trkpt>
      <trkpt lat="48.29427" lon="-4.17868">
        <ele>10.7</ele>
        <time>2020-06-08T14:32:15Z</time>
      </trkpt>
      <trkpt lat="48.29429" lon="-4.17873">
        <ele>10.7</ele>
        <time>2020-06-08T14:32:16Z</time>
      </trkpt>
      <trkpt lat="48.2943" lon="-4.17875">
        <ele>10.6</ele>
        <time>2020-06-08T14:32:17Z</time>
      </trkpt>
      <trkpt lat="48.29431" lon="-4.17879">
        <ele>10.6</ele>
        <time>2020-06-08T14:32:18Z</time>
      </trkpt>
      <trkpt lat="48.29435" lon="-4.17881">
        <ele>10.5</ele>
        <time>2020-06-08T14:32:19Z</time>
      </trkpt>
      <trkpt lat="48.29436" lon="-4.17885">
        <ele>10.4</ele>
        <time>2020-06-08T14:32:20Z</time>
      </trkpt>
      <trkpt lat="48.29438" lon="-4.17888">
        <ele>10.3</ele>
        <time>2020-06-08T14:32:21Z</time>
      </trkpt>
      <trkpt lat="48.29439" lon="-4.17892">
        <ele>10.3</ele>
        <time>2020-06-08T14:32:22Z</time>
      </trkpt>
      <trkpt lat="48.2944" lon="-4.17895">
        <ele>10.3</ele>
        <time>2020-06-08T14:32:23Z</time>
      </trkpt>
      <trkpt lat="48.29441" lon="-4.179">
        <ele>10.2</ele>
        <time>2020-06-08T14:32:24Z</time>
      </trkpt>
      <trkpt lat="48.29442" lon="-4.17904">
        <ele>10.2</ele>
        <time>2020-06-08T14:32:25Z</time>
      </trkpt>
      <trkpt lat="48.29443" lon="-4.17909">
        <ele>10.1</ele>
        <time>2020-06-08T14:32:26Z</time>
      </trkpt>
      <trkpt lat="48.29445" lon="-4.17912">
        <ele>10.1</ele>
        <time>2020-06-08T14:32:27Z</time>
      </trkpt>
      <trkpt lat="48.29446" lon="-4.17918">
        <ele>10</ele>
        <time>2020-06-08T14:32:28Z</time>
      </trkpt>
      <trkpt lat="48.29446" lon="-4.1792">
        <ele>10</ele>
        <time>2020-06-08T14:32:29Z</time>
      </trkpt>
      <trkpt lat="48.29447" lon="-4.17924">
        <ele>10</ele>
        <time>2020-06-08T14:32:30Z</time>
      </trkpt>
      <trkpt lat="48.29448" lon="-4.17929">
        <ele>9.9</ele>
        <time>2020-06-08T14:32:31Z</time>
      </trkpt>
      <trkpt lat="48.29449" lon="-4.17931">
        <ele>9.9</ele>
        <time>2020-06-08T14:32:32Z</time>
      </trkpt>
      <trkpt lat="48.2945" lon="-4.17936">
        <ele>9.9</ele>
        <time>2020-06-08T14:32:33Z</time>
      </trkpt>
      <trkpt lat="48.2945" lon="-4.1794">
        <ele>9.9</ele>
        <time>2020-06-08T14:32:34Z</time>
      </trkpt>
      <trkpt lat="48.29449" lon="-4.17945">
        <ele>9.8</ele>
        <time>2020-06-08T14:32:35Z</time>
      </trkpt>
      <trkpt lat="48.29449" lon="-4.17949">
        <ele>9.8</ele>
        <time>2020-06-08T14:32:36Z</time>
      </trkpt>
      <trkpt lat="48.29449" lon="-4.17954">
        <ele>9.8</ele>
        <time>2020-06-08T14:32:37Z</time>
      </trkpt>
      <trkpt lat="48.29449" lon="-4.17956">
        <ele>9.8</ele>
        <time>2020-06-08T14:32:38Z</time>
      </trkpt>
      <trkpt lat="48.29452" lon="-4.17959">
        <ele>9.7</ele>
        <time>2020-06-08T14:32:39Z</time>
      </trkpt>
      <trkpt lat="48.29453" lon="-4.17961">
        <ele>9.7</ele>
        <time>2020-06-08T14:32:40Z</time>
      </trkpt>
      <trkpt lat="48.29455" lon="-4.17962">
        <ele>9.7</ele>
        <time>2020-06-08T14:32:41Z</time>
      </trkpt>
      <trkpt lat="48.29458" lon="-4.17965">
        <ele>9.6</ele>
        <time>2020-06-08T14:32:42Z</time>
      </trkpt>
      <trkpt lat="48.2946" lon="-4.17968">
        <ele>9.6</ele>
        <time>2020-06-08T14:32:43Z</time>
      </trkpt>
      <trkpt lat="48.29463" lon="-4.17971">
        <ele>9.5</ele>
        <time>2020-06-08T14:32:44Z</time>
      </trkpt>
      <trkpt lat="48.29467" lon="-4.17971">
        <ele>9.3</ele>
        <time>2020-06-08T14:32:45Z</time>
      </trkpt>
      <trkpt lat="48.2947" lon="-4.17972">
        <ele>9.2</ele>
        <time>2020-06-08T14:32:46Z</time>
      </trkpt>
      <trkpt lat="48.29474" lon="-4.17974">
        <ele>9</ele>
        <time>2020-06-08T14:32:47Z</time>
      </trkpt>
      <trkpt lat="48.29478" lon="-4.17976">
        <ele>8.9</ele>
        <time>2020-06-08T14:32:48Z</time>
      </trkpt>
      <trkpt lat="48.29482" lon="-4.17979">
        <ele>8.7</ele>
        <time>2020-06-08T14:32:49Z</time>
      </trkpt>
      <trkpt lat="48.29486" lon="-4.17982">
        <ele>8.5</ele>
        <time>2020-06-08T14:32:50Z</time>
      </trkpt>
      <trkpt lat="48.2949" lon="-4.17985">
        <ele>8.3</ele>
        <time>2020-06-08T14:32:51Z</time>
      </trkpt>
      <trkpt lat="48.29493" lon="-4.17988">
        <ele>8.2</ele>
        <time>2020-06-08T14:32:52Z</time>
      </trkpt>
      <trkpt lat="48.29497" lon="-4.17992">
        <ele>8</ele>
        <time>2020-06-08T14:32:53Z</time>
      </trkpt>
      <trkpt lat="48.29501" lon="-4.17996">
        <ele>7.8</ele>
        <time>2020-06-08T14:32:54Z</time>
      </trkpt>
      <trkpt lat="48.29505" lon="-4.18">
        <ele>7.6</ele>
        <time>2020-06-08T14:32:55Z</time>
      </trkpt>
      <trkpt lat="48.29508" lon="-4.18003">
        <ele>7.4</ele>
        <time>2020-06-08T14:32:56Z</time>
      </trkpt>
      <trkpt lat="48.29512" lon="-4.18007">
        <ele>7.3</ele>
        <time>2020-06-08T14:32:57Z</time>
      </trkpt>
      <trkpt lat="48.29516" lon="-4.18012">
        <ele>7.1</ele>
        <time>2020-06-08T14:32:58Z</time>
      </trkpt>
      <trkpt lat="48.2952" lon="-4.18017">
        <ele>6.9</ele>
        <time>2020-06-08T14:32:59Z</time>
      </trkpt>
      <trkpt lat="48.29523" lon="-4.18021">
        <ele>6.8</ele>
        <time>2020-06-08T14:33:00Z</time>
      </trkpt>
      <trkpt lat="48.29526" lon="-4.18025">
        <ele>6.6</ele>
        <time>2020-06-08T14:33:01Z</time>
      </trkpt>
      <trkpt lat="48.2953" lon="-4.1803">
        <ele>6.4</ele>
        <time>2020-06-08T14:33:02Z</time>
      </trkpt>
      <trkpt lat="48.29535" lon="-4.18034">
        <ele>6.3</ele>
        <time>2020-06-08T14:33:03Z</time>
      </trkpt>
      <trkpt lat="48.29539" lon="-4.18039">
        <ele>6.1</ele>
        <time>2020-06-08T14:33:04Z</time>
      </trkpt>
      <trkpt lat="48.29543" lon="-4.18043">
        <ele>6</ele>
        <time>2020-06-08T14:33:05Z</time>
      </trkpt>
      <trkpt lat="48.29547" lon="-4.18048">
        <ele>5.8</ele>
        <time>2020-06-08T14:33:06Z</time>
      </trkpt>
      <trkpt lat="48.29551" lon="-4.18052">
        <ele>5.7</ele>
        <time>2020-06-08T14:33:07Z</time>
      </trkpt>
      <trkpt lat="48.29554" lon="-4.18056">
        <ele>5.7</ele>
        <time>2020-06-08T14:33:08Z</time>
      </trkpt>
      <trkpt lat="48.29558" lon="-4.18058">
        <ele>5.6</ele>
        <time>2020-06-08T14:33:09Z</time>
      </trkpt>
      <trkpt lat="48.29562" lon="-4.18061">
        <ele>5.5</ele>
        <time>2020-06-08T14:33:10Z</time>
      </trkpt>
      <trkpt lat="48.29566" lon="-4.18066">
        <ele>5.4</ele>
        <time>2020-06-08T14:33:11Z</time>
      </trkpt>
      <trkpt lat="48.2957" lon="-4.1807">
        <ele>5.4</ele>
        <time>2020-06-08T14:33:12Z</time>
      </trkpt>
      <trkpt lat="48.29574" lon="-4.18073">
        <ele>5.4</ele>
        <time>2020-06-08T14:33:13Z</time>
      </trkpt>
      <trkpt lat="48.29575" lon="-4.18078">
        <ele>5.4</ele>
        <time>2020-06-08T14:33:14Z</time>
      </trkpt>
      <trkpt lat="48.29578" lon="-4.18081">
        <ele>5.3</ele>
        <time>2020-06-08T14:33:15Z</time>
      </trkpt>
      <trkpt lat="48.29581" lon="-4.18085">
        <ele>5.3</ele>
        <time>2020-06-08T14:33:16Z</time>
      </trkpt>
      <trkpt lat="48.29583" lon="-4.18087">
        <ele>5.3</ele>
        <time>2020-06-08T14:33:17Z</time>
      </trkpt>
      <trkpt lat="48.29586" lon="-4.1809">
        <ele>5.3</ele>
        <time>2020-06-08T14:33:18Z</time>
      </trkpt>
      <trkpt lat="48.29589" lon="-4.18092">
        <ele>5.2</ele>
        <time>2020-06-08T14:33:19Z</time>
      </trkpt>
      <trkpt lat="48.29593" lon="-4.18093">
        <ele>5.2</ele>
        <time>2020-06-08T14:33:20Z</time>
      </trkpt>
      <trkpt lat="48.29596" lon="-4.18095">
        <ele>5.2</ele>
        <time>2020-06-08T14:33:21Z</time>
      </trkpt>
      <trkpt lat="48.29599" lon="-4.18096">
        <ele>5.1</ele>
        <time>2020-06-08T14:33:22Z</time>
      </trkpt>
      <trkpt lat="48.29601" lon="-4.18096">
        <ele>5.1</ele>
        <time>2020-06-08T14:33:23Z</time>
      </trkpt>
      <trkpt lat="48.29605" lon="-4.18096">
        <ele>5.1</ele>
        <time>2020-06-08T14:33:24Z</time>
      </trkpt>
      <trkpt lat="48.29608" lon="-4.18094">
        <ele>5</ele>
        <time>2020-06-08T14:33:25Z</time>
      </trkpt>
      <trkpt lat="48.29612" lon="-4.18093">
        <ele>5</ele>
        <time>2020-06-08T14:33:26Z</time>
      </trkpt>
      <trkpt lat="48.29613" lon="-4.18093">
        <ele>5</ele>
        <time>2020-06-08T14:33:27Z</time>
      </trkpt>
      <trkpt lat="48.29616" lon="-4.18093">
        <ele>5</ele>
        <time>2020-06-08T14:33:28Z</time>
      </trkpt>
      <trkpt lat="48.29618" lon="-4.18094">
        <ele>5</ele>
        <time>2020-06-08T14:33:29Z</time>
      </trkpt>
      <trkpt lat="48.29621" lon="-4.18093">
        <ele>5</ele>
        <time>2020-06-08T14:33:30Z</time>
      </trkpt>
      <trkpt lat="48.29623" lon="-4.18093">
        <ele>5</ele>
        <time>2020-06-08T14:33:31Z</time>
      </trkpt>
      <trkpt lat="48.29627" lon="-4.18095">
        <ele>5</ele>
        <time>2020-06-08T14:33:32Z</time>
      </trkpt>
      <trkpt lat="48.29628" lon="-4.18095">
        <ele>4.9</ele>
        <time>2020-06-08T14:33:33Z</time>
      </trkpt>
      <trkpt lat="48.29631" lon="-4.18096">
        <ele>4.9</ele>
        <time>2020-06-08T14:33:34Z</time>
      </trkpt>
      <trkpt lat="48.29632" lon="-4.18096">
        <ele>4.9</ele>
        <time>2020-06-08T14:33:35Z</time>
      </trkpt>
      <trkpt lat="48.29635" lon="-4.18097">
        <ele>4.9</ele>
        <time>2020-06-08T14:33:36Z</time>
      </trkpt>
      <trkpt lat="48.29636" lon="-4.18098">
        <ele>4.9</ele>
        <time>2020-06-08T14:33:37Z</time>
      </trkpt>
      <trkpt lat="48.2964" lon="-4.18098">
        <ele>4.9</ele>
        <time>2020-06-08T14:33:38Z</time>
      </trkpt>
      <trkpt lat="48.29641" lon="-4.18098">
        <ele>4.9</ele>
        <time>2020-06-08T14:33:39Z</time>
      </trkpt>
      <trkpt lat="48.29644" lon="-4.18096">
        <ele>4.9</ele>
        <time>2020-06-08T14:33:40Z</time>
      </trkpt>
      <trkpt lat="48.29645" lon="-4.18095">
        <ele>4.9</ele>
        <time>2020-06-08T14:33:41Z</time>
      </trkpt>
      <trkpt lat="48.29649" lon="-4.18093">
        <ele>4.8</ele>
        <time>2020-06-08T14:33:42Z</time>
      </trkpt>
      <trkpt lat="48.2965" lon="-4.18093">
        <ele>4.8</ele>
        <time>2020-06-08T14:33:43Z</time>
      </trkpt>
      <trkpt lat="48.29654" lon="-4.18092">
        <ele>4.7</ele>
        <time>2020-06-08T14:33:44Z</time>
      </trkpt>
      <trkpt lat="48.29655" lon="-4.18092">
        <ele>4.7</ele>
        <time>2020-06-08T14:33:45Z</time>
      </trkpt>
      <trkpt lat="48.29658" lon="-4.18091">
        <ele>4.7</ele>
        <time>2020-06-08T14:33:46Z</time>
      </trkpt>
      <trkpt lat="48.2966" lon="-4.1809">
        <ele>4.6</ele>
        <time>2020-06-08T14:33:47Z</time>
      </trkpt>
      <trkpt lat="48.29664" lon="-4.18089">
        <ele>4.6</ele>
        <time>2020-06-08T14:33:48Z</time>
      </trkpt>
      <trkpt lat="48.29666" lon="-4.18088">
        <ele>4.6</ele>
        <time>2020-06-08T14:33:49Z</time>
      </trkpt>
      <trkpt lat="48.29669" lon="-4.18089">
        <ele>4.5</ele>
        <time>2020-06-08T14:33:50Z</time>
      </trkpt>
      <trkpt lat="48.29672" lon="-4.1809">
        <ele>4.5</ele>
        <time>2020-06-08T14:33:51Z</time>
      </trkpt>
      <trkpt lat="48.29675" lon="-4.18091">
        <ele>4.6</ele>
        <time>2020-06-08T14:33:52Z</time>
      </trkpt>
      <trkpt lat="48.29678" lon="-4.1809">
        <ele>4.6</ele>
        <time>2020-06-08T14:33:53Z</time>
      </trkpt>
      <trkpt lat="48.29681" lon="-4.1809">
        <ele>4.6</ele>
        <time>2020-06-08T14:33:54Z</time>
      </trkpt>
      <trkpt lat="48.29684" lon="-4.1809">
        <ele>4.6</ele>
        <time>2020-06-08T14:33:55Z</time>
      </trkpt>
      <trkpt lat="48.29687" lon="-4.18091">
        <ele>4.6</ele>
        <time>2020-06-08T14:33:56Z</time>
      </trkpt>
      <trkpt lat="48.2969" lon="-4.18092">
        <ele>4.7</ele>
        <time>2020-06-08T14:33:57Z</time>
      </trkpt>
      <trkpt lat="48.29694" lon="-4.18091">
        <ele>4.7</ele>
        <time>2020-06-08T14:33:58Z</time>
      </trkpt>
      <trkpt lat="48.29695" lon="-4.18091">
        <ele>4.7</ele>
        <time>2020-06-08T14:33:59Z</time>
      </trkpt>
      <trkpt lat="48.29698" lon="-4.18091">
        <ele>4.8</ele>
        <time>2020-06-08T14:34:00Z</time>
      </trkpt>
      <trkpt lat="48.29699" lon="-4.18091">
        <ele>4.8</ele>
        <time>2020-06-08T14:34:01Z</time>
      </trkpt>
      <trkpt lat="48.29702" lon="-4.1809">
        <ele>4.9</ele>
        <time>2020-06-08T14:34:02Z</time>
      </trkpt>
      <trkpt lat="48.29704" lon="-4.1809">
        <ele>4.9</ele>
        <time>2020-06-08T14:34:03Z</time>
      </trkpt>
      <trkpt lat="48.29706" lon="-4.18088">
        <ele>5</ele>
        <time>2020-06-08T14:34:04Z</time>
      </trkpt>
      <trkpt lat="48.29709" lon="-4.18088">
        <ele>5</ele>
        <time>2020-06-08T14:34:05Z</time>
      </trkpt>
      <trkpt lat="48.29712" lon="-4.1809">
        <ele>5.1</ele>
        <time>2020-06-08T14:34:06Z</time>
      </trkpt>
      <trkpt lat="48.29716" lon="-4.18091">
        <ele>5.2</ele>
        <time>2020-06-08T14:34:07Z</time>
      </trkpt>
      <trkpt lat="48.29719" lon="-4.18093">
        <ele>5.4</ele>
        <time>2020-06-08T14:34:08Z</time>
      </trkpt>
      <trkpt lat="48.2972" lon="-4.18095">
        <ele>5.4</ele>
        <time>2020-06-08T14:34:09Z</time>
      </trkpt>
      <trkpt lat="48.29724" lon="-4.18097">
        <ele>5.6</ele>
        <time>2020-06-08T14:34:10Z</time>
      </trkpt>
      <trkpt lat="48.29725" lon="-4.18097">
        <ele>5.7</ele>
        <time>2020-06-08T14:34:11Z</time>
      </trkpt>
      <trkpt lat="48.29729" lon="-4.18099">
        <ele>5.8</ele>
        <time>2020-06-08T14:34:12Z</time>
      </trkpt>
      <trkpt lat="48.2973" lon="-4.181">
        <ele>5.9</ele>
        <time>2020-06-08T14:34:13Z</time>
      </trkpt>
      <trkpt lat="48.29732" lon="-4.18103">
        <ele>6</ele>
        <time>2020-06-08T14:34:14Z</time>
      </trkpt>
      <trkpt lat="48.29734" lon="-4.18106">
        <ele>6.1</ele>
        <time>2020-06-08T14:34:15Z</time>
      </trkpt>
      <trkpt lat="48.29737" lon="-4.1811">
        <ele>6.3</ele>
        <time>2020-06-08T14:34:16Z</time>
      </trkpt>
      <trkpt lat="48.29738" lon="-4.18111">
        <ele>6.3</ele>
        <time>2020-06-08T14:34:17Z</time>
      </trkpt>
      <trkpt lat="48.2974" lon="-4.18114">
        <ele>6.4</ele>
        <time>2020-06-08T14:34:18Z</time>
      </trkpt>
      <trkpt lat="48.29741" lon="-4.18116">
        <ele>6.5</ele>
        <time>2020-06-08T14:34:19Z</time>
      </trkpt>
      <trkpt lat="48.29743" lon="-4.1812">
        <ele>6.6</ele>
        <time>2020-06-08T14:34:20Z</time>
      </trkpt>
      <trkpt lat="48.29744" lon="-4.18121">
        <ele>6.7</ele>
        <time>2020-06-08T14:34:21Z</time>
      </trkpt>
      <trkpt lat="48.29747" lon="-4.18125">
        <ele>7</ele>
        <time>2020-06-08T14:34:22Z</time>
      </trkpt>
      <trkpt lat="48.29748" lon="-4.18127">
        <ele>7</ele>
        <time>2020-06-08T14:34:23Z</time>
      </trkpt>
      <trkpt lat="48.29751" lon="-4.1813">
        <ele>7.1</ele>
        <time>2020-06-08T14:34:24Z</time>
      </trkpt>
      <trkpt lat="48.29753" lon="-4.18131">
        <ele>7.2</ele>
        <time>2020-06-08T14:34:25Z</time>
      </trkpt>
      <trkpt lat="48.29755" lon="-4.18132">
        <ele>7.3</ele>
        <time>2020-06-08T14:34:26Z</time>
      </trkpt>
      <trkpt lat="48.29758" lon="-4.18134">
        <ele>7.5</ele>
        <time>2020-06-08T14:34:27Z</time>
      </trkpt>
      <trkpt lat="48.2976" lon="-4.18135">
        <ele>7.5</ele>
        <time>2020-06-08T14:34:28Z</time>
      </trkpt>
      <trkpt lat="48.29762" lon="-4.18137">
        <ele>7.7</ele>
        <time>2020-06-08T14:34:29Z</time>
      </trkpt>
      <trkpt lat="48.29763" lon="-4.18138">
        <ele>7.7</ele>
        <time>2020-06-08T14:34:30Z</time>
      </trkpt>
      <trkpt lat="48.29767" lon="-4.1814">
        <ele>7.9</ele>
        <time>2020-06-08T14:34:31Z</time>
      </trkpt>
      <trkpt lat="48.29768" lon="-4.18141">
        <ele>7.9</ele>
        <time>2020-06-08T14:34:32Z</time>
      </trkpt>
      <trkpt lat="48.29771" lon="-4.18145">
        <ele>8.1</ele>
        <time>2020-06-08T14:34:33Z</time>
      </trkpt>
      <trkpt lat="48.29771" lon="-4.18146">
        <ele>8.2</ele>
        <time>2020-06-08T14:34:34Z</time>
      </trkpt>
      <trkpt lat="48.29773" lon="-4.18152">
        <ele>8.4</ele>
        <time>2020-06-08T14:34:35Z</time>
      </trkpt>
      <trkpt lat="48.29774" lon="-4.18154">
        <ele>8.5</ele>
        <time>2020-06-08T14:34:36Z</time>
      </trkpt>
      <trkpt lat="48.29777" lon="-4.18158">
        <ele>8.7</ele>
        <time>2020-06-08T14:34:37Z</time>
      </trkpt>
      <trkpt lat="48.29777" lon="-4.18159">
        <ele>8.7</ele>
        <time>2020-06-08T14:34:38Z</time>
      </trkpt>
      <trkpt lat="48.2978" lon="-4.18162">
        <ele>8.9</ele>
        <time>2020-06-08T14:34:39Z</time>
      </trkpt>
      <trkpt lat="48.29781" lon="-4.18161">
        <ele>9.2</ele>
        <time>2020-06-08T14:34:40Z</time>
      </trkpt>
      <trkpt lat="48.29784" lon="-4.18163">
        <ele>9.5</ele>
        <time>2020-06-08T14:34:41Z</time>
      </trkpt>
      <trkpt lat="48.29785" lon="-4.18164">
        <ele>9.6</ele>
        <time>2020-06-08T14:34:42Z</time>
      </trkpt>
      <trkpt lat="48.29788" lon="-4.18167">
        <ele>10</ele>
        <time>2020-06-08T14:34:43Z</time>
      </trkpt>
      <trkpt lat="48.29789" lon="-4.18168">
        <ele>10.1</ele>
        <time>2020-06-08T14:34:44Z</time>
      </trkpt>
      <trkpt lat="48.29792" lon="-4.18169">
        <ele>10.4</ele>
        <time>2020-06-08T14:34:45Z</time>
      </trkpt>
      <trkpt lat="48.29793" lon="-4.1817">
        <ele>10.5</ele>
        <time>2020-06-08T14:34:46Z</time>
      </trkpt>
      <trkpt lat="48.29794" lon="-4.18172">
        <ele>10.7</ele>
        <time>2020-06-08T14:34:47Z</time>
      </trkpt>
      <trkpt lat="48.29795" lon="-4.18175">
        <ele>10.9</ele>
        <time>2020-06-08T14:34:48Z</time>
      </trkpt>
      <trkpt lat="48.29797" lon="-4.18178">
        <ele>11.3</ele>
        <time>2020-06-08T14:34:49Z</time>
      </trkpt>
      <trkpt lat="48.29798" lon="-4.18179">
        <ele>11.4</ele>
        <time>2020-06-08T14:34:50Z</time>
      </trkpt>
      <trkpt lat="48.298" lon="-4.18182">
        <ele>11.7</ele>
        <time>2020-06-08T14:34:51Z</time>
      </trkpt>
      <trkpt lat="48.29803" lon="-4.18185">
        <ele>12</ele>
        <time>2020-06-08T14:34:52Z</time>
      </trkpt>
      <trkpt lat="48.29804" lon="-4.18186">
        <ele>12.2</ele>
        <time>2020-06-08T14:34:53Z</time>
      </trkpt>
      <trkpt lat="48.29806" lon="-4.18189">
        <ele>12.5</ele>
        <time>2020-06-08T14:34:54Z</time>
      </trkpt>
      <trkpt lat="48.29806" lon="-4.1819">
        <ele>12.6</ele>
        <time>2020-06-08T14:34:55Z</time>
      </trkpt>
      <trkpt lat="48.29809" lon="-4.18192">
        <ele>12.8</ele>
        <time>2020-06-08T14:34:56Z</time>
      </trkpt>
      <trkpt lat="48.2981" lon="-4.18193">
        <ele>12.9</ele>
        <time>2020-06-08T14:34:57Z</time>
      </trkpt>
      <trkpt lat="48.29811" lon="-4.18195">
        <ele>13.1</ele>
        <time>2020-06-08T14:34:58Z</time>
      </trkpt>
      <trkpt lat="48.29812" lon="-4.18197">
        <ele>13.3</ele>
        <time>2020-06-08T14:34:59Z</time>
      </trkpt>
      <trkpt lat="48.29814" lon="-4.18199">
        <ele>13.6</ele>
        <time>2020-06-08T14:35:00Z</time>
      </trkpt>
      <trkpt lat="48.29815" lon="-4.182">
        <ele>13.7</ele>
        <time>2020-06-08T14:35:01Z</time>
      </trkpt>
      <trkpt lat="48.29818" lon="-4.18204">
        <ele>14.1</ele>
        <time>2020-06-08T14:35:02Z</time>
      </trkpt>
      <trkpt lat="48.29819" lon="-4.18206">
        <ele>14.2</ele>
        <time>2020-06-08T14:35:03Z</time>
      </trkpt>
      <trkpt lat="48.29821" lon="-4.18209">
        <ele>14.5</ele>
        <time>2020-06-08T14:35:04Z</time>
      </trkpt>
      <trkpt lat="48.29822" lon="-4.1821">
        <ele>14.6</ele>
        <time>2020-06-08T14:35:05Z</time>
      </trkpt>
      <trkpt lat="48.29824" lon="-4.18213">
        <ele>14.9</ele>
        <time>2020-06-08T14:35:06Z</time>
      </trkpt>
      <trkpt lat="48.29825" lon="-4.18213">
        <ele>15</ele>
        <time>2020-06-08T14:35:07Z</time>
      </trkpt>
      <trkpt lat="48.29828" lon="-4.18216">
        <ele>15.3</ele>
        <time>2020-06-08T14:35:08Z</time>
      </trkpt>
      <trkpt lat="48.29828" lon="-4.18217">
        <ele>15.4</ele>
        <time>2020-06-08T14:35:09Z</time>
      </trkpt>
      <trkpt lat="48.29831" lon="-4.1822">
        <ele>15.7</ele>
        <time>2020-06-08T14:35:10Z</time>
      </trkpt>
      <trkpt lat="48.29832" lon="-4.18221">
        <ele>15.8</ele>
        <time>2020-06-08T14:35:11Z</time>
      </trkpt>
      <trkpt lat="48.29834" lon="-4.18224">
        <ele>16</ele>
        <time>2020-06-08T14:35:12Z</time>
      </trkpt>
      <trkpt lat="48.29836" lon="-4.18227">
        <ele>16.3</ele>
        <time>2020-06-08T14:35:13Z</time>
      </trkpt>
      <trkpt lat="48.29837" lon="-4.18229">
        <ele>16.3</ele>
        <time>2020-06-08T14:35:14Z</time>
      </trkpt>
      <trkpt lat="48.29839" lon="-4.18231">
        <ele>16.6</ele>
        <time>2020-06-08T14:35:15Z</time>
      </trkpt>
      <trkpt lat="48.2984" lon="-4.18233">
        <ele>16.7</ele>
        <time>2020-06-08T14:35:16Z</time>
      </trkpt>
      <trkpt lat="48.29843" lon="-4.18236">
        <ele>17</ele>
        <time>2020-06-08T14:35:17Z</time>
      </trkpt>
      <trkpt lat="48.29844" lon="-4.18237">
        <ele>17.1</ele>
        <time>2020-06-08T14:35:18Z</time>
      </trkpt>
      <trkpt lat="48.29847" lon="-4.1824">
        <ele>17.3</ele>
        <time>2020-06-08T14:35:19Z</time>
      </trkpt>
      <trkpt lat="48.29849" lon="-4.18244">
        <ele>17.5</ele>
        <time>2020-06-08T14:35:20Z</time>
      </trkpt>
      <trkpt lat="48.29852" lon="-4.18247">
        <ele>17.8</ele>
        <time>2020-06-08T14:35:21Z</time>
      </trkpt>
      <trkpt lat="48.29853" lon="-4.18248">
        <ele>17.9</ele>
        <time>2020-06-08T14:35:22Z</time>
      </trkpt>
      <trkpt lat="48.29855" lon="-4.18251">
        <ele>18.1</ele>
        <time>2020-06-08T14:35:23Z</time>
      </trkpt>
      <trkpt lat="48.29856" lon="-4.18252">
        <ele>18.2</ele>
        <time>2020-06-08T14:35:24Z</time>
      </trkpt>
      <trkpt lat="48.29859" lon="-4.18255">
        <ele>18.4</ele>
        <time>2020-06-08T14:35:25Z</time>
      </trkpt>
      <trkpt lat="48.2986" lon="-4.18256">
        <ele>18.5</ele>
        <time>2020-06-08T14:35:26Z</time>
      </trkpt>
      <trkpt lat="48.29863" lon="-4.18258">
        <ele>18.7</ele>
        <time>2020-06-08T14:35:27Z</time>
      </trkpt>
      <trkpt lat="48.29864" lon="-4.18259">
        <ele>18.8</ele>
        <time>2020-06-08T14:35:28Z</time>
      </trkpt>
      <trkpt lat="48.29866" lon="-4.18262">
        <ele>19</ele>
        <time>2020-06-08T14:35:29Z</time>
      </trkpt>
      <trkpt lat="48.29869" lon="-4.18265">
        <ele>19.2</ele>
        <time>2020-06-08T14:35:30Z</time>
      </trkpt>
      <trkpt lat="48.2987" lon="-4.18267">
        <ele>19.3</ele>
        <time>2020-06-08T14:35:31Z</time>
      </trkpt>
      <trkpt lat="48.29873" lon="-4.1827">
        <ele>19.5</ele>
        <time>2020-06-08T14:35:32Z</time>
      </trkpt>
      <trkpt lat="48.29874" lon="-4.18271">
        <ele>19.6</ele>
        <time>2020-06-08T14:35:33Z</time>
      </trkpt>
      <trkpt lat="48.29876" lon="-4.18274">
        <ele>19.8</ele>
        <time>2020-06-08T14:35:34Z</time>
      </trkpt>
      <trkpt lat="48.29878" lon="-4.18276">
        <ele>20</ele>
        <time>2020-06-08T14:35:35Z</time>
      </trkpt>
      <trkpt lat="48.29881" lon="-4.18279">
        <ele>20.1</ele>
        <time>2020-06-08T14:35:36Z</time>
      </trkpt>
      <trkpt lat="48.29883" lon="-4.18282">
        <ele>20.3</ele>
        <time>2020-06-08T14:35:37Z</time>
      </trkpt>
      <trkpt lat="48.29885" lon="-4.18284">
        <ele>20.6</ele>
        <time>2020-06-08T14:35:38Z</time>
      </trkpt>
      <trkpt lat="48.29886" lon="-4.18286">
        <ele>20.6</ele>
        <time>2020-06-08T14:35:39Z</time>
      </trkpt>
      <trkpt lat="48.29889" lon="-4.18289">
        <ele>20.9</ele>
        <time>2020-06-08T14:35:40Z</time>
      </trkpt>
      <trkpt lat="48.2989" lon="-4.18291">
        <ele>21</ele>
        <time>2020-06-08T14:35:41Z</time>
      </trkpt>
      <trkpt lat="48.29893" lon="-4.18294">
        <ele>21.3</ele>
        <time>2020-06-08T14:35:42Z</time>
      </trkpt>
      <trkpt lat="48.29894" lon="-4.18295">
        <ele>21.4</ele>
        <time>2020-06-08T14:35:43Z</time>
      </trkpt>
      <trkpt lat="48.29896" lon="-4.18298">
        <ele>21.6</ele>
        <time>2020-06-08T14:35:44Z</time>
      </trkpt>
      <trkpt lat="48.29897" lon="-4.18299">
        <ele>21.7</ele>
        <time>2020-06-08T14:35:45Z</time>
      </trkpt>
      <trkpt lat="48.29899" lon="-4.18302">
        <ele>21.9</ele>
        <time>2020-06-08T14:35:46Z</time>
      </trkpt>
      <trkpt lat="48.29899" lon="-4.18303">
        <ele>22</ele>
        <time>2020-06-08T14:35:47Z</time>
      </trkpt>
      <trkpt lat="48.29903" lon="-4.18306">
        <ele>22.3</ele>
        <time>2020-06-08T14:35:48Z</time>
      </trkpt>
      <trkpt lat="48.29904" lon="-4.18307">
        <ele>22.5</ele>
        <time>2020-06-08T14:35:49Z</time>
      </trkpt>
      <trkpt lat="48.29907" lon="-4.1831">
        <ele>22.8</ele>
        <time>2020-06-08T14:35:50Z</time>
      </trkpt>
      <trkpt lat="48.29907" lon="-4.18311">
        <ele>22.9</ele>
        <time>2020-06-08T14:35:51Z</time>
      </trkpt>
      <trkpt lat="48.29909" lon="-4.18314">
        <ele>23.2</ele>
        <time>2020-06-08T14:35:52Z</time>
      </trkpt>
      <trkpt lat="48.29912" lon="-4.18317">
        <ele>23.5</ele>
        <time>2020-06-08T14:35:53Z</time>
      </trkpt>
      <trkpt lat="48.29913" lon="-4.18318">
        <ele>23.6</ele>
        <time>2020-06-08T14:35:54Z</time>
      </trkpt>
      <trkpt lat="48.29914" lon="-4.1832">
        <ele>23.8</ele>
        <time>2020-06-08T14:35:55Z</time>
      </trkpt>
      <trkpt lat="48.29915" lon="-4.18322">
        <ele>23.9</ele>
        <time>2020-06-08T14:35:56Z</time>
      </trkpt>
      <trkpt lat="48.29917" lon="-4.18324">
        <ele>24.2</ele>
        <time>2020-06-08T14:35:57Z</time>
      </trkpt>
      <trkpt lat="48.29918" lon="-4.18325">
        <ele>24.3</ele>
        <time>2020-06-08T14:35:58Z</time>
      </trkpt>
      <trkpt lat="48.2992" lon="-4.18329">
        <ele>24.6</ele>
        <time>2020-06-08T14:35:59Z</time>
      </trkpt>
      <trkpt lat="48.29923" lon="-4.18332">
        <ele>25</ele>
        <time>2020-06-08T14:36:00Z</time>
      </trkpt>
      <trkpt lat="48.29924" lon="-4.18333">
        <ele>25.1</ele>
        <time>2020-06-08T14:36:01Z</time>
      </trkpt>
      <trkpt lat="48.29927" lon="-4.18336">
        <ele>25.5</ele>
        <time>2020-06-08T14:36:02Z</time>
      </trkpt>
      <trkpt lat="48.29928" lon="-4.18337">
        <ele>25.6</ele>
        <time>2020-06-08T14:36:03Z</time>
      </trkpt>
      <trkpt lat="48.29931" lon="-4.1834">
        <ele>25.9</ele>
        <time>2020-06-08T14:36:04Z</time>
      </trkpt>
      <trkpt lat="48.29932" lon="-4.18341">
        <ele>26</ele>
        <time>2020-06-08T14:36:05Z</time>
      </trkpt>
      <trkpt lat="48.29935" lon="-4.18344">
        <ele>26.3</ele>
        <time>2020-06-08T14:36:06Z</time>
      </trkpt>
      <trkpt lat="48.29936" lon="-4.18345">
        <ele>26.4</ele>
        <time>2020-06-08T14:36:07Z</time>
      </trkpt>
      <trkpt lat="48.29939" lon="-4.18349">
        <ele>26.8</ele>
        <time>2020-06-08T14:36:08Z</time>
      </trkpt>
      <trkpt lat="48.2994" lon="-4.18351">
        <ele>26.9</ele>
        <time>2020-06-08T14:36:09Z</time>
      </trkpt>
      <trkpt lat="48.29943" lon="-4.18354">
        <ele>27.2</ele>
        <time>2020-06-08T14:36:10Z</time>
      </trkpt>
      <trkpt lat="48.29943" lon="-4.18355">
        <ele>27.2</ele>
        <time>2020-06-08T14:36:11Z</time>
      </trkpt>
      <trkpt lat="48.29946" lon="-4.18358">
        <ele>27.5</ele>
        <time>2020-06-08T14:36:12Z</time>
      </trkpt>
      <trkpt lat="48.29947" lon="-4.18359">
        <ele>27.6</ele>
        <time>2020-06-08T14:36:13Z</time>
      </trkpt>
      <trkpt lat="48.29949" lon="-4.18361">
        <ele>27.8</ele>
        <time>2020-06-08T14:36:14Z</time>
      </trkpt>
      <trkpt lat="48.2995" lon="-4.18362">
        <ele>27.9</ele>
        <time>2020-06-08T14:36:15Z</time>
      </trkpt>
      <trkpt lat="48.29952" lon="-4.18365">
        <ele>28.1</ele>
        <time>2020-06-08T14:36:16Z</time>
      </trkpt>
      <trkpt lat="48.29955" lon="-4.18369">
        <ele>28.4</ele>
        <time>2020-06-08T14:36:17Z</time>
      </trkpt>
      <trkpt lat="48.29955" lon="-4.1837">
        <ele>28.5</ele>
        <time>2020-06-08T14:36:18Z</time>
      </trkpt>
      <trkpt lat="48.29958" lon="-4.18374">
        <ele>28.7</ele>
        <time>2020-06-08T14:36:19Z</time>
      </trkpt>
      <trkpt lat="48.29959" lon="-4.18375">
        <ele>28.8</ele>
        <time>2020-06-08T14:36:20Z</time>
      </trkpt>
      <trkpt lat="48.29962" lon="-4.18379">
        <ele>29.1</ele>
        <time>2020-06-08T14:36:21Z</time>
      </trkpt>
      <trkpt lat="48.29963" lon="-4.1838">
        <ele>29.2</ele>
        <time>2020-06-08T14:36:22Z</time>
      </trkpt>
      <trkpt lat="48.29965" lon="-4.18384">
        <ele>29.4</ele>
        <time>2020-06-08T14:36:23Z</time>
      </trkpt>
      <trkpt lat="48.29966" lon="-4.18385">
        <ele>29.5</ele>
        <time>2020-06-08T14:36:24Z</time>
      </trkpt>
      <trkpt lat="48.29968" lon="-4.18387">
        <ele>29.7</ele>
        <time>2020-06-08T14:36:25Z</time>
      </trkpt>
      <trkpt lat="48.29969" lon="-4.18388">
        <ele>29.8</ele>
        <time>2020-06-08T14:36:26Z</time>
      </trkpt>
      <trkpt lat="48.29972" lon="-4.18391">
        <ele>30</ele>
        <time>2020-06-08T14:36:27Z</time>
      </trkpt>
      <trkpt lat="48.29973" lon="-4.18392">
        <ele>30.1</ele>
        <time>2020-06-08T14:36:28Z</time>
      </trkpt>
      <trkpt lat="48.29976" lon="-4.18394">
        <ele>30.4</ele>
        <time>2020-06-08T14:36:29Z</time>
      </trkpt>
      <trkpt lat="48.29977" lon="-4.18395">
        <ele>30.4</ele>
        <time>2020-06-08T14:36:30Z</time>
      </trkpt>
      <trkpt lat="48.29979" lon="-4.18399">
        <ele>30.7</ele>
        <time>2020-06-08T14:36:31Z</time>
      </trkpt>
      <trkpt lat="48.2998" lon="-4.184">
        <ele>30.7</ele>
        <time>2020-06-08T14:36:32Z</time>
      </trkpt>
      <trkpt lat="48.29983" lon="-4.18402">
        <ele>31</ele>
        <time>2020-06-08T14:36:33Z</time>
      </trkpt>
      <trkpt lat="48.29984" lon="-4.18403">
        <ele>31</ele>
        <time>2020-06-08T14:36:34Z</time>
      </trkpt>
      <trkpt lat="48.29988" lon="-4.18405">
        <ele>31.3</ele>
        <time>2020-06-08T14:36:35Z</time>
      </trkpt>
      <trkpt lat="48.29989" lon="-4.18406">
        <ele>31.4</ele>
        <time>2020-06-08T14:36:36Z</time>
      </trkpt>
      <trkpt lat="48.29991" lon="-4.1841">
        <ele>31.6</ele>
        <time>2020-06-08T14:36:37Z</time>
      </trkpt>
      <trkpt lat="48.29992" lon="-4.18411">
        <ele>31.7</ele>
        <time>2020-06-08T14:36:38Z</time>
      </trkpt>
      <trkpt lat="48.29995" lon="-4.18414">
        <ele>32</ele>
        <time>2020-06-08T14:36:39Z</time>
      </trkpt>
      <trkpt lat="48.29996" lon="-4.18415">
        <ele>32</ele>
        <time>2020-06-08T14:36:40Z</time>
      </trkpt>
      <trkpt lat="48.29999" lon="-4.18417">
        <ele>32.3</ele>
        <time>2020-06-08T14:36:41Z</time>
      </trkpt>
      <trkpt lat="48.29999" lon="-4.18418">
        <ele>32.3</ele>
        <time>2020-06-08T14:36:42Z</time>
      </trkpt>
      <trkpt lat="48.30001" lon="-4.18422">
        <ele>32.6</ele>
        <time>2020-06-08T14:36:43Z</time>
      </trkpt>
      <trkpt lat="48.30002" lon="-4.18423">
        <ele>32.7</ele>
        <time>2020-06-08T14:36:44Z</time>
      </trkpt>
      <trkpt lat="48.30004" lon="-4.18426">
        <ele>32.9</ele>
        <time>2020-06-08T14:36:45Z</time>
      </trkpt>
      <trkpt lat="48.30005" lon="-4.18426">
        <ele>32.9</ele>
        <time>2020-06-08T14:36:46Z</time>
      </trkpt>
      <trkpt lat="48.30007" lon="-4.18429">
        <ele>33.2</ele>
        <time>2020-06-08T14:36:47Z</time>
      </trkpt>
      <trkpt lat="48.30008" lon="-4.1843">
        <ele>33.2</ele>
        <time>2020-06-08T14:36:48Z</time>
      </trkpt>
      <trkpt lat="48.30011" lon="-4.18434">
        <ele>33.5</ele>
        <time>2020-06-08T14:36:49Z</time>
      </trkpt>
      <trkpt lat="48.30012" lon="-4.18435">
        <ele>33.6</ele>
        <time>2020-06-08T14:36:50Z</time>
      </trkpt>
      <trkpt lat="48.30016" lon="-4.18437">
        <ele>33.9</ele>
        <time>2020-06-08T14:36:51Z</time>
      </trkpt>
      <trkpt lat="48.30017" lon="-4.18439">
        <ele>34</ele>
        <time>2020-06-08T14:36:52Z</time>
      </trkpt>
      <trkpt lat="48.30019" lon="-4.18441">
        <ele>34.2</ele>
        <time>2020-06-08T14:36:53Z</time>
      </trkpt>
      <trkpt lat="48.30022" lon="-4.18443">
        <ele>34.4</ele>
        <time>2020-06-08T14:36:54Z</time>
      </trkpt>
      <trkpt lat="48.30023" lon="-4.18443">
        <ele>34.5</ele>
        <time>2020-06-08T14:36:55Z</time>
      </trkpt>
      <trkpt lat="48.30025" lon="-4.18446">
        <ele>34.7</ele>
        <time>2020-06-08T14:36:56Z</time>
      </trkpt>
      <trkpt lat="48.30028" lon="-4.1845">
        <ele>34.9</ele>
        <time>2020-06-08T14:36:57Z</time>
      </trkpt>
      <trkpt lat="48.30029" lon="-4.18451">
        <ele>35</ele>
        <time>2020-06-08T14:36:58Z</time>
      </trkpt>
      <trkpt lat="48.30031" lon="-4.18454">
        <ele>35.3</ele>
        <time>2020-06-08T14:36:59Z</time>
      </trkpt>
      <trkpt lat="48.30032" lon="-4.18455">
        <ele>35.3</ele>
        <time>2020-06-08T14:37:00Z</time>
      </trkpt>
      <trkpt lat="48.30035" lon="-4.18456">
        <ele>35.5</ele>
        <time>2020-06-08T14:37:01Z</time>
      </trkpt>
      <trkpt lat="48.30036" lon="-4.18457">
        <ele>35.6</ele>
        <time>2020-06-08T14:37:02Z</time>
      </trkpt>
      <trkpt lat="48.30039" lon="-4.18459">
        <ele>35.8</ele>
        <time>2020-06-08T14:37:03Z</time>
      </trkpt>
      <trkpt lat="48.3004" lon="-4.1846">
        <ele>36.1</ele>
        <time>2020-06-08T14:37:04Z</time>
      </trkpt>
      <trkpt lat="48.30043" lon="-4.18462">
        <ele>36.1</ele>
        <time>2020-06-08T14:37:05Z</time>
      </trkpt>
      <trkpt lat="48.30044" lon="-4.18463">
        <ele>36.1</ele>
        <time>2020-06-08T14:37:06Z</time>
      </trkpt>
      <trkpt lat="48.30046" lon="-4.18466">
        <ele>36.1</ele>
        <time>2020-06-08T14:37:07Z</time>
      </trkpt>
      <trkpt lat="48.30047" lon="-4.18467">
        <ele>36.2</ele>
        <time>2020-06-08T14:37:08Z</time>
      </trkpt>
      <trkpt lat="48.3005" lon="-4.18469">
        <ele>36.4</ele>
        <time>2020-06-08T14:37:09Z</time>
      </trkpt>
      <trkpt lat="48.3005" lon="-4.1847">
        <ele>36.4</ele>
        <time>2020-06-08T14:37:10Z</time>
      </trkpt>
      <trkpt lat="48.30051" lon="-4.18471">
        <ele>36.5</ele>
        <time>2020-06-08T14:37:11Z</time>
      </trkpt>
      <trkpt lat="48.30053" lon="-4.18473">
        <ele>36.6</ele>
        <time>2020-06-08T14:37:12Z</time>
      </trkpt>
      <trkpt lat="48.30055" lon="-4.18477">
        <ele>36.8</ele>
        <time>2020-06-08T14:37:13Z</time>
      </trkpt>
      <trkpt lat="48.30056" lon="-4.18479">
        <ele>36.9</ele>
        <time>2020-06-08T14:37:14Z</time>
      </trkpt>
      <trkpt lat="48.30059" lon="-4.18482">
        <ele>37</ele>
        <time>2020-06-08T14:37:15Z</time>
      </trkpt>
      <trkpt lat="48.30059" lon="-4.18483">
        <ele>37.1</ele>
        <time>2020-06-08T14:37:16Z</time>
      </trkpt>
      <trkpt lat="48.30062" lon="-4.18486">
        <ele>37.2</ele>
        <time>2020-06-08T14:37:17Z</time>
      </trkpt>
      <trkpt lat="48.30065" lon="-4.18489">
        <ele>37.4</ele>
        <time>2020-06-08T14:37:18Z</time>
      </trkpt>
      <trkpt lat="48.30066" lon="-4.18489">
        <ele>37.4</ele>
        <time>2020-06-08T14:37:19Z</time>
      </trkpt>
      <trkpt lat="48.30069" lon="-4.18491">
        <ele>37.5</ele>
        <time>2020-06-08T14:37:20Z</time>
      </trkpt>
      <trkpt lat="48.3007" lon="-4.18492">
        <ele>37.5</ele>
        <time>2020-06-08T14:37:21Z</time>
      </trkpt>
      <trkpt lat="48.30071" lon="-4.18493">
        <ele>37.6</ele>
        <time>2020-06-08T14:37:22Z</time>
      </trkpt>
      <trkpt lat="48.30072" lon="-4.18494">
        <ele>37.6</ele>
        <time>2020-06-08T14:37:23Z</time>
      </trkpt>
      <trkpt lat="48.30073" lon="-4.18495">
        <ele>37.7</ele>
        <time>2020-06-08T14:37:24Z</time>
      </trkpt>
      <trkpt lat="48.30075" lon="-4.18497">
        <ele>37.7</ele>
        <time>2020-06-08T14:37:25Z</time>
      </trkpt>
      <trkpt lat="48.30075" lon="-4.18499">
        <ele>37.7</ele>
        <time>2020-06-08T14:37:26Z</time>
      </trkpt>
      <trkpt lat="48.30076" lon="-4.18501">
        <ele>37.8</ele>
        <time>2020-06-08T14:37:27Z</time>
      </trkpt>
      <trkpt lat="48.30078" lon="-4.18502">
        <ele>37.8</ele>
        <time>2020-06-08T14:37:28Z</time>
      </trkpt>
      <trkpt lat="48.30079" lon="-4.18503">
        <ele>37.9</ele>
        <time>2020-06-08T14:37:29Z</time>
      </trkpt>
      <trkpt lat="48.3008" lon="-4.18503">
        <ele>37.9</ele>
        <time>2020-06-08T14:37:30Z</time>
      </trkpt>
      <trkpt lat="48.30081" lon="-4.18503">
        <ele>37.9</ele>
        <time>2020-06-08T14:37:31Z</time>
      </trkpt>
      <trkpt lat="48.30082" lon="-4.18503">
        <ele>37.9</ele>
        <time>2020-06-08T14:37:32Z</time>
      </trkpt>
      <trkpt lat="48.30082" lon="-4.18503">
        <ele>37.9</ele>
        <time>2020-06-08T14:37:33Z</time>
      </trkpt>
      <trkpt lat="48.30082" lon="-4.18503">
        <ele>37.9</ele>
        <time>2020-06-08T14:37:34Z</time>
      </trkpt>
      <trkpt lat="48.30082" lon="-4.18504">
        <ele>37.9</ele>
        <time>2020-06-08T14:37:35Z</time>
      </trkpt>
      <trkpt lat="48.30082" lon="-4.18503">
        <ele>37.9</ele>
        <time>2020-06-08T14:37:36Z</time>
      </trkpt>
      <trkpt lat="48.30082" lon="-4.18503">
        <ele>38</ele>
        <time>2020-06-08T14:37:37Z</time>
      </trkpt>
      <trkpt lat="48.30082" lon="-4.18503">
        <ele>38</ele>
        <time>2020-06-08T14:37:38Z</time>
      </trkpt>
      <trkpt lat="48.30082" lon="-4.18503">
        <ele>38</ele>
        <time>2020-06-08T14:37:39Z</time>
      </trkpt>
      <trkpt lat="48.30082" lon="-4.18503">
        <ele>38</ele>
        <time>2020-06-08T14:37:40Z</time>
      </trkpt>
      <trkpt lat="48.30083" lon="-4.18503">
        <ele>38</ele>
        <time>2020-06-08T14:37:41Z</time>
      </trkpt>
      <trkpt lat="48.30083" lon="-4.18503">
        <ele>38</ele>
        <time>2020-06-08T14:37:42Z</time>
      </trkpt>
      <trkpt lat="48.30083" lon="-4.18503">
        <ele>38</ele>
        <time>2020-06-08T14:37:43Z</time>
      </trkpt>
      <trkpt lat="48.30087" lon="-4.18509">
        <ele>38.1</ele>
        <time>2020-06-08T14:39:49Z</time>
      </trkpt>
      <trkpt lat="48.30088" lon="-4.1851">
        <ele>38.1</ele>
        <time>2020-06-08T14:39:50Z</time>
      </trkpt>
      <trkpt lat="48.30091" lon="-4.18514">
        <ele>38.1</ele>
        <time>2020-06-08T14:39:51Z</time>
      </trkpt>
      <trkpt lat="48.30091" lon="-4.18516">
        <ele>38.1</ele>
        <time>2020-06-08T14:39:52Z</time>
      </trkpt>
      <trkpt lat="48.30095" lon="-4.1852">
        <ele>38.1</ele>
        <time>2020-06-08T14:39:53Z</time>
      </trkpt>
      <trkpt lat="48.30096" lon="-4.18521">
        <ele>38.1</ele>
        <time>2020-06-08T14:39:54Z</time>
      </trkpt>
      <trkpt lat="48.30098" lon="-4.18524">
        <ele>38.1</ele>
        <time>2020-06-08T14:39:55Z</time>
      </trkpt>
      <trkpt lat="48.30101" lon="-4.18526">
        <ele>38.1</ele>
        <time>2020-06-08T14:39:56Z</time>
      </trkpt>
      <trkpt lat="48.30104" lon="-4.1853">
        <ele>38.1</ele>
        <time>2020-06-08T14:39:57Z</time>
      </trkpt>
      <trkpt lat="48.30105" lon="-4.18531">
        <ele>38.1</ele>
        <time>2020-06-08T14:39:58Z</time>
      </trkpt>
      <trkpt lat="48.30108" lon="-4.18533">
        <ele>38.1</ele>
        <time>2020-06-08T14:39:59Z</time>
      </trkpt>
      <trkpt lat="48.30111" lon="-4.18536">
        <ele>38.1</ele>
        <time>2020-06-08T14:40:00Z</time>
      </trkpt>
      <trkpt lat="48.30112" lon="-4.18538">
        <ele>38.1</ele>
        <time>2020-06-08T14:40:01Z</time>
      </trkpt>
      <trkpt lat="48.30114" lon="-4.18539">
        <ele>38.1</ele>
        <time>2020-06-08T14:40:02Z</time>
      </trkpt>
      <trkpt lat="48.30115" lon="-4.1854">
        <ele>38</ele>
        <time>2020-06-08T14:40:03Z</time>
      </trkpt>
      <trkpt lat="48.30118" lon="-4.18542">
        <ele>38</ele>
        <time>2020-06-08T14:40:04Z</time>
      </trkpt>
      <trkpt lat="48.30119" lon="-4.18543">
        <ele>38</ele>
        <time>2020-06-08T14:40:05Z</time>
      </trkpt>
      <trkpt lat="48.30122" lon="-4.18545">
        <ele>38</ele>
        <time>2020-06-08T14:40:06Z</time>
      </trkpt>
      <trkpt lat="48.30125" lon="-4.18548">
        <ele>38</ele>
        <time>2020-06-08T14:40:07Z</time>
      </trkpt>
      <trkpt lat="48.30128" lon="-4.18551">
        <ele>38</ele>
        <time>2020-06-08T14:40:08Z</time>
      </trkpt>
      <trkpt lat="48.30131" lon="-4.18554">
        <ele>38</ele>
        <time>2020-06-08T14:40:09Z</time>
      </trkpt>
      <trkpt lat="48.30133" lon="-4.18556">
        <ele>38</ele>
        <time>2020-06-08T14:40:10Z</time>
      </trkpt>
      <trkpt lat="48.30136" lon="-4.18559">
        <ele>38</ele>
        <time>2020-06-08T14:40:11Z</time>
      </trkpt>
      <trkpt lat="48.30138" lon="-4.18562">
        <ele>37.9</ele>
        <time>2020-06-08T14:40:12Z</time>
      </trkpt>
      <trkpt lat="48.3014" lon="-4.18565">
        <ele>37.9</ele>
        <time>2020-06-08T14:40:13Z</time>
      </trkpt>
      <trkpt lat="48.30143" lon="-4.18569">
        <ele>37.9</ele>
        <time>2020-06-08T14:40:14Z</time>
      </trkpt>
      <trkpt lat="48.30144" lon="-4.1857">
        <ele>37.9</ele>
        <time>2020-06-08T14:40:15Z</time>
      </trkpt>
      <trkpt lat="48.30146" lon="-4.18573">
        <ele>37.9</ele>
        <time>2020-06-08T14:40:16Z</time>
      </trkpt>
      <trkpt lat="48.30148" lon="-4.18578">
        <ele>37.9</ele>
        <time>2020-06-08T14:40:17Z</time>
      </trkpt>
      <trkpt lat="48.30149" lon="-4.1858">
        <ele>37.8</ele>
        <time>2020-06-08T14:40:18Z</time>
      </trkpt>
      <trkpt lat="48.3015" lon="-4.18584">
        <ele>37.8</ele>
        <time>2020-06-08T14:40:19Z</time>
      </trkpt>
      <trkpt lat="48.30153" lon="-4.18585">
        <ele>37.8</ele>
        <time>2020-06-08T14:40:20Z</time>
      </trkpt>
      <trkpt lat="48.30156" lon="-4.18588">
        <ele>37.8</ele>
        <time>2020-06-08T14:40:21Z</time>
      </trkpt>
      <trkpt lat="48.30157" lon="-4.18589">
        <ele>37.8</ele>
        <time>2020-06-08T14:40:22Z</time>
      </trkpt>
      <trkpt lat="48.3016" lon="-4.18592">
        <ele>37.8</ele>
        <time>2020-06-08T14:40:23Z</time>
      </trkpt>
      <trkpt lat="48.30161" lon="-4.18594">
        <ele>37.8</ele>
        <time>2020-06-08T14:40:24Z</time>
      </trkpt>
      <trkpt lat="48.30164" lon="-4.18597">
        <ele>37.8</ele>
        <time>2020-06-08T14:40:25Z</time>
      </trkpt>
      <trkpt lat="48.30166" lon="-4.18601">
        <ele>37.8</ele>
        <time>2020-06-08T14:40:26Z</time>
      </trkpt>
      <trkpt lat="48.30169" lon="-4.18604">
        <ele>37.8</ele>
        <time>2020-06-08T14:40:27Z</time>
      </trkpt>
      <trkpt lat="48.30172" lon="-4.18608">
        <ele>37.8</ele>
        <time>2020-06-08T14:40:28Z</time>
      </trkpt>
      <trkpt lat="48.30174" lon="-4.1861">
        <ele>37.8</ele>
        <time>2020-06-08T14:40:29Z</time>
      </trkpt>
      <trkpt lat="48.30177" lon="-4.18614">
        <ele>37.8</ele>
        <time>2020-06-08T14:40:30Z</time>
      </trkpt>
      <trkpt lat="48.30179" lon="-4.18617">
        <ele>37.9</ele>
        <time>2020-06-08T14:40:31Z</time>
      </trkpt>
      <trkpt lat="48.3018" lon="-4.18619">
        <ele>37.9</ele>
        <time>2020-06-08T14:40:32Z</time>
      </trkpt>
      <trkpt lat="48.30182" lon="-4.18624">
        <ele>37.9</ele>
        <time>2020-06-08T14:40:33Z</time>
      </trkpt>
      <trkpt lat="48.30183" lon="-4.18625">
        <ele>37.9</ele>
        <time>2020-06-08T14:40:34Z</time>
      </trkpt>
      <trkpt lat="48.30185" lon="-4.18629">
        <ele>37.9</ele>
        <time>2020-06-08T14:40:35Z</time>
      </trkpt>
      <trkpt lat="48.30187" lon="-4.18632">
        <ele>38</ele>
        <time>2020-06-08T14:40:36Z</time>
      </trkpt>
      <trkpt lat="48.30189" lon="-4.18637">
        <ele>38</ele>
        <time>2020-06-08T14:40:37Z</time>
      </trkpt>
      <trkpt lat="48.3019" lon="-4.18638">
        <ele>38</ele>
        <time>2020-06-08T14:40:38Z</time>
      </trkpt>
      <trkpt lat="48.30192" lon="-4.18641">
        <ele>38</ele>
        <time>2020-06-08T14:40:39Z</time>
      </trkpt>
      <trkpt lat="48.30195" lon="-4.18645">
        <ele>38.1</ele>
        <time>2020-06-08T14:40:40Z</time>
      </trkpt>
      <trkpt lat="48.30196" lon="-4.18647">
        <ele>38.1</ele>
        <time>2020-06-08T14:40:41Z</time>
      </trkpt>
      <trkpt lat="48.30199" lon="-4.1865">
        <ele>38.2</ele>
        <time>2020-06-08T14:40:42Z</time>
      </trkpt>
      <trkpt lat="48.30199" lon="-4.18651">
        <ele>38.2</ele>
        <time>2020-06-08T14:40:43Z</time>
      </trkpt>
      <trkpt lat="48.30202" lon="-4.18655">
        <ele>38.2</ele>
        <time>2020-06-08T14:40:44Z</time>
      </trkpt>
      <trkpt lat="48.30202" lon="-4.18657">
        <ele>38.3</ele>
        <time>2020-06-08T14:40:45Z</time>
      </trkpt>
      <trkpt lat="48.30205" lon="-4.18661">
        <ele>38.4</ele>
        <time>2020-06-08T14:40:46Z</time>
      </trkpt>
      <trkpt lat="48.30206" lon="-4.18662">
        <ele>38.4</ele>
        <time>2020-06-08T14:40:47Z</time>
      </trkpt>
      <trkpt lat="48.30207" lon="-4.18666">
        <ele>38.5</ele>
        <time>2020-06-08T14:40:48Z</time>
      </trkpt>
      <trkpt lat="48.30209" lon="-4.18671">
        <ele>38.6</ele>
        <time>2020-06-08T14:40:49Z</time>
      </trkpt>
      <trkpt lat="48.3021" lon="-4.18673">
        <ele>38.7</ele>
        <time>2020-06-08T14:40:50Z</time>
      </trkpt>
      <trkpt lat="48.30212" lon="-4.18676">
        <ele>38.8</ele>
        <time>2020-06-08T14:40:51Z</time>
      </trkpt>
      <trkpt lat="48.30214" lon="-4.1868">
        <ele>38.9</ele>
        <time>2020-06-08T14:40:52Z</time>
      </trkpt>
      <trkpt lat="48.30217" lon="-4.18683">
        <ele>39.1</ele>
        <time>2020-06-08T14:40:53Z</time>
      </trkpt>
      <trkpt lat="48.30219" lon="-4.18687">
        <ele>39.2</ele>
        <time>2020-06-08T14:40:54Z</time>
      </trkpt>
      <trkpt lat="48.30221" lon="-4.1869">
        <ele>39.4</ele>
        <time>2020-06-08T14:40:55Z</time>
      </trkpt>
      <trkpt lat="48.30223" lon="-4.18693">
        <ele>39.5</ele>
        <time>2020-06-08T14:40:56Z</time>
      </trkpt>
      <trkpt lat="48.30225" lon="-4.18696">
        <ele>39.7</ele>
        <time>2020-06-08T14:40:57Z</time>
      </trkpt>
      <trkpt lat="48.30227" lon="-4.18699">
        <ele>39.9</ele>
        <time>2020-06-08T14:40:58Z</time>
      </trkpt>
      <trkpt lat="48.3023" lon="-4.18702">
        <ele>40</ele>
        <time>2020-06-08T14:40:59Z</time>
      </trkpt>
      <trkpt lat="48.30231" lon="-4.18706">
        <ele>40.2</ele>
        <time>2020-06-08T14:41:00Z</time>
      </trkpt>
      <trkpt lat="48.30233" lon="-4.1871">
        <ele>40.4</ele>
        <time>2020-06-08T14:41:01Z</time>
      </trkpt>
      <trkpt lat="48.30234" lon="-4.18711">
        <ele>40.5</ele>
        <time>2020-06-08T14:41:02Z</time>
      </trkpt>
      <trkpt lat="48.30237" lon="-4.18714">
        <ele>40.7</ele>
        <time>2020-06-08T14:41:03Z</time>
      </trkpt>
      <trkpt lat="48.30238" lon="-4.18715">
        <ele>40.8</ele>
        <time>2020-06-08T14:41:04Z</time>
      </trkpt>
      <trkpt lat="48.3024" lon="-4.18718">
        <ele>41</ele>
        <time>2020-06-08T14:41:05Z</time>
      </trkpt>
      <trkpt lat="48.30242" lon="-4.18721">
        <ele>41.2</ele>
        <time>2020-06-08T14:41:06Z</time>
      </trkpt>
      <trkpt lat="48.30244" lon="-4.18725">
        <ele>41.4</ele>
        <time>2020-06-08T14:41:07Z</time>
      </trkpt>
      <trkpt lat="48.30247" lon="-4.18729">
        <ele>41.6</ele>
        <time>2020-06-08T14:41:08Z</time>
      </trkpt>
      <trkpt lat="48.30249" lon="-4.18732">
        <ele>41.8</ele>
        <time>2020-06-08T14:41:09Z</time>
      </trkpt>
      <trkpt lat="48.30252" lon="-4.18736">
        <ele>42</ele>
        <time>2020-06-08T14:41:10Z</time>
      </trkpt>
      <trkpt lat="48.30254" lon="-4.18739">
        <ele>42.3</ele>
        <time>2020-06-08T14:41:11Z</time>
      </trkpt>
      <trkpt lat="48.30256" lon="-4.18743">
        <ele>42.5</ele>
        <time>2020-06-08T14:41:12Z</time>
      </trkpt>
      <trkpt lat="48.30258" lon="-4.18747">
        <ele>42.7</ele>
        <time>2020-06-08T14:41:13Z</time>
      </trkpt>
      <trkpt lat="48.30261" lon="-4.18751">
        <ele>42.9</ele>
        <time>2020-06-08T14:41:14Z</time>
      </trkpt>
      <trkpt lat="48.30264" lon="-4.18755">
        <ele>43.1</ele>
        <time>2020-06-08T14:41:15Z</time>
      </trkpt>
      <trkpt lat="48.30267" lon="-4.18757">
        <ele>43.3</ele>
        <time>2020-06-08T14:41:16Z</time>
      </trkpt>
      <trkpt lat="48.30269" lon="-4.1876">
        <ele>43.5</ele>
        <time>2020-06-08T14:41:17Z</time>
      </trkpt>
      <trkpt lat="48.30271" lon="-4.18762">
        <ele>43.6</ele>
        <time>2020-06-08T14:41:18Z</time>
      </trkpt>
      <trkpt lat="48.30275" lon="-4.18764">
        <ele>43.8</ele>
        <time>2020-06-08T14:41:19Z</time>
      </trkpt>
      <trkpt lat="48.30277" lon="-4.18767">
        <ele>44</ele>
        <time>2020-06-08T14:41:20Z</time>
      </trkpt>
      <trkpt lat="48.3028" lon="-4.1877">
        <ele>44.2</ele>
        <time>2020-06-08T14:41:21Z</time>
      </trkpt>
      <trkpt lat="48.30283" lon="-4.18773">
        <ele>44.4</ele>
        <time>2020-06-08T14:41:22Z</time>
      </trkpt>
      <trkpt lat="48.30285" lon="-4.18776">
        <ele>44.6</ele>
        <time>2020-06-08T14:41:23Z</time>
      </trkpt>
      <trkpt lat="48.30287" lon="-4.18779">
        <ele>44.8</ele>
        <time>2020-06-08T14:41:24Z</time>
      </trkpt>
      <trkpt lat="48.3029" lon="-4.18781">
        <ele>44.9</ele>
        <time>2020-06-08T14:41:25Z</time>
      </trkpt>
      <trkpt lat="48.30293" lon="-4.18785">
        <ele>45.1</ele>
        <time>2020-06-08T14:41:26Z</time>
      </trkpt>
      <trkpt lat="48.30295" lon="-4.18787">
        <ele>45.2</ele>
        <time>2020-06-08T14:41:27Z</time>
      </trkpt>
      <trkpt lat="48.30297" lon="-4.1879">
        <ele>45.3</ele>
        <time>2020-06-08T14:41:28Z</time>
      </trkpt>
      <trkpt lat="48.30301" lon="-4.18792">
        <ele>45.5</ele>
        <time>2020-06-08T14:41:29Z</time>
      </trkpt>
      <trkpt lat="48.30302" lon="-4.18793">
        <ele>45.5</ele>
        <time>2020-06-08T14:41:30Z</time>
      </trkpt>
      <trkpt lat="48.30305" lon="-4.18796">
        <ele>45.6</ele>
        <time>2020-06-08T14:41:31Z</time>
      </trkpt>
      <trkpt lat="48.30307" lon="-4.188">
        <ele>45.8</ele>
        <time>2020-06-08T14:41:32Z</time>
      </trkpt>
      <trkpt lat="48.3031" lon="-4.18803">
        <ele>45.8</ele>
        <time>2020-06-08T14:41:33Z</time>
      </trkpt>
      <trkpt lat="48.30312" lon="-4.18805">
        <ele>45.9</ele>
        <time>2020-06-08T14:41:34Z</time>
      </trkpt>
      <trkpt lat="48.30315" lon="-4.18807">
        <ele>46</ele>
        <time>2020-06-08T14:41:35Z</time>
      </trkpt>
      <trkpt lat="48.30318" lon="-4.18809">
        <ele>46.1</ele>
        <time>2020-06-08T14:41:36Z</time>
      </trkpt>
      <trkpt lat="48.30319" lon="-4.1881">
        <ele>46.1</ele>
        <time>2020-06-08T14:41:37Z</time>
      </trkpt>
      <trkpt lat="48.30323" lon="-4.18813">
        <ele>46.1</ele>
        <time>2020-06-08T14:41:38Z</time>
      </trkpt>
      <trkpt lat="48.30324" lon="-4.18813">
        <ele>46.2</ele>
        <time>2020-06-08T14:41:39Z</time>
      </trkpt>
      <trkpt lat="48.30327" lon="-4.18814">
        <ele>46.2</ele>
        <time>2020-06-08T14:41:40Z</time>
      </trkpt>
      <trkpt lat="48.30329" lon="-4.18817">
        <ele>46.2</ele>
        <time>2020-06-08T14:41:41Z</time>
      </trkpt>
      <trkpt lat="48.30332" lon="-4.18819">
        <ele>46.3</ele>
        <time>2020-06-08T14:41:42Z</time>
      </trkpt>
      <trkpt lat="48.30335" lon="-4.18821">
        <ele>46.3</ele>
        <time>2020-06-08T14:41:43Z</time>
      </trkpt>
      <trkpt lat="48.30338" lon="-4.18824">
        <ele>46.3</ele>
        <time>2020-06-08T14:41:44Z</time>
      </trkpt>
      <trkpt lat="48.30341" lon="-4.18828">
        <ele>46.4</ele>
        <time>2020-06-08T14:41:45Z</time>
      </trkpt>
      <trkpt lat="48.30342" lon="-4.18829">
        <ele>46.4</ele>
        <time>2020-06-08T14:41:46Z</time>
      </trkpt>
      <trkpt lat="48.30344" lon="-4.18832">
        <ele>46.4</ele>
        <time>2020-06-08T14:41:47Z</time>
      </trkpt>
      <trkpt lat="48.30347" lon="-4.18833">
        <ele>46.5</ele>
        <time>2020-06-08T14:41:48Z</time>
      </trkpt>
      <trkpt lat="48.30351" lon="-4.18836">
        <ele>46.5</ele>
        <time>2020-06-08T14:41:49Z</time>
      </trkpt>
      <trkpt lat="48.30352" lon="-4.18837">
        <ele>46.6</ele>
        <time>2020-06-08T14:41:50Z</time>
      </trkpt>
      <trkpt lat="48.30354" lon="-4.18839">
        <ele>46.7</ele>
        <time>2020-06-08T14:41:51Z</time>
      </trkpt>
      <trkpt lat="48.30358" lon="-4.18842">
        <ele>46.8</ele>
        <time>2020-06-08T14:41:52Z</time>
      </trkpt>
      <trkpt lat="48.3036" lon="-4.18845">
        <ele>46.8</ele>
        <time>2020-06-08T14:41:53Z</time>
      </trkpt>
      <trkpt lat="48.30364" lon="-4.18847">
        <ele>46.9</ele>
        <time>2020-06-08T14:41:54Z</time>
      </trkpt>
      <trkpt lat="48.30366" lon="-4.18852">
        <ele>46.9</ele>
        <time>2020-06-08T14:41:55Z</time>
      </trkpt>
      <trkpt lat="48.30369" lon="-4.18855">
        <ele>46.9</ele>
        <time>2020-06-08T14:41:56Z</time>
      </trkpt>
      <trkpt lat="48.30372" lon="-4.18858">
        <ele>46.9</ele>
        <time>2020-06-08T14:41:57Z</time>
      </trkpt>
      <trkpt lat="48.30375" lon="-4.1886">
        <ele>46.9</ele>
        <time>2020-06-08T14:41:58Z</time>
      </trkpt>
      <trkpt lat="48.30378" lon="-4.18863">
        <ele>46.9</ele>
        <time>2020-06-08T14:41:59Z</time>
      </trkpt>
      <trkpt lat="48.3038" lon="-4.18865">
        <ele>46.9</ele>
        <time>2020-06-08T14:42:00Z</time>
      </trkpt>
      <trkpt lat="48.30384" lon="-4.18867">
        <ele>46.9</ele>
        <time>2020-06-08T14:42:01Z</time>
      </trkpt>
      <trkpt lat="48.30387" lon="-4.1887">
        <ele>46.9</ele>
        <time>2020-06-08T14:42:02Z</time>
      </trkpt>
      <trkpt lat="48.30388" lon="-4.18871">
        <ele>46.9</ele>
        <time>2020-06-08T14:42:03Z</time>
      </trkpt>
      <trkpt lat="48.30391" lon="-4.18872">
        <ele>46.9</ele>
        <time>2020-06-08T14:42:04Z</time>
      </trkpt>
      <trkpt lat="48.30394" lon="-4.18873">
        <ele>46.9</ele>
        <time>2020-06-08T14:42:05Z</time>
      </trkpt>
      <trkpt lat="48.30396" lon="-4.18876">
        <ele>46.8</ele>
        <time>2020-06-08T14:42:06Z</time>
      </trkpt>
      <trkpt lat="48.30399" lon="-4.18879">
        <ele>46.8</ele>
        <time>2020-06-08T14:42:07Z</time>
      </trkpt>
      <trkpt lat="48.30401" lon="-4.18881">
        <ele>46.8</ele>
        <time>2020-06-08T14:42:08Z</time>
      </trkpt>
      <trkpt lat="48.30404" lon="-4.18883">
        <ele>46.8</ele>
        <time>2020-06-08T14:42:09Z</time>
      </trkpt>
      <trkpt lat="48.30406" lon="-4.18886">
        <ele>46.8</ele>
        <time>2020-06-08T14:42:10Z</time>
      </trkpt>
      <trkpt lat="48.30409" lon="-4.18889">
        <ele>46.8</ele>
        <time>2020-06-08T14:42:11Z</time>
      </trkpt>
      <trkpt lat="48.30411" lon="-4.18891">
        <ele>46.8</ele>
        <time>2020-06-08T14:42:12Z</time>
      </trkpt>
      <trkpt lat="48.30414" lon="-4.18893">
        <ele>46.8</ele>
        <time>2020-06-08T14:42:13Z</time>
      </trkpt>
      <trkpt lat="48.30416" lon="-4.18895">
        <ele>46.8</ele>
        <time>2020-06-08T14:42:14Z</time>
      </trkpt>
      <trkpt lat="48.30419" lon="-4.18898">
        <ele>46.8</ele>
        <time>2020-06-08T14:42:15Z</time>
      </trkpt>
      <trkpt lat="48.30423" lon="-4.18901">
        <ele>46.8</ele>
        <time>2020-06-08T14:42:16Z</time>
      </trkpt>
      <trkpt lat="48.30426" lon="-4.18905">
        <ele>46.8</ele>
        <time>2020-06-08T14:42:17Z</time>
      </trkpt>
      <trkpt lat="48.30428" lon="-4.18907">
        <ele>46.8</ele>
        <time>2020-06-08T14:42:18Z</time>
      </trkpt>
      <trkpt lat="48.30431" lon="-4.18909">
        <ele>46.8</ele>
        <time>2020-06-08T14:42:19Z</time>
      </trkpt>
      <trkpt lat="48.30433" lon="-4.18912">
        <ele>46.8</ele>
        <time>2020-06-08T14:42:20Z</time>
      </trkpt>
      <trkpt lat="48.30436" lon="-4.18914">
        <ele>46.8</ele>
        <time>2020-06-08T14:42:21Z</time>
      </trkpt>
      <trkpt lat="48.30438" lon="-4.18917">
        <ele>46.8</ele>
        <time>2020-06-08T14:42:22Z</time>
      </trkpt>
      <trkpt lat="48.3044" lon="-4.1892">
        <ele>46.9</ele>
        <time>2020-06-08T14:42:23Z</time>
      </trkpt>
      <trkpt lat="48.30442" lon="-4.18921">
        <ele>46.9</ele>
        <time>2020-06-08T14:42:24Z</time>
      </trkpt>
      <trkpt lat="48.30443" lon="-4.18921">
        <ele>46.9</ele>
        <time>2020-06-08T14:42:25Z</time>
      </trkpt>
      <trkpt lat="48.30444" lon="-4.18923">
        <ele>46.9</ele>
        <time>2020-06-08T14:42:26Z</time>
      </trkpt>
      <trkpt lat="48.30445" lon="-4.18923">
        <ele>46.9</ele>
        <time>2020-06-08T14:42:27Z</time>
      </trkpt>
      <trkpt lat="48.30445" lon="-4.18923">
        <ele>46.9</ele>
        <time>2020-06-08T14:42:28Z</time>
      </trkpt>
      <trkpt lat="48.30445" lon="-4.18924">
        <ele>46.9</ele>
        <time>2020-06-08T14:42:29Z</time>
      </trkpt>
      <trkpt lat="48.30446" lon="-4.18925">
        <ele>46.9</ele>
        <time>2020-06-08T14:42:30Z</time>
      </trkpt>
      <trkpt lat="48.30447" lon="-4.18928">
        <ele>46.9</ele>
        <time>2020-06-08T14:42:31Z</time>
      </trkpt>
      <trkpt lat="48.30447" lon="-4.18929">
        <ele>46.9</ele>
        <time>2020-06-08T14:42:32Z</time>
      </trkpt>
      <trkpt lat="48.30447" lon="-4.18931">
        <ele>46.9</ele>
        <time>2020-06-08T14:42:33Z</time>
      </trkpt>
      <trkpt lat="48.30447" lon="-4.18938">
        <ele>47</ele>
        <time>2020-06-08T14:42:34Z</time>
      </trkpt>
      <trkpt lat="48.30446" lon="-4.18941">
        <ele>46.8</ele>
        <time>2020-06-08T14:42:35Z</time>
      </trkpt>
      <trkpt lat="48.30445" lon="-4.18947">
        <ele>46.4</ele>
        <time>2020-06-08T14:42:36Z</time>
      </trkpt>
      <trkpt lat="48.30443" lon="-4.18952">
        <ele>46</ele>
        <time>2020-06-08T14:42:37Z</time>
      </trkpt>
      <trkpt lat="48.30441" lon="-4.18958">
        <ele>45.5</ele>
        <time>2020-06-08T14:42:38Z</time>
      </trkpt>
      <trkpt lat="48.30439" lon="-4.18965">
        <ele>45</ele>
        <time>2020-06-08T14:42:39Z</time>
      </trkpt>
      <trkpt lat="48.30438" lon="-4.18973">
        <ele>44.5</ele>
        <time>2020-06-08T14:42:40Z</time>
      </trkpt>
      <trkpt lat="48.30436" lon="-4.18981">
        <ele>44</ele>
        <time>2020-06-08T14:42:41Z</time>
      </trkpt>
      <trkpt lat="48.30434" lon="-4.18989">
        <ele>43.8</ele>
        <time>2020-06-08T14:42:42Z</time>
      </trkpt>
      <trkpt lat="48.30433" lon="-4.18997">
        <ele>43.6</ele>
        <time>2020-06-08T14:42:43Z</time>
      </trkpt>
      <trkpt lat="48.30432" lon="-4.19006">
        <ele>43.3</ele>
        <time>2020-06-08T14:42:44Z</time>
      </trkpt>
      <trkpt lat="48.30433" lon="-4.19015">
        <ele>43.1</ele>
        <time>2020-06-08T14:42:45Z</time>
      </trkpt>
      <trkpt lat="48.30435" lon="-4.19025">
        <ele>42.9</ele>
        <time>2020-06-08T14:42:46Z</time>
      </trkpt>
      <trkpt lat="48.30438" lon="-4.19034">
        <ele>42.7</ele>
        <time>2020-06-08T14:42:47Z</time>
      </trkpt>
      <trkpt lat="48.30442" lon="-4.19043">
        <ele>42.5</ele>
        <time>2020-06-08T14:42:48Z</time>
      </trkpt>
      <trkpt lat="48.30446" lon="-4.19052">
        <ele>42.4</ele>
        <time>2020-06-08T14:42:49Z</time>
      </trkpt>
      <trkpt lat="48.3045" lon="-4.1906">
        <ele>42.4</ele>
        <time>2020-06-08T14:42:50Z</time>
      </trkpt>
      <trkpt lat="48.30454" lon="-4.19068">
        <ele>42.5</ele>
        <time>2020-06-08T14:42:51Z</time>
      </trkpt>
      <trkpt lat="48.30459" lon="-4.19075">
        <ele>42.5</ele>
        <time>2020-06-08T14:42:52Z</time>
      </trkpt>
      <trkpt lat="48.30463" lon="-4.19083">
        <ele>42.6</ele>
        <time>2020-06-08T14:42:53Z</time>
      </trkpt>
      <trkpt lat="48.30467" lon="-4.1909">
        <ele>42.7</ele>
        <time>2020-06-08T14:42:54Z</time>
      </trkpt>
      <trkpt lat="48.3047" lon="-4.19095">
        <ele>42.7</ele>
        <time>2020-06-08T14:42:55Z</time>
      </trkpt>
      <trkpt lat="48.30475" lon="-4.19101">
        <ele>42.8</ele>
        <time>2020-06-08T14:42:56Z</time>
      </trkpt>
      <trkpt lat="48.30479" lon="-4.19107">
        <ele>42.8</ele>
        <time>2020-06-08T14:42:57Z</time>
      </trkpt>
      <trkpt lat="48.30481" lon="-4.1911">
        <ele>42.9</ele>
        <time>2020-06-08T14:42:58Z</time>
      </trkpt>
      <trkpt lat="48.30484" lon="-4.19115">
        <ele>43</ele>
        <time>2020-06-08T14:42:59Z</time>
      </trkpt>
      <trkpt lat="48.30486" lon="-4.19118">
        <ele>43</ele>
        <time>2020-06-08T14:43:00Z</time>
      </trkpt>
      <trkpt lat="48.30488" lon="-4.19123">
        <ele>43.1</ele>
        <time>2020-06-08T14:43:01Z</time>
      </trkpt>
      <trkpt lat="48.3049" lon="-4.19127">
        <ele>43.2</ele>
        <time>2020-06-08T14:43:02Z</time>
      </trkpt>
      <trkpt lat="48.30492" lon="-4.19131">
        <ele>43.2</ele>
        <time>2020-06-08T14:43:03Z</time>
      </trkpt>
      <trkpt lat="48.30494" lon="-4.19134">
        <ele>43.3</ele>
        <time>2020-06-08T14:43:04Z</time>
      </trkpt>
      <trkpt lat="48.30495" lon="-4.19139">
        <ele>43.4</ele>
        <time>2020-06-08T14:43:05Z</time>
      </trkpt>
      <trkpt lat="48.30497" lon="-4.19143">
        <ele>43.5</ele>
        <time>2020-06-08T14:43:06Z</time>
      </trkpt>
      <trkpt lat="48.30499" lon="-4.19147">
        <ele>43.6</ele>
        <time>2020-06-08T14:43:07Z</time>
      </trkpt>
      <trkpt lat="48.30501" lon="-4.19151">
        <ele>43.7</ele>
        <time>2020-06-08T14:43:08Z</time>
      </trkpt>
      <trkpt lat="48.30502" lon="-4.19154">
        <ele>43.8</ele>
        <time>2020-06-08T14:43:09Z</time>
      </trkpt>
      <trkpt lat="48.30504" lon="-4.19157">
        <ele>43.9</ele>
        <time>2020-06-08T14:43:10Z</time>
      </trkpt>
      <trkpt lat="48.30506" lon="-4.19161">
        <ele>44</ele>
        <time>2020-06-08T14:43:11Z</time>
      </trkpt>
      <trkpt lat="48.30508" lon="-4.19164">
        <ele>44.1</ele>
        <time>2020-06-08T14:43:12Z</time>
      </trkpt>
      <trkpt lat="48.3051" lon="-4.19168">
        <ele>44.2</ele>
        <time>2020-06-08T14:43:13Z</time>
      </trkpt>
      <trkpt lat="48.30513" lon="-4.1917">
        <ele>44.3</ele>
        <time>2020-06-08T14:43:14Z</time>
      </trkpt>
      <trkpt lat="48.30515" lon="-4.19173">
        <ele>44.5</ele>
        <time>2020-06-08T14:43:15Z</time>
      </trkpt>
      <trkpt lat="48.30518" lon="-4.19176">
        <ele>44.6</ele>
        <time>2020-06-08T14:43:16Z</time>
      </trkpt>
      <trkpt lat="48.3052" lon="-4.19178">
        <ele>44.7</ele>
        <time>2020-06-08T14:43:17Z</time>
      </trkpt>
      <trkpt lat="48.30523" lon="-4.19181">
        <ele>44.8</ele>
        <time>2020-06-08T14:43:18Z</time>
      </trkpt>
      <trkpt lat="48.30525" lon="-4.19184">
        <ele>44.9</ele>
        <time>2020-06-08T14:43:19Z</time>
      </trkpt>
      <trkpt lat="48.30528" lon="-4.19187">
        <ele>45.1</ele>
        <time>2020-06-08T14:43:20Z</time>
      </trkpt>
      <trkpt lat="48.3053" lon="-4.1919">
        <ele>45.2</ele>
        <time>2020-06-08T14:43:21Z</time>
      </trkpt>
      <trkpt lat="48.30532" lon="-4.19194">
        <ele>45.3</ele>
        <time>2020-06-08T14:43:22Z</time>
      </trkpt>
      <trkpt lat="48.30535" lon="-4.19197">
        <ele>45.5</ele>
        <time>2020-06-08T14:43:23Z</time>
      </trkpt>
      <trkpt lat="48.30537" lon="-4.19201">
        <ele>45.7</ele>
        <time>2020-06-08T14:43:24Z</time>
      </trkpt>
      <trkpt lat="48.30539" lon="-4.19204">
        <ele>45.8</ele>
        <time>2020-06-08T14:43:25Z</time>
      </trkpt>
      <trkpt lat="48.30542" lon="-4.19208">
        <ele>45.9</ele>
        <time>2020-06-08T14:43:26Z</time>
      </trkpt>
      <trkpt lat="48.30544" lon="-4.19212">
        <ele>46.1</ele>
        <time>2020-06-08T14:43:27Z</time>
      </trkpt>
      <trkpt lat="48.30546" lon="-4.19215">
        <ele>46.2</ele>
        <time>2020-06-08T14:43:28Z</time>
      </trkpt>
      <trkpt lat="48.30548" lon="-4.1922">
        <ele>46.4</ele>
        <time>2020-06-08T14:43:29Z</time>
      </trkpt>
      <trkpt lat="48.30551" lon="-4.19225">
        <ele>46.7</ele>
        <time>2020-06-08T14:43:30Z</time>
      </trkpt>
      <trkpt lat="48.30552" lon="-4.19227">
        <ele>46.8</ele>
        <time>2020-06-08T14:43:31Z</time>
      </trkpt>
      <trkpt lat="48.30555" lon="-4.19231">
        <ele>47</ele>
        <time>2020-06-08T14:43:32Z</time>
      </trkpt>
      <trkpt lat="48.30555" lon="-4.19233">
        <ele>47.1</ele>
        <time>2020-06-08T14:43:33Z</time>
      </trkpt>
      <trkpt lat="48.30558" lon="-4.19237">
        <ele>47.3</ele>
        <time>2020-06-08T14:43:34Z</time>
      </trkpt>
      <trkpt lat="48.3056" lon="-4.19241">
        <ele>47.5</ele>
        <time>2020-06-08T14:43:35Z</time>
      </trkpt>
      <trkpt lat="48.30561" lon="-4.19242">
        <ele>47.6</ele>
        <time>2020-06-08T14:43:36Z</time>
      </trkpt>
      <trkpt lat="48.30563" lon="-4.19244">
        <ele>47.7</ele>
        <time>2020-06-08T14:43:37Z</time>
      </trkpt>
      <trkpt lat="48.30567" lon="-4.19247">
        <ele>48</ele>
        <time>2020-06-08T14:43:38Z</time>
      </trkpt>
      <trkpt lat="48.3057" lon="-4.19251">
        <ele>48.2</ele>
        <time>2020-06-08T14:43:39Z</time>
      </trkpt>
      <trkpt lat="48.30571" lon="-4.19254">
        <ele>48.4</ele>
        <time>2020-06-08T14:43:40Z</time>
      </trkpt>
      <trkpt lat="48.30574" lon="-4.19258">
        <ele>48.5</ele>
        <time>2020-06-08T14:43:41Z</time>
      </trkpt>
      <trkpt lat="48.30576" lon="-4.1926">
        <ele>48.7</ele>
        <time>2020-06-08T14:43:42Z</time>
      </trkpt>
      <trkpt lat="48.30579" lon="-4.19262">
        <ele>48.9</ele>
        <time>2020-06-08T14:43:43Z</time>
      </trkpt>
      <trkpt lat="48.3058" lon="-4.19263">
        <ele>48.9</ele>
        <time>2020-06-08T14:43:44Z</time>
      </trkpt>
      <trkpt lat="48.30583" lon="-4.19266">
        <ele>49.1</ele>
        <time>2020-06-08T14:43:45Z</time>
      </trkpt>
      <trkpt lat="48.30585" lon="-4.19268">
        <ele>49.3</ele>
        <time>2020-06-08T14:43:46Z</time>
      </trkpt>
      <trkpt lat="48.30588" lon="-4.19272">
        <ele>49.5</ele>
        <time>2020-06-08T14:43:47Z</time>
      </trkpt>
      <trkpt lat="48.30589" lon="-4.19273">
        <ele>49.6</ele>
        <time>2020-06-08T14:43:48Z</time>
      </trkpt>
      <trkpt lat="48.30592" lon="-4.19275">
        <ele>49.7</ele>
        <time>2020-06-08T14:43:49Z</time>
      </trkpt>
      <trkpt lat="48.30595" lon="-4.19278">
        <ele>49.9</ele>
        <time>2020-06-08T14:43:50Z</time>
      </trkpt>
      <trkpt lat="48.30598" lon="-4.1928">
        <ele>50.2</ele>
        <time>2020-06-08T14:43:51Z</time>
      </trkpt>
      <trkpt lat="48.306" lon="-4.19281">
        <ele>50.4</ele>
        <time>2020-06-08T14:43:52Z</time>
      </trkpt>
      <trkpt lat="48.30603" lon="-4.19284">
        <ele>50.6</ele>
        <time>2020-06-08T14:43:53Z</time>
      </trkpt>
      <trkpt lat="48.30604" lon="-4.19286">
        <ele>50.7</ele>
        <time>2020-06-08T14:43:54Z</time>
      </trkpt>
      <trkpt lat="48.30605" lon="-4.19288">
        <ele>50.9</ele>
        <time>2020-06-08T14:43:55Z</time>
      </trkpt>
      <trkpt lat="48.30607" lon="-4.19291">
        <ele>51.1</ele>
        <time>2020-06-08T14:43:56Z</time>
      </trkpt>
      <trkpt lat="48.30609" lon="-4.19293">
        <ele>51.3</ele>
        <time>2020-06-08T14:43:57Z</time>
      </trkpt>
      <trkpt lat="48.30612" lon="-4.19296">
        <ele>51.5</ele>
        <time>2020-06-08T14:43:58Z</time>
      </trkpt>
      <trkpt lat="48.30613" lon="-4.19297">
        <ele>51.6</ele>
        <time>2020-06-08T14:43:59Z</time>
      </trkpt>
      <trkpt lat="48.30616" lon="-4.19299">
        <ele>51.8</ele>
        <time>2020-06-08T14:44:00Z</time>
      </trkpt>
      <trkpt lat="48.3062" lon="-4.19303">
        <ele>52.1</ele>
        <time>2020-06-08T14:44:01Z</time>
      </trkpt>
      <trkpt lat="48.3062" lon="-4.19304">
        <ele>52.2</ele>
        <time>2020-06-08T14:44:02Z</time>
      </trkpt>
      <trkpt lat="48.30622" lon="-4.19306">
        <ele>52.3</ele>
        <time>2020-06-08T14:44:03Z</time>
      </trkpt>
      <trkpt lat="48.30623" lon="-4.19307">
        <ele>52.4</ele>
        <time>2020-06-08T14:44:04Z</time>
      </trkpt>
      <trkpt lat="48.30626" lon="-4.19309">
        <ele>52.6</ele>
        <time>2020-06-08T14:44:05Z</time>
      </trkpt>
      <trkpt lat="48.30627" lon="-4.1931">
        <ele>52.6</ele>
        <time>2020-06-08T14:44:06Z</time>
      </trkpt>
      <trkpt lat="48.30629" lon="-4.19313">
        <ele>52.8</ele>
        <time>2020-06-08T14:44:07Z</time>
      </trkpt>
      <trkpt lat="48.3063" lon="-4.19314">
        <ele>52.9</ele>
        <time>2020-06-08T14:44:08Z</time>
      </trkpt>
      <trkpt lat="48.30632" lon="-4.19317">
        <ele>53.2</ele>
        <time>2020-06-08T14:44:09Z</time>
      </trkpt>
      <trkpt lat="48.30635" lon="-4.19321">
        <ele>53.5</ele>
        <time>2020-06-08T14:44:10Z</time>
      </trkpt>
      <trkpt lat="48.30637" lon="-4.19323">
        <ele>53.6</ele>
        <time>2020-06-08T14:44:11Z</time>
      </trkpt>
      <trkpt lat="48.30639" lon="-4.19324">
        <ele>53.8</ele>
        <time>2020-06-08T14:44:12Z</time>
      </trkpt>
      <trkpt lat="48.30642" lon="-4.19328">
        <ele>54</ele>
        <time>2020-06-08T14:44:13Z</time>
      </trkpt>
      <trkpt lat="48.30643" lon="-4.19329">
        <ele>54</ele>
        <time>2020-06-08T14:44:14Z</time>
      </trkpt>
      <trkpt lat="48.30647" lon="-4.19332">
        <ele>54.3</ele>
        <time>2020-06-08T14:44:15Z</time>
      </trkpt>
      <trkpt lat="48.3065" lon="-4.19336">
        <ele>54.5</ele>
        <time>2020-06-08T14:44:16Z</time>
      </trkpt>
      <trkpt lat="48.30651" lon="-4.19337">
        <ele>54.5</ele>
        <time>2020-06-08T14:44:17Z</time>
      </trkpt>
      <trkpt lat="48.30652" lon="-4.19337">
        <ele>54.6</ele>
        <time>2020-06-08T14:44:18Z</time>
      </trkpt>
      <trkpt lat="48.30654" lon="-4.19339">
        <ele>54.7</ele>
        <time>2020-06-08T14:44:19Z</time>
      </trkpt>
      <trkpt lat="48.30657" lon="-4.19342">
        <ele>54.8</ele>
        <time>2020-06-08T14:44:20Z</time>
      </trkpt>
      <trkpt lat="48.30659" lon="-4.19345">
        <ele>55</ele>
        <time>2020-06-08T14:44:21Z</time>
      </trkpt>
      <trkpt lat="48.30663" lon="-4.19348">
        <ele>55.1</ele>
        <time>2020-06-08T14:44:22Z</time>
      </trkpt>
      <trkpt lat="48.30664" lon="-4.1935">
        <ele>55.2</ele>
        <time>2020-06-08T14:44:23Z</time>
      </trkpt>
      <trkpt lat="48.30667" lon="-4.19353">
        <ele>55.4</ele>
        <time>2020-06-08T14:44:24Z</time>
      </trkpt>
      <trkpt lat="48.30669" lon="-4.19355">
        <ele>55.4</ele>
        <time>2020-06-08T14:44:25Z</time>
      </trkpt>
      <trkpt lat="48.30671" lon="-4.19356">
        <ele>55.5</ele>
        <time>2020-06-08T14:44:26Z</time>
      </trkpt>
      <trkpt lat="48.30672" lon="-4.19357">
        <ele>55.6</ele>
        <time>2020-06-08T14:44:27Z</time>
      </trkpt>
      <trkpt lat="48.30675" lon="-4.1936">
        <ele>55.7</ele>
        <time>2020-06-08T14:44:28Z</time>
      </trkpt>
      <trkpt lat="48.30676" lon="-4.19361">
        <ele>55.7</ele>
        <time>2020-06-08T14:44:29Z</time>
      </trkpt>
      <trkpt lat="48.30679" lon="-4.19364">
        <ele>55.8</ele>
        <time>2020-06-08T14:44:30Z</time>
      </trkpt>
      <trkpt lat="48.30681" lon="-4.19366">
        <ele>55.9</ele>
        <time>2020-06-08T14:44:31Z</time>
      </trkpt>
      <trkpt lat="48.30685" lon="-4.19369">
        <ele>56.1</ele>
        <time>2020-06-08T14:44:32Z</time>
      </trkpt>
      <trkpt lat="48.30686" lon="-4.19371">
        <ele>56.1</ele>
        <time>2020-06-08T14:44:33Z</time>
      </trkpt>
      <trkpt lat="48.30688" lon="-4.19374">
        <ele>56.2</ele>
        <time>2020-06-08T14:44:34Z</time>
      </trkpt>
      <trkpt lat="48.30688" lon="-4.19375">
        <ele>56.2</ele>
        <time>2020-06-08T14:44:35Z</time>
      </trkpt>
      <trkpt lat="48.30691" lon="-4.19377">
        <ele>56.3</ele>
        <time>2020-06-08T14:44:36Z</time>
      </trkpt>
      <trkpt lat="48.30692" lon="-4.19377">
        <ele>56.3</ele>
        <time>2020-06-08T14:44:37Z</time>
      </trkpt>
      <trkpt lat="48.30695" lon="-4.1938">
        <ele>56.4</ele>
        <time>2020-06-08T14:44:38Z</time>
      </trkpt>
      <trkpt lat="48.30697" lon="-4.19383">
        <ele>56.5</ele>
        <time>2020-06-08T14:44:39Z</time>
      </trkpt>
      <trkpt lat="48.307" lon="-4.19387">
        <ele>56.6</ele>
        <time>2020-06-08T14:44:40Z</time>
      </trkpt>
      <trkpt lat="48.307" lon="-4.19389">
        <ele>56.7</ele>
        <time>2020-06-08T14:44:41Z</time>
      </trkpt>
      <trkpt lat="48.30702" lon="-4.1939">
        <ele>56.7</ele>
        <time>2020-06-08T14:44:42Z</time>
      </trkpt>
      <trkpt lat="48.30705" lon="-4.19393">
        <ele>56.8</ele>
        <time>2020-06-08T14:44:43Z</time>
      </trkpt>
      <trkpt lat="48.30706" lon="-4.19394">
        <ele>56.9</ele>
        <time>2020-06-08T14:44:44Z</time>
      </trkpt>
      <trkpt lat="48.30709" lon="-4.19398">
        <ele>57</ele>
        <time>2020-06-08T14:44:45Z</time>
      </trkpt>
      <trkpt lat="48.30712" lon="-4.194">
        <ele>57</ele>
        <time>2020-06-08T14:44:46Z</time>
      </trkpt>
      <trkpt lat="48.30715" lon="-4.19404">
        <ele>57.2</ele>
        <time>2020-06-08T14:44:47Z</time>
      </trkpt>
      <trkpt lat="48.30717" lon="-4.19406">
        <ele>57.2</ele>
        <time>2020-06-08T14:44:48Z</time>
      </trkpt>
      <trkpt lat="48.30719" lon="-4.19408">
        <ele>57.3</ele>
        <time>2020-06-08T14:44:49Z</time>
      </trkpt>
      <trkpt lat="48.30723" lon="-4.19411">
        <ele>57.4</ele>
        <time>2020-06-08T14:44:50Z</time>
      </trkpt>
      <trkpt lat="48.30725" lon="-4.19412">
        <ele>57.5</ele>
        <time>2020-06-08T14:44:51Z</time>
      </trkpt>
      <trkpt lat="48.30727" lon="-4.19416">
        <ele>57.6</ele>
        <time>2020-06-08T14:44:52Z</time>
      </trkpt>
      <trkpt lat="48.30731" lon="-4.19419">
        <ele>57.7</ele>
        <time>2020-06-08T14:44:53Z</time>
      </trkpt>
      <trkpt lat="48.30732" lon="-4.1942">
        <ele>57.8</ele>
        <time>2020-06-08T14:44:54Z</time>
      </trkpt>
      <trkpt lat="48.30736" lon="-4.19424">
        <ele>57.9</ele>
        <time>2020-06-08T14:44:55Z</time>
      </trkpt>
      <trkpt lat="48.30737" lon="-4.19425">
        <ele>58</ele>
        <time>2020-06-08T14:44:56Z</time>
      </trkpt>
      <trkpt lat="48.30739" lon="-4.19428">
        <ele>58</ele>
        <time>2020-06-08T14:44:57Z</time>
      </trkpt>
      <trkpt lat="48.30741" lon="-4.1943">
        <ele>58.1</ele>
        <time>2020-06-08T14:44:58Z</time>
      </trkpt>
      <trkpt lat="48.30745" lon="-4.19432">
        <ele>58.1</ele>
        <time>2020-06-08T14:44:59Z</time>
      </trkpt>
      <trkpt lat="48.30747" lon="-4.19433">
        <ele>58.1</ele>
        <time>2020-06-08T14:45:00Z</time>
      </trkpt>
      <trkpt lat="48.3075" lon="-4.19436">
        <ele>58.1</ele>
        <time>2020-06-08T14:45:01Z</time>
      </trkpt>
      <trkpt lat="48.30752" lon="-4.19438">
        <ele>58.3</ele>
        <time>2020-06-08T14:45:02Z</time>
      </trkpt>
      <trkpt lat="48.30754" lon="-4.19442">
        <ele>58.4</ele>
        <time>2020-06-08T14:45:03Z</time>
      </trkpt>
      <trkpt lat="48.30757" lon="-4.19445">
        <ele>58.4</ele>
        <time>2020-06-08T14:45:04Z</time>
      </trkpt>
      <trkpt lat="48.30758" lon="-4.19446">
        <ele>58.5</ele>
        <time>2020-06-08T14:45:05Z</time>
      </trkpt>
      <trkpt lat="48.30761" lon="-4.19449">
        <ele>58.5</ele>
        <time>2020-06-08T14:45:06Z</time>
      </trkpt>
      <trkpt lat="48.30762" lon="-4.19451">
        <ele>58.6</ele>
        <time>2020-06-08T14:45:07Z</time>
      </trkpt>
      <trkpt lat="48.30764" lon="-4.19452">
        <ele>58.6</ele>
        <time>2020-06-08T14:45:08Z</time>
      </trkpt>
      <trkpt lat="48.30765" lon="-4.19454">
        <ele>58.6</ele>
        <time>2020-06-08T14:45:09Z</time>
      </trkpt>
      <trkpt lat="48.30767" lon="-4.19457">
        <ele>58.7</ele>
        <time>2020-06-08T14:45:10Z</time>
      </trkpt>
      <trkpt lat="48.3077" lon="-4.1946">
        <ele>58.7</ele>
        <time>2020-06-08T14:45:11Z</time>
      </trkpt>
      <trkpt lat="48.30773" lon="-4.19464">
        <ele>58.8</ele>
        <time>2020-06-08T14:45:12Z</time>
      </trkpt>
      <trkpt lat="48.30776" lon="-4.19467">
        <ele>58.9</ele>
        <time>2020-06-08T14:45:13Z</time>
      </trkpt>
      <trkpt lat="48.30776" lon="-4.19468">
        <ele>58.9</ele>
        <time>2020-06-08T14:45:14Z</time>
      </trkpt>
      <trkpt lat="48.30778" lon="-4.19471">
        <ele>58.9</ele>
        <time>2020-06-08T14:45:15Z</time>
      </trkpt>
      <trkpt lat="48.3078" lon="-4.19474">
        <ele>59</ele>
        <time>2020-06-08T14:45:16Z</time>
      </trkpt>
      <trkpt lat="48.30782" lon="-4.19477">
        <ele>59</ele>
        <time>2020-06-08T14:45:17Z</time>
      </trkpt>
      <trkpt lat="48.30785" lon="-4.1948">
        <ele>59.1</ele>
        <time>2020-06-08T14:45:18Z</time>
      </trkpt>
      <trkpt lat="48.30787" lon="-4.19482">
        <ele>59.1</ele>
        <time>2020-06-08T14:45:19Z</time>
      </trkpt>
      <trkpt lat="48.3079" lon="-4.19484">
        <ele>59.2</ele>
        <time>2020-06-08T14:45:20Z</time>
      </trkpt>
      <trkpt lat="48.30793" lon="-4.19486">
        <ele>59.2</ele>
        <time>2020-06-08T14:45:21Z</time>
      </trkpt>
      <trkpt lat="48.30796" lon="-4.19488">
        <ele>59.3</ele>
        <time>2020-06-08T14:45:22Z</time>
      </trkpt>
      <trkpt lat="48.30798" lon="-4.19491">
        <ele>59.3</ele>
        <time>2020-06-08T14:45:23Z</time>
      </trkpt>
      <trkpt lat="48.30801" lon="-4.19494">
        <ele>59.3</ele>
        <time>2020-06-08T14:45:24Z</time>
      </trkpt>
      <trkpt lat="48.30804" lon="-4.19497">
        <ele>59.4</ele>
        <time>2020-06-08T14:45:25Z</time>
      </trkpt>
      <trkpt lat="48.30808" lon="-4.19501">
        <ele>59.4</ele>
        <time>2020-06-08T14:45:26Z</time>
      </trkpt>
      <trkpt lat="48.3081" lon="-4.19504">
        <ele>59.5</ele>
        <time>2020-06-08T14:45:27Z</time>
      </trkpt>
      <trkpt lat="48.30813" lon="-4.19508">
        <ele>59.5</ele>
        <time>2020-06-08T14:45:28Z</time>
      </trkpt>
      <trkpt lat="48.30814" lon="-4.19509">
        <ele>59.5</ele>
        <time>2020-06-08T14:45:29Z</time>
      </trkpt>
      <trkpt lat="48.30816" lon="-4.19512">
        <ele>59.5</ele>
        <time>2020-06-08T14:45:30Z</time>
      </trkpt>
      <trkpt lat="48.30818" lon="-4.19515">
        <ele>59.5</ele>
        <time>2020-06-08T14:45:31Z</time>
      </trkpt>
      <trkpt lat="48.30821" lon="-4.19519">
        <ele>59.6</ele>
        <time>2020-06-08T14:45:32Z</time>
      </trkpt>
      <trkpt lat="48.30823" lon="-4.19521">
        <ele>59.6</ele>
        <time>2020-06-08T14:45:33Z</time>
      </trkpt>
      <trkpt lat="48.30827" lon="-4.19525">
        <ele>59.6</ele>
        <time>2020-06-08T14:45:34Z</time>
      </trkpt>
      <trkpt lat="48.30828" lon="-4.19526">
        <ele>59.6</ele>
        <time>2020-06-08T14:45:35Z</time>
      </trkpt>
      <trkpt lat="48.30831" lon="-4.1953">
        <ele>59.6</ele>
        <time>2020-06-08T14:45:36Z</time>
      </trkpt>
      <trkpt lat="48.30834" lon="-4.19534">
        <ele>59.6</ele>
        <time>2020-06-08T14:45:37Z</time>
      </trkpt>
      <trkpt lat="48.30838" lon="-4.19541">
        <ele>59.5</ele>
        <time>2020-06-08T14:45:38Z</time>
      </trkpt>
      <trkpt lat="48.30841" lon="-4.19543">
        <ele>59.5</ele>
        <time>2020-06-08T14:45:39Z</time>
      </trkpt>
      <trkpt lat="48.30844" lon="-4.19546">
        <ele>59.5</ele>
        <time>2020-06-08T14:45:40Z</time>
      </trkpt>
      <trkpt lat="48.30846" lon="-4.19548">
        <ele>59.5</ele>
        <time>2020-06-08T14:45:41Z</time>
      </trkpt>
      <trkpt lat="48.30848" lon="-4.19551">
        <ele>59.5</ele>
        <time>2020-06-08T14:45:42Z</time>
      </trkpt>
      <trkpt lat="48.30851" lon="-4.19554">
        <ele>59.5</ele>
        <time>2020-06-08T14:45:43Z</time>
      </trkpt>
      <trkpt lat="48.30852" lon="-4.19556">
        <ele>59.5</ele>
        <time>2020-06-08T14:45:44Z</time>
      </trkpt>
      <trkpt lat="48.30855" lon="-4.1956">
        <ele>59.5</ele>
        <time>2020-06-08T14:45:45Z</time>
      </trkpt>
      <trkpt lat="48.30859" lon="-4.19565">
        <ele>59.5</ele>
        <time>2020-06-08T14:45:46Z</time>
      </trkpt>
      <trkpt lat="48.30863" lon="-4.19569">
        <ele>59.5</ele>
        <time>2020-06-08T14:45:47Z</time>
      </trkpt>
      <trkpt lat="48.30866" lon="-4.19574">
        <ele>59.4</ele>
        <time>2020-06-08T14:45:48Z</time>
      </trkpt>
      <trkpt lat="48.30871" lon="-4.19579">
        <ele>59.4</ele>
        <time>2020-06-08T14:45:49Z</time>
      </trkpt>
      <trkpt lat="48.30875" lon="-4.19584">
        <ele>59.3</ele>
        <time>2020-06-08T14:45:50Z</time>
      </trkpt>
      <trkpt lat="48.30878" lon="-4.19587">
        <ele>59.3</ele>
        <time>2020-06-08T14:45:51Z</time>
      </trkpt>
      <trkpt lat="48.30881" lon="-4.1959">
        <ele>59.2</ele>
        <time>2020-06-08T14:45:52Z</time>
      </trkpt>
      <trkpt lat="48.30884" lon="-4.19594">
        <ele>59.2</ele>
        <time>2020-06-08T14:45:53Z</time>
      </trkpt>
      <trkpt lat="48.30887" lon="-4.19598">
        <ele>59.1</ele>
        <time>2020-06-08T14:45:54Z</time>
      </trkpt>
      <trkpt lat="48.30891" lon="-4.19603">
        <ele>59</ele>
        <time>2020-06-08T14:45:55Z</time>
      </trkpt>
      <trkpt lat="48.30894" lon="-4.19607">
        <ele>59</ele>
        <time>2020-06-08T14:45:56Z</time>
      </trkpt>
      <trkpt lat="48.30897" lon="-4.19612">
        <ele>58.9</ele>
        <time>2020-06-08T14:45:57Z</time>
      </trkpt>
      <trkpt lat="48.30901" lon="-4.19616">
        <ele>58.8</ele>
        <time>2020-06-08T14:45:58Z</time>
      </trkpt>
      <trkpt lat="48.30904" lon="-4.19621">
        <ele>58.8</ele>
        <time>2020-06-08T14:45:59Z</time>
      </trkpt>
      <trkpt lat="48.30907" lon="-4.19626">
        <ele>58.7</ele>
        <time>2020-06-08T14:46:00Z</time>
      </trkpt>
      <trkpt lat="48.3091" lon="-4.1963">
        <ele>58.6</ele>
        <time>2020-06-08T14:46:01Z</time>
      </trkpt>
      <trkpt lat="48.30913" lon="-4.19636">
        <ele>58.5</ele>
        <time>2020-06-08T14:46:02Z</time>
      </trkpt>
      <trkpt lat="48.30916" lon="-4.19641">
        <ele>58.4</ele>
        <time>2020-06-08T14:46:03Z</time>
      </trkpt>
      <trkpt lat="48.3092" lon="-4.19646">
        <ele>58.3</ele>
        <time>2020-06-08T14:46:04Z</time>
      </trkpt>
      <trkpt lat="48.30924" lon="-4.19653">
        <ele>58.2</ele>
        <time>2020-06-08T14:46:05Z</time>
      </trkpt>
      <trkpt lat="48.30929" lon="-4.1966">
        <ele>58</ele>
        <time>2020-06-08T14:46:06Z</time>
      </trkpt>
      <trkpt lat="48.30932" lon="-4.19666">
        <ele>57.9</ele>
        <time>2020-06-08T14:46:07Z</time>
      </trkpt>
      <trkpt lat="48.30936" lon="-4.19671">
        <ele>57.9</ele>
        <time>2020-06-08T14:46:08Z</time>
      </trkpt>
      <trkpt lat="48.30939" lon="-4.19676">
        <ele>57.8</ele>
        <time>2020-06-08T14:46:09Z</time>
      </trkpt>
      <trkpt lat="48.30943" lon="-4.19682">
        <ele>57.7</ele>
        <time>2020-06-08T14:46:10Z</time>
      </trkpt>
      <trkpt lat="48.30945" lon="-4.19688">
        <ele>57.6</ele>
        <time>2020-06-08T14:46:11Z</time>
      </trkpt>
      <trkpt lat="48.30949" lon="-4.19695">
        <ele>57.5</ele>
        <time>2020-06-08T14:46:12Z</time>
      </trkpt>
      <trkpt lat="48.30952" lon="-4.19701">
        <ele>57.3</ele>
        <time>2020-06-08T14:46:13Z</time>
      </trkpt>
      <trkpt lat="48.30956" lon="-4.1971">
        <ele>57.2</ele>
        <time>2020-06-08T14:46:14Z</time>
      </trkpt>
      <trkpt lat="48.3096" lon="-4.19716">
        <ele>57.1</ele>
        <time>2020-06-08T14:46:15Z</time>
      </trkpt>
      <trkpt lat="48.30963" lon="-4.19721">
        <ele>57</ele>
        <time>2020-06-08T14:46:16Z</time>
      </trkpt>
      <trkpt lat="48.30966" lon="-4.19728">
        <ele>56.9</ele>
        <time>2020-06-08T14:46:17Z</time>
      </trkpt>
      <trkpt lat="48.30968" lon="-4.19734">
        <ele>56.8</ele>
        <time>2020-06-08T14:46:18Z</time>
      </trkpt>
      <trkpt lat="48.30969" lon="-4.19739">
        <ele>56.7</ele>
        <time>2020-06-08T14:46:19Z</time>
      </trkpt>
      <trkpt lat="48.30974" lon="-4.19745">
        <ele>56.6</ele>
        <time>2020-06-08T14:46:20Z</time>
      </trkpt>
      <trkpt lat="48.30976" lon="-4.1975">
        <ele>56.5</ele>
        <time>2020-06-08T14:46:21Z</time>
      </trkpt>
      <trkpt lat="48.3098" lon="-4.19754">
        <ele>56.3</ele>
        <time>2020-06-08T14:46:22Z</time>
      </trkpt>
      <trkpt lat="48.30983" lon="-4.1976">
        <ele>56.2</ele>
        <time>2020-06-08T14:46:23Z</time>
      </trkpt>
      <trkpt lat="48.30987" lon="-4.19768">
        <ele>56</ele>
        <time>2020-06-08T14:46:24Z</time>
      </trkpt>
      <trkpt lat="48.3099" lon="-4.19774">
        <ele>55.8</ele>
        <time>2020-06-08T14:46:25Z</time>
      </trkpt>
      <trkpt lat="48.30993" lon="-4.1978">
        <ele>55.7</ele>
        <time>2020-06-08T14:46:26Z</time>
      </trkpt>
      <trkpt lat="48.30996" lon="-4.19787">
        <ele>55.5</ele>
        <time>2020-06-08T14:46:27Z</time>
      </trkpt>
      <trkpt lat="48.30999" lon="-4.19794">
        <ele>55.3</ele>
        <time>2020-06-08T14:46:28Z</time>
      </trkpt>
      <trkpt lat="48.31002" lon="-4.198">
        <ele>55.1</ele>
        <time>2020-06-08T14:46:29Z</time>
      </trkpt>
      <trkpt lat="48.31004" lon="-4.19806">
        <ele>55</ele>
        <time>2020-06-08T14:46:30Z</time>
      </trkpt>
      <trkpt lat="48.31008" lon="-4.19813">
        <ele>54.8</ele>
        <time>2020-06-08T14:46:31Z</time>
      </trkpt>
      <trkpt lat="48.31011" lon="-4.19821">
        <ele>54.7</ele>
        <time>2020-06-08T14:46:32Z</time>
      </trkpt>
      <trkpt lat="48.31014" lon="-4.19829">
        <ele>54.5</ele>
        <time>2020-06-08T14:46:33Z</time>
      </trkpt>
      <trkpt lat="48.31018" lon="-4.19839">
        <ele>54.3</ele>
        <time>2020-06-08T14:46:34Z</time>
      </trkpt>
      <trkpt lat="48.31022" lon="-4.19848">
        <ele>54.1</ele>
        <time>2020-06-08T14:46:35Z</time>
      </trkpt>
      <trkpt lat="48.31026" lon="-4.19856">
        <ele>53.9</ele>
        <time>2020-06-08T14:46:36Z</time>
      </trkpt>
      <trkpt lat="48.31029" lon="-4.19865">
        <ele>53.7</ele>
        <time>2020-06-08T14:46:37Z</time>
      </trkpt>
      <trkpt lat="48.31033" lon="-4.19873">
        <ele>53.5</ele>
        <time>2020-06-08T14:46:38Z</time>
      </trkpt>
      <trkpt lat="48.31036" lon="-4.19882">
        <ele>53.3</ele>
        <time>2020-06-08T14:46:39Z</time>
      </trkpt>
      <trkpt lat="48.3104" lon="-4.1989">
        <ele>53.1</ele>
        <time>2020-06-08T14:46:40Z</time>
      </trkpt>
      <trkpt lat="48.31043" lon="-4.19898">
        <ele>52.8</ele>
        <time>2020-06-08T14:46:41Z</time>
      </trkpt>
      <trkpt lat="48.31047" lon="-4.19907">
        <ele>52.6</ele>
        <time>2020-06-08T14:46:42Z</time>
      </trkpt>
      <trkpt lat="48.3105" lon="-4.19916">
        <ele>52.3</ele>
        <time>2020-06-08T14:46:43Z</time>
      </trkpt>
      <trkpt lat="48.31054" lon="-4.19925">
        <ele>52.1</ele>
        <time>2020-06-08T14:46:44Z</time>
      </trkpt>
      <trkpt lat="48.31057" lon="-4.19934">
        <ele>51.8</ele>
        <time>2020-06-08T14:46:45Z</time>
      </trkpt>
      <trkpt lat="48.3106" lon="-4.19943">
        <ele>51.5</ele>
        <time>2020-06-08T14:46:46Z</time>
      </trkpt>
      <trkpt lat="48.31062" lon="-4.19952">
        <ele>51.3</ele>
        <time>2020-06-08T14:46:47Z</time>
      </trkpt>
      <trkpt lat="48.31065" lon="-4.19961">
        <ele>51</ele>
        <time>2020-06-08T14:46:48Z</time>
      </trkpt>
      <trkpt lat="48.31068" lon="-4.1997">
        <ele>50.7</ele>
        <time>2020-06-08T14:46:49Z</time>
      </trkpt>
      <trkpt lat="48.31071" lon="-4.19979">
        <ele>50.5</ele>
        <time>2020-06-08T14:46:50Z</time>
      </trkpt>
      <trkpt lat="48.31074" lon="-4.19988">
        <ele>50.2</ele>
        <time>2020-06-08T14:46:51Z</time>
      </trkpt>
      <trkpt lat="48.31078" lon="-4.19998">
        <ele>50</ele>
        <time>2020-06-08T14:46:52Z</time>
      </trkpt>
      <trkpt lat="48.31081" lon="-4.20008">
        <ele>49.6</ele>
        <time>2020-06-08T14:46:53Z</time>
      </trkpt>
      <trkpt lat="48.31084" lon="-4.20018">
        <ele>49.3</ele>
        <time>2020-06-08T14:46:54Z</time>
      </trkpt>
      <trkpt lat="48.31086" lon="-4.20028">
        <ele>48.9</ele>
        <time>2020-06-08T14:46:55Z</time>
      </trkpt>
      <trkpt lat="48.31089" lon="-4.20039">
        <ele>48.6</ele>
        <time>2020-06-08T14:46:56Z</time>
      </trkpt>
      <trkpt lat="48.31092" lon="-4.2005">
        <ele>48.2</ele>
        <time>2020-06-08T14:46:57Z</time>
      </trkpt>
      <trkpt lat="48.31095" lon="-4.20061">
        <ele>47.9</ele>
        <time>2020-06-08T14:46:58Z</time>
      </trkpt>
      <trkpt lat="48.31098" lon="-4.20072">
        <ele>47.5</ele>
        <time>2020-06-08T14:46:59Z</time>
      </trkpt>
      <trkpt lat="48.311" lon="-4.20084">
        <ele>47</ele>
        <time>2020-06-08T14:47:00Z</time>
      </trkpt>
      <trkpt lat="48.31103" lon="-4.20096">
        <ele>46.6</ele>
        <time>2020-06-08T14:47:01Z</time>
      </trkpt>
      <trkpt lat="48.31106" lon="-4.20109">
        <ele>46.2</ele>
        <time>2020-06-08T14:47:02Z</time>
      </trkpt>
      <trkpt lat="48.31108" lon="-4.20121">
        <ele>45.7</ele>
        <time>2020-06-08T14:47:03Z</time>
      </trkpt>
      <trkpt lat="48.31111" lon="-4.20134">
        <ele>45.2</ele>
        <time>2020-06-08T14:47:04Z</time>
      </trkpt>
      <trkpt lat="48.31114" lon="-4.20147">
        <ele>44.8</ele>
        <time>2020-06-08T14:47:05Z</time>
      </trkpt>
      <trkpt lat="48.31116" lon="-4.2016">
        <ele>44.3</ele>
        <time>2020-06-08T14:47:06Z</time>
      </trkpt>
      <trkpt lat="48.31119" lon="-4.20173">
        <ele>43.9</ele>
        <time>2020-06-08T14:47:07Z</time>
      </trkpt>
      <trkpt lat="48.31122" lon="-4.20186">
        <ele>43.5</ele>
        <time>2020-06-08T14:47:08Z</time>
      </trkpt>
      <trkpt lat="48.31125" lon="-4.20199">
        <ele>43</ele>
        <time>2020-06-08T14:47:09Z</time>
      </trkpt>
      <trkpt lat="48.31128" lon="-4.20212">
        <ele>42.6</ele>
        <time>2020-06-08T14:47:10Z</time>
      </trkpt>
      <trkpt lat="48.31131" lon="-4.20225">
        <ele>42.1</ele>
        <time>2020-06-08T14:47:11Z</time>
      </trkpt>
      <trkpt lat="48.31135" lon="-4.20238">
        <ele>41.7</ele>
        <time>2020-06-08T14:47:12Z</time>
      </trkpt>
      <trkpt lat="48.31138" lon="-4.20252">
        <ele>41.2</ele>
        <time>2020-06-08T14:47:13Z</time>
      </trkpt>
      <trkpt lat="48.31142" lon="-4.20265">
        <ele>40.6</ele>
        <time>2020-06-08T14:47:14Z</time>
      </trkpt>
      <trkpt lat="48.31145" lon="-4.20278">
        <ele>40</ele>
        <time>2020-06-08T14:47:15Z</time>
      </trkpt>
      <trkpt lat="48.31149" lon="-4.20291">
        <ele>39.5</ele>
        <time>2020-06-08T14:47:16Z</time>
      </trkpt>
      <trkpt lat="48.31153" lon="-4.20305">
        <ele>38.9</ele>
        <time>2020-06-08T14:47:17Z</time>
      </trkpt>
      <trkpt lat="48.31157" lon="-4.20318">
        <ele>38.3</ele>
        <time>2020-06-08T14:47:18Z</time>
      </trkpt>
      <trkpt lat="48.31162" lon="-4.2033">
        <ele>37.7</ele>
        <time>2020-06-08T14:47:19Z</time>
      </trkpt>
      <trkpt lat="48.31167" lon="-4.20342">
        <ele>37.1</ele>
        <time>2020-06-08T14:47:20Z</time>
      </trkpt>
      <trkpt lat="48.31172" lon="-4.20355">
        <ele>36.4</ele>
        <time>2020-06-08T14:47:21Z</time>
      </trkpt>
      <trkpt lat="48.31177" lon="-4.20368">
        <ele>35.8</ele>
        <time>2020-06-08T14:47:22Z</time>
      </trkpt>
      <trkpt lat="48.31182" lon="-4.20381">
        <ele>35.2</ele>
        <time>2020-06-08T14:47:23Z</time>
      </trkpt>
      <trkpt lat="48.31188" lon="-4.20394">
        <ele>34.6</ele>
        <time>2020-06-08T14:47:24Z</time>
      </trkpt>
      <trkpt lat="48.31194" lon="-4.20406">
        <ele>34.1</ele>
        <time>2020-06-08T14:47:25Z</time>
      </trkpt>
      <trkpt lat="48.312" lon="-4.20419">
        <ele>33.5</ele>
        <time>2020-06-08T14:47:26Z</time>
      </trkpt>
      <trkpt lat="48.31205" lon="-4.20431">
        <ele>32.8</ele>
        <time>2020-06-08T14:47:27Z</time>
      </trkpt>
      <trkpt lat="48.31211" lon="-4.20444">
        <ele>32.2</ele>
        <time>2020-06-08T14:47:28Z</time>
      </trkpt>
      <trkpt lat="48.31216" lon="-4.20457">
        <ele>31.5</ele>
        <time>2020-06-08T14:47:29Z</time>
      </trkpt>
      <trkpt lat="48.31221" lon="-4.2047">
        <ele>31</ele>
        <time>2020-06-08T14:47:30Z</time>
      </trkpt>
      <trkpt lat="48.31226" lon="-4.20483">
        <ele>30.4</ele>
        <time>2020-06-08T14:47:31Z</time>
      </trkpt>
      <trkpt lat="48.31232" lon="-4.20496">
        <ele>29.8</ele>
        <time>2020-06-08T14:47:32Z</time>
      </trkpt>
      <trkpt lat="48.31237" lon="-4.20509">
        <ele>29.2</ele>
        <time>2020-06-08T14:47:33Z</time>
      </trkpt>
      <trkpt lat="48.31243" lon="-4.20521">
        <ele>28.6</ele>
        <time>2020-06-08T14:47:34Z</time>
      </trkpt>
      <trkpt lat="48.31248" lon="-4.20534">
        <ele>27.9</ele>
        <time>2020-06-08T14:47:35Z</time>
      </trkpt>
      <trkpt lat="48.31252" lon="-4.20548">
        <ele>27.3</ele>
        <time>2020-06-08T14:47:36Z</time>
      </trkpt>
      <trkpt lat="48.31256" lon="-4.20561">
        <ele>26.7</ele>
        <time>2020-06-08T14:47:37Z</time>
      </trkpt>
      <trkpt lat="48.31259" lon="-4.20576">
        <ele>26.1</ele>
        <time>2020-06-08T14:47:38Z</time>
      </trkpt>
      <trkpt lat="48.31263" lon="-4.2059">
        <ele>25.6</ele>
        <time>2020-06-08T14:47:39Z</time>
      </trkpt>
      <trkpt lat="48.31265" lon="-4.20605">
        <ele>25.1</ele>
        <time>2020-06-08T14:47:40Z</time>
      </trkpt>
      <trkpt lat="48.31266" lon="-4.2062">
        <ele>24.6</ele>
        <time>2020-06-08T14:47:41Z</time>
      </trkpt>
      <trkpt lat="48.31266" lon="-4.20636">
        <ele>24.1</ele>
        <time>2020-06-08T14:47:42Z</time>
      </trkpt>
      <trkpt lat="48.31266" lon="-4.20651">
        <ele>23.7</ele>
        <time>2020-06-08T14:47:43Z</time>
      </trkpt>
      <trkpt lat="48.31265" lon="-4.20667">
        <ele>23.2</ele>
        <time>2020-06-08T14:47:44Z</time>
      </trkpt>
      <trkpt lat="48.31263" lon="-4.20682">
        <ele>22.8</ele>
        <time>2020-06-08T14:47:45Z</time>
      </trkpt>
      <trkpt lat="48.31261" lon="-4.20696">
        <ele>22.4</ele>
        <time>2020-06-08T14:47:46Z</time>
      </trkpt>
      <trkpt lat="48.31258" lon="-4.2071">
        <ele>21.9</ele>
        <time>2020-06-08T14:47:47Z</time>
      </trkpt>
      <trkpt lat="48.31255" lon="-4.20725">
        <ele>21.6</ele>
        <time>2020-06-08T14:47:48Z</time>
      </trkpt>
      <trkpt lat="48.31252" lon="-4.20739">
        <ele>21.4</ele>
        <time>2020-06-08T14:47:49Z</time>
      </trkpt>
      <trkpt lat="48.31249" lon="-4.20753">
        <ele>21.2</ele>
        <time>2020-06-08T14:47:50Z</time>
      </trkpt>
      <trkpt lat="48.31246" lon="-4.20766">
        <ele>21.1</ele>
        <time>2020-06-08T14:47:51Z</time>
      </trkpt>
      <trkpt lat="48.31244" lon="-4.2078">
        <ele>21.1</ele>
        <time>2020-06-08T14:47:52Z</time>
      </trkpt>
      <trkpt lat="48.31244" lon="-4.20793">
        <ele>21.1</ele>
        <time>2020-06-08T14:47:53Z</time>
      </trkpt>
      <trkpt lat="48.31245" lon="-4.20806">
        <ele>21.1</ele>
        <time>2020-06-08T14:47:54Z</time>
      </trkpt>
      <trkpt lat="48.31245" lon="-4.20818">
        <ele>21.3</ele>
        <time>2020-06-08T14:47:55Z</time>
      </trkpt>
      <trkpt lat="48.31246" lon="-4.2083">
        <ele>21.5</ele>
        <time>2020-06-08T14:47:56Z</time>
      </trkpt>
      <trkpt lat="48.31246" lon="-4.20841">
        <ele>21.4</ele>
        <time>2020-06-08T14:47:57Z</time>
      </trkpt>
      <trkpt lat="48.31248" lon="-4.20851">
        <ele>21.4</ele>
        <time>2020-06-08T14:47:58Z</time>
      </trkpt>
      <trkpt lat="48.31251" lon="-4.20861">
        <ele>21.4</ele>
        <time>2020-06-08T14:47:59Z</time>
      </trkpt>
      <trkpt lat="48.31253" lon="-4.20871">
        <ele>21.4</ele>
        <time>2020-06-08T14:48:00Z</time>
      </trkpt>
      <trkpt lat="48.31255" lon="-4.2088">
        <ele>21.4</ele>
        <time>2020-06-08T14:48:01Z</time>
      </trkpt>
      <trkpt lat="48.31258" lon="-4.20889">
        <ele>21.4</ele>
        <time>2020-06-08T14:48:02Z</time>
      </trkpt>
      <trkpt lat="48.31259" lon="-4.20899">
        <ele>21.4</ele>
        <time>2020-06-08T14:48:03Z</time>
      </trkpt>
      <trkpt lat="48.31261" lon="-4.20908">
        <ele>21.4</ele>
        <time>2020-06-08T14:48:04Z</time>
      </trkpt>
      <trkpt lat="48.31262" lon="-4.20918">
        <ele>21.4</ele>
        <time>2020-06-08T14:48:05Z</time>
      </trkpt>
      <trkpt lat="48.31265" lon="-4.20927">
        <ele>21.5</ele>
        <time>2020-06-08T14:48:06Z</time>
      </trkpt>
      <trkpt lat="48.31267" lon="-4.20936">
        <ele>21.5</ele>
        <time>2020-06-08T14:48:07Z</time>
      </trkpt>
      <trkpt lat="48.31268" lon="-4.20945">
        <ele>21.5</ele>
        <time>2020-06-08T14:48:08Z</time>
      </trkpt>
      <trkpt lat="48.31269" lon="-4.20954">
        <ele>21.6</ele>
        <time>2020-06-08T14:48:09Z</time>
      </trkpt>
      <trkpt lat="48.3127" lon="-4.20963">
        <ele>21.6</ele>
        <time>2020-06-08T14:48:10Z</time>
      </trkpt>
      <trkpt lat="48.31271" lon="-4.20972">
        <ele>21.5</ele>
        <time>2020-06-08T14:48:11Z</time>
      </trkpt>
      <trkpt lat="48.31273" lon="-4.2098">
        <ele>21.5</ele>
        <time>2020-06-08T14:48:12Z</time>
      </trkpt>
      <trkpt lat="48.31274" lon="-4.20989">
        <ele>21.5</ele>
        <time>2020-06-08T14:48:13Z</time>
      </trkpt>
      <trkpt lat="48.31275" lon="-4.20998">
        <ele>21.4</ele>
        <time>2020-06-08T14:48:14Z</time>
      </trkpt>
      <trkpt lat="48.31276" lon="-4.21006">
        <ele>21.4</ele>
        <time>2020-06-08T14:48:15Z</time>
      </trkpt>
      <trkpt lat="48.31278" lon="-4.21014">
        <ele>21.3</ele>
        <time>2020-06-08T14:48:16Z</time>
      </trkpt>
      <trkpt lat="48.31279" lon="-4.21022">
        <ele>21.3</ele>
        <time>2020-06-08T14:48:17Z</time>
      </trkpt>
      <trkpt lat="48.3128" lon="-4.2103">
        <ele>21.2</ele>
        <time>2020-06-08T14:48:18Z</time>
      </trkpt>
      <trkpt lat="48.31281" lon="-4.21039">
        <ele>21.1</ele>
        <time>2020-06-08T14:48:19Z</time>
      </trkpt>
      <trkpt lat="48.31282" lon="-4.21047">
        <ele>21</ele>
        <time>2020-06-08T14:48:20Z</time>
      </trkpt>
      <trkpt lat="48.31283" lon="-4.21056">
        <ele>20.9</ele>
        <time>2020-06-08T14:48:21Z</time>
      </trkpt>
      <trkpt lat="48.31285" lon="-4.21064">
        <ele>20.8</ele>
        <time>2020-06-08T14:48:22Z</time>
      </trkpt>
      <trkpt lat="48.31287" lon="-4.21073">
        <ele>20.7</ele>
        <time>2020-06-08T14:48:23Z</time>
      </trkpt>
      <trkpt lat="48.31287" lon="-4.21081">
        <ele>20.6</ele>
        <time>2020-06-08T14:48:24Z</time>
      </trkpt>
      <trkpt lat="48.31289" lon="-4.2109">
        <ele>20.5</ele>
        <time>2020-06-08T14:48:25Z</time>
      </trkpt>
      <trkpt lat="48.3129" lon="-4.21099">
        <ele>20.3</ele>
        <time>2020-06-08T14:48:26Z</time>
      </trkpt>
      <trkpt lat="48.31291" lon="-4.21108">
        <ele>20.2</ele>
        <time>2020-06-08T14:48:27Z</time>
      </trkpt>
      <trkpt lat="48.31292" lon="-4.21117">
        <ele>20.1</ele>
        <time>2020-06-08T14:48:28Z</time>
      </trkpt>
      <trkpt lat="48.31294" lon="-4.21127">
        <ele>19.9</ele>
        <time>2020-06-08T14:48:29Z</time>
      </trkpt>
      <trkpt lat="48.31295" lon="-4.21136">
        <ele>19.7</ele>
        <time>2020-06-08T14:48:30Z</time>
      </trkpt>
      <trkpt lat="48.31297" lon="-4.21145">
        <ele>19.5</ele>
        <time>2020-06-08T14:48:31Z</time>
      </trkpt>
      <trkpt lat="48.31298" lon="-4.21154">
        <ele>19.2</ele>
        <time>2020-06-08T14:48:32Z</time>
      </trkpt>
      <trkpt lat="48.31299" lon="-4.21163">
        <ele>19</ele>
        <time>2020-06-08T14:48:33Z</time>
      </trkpt>
      <trkpt lat="48.313" lon="-4.21173">
        <ele>18.8</ele>
        <time>2020-06-08T14:48:34Z</time>
      </trkpt>
      <trkpt lat="48.31301" lon="-4.21183">
        <ele>18.5</ele>
        <time>2020-06-08T14:48:35Z</time>
      </trkpt>
      <trkpt lat="48.31302" lon="-4.21194">
        <ele>18.2</ele>
        <time>2020-06-08T14:48:36Z</time>
      </trkpt>
      <trkpt lat="48.31304" lon="-4.21204">
        <ele>17.9</ele>
        <time>2020-06-08T14:48:37Z</time>
      </trkpt>
      <trkpt lat="48.31305" lon="-4.21214">
        <ele>17.7</ele>
        <time>2020-06-08T14:48:38Z</time>
      </trkpt>
      <trkpt lat="48.31307" lon="-4.21225">
        <ele>17.4</ele>
        <time>2020-06-08T14:48:39Z</time>
      </trkpt>
      <trkpt lat="48.31309" lon="-4.21236">
        <ele>17.1</ele>
        <time>2020-06-08T14:48:40Z</time>
      </trkpt>
      <trkpt lat="48.3131" lon="-4.21246">
        <ele>16.9</ele>
        <time>2020-06-08T14:48:41Z</time>
      </trkpt>
      <trkpt lat="48.31312" lon="-4.21257">
        <ele>16.6</ele>
        <time>2020-06-08T14:48:42Z</time>
      </trkpt>
      <trkpt lat="48.31313" lon="-4.21268">
        <ele>16.4</ele>
        <time>2020-06-08T14:48:43Z</time>
      </trkpt>
      <trkpt lat="48.31314" lon="-4.21279">
        <ele>15.9</ele>
        <time>2020-06-08T14:48:44Z</time>
      </trkpt>
      <trkpt lat="48.31316" lon="-4.2129">
        <ele>15.6</ele>
        <time>2020-06-08T14:48:45Z</time>
      </trkpt>
      <trkpt lat="48.31317" lon="-4.21301">
        <ele>15.3</ele>
        <time>2020-06-08T14:48:46Z</time>
      </trkpt>
      <trkpt lat="48.31318" lon="-4.21313">
        <ele>15</ele>
        <time>2020-06-08T14:48:47Z</time>
      </trkpt>
      <trkpt lat="48.31319" lon="-4.21324">
        <ele>14.7</ele>
        <time>2020-06-08T14:48:48Z</time>
      </trkpt>
      <trkpt lat="48.31321" lon="-4.21335">
        <ele>14.4</ele>
        <time>2020-06-08T14:48:49Z</time>
      </trkpt>
      <trkpt lat="48.31322" lon="-4.21347">
        <ele>14.1</ele>
        <time>2020-06-08T14:48:50Z</time>
      </trkpt>
      <trkpt lat="48.31324" lon="-4.2136">
        <ele>13.7</ele>
        <time>2020-06-08T14:48:51Z</time>
      </trkpt>
      <trkpt lat="48.31326" lon="-4.21372">
        <ele>13.3</ele>
        <time>2020-06-08T14:48:52Z</time>
      </trkpt>
      <trkpt lat="48.31328" lon="-4.21384">
        <ele>13</ele>
        <time>2020-06-08T14:48:53Z</time>
      </trkpt>
      <trkpt lat="48.31331" lon="-4.21397">
        <ele>12.6</ele>
        <time>2020-06-08T14:48:54Z</time>
      </trkpt>
      <trkpt lat="48.31333" lon="-4.21409">
        <ele>12.3</ele>
        <time>2020-06-08T14:48:55Z</time>
      </trkpt>
      <trkpt lat="48.31336" lon="-4.21422">
        <ele>12.1</ele>
        <time>2020-06-08T14:48:56Z</time>
      </trkpt>
      <trkpt lat="48.31338" lon="-4.21434">
        <ele>11.8</ele>
        <time>2020-06-08T14:48:57Z</time>
      </trkpt>
      <trkpt lat="48.31339" lon="-4.21446">
        <ele>11.5</ele>
        <time>2020-06-08T14:48:58Z</time>
      </trkpt>
      <trkpt lat="48.31341" lon="-4.21459">
        <ele>11.1</ele>
        <time>2020-06-08T14:48:59Z</time>
      </trkpt>
      <trkpt lat="48.31343" lon="-4.21472">
        <ele>10.8</ele>
        <time>2020-06-08T14:49:00Z</time>
      </trkpt>
      <trkpt lat="48.31345" lon="-4.21486">
        <ele>10.5</ele>
        <time>2020-06-08T14:49:01Z</time>
      </trkpt>
      <trkpt lat="48.31348" lon="-4.21499">
        <ele>10.2</ele>
        <time>2020-06-08T14:49:02Z</time>
      </trkpt>
      <trkpt lat="48.3135" lon="-4.21511">
        <ele>10</ele>
        <time>2020-06-08T14:49:03Z</time>
      </trkpt>
      <trkpt lat="48.31353" lon="-4.21524">
        <ele>9.7</ele>
        <time>2020-06-08T14:49:04Z</time>
      </trkpt>
      <trkpt lat="48.31356" lon="-4.21537">
        <ele>9.5</ele>
        <time>2020-06-08T14:49:05Z</time>
      </trkpt>
      <trkpt lat="48.31357" lon="-4.2155">
        <ele>9.2</ele>
        <time>2020-06-08T14:49:06Z</time>
      </trkpt>
      <trkpt lat="48.31359" lon="-4.21562">
        <ele>9</ele>
        <time>2020-06-08T14:49:07Z</time>
      </trkpt>
      <trkpt lat="48.31362" lon="-4.21575">
        <ele>8.8</ele>
        <time>2020-06-08T14:49:08Z</time>
      </trkpt>
      <trkpt lat="48.31364" lon="-4.21587">
        <ele>8.7</ele>
        <time>2020-06-08T14:49:09Z</time>
      </trkpt>
      <trkpt lat="48.31367" lon="-4.21597">
        <ele>8.5</ele>
        <time>2020-06-08T14:49:10Z</time>
      </trkpt>
      <trkpt lat="48.31369" lon="-4.21609">
        <ele>8.3</ele>
        <time>2020-06-08T14:49:11Z</time>
      </trkpt>
      <trkpt lat="48.3137" lon="-4.21621">
        <ele>8.1</ele>
        <time>2020-06-08T14:49:12Z</time>
      </trkpt>
      <trkpt lat="48.31372" lon="-4.21633">
        <ele>8</ele>
        <time>2020-06-08T14:49:13Z</time>
      </trkpt>
      <trkpt lat="48.31375" lon="-4.21643">
        <ele>7.9</ele>
        <time>2020-06-08T14:49:14Z</time>
      </trkpt>
      <trkpt lat="48.31377" lon="-4.21653">
        <ele>7.8</ele>
        <time>2020-06-08T14:49:15Z</time>
      </trkpt>
      <trkpt lat="48.3138" lon="-4.21664">
        <ele>7.7</ele>
        <time>2020-06-08T14:49:16Z</time>
      </trkpt>
      <trkpt lat="48.31383" lon="-4.21674">
        <ele>7.6</ele>
        <time>2020-06-08T14:49:17Z</time>
      </trkpt>
      <trkpt lat="48.31385" lon="-4.21684">
        <ele>7.6</ele>
        <time>2020-06-08T14:49:18Z</time>
      </trkpt>
      <trkpt lat="48.31387" lon="-4.21693">
        <ele>7.5</ele>
        <time>2020-06-08T14:49:19Z</time>
      </trkpt>
      <trkpt lat="48.31389" lon="-4.21703">
        <ele>7.5</ele>
        <time>2020-06-08T14:49:20Z</time>
      </trkpt>
      <trkpt lat="48.31391" lon="-4.21712">
        <ele>7.4</ele>
        <time>2020-06-08T14:49:21Z</time>
      </trkpt>
      <trkpt lat="48.31393" lon="-4.21721">
        <ele>7.4</ele>
        <time>2020-06-08T14:49:22Z</time>
      </trkpt>
      <trkpt lat="48.31394" lon="-4.2173">
        <ele>7.3</ele>
        <time>2020-06-08T14:49:23Z</time>
      </trkpt>
      <trkpt lat="48.31396" lon="-4.21739">
        <ele>7.3</ele>
        <time>2020-06-08T14:49:24Z</time>
      </trkpt>
      <trkpt lat="48.31398" lon="-4.21748">
        <ele>7.2</ele>
        <time>2020-06-08T14:49:25Z</time>
      </trkpt>
      <trkpt lat="48.31401" lon="-4.21756">
        <ele>7.3</ele>
        <time>2020-06-08T14:49:26Z</time>
      </trkpt>
      <trkpt lat="48.31402" lon="-4.21766">
        <ele>7.3</ele>
        <time>2020-06-08T14:49:27Z</time>
      </trkpt>
      <trkpt lat="48.31405" lon="-4.21775">
        <ele>7.4</ele>
        <time>2020-06-08T14:49:28Z</time>
      </trkpt>
      <trkpt lat="48.31406" lon="-4.21784">
        <ele>7.4</ele>
        <time>2020-06-08T14:49:29Z</time>
      </trkpt>
      <trkpt lat="48.31407" lon="-4.21793">
        <ele>7.5</ele>
        <time>2020-06-08T14:49:30Z</time>
      </trkpt>
      <trkpt lat="48.31409" lon="-4.21801">
        <ele>7.5</ele>
        <time>2020-06-08T14:49:31Z</time>
      </trkpt>
      <trkpt lat="48.31411" lon="-4.21809">
        <ele>7.6</ele>
        <time>2020-06-08T14:49:32Z</time>
      </trkpt>
      <trkpt lat="48.31411" lon="-4.21818">
        <ele>7.6</ele>
        <time>2020-06-08T14:49:33Z</time>
      </trkpt>
      <trkpt lat="48.31413" lon="-4.21826">
        <ele>7.7</ele>
        <time>2020-06-08T14:49:34Z</time>
      </trkpt>
      <trkpt lat="48.31415" lon="-4.21834">
        <ele>7.8</ele>
        <time>2020-06-08T14:49:35Z</time>
      </trkpt>
      <trkpt lat="48.31417" lon="-4.21842">
        <ele>7.9</ele>
        <time>2020-06-08T14:49:36Z</time>
      </trkpt>
      <trkpt lat="48.31418" lon="-4.21849">
        <ele>7.9</ele>
        <time>2020-06-08T14:49:37Z</time>
      </trkpt>
      <trkpt lat="48.31419" lon="-4.21858">
        <ele>8</ele>
        <time>2020-06-08T14:49:38Z</time>
      </trkpt>
      <trkpt lat="48.3142" lon="-4.21866">
        <ele>8.1</ele>
        <time>2020-06-08T14:49:39Z</time>
      </trkpt>
      <trkpt lat="48.31421" lon="-4.21874">
        <ele>8.2</ele>
        <time>2020-06-08T14:49:40Z</time>
      </trkpt>
      <trkpt lat="48.31424" lon="-4.2188">
        <ele>8.3</ele>
        <time>2020-06-08T14:49:41Z</time>
      </trkpt>
      <trkpt lat="48.31426" lon="-4.21888">
        <ele>8.4</ele>
        <time>2020-06-08T14:49:42Z</time>
      </trkpt>
      <trkpt lat="48.31428" lon="-4.21895">
        <ele>8.6</ele>
        <time>2020-06-08T14:49:43Z</time>
      </trkpt>
      <trkpt lat="48.31432" lon="-4.21902">
        <ele>8.7</ele>
        <time>2020-06-08T14:49:44Z</time>
      </trkpt>
      <trkpt lat="48.31433" lon="-4.21909">
        <ele>8.8</ele>
        <time>2020-06-08T14:49:45Z</time>
      </trkpt>
      <trkpt lat="48.31435" lon="-4.21918">
        <ele>8.9</ele>
        <time>2020-06-08T14:49:46Z</time>
      </trkpt>
      <trkpt lat="48.31436" lon="-4.21925">
        <ele>9.1</ele>
        <time>2020-06-08T14:49:47Z</time>
      </trkpt>
      <trkpt lat="48.31438" lon="-4.21932">
        <ele>9.2</ele>
        <time>2020-06-08T14:49:48Z</time>
      </trkpt>
      <trkpt lat="48.3144" lon="-4.21938">
        <ele>9.4</ele>
        <time>2020-06-08T14:49:49Z</time>
      </trkpt>
      <trkpt lat="48.31441" lon="-4.21945">
        <ele>9.6</ele>
        <time>2020-06-08T14:49:50Z</time>
      </trkpt>
      <trkpt lat="48.31442" lon="-4.21952">
        <ele>9.9</ele>
        <time>2020-06-08T14:49:51Z</time>
      </trkpt>
      <trkpt lat="48.31445" lon="-4.21959">
        <ele>10.2</ele>
        <time>2020-06-08T14:49:52Z</time>
      </trkpt>
      <trkpt lat="48.31446" lon="-4.21966">
        <ele>10.6</ele>
        <time>2020-06-08T14:49:53Z</time>
      </trkpt>
      <trkpt lat="48.31448" lon="-4.21973">
        <ele>10.6</ele>
        <time>2020-06-08T14:49:54Z</time>
      </trkpt>
      <trkpt lat="48.31449" lon="-4.2198">
        <ele>10.6</ele>
        <time>2020-06-08T14:49:55Z</time>
      </trkpt>
      <trkpt lat="48.31451" lon="-4.21986">
        <ele>10.7</ele>
        <time>2020-06-08T14:49:56Z</time>
      </trkpt>
      <trkpt lat="48.31453" lon="-4.21992">
        <ele>10.7</ele>
        <time>2020-06-08T14:49:57Z</time>
      </trkpt>
      <trkpt lat="48.31454" lon="-4.21999">
        <ele>10.9</ele>
        <time>2020-06-08T14:49:58Z</time>
      </trkpt>
      <trkpt lat="48.31455" lon="-4.22005">
        <ele>11.1</ele>
        <time>2020-06-08T14:49:59Z</time>
      </trkpt>
      <trkpt lat="48.31455" lon="-4.22012">
        <ele>11.3</ele>
        <time>2020-06-08T14:50:00Z</time>
      </trkpt>
      <trkpt lat="48.31456" lon="-4.22018">
        <ele>11.4</ele>
        <time>2020-06-08T14:50:01Z</time>
      </trkpt>
      <trkpt lat="48.31457" lon="-4.22024">
        <ele>11.6</ele>
        <time>2020-06-08T14:50:02Z</time>
      </trkpt>
      <trkpt lat="48.31459" lon="-4.2203">
        <ele>11.8</ele>
        <time>2020-06-08T14:50:03Z</time>
      </trkpt>
      <trkpt lat="48.3146" lon="-4.22036">
        <ele>11.9</ele>
        <time>2020-06-08T14:50:04Z</time>
      </trkpt>
      <trkpt lat="48.3146" lon="-4.22041">
        <ele>12.1</ele>
        <time>2020-06-08T14:50:05Z</time>
      </trkpt>
      <trkpt lat="48.31461" lon="-4.22047">
        <ele>12.2</ele>
        <time>2020-06-08T14:50:06Z</time>
      </trkpt>
      <trkpt lat="48.31462" lon="-4.22052">
        <ele>12.4</ele>
        <time>2020-06-08T14:50:07Z</time>
      </trkpt>
      <trkpt lat="48.31463" lon="-4.22058">
        <ele>12.5</ele>
        <time>2020-06-08T14:50:08Z</time>
      </trkpt>
      <trkpt lat="48.31464" lon="-4.22064">
        <ele>12.8</ele>
        <time>2020-06-08T14:50:09Z</time>
      </trkpt>
      <trkpt lat="48.31465" lon="-4.2207">
        <ele>13</ele>
        <time>2020-06-08T14:50:10Z</time>
      </trkpt>
      <trkpt lat="48.31465" lon="-4.22076">
        <ele>13.2</ele>
        <time>2020-06-08T14:50:11Z</time>
      </trkpt>
      <trkpt lat="48.31466" lon="-4.22082">
        <ele>13.5</ele>
        <time>2020-06-08T14:50:12Z</time>
      </trkpt>
      <trkpt lat="48.31466" lon="-4.22087">
        <ele>13.6</ele>
        <time>2020-06-08T14:50:13Z</time>
      </trkpt>
      <trkpt lat="48.31467" lon="-4.22092">
        <ele>13.8</ele>
        <time>2020-06-08T14:50:14Z</time>
      </trkpt>
      <trkpt lat="48.31467" lon="-4.22097">
        <ele>14</ele>
        <time>2020-06-08T14:50:15Z</time>
      </trkpt>
      <trkpt lat="48.31467" lon="-4.22103">
        <ele>14.2</ele>
        <time>2020-06-08T14:50:16Z</time>
      </trkpt>
      <trkpt lat="48.31467" lon="-4.22108">
        <ele>14.4</ele>
        <time>2020-06-08T14:50:17Z</time>
      </trkpt>
      <trkpt lat="48.31467" lon="-4.22113">
        <ele>14.5</ele>
        <time>2020-06-08T14:50:18Z</time>
      </trkpt>
      <trkpt lat="48.31468" lon="-4.22117">
        <ele>14.5</ele>
        <time>2020-06-08T14:50:19Z</time>
      </trkpt>
      <trkpt lat="48.31469" lon="-4.22122">
        <ele>14.6</ele>
        <time>2020-06-08T14:50:20Z</time>
      </trkpt>
      <trkpt lat="48.31469" lon="-4.22127">
        <ele>14.6</ele>
        <time>2020-06-08T14:50:21Z</time>
      </trkpt>
      <trkpt lat="48.31469" lon="-4.22132">
        <ele>14.7</ele>
        <time>2020-06-08T14:50:22Z</time>
      </trkpt>
      <trkpt lat="48.3147" lon="-4.22137">
        <ele>14.8</ele>
        <time>2020-06-08T14:50:23Z</time>
      </trkpt>
      <trkpt lat="48.31471" lon="-4.22141">
        <ele>14.8</ele>
        <time>2020-06-08T14:50:24Z</time>
      </trkpt>
      <trkpt lat="48.31471" lon="-4.22147">
        <ele>14.9</ele>
        <time>2020-06-08T14:50:25Z</time>
      </trkpt>
      <trkpt lat="48.31471" lon="-4.22152">
        <ele>15</ele>
        <time>2020-06-08T14:50:26Z</time>
      </trkpt>
      <trkpt lat="48.31471" lon="-4.22158">
        <ele>15.2</ele>
        <time>2020-06-08T14:50:27Z</time>
      </trkpt>
      <trkpt lat="48.31471" lon="-4.22166">
        <ele>15.4</ele>
        <time>2020-06-08T14:50:28Z</time>
      </trkpt>
      <trkpt lat="48.3147" lon="-4.22174">
        <ele>15.5</ele>
        <time>2020-06-08T14:50:29Z</time>
      </trkpt>
      <trkpt lat="48.3147" lon="-4.22181">
        <ele>15.7</ele>
        <time>2020-06-08T14:50:30Z</time>
      </trkpt>
      <trkpt lat="48.31469" lon="-4.22184">
        <ele>15.8</ele>
        <time>2020-06-08T14:50:31Z</time>
      </trkpt>
      <trkpt lat="48.31469" lon="-4.22191">
        <ele>16</ele>
        <time>2020-06-08T14:50:32Z</time>
      </trkpt>
      <trkpt lat="48.31469" lon="-4.22198">
        <ele>16.1</ele>
        <time>2020-06-08T14:50:33Z</time>
      </trkpt>
      <trkpt lat="48.31468" lon="-4.22205">
        <ele>16.3</ele>
        <time>2020-06-08T14:50:34Z</time>
      </trkpt>
      <trkpt lat="48.31468" lon="-4.22209">
        <ele>16.4</ele>
        <time>2020-06-08T14:50:35Z</time>
      </trkpt>
      <trkpt lat="48.31467" lon="-4.22214">
        <ele>16.5</ele>
        <time>2020-06-08T14:50:36Z</time>
      </trkpt>
      <trkpt lat="48.31467" lon="-4.2222">
        <ele>16.6</ele>
        <time>2020-06-08T14:50:37Z</time>
      </trkpt>
      <trkpt lat="48.31467" lon="-4.22226">
        <ele>16.8</ele>
        <time>2020-06-08T14:50:38Z</time>
      </trkpt>
      <trkpt lat="48.31467" lon="-4.22231">
        <ele>16.9</ele>
        <time>2020-06-08T14:50:39Z</time>
      </trkpt>
      <trkpt lat="48.31467" lon="-4.22236">
        <ele>17</ele>
        <time>2020-06-08T14:50:40Z</time>
      </trkpt>
      <trkpt lat="48.31467" lon="-4.22243">
        <ele>17.1</ele>
        <time>2020-06-08T14:50:41Z</time>
      </trkpt>
      <trkpt lat="48.31467" lon="-4.22247">
        <ele>17.3</ele>
        <time>2020-06-08T14:50:42Z</time>
      </trkpt>
      <trkpt lat="48.31466" lon="-4.22253">
        <ele>17.4</ele>
        <time>2020-06-08T14:50:43Z</time>
      </trkpt>
      <trkpt lat="48.31467" lon="-4.22259">
        <ele>17.5</ele>
        <time>2020-06-08T14:50:44Z</time>
      </trkpt>
      <trkpt lat="48.31467" lon="-4.22266">
        <ele>17.7</ele>
        <time>2020-06-08T14:50:45Z</time>
      </trkpt>
      <trkpt lat="48.31467" lon="-4.22271">
        <ele>17.8</ele>
        <time>2020-06-08T14:50:46Z</time>
      </trkpt>
      <trkpt lat="48.31467" lon="-4.22278">
        <ele>18</ele>
        <time>2020-06-08T14:50:47Z</time>
      </trkpt>
      <trkpt lat="48.31467" lon="-4.22284">
        <ele>18.1</ele>
        <time>2020-06-08T14:50:48Z</time>
      </trkpt>
      <trkpt lat="48.31468" lon="-4.22289">
        <ele>18.2</ele>
        <time>2020-06-08T14:50:49Z</time>
      </trkpt>
      <trkpt lat="48.31468" lon="-4.22294">
        <ele>18.3</ele>
        <time>2020-06-08T14:50:50Z</time>
      </trkpt>
      <trkpt lat="48.31468" lon="-4.22298">
        <ele>18.3</ele>
        <time>2020-06-08T14:50:51Z</time>
      </trkpt>
      <trkpt lat="48.31468" lon="-4.22304">
        <ele>18.5</ele>
        <time>2020-06-08T14:50:52Z</time>
      </trkpt>
      <trkpt lat="48.31468" lon="-4.22311">
        <ele>18.6</ele>
        <time>2020-06-08T14:50:53Z</time>
      </trkpt>
      <trkpt lat="48.31468" lon="-4.22318">
        <ele>18.8</ele>
        <time>2020-06-08T14:50:54Z</time>
      </trkpt>
      <trkpt lat="48.31468" lon="-4.22325">
        <ele>18.9</ele>
        <time>2020-06-08T14:50:55Z</time>
      </trkpt>
      <trkpt lat="48.31468" lon="-4.2233">
        <ele>19.1</ele>
        <time>2020-06-08T14:50:56Z</time>
      </trkpt>
      <trkpt lat="48.31468" lon="-4.22334">
        <ele>19.2</ele>
        <time>2020-06-08T14:50:57Z</time>
      </trkpt>
      <trkpt lat="48.31468" lon="-4.22339">
        <ele>19.3</ele>
        <time>2020-06-08T14:50:58Z</time>
      </trkpt>
      <trkpt lat="48.31468" lon="-4.22345">
        <ele>19.4</ele>
        <time>2020-06-08T14:50:59Z</time>
      </trkpt>
      <trkpt lat="48.31467" lon="-4.2235">
        <ele>19.6</ele>
        <time>2020-06-08T14:51:00Z</time>
      </trkpt>
      <trkpt lat="48.31466" lon="-4.22355">
        <ele>19.7</ele>
        <time>2020-06-08T14:51:01Z</time>
      </trkpt>
      <trkpt lat="48.31466" lon="-4.22362">
        <ele>19.9</ele>
        <time>2020-06-08T14:51:02Z</time>
      </trkpt>
      <trkpt lat="48.31466" lon="-4.22368">
        <ele>20.1</ele>
        <time>2020-06-08T14:51:03Z</time>
      </trkpt>
      <trkpt lat="48.31466" lon="-4.22374">
        <ele>20.2</ele>
        <time>2020-06-08T14:51:04Z</time>
      </trkpt>
      <trkpt lat="48.31465" lon="-4.22376">
        <ele>20.2</ele>
        <time>2020-06-08T14:51:05Z</time>
      </trkpt>
      <trkpt lat="48.31465" lon="-4.22382">
        <ele>20.4</ele>
        <time>2020-06-08T14:51:06Z</time>
      </trkpt>
      <trkpt lat="48.31465" lon="-4.22384">
        <ele>20.4</ele>
        <time>2020-06-08T14:51:07Z</time>
      </trkpt>
      <trkpt lat="48.31465" lon="-4.22389">
        <ele>20.5</ele>
        <time>2020-06-08T14:51:08Z</time>
      </trkpt>
      <trkpt lat="48.31464" lon="-4.22394">
        <ele>20.6</ele>
        <time>2020-06-08T14:51:09Z</time>
      </trkpt>
      <trkpt lat="48.31464" lon="-4.22399">
        <ele>20.8</ele>
        <time>2020-06-08T14:51:10Z</time>
      </trkpt>
      <trkpt lat="48.31463" lon="-4.22404">
        <ele>20.9</ele>
        <time>2020-06-08T14:51:11Z</time>
      </trkpt>
      <trkpt lat="48.31463" lon="-4.22409">
        <ele>21</ele>
        <time>2020-06-08T14:51:12Z</time>
      </trkpt>
      <trkpt lat="48.31463" lon="-4.22416">
        <ele>21.2</ele>
        <time>2020-06-08T14:51:13Z</time>
      </trkpt>
      <trkpt lat="48.31462" lon="-4.22422">
        <ele>21.4</ele>
        <time>2020-06-08T14:51:14Z</time>
      </trkpt>
      <trkpt lat="48.31461" lon="-4.22428">
        <ele>21.5</ele>
        <time>2020-06-08T14:51:15Z</time>
      </trkpt>
      <trkpt lat="48.3146" lon="-4.2243">
        <ele>21.6</ele>
        <time>2020-06-08T14:51:16Z</time>
      </trkpt>
      <trkpt lat="48.3146" lon="-4.22438">
        <ele>21.8</ele>
        <time>2020-06-08T14:51:17Z</time>
      </trkpt>
      <trkpt lat="48.3146" lon="-4.22445">
        <ele>22</ele>
        <time>2020-06-08T14:51:18Z</time>
      </trkpt>
      <trkpt lat="48.3146" lon="-4.22452">
        <ele>22.2</ele>
        <time>2020-06-08T14:51:19Z</time>
      </trkpt>
      <trkpt lat="48.31459" lon="-4.22458">
        <ele>22.3</ele>
        <time>2020-06-08T14:51:20Z</time>
      </trkpt>
      <trkpt lat="48.31459" lon="-4.22464">
        <ele>22.5</ele>
        <time>2020-06-08T14:51:21Z</time>
      </trkpt>
      <trkpt lat="48.31459" lon="-4.2247">
        <ele>22.6</ele>
        <time>2020-06-08T14:51:22Z</time>
      </trkpt>
      <trkpt lat="48.31459" lon="-4.22475">
        <ele>22.8</ele>
        <time>2020-06-08T14:51:23Z</time>
      </trkpt>
      <trkpt lat="48.31459" lon="-4.22479">
        <ele>22.9</ele>
        <time>2020-06-08T14:51:24Z</time>
      </trkpt>
      <trkpt lat="48.31459" lon="-4.22481">
        <ele>22.9</ele>
        <time>2020-06-08T14:51:25Z</time>
      </trkpt>
      <trkpt lat="48.31459" lon="-4.22487">
        <ele>23.1</ele>
        <time>2020-06-08T14:51:26Z</time>
      </trkpt>
      <trkpt lat="48.3146" lon="-4.22493">
        <ele>23.2</ele>
        <time>2020-06-08T14:51:27Z</time>
      </trkpt>
      <trkpt lat="48.3146" lon="-4.225">
        <ele>23.4</ele>
        <time>2020-06-08T14:51:28Z</time>
      </trkpt>
      <trkpt lat="48.3146" lon="-4.22506">
        <ele>23.6</ele>
        <time>2020-06-08T14:51:29Z</time>
      </trkpt>
      <trkpt lat="48.3146" lon="-4.22511">
        <ele>23.7</ele>
        <time>2020-06-08T14:51:30Z</time>
      </trkpt>
      <trkpt lat="48.3146" lon="-4.22516">
        <ele>23.9</ele>
        <time>2020-06-08T14:51:31Z</time>
      </trkpt>
      <trkpt lat="48.31461" lon="-4.22522">
        <ele>24</ele>
        <time>2020-06-08T14:51:32Z</time>
      </trkpt>
      <trkpt lat="48.31461" lon="-4.22528">
        <ele>24.2</ele>
        <time>2020-06-08T14:51:33Z</time>
      </trkpt>
      <trkpt lat="48.31461" lon="-4.22533">
        <ele>24.4</ele>
        <time>2020-06-08T14:51:34Z</time>
      </trkpt>
      <trkpt lat="48.31461" lon="-4.22538">
        <ele>24.5</ele>
        <time>2020-06-08T14:51:35Z</time>
      </trkpt>
      <trkpt lat="48.31461" lon="-4.22544">
        <ele>24.7</ele>
        <time>2020-06-08T14:51:36Z</time>
      </trkpt>
      <trkpt lat="48.3146" lon="-4.2255">
        <ele>24.9</ele>
        <time>2020-06-08T14:51:37Z</time>
      </trkpt>
      <trkpt lat="48.3146" lon="-4.22557">
        <ele>25.1</ele>
        <time>2020-06-08T14:51:38Z</time>
      </trkpt>
      <trkpt lat="48.31459" lon="-4.22561">
        <ele>25.2</ele>
        <time>2020-06-08T14:51:39Z</time>
      </trkpt>
      <trkpt lat="48.31459" lon="-4.22567">
        <ele>25.3</ele>
        <time>2020-06-08T14:51:40Z</time>
      </trkpt>
      <trkpt lat="48.31459" lon="-4.22569">
        <ele>25.4</ele>
        <time>2020-06-08T14:51:41Z</time>
      </trkpt>
      <trkpt lat="48.31459" lon="-4.22576">
        <ele>25.5</ele>
        <time>2020-06-08T14:51:42Z</time>
      </trkpt>
      <trkpt lat="48.31458" lon="-4.22578">
        <ele>25.6</ele>
        <time>2020-06-08T14:51:43Z</time>
      </trkpt>
      <trkpt lat="48.31458" lon="-4.22583">
        <ele>25.7</ele>
        <time>2020-06-08T14:51:44Z</time>
      </trkpt>
      <trkpt lat="48.31458" lon="-4.2259">
        <ele>25.9</ele>
        <time>2020-06-08T14:51:45Z</time>
      </trkpt>
      <trkpt lat="48.31458" lon="-4.22593">
        <ele>25.9</ele>
        <time>2020-06-08T14:51:46Z</time>
      </trkpt>
      <trkpt lat="48.31458" lon="-4.22599">
        <ele>26.1</ele>
        <time>2020-06-08T14:51:47Z</time>
      </trkpt>
      <trkpt lat="48.31459" lon="-4.22604">
        <ele>26.2</ele>
        <time>2020-06-08T14:51:48Z</time>
      </trkpt>
      <trkpt lat="48.31459" lon="-4.22608">
        <ele>26.2</ele>
        <time>2020-06-08T14:51:49Z</time>
      </trkpt>
      <trkpt lat="48.31458" lon="-4.22614">
        <ele>26.3</ele>
        <time>2020-06-08T14:51:50Z</time>
      </trkpt>
      <trkpt lat="48.31459" lon="-4.22616">
        <ele>26.4</ele>
        <time>2020-06-08T14:51:51Z</time>
      </trkpt>
      <trkpt lat="48.3146" lon="-4.22624">
        <ele>26.5</ele>
        <time>2020-06-08T14:51:52Z</time>
      </trkpt>
      <trkpt lat="48.31461" lon="-4.2263">
        <ele>26.6</ele>
        <time>2020-06-08T14:51:53Z</time>
      </trkpt>
      <trkpt lat="48.31462" lon="-4.22636">
        <ele>26.7</ele>
        <time>2020-06-08T14:51:54Z</time>
      </trkpt>
      <trkpt lat="48.31462" lon="-4.22641">
        <ele>26.8</ele>
        <time>2020-06-08T14:51:55Z</time>
      </trkpt>
      <trkpt lat="48.31463" lon="-4.22646">
        <ele>26.8</ele>
        <time>2020-06-08T14:51:56Z</time>
      </trkpt>
      <trkpt lat="48.31463" lon="-4.22654">
        <ele>27</ele>
        <time>2020-06-08T14:51:57Z</time>
      </trkpt>
      <trkpt lat="48.31462" lon="-4.22659">
        <ele>27</ele>
        <time>2020-06-08T14:51:58Z</time>
      </trkpt>
      <trkpt lat="48.31463" lon="-4.22664">
        <ele>27.1</ele>
        <time>2020-06-08T14:51:59Z</time>
      </trkpt>
      <trkpt lat="48.31464" lon="-4.2267">
        <ele>27.2</ele>
        <time>2020-06-08T14:52:00Z</time>
      </trkpt>
      <trkpt lat="48.31465" lon="-4.22675">
        <ele>27.2</ele>
        <time>2020-06-08T14:52:01Z</time>
      </trkpt>
      <trkpt lat="48.31465" lon="-4.2268">
        <ele>27.2</ele>
        <time>2020-06-08T14:52:02Z</time>
      </trkpt>
      <trkpt lat="48.31465" lon="-4.22685">
        <ele>27.2</ele>
        <time>2020-06-08T14:52:03Z</time>
      </trkpt>
      <trkpt lat="48.31466" lon="-4.2269">
        <ele>27.3</ele>
        <time>2020-06-08T14:52:04Z</time>
      </trkpt>
      <trkpt lat="48.31466" lon="-4.22695">
        <ele>27.3</ele>
        <time>2020-06-08T14:52:05Z</time>
      </trkpt>
      <trkpt lat="48.31467" lon="-4.22701">
        <ele>27.3</ele>
        <time>2020-06-08T14:52:06Z</time>
      </trkpt>
      <trkpt lat="48.31468" lon="-4.22708">
        <ele>27.3</ele>
        <time>2020-06-08T14:52:07Z</time>
      </trkpt>
      <trkpt lat="48.31469" lon="-4.22713">
        <ele>27.2</ele>
        <time>2020-06-08T14:52:08Z</time>
      </trkpt>
      <trkpt lat="48.3147" lon="-4.22719">
        <ele>27.2</ele>
        <time>2020-06-08T14:52:09Z</time>
      </trkpt>
      <trkpt lat="48.31471" lon="-4.22725">
        <ele>27.2</ele>
        <time>2020-06-08T14:52:10Z</time>
      </trkpt>
      <trkpt lat="48.31472" lon="-4.22727">
        <ele>27.1</ele>
        <time>2020-06-08T14:52:11Z</time>
      </trkpt>
      <trkpt lat="48.31473" lon="-4.22734">
        <ele>27.1</ele>
        <time>2020-06-08T14:52:12Z</time>
      </trkpt>
      <trkpt lat="48.31474" lon="-4.2274">
        <ele>27</ele>
        <time>2020-06-08T14:52:13Z</time>
      </trkpt>
      <trkpt lat="48.31476" lon="-4.22746">
        <ele>27</ele>
        <time>2020-06-08T14:52:14Z</time>
      </trkpt>
      <trkpt lat="48.31477" lon="-4.22753">
        <ele>26.9</ele>
        <time>2020-06-08T14:52:15Z</time>
      </trkpt>
      <trkpt lat="48.31477" lon="-4.2276">
        <ele>26.8</ele>
        <time>2020-06-08T14:52:16Z</time>
      </trkpt>
      <trkpt lat="48.31477" lon="-4.22764">
        <ele>26.8</ele>
        <time>2020-06-08T14:52:17Z</time>
      </trkpt>
      <trkpt lat="48.31478" lon="-4.2277">
        <ele>26.7</ele>
        <time>2020-06-08T14:52:18Z</time>
      </trkpt>
      <trkpt lat="48.31479" lon="-4.22776">
        <ele>26.6</ele>
        <time>2020-06-08T14:52:19Z</time>
      </trkpt>
      <trkpt lat="48.3148" lon="-4.22784">
        <ele>26.5</ele>
        <time>2020-06-08T14:52:20Z</time>
      </trkpt>
      <trkpt lat="48.31481" lon="-4.22789">
        <ele>26.5</ele>
        <time>2020-06-08T14:52:21Z</time>
      </trkpt>
      <trkpt lat="48.31484" lon="-4.22796">
        <ele>26.4</ele>
        <time>2020-06-08T14:52:22Z</time>
      </trkpt>
      <trkpt lat="48.31486" lon="-4.22803">
        <ele>26.3</ele>
        <time>2020-06-08T14:52:23Z</time>
      </trkpt>
      <trkpt lat="48.31489" lon="-4.22811">
        <ele>26.2</ele>
        <time>2020-06-08T14:52:24Z</time>
      </trkpt>
      <trkpt lat="48.31492" lon="-4.22818">
        <ele>26.1</ele>
        <time>2020-06-08T14:52:25Z</time>
      </trkpt>
      <trkpt lat="48.31495" lon="-4.22828">
        <ele>26.1</ele>
        <time>2020-06-08T14:52:26Z</time>
      </trkpt>
      <trkpt lat="48.31499" lon="-4.22835">
        <ele>26</ele>
        <time>2020-06-08T14:52:27Z</time>
      </trkpt>
      <trkpt lat="48.31502" lon="-4.2284">
        <ele>25.8</ele>
        <time>2020-06-08T14:52:28Z</time>
      </trkpt>
      <trkpt lat="48.31507" lon="-4.22846">
        <ele>25.6</ele>
        <time>2020-06-08T14:52:29Z</time>
      </trkpt>
      <trkpt lat="48.31512" lon="-4.22852">
        <ele>25.4</ele>
        <time>2020-06-08T14:52:30Z</time>
      </trkpt>
      <trkpt lat="48.31518" lon="-4.22858">
        <ele>25.2</ele>
        <time>2020-06-08T14:52:31Z</time>
      </trkpt>
      <trkpt lat="48.31523" lon="-4.22864">
        <ele>25</ele>
        <time>2020-06-08T14:52:32Z</time>
      </trkpt>
      <trkpt lat="48.31529" lon="-4.22868">
        <ele>24.9</ele>
        <time>2020-06-08T14:52:33Z</time>
      </trkpt>
      <trkpt lat="48.31535" lon="-4.22873">
        <ele>24.7</ele>
        <time>2020-06-08T14:52:34Z</time>
      </trkpt>
      <trkpt lat="48.31541" lon="-4.22877">
        <ele>24.5</ele>
        <time>2020-06-08T14:52:35Z</time>
      </trkpt>
      <trkpt lat="48.31546" lon="-4.2288">
        <ele>24.3</ele>
        <time>2020-06-08T14:52:36Z</time>
      </trkpt>
      <trkpt lat="48.31552" lon="-4.22883">
        <ele>24.2</ele>
        <time>2020-06-08T14:52:37Z</time>
      </trkpt>
      <trkpt lat="48.31558" lon="-4.22886">
        <ele>23.9</ele>
        <time>2020-06-08T14:52:38Z</time>
      </trkpt>
      <trkpt lat="48.31564" lon="-4.22887">
        <ele>23.7</ele>
        <time>2020-06-08T14:52:39Z</time>
      </trkpt>
      <trkpt lat="48.31571" lon="-4.22887">
        <ele>23.5</ele>
        <time>2020-06-08T14:52:40Z</time>
      </trkpt>
      <trkpt lat="48.31578" lon="-4.22889">
        <ele>23.3</ele>
        <time>2020-06-08T14:52:41Z</time>
      </trkpt>
      <trkpt lat="48.31584" lon="-4.22888">
        <ele>23.1</ele>
        <time>2020-06-08T14:52:42Z</time>
      </trkpt>
      <trkpt lat="48.3159" lon="-4.22887">
        <ele>22.9</ele>
        <time>2020-06-08T14:52:43Z</time>
      </trkpt>
      <trkpt lat="48.31597" lon="-4.22886">
        <ele>22.7</ele>
        <time>2020-06-08T14:52:44Z</time>
      </trkpt>
      <trkpt lat="48.31604" lon="-4.22885">
        <ele>22.5</ele>
        <time>2020-06-08T14:52:45Z</time>
      </trkpt>
      <trkpt lat="48.31609" lon="-4.22882">
        <ele>22.3</ele>
        <time>2020-06-08T14:52:46Z</time>
      </trkpt>
      <trkpt lat="48.31615" lon="-4.22879">
        <ele>22.1</ele>
        <time>2020-06-08T14:52:47Z</time>
      </trkpt>
      <trkpt lat="48.3162" lon="-4.22875">
        <ele>22</ele>
        <time>2020-06-08T14:52:48Z</time>
      </trkpt>
      <trkpt lat="48.31624" lon="-4.22873">
        <ele>21.8</ele>
        <time>2020-06-08T14:52:49Z</time>
      </trkpt>
      <trkpt lat="48.31629" lon="-4.22869">
        <ele>21.6</ele>
        <time>2020-06-08T14:52:50Z</time>
      </trkpt>
      <trkpt lat="48.31632" lon="-4.22866">
        <ele>21.5</ele>
        <time>2020-06-08T14:52:51Z</time>
      </trkpt>
      <trkpt lat="48.31638" lon="-4.2286">
        <ele>21.2</ele>
        <time>2020-06-08T14:52:52Z</time>
      </trkpt>
      <trkpt lat="48.31642" lon="-4.22855">
        <ele>21</ele>
        <time>2020-06-08T14:52:53Z</time>
      </trkpt>
      <trkpt lat="48.31649" lon="-4.22851">
        <ele>20.7</ele>
        <time>2020-06-08T14:52:54Z</time>
      </trkpt>
      <trkpt lat="48.31654" lon="-4.22846">
        <ele>20.4</ele>
        <time>2020-06-08T14:52:55Z</time>
      </trkpt>
      <trkpt lat="48.31659" lon="-4.22841">
        <ele>20.2</ele>
        <time>2020-06-08T14:52:56Z</time>
      </trkpt>
      <trkpt lat="48.31665" lon="-4.22836">
        <ele>19.9</ele>
        <time>2020-06-08T14:52:57Z</time>
      </trkpt>
      <trkpt lat="48.31669" lon="-4.22831">
        <ele>19.6</ele>
        <time>2020-06-08T14:52:58Z</time>
      </trkpt>
      <trkpt lat="48.31673" lon="-4.22826">
        <ele>19.4</ele>
        <time>2020-06-08T14:52:59Z</time>
      </trkpt>
      <trkpt lat="48.31677" lon="-4.22821">
        <ele>19.1</ele>
        <time>2020-06-08T14:53:00Z</time>
      </trkpt>
      <trkpt lat="48.31681" lon="-4.22816">
        <ele>18.9</ele>
        <time>2020-06-08T14:53:01Z</time>
      </trkpt>
      <trkpt lat="48.31685" lon="-4.22811">
        <ele>18.7</ele>
        <time>2020-06-08T14:53:02Z</time>
      </trkpt>
      <trkpt lat="48.3169" lon="-4.22807">
        <ele>18.5</ele>
        <time>2020-06-08T14:53:03Z</time>
      </trkpt>
      <trkpt lat="48.31694" lon="-4.22802">
        <ele>18.3</ele>
        <time>2020-06-08T14:53:04Z</time>
      </trkpt>
      <trkpt lat="48.31698" lon="-4.22799">
        <ele>18.1</ele>
        <time>2020-06-08T14:53:05Z</time>
      </trkpt>
      <trkpt lat="48.31705" lon="-4.22795">
        <ele>17.8</ele>
        <time>2020-06-08T14:53:06Z</time>
      </trkpt>
      <trkpt lat="48.3171" lon="-4.22791">
        <ele>17.6</ele>
        <time>2020-06-08T14:53:07Z</time>
      </trkpt>
      <trkpt lat="48.31715" lon="-4.22788">
        <ele>17.5</ele>
        <time>2020-06-08T14:53:08Z</time>
      </trkpt>
      <trkpt lat="48.31721" lon="-4.22785">
        <ele>17.3</ele>
        <time>2020-06-08T14:53:09Z</time>
      </trkpt>
      <trkpt lat="48.31727" lon="-4.22782">
        <ele>17.1</ele>
        <time>2020-06-08T14:53:10Z</time>
      </trkpt>
      <trkpt lat="48.31732" lon="-4.2278">
        <ele>16.9</ele>
        <time>2020-06-08T14:53:11Z</time>
      </trkpt>
      <trkpt lat="48.31738" lon="-4.22777">
        <ele>16.8</ele>
        <time>2020-06-08T14:53:12Z</time>
      </trkpt>
      <trkpt lat="48.31743" lon="-4.22775">
        <ele>16.6</ele>
        <time>2020-06-08T14:53:13Z</time>
      </trkpt>
      <trkpt lat="48.31746" lon="-4.22773">
        <ele>16.6</ele>
        <time>2020-06-08T14:53:14Z</time>
      </trkpt>
      <trkpt lat="48.31749" lon="-4.22772">
        <ele>16.5</ele>
        <time>2020-06-08T14:53:15Z</time>
      </trkpt>
      <trkpt lat="48.31753" lon="-4.22772">
        <ele>16.4</ele>
        <time>2020-06-08T14:53:16Z</time>
      </trkpt>
      <trkpt lat="48.31758" lon="-4.22773">
        <ele>16.3</ele>
        <time>2020-06-08T14:53:17Z</time>
      </trkpt>
      <trkpt lat="48.31764" lon="-4.22773">
        <ele>16.3</ele>
        <time>2020-06-08T14:53:18Z</time>
      </trkpt>
      <trkpt lat="48.3177" lon="-4.22774">
        <ele>16.2</ele>
        <time>2020-06-08T14:53:19Z</time>
      </trkpt>
      <trkpt lat="48.31776" lon="-4.22775">
        <ele>16.2</ele>
        <time>2020-06-08T14:53:20Z</time>
      </trkpt>
      <trkpt lat="48.31781" lon="-4.22776">
        <ele>16.2</ele>
        <time>2020-06-08T14:53:21Z</time>
      </trkpt>
      <trkpt lat="48.31786" lon="-4.22776">
        <ele>16.2</ele>
        <time>2020-06-08T14:53:22Z</time>
      </trkpt>
      <trkpt lat="48.31792" lon="-4.22777">
        <ele>16.3</ele>
        <time>2020-06-08T14:53:23Z</time>
      </trkpt>
      <trkpt lat="48.31798" lon="-4.22777">
        <ele>16.3</ele>
        <time>2020-06-08T14:53:24Z</time>
      </trkpt>
      <trkpt lat="48.31804" lon="-4.22778">
        <ele>16.3</ele>
        <time>2020-06-08T14:53:25Z</time>
      </trkpt>
      <trkpt lat="48.3181" lon="-4.22777">
        <ele>16.3</ele>
        <time>2020-06-08T14:53:26Z</time>
      </trkpt>
      <trkpt lat="48.31815" lon="-4.22777">
        <ele>16.3</ele>
        <time>2020-06-08T14:53:27Z</time>
      </trkpt>
      <trkpt lat="48.3182" lon="-4.22776">
        <ele>16.4</ele>
        <time>2020-06-08T14:53:28Z</time>
      </trkpt>
      <trkpt lat="48.31825" lon="-4.22774">
        <ele>16.4</ele>
        <time>2020-06-08T14:53:29Z</time>
      </trkpt>
      <trkpt lat="48.3183" lon="-4.22773">
        <ele>16.4</ele>
        <time>2020-06-08T14:53:30Z</time>
      </trkpt>
      <trkpt lat="48.31835" lon="-4.22769">
        <ele>16.4</ele>
        <time>2020-06-08T14:53:31Z</time>
      </trkpt>
      <trkpt lat="48.3184" lon="-4.22767">
        <ele>16.5</ele>
        <time>2020-06-08T14:53:32Z</time>
      </trkpt>
      <trkpt lat="48.31845" lon="-4.22764">
        <ele>16.5</ele>
        <time>2020-06-08T14:53:33Z</time>
      </trkpt>
      <trkpt lat="48.31849" lon="-4.2276">
        <ele>16.5</ele>
        <time>2020-06-08T14:53:34Z</time>
      </trkpt>
      <trkpt lat="48.31855" lon="-4.22756">
        <ele>16.5</ele>
        <time>2020-06-08T14:53:35Z</time>
      </trkpt>
      <trkpt lat="48.31858" lon="-4.22755">
        <ele>16.5</ele>
        <time>2020-06-08T14:53:36Z</time>
      </trkpt>
      <trkpt lat="48.31862" lon="-4.22751">
        <ele>16.4</ele>
        <time>2020-06-08T14:53:37Z</time>
      </trkpt>
      <trkpt lat="48.31866" lon="-4.22748">
        <ele>16.4</ele>
        <time>2020-06-08T14:53:38Z</time>
      </trkpt>
      <trkpt lat="48.3187" lon="-4.22745">
        <ele>16.4</ele>
        <time>2020-06-08T14:53:39Z</time>
      </trkpt>
      <trkpt lat="48.31875" lon="-4.22742">
        <ele>16.4</ele>
        <time>2020-06-08T14:53:40Z</time>
      </trkpt>
      <trkpt lat="48.31881" lon="-4.22741">
        <ele>16.3</ele>
        <time>2020-06-08T14:53:41Z</time>
      </trkpt>
      <trkpt lat="48.31885" lon="-4.22739">
        <ele>16.3</ele>
        <time>2020-06-08T14:53:42Z</time>
      </trkpt>
      <trkpt lat="48.31889" lon="-4.22736">
        <ele>16.2</ele>
        <time>2020-06-08T14:53:43Z</time>
      </trkpt>
      <trkpt lat="48.31893" lon="-4.22734">
        <ele>16.2</ele>
        <time>2020-06-08T14:53:44Z</time>
      </trkpt>
      <trkpt lat="48.31897" lon="-4.22732">
        <ele>16.1</ele>
        <time>2020-06-08T14:53:45Z</time>
      </trkpt>
      <trkpt lat="48.31902" lon="-4.22728">
        <ele>16.1</ele>
        <time>2020-06-08T14:53:46Z</time>
      </trkpt>
      <trkpt lat="48.31906" lon="-4.22727">
        <ele>16.1</ele>
        <time>2020-06-08T14:53:47Z</time>
      </trkpt>
      <trkpt lat="48.3191" lon="-4.22726">
        <ele>16</ele>
        <time>2020-06-08T14:53:48Z</time>
      </trkpt>
      <trkpt lat="48.31915" lon="-4.22725">
        <ele>16</ele>
        <time>2020-06-08T14:53:49Z</time>
      </trkpt>
      <trkpt lat="48.3192" lon="-4.22723">
        <ele>16</ele>
        <time>2020-06-08T14:53:50Z</time>
      </trkpt>
      <trkpt lat="48.31926" lon="-4.22721">
        <ele>16</ele>
        <time>2020-06-08T14:53:51Z</time>
      </trkpt>
      <trkpt lat="48.31931" lon="-4.2272">
        <ele>16</ele>
        <time>2020-06-08T14:53:52Z</time>
      </trkpt>
      <trkpt lat="48.31936" lon="-4.22718">
        <ele>16</ele>
        <time>2020-06-08T14:53:53Z</time>
      </trkpt>
      <trkpt lat="48.31941" lon="-4.22717">
        <ele>16.1</ele>
        <time>2020-06-08T14:53:54Z</time>
      </trkpt>
      <trkpt lat="48.31945" lon="-4.22716">
        <ele>16.1</ele>
        <time>2020-06-08T14:53:55Z</time>
      </trkpt>
      <trkpt lat="48.31954" lon="-4.22714">
        <ele>16.1</ele>
        <time>2020-06-08T14:53:56Z</time>
      </trkpt>
      <trkpt lat="48.3196" lon="-4.22713">
        <ele>16.2</ele>
        <time>2020-06-08T14:53:57Z</time>
      </trkpt>
      <trkpt lat="48.31966" lon="-4.22711">
        <ele>16.2</ele>
        <time>2020-06-08T14:53:58Z</time>
      </trkpt>
      <trkpt lat="48.31971" lon="-4.22708">
        <ele>16.3</ele>
        <time>2020-06-08T14:53:59Z</time>
      </trkpt>
      <trkpt lat="48.31976" lon="-4.22707">
        <ele>16.4</ele>
        <time>2020-06-08T14:54:00Z</time>
      </trkpt>
      <trkpt lat="48.3198" lon="-4.22705">
        <ele>16.5</ele>
        <time>2020-06-08T14:54:01Z</time>
      </trkpt>
      <trkpt lat="48.31985" lon="-4.22702">
        <ele>16.7</ele>
        <time>2020-06-08T14:54:02Z</time>
      </trkpt>
      <trkpt lat="48.31989" lon="-4.22699">
        <ele>16.9</ele>
        <time>2020-06-08T14:54:03Z</time>
      </trkpt>
      <trkpt lat="48.31994" lon="-4.22696">
        <ele>17.1</ele>
        <time>2020-06-08T14:54:04Z</time>
      </trkpt>
      <trkpt lat="48.31999" lon="-4.22695">
        <ele>17.4</ele>
        <time>2020-06-08T14:54:05Z</time>
      </trkpt>
      <trkpt lat="48.32004" lon="-4.22693">
        <ele>17.6</ele>
        <time>2020-06-08T14:54:06Z</time>
      </trkpt>
      <trkpt lat="48.32009" lon="-4.22692">
        <ele>18.1</ele>
        <time>2020-06-08T14:54:07Z</time>
      </trkpt>
      <trkpt lat="48.32013" lon="-4.22691">
        <ele>18</ele>
        <time>2020-06-08T14:54:08Z</time>
      </trkpt>
      <trkpt lat="48.32017" lon="-4.22689">
        <ele>18</ele>
        <time>2020-06-08T14:54:09Z</time>
      </trkpt>
      <trkpt lat="48.32019" lon="-4.22689">
        <ele>18</ele>
        <time>2020-06-08T14:54:10Z</time>
      </trkpt>
      <trkpt lat="48.32023" lon="-4.22688">
        <ele>18</ele>
        <time>2020-06-08T14:54:11Z</time>
      </trkpt>
      <trkpt lat="48.32027" lon="-4.22688">
        <ele>18</ele>
        <time>2020-06-08T14:54:12Z</time>
      </trkpt>
      <trkpt lat="48.32029" lon="-4.22687">
        <ele>18</ele>
        <time>2020-06-08T14:54:13Z</time>
      </trkpt>
      <trkpt lat="48.32032" lon="-4.22686">
        <ele>18</ele>
        <time>2020-06-08T14:54:14Z</time>
      </trkpt>
      <trkpt lat="48.32037" lon="-4.22686">
        <ele>18.1</ele>
        <time>2020-06-08T14:54:15Z</time>
      </trkpt>
      <trkpt lat="48.32039" lon="-4.22686">
        <ele>18.1</ele>
        <time>2020-06-08T14:54:16Z</time>
      </trkpt>
      <trkpt lat="48.32043" lon="-4.22685">
        <ele>18.2</ele>
        <time>2020-06-08T14:54:17Z</time>
      </trkpt>
      <trkpt lat="48.32045" lon="-4.22684">
        <ele>18.2</ele>
        <time>2020-06-08T14:54:18Z</time>
      </trkpt>
      <trkpt lat="48.32049" lon="-4.22683">
        <ele>18.2</ele>
        <time>2020-06-08T14:54:19Z</time>
      </trkpt>
      <trkpt lat="48.32049" lon="-4.22683">
        <ele>18.3</ele>
        <time>2020-06-08T14:54:20Z</time>
      </trkpt>
      <trkpt lat="48.32052" lon="-4.22681">
        <ele>18.3</ele>
        <time>2020-06-08T14:54:21Z</time>
      </trkpt>
      <trkpt lat="48.32053" lon="-4.22681">
        <ele>18.3</ele>
        <time>2020-06-08T14:54:22Z</time>
      </trkpt>
      <trkpt lat="48.32057" lon="-4.22679">
        <ele>18.4</ele>
        <time>2020-06-08T14:54:23Z</time>
      </trkpt>
      <trkpt lat="48.3206" lon="-4.22678">
        <ele>18.5</ele>
        <time>2020-06-08T14:54:24Z</time>
      </trkpt>
      <trkpt lat="48.32061" lon="-4.22677">
        <ele>18.5</ele>
        <time>2020-06-08T14:54:25Z</time>
      </trkpt>
      <trkpt lat="48.32064" lon="-4.22676">
        <ele>18.6</ele>
        <time>2020-06-08T14:54:26Z</time>
      </trkpt>
      <trkpt lat="48.32067" lon="-4.22674">
        <ele>18.7</ele>
        <time>2020-06-08T14:54:27Z</time>
      </trkpt>
      <trkpt lat="48.3207" lon="-4.22673">
        <ele>18.8</ele>
        <time>2020-06-08T14:54:28Z</time>
      </trkpt>
      <trkpt lat="48.32073" lon="-4.22672">
        <ele>18.9</ele>
        <time>2020-06-08T14:54:29Z</time>
      </trkpt>
      <trkpt lat="48.32077" lon="-4.22671">
        <ele>19</ele>
        <time>2020-06-08T14:54:30Z</time>
      </trkpt>
      <trkpt lat="48.32081" lon="-4.2267">
        <ele>19.1</ele>
        <time>2020-06-08T14:54:31Z</time>
      </trkpt>
      <trkpt lat="48.32085" lon="-4.22667">
        <ele>19.2</ele>
        <time>2020-06-08T14:54:32Z</time>
      </trkpt>
      <trkpt lat="48.32088" lon="-4.22665">
        <ele>19.2</ele>
        <time>2020-06-08T14:54:33Z</time>
      </trkpt>
      <trkpt lat="48.32091" lon="-4.22664">
        <ele>19.3</ele>
        <time>2020-06-08T14:54:34Z</time>
      </trkpt>
      <trkpt lat="48.32095" lon="-4.22663">
        <ele>19.4</ele>
        <time>2020-06-08T14:54:35Z</time>
      </trkpt>
      <trkpt lat="48.32098" lon="-4.22663">
        <ele>19.5</ele>
        <time>2020-06-08T14:54:36Z</time>
      </trkpt>
      <trkpt lat="48.321" lon="-4.22663">
        <ele>19.6</ele>
        <time>2020-06-08T14:54:37Z</time>
      </trkpt>
      <trkpt lat="48.32103" lon="-4.22663">
        <ele>19.6</ele>
        <time>2020-06-08T14:54:38Z</time>
      </trkpt>
      <trkpt lat="48.32106" lon="-4.22663">
        <ele>19.7</ele>
        <time>2020-06-08T14:54:39Z</time>
      </trkpt>
      <trkpt lat="48.32109" lon="-4.22662">
        <ele>19.8</ele>
        <time>2020-06-08T14:54:40Z</time>
      </trkpt>
      <trkpt lat="48.32113" lon="-4.22661">
        <ele>19.9</ele>
        <time>2020-06-08T14:54:41Z</time>
      </trkpt>
      <trkpt lat="48.32117" lon="-4.22661">
        <ele>19.9</ele>
        <time>2020-06-08T14:54:42Z</time>
      </trkpt>
      <trkpt lat="48.32121" lon="-4.22661">
        <ele>20</ele>
        <time>2020-06-08T14:54:43Z</time>
      </trkpt>
      <trkpt lat="48.32125" lon="-4.22663">
        <ele>20.3</ele>
        <time>2020-06-08T14:54:44Z</time>
      </trkpt>
      <trkpt lat="48.32127" lon="-4.22665">
        <ele>20.6</ele>
        <time>2020-06-08T14:54:45Z</time>
      </trkpt>
      <trkpt lat="48.32129" lon="-4.22669">
        <ele>21</ele>
        <time>2020-06-08T14:54:46Z</time>
      </trkpt>
      <trkpt lat="48.32131" lon="-4.22674">
        <ele>21.3</ele>
        <time>2020-06-08T14:54:47Z</time>
      </trkpt>
      <trkpt lat="48.32133" lon="-4.22679">
        <ele>21.7</ele>
        <time>2020-06-08T14:54:48Z</time>
      </trkpt>
      <trkpt lat="48.32134" lon="-4.22681">
        <ele>21.8</ele>
        <time>2020-06-08T14:54:49Z</time>
      </trkpt>
      <trkpt lat="48.32136" lon="-4.22685">
        <ele>22.1</ele>
        <time>2020-06-08T14:54:50Z</time>
      </trkpt>
      <trkpt lat="48.32136" lon="-4.22687">
        <ele>22.2</ele>
        <time>2020-06-08T14:54:51Z</time>
      </trkpt>
      <trkpt lat="48.32138" lon="-4.22692">
        <ele>22.5</ele>
        <time>2020-06-08T14:54:52Z</time>
      </trkpt>
      <trkpt lat="48.3214" lon="-4.22696">
        <ele>22.7</ele>
        <time>2020-06-08T14:54:53Z</time>
      </trkpt>
      <trkpt lat="48.32141" lon="-4.22698">
        <ele>22.9</ele>
        <time>2020-06-08T14:54:54Z</time>
      </trkpt>
      <trkpt lat="48.32142" lon="-4.22699">
        <ele>23</ele>
        <time>2020-06-08T14:54:55Z</time>
      </trkpt>
      <trkpt lat="48.32143" lon="-4.22702">
        <ele>23.2</ele>
        <time>2020-06-08T14:54:56Z</time>
      </trkpt>
      <trkpt lat="48.32145" lon="-4.22705">
        <ele>23.5</ele>
        <time>2020-06-08T14:54:57Z</time>
      </trkpt>
      <trkpt lat="48.32146" lon="-4.22706">
        <ele>23.6</ele>
        <time>2020-06-08T14:54:58Z</time>
      </trkpt>
      <trkpt lat="48.32148" lon="-4.22711">
        <ele>23.9</ele>
        <time>2020-06-08T14:54:59Z</time>
      </trkpt>
      <trkpt lat="48.32149" lon="-4.22713">
        <ele>24</ele>
        <time>2020-06-08T14:55:00Z</time>
      </trkpt>
      <trkpt lat="48.3215" lon="-4.22715">
        <ele>24.2</ele>
        <time>2020-06-08T14:55:01Z</time>
      </trkpt>
      <trkpt lat="48.32151" lon="-4.22717">
        <ele>24.4</ele>
        <time>2020-06-08T14:55:02Z</time>
      </trkpt>
      <trkpt lat="48.32153" lon="-4.22721">
        <ele>24.7</ele>
        <time>2020-06-08T14:55:03Z</time>
      </trkpt>
      <trkpt lat="48.32154" lon="-4.22723">
        <ele>24.8</ele>
        <time>2020-06-08T14:55:04Z</time>
      </trkpt>
      <trkpt lat="48.32156" lon="-4.22727">
        <ele>25.1</ele>
        <time>2020-06-08T14:55:05Z</time>
      </trkpt>
      <trkpt lat="48.32157" lon="-4.22729">
        <ele>25.2</ele>
        <time>2020-06-08T14:55:06Z</time>
      </trkpt>
      <trkpt lat="48.32158" lon="-4.22733">
        <ele>25.5</ele>
        <time>2020-06-08T14:55:07Z</time>
      </trkpt>
      <trkpt lat="48.32159" lon="-4.22734">
        <ele>25.6</ele>
        <time>2020-06-08T14:55:08Z</time>
      </trkpt>
      <trkpt lat="48.32159" lon="-4.22739">
        <ele>25.9</ele>
        <time>2020-06-08T14:55:09Z</time>
      </trkpt>
      <trkpt lat="48.3216" lon="-4.22741">
        <ele>26.1</ele>
        <time>2020-06-08T14:55:10Z</time>
      </trkpt>
      <trkpt lat="48.32162" lon="-4.22744">
        <ele>26.3</ele>
        <time>2020-06-08T14:55:11Z</time>
      </trkpt>
      <trkpt lat="48.32164" lon="-4.22748">
        <ele>26.7</ele>
        <time>2020-06-08T14:55:12Z</time>
      </trkpt>
      <trkpt lat="48.32165" lon="-4.22749">
        <ele>26.8</ele>
        <time>2020-06-08T14:55:13Z</time>
      </trkpt>
      <trkpt lat="48.32167" lon="-4.22753">
        <ele>27.2</ele>
        <time>2020-06-08T14:55:14Z</time>
      </trkpt>
      <trkpt lat="48.32167" lon="-4.22754">
        <ele>27.2</ele>
        <time>2020-06-08T14:55:15Z</time>
      </trkpt>
      <trkpt lat="48.32169" lon="-4.22759">
        <ele>27.6</ele>
        <time>2020-06-08T14:55:16Z</time>
      </trkpt>
      <trkpt lat="48.32169" lon="-4.2276">
        <ele>27.7</ele>
        <time>2020-06-08T14:55:17Z</time>
      </trkpt>
      <trkpt lat="48.32171" lon="-4.22764">
        <ele>28</ele>
        <time>2020-06-08T14:55:18Z</time>
      </trkpt>
      <trkpt lat="48.32172" lon="-4.22765">
        <ele>28.1</ele>
        <time>2020-06-08T14:55:19Z</time>
      </trkpt>
      <trkpt lat="48.32173" lon="-4.22769">
        <ele>28.5</ele>
        <time>2020-06-08T14:55:20Z</time>
      </trkpt>
      <trkpt lat="48.32174" lon="-4.22771">
        <ele>28.6</ele>
        <time>2020-06-08T14:55:21Z</time>
      </trkpt>
      <trkpt lat="48.32175" lon="-4.22774">
        <ele>29</ele>
        <time>2020-06-08T14:55:22Z</time>
      </trkpt>
      <trkpt lat="48.32176" lon="-4.22779">
        <ele>29.3</ele>
        <time>2020-06-08T14:55:23Z</time>
      </trkpt>
      <trkpt lat="48.32177" lon="-4.2278">
        <ele>29.5</ele>
        <time>2020-06-08T14:55:24Z</time>
      </trkpt>
      <trkpt lat="48.32178" lon="-4.22784">
        <ele>29.8</ele>
        <time>2020-06-08T14:55:25Z</time>
      </trkpt>
      <trkpt lat="48.32178" lon="-4.22785">
        <ele>29.9</ele>
        <time>2020-06-08T14:55:26Z</time>
      </trkpt>
      <trkpt lat="48.3218" lon="-4.22787">
        <ele>30.1</ele>
        <time>2020-06-08T14:55:27Z</time>
      </trkpt>
      <trkpt lat="48.32181" lon="-4.22789">
        <ele>30.3</ele>
        <time>2020-06-08T14:55:28Z</time>
      </trkpt>
      <trkpt lat="48.32182" lon="-4.22793">
        <ele>30.6</ele>
        <time>2020-06-08T14:55:29Z</time>
      </trkpt>
      <trkpt lat="48.32183" lon="-4.22795">
        <ele>30.8</ele>
        <time>2020-06-08T14:55:30Z</time>
      </trkpt>
      <trkpt lat="48.32185" lon="-4.22799">
        <ele>31.2</ele>
        <time>2020-06-08T14:55:31Z</time>
      </trkpt>
      <trkpt lat="48.32185" lon="-4.228">
        <ele>31.3</ele>
        <time>2020-06-08T14:55:32Z</time>
      </trkpt>
      <trkpt lat="48.32187" lon="-4.22804">
        <ele>31.7</ele>
        <time>2020-06-08T14:55:33Z</time>
      </trkpt>
      <trkpt lat="48.32187" lon="-4.22805">
        <ele>31.8</ele>
        <time>2020-06-08T14:55:34Z</time>
      </trkpt>
      <trkpt lat="48.32188" lon="-4.22807">
        <ele>32</ele>
        <time>2020-06-08T14:55:35Z</time>
      </trkpt>
      <trkpt lat="48.32189" lon="-4.2281">
        <ele>32.2</ele>
        <time>2020-06-08T14:55:36Z</time>
      </trkpt>
      <trkpt lat="48.3219" lon="-4.22814">
        <ele>32.6</ele>
        <time>2020-06-08T14:55:37Z</time>
      </trkpt>
      <trkpt lat="48.3219" lon="-4.22815">
        <ele>32.8</ele>
        <time>2020-06-08T14:55:38Z</time>
      </trkpt>
      <trkpt lat="48.32191" lon="-4.22818">
        <ele>33</ele>
        <time>2020-06-08T14:55:39Z</time>
      </trkpt>
      <trkpt lat="48.32192" lon="-4.2282">
        <ele>33.3</ele>
        <time>2020-06-08T14:55:40Z</time>
      </trkpt>
      <trkpt lat="48.32193" lon="-4.22823">
        <ele>33.7</ele>
        <time>2020-06-08T14:55:41Z</time>
      </trkpt>
      <trkpt lat="48.32194" lon="-4.22825">
        <ele>33.8</ele>
        <time>2020-06-08T14:55:42Z</time>
      </trkpt>
      <trkpt lat="48.32195" lon="-4.22826">
        <ele>34</ele>
        <time>2020-06-08T14:55:43Z</time>
      </trkpt>
      <trkpt lat="48.32196" lon="-4.22829">
        <ele>34.3</ele>
        <time>2020-06-08T14:55:44Z</time>
      </trkpt>
      <trkpt lat="48.32197" lon="-4.22833">
        <ele>34.7</ele>
        <time>2020-06-08T14:55:45Z</time>
      </trkpt>
      <trkpt lat="48.32197" lon="-4.22834">
        <ele>34.9</ele>
        <time>2020-06-08T14:55:46Z</time>
      </trkpt>
      <trkpt lat="48.32198" lon="-4.22836">
        <ele>35.1</ele>
        <time>2020-06-08T14:55:47Z</time>
      </trkpt>
      <trkpt lat="48.32199" lon="-4.22839">
        <ele>35.4</ele>
        <time>2020-06-08T14:55:48Z</time>
      </trkpt>
      <trkpt lat="48.32199" lon="-4.22841">
        <ele>35.7</ele>
        <time>2020-06-08T14:55:49Z</time>
      </trkpt>
      <trkpt lat="48.322" lon="-4.22843">
        <ele>35.9</ele>
        <time>2020-06-08T14:55:50Z</time>
      </trkpt>
      <trkpt lat="48.32202" lon="-4.22846">
        <ele>36.2</ele>
        <time>2020-06-08T14:55:51Z</time>
      </trkpt>
      <trkpt lat="48.32202" lon="-4.22847">
        <ele>36.3</ele>
        <time>2020-06-08T14:55:52Z</time>
      </trkpt>
      <trkpt lat="48.32203" lon="-4.22848">
        <ele>36.4</ele>
        <time>2020-06-08T14:55:53Z</time>
      </trkpt>
      <trkpt lat="48.32204" lon="-4.22851">
        <ele>36.7</ele>
        <time>2020-06-08T14:55:54Z</time>
      </trkpt>
      <trkpt lat="48.32205" lon="-4.22853">
        <ele>36.9</ele>
        <time>2020-06-08T14:55:55Z</time>
      </trkpt>
      <trkpt lat="48.32207" lon="-4.22857">
        <ele>37.3</ele>
        <time>2020-06-08T14:55:56Z</time>
      </trkpt>
      <trkpt lat="48.32208" lon="-4.22858">
        <ele>37.4</ele>
        <time>2020-06-08T14:55:57Z</time>
      </trkpt>
      <trkpt lat="48.3221" lon="-4.22862">
        <ele>37.8</ele>
        <time>2020-06-08T14:55:58Z</time>
      </trkpt>
      <trkpt lat="48.3221" lon="-4.22863">
        <ele>37.9</ele>
        <time>2020-06-08T14:55:59Z</time>
      </trkpt>
      <trkpt lat="48.32212" lon="-4.22867">
        <ele>38.3</ele>
        <time>2020-06-08T14:56:00Z</time>
      </trkpt>
      <trkpt lat="48.32213" lon="-4.22868">
        <ele>38.4</ele>
        <time>2020-06-08T14:56:01Z</time>
      </trkpt>
      <trkpt lat="48.32215" lon="-4.22871">
        <ele>38.8</ele>
        <time>2020-06-08T14:56:02Z</time>
      </trkpt>
      <trkpt lat="48.32215" lon="-4.22873">
        <ele>38.9</ele>
        <time>2020-06-08T14:56:03Z</time>
      </trkpt>
      <trkpt lat="48.32216" lon="-4.22877">
        <ele>39.3</ele>
        <time>2020-06-08T14:56:04Z</time>
      </trkpt>
      <trkpt lat="48.32217" lon="-4.22879">
        <ele>39.4</ele>
        <time>2020-06-08T14:56:05Z</time>
      </trkpt>
      <trkpt lat="48.32218" lon="-4.22881">
        <ele>39.6</ele>
        <time>2020-06-08T14:56:06Z</time>
      </trkpt>
      <trkpt lat="48.32219" lon="-4.22883">
        <ele>39.8</ele>
        <time>2020-06-08T14:56:07Z</time>
      </trkpt>
      <trkpt lat="48.32219" lon="-4.22885">
        <ele>40</ele>
        <time>2020-06-08T14:56:08Z</time>
      </trkpt>
      <trkpt lat="48.3222" lon="-4.22887">
        <ele>40.2</ele>
        <time>2020-06-08T14:56:09Z</time>
      </trkpt>
      <trkpt lat="48.32222" lon="-4.22891">
        <ele>40.6</ele>
        <time>2020-06-08T14:56:10Z</time>
      </trkpt>
      <trkpt lat="48.32222" lon="-4.22892">
        <ele>40.7</ele>
        <time>2020-06-08T14:56:11Z</time>
      </trkpt>
      <trkpt lat="48.32224" lon="-4.22896">
        <ele>41</ele>
        <time>2020-06-08T14:56:12Z</time>
      </trkpt>
      <trkpt lat="48.32224" lon="-4.22897">
        <ele>41.2</ele>
        <time>2020-06-08T14:56:13Z</time>
      </trkpt>
      <trkpt lat="48.32225" lon="-4.22899">
        <ele>41.3</ele>
        <time>2020-06-08T14:56:14Z</time>
      </trkpt>
      <trkpt lat="48.32226" lon="-4.22901">
        <ele>41.5</ele>
        <time>2020-06-08T14:56:15Z</time>
      </trkpt>
      <trkpt lat="48.32227" lon="-4.22904">
        <ele>41.7</ele>
        <time>2020-06-08T14:56:16Z</time>
      </trkpt>
      <trkpt lat="48.32227" lon="-4.22906">
        <ele>41.9</ele>
        <time>2020-06-08T14:56:17Z</time>
      </trkpt>
      <trkpt lat="48.32229" lon="-4.2291">
        <ele>42.2</ele>
        <time>2020-06-08T14:56:18Z</time>
      </trkpt>
      <trkpt lat="48.32229" lon="-4.22911">
        <ele>42.3</ele>
        <time>2020-06-08T14:56:19Z</time>
      </trkpt>
      <trkpt lat="48.3223" lon="-4.22914">
        <ele>42.6</ele>
        <time>2020-06-08T14:56:20Z</time>
      </trkpt>
      <trkpt lat="48.32231" lon="-4.22916">
        <ele>42.7</ele>
        <time>2020-06-08T14:56:21Z</time>
      </trkpt>
      <trkpt lat="48.32232" lon="-4.22918">
        <ele>42.9</ele>
        <time>2020-06-08T14:56:22Z</time>
      </trkpt>
      <trkpt lat="48.32233" lon="-4.2292">
        <ele>43.1</ele>
        <time>2020-06-08T14:56:23Z</time>
      </trkpt>
      <trkpt lat="48.32234" lon="-4.22923">
        <ele>43.3</ele>
        <time>2020-06-08T14:56:24Z</time>
      </trkpt>
      <trkpt lat="48.32234" lon="-4.22925">
        <ele>43.5</ele>
        <time>2020-06-08T14:56:25Z</time>
      </trkpt>
      <trkpt lat="48.32235" lon="-4.22928">
        <ele>43.8</ele>
        <time>2020-06-08T14:56:26Z</time>
      </trkpt>
      <trkpt lat="48.32236" lon="-4.22929">
        <ele>43.9</ele>
        <time>2020-06-08T14:56:27Z</time>
      </trkpt>
      <trkpt lat="48.32237" lon="-4.22932">
        <ele>44.2</ele>
        <time>2020-06-08T14:56:28Z</time>
      </trkpt>
      <trkpt lat="48.32238" lon="-4.22934">
        <ele>44.4</ele>
        <time>2020-06-08T14:56:29Z</time>
      </trkpt>
      <trkpt lat="48.32239" lon="-4.22937">
        <ele>44.7</ele>
        <time>2020-06-08T14:56:30Z</time>
      </trkpt>
      <trkpt lat="48.3224" lon="-4.22939">
        <ele>44.8</ele>
        <time>2020-06-08T14:56:31Z</time>
      </trkpt>
      <trkpt lat="48.32241" lon="-4.22941">
        <ele>45</ele>
        <time>2020-06-08T14:56:32Z</time>
      </trkpt>
      <trkpt lat="48.32242" lon="-4.22943">
        <ele>45.3</ele>
        <time>2020-06-08T14:56:33Z</time>
      </trkpt>
      <trkpt lat="48.32243" lon="-4.22945">
        <ele>45.5</ele>
        <time>2020-06-08T14:56:34Z</time>
      </trkpt>
      <trkpt lat="48.32244" lon="-4.22948">
        <ele>45.7</ele>
        <time>2020-06-08T14:56:35Z</time>
      </trkpt>
      <trkpt lat="48.32245" lon="-4.22952">
        <ele>46.1</ele>
        <time>2020-06-08T14:56:36Z</time>
      </trkpt>
      <trkpt lat="48.32246" lon="-4.22953">
        <ele>46.3</ele>
        <time>2020-06-08T14:56:37Z</time>
      </trkpt>
      <trkpt lat="48.32247" lon="-4.22957">
        <ele>46.7</ele>
        <time>2020-06-08T14:56:38Z</time>
      </trkpt>
      <trkpt lat="48.32248" lon="-4.22959">
        <ele>46.8</ele>
        <time>2020-06-08T14:56:39Z</time>
      </trkpt>
      <trkpt lat="48.32249" lon="-4.22961">
        <ele>47.2</ele>
        <time>2020-06-08T14:56:40Z</time>
      </trkpt>
      <trkpt lat="48.3225" lon="-4.22963">
        <ele>47.3</ele>
        <time>2020-06-08T14:56:41Z</time>
      </trkpt>
      <trkpt lat="48.32251" lon="-4.22965">
        <ele>47.5</ele>
        <time>2020-06-08T14:56:42Z</time>
      </trkpt>
      <trkpt lat="48.32251" lon="-4.22967">
        <ele>47.7</ele>
        <time>2020-06-08T14:56:43Z</time>
      </trkpt>
      <trkpt lat="48.32252" lon="-4.22969">
        <ele>48</ele>
        <time>2020-06-08T14:56:44Z</time>
      </trkpt>
      <trkpt lat="48.32252" lon="-4.22971">
        <ele>48.2</ele>
        <time>2020-06-08T14:56:45Z</time>
      </trkpt>
      <trkpt lat="48.32252" lon="-4.22973">
        <ele>48.3</ele>
        <time>2020-06-08T14:56:46Z</time>
      </trkpt>
      <trkpt lat="48.32252" lon="-4.22976">
        <ele>48.5</ele>
        <time>2020-06-08T14:56:47Z</time>
      </trkpt>
      <trkpt lat="48.32254" lon="-4.22978">
        <ele>48.8</ele>
        <time>2020-06-08T14:56:48Z</time>
      </trkpt>
      <trkpt lat="48.32255" lon="-4.2298">
        <ele>49</ele>
        <time>2020-06-08T14:56:49Z</time>
      </trkpt>
      <trkpt lat="48.32256" lon="-4.22983">
        <ele>49.2</ele>
        <time>2020-06-08T14:56:50Z</time>
      </trkpt>
      <trkpt lat="48.32256" lon="-4.22985">
        <ele>49.4</ele>
        <time>2020-06-08T14:56:51Z</time>
      </trkpt>
      <trkpt lat="48.32256" lon="-4.22986">
        <ele>49.5</ele>
        <time>2020-06-08T14:56:52Z</time>
      </trkpt>
      <trkpt lat="48.32257" lon="-4.22989">
        <ele>49.6</ele>
        <time>2020-06-08T14:56:53Z</time>
      </trkpt>
      <trkpt lat="48.32257" lon="-4.22991">
        <ele>49.8</ele>
        <time>2020-06-08T14:56:54Z</time>
      </trkpt>
      <trkpt lat="48.32258" lon="-4.22993">
        <ele>49.9</ele>
        <time>2020-06-08T14:56:55Z</time>
      </trkpt>
      <trkpt lat="48.32259" lon="-4.22995">
        <ele>50.1</ele>
        <time>2020-06-08T14:56:56Z</time>
      </trkpt>
      <trkpt lat="48.3226" lon="-4.23">
        <ele>50.4</ele>
        <time>2020-06-08T14:56:57Z</time>
      </trkpt>
      <trkpt lat="48.3226" lon="-4.23001">
        <ele>50.4</ele>
        <time>2020-06-08T14:56:58Z</time>
      </trkpt>
      <trkpt lat="48.3226" lon="-4.23005">
        <ele>50.7</ele>
        <time>2020-06-08T14:56:59Z</time>
      </trkpt>
      <trkpt lat="48.32261" lon="-4.23007">
        <ele>50.7</ele>
        <time>2020-06-08T14:57:00Z</time>
      </trkpt>
      <trkpt lat="48.32261" lon="-4.23009">
        <ele>50.9</ele>
        <time>2020-06-08T14:57:01Z</time>
      </trkpt>
      <trkpt lat="48.32262" lon="-4.23012">
        <ele>51</ele>
        <time>2020-06-08T14:57:02Z</time>
      </trkpt>
      <trkpt lat="48.32262" lon="-4.23016">
        <ele>51.2</ele>
        <time>2020-06-08T14:57:03Z</time>
      </trkpt>
      <trkpt lat="48.32262" lon="-4.23018">
        <ele>51.3</ele>
        <time>2020-06-08T14:57:04Z</time>
      </trkpt>
      <trkpt lat="48.32263" lon="-4.23022">
        <ele>51.4</ele>
        <time>2020-06-08T14:57:05Z</time>
      </trkpt>
      <trkpt lat="48.32263" lon="-4.23024">
        <ele>51.5</ele>
        <time>2020-06-08T14:57:06Z</time>
      </trkpt>
      <trkpt lat="48.32263" lon="-4.23025">
        <ele>51.5</ele>
        <time>2020-06-08T14:57:07Z</time>
      </trkpt>
      <trkpt lat="48.32263" lon="-4.23028">
        <ele>51.6</ele>
        <time>2020-06-08T14:57:08Z</time>
      </trkpt>
      <trkpt lat="48.32264" lon="-4.2303">
        <ele>51.7</ele>
        <time>2020-06-08T14:57:09Z</time>
      </trkpt>
      <trkpt lat="48.32264" lon="-4.23033">
        <ele>51.7</ele>
        <time>2020-06-08T14:57:10Z</time>
      </trkpt>
      <trkpt lat="48.32265" lon="-4.23037">
        <ele>51.8</ele>
        <time>2020-06-08T14:57:11Z</time>
      </trkpt>
      <trkpt lat="48.32266" lon="-4.23038">
        <ele>51.8</ele>
        <time>2020-06-08T14:57:12Z</time>
      </trkpt>
      <trkpt lat="48.32266" lon="-4.23043">
        <ele>51.9</ele>
        <time>2020-06-08T14:57:13Z</time>
      </trkpt>
      <trkpt lat="48.32266" lon="-4.23044">
        <ele>51.9</ele>
        <time>2020-06-08T14:57:14Z</time>
      </trkpt>
      <trkpt lat="48.32266" lon="-4.23047">
        <ele>51.9</ele>
        <time>2020-06-08T14:57:15Z</time>
      </trkpt>
      <trkpt lat="48.32267" lon="-4.23049">
        <ele>51.9</ele>
        <time>2020-06-08T14:57:16Z</time>
      </trkpt>
      <trkpt lat="48.32268" lon="-4.23053">
        <ele>51.9</ele>
        <time>2020-06-08T14:57:17Z</time>
      </trkpt>
      <trkpt lat="48.32268" lon="-4.23054">
        <ele>51.9</ele>
        <time>2020-06-08T14:57:18Z</time>
      </trkpt>
      <trkpt lat="48.32268" lon="-4.23057">
        <ele>51.9</ele>
        <time>2020-06-08T14:57:19Z</time>
      </trkpt>
      <trkpt lat="48.32269" lon="-4.23059">
        <ele>51.9</ele>
        <time>2020-06-08T14:57:20Z</time>
      </trkpt>
      <trkpt lat="48.32269" lon="-4.23061">
        <ele>51.9</ele>
        <time>2020-06-08T14:57:21Z</time>
      </trkpt>
      <trkpt lat="48.32269" lon="-4.23064">
        <ele>51.9</ele>
        <time>2020-06-08T14:57:22Z</time>
      </trkpt>
      <trkpt lat="48.3227" lon="-4.23068">
        <ele>51.8</ele>
        <time>2020-06-08T14:57:23Z</time>
      </trkpt>
      <trkpt lat="48.3227" lon="-4.2307">
        <ele>51.8</ele>
        <time>2020-06-08T14:57:24Z</time>
      </trkpt>
      <trkpt lat="48.32272" lon="-4.23075">
        <ele>51.7</ele>
        <time>2020-06-08T14:57:25Z</time>
      </trkpt>
      <trkpt lat="48.32272" lon="-4.23077">
        <ele>51.7</ele>
        <time>2020-06-08T14:57:26Z</time>
      </trkpt>
      <trkpt lat="48.32273" lon="-4.23081">
        <ele>51.6</ele>
        <time>2020-06-08T14:57:27Z</time>
      </trkpt>
      <trkpt lat="48.32275" lon="-4.23085">
        <ele>51.5</ele>
        <time>2020-06-08T14:57:28Z</time>
      </trkpt>
      <trkpt lat="48.32277" lon="-4.23089">
        <ele>51.5</ele>
        <time>2020-06-08T14:57:29Z</time>
      </trkpt>
      <trkpt lat="48.32278" lon="-4.23093">
        <ele>51.4</ele>
        <time>2020-06-08T14:57:30Z</time>
      </trkpt>
      <trkpt lat="48.32279" lon="-4.23098">
        <ele>51.3</ele>
        <time>2020-06-08T14:57:31Z</time>
      </trkpt>
      <trkpt lat="48.3228" lon="-4.23103">
        <ele>51.2</ele>
        <time>2020-06-08T14:57:32Z</time>
      </trkpt>
      <trkpt lat="48.3228" lon="-4.23104">
        <ele>51.2</ele>
        <time>2020-06-08T14:57:33Z</time>
      </trkpt>
      <trkpt lat="48.32281" lon="-4.23105">
        <ele>51.1</ele>
        <time>2020-06-08T14:57:34Z</time>
      </trkpt>
      <trkpt lat="48.32282" lon="-4.23106">
        <ele>51.1</ele>
        <time>2020-06-08T14:57:35Z</time>
      </trkpt>
      <trkpt lat="48.32282" lon="-4.23106">
        <ele>51.1</ele>
        <time>2020-06-08T14:57:36Z</time>
      </trkpt>
      <trkpt lat="48.32282" lon="-4.23106">
        <ele>51.1</ele>
        <time>2020-06-08T14:57:37Z</time>
      </trkpt>
      <trkpt lat="48.32282" lon="-4.23107">
        <ele>51.1</ele>
        <time>2020-06-08T14:57:38Z</time>
      </trkpt>
      <trkpt lat="48.32282" lon="-4.23107">
        <ele>51.1</ele>
        <time>2020-06-08T14:57:39Z</time>
      </trkpt>
      <trkpt lat="48.32282" lon="-4.23108">
        <ele>51.1</ele>
        <time>2020-06-08T14:57:40Z</time>
      </trkpt>
      <trkpt lat="48.32282" lon="-4.23108">
        <ele>51.1</ele>
        <time>2020-06-08T14:57:41Z</time>
      </trkpt>
      <trkpt lat="48.32282" lon="-4.23108">
        <ele>51.1</ele>
        <time>2020-06-08T14:57:42Z</time>
      </trkpt>
      <trkpt lat="48.32282" lon="-4.23109">
        <ele>51.1</ele>
        <time>2020-06-08T14:57:43Z</time>
      </trkpt>
      <trkpt lat="48.32282" lon="-4.23109">
        <ele>51</ele>
        <time>2020-06-08T14:57:44Z</time>
      </trkpt>
      <trkpt lat="48.32282" lon="-4.2311">
        <ele>51</ele>
        <time>2020-06-08T14:57:45Z</time>
      </trkpt>
      <trkpt lat="48.32282" lon="-4.2311">
        <ele>51</ele>
        <time>2020-06-08T14:57:46Z</time>
      </trkpt>
      <trkpt lat="48.32282" lon="-4.2311">
        <ele>51</ele>
        <time>2020-06-08T14:57:47Z</time>
      </trkpt>
      <trkpt lat="48.32282" lon="-4.23111">
        <ele>51</ele>
        <time>2020-06-08T14:57:48Z</time>
      </trkpt>
      <trkpt lat="48.32283" lon="-4.23115">
        <ele>50.9</ele>
        <time>2020-06-08T14:57:49Z</time>
      </trkpt>
      <trkpt lat="48.32284" lon="-4.2312">
        <ele>50.8</ele>
        <time>2020-06-08T14:57:50Z</time>
      </trkpt>
      <trkpt lat="48.32286" lon="-4.23125">
        <ele>50.7</ele>
        <time>2020-06-08T14:57:51Z</time>
      </trkpt>
      <trkpt lat="48.32287" lon="-4.23129">
        <ele>50.6</ele>
        <time>2020-06-08T14:57:52Z</time>
      </trkpt>
      <trkpt lat="48.32288" lon="-4.23133">
        <ele>50.5</ele>
        <time>2020-06-08T14:57:53Z</time>
      </trkpt>
      <trkpt lat="48.32289" lon="-4.23137">
        <ele>50.4</ele>
        <time>2020-06-08T14:57:54Z</time>
      </trkpt>
      <trkpt lat="48.3229" lon="-4.23143">
        <ele>50.3</ele>
        <time>2020-06-08T14:57:55Z</time>
      </trkpt>
      <trkpt lat="48.32291" lon="-4.23149">
        <ele>50.2</ele>
        <time>2020-06-08T14:57:56Z</time>
      </trkpt>
      <trkpt lat="48.32292" lon="-4.23154">
        <ele>50.1</ele>
        <time>2020-06-08T14:57:57Z</time>
      </trkpt>
      <trkpt lat="48.32293" lon="-4.23159">
        <ele>50</ele>
        <time>2020-06-08T14:57:58Z</time>
      </trkpt>
      <trkpt lat="48.32292" lon="-4.23164">
        <ele>49.9</ele>
        <time>2020-06-08T14:57:59Z</time>
      </trkpt>
      <trkpt lat="48.32293" lon="-4.23168">
        <ele>49.8</ele>
        <time>2020-06-08T14:58:00Z</time>
      </trkpt>
      <trkpt lat="48.32293" lon="-4.23174">
        <ele>49.7</ele>
        <time>2020-06-08T14:58:01Z</time>
      </trkpt>
      <trkpt lat="48.32294" lon="-4.2318">
        <ele>49.6</ele>
        <time>2020-06-08T14:58:02Z</time>
      </trkpt>
      <trkpt lat="48.32295" lon="-4.23185">
        <ele>49.6</ele>
        <time>2020-06-08T14:58:03Z</time>
      </trkpt>
      <trkpt lat="48.32296" lon="-4.2319">
        <ele>49.5</ele>
        <time>2020-06-08T14:58:04Z</time>
      </trkpt>
      <trkpt lat="48.32297" lon="-4.23194">
        <ele>49.5</ele>
        <time>2020-06-08T14:58:05Z</time>
      </trkpt>
      <trkpt lat="48.32298" lon="-4.23199">
        <ele>49.5</ele>
        <time>2020-06-08T14:58:06Z</time>
      </trkpt>
      <trkpt lat="48.32298" lon="-4.232">
        <ele>49.5</ele>
        <time>2020-06-08T14:58:07Z</time>
      </trkpt>
      <trkpt lat="48.32298" lon="-4.23202">
        <ele>49.5</ele>
        <time>2020-06-08T14:58:08Z</time>
      </trkpt>
      <trkpt lat="48.32298" lon="-4.23202">
        <ele>49.5</ele>
        <time>2020-06-08T14:58:09Z</time>
      </trkpt>
      <trkpt lat="48.32298" lon="-4.23203">
        <ele>49.5</ele>
        <time>2020-06-08T14:58:10Z</time>
      </trkpt>
      <trkpt lat="48.32297" lon="-4.23203">
        <ele>49.5</ele>
        <time>2020-06-08T14:58:11Z</time>
      </trkpt>
      <trkpt lat="48.32297" lon="-4.23204">
        <ele>49.5</ele>
        <time>2020-06-08T14:58:12Z</time>
      </trkpt>
      <trkpt lat="48.32297" lon="-4.23204">
        <ele>49.5</ele>
        <time>2020-06-08T14:58:13Z</time>
      </trkpt>
      <trkpt lat="48.32297" lon="-4.23205">
        <ele>49.5</ele>
        <time>2020-06-08T14:58:14Z</time>
      </trkpt>
      <trkpt lat="48.32296" lon="-4.23205">
        <ele>49.5</ele>
        <time>2020-06-08T14:58:15Z</time>
      </trkpt>
      <trkpt lat="48.32296" lon="-4.23206">
        <ele>49.5</ele>
        <time>2020-06-08T14:58:16Z</time>
      </trkpt>
      <trkpt lat="48.32296" lon="-4.23206">
        <ele>49.5</ele>
        <time>2020-06-08T14:58:17Z</time>
      </trkpt>
      <trkpt lat="48.32295" lon="-4.23207">
        <ele>49.5</ele>
        <time>2020-06-08T14:58:18Z</time>
      </trkpt>
      <trkpt lat="48.32295" lon="-4.23207">
        <ele>49.5</ele>
        <time>2020-06-08T14:58:19Z</time>
      </trkpt>
      <trkpt lat="48.32295" lon="-4.23208">
        <ele>49.5</ele>
        <time>2020-06-08T14:59:56Z</time>
      </trkpt>
      <trkpt lat="48.32295" lon="-4.23208">
        <ele>49.5</ele>
        <time>2020-06-08T14:59:57Z</time>
      </trkpt>
      <trkpt lat="48.32296" lon="-4.23213">
        <ele>49.4</ele>
        <time>2020-06-08T14:59:58Z</time>
      </trkpt>
      <trkpt lat="48.32296" lon="-4.23215">
        <ele>49.4</ele>
        <time>2020-06-08T14:59:59Z</time>
      </trkpt>
      <trkpt lat="48.32296" lon="-4.23221">
        <ele>49.4</ele>
        <time>2020-06-08T15:00:00Z</time>
      </trkpt>
      <trkpt lat="48.32296" lon="-4.23222">
        <ele>49.3</ele>
        <time>2020-06-08T15:00:01Z</time>
      </trkpt>
      <trkpt lat="48.32296" lon="-4.23227">
        <ele>49.3</ele>
        <time>2020-06-08T15:00:02Z</time>
      </trkpt>
      <trkpt lat="48.32297" lon="-4.23229">
        <ele>49.3</ele>
        <time>2020-06-08T15:00:03Z</time>
      </trkpt>
      <trkpt lat="48.32297" lon="-4.23234">
        <ele>49.2</ele>
        <time>2020-06-08T15:00:04Z</time>
      </trkpt>
      <trkpt lat="48.32297" lon="-4.23235">
        <ele>49.2</ele>
        <time>2020-06-08T15:00:05Z</time>
      </trkpt>
      <trkpt lat="48.32298" lon="-4.2324">
        <ele>49.1</ele>
        <time>2020-06-08T15:00:06Z</time>
      </trkpt>
      <trkpt lat="48.32299" lon="-4.23244">
        <ele>49.1</ele>
        <time>2020-06-08T15:00:07Z</time>
      </trkpt>
      <trkpt lat="48.32298" lon="-4.23248">
        <ele>49</ele>
        <time>2020-06-08T15:00:08Z</time>
      </trkpt>
      <trkpt lat="48.32299" lon="-4.23252">
        <ele>48.9</ele>
        <time>2020-06-08T15:00:09Z</time>
      </trkpt>
      <trkpt lat="48.32299" lon="-4.23257">
        <ele>48.9</ele>
        <time>2020-06-08T15:00:10Z</time>
      </trkpt>
      <trkpt lat="48.323" lon="-4.23261">
        <ele>48.8</ele>
        <time>2020-06-08T15:00:11Z</time>
      </trkpt>
      <trkpt lat="48.32301" lon="-4.23265">
        <ele>48.7</ele>
        <time>2020-06-08T15:00:12Z</time>
      </trkpt>
      <trkpt lat="48.32302" lon="-4.23269">
        <ele>48.7</ele>
        <time>2020-06-08T15:00:13Z</time>
      </trkpt>
      <trkpt lat="48.32303" lon="-4.23276">
        <ele>48.5</ele>
        <time>2020-06-08T15:00:14Z</time>
      </trkpt>
      <trkpt lat="48.32304" lon="-4.23281">
        <ele>48.5</ele>
        <time>2020-06-08T15:00:15Z</time>
      </trkpt>
      <trkpt lat="48.32305" lon="-4.23286">
        <ele>48.4</ele>
        <time>2020-06-08T15:00:16Z</time>
      </trkpt>
      <trkpt lat="48.32306" lon="-4.23291">
        <ele>48.3</ele>
        <time>2020-06-08T15:00:17Z</time>
      </trkpt>
      <trkpt lat="48.32308" lon="-4.23296">
        <ele>48.2</ele>
        <time>2020-06-08T15:00:18Z</time>
      </trkpt>
      <trkpt lat="48.32309" lon="-4.23301">
        <ele>48.1</ele>
        <time>2020-06-08T15:00:19Z</time>
      </trkpt>
      <trkpt lat="48.3231" lon="-4.23307">
        <ele>48</ele>
        <time>2020-06-08T15:00:20Z</time>
      </trkpt>
      <trkpt lat="48.32311" lon="-4.23313">
        <ele>47.8</ele>
        <time>2020-06-08T15:00:21Z</time>
      </trkpt>
      <trkpt lat="48.32313" lon="-4.23317">
        <ele>47.7</ele>
        <time>2020-06-08T15:00:22Z</time>
      </trkpt>
      <trkpt lat="48.32315" lon="-4.23322">
        <ele>47.6</ele>
        <time>2020-06-08T15:00:23Z</time>
      </trkpt>
      <trkpt lat="48.32317" lon="-4.23329">
        <ele>47.5</ele>
        <time>2020-06-08T15:00:24Z</time>
      </trkpt>
      <trkpt lat="48.32319" lon="-4.23335">
        <ele>47.3</ele>
        <time>2020-06-08T15:00:25Z</time>
      </trkpt>
      <trkpt lat="48.32322" lon="-4.23341">
        <ele>47.1</ele>
        <time>2020-06-08T15:00:26Z</time>
      </trkpt>
      <trkpt lat="48.32323" lon="-4.23348">
        <ele>46.9</ele>
        <time>2020-06-08T15:00:27Z</time>
      </trkpt>
      <trkpt lat="48.32325" lon="-4.23356">
        <ele>46.7</ele>
        <time>2020-06-08T15:00:28Z</time>
      </trkpt>
      <trkpt lat="48.32327" lon="-4.23364">
        <ele>46.4</ele>
        <time>2020-06-08T15:00:29Z</time>
      </trkpt>
      <trkpt lat="48.3233" lon="-4.23371">
        <ele>46.2</ele>
        <time>2020-06-08T15:00:30Z</time>
      </trkpt>
      <trkpt lat="48.32333" lon="-4.23379">
        <ele>45.9</ele>
        <time>2020-06-08T15:00:31Z</time>
      </trkpt>
      <trkpt lat="48.32336" lon="-4.23386">
        <ele>45.7</ele>
        <time>2020-06-08T15:00:32Z</time>
      </trkpt>
      <trkpt lat="48.32338" lon="-4.23395">
        <ele>45.4</ele>
        <time>2020-06-08T15:00:33Z</time>
      </trkpt>
      <trkpt lat="48.3234" lon="-4.23404">
        <ele>45.1</ele>
        <time>2020-06-08T15:00:34Z</time>
      </trkpt>
      <trkpt lat="48.32343" lon="-4.23412">
        <ele>44.8</ele>
        <time>2020-06-08T15:00:35Z</time>
      </trkpt>
      <trkpt lat="48.32347" lon="-4.23421">
        <ele>44.5</ele>
        <time>2020-06-08T15:00:36Z</time>
      </trkpt>
      <trkpt lat="48.3235" lon="-4.2343">
        <ele>44.2</ele>
        <time>2020-06-08T15:00:37Z</time>
      </trkpt>
      <trkpt lat="48.32353" lon="-4.23439">
        <ele>43.8</ele>
        <time>2020-06-08T15:00:38Z</time>
      </trkpt>
      <trkpt lat="48.32356" lon="-4.23448">
        <ele>43.5</ele>
        <time>2020-06-08T15:00:39Z</time>
      </trkpt>
      <trkpt lat="48.32359" lon="-4.23459">
        <ele>43</ele>
        <time>2020-06-08T15:00:40Z</time>
      </trkpt>
      <trkpt lat="48.32362" lon="-4.23469">
        <ele>42.6</ele>
        <time>2020-06-08T15:00:41Z</time>
      </trkpt>
      <trkpt lat="48.32366" lon="-4.23478">
        <ele>42.3</ele>
        <time>2020-06-08T15:00:42Z</time>
      </trkpt>
      <trkpt lat="48.3237" lon="-4.23489">
        <ele>41.9</ele>
        <time>2020-06-08T15:00:43Z</time>
      </trkpt>
      <trkpt lat="48.32374" lon="-4.23499">
        <ele>41.5</ele>
        <time>2020-06-08T15:00:44Z</time>
      </trkpt>
      <trkpt lat="48.32377" lon="-4.23509">
        <ele>41.2</ele>
        <time>2020-06-08T15:00:45Z</time>
      </trkpt>
      <trkpt lat="48.32381" lon="-4.2352">
        <ele>40.8</ele>
        <time>2020-06-08T15:00:46Z</time>
      </trkpt>
      <trkpt lat="48.32386" lon="-4.23531">
        <ele>40.5</ele>
        <time>2020-06-08T15:00:47Z</time>
      </trkpt>
      <trkpt lat="48.3239" lon="-4.23543">
        <ele>40.1</ele>
        <time>2020-06-08T15:00:48Z</time>
      </trkpt>
      <trkpt lat="48.32394" lon="-4.23554">
        <ele>39.7</ele>
        <time>2020-06-08T15:00:49Z</time>
      </trkpt>
      <trkpt lat="48.32398" lon="-4.23565">
        <ele>39.3</ele>
        <time>2020-06-08T15:00:50Z</time>
      </trkpt>
      <trkpt lat="48.32402" lon="-4.23576">
        <ele>38.8</ele>
        <time>2020-06-08T15:00:51Z</time>
      </trkpt>
      <trkpt lat="48.32407" lon="-4.23587">
        <ele>38.4</ele>
        <time>2020-06-08T15:00:52Z</time>
      </trkpt>
      <trkpt lat="48.32412" lon="-4.23597">
        <ele>37.6</ele>
        <time>2020-06-08T15:00:53Z</time>
      </trkpt>
      <trkpt lat="48.32418" lon="-4.23606">
        <ele>36.9</ele>
        <time>2020-06-08T15:00:54Z</time>
      </trkpt>
      <trkpt lat="48.32424" lon="-4.23615">
        <ele>36.2</ele>
        <time>2020-06-08T15:00:55Z</time>
      </trkpt>
      <trkpt lat="48.3243" lon="-4.23622">
        <ele>35.4</ele>
        <time>2020-06-08T15:00:56Z</time>
      </trkpt>
      <trkpt lat="48.32435" lon="-4.23629">
        <ele>35.2</ele>
        <time>2020-06-08T15:00:57Z</time>
      </trkpt>
      <trkpt lat="48.32439" lon="-4.23635">
        <ele>35</ele>
        <time>2020-06-08T15:00:58Z</time>
      </trkpt>
      <trkpt lat="48.32444" lon="-4.23642">
        <ele>34.7</ele>
        <time>2020-06-08T15:00:59Z</time>
      </trkpt>
      <trkpt lat="48.32449" lon="-4.2365">
        <ele>34.2</ele>
        <time>2020-06-08T15:01:00Z</time>
      </trkpt>
      <trkpt lat="48.32453" lon="-4.23657">
        <ele>33.9</ele>
        <time>2020-06-08T15:01:01Z</time>
      </trkpt>
      <trkpt lat="48.32458" lon="-4.23664">
        <ele>33.7</ele>
        <time>2020-06-08T15:01:02Z</time>
      </trkpt>
      <trkpt lat="48.32463" lon="-4.2367">
        <ele>33.3</ele>
        <time>2020-06-08T15:01:03Z</time>
      </trkpt>
      <trkpt lat="48.32467" lon="-4.23677">
        <ele>33</ele>
        <time>2020-06-08T15:01:04Z</time>
      </trkpt>
      <trkpt lat="48.32471" lon="-4.23683">
        <ele>32.6</ele>
        <time>2020-06-08T15:01:05Z</time>
      </trkpt>
      <trkpt lat="48.32475" lon="-4.23689">
        <ele>32.3</ele>
        <time>2020-06-08T15:01:06Z</time>
      </trkpt>
      <trkpt lat="48.3248" lon="-4.23695">
        <ele>32</ele>
        <time>2020-06-08T15:01:07Z</time>
      </trkpt>
      <trkpt lat="48.32484" lon="-4.23702">
        <ele>31.6</ele>
        <time>2020-06-08T15:01:08Z</time>
      </trkpt>
      <trkpt lat="48.32488" lon="-4.23708">
        <ele>31.2</ele>
        <time>2020-06-08T15:01:09Z</time>
      </trkpt>
      <trkpt lat="48.32492" lon="-4.23716">
        <ele>30.8</ele>
        <time>2020-06-08T15:01:10Z</time>
      </trkpt>
      <trkpt lat="48.32498" lon="-4.23722">
        <ele>30.3</ele>
        <time>2020-06-08T15:01:11Z</time>
      </trkpt>
      <trkpt lat="48.32504" lon="-4.23729">
        <ele>29.7</ele>
        <time>2020-06-08T15:01:12Z</time>
      </trkpt>
      <trkpt lat="48.32509" lon="-4.23736">
        <ele>29.2</ele>
        <time>2020-06-08T15:01:13Z</time>
      </trkpt>
      <trkpt lat="48.32516" lon="-4.23743">
        <ele>28.6</ele>
        <time>2020-06-08T15:01:14Z</time>
      </trkpt>
      <trkpt lat="48.32522" lon="-4.23751">
        <ele>28.1</ele>
        <time>2020-06-08T15:01:15Z</time>
      </trkpt>
      <trkpt lat="48.32529" lon="-4.23758">
        <ele>27.5</ele>
        <time>2020-06-08T15:01:16Z</time>
      </trkpt>
      <trkpt lat="48.32536" lon="-4.23766">
        <ele>26.9</ele>
        <time>2020-06-08T15:01:17Z</time>
      </trkpt>
      <trkpt lat="48.32543" lon="-4.23773">
        <ele>26.5</ele>
        <time>2020-06-08T15:01:18Z</time>
      </trkpt>
      <trkpt lat="48.3255" lon="-4.23781">
        <ele>26.2</ele>
        <time>2020-06-08T15:01:19Z</time>
      </trkpt>
      <trkpt lat="48.32557" lon="-4.23788">
        <ele>25.9</ele>
        <time>2020-06-08T15:01:20Z</time>
      </trkpt>
      <trkpt lat="48.32564" lon="-4.23794">
        <ele>25.6</ele>
        <time>2020-06-08T15:01:21Z</time>
      </trkpt>
      <trkpt lat="48.32572" lon="-4.238">
        <ele>25.3</ele>
        <time>2020-06-08T15:01:22Z</time>
      </trkpt>
      <trkpt lat="48.32579" lon="-4.23805">
        <ele>25.1</ele>
        <time>2020-06-08T15:01:23Z</time>
      </trkpt>
      <trkpt lat="48.32586" lon="-4.23811">
        <ele>24.8</ele>
        <time>2020-06-08T15:01:24Z</time>
      </trkpt>
      <trkpt lat="48.32593" lon="-4.23816">
        <ele>24.4</ele>
        <time>2020-06-08T15:01:25Z</time>
      </trkpt>
      <trkpt lat="48.326" lon="-4.23821">
        <ele>24.1</ele>
        <time>2020-06-08T15:01:26Z</time>
      </trkpt>
      <trkpt lat="48.32606" lon="-4.23827">
        <ele>23.7</ele>
        <time>2020-06-08T15:01:27Z</time>
      </trkpt>
      <trkpt lat="48.32613" lon="-4.23835">
        <ele>23.3</ele>
        <time>2020-06-08T15:01:28Z</time>
      </trkpt>
      <trkpt lat="48.32619" lon="-4.23843">
        <ele>22.8</ele>
        <time>2020-06-08T15:01:29Z</time>
      </trkpt>
      <trkpt lat="48.32624" lon="-4.23853">
        <ele>22.3</ele>
        <time>2020-06-08T15:01:30Z</time>
      </trkpt>
      <trkpt lat="48.32629" lon="-4.23863">
        <ele>21.8</ele>
        <time>2020-06-08T15:01:31Z</time>
      </trkpt>
      <trkpt lat="48.32633" lon="-4.23873">
        <ele>21.4</ele>
        <time>2020-06-08T15:01:32Z</time>
      </trkpt>
      <trkpt lat="48.32637" lon="-4.23883">
        <ele>20.9</ele>
        <time>2020-06-08T15:01:33Z</time>
      </trkpt>
      <trkpt lat="48.32641" lon="-4.23892">
        <ele>20.5</ele>
        <time>2020-06-08T15:01:34Z</time>
      </trkpt>
      <trkpt lat="48.32646" lon="-4.239">
        <ele>20</ele>
        <time>2020-06-08T15:01:35Z</time>
      </trkpt>
      <trkpt lat="48.3265" lon="-4.23909">
        <ele>19.6</ele>
        <time>2020-06-08T15:01:36Z</time>
      </trkpt>
      <trkpt lat="48.32653" lon="-4.23917">
        <ele>19.2</ele>
        <time>2020-06-08T15:01:37Z</time>
      </trkpt>
      <trkpt lat="48.32656" lon="-4.23925">
        <ele>18.9</ele>
        <time>2020-06-08T15:01:38Z</time>
      </trkpt>
      <trkpt lat="48.32659" lon="-4.23931">
        <ele>18.6</ele>
        <time>2020-06-08T15:01:39Z</time>
      </trkpt>
      <trkpt lat="48.32662" lon="-4.23936">
        <ele>18.4</ele>
        <time>2020-06-08T15:01:40Z</time>
      </trkpt>
      <trkpt lat="48.32664" lon="-4.23942">
        <ele>18.3</ele>
        <time>2020-06-08T15:01:41Z</time>
      </trkpt>
      <trkpt lat="48.32666" lon="-4.23948">
        <ele>17.9</ele>
        <time>2020-06-08T15:01:42Z</time>
      </trkpt>
      <trkpt lat="48.32669" lon="-4.23955">
        <ele>17.5</ele>
        <time>2020-06-08T15:01:43Z</time>
      </trkpt>
      <trkpt lat="48.32671" lon="-4.23962">
        <ele>17.2</ele>
        <time>2020-06-08T15:01:44Z</time>
      </trkpt>
      <trkpt lat="48.32674" lon="-4.23969">
        <ele>16.8</ele>
        <time>2020-06-08T15:01:45Z</time>
      </trkpt>
      <trkpt lat="48.32677" lon="-4.23976">
        <ele>16.4</ele>
        <time>2020-06-08T15:01:46Z</time>
      </trkpt>
      <trkpt lat="48.3268" lon="-4.23983">
        <ele>16.1</ele>
        <time>2020-06-08T15:01:47Z</time>
      </trkpt>
      <trkpt lat="48.32682" lon="-4.23989">
        <ele>15.8</ele>
        <time>2020-06-08T15:01:48Z</time>
      </trkpt>
      <trkpt lat="48.32684" lon="-4.23994">
        <ele>15.6</ele>
        <time>2020-06-08T15:01:49Z</time>
      </trkpt>
      <trkpt lat="48.32686" lon="-4.23997">
        <ele>15.5</ele>
        <time>2020-06-08T15:01:50Z</time>
      </trkpt>
      <trkpt lat="48.32689" lon="-4.24001">
        <ele>15.4</ele>
        <time>2020-06-08T15:01:51Z</time>
      </trkpt>
      <trkpt lat="48.3269" lon="-4.24002">
        <ele>15.4</ele>
        <time>2020-06-08T15:01:52Z</time>
      </trkpt>
      <trkpt lat="48.32693" lon="-4.24005">
        <ele>15.1</ele>
        <time>2020-06-08T15:01:53Z</time>
      </trkpt>
      <trkpt lat="48.32697" lon="-4.24009">
        <ele>14.9</ele>
        <time>2020-06-08T15:01:54Z</time>
      </trkpt>
      <trkpt lat="48.32702" lon="-4.24011">
        <ele>14.5</ele>
        <time>2020-06-08T15:01:55Z</time>
      </trkpt>
      <trkpt lat="48.32707" lon="-4.24012">
        <ele>14.1</ele>
        <time>2020-06-08T15:01:56Z</time>
      </trkpt>
      <trkpt lat="48.32713" lon="-4.24014">
        <ele>13.6</ele>
        <time>2020-06-08T15:01:57Z</time>
      </trkpt>
      <trkpt lat="48.32719" lon="-4.24014">
        <ele>13</ele>
        <time>2020-06-08T15:01:58Z</time>
      </trkpt>
      <trkpt lat="48.32724" lon="-4.24014">
        <ele>12.6</ele>
        <time>2020-06-08T15:01:59Z</time>
      </trkpt>
      <trkpt lat="48.32728" lon="-4.24014">
        <ele>12.2</ele>
        <time>2020-06-08T15:02:00Z</time>
      </trkpt>
      <trkpt lat="48.32733" lon="-4.24012">
        <ele>11.9</ele>
        <time>2020-06-08T15:02:01Z</time>
      </trkpt>
      <trkpt lat="48.32737" lon="-4.24011">
        <ele>11.5</ele>
        <time>2020-06-08T15:02:02Z</time>
      </trkpt>
      <trkpt lat="48.32741" lon="-4.24009">
        <ele>11.2</ele>
        <time>2020-06-08T15:02:03Z</time>
      </trkpt>
      <trkpt lat="48.32744" lon="-4.24007">
        <ele>11</ele>
        <time>2020-06-08T15:02:04Z</time>
      </trkpt>
      <trkpt lat="48.32748" lon="-4.24005">
        <ele>10.5</ele>
        <time>2020-06-08T15:02:05Z</time>
      </trkpt>
      <trkpt lat="48.32749" lon="-4.24004">
        <ele>10.5</ele>
        <time>2020-06-08T15:02:06Z</time>
      </trkpt>
      <trkpt lat="48.32752" lon="-4.24007">
        <ele>10.3</ele>
        <time>2020-06-08T15:02:07Z</time>
      </trkpt>
      <trkpt lat="48.32753" lon="-4.24009">
        <ele>10.2</ele>
        <time>2020-06-08T15:02:08Z</time>
      </trkpt>
      <trkpt lat="48.32755" lon="-4.24014">
        <ele>10</ele>
        <time>2020-06-08T15:02:09Z</time>
      </trkpt>
      <trkpt lat="48.32756" lon="-4.24019">
        <ele>9.9</ele>
        <time>2020-06-08T15:02:10Z</time>
      </trkpt>
      <trkpt lat="48.32757" lon="-4.24025">
        <ele>9.7</ele>
        <time>2020-06-08T15:02:11Z</time>
      </trkpt>
      <trkpt lat="48.32759" lon="-4.2403">
        <ele>9.5</ele>
        <time>2020-06-08T15:02:12Z</time>
      </trkpt>
      <trkpt lat="48.3276" lon="-4.24036">
        <ele>9.3</ele>
        <time>2020-06-08T15:02:13Z</time>
      </trkpt>
      <trkpt lat="48.32762" lon="-4.24043">
        <ele>9.1</ele>
        <time>2020-06-08T15:02:14Z</time>
      </trkpt>
      <trkpt lat="48.32764" lon="-4.24049">
        <ele>8.9</ele>
        <time>2020-06-08T15:02:15Z</time>
      </trkpt>
      <trkpt lat="48.32766" lon="-4.24056">
        <ele>8.7</ele>
        <time>2020-06-08T15:02:16Z</time>
      </trkpt>
      <trkpt lat="48.32769" lon="-4.24063">
        <ele>8.5</ele>
        <time>2020-06-08T15:02:17Z</time>
      </trkpt>
      <trkpt lat="48.32772" lon="-4.2407">
        <ele>8.3</ele>
        <time>2020-06-08T15:02:18Z</time>
      </trkpt>
      <trkpt lat="48.32775" lon="-4.24076">
        <ele>8.1</ele>
        <time>2020-06-08T15:02:19Z</time>
      </trkpt>
      <trkpt lat="48.32778" lon="-4.24081">
        <ele>7.9</ele>
        <time>2020-06-08T15:02:20Z</time>
      </trkpt>
      <trkpt lat="48.32781" lon="-4.24085">
        <ele>7.7</ele>
        <time>2020-06-08T15:02:21Z</time>
      </trkpt>
      <trkpt lat="48.32783" lon="-4.24089">
        <ele>7.5</ele>
        <time>2020-06-08T15:02:22Z</time>
      </trkpt>
      <trkpt lat="48.32784" lon="-4.24092">
        <ele>7.4</ele>
        <time>2020-06-08T15:02:23Z</time>
      </trkpt>
      <trkpt lat="48.32785" lon="-4.24091">
        <ele>7.4</ele>
        <time>2020-06-08T15:02:24Z</time>
      </trkpt>
      <trkpt lat="48.32784" lon="-4.24091">
        <ele>7.4</ele>
        <time>2020-06-08T15:02:25Z</time>
      </trkpt>
      <trkpt lat="48.32784" lon="-4.24091">
        <ele>7.4</ele>
        <time>2020-06-08T15:02:26Z</time>
      </trkpt>
      <trkpt lat="48.32785" lon="-4.24091">
        <ele>7.4</ele>
        <time>2020-06-08T15:02:27Z</time>
      </trkpt>
      <trkpt lat="48.32785" lon="-4.24091">
        <ele>7.4</ele>
        <time>2020-06-08T15:02:28Z</time>
      </trkpt>
      <trkpt lat="48.32785" lon="-4.24092">
        <ele>7.4</ele>
        <time>2020-06-08T15:02:29Z</time>
      </trkpt>
      <trkpt lat="48.32785" lon="-4.24092">
        <ele>7.4</ele>
        <time>2020-06-08T15:02:30Z</time>
      </trkpt>
      <trkpt lat="48.32785" lon="-4.24092">
        <ele>7.4</ele>
        <time>2020-06-08T15:02:31Z</time>
      </trkpt>
      <trkpt lat="48.32785" lon="-4.24091">
        <ele>7.3</ele>
        <time>2020-06-08T15:02:32Z</time>
      </trkpt>
      <trkpt lat="48.32785" lon="-4.24092">
        <ele>7.3</ele>
        <time>2020-06-08T15:02:33Z</time>
      </trkpt>
      <trkpt lat="48.32785" lon="-4.24093">
        <ele>7.3</ele>
        <time>2020-06-08T15:02:34Z</time>
      </trkpt>
      <trkpt lat="48.32784" lon="-4.24092">
        <ele>7.3</ele>
        <time>2020-06-08T15:02:35Z</time>
      </trkpt>
      <trkpt lat="48.32785" lon="-4.24092">
        <ele>7.3</ele>
        <time>2020-06-08T15:02:36Z</time>
      </trkpt>
      <trkpt lat="48.32784" lon="-4.24093">
        <ele>7.3</ele>
        <time>2020-06-08T15:02:37Z</time>
      </trkpt>
      <trkpt lat="48.32784" lon="-4.24093">
        <ele>7.3</ele>
        <time>2020-06-08T15:02:38Z</time>
      </trkpt>
      <trkpt lat="48.32784" lon="-4.24092">
        <ele>7.2</ele>
        <time>2020-06-08T15:02:39Z</time>
      </trkpt>
      <trkpt lat="48.32784" lon="-4.24093">
        <ele>7.2</ele>
        <time>2020-06-08T15:02:40Z</time>
      </trkpt>
      <trkpt lat="48.32784" lon="-4.24094">
        <ele>7.2</ele>
        <time>2020-06-08T15:02:41Z</time>
      </trkpt>
      <trkpt lat="48.32784" lon="-4.24095">
        <ele>7.2</ele>
        <time>2020-06-08T15:02:42Z</time>
      </trkpt>
      <trkpt lat="48.32789" lon="-4.24107">
        <ele>6.8</ele>
        <time>2020-06-08T15:05:40Z</time>
      </trkpt>
      <trkpt lat="48.32791" lon="-4.24107">
        <ele>6.8</ele>
        <time>2020-06-08T15:05:41Z</time>
      </trkpt>
      <trkpt lat="48.32795" lon="-4.24109">
        <ele>6.7</ele>
        <time>2020-06-08T15:05:42Z</time>
      </trkpt>
      <trkpt lat="48.32796" lon="-4.2411">
        <ele>6.6</ele>
        <time>2020-06-08T15:05:43Z</time>
      </trkpt>
      <trkpt lat="48.32798" lon="-4.24113">
        <ele>6.5</ele>
        <time>2020-06-08T15:05:44Z</time>
      </trkpt>
      <trkpt lat="48.32801" lon="-4.24116">
        <ele>6.4</ele>
        <time>2020-06-08T15:05:45Z</time>
      </trkpt>
      <trkpt lat="48.32803" lon="-4.2412">
        <ele>6.3</ele>
        <time>2020-06-08T15:05:46Z</time>
      </trkpt>
      <trkpt lat="48.32806" lon="-4.24123">
        <ele>6.2</ele>
        <time>2020-06-08T15:05:47Z</time>
      </trkpt>
      <trkpt lat="48.32809" lon="-4.24127">
        <ele>6.1</ele>
        <time>2020-06-08T15:05:48Z</time>
      </trkpt>
      <trkpt lat="48.32812" lon="-4.24132">
        <ele>6</ele>
        <time>2020-06-08T15:05:49Z</time>
      </trkpt>
      <trkpt lat="48.32816" lon="-4.24137">
        <ele>5.9</ele>
        <time>2020-06-08T15:05:50Z</time>
      </trkpt>
      <trkpt lat="48.32819" lon="-4.24142">
        <ele>5.8</ele>
        <time>2020-06-08T15:05:51Z</time>
      </trkpt>
      <trkpt lat="48.32824" lon="-4.24146">
        <ele>5.7</ele>
        <time>2020-06-08T15:05:52Z</time>
      </trkpt>
      <trkpt lat="48.32828" lon="-4.2415">
        <ele>5.6</ele>
        <time>2020-06-08T15:05:53Z</time>
      </trkpt>
      <trkpt lat="48.32832" lon="-4.24155">
        <ele>5.5</ele>
        <time>2020-06-08T15:05:54Z</time>
      </trkpt>
      <trkpt lat="48.32836" lon="-4.2416">
        <ele>5.5</ele>
        <time>2020-06-08T15:05:55Z</time>
      </trkpt>
      <trkpt lat="48.32841" lon="-4.24162">
        <ele>5.4</ele>
        <time>2020-06-08T15:05:56Z</time>
      </trkpt>
      <trkpt lat="48.32845" lon="-4.24167">
        <ele>5.4</ele>
        <time>2020-06-08T15:05:57Z</time>
      </trkpt>
      <trkpt lat="48.32849" lon="-4.2417">
        <ele>5.4</ele>
        <time>2020-06-08T15:05:58Z</time>
      </trkpt>
      <trkpt lat="48.32853" lon="-4.24173">
        <ele>5.4</ele>
        <time>2020-06-08T15:05:59Z</time>
      </trkpt>
      <trkpt lat="48.32856" lon="-4.24177">
        <ele>5.4</ele>
        <time>2020-06-08T15:06:00Z</time>
      </trkpt>
      <trkpt lat="48.3286" lon="-4.2418">
        <ele>5.3</ele>
        <time>2020-06-08T15:06:01Z</time>
      </trkpt>
      <trkpt lat="48.32864" lon="-4.24185">
        <ele>5.3</ele>
        <time>2020-06-08T15:06:02Z</time>
      </trkpt>
      <trkpt lat="48.32867" lon="-4.24189">
        <ele>5.3</ele>
        <time>2020-06-08T15:06:03Z</time>
      </trkpt>
      <trkpt lat="48.32868" lon="-4.24191">
        <ele>5.3</ele>
        <time>2020-06-08T15:06:04Z</time>
      </trkpt>
      <trkpt lat="48.32869" lon="-4.24191">
        <ele>5.4</ele>
        <time>2020-06-08T15:06:05Z</time>
      </trkpt>
      <trkpt lat="48.32869" lon="-4.24192">
        <ele>5.4</ele>
        <time>2020-06-08T15:06:06Z</time>
      </trkpt>
      <trkpt lat="48.32868" lon="-4.24196">
        <ele>5.4</ele>
        <time>2020-06-08T15:06:07Z</time>
      </trkpt>
      <trkpt lat="48.32868" lon="-4.24199">
        <ele>5.4</ele>
        <time>2020-06-08T15:06:08Z</time>
      </trkpt>
      <trkpt lat="48.32869" lon="-4.24199">
        <ele>5.4</ele>
        <time>2020-06-08T15:06:09Z</time>
      </trkpt>
      <trkpt lat="48.32869" lon="-4.242">
        <ele>5.4</ele>
        <time>2020-06-08T15:06:10Z</time>
      </trkpt>
      <trkpt lat="48.32869" lon="-4.242">
        <ele>5.4</ele>
        <time>2020-06-08T15:06:11Z</time>
      </trkpt>
      <trkpt lat="48.32868" lon="-4.24199">
        <ele>5.4</ele>
        <time>2020-06-08T15:06:12Z</time>
      </trkpt>
      <trkpt lat="48.32868" lon="-4.24198">
        <ele>5.4</ele>
        <time>2020-06-08T15:06:13Z</time>
      </trkpt>
      <trkpt lat="48.32868" lon="-4.24198">
        <ele>5.4</ele>
        <time>2020-06-08T15:06:14Z</time>
      </trkpt>
      <trkpt lat="48.32869" lon="-4.24198">
        <ele>5.4</ele>
        <time>2020-06-08T15:06:15Z</time>
      </trkpt>
      <trkpt lat="48.32869" lon="-4.24197">
        <ele>5.4</ele>
        <time>2020-06-08T15:06:16Z</time>
      </trkpt>
      <trkpt lat="48.32868" lon="-4.24197">
        <ele>5.4</ele>
        <time>2020-06-08T15:06:17Z</time>
      </trkpt>
      <trkpt lat="48.32869" lon="-4.24196">
        <ele>5.4</ele>
        <time>2020-06-08T15:06:18Z</time>
      </trkpt>
      <trkpt lat="48.32868" lon="-4.24195">
        <ele>5.4</ele>
        <time>2020-06-08T15:06:19Z</time>
      </trkpt>
      <trkpt lat="48.32869" lon="-4.24196">
        <ele>5.4</ele>
        <time>2020-06-08T15:06:20Z</time>
      </trkpt>
      <trkpt lat="48.32873" lon="-4.24203">
        <ele>5.4</ele>
        <time>2020-06-08T15:16:17Z</time>
      </trkpt>
      <trkpt lat="48.32874" lon="-4.24205">
        <ele>5.4</ele>
        <time>2020-06-08T15:16:18Z</time>
      </trkpt>
      <trkpt lat="48.32876" lon="-4.24206">
        <ele>5.4</ele>
        <time>2020-06-08T15:16:19Z</time>
      </trkpt>
      <trkpt lat="48.32877" lon="-4.24208">
        <ele>5.4</ele>
        <time>2020-06-08T15:16:20Z</time>
      </trkpt>
      <trkpt lat="48.32879" lon="-4.24211">
        <ele>5.4</ele>
        <time>2020-06-08T15:16:21Z</time>
      </trkpt>
      <trkpt lat="48.3288" lon="-4.24212">
        <ele>5.4</ele>
        <time>2020-06-08T15:16:22Z</time>
      </trkpt>
      <trkpt lat="48.32883" lon="-4.24215">
        <ele>5.4</ele>
        <time>2020-06-08T15:16:23Z</time>
      </trkpt>
      <trkpt lat="48.32884" lon="-4.24216">
        <ele>5.4</ele>
        <time>2020-06-08T15:16:24Z</time>
      </trkpt>
      <trkpt lat="48.32887" lon="-4.24216">
        <ele>5.4</ele>
        <time>2020-06-08T15:16:25Z</time>
      </trkpt>
      <trkpt lat="48.32888" lon="-4.24216">
        <ele>5.4</ele>
        <time>2020-06-08T15:16:26Z</time>
      </trkpt>
      <trkpt lat="48.3289" lon="-4.24216">
        <ele>5.4</ele>
        <time>2020-06-08T15:16:27Z</time>
      </trkpt>
      <trkpt lat="48.32891" lon="-4.24217">
        <ele>5.4</ele>
        <time>2020-06-08T15:16:28Z</time>
      </trkpt>
      <trkpt lat="48.32894" lon="-4.24218">
        <ele>5.4</ele>
        <time>2020-06-08T15:16:29Z</time>
      </trkpt>
      <trkpt lat="48.32896" lon="-4.24222">
        <ele>5.4</ele>
        <time>2020-06-08T15:16:30Z</time>
      </trkpt>
      <trkpt lat="48.32896" lon="-4.24223">
        <ele>5.4</ele>
        <time>2020-06-08T15:16:31Z</time>
      </trkpt>
      <trkpt lat="48.32899" lon="-4.24229">
        <ele>5.4</ele>
        <time>2020-06-08T15:16:32Z</time>
      </trkpt>
      <trkpt lat="48.32899" lon="-4.24231">
        <ele>5.4</ele>
        <time>2020-06-08T15:16:33Z</time>
      </trkpt>
      <trkpt lat="48.329" lon="-4.24235">
        <ele>5.4</ele>
        <time>2020-06-08T15:16:34Z</time>
      </trkpt>
      <trkpt lat="48.32902" lon="-4.2424">
        <ele>5.4</ele>
        <time>2020-06-08T15:16:35Z</time>
      </trkpt>
      <trkpt lat="48.32903" lon="-4.24243">
        <ele>5.4</ele>
        <time>2020-06-08T15:16:36Z</time>
      </trkpt>
      <trkpt lat="48.32905" lon="-4.24245">
        <ele>5.4</ele>
        <time>2020-06-08T15:16:37Z</time>
      </trkpt>
      <trkpt lat="48.32908" lon="-4.24248">
        <ele>5.4</ele>
        <time>2020-06-08T15:16:38Z</time>
      </trkpt>
      <trkpt lat="48.3291" lon="-4.2425">
        <ele>5.4</ele>
        <time>2020-06-08T15:16:39Z</time>
      </trkpt>
      <trkpt lat="48.32912" lon="-4.24253">
        <ele>5.4</ele>
        <time>2020-06-08T15:16:40Z</time>
      </trkpt>
      <trkpt lat="48.32915" lon="-4.24256">
        <ele>5.4</ele>
        <time>2020-06-08T15:16:41Z</time>
      </trkpt>
      <trkpt lat="48.32917" lon="-4.2426">
        <ele>5.4</ele>
        <time>2020-06-08T15:16:42Z</time>
      </trkpt>
      <trkpt lat="48.32919" lon="-4.24263">
        <ele>5.4</ele>
        <time>2020-06-08T15:16:43Z</time>
      </trkpt>
      <trkpt lat="48.32922" lon="-4.24265">
        <ele>5.4</ele>
        <time>2020-06-08T15:16:44Z</time>
      </trkpt>
      <trkpt lat="48.32923" lon="-4.24267">
        <ele>5.4</ele>
        <time>2020-06-08T15:16:45Z</time>
      </trkpt>
      <trkpt lat="48.32925" lon="-4.2427">
        <ele>5.4</ele>
        <time>2020-06-08T15:16:46Z</time>
      </trkpt>
      <trkpt lat="48.32928" lon="-4.24274">
        <ele>5.5</ele>
        <time>2020-06-08T15:16:47Z</time>
      </trkpt>
      <trkpt lat="48.32931" lon="-4.24276">
        <ele>5.5</ele>
        <time>2020-06-08T15:16:48Z</time>
      </trkpt>
      <trkpt lat="48.32934" lon="-4.24279">
        <ele>5.5</ele>
        <time>2020-06-08T15:16:49Z</time>
      </trkpt>
      <trkpt lat="48.32936" lon="-4.24283">
        <ele>5.6</ele>
        <time>2020-06-08T15:16:50Z</time>
      </trkpt>
      <trkpt lat="48.32938" lon="-4.24286">
        <ele>5.6</ele>
        <time>2020-06-08T15:16:51Z</time>
      </trkpt>
      <trkpt lat="48.3294" lon="-4.24289">
        <ele>5.6</ele>
        <time>2020-06-08T15:16:52Z</time>
      </trkpt>
      <trkpt lat="48.32943" lon="-4.24292">
        <ele>5.7</ele>
        <time>2020-06-08T15:16:53Z</time>
      </trkpt>
      <trkpt lat="48.32945" lon="-4.24294">
        <ele>5.7</ele>
        <time>2020-06-08T15:16:54Z</time>
      </trkpt>
      <trkpt lat="48.32948" lon="-4.24297">
        <ele>5.8</ele>
        <time>2020-06-08T15:16:55Z</time>
      </trkpt>
      <trkpt lat="48.3295" lon="-4.24301">
        <ele>5.8</ele>
        <time>2020-06-08T15:16:56Z</time>
      </trkpt>
      <trkpt lat="48.32953" lon="-4.24303">
        <ele>5.8</ele>
        <time>2020-06-08T15:16:57Z</time>
      </trkpt>
      <trkpt lat="48.32955" lon="-4.24306">
        <ele>5.9</ele>
        <time>2020-06-08T15:16:58Z</time>
      </trkpt>
      <trkpt lat="48.32958" lon="-4.24309">
        <ele>5.9</ele>
        <time>2020-06-08T15:16:59Z</time>
      </trkpt>
      <trkpt lat="48.32961" lon="-4.24312">
        <ele>5.9</ele>
        <time>2020-06-08T15:17:00Z</time>
      </trkpt>
      <trkpt lat="48.32964" lon="-4.24314">
        <ele>6</ele>
        <time>2020-06-08T15:17:01Z</time>
      </trkpt>
      <trkpt lat="48.32967" lon="-4.24317">
        <ele>6</ele>
        <time>2020-06-08T15:17:02Z</time>
      </trkpt>
      <trkpt lat="48.3297" lon="-4.2432">
        <ele>6</ele>
        <time>2020-06-08T15:17:03Z</time>
      </trkpt>
      <trkpt lat="48.32971" lon="-4.24321">
        <ele>6.1</ele>
        <time>2020-06-08T15:17:04Z</time>
      </trkpt>
      <trkpt lat="48.32974" lon="-4.24325">
        <ele>6.2</ele>
        <time>2020-06-08T15:17:05Z</time>
      </trkpt>
      <trkpt lat="48.32974" lon="-4.24326">
        <ele>6.2</ele>
        <time>2020-06-08T15:17:06Z</time>
      </trkpt>
      <trkpt lat="48.32976" lon="-4.2433">
        <ele>6.3</ele>
        <time>2020-06-08T15:17:07Z</time>
      </trkpt>
      <trkpt lat="48.32977" lon="-4.24332">
        <ele>6.3</ele>
        <time>2020-06-08T15:17:08Z</time>
      </trkpt>
      <trkpt lat="48.32979" lon="-4.24336">
        <ele>6.4</ele>
        <time>2020-06-08T15:17:09Z</time>
      </trkpt>
      <trkpt lat="48.32981" lon="-4.24339">
        <ele>6.4</ele>
        <time>2020-06-08T15:17:10Z</time>
      </trkpt>
      <trkpt lat="48.32983" lon="-4.24343">
        <ele>6.5</ele>
        <time>2020-06-08T15:17:11Z</time>
      </trkpt>
      <trkpt lat="48.32985" lon="-4.24347">
        <ele>6.5</ele>
        <time>2020-06-08T15:17:12Z</time>
      </trkpt>
      <trkpt lat="48.32988" lon="-4.24349">
        <ele>6.5</ele>
        <time>2020-06-08T15:17:13Z</time>
      </trkpt>
      <trkpt lat="48.32991" lon="-4.24351">
        <ele>6.6</ele>
        <time>2020-06-08T15:17:14Z</time>
      </trkpt>
      <trkpt lat="48.32994" lon="-4.24354">
        <ele>6.6</ele>
        <time>2020-06-08T15:17:15Z</time>
      </trkpt>
      <trkpt lat="48.32996" lon="-4.24357">
        <ele>6.6</ele>
        <time>2020-06-08T15:17:16Z</time>
      </trkpt>
      <trkpt lat="48.32999" lon="-4.24361">
        <ele>6.7</ele>
        <time>2020-06-08T15:17:17Z</time>
      </trkpt>
      <trkpt lat="48.33001" lon="-4.24365">
        <ele>6.7</ele>
        <time>2020-06-08T15:17:18Z</time>
      </trkpt>
      <trkpt lat="48.33003" lon="-4.24368">
        <ele>6.8</ele>
        <time>2020-06-08T15:17:19Z</time>
      </trkpt>
      <trkpt lat="48.33005" lon="-4.24372">
        <ele>6.8</ele>
        <time>2020-06-08T15:17:20Z</time>
      </trkpt>
      <trkpt lat="48.33008" lon="-4.24374">
        <ele>6.8</ele>
        <time>2020-06-08T15:17:21Z</time>
      </trkpt>
      <trkpt lat="48.33011" lon="-4.24377">
        <ele>6.9</ele>
        <time>2020-06-08T15:17:22Z</time>
      </trkpt>
      <trkpt lat="48.33013" lon="-4.24379">
        <ele>6.9</ele>
        <time>2020-06-08T15:17:23Z</time>
      </trkpt>
      <trkpt lat="48.33016" lon="-4.24381">
        <ele>7</ele>
        <time>2020-06-08T15:17:24Z</time>
      </trkpt>
      <trkpt lat="48.33019" lon="-4.24383">
        <ele>7</ele>
        <time>2020-06-08T15:17:25Z</time>
      </trkpt>
      <trkpt lat="48.33021" lon="-4.24385">
        <ele>7.1</ele>
        <time>2020-06-08T15:17:26Z</time>
      </trkpt>
      <trkpt lat="48.33023" lon="-4.24389">
        <ele>7.1</ele>
        <time>2020-06-08T15:17:27Z</time>
      </trkpt>
      <trkpt lat="48.33026" lon="-4.24391">
        <ele>7.1</ele>
        <time>2020-06-08T15:17:28Z</time>
      </trkpt>
      <trkpt lat="48.33028" lon="-4.24393">
        <ele>7.2</ele>
        <time>2020-06-08T15:17:29Z</time>
      </trkpt>
      <trkpt lat="48.33031" lon="-4.24396">
        <ele>7.2</ele>
        <time>2020-06-08T15:17:30Z</time>
      </trkpt>
      <trkpt lat="48.33033" lon="-4.24399">
        <ele>7.3</ele>
        <time>2020-06-08T15:17:31Z</time>
      </trkpt>
      <trkpt lat="48.33036" lon="-4.24403">
        <ele>7.3</ele>
        <time>2020-06-08T15:17:32Z</time>
      </trkpt>
      <trkpt lat="48.33037" lon="-4.24404">
        <ele>7.4</ele>
        <time>2020-06-08T15:17:33Z</time>
      </trkpt>
      <trkpt lat="48.3304" lon="-4.24407">
        <ele>7.4</ele>
        <time>2020-06-08T15:17:34Z</time>
      </trkpt>
      <trkpt lat="48.33043" lon="-4.2441">
        <ele>7.5</ele>
        <time>2020-06-08T15:17:35Z</time>
      </trkpt>
      <trkpt lat="48.33044" lon="-4.24414">
        <ele>7.6</ele>
        <time>2020-06-08T15:17:36Z</time>
      </trkpt>
      <trkpt lat="48.33046" lon="-4.24417">
        <ele>7.7</ele>
        <time>2020-06-08T15:17:37Z</time>
      </trkpt>
      <trkpt lat="48.33048" lon="-4.2442">
        <ele>7.8</ele>
        <time>2020-06-08T15:17:38Z</time>
      </trkpt>
      <trkpt lat="48.33051" lon="-4.24424">
        <ele>7.9</ele>
        <time>2020-06-08T15:17:39Z</time>
      </trkpt>
      <trkpt lat="48.33054" lon="-4.24426">
        <ele>8</ele>
        <time>2020-06-08T15:17:40Z</time>
      </trkpt>
      <trkpt lat="48.33055" lon="-4.24431">
        <ele>8.1</ele>
        <time>2020-06-08T15:17:41Z</time>
      </trkpt>
      <trkpt lat="48.33058" lon="-4.24435">
        <ele>8.2</ele>
        <time>2020-06-08T15:17:42Z</time>
      </trkpt>
      <trkpt lat="48.33058" lon="-4.24439">
        <ele>8.3</ele>
        <time>2020-06-08T15:17:43Z</time>
      </trkpt>
      <trkpt lat="48.3306" lon="-4.24442">
        <ele>8.3</ele>
        <time>2020-06-08T15:17:44Z</time>
      </trkpt>
      <trkpt lat="48.3306" lon="-4.24447">
        <ele>8.4</ele>
        <time>2020-06-08T15:17:45Z</time>
      </trkpt>
      <trkpt lat="48.33062" lon="-4.24451">
        <ele>8.5</ele>
        <time>2020-06-08T15:17:46Z</time>
      </trkpt>
      <trkpt lat="48.33064" lon="-4.24455">
        <ele>8.6</ele>
        <time>2020-06-08T15:17:47Z</time>
      </trkpt>
      <trkpt lat="48.33066" lon="-4.24459">
        <ele>8.7</ele>
        <time>2020-06-08T15:17:48Z</time>
      </trkpt>
      <trkpt lat="48.33067" lon="-4.24463">
        <ele>8.8</ele>
        <time>2020-06-08T15:17:49Z</time>
      </trkpt>
      <trkpt lat="48.33069" lon="-4.24467">
        <ele>8.9</ele>
        <time>2020-06-08T15:17:50Z</time>
      </trkpt>
      <trkpt lat="48.3307" lon="-4.24471">
        <ele>8.9</ele>
        <time>2020-06-08T15:17:51Z</time>
      </trkpt>
      <trkpt lat="48.33072" lon="-4.24475">
        <ele>9</ele>
        <time>2020-06-08T15:17:52Z</time>
      </trkpt>
      <trkpt lat="48.33073" lon="-4.2448">
        <ele>9.1</ele>
        <time>2020-06-08T15:17:53Z</time>
      </trkpt>
      <trkpt lat="48.33075" lon="-4.24484">
        <ele>9.1</ele>
        <time>2020-06-08T15:17:54Z</time>
      </trkpt>
      <trkpt lat="48.33076" lon="-4.24489">
        <ele>9.1</ele>
        <time>2020-06-08T15:17:55Z</time>
      </trkpt>
      <trkpt lat="48.33078" lon="-4.24493">
        <ele>9.2</ele>
        <time>2020-06-08T15:17:56Z</time>
      </trkpt>
      <trkpt lat="48.33079" lon="-4.24497">
        <ele>9.2</ele>
        <time>2020-06-08T15:17:57Z</time>
      </trkpt>
      <trkpt lat="48.33081" lon="-4.24501">
        <ele>9.3</ele>
        <time>2020-06-08T15:17:58Z</time>
      </trkpt>
      <trkpt lat="48.33082" lon="-4.24506">
        <ele>9.3</ele>
        <time>2020-06-08T15:17:59Z</time>
      </trkpt>
      <trkpt lat="48.33082" lon="-4.24512">
        <ele>9.4</ele>
        <time>2020-06-08T15:18:00Z</time>
      </trkpt>
      <trkpt lat="48.33083" lon="-4.24517">
        <ele>9.5</ele>
        <time>2020-06-08T15:18:01Z</time>
      </trkpt>
      <trkpt lat="48.33084" lon="-4.24522">
        <ele>9.6</ele>
        <time>2020-06-08T15:18:02Z</time>
      </trkpt>
      <trkpt lat="48.33085" lon="-4.24527">
        <ele>9.7</ele>
        <time>2020-06-08T15:18:03Z</time>
      </trkpt>
      <trkpt lat="48.33087" lon="-4.24532">
        <ele>9.7</ele>
        <time>2020-06-08T15:18:04Z</time>
      </trkpt>
      <trkpt lat="48.33088" lon="-4.24536">
        <ele>9.8</ele>
        <time>2020-06-08T15:18:05Z</time>
      </trkpt>
      <trkpt lat="48.33089" lon="-4.24541">
        <ele>9.9</ele>
        <time>2020-06-08T15:18:06Z</time>
      </trkpt>
      <trkpt lat="48.33091" lon="-4.24545">
        <ele>10</ele>
        <time>2020-06-08T15:18:07Z</time>
      </trkpt>
      <trkpt lat="48.33093" lon="-4.24549">
        <ele>10.1</ele>
        <time>2020-06-08T15:18:08Z</time>
      </trkpt>
      <trkpt lat="48.33095" lon="-4.24554">
        <ele>10.2</ele>
        <time>2020-06-08T15:18:09Z</time>
      </trkpt>
      <trkpt lat="48.33096" lon="-4.24558">
        <ele>10.3</ele>
        <time>2020-06-08T15:18:10Z</time>
      </trkpt>
      <trkpt lat="48.33097" lon="-4.24562">
        <ele>10.4</ele>
        <time>2020-06-08T15:18:11Z</time>
      </trkpt>
      <trkpt lat="48.33099" lon="-4.24567">
        <ele>10.5</ele>
        <time>2020-06-08T15:18:12Z</time>
      </trkpt>
      <trkpt lat="48.33099" lon="-4.2457">
        <ele>10.5</ele>
        <time>2020-06-08T15:18:13Z</time>
      </trkpt>
      <trkpt lat="48.33101" lon="-4.24574">
        <ele>10.6</ele>
        <time>2020-06-08T15:18:14Z</time>
      </trkpt>
      <trkpt lat="48.33103" lon="-4.24578">
        <ele>10.7</ele>
        <time>2020-06-08T15:18:15Z</time>
      </trkpt>
      <trkpt lat="48.33104" lon="-4.24582">
        <ele>10.8</ele>
        <time>2020-06-08T15:18:16Z</time>
      </trkpt>
      <trkpt lat="48.33105" lon="-4.24586">
        <ele>10.9</ele>
        <time>2020-06-08T15:18:17Z</time>
      </trkpt>
      <trkpt lat="48.33107" lon="-4.24592">
        <ele>11</ele>
        <time>2020-06-08T15:18:18Z</time>
      </trkpt>
      <trkpt lat="48.33108" lon="-4.24597">
        <ele>11.2</ele>
        <time>2020-06-08T15:18:19Z</time>
      </trkpt>
      <trkpt lat="48.33108" lon="-4.24603">
        <ele>11.4</ele>
        <time>2020-06-08T15:18:20Z</time>
      </trkpt>
      <trkpt lat="48.33108" lon="-4.24609">
        <ele>11.5</ele>
        <time>2020-06-08T15:18:21Z</time>
      </trkpt>
      <trkpt lat="48.33108" lon="-4.24613">
        <ele>11.7</ele>
        <time>2020-06-08T15:18:22Z</time>
      </trkpt>
      <trkpt lat="48.33108" lon="-4.24618">
        <ele>11.8</ele>
        <time>2020-06-08T15:18:23Z</time>
      </trkpt>
      <trkpt lat="48.33109" lon="-4.24624">
        <ele>12</ele>
        <time>2020-06-08T15:18:24Z</time>
      </trkpt>
      <trkpt lat="48.3311" lon="-4.24626">
        <ele>12.1</ele>
        <time>2020-06-08T15:18:25Z</time>
      </trkpt>
      <trkpt lat="48.33112" lon="-4.24631">
        <ele>12.2</ele>
        <time>2020-06-08T15:18:26Z</time>
      </trkpt>
      <trkpt lat="48.33113" lon="-4.24632">
        <ele>12.3</ele>
        <time>2020-06-08T15:18:27Z</time>
      </trkpt>
      <trkpt lat="48.33115" lon="-4.24637">
        <ele>12.5</ele>
        <time>2020-06-08T15:18:28Z</time>
      </trkpt>
      <trkpt lat="48.33116" lon="-4.24639">
        <ele>12.6</ele>
        <time>2020-06-08T15:18:29Z</time>
      </trkpt>
      <trkpt lat="48.33117" lon="-4.24643">
        <ele>12.7</ele>
        <time>2020-06-08T15:18:30Z</time>
      </trkpt>
      <trkpt lat="48.33118" lon="-4.24649">
        <ele>12.9</ele>
        <time>2020-06-08T15:18:31Z</time>
      </trkpt>
      <trkpt lat="48.33119" lon="-4.24652">
        <ele>13</ele>
        <time>2020-06-08T15:18:32Z</time>
      </trkpt>
      <trkpt lat="48.33119" lon="-4.24656">
        <ele>13.1</ele>
        <time>2020-06-08T15:18:33Z</time>
      </trkpt>
      <trkpt lat="48.33119" lon="-4.24662">
        <ele>13.3</ele>
        <time>2020-06-08T15:18:34Z</time>
      </trkpt>
      <trkpt lat="48.33121" lon="-4.24668">
        <ele>13.5</ele>
        <time>2020-06-08T15:18:35Z</time>
      </trkpt>
      <trkpt lat="48.33123" lon="-4.24673">
        <ele>13.6</ele>
        <time>2020-06-08T15:18:36Z</time>
      </trkpt>
      <trkpt lat="48.33124" lon="-4.24678">
        <ele>13.8</ele>
        <time>2020-06-08T15:18:37Z</time>
      </trkpt>
      <trkpt lat="48.33125" lon="-4.24682">
        <ele>13.9</ele>
        <time>2020-06-08T15:18:38Z</time>
      </trkpt>
      <trkpt lat="48.33125" lon="-4.24687">
        <ele>14</ele>
        <time>2020-06-08T15:18:39Z</time>
      </trkpt>
      <trkpt lat="48.33127" lon="-4.24692">
        <ele>14.2</ele>
        <time>2020-06-08T15:18:40Z</time>
      </trkpt>
      <trkpt lat="48.33128" lon="-4.24693">
        <ele>14.2</ele>
        <time>2020-06-08T15:18:41Z</time>
      </trkpt>
      <trkpt lat="48.33129" lon="-4.24697">
        <ele>14.4</ele>
        <time>2020-06-08T15:18:42Z</time>
      </trkpt>
      <trkpt lat="48.33132" lon="-4.24702">
        <ele>14.5</ele>
        <time>2020-06-08T15:18:43Z</time>
      </trkpt>
      <trkpt lat="48.33134" lon="-4.24704">
        <ele>14.6</ele>
        <time>2020-06-08T15:18:44Z</time>
      </trkpt>
      <trkpt lat="48.33135" lon="-4.24707">
        <ele>14.7</ele>
        <time>2020-06-08T15:18:45Z</time>
      </trkpt>
      <trkpt lat="48.33137" lon="-4.24711">
        <ele>14.9</ele>
        <time>2020-06-08T15:18:46Z</time>
      </trkpt>
      <trkpt lat="48.33139" lon="-4.24715">
        <ele>15</ele>
        <time>2020-06-08T15:18:47Z</time>
      </trkpt>
      <trkpt lat="48.3314" lon="-4.2472">
        <ele>15.2</ele>
        <time>2020-06-08T15:18:48Z</time>
      </trkpt>
      <trkpt lat="48.33142" lon="-4.24725">
        <ele>15.3</ele>
        <time>2020-06-08T15:18:49Z</time>
      </trkpt>
      <trkpt lat="48.33143" lon="-4.2473">
        <ele>15.5</ele>
        <time>2020-06-08T15:18:50Z</time>
      </trkpt>
      <trkpt lat="48.33144" lon="-4.24734">
        <ele>15.6</ele>
        <time>2020-06-08T15:18:51Z</time>
      </trkpt>
      <trkpt lat="48.33145" lon="-4.24739">
        <ele>15.8</ele>
        <time>2020-06-08T15:18:52Z</time>
      </trkpt>
      <trkpt lat="48.33146" lon="-4.24743">
        <ele>15.9</ele>
        <time>2020-06-08T15:18:53Z</time>
      </trkpt>
      <trkpt lat="48.33147" lon="-4.24748">
        <ele>16.1</ele>
        <time>2020-06-08T15:18:54Z</time>
      </trkpt>
      <trkpt lat="48.33147" lon="-4.24754">
        <ele>16.2</ele>
        <time>2020-06-08T15:18:55Z</time>
      </trkpt>
      <trkpt lat="48.33149" lon="-4.24758">
        <ele>16.4</ele>
        <time>2020-06-08T15:18:56Z</time>
      </trkpt>
      <trkpt lat="48.3315" lon="-4.24762">
        <ele>16.5</ele>
        <time>2020-06-08T15:18:57Z</time>
      </trkpt>
      <trkpt lat="48.33151" lon="-4.24768">
        <ele>16.7</ele>
        <time>2020-06-08T15:18:58Z</time>
      </trkpt>
      <trkpt lat="48.33151" lon="-4.2477">
        <ele>16.7</ele>
        <time>2020-06-08T15:18:59Z</time>
      </trkpt>
      <trkpt lat="48.33153" lon="-4.24774">
        <ele>16.9</ele>
        <time>2020-06-08T15:19:00Z</time>
      </trkpt>
      <trkpt lat="48.33154" lon="-4.24779">
        <ele>17</ele>
        <time>2020-06-08T15:19:01Z</time>
      </trkpt>
      <trkpt lat="48.33155" lon="-4.24783">
        <ele>17.1</ele>
        <time>2020-06-08T15:19:02Z</time>
      </trkpt>
      <trkpt lat="48.33156" lon="-4.24787">
        <ele>17.3</ele>
        <time>2020-06-08T15:19:03Z</time>
      </trkpt>
      <trkpt lat="48.33157" lon="-4.24791">
        <ele>17.4</ele>
        <time>2020-06-08T15:19:04Z</time>
      </trkpt>
      <trkpt lat="48.33159" lon="-4.24795">
        <ele>17.5</ele>
        <time>2020-06-08T15:19:05Z</time>
      </trkpt>
      <trkpt lat="48.3316" lon="-4.24799">
        <ele>17.7</ele>
        <time>2020-06-08T15:19:06Z</time>
      </trkpt>
      <trkpt lat="48.33162" lon="-4.24805">
        <ele>17.9</ele>
        <time>2020-06-08T15:19:07Z</time>
      </trkpt>
      <trkpt lat="48.33162" lon="-4.24807">
        <ele>18</ele>
        <time>2020-06-08T15:19:08Z</time>
      </trkpt>
      <trkpt lat="48.33163" lon="-4.24812">
        <ele>18.1</ele>
        <time>2020-06-08T15:19:09Z</time>
      </trkpt>
      <trkpt lat="48.33164" lon="-4.24816">
        <ele>18.2</ele>
        <time>2020-06-08T15:19:10Z</time>
      </trkpt>
      <trkpt lat="48.33166" lon="-4.24821">
        <ele>18.4</ele>
        <time>2020-06-08T15:19:11Z</time>
      </trkpt>
      <trkpt lat="48.33166" lon="-4.24822">
        <ele>18.5</ele>
        <time>2020-06-08T15:19:12Z</time>
      </trkpt>
      <trkpt lat="48.33167" lon="-4.24828">
        <ele>18.7</ele>
        <time>2020-06-08T15:19:13Z</time>
      </trkpt>
      <trkpt lat="48.33168" lon="-4.2483">
        <ele>18.7</ele>
        <time>2020-06-08T15:19:14Z</time>
      </trkpt>
      <trkpt lat="48.33169" lon="-4.24834">
        <ele>18.9</ele>
        <time>2020-06-08T15:19:15Z</time>
      </trkpt>
      <trkpt lat="48.3317" lon="-4.24838">
        <ele>19</ele>
        <time>2020-06-08T15:19:16Z</time>
      </trkpt>
      <trkpt lat="48.33172" lon="-4.24843">
        <ele>19.2</ele>
        <time>2020-06-08T15:19:17Z</time>
      </trkpt>
      <trkpt lat="48.33173" lon="-4.24845">
        <ele>19.2</ele>
        <time>2020-06-08T15:19:18Z</time>
      </trkpt>
      <trkpt lat="48.33173" lon="-4.24849">
        <ele>19.4</ele>
        <time>2020-06-08T15:19:19Z</time>
      </trkpt>
      <trkpt lat="48.33174" lon="-4.24855">
        <ele>19.6</ele>
        <time>2020-06-08T15:19:20Z</time>
      </trkpt>
      <trkpt lat="48.33174" lon="-4.24857">
        <ele>19.6</ele>
        <time>2020-06-08T15:19:21Z</time>
      </trkpt>
      <trkpt lat="48.33176" lon="-4.24861">
        <ele>19.8</ele>
        <time>2020-06-08T15:19:22Z</time>
      </trkpt>
      <trkpt lat="48.33176" lon="-4.24865">
        <ele>19.9</ele>
        <time>2020-06-08T15:19:23Z</time>
      </trkpt>
      <trkpt lat="48.33178" lon="-4.24871">
        <ele>20.1</ele>
        <time>2020-06-08T15:19:24Z</time>
      </trkpt>
      <trkpt lat="48.33178" lon="-4.24873">
        <ele>20.2</ele>
        <time>2020-06-08T15:19:25Z</time>
      </trkpt>
      <trkpt lat="48.33179" lon="-4.24877">
        <ele>20.3</ele>
        <time>2020-06-08T15:19:26Z</time>
      </trkpt>
      <trkpt lat="48.3318" lon="-4.24881">
        <ele>20.4</ele>
        <time>2020-06-08T15:19:27Z</time>
      </trkpt>
      <trkpt lat="48.33182" lon="-4.24886">
        <ele>20.6</ele>
        <time>2020-06-08T15:19:28Z</time>
      </trkpt>
      <trkpt lat="48.33183" lon="-4.24888">
        <ele>20.7</ele>
        <time>2020-06-08T15:19:29Z</time>
      </trkpt>
      <trkpt lat="48.33184" lon="-4.24892">
        <ele>20.8</ele>
        <time>2020-06-08T15:19:30Z</time>
      </trkpt>
      <trkpt lat="48.33186" lon="-4.24896">
        <ele>21</ele>
        <time>2020-06-08T15:19:31Z</time>
      </trkpt>
      <trkpt lat="48.33187" lon="-4.24901">
        <ele>21.2</ele>
        <time>2020-06-08T15:19:32Z</time>
      </trkpt>
      <trkpt lat="48.33188" lon="-4.24903">
        <ele>21.2</ele>
        <time>2020-06-08T15:19:33Z</time>
      </trkpt>
      <trkpt lat="48.3319" lon="-4.24906">
        <ele>21.4</ele>
        <time>2020-06-08T15:19:34Z</time>
      </trkpt>
      <trkpt lat="48.33191" lon="-4.2491">
        <ele>21.5</ele>
        <time>2020-06-08T15:19:35Z</time>
      </trkpt>
      <trkpt lat="48.33194" lon="-4.24915">
        <ele>21.7</ele>
        <time>2020-06-08T15:19:36Z</time>
      </trkpt>
      <trkpt lat="48.33194" lon="-4.24917">
        <ele>21.8</ele>
        <time>2020-06-08T15:19:37Z</time>
      </trkpt>
      <trkpt lat="48.33196" lon="-4.24922">
        <ele>22</ele>
        <time>2020-06-08T15:19:38Z</time>
      </trkpt>
      <trkpt lat="48.33196" lon="-4.24925">
        <ele>22.2</ele>
        <time>2020-06-08T15:19:39Z</time>
      </trkpt>
      <trkpt lat="48.33198" lon="-4.2493">
        <ele>22.3</ele>
        <time>2020-06-08T15:19:40Z</time>
      </trkpt>
      <trkpt lat="48.33198" lon="-4.24933">
        <ele>22.3</ele>
        <time>2020-06-08T15:19:41Z</time>
      </trkpt>
      <trkpt lat="48.33199" lon="-4.24938">
        <ele>22.5</ele>
        <time>2020-06-08T15:19:42Z</time>
      </trkpt>
      <trkpt lat="48.332" lon="-4.2494">
        <ele>22.5</ele>
        <time>2020-06-08T15:19:43Z</time>
      </trkpt>
      <trkpt lat="48.33201" lon="-4.24944">
        <ele>22.6</ele>
        <time>2020-06-08T15:19:44Z</time>
      </trkpt>
      <trkpt lat="48.33202" lon="-4.24948">
        <ele>22.7</ele>
        <time>2020-06-08T15:19:45Z</time>
      </trkpt>
      <trkpt lat="48.33203" lon="-4.24953">
        <ele>22.9</ele>
        <time>2020-06-08T15:19:46Z</time>
      </trkpt>
      <trkpt lat="48.33203" lon="-4.24956">
        <ele>23</ele>
        <time>2020-06-08T15:19:47Z</time>
      </trkpt>
      <trkpt lat="48.33204" lon="-4.24961">
        <ele>23.1</ele>
        <time>2020-06-08T15:19:48Z</time>
      </trkpt>
      <trkpt lat="48.33204" lon="-4.24963">
        <ele>23.2</ele>
        <time>2020-06-08T15:19:49Z</time>
      </trkpt>
      <trkpt lat="48.33206" lon="-4.24969">
        <ele>23.4</ele>
        <time>2020-06-08T15:19:50Z</time>
      </trkpt>
      <trkpt lat="48.33206" lon="-4.2497">
        <ele>23.5</ele>
        <time>2020-06-08T15:19:51Z</time>
      </trkpt>
      <trkpt lat="48.33209" lon="-4.24975">
        <ele>23.6</ele>
        <time>2020-06-08T15:19:52Z</time>
      </trkpt>
      <trkpt lat="48.3321" lon="-4.24976">
        <ele>23.7</ele>
        <time>2020-06-08T15:19:53Z</time>
      </trkpt>
      <trkpt lat="48.33211" lon="-4.2498">
        <ele>23.8</ele>
        <time>2020-06-08T15:19:54Z</time>
      </trkpt>
      <trkpt lat="48.33212" lon="-4.24986">
        <ele>24</ele>
        <time>2020-06-08T15:19:55Z</time>
      </trkpt>
      <trkpt lat="48.33212" lon="-4.24988">
        <ele>24.1</ele>
        <time>2020-06-08T15:19:56Z</time>
      </trkpt>
      <trkpt lat="48.33214" lon="-4.24994">
        <ele>24.2</ele>
        <time>2020-06-08T15:19:57Z</time>
      </trkpt>
      <trkpt lat="48.33215" lon="-4.24996">
        <ele>24.3</ele>
        <time>2020-06-08T15:19:58Z</time>
      </trkpt>
      <trkpt lat="48.33216" lon="-4.25">
        <ele>24.4</ele>
        <time>2020-06-08T15:19:59Z</time>
      </trkpt>
      <trkpt lat="48.33217" lon="-4.25004">
        <ele>24.6</ele>
        <time>2020-06-08T15:20:00Z</time>
      </trkpt>
      <trkpt lat="48.33218" lon="-4.25008">
        <ele>24.7</ele>
        <time>2020-06-08T15:20:01Z</time>
      </trkpt>
      <trkpt lat="48.33219" lon="-4.25012">
        <ele>24.8</ele>
        <time>2020-06-08T15:20:02Z</time>
      </trkpt>
      <trkpt lat="48.3322" lon="-4.25016">
        <ele>24.9</ele>
        <time>2020-06-08T15:20:03Z</time>
      </trkpt>
      <trkpt lat="48.33221" lon="-4.25022">
        <ele>25.1</ele>
        <time>2020-06-08T15:20:04Z</time>
      </trkpt>
      <trkpt lat="48.33222" lon="-4.25024">
        <ele>25.1</ele>
        <time>2020-06-08T15:20:05Z</time>
      </trkpt>
      <trkpt lat="48.33222" lon="-4.25029">
        <ele>25.2</ele>
        <time>2020-06-08T15:20:06Z</time>
      </trkpt>
      <trkpt lat="48.33223" lon="-4.25031">
        <ele>25.3</ele>
        <time>2020-06-08T15:20:07Z</time>
      </trkpt>
      <trkpt lat="48.33223" lon="-4.25037">
        <ele>25.4</ele>
        <time>2020-06-08T15:20:08Z</time>
      </trkpt>
      <trkpt lat="48.33225" lon="-4.2504">
        <ele>25.5</ele>
        <time>2020-06-08T15:20:09Z</time>
      </trkpt>
      <trkpt lat="48.33226" lon="-4.25042">
        <ele>25.6</ele>
        <time>2020-06-08T15:20:10Z</time>
      </trkpt>
      <trkpt lat="48.33227" lon="-4.25046">
        <ele>25.7</ele>
        <time>2020-06-08T15:20:11Z</time>
      </trkpt>
      <trkpt lat="48.33228" lon="-4.25051">
        <ele>25.8</ele>
        <time>2020-06-08T15:20:12Z</time>
      </trkpt>
      <trkpt lat="48.33229" lon="-4.25053">
        <ele>25.8</ele>
        <time>2020-06-08T15:20:13Z</time>
      </trkpt>
      <trkpt lat="48.3323" lon="-4.25059">
        <ele>26</ele>
        <time>2020-06-08T15:20:14Z</time>
      </trkpt>
      <trkpt lat="48.33231" lon="-4.25061">
        <ele>26</ele>
        <time>2020-06-08T15:20:15Z</time>
      </trkpt>
      <trkpt lat="48.33232" lon="-4.25067">
        <ele>26.1</ele>
        <time>2020-06-08T15:20:16Z</time>
      </trkpt>
      <trkpt lat="48.33233" lon="-4.25069">
        <ele>26.2</ele>
        <time>2020-06-08T15:20:17Z</time>
      </trkpt>
      <trkpt lat="48.33234" lon="-4.25074">
        <ele>26.3</ele>
        <time>2020-06-08T15:20:18Z</time>
      </trkpt>
      <trkpt lat="48.33235" lon="-4.25079">
        <ele>26.4</ele>
        <time>2020-06-08T15:20:19Z</time>
      </trkpt>
      <trkpt lat="48.33237" lon="-4.25083">
        <ele>26.5</ele>
        <time>2020-06-08T15:20:20Z</time>
      </trkpt>
      <trkpt lat="48.33238" lon="-4.25085">
        <ele>26.6</ele>
        <time>2020-06-08T15:20:21Z</time>
      </trkpt>
      <trkpt lat="48.33239" lon="-4.25089">
        <ele>26.7</ele>
        <time>2020-06-08T15:20:22Z</time>
      </trkpt>
      <trkpt lat="48.33241" lon="-4.25093">
        <ele>26.7</ele>
        <time>2020-06-08T15:20:23Z</time>
      </trkpt>
      <trkpt lat="48.33242" lon="-4.25098">
        <ele>26.8</ele>
        <time>2020-06-08T15:20:24Z</time>
      </trkpt>
      <trkpt lat="48.33243" lon="-4.25103">
        <ele>26.9</ele>
        <time>2020-06-08T15:20:25Z</time>
      </trkpt>
      <trkpt lat="48.33244" lon="-4.25107">
        <ele>27</ele>
        <time>2020-06-08T15:20:26Z</time>
      </trkpt>
      <trkpt lat="48.33246" lon="-4.25111">
        <ele>27.1</ele>
        <time>2020-06-08T15:20:27Z</time>
      </trkpt>
      <trkpt lat="48.33248" lon="-4.25114">
        <ele>27.1</ele>
        <time>2020-06-08T15:20:28Z</time>
      </trkpt>
      <trkpt lat="48.33248" lon="-4.25119">
        <ele>27.3</ele>
        <time>2020-06-08T15:20:29Z</time>
      </trkpt>
      <trkpt lat="48.33251" lon="-4.25124">
        <ele>27.4</ele>
        <time>2020-06-08T15:20:30Z</time>
      </trkpt>
      <trkpt lat="48.33251" lon="-4.25126">
        <ele>27.4</ele>
        <time>2020-06-08T15:20:31Z</time>
      </trkpt>
      <trkpt lat="48.33252" lon="-4.2513">
        <ele>27.4</ele>
        <time>2020-06-08T15:20:32Z</time>
      </trkpt>
      <trkpt lat="48.33254" lon="-4.25134">
        <ele>27.5</ele>
        <time>2020-06-08T15:20:33Z</time>
      </trkpt>
      <trkpt lat="48.33256" lon="-4.25138">
        <ele>27.6</ele>
        <time>2020-06-08T15:20:34Z</time>
      </trkpt>
      <trkpt lat="48.33257" lon="-4.25143">
        <ele>27.7</ele>
        <time>2020-06-08T15:20:35Z</time>
      </trkpt>
      <trkpt lat="48.33258" lon="-4.25148">
        <ele>27.7</ele>
        <time>2020-06-08T15:20:36Z</time>
      </trkpt>
      <trkpt lat="48.33257" lon="-4.25153">
        <ele>27.8</ele>
        <time>2020-06-08T15:20:37Z</time>
      </trkpt>
      <trkpt lat="48.33259" lon="-4.25157">
        <ele>27.9</ele>
        <time>2020-06-08T15:20:38Z</time>
      </trkpt>
      <trkpt lat="48.3326" lon="-4.25162">
        <ele>27.9</ele>
        <time>2020-06-08T15:20:39Z</time>
      </trkpt>
      <trkpt lat="48.33261" lon="-4.25166">
        <ele>28</ele>
        <time>2020-06-08T15:20:40Z</time>
      </trkpt>
      <trkpt lat="48.33262" lon="-4.2517">
        <ele>28.1</ele>
        <time>2020-06-08T15:20:41Z</time>
      </trkpt>
      <trkpt lat="48.33263" lon="-4.25174">
        <ele>28.2</ele>
        <time>2020-06-08T15:20:42Z</time>
      </trkpt>
      <trkpt lat="48.33265" lon="-4.25178">
        <ele>28.3</ele>
        <time>2020-06-08T15:20:43Z</time>
      </trkpt>
      <trkpt lat="48.33266" lon="-4.25182">
        <ele>28.4</ele>
        <time>2020-06-08T15:20:44Z</time>
      </trkpt>
      <trkpt lat="48.33267" lon="-4.25186">
        <ele>28.5</ele>
        <time>2020-06-08T15:20:45Z</time>
      </trkpt>
      <trkpt lat="48.33268" lon="-4.25191">
        <ele>28.6</ele>
        <time>2020-06-08T15:20:46Z</time>
      </trkpt>
      <trkpt lat="48.33268" lon="-4.25197">
        <ele>28.7</ele>
        <time>2020-06-08T15:20:47Z</time>
      </trkpt>
      <trkpt lat="48.33269" lon="-4.25201">
        <ele>28.8</ele>
        <time>2020-06-08T15:20:48Z</time>
      </trkpt>
      <trkpt lat="48.3327" lon="-4.25207">
        <ele>29</ele>
        <time>2020-06-08T15:20:49Z</time>
      </trkpt>
      <trkpt lat="48.33271" lon="-4.25211">
        <ele>29.1</ele>
        <time>2020-06-08T15:20:50Z</time>
      </trkpt>
      <trkpt lat="48.33272" lon="-4.25216">
        <ele>29.2</ele>
        <time>2020-06-08T15:20:51Z</time>
      </trkpt>
      <trkpt lat="48.33273" lon="-4.2522">
        <ele>29.3</ele>
        <time>2020-06-08T15:20:52Z</time>
      </trkpt>
      <trkpt lat="48.33275" lon="-4.25224">
        <ele>29.4</ele>
        <time>2020-06-08T15:20:54Z</time>
      </trkpt>
      <trkpt lat="48.33277" lon="-4.25229">
        <ele>29.6</ele>
        <time>2020-06-08T15:20:55Z</time>
      </trkpt>
      <trkpt lat="48.33279" lon="-4.25233">
        <ele>29.7</ele>
        <time>2020-06-08T15:20:56Z</time>
      </trkpt>
      <trkpt lat="48.3328" lon="-4.25238">
        <ele>29.9</ele>
        <time>2020-06-08T15:20:57Z</time>
      </trkpt>
      <trkpt lat="48.33281" lon="-4.25243">
        <ele>30</ele>
        <time>2020-06-08T15:20:58Z</time>
      </trkpt>
      <trkpt lat="48.33283" lon="-4.25247">
        <ele>30.1</ele>
        <time>2020-06-08T15:20:59Z</time>
      </trkpt>
      <trkpt lat="48.33284" lon="-4.25252">
        <ele>30.3</ele>
        <time>2020-06-08T15:21:00Z</time>
      </trkpt>
      <trkpt lat="48.33286" lon="-4.25257">
        <ele>30.4</ele>
        <time>2020-06-08T15:21:01Z</time>
      </trkpt>
      <trkpt lat="48.33287" lon="-4.25261">
        <ele>30.6</ele>
        <time>2020-06-08T15:21:02Z</time>
      </trkpt>
      <trkpt lat="48.33288" lon="-4.25266">
        <ele>30.7</ele>
        <time>2020-06-08T15:21:03Z</time>
      </trkpt>
      <trkpt lat="48.3329" lon="-4.2527">
        <ele>30.9</ele>
        <time>2020-06-08T15:21:04Z</time>
      </trkpt>
      <trkpt lat="48.3329" lon="-4.25275">
        <ele>31</ele>
        <time>2020-06-08T15:21:05Z</time>
      </trkpt>
      <trkpt lat="48.33291" lon="-4.25279">
        <ele>31.1</ele>
        <time>2020-06-08T15:21:06Z</time>
      </trkpt>
      <trkpt lat="48.33292" lon="-4.25283">
        <ele>31.2</ele>
        <time>2020-06-08T15:21:07Z</time>
      </trkpt>
      <trkpt lat="48.33294" lon="-4.25288">
        <ele>31.4</ele>
        <time>2020-06-08T15:21:08Z</time>
      </trkpt>
      <trkpt lat="48.33295" lon="-4.25292">
        <ele>31.5</ele>
        <time>2020-06-08T15:21:09Z</time>
      </trkpt>
      <trkpt lat="48.33296" lon="-4.25297">
        <ele>31.7</ele>
        <time>2020-06-08T15:21:10Z</time>
      </trkpt>
      <trkpt lat="48.33297" lon="-4.25301">
        <ele>31.8</ele>
        <time>2020-06-08T15:21:11Z</time>
      </trkpt>
      <trkpt lat="48.33299" lon="-4.25304">
        <ele>32</ele>
        <time>2020-06-08T15:21:12Z</time>
      </trkpt>
      <trkpt lat="48.33301" lon="-4.25308">
        <ele>32.1</ele>
        <time>2020-06-08T15:21:13Z</time>
      </trkpt>
      <trkpt lat="48.33303" lon="-4.25317">
        <ele>32.5</ele>
        <time>2020-06-08T15:21:14Z</time>
      </trkpt>
      <trkpt lat="48.33304" lon="-4.25321">
        <ele>32.6</ele>
        <time>2020-06-08T15:21:15Z</time>
      </trkpt>
      <trkpt lat="48.33306" lon="-4.25325">
        <ele>32.8</ele>
        <time>2020-06-08T15:21:16Z</time>
      </trkpt>
      <trkpt lat="48.33307" lon="-4.25331">
        <ele>33</ele>
        <time>2020-06-08T15:21:17Z</time>
      </trkpt>
      <trkpt lat="48.33307" lon="-4.25334">
        <ele>33.1</ele>
        <time>2020-06-08T15:21:18Z</time>
      </trkpt>
      <trkpt lat="48.33309" lon="-4.25338">
        <ele>33.3</ele>
        <time>2020-06-08T15:21:19Z</time>
      </trkpt>
      <trkpt lat="48.3331" lon="-4.25343">
        <ele>33.5</ele>
        <time>2020-06-08T15:21:20Z</time>
      </trkpt>
      <trkpt lat="48.33312" lon="-4.25346">
        <ele>33.7</ele>
        <time>2020-06-08T15:21:21Z</time>
      </trkpt>
      <trkpt lat="48.33314" lon="-4.2535">
        <ele>33.8</ele>
        <time>2020-06-08T15:21:22Z</time>
      </trkpt>
      <trkpt lat="48.33316" lon="-4.25354">
        <ele>34</ele>
        <time>2020-06-08T15:21:23Z</time>
      </trkpt>
      <trkpt lat="48.33319" lon="-4.25358">
        <ele>34.2</ele>
        <time>2020-06-08T15:21:24Z</time>
      </trkpt>
      <trkpt lat="48.3332" lon="-4.25359">
        <ele>34.3</ele>
        <time>2020-06-08T15:21:25Z</time>
      </trkpt>
      <trkpt lat="48.33321" lon="-4.25365">
        <ele>34.5</ele>
        <time>2020-06-08T15:21:26Z</time>
      </trkpt>
      <trkpt lat="48.33321" lon="-4.25367">
        <ele>34.5</ele>
        <time>2020-06-08T15:21:27Z</time>
      </trkpt>
      <trkpt lat="48.33323" lon="-4.25371">
        <ele>34.7</ele>
        <time>2020-06-08T15:21:28Z</time>
      </trkpt>
      <trkpt lat="48.33325" lon="-4.25375">
        <ele>34.9</ele>
        <time>2020-06-08T15:21:29Z</time>
      </trkpt>
      <trkpt lat="48.33328" lon="-4.25378">
        <ele>34.6</ele>
        <time>2020-06-08T15:21:30Z</time>
      </trkpt>
      <trkpt lat="48.3333" lon="-4.25382">
        <ele>34.7</ele>
        <time>2020-06-08T15:21:31Z</time>
      </trkpt>
      <trkpt lat="48.33332" lon="-4.25386">
        <ele>34.9</ele>
        <time>2020-06-08T15:21:32Z</time>
      </trkpt>
      <trkpt lat="48.33334" lon="-4.2539">
        <ele>35</ele>
        <time>2020-06-08T15:21:33Z</time>
      </trkpt>
      <trkpt lat="48.33336" lon="-4.25393">
        <ele>35.2</ele>
        <time>2020-06-08T15:21:34Z</time>
      </trkpt>
      <trkpt lat="48.33339" lon="-4.25397">
        <ele>35.4</ele>
        <time>2020-06-08T15:21:35Z</time>
      </trkpt>
      <trkpt lat="48.33341" lon="-4.254">
        <ele>35.5</ele>
        <time>2020-06-08T15:21:36Z</time>
      </trkpt>
      <trkpt lat="48.33343" lon="-4.25405">
        <ele>35.7</ele>
        <time>2020-06-08T15:21:37Z</time>
      </trkpt>
      <trkpt lat="48.33345" lon="-4.25409">
        <ele>35.9</ele>
        <time>2020-06-08T15:21:38Z</time>
      </trkpt>
      <trkpt lat="48.33348" lon="-4.25411">
        <ele>36</ele>
        <time>2020-06-08T15:21:39Z</time>
      </trkpt>
      <trkpt lat="48.3335" lon="-4.25413">
        <ele>36.2</ele>
        <time>2020-06-08T15:21:40Z</time>
      </trkpt>
      <trkpt lat="48.33353" lon="-4.25416">
        <ele>36.4</ele>
        <time>2020-06-08T15:21:41Z</time>
      </trkpt>
      <trkpt lat="48.33356" lon="-4.25418">
        <ele>36.5</ele>
        <time>2020-06-08T15:21:42Z</time>
      </trkpt>
      <trkpt lat="48.33359" lon="-4.25421">
        <ele>36.7</ele>
        <time>2020-06-08T15:21:43Z</time>
      </trkpt>
      <trkpt lat="48.33362" lon="-4.25423">
        <ele>36.9</ele>
        <time>2020-06-08T15:21:44Z</time>
      </trkpt>
      <trkpt lat="48.33365" lon="-4.25425">
        <ele>37</ele>
        <time>2020-06-08T15:21:45Z</time>
      </trkpt>
      <trkpt lat="48.33369" lon="-4.25428">
        <ele>37.2</ele>
        <time>2020-06-08T15:21:46Z</time>
      </trkpt>
      <trkpt lat="48.3337" lon="-4.25429">
        <ele>37.3</ele>
        <time>2020-06-08T15:21:47Z</time>
      </trkpt>
      <trkpt lat="48.33373" lon="-4.25433">
        <ele>37.5</ele>
        <time>2020-06-08T15:21:48Z</time>
      </trkpt>
      <trkpt lat="48.33376" lon="-4.25435">
        <ele>37.7</ele>
        <time>2020-06-08T15:21:49Z</time>
      </trkpt>
      <trkpt lat="48.33379" lon="-4.25437">
        <ele>37.8</ele>
        <time>2020-06-08T15:21:50Z</time>
      </trkpt>
      <trkpt lat="48.33382" lon="-4.25439">
        <ele>38</ele>
        <time>2020-06-08T15:21:51Z</time>
      </trkpt>
      <trkpt lat="48.33385" lon="-4.2544">
        <ele>38.1</ele>
        <time>2020-06-08T15:21:52Z</time>
      </trkpt>
      <trkpt lat="48.33388" lon="-4.25441">
        <ele>38.3</ele>
        <time>2020-06-08T15:21:53Z</time>
      </trkpt>
      <trkpt lat="48.33391" lon="-4.25443">
        <ele>38.4</ele>
        <time>2020-06-08T15:21:54Z</time>
      </trkpt>
      <trkpt lat="48.33394" lon="-4.25444">
        <ele>38.6</ele>
        <time>2020-06-08T15:21:55Z</time>
      </trkpt>
      <trkpt lat="48.33397" lon="-4.25445">
        <ele>38.7</ele>
        <time>2020-06-08T15:21:56Z</time>
      </trkpt>
      <trkpt lat="48.33399" lon="-4.25445">
        <ele>38.8</ele>
        <time>2020-06-08T15:21:57Z</time>
      </trkpt>
      <trkpt lat="48.33401" lon="-4.25446">
        <ele>38.9</ele>
        <time>2020-06-08T15:21:58Z</time>
      </trkpt>
      <trkpt lat="48.33404" lon="-4.25447">
        <ele>39</ele>
        <time>2020-06-08T15:21:59Z</time>
      </trkpt>
      <trkpt lat="48.33407" lon="-4.25449">
        <ele>39.1</ele>
        <time>2020-06-08T15:22:00Z</time>
      </trkpt>
      <trkpt lat="48.3341" lon="-4.25449">
        <ele>39.2</ele>
        <time>2020-06-08T15:22:01Z</time>
      </trkpt>
      <trkpt lat="48.33413" lon="-4.2545">
        <ele>39.4</ele>
        <time>2020-06-08T15:22:02Z</time>
      </trkpt>
      <trkpt lat="48.33416" lon="-4.25452">
        <ele>39.5</ele>
        <time>2020-06-08T15:22:03Z</time>
      </trkpt>
      <trkpt lat="48.33419" lon="-4.25453">
        <ele>39.7</ele>
        <time>2020-06-08T15:22:04Z</time>
      </trkpt>
      <trkpt lat="48.3342" lon="-4.25453">
        <ele>39.7</ele>
        <time>2020-06-08T15:22:05Z</time>
      </trkpt>
      <trkpt lat="48.33424" lon="-4.25453">
        <ele>39.9</ele>
        <time>2020-06-08T15:22:06Z</time>
      </trkpt>
      <trkpt lat="48.33425" lon="-4.25453">
        <ele>39.9</ele>
        <time>2020-06-08T15:22:07Z</time>
      </trkpt>
      <trkpt lat="48.33428" lon="-4.25454">
        <ele>40.1</ele>
        <time>2020-06-08T15:22:08Z</time>
      </trkpt>
      <trkpt lat="48.33431" lon="-4.25455">
        <ele>40.2</ele>
        <time>2020-06-08T15:22:09Z</time>
      </trkpt>
      <trkpt lat="48.33434" lon="-4.25457">
        <ele>40.4</ele>
        <time>2020-06-08T15:22:10Z</time>
      </trkpt>
      <trkpt lat="48.33435" lon="-4.25458">
        <ele>40.4</ele>
        <time>2020-06-08T15:22:11Z</time>
      </trkpt>
      <trkpt lat="48.33438" lon="-4.25461">
        <ele>40.6</ele>
        <time>2020-06-08T15:22:12Z</time>
      </trkpt>
      <trkpt lat="48.33442" lon="-4.25461">
        <ele>40.8</ele>
        <time>2020-06-08T15:22:13Z</time>
      </trkpt>
      <trkpt lat="48.33445" lon="-4.25462">
        <ele>40.9</ele>
        <time>2020-06-08T15:22:14Z</time>
      </trkpt>
      <trkpt lat="48.33447" lon="-4.25464">
        <ele>41</ele>
        <time>2020-06-08T15:22:15Z</time>
      </trkpt>
      <trkpt lat="48.33451" lon="-4.25465">
        <ele>41.2</ele>
        <time>2020-06-08T15:22:16Z</time>
      </trkpt>
      <trkpt lat="48.33453" lon="-4.25466">
        <ele>41.3</ele>
        <time>2020-06-08T15:22:17Z</time>
      </trkpt>
      <trkpt lat="48.33455" lon="-4.25469">
        <ele>41.4</ele>
        <time>2020-06-08T15:22:18Z</time>
      </trkpt>
      <trkpt lat="48.33458" lon="-4.2547">
        <ele>41.6</ele>
        <time>2020-06-08T15:22:19Z</time>
      </trkpt>
      <trkpt lat="48.33462" lon="-4.25472">
        <ele>41.7</ele>
        <time>2020-06-08T15:22:20Z</time>
      </trkpt>
      <trkpt lat="48.33465" lon="-4.25474">
        <ele>41.9</ele>
        <time>2020-06-08T15:22:21Z</time>
      </trkpt>
      <trkpt lat="48.33469" lon="-4.25475">
        <ele>42.1</ele>
        <time>2020-06-08T15:22:22Z</time>
      </trkpt>
      <trkpt lat="48.33473" lon="-4.25475">
        <ele>42.3</ele>
        <time>2020-06-08T15:22:23Z</time>
      </trkpt>
      <trkpt lat="48.33475" lon="-4.25478">
        <ele>42.4</ele>
        <time>2020-06-08T15:22:24Z</time>
      </trkpt>
      <trkpt lat="48.33479" lon="-4.2548">
        <ele>42.6</ele>
        <time>2020-06-08T15:22:25Z</time>
      </trkpt>
      <trkpt lat="48.33481" lon="-4.25481">
        <ele>42.7</ele>
        <time>2020-06-08T15:22:26Z</time>
      </trkpt>
      <trkpt lat="48.33485" lon="-4.25481">
        <ele>42.8</ele>
        <time>2020-06-08T15:22:27Z</time>
      </trkpt>
      <trkpt lat="48.33487" lon="-4.25482">
        <ele>42.9</ele>
        <time>2020-06-08T15:22:28Z</time>
      </trkpt>
      <trkpt lat="48.3349" lon="-4.25483">
        <ele>43.1</ele>
        <time>2020-06-08T15:22:29Z</time>
      </trkpt>
      <trkpt lat="48.33494" lon="-4.25485">
        <ele>43.2</ele>
        <time>2020-06-08T15:22:30Z</time>
      </trkpt>
      <trkpt lat="48.33497" lon="-4.25487">
        <ele>43.4</ele>
        <time>2020-06-08T15:22:31Z</time>
      </trkpt>
      <trkpt lat="48.33501" lon="-4.25488">
        <ele>43.5</ele>
        <time>2020-06-08T15:22:32Z</time>
      </trkpt>
      <trkpt lat="48.33503" lon="-4.25489">
        <ele>43.6</ele>
        <time>2020-06-08T15:22:33Z</time>
      </trkpt>
      <trkpt lat="48.33506" lon="-4.2549">
        <ele>43.7</ele>
        <time>2020-06-08T15:22:34Z</time>
      </trkpt>
      <trkpt lat="48.33511" lon="-4.25491">
        <ele>43.8</ele>
        <time>2020-06-08T15:22:35Z</time>
      </trkpt>
      <trkpt lat="48.33514" lon="-4.25493">
        <ele>43.9</ele>
        <time>2020-06-08T15:22:36Z</time>
      </trkpt>
      <trkpt lat="48.33518" lon="-4.25495">
        <ele>44</ele>
        <time>2020-06-08T15:22:37Z</time>
      </trkpt>
      <trkpt lat="48.33521" lon="-4.25496">
        <ele>44.1</ele>
        <time>2020-06-08T15:22:38Z</time>
      </trkpt>
      <trkpt lat="48.33524" lon="-4.25498">
        <ele>44.2</ele>
        <time>2020-06-08T15:22:39Z</time>
      </trkpt>
      <trkpt lat="48.33527" lon="-4.255">
        <ele>44.2</ele>
        <time>2020-06-08T15:22:40Z</time>
      </trkpt>
      <trkpt lat="48.3353" lon="-4.25502">
        <ele>44.3</ele>
        <time>2020-06-08T15:22:41Z</time>
      </trkpt>
      <trkpt lat="48.33534" lon="-4.25504">
        <ele>44.3</ele>
        <time>2020-06-08T15:22:42Z</time>
      </trkpt>
      <trkpt lat="48.33538" lon="-4.25506">
        <ele>44.4</ele>
        <time>2020-06-08T15:22:43Z</time>
      </trkpt>
      <trkpt lat="48.33541" lon="-4.25509">
        <ele>44.4</ele>
        <time>2020-06-08T15:22:44Z</time>
      </trkpt>
      <trkpt lat="48.33544" lon="-4.25513">
        <ele>44.4</ele>
        <time>2020-06-08T15:22:45Z</time>
      </trkpt>
      <trkpt lat="48.33547" lon="-4.25516">
        <ele>44.4</ele>
        <time>2020-06-08T15:22:46Z</time>
      </trkpt>
      <trkpt lat="48.33551" lon="-4.25518">
        <ele>44.4</ele>
        <time>2020-06-08T15:22:47Z</time>
      </trkpt>
      <trkpt lat="48.33554" lon="-4.2552">
        <ele>44.4</ele>
        <time>2020-06-08T15:22:48Z</time>
      </trkpt>
      <trkpt lat="48.33557" lon="-4.25522">
        <ele>44.3</ele>
        <time>2020-06-08T15:22:49Z</time>
      </trkpt>
      <trkpt lat="48.33561" lon="-4.25525">
        <ele>44.2</ele>
        <time>2020-06-08T15:22:50Z</time>
      </trkpt>
      <trkpt lat="48.33563" lon="-4.25528">
        <ele>44.1</ele>
        <time>2020-06-08T15:22:51Z</time>
      </trkpt>
      <trkpt lat="48.33568" lon="-4.25531">
        <ele>44.1</ele>
        <time>2020-06-08T15:22:52Z</time>
      </trkpt>
      <trkpt lat="48.33571" lon="-4.25533">
        <ele>44</ele>
        <time>2020-06-08T15:22:53Z</time>
      </trkpt>
      <trkpt lat="48.33574" lon="-4.25536">
        <ele>43.9</ele>
        <time>2020-06-08T15:22:54Z</time>
      </trkpt>
      <trkpt lat="48.33578" lon="-4.25539">
        <ele>43.8</ele>
        <time>2020-06-08T15:22:55Z</time>
      </trkpt>
      <trkpt lat="48.33581" lon="-4.25544">
        <ele>43.7</ele>
        <time>2020-06-08T15:22:56Z</time>
      </trkpt>
      <trkpt lat="48.33585" lon="-4.25546">
        <ele>43.6</ele>
        <time>2020-06-08T15:22:57Z</time>
      </trkpt>
      <trkpt lat="48.33589" lon="-4.25551">
        <ele>43.5</ele>
        <time>2020-06-08T15:22:58Z</time>
      </trkpt>
      <trkpt lat="48.33592" lon="-4.25554">
        <ele>43.4</ele>
        <time>2020-06-08T15:22:59Z</time>
      </trkpt>
      <trkpt lat="48.33596" lon="-4.25559">
        <ele>43.3</ele>
        <time>2020-06-08T15:23:00Z</time>
      </trkpt>
      <trkpt lat="48.33599" lon="-4.25564">
        <ele>43.1</ele>
        <time>2020-06-08T15:23:01Z</time>
      </trkpt>
      <trkpt lat="48.33603" lon="-4.25567">
        <ele>43</ele>
        <time>2020-06-08T15:23:02Z</time>
      </trkpt>
      <trkpt lat="48.33608" lon="-4.25572">
        <ele>42.8</ele>
        <time>2020-06-08T15:23:03Z</time>
      </trkpt>
      <trkpt lat="48.33613" lon="-4.25576">
        <ele>42.6</ele>
        <time>2020-06-08T15:23:04Z</time>
      </trkpt>
      <trkpt lat="48.33618" lon="-4.25579">
        <ele>42.4</ele>
        <time>2020-06-08T15:23:05Z</time>
      </trkpt>
      <trkpt lat="48.33623" lon="-4.25584">
        <ele>42.2</ele>
        <time>2020-06-08T15:23:06Z</time>
      </trkpt>
      <trkpt lat="48.33628" lon="-4.25588">
        <ele>42</ele>
        <time>2020-06-08T15:23:07Z</time>
      </trkpt>
      <trkpt lat="48.33633" lon="-4.25592">
        <ele>41.8</ele>
        <time>2020-06-08T15:23:08Z</time>
      </trkpt>
      <trkpt lat="48.33638" lon="-4.25596">
        <ele>41.7</ele>
        <time>2020-06-08T15:23:09Z</time>
      </trkpt>
      <trkpt lat="48.33642" lon="-4.25602">
        <ele>41.5</ele>
        <time>2020-06-08T15:23:10Z</time>
      </trkpt>
      <trkpt lat="48.33648" lon="-4.25607">
        <ele>41.2</ele>
        <time>2020-06-08T15:23:11Z</time>
      </trkpt>
      <trkpt lat="48.33654" lon="-4.25614">
        <ele>41</ele>
        <time>2020-06-08T15:23:12Z</time>
      </trkpt>
      <trkpt lat="48.33662" lon="-4.25621">
        <ele>40.7</ele>
        <time>2020-06-08T15:23:13Z</time>
      </trkpt>
      <trkpt lat="48.33669" lon="-4.25628">
        <ele>40.4</ele>
        <time>2020-06-08T15:23:14Z</time>
      </trkpt>
      <trkpt lat="48.33677" lon="-4.25635">
        <ele>40.1</ele>
        <time>2020-06-08T15:23:15Z</time>
      </trkpt>
      <trkpt lat="48.33684" lon="-4.2564">
        <ele>39.8</ele>
        <time>2020-06-08T15:23:16Z</time>
      </trkpt>
      <trkpt lat="48.33692" lon="-4.25646">
        <ele>39.6</ele>
        <time>2020-06-08T15:23:17Z</time>
      </trkpt>
      <trkpt lat="48.337" lon="-4.25652">
        <ele>39.3</ele>
        <time>2020-06-08T15:23:18Z</time>
      </trkpt>
      <trkpt lat="48.33708" lon="-4.2566">
        <ele>39</ele>
        <time>2020-06-08T15:23:19Z</time>
      </trkpt>
      <trkpt lat="48.33716" lon="-4.25667">
        <ele>38.7</ele>
        <time>2020-06-08T15:23:20Z</time>
      </trkpt>
      <trkpt lat="48.33723" lon="-4.25674">
        <ele>38.5</ele>
        <time>2020-06-08T15:23:21Z</time>
      </trkpt>
      <trkpt lat="48.3373" lon="-4.25681">
        <ele>38.3</ele>
        <time>2020-06-08T15:23:22Z</time>
      </trkpt>
      <trkpt lat="48.33737" lon="-4.25688">
        <ele>38.1</ele>
        <time>2020-06-08T15:23:23Z</time>
      </trkpt>
      <trkpt lat="48.33744" lon="-4.25694">
        <ele>38</ele>
        <time>2020-06-08T15:23:24Z</time>
      </trkpt>
      <trkpt lat="48.3375" lon="-4.257">
        <ele>37.9</ele>
        <time>2020-06-08T15:23:25Z</time>
      </trkpt>
      <trkpt lat="48.33756" lon="-4.25702">
        <ele>37.9</ele>
        <time>2020-06-08T15:23:26Z</time>
      </trkpt>
      <trkpt lat="48.33761" lon="-4.25705">
        <ele>37.9</ele>
        <time>2020-06-08T15:23:27Z</time>
      </trkpt>
      <trkpt lat="48.33766" lon="-4.25707">
        <ele>37.9</ele>
        <time>2020-06-08T15:23:28Z</time>
      </trkpt>
      <trkpt lat="48.3377" lon="-4.2571">
        <ele>37.9</ele>
        <time>2020-06-08T15:23:29Z</time>
      </trkpt>
      <trkpt lat="48.33771" lon="-4.25712">
        <ele>37.9</ele>
        <time>2020-06-08T15:23:30Z</time>
      </trkpt>
      <trkpt lat="48.33772" lon="-4.25714">
        <ele>37.9</ele>
        <time>2020-06-08T15:23:31Z</time>
      </trkpt>
      <trkpt lat="48.33775" lon="-4.25717">
        <ele>37.9</ele>
        <time>2020-06-08T15:23:32Z</time>
      </trkpt>
      <trkpt lat="48.33776" lon="-4.25718">
        <ele>37.9</ele>
        <time>2020-06-08T15:23:33Z</time>
      </trkpt>
      <trkpt lat="48.33777" lon="-4.25722">
        <ele>37.9</ele>
        <time>2020-06-08T15:23:34Z</time>
      </trkpt>
      <trkpt lat="48.33778" lon="-4.25724">
        <ele>37.9</ele>
        <time>2020-06-08T15:23:35Z</time>
      </trkpt>
      <trkpt lat="48.33782" lon="-4.25726">
        <ele>37.9</ele>
        <time>2020-06-08T15:23:36Z</time>
      </trkpt>
      <trkpt lat="48.33783" lon="-4.25727">
        <ele>37.9</ele>
        <time>2020-06-08T15:23:37Z</time>
      </trkpt>
      <trkpt lat="48.33785" lon="-4.2573">
        <ele>37.9</ele>
        <time>2020-06-08T15:23:38Z</time>
      </trkpt>
      <trkpt lat="48.33788" lon="-4.25732">
        <ele>37.9</ele>
        <time>2020-06-08T15:23:39Z</time>
      </trkpt>
      <trkpt lat="48.33791" lon="-4.25734">
        <ele>37.9</ele>
        <time>2020-06-08T15:23:40Z</time>
      </trkpt>
      <trkpt lat="48.33795" lon="-4.25736">
        <ele>38</ele>
        <time>2020-06-08T15:23:41Z</time>
      </trkpt>
      <trkpt lat="48.33799" lon="-4.2574">
        <ele>38</ele>
        <time>2020-06-08T15:23:42Z</time>
      </trkpt>
      <trkpt lat="48.33804" lon="-4.25745">
        <ele>38.1</ele>
        <time>2020-06-08T15:23:43Z</time>
      </trkpt>
      <trkpt lat="48.33809" lon="-4.2575">
        <ele>38.1</ele>
        <time>2020-06-08T15:23:44Z</time>
      </trkpt>
      <trkpt lat="48.33814" lon="-4.25755">
        <ele>38.2</ele>
        <time>2020-06-08T15:23:45Z</time>
      </trkpt>
      <trkpt lat="48.33819" lon="-4.2576">
        <ele>38.4</ele>
        <time>2020-06-08T15:23:46Z</time>
      </trkpt>
      <trkpt lat="48.33824" lon="-4.25766">
        <ele>38.5</ele>
        <time>2020-06-08T15:23:47Z</time>
      </trkpt>
      <trkpt lat="48.33829" lon="-4.25771">
        <ele>38.7</ele>
        <time>2020-06-08T15:23:48Z</time>
      </trkpt>
      <trkpt lat="48.33834" lon="-4.25775">
        <ele>38.9</ele>
        <time>2020-06-08T15:23:49Z</time>
      </trkpt>
      <trkpt lat="48.3384" lon="-4.25779">
        <ele>39</ele>
        <time>2020-06-08T15:23:50Z</time>
      </trkpt>
      <trkpt lat="48.33846" lon="-4.25783">
        <ele>39.2</ele>
        <time>2020-06-08T15:23:51Z</time>
      </trkpt>
      <trkpt lat="48.33851" lon="-4.25788">
        <ele>39.4</ele>
        <time>2020-06-08T15:23:52Z</time>
      </trkpt>
      <trkpt lat="48.33857" lon="-4.25793">
        <ele>39.5</ele>
        <time>2020-06-08T15:23:53Z</time>
      </trkpt>
      <trkpt lat="48.33863" lon="-4.25799">
        <ele>39.7</ele>
        <time>2020-06-08T15:23:54Z</time>
      </trkpt>
      <trkpt lat="48.33868" lon="-4.25803">
        <ele>39.9</ele>
        <time>2020-06-08T15:23:55Z</time>
      </trkpt>
      <trkpt lat="48.33874" lon="-4.25808">
        <ele>40</ele>
        <time>2020-06-08T15:23:56Z</time>
      </trkpt>
      <trkpt lat="48.3388" lon="-4.25812">
        <ele>40.2</ele>
        <time>2020-06-08T15:23:57Z</time>
      </trkpt>
      <trkpt lat="48.33885" lon="-4.25816">
        <ele>40.4</ele>
        <time>2020-06-08T15:23:58Z</time>
      </trkpt>
      <trkpt lat="48.3389" lon="-4.25821">
        <ele>40.5</ele>
        <time>2020-06-08T15:23:59Z</time>
      </trkpt>
      <trkpt lat="48.33895" lon="-4.25826">
        <ele>40.7</ele>
        <time>2020-06-08T15:24:00Z</time>
      </trkpt>
      <trkpt lat="48.339" lon="-4.25831">
        <ele>40.9</ele>
        <time>2020-06-08T15:24:01Z</time>
      </trkpt>
      <trkpt lat="48.33904" lon="-4.25837">
        <ele>41</ele>
        <time>2020-06-08T15:24:02Z</time>
      </trkpt>
      <trkpt lat="48.33909" lon="-4.25841">
        <ele>41.1</ele>
        <time>2020-06-08T15:24:03Z</time>
      </trkpt>
      <trkpt lat="48.33913" lon="-4.25846">
        <ele>41.3</ele>
        <time>2020-06-08T15:24:04Z</time>
      </trkpt>
      <trkpt lat="48.33918" lon="-4.2585">
        <ele>41.4</ele>
        <time>2020-06-08T15:24:05Z</time>
      </trkpt>
      <trkpt lat="48.33922" lon="-4.25854">
        <ele>41.5</ele>
        <time>2020-06-08T15:24:06Z</time>
      </trkpt>
      <trkpt lat="48.33927" lon="-4.25857">
        <ele>41.6</ele>
        <time>2020-06-08T15:24:07Z</time>
      </trkpt>
      <trkpt lat="48.33931" lon="-4.2586">
        <ele>41.7</ele>
        <time>2020-06-08T15:24:08Z</time>
      </trkpt>
      <trkpt lat="48.33935" lon="-4.25864">
        <ele>41.8</ele>
        <time>2020-06-08T15:24:09Z</time>
      </trkpt>
      <trkpt lat="48.33939" lon="-4.25867">
        <ele>41.9</ele>
        <time>2020-06-08T15:24:10Z</time>
      </trkpt>
      <trkpt lat="48.33944" lon="-4.2587">
        <ele>42</ele>
        <time>2020-06-08T15:24:11Z</time>
      </trkpt>
      <trkpt lat="48.33948" lon="-4.25873">
        <ele>42</ele>
        <time>2020-06-08T15:24:12Z</time>
      </trkpt>
      <trkpt lat="48.33953" lon="-4.25875">
        <ele>42.1</ele>
        <time>2020-06-08T15:24:13Z</time>
      </trkpt>
      <trkpt lat="48.33957" lon="-4.25879">
        <ele>42.1</ele>
        <time>2020-06-08T15:24:14Z</time>
      </trkpt>
      <trkpt lat="48.33961" lon="-4.25882">
        <ele>42.1</ele>
        <time>2020-06-08T15:24:15Z</time>
      </trkpt>
      <trkpt lat="48.33965" lon="-4.25886">
        <ele>42.1</ele>
        <time>2020-06-08T15:24:16Z</time>
      </trkpt>
      <trkpt lat="48.33968" lon="-4.2589">
        <ele>42</ele>
        <time>2020-06-08T15:24:17Z</time>
      </trkpt>
      <trkpt lat="48.33971" lon="-4.25894">
        <ele>42</ele>
        <time>2020-06-08T15:24:18Z</time>
      </trkpt>
      <trkpt lat="48.33975" lon="-4.25898">
        <ele>42</ele>
        <time>2020-06-08T15:24:19Z</time>
      </trkpt>
      <trkpt lat="48.33978" lon="-4.25901">
        <ele>42</ele>
        <time>2020-06-08T15:24:20Z</time>
      </trkpt>
      <trkpt lat="48.33983" lon="-4.25904">
        <ele>42</ele>
        <time>2020-06-08T15:24:21Z</time>
      </trkpt>
      <trkpt lat="48.33986" lon="-4.25907">
        <ele>42</ele>
        <time>2020-06-08T15:24:22Z</time>
      </trkpt>
      <trkpt lat="48.33989" lon="-4.2591">
        <ele>41.9</ele>
        <time>2020-06-08T15:24:23Z</time>
      </trkpt>
      <trkpt lat="48.33993" lon="-4.25914">
        <ele>41.9</ele>
        <time>2020-06-08T15:24:24Z</time>
      </trkpt>
      <trkpt lat="48.33997" lon="-4.25917">
        <ele>41.8</ele>
        <time>2020-06-08T15:24:25Z</time>
      </trkpt>
      <trkpt lat="48.34001" lon="-4.25919">
        <ele>41.8</ele>
        <time>2020-06-08T15:24:26Z</time>
      </trkpt>
      <trkpt lat="48.34005" lon="-4.25922">
        <ele>41.7</ele>
        <time>2020-06-08T15:24:27Z</time>
      </trkpt>
      <trkpt lat="48.3401" lon="-4.25924">
        <ele>41.6</ele>
        <time>2020-06-08T15:24:28Z</time>
      </trkpt>
      <trkpt lat="48.34014" lon="-4.25927">
        <ele>41.6</ele>
        <time>2020-06-08T15:24:29Z</time>
      </trkpt>
      <trkpt lat="48.34019" lon="-4.25929">
        <ele>41.6</ele>
        <time>2020-06-08T15:24:30Z</time>
      </trkpt>
      <trkpt lat="48.34025" lon="-4.25931">
        <ele>41.5</ele>
        <time>2020-06-08T15:24:31Z</time>
      </trkpt>
      <trkpt lat="48.34031" lon="-4.25933">
        <ele>41.4</ele>
        <time>2020-06-08T15:24:32Z</time>
      </trkpt>
      <trkpt lat="48.34036" lon="-4.25936">
        <ele>41.3</ele>
        <time>2020-06-08T15:24:33Z</time>
      </trkpt>
      <trkpt lat="48.34042" lon="-4.25939">
        <ele>41.2</ele>
        <time>2020-06-08T15:24:34Z</time>
      </trkpt>
      <trkpt lat="48.34049" lon="-4.25941">
        <ele>41.1</ele>
        <time>2020-06-08T15:24:35Z</time>
      </trkpt>
      <trkpt lat="48.34055" lon="-4.25943">
        <ele>40.9</ele>
        <time>2020-06-08T15:24:36Z</time>
      </trkpt>
      <trkpt lat="48.34062" lon="-4.25945">
        <ele>40.8</ele>
        <time>2020-06-08T15:24:37Z</time>
      </trkpt>
      <trkpt lat="48.34068" lon="-4.25946">
        <ele>40.7</ele>
        <time>2020-06-08T15:24:38Z</time>
      </trkpt>
      <trkpt lat="48.34075" lon="-4.25947">
        <ele>40.6</ele>
        <time>2020-06-08T15:24:39Z</time>
      </trkpt>
      <trkpt lat="48.34081" lon="-4.25944">
        <ele>40.5</ele>
        <time>2020-06-08T15:24:40Z</time>
      </trkpt>
      <trkpt lat="48.34088" lon="-4.25943">
        <ele>40.3</ele>
        <time>2020-06-08T15:24:41Z</time>
      </trkpt>
      <trkpt lat="48.34095" lon="-4.25942">
        <ele>40.1</ele>
        <time>2020-06-08T15:24:42Z</time>
      </trkpt>
      <trkpt lat="48.34102" lon="-4.2594">
        <ele>40</ele>
        <time>2020-06-08T15:24:43Z</time>
      </trkpt>
      <trkpt lat="48.34109" lon="-4.25939">
        <ele>39.8</ele>
        <time>2020-06-08T15:24:44Z</time>
      </trkpt>
      <trkpt lat="48.34117" lon="-4.25937">
        <ele>39.7</ele>
        <time>2020-06-08T15:24:45Z</time>
      </trkpt>
      <trkpt lat="48.34124" lon="-4.25936">
        <ele>39.5</ele>
        <time>2020-06-08T15:24:46Z</time>
      </trkpt>
      <trkpt lat="48.3413" lon="-4.25934">
        <ele>39.4</ele>
        <time>2020-06-08T15:24:47Z</time>
      </trkpt>
      <trkpt lat="48.34137" lon="-4.25931">
        <ele>39.3</ele>
        <time>2020-06-08T15:24:48Z</time>
      </trkpt>
      <trkpt lat="48.34144" lon="-4.2593">
        <ele>39.2</ele>
        <time>2020-06-08T15:24:49Z</time>
      </trkpt>
      <trkpt lat="48.34152" lon="-4.25928">
        <ele>39.2</ele>
        <time>2020-06-08T15:24:50Z</time>
      </trkpt>
      <trkpt lat="48.34159" lon="-4.25925">
        <ele>39.2</ele>
        <time>2020-06-08T15:24:51Z</time>
      </trkpt>
      <trkpt lat="48.34166" lon="-4.25923">
        <ele>39.2</ele>
        <time>2020-06-08T15:24:52Z</time>
      </trkpt>
      <trkpt lat="48.34172" lon="-4.25922">
        <ele>39.1</ele>
        <time>2020-06-08T15:24:53Z</time>
      </trkpt>
      <trkpt lat="48.34178" lon="-4.2592">
        <ele>39.1</ele>
        <time>2020-06-08T15:24:54Z</time>
      </trkpt>
      <trkpt lat="48.34183" lon="-4.2592">
        <ele>39.1</ele>
        <time>2020-06-08T15:24:55Z</time>
      </trkpt>
      <trkpt lat="48.34188" lon="-4.25919">
        <ele>39</ele>
        <time>2020-06-08T15:24:56Z</time>
      </trkpt>
      <trkpt lat="48.34193" lon="-4.25918">
        <ele>39</ele>
        <time>2020-06-08T15:24:57Z</time>
      </trkpt>
      <trkpt lat="48.34198" lon="-4.25916">
        <ele>38.9</ele>
        <time>2020-06-08T15:24:58Z</time>
      </trkpt>
      <trkpt lat="48.34203" lon="-4.25915">
        <ele>38.9</ele>
        <time>2020-06-08T15:24:59Z</time>
      </trkpt>
      <trkpt lat="48.34209" lon="-4.25914">
        <ele>38.9</ele>
        <time>2020-06-08T15:25:00Z</time>
      </trkpt>
      <trkpt lat="48.34215" lon="-4.25912">
        <ele>38.8</ele>
        <time>2020-06-08T15:25:01Z</time>
      </trkpt>
      <trkpt lat="48.34221" lon="-4.25907">
        <ele>38.8</ele>
        <time>2020-06-08T15:25:02Z</time>
      </trkpt>
      <trkpt lat="48.34228" lon="-4.25903">
        <ele>38.8</ele>
        <time>2020-06-08T15:25:03Z</time>
      </trkpt>
      <trkpt lat="48.34235" lon="-4.259">
        <ele>38.8</ele>
        <time>2020-06-08T15:25:04Z</time>
      </trkpt>
      <trkpt lat="48.34242" lon="-4.25898">
        <ele>38.9</ele>
        <time>2020-06-08T15:25:05Z</time>
      </trkpt>
      <trkpt lat="48.34248" lon="-4.25897">
        <ele>39</ele>
        <time>2020-06-08T15:25:06Z</time>
      </trkpt>
      <trkpt lat="48.34253" lon="-4.25896">
        <ele>39.1</ele>
        <time>2020-06-08T15:25:07Z</time>
      </trkpt>
      <trkpt lat="48.34257" lon="-4.25895">
        <ele>39.1</ele>
        <time>2020-06-08T15:25:08Z</time>
      </trkpt>
      <trkpt lat="48.34263" lon="-4.25895">
        <ele>39.2</ele>
        <time>2020-06-08T15:25:09Z</time>
      </trkpt>
      <trkpt lat="48.34269" lon="-4.25893">
        <ele>39.4</ele>
        <time>2020-06-08T15:25:10Z</time>
      </trkpt>
      <trkpt lat="48.34275" lon="-4.25892">
        <ele>39.6</ele>
        <time>2020-06-08T15:25:11Z</time>
      </trkpt>
      <trkpt lat="48.3428" lon="-4.25891">
        <ele>39.8</ele>
        <time>2020-06-08T15:25:12Z</time>
      </trkpt>
      <trkpt lat="48.34285" lon="-4.25892">
        <ele>40</ele>
        <time>2020-06-08T15:25:13Z</time>
      </trkpt>
      <trkpt lat="48.34291" lon="-4.25892">
        <ele>40.2</ele>
        <time>2020-06-08T15:25:14Z</time>
      </trkpt>
      <trkpt lat="48.34297" lon="-4.25891">
        <ele>40.5</ele>
        <time>2020-06-08T15:25:15Z</time>
      </trkpt>
      <trkpt lat="48.34304" lon="-4.2589">
        <ele>40.8</ele>
        <time>2020-06-08T15:25:16Z</time>
      </trkpt>
      <trkpt lat="48.3431" lon="-4.25888">
        <ele>41.1</ele>
        <time>2020-06-08T15:25:17Z</time>
      </trkpt>
      <trkpt lat="48.34315" lon="-4.25887">
        <ele>41.4</ele>
        <time>2020-06-08T15:25:18Z</time>
      </trkpt>
      <trkpt lat="48.34321" lon="-4.25887">
        <ele>41.6</ele>
        <time>2020-06-08T15:25:19Z</time>
      </trkpt>
      <trkpt lat="48.34326" lon="-4.25887">
        <ele>41.9</ele>
        <time>2020-06-08T15:25:20Z</time>
      </trkpt>
      <trkpt lat="48.34331" lon="-4.25887">
        <ele>42.1</ele>
        <time>2020-06-08T15:25:21Z</time>
      </trkpt>
      <trkpt lat="48.34335" lon="-4.25886">
        <ele>42.3</ele>
        <time>2020-06-08T15:25:22Z</time>
      </trkpt>
      <trkpt lat="48.3434" lon="-4.25884">
        <ele>42.5</ele>
        <time>2020-06-08T15:25:23Z</time>
      </trkpt>
      <trkpt lat="48.34345" lon="-4.25883">
        <ele>42.7</ele>
        <time>2020-06-08T15:25:24Z</time>
      </trkpt>
      <trkpt lat="48.34351" lon="-4.25882">
        <ele>42.9</ele>
        <time>2020-06-08T15:25:25Z</time>
      </trkpt>
      <trkpt lat="48.34356" lon="-4.2588">
        <ele>43.2</ele>
        <time>2020-06-08T15:25:26Z</time>
      </trkpt>
      <trkpt lat="48.34363" lon="-4.25879">
        <ele>43.5</ele>
        <time>2020-06-08T15:25:27Z</time>
      </trkpt>
      <trkpt lat="48.34368" lon="-4.25878">
        <ele>43.8</ele>
        <time>2020-06-08T15:25:28Z</time>
      </trkpt>
      <trkpt lat="48.34373" lon="-4.25878">
        <ele>44</ele>
        <time>2020-06-08T15:25:29Z</time>
      </trkpt>
      <trkpt lat="48.34379" lon="-4.25877">
        <ele>44.3</ele>
        <time>2020-06-08T15:25:30Z</time>
      </trkpt>
      <trkpt lat="48.34384" lon="-4.25876">
        <ele>44.6</ele>
        <time>2020-06-08T15:25:31Z</time>
      </trkpt>
      <trkpt lat="48.34389" lon="-4.25876">
        <ele>44.8</ele>
        <time>2020-06-08T15:25:32Z</time>
      </trkpt>
      <trkpt lat="48.34395" lon="-4.25875">
        <ele>45.1</ele>
        <time>2020-06-08T15:25:33Z</time>
      </trkpt>
      <trkpt lat="48.344" lon="-4.25874">
        <ele>45.4</ele>
        <time>2020-06-08T15:25:34Z</time>
      </trkpt>
      <trkpt lat="48.34404" lon="-4.25873">
        <ele>45.6</ele>
        <time>2020-06-08T15:25:35Z</time>
      </trkpt>
      <trkpt lat="48.34408" lon="-4.25873">
        <ele>45.8</ele>
        <time>2020-06-08T15:25:36Z</time>
      </trkpt>
      <trkpt lat="48.34412" lon="-4.25873">
        <ele>46</ele>
        <time>2020-06-08T15:25:37Z</time>
      </trkpt>
      <trkpt lat="48.34416" lon="-4.25872">
        <ele>46.2</ele>
        <time>2020-06-08T15:25:38Z</time>
      </trkpt>
      <trkpt lat="48.34419" lon="-4.25872">
        <ele>46.4</ele>
        <time>2020-06-08T15:25:39Z</time>
      </trkpt>
      <trkpt lat="48.34423" lon="-4.25871">
        <ele>46.6</ele>
        <time>2020-06-08T15:25:40Z</time>
      </trkpt>
      <trkpt lat="48.34427" lon="-4.25872">
        <ele>46.8</ele>
        <time>2020-06-08T15:25:41Z</time>
      </trkpt>
      <trkpt lat="48.34429" lon="-4.25872">
        <ele>46.8</ele>
        <time>2020-06-08T15:25:42Z</time>
      </trkpt>
      <trkpt lat="48.34433" lon="-4.25871">
        <ele>47</ele>
        <time>2020-06-08T15:25:43Z</time>
      </trkpt>
      <trkpt lat="48.34436" lon="-4.2587">
        <ele>47.2</ele>
        <time>2020-06-08T15:25:44Z</time>
      </trkpt>
      <trkpt lat="48.34441" lon="-4.2587">
        <ele>47.4</ele>
        <time>2020-06-08T15:25:45Z</time>
      </trkpt>
      <trkpt lat="48.34445" lon="-4.25869">
        <ele>47.6</ele>
        <time>2020-06-08T15:25:46Z</time>
      </trkpt>
      <trkpt lat="48.34448" lon="-4.25868">
        <ele>47.8</ele>
        <time>2020-06-08T15:25:47Z</time>
      </trkpt>
      <trkpt lat="48.34452" lon="-4.25867">
        <ele>47.9</ele>
        <time>2020-06-08T15:25:48Z</time>
      </trkpt>
      <trkpt lat="48.34457" lon="-4.25866">
        <ele>48.2</ele>
        <time>2020-06-08T15:25:49Z</time>
      </trkpt>
      <trkpt lat="48.34461" lon="-4.25866">
        <ele>48.4</ele>
        <time>2020-06-08T15:25:50Z</time>
      </trkpt>
      <trkpt lat="48.34465" lon="-4.25866">
        <ele>48.6</ele>
        <time>2020-06-08T15:25:51Z</time>
      </trkpt>
      <trkpt lat="48.34469" lon="-4.25866">
        <ele>48.8</ele>
        <time>2020-06-08T15:25:52Z</time>
      </trkpt>
      <trkpt lat="48.34472" lon="-4.25865">
        <ele>49</ele>
        <time>2020-06-08T15:25:53Z</time>
      </trkpt>
      <trkpt lat="48.34476" lon="-4.25864">
        <ele>49.2</ele>
        <time>2020-06-08T15:25:54Z</time>
      </trkpt>
      <trkpt lat="48.3448" lon="-4.25865">
        <ele>49.3</ele>
        <time>2020-06-08T15:25:55Z</time>
      </trkpt>
      <trkpt lat="48.34484" lon="-4.25864">
        <ele>49.6</ele>
        <time>2020-06-08T15:25:56Z</time>
      </trkpt>
      <trkpt lat="48.34488" lon="-4.25863">
        <ele>49.8</ele>
        <time>2020-06-08T15:25:57Z</time>
      </trkpt>
      <trkpt lat="48.34493" lon="-4.25863">
        <ele>50</ele>
        <time>2020-06-08T15:25:58Z</time>
      </trkpt>
      <trkpt lat="48.34495" lon="-4.25862">
        <ele>50.2</ele>
        <time>2020-06-08T15:25:59Z</time>
      </trkpt>
      <trkpt lat="48.34498" lon="-4.25862">
        <ele>50.3</ele>
        <time>2020-06-08T15:26:00Z</time>
      </trkpt>
      <trkpt lat="48.34502" lon="-4.25861">
        <ele>50.5</ele>
        <time>2020-06-08T15:26:01Z</time>
      </trkpt>
      <trkpt lat="48.34507" lon="-4.25859">
        <ele>50.8</ele>
        <time>2020-06-08T15:26:02Z</time>
      </trkpt>
      <trkpt lat="48.34511" lon="-4.25858">
        <ele>51</ele>
        <time>2020-06-08T15:26:03Z</time>
      </trkpt>
      <trkpt lat="48.34515" lon="-4.25857">
        <ele>51.2</ele>
        <time>2020-06-08T15:26:04Z</time>
      </trkpt>
      <trkpt lat="48.34519" lon="-4.25856">
        <ele>51.4</ele>
        <time>2020-06-08T15:26:05Z</time>
      </trkpt>
      <trkpt lat="48.34523" lon="-4.25855">
        <ele>51.6</ele>
        <time>2020-06-08T15:26:06Z</time>
      </trkpt>
      <trkpt lat="48.34527" lon="-4.25855">
        <ele>51.8</ele>
        <time>2020-06-08T15:26:07Z</time>
      </trkpt>
      <trkpt lat="48.34529" lon="-4.25855">
        <ele>51.9</ele>
        <time>2020-06-08T15:26:08Z</time>
      </trkpt>
      <trkpt lat="48.34532" lon="-4.25855">
        <ele>52</ele>
        <time>2020-06-08T15:26:09Z</time>
      </trkpt>
      <trkpt lat="48.34535" lon="-4.25855">
        <ele>52.2</ele>
        <time>2020-06-08T15:26:10Z</time>
      </trkpt>
      <trkpt lat="48.34539" lon="-4.25854">
        <ele>52.4</ele>
        <time>2020-06-08T15:26:11Z</time>
      </trkpt>
      <trkpt lat="48.3454" lon="-4.25853">
        <ele>52.5</ele>
        <time>2020-06-08T15:26:12Z</time>
      </trkpt>
      <trkpt lat="48.34545" lon="-4.25849">
        <ele>52.7</ele>
        <time>2020-06-08T15:26:13Z</time>
      </trkpt>
      <trkpt lat="48.34551" lon="-4.25849">
        <ele>53</ele>
        <time>2020-06-08T15:26:14Z</time>
      </trkpt>
      <trkpt lat="48.34554" lon="-4.25848">
        <ele>53.1</ele>
        <time>2020-06-08T15:26:15Z</time>
      </trkpt>
      <trkpt lat="48.34559" lon="-4.25847">
        <ele>53.3</ele>
        <time>2020-06-08T15:26:16Z</time>
      </trkpt>
      <trkpt lat="48.34562" lon="-4.25845">
        <ele>53.5</ele>
        <time>2020-06-08T15:26:17Z</time>
      </trkpt>
      <trkpt lat="48.34566" lon="-4.25844">
        <ele>53.7</ele>
        <time>2020-06-08T15:26:18Z</time>
      </trkpt>
      <trkpt lat="48.34571" lon="-4.25842">
        <ele>53.8</ele>
        <time>2020-06-08T15:26:19Z</time>
      </trkpt>
      <trkpt lat="48.34575" lon="-4.25841">
        <ele>53.9</ele>
        <time>2020-06-08T15:26:20Z</time>
      </trkpt>
      <trkpt lat="48.34578" lon="-4.2584">
        <ele>54.1</ele>
        <time>2020-06-08T15:26:21Z</time>
      </trkpt>
      <trkpt lat="48.34582" lon="-4.25839">
        <ele>54.2</ele>
        <time>2020-06-08T15:26:22Z</time>
      </trkpt>
      <trkpt lat="48.34585" lon="-4.25839">
        <ele>54.2</ele>
        <time>2020-06-08T15:26:23Z</time>
      </trkpt>
      <trkpt lat="48.3459" lon="-4.25838">
        <ele>54.3</ele>
        <time>2020-06-08T15:26:24Z</time>
      </trkpt>
      <trkpt lat="48.34593" lon="-4.25838">
        <ele>54.4</ele>
        <time>2020-06-08T15:26:25Z</time>
      </trkpt>
      <trkpt lat="48.34597" lon="-4.25836">
        <ele>54.4</ele>
        <time>2020-06-08T15:26:26Z</time>
      </trkpt>
      <trkpt lat="48.34601" lon="-4.25835">
        <ele>54.5</ele>
        <time>2020-06-08T15:26:27Z</time>
      </trkpt>
      <trkpt lat="48.34603" lon="-4.25834">
        <ele>54.5</ele>
        <time>2020-06-08T15:26:28Z</time>
      </trkpt>
      <trkpt lat="48.34607" lon="-4.25833">
        <ele>54.6</ele>
        <time>2020-06-08T15:26:29Z</time>
      </trkpt>
      <trkpt lat="48.34612" lon="-4.25829">
        <ele>54.7</ele>
        <time>2020-06-08T15:26:30Z</time>
      </trkpt>
      <trkpt lat="48.34617" lon="-4.25827">
        <ele>54.7</ele>
        <time>2020-06-08T15:26:31Z</time>
      </trkpt>
      <trkpt lat="48.3462" lon="-4.25825">
        <ele>54.7</ele>
        <time>2020-06-08T15:26:32Z</time>
      </trkpt>
      <trkpt lat="48.34622" lon="-4.25824">
        <ele>54.7</ele>
        <time>2020-06-08T15:26:33Z</time>
      </trkpt>
      <trkpt lat="48.34626" lon="-4.25821">
        <ele>54.8</ele>
        <time>2020-06-08T15:26:34Z</time>
      </trkpt>
      <trkpt lat="48.3463" lon="-4.25819">
        <ele>54.8</ele>
        <time>2020-06-08T15:26:35Z</time>
      </trkpt>
      <trkpt lat="48.34634" lon="-4.25817">
        <ele>54.8</ele>
        <time>2020-06-08T15:26:36Z</time>
      </trkpt>
      <trkpt lat="48.34637" lon="-4.25814">
        <ele>54.7</ele>
        <time>2020-06-08T15:26:37Z</time>
      </trkpt>
      <trkpt lat="48.34642" lon="-4.25811">
        <ele>54.7</ele>
        <time>2020-06-08T15:26:38Z</time>
      </trkpt>
      <trkpt lat="48.34647" lon="-4.25807">
        <ele>54.7</ele>
        <time>2020-06-08T15:26:39Z</time>
      </trkpt>
      <trkpt lat="48.3465" lon="-4.25805">
        <ele>54.6</ele>
        <time>2020-06-08T15:26:40Z</time>
      </trkpt>
      <trkpt lat="48.34654" lon="-4.25802">
        <ele>54.5</ele>
        <time>2020-06-08T15:26:41Z</time>
      </trkpt>
      <trkpt lat="48.34658" lon="-4.25799">
        <ele>54.4</ele>
        <time>2020-06-08T15:26:42Z</time>
      </trkpt>
      <trkpt lat="48.34662" lon="-4.25796">
        <ele>54.3</ele>
        <time>2020-06-08T15:26:43Z</time>
      </trkpt>
      <trkpt lat="48.34665" lon="-4.25793">
        <ele>54.2</ele>
        <time>2020-06-08T15:26:44Z</time>
      </trkpt>
      <trkpt lat="48.3467" lon="-4.25789">
        <ele>54</ele>
        <time>2020-06-08T15:26:45Z</time>
      </trkpt>
      <trkpt lat="48.34674" lon="-4.25786">
        <ele>53.9</ele>
        <time>2020-06-08T15:26:46Z</time>
      </trkpt>
      <trkpt lat="48.34679" lon="-4.25783">
        <ele>53.7</ele>
        <time>2020-06-08T15:26:47Z</time>
      </trkpt>
      <trkpt lat="48.34683" lon="-4.25779">
        <ele>53.5</ele>
        <time>2020-06-08T15:26:48Z</time>
      </trkpt>
      <trkpt lat="48.34687" lon="-4.25776">
        <ele>53.4</ele>
        <time>2020-06-08T15:26:49Z</time>
      </trkpt>
      <trkpt lat="48.34692" lon="-4.25772">
        <ele>53.2</ele>
        <time>2020-06-08T15:26:50Z</time>
      </trkpt>
      <trkpt lat="48.34698" lon="-4.25768">
        <ele>53.1</ele>
        <time>2020-06-08T15:26:51Z</time>
      </trkpt>
      <trkpt lat="48.34703" lon="-4.25764">
        <ele>52.9</ele>
        <time>2020-06-08T15:26:52Z</time>
      </trkpt>
      <trkpt lat="48.34709" lon="-4.2576">
        <ele>52.5</ele>
        <time>2020-06-08T15:26:53Z</time>
      </trkpt>
      <trkpt lat="48.34714" lon="-4.25755">
        <ele>52.2</ele>
        <time>2020-06-08T15:26:54Z</time>
      </trkpt>
      <trkpt lat="48.34719" lon="-4.25751">
        <ele>51.9</ele>
        <time>2020-06-08T15:26:55Z</time>
      </trkpt>
      <trkpt lat="48.34724" lon="-4.25747">
        <ele>51.5</ele>
        <time>2020-06-08T15:26:56Z</time>
      </trkpt>
      <trkpt lat="48.34729" lon="-4.25744">
        <ele>51.2</ele>
        <time>2020-06-08T15:26:57Z</time>
      </trkpt>
      <trkpt lat="48.34733" lon="-4.2574">
        <ele>51</ele>
        <time>2020-06-08T15:26:58Z</time>
      </trkpt>
      <trkpt lat="48.34739" lon="-4.25735">
        <ele>50.6</ele>
        <time>2020-06-08T15:26:59Z</time>
      </trkpt>
      <trkpt lat="48.34745" lon="-4.25732">
        <ele>50.2</ele>
        <time>2020-06-08T15:27:00Z</time>
      </trkpt>
      <trkpt lat="48.34752" lon="-4.25727">
        <ele>49.8</ele>
        <time>2020-06-08T15:27:01Z</time>
      </trkpt>
      <trkpt lat="48.34758" lon="-4.25723">
        <ele>49.5</ele>
        <time>2020-06-08T15:27:02Z</time>
      </trkpt>
      <trkpt lat="48.34765" lon="-4.25717">
        <ele>49.1</ele>
        <time>2020-06-08T15:27:03Z</time>
      </trkpt>
      <trkpt lat="48.34773" lon="-4.2571">
        <ele>48.7</ele>
        <time>2020-06-08T15:27:04Z</time>
      </trkpt>
      <trkpt lat="48.34779" lon="-4.25704">
        <ele>48.3</ele>
        <time>2020-06-08T15:27:05Z</time>
      </trkpt>
      <trkpt lat="48.34786" lon="-4.25698">
        <ele>48</ele>
        <time>2020-06-08T15:27:06Z</time>
      </trkpt>
      <trkpt lat="48.34791" lon="-4.25691">
        <ele>47.6</ele>
        <time>2020-06-08T15:27:07Z</time>
      </trkpt>
      <trkpt lat="48.34797" lon="-4.25685">
        <ele>47.3</ele>
        <time>2020-06-08T15:27:08Z</time>
      </trkpt>
      <trkpt lat="48.34803" lon="-4.25678">
        <ele>46.9</ele>
        <time>2020-06-08T15:27:09Z</time>
      </trkpt>
      <trkpt lat="48.3481" lon="-4.25672">
        <ele>46.5</ele>
        <time>2020-06-08T15:27:10Z</time>
      </trkpt>
      <trkpt lat="48.34816" lon="-4.25665">
        <ele>46.2</ele>
        <time>2020-06-08T15:27:11Z</time>
      </trkpt>
      <trkpt lat="48.34822" lon="-4.25659">
        <ele>45.8</ele>
        <time>2020-06-08T15:27:12Z</time>
      </trkpt>
      <trkpt lat="48.34828" lon="-4.25652">
        <ele>45.5</ele>
        <time>2020-06-08T15:27:13Z</time>
      </trkpt>
      <trkpt lat="48.34833" lon="-4.25646">
        <ele>45.1</ele>
        <time>2020-06-08T15:27:14Z</time>
      </trkpt>
      <trkpt lat="48.3484" lon="-4.25639">
        <ele>44.5</ele>
        <time>2020-06-08T15:27:15Z</time>
      </trkpt>
      <trkpt lat="48.34846" lon="-4.25632">
        <ele>44.2</ele>
        <time>2020-06-08T15:27:16Z</time>
      </trkpt>
      <trkpt lat="48.34852" lon="-4.25625">
        <ele>44</ele>
        <time>2020-06-08T15:27:17Z</time>
      </trkpt>
      <trkpt lat="48.34858" lon="-4.25618">
        <ele>43.7</ele>
        <time>2020-06-08T15:27:18Z</time>
      </trkpt>
      <trkpt lat="48.34864" lon="-4.25612">
        <ele>43.5</ele>
        <time>2020-06-08T15:27:19Z</time>
      </trkpt>
      <trkpt lat="48.3487" lon="-4.25606">
        <ele>43.3</ele>
        <time>2020-06-08T15:27:20Z</time>
      </trkpt>
      <trkpt lat="48.34876" lon="-4.25599">
        <ele>43.1</ele>
        <time>2020-06-08T15:27:21Z</time>
      </trkpt>
      <trkpt lat="48.34881" lon="-4.25591">
        <ele>42.9</ele>
        <time>2020-06-08T15:27:22Z</time>
      </trkpt>
      <trkpt lat="48.34887" lon="-4.25584">
        <ele>42.8</ele>
        <time>2020-06-08T15:27:23Z</time>
      </trkpt>
      <trkpt lat="48.34893" lon="-4.25578">
        <ele>42.7</ele>
        <time>2020-06-08T15:27:24Z</time>
      </trkpt>
      <trkpt lat="48.34899" lon="-4.25572">
        <ele>42.6</ele>
        <time>2020-06-08T15:27:25Z</time>
      </trkpt>
      <trkpt lat="48.34905" lon="-4.25567">
        <ele>42.5</ele>
        <time>2020-06-08T15:27:26Z</time>
      </trkpt>
      <trkpt lat="48.34912" lon="-4.25563">
        <ele>42.5</ele>
        <time>2020-06-08T15:27:27Z</time>
      </trkpt>
      <trkpt lat="48.34918" lon="-4.25559">
        <ele>42.4</ele>
        <time>2020-06-08T15:27:28Z</time>
      </trkpt>
      <trkpt lat="48.34923" lon="-4.25555">
        <ele>42.3</ele>
        <time>2020-06-08T15:27:29Z</time>
      </trkpt>
      <trkpt lat="48.34929" lon="-4.25551">
        <ele>42.3</ele>
        <time>2020-06-08T15:27:30Z</time>
      </trkpt>
      <trkpt lat="48.34934" lon="-4.25547">
        <ele>42.2</ele>
        <time>2020-06-08T15:27:31Z</time>
      </trkpt>
      <trkpt lat="48.34939" lon="-4.25543">
        <ele>42.2</ele>
        <time>2020-06-08T15:27:32Z</time>
      </trkpt>
      <trkpt lat="48.34944" lon="-4.25539">
        <ele>42.2</ele>
        <time>2020-06-08T15:27:33Z</time>
      </trkpt>
      <trkpt lat="48.3495" lon="-4.25535">
        <ele>42.2</ele>
        <time>2020-06-08T15:27:34Z</time>
      </trkpt>
      <trkpt lat="48.34955" lon="-4.25532">
        <ele>42.2</ele>
        <time>2020-06-08T15:27:35Z</time>
      </trkpt>
      <trkpt lat="48.3496" lon="-4.25529">
        <ele>42.2</ele>
        <time>2020-06-08T15:27:36Z</time>
      </trkpt>
      <trkpt lat="48.34966" lon="-4.25526">
        <ele>42.1</ele>
        <time>2020-06-08T15:27:37Z</time>
      </trkpt>
      <trkpt lat="48.34971" lon="-4.25523">
        <ele>42.1</ele>
        <time>2020-06-08T15:27:38Z</time>
      </trkpt>
      <trkpt lat="48.34977" lon="-4.2552">
        <ele>42</ele>
        <time>2020-06-08T15:27:39Z</time>
      </trkpt>
      <trkpt lat="48.34983" lon="-4.25517">
        <ele>41.9</ele>
        <time>2020-06-08T15:27:40Z</time>
      </trkpt>
      <trkpt lat="48.34989" lon="-4.25513">
        <ele>41.9</ele>
        <time>2020-06-08T15:27:41Z</time>
      </trkpt>
      <trkpt lat="48.34995" lon="-4.2551">
        <ele>41.8</ele>
        <time>2020-06-08T15:27:42Z</time>
      </trkpt>
      <trkpt lat="48.35001" lon="-4.25507">
        <ele>41.7</ele>
        <time>2020-06-08T15:27:43Z</time>
      </trkpt>
      <trkpt lat="48.35007" lon="-4.25503">
        <ele>41.7</ele>
        <time>2020-06-08T15:27:44Z</time>
      </trkpt>
      <trkpt lat="48.35013" lon="-4.255">
        <ele>41.6</ele>
        <time>2020-06-08T15:27:45Z</time>
      </trkpt>
      <trkpt lat="48.35019" lon="-4.25497">
        <ele>41.5</ele>
        <time>2020-06-08T15:27:46Z</time>
      </trkpt>
      <trkpt lat="48.35025" lon="-4.25493">
        <ele>41.4</ele>
        <time>2020-06-08T15:27:47Z</time>
      </trkpt>
      <trkpt lat="48.35031" lon="-4.25489">
        <ele>41.3</ele>
        <time>2020-06-08T15:27:49Z</time>
      </trkpt>
      <trkpt lat="48.35036" lon="-4.25485">
        <ele>41.2</ele>
        <time>2020-06-08T15:27:50Z</time>
      </trkpt>
      <trkpt lat="48.35042" lon="-4.25481">
        <ele>41.1</ele>
        <time>2020-06-08T15:27:51Z</time>
      </trkpt>
      <trkpt lat="48.35048" lon="-4.25478">
        <ele>41</ele>
        <time>2020-06-08T15:27:52Z</time>
      </trkpt>
      <trkpt lat="48.35054" lon="-4.25475">
        <ele>40.9</ele>
        <time>2020-06-08T15:27:53Z</time>
      </trkpt>
      <trkpt lat="48.35059" lon="-4.25473">
        <ele>40.8</ele>
        <time>2020-06-08T15:27:54Z</time>
      </trkpt>
      <trkpt lat="48.35064" lon="-4.25469">
        <ele>40.8</ele>
        <time>2020-06-08T15:27:55Z</time>
      </trkpt>
      <trkpt lat="48.35069" lon="-4.25465">
        <ele>40.6</ele>
        <time>2020-06-08T15:27:56Z</time>
      </trkpt>
      <trkpt lat="48.35075" lon="-4.25462">
        <ele>40.5</ele>
        <time>2020-06-08T15:27:57Z</time>
      </trkpt>
      <trkpt lat="48.35081" lon="-4.25459">
        <ele>40.4</ele>
        <time>2020-06-08T15:27:58Z</time>
      </trkpt>
      <trkpt lat="48.35086" lon="-4.25458">
        <ele>40.3</ele>
        <time>2020-06-08T15:27:59Z</time>
      </trkpt>
      <trkpt lat="48.35092" lon="-4.25456">
        <ele>40.2</ele>
        <time>2020-06-08T15:28:00Z</time>
      </trkpt>
      <trkpt lat="48.35098" lon="-4.25455">
        <ele>40.1</ele>
        <time>2020-06-08T15:28:01Z</time>
      </trkpt>
      <trkpt lat="48.35103" lon="-4.25455">
        <ele>39.9</ele>
        <time>2020-06-08T15:28:02Z</time>
      </trkpt>
      <trkpt lat="48.35109" lon="-4.25454">
        <ele>39.8</ele>
        <time>2020-06-08T15:28:03Z</time>
      </trkpt>
      <trkpt lat="48.35114" lon="-4.25453">
        <ele>39.7</ele>
        <time>2020-06-08T15:28:04Z</time>
      </trkpt>
      <trkpt lat="48.3512" lon="-4.25452">
        <ele>39.7</ele>
        <time>2020-06-08T15:28:05Z</time>
      </trkpt>
      <trkpt lat="48.35125" lon="-4.2545">
        <ele>39.7</ele>
        <time>2020-06-08T15:28:06Z</time>
      </trkpt>
      <trkpt lat="48.35131" lon="-4.2545">
        <ele>39.6</ele>
        <time>2020-06-08T15:28:07Z</time>
      </trkpt>
      <trkpt lat="48.35137" lon="-4.25448">
        <ele>39.6</ele>
        <time>2020-06-08T15:28:08Z</time>
      </trkpt>
      <trkpt lat="48.35143" lon="-4.25448">
        <ele>39.6</ele>
        <time>2020-06-08T15:28:09Z</time>
      </trkpt>
      <trkpt lat="48.3515" lon="-4.25445">
        <ele>39.6</ele>
        <time>2020-06-08T15:28:10Z</time>
      </trkpt>
      <trkpt lat="48.35156" lon="-4.25446">
        <ele>39.5</ele>
        <time>2020-06-08T15:28:11Z</time>
      </trkpt>
      <trkpt lat="48.35163" lon="-4.25445">
        <ele>39.5</ele>
        <time>2020-06-08T15:28:12Z</time>
      </trkpt>
      <trkpt lat="48.35169" lon="-4.25446">
        <ele>39.4</ele>
        <time>2020-06-08T15:28:13Z</time>
      </trkpt>
      <trkpt lat="48.35176" lon="-4.25446">
        <ele>39.4</ele>
        <time>2020-06-08T15:28:14Z</time>
      </trkpt>
      <trkpt lat="48.35182" lon="-4.25449">
        <ele>39.3</ele>
        <time>2020-06-08T15:28:15Z</time>
      </trkpt>
      <trkpt lat="48.35187" lon="-4.25451">
        <ele>39.3</ele>
        <time>2020-06-08T15:28:16Z</time>
      </trkpt>
      <trkpt lat="48.35193" lon="-4.25452">
        <ele>39.3</ele>
        <time>2020-06-08T15:28:17Z</time>
      </trkpt>
      <trkpt lat="48.35199" lon="-4.25454">
        <ele>39.2</ele>
        <time>2020-06-08T15:28:18Z</time>
      </trkpt>
      <trkpt lat="48.35204" lon="-4.25457">
        <ele>39.1</ele>
        <time>2020-06-08T15:28:19Z</time>
      </trkpt>
      <trkpt lat="48.3521" lon="-4.25459">
        <ele>39.1</ele>
        <time>2020-06-08T15:28:20Z</time>
      </trkpt>
      <trkpt lat="48.35215" lon="-4.25462">
        <ele>39</ele>
        <time>2020-06-08T15:28:21Z</time>
      </trkpt>
      <trkpt lat="48.3522" lon="-4.25465">
        <ele>38.9</ele>
        <time>2020-06-08T15:28:22Z</time>
      </trkpt>
      <trkpt lat="48.35226" lon="-4.25466">
        <ele>38.8</ele>
        <time>2020-06-08T15:28:23Z</time>
      </trkpt>
      <trkpt lat="48.35232" lon="-4.25469">
        <ele>38.7</ele>
        <time>2020-06-08T15:28:24Z</time>
      </trkpt>
      <trkpt lat="48.35237" lon="-4.25473">
        <ele>38.6</ele>
        <time>2020-06-08T15:28:25Z</time>
      </trkpt>
      <trkpt lat="48.35243" lon="-4.25476">
        <ele>38.5</ele>
        <time>2020-06-08T15:28:26Z</time>
      </trkpt>
      <trkpt lat="48.35248" lon="-4.2548">
        <ele>38.4</ele>
        <time>2020-06-08T15:28:27Z</time>
      </trkpt>
      <trkpt lat="48.35253" lon="-4.25484">
        <ele>38.3</ele>
        <time>2020-06-08T15:28:28Z</time>
      </trkpt>
      <trkpt lat="48.35258" lon="-4.25488">
        <ele>38.2</ele>
        <time>2020-06-08T15:28:29Z</time>
      </trkpt>
      <trkpt lat="48.35264" lon="-4.25491">
        <ele>38.1</ele>
        <time>2020-06-08T15:28:30Z</time>
      </trkpt>
      <trkpt lat="48.35269" lon="-4.25494">
        <ele>38</ele>
        <time>2020-06-08T15:28:31Z</time>
      </trkpt>
      <trkpt lat="48.35274" lon="-4.25497">
        <ele>37.9</ele>
        <time>2020-06-08T15:28:32Z</time>
      </trkpt>
      <trkpt lat="48.35279" lon="-4.25499">
        <ele>37.7</ele>
        <time>2020-06-08T15:28:33Z</time>
      </trkpt>
      <trkpt lat="48.35283" lon="-4.25502">
        <ele>37.6</ele>
        <time>2020-06-08T15:28:34Z</time>
      </trkpt>
      <trkpt lat="48.35288" lon="-4.25505">
        <ele>37.5</ele>
        <time>2020-06-08T15:28:35Z</time>
      </trkpt>
      <trkpt lat="48.35293" lon="-4.25507">
        <ele>37.4</ele>
        <time>2020-06-08T15:28:36Z</time>
      </trkpt>
      <trkpt lat="48.35298" lon="-4.25509">
        <ele>37.3</ele>
        <time>2020-06-08T15:28:37Z</time>
      </trkpt>
      <trkpt lat="48.35303" lon="-4.25512">
        <ele>37.1</ele>
        <time>2020-06-08T15:28:38Z</time>
      </trkpt>
      <trkpt lat="48.35308" lon="-4.25514">
        <ele>36.8</ele>
        <time>2020-06-08T15:28:39Z</time>
      </trkpt>
      <trkpt lat="48.35314" lon="-4.25515">
        <ele>36.8</ele>
        <time>2020-06-08T15:28:40Z</time>
      </trkpt>
      <trkpt lat="48.35319" lon="-4.25516">
        <ele>36.8</ele>
        <time>2020-06-08T15:28:41Z</time>
      </trkpt>
      <trkpt lat="48.35324" lon="-4.25521">
        <ele>36.7</ele>
        <time>2020-06-08T15:28:42Z</time>
      </trkpt>
      <trkpt lat="48.35328" lon="-4.25528">
        <ele>36.6</ele>
        <time>2020-06-08T15:28:43Z</time>
      </trkpt>
      <trkpt lat="48.35332" lon="-4.25535">
        <ele>36.2</ele>
        <time>2020-06-08T15:28:44Z</time>
      </trkpt>
      <trkpt lat="48.35339" lon="-4.25539">
        <ele>36</ele>
        <time>2020-06-08T15:28:45Z</time>
      </trkpt>
      <trkpt lat="48.35351" lon="-4.25549">
        <ele>35.5</ele>
        <time>2020-06-08T15:28:46Z</time>
      </trkpt>
      <trkpt lat="48.35357" lon="-4.25554">
        <ele>35.3</ele>
        <time>2020-06-08T15:28:47Z</time>
      </trkpt>
      <trkpt lat="48.35364" lon="-4.25559">
        <ele>34.8</ele>
        <time>2020-06-08T15:28:48Z</time>
      </trkpt>
      <trkpt lat="48.3537" lon="-4.25564">
        <ele>34.6</ele>
        <time>2020-06-08T15:28:49Z</time>
      </trkpt>
      <trkpt lat="48.35378" lon="-4.25568">
        <ele>34.3</ele>
        <time>2020-06-08T15:28:50Z</time>
      </trkpt>
      <trkpt lat="48.35385" lon="-4.25573">
        <ele>34</ele>
        <time>2020-06-08T15:28:51Z</time>
      </trkpt>
      <trkpt lat="48.35394" lon="-4.25578">
        <ele>33.6</ele>
        <time>2020-06-08T15:28:52Z</time>
      </trkpt>
      <trkpt lat="48.35402" lon="-4.25584">
        <ele>33.3</ele>
        <time>2020-06-08T15:28:53Z</time>
      </trkpt>
      <trkpt lat="48.3541" lon="-4.2559">
        <ele>32.9</ele>
        <time>2020-06-08T15:28:54Z</time>
      </trkpt>
      <trkpt lat="48.35419" lon="-4.25596">
        <ele>32.5</ele>
        <time>2020-06-08T15:28:55Z</time>
      </trkpt>
      <trkpt lat="48.35428" lon="-4.25602">
        <ele>32</ele>
        <time>2020-06-08T15:28:56Z</time>
      </trkpt>
      <trkpt lat="48.35437" lon="-4.2561">
        <ele>31.5</ele>
        <time>2020-06-08T15:28:57Z</time>
      </trkpt>
      <trkpt lat="48.35446" lon="-4.25617">
        <ele>30.9</ele>
        <time>2020-06-08T15:28:58Z</time>
      </trkpt>
      <trkpt lat="48.35454" lon="-4.25626">
        <ele>30.4</ele>
        <time>2020-06-08T15:28:59Z</time>
      </trkpt>
      <trkpt lat="48.35463" lon="-4.25634">
        <ele>29.9</ele>
        <time>2020-06-08T15:29:00Z</time>
      </trkpt>
      <trkpt lat="48.35472" lon="-4.25642">
        <ele>29.5</ele>
        <time>2020-06-08T15:29:01Z</time>
      </trkpt>
      <trkpt lat="48.35482" lon="-4.2565">
        <ele>29</ele>
        <time>2020-06-08T15:29:02Z</time>
      </trkpt>
      <trkpt lat="48.35491" lon="-4.25659">
        <ele>28.5</ele>
        <time>2020-06-08T15:29:03Z</time>
      </trkpt>
      <trkpt lat="48.35501" lon="-4.25667">
        <ele>28</ele>
        <time>2020-06-08T15:29:04Z</time>
      </trkpt>
      <trkpt lat="48.3551" lon="-4.25677">
        <ele>27.4</ele>
        <time>2020-06-08T15:29:05Z</time>
      </trkpt>
      <trkpt lat="48.3552" lon="-4.25685">
        <ele>26.9</ele>
        <time>2020-06-08T15:29:06Z</time>
      </trkpt>
      <trkpt lat="48.3553" lon="-4.25695">
        <ele>26.4</ele>
        <time>2020-06-08T15:29:07Z</time>
      </trkpt>
      <trkpt lat="48.3554" lon="-4.25703">
        <ele>25.8</ele>
        <time>2020-06-08T15:29:08Z</time>
      </trkpt>
      <trkpt lat="48.3555" lon="-4.25713">
        <ele>25.3</ele>
        <time>2020-06-08T15:29:09Z</time>
      </trkpt>
      <trkpt lat="48.35561" lon="-4.25722">
        <ele>24.7</ele>
        <time>2020-06-08T15:29:10Z</time>
      </trkpt>
      <trkpt lat="48.35571" lon="-4.25731">
        <ele>24.2</ele>
        <time>2020-06-08T15:29:11Z</time>
      </trkpt>
      <trkpt lat="48.35581" lon="-4.25741">
        <ele>23.6</ele>
        <time>2020-06-08T15:29:12Z</time>
      </trkpt>
      <trkpt lat="48.35592" lon="-4.25751">
        <ele>23</ele>
        <time>2020-06-08T15:29:13Z</time>
      </trkpt>
      <trkpt lat="48.35602" lon="-4.25761">
        <ele>22.4</ele>
        <time>2020-06-08T15:29:14Z</time>
      </trkpt>
      <trkpt lat="48.35613" lon="-4.2577">
        <ele>21.8</ele>
        <time>2020-06-08T15:29:15Z</time>
      </trkpt>
      <trkpt lat="48.35623" lon="-4.2578">
        <ele>21.3</ele>
        <time>2020-06-08T15:29:16Z</time>
      </trkpt>
      <trkpt lat="48.35634" lon="-4.2579">
        <ele>20.8</ele>
        <time>2020-06-08T15:29:17Z</time>
      </trkpt>
      <trkpt lat="48.35644" lon="-4.258">
        <ele>20.2</ele>
        <time>2020-06-08T15:29:18Z</time>
      </trkpt>
      <trkpt lat="48.35655" lon="-4.2581">
        <ele>19.7</ele>
        <time>2020-06-08T15:29:19Z</time>
      </trkpt>
      <trkpt lat="48.35666" lon="-4.25819">
        <ele>19.2</ele>
        <time>2020-06-08T15:29:20Z</time>
      </trkpt>
      <trkpt lat="48.35676" lon="-4.25829">
        <ele>18.7</ele>
        <time>2020-06-08T15:29:21Z</time>
      </trkpt>
      <trkpt lat="48.35686" lon="-4.25838">
        <ele>18.2</ele>
        <time>2020-06-08T15:29:22Z</time>
      </trkpt>
      <trkpt lat="48.35696" lon="-4.25847">
        <ele>17.7</ele>
        <time>2020-06-08T15:29:23Z</time>
      </trkpt>
      <trkpt lat="48.35705" lon="-4.25856">
        <ele>17.1</ele>
        <time>2020-06-08T15:29:24Z</time>
      </trkpt>
      <trkpt lat="48.35715" lon="-4.25864">
        <ele>16.7</ele>
        <time>2020-06-08T15:29:25Z</time>
      </trkpt>
      <trkpt lat="48.35724" lon="-4.25873">
        <ele>16.2</ele>
        <time>2020-06-08T15:29:26Z</time>
      </trkpt>
      <trkpt lat="48.35733" lon="-4.2588">
        <ele>15.7</ele>
        <time>2020-06-08T15:29:27Z</time>
      </trkpt>
      <trkpt lat="48.35742" lon="-4.25888">
        <ele>15.1</ele>
        <time>2020-06-08T15:29:28Z</time>
      </trkpt>
      <trkpt lat="48.3575" lon="-4.25895">
        <ele>14.6</ele>
        <time>2020-06-08T15:29:29Z</time>
      </trkpt>
      <trkpt lat="48.35759" lon="-4.25904">
        <ele>14.1</ele>
        <time>2020-06-08T15:29:30Z</time>
      </trkpt>
      <trkpt lat="48.35766" lon="-4.25912">
        <ele>13.6</ele>
        <time>2020-06-08T15:29:31Z</time>
      </trkpt>
      <trkpt lat="48.35774" lon="-4.25921">
        <ele>13.1</ele>
        <time>2020-06-08T15:29:32Z</time>
      </trkpt>
      <trkpt lat="48.35782" lon="-4.2593">
        <ele>12.6</ele>
        <time>2020-06-08T15:29:33Z</time>
      </trkpt>
      <trkpt lat="48.35791" lon="-4.25936">
        <ele>12</ele>
        <time>2020-06-08T15:29:34Z</time>
      </trkpt>
      <trkpt lat="48.35799" lon="-4.25942">
        <ele>11.5</ele>
        <time>2020-06-08T15:29:35Z</time>
      </trkpt>
      <trkpt lat="48.35808" lon="-4.25948">
        <ele>11</ele>
        <time>2020-06-08T15:29:36Z</time>
      </trkpt>
      <trkpt lat="48.35816" lon="-4.25953">
        <ele>10.4</ele>
        <time>2020-06-08T15:29:37Z</time>
      </trkpt>
      <trkpt lat="48.35825" lon="-4.25958">
        <ele>9.9</ele>
        <time>2020-06-08T15:29:38Z</time>
      </trkpt>
      <trkpt lat="48.35834" lon="-4.25963">
        <ele>9.3</ele>
        <time>2020-06-08T15:29:39Z</time>
      </trkpt>
      <trkpt lat="48.35843" lon="-4.25967">
        <ele>8.9</ele>
        <time>2020-06-08T15:29:40Z</time>
      </trkpt>
      <trkpt lat="48.35851" lon="-4.25971">
        <ele>8.4</ele>
        <time>2020-06-08T15:29:41Z</time>
      </trkpt>
      <trkpt lat="48.3586" lon="-4.25974">
        <ele>8</ele>
        <time>2020-06-08T15:29:42Z</time>
      </trkpt>
      <trkpt lat="48.35869" lon="-4.25976">
        <ele>7.7</ele>
        <time>2020-06-08T15:29:43Z</time>
      </trkpt>
      <trkpt lat="48.35878" lon="-4.25978">
        <ele>7.4</ele>
        <time>2020-06-08T15:29:44Z</time>
      </trkpt>
      <trkpt lat="48.35887" lon="-4.25981">
        <ele>7.1</ele>
        <time>2020-06-08T15:29:45Z</time>
      </trkpt>
      <trkpt lat="48.35895" lon="-4.25983">
        <ele>6.9</ele>
        <time>2020-06-08T15:29:46Z</time>
      </trkpt>
      <trkpt lat="48.35903" lon="-4.25985">
        <ele>6.7</ele>
        <time>2020-06-08T15:29:47Z</time>
      </trkpt>
      <trkpt lat="48.35911" lon="-4.25986">
        <ele>6.6</ele>
        <time>2020-06-08T15:29:48Z</time>
      </trkpt>
      <trkpt lat="48.35918" lon="-4.25986">
        <ele>6.5</ele>
        <time>2020-06-08T15:29:49Z</time>
      </trkpt>
      <trkpt lat="48.35926" lon="-4.25986">
        <ele>6.4</ele>
        <time>2020-06-08T15:29:50Z</time>
      </trkpt>
      <trkpt lat="48.35933" lon="-4.25986">
        <ele>6.3</ele>
        <time>2020-06-08T15:29:51Z</time>
      </trkpt>
      <trkpt lat="48.3594" lon="-4.25986">
        <ele>6.1</ele>
        <time>2020-06-08T15:29:52Z</time>
      </trkpt>
      <trkpt lat="48.35946" lon="-4.25986">
        <ele>6</ele>
        <time>2020-06-08T15:29:53Z</time>
      </trkpt>
      <trkpt lat="48.35952" lon="-4.25985">
        <ele>5.9</ele>
        <time>2020-06-08T15:29:54Z</time>
      </trkpt>
      <trkpt lat="48.35957" lon="-4.25985">
        <ele>5.9</ele>
        <time>2020-06-08T15:29:55Z</time>
      </trkpt>
      <trkpt lat="48.35962" lon="-4.25986">
        <ele>5.8</ele>
        <time>2020-06-08T15:29:56Z</time>
      </trkpt>
      <trkpt lat="48.35967" lon="-4.25985">
        <ele>5.8</ele>
        <time>2020-06-08T15:29:57Z</time>
      </trkpt>
      <trkpt lat="48.35972" lon="-4.25986">
        <ele>5.7</ele>
        <time>2020-06-08T15:29:58Z</time>
      </trkpt>
      <trkpt lat="48.35977" lon="-4.25984">
        <ele>5.7</ele>
        <time>2020-06-08T15:29:59Z</time>
      </trkpt>
      <trkpt lat="48.35982" lon="-4.25983">
        <ele>5.7</ele>
        <time>2020-06-08T15:30:00Z</time>
      </trkpt>
      <trkpt lat="48.35986" lon="-4.25981">
        <ele>5.7</ele>
        <time>2020-06-08T15:30:01Z</time>
      </trkpt>
      <trkpt lat="48.35991" lon="-4.2598">
        <ele>5.7</ele>
        <time>2020-06-08T15:30:02Z</time>
      </trkpt>
      <trkpt lat="48.35995" lon="-4.25979">
        <ele>5.7</ele>
        <time>2020-06-08T15:30:03Z</time>
      </trkpt>
      <trkpt lat="48.35999" lon="-4.25978">
        <ele>5.7</ele>
        <time>2020-06-08T15:30:04Z</time>
      </trkpt>
      <trkpt lat="48.36003" lon="-4.25978">
        <ele>5.7</ele>
        <time>2020-06-08T15:30:05Z</time>
      </trkpt>
      <trkpt lat="48.36006" lon="-4.25978">
        <ele>5.7</ele>
        <time>2020-06-08T15:30:06Z</time>
      </trkpt>
      <trkpt lat="48.36009" lon="-4.25977">
        <ele>5.7</ele>
        <time>2020-06-08T15:30:07Z</time>
      </trkpt>
      <trkpt lat="48.36013" lon="-4.25976">
        <ele>5.7</ele>
        <time>2020-06-08T15:30:08Z</time>
      </trkpt>
      <trkpt lat="48.36015" lon="-4.25978">
        <ele>5.7</ele>
        <time>2020-06-08T15:30:09Z</time>
      </trkpt>
      <trkpt lat="48.36019" lon="-4.25977">
        <ele>5.7</ele>
        <time>2020-06-08T15:30:10Z</time>
      </trkpt>
      <trkpt lat="48.36024" lon="-4.25976">
        <ele>5.7</ele>
        <time>2020-06-08T15:30:11Z</time>
      </trkpt>
      <trkpt lat="48.36028" lon="-4.25975">
        <ele>5.7</ele>
        <time>2020-06-08T15:30:12Z</time>
      </trkpt>
      <trkpt lat="48.36032" lon="-4.25976">
        <ele>5.7</ele>
        <time>2020-06-08T15:30:13Z</time>
      </trkpt>
      <trkpt lat="48.36035" lon="-4.25976">
        <ele>5.8</ele>
        <time>2020-06-08T15:30:14Z</time>
      </trkpt>
      <trkpt lat="48.36039" lon="-4.25977">
        <ele>5.8</ele>
        <time>2020-06-08T15:30:15Z</time>
      </trkpt>
      <trkpt lat="48.36042" lon="-4.25977">
        <ele>5.8</ele>
        <time>2020-06-08T15:30:16Z</time>
      </trkpt>
      <trkpt lat="48.36047" lon="-4.25978">
        <ele>5.8</ele>
        <time>2020-06-08T15:30:17Z</time>
      </trkpt>
      <trkpt lat="48.36051" lon="-4.25977">
        <ele>5.9</ele>
        <time>2020-06-08T15:30:18Z</time>
      </trkpt>
      <trkpt lat="48.36056" lon="-4.25977">
        <ele>5.9</ele>
        <time>2020-06-08T15:30:19Z</time>
      </trkpt>
      <trkpt lat="48.36061" lon="-4.25975">
        <ele>5.9</ele>
        <time>2020-06-08T15:30:20Z</time>
      </trkpt>
      <trkpt lat="48.36066" lon="-4.25975">
        <ele>5.9</ele>
        <time>2020-06-08T15:30:21Z</time>
      </trkpt>
      <trkpt lat="48.3607" lon="-4.25974">
        <ele>6</ele>
        <time>2020-06-08T15:30:22Z</time>
      </trkpt>
      <trkpt lat="48.36074" lon="-4.25974">
        <ele>6</ele>
        <time>2020-06-08T15:30:23Z</time>
      </trkpt>
      <trkpt lat="48.36079" lon="-4.25974">
        <ele>6.1</ele>
        <time>2020-06-08T15:30:24Z</time>
      </trkpt>
      <trkpt lat="48.36083" lon="-4.25973">
        <ele>6.1</ele>
        <time>2020-06-08T15:30:25Z</time>
      </trkpt>
      <trkpt lat="48.36087" lon="-4.2597">
        <ele>6.2</ele>
        <time>2020-06-08T15:30:26Z</time>
      </trkpt>
      <trkpt lat="48.36091" lon="-4.25968">
        <ele>6.3</ele>
        <time>2020-06-08T15:30:27Z</time>
      </trkpt>
      <trkpt lat="48.36095" lon="-4.25967">
        <ele>6.3</ele>
        <time>2020-06-08T15:30:28Z</time>
      </trkpt>
      <trkpt lat="48.36099" lon="-4.25967">
        <ele>6.4</ele>
        <time>2020-06-08T15:30:29Z</time>
      </trkpt>
      <trkpt lat="48.36103" lon="-4.25967">
        <ele>6.5</ele>
        <time>2020-06-08T15:30:30Z</time>
      </trkpt>
      <trkpt lat="48.36107" lon="-4.25967">
        <ele>6.5</ele>
        <time>2020-06-08T15:30:31Z</time>
      </trkpt>
      <trkpt lat="48.36111" lon="-4.25968">
        <ele>6.6</ele>
        <time>2020-06-08T15:30:32Z</time>
      </trkpt>
      <trkpt lat="48.36115" lon="-4.25968">
        <ele>6.7</ele>
        <time>2020-06-08T15:30:33Z</time>
      </trkpt>
      <trkpt lat="48.36119" lon="-4.25968">
        <ele>6.8</ele>
        <time>2020-06-08T15:30:34Z</time>
      </trkpt>
      <trkpt lat="48.36122" lon="-4.25968">
        <ele>6.8</ele>
        <time>2020-06-08T15:30:35Z</time>
      </trkpt>
      <trkpt lat="48.36125" lon="-4.25968">
        <ele>6.9</ele>
        <time>2020-06-08T15:30:36Z</time>
      </trkpt>
      <trkpt lat="48.36129" lon="-4.25965">
        <ele>7</ele>
        <time>2020-06-08T15:30:37Z</time>
      </trkpt>
      <trkpt lat="48.3613" lon="-4.25962">
        <ele>7</ele>
        <time>2020-06-08T15:30:38Z</time>
      </trkpt>
      <trkpt lat="48.36133" lon="-4.25962">
        <ele>7.1</ele>
        <time>2020-06-08T15:30:39Z</time>
      </trkpt>
      <trkpt lat="48.36138" lon="-4.25961">
        <ele>7.1</ele>
        <time>2020-06-08T15:30:40Z</time>
      </trkpt>
      <trkpt lat="48.36139" lon="-4.25966">
        <ele>7.2</ele>
        <time>2020-06-08T15:30:41Z</time>
      </trkpt>
      <trkpt lat="48.3614" lon="-4.25971">
        <ele>7.2</ele>
        <time>2020-06-08T15:30:42Z</time>
      </trkpt>
      <trkpt lat="48.36142" lon="-4.25975">
        <ele>7.4</ele>
        <time>2020-06-08T15:30:43Z</time>
      </trkpt>
      <trkpt lat="48.36143" lon="-4.25979">
        <ele>7.3</ele>
        <time>2020-06-08T15:30:44Z</time>
      </trkpt>
      <trkpt lat="48.36143" lon="-4.25984">
        <ele>7.2</ele>
        <time>2020-06-08T15:30:45Z</time>
      </trkpt>
      <trkpt lat="48.36145" lon="-4.2599">
        <ele>7.1</ele>
        <time>2020-06-08T15:30:46Z</time>
      </trkpt>
      <trkpt lat="48.36147" lon="-4.25995">
        <ele>7</ele>
        <time>2020-06-08T15:30:47Z</time>
      </trkpt>
      <trkpt lat="48.3615" lon="-4.26">
        <ele>6.8</ele>
        <time>2020-06-08T15:30:48Z</time>
      </trkpt>
      <trkpt lat="48.3615" lon="-4.26007">
        <ele>6.8</ele>
        <time>2020-06-08T15:30:49Z</time>
      </trkpt>
      <trkpt lat="48.36152" lon="-4.26013">
        <ele>6.7</ele>
        <time>2020-06-08T15:30:50Z</time>
      </trkpt>
      <trkpt lat="48.36153" lon="-4.2602">
        <ele>6.4</ele>
        <time>2020-06-08T15:30:51Z</time>
      </trkpt>
      <trkpt lat="48.36154" lon="-4.26026">
        <ele>6.2</ele>
        <time>2020-06-08T15:30:52Z</time>
      </trkpt>
      <trkpt lat="48.36155" lon="-4.26032">
        <ele>6.1</ele>
        <time>2020-06-08T15:30:53Z</time>
      </trkpt>
      <trkpt lat="48.36156" lon="-4.26038">
        <ele>6</ele>
        <time>2020-06-08T15:30:54Z</time>
      </trkpt>
      <trkpt lat="48.36158" lon="-4.26043">
        <ele>5.9</ele>
        <time>2020-06-08T15:30:55Z</time>
      </trkpt>
      <trkpt lat="48.3616" lon="-4.26049">
        <ele>5.8</ele>
        <time>2020-06-08T15:30:56Z</time>
      </trkpt>
      <trkpt lat="48.3616" lon="-4.26055">
        <ele>5.7</ele>
        <time>2020-06-08T15:30:57Z</time>
      </trkpt>
      <trkpt lat="48.36162" lon="-4.26061">
        <ele>5.7</ele>
        <time>2020-06-08T15:30:58Z</time>
      </trkpt>
      <trkpt lat="48.36163" lon="-4.26068">
        <ele>5.7</ele>
        <time>2020-06-08T15:30:59Z</time>
      </trkpt>
      <trkpt lat="48.36164" lon="-4.26075">
        <ele>5.7</ele>
        <time>2020-06-08T15:31:00Z</time>
      </trkpt>
      <trkpt lat="48.36164" lon="-4.26082">
        <ele>5.7</ele>
        <time>2020-06-08T15:31:01Z</time>
      </trkpt>
      <trkpt lat="48.36165" lon="-4.26089">
        <ele>5.7</ele>
        <time>2020-06-08T15:31:02Z</time>
      </trkpt>
      <trkpt lat="48.36164" lon="-4.26097">
        <ele>5.7</ele>
        <time>2020-06-08T15:31:03Z</time>
      </trkpt>
      <trkpt lat="48.36164" lon="-4.26104">
        <ele>5.8</ele>
        <time>2020-06-08T15:31:04Z</time>
      </trkpt>
      <trkpt lat="48.36163" lon="-4.26111">
        <ele>5.9</ele>
        <time>2020-06-08T15:31:05Z</time>
      </trkpt>
      <trkpt lat="48.36161" lon="-4.26116">
        <ele>6</ele>
        <time>2020-06-08T15:31:06Z</time>
      </trkpt>
      <trkpt lat="48.36161" lon="-4.26122">
        <ele>6.1</ele>
        <time>2020-06-08T15:31:07Z</time>
      </trkpt>
      <trkpt lat="48.3616" lon="-4.26128">
        <ele>6.1</ele>
        <time>2020-06-08T15:31:08Z</time>
      </trkpt>
      <trkpt lat="48.36159" lon="-4.26132">
        <ele>6.3</ele>
        <time>2020-06-08T15:31:09Z</time>
      </trkpt>
      <trkpt lat="48.36158" lon="-4.26137">
        <ele>6.2</ele>
        <time>2020-06-08T15:31:10Z</time>
      </trkpt>
      <trkpt lat="48.36156" lon="-4.26143">
        <ele>6.2</ele>
        <time>2020-06-08T15:31:11Z</time>
      </trkpt>
      <trkpt lat="48.36154" lon="-4.26148">
        <ele>6.1</ele>
        <time>2020-06-08T15:31:12Z</time>
      </trkpt>
      <trkpt lat="48.36152" lon="-4.26154">
        <ele>6</ele>
        <time>2020-06-08T15:31:13Z</time>
      </trkpt>
      <trkpt lat="48.36151" lon="-4.2616">
        <ele>5.9</ele>
        <time>2020-06-08T15:31:14Z</time>
      </trkpt>
      <trkpt lat="48.36149" lon="-4.26166">
        <ele>5.9</ele>
        <time>2020-06-08T15:31:15Z</time>
      </trkpt>
      <trkpt lat="48.36148" lon="-4.26172">
        <ele>5.9</ele>
        <time>2020-06-08T15:31:16Z</time>
      </trkpt>
      <trkpt lat="48.36147" lon="-4.26178">
        <ele>5.8</ele>
        <time>2020-06-08T15:31:17Z</time>
      </trkpt>
      <trkpt lat="48.36145" lon="-4.26185">
        <ele>5.9</ele>
        <time>2020-06-08T15:31:18Z</time>
      </trkpt>
      <trkpt lat="48.36145" lon="-4.26192">
        <ele>5.9</ele>
        <time>2020-06-08T15:31:19Z</time>
      </trkpt>
      <trkpt lat="48.36143" lon="-4.26198">
        <ele>5.9</ele>
        <time>2020-06-08T15:31:20Z</time>
      </trkpt>
      <trkpt lat="48.36143" lon="-4.26204">
        <ele>6</ele>
        <time>2020-06-08T15:31:21Z</time>
      </trkpt>
      <trkpt lat="48.36141" lon="-4.2621">
        <ele>6.1</ele>
        <time>2020-06-08T15:31:22Z</time>
      </trkpt>
      <trkpt lat="48.3614" lon="-4.26216">
        <ele>6.1</ele>
        <time>2020-06-08T15:31:23Z</time>
      </trkpt>
      <trkpt lat="48.36139" lon="-4.26221">
        <ele>6.2</ele>
        <time>2020-06-08T15:31:24Z</time>
      </trkpt>
      <trkpt lat="48.36137" lon="-4.26227">
        <ele>6.3</ele>
        <time>2020-06-08T15:31:25Z</time>
      </trkpt>
      <trkpt lat="48.36136" lon="-4.26232">
        <ele>6.3</ele>
        <time>2020-06-08T15:31:26Z</time>
      </trkpt>
      <trkpt lat="48.36135" lon="-4.26236">
        <ele>6.4</ele>
        <time>2020-06-08T15:31:27Z</time>
      </trkpt>
      <trkpt lat="48.36134" lon="-4.26241">
        <ele>6.5</ele>
        <time>2020-06-08T15:31:28Z</time>
      </trkpt>
      <trkpt lat="48.36133" lon="-4.26247">
        <ele>6.6</ele>
        <time>2020-06-08T15:31:29Z</time>
      </trkpt>
      <trkpt lat="48.36131" lon="-4.26251">
        <ele>6.7</ele>
        <time>2020-06-08T15:31:30Z</time>
      </trkpt>
      <trkpt lat="48.3613" lon="-4.26256">
        <ele>6.8</ele>
        <time>2020-06-08T15:31:31Z</time>
      </trkpt>
      <trkpt lat="48.36129" lon="-4.26261">
        <ele>6.9</ele>
        <time>2020-06-08T15:31:32Z</time>
      </trkpt>
      <trkpt lat="48.36127" lon="-4.26265">
        <ele>7</ele>
        <time>2020-06-08T15:31:33Z</time>
      </trkpt>
      <trkpt lat="48.36126" lon="-4.26271">
        <ele>7.1</ele>
        <time>2020-06-08T15:31:34Z</time>
      </trkpt>
      <trkpt lat="48.36125" lon="-4.26277">
        <ele>7.2</ele>
        <time>2020-06-08T15:31:35Z</time>
      </trkpt>
      <trkpt lat="48.36123" lon="-4.26282">
        <ele>7.3</ele>
        <time>2020-06-08T15:31:36Z</time>
      </trkpt>
      <trkpt lat="48.36122" lon="-4.26288">
        <ele>7.4</ele>
        <time>2020-06-08T15:31:37Z</time>
      </trkpt>
      <trkpt lat="48.36121" lon="-4.26293">
        <ele>7.5</ele>
        <time>2020-06-08T15:31:38Z</time>
      </trkpt>
      <trkpt lat="48.36119" lon="-4.26299">
        <ele>7.6</ele>
        <time>2020-06-08T15:31:39Z</time>
      </trkpt>
      <trkpt lat="48.36119" lon="-4.26306">
        <ele>7.7</ele>
        <time>2020-06-08T15:31:40Z</time>
      </trkpt>
      <trkpt lat="48.36116" lon="-4.26311">
        <ele>7.8</ele>
        <time>2020-06-08T15:31:41Z</time>
      </trkpt>
      <trkpt lat="48.36114" lon="-4.26316">
        <ele>7.8</ele>
        <time>2020-06-08T15:31:42Z</time>
      </trkpt>
      <trkpt lat="48.36112" lon="-4.2632">
        <ele>7.8</ele>
        <time>2020-06-08T15:31:43Z</time>
      </trkpt>
      <trkpt lat="48.3611" lon="-4.26324">
        <ele>7.8</ele>
        <time>2020-06-08T15:31:44Z</time>
      </trkpt>
      <trkpt lat="48.36108" lon="-4.26329">
        <ele>8</ele>
        <time>2020-06-08T15:31:45Z</time>
      </trkpt>
      <trkpt lat="48.36106" lon="-4.26333">
        <ele>8.3</ele>
        <time>2020-06-08T15:31:46Z</time>
      </trkpt>
      <trkpt lat="48.36103" lon="-4.26337">
        <ele>8.5</ele>
        <time>2020-06-08T15:31:47Z</time>
      </trkpt>
      <trkpt lat="48.36101" lon="-4.26342">
        <ele>8.8</ele>
        <time>2020-06-08T15:31:48Z</time>
      </trkpt>
      <trkpt lat="48.36097" lon="-4.26345">
        <ele>9.1</ele>
        <time>2020-06-08T15:31:49Z</time>
      </trkpt>
      <trkpt lat="48.36094" lon="-4.2635">
        <ele>9.4</ele>
        <time>2020-06-08T15:31:50Z</time>
      </trkpt>
      <trkpt lat="48.36092" lon="-4.26355">
        <ele>9.7</ele>
        <time>2020-06-08T15:31:51Z</time>
      </trkpt>
      <trkpt lat="48.36092" lon="-4.26361">
        <ele>9.9</ele>
        <time>2020-06-08T15:31:52Z</time>
      </trkpt>
      <trkpt lat="48.3609" lon="-4.26365">
        <ele>10.2</ele>
        <time>2020-06-08T15:31:53Z</time>
      </trkpt>
      <trkpt lat="48.36089" lon="-4.2637">
        <ele>10.6</ele>
        <time>2020-06-08T15:31:54Z</time>
      </trkpt>
      <trkpt lat="48.36087" lon="-4.26375">
        <ele>10.4</ele>
        <time>2020-06-08T15:31:55Z</time>
      </trkpt>
      <trkpt lat="48.36086" lon="-4.2638">
        <ele>10.3</ele>
        <time>2020-06-08T15:31:56Z</time>
      </trkpt>
      <trkpt lat="48.36085" lon="-4.26384">
        <ele>10.3</ele>
        <time>2020-06-08T15:31:57Z</time>
      </trkpt>
      <trkpt lat="48.36084" lon="-4.26388">
        <ele>10.4</ele>
        <time>2020-06-08T15:31:58Z</time>
      </trkpt>
      <trkpt lat="48.36083" lon="-4.26392">
        <ele>10.5</ele>
        <time>2020-06-08T15:31:59Z</time>
      </trkpt>
      <trkpt lat="48.36081" lon="-4.26396">
        <ele>10.6</ele>
        <time>2020-06-08T15:32:00Z</time>
      </trkpt>
      <trkpt lat="48.36079" lon="-4.26399">
        <ele>10.7</ele>
        <time>2020-06-08T15:32:01Z</time>
      </trkpt>
      <trkpt lat="48.36077" lon="-4.26405">
        <ele>10.9</ele>
        <time>2020-06-08T15:32:02Z</time>
      </trkpt>
      <trkpt lat="48.36076" lon="-4.26406">
        <ele>10.9</ele>
        <time>2020-06-08T15:32:03Z</time>
      </trkpt>
      <trkpt lat="48.36075" lon="-4.26411">
        <ele>11.1</ele>
        <time>2020-06-08T15:32:04Z</time>
      </trkpt>
      <trkpt lat="48.36073" lon="-4.26415">
        <ele>11.2</ele>
        <time>2020-06-08T15:32:05Z</time>
      </trkpt>
      <trkpt lat="48.36073" lon="-4.2642">
        <ele>11.3</ele>
        <time>2020-06-08T15:32:06Z</time>
      </trkpt>
      <trkpt lat="48.36072" lon="-4.26425">
        <ele>11.5</ele>
        <time>2020-06-08T15:32:07Z</time>
      </trkpt>
      <trkpt lat="48.36072" lon="-4.26427">
        <ele>11.5</ele>
        <time>2020-06-08T15:32:08Z</time>
      </trkpt>
      <trkpt lat="48.36071" lon="-4.26433">
        <ele>11.7</ele>
        <time>2020-06-08T15:32:09Z</time>
      </trkpt>
      <trkpt lat="48.36071" lon="-4.26435">
        <ele>11.7</ele>
        <time>2020-06-08T15:32:10Z</time>
      </trkpt>
      <trkpt lat="48.3607" lon="-4.26439">
        <ele>11.8</ele>
        <time>2020-06-08T15:32:11Z</time>
      </trkpt>
      <trkpt lat="48.36068" lon="-4.26444">
        <ele>12</ele>
        <time>2020-06-08T15:32:12Z</time>
      </trkpt>
      <trkpt lat="48.36068" lon="-4.26448">
        <ele>12.1</ele>
        <time>2020-06-08T15:32:13Z</time>
      </trkpt>
      <trkpt lat="48.36066" lon="-4.26454">
        <ele>12.3</ele>
        <time>2020-06-08T15:32:14Z</time>
      </trkpt>
      <trkpt lat="48.36065" lon="-4.26455">
        <ele>12.3</ele>
        <time>2020-06-08T15:32:15Z</time>
      </trkpt>
      <trkpt lat="48.36063" lon="-4.26458">
        <ele>12.4</ele>
        <time>2020-06-08T15:32:16Z</time>
      </trkpt>
      <trkpt lat="48.36061" lon="-4.26462">
        <ele>12.6</ele>
        <time>2020-06-08T15:32:17Z</time>
      </trkpt>
      <trkpt lat="48.3606" lon="-4.26466">
        <ele>12.7</ele>
        <time>2020-06-08T15:32:18Z</time>
      </trkpt>
      <trkpt lat="48.3606" lon="-4.2647">
        <ele>12.8</ele>
        <time>2020-06-08T15:32:19Z</time>
      </trkpt>
      <trkpt lat="48.36059" lon="-4.26475">
        <ele>12.9</ele>
        <time>2020-06-08T15:32:20Z</time>
      </trkpt>
      <trkpt lat="48.36059" lon="-4.2648">
        <ele>13.1</ele>
        <time>2020-06-08T15:32:21Z</time>
      </trkpt>
      <trkpt lat="48.36057" lon="-4.26483">
        <ele>13.2</ele>
        <time>2020-06-08T15:32:22Z</time>
      </trkpt>
      <trkpt lat="48.36055" lon="-4.26488">
        <ele>13.3</ele>
        <time>2020-06-08T15:32:23Z</time>
      </trkpt>
      <trkpt lat="48.36054" lon="-4.26489">
        <ele>13.4</ele>
        <time>2020-06-08T15:32:24Z</time>
      </trkpt>
      <trkpt lat="48.36053" lon="-4.26493">
        <ele>13.5</ele>
        <time>2020-06-08T15:32:25Z</time>
      </trkpt>
      <trkpt lat="48.36052" lon="-4.26498">
        <ele>13.6</ele>
        <time>2020-06-08T15:32:26Z</time>
      </trkpt>
      <trkpt lat="48.36052" lon="-4.26502">
        <ele>13.7</ele>
        <time>2020-06-08T15:32:27Z</time>
      </trkpt>
      <trkpt lat="48.36052" lon="-4.26507">
        <ele>13.8</ele>
        <time>2020-06-08T15:32:28Z</time>
      </trkpt>
      <trkpt lat="48.36052" lon="-4.26513">
        <ele>13.9</ele>
        <time>2020-06-08T15:32:29Z</time>
      </trkpt>
      <trkpt lat="48.36053" lon="-4.26515">
        <ele>13.9</ele>
        <time>2020-06-08T15:32:30Z</time>
      </trkpt>
      <trkpt lat="48.36052" lon="-4.2652">
        <ele>13.9</ele>
        <time>2020-06-08T15:32:31Z</time>
      </trkpt>
      <trkpt lat="48.36053" lon="-4.26524">
        <ele>14</ele>
        <time>2020-06-08T15:32:32Z</time>
      </trkpt>
      <trkpt lat="48.36053" lon="-4.26529">
        <ele>14.1</ele>
        <time>2020-06-08T15:32:33Z</time>
      </trkpt>
      <trkpt lat="48.36053" lon="-4.26534">
        <ele>14.1</ele>
        <time>2020-06-08T15:32:34Z</time>
      </trkpt>
      <trkpt lat="48.36053" lon="-4.26539">
        <ele>14.2</ele>
        <time>2020-06-08T15:32:35Z</time>
      </trkpt>
      <trkpt lat="48.36055" lon="-4.26543">
        <ele>14.2</ele>
        <time>2020-06-08T15:32:36Z</time>
      </trkpt>
      <trkpt lat="48.36055" lon="-4.26545">
        <ele>14.2</ele>
        <time>2020-06-08T15:32:37Z</time>
      </trkpt>
      <trkpt lat="48.36056" lon="-4.26549">
        <ele>14.2</ele>
        <time>2020-06-08T15:32:38Z</time>
      </trkpt>
      <trkpt lat="48.36058" lon="-4.26552">
        <ele>14.3</ele>
        <time>2020-06-08T15:32:39Z</time>
      </trkpt>
      <trkpt lat="48.3606" lon="-4.26556">
        <ele>14.3</ele>
        <time>2020-06-08T15:32:40Z</time>
      </trkpt>
      <trkpt lat="48.36062" lon="-4.26561">
        <ele>14.4</ele>
        <time>2020-06-08T15:32:41Z</time>
      </trkpt>
      <trkpt lat="48.36064" lon="-4.26565">
        <ele>14.4</ele>
        <time>2020-06-08T15:32:42Z</time>
      </trkpt>
      <trkpt lat="48.36067" lon="-4.26568">
        <ele>14.5</ele>
        <time>2020-06-08T15:32:43Z</time>
      </trkpt>
      <trkpt lat="48.3607" lon="-4.26573">
        <ele>14.6</ele>
        <time>2020-06-08T15:32:44Z</time>
      </trkpt>
      <trkpt lat="48.36072" lon="-4.26576">
        <ele>14.7</ele>
        <time>2020-06-08T15:32:45Z</time>
      </trkpt>
      <trkpt lat="48.36076" lon="-4.26578">
        <ele>14.8</ele>
        <time>2020-06-08T15:32:46Z</time>
      </trkpt>
      <trkpt lat="48.36079" lon="-4.2658">
        <ele>14.8</ele>
        <time>2020-06-08T15:32:47Z</time>
      </trkpt>
      <trkpt lat="48.36082" lon="-4.26582">
        <ele>14.9</ele>
        <time>2020-06-08T15:32:48Z</time>
      </trkpt>
      <trkpt lat="48.36085" lon="-4.26586">
        <ele>15</ele>
        <time>2020-06-08T15:32:49Z</time>
      </trkpt>
      <trkpt lat="48.36087" lon="-4.26589">
        <ele>15.1</ele>
        <time>2020-06-08T15:32:50Z</time>
      </trkpt>
      <trkpt lat="48.36089" lon="-4.26592">
        <ele>15.1</ele>
        <time>2020-06-08T15:32:51Z</time>
      </trkpt>
      <trkpt lat="48.36092" lon="-4.26594">
        <ele>15.2</ele>
        <time>2020-06-08T15:32:52Z</time>
      </trkpt>
      <trkpt lat="48.36095" lon="-4.26597">
        <ele>15.3</ele>
        <time>2020-06-08T15:32:53Z</time>
      </trkpt>
      <trkpt lat="48.36097" lon="-4.266">
        <ele>15.5</ele>
        <time>2020-06-08T15:32:54Z</time>
      </trkpt>
      <trkpt lat="48.36101" lon="-4.26602">
        <ele>15.6</ele>
        <time>2020-06-08T15:32:55Z</time>
      </trkpt>
      <trkpt lat="48.36103" lon="-4.26604">
        <ele>15.7</ele>
        <time>2020-06-08T15:32:56Z</time>
      </trkpt>
      <trkpt lat="48.36106" lon="-4.26606">
        <ele>15.8</ele>
        <time>2020-06-08T15:32:57Z</time>
      </trkpt>
      <trkpt lat="48.36109" lon="-4.26609">
        <ele>16</ele>
        <time>2020-06-08T15:32:58Z</time>
      </trkpt>
      <trkpt lat="48.36111" lon="-4.26611">
        <ele>16.1</ele>
        <time>2020-06-08T15:32:59Z</time>
      </trkpt>
      <trkpt lat="48.36115" lon="-4.26614">
        <ele>16.3</ele>
        <time>2020-06-08T15:33:00Z</time>
      </trkpt>
      <trkpt lat="48.36116" lon="-4.26615">
        <ele>16.3</ele>
        <time>2020-06-08T15:33:01Z</time>
      </trkpt>
      <trkpt lat="48.36119" lon="-4.26617">
        <ele>16.5</ele>
        <time>2020-06-08T15:33:02Z</time>
      </trkpt>
      <trkpt lat="48.36121" lon="-4.26621">
        <ele>16.6</ele>
        <time>2020-06-08T15:33:03Z</time>
      </trkpt>
      <trkpt lat="48.36123" lon="-4.26624">
        <ele>16.7</ele>
        <time>2020-06-08T15:33:04Z</time>
      </trkpt>
      <trkpt lat="48.36126" lon="-4.26626">
        <ele>16.8</ele>
        <time>2020-06-08T15:33:05Z</time>
      </trkpt>
      <trkpt lat="48.36128" lon="-4.26629">
        <ele>17</ele>
        <time>2020-06-08T15:33:06Z</time>
      </trkpt>
      <trkpt lat="48.3613" lon="-4.26632">
        <ele>17.1</ele>
        <time>2020-06-08T15:33:07Z</time>
      </trkpt>
      <trkpt lat="48.36132" lon="-4.26635">
        <ele>17.2</ele>
        <time>2020-06-08T15:33:08Z</time>
      </trkpt>
      <trkpt lat="48.36135" lon="-4.26638">
        <ele>17.4</ele>
        <time>2020-06-08T15:33:09Z</time>
      </trkpt>
      <trkpt lat="48.36137" lon="-4.26641">
        <ele>17.6</ele>
        <time>2020-06-08T15:33:10Z</time>
      </trkpt>
      <trkpt lat="48.36139" lon="-4.26645">
        <ele>17.6</ele>
        <time>2020-06-08T15:33:11Z</time>
      </trkpt>
      <trkpt lat="48.36141" lon="-4.26648">
        <ele>17.7</ele>
        <time>2020-06-08T15:33:12Z</time>
      </trkpt>
      <trkpt lat="48.36142" lon="-4.26652">
        <ele>17.8</ele>
        <time>2020-06-08T15:33:13Z</time>
      </trkpt>
      <trkpt lat="48.36143" lon="-4.26657">
        <ele>17.9</ele>
        <time>2020-06-08T15:33:14Z</time>
      </trkpt>
      <trkpt lat="48.36145" lon="-4.2666">
        <ele>18</ele>
        <time>2020-06-08T15:33:15Z</time>
      </trkpt>
      <trkpt lat="48.36147" lon="-4.26665">
        <ele>18.1</ele>
        <time>2020-06-08T15:33:16Z</time>
      </trkpt>
      <trkpt lat="48.36147" lon="-4.26667">
        <ele>18.1</ele>
        <time>2020-06-08T15:33:17Z</time>
      </trkpt>
      <trkpt lat="48.36148" lon="-4.26673">
        <ele>18.2</ele>
        <time>2020-06-08T15:33:18Z</time>
      </trkpt>
      <trkpt lat="48.36148" lon="-4.26675">
        <ele>18.2</ele>
        <time>2020-06-08T15:33:19Z</time>
      </trkpt>
      <trkpt lat="48.36149" lon="-4.26681">
        <ele>18.3</ele>
        <time>2020-06-08T15:33:20Z</time>
      </trkpt>
      <trkpt lat="48.36148" lon="-4.26683">
        <ele>18.5</ele>
        <time>2020-06-08T15:33:21Z</time>
      </trkpt>
      <trkpt lat="48.36149" lon="-4.26689">
        <ele>18.6</ele>
        <time>2020-06-08T15:33:22Z</time>
      </trkpt>
      <trkpt lat="48.36149" lon="-4.2669">
        <ele>18.6</ele>
        <time>2020-06-08T15:33:23Z</time>
      </trkpt>
      <trkpt lat="48.36149" lon="-4.26695">
        <ele>18.7</ele>
        <time>2020-06-08T15:33:24Z</time>
      </trkpt>
      <trkpt lat="48.36149" lon="-4.26697">
        <ele>18.8</ele>
        <time>2020-06-08T15:33:25Z</time>
      </trkpt>
      <trkpt lat="48.36149" lon="-4.26703">
        <ele>18.9</ele>
        <time>2020-06-08T15:33:26Z</time>
      </trkpt>
      <trkpt lat="48.36149" lon="-4.26704">
        <ele>18.9</ele>
        <time>2020-06-08T15:33:27Z</time>
      </trkpt>
      <trkpt lat="48.36149" lon="-4.26709">
        <ele>19</ele>
        <time>2020-06-08T15:33:28Z</time>
      </trkpt>
      <trkpt lat="48.36149" lon="-4.26711">
        <ele>19.1</ele>
        <time>2020-06-08T15:33:29Z</time>
      </trkpt>
      <trkpt lat="48.36149" lon="-4.26715">
        <ele>19.2</ele>
        <time>2020-06-08T15:33:30Z</time>
      </trkpt>
      <trkpt lat="48.36149" lon="-4.26717">
        <ele>19.2</ele>
        <time>2020-06-08T15:33:31Z</time>
      </trkpt>
      <trkpt lat="48.3615" lon="-4.26722">
        <ele>19.3</ele>
        <time>2020-06-08T15:33:32Z</time>
      </trkpt>
      <trkpt lat="48.36149" lon="-4.26724">
        <ele>19.4</ele>
        <time>2020-06-08T15:33:33Z</time>
      </trkpt>
      <trkpt lat="48.3615" lon="-4.26728">
        <ele>19.5</ele>
        <time>2020-06-08T15:33:34Z</time>
      </trkpt>
      <trkpt lat="48.36149" lon="-4.26732">
        <ele>19.6</ele>
        <time>2020-06-08T15:33:35Z</time>
      </trkpt>
      <trkpt lat="48.36149" lon="-4.26738">
        <ele>19.7</ele>
        <time>2020-06-08T15:33:36Z</time>
      </trkpt>
      <trkpt lat="48.36149" lon="-4.2674">
        <ele>19.7</ele>
        <time>2020-06-08T15:33:37Z</time>
      </trkpt>
      <trkpt lat="48.36149" lon="-4.26745">
        <ele>19.9</ele>
        <time>2020-06-08T15:33:38Z</time>
      </trkpt>
      <trkpt lat="48.36149" lon="-4.26747">
        <ele>19.9</ele>
        <time>2020-06-08T15:33:39Z</time>
      </trkpt>
      <trkpt lat="48.36149" lon="-4.26753">
        <ele>20</ele>
        <time>2020-06-08T15:33:40Z</time>
      </trkpt>
      <trkpt lat="48.36149" lon="-4.26755">
        <ele>20</ele>
        <time>2020-06-08T15:33:41Z</time>
      </trkpt>
      <trkpt lat="48.36148" lon="-4.26761">
        <ele>20.2</ele>
        <time>2020-06-08T15:33:42Z</time>
      </trkpt>
      <trkpt lat="48.36149" lon="-4.26763">
        <ele>20.2</ele>
        <time>2020-06-08T15:33:43Z</time>
      </trkpt>
      <trkpt lat="48.36148" lon="-4.26768">
        <ele>20.3</ele>
        <time>2020-06-08T15:33:44Z</time>
      </trkpt>
      <trkpt lat="48.36148" lon="-4.2677">
        <ele>20.3</ele>
        <time>2020-06-08T15:33:45Z</time>
      </trkpt>
      <trkpt lat="48.36148" lon="-4.26774">
        <ele>20.4</ele>
        <time>2020-06-08T15:33:46Z</time>
      </trkpt>
      <trkpt lat="48.36147" lon="-4.26779">
        <ele>20.4</ele>
        <time>2020-06-08T15:33:47Z</time>
      </trkpt>
      <trkpt lat="48.36147" lon="-4.26784">
        <ele>20.5</ele>
        <time>2020-06-08T15:33:48Z</time>
      </trkpt>
      <trkpt lat="48.36147" lon="-4.26788">
        <ele>20.5</ele>
        <time>2020-06-08T15:33:49Z</time>
      </trkpt>
      <trkpt lat="48.36146" lon="-4.26793">
        <ele>20.6</ele>
        <time>2020-06-08T15:33:50Z</time>
      </trkpt>
      <trkpt lat="48.36146" lon="-4.26797">
        <ele>20.6</ele>
        <time>2020-06-08T15:33:51Z</time>
      </trkpt>
      <trkpt lat="48.36145" lon="-4.26801">
        <ele>20.6</ele>
        <time>2020-06-08T15:33:52Z</time>
      </trkpt>
      <trkpt lat="48.36145" lon="-4.26805">
        <ele>20.6</ele>
        <time>2020-06-08T15:33:53Z</time>
      </trkpt>
      <trkpt lat="48.36144" lon="-4.26809">
        <ele>20.6</ele>
        <time>2020-06-08T15:33:54Z</time>
      </trkpt>
      <trkpt lat="48.36143" lon="-4.26814">
        <ele>20.6</ele>
        <time>2020-06-08T15:33:55Z</time>
      </trkpt>
      <trkpt lat="48.36143" lon="-4.26819">
        <ele>20.6</ele>
        <time>2020-06-08T15:33:56Z</time>
      </trkpt>
      <trkpt lat="48.36144" lon="-4.26824">
        <ele>20.5</ele>
        <time>2020-06-08T15:33:57Z</time>
      </trkpt>
      <trkpt lat="48.36144" lon="-4.26829">
        <ele>20.5</ele>
        <time>2020-06-08T15:33:58Z</time>
      </trkpt>
      <trkpt lat="48.36143" lon="-4.26833">
        <ele>20.4</ele>
        <time>2020-06-08T15:33:59Z</time>
      </trkpt>
      <trkpt lat="48.36143" lon="-4.26838">
        <ele>20.3</ele>
        <time>2020-06-08T15:34:00Z</time>
      </trkpt>
      <trkpt lat="48.36142" lon="-4.26843">
        <ele>20.3</ele>
        <time>2020-06-08T15:34:01Z</time>
      </trkpt>
      <trkpt lat="48.36141" lon="-4.26848">
        <ele>20.2</ele>
        <time>2020-06-08T15:34:02Z</time>
      </trkpt>
      <trkpt lat="48.3614" lon="-4.26854">
        <ele>20.1</ele>
        <time>2020-06-08T15:34:03Z</time>
      </trkpt>
      <trkpt lat="48.36139" lon="-4.26859">
        <ele>20</ele>
        <time>2020-06-08T15:34:04Z</time>
      </trkpt>
      <trkpt lat="48.36138" lon="-4.26865">
        <ele>19.9</ele>
        <time>2020-06-08T15:34:05Z</time>
      </trkpt>
      <trkpt lat="48.36135" lon="-4.2687">
        <ele>19.7</ele>
        <time>2020-06-08T15:34:06Z</time>
      </trkpt>
      <trkpt lat="48.36134" lon="-4.26876">
        <ele>19.6</ele>
        <time>2020-06-08T15:34:07Z</time>
      </trkpt>
      <trkpt lat="48.36133" lon="-4.26883">
        <ele>19.5</ele>
        <time>2020-06-08T15:34:08Z</time>
      </trkpt>
      <trkpt lat="48.36132" lon="-4.2689">
        <ele>19.4</ele>
        <time>2020-06-08T15:34:09Z</time>
      </trkpt>
      <trkpt lat="48.36131" lon="-4.26896">
        <ele>19.3</ele>
        <time>2020-06-08T15:34:10Z</time>
      </trkpt>
      <trkpt lat="48.3613" lon="-4.26903">
        <ele>19.1</ele>
        <time>2020-06-08T15:34:11Z</time>
      </trkpt>
      <trkpt lat="48.36128" lon="-4.2691">
        <ele>19</ele>
        <time>2020-06-08T15:34:12Z</time>
      </trkpt>
      <trkpt lat="48.36128" lon="-4.26917">
        <ele>18.8</ele>
        <time>2020-06-08T15:34:13Z</time>
      </trkpt>
      <trkpt lat="48.36127" lon="-4.26924">
        <ele>18.7</ele>
        <time>2020-06-08T15:34:14Z</time>
      </trkpt>
      <trkpt lat="48.36126" lon="-4.26931">
        <ele>18.5</ele>
        <time>2020-06-08T15:34:15Z</time>
      </trkpt>
      <trkpt lat="48.36124" lon="-4.26937">
        <ele>18.4</ele>
        <time>2020-06-08T15:34:16Z</time>
      </trkpt>
      <trkpt lat="48.36123" lon="-4.26944">
        <ele>18.2</ele>
        <time>2020-06-08T15:34:17Z</time>
      </trkpt>
      <trkpt lat="48.36122" lon="-4.26951">
        <ele>18</ele>
        <time>2020-06-08T15:34:18Z</time>
      </trkpt>
      <trkpt lat="48.36121" lon="-4.26958">
        <ele>17.8</ele>
        <time>2020-06-08T15:34:19Z</time>
      </trkpt>
      <trkpt lat="48.36119" lon="-4.26966">
        <ele>17.6</ele>
        <time>2020-06-08T15:34:20Z</time>
      </trkpt>
      <trkpt lat="48.36117" lon="-4.26974">
        <ele>17.4</ele>
        <time>2020-06-08T15:34:21Z</time>
      </trkpt>
      <trkpt lat="48.36115" lon="-4.26982">
        <ele>17.2</ele>
        <time>2020-06-08T15:34:22Z</time>
      </trkpt>
      <trkpt lat="48.36114" lon="-4.2699">
        <ele>16.9</ele>
        <time>2020-06-08T15:34:23Z</time>
      </trkpt>
      <trkpt lat="48.36112" lon="-4.26999">
        <ele>16.7</ele>
        <time>2020-06-08T15:34:24Z</time>
      </trkpt>
      <trkpt lat="48.3611" lon="-4.27008">
        <ele>16.5</ele>
        <time>2020-06-08T15:34:25Z</time>
      </trkpt>
      <trkpt lat="48.3611" lon="-4.27018">
        <ele>16.3</ele>
        <time>2020-06-08T15:34:26Z</time>
      </trkpt>
      <trkpt lat="48.36109" lon="-4.27027">
        <ele>16.1</ele>
        <time>2020-06-08T15:34:27Z</time>
      </trkpt>
      <trkpt lat="48.36109" lon="-4.27037">
        <ele>15.9</ele>
        <time>2020-06-08T15:34:28Z</time>
      </trkpt>
      <trkpt lat="48.36109" lon="-4.27048">
        <ele>15.8</ele>
        <time>2020-06-08T15:34:29Z</time>
      </trkpt>
      <trkpt lat="48.36109" lon="-4.27059">
        <ele>15.8</ele>
        <time>2020-06-08T15:34:30Z</time>
      </trkpt>
      <trkpt lat="48.36109" lon="-4.2707">
        <ele>15.8</ele>
        <time>2020-06-08T15:34:31Z</time>
      </trkpt>
      <trkpt lat="48.3611" lon="-4.27081">
        <ele>15.8</ele>
        <time>2020-06-08T15:34:32Z</time>
      </trkpt>
      <trkpt lat="48.36111" lon="-4.27092">
        <ele>16</ele>
        <time>2020-06-08T15:34:33Z</time>
      </trkpt>
      <trkpt lat="48.36111" lon="-4.27103">
        <ele>16.3</ele>
        <time>2020-06-08T15:34:34Z</time>
      </trkpt>
      <trkpt lat="48.36112" lon="-4.27114">
        <ele>16.5</ele>
        <time>2020-06-08T15:34:35Z</time>
      </trkpt>
      <trkpt lat="48.36112" lon="-4.27124">
        <ele>16.9</ele>
        <time>2020-06-08T15:34:36Z</time>
      </trkpt>
      <trkpt lat="48.36113" lon="-4.27134">
        <ele>16.9</ele>
        <time>2020-06-08T15:34:37Z</time>
      </trkpt>
      <trkpt lat="48.36114" lon="-4.27144">
        <ele>16.9</ele>
        <time>2020-06-08T15:34:38Z</time>
      </trkpt>
      <trkpt lat="48.36115" lon="-4.27153">
        <ele>17.1</ele>
        <time>2020-06-08T15:34:39Z</time>
      </trkpt>
      <trkpt lat="48.36117" lon="-4.27161">
        <ele>17.3</ele>
        <time>2020-06-08T15:34:40Z</time>
      </trkpt>
      <trkpt lat="48.36117" lon="-4.2717">
        <ele>17.5</ele>
        <time>2020-06-08T15:34:41Z</time>
      </trkpt>
      <trkpt lat="48.36118" lon="-4.27178">
        <ele>17.8</ele>
        <time>2020-06-08T15:34:42Z</time>
      </trkpt>
      <trkpt lat="48.36119" lon="-4.27186">
        <ele>18</ele>
        <time>2020-06-08T15:34:43Z</time>
      </trkpt>
      <trkpt lat="48.36118" lon="-4.27193">
        <ele>18.2</ele>
        <time>2020-06-08T15:34:44Z</time>
      </trkpt>
      <trkpt lat="48.36118" lon="-4.272">
        <ele>18.5</ele>
        <time>2020-06-08T15:34:45Z</time>
      </trkpt>
      <trkpt lat="48.36117" lon="-4.27207">
        <ele>18.7</ele>
        <time>2020-06-08T15:34:46Z</time>
      </trkpt>
      <trkpt lat="48.36116" lon="-4.27215">
        <ele>19</ele>
        <time>2020-06-08T15:34:47Z</time>
      </trkpt>
      <trkpt lat="48.36116" lon="-4.27223">
        <ele>19.5</ele>
        <time>2020-06-08T15:34:48Z</time>
      </trkpt>
      <trkpt lat="48.36115" lon="-4.2723">
        <ele>19.9</ele>
        <time>2020-06-08T15:34:49Z</time>
      </trkpt>
      <trkpt lat="48.36116" lon="-4.27237">
        <ele>20.2</ele>
        <time>2020-06-08T15:34:50Z</time>
      </trkpt>
      <trkpt lat="48.36116" lon="-4.27245">
        <ele>20.5</ele>
        <time>2020-06-08T15:34:51Z</time>
      </trkpt>
      <trkpt lat="48.36117" lon="-4.27252">
        <ele>20.8</ele>
        <time>2020-06-08T15:34:52Z</time>
      </trkpt>
      <trkpt lat="48.36116" lon="-4.27258">
        <ele>21.1</ele>
        <time>2020-06-08T15:34:53Z</time>
      </trkpt>
      <trkpt lat="48.36114" lon="-4.27264">
        <ele>21.4</ele>
        <time>2020-06-08T15:34:54Z</time>
      </trkpt>
      <trkpt lat="48.36114" lon="-4.27271">
        <ele>21.7</ele>
        <time>2020-06-08T15:34:55Z</time>
      </trkpt>
      <trkpt lat="48.36113" lon="-4.27278">
        <ele>22</ele>
        <time>2020-06-08T15:34:56Z</time>
      </trkpt>
      <trkpt lat="48.36113" lon="-4.27285">
        <ele>22.3</ele>
        <time>2020-06-08T15:34:57Z</time>
      </trkpt>
      <trkpt lat="48.36111" lon="-4.27291">
        <ele>22.5</ele>
        <time>2020-06-08T15:34:58Z</time>
      </trkpt>
      <trkpt lat="48.3611" lon="-4.27296">
        <ele>22.8</ele>
        <time>2020-06-08T15:34:59Z</time>
      </trkpt>
      <trkpt lat="48.36109" lon="-4.27303">
        <ele>23.1</ele>
        <time>2020-06-08T15:35:00Z</time>
      </trkpt>
      <trkpt lat="48.36107" lon="-4.27308">
        <ele>23.3</ele>
        <time>2020-06-08T15:35:01Z</time>
      </trkpt>
      <trkpt lat="48.36105" lon="-4.27315">
        <ele>23.6</ele>
        <time>2020-06-08T15:35:02Z</time>
      </trkpt>
      <trkpt lat="48.36103" lon="-4.27322">
        <ele>23.9</ele>
        <time>2020-06-08T15:35:03Z</time>
      </trkpt>
      <trkpt lat="48.36101" lon="-4.27328">
        <ele>24.2</ele>
        <time>2020-06-08T15:35:04Z</time>
      </trkpt>
      <trkpt lat="48.36099" lon="-4.27331">
        <ele>24.3</ele>
        <time>2020-06-08T15:35:05Z</time>
      </trkpt>
      <trkpt lat="48.36098" lon="-4.27337">
        <ele>24.6</ele>
        <time>2020-06-08T15:35:06Z</time>
      </trkpt>
      <trkpt lat="48.36097" lon="-4.27342">
        <ele>24.8</ele>
        <time>2020-06-08T15:35:07Z</time>
      </trkpt>
      <trkpt lat="48.36095" lon="-4.27348">
        <ele>25.1</ele>
        <time>2020-06-08T15:35:08Z</time>
      </trkpt>
      <trkpt lat="48.36093" lon="-4.27355">
        <ele>25.4</ele>
        <time>2020-06-08T15:35:09Z</time>
      </trkpt>
      <trkpt lat="48.36092" lon="-4.27361">
        <ele>25.6</ele>
        <time>2020-06-08T15:35:10Z</time>
      </trkpt>
      <trkpt lat="48.36092" lon="-4.27366">
        <ele>25.8</ele>
        <time>2020-06-08T15:35:11Z</time>
      </trkpt>
      <trkpt lat="48.36092" lon="-4.27372">
        <ele>26.1</ele>
        <time>2020-06-08T15:35:12Z</time>
      </trkpt>
      <trkpt lat="48.36092" lon="-4.27378">
        <ele>26.3</ele>
        <time>2020-06-08T15:35:13Z</time>
      </trkpt>
      <trkpt lat="48.36092" lon="-4.27383">
        <ele>26.5</ele>
        <time>2020-06-08T15:35:14Z</time>
      </trkpt>
      <trkpt lat="48.36092" lon="-4.27387">
        <ele>26.7</ele>
        <time>2020-06-08T15:35:15Z</time>
      </trkpt>
      <trkpt lat="48.36092" lon="-4.27393">
        <ele>26.9</ele>
        <time>2020-06-08T15:35:17Z</time>
      </trkpt>
      <trkpt lat="48.36093" lon="-4.27399">
        <ele>27.1</ele>
        <time>2020-06-08T15:35:18Z</time>
      </trkpt>
      <trkpt lat="48.36093" lon="-4.27404">
        <ele>27.6</ele>
        <time>2020-06-08T15:35:19Z</time>
      </trkpt>
      <trkpt lat="48.36094" lon="-4.27409">
        <ele>27.9</ele>
        <time>2020-06-08T15:35:20Z</time>
      </trkpt>
      <trkpt lat="48.36096" lon="-4.27414">
        <ele>28.2</ele>
        <time>2020-06-08T15:35:21Z</time>
      </trkpt>
      <trkpt lat="48.36097" lon="-4.27418">
        <ele>28.4</ele>
        <time>2020-06-08T15:35:22Z</time>
      </trkpt>
      <trkpt lat="48.36099" lon="-4.27422">
        <ele>28.6</ele>
        <time>2020-06-08T15:35:23Z</time>
      </trkpt>
      <trkpt lat="48.361" lon="-4.27427">
        <ele>28.9</ele>
        <time>2020-06-08T15:35:24Z</time>
      </trkpt>
      <trkpt lat="48.36101" lon="-4.27429">
        <ele>29.1</ele>
        <time>2020-06-08T15:35:25Z</time>
      </trkpt>
      <trkpt lat="48.36102" lon="-4.27433">
        <ele>29.3</ele>
        <time>2020-06-08T15:35:26Z</time>
      </trkpt>
      <trkpt lat="48.36103" lon="-4.27437">
        <ele>29.6</ele>
        <time>2020-06-08T15:35:27Z</time>
      </trkpt>
      <trkpt lat="48.36104" lon="-4.27439">
        <ele>29.7</ele>
        <time>2020-06-08T15:35:28Z</time>
      </trkpt>
      <trkpt lat="48.36105" lon="-4.27444">
        <ele>29.9</ele>
        <time>2020-06-08T15:35:29Z</time>
      </trkpt>
      <trkpt lat="48.36106" lon="-4.27445">
        <ele>30</ele>
        <time>2020-06-08T15:35:30Z</time>
      </trkpt>
      <trkpt lat="48.36107" lon="-4.27449">
        <ele>30.3</ele>
        <time>2020-06-08T15:35:31Z</time>
      </trkpt>
      <trkpt lat="48.36108" lon="-4.27452">
        <ele>30.4</ele>
        <time>2020-06-08T15:35:32Z</time>
      </trkpt>
      <trkpt lat="48.3611" lon="-4.27457">
        <ele>30.7</ele>
        <time>2020-06-08T15:35:33Z</time>
      </trkpt>
      <trkpt lat="48.36112" lon="-4.27461">
        <ele>31</ele>
        <time>2020-06-08T15:35:34Z</time>
      </trkpt>
      <trkpt lat="48.36113" lon="-4.27465">
        <ele>31.2</ele>
        <time>2020-06-08T15:35:35Z</time>
      </trkpt>
      <trkpt lat="48.36114" lon="-4.2747">
        <ele>31.5</ele>
        <time>2020-06-08T15:35:36Z</time>
      </trkpt>
      <trkpt lat="48.36115" lon="-4.27474">
        <ele>31.7</ele>
        <time>2020-06-08T15:35:37Z</time>
      </trkpt>
      <trkpt lat="48.36117" lon="-4.27478">
        <ele>32</ele>
        <time>2020-06-08T15:35:38Z</time>
      </trkpt>
      <trkpt lat="48.36119" lon="-4.27481">
        <ele>32.2</ele>
        <time>2020-06-08T15:35:39Z</time>
      </trkpt>
      <trkpt lat="48.36121" lon="-4.27485">
        <ele>32.4</ele>
        <time>2020-06-08T15:35:40Z</time>
      </trkpt>
      <trkpt lat="48.36122" lon="-4.2749">
        <ele>32.7</ele>
        <time>2020-06-08T15:35:41Z</time>
      </trkpt>
      <trkpt lat="48.36122" lon="-4.27492">
        <ele>32.8</ele>
        <time>2020-06-08T15:35:42Z</time>
      </trkpt>
      <trkpt lat="48.36124" lon="-4.27496">
        <ele>33</ele>
        <time>2020-06-08T15:35:43Z</time>
      </trkpt>
      <trkpt lat="48.36125" lon="-4.27503">
        <ele>33.3</ele>
        <time>2020-06-08T15:35:44Z</time>
      </trkpt>
      <trkpt lat="48.36126" lon="-4.27507">
        <ele>33.6</ele>
        <time>2020-06-08T15:35:45Z</time>
      </trkpt>
      <trkpt lat="48.36128" lon="-4.27511">
        <ele>33.8</ele>
        <time>2020-06-08T15:35:46Z</time>
      </trkpt>
      <trkpt lat="48.36129" lon="-4.27516">
        <ele>34</ele>
        <time>2020-06-08T15:35:47Z</time>
      </trkpt>
      <trkpt lat="48.3613" lon="-4.27521">
        <ele>34.3</ele>
        <time>2020-06-08T15:35:48Z</time>
      </trkpt>
      <trkpt lat="48.36131" lon="-4.27526">
        <ele>34.5</ele>
        <time>2020-06-08T15:35:49Z</time>
      </trkpt>
      <trkpt lat="48.36133" lon="-4.27531">
        <ele>34.7</ele>
        <time>2020-06-08T15:35:50Z</time>
      </trkpt>
      <trkpt lat="48.36135" lon="-4.27535">
        <ele>34.9</ele>
        <time>2020-06-08T15:35:51Z</time>
      </trkpt>
      <trkpt lat="48.36136" lon="-4.27539">
        <ele>35.1</ele>
        <time>2020-06-08T15:35:52Z</time>
      </trkpt>
      <trkpt lat="48.36138" lon="-4.27543">
        <ele>35.4</ele>
        <time>2020-06-08T15:35:53Z</time>
      </trkpt>
      <trkpt lat="48.3614" lon="-4.27547">
        <ele>35.6</ele>
        <time>2020-06-08T15:35:54Z</time>
      </trkpt>
      <trkpt lat="48.36141" lon="-4.27549">
        <ele>35.7</ele>
        <time>2020-06-08T15:35:55Z</time>
      </trkpt>
      <trkpt lat="48.36142" lon="-4.27553">
        <ele>35.9</ele>
        <time>2020-06-08T15:35:56Z</time>
      </trkpt>
      <trkpt lat="48.36143" lon="-4.27557">
        <ele>36.1</ele>
        <time>2020-06-08T15:35:57Z</time>
      </trkpt>
      <trkpt lat="48.36144" lon="-4.27561">
        <ele>36.3</ele>
        <time>2020-06-08T15:35:58Z</time>
      </trkpt>
      <trkpt lat="48.36146" lon="-4.27565">
        <ele>36.5</ele>
        <time>2020-06-08T15:35:59Z</time>
      </trkpt>
      <trkpt lat="48.36147" lon="-4.2757">
        <ele>36.8</ele>
        <time>2020-06-08T15:36:00Z</time>
      </trkpt>
      <trkpt lat="48.36149" lon="-4.27573">
        <ele>37</ele>
        <time>2020-06-08T15:36:01Z</time>
      </trkpt>
      <trkpt lat="48.36151" lon="-4.27576">
        <ele>37.2</ele>
        <time>2020-06-08T15:36:02Z</time>
      </trkpt>
      <trkpt lat="48.36154" lon="-4.2758">
        <ele>37.4</ele>
        <time>2020-06-08T15:36:03Z</time>
      </trkpt>
      <trkpt lat="48.36156" lon="-4.27583">
        <ele>37.7</ele>
        <time>2020-06-08T15:36:04Z</time>
      </trkpt>
      <trkpt lat="48.36159" lon="-4.27585">
        <ele>37.9</ele>
        <time>2020-06-08T15:36:05Z</time>
      </trkpt>
      <trkpt lat="48.36161" lon="-4.27588">
        <ele>38.1</ele>
        <time>2020-06-08T15:36:06Z</time>
      </trkpt>
      <trkpt lat="48.36163" lon="-4.27591">
        <ele>38.6</ele>
        <time>2020-06-08T15:36:07Z</time>
      </trkpt>
      <trkpt lat="48.36166" lon="-4.27594">
        <ele>38.6</ele>
        <time>2020-06-08T15:36:08Z</time>
      </trkpt>
      <trkpt lat="48.36169" lon="-4.27596">
        <ele>38.6</ele>
        <time>2020-06-08T15:36:09Z</time>
      </trkpt>
      <trkpt lat="48.36171" lon="-4.27598">
        <ele>38.6</ele>
        <time>2020-06-08T15:36:10Z</time>
      </trkpt>
      <trkpt lat="48.36173" lon="-4.27601">
        <ele>38.6</ele>
        <time>2020-06-08T15:36:11Z</time>
      </trkpt>
      <trkpt lat="48.36175" lon="-4.27603">
        <ele>38.6</ele>
        <time>2020-06-08T15:36:12Z</time>
      </trkpt>
      <trkpt lat="48.36177" lon="-4.27606">
        <ele>38.6</ele>
        <time>2020-06-08T15:36:13Z</time>
      </trkpt>
      <trkpt lat="48.36181" lon="-4.27608">
        <ele>39</ele>
        <time>2020-06-08T15:36:14Z</time>
      </trkpt>
      <trkpt lat="48.36182" lon="-4.27608">
        <ele>39.1</ele>
        <time>2020-06-08T15:36:15Z</time>
      </trkpt>
      <trkpt lat="48.36185" lon="-4.27609">
        <ele>39.3</ele>
        <time>2020-06-08T15:36:16Z</time>
      </trkpt>
      <trkpt lat="48.36187" lon="-4.2761">
        <ele>39.5</ele>
        <time>2020-06-08T15:36:17Z</time>
      </trkpt>
      <trkpt lat="48.36191" lon="-4.27611">
        <ele>39.7</ele>
        <time>2020-06-08T15:36:18Z</time>
      </trkpt>
      <trkpt lat="48.36193" lon="-4.27613">
        <ele>39.8</ele>
        <time>2020-06-08T15:36:19Z</time>
      </trkpt>
      <trkpt lat="48.36196" lon="-4.27614">
        <ele>40</ele>
        <time>2020-06-08T15:36:20Z</time>
      </trkpt>
      <trkpt lat="48.36199" lon="-4.27615">
        <ele>40.2</ele>
        <time>2020-06-08T15:36:21Z</time>
      </trkpt>
      <trkpt lat="48.36202" lon="-4.27616">
        <ele>40.4</ele>
        <time>2020-06-08T15:36:22Z</time>
      </trkpt>
      <trkpt lat="48.36204" lon="-4.27616">
        <ele>40.5</ele>
        <time>2020-06-08T15:36:23Z</time>
      </trkpt>
      <trkpt lat="48.36208" lon="-4.27617">
        <ele>40.7</ele>
        <time>2020-06-08T15:36:24Z</time>
      </trkpt>
      <trkpt lat="48.36209" lon="-4.27617">
        <ele>40.8</ele>
        <time>2020-06-08T15:36:25Z</time>
      </trkpt>
      <trkpt lat="48.36212" lon="-4.27619">
        <ele>41</ele>
        <time>2020-06-08T15:36:26Z</time>
      </trkpt>
      <trkpt lat="48.36213" lon="-4.27619">
        <ele>41.1</ele>
        <time>2020-06-08T15:36:27Z</time>
      </trkpt>
      <trkpt lat="48.36217" lon="-4.2762">
        <ele>41.4</ele>
        <time>2020-06-08T15:36:28Z</time>
      </trkpt>
      <trkpt lat="48.36219" lon="-4.27619">
        <ele>41.5</ele>
        <time>2020-06-08T15:36:29Z</time>
      </trkpt>
      <trkpt lat="48.36221" lon="-4.27619">
        <ele>41.6</ele>
        <time>2020-06-08T15:36:30Z</time>
      </trkpt>
      <trkpt lat="48.36224" lon="-4.27619">
        <ele>41.8</ele>
        <time>2020-06-08T15:36:31Z</time>
      </trkpt>
      <trkpt lat="48.36228" lon="-4.2762">
        <ele>42</ele>
        <time>2020-06-08T15:36:32Z</time>
      </trkpt>
      <trkpt lat="48.36229" lon="-4.27621">
        <ele>42.1</ele>
        <time>2020-06-08T15:36:33Z</time>
      </trkpt>
      <trkpt lat="48.36233" lon="-4.27622">
        <ele>42.4</ele>
        <time>2020-06-08T15:36:34Z</time>
      </trkpt>
      <trkpt lat="48.36234" lon="-4.27622">
        <ele>42.4</ele>
        <time>2020-06-08T15:36:35Z</time>
      </trkpt>
      <trkpt lat="48.36237" lon="-4.27623">
        <ele>42.6</ele>
        <time>2020-06-08T15:36:36Z</time>
      </trkpt>
      <trkpt lat="48.3624" lon="-4.27623">
        <ele>42.8</ele>
        <time>2020-06-08T15:36:37Z</time>
      </trkpt>
      <trkpt lat="48.36243" lon="-4.27623">
        <ele>43</ele>
        <time>2020-06-08T15:36:38Z</time>
      </trkpt>
      <trkpt lat="48.36246" lon="-4.27624">
        <ele>43.1</ele>
        <time>2020-06-08T15:36:39Z</time>
      </trkpt>
      <trkpt lat="48.3625" lon="-4.27625">
        <ele>43.4</ele>
        <time>2020-06-08T15:36:40Z</time>
      </trkpt>
      <trkpt lat="48.36252" lon="-4.27625">
        <ele>43.5</ele>
        <time>2020-06-08T15:36:41Z</time>
      </trkpt>
      <trkpt lat="48.36255" lon="-4.27627">
        <ele>43.7</ele>
        <time>2020-06-08T15:36:42Z</time>
      </trkpt>
      <trkpt lat="48.36258" lon="-4.27628">
        <ele>43.8</ele>
        <time>2020-06-08T15:36:43Z</time>
      </trkpt>
      <trkpt lat="48.36261" lon="-4.27629">
        <ele>44</ele>
        <time>2020-06-08T15:36:44Z</time>
      </trkpt>
      <trkpt lat="48.36264" lon="-4.2763">
        <ele>44.2</ele>
        <time>2020-06-08T15:36:45Z</time>
      </trkpt>
      <trkpt lat="48.36267" lon="-4.27631">
        <ele>44.4</ele>
        <time>2020-06-08T15:36:46Z</time>
      </trkpt>
      <trkpt lat="48.3627" lon="-4.27633">
        <ele>44.7</ele>
        <time>2020-06-08T15:36:47Z</time>
      </trkpt>
      <trkpt lat="48.36272" lon="-4.27633">
        <ele>44.7</ele>
        <time>2020-06-08T15:36:48Z</time>
      </trkpt>
      <trkpt lat="48.36275" lon="-4.27634">
        <ele>44.9</ele>
        <time>2020-06-08T15:36:49Z</time>
      </trkpt>
      <trkpt lat="48.36278" lon="-4.27636">
        <ele>45.2</ele>
        <time>2020-06-08T15:36:50Z</time>
      </trkpt>
      <trkpt lat="48.3628" lon="-4.27636">
        <ele>45.2</ele>
        <time>2020-06-08T15:36:51Z</time>
      </trkpt>
      <trkpt lat="48.36283" lon="-4.27638">
        <ele>45.5</ele>
        <time>2020-06-08T15:36:52Z</time>
      </trkpt>
      <trkpt lat="48.36284" lon="-4.27639">
        <ele>45.6</ele>
        <time>2020-06-08T15:36:53Z</time>
      </trkpt>
      <trkpt lat="48.36288" lon="-4.2764">
        <ele>45.8</ele>
        <time>2020-06-08T15:36:54Z</time>
      </trkpt>
      <trkpt lat="48.36289" lon="-4.27641">
        <ele>45.8</ele>
        <time>2020-06-08T15:36:55Z</time>
      </trkpt>
      <trkpt lat="48.36292" lon="-4.27641">
        <ele>46</ele>
        <time>2020-06-08T15:36:56Z</time>
      </trkpt>
      <trkpt lat="48.36295" lon="-4.27644">
        <ele>46.2</ele>
        <time>2020-06-08T15:36:57Z</time>
      </trkpt>
      <trkpt lat="48.36296" lon="-4.27644">
        <ele>46.3</ele>
        <time>2020-06-08T15:36:58Z</time>
      </trkpt>
      <trkpt lat="48.36299" lon="-4.27646">
        <ele>46.4</ele>
        <time>2020-06-08T15:36:59Z</time>
      </trkpt>
      <trkpt lat="48.36302" lon="-4.27648">
        <ele>46.6</ele>
        <time>2020-06-08T15:37:00Z</time>
      </trkpt>
      <trkpt lat="48.36305" lon="-4.27649">
        <ele>46.8</ele>
        <time>2020-06-08T15:37:01Z</time>
      </trkpt>
      <trkpt lat="48.36308" lon="-4.2765">
        <ele>47</ele>
        <time>2020-06-08T15:37:02Z</time>
      </trkpt>
      <trkpt lat="48.36312" lon="-4.27652">
        <ele>47.2</ele>
        <time>2020-06-08T15:37:03Z</time>
      </trkpt>
      <trkpt lat="48.36313" lon="-4.27652">
        <ele>47.2</ele>
        <time>2020-06-08T15:37:04Z</time>
      </trkpt>
      <trkpt lat="48.36317" lon="-4.27654">
        <ele>47.4</ele>
        <time>2020-06-08T15:37:05Z</time>
      </trkpt>
      <trkpt lat="48.36318" lon="-4.27655">
        <ele>47.5</ele>
        <time>2020-06-08T15:37:06Z</time>
      </trkpt>
      <trkpt lat="48.36321" lon="-4.27656">
        <ele>47.6</ele>
        <time>2020-06-08T15:37:07Z</time>
      </trkpt>
      <trkpt lat="48.36324" lon="-4.27657">
        <ele>47.8</ele>
        <time>2020-06-08T15:37:08Z</time>
      </trkpt>
      <trkpt lat="48.36327" lon="-4.27658">
        <ele>47.9</ele>
        <time>2020-06-08T15:37:09Z</time>
      </trkpt>
      <trkpt lat="48.3633" lon="-4.27659">
        <ele>48.1</ele>
        <time>2020-06-08T15:37:10Z</time>
      </trkpt>
      <trkpt lat="48.36333" lon="-4.27661">
        <ele>48.2</ele>
        <time>2020-06-08T15:37:11Z</time>
      </trkpt>
      <trkpt lat="48.36336" lon="-4.27663">
        <ele>48.4</ele>
        <time>2020-06-08T15:37:12Z</time>
      </trkpt>
      <trkpt lat="48.3634" lon="-4.27664">
        <ele>48.5</ele>
        <time>2020-06-08T15:37:13Z</time>
      </trkpt>
      <trkpt lat="48.36342" lon="-4.27667">
        <ele>48.7</ele>
        <time>2020-06-08T15:37:14Z</time>
      </trkpt>
      <trkpt lat="48.36345" lon="-4.27668">
        <ele>48.8</ele>
        <time>2020-06-08T15:37:15Z</time>
      </trkpt>
      <trkpt lat="48.36348" lon="-4.2767">
        <ele>48.9</ele>
        <time>2020-06-08T15:37:16Z</time>
      </trkpt>
      <trkpt lat="48.36351" lon="-4.27672">
        <ele>49.1</ele>
        <time>2020-06-08T15:37:17Z</time>
      </trkpt>
      <trkpt lat="48.36354" lon="-4.27673">
        <ele>49.2</ele>
        <time>2020-06-08T15:37:18Z</time>
      </trkpt>
      <trkpt lat="48.36357" lon="-4.27675">
        <ele>49.3</ele>
        <time>2020-06-08T15:37:19Z</time>
      </trkpt>
      <trkpt lat="48.36358" lon="-4.27675">
        <ele>49.4</ele>
        <time>2020-06-08T15:37:20Z</time>
      </trkpt>
      <trkpt lat="48.36362" lon="-4.27676">
        <ele>49.5</ele>
        <time>2020-06-08T15:37:21Z</time>
      </trkpt>
      <trkpt lat="48.36365" lon="-4.27677">
        <ele>49.7</ele>
        <time>2020-06-08T15:37:22Z</time>
      </trkpt>
      <trkpt lat="48.36366" lon="-4.27678">
        <ele>49.7</ele>
        <time>2020-06-08T15:37:23Z</time>
      </trkpt>
      <trkpt lat="48.36369" lon="-4.27679">
        <ele>49.8</ele>
        <time>2020-06-08T15:37:24Z</time>
      </trkpt>
      <trkpt lat="48.36372" lon="-4.2768">
        <ele>49.9</ele>
        <time>2020-06-08T15:37:25Z</time>
      </trkpt>
      <trkpt lat="48.36375" lon="-4.27681">
        <ele>50.1</ele>
        <time>2020-06-08T15:37:26Z</time>
      </trkpt>
      <trkpt lat="48.36378" lon="-4.27683">
        <ele>50.3</ele>
        <time>2020-06-08T15:37:27Z</time>
      </trkpt>
      <trkpt lat="48.36381" lon="-4.27685">
        <ele>50.5</ele>
        <time>2020-06-08T15:37:28Z</time>
      </trkpt>
      <trkpt lat="48.36384" lon="-4.27686">
        <ele>50.6</ele>
        <time>2020-06-08T15:37:29Z</time>
      </trkpt>
      <trkpt lat="48.36387" lon="-4.27688">
        <ele>50.8</ele>
        <time>2020-06-08T15:37:30Z</time>
      </trkpt>
      <trkpt lat="48.3639" lon="-4.27688">
        <ele>50.9</ele>
        <time>2020-06-08T15:37:31Z</time>
      </trkpt>
      <trkpt lat="48.36393" lon="-4.27689">
        <ele>51.1</ele>
        <time>2020-06-08T15:37:32Z</time>
      </trkpt>
      <trkpt lat="48.36396" lon="-4.2769">
        <ele>51.2</ele>
        <time>2020-06-08T15:37:33Z</time>
      </trkpt>
      <trkpt lat="48.364" lon="-4.27691">
        <ele>51.4</ele>
        <time>2020-06-08T15:37:34Z</time>
      </trkpt>
      <trkpt lat="48.36402" lon="-4.27691">
        <ele>51.5</ele>
        <time>2020-06-08T15:37:35Z</time>
      </trkpt>
      <trkpt lat="48.36405" lon="-4.27692">
        <ele>51.7</ele>
        <time>2020-06-08T15:37:36Z</time>
      </trkpt>
      <trkpt lat="48.36408" lon="-4.27693">
        <ele>51.8</ele>
        <time>2020-06-08T15:37:37Z</time>
      </trkpt>
      <trkpt lat="48.36411" lon="-4.27694">
        <ele>52</ele>
        <time>2020-06-08T15:37:38Z</time>
      </trkpt>
      <trkpt lat="48.36413" lon="-4.27695">
        <ele>52.1</ele>
        <time>2020-06-08T15:37:39Z</time>
      </trkpt>
      <trkpt lat="48.36416" lon="-4.27696">
        <ele>52.2</ele>
        <time>2020-06-08T15:37:40Z</time>
      </trkpt>
      <trkpt lat="48.36419" lon="-4.27697">
        <ele>52.4</ele>
        <time>2020-06-08T15:37:41Z</time>
      </trkpt>
      <trkpt lat="48.3642" lon="-4.27698">
        <ele>52.4</ele>
        <time>2020-06-08T15:37:42Z</time>
      </trkpt>
      <trkpt lat="48.36424" lon="-4.27699">
        <ele>52.6</ele>
        <time>2020-06-08T15:37:43Z</time>
      </trkpt>
      <trkpt lat="48.36425" lon="-4.277">
        <ele>52.7</ele>
        <time>2020-06-08T15:37:44Z</time>
      </trkpt>
      <trkpt lat="48.36428" lon="-4.277">
        <ele>52.9</ele>
        <time>2020-06-08T15:37:45Z</time>
      </trkpt>
      <trkpt lat="48.36429" lon="-4.277">
        <ele>52.9</ele>
        <time>2020-06-08T15:37:46Z</time>
      </trkpt>
      <trkpt lat="48.36432" lon="-4.27699">
        <ele>53.1</ele>
        <time>2020-06-08T15:37:47Z</time>
      </trkpt>
      <trkpt lat="48.36436" lon="-4.27698">
        <ele>53.3</ele>
        <time>2020-06-08T15:37:48Z</time>
      </trkpt>
      <trkpt lat="48.36437" lon="-4.27698">
        <ele>53.4</ele>
        <time>2020-06-08T15:37:49Z</time>
      </trkpt>
      <trkpt lat="48.3644" lon="-4.27698">
        <ele>53.6</ele>
        <time>2020-06-08T15:37:50Z</time>
      </trkpt>
      <trkpt lat="48.36443" lon="-4.27698">
        <ele>53.7</ele>
        <time>2020-06-08T15:37:51Z</time>
      </trkpt>
      <trkpt lat="48.36447" lon="-4.27697">
        <ele>53.9</ele>
        <time>2020-06-08T15:37:52Z</time>
      </trkpt>
      <trkpt lat="48.3645" lon="-4.27698">
        <ele>54.1</ele>
        <time>2020-06-08T15:37:53Z</time>
      </trkpt>
      <trkpt lat="48.36452" lon="-4.27697">
        <ele>54.3</ele>
        <time>2020-06-08T15:37:54Z</time>
      </trkpt>
      <trkpt lat="48.36455" lon="-4.27697">
        <ele>54.5</ele>
        <time>2020-06-08T15:37:55Z</time>
      </trkpt>
      <trkpt lat="48.36458" lon="-4.27697">
        <ele>54.7</ele>
        <time>2020-06-08T15:37:56Z</time>
      </trkpt>
      <trkpt lat="48.36461" lon="-4.27697">
        <ele>54.8</ele>
        <time>2020-06-08T15:37:57Z</time>
      </trkpt>
      <trkpt lat="48.36464" lon="-4.27697">
        <ele>55</ele>
        <time>2020-06-08T15:37:58Z</time>
      </trkpt>
      <trkpt lat="48.36467" lon="-4.27697">
        <ele>55.2</ele>
        <time>2020-06-08T15:37:59Z</time>
      </trkpt>
      <trkpt lat="48.3647" lon="-4.27697">
        <ele>55.4</ele>
        <time>2020-06-08T15:38:00Z</time>
      </trkpt>
      <trkpt lat="48.36471" lon="-4.27696">
        <ele>55.5</ele>
        <time>2020-06-08T15:38:01Z</time>
      </trkpt>
      <trkpt lat="48.36474" lon="-4.27696">
        <ele>55.7</ele>
        <time>2020-06-08T15:38:02Z</time>
      </trkpt>
      <trkpt lat="48.36475" lon="-4.27696">
        <ele>55.8</ele>
        <time>2020-06-08T15:38:03Z</time>
      </trkpt>
      <trkpt lat="48.36479" lon="-4.27696">
        <ele>56</ele>
        <time>2020-06-08T15:38:04Z</time>
      </trkpt>
      <trkpt lat="48.3648" lon="-4.27695">
        <ele>56.1</ele>
        <time>2020-06-08T15:38:05Z</time>
      </trkpt>
      <trkpt lat="48.36483" lon="-4.27696">
        <ele>56.3</ele>
        <time>2020-06-08T15:38:06Z</time>
      </trkpt>
      <trkpt lat="48.36486" lon="-4.27695">
        <ele>56.5</ele>
        <time>2020-06-08T15:38:07Z</time>
      </trkpt>
      <trkpt lat="48.36488" lon="-4.27695">
        <ele>56.6</ele>
        <time>2020-06-08T15:38:08Z</time>
      </trkpt>
      <trkpt lat="48.36491" lon="-4.27697">
        <ele>56.8</ele>
        <time>2020-06-08T15:38:09Z</time>
      </trkpt>
      <trkpt lat="48.36494" lon="-4.27696">
        <ele>57</ele>
        <time>2020-06-08T15:38:10Z</time>
      </trkpt>
      <trkpt lat="48.36495" lon="-4.27695">
        <ele>57</ele>
        <time>2020-06-08T15:38:11Z</time>
      </trkpt>
      <trkpt lat="48.36498" lon="-4.27695">
        <ele>57.3</ele>
        <time>2020-06-08T15:38:12Z</time>
      </trkpt>
      <trkpt lat="48.365" lon="-4.27695">
        <ele>57.3</ele>
        <time>2020-06-08T15:38:13Z</time>
      </trkpt>
      <trkpt lat="48.36504" lon="-4.27696">
        <ele>57.6</ele>
        <time>2020-06-08T15:38:14Z</time>
      </trkpt>
      <trkpt lat="48.36505" lon="-4.27697">
        <ele>57.7</ele>
        <time>2020-06-08T15:38:15Z</time>
      </trkpt>
      <trkpt lat="48.36508" lon="-4.27698">
        <ele>57.8</ele>
        <time>2020-06-08T15:38:16Z</time>
      </trkpt>
      <trkpt lat="48.36511" lon="-4.27698">
        <ele>58</ele>
        <time>2020-06-08T15:38:17Z</time>
      </trkpt>
      <trkpt lat="48.36514" lon="-4.27699">
        <ele>58.2</ele>
        <time>2020-06-08T15:38:18Z</time>
      </trkpt>
      <trkpt lat="48.36518" lon="-4.27699">
        <ele>58.4</ele>
        <time>2020-06-08T15:38:19Z</time>
      </trkpt>
      <trkpt lat="48.36519" lon="-4.27698">
        <ele>58.5</ele>
        <time>2020-06-08T15:38:20Z</time>
      </trkpt>
      <trkpt lat="48.36523" lon="-4.27698">
        <ele>58.7</ele>
        <time>2020-06-08T15:38:21Z</time>
      </trkpt>
      <trkpt lat="48.36527" lon="-4.27698">
        <ele>58.9</ele>
        <time>2020-06-08T15:38:22Z</time>
      </trkpt>
      <trkpt lat="48.36528" lon="-4.27698">
        <ele>58.9</ele>
        <time>2020-06-08T15:38:23Z</time>
      </trkpt>
      <trkpt lat="48.36531" lon="-4.27698">
        <ele>59.1</ele>
        <time>2020-06-08T15:38:24Z</time>
      </trkpt>
      <trkpt lat="48.36535" lon="-4.27697">
        <ele>59.3</ele>
        <time>2020-06-08T15:38:25Z</time>
      </trkpt>
      <trkpt lat="48.36536" lon="-4.27697">
        <ele>59.4</ele>
        <time>2020-06-08T15:38:26Z</time>
      </trkpt>
      <trkpt lat="48.3654" lon="-4.27697">
        <ele>59.6</ele>
        <time>2020-06-08T15:38:27Z</time>
      </trkpt>
      <trkpt lat="48.36541" lon="-4.27696">
        <ele>59.7</ele>
        <time>2020-06-08T15:38:28Z</time>
      </trkpt>
      <trkpt lat="48.36545" lon="-4.27696">
        <ele>59.9</ele>
        <time>2020-06-08T15:38:29Z</time>
      </trkpt>
      <trkpt lat="48.36549" lon="-4.27697">
        <ele>60.1</ele>
        <time>2020-06-08T15:38:30Z</time>
      </trkpt>
      <trkpt lat="48.36552" lon="-4.27697">
        <ele>60.3</ele>
        <time>2020-06-08T15:38:31Z</time>
      </trkpt>
      <trkpt lat="48.36555" lon="-4.27698">
        <ele>60.5</ele>
        <time>2020-06-08T15:38:32Z</time>
      </trkpt>
      <trkpt lat="48.36559" lon="-4.27698">
        <ele>60.7</ele>
        <time>2020-06-08T15:38:33Z</time>
      </trkpt>
      <trkpt lat="48.36561" lon="-4.27698">
        <ele>60.7</ele>
        <time>2020-06-08T15:38:34Z</time>
      </trkpt>
      <trkpt lat="48.36564" lon="-4.27697">
        <ele>60.9</ele>
        <time>2020-06-08T15:38:35Z</time>
      </trkpt>
      <trkpt lat="48.36565" lon="-4.27697">
        <ele>61</ele>
        <time>2020-06-08T15:38:36Z</time>
      </trkpt>
      <trkpt lat="48.36569" lon="-4.27697">
        <ele>61.2</ele>
        <time>2020-06-08T15:38:37Z</time>
      </trkpt>
      <trkpt lat="48.36573" lon="-4.27697">
        <ele>61.4</ele>
        <time>2020-06-08T15:38:38Z</time>
      </trkpt>
      <trkpt lat="48.36577" lon="-4.27698">
        <ele>61.7</ele>
        <time>2020-06-08T15:38:39Z</time>
      </trkpt>
      <trkpt lat="48.3658" lon="-4.27697">
        <ele>61.8</ele>
        <time>2020-06-08T15:38:40Z</time>
      </trkpt>
      <trkpt lat="48.36583" lon="-4.27697">
        <ele>62</ele>
        <time>2020-06-08T15:38:41Z</time>
      </trkpt>
      <trkpt lat="48.36587" lon="-4.27698">
        <ele>62.3</ele>
        <time>2020-06-08T15:38:42Z</time>
      </trkpt>
      <trkpt lat="48.36589" lon="-4.27698">
        <ele>62.4</ele>
        <time>2020-06-08T15:38:43Z</time>
      </trkpt>
      <trkpt lat="48.36592" lon="-4.277">
        <ele>62.5</ele>
        <time>2020-06-08T15:38:44Z</time>
      </trkpt>
      <trkpt lat="48.36596" lon="-4.27701">
        <ele>62.8</ele>
        <time>2020-06-08T15:38:45Z</time>
      </trkpt>
      <trkpt lat="48.36599" lon="-4.27703">
        <ele>63</ele>
        <time>2020-06-08T15:38:46Z</time>
      </trkpt>
      <trkpt lat="48.366" lon="-4.27704">
        <ele>63.1</ele>
        <time>2020-06-08T15:38:47Z</time>
      </trkpt>
      <trkpt lat="48.36603" lon="-4.27705">
        <ele>63.2</ele>
        <time>2020-06-08T15:38:48Z</time>
      </trkpt>
      <trkpt lat="48.36605" lon="-4.27708">
        <ele>63.4</ele>
        <time>2020-06-08T15:38:49Z</time>
      </trkpt>
      <trkpt lat="48.36606" lon="-4.27709">
        <ele>63.5</ele>
        <time>2020-06-08T15:38:50Z</time>
      </trkpt>
      <trkpt lat="48.36609" lon="-4.27706">
        <ele>63.7</ele>
        <time>2020-06-08T15:38:51Z</time>
      </trkpt>
      <trkpt lat="48.36613" lon="-4.27708">
        <ele>63.9</ele>
        <time>2020-06-08T15:38:52Z</time>
      </trkpt>
      <trkpt lat="48.36614" lon="-4.27709">
        <ele>64</ele>
        <time>2020-06-08T15:38:53Z</time>
      </trkpt>
      <trkpt lat="48.36617" lon="-4.27711">
        <ele>64.1</ele>
        <time>2020-06-08T15:38:54Z</time>
      </trkpt>
      <trkpt lat="48.3662" lon="-4.27712">
        <ele>64.3</ele>
        <time>2020-06-08T15:38:55Z</time>
      </trkpt>
      <trkpt lat="48.36624" lon="-4.27714">
        <ele>64.6</ele>
        <time>2020-06-08T15:38:56Z</time>
      </trkpt>
      <trkpt lat="48.36626" lon="-4.27715">
        <ele>64.7</ele>
        <time>2020-06-08T15:38:57Z</time>
      </trkpt>
      <trkpt lat="48.36629" lon="-4.27718">
        <ele>64.9</ele>
        <time>2020-06-08T15:38:58Z</time>
      </trkpt>
      <trkpt lat="48.36632" lon="-4.2772">
        <ele>65.1</ele>
        <time>2020-06-08T15:38:59Z</time>
      </trkpt>
      <trkpt lat="48.36635" lon="-4.27722">
        <ele>65.3</ele>
        <time>2020-06-08T15:39:00Z</time>
      </trkpt>
      <trkpt lat="48.36638" lon="-4.27726">
        <ele>65.5</ele>
        <time>2020-06-08T15:39:01Z</time>
      </trkpt>
      <trkpt lat="48.36641" lon="-4.27728">
        <ele>65.7</ele>
        <time>2020-06-08T15:39:02Z</time>
      </trkpt>
      <trkpt lat="48.36644" lon="-4.27731">
        <ele>65.9</ele>
        <time>2020-06-08T15:39:03Z</time>
      </trkpt>
      <trkpt lat="48.36648" lon="-4.27733">
        <ele>66.1</ele>
        <time>2020-06-08T15:39:04Z</time>
      </trkpt>
      <trkpt lat="48.3665" lon="-4.27734">
        <ele>66.3</ele>
        <time>2020-06-08T15:39:05Z</time>
      </trkpt>
      <trkpt lat="48.36653" lon="-4.27737">
        <ele>66.4</ele>
        <time>2020-06-08T15:39:06Z</time>
      </trkpt>
      <trkpt lat="48.36655" lon="-4.27741">
        <ele>66.6</ele>
        <time>2020-06-08T15:39:07Z</time>
      </trkpt>
      <trkpt lat="48.36658" lon="-4.27742">
        <ele>66.9</ele>
        <time>2020-06-08T15:39:08Z</time>
      </trkpt>
      <trkpt lat="48.36661" lon="-4.27746">
        <ele>67.1</ele>
        <time>2020-06-08T15:39:09Z</time>
      </trkpt>
      <trkpt lat="48.36664" lon="-4.27752">
        <ele>67.4</ele>
        <time>2020-06-08T15:39:10Z</time>
      </trkpt>
      <trkpt lat="48.36666" lon="-4.27755">
        <ele>67.6</ele>
        <time>2020-06-08T15:39:11Z</time>
      </trkpt>
      <trkpt lat="48.36668" lon="-4.27758">
        <ele>67.7</ele>
        <time>2020-06-08T15:39:12Z</time>
      </trkpt>
      <trkpt lat="48.36671" lon="-4.2776">
        <ele>67.9</ele>
        <time>2020-06-08T15:39:13Z</time>
      </trkpt>
      <trkpt lat="48.36674" lon="-4.27763">
        <ele>68.1</ele>
        <time>2020-06-08T15:39:14Z</time>
      </trkpt>
      <trkpt lat="48.36675" lon="-4.27764">
        <ele>68.2</ele>
        <time>2020-06-08T15:39:15Z</time>
      </trkpt>
      <trkpt lat="48.36677" lon="-4.27768">
        <ele>68.4</ele>
        <time>2020-06-08T15:39:16Z</time>
      </trkpt>
      <trkpt lat="48.3668" lon="-4.2777">
        <ele>68.6</ele>
        <time>2020-06-08T15:39:17Z</time>
      </trkpt>
      <trkpt lat="48.36683" lon="-4.27772">
        <ele>68.7</ele>
        <time>2020-06-08T15:39:18Z</time>
      </trkpt>
      <trkpt lat="48.36686" lon="-4.27775">
        <ele>69</ele>
        <time>2020-06-08T15:39:19Z</time>
      </trkpt>
      <trkpt lat="48.36687" lon="-4.27776">
        <ele>69.1</ele>
        <time>2020-06-08T15:39:20Z</time>
      </trkpt>
      <trkpt lat="48.3669" lon="-4.27778">
        <ele>69.2</ele>
        <time>2020-06-08T15:39:21Z</time>
      </trkpt>
      <trkpt lat="48.36692" lon="-4.27781">
        <ele>69.4</ele>
        <time>2020-06-08T15:39:22Z</time>
      </trkpt>
      <trkpt lat="48.36695" lon="-4.27784">
        <ele>69.6</ele>
        <time>2020-06-08T15:39:23Z</time>
      </trkpt>
      <trkpt lat="48.36698" lon="-4.27787">
        <ele>69.9</ele>
        <time>2020-06-08T15:39:24Z</time>
      </trkpt>
      <trkpt lat="48.36701" lon="-4.2779">
        <ele>70.1</ele>
        <time>2020-06-08T15:39:25Z</time>
      </trkpt>
      <trkpt lat="48.36703" lon="-4.27792">
        <ele>70.3</ele>
        <time>2020-06-08T15:39:26Z</time>
      </trkpt>
      <trkpt lat="48.36706" lon="-4.27792">
        <ele>70.4</ele>
        <time>2020-06-08T15:39:27Z</time>
      </trkpt>
      <trkpt lat="48.36709" lon="-4.27794">
        <ele>70.6</ele>
        <time>2020-06-08T15:39:28Z</time>
      </trkpt>
      <trkpt lat="48.36712" lon="-4.27796">
        <ele>70.9</ele>
        <time>2020-06-08T15:39:29Z</time>
      </trkpt>
      <trkpt lat="48.36716" lon="-4.27798">
        <ele>71.1</ele>
        <time>2020-06-08T15:39:30Z</time>
      </trkpt>
      <trkpt lat="48.36719" lon="-4.27799">
        <ele>71.3</ele>
        <time>2020-06-08T15:39:31Z</time>
      </trkpt>
      <trkpt lat="48.36722" lon="-4.278">
        <ele>71.5</ele>
        <time>2020-06-08T15:39:32Z</time>
      </trkpt>
      <trkpt lat="48.36726" lon="-4.27799">
        <ele>71.7</ele>
        <time>2020-06-08T15:39:33Z</time>
      </trkpt>
      <trkpt lat="48.36727" lon="-4.27799">
        <ele>71.8</ele>
        <time>2020-06-08T15:39:34Z</time>
      </trkpt>
      <trkpt lat="48.36731" lon="-4.27799">
        <ele>72</ele>
        <time>2020-06-08T15:39:35Z</time>
      </trkpt>
      <trkpt lat="48.36734" lon="-4.278">
        <ele>72.2</ele>
        <time>2020-06-08T15:39:36Z</time>
      </trkpt>
      <trkpt lat="48.36737" lon="-4.27802">
        <ele>72.4</ele>
        <time>2020-06-08T15:39:37Z</time>
      </trkpt>
      <trkpt lat="48.3674" lon="-4.27802">
        <ele>72.6</ele>
        <time>2020-06-08T15:39:38Z</time>
      </trkpt>
      <trkpt lat="48.36744" lon="-4.27802">
        <ele>72.7</ele>
        <time>2020-06-08T15:39:39Z</time>
      </trkpt>
      <trkpt lat="48.36747" lon="-4.27802">
        <ele>72.9</ele>
        <time>2020-06-08T15:39:40Z</time>
      </trkpt>
      <trkpt lat="48.36751" lon="-4.27803">
        <ele>73.1</ele>
        <time>2020-06-08T15:39:41Z</time>
      </trkpt>
      <trkpt lat="48.36753" lon="-4.27805">
        <ele>73.2</ele>
        <time>2020-06-08T15:39:42Z</time>
      </trkpt>
      <trkpt lat="48.36756" lon="-4.27806">
        <ele>73.4</ele>
        <time>2020-06-08T15:39:43Z</time>
      </trkpt>
      <trkpt lat="48.3676" lon="-4.27807">
        <ele>73.6</ele>
        <time>2020-06-08T15:39:44Z</time>
      </trkpt>
      <trkpt lat="48.36764" lon="-4.27807">
        <ele>73.8</ele>
        <time>2020-06-08T15:39:45Z</time>
      </trkpt>
      <trkpt lat="48.36767" lon="-4.27806">
        <ele>73.9</ele>
        <time>2020-06-08T15:39:46Z</time>
      </trkpt>
      <trkpt lat="48.3677" lon="-4.27808">
        <ele>74.1</ele>
        <time>2020-06-08T15:39:47Z</time>
      </trkpt>
      <trkpt lat="48.36774" lon="-4.27809">
        <ele>74.3</ele>
        <time>2020-06-08T15:39:48Z</time>
      </trkpt>
      <trkpt lat="48.36776" lon="-4.2781">
        <ele>74.4</ele>
        <time>2020-06-08T15:39:49Z</time>
      </trkpt>
      <trkpt lat="48.36779" lon="-4.27811">
        <ele>74.5</ele>
        <time>2020-06-08T15:39:50Z</time>
      </trkpt>
      <trkpt lat="48.36783" lon="-4.27811">
        <ele>74.7</ele>
        <time>2020-06-08T15:39:51Z</time>
      </trkpt>
      <trkpt lat="48.36785" lon="-4.27811">
        <ele>74.8</ele>
        <time>2020-06-08T15:39:52Z</time>
      </trkpt>
      <trkpt lat="48.3679" lon="-4.2781">
        <ele>75</ele>
        <time>2020-06-08T15:39:53Z</time>
      </trkpt>
      <trkpt lat="48.36795" lon="-4.27811">
        <ele>75.2</ele>
        <time>2020-06-08T15:39:54Z</time>
      </trkpt>
      <trkpt lat="48.36797" lon="-4.27811">
        <ele>75.3</ele>
        <time>2020-06-08T15:39:55Z</time>
      </trkpt>
      <trkpt lat="48.368" lon="-4.27813">
        <ele>75.4</ele>
        <time>2020-06-08T15:39:56Z</time>
      </trkpt>
      <trkpt lat="48.36804" lon="-4.27814">
        <ele>75.6</ele>
        <time>2020-06-08T15:39:57Z</time>
      </trkpt>
      <trkpt lat="48.36807" lon="-4.27814">
        <ele>75.7</ele>
        <time>2020-06-08T15:39:58Z</time>
      </trkpt>
      <trkpt lat="48.36811" lon="-4.27814">
        <ele>75.9</ele>
        <time>2020-06-08T15:39:59Z</time>
      </trkpt>
      <trkpt lat="48.36815" lon="-4.27814">
        <ele>76</ele>
        <time>2020-06-08T15:40:00Z</time>
      </trkpt>
      <trkpt lat="48.36817" lon="-4.27816">
        <ele>76.2</ele>
        <time>2020-06-08T15:40:01Z</time>
      </trkpt>
      <trkpt lat="48.36821" lon="-4.27816">
        <ele>76.3</ele>
        <time>2020-06-08T15:40:02Z</time>
      </trkpt>
      <trkpt lat="48.36824" lon="-4.27816">
        <ele>76.5</ele>
        <time>2020-06-08T15:40:03Z</time>
      </trkpt>
      <trkpt lat="48.36827" lon="-4.27816">
        <ele>76.6</ele>
        <time>2020-06-08T15:40:04Z</time>
      </trkpt>
      <trkpt lat="48.3683" lon="-4.27816">
        <ele>76.7</ele>
        <time>2020-06-08T15:40:05Z</time>
      </trkpt>
      <trkpt lat="48.36834" lon="-4.27816">
        <ele>76.9</ele>
        <time>2020-06-08T15:40:06Z</time>
      </trkpt>
      <trkpt lat="48.36838" lon="-4.27817">
        <ele>77.1</ele>
        <time>2020-06-08T15:40:07Z</time>
      </trkpt>
      <trkpt lat="48.36842" lon="-4.27819">
        <ele>77.2</ele>
        <time>2020-06-08T15:40:08Z</time>
      </trkpt>
      <trkpt lat="48.36846" lon="-4.2782">
        <ele>77.3</ele>
        <time>2020-06-08T15:40:09Z</time>
      </trkpt>
      <trkpt lat="48.3685" lon="-4.27821">
        <ele>77.5</ele>
        <time>2020-06-08T15:40:10Z</time>
      </trkpt>
      <trkpt lat="48.36855" lon="-4.27821">
        <ele>77.6</ele>
        <time>2020-06-08T15:40:11Z</time>
      </trkpt>
      <trkpt lat="48.36857" lon="-4.27821">
        <ele>77.7</ele>
        <time>2020-06-08T15:40:12Z</time>
      </trkpt>
      <trkpt lat="48.36861" lon="-4.2782">
        <ele>77.8</ele>
        <time>2020-06-08T15:40:13Z</time>
      </trkpt>
      <trkpt lat="48.36864" lon="-4.27819">
        <ele>77.9</ele>
        <time>2020-06-08T15:40:14Z</time>
      </trkpt>
      <trkpt lat="48.36868" lon="-4.27818">
        <ele>78</ele>
        <time>2020-06-08T15:40:15Z</time>
      </trkpt>
      <trkpt lat="48.36873" lon="-4.27819">
        <ele>78.1</ele>
        <time>2020-06-08T15:40:16Z</time>
      </trkpt>
      <trkpt lat="48.36878" lon="-4.2782">
        <ele>78.3</ele>
        <time>2020-06-08T15:40:17Z</time>
      </trkpt>
      <trkpt lat="48.36882" lon="-4.27822">
        <ele>78.4</ele>
        <time>2020-06-08T15:40:18Z</time>
      </trkpt>
      <trkpt lat="48.36887" lon="-4.27823">
        <ele>78.5</ele>
        <time>2020-06-08T15:40:19Z</time>
      </trkpt>
      <trkpt lat="48.36892" lon="-4.27826">
        <ele>78.6</ele>
        <time>2020-06-08T15:40:20Z</time>
      </trkpt>
      <trkpt lat="48.36896" lon="-4.2783">
        <ele>78.7</ele>
        <time>2020-06-08T15:40:21Z</time>
      </trkpt>
      <trkpt lat="48.369" lon="-4.27833">
        <ele>78.7</ele>
        <time>2020-06-08T15:40:22Z</time>
      </trkpt>
      <trkpt lat="48.36904" lon="-4.27837">
        <ele>78.8</ele>
        <time>2020-06-08T15:40:23Z</time>
      </trkpt>
      <trkpt lat="48.36907" lon="-4.2784">
        <ele>78.9</ele>
        <time>2020-06-08T15:40:24Z</time>
      </trkpt>
      <trkpt lat="48.36911" lon="-4.27844">
        <ele>79</ele>
        <time>2020-06-08T15:40:25Z</time>
      </trkpt>
      <trkpt lat="48.36914" lon="-4.27847">
        <ele>79.1</ele>
        <time>2020-06-08T15:40:26Z</time>
      </trkpt>
      <trkpt lat="48.36918" lon="-4.2785">
        <ele>79.1</ele>
        <time>2020-06-08T15:40:27Z</time>
      </trkpt>
      <trkpt lat="48.36921" lon="-4.27852">
        <ele>79.2</ele>
        <time>2020-06-08T15:40:28Z</time>
      </trkpt>
      <trkpt lat="48.36924" lon="-4.27855">
        <ele>79.2</ele>
        <time>2020-06-08T15:40:29Z</time>
      </trkpt>
      <trkpt lat="48.36927" lon="-4.27858">
        <ele>79.3</ele>
        <time>2020-06-08T15:40:30Z</time>
      </trkpt>
      <trkpt lat="48.36927" lon="-4.27859">
        <ele>79.3</ele>
        <time>2020-06-08T15:40:31Z</time>
      </trkpt>
      <trkpt lat="48.3693" lon="-4.27858">
        <ele>79.4</ele>
        <time>2020-06-08T15:40:32Z</time>
      </trkpt>
      <trkpt lat="48.3693" lon="-4.27857">
        <ele>79.4</ele>
        <time>2020-06-08T15:40:33Z</time>
      </trkpt>
      <trkpt lat="48.3693" lon="-4.27857">
        <ele>79.4</ele>
        <time>2020-06-08T15:40:34Z</time>
      </trkpt>
      <trkpt lat="48.36931" lon="-4.27857">
        <ele>79.4</ele>
        <time>2020-06-08T15:40:35Z</time>
      </trkpt>
      <trkpt lat="48.36931" lon="-4.27858">
        <ele>79.4</ele>
        <time>2020-06-08T15:40:36Z</time>
      </trkpt>
      <trkpt lat="48.36931" lon="-4.27859">
        <ele>79.4</ele>
        <time>2020-06-08T15:40:37Z</time>
      </trkpt>
      <trkpt lat="48.36931" lon="-4.2786">
        <ele>79.4</ele>
        <time>2020-06-08T15:40:38Z</time>
      </trkpt>
      <trkpt lat="48.36932" lon="-4.2786">
        <ele>79.4</ele>
        <time>2020-06-08T15:40:39Z</time>
      </trkpt>
      <trkpt lat="48.36932" lon="-4.27861">
        <ele>79.4</ele>
        <time>2020-06-08T15:40:40Z</time>
      </trkpt>
      <trkpt lat="48.36932" lon="-4.27862">
        <ele>79.5</ele>
        <time>2020-06-08T15:40:41Z</time>
      </trkpt>
      <trkpt lat="48.36932" lon="-4.27863">
        <ele>79.5</ele>
        <time>2020-06-08T15:40:42Z</time>
      </trkpt>
      <trkpt lat="48.36933" lon="-4.27863">
        <ele>79.5</ele>
        <time>2020-06-08T15:42:05Z</time>
      </trkpt>
      <trkpt lat="48.36933" lon="-4.27864">
        <ele>79.5</ele>
        <time>2020-06-08T15:42:06Z</time>
      </trkpt>
      <trkpt lat="48.36933" lon="-4.27865">
        <ele>79.5</ele>
        <time>2020-06-08T15:42:07Z</time>
      </trkpt>
      <trkpt lat="48.36933" lon="-4.27866">
        <ele>79.5</ele>
        <time>2020-06-08T15:42:08Z</time>
      </trkpt>
      <trkpt lat="48.36934" lon="-4.27867">
        <ele>79.5</ele>
        <time>2020-06-08T15:42:09Z</time>
      </trkpt>
      <trkpt lat="48.36934" lon="-4.27867">
        <ele>79.5</ele>
        <time>2020-06-08T15:42:10Z</time>
      </trkpt>
      <trkpt lat="48.36934" lon="-4.27868">
        <ele>79.5</ele>
        <time>2020-06-08T15:42:11Z</time>
      </trkpt>
      <trkpt lat="48.36934" lon="-4.27869">
        <ele>79.6</ele>
        <time>2020-06-08T15:42:12Z</time>
      </trkpt>
      <trkpt lat="48.36935" lon="-4.2787">
        <ele>79.6</ele>
        <time>2020-06-08T15:42:13Z</time>
      </trkpt>
      <trkpt lat="48.36935" lon="-4.2787">
        <ele>79.6</ele>
        <time>2020-06-08T15:42:14Z</time>
      </trkpt>
      <trkpt lat="48.36935" lon="-4.27871">
        <ele>79.6</ele>
        <time>2020-06-08T15:42:15Z</time>
      </trkpt>
      <trkpt lat="48.36935" lon="-4.27872">
        <ele>79.6</ele>
        <time>2020-06-08T15:42:16Z</time>
      </trkpt>
      <trkpt lat="48.36936" lon="-4.27873">
        <ele>79.6</ele>
        <time>2020-06-08T15:45:40Z</time>
      </trkpt>
      <trkpt lat="48.36936" lon="-4.27874">
        <ele>79.6</ele>
        <time>2020-06-08T15:45:41Z</time>
      </trkpt>
      <trkpt lat="48.36938" lon="-4.27879">
        <ele>79.7</ele>
        <time>2020-06-08T15:45:42Z</time>
      </trkpt>
      <trkpt lat="48.36939" lon="-4.2788">
        <ele>79.7</ele>
        <time>2020-06-08T15:45:43Z</time>
      </trkpt>
      <trkpt lat="48.36942" lon="-4.27884">
        <ele>79.8</ele>
        <time>2020-06-08T15:45:44Z</time>
      </trkpt>
      <trkpt lat="48.36943" lon="-4.27885">
        <ele>79.8</ele>
        <time>2020-06-08T15:45:45Z</time>
      </trkpt>
      <trkpt lat="48.36944" lon="-4.27889">
        <ele>79.8</ele>
        <time>2020-06-08T15:45:46Z</time>
      </trkpt>
      <trkpt lat="48.36946" lon="-4.27893">
        <ele>79.9</ele>
        <time>2020-06-08T15:45:47Z</time>
      </trkpt>
      <trkpt lat="48.36948" lon="-4.27896">
        <ele>79.9</ele>
        <time>2020-06-08T15:45:48Z</time>
      </trkpt>
      <trkpt lat="48.36949" lon="-4.279">
        <ele>79.9</ele>
        <time>2020-06-08T15:45:49Z</time>
      </trkpt>
      <trkpt lat="48.3695" lon="-4.27905">
        <ele>80</ele>
        <time>2020-06-08T15:45:50Z</time>
      </trkpt>
      <trkpt lat="48.3695" lon="-4.27907">
        <ele>80</ele>
        <time>2020-06-08T15:45:51Z</time>
      </trkpt>
      <trkpt lat="48.36952" lon="-4.27911">
        <ele>80</ele>
        <time>2020-06-08T15:45:52Z</time>
      </trkpt>
      <trkpt lat="48.36953" lon="-4.27912">
        <ele>80</ele>
        <time>2020-06-08T15:45:53Z</time>
      </trkpt>
      <trkpt lat="48.36954" lon="-4.27916">
        <ele>80</ele>
        <time>2020-06-08T15:45:54Z</time>
      </trkpt>
      <trkpt lat="48.36956" lon="-4.2792">
        <ele>80.1</ele>
        <time>2020-06-08T15:45:55Z</time>
      </trkpt>
      <trkpt lat="48.36958" lon="-4.27924">
        <ele>80.1</ele>
        <time>2020-06-08T15:45:56Z</time>
      </trkpt>
      <trkpt lat="48.36959" lon="-4.27927">
        <ele>80.1</ele>
        <time>2020-06-08T15:45:57Z</time>
      </trkpt>
      <trkpt lat="48.36962" lon="-4.27932">
        <ele>80.2</ele>
        <time>2020-06-08T15:45:58Z</time>
      </trkpt>
      <trkpt lat="48.36963" lon="-4.27933">
        <ele>80.2</ele>
        <time>2020-06-08T15:45:59Z</time>
      </trkpt>
      <trkpt lat="48.36964" lon="-4.27937">
        <ele>80.2</ele>
        <time>2020-06-08T15:46:00Z</time>
      </trkpt>
      <trkpt lat="48.36965" lon="-4.27941">
        <ele>80.2</ele>
        <time>2020-06-08T15:46:01Z</time>
      </trkpt>
      <trkpt lat="48.36967" lon="-4.27944">
        <ele>80.2</ele>
        <time>2020-06-08T15:46:02Z</time>
      </trkpt>
      <trkpt lat="48.36969" lon="-4.27948">
        <ele>80.2</ele>
        <time>2020-06-08T15:46:03Z</time>
      </trkpt>
      <trkpt lat="48.36971" lon="-4.27952">
        <ele>80.2</ele>
        <time>2020-06-08T15:46:04Z</time>
      </trkpt>
      <trkpt lat="48.36972" lon="-4.27955">
        <ele>80.2</ele>
        <time>2020-06-08T15:46:05Z</time>
      </trkpt>
      <trkpt lat="48.36974" lon="-4.27959">
        <ele>80.3</ele>
        <time>2020-06-08T15:46:06Z</time>
      </trkpt>
      <trkpt lat="48.36975" lon="-4.2796">
        <ele>80.3</ele>
        <time>2020-06-08T15:46:07Z</time>
      </trkpt>
      <trkpt lat="48.36976" lon="-4.27964">
        <ele>80.3</ele>
        <time>2020-06-08T15:46:08Z</time>
      </trkpt>
      <trkpt lat="48.36977" lon="-4.27966">
        <ele>80.3</ele>
        <time>2020-06-08T15:46:09Z</time>
      </trkpt>
      <trkpt lat="48.36979" lon="-4.27971">
        <ele>80.3</ele>
        <time>2020-06-08T15:46:10Z</time>
      </trkpt>
      <trkpt lat="48.36979" lon="-4.27973">
        <ele>80.3</ele>
        <time>2020-06-08T15:46:11Z</time>
      </trkpt>
      <trkpt lat="48.36981" lon="-4.27977">
        <ele>80.3</ele>
        <time>2020-06-08T15:46:12Z</time>
      </trkpt>
      <trkpt lat="48.36983" lon="-4.27982">
        <ele>80.3</ele>
        <time>2020-06-08T15:46:13Z</time>
      </trkpt>
      <trkpt lat="48.36984" lon="-4.27983">
        <ele>80.3</ele>
        <time>2020-06-08T15:46:14Z</time>
      </trkpt>
      <trkpt lat="48.36986" lon="-4.27988">
        <ele>80.3</ele>
        <time>2020-06-08T15:46:15Z</time>
      </trkpt>
      <trkpt lat="48.36987" lon="-4.27991">
        <ele>80.3</ele>
        <time>2020-06-08T15:46:16Z</time>
      </trkpt>
      <trkpt lat="48.36989" lon="-4.27995">
        <ele>80.3</ele>
        <time>2020-06-08T15:46:17Z</time>
      </trkpt>
      <trkpt lat="48.3699" lon="-4.27997">
        <ele>80.3</ele>
        <time>2020-06-08T15:46:18Z</time>
      </trkpt>
      <trkpt lat="48.36991" lon="-4.28">
        <ele>80.3</ele>
        <time>2020-06-08T15:46:19Z</time>
      </trkpt>
      <trkpt lat="48.36993" lon="-4.28004">
        <ele>80.3</ele>
        <time>2020-06-08T15:46:20Z</time>
      </trkpt>
      <trkpt lat="48.36995" lon="-4.28007">
        <ele>80.3</ele>
        <time>2020-06-08T15:46:21Z</time>
      </trkpt>
      <trkpt lat="48.36996" lon="-4.28012">
        <ele>80.3</ele>
        <time>2020-06-08T15:46:22Z</time>
      </trkpt>
      <trkpt lat="48.36997" lon="-4.28013">
        <ele>80.3</ele>
        <time>2020-06-08T15:46:23Z</time>
      </trkpt>
      <trkpt lat="48.36998" lon="-4.28019">
        <ele>80.3</ele>
        <time>2020-06-08T15:46:24Z</time>
      </trkpt>
      <trkpt lat="48.36999" lon="-4.28021">
        <ele>80.3</ele>
        <time>2020-06-08T15:46:25Z</time>
      </trkpt>
      <trkpt lat="48.37001" lon="-4.28024">
        <ele>80.3</ele>
        <time>2020-06-08T15:46:26Z</time>
      </trkpt>
      <trkpt lat="48.37002" lon="-4.28028">
        <ele>80.3</ele>
        <time>2020-06-08T15:46:27Z</time>
      </trkpt>
      <trkpt lat="48.37004" lon="-4.28032">
        <ele>80.3</ele>
        <time>2020-06-08T15:46:28Z</time>
      </trkpt>
      <trkpt lat="48.37005" lon="-4.28033">
        <ele>80.3</ele>
        <time>2020-06-08T15:46:29Z</time>
      </trkpt>
      <trkpt lat="48.37006" lon="-4.28038">
        <ele>80.2</ele>
        <time>2020-06-08T15:46:30Z</time>
      </trkpt>
      <trkpt lat="48.37007" lon="-4.28039">
        <ele>80.2</ele>
        <time>2020-06-08T15:46:31Z</time>
      </trkpt>
      <trkpt lat="48.37008" lon="-4.28043">
        <ele>80.2</ele>
        <time>2020-06-08T15:46:32Z</time>
      </trkpt>
      <trkpt lat="48.3701" lon="-4.28046">
        <ele>80.2</ele>
        <time>2020-06-08T15:46:33Z</time>
      </trkpt>
      <trkpt lat="48.37012" lon="-4.28051">
        <ele>80.2</ele>
        <time>2020-06-08T15:46:34Z</time>
      </trkpt>
      <trkpt lat="48.37013" lon="-4.28056">
        <ele>80.2</ele>
        <time>2020-06-08T15:46:35Z</time>
      </trkpt>
      <trkpt lat="48.37015" lon="-4.28061">
        <ele>80.1</ele>
        <time>2020-06-08T15:46:36Z</time>
      </trkpt>
      <trkpt lat="48.37016" lon="-4.28065">
        <ele>80.1</ele>
        <time>2020-06-08T15:46:37Z</time>
      </trkpt>
      <trkpt lat="48.37018" lon="-4.28069">
        <ele>80.1</ele>
        <time>2020-06-08T15:46:38Z</time>
      </trkpt>
      <trkpt lat="48.3702" lon="-4.28072">
        <ele>80.1</ele>
        <time>2020-06-08T15:46:39Z</time>
      </trkpt>
      <trkpt lat="48.37022" lon="-4.28077">
        <ele>80.1</ele>
        <time>2020-06-08T15:46:40Z</time>
      </trkpt>
      <trkpt lat="48.37024" lon="-4.28081">
        <ele>80.1</ele>
        <time>2020-06-08T15:46:41Z</time>
      </trkpt>
      <trkpt lat="48.37026" lon="-4.28084">
        <ele>80.1</ele>
        <time>2020-06-08T15:46:42Z</time>
      </trkpt>
      <trkpt lat="48.37027" lon="-4.28088">
        <ele>80.1</ele>
        <time>2020-06-08T15:46:43Z</time>
      </trkpt>
      <trkpt lat="48.37028" lon="-4.28092">
        <ele>80.1</ele>
        <time>2020-06-08T15:46:44Z</time>
      </trkpt>
      <trkpt lat="48.3703" lon="-4.28097">
        <ele>80.1</ele>
        <time>2020-06-08T15:46:45Z</time>
      </trkpt>
      <trkpt lat="48.37031" lon="-4.28101">
        <ele>80.1</ele>
        <time>2020-06-08T15:46:46Z</time>
      </trkpt>
      <trkpt lat="48.37033" lon="-4.28107">
        <ele>80.2</ele>
        <time>2020-06-08T15:46:47Z</time>
      </trkpt>
      <trkpt lat="48.37033" lon="-4.28109">
        <ele>80.2</ele>
        <time>2020-06-08T15:46:48Z</time>
      </trkpt>
      <trkpt lat="48.37035" lon="-4.28115">
        <ele>80.2</ele>
        <time>2020-06-08T15:46:49Z</time>
      </trkpt>
      <trkpt lat="48.37036" lon="-4.2812">
        <ele>80.2</ele>
        <time>2020-06-08T15:46:50Z</time>
      </trkpt>
      <trkpt lat="48.37037" lon="-4.28122">
        <ele>80.3</ele>
        <time>2020-06-08T15:46:51Z</time>
      </trkpt>
      <trkpt lat="48.37038" lon="-4.28125">
        <ele>80.3</ele>
        <time>2020-06-08T15:46:52Z</time>
      </trkpt>
      <trkpt lat="48.37039" lon="-4.28129">
        <ele>80.3</ele>
        <time>2020-06-08T15:46:53Z</time>
      </trkpt>
      <trkpt lat="48.3704" lon="-4.28134">
        <ele>80.2</ele>
        <time>2020-06-08T15:46:54Z</time>
      </trkpt>
      <trkpt lat="48.37041" lon="-4.28138">
        <ele>80.2</ele>
        <time>2020-06-08T15:46:55Z</time>
      </trkpt>
      <trkpt lat="48.37043" lon="-4.28145">
        <ele>80.2</ele>
        <time>2020-06-08T15:46:56Z</time>
      </trkpt>
      <trkpt lat="48.37044" lon="-4.2815">
        <ele>80.2</ele>
        <time>2020-06-08T15:46:57Z</time>
      </trkpt>
      <trkpt lat="48.37045" lon="-4.28155">
        <ele>80.2</ele>
        <time>2020-06-08T15:46:58Z</time>
      </trkpt>
      <trkpt lat="48.37046" lon="-4.28159">
        <ele>80.2</ele>
        <time>2020-06-08T15:46:59Z</time>
      </trkpt>
      <trkpt lat="48.37048" lon="-4.28164">
        <ele>80.2</ele>
        <time>2020-06-08T15:47:00Z</time>
      </trkpt>
      <trkpt lat="48.3705" lon="-4.28169">
        <ele>80.2</ele>
        <time>2020-06-08T15:47:01Z</time>
      </trkpt>
      <trkpt lat="48.37052" lon="-4.28174">
        <ele>80.2</ele>
        <time>2020-06-08T15:47:02Z</time>
      </trkpt>
      <trkpt lat="48.37053" lon="-4.28179">
        <ele>80.2</ele>
        <time>2020-06-08T15:47:03Z</time>
      </trkpt>
      <trkpt lat="48.37055" lon="-4.28183">
        <ele>80.2</ele>
        <time>2020-06-08T15:47:04Z</time>
      </trkpt>
      <trkpt lat="48.37057" lon="-4.28187">
        <ele>80.2</ele>
        <time>2020-06-08T15:47:05Z</time>
      </trkpt>
      <trkpt lat="48.37058" lon="-4.28188">
        <ele>80.3</ele>
        <time>2020-06-08T15:47:06Z</time>
      </trkpt>
      <trkpt lat="48.37059" lon="-4.28192">
        <ele>80.3</ele>
        <time>2020-06-08T15:47:07Z</time>
      </trkpt>
      <trkpt lat="48.3706" lon="-4.28194">
        <ele>80.3</ele>
        <time>2020-06-08T15:47:08Z</time>
      </trkpt>
      <trkpt lat="48.37063" lon="-4.28198">
        <ele>80.3</ele>
        <time>2020-06-08T15:47:09Z</time>
      </trkpt>
      <trkpt lat="48.37064" lon="-4.28199">
        <ele>80.3</ele>
        <time>2020-06-08T15:47:10Z</time>
      </trkpt>
      <trkpt lat="48.37066" lon="-4.28204">
        <ele>80.4</ele>
        <time>2020-06-08T15:47:11Z</time>
      </trkpt>
      <trkpt lat="48.37066" lon="-4.28205">
        <ele>80.4</ele>
        <time>2020-06-08T15:47:12Z</time>
      </trkpt>
      <trkpt lat="48.37067" lon="-4.2821">
        <ele>80.4</ele>
        <time>2020-06-08T15:47:13Z</time>
      </trkpt>
      <trkpt lat="48.37068" lon="-4.28214">
        <ele>80.5</ele>
        <time>2020-06-08T15:47:14Z</time>
      </trkpt>
      <trkpt lat="48.37071" lon="-4.28218">
        <ele>80.5</ele>
        <time>2020-06-08T15:47:15Z</time>
      </trkpt>
      <trkpt lat="48.37073" lon="-4.28223">
        <ele>80.6</ele>
        <time>2020-06-08T15:47:16Z</time>
      </trkpt>
      <trkpt lat="48.37075" lon="-4.28227">
        <ele>80.6</ele>
        <time>2020-06-08T15:47:17Z</time>
      </trkpt>
      <trkpt lat="48.37077" lon="-4.2823">
        <ele>80.7</ele>
        <time>2020-06-08T15:47:18Z</time>
      </trkpt>
      <trkpt lat="48.37078" lon="-4.28232">
        <ele>80.7</ele>
        <time>2020-06-08T15:47:19Z</time>
      </trkpt>
      <trkpt lat="48.37081" lon="-4.28237">
        <ele>80.8</ele>
        <time>2020-06-08T15:47:20Z</time>
      </trkpt>
      <trkpt lat="48.37082" lon="-4.28239">
        <ele>80.8</ele>
        <time>2020-06-08T15:47:21Z</time>
      </trkpt>
      <trkpt lat="48.37085" lon="-4.28245">
        <ele>80.9</ele>
        <time>2020-06-08T15:47:22Z</time>
      </trkpt>
      <trkpt lat="48.37087" lon="-4.2825">
        <ele>80.9</ele>
        <time>2020-06-08T15:47:23Z</time>
      </trkpt>
      <trkpt lat="48.37089" lon="-4.28255">
        <ele>81</ele>
        <time>2020-06-08T15:47:24Z</time>
      </trkpt>
      <trkpt lat="48.3709" lon="-4.28263">
        <ele>81.2</ele>
        <time>2020-06-08T15:47:25Z</time>
      </trkpt>
      <trkpt lat="48.37092" lon="-4.28268">
        <ele>81.2</ele>
        <time>2020-06-08T15:47:26Z</time>
      </trkpt>
      <trkpt lat="48.37094" lon="-4.28272">
        <ele>81.3</ele>
        <time>2020-06-08T15:47:27Z</time>
      </trkpt>
      <trkpt lat="48.37097" lon="-4.28276">
        <ele>81.4</ele>
        <time>2020-06-08T15:47:28Z</time>
      </trkpt>
      <trkpt lat="48.37099" lon="-4.2828">
        <ele>81.5</ele>
        <time>2020-06-08T15:47:29Z</time>
      </trkpt>
      <trkpt lat="48.37101" lon="-4.28285">
        <ele>81.6</ele>
        <time>2020-06-08T15:47:30Z</time>
      </trkpt>
      <trkpt lat="48.37103" lon="-4.2829">
        <ele>81.7</ele>
        <time>2020-06-08T15:47:31Z</time>
      </trkpt>
      <trkpt lat="48.37105" lon="-4.28294">
        <ele>81.8</ele>
        <time>2020-06-08T15:47:32Z</time>
      </trkpt>
      <trkpt lat="48.37108" lon="-4.28297">
        <ele>81.9</ele>
        <time>2020-06-08T15:47:33Z</time>
      </trkpt>
      <trkpt lat="48.3711" lon="-4.28299">
        <ele>82</ele>
        <time>2020-06-08T15:47:34Z</time>
      </trkpt>
      <trkpt lat="48.37113" lon="-4.28302">
        <ele>82.1</ele>
        <time>2020-06-08T15:47:35Z</time>
      </trkpt>
      <trkpt lat="48.37114" lon="-4.28303">
        <ele>82.1</ele>
        <time>2020-06-08T15:47:36Z</time>
      </trkpt>
      <trkpt lat="48.37117" lon="-4.28305">
        <ele>82.2</ele>
        <time>2020-06-08T15:47:37Z</time>
      </trkpt>
      <trkpt lat="48.37117" lon="-4.2831">
        <ele>82.3</ele>
        <time>2020-06-08T15:47:38Z</time>
      </trkpt>
      <trkpt lat="48.37119" lon="-4.28314">
        <ele>82.4</ele>
        <time>2020-06-08T15:47:39Z</time>
      </trkpt>
      <trkpt lat="48.37122" lon="-4.28316">
        <ele>82.5</ele>
        <time>2020-06-08T15:47:40Z</time>
      </trkpt>
      <trkpt lat="48.37125" lon="-4.2832">
        <ele>82.6</ele>
        <time>2020-06-08T15:47:41Z</time>
      </trkpt>
      <trkpt lat="48.37127" lon="-4.28323">
        <ele>82.7</ele>
        <time>2020-06-08T15:47:42Z</time>
      </trkpt>
      <trkpt lat="48.37131" lon="-4.28325">
        <ele>82.8</ele>
        <time>2020-06-08T15:47:43Z</time>
      </trkpt>
      <trkpt lat="48.37135" lon="-4.28328">
        <ele>83</ele>
        <time>2020-06-08T15:47:44Z</time>
      </trkpt>
      <trkpt lat="48.37139" lon="-4.28331">
        <ele>83.2</ele>
        <time>2020-06-08T15:47:45Z</time>
      </trkpt>
      <trkpt lat="48.37142" lon="-4.28334">
        <ele>83.3</ele>
        <time>2020-06-08T15:47:46Z</time>
      </trkpt>
      <trkpt lat="48.37144" lon="-4.28337">
        <ele>83.5</ele>
        <time>2020-06-08T15:47:47Z</time>
      </trkpt>
      <trkpt lat="48.37146" lon="-4.28341">
        <ele>83.6</ele>
        <time>2020-06-08T15:47:48Z</time>
      </trkpt>
      <trkpt lat="48.37149" lon="-4.28344">
        <ele>83.7</ele>
        <time>2020-06-08T15:47:49Z</time>
      </trkpt>
      <trkpt lat="48.37152" lon="-4.28346">
        <ele>83.8</ele>
        <time>2020-06-08T15:47:50Z</time>
      </trkpt>
      <trkpt lat="48.37154" lon="-4.28349">
        <ele>84</ele>
        <time>2020-06-08T15:47:51Z</time>
      </trkpt>
      <trkpt lat="48.37157" lon="-4.28352">
        <ele>84.1</ele>
        <time>2020-06-08T15:47:52Z</time>
      </trkpt>
      <trkpt lat="48.37159" lon="-4.28355">
        <ele>84.2</ele>
        <time>2020-06-08T15:47:53Z</time>
      </trkpt>
      <trkpt lat="48.37162" lon="-4.28357">
        <ele>84.3</ele>
        <time>2020-06-08T15:47:54Z</time>
      </trkpt>
      <trkpt lat="48.37165" lon="-4.28361">
        <ele>84.4</ele>
        <time>2020-06-08T15:47:55Z</time>
      </trkpt>
      <trkpt lat="48.37168" lon="-4.28364">
        <ele>84.6</ele>
        <time>2020-06-08T15:47:56Z</time>
      </trkpt>
      <trkpt lat="48.37171" lon="-4.28368">
        <ele>84.7</ele>
        <time>2020-06-08T15:47:57Z</time>
      </trkpt>
      <trkpt lat="48.37173" lon="-4.2837">
        <ele>84.9</ele>
        <time>2020-06-08T15:47:58Z</time>
      </trkpt>
      <trkpt lat="48.37177" lon="-4.28372">
        <ele>85</ele>
        <time>2020-06-08T15:47:59Z</time>
      </trkpt>
      <trkpt lat="48.37179" lon="-4.28374">
        <ele>85.1</ele>
        <time>2020-06-08T15:48:00Z</time>
      </trkpt>
      <trkpt lat="48.37181" lon="-4.28376">
        <ele>85.2</ele>
        <time>2020-06-08T15:48:01Z</time>
      </trkpt>
      <trkpt lat="48.37184" lon="-4.28379">
        <ele>85.3</ele>
        <time>2020-06-08T15:48:02Z</time>
      </trkpt>
      <trkpt lat="48.37187" lon="-4.28381">
        <ele>85.4</ele>
        <time>2020-06-08T15:48:03Z</time>
      </trkpt>
      <trkpt lat="48.3719" lon="-4.28384">
        <ele>85.5</ele>
        <time>2020-06-08T15:48:04Z</time>
      </trkpt>
      <trkpt lat="48.37194" lon="-4.28387">
        <ele>85.7</ele>
        <time>2020-06-08T15:48:05Z</time>
      </trkpt>
      <trkpt lat="48.37195" lon="-4.28388">
        <ele>85.7</ele>
        <time>2020-06-08T15:48:06Z</time>
      </trkpt>
      <trkpt lat="48.37198" lon="-4.2839">
        <ele>85.8</ele>
        <time>2020-06-08T15:48:07Z</time>
      </trkpt>
      <trkpt lat="48.37199" lon="-4.28391">
        <ele>85.9</ele>
        <time>2020-06-08T15:48:08Z</time>
      </trkpt>
      <trkpt lat="48.37203" lon="-4.28393">
        <ele>86</ele>
        <time>2020-06-08T15:48:09Z</time>
      </trkpt>
      <trkpt lat="48.37205" lon="-4.28395">
        <ele>86</ele>
        <time>2020-06-08T15:48:10Z</time>
      </trkpt>
      <trkpt lat="48.37209" lon="-4.28397">
        <ele>86.1</ele>
        <time>2020-06-08T15:48:11Z</time>
      </trkpt>
      <trkpt lat="48.37212" lon="-4.284">
        <ele>86.1</ele>
        <time>2020-06-08T15:48:12Z</time>
      </trkpt>
      <trkpt lat="48.37214" lon="-4.28403">
        <ele>86.2</ele>
        <time>2020-06-08T15:48:13Z</time>
      </trkpt>
      <trkpt lat="48.37219" lon="-4.28404">
        <ele>86.3</ele>
        <time>2020-06-08T15:48:14Z</time>
      </trkpt>
      <trkpt lat="48.37221" lon="-4.28405">
        <ele>86.3</ele>
        <time>2020-06-08T15:48:15Z</time>
      </trkpt>
      <trkpt lat="48.37223" lon="-4.28408">
        <ele>86.3</ele>
        <time>2020-06-08T15:48:16Z</time>
      </trkpt>
      <trkpt lat="48.37226" lon="-4.28409">
        <ele>86.5</ele>
        <time>2020-06-08T15:48:17Z</time>
      </trkpt>
      <trkpt lat="48.3723" lon="-4.28411">
        <ele>86.6</ele>
        <time>2020-06-08T15:48:18Z</time>
      </trkpt>
      <trkpt lat="48.37233" lon="-4.28412">
        <ele>86.6</ele>
        <time>2020-06-08T15:48:19Z</time>
      </trkpt>
      <trkpt lat="48.37236" lon="-4.28414">
        <ele>86.7</ele>
        <time>2020-06-08T15:48:20Z</time>
      </trkpt>
      <trkpt lat="48.3724" lon="-4.28415">
        <ele>86.8</ele>
        <time>2020-06-08T15:48:21Z</time>
      </trkpt>
      <trkpt lat="48.37244" lon="-4.28416">
        <ele>86.9</ele>
        <time>2020-06-08T15:48:22Z</time>
      </trkpt>
      <trkpt lat="48.37248" lon="-4.28417">
        <ele>86.9</ele>
        <time>2020-06-08T15:48:23Z</time>
      </trkpt>
      <trkpt lat="48.37252" lon="-4.28418">
        <ele>87</ele>
        <time>2020-06-08T15:48:24Z</time>
      </trkpt>
      <trkpt lat="48.37255" lon="-4.28421">
        <ele>87.1</ele>
        <time>2020-06-08T15:48:25Z</time>
      </trkpt>
      <trkpt lat="48.37257" lon="-4.28421">
        <ele>87.1</ele>
        <time>2020-06-08T15:48:26Z</time>
      </trkpt>
      <trkpt lat="48.37261" lon="-4.28422">
        <ele>87.2</ele>
        <time>2020-06-08T15:48:27Z</time>
      </trkpt>
      <trkpt lat="48.37264" lon="-4.28422">
        <ele>87.3</ele>
        <time>2020-06-08T15:48:28Z</time>
      </trkpt>
      <trkpt lat="48.37267" lon="-4.28422">
        <ele>87.3</ele>
        <time>2020-06-08T15:48:29Z</time>
      </trkpt>
      <trkpt lat="48.3727" lon="-4.28423">
        <ele>87.4</ele>
        <time>2020-06-08T15:48:30Z</time>
      </trkpt>
      <trkpt lat="48.37274" lon="-4.28424">
        <ele>87.5</ele>
        <time>2020-06-08T15:48:31Z</time>
      </trkpt>
      <trkpt lat="48.37277" lon="-4.28426">
        <ele>87.5</ele>
        <time>2020-06-08T15:48:32Z</time>
      </trkpt>
      <trkpt lat="48.37281" lon="-4.28427">
        <ele>87.6</ele>
        <time>2020-06-08T15:48:33Z</time>
      </trkpt>
      <trkpt lat="48.37285" lon="-4.28427">
        <ele>87.6</ele>
        <time>2020-06-08T15:48:34Z</time>
      </trkpt>
      <trkpt lat="48.37287" lon="-4.28429">
        <ele>87.7</ele>
        <time>2020-06-08T15:48:35Z</time>
      </trkpt>
      <trkpt lat="48.37291" lon="-4.28432">
        <ele>87.8</ele>
        <time>2020-06-08T15:48:36Z</time>
      </trkpt>
      <trkpt lat="48.37294" lon="-4.28433">
        <ele>87.8</ele>
        <time>2020-06-08T15:48:37Z</time>
      </trkpt>
      <trkpt lat="48.37297" lon="-4.28434">
        <ele>87.9</ele>
        <time>2020-06-08T15:48:38Z</time>
      </trkpt>
      <trkpt lat="48.37301" lon="-4.28435">
        <ele>88</ele>
        <time>2020-06-08T15:48:39Z</time>
      </trkpt>
      <trkpt lat="48.37304" lon="-4.28437">
        <ele>88</ele>
        <time>2020-06-08T15:48:40Z</time>
      </trkpt>
      <trkpt lat="48.37308" lon="-4.28438">
        <ele>88.1</ele>
        <time>2020-06-08T15:48:41Z</time>
      </trkpt>
      <trkpt lat="48.37312" lon="-4.28439">
        <ele>88.2</ele>
        <time>2020-06-08T15:48:42Z</time>
      </trkpt>
      <trkpt lat="48.37315" lon="-4.28441">
        <ele>88.3</ele>
        <time>2020-06-08T15:48:43Z</time>
      </trkpt>
      <trkpt lat="48.37319" lon="-4.28444">
        <ele>88.4</ele>
        <time>2020-06-08T15:48:44Z</time>
      </trkpt>
      <trkpt lat="48.3732" lon="-4.28445">
        <ele>88.4</ele>
        <time>2020-06-08T15:48:45Z</time>
      </trkpt>
      <trkpt lat="48.37324" lon="-4.28446">
        <ele>88.5</ele>
        <time>2020-06-08T15:48:46Z</time>
      </trkpt>
      <trkpt lat="48.37327" lon="-4.28449">
        <ele>88.5</ele>
        <time>2020-06-08T15:48:47Z</time>
      </trkpt>
      <trkpt lat="48.37331" lon="-4.2845">
        <ele>88.6</ele>
        <time>2020-06-08T15:48:48Z</time>
      </trkpt>
      <trkpt lat="48.37334" lon="-4.28452">
        <ele>88.7</ele>
        <time>2020-06-08T15:48:49Z</time>
      </trkpt>
      <trkpt lat="48.37337" lon="-4.28453">
        <ele>88.7</ele>
        <time>2020-06-08T15:48:50Z</time>
      </trkpt>
      <trkpt lat="48.37341" lon="-4.28453">
        <ele>88.8</ele>
        <time>2020-06-08T15:48:51Z</time>
      </trkpt>
      <trkpt lat="48.37345" lon="-4.28454">
        <ele>88.8</ele>
        <time>2020-06-08T15:48:52Z</time>
      </trkpt>
      <trkpt lat="48.37349" lon="-4.28455">
        <ele>88.9</ele>
        <time>2020-06-08T15:48:53Z</time>
      </trkpt>
      <trkpt lat="48.37352" lon="-4.28457">
        <ele>88.9</ele>
        <time>2020-06-08T15:48:54Z</time>
      </trkpt>
      <trkpt lat="48.37355" lon="-4.28458">
        <ele>88.9</ele>
        <time>2020-06-08T15:48:55Z</time>
      </trkpt>
      <trkpt lat="48.37358" lon="-4.2846">
        <ele>89</ele>
        <time>2020-06-08T15:48:56Z</time>
      </trkpt>
      <trkpt lat="48.3736" lon="-4.28461">
        <ele>89</ele>
        <time>2020-06-08T15:48:57Z</time>
      </trkpt>
      <trkpt lat="48.37365" lon="-4.28462">
        <ele>89</ele>
        <time>2020-06-08T15:48:58Z</time>
      </trkpt>
      <trkpt lat="48.37369" lon="-4.28463">
        <ele>89</ele>
        <time>2020-06-08T15:48:59Z</time>
      </trkpt>
      <trkpt lat="48.37372" lon="-4.28465">
        <ele>89</ele>
        <time>2020-06-08T15:49:00Z</time>
      </trkpt>
      <trkpt lat="48.37375" lon="-4.28468">
        <ele>89</ele>
        <time>2020-06-08T15:49:01Z</time>
      </trkpt>
      <trkpt lat="48.37377" lon="-4.2847">
        <ele>89</ele>
        <time>2020-06-08T15:49:02Z</time>
      </trkpt>
      <trkpt lat="48.3738" lon="-4.28472">
        <ele>89</ele>
        <time>2020-06-08T15:49:03Z</time>
      </trkpt>
      <trkpt lat="48.37383" lon="-4.28473">
        <ele>89</ele>
        <time>2020-06-08T15:49:04Z</time>
      </trkpt>
      <trkpt lat="48.37387" lon="-4.28474">
        <ele>89</ele>
        <time>2020-06-08T15:49:05Z</time>
      </trkpt>
      <trkpt lat="48.3739" lon="-4.28475">
        <ele>88.9</ele>
        <time>2020-06-08T15:49:06Z</time>
      </trkpt>
      <trkpt lat="48.37393" lon="-4.28476">
        <ele>88.9</ele>
        <time>2020-06-08T15:49:07Z</time>
      </trkpt>
      <trkpt lat="48.37396" lon="-4.28477">
        <ele>88.8</ele>
        <time>2020-06-08T15:49:08Z</time>
      </trkpt>
      <trkpt lat="48.37399" lon="-4.28479">
        <ele>88.7</ele>
        <time>2020-06-08T15:49:09Z</time>
      </trkpt>
      <trkpt lat="48.37403" lon="-4.28481">
        <ele>88.6</ele>
        <time>2020-06-08T15:49:10Z</time>
      </trkpt>
      <trkpt lat="48.37406" lon="-4.28484">
        <ele>88.5</ele>
        <time>2020-06-08T15:49:11Z</time>
      </trkpt>
      <trkpt lat="48.37411" lon="-4.28486">
        <ele>88.4</ele>
        <time>2020-06-08T15:49:12Z</time>
      </trkpt>
      <trkpt lat="48.37415" lon="-4.2849">
        <ele>88.2</ele>
        <time>2020-06-08T15:49:13Z</time>
      </trkpt>
      <trkpt lat="48.37419" lon="-4.28492">
        <ele>88.1</ele>
        <time>2020-06-08T15:49:14Z</time>
      </trkpt>
      <trkpt lat="48.37422" lon="-4.28496">
        <ele>87.9</ele>
        <time>2020-06-08T15:49:15Z</time>
      </trkpt>
      <trkpt lat="48.37427" lon="-4.28501">
        <ele>87.7</ele>
        <time>2020-06-08T15:49:16Z</time>
      </trkpt>
      <trkpt lat="48.3743" lon="-4.28506">
        <ele>87.5</ele>
        <time>2020-06-08T15:49:17Z</time>
      </trkpt>
      <trkpt lat="48.37433" lon="-4.28512">
        <ele>87.3</ele>
        <time>2020-06-08T15:49:18Z</time>
      </trkpt>
      <trkpt lat="48.37437" lon="-4.28518">
        <ele>87</ele>
        <time>2020-06-08T15:49:19Z</time>
      </trkpt>
      <trkpt lat="48.37441" lon="-4.28524">
        <ele>86.7</ele>
        <time>2020-06-08T15:49:20Z</time>
      </trkpt>
      <trkpt lat="48.37445" lon="-4.28531">
        <ele>86.4</ele>
        <time>2020-06-08T15:49:21Z</time>
      </trkpt>
      <trkpt lat="48.3745" lon="-4.28538">
        <ele>86.1</ele>
        <time>2020-06-08T15:49:22Z</time>
      </trkpt>
      <trkpt lat="48.37453" lon="-4.28545">
        <ele>85.8</ele>
        <time>2020-06-08T15:49:23Z</time>
      </trkpt>
      <trkpt lat="48.37458" lon="-4.28551">
        <ele>85.4</ele>
        <time>2020-06-08T15:49:24Z</time>
      </trkpt>
      <trkpt lat="48.37463" lon="-4.28558">
        <ele>85</ele>
        <time>2020-06-08T15:49:25Z</time>
      </trkpt>
      <trkpt lat="48.37467" lon="-4.28565">
        <ele>84.6</ele>
        <time>2020-06-08T15:49:26Z</time>
      </trkpt>
      <trkpt lat="48.37471" lon="-4.28572">
        <ele>84.3</ele>
        <time>2020-06-08T15:49:27Z</time>
      </trkpt>
      <trkpt lat="48.37477" lon="-4.28582">
        <ele>83.8</ele>
        <time>2020-06-08T15:49:28Z</time>
      </trkpt>
      <trkpt lat="48.37482" lon="-4.2859">
        <ele>83.3</ele>
        <time>2020-06-08T15:49:29Z</time>
      </trkpt>
      <trkpt lat="48.37487" lon="-4.28599">
        <ele>82.8</ele>
        <time>2020-06-08T15:49:30Z</time>
      </trkpt>
      <trkpt lat="48.37492" lon="-4.28606">
        <ele>82.3</ele>
        <time>2020-06-08T15:49:31Z</time>
      </trkpt>
      <trkpt lat="48.37498" lon="-4.28615">
        <ele>81.8</ele>
        <time>2020-06-08T15:49:32Z</time>
      </trkpt>
      <trkpt lat="48.37505" lon="-4.28622">
        <ele>81.3</ele>
        <time>2020-06-08T15:49:33Z</time>
      </trkpt>
      <trkpt lat="48.37512" lon="-4.28627">
        <ele>80.8</ele>
        <time>2020-06-08T15:49:34Z</time>
      </trkpt>
      <trkpt lat="48.3752" lon="-4.2863">
        <ele>80.3</ele>
        <time>2020-06-08T15:49:35Z</time>
      </trkpt>
      <trkpt lat="48.37527" lon="-4.28633">
        <ele>79.9</ele>
        <time>2020-06-08T15:49:36Z</time>
      </trkpt>
      <trkpt lat="48.37535" lon="-4.28637">
        <ele>79.4</ele>
        <time>2020-06-08T15:49:37Z</time>
      </trkpt>
      <trkpt lat="48.37543" lon="-4.28642">
        <ele>78.9</ele>
        <time>2020-06-08T15:49:38Z</time>
      </trkpt>
      <trkpt lat="48.3755" lon="-4.28648">
        <ele>78.4</ele>
        <time>2020-06-08T15:49:39Z</time>
      </trkpt>
      <trkpt lat="48.37558" lon="-4.28655">
        <ele>78</ele>
        <time>2020-06-08T15:49:40Z</time>
      </trkpt>
      <trkpt lat="48.37564" lon="-4.28663">
        <ele>77.6</ele>
        <time>2020-06-08T15:49:41Z</time>
      </trkpt>
      <trkpt lat="48.37571" lon="-4.28671">
        <ele>77.3</ele>
        <time>2020-06-08T15:49:42Z</time>
      </trkpt>
      <trkpt lat="48.37576" lon="-4.28681">
        <ele>76.9</ele>
        <time>2020-06-08T15:49:43Z</time>
      </trkpt>
      <trkpt lat="48.37581" lon="-4.28691">
        <ele>76.6</ele>
        <time>2020-06-08T15:49:44Z</time>
      </trkpt>
      <trkpt lat="48.37586" lon="-4.28702">
        <ele>76.3</ele>
        <time>2020-06-08T15:49:45Z</time>
      </trkpt>
      <trkpt lat="48.3759" lon="-4.28713">
        <ele>75.9</ele>
        <time>2020-06-08T15:49:46Z</time>
      </trkpt>
      <trkpt lat="48.37594" lon="-4.28723">
        <ele>75.5</ele>
        <time>2020-06-08T15:49:47Z</time>
      </trkpt>
      <trkpt lat="48.37598" lon="-4.28734">
        <ele>75.2</ele>
        <time>2020-06-08T15:49:48Z</time>
      </trkpt>
      <trkpt lat="48.37602" lon="-4.28745">
        <ele>74.7</ele>
        <time>2020-06-08T15:49:49Z</time>
      </trkpt>
      <trkpt lat="48.37606" lon="-4.28758">
        <ele>74.1</ele>
        <time>2020-06-08T15:49:50Z</time>
      </trkpt>
      <trkpt lat="48.3761" lon="-4.28769">
        <ele>73.5</ele>
        <time>2020-06-08T15:49:51Z</time>
      </trkpt>
      <trkpt lat="48.37614" lon="-4.28781">
        <ele>73</ele>
        <time>2020-06-08T15:49:52Z</time>
      </trkpt>
      <trkpt lat="48.37617" lon="-4.28794">
        <ele>72.3</ele>
        <time>2020-06-08T15:49:53Z</time>
      </trkpt>
      <trkpt lat="48.37621" lon="-4.28806">
        <ele>71.7</ele>
        <time>2020-06-08T15:49:54Z</time>
      </trkpt>
      <trkpt lat="48.37624" lon="-4.28818">
        <ele>71.1</ele>
        <time>2020-06-08T15:49:55Z</time>
      </trkpt>
      <trkpt lat="48.37626" lon="-4.28832">
        <ele>70.5</ele>
        <time>2020-06-08T15:49:56Z</time>
      </trkpt>
      <trkpt lat="48.37628" lon="-4.28846">
        <ele>69.9</ele>
        <time>2020-06-08T15:49:57Z</time>
      </trkpt>
      <trkpt lat="48.3763" lon="-4.2886">
        <ele>69.2</ele>
        <time>2020-06-08T15:49:58Z</time>
      </trkpt>
      <trkpt lat="48.37633" lon="-4.28874">
        <ele>68.6</ele>
        <time>2020-06-08T15:49:59Z</time>
      </trkpt>
      <trkpt lat="48.37635" lon="-4.28888">
        <ele>68</ele>
        <time>2020-06-08T15:50:00Z</time>
      </trkpt>
      <trkpt lat="48.37636" lon="-4.28903">
        <ele>67.4</ele>
        <time>2020-06-08T15:50:01Z</time>
      </trkpt>
      <trkpt lat="48.37638" lon="-4.28918">
        <ele>66.7</ele>
        <time>2020-06-08T15:50:02Z</time>
      </trkpt>
      <trkpt lat="48.3764" lon="-4.28933">
        <ele>66.1</ele>
        <time>2020-06-08T15:50:03Z</time>
      </trkpt>
      <trkpt lat="48.37643" lon="-4.28947">
        <ele>65.5</ele>
        <time>2020-06-08T15:50:04Z</time>
      </trkpt>
      <trkpt lat="48.37646" lon="-4.28962">
        <ele>64.9</ele>
        <time>2020-06-08T15:50:05Z</time>
      </trkpt>
      <trkpt lat="48.37649" lon="-4.28976">
        <ele>64.4</ele>
        <time>2020-06-08T15:50:06Z</time>
      </trkpt>
      <trkpt lat="48.37653" lon="-4.28991">
        <ele>63.8</ele>
        <time>2020-06-08T15:50:07Z</time>
      </trkpt>
      <trkpt lat="48.37657" lon="-4.29005">
        <ele>63.3</ele>
        <time>2020-06-08T15:50:08Z</time>
      </trkpt>
      <trkpt lat="48.3766" lon="-4.29019">
        <ele>62.7</ele>
        <time>2020-06-08T15:50:09Z</time>
      </trkpt>
      <trkpt lat="48.37664" lon="-4.29033">
        <ele>62.1</ele>
        <time>2020-06-08T15:50:10Z</time>
      </trkpt>
      <trkpt lat="48.37668" lon="-4.29045">
        <ele>61.7</ele>
        <time>2020-06-08T15:50:11Z</time>
      </trkpt>
      <trkpt lat="48.37672" lon="-4.29055">
        <ele>61.2</ele>
        <time>2020-06-08T15:50:12Z</time>
      </trkpt>
      <trkpt lat="48.37676" lon="-4.29064">
        <ele>60.8</ele>
        <time>2020-06-08T15:50:13Z</time>
      </trkpt>
      <trkpt lat="48.3768" lon="-4.29074">
        <ele>60.3</ele>
        <time>2020-06-08T15:50:14Z</time>
      </trkpt>
      <trkpt lat="48.37686" lon="-4.29081">
        <ele>59.8</ele>
        <time>2020-06-08T15:50:15Z</time>
      </trkpt>
      <trkpt lat="48.37693" lon="-4.29087">
        <ele>59.3</ele>
        <time>2020-06-08T15:50:16Z</time>
      </trkpt>
      <trkpt lat="48.37701" lon="-4.29091">
        <ele>58.7</ele>
        <time>2020-06-08T15:50:17Z</time>
      </trkpt>
      <trkpt lat="48.3771" lon="-4.29092">
        <ele>58.2</ele>
        <time>2020-06-08T15:50:18Z</time>
      </trkpt>
      <trkpt lat="48.37719" lon="-4.29091">
        <ele>57.6</ele>
        <time>2020-06-08T15:50:19Z</time>
      </trkpt>
      <trkpt lat="48.37728" lon="-4.2909">
        <ele>57.1</ele>
        <time>2020-06-08T15:50:20Z</time>
      </trkpt>
      <trkpt lat="48.37737" lon="-4.29088">
        <ele>56.5</ele>
        <time>2020-06-08T15:50:21Z</time>
      </trkpt>
      <trkpt lat="48.37746" lon="-4.29085">
        <ele>56</ele>
        <time>2020-06-08T15:50:22Z</time>
      </trkpt>
      <trkpt lat="48.37755" lon="-4.29082">
        <ele>55.5</ele>
        <time>2020-06-08T15:50:23Z</time>
      </trkpt>
      <trkpt lat="48.37763" lon="-4.29079">
        <ele>55.1</ele>
        <time>2020-06-08T15:50:24Z</time>
      </trkpt>
      <trkpt lat="48.37772" lon="-4.29076">
        <ele>54.5</ele>
        <time>2020-06-08T15:50:25Z</time>
      </trkpt>
      <trkpt lat="48.37781" lon="-4.29074">
        <ele>53.9</ele>
        <time>2020-06-08T15:50:26Z</time>
      </trkpt>
      <trkpt lat="48.3779" lon="-4.29071">
        <ele>53.3</ele>
        <time>2020-06-08T15:50:27Z</time>
      </trkpt>
      <trkpt lat="48.37799" lon="-4.29069">
        <ele>52.7</ele>
        <time>2020-06-08T15:50:28Z</time>
      </trkpt>
      <trkpt lat="48.37809" lon="-4.29066">
        <ele>52.1</ele>
        <time>2020-06-08T15:50:29Z</time>
      </trkpt>
      <trkpt lat="48.37818" lon="-4.29062">
        <ele>51.5</ele>
        <time>2020-06-08T15:50:30Z</time>
      </trkpt>
      <trkpt lat="48.37828" lon="-4.2906">
        <ele>50.9</ele>
        <time>2020-06-08T15:50:31Z</time>
      </trkpt>
      <trkpt lat="48.37837" lon="-4.29058">
        <ele>50.2</ele>
        <time>2020-06-08T15:50:32Z</time>
      </trkpt>
      <trkpt lat="48.37847" lon="-4.29057">
        <ele>49.5</ele>
        <time>2020-06-08T15:50:33Z</time>
      </trkpt>
      <trkpt lat="48.37857" lon="-4.29056">
        <ele>48.8</ele>
        <time>2020-06-08T15:50:34Z</time>
      </trkpt>
      <trkpt lat="48.37867" lon="-4.29056">
        <ele>47.9</ele>
        <time>2020-06-08T15:50:35Z</time>
      </trkpt>
      <trkpt lat="48.37877" lon="-4.29057">
        <ele>47.1</ele>
        <time>2020-06-08T15:50:36Z</time>
      </trkpt>
      <trkpt lat="48.37886" lon="-4.29061">
        <ele>46.3</ele>
        <time>2020-06-08T15:50:37Z</time>
      </trkpt>
      <trkpt lat="48.37896" lon="-4.29067">
        <ele>45.5</ele>
        <time>2020-06-08T15:50:38Z</time>
      </trkpt>
      <trkpt lat="48.37904" lon="-4.29078">
        <ele>44.8</ele>
        <time>2020-06-08T15:50:39Z</time>
      </trkpt>
      <trkpt lat="48.37911" lon="-4.29089">
        <ele>44.1</ele>
        <time>2020-06-08T15:50:40Z</time>
      </trkpt>
      <trkpt lat="48.37918" lon="-4.29101">
        <ele>43.6</ele>
        <time>2020-06-08T15:50:41Z</time>
      </trkpt>
      <trkpt lat="48.37923" lon="-4.29115">
        <ele>43.1</ele>
        <time>2020-06-08T15:50:42Z</time>
      </trkpt>
      <trkpt lat="48.37927" lon="-4.29129">
        <ele>42.6</ele>
        <time>2020-06-08T15:50:43Z</time>
      </trkpt>
      <trkpt lat="48.37931" lon="-4.29144">
        <ele>42.2</ele>
        <time>2020-06-08T15:50:44Z</time>
      </trkpt>
      <trkpt lat="48.37932" lon="-4.29159">
        <ele>41.8</ele>
        <time>2020-06-08T15:50:45Z</time>
      </trkpt>
      <trkpt lat="48.37935" lon="-4.29175">
        <ele>41.4</ele>
        <time>2020-06-08T15:50:46Z</time>
      </trkpt>
      <trkpt lat="48.37938" lon="-4.2919">
        <ele>41</ele>
        <time>2020-06-08T15:50:47Z</time>
      </trkpt>
      <trkpt lat="48.37942" lon="-4.29205">
        <ele>40.7</ele>
        <time>2020-06-08T15:50:48Z</time>
      </trkpt>
      <trkpt lat="48.37945" lon="-4.2922">
        <ele>40.5</ele>
        <time>2020-06-08T15:50:49Z</time>
      </trkpt>
      <trkpt lat="48.37948" lon="-4.29234">
        <ele>40.3</ele>
        <time>2020-06-08T15:50:50Z</time>
      </trkpt>
      <trkpt lat="48.3795" lon="-4.29249">
        <ele>40.2</ele>
        <time>2020-06-08T15:50:51Z</time>
      </trkpt>
      <trkpt lat="48.37952" lon="-4.29263">
        <ele>40.2</ele>
        <time>2020-06-08T15:50:52Z</time>
      </trkpt>
      <trkpt lat="48.37955" lon="-4.29277">
        <ele>40.4</ele>
        <time>2020-06-08T15:50:53Z</time>
      </trkpt>
      <trkpt lat="48.37956" lon="-4.29291">
        <ele>40.4</ele>
        <time>2020-06-08T15:50:54Z</time>
      </trkpt>
      <trkpt lat="48.37958" lon="-4.29304">
        <ele>40.4</ele>
        <time>2020-06-08T15:50:55Z</time>
      </trkpt>
      <trkpt lat="48.37959" lon="-4.29317">
        <ele>40.5</ele>
        <time>2020-06-08T15:50:56Z</time>
      </trkpt>
      <trkpt lat="48.37958" lon="-4.29329">
        <ele>40.5</ele>
        <time>2020-06-08T15:50:57Z</time>
      </trkpt>
      <trkpt lat="48.37957" lon="-4.2934">
        <ele>40.7</ele>
        <time>2020-06-08T15:50:58Z</time>
      </trkpt>
      <trkpt lat="48.37956" lon="-4.2935">
        <ele>40.8</ele>
        <time>2020-06-08T15:50:59Z</time>
      </trkpt>
      <trkpt lat="48.37955" lon="-4.29361">
        <ele>40.9</ele>
        <time>2020-06-08T15:51:00Z</time>
      </trkpt>
      <trkpt lat="48.37954" lon="-4.29372">
        <ele>40.9</ele>
        <time>2020-06-08T15:51:01Z</time>
      </trkpt>
      <trkpt lat="48.37953" lon="-4.29382">
        <ele>41</ele>
        <time>2020-06-08T15:51:02Z</time>
      </trkpt>
      <trkpt lat="48.37954" lon="-4.29391">
        <ele>41</ele>
        <time>2020-06-08T15:51:03Z</time>
      </trkpt>
      <trkpt lat="48.37955" lon="-4.29401">
        <ele>41</ele>
        <time>2020-06-08T15:51:04Z</time>
      </trkpt>
      <trkpt lat="48.37956" lon="-4.29411">
        <ele>41.1</ele>
        <time>2020-06-08T15:51:05Z</time>
      </trkpt>
      <trkpt lat="48.37958" lon="-4.2942">
        <ele>41.3</ele>
        <time>2020-06-08T15:51:06Z</time>
      </trkpt>
      <trkpt lat="48.37955" lon="-4.29428">
        <ele>41.5</ele>
        <time>2020-06-08T15:51:07Z</time>
      </trkpt>
      <trkpt lat="48.37951" lon="-4.29435">
        <ele>42.4</ele>
        <time>2020-06-08T15:51:08Z</time>
      </trkpt>
      <trkpt lat="48.37944" lon="-4.29439">
        <ele>42.1</ele>
        <time>2020-06-08T15:51:09Z</time>
      </trkpt>
      <trkpt lat="48.37939" lon="-4.29443">
        <ele>40.8</ele>
        <time>2020-06-08T15:51:10Z</time>
      </trkpt>
      <trkpt lat="48.37933" lon="-4.29448">
        <ele>40.7</ele>
        <time>2020-06-08T15:51:11Z</time>
      </trkpt>
      <trkpt lat="48.37929" lon="-4.29453">
        <ele>40.6</ele>
        <time>2020-06-08T15:51:12Z</time>
      </trkpt>
      <trkpt lat="48.37925" lon="-4.29461">
        <ele>40.5</ele>
        <time>2020-06-08T15:51:13Z</time>
      </trkpt>
      <trkpt lat="48.37921" lon="-4.29469">
        <ele>40.4</ele>
        <time>2020-06-08T15:51:14Z</time>
      </trkpt>
      <trkpt lat="48.37918" lon="-4.29479">
        <ele>40.3</ele>
        <time>2020-06-08T15:51:15Z</time>
      </trkpt>
      <trkpt lat="48.37915" lon="-4.29488">
        <ele>40.2</ele>
        <time>2020-06-08T15:51:16Z</time>
      </trkpt>
      <trkpt lat="48.37912" lon="-4.29498">
        <ele>40.1</ele>
        <time>2020-06-08T15:51:17Z</time>
      </trkpt>
      <trkpt lat="48.37907" lon="-4.29507">
        <ele>40</ele>
        <time>2020-06-08T15:51:18Z</time>
      </trkpt>
      <trkpt lat="48.37903" lon="-4.29516">
        <ele>40</ele>
        <time>2020-06-08T15:51:19Z</time>
      </trkpt>
      <trkpt lat="48.37899" lon="-4.29524">
        <ele>40</ele>
        <time>2020-06-08T15:51:20Z</time>
      </trkpt>
      <trkpt lat="48.37894" lon="-4.29533">
        <ele>40</ele>
        <time>2020-06-08T15:51:21Z</time>
      </trkpt>
      <trkpt lat="48.37889" lon="-4.2954">
        <ele>40</ele>
        <time>2020-06-08T15:51:22Z</time>
      </trkpt>
      <trkpt lat="48.37884" lon="-4.29548">
        <ele>40</ele>
        <time>2020-06-08T15:51:23Z</time>
      </trkpt>
      <trkpt lat="48.3788" lon="-4.29556">
        <ele>40.1</ele>
        <time>2020-06-08T15:51:24Z</time>
      </trkpt>
      <trkpt lat="48.37876" lon="-4.29564">
        <ele>40.2</ele>
        <time>2020-06-08T15:51:25Z</time>
      </trkpt>
      <trkpt lat="48.37871" lon="-4.2957">
        <ele>40.3</ele>
        <time>2020-06-08T15:51:26Z</time>
      </trkpt>
      <trkpt lat="48.37866" lon="-4.29576">
        <ele>40.4</ele>
        <time>2020-06-08T15:51:27Z</time>
      </trkpt>
      <trkpt lat="48.37862" lon="-4.29583">
        <ele>40.5</ele>
        <time>2020-06-08T15:51:28Z</time>
      </trkpt>
      <trkpt lat="48.37857" lon="-4.2959">
        <ele>40.6</ele>
        <time>2020-06-08T15:51:29Z</time>
      </trkpt>
      <trkpt lat="48.37853" lon="-4.29596">
        <ele>40.7</ele>
        <time>2020-06-08T15:51:30Z</time>
      </trkpt>
      <trkpt lat="48.37849" lon="-4.29602">
        <ele>40.9</ele>
        <time>2020-06-08T15:51:31Z</time>
      </trkpt>
      <trkpt lat="48.37845" lon="-4.29608">
        <ele>41.1</ele>
        <time>2020-06-08T15:51:32Z</time>
      </trkpt>
      <trkpt lat="48.37842" lon="-4.29615">
        <ele>41.3</ele>
        <time>2020-06-08T15:51:33Z</time>
      </trkpt>
      <trkpt lat="48.37838" lon="-4.2962">
        <ele>41.4</ele>
        <time>2020-06-08T15:51:34Z</time>
      </trkpt>
      <trkpt lat="48.37835" lon="-4.29626">
        <ele>41.6</ele>
        <time>2020-06-08T15:51:35Z</time>
      </trkpt>
      <trkpt lat="48.37831" lon="-4.29632">
        <ele>41.7</ele>
        <time>2020-06-08T15:51:36Z</time>
      </trkpt>
      <trkpt lat="48.37827" lon="-4.29637">
        <ele>41.9</ele>
        <time>2020-06-08T15:51:37Z</time>
      </trkpt>
      <trkpt lat="48.37823" lon="-4.29642">
        <ele>42</ele>
        <time>2020-06-08T15:51:38Z</time>
      </trkpt>
      <trkpt lat="48.3782" lon="-4.29648">
        <ele>42.2</ele>
        <time>2020-06-08T15:51:39Z</time>
      </trkpt>
      <trkpt lat="48.37815" lon="-4.29653">
        <ele>42.3</ele>
        <time>2020-06-08T15:51:40Z</time>
      </trkpt>
      <trkpt lat="48.37811" lon="-4.29658">
        <ele>42.5</ele>
        <time>2020-06-08T15:51:41Z</time>
      </trkpt>
      <trkpt lat="48.37807" lon="-4.29664">
        <ele>42.6</ele>
        <time>2020-06-08T15:51:42Z</time>
      </trkpt>
      <trkpt lat="48.37803" lon="-4.29669">
        <ele>42.8</ele>
        <time>2020-06-08T15:51:43Z</time>
      </trkpt>
      <trkpt lat="48.37799" lon="-4.29675">
        <ele>42.9</ele>
        <time>2020-06-08T15:51:44Z</time>
      </trkpt>
      <trkpt lat="48.37796" lon="-4.2968">
        <ele>43.1</ele>
        <time>2020-06-08T15:51:45Z</time>
      </trkpt>
      <trkpt lat="48.37793" lon="-4.29686">
        <ele>43.2</ele>
        <time>2020-06-08T15:51:46Z</time>
      </trkpt>
      <trkpt lat="48.3779" lon="-4.29692">
        <ele>43.3</ele>
        <time>2020-06-08T15:51:47Z</time>
      </trkpt>
      <trkpt lat="48.37787" lon="-4.29697">
        <ele>43.5</ele>
        <time>2020-06-08T15:51:48Z</time>
      </trkpt>
      <trkpt lat="48.37784" lon="-4.29702">
        <ele>43.6</ele>
        <time>2020-06-08T15:51:49Z</time>
      </trkpt>
      <trkpt lat="48.37781" lon="-4.29708">
        <ele>43.7</ele>
        <time>2020-06-08T15:51:50Z</time>
      </trkpt>
      <trkpt lat="48.37778" lon="-4.29714">
        <ele>43.8</ele>
        <time>2020-06-08T15:51:51Z</time>
      </trkpt>
      <trkpt lat="48.37776" lon="-4.2972">
        <ele>43.9</ele>
        <time>2020-06-08T15:51:52Z</time>
      </trkpt>
      <trkpt lat="48.37773" lon="-4.29726">
        <ele>43.9</ele>
        <time>2020-06-08T15:51:53Z</time>
      </trkpt>
      <trkpt lat="48.37771" lon="-4.29732">
        <ele>44</ele>
        <time>2020-06-08T15:51:54Z</time>
      </trkpt>
      <trkpt lat="48.37768" lon="-4.29738">
        <ele>44.1</ele>
        <time>2020-06-08T15:51:55Z</time>
      </trkpt>
      <trkpt lat="48.37765" lon="-4.29744">
        <ele>44.2</ele>
        <time>2020-06-08T15:51:56Z</time>
      </trkpt>
      <trkpt lat="48.37762" lon="-4.2975">
        <ele>44.3</ele>
        <time>2020-06-08T15:51:57Z</time>
      </trkpt>
      <trkpt lat="48.37759" lon="-4.29756">
        <ele>44.4</ele>
        <time>2020-06-08T15:51:58Z</time>
      </trkpt>
      <trkpt lat="48.37757" lon="-4.29761">
        <ele>44.5</ele>
        <time>2020-06-08T15:51:59Z</time>
      </trkpt>
      <trkpt lat="48.37755" lon="-4.29767">
        <ele>44.6</ele>
        <time>2020-06-08T15:52:00Z</time>
      </trkpt>
      <trkpt lat="48.37752" lon="-4.29772">
        <ele>44.7</ele>
        <time>2020-06-08T15:52:01Z</time>
      </trkpt>
      <trkpt lat="48.3775" lon="-4.29778">
        <ele>44.8</ele>
        <time>2020-06-08T15:52:02Z</time>
      </trkpt>
      <trkpt lat="48.37747" lon="-4.29783">
        <ele>45</ele>
        <time>2020-06-08T15:52:03Z</time>
      </trkpt>
      <trkpt lat="48.37745" lon="-4.29788">
        <ele>45.1</ele>
        <time>2020-06-08T15:52:04Z</time>
      </trkpt>
      <trkpt lat="48.37743" lon="-4.29793">
        <ele>45.2</ele>
        <time>2020-06-08T15:52:05Z</time>
      </trkpt>
      <trkpt lat="48.37741" lon="-4.29799">
        <ele>45.3</ele>
        <time>2020-06-08T15:52:06Z</time>
      </trkpt>
      <trkpt lat="48.37739" lon="-4.29804">
        <ele>45.4</ele>
        <time>2020-06-08T15:52:07Z</time>
      </trkpt>
      <trkpt lat="48.37738" lon="-4.2981">
        <ele>45.5</ele>
        <time>2020-06-08T15:52:08Z</time>
      </trkpt>
      <trkpt lat="48.37736" lon="-4.29816">
        <ele>45.5</ele>
        <time>2020-06-08T15:52:09Z</time>
      </trkpt>
      <trkpt lat="48.37734" lon="-4.29822">
        <ele>45.6</ele>
        <time>2020-06-08T15:52:10Z</time>
      </trkpt>
      <trkpt lat="48.37732" lon="-4.29828">
        <ele>45.7</ele>
        <time>2020-06-08T15:52:11Z</time>
      </trkpt>
      <trkpt lat="48.37729" lon="-4.29834">
        <ele>45.8</ele>
        <time>2020-06-08T15:52:12Z</time>
      </trkpt>
      <trkpt lat="48.37726" lon="-4.29839">
        <ele>45.9</ele>
        <time>2020-06-08T15:52:13Z</time>
      </trkpt>
      <trkpt lat="48.37723" lon="-4.29845">
        <ele>46</ele>
        <time>2020-06-08T15:52:14Z</time>
      </trkpt>
      <trkpt lat="48.37722" lon="-4.29852">
        <ele>46.2</ele>
        <time>2020-06-08T15:52:15Z</time>
      </trkpt>
      <trkpt lat="48.3772" lon="-4.29858">
        <ele>46.3</ele>
        <time>2020-06-08T15:52:16Z</time>
      </trkpt>
      <trkpt lat="48.37718" lon="-4.29863">
        <ele>46.4</ele>
        <time>2020-06-08T15:52:17Z</time>
      </trkpt>
      <trkpt lat="48.37714" lon="-4.29868">
        <ele>46.5</ele>
        <time>2020-06-08T15:52:18Z</time>
      </trkpt>
      <trkpt lat="48.37713" lon="-4.29874">
        <ele>46.6</ele>
        <time>2020-06-08T15:52:19Z</time>
      </trkpt>
      <trkpt lat="48.37712" lon="-4.2988">
        <ele>46.7</ele>
        <time>2020-06-08T15:52:20Z</time>
      </trkpt>
      <trkpt lat="48.37709" lon="-4.29885">
        <ele>46.9</ele>
        <time>2020-06-08T15:52:21Z</time>
      </trkpt>
      <trkpt lat="48.37706" lon="-4.29891">
        <ele>47</ele>
        <time>2020-06-08T15:52:22Z</time>
      </trkpt>
      <trkpt lat="48.37704" lon="-4.29898">
        <ele>47.1</ele>
        <time>2020-06-08T15:52:23Z</time>
      </trkpt>
      <trkpt lat="48.37701" lon="-4.29904">
        <ele>47.2</ele>
        <time>2020-06-08T15:52:24Z</time>
      </trkpt>
      <trkpt lat="48.37699" lon="-4.2991">
        <ele>47.3</ele>
        <time>2020-06-08T15:52:25Z</time>
      </trkpt>
      <trkpt lat="48.37696" lon="-4.29916">
        <ele>47.5</ele>
        <time>2020-06-08T15:52:26Z</time>
      </trkpt>
      <trkpt lat="48.37694" lon="-4.29922">
        <ele>47.6</ele>
        <time>2020-06-08T15:52:27Z</time>
      </trkpt>
      <trkpt lat="48.37692" lon="-4.29928">
        <ele>47.8</ele>
        <time>2020-06-08T15:52:28Z</time>
      </trkpt>
      <trkpt lat="48.3769" lon="-4.29935">
        <ele>48</ele>
        <time>2020-06-08T15:52:29Z</time>
      </trkpt>
      <trkpt lat="48.37687" lon="-4.29942">
        <ele>48.2</ele>
        <time>2020-06-08T15:52:30Z</time>
      </trkpt>
      <trkpt lat="48.37683" lon="-4.29949">
        <ele>48.4</ele>
        <time>2020-06-08T15:52:31Z</time>
      </trkpt>
      <trkpt lat="48.37681" lon="-4.29955">
        <ele>48.6</ele>
        <time>2020-06-08T15:52:32Z</time>
      </trkpt>
      <trkpt lat="48.37677" lon="-4.2996">
        <ele>48.8</ele>
        <time>2020-06-08T15:52:33Z</time>
      </trkpt>
      <trkpt lat="48.37674" lon="-4.29965">
        <ele>48.9</ele>
        <time>2020-06-08T15:52:34Z</time>
      </trkpt>
      <trkpt lat="48.37672" lon="-4.2997">
        <ele>49.1</ele>
        <time>2020-06-08T15:52:35Z</time>
      </trkpt>
      <trkpt lat="48.3767" lon="-4.29976">
        <ele>49.3</ele>
        <time>2020-06-08T15:52:36Z</time>
      </trkpt>
      <trkpt lat="48.37668" lon="-4.29981">
        <ele>49.5</ele>
        <time>2020-06-08T15:52:37Z</time>
      </trkpt>
      <trkpt lat="48.37666" lon="-4.29987">
        <ele>49.7</ele>
        <time>2020-06-08T15:52:38Z</time>
      </trkpt>
      <trkpt lat="48.37664" lon="-4.29992">
        <ele>49.9</ele>
        <time>2020-06-08T15:52:39Z</time>
      </trkpt>
      <trkpt lat="48.37662" lon="-4.29998">
        <ele>50.2</ele>
        <time>2020-06-08T15:52:40Z</time>
      </trkpt>
      <trkpt lat="48.37658" lon="-4.30002">
        <ele>50.4</ele>
        <time>2020-06-08T15:52:41Z</time>
      </trkpt>
      <trkpt lat="48.37656" lon="-4.30006">
        <ele>50.5</ele>
        <time>2020-06-08T15:52:42Z</time>
      </trkpt>
      <trkpt lat="48.37655" lon="-4.30011">
        <ele>50.7</ele>
        <time>2020-06-08T15:52:43Z</time>
      </trkpt>
      <trkpt lat="48.37653" lon="-4.30016">
        <ele>50.9</ele>
        <time>2020-06-08T15:52:44Z</time>
      </trkpt>
      <trkpt lat="48.37651" lon="-4.30021">
        <ele>51</ele>
        <time>2020-06-08T15:52:45Z</time>
      </trkpt>
      <trkpt lat="48.37649" lon="-4.30026">
        <ele>51.2</ele>
        <time>2020-06-08T15:52:46Z</time>
      </trkpt>
      <trkpt lat="48.37648" lon="-4.30031">
        <ele>51.4</ele>
        <time>2020-06-08T15:52:47Z</time>
      </trkpt>
      <trkpt lat="48.37646" lon="-4.30036">
        <ele>51.6</ele>
        <time>2020-06-08T15:52:48Z</time>
      </trkpt>
      <trkpt lat="48.37644" lon="-4.30041">
        <ele>51.8</ele>
        <time>2020-06-08T15:52:49Z</time>
      </trkpt>
      <trkpt lat="48.37641" lon="-4.30045">
        <ele>52</ele>
        <time>2020-06-08T15:52:50Z</time>
      </trkpt>
      <trkpt lat="48.37639" lon="-4.3005">
        <ele>52.2</ele>
        <time>2020-06-08T15:52:51Z</time>
      </trkpt>
      <trkpt lat="48.37637" lon="-4.30054">
        <ele>52.4</ele>
        <time>2020-06-08T15:52:52Z</time>
      </trkpt>
      <trkpt lat="48.37635" lon="-4.30059">
        <ele>52.6</ele>
        <time>2020-06-08T15:52:53Z</time>
      </trkpt>
      <trkpt lat="48.37631" lon="-4.30062">
        <ele>52.8</ele>
        <time>2020-06-08T15:52:54Z</time>
      </trkpt>
      <trkpt lat="48.37629" lon="-4.30067">
        <ele>53</ele>
        <time>2020-06-08T15:52:55Z</time>
      </trkpt>
      <trkpt lat="48.37627" lon="-4.30071">
        <ele>53.1</ele>
        <time>2020-06-08T15:52:56Z</time>
      </trkpt>
      <trkpt lat="48.37626" lon="-4.30076">
        <ele>53.3</ele>
        <time>2020-06-08T15:52:57Z</time>
      </trkpt>
      <trkpt lat="48.37625" lon="-4.30082">
        <ele>53.5</ele>
        <time>2020-06-08T15:52:58Z</time>
      </trkpt>
      <trkpt lat="48.37622" lon="-4.30086">
        <ele>53.7</ele>
        <time>2020-06-08T15:52:59Z</time>
      </trkpt>
      <trkpt lat="48.3762" lon="-4.30091">
        <ele>53.8</ele>
        <time>2020-06-08T15:53:00Z</time>
      </trkpt>
      <trkpt lat="48.37617" lon="-4.30096">
        <ele>54</ele>
        <time>2020-06-08T15:53:01Z</time>
      </trkpt>
      <trkpt lat="48.37615" lon="-4.30101">
        <ele>54.2</ele>
        <time>2020-06-08T15:53:02Z</time>
      </trkpt>
      <trkpt lat="48.37614" lon="-4.30106">
        <ele>54.4</ele>
        <time>2020-06-08T15:53:03Z</time>
      </trkpt>
      <trkpt lat="48.37613" lon="-4.3011">
        <ele>54.5</ele>
        <time>2020-06-08T15:53:04Z</time>
      </trkpt>
      <trkpt lat="48.37612" lon="-4.30115">
        <ele>54.7</ele>
        <time>2020-06-08T15:53:05Z</time>
      </trkpt>
      <trkpt lat="48.37611" lon="-4.30119">
        <ele>54.8</ele>
        <time>2020-06-08T15:53:06Z</time>
      </trkpt>
      <trkpt lat="48.3761" lon="-4.30122">
        <ele>54.9</ele>
        <time>2020-06-08T15:53:07Z</time>
      </trkpt>
      <trkpt lat="48.37607" lon="-4.30124">
        <ele>55</ele>
        <time>2020-06-08T15:53:08Z</time>
      </trkpt>
      <trkpt lat="48.37604" lon="-4.30126">
        <ele>55.1</ele>
        <time>2020-06-08T15:53:09Z</time>
      </trkpt>
      <trkpt lat="48.37603" lon="-4.30131">
        <ele>55.1</ele>
        <time>2020-06-08T15:53:10Z</time>
      </trkpt>
      <trkpt lat="48.37601" lon="-4.30135">
        <ele>55.2</ele>
        <time>2020-06-08T15:53:11Z</time>
      </trkpt>
      <trkpt lat="48.37599" lon="-4.3014">
        <ele>55.4</ele>
        <time>2020-06-08T15:53:12Z</time>
      </trkpt>
      <trkpt lat="48.37597" lon="-4.30145">
        <ele>55.5</ele>
        <time>2020-06-08T15:53:13Z</time>
      </trkpt>
      <trkpt lat="48.37596" lon="-4.3015">
        <ele>55.6</ele>
        <time>2020-06-08T15:53:14Z</time>
      </trkpt>
      <trkpt lat="48.37594" lon="-4.30154">
        <ele>55.7</ele>
        <time>2020-06-08T15:53:15Z</time>
      </trkpt>
      <trkpt lat="48.37593" lon="-4.30158">
        <ele>55.8</ele>
        <time>2020-06-08T15:53:16Z</time>
      </trkpt>
      <trkpt lat="48.37591" lon="-4.30162">
        <ele>55.9</ele>
        <time>2020-06-08T15:53:17Z</time>
      </trkpt>
      <trkpt lat="48.3759" lon="-4.30167">
        <ele>56.1</ele>
        <time>2020-06-08T15:53:18Z</time>
      </trkpt>
      <trkpt lat="48.37588" lon="-4.3017">
        <ele>56.2</ele>
        <time>2020-06-08T15:53:19Z</time>
      </trkpt>
      <trkpt lat="48.37586" lon="-4.30175">
        <ele>56.4</ele>
        <time>2020-06-08T15:53:20Z</time>
      </trkpt>
      <trkpt lat="48.37585" lon="-4.3018">
        <ele>56.6</ele>
        <time>2020-06-08T15:53:21Z</time>
      </trkpt>
      <trkpt lat="48.37583" lon="-4.30184">
        <ele>56.8</ele>
        <time>2020-06-08T15:53:22Z</time>
      </trkpt>
      <trkpt lat="48.37581" lon="-4.30188">
        <ele>57</ele>
        <time>2020-06-08T15:53:23Z</time>
      </trkpt>
      <trkpt lat="48.3758" lon="-4.30192">
        <ele>57.1</ele>
        <time>2020-06-08T15:53:24Z</time>
      </trkpt>
      <trkpt lat="48.37578" lon="-4.30196">
        <ele>57.3</ele>
        <time>2020-06-08T15:53:25Z</time>
      </trkpt>
      <trkpt lat="48.37575" lon="-4.30199">
        <ele>57.5</ele>
        <time>2020-06-08T15:53:26Z</time>
      </trkpt>
      <trkpt lat="48.37574" lon="-4.30203">
        <ele>57.7</ele>
        <time>2020-06-08T15:53:27Z</time>
      </trkpt>
      <trkpt lat="48.37572" lon="-4.30208">
        <ele>57.8</ele>
        <time>2020-06-08T15:53:28Z</time>
      </trkpt>
      <trkpt lat="48.37571" lon="-4.30212">
        <ele>58</ele>
        <time>2020-06-08T15:53:29Z</time>
      </trkpt>
      <trkpt lat="48.37569" lon="-4.30216">
        <ele>58.2</ele>
        <time>2020-06-08T15:53:30Z</time>
      </trkpt>
      <trkpt lat="48.37567" lon="-4.3022">
        <ele>58.3</ele>
        <time>2020-06-08T15:53:31Z</time>
      </trkpt>
      <trkpt lat="48.37565" lon="-4.30224">
        <ele>58.5</ele>
        <time>2020-06-08T15:53:32Z</time>
      </trkpt>
      <trkpt lat="48.37563" lon="-4.30227">
        <ele>58.6</ele>
        <time>2020-06-08T15:53:33Z</time>
      </trkpt>
      <trkpt lat="48.37562" lon="-4.30231">
        <ele>58.8</ele>
        <time>2020-06-08T15:53:34Z</time>
      </trkpt>
      <trkpt lat="48.37561" lon="-4.30235">
        <ele>58.9</ele>
        <time>2020-06-08T15:53:35Z</time>
      </trkpt>
      <trkpt lat="48.3756" lon="-4.30239">
        <ele>59</ele>
        <time>2020-06-08T15:53:36Z</time>
      </trkpt>
      <trkpt lat="48.37559" lon="-4.30244">
        <ele>59.2</ele>
        <time>2020-06-08T15:53:37Z</time>
      </trkpt>
      <trkpt lat="48.37558" lon="-4.30248">
        <ele>59.3</ele>
        <time>2020-06-08T15:53:38Z</time>
      </trkpt>
      <trkpt lat="48.37557" lon="-4.30253">
        <ele>59.5</ele>
        <time>2020-06-08T15:53:39Z</time>
      </trkpt>
      <trkpt lat="48.37556" lon="-4.30258">
        <ele>59.7</ele>
        <time>2020-06-08T15:53:40Z</time>
      </trkpt>
      <trkpt lat="48.37553" lon="-4.30263">
        <ele>59.8</ele>
        <time>2020-06-08T15:53:41Z</time>
      </trkpt>
      <trkpt lat="48.37552" lon="-4.30268">
        <ele>60</ele>
        <time>2020-06-08T15:53:42Z</time>
      </trkpt>
      <trkpt lat="48.3755" lon="-4.30273">
        <ele>60.2</ele>
        <time>2020-06-08T15:53:43Z</time>
      </trkpt>
      <trkpt lat="48.37549" lon="-4.30278">
        <ele>60.4</ele>
        <time>2020-06-08T15:53:44Z</time>
      </trkpt>
      <trkpt lat="48.37547" lon="-4.30282">
        <ele>60.6</ele>
        <time>2020-06-08T15:53:45Z</time>
      </trkpt>
      <trkpt lat="48.37545" lon="-4.30287">
        <ele>60.8</ele>
        <time>2020-06-08T15:53:46Z</time>
      </trkpt>
      <trkpt lat="48.37545" lon="-4.30292">
        <ele>61</ele>
        <time>2020-06-08T15:53:47Z</time>
      </trkpt>
      <trkpt lat="48.37544" lon="-4.30297">
        <ele>61.2</ele>
        <time>2020-06-08T15:53:48Z</time>
      </trkpt>
      <trkpt lat="48.37543" lon="-4.30302">
        <ele>61.3</ele>
        <time>2020-06-08T15:53:49Z</time>
      </trkpt>
      <trkpt lat="48.37542" lon="-4.30307">
        <ele>61.5</ele>
        <time>2020-06-08T15:53:50Z</time>
      </trkpt>
      <trkpt lat="48.37542" lon="-4.30311">
        <ele>61.6</ele>
        <time>2020-06-08T15:53:51Z</time>
      </trkpt>
      <trkpt lat="48.37541" lon="-4.30315">
        <ele>61.8</ele>
        <time>2020-06-08T15:53:52Z</time>
      </trkpt>
      <trkpt lat="48.37541" lon="-4.3032">
        <ele>61.9</ele>
        <time>2020-06-08T15:53:53Z</time>
      </trkpt>
      <trkpt lat="48.3754" lon="-4.30325">
        <ele>62.1</ele>
        <time>2020-06-08T15:53:54Z</time>
      </trkpt>
      <trkpt lat="48.3754" lon="-4.3033">
        <ele>62.2</ele>
        <time>2020-06-08T15:53:55Z</time>
      </trkpt>
      <trkpt lat="48.37541" lon="-4.30335">
        <ele>62.4</ele>
        <time>2020-06-08T15:53:56Z</time>
      </trkpt>
      <trkpt lat="48.3754" lon="-4.3034">
        <ele>62.6</ele>
        <time>2020-06-08T15:53:57Z</time>
      </trkpt>
      <trkpt lat="48.37539" lon="-4.30345">
        <ele>62.7</ele>
        <time>2020-06-08T15:53:58Z</time>
      </trkpt>
      <trkpt lat="48.37539" lon="-4.3035">
        <ele>62.9</ele>
        <time>2020-06-08T15:53:59Z</time>
      </trkpt>
      <trkpt lat="48.37538" lon="-4.30354">
        <ele>63</ele>
        <time>2020-06-08T15:54:00Z</time>
      </trkpt>
      <trkpt lat="48.37538" lon="-4.30359">
        <ele>63.1</ele>
        <time>2020-06-08T15:54:01Z</time>
      </trkpt>
      <trkpt lat="48.37537" lon="-4.30364">
        <ele>63.2</ele>
        <time>2020-06-08T15:54:02Z</time>
      </trkpt>
      <trkpt lat="48.37536" lon="-4.30369">
        <ele>63.4</ele>
        <time>2020-06-08T15:54:03Z</time>
      </trkpt>
      <trkpt lat="48.37536" lon="-4.30374">
        <ele>63.5</ele>
        <time>2020-06-08T15:54:04Z</time>
      </trkpt>
      <trkpt lat="48.37536" lon="-4.30379">
        <ele>63.6</ele>
        <time>2020-06-08T15:54:05Z</time>
      </trkpt>
      <trkpt lat="48.37536" lon="-4.30385">
        <ele>63.7</ele>
        <time>2020-06-08T15:54:06Z</time>
      </trkpt>
      <trkpt lat="48.37536" lon="-4.3039">
        <ele>63.9</ele>
        <time>2020-06-08T15:54:07Z</time>
      </trkpt>
      <trkpt lat="48.37536" lon="-4.30395">
        <ele>64</ele>
        <time>2020-06-08T15:54:08Z</time>
      </trkpt>
      <trkpt lat="48.37536" lon="-4.304">
        <ele>64.1</ele>
        <time>2020-06-08T15:54:09Z</time>
      </trkpt>
      <trkpt lat="48.37536" lon="-4.30405">
        <ele>64.2</ele>
        <time>2020-06-08T15:54:10Z</time>
      </trkpt>
      <trkpt lat="48.37536" lon="-4.3041">
        <ele>64.3</ele>
        <time>2020-06-08T15:54:11Z</time>
      </trkpt>
      <trkpt lat="48.37536" lon="-4.30415">
        <ele>64.4</ele>
        <time>2020-06-08T15:54:12Z</time>
      </trkpt>
      <trkpt lat="48.37536" lon="-4.3042">
        <ele>64.5</ele>
        <time>2020-06-08T15:54:13Z</time>
      </trkpt>
      <trkpt lat="48.37536" lon="-4.30425">
        <ele>64.6</ele>
        <time>2020-06-08T15:54:14Z</time>
      </trkpt>
      <trkpt lat="48.37536" lon="-4.3043">
        <ele>64.7</ele>
        <time>2020-06-08T15:54:15Z</time>
      </trkpt>
      <trkpt lat="48.37537" lon="-4.30435">
        <ele>64.7</ele>
        <time>2020-06-08T15:54:16Z</time>
      </trkpt>
      <trkpt lat="48.37537" lon="-4.30439">
        <ele>64.7</ele>
        <time>2020-06-08T15:54:17Z</time>
      </trkpt>
      <trkpt lat="48.37537" lon="-4.30444">
        <ele>64.6</ele>
        <time>2020-06-08T15:54:18Z</time>
      </trkpt>
      <trkpt lat="48.37537" lon="-4.30449">
        <ele>64.6</ele>
        <time>2020-06-08T15:54:19Z</time>
      </trkpt>
      <trkpt lat="48.37536" lon="-4.30453">
        <ele>64.5</ele>
        <time>2020-06-08T15:54:20Z</time>
      </trkpt>
      <trkpt lat="48.37536" lon="-4.30458">
        <ele>64.4</ele>
        <time>2020-06-08T15:54:21Z</time>
      </trkpt>
      <trkpt lat="48.37535" lon="-4.30462">
        <ele>64.4</ele>
        <time>2020-06-08T15:54:22Z</time>
      </trkpt>
      <trkpt lat="48.37536" lon="-4.30468">
        <ele>64.2</ele>
        <time>2020-06-08T15:54:23Z</time>
      </trkpt>
      <trkpt lat="48.37536" lon="-4.3047">
        <ele>64.2</ele>
        <time>2020-06-08T15:54:24Z</time>
      </trkpt>
      <trkpt lat="48.37536" lon="-4.30475">
        <ele>64.1</ele>
        <time>2020-06-08T15:54:25Z</time>
      </trkpt>
      <trkpt lat="48.37536" lon="-4.3048">
        <ele>64.1</ele>
        <time>2020-06-08T15:54:26Z</time>
      </trkpt>
      <trkpt lat="48.37536" lon="-4.30486">
        <ele>64.1</ele>
        <time>2020-06-08T15:54:27Z</time>
      </trkpt>
      <trkpt lat="48.37536" lon="-4.30493">
        <ele>64</ele>
        <time>2020-06-08T15:54:28Z</time>
      </trkpt>
      <trkpt lat="48.37536" lon="-4.305">
        <ele>64</ele>
        <time>2020-06-08T15:54:29Z</time>
      </trkpt>
      <trkpt lat="48.37536" lon="-4.30507">
        <ele>63.9</ele>
        <time>2020-06-08T15:54:30Z</time>
      </trkpt>
      <trkpt lat="48.37537" lon="-4.30514">
        <ele>63.8</ele>
        <time>2020-06-08T15:54:31Z</time>
      </trkpt>
      <trkpt lat="48.37538" lon="-4.30521">
        <ele>63.6</ele>
        <time>2020-06-08T15:54:32Z</time>
      </trkpt>
      <trkpt lat="48.37539" lon="-4.30528">
        <ele>63.5</ele>
        <time>2020-06-08T15:54:33Z</time>
      </trkpt>
      <trkpt lat="48.3754" lon="-4.30536">
        <ele>63.4</ele>
        <time>2020-06-08T15:54:34Z</time>
      </trkpt>
      <trkpt lat="48.37541" lon="-4.30543">
        <ele>63.4</ele>
        <time>2020-06-08T15:54:35Z</time>
      </trkpt>
      <trkpt lat="48.37542" lon="-4.3055">
        <ele>63.3</ele>
        <time>2020-06-08T15:54:36Z</time>
      </trkpt>
      <trkpt lat="48.37543" lon="-4.30556">
        <ele>63.3</ele>
        <time>2020-06-08T15:54:37Z</time>
      </trkpt>
      <trkpt lat="48.37545" lon="-4.30563">
        <ele>63.2</ele>
        <time>2020-06-08T15:54:38Z</time>
      </trkpt>
      <trkpt lat="48.37545" lon="-4.30571">
        <ele>63.1</ele>
        <time>2020-06-08T15:54:39Z</time>
      </trkpt>
      <trkpt lat="48.37545" lon="-4.3058">
        <ele>63.1</ele>
        <time>2020-06-08T15:54:40Z</time>
      </trkpt>
      <trkpt lat="48.37547" lon="-4.30587">
        <ele>63</ele>
        <time>2020-06-08T15:54:41Z</time>
      </trkpt>
      <trkpt lat="48.37549" lon="-4.30594">
        <ele>62.9</ele>
        <time>2020-06-08T15:54:42Z</time>
      </trkpt>
      <trkpt lat="48.37551" lon="-4.30602">
        <ele>62.9</ele>
        <time>2020-06-08T15:54:43Z</time>
      </trkpt>
      <trkpt lat="48.37553" lon="-4.30609">
        <ele>62.9</ele>
        <time>2020-06-08T15:54:44Z</time>
      </trkpt>
      <trkpt lat="48.37555" lon="-4.30615">
        <ele>63</ele>
        <time>2020-06-08T15:54:45Z</time>
      </trkpt>
      <trkpt lat="48.37557" lon="-4.30622">
        <ele>63</ele>
        <time>2020-06-08T15:54:46Z</time>
      </trkpt>
      <trkpt lat="48.37558" lon="-4.30629">
        <ele>63</ele>
        <time>2020-06-08T15:54:47Z</time>
      </trkpt>
      <trkpt lat="48.37561" lon="-4.30635">
        <ele>63</ele>
        <time>2020-06-08T15:54:48Z</time>
      </trkpt>
      <trkpt lat="48.37562" lon="-4.30642">
        <ele>63.1</ele>
        <time>2020-06-08T15:54:49Z</time>
      </trkpt>
      <trkpt lat="48.37564" lon="-4.30649">
        <ele>63.1</ele>
        <time>2020-06-08T15:54:50Z</time>
      </trkpt>
      <trkpt lat="48.37567" lon="-4.30654">
        <ele>63.1</ele>
        <time>2020-06-08T15:54:51Z</time>
      </trkpt>
      <trkpt lat="48.37569" lon="-4.3066">
        <ele>63.1</ele>
        <time>2020-06-08T15:54:52Z</time>
      </trkpt>
      <trkpt lat="48.37571" lon="-4.30666">
        <ele>63.1</ele>
        <time>2020-06-08T15:54:53Z</time>
      </trkpt>
      <trkpt lat="48.37573" lon="-4.30671">
        <ele>63.1</ele>
        <time>2020-06-08T15:54:54Z</time>
      </trkpt>
      <trkpt lat="48.37575" lon="-4.30677">
        <ele>63.1</ele>
        <time>2020-06-08T15:54:55Z</time>
      </trkpt>
      <trkpt lat="48.37577" lon="-4.30683">
        <ele>63.1</ele>
        <time>2020-06-08T15:54:56Z</time>
      </trkpt>
      <trkpt lat="48.37579" lon="-4.30688">
        <ele>63.1</ele>
        <time>2020-06-08T15:54:57Z</time>
      </trkpt>
      <trkpt lat="48.37582" lon="-4.30692">
        <ele>63.2</ele>
        <time>2020-06-08T15:54:58Z</time>
      </trkpt>
      <trkpt lat="48.37585" lon="-4.30696">
        <ele>63.3</ele>
        <time>2020-06-08T15:54:59Z</time>
      </trkpt>
      <trkpt lat="48.37587" lon="-4.30701">
        <ele>63.4</ele>
        <time>2020-06-08T15:55:00Z</time>
      </trkpt>
      <trkpt lat="48.37589" lon="-4.30706">
        <ele>63.6</ele>
        <time>2020-06-08T15:55:01Z</time>
      </trkpt>
      <trkpt lat="48.37591" lon="-4.30711">
        <ele>63.7</ele>
        <time>2020-06-08T15:55:02Z</time>
      </trkpt>
      <trkpt lat="48.37593" lon="-4.30716">
        <ele>63.8</ele>
        <time>2020-06-08T15:55:03Z</time>
      </trkpt>
      <trkpt lat="48.37595" lon="-4.30721">
        <ele>64</ele>
        <time>2020-06-08T15:55:04Z</time>
      </trkpt>
      <trkpt lat="48.37597" lon="-4.30725">
        <ele>64.1</ele>
        <time>2020-06-08T15:55:05Z</time>
      </trkpt>
      <trkpt lat="48.37599" lon="-4.3073">
        <ele>64.3</ele>
        <time>2020-06-08T15:55:06Z</time>
      </trkpt>
      <trkpt lat="48.37602" lon="-4.30734">
        <ele>64.4</ele>
        <time>2020-06-08T15:55:07Z</time>
      </trkpt>
      <trkpt lat="48.37603" lon="-4.30738">
        <ele>64.6</ele>
        <time>2020-06-08T15:55:08Z</time>
      </trkpt>
      <trkpt lat="48.37606" lon="-4.30742">
        <ele>64.7</ele>
        <time>2020-06-08T15:55:09Z</time>
      </trkpt>
      <trkpt lat="48.37608" lon="-4.30746">
        <ele>64.9</ele>
        <time>2020-06-08T15:55:10Z</time>
      </trkpt>
      <trkpt lat="48.37611" lon="-4.30749">
        <ele>65</ele>
        <time>2020-06-08T15:55:11Z</time>
      </trkpt>
      <trkpt lat="48.37615" lon="-4.30752">
        <ele>65.2</ele>
        <time>2020-06-08T15:55:12Z</time>
      </trkpt>
      <trkpt lat="48.37617" lon="-4.30756">
        <ele>65.3</ele>
        <time>2020-06-08T15:55:13Z</time>
      </trkpt>
      <trkpt lat="48.37619" lon="-4.3076">
        <ele>65.4</ele>
        <time>2020-06-08T15:55:14Z</time>
      </trkpt>
      <trkpt lat="48.37621" lon="-4.30764">
        <ele>65.6</ele>
        <time>2020-06-08T15:55:15Z</time>
      </trkpt>
      <trkpt lat="48.37623" lon="-4.30768">
        <ele>65.7</ele>
        <time>2020-06-08T15:55:16Z</time>
      </trkpt>
      <trkpt lat="48.37625" lon="-4.30771">
        <ele>65.8</ele>
        <time>2020-06-08T15:55:17Z</time>
      </trkpt>
      <trkpt lat="48.37627" lon="-4.30775">
        <ele>65.9</ele>
        <time>2020-06-08T15:55:18Z</time>
      </trkpt>
      <trkpt lat="48.37629" lon="-4.30778">
        <ele>66</ele>
        <time>2020-06-08T15:55:19Z</time>
      </trkpt>
      <trkpt lat="48.37631" lon="-4.30782">
        <ele>66</ele>
        <time>2020-06-08T15:55:20Z</time>
      </trkpt>
      <trkpt lat="48.37633" lon="-4.30786">
        <ele>66.1</ele>
        <time>2020-06-08T15:55:21Z</time>
      </trkpt>
      <trkpt lat="48.37635" lon="-4.3079">
        <ele>66.1</ele>
        <time>2020-06-08T15:55:22Z</time>
      </trkpt>
      <trkpt lat="48.37638" lon="-4.30794">
        <ele>66.1</ele>
        <time>2020-06-08T15:55:23Z</time>
      </trkpt>
      <trkpt lat="48.3764" lon="-4.30798">
        <ele>66.1</ele>
        <time>2020-06-08T15:55:24Z</time>
      </trkpt>
      <trkpt lat="48.37643" lon="-4.30802">
        <ele>66.2</ele>
        <time>2020-06-08T15:55:25Z</time>
      </trkpt>
      <trkpt lat="48.37645" lon="-4.30806">
        <ele>66.3</ele>
        <time>2020-06-08T15:55:26Z</time>
      </trkpt>
      <trkpt lat="48.37647" lon="-4.3081">
        <ele>66.3</ele>
        <time>2020-06-08T15:55:27Z</time>
      </trkpt>
      <trkpt lat="48.3765" lon="-4.30814">
        <ele>66.4</ele>
        <time>2020-06-08T15:55:28Z</time>
      </trkpt>
      <trkpt lat="48.37652" lon="-4.30818">
        <ele>66.4</ele>
        <time>2020-06-08T15:55:29Z</time>
      </trkpt>
      <trkpt lat="48.37654" lon="-4.30823">
        <ele>66.5</ele>
        <time>2020-06-08T15:55:30Z</time>
      </trkpt>
      <trkpt lat="48.37658" lon="-4.30825">
        <ele>66.5</ele>
        <time>2020-06-08T15:55:31Z</time>
      </trkpt>
      <trkpt lat="48.3766" lon="-4.30829">
        <ele>66.6</ele>
        <time>2020-06-08T15:55:32Z</time>
      </trkpt>
      <trkpt lat="48.37663" lon="-4.30833">
        <ele>66.6</ele>
        <time>2020-06-08T15:55:33Z</time>
      </trkpt>
      <trkpt lat="48.37665" lon="-4.30837">
        <ele>66.7</ele>
        <time>2020-06-08T15:55:34Z</time>
      </trkpt>
      <trkpt lat="48.37668" lon="-4.30841">
        <ele>66.7</ele>
        <time>2020-06-08T15:55:35Z</time>
      </trkpt>
      <trkpt lat="48.37671" lon="-4.30844">
        <ele>66.7</ele>
        <time>2020-06-08T15:55:36Z</time>
      </trkpt>
      <trkpt lat="48.37674" lon="-4.30846">
        <ele>66.7</ele>
        <time>2020-06-08T15:55:37Z</time>
      </trkpt>
      <trkpt lat="48.37676" lon="-4.30851">
        <ele>66.7</ele>
        <time>2020-06-08T15:55:38Z</time>
      </trkpt>
      <trkpt lat="48.37679" lon="-4.30855">
        <ele>66.7</ele>
        <time>2020-06-08T15:55:39Z</time>
      </trkpt>
      <trkpt lat="48.37681" lon="-4.30859">
        <ele>66.7</ele>
        <time>2020-06-08T15:55:40Z</time>
      </trkpt>
      <trkpt lat="48.37684" lon="-4.30863">
        <ele>66.7</ele>
        <time>2020-06-08T15:55:41Z</time>
      </trkpt>
      <trkpt lat="48.37686" lon="-4.30866">
        <ele>66.7</ele>
        <time>2020-06-08T15:55:42Z</time>
      </trkpt>
      <trkpt lat="48.37689" lon="-4.30871">
        <ele>66.7</ele>
        <time>2020-06-08T15:55:43Z</time>
      </trkpt>
      <trkpt lat="48.37691" lon="-4.30876">
        <ele>66.6</ele>
        <time>2020-06-08T15:55:44Z</time>
      </trkpt>
      <trkpt lat="48.37693" lon="-4.3088">
        <ele>66.6</ele>
        <time>2020-06-08T15:55:45Z</time>
      </trkpt>
      <trkpt lat="48.37696" lon="-4.30884">
        <ele>66.6</ele>
        <time>2020-06-08T15:55:46Z</time>
      </trkpt>
      <trkpt lat="48.37699" lon="-4.30889">
        <ele>66.6</ele>
        <time>2020-06-08T15:55:47Z</time>
      </trkpt>
      <trkpt lat="48.37701" lon="-4.30894">
        <ele>66.6</ele>
        <time>2020-06-08T15:55:48Z</time>
      </trkpt>
      <trkpt lat="48.37704" lon="-4.30898">
        <ele>66.5</ele>
        <time>2020-06-08T15:55:49Z</time>
      </trkpt>
      <trkpt lat="48.37706" lon="-4.30902">
        <ele>66.5</ele>
        <time>2020-06-08T15:55:50Z</time>
      </trkpt>
      <trkpt lat="48.37709" lon="-4.30907">
        <ele>66.5</ele>
        <time>2020-06-08T15:55:51Z</time>
      </trkpt>
      <trkpt lat="48.37711" lon="-4.30912">
        <ele>66.5</ele>
        <time>2020-06-08T15:55:52Z</time>
      </trkpt>
      <trkpt lat="48.37713" lon="-4.30916">
        <ele>66.4</ele>
        <time>2020-06-08T15:55:53Z</time>
      </trkpt>
      <trkpt lat="48.37716" lon="-4.30921">
        <ele>66.4</ele>
        <time>2020-06-08T15:55:54Z</time>
      </trkpt>
      <trkpt lat="48.37718" lon="-4.30926">
        <ele>66.4</ele>
        <time>2020-06-08T15:55:55Z</time>
      </trkpt>
      <trkpt lat="48.3772" lon="-4.30931">
        <ele>66.4</ele>
        <time>2020-06-08T15:55:56Z</time>
      </trkpt>
      <trkpt lat="48.37722" lon="-4.30936">
        <ele>66.4</ele>
        <time>2020-06-08T15:55:57Z</time>
      </trkpt>
      <trkpt lat="48.37724" lon="-4.30942">
        <ele>66.4</ele>
        <time>2020-06-08T15:55:58Z</time>
      </trkpt>
      <trkpt lat="48.37727" lon="-4.30946">
        <ele>66.3</ele>
        <time>2020-06-08T15:55:59Z</time>
      </trkpt>
      <trkpt lat="48.37728" lon="-4.30952">
        <ele>66.3</ele>
        <time>2020-06-08T15:56:00Z</time>
      </trkpt>
      <trkpt lat="48.3773" lon="-4.30957">
        <ele>66.3</ele>
        <time>2020-06-08T15:56:01Z</time>
      </trkpt>
      <trkpt lat="48.37732" lon="-4.30962">
        <ele>66.2</ele>
        <time>2020-06-08T15:56:02Z</time>
      </trkpt>
      <trkpt lat="48.37735" lon="-4.30967">
        <ele>66.2</ele>
        <time>2020-06-08T15:56:03Z</time>
      </trkpt>
      <trkpt lat="48.37738" lon="-4.30971">
        <ele>66.2</ele>
        <time>2020-06-08T15:56:04Z</time>
      </trkpt>
      <trkpt lat="48.37741" lon="-4.30975">
        <ele>66.2</ele>
        <time>2020-06-08T15:56:05Z</time>
      </trkpt>
      <trkpt lat="48.37743" lon="-4.30979">
        <ele>66.1</ele>
        <time>2020-06-08T15:56:06Z</time>
      </trkpt>
      <trkpt lat="48.37745" lon="-4.30984">
        <ele>66.1</ele>
        <time>2020-06-08T15:56:07Z</time>
      </trkpt>
      <trkpt lat="48.37748" lon="-4.30989">
        <ele>66.1</ele>
        <time>2020-06-08T15:56:08Z</time>
      </trkpt>
      <trkpt lat="48.3775" lon="-4.30993">
        <ele>66.1</ele>
        <time>2020-06-08T15:56:09Z</time>
      </trkpt>
      <trkpt lat="48.37752" lon="-4.30997">
        <ele>66.1</ele>
        <time>2020-06-08T15:56:10Z</time>
      </trkpt>
      <trkpt lat="48.37754" lon="-4.31002">
        <ele>66.1</ele>
        <time>2020-06-08T15:56:11Z</time>
      </trkpt>
      <trkpt lat="48.37755" lon="-4.31007">
        <ele>66.1</ele>
        <time>2020-06-08T15:56:12Z</time>
      </trkpt>
      <trkpt lat="48.37757" lon="-4.31013">
        <ele>66.1</ele>
        <time>2020-06-08T15:56:13Z</time>
      </trkpt>
      <trkpt lat="48.37759" lon="-4.31018">
        <ele>66</ele>
        <time>2020-06-08T15:56:14Z</time>
      </trkpt>
      <trkpt lat="48.3776" lon="-4.31025">
        <ele>66</ele>
        <time>2020-06-08T15:56:15Z</time>
      </trkpt>
      <trkpt lat="48.37762" lon="-4.3103">
        <ele>66</ele>
        <time>2020-06-08T15:56:16Z</time>
      </trkpt>
      <trkpt lat="48.37764" lon="-4.31036">
        <ele>66</ele>
        <time>2020-06-08T15:56:17Z</time>
      </trkpt>
      <trkpt lat="48.37766" lon="-4.3104">
        <ele>66</ele>
        <time>2020-06-08T15:56:18Z</time>
      </trkpt>
      <trkpt lat="48.37768" lon="-4.31046">
        <ele>65.9</ele>
        <time>2020-06-08T15:56:19Z</time>
      </trkpt>
      <trkpt lat="48.37769" lon="-4.31051">
        <ele>65.9</ele>
        <time>2020-06-08T15:56:20Z</time>
      </trkpt>
      <trkpt lat="48.3777" lon="-4.31056">
        <ele>65.9</ele>
        <time>2020-06-08T15:56:21Z</time>
      </trkpt>
      <trkpt lat="48.37772" lon="-4.31061">
        <ele>65.9</ele>
        <time>2020-06-08T15:56:22Z</time>
      </trkpt>
      <trkpt lat="48.37774" lon="-4.31066">
        <ele>65.9</ele>
        <time>2020-06-08T15:56:23Z</time>
      </trkpt>
      <trkpt lat="48.37775" lon="-4.31072">
        <ele>65.8</ele>
        <time>2020-06-08T15:56:24Z</time>
      </trkpt>
      <trkpt lat="48.37775" lon="-4.31077">
        <ele>65.8</ele>
        <time>2020-06-08T15:56:25Z</time>
      </trkpt>
      <trkpt lat="48.37775" lon="-4.31081">
        <ele>65.8</ele>
        <time>2020-06-08T15:56:26Z</time>
      </trkpt>
      <trkpt lat="48.37776" lon="-4.31086">
        <ele>65.8</ele>
        <time>2020-06-08T15:56:27Z</time>
      </trkpt>
      <trkpt lat="48.37777" lon="-4.3109">
        <ele>65.8</ele>
        <time>2020-06-08T15:56:28Z</time>
      </trkpt>
      <trkpt lat="48.37778" lon="-4.31094">
        <ele>65.8</ele>
        <time>2020-06-08T15:56:29Z</time>
      </trkpt>
      <trkpt lat="48.37778" lon="-4.31099">
        <ele>65.8</ele>
        <time>2020-06-08T15:56:30Z</time>
      </trkpt>
      <trkpt lat="48.3778" lon="-4.31104">
        <ele>65.8</ele>
        <time>2020-06-08T15:56:31Z</time>
      </trkpt>
      <trkpt lat="48.3778" lon="-4.31109">
        <ele>65.7</ele>
        <time>2020-06-08T15:56:32Z</time>
      </trkpt>
      <trkpt lat="48.37781" lon="-4.31113">
        <ele>65.7</ele>
        <time>2020-06-08T15:56:33Z</time>
      </trkpt>
      <trkpt lat="48.37782" lon="-4.31117">
        <ele>65.6</ele>
        <time>2020-06-08T15:56:34Z</time>
      </trkpt>
      <trkpt lat="48.37784" lon="-4.31122">
        <ele>65.6</ele>
        <time>2020-06-08T15:56:35Z</time>
      </trkpt>
      <trkpt lat="48.37784" lon="-4.31123">
        <ele>65.6</ele>
        <time>2020-06-08T15:56:36Z</time>
      </trkpt>
      <trkpt lat="48.37785" lon="-4.31127">
        <ele>65.6</ele>
        <time>2020-06-08T15:56:37Z</time>
      </trkpt>
      <trkpt lat="48.37786" lon="-4.31133">
        <ele>65.5</ele>
        <time>2020-06-08T15:56:38Z</time>
      </trkpt>
      <trkpt lat="48.37785" lon="-4.31134">
        <ele>65.5</ele>
        <time>2020-06-08T15:56:39Z</time>
      </trkpt>
      <trkpt lat="48.37786" lon="-4.31139">
        <ele>65.5</ele>
        <time>2020-06-08T15:56:40Z</time>
      </trkpt>
      <trkpt lat="48.37786" lon="-4.31141">
        <ele>65.5</ele>
        <time>2020-06-08T15:56:41Z</time>
      </trkpt>
      <trkpt lat="48.37787" lon="-4.31145">
        <ele>65.4</ele>
        <time>2020-06-08T15:56:42Z</time>
      </trkpt>
      <trkpt lat="48.37784" lon="-4.31148">
        <ele>65.4</ele>
        <time>2020-06-08T15:56:43Z</time>
      </trkpt>
      <trkpt lat="48.37782" lon="-4.3115">
        <ele>65.4</ele>
        <time>2020-06-08T15:56:44Z</time>
      </trkpt>
      <trkpt lat="48.37779" lon="-4.31152">
        <ele>65.3</ele>
        <time>2020-06-08T15:56:45Z</time>
      </trkpt>
      <trkpt lat="48.37776" lon="-4.31153">
        <ele>65.3</ele>
        <time>2020-06-08T15:56:46Z</time>
      </trkpt>
      <trkpt lat="48.37773" lon="-4.31154">
        <ele>65.3</ele>
        <time>2020-06-08T15:56:47Z</time>
      </trkpt>
      <trkpt lat="48.37771" lon="-4.31155">
        <ele>65.3</ele>
        <time>2020-06-08T15:56:48Z</time>
      </trkpt>
      <trkpt lat="48.37768" lon="-4.31158">
        <ele>65.3</ele>
        <time>2020-06-08T15:56:49Z</time>
      </trkpt>
      <trkpt lat="48.37766" lon="-4.31162">
        <ele>65.2</ele>
        <time>2020-06-08T15:56:50Z</time>
      </trkpt>
      <trkpt lat="48.37764" lon="-4.31165">
        <ele>65.2</ele>
        <time>2020-06-08T15:56:51Z</time>
      </trkpt>
      <trkpt lat="48.37761" lon="-4.31167">
        <ele>65.3</ele>
        <time>2020-06-08T15:56:52Z</time>
      </trkpt>
      <trkpt lat="48.37759" lon="-4.31169">
        <ele>65.3</ele>
        <time>2020-06-08T15:56:53Z</time>
      </trkpt>
      <trkpt lat="48.37756" lon="-4.31171">
        <ele>65.3</ele>
        <time>2020-06-08T15:56:54Z</time>
      </trkpt>
      <trkpt lat="48.37754" lon="-4.31175">
        <ele>65.3</ele>
        <time>2020-06-08T15:56:55Z</time>
      </trkpt>
      <trkpt lat="48.37752" lon="-4.31178">
        <ele>65.3</ele>
        <time>2020-06-08T15:56:56Z</time>
      </trkpt>
      <trkpt lat="48.37749" lon="-4.31181">
        <ele>65.4</ele>
        <time>2020-06-08T15:56:57Z</time>
      </trkpt>
      <trkpt lat="48.37748" lon="-4.31184">
        <ele>65.4</ele>
        <time>2020-06-08T15:56:58Z</time>
      </trkpt>
      <trkpt lat="48.37746" lon="-4.31188">
        <ele>65.4</ele>
        <time>2020-06-08T15:56:59Z</time>
      </trkpt>
      <trkpt lat="48.37745" lon="-4.31189">
        <ele>65.4</ele>
        <time>2020-06-08T15:57:00Z</time>
      </trkpt>
      <trkpt lat="48.37745" lon="-4.31188">
        <ele>65.4</ele>
        <time>2020-06-08T15:57:01Z</time>
      </trkpt>
      <trkpt lat="48.37745" lon="-4.31187">
        <ele>65.4</ele>
        <time>2020-06-08T15:57:02Z</time>
      </trkpt>
      <trkpt lat="48.37744" lon="-4.31186">
        <ele>65.4</ele>
        <time>2020-06-08T15:57:03Z</time>
      </trkpt>
      <trkpt lat="48.37744" lon="-4.31185">
        <ele>65.4</ele>
        <time>2020-06-08T15:57:04Z</time>
      </trkpt>
      <trkpt lat="48.37744" lon="-4.31184">
        <ele>65.5</ele>
        <time>2020-06-08T15:57:05Z</time>
      </trkpt>
      <trkpt lat="48.37746" lon="-4.31179">
        <ele>65.4</ele>
        <time>2020-06-08T15:57:06Z</time>
      </trkpt>
      <trkpt lat="48.37747" lon="-4.31177">
        <ele>65.4</ele>
        <time>2020-06-08T15:57:07Z</time>
      </trkpt>
      <trkpt lat="48.37749" lon="-4.31174">
        <ele>65.4</ele>
        <time>2020-06-08T15:57:08Z</time>
      </trkpt>
      <trkpt lat="48.37751" lon="-4.31171">
        <ele>65.3</ele>
        <time>2020-06-08T15:57:09Z</time>
      </trkpt>
      <trkpt lat="48.37753" lon="-4.31168">
        <ele>65.3</ele>
        <time>2020-06-08T15:57:10Z</time>
      </trkpt>
      <trkpt lat="48.37756" lon="-4.31165">
        <ele>65.3</ele>
        <time>2020-06-08T15:57:11Z</time>
      </trkpt>
      <trkpt lat="48.37759" lon="-4.31162">
        <ele>65.3</ele>
        <time>2020-06-08T15:57:12Z</time>
      </trkpt>
      <trkpt lat="48.37762" lon="-4.31159">
        <ele>65.3</ele>
        <time>2020-06-08T15:57:13Z</time>
      </trkpt>
      <trkpt lat="48.37764" lon="-4.31156">
        <ele>65.2</ele>
        <time>2020-06-08T15:57:14Z</time>
      </trkpt>
      <trkpt lat="48.37766" lon="-4.31151">
        <ele>65.2</ele>
        <time>2020-06-08T15:57:15Z</time>
      </trkpt>
      <trkpt lat="48.37767" lon="-4.3115">
        <ele>65.3</ele>
        <time>2020-06-08T15:57:16Z</time>
      </trkpt>
      <trkpt lat="48.3777" lon="-4.31147">
        <ele>65.3</ele>
        <time>2020-06-08T15:57:17Z</time>
      </trkpt>
      <trkpt lat="48.37771" lon="-4.31146">
        <ele>65.3</ele>
        <time>2020-06-08T15:57:18Z</time>
      </trkpt>
      <trkpt lat="48.37773" lon="-4.31144">
        <ele>65.3</ele>
        <time>2020-06-08T15:57:19Z</time>
      </trkpt>
      <trkpt lat="48.37774" lon="-4.31145">
        <ele>65.3</ele>
        <time>2020-06-08T15:57:20Z</time>
      </trkpt>
      <trkpt lat="48.37775" lon="-4.31146">
        <ele>65.3</ele>
        <time>2020-06-08T15:57:21Z</time>
      </trkpt>
      <trkpt lat="48.37777" lon="-4.31148">
        <ele>65.3</ele>
        <time>2020-06-08T15:57:22Z</time>
      </trkpt>
      <trkpt lat="48.37778" lon="-4.31152">
        <ele>65.2</ele>
        <time>2020-06-08T15:57:23Z</time>
      </trkpt>
      <trkpt lat="48.37779" lon="-4.31153">
        <ele>65.2</ele>
        <time>2020-06-08T15:57:24Z</time>
      </trkpt>
      <trkpt lat="48.37781" lon="-4.31157">
        <ele>65.1</ele>
        <time>2020-06-08T15:57:25Z</time>
      </trkpt>
      <trkpt lat="48.37782" lon="-4.31159">
        <ele>65.1</ele>
        <time>2020-06-08T15:57:26Z</time>
      </trkpt>
      <trkpt lat="48.37784" lon="-4.31163">
        <ele>64.9</ele>
        <time>2020-06-08T15:57:27Z</time>
      </trkpt>
      <trkpt lat="48.37785" lon="-4.31165">
        <ele>64.8</ele>
        <time>2020-06-08T15:57:28Z</time>
      </trkpt>
      <trkpt lat="48.37786" lon="-4.31169">
        <ele>64.7</ele>
        <time>2020-06-08T15:57:29Z</time>
      </trkpt>
      <trkpt lat="48.37786" lon="-4.31175">
        <ele>64.5</ele>
        <time>2020-06-08T15:57:30Z</time>
      </trkpt>
      <trkpt lat="48.37785" lon="-4.31181">
        <ele>64.3</ele>
        <time>2020-06-08T15:57:31Z</time>
      </trkpt>
      <trkpt lat="48.37784" lon="-4.31187">
        <ele>64.1</ele>
        <time>2020-06-08T15:57:32Z</time>
      </trkpt>
      <trkpt lat="48.37784" lon="-4.31194">
        <ele>63.8</ele>
        <time>2020-06-08T15:57:33Z</time>
      </trkpt>
      <trkpt lat="48.37785" lon="-4.31202">
        <ele>63.3</ele>
        <time>2020-06-08T15:57:34Z</time>
      </trkpt>
      <trkpt lat="48.37786" lon="-4.31209">
        <ele>63.2</ele>
        <time>2020-06-08T15:57:35Z</time>
      </trkpt>
      <trkpt lat="48.37788" lon="-4.31217">
        <ele>63.1</ele>
        <time>2020-06-08T15:57:36Z</time>
      </trkpt>
      <trkpt lat="48.37788" lon="-4.31224">
        <ele>62.9</ele>
        <time>2020-06-08T15:57:37Z</time>
      </trkpt>
      <trkpt lat="48.37788" lon="-4.31233">
        <ele>62.7</ele>
        <time>2020-06-08T15:57:38Z</time>
      </trkpt>
      <trkpt lat="48.37789" lon="-4.31241">
        <ele>62.4</ele>
        <time>2020-06-08T15:57:39Z</time>
      </trkpt>
      <trkpt lat="48.37788" lon="-4.3125">
        <ele>62.1</ele>
        <time>2020-06-08T15:57:40Z</time>
      </trkpt>
      <trkpt lat="48.37789" lon="-4.31259">
        <ele>61.9</ele>
        <time>2020-06-08T15:57:41Z</time>
      </trkpt>
      <trkpt lat="48.3779" lon="-4.31268">
        <ele>61.6</ele>
        <time>2020-06-08T15:57:42Z</time>
      </trkpt>
      <trkpt lat="48.37791" lon="-4.31278">
        <ele>61.4</ele>
        <time>2020-06-08T15:57:43Z</time>
      </trkpt>
      <trkpt lat="48.37791" lon="-4.31289">
        <ele>61.1</ele>
        <time>2020-06-08T15:57:44Z</time>
      </trkpt>
      <trkpt lat="48.37792" lon="-4.313">
        <ele>60.8</ele>
        <time>2020-06-08T15:57:45Z</time>
      </trkpt>
      <trkpt lat="48.37792" lon="-4.3131">
        <ele>60.4</ele>
        <time>2020-06-08T15:57:46Z</time>
      </trkpt>
      <trkpt lat="48.37793" lon="-4.31321">
        <ele>60.1</ele>
        <time>2020-06-08T15:57:47Z</time>
      </trkpt>
      <trkpt lat="48.37794" lon="-4.31332">
        <ele>59.8</ele>
        <time>2020-06-08T15:57:48Z</time>
      </trkpt>
      <trkpt lat="48.37794" lon="-4.31343">
        <ele>59.4</ele>
        <time>2020-06-08T15:57:49Z</time>
      </trkpt>
      <trkpt lat="48.37795" lon="-4.31354">
        <ele>59</ele>
        <time>2020-06-08T15:57:50Z</time>
      </trkpt>
      <trkpt lat="48.37795" lon="-4.31365">
        <ele>58.5</ele>
        <time>2020-06-08T15:57:51Z</time>
      </trkpt>
      <trkpt lat="48.37796" lon="-4.31376">
        <ele>58.1</ele>
        <time>2020-06-08T15:57:52Z</time>
      </trkpt>
      <trkpt lat="48.37796" lon="-4.31387">
        <ele>57.6</ele>
        <time>2020-06-08T15:57:53Z</time>
      </trkpt>
      <trkpt lat="48.37796" lon="-4.31399">
        <ele>57</ele>
        <time>2020-06-08T15:57:54Z</time>
      </trkpt>
      <trkpt lat="48.37795" lon="-4.31411">
        <ele>56.5</ele>
        <time>2020-06-08T15:57:55Z</time>
      </trkpt>
      <trkpt lat="48.37795" lon="-4.31424">
        <ele>55.9</ele>
        <time>2020-06-08T15:57:56Z</time>
      </trkpt>
      <trkpt lat="48.37794" lon="-4.31436">
        <ele>55.3</ele>
        <time>2020-06-08T15:57:57Z</time>
      </trkpt>
      <trkpt lat="48.37792" lon="-4.31449">
        <ele>54.7</ele>
        <time>2020-06-08T15:57:58Z</time>
      </trkpt>
      <trkpt lat="48.37791" lon="-4.31462">
        <ele>54.1</ele>
        <time>2020-06-08T15:57:59Z</time>
      </trkpt>
      <trkpt lat="48.37791" lon="-4.31476">
        <ele>53.5</ele>
        <time>2020-06-08T15:58:00Z</time>
      </trkpt>
      <trkpt lat="48.37789" lon="-4.31491">
        <ele>52.8</ele>
        <time>2020-06-08T15:58:01Z</time>
      </trkpt>
      <trkpt lat="48.37787" lon="-4.31505">
        <ele>52.1</ele>
        <time>2020-06-08T15:58:02Z</time>
      </trkpt>
      <trkpt lat="48.37785" lon="-4.3152">
        <ele>51.5</ele>
        <time>2020-06-08T15:58:03Z</time>
      </trkpt>
      <trkpt lat="48.37783" lon="-4.31536">
        <ele>50.9</ele>
        <time>2020-06-08T15:58:04Z</time>
      </trkpt>
      <trkpt lat="48.37782" lon="-4.31551">
        <ele>50.3</ele>
        <time>2020-06-08T15:58:05Z</time>
      </trkpt>
      <trkpt lat="48.37781" lon="-4.31566">
        <ele>49.7</ele>
        <time>2020-06-08T15:58:06Z</time>
      </trkpt>
      <trkpt lat="48.3778" lon="-4.31581">
        <ele>49.1</ele>
        <time>2020-06-08T15:58:07Z</time>
      </trkpt>
      <trkpt lat="48.3778" lon="-4.31597">
        <ele>48.5</ele>
        <time>2020-06-08T15:58:08Z</time>
      </trkpt>
      <trkpt lat="48.37779" lon="-4.31612">
        <ele>47.8</ele>
        <time>2020-06-08T15:58:09Z</time>
      </trkpt>
      <trkpt lat="48.3778" lon="-4.31628">
        <ele>47.2</ele>
        <time>2020-06-08T15:58:10Z</time>
      </trkpt>
      <trkpt lat="48.37781" lon="-4.31644">
        <ele>46.6</ele>
        <time>2020-06-08T15:58:11Z</time>
      </trkpt>
      <trkpt lat="48.37783" lon="-4.3166">
        <ele>46</ele>
        <time>2020-06-08T15:58:12Z</time>
      </trkpt>
      <trkpt lat="48.37784" lon="-4.31676">
        <ele>45.5</ele>
        <time>2020-06-08T15:58:13Z</time>
      </trkpt>
      <trkpt lat="48.37785" lon="-4.31692">
        <ele>44.9</ele>
        <time>2020-06-08T15:58:14Z</time>
      </trkpt>
      <trkpt lat="48.37786" lon="-4.31708">
        <ele>44.4</ele>
        <time>2020-06-08T15:58:15Z</time>
      </trkpt>
      <trkpt lat="48.37787" lon="-4.31724">
        <ele>43.8</ele>
        <time>2020-06-08T15:58:16Z</time>
      </trkpt>
      <trkpt lat="48.37788" lon="-4.3174">
        <ele>43.2</ele>
        <time>2020-06-08T15:58:17Z</time>
      </trkpt>
      <trkpt lat="48.3779" lon="-4.31756">
        <ele>42.6</ele>
        <time>2020-06-08T15:58:18Z</time>
      </trkpt>
      <trkpt lat="48.37791" lon="-4.31772">
        <ele>42</ele>
        <time>2020-06-08T15:58:19Z</time>
      </trkpt>
      <trkpt lat="48.37792" lon="-4.31789">
        <ele>41.4</ele>
        <time>2020-06-08T15:58:20Z</time>
      </trkpt>
      <trkpt lat="48.37792" lon="-4.31805">
        <ele>40.8</ele>
        <time>2020-06-08T15:58:21Z</time>
      </trkpt>
      <trkpt lat="48.37793" lon="-4.31821">
        <ele>40.2</ele>
        <time>2020-06-08T15:58:22Z</time>
      </trkpt>
      <trkpt lat="48.37794" lon="-4.31838">
        <ele>39.7</ele>
        <time>2020-06-08T15:58:23Z</time>
      </trkpt>
      <trkpt lat="48.37794" lon="-4.31853">
        <ele>39.3</ele>
        <time>2020-06-08T15:58:24Z</time>
      </trkpt>
      <trkpt lat="48.37796" lon="-4.31869">
        <ele>38.9</ele>
        <time>2020-06-08T15:58:25Z</time>
      </trkpt>
      <trkpt lat="48.37797" lon="-4.31885">
        <ele>38.8</ele>
        <time>2020-06-08T15:58:26Z</time>
      </trkpt>
      <trkpt lat="48.37799" lon="-4.31901">
        <ele>38.4</ele>
        <time>2020-06-08T15:58:27Z</time>
      </trkpt>
      <trkpt lat="48.37801" lon="-4.31917">
        <ele>37.7</ele>
        <time>2020-06-08T15:58:28Z</time>
      </trkpt>
      <trkpt lat="48.37804" lon="-4.31932">
        <ele>37.2</ele>
        <time>2020-06-08T15:58:29Z</time>
      </trkpt>
      <trkpt lat="48.37808" lon="-4.31947">
        <ele>36.9</ele>
        <time>2020-06-08T15:58:30Z</time>
      </trkpt>
      <trkpt lat="48.37811" lon="-4.31961">
        <ele>36.6</ele>
        <time>2020-06-08T15:58:31Z</time>
      </trkpt>
      <trkpt lat="48.37815" lon="-4.31975">
        <ele>36.3</ele>
        <time>2020-06-08T15:58:32Z</time>
      </trkpt>
      <trkpt lat="48.37819" lon="-4.31988">
        <ele>36</ele>
        <time>2020-06-08T15:58:33Z</time>
      </trkpt>
      <trkpt lat="48.37824" lon="-4.32001">
        <ele>35.6</ele>
        <time>2020-06-08T15:58:34Z</time>
      </trkpt>
      <trkpt lat="48.37828" lon="-4.32014">
        <ele>35.5</ele>
        <time>2020-06-08T15:58:35Z</time>
      </trkpt>
      <trkpt lat="48.37832" lon="-4.32027">
        <ele>35.3</ele>
        <time>2020-06-08T15:58:36Z</time>
      </trkpt>
      <trkpt lat="48.37836" lon="-4.32039">
        <ele>35.2</ele>
        <time>2020-06-08T15:58:37Z</time>
      </trkpt>
      <trkpt lat="48.37841" lon="-4.32051">
        <ele>35.1</ele>
        <time>2020-06-08T15:58:38Z</time>
      </trkpt>
      <trkpt lat="48.37846" lon="-4.32062">
        <ele>35.1</ele>
        <time>2020-06-08T15:58:39Z</time>
      </trkpt>
      <trkpt lat="48.37851" lon="-4.32072">
        <ele>35.1</ele>
        <time>2020-06-08T15:58:40Z</time>
      </trkpt>
      <trkpt lat="48.37855" lon="-4.32083">
        <ele>35.2</ele>
        <time>2020-06-08T15:58:41Z</time>
      </trkpt>
      <trkpt lat="48.3786" lon="-4.32093">
        <ele>35.3</ele>
        <time>2020-06-08T15:58:42Z</time>
      </trkpt>
      <trkpt lat="48.37864" lon="-4.32104">
        <ele>35.3</ele>
        <time>2020-06-08T15:58:43Z</time>
      </trkpt>
      <trkpt lat="48.37869" lon="-4.32115">
        <ele>35.4</ele>
        <time>2020-06-08T15:58:44Z</time>
      </trkpt>
      <trkpt lat="48.37874" lon="-4.32125">
        <ele>35.4</ele>
        <time>2020-06-08T15:58:45Z</time>
      </trkpt>
      <trkpt lat="48.37879" lon="-4.32136">
        <ele>35.5</ele>
        <time>2020-06-08T15:58:46Z</time>
      </trkpt>
      <trkpt lat="48.37884" lon="-4.32145">
        <ele>35.6</ele>
        <time>2020-06-08T15:58:47Z</time>
      </trkpt>
      <trkpt lat="48.37886" lon="-4.32155">
        <ele>35.8</ele>
        <time>2020-06-08T15:58:48Z</time>
      </trkpt>
      <trkpt lat="48.37889" lon="-4.32165">
        <ele>36</ele>
        <time>2020-06-08T15:58:49Z</time>
      </trkpt>
      <trkpt lat="48.37893" lon="-4.32174">
        <ele>36.1</ele>
        <time>2020-06-08T15:58:50Z</time>
      </trkpt>
      <trkpt lat="48.37895" lon="-4.32184">
        <ele>36.3</ele>
        <time>2020-06-08T15:58:51Z</time>
      </trkpt>
      <trkpt lat="48.37898" lon="-4.32193">
        <ele>36.5</ele>
        <time>2020-06-08T15:58:52Z</time>
      </trkpt>
      <trkpt lat="48.37901" lon="-4.32204">
        <ele>36.6</ele>
        <time>2020-06-08T15:58:53Z</time>
      </trkpt>
      <trkpt lat="48.37903" lon="-4.32214">
        <ele>36.9</ele>
        <time>2020-06-08T15:58:54Z</time>
      </trkpt>
      <trkpt lat="48.37905" lon="-4.32225">
        <ele>37.1</ele>
        <time>2020-06-08T15:58:55Z</time>
      </trkpt>
      <trkpt lat="48.37908" lon="-4.32235">
        <ele>37.4</ele>
        <time>2020-06-08T15:58:56Z</time>
      </trkpt>
      <trkpt lat="48.37908" lon="-4.32245">
        <ele>37.8</ele>
        <time>2020-06-08T15:58:57Z</time>
      </trkpt>
      <trkpt lat="48.37909" lon="-4.32255">
        <ele>38.2</ele>
        <time>2020-06-08T15:58:58Z</time>
      </trkpt>
      <trkpt lat="48.37912" lon="-4.32266">
        <ele>38.4</ele>
        <time>2020-06-08T15:58:59Z</time>
      </trkpt>
      <trkpt lat="48.37913" lon="-4.32276">
        <ele>38.5</ele>
        <time>2020-06-08T15:59:00Z</time>
      </trkpt>
      <trkpt lat="48.37914" lon="-4.32286">
        <ele>38.7</ele>
        <time>2020-06-08T15:59:01Z</time>
      </trkpt>
      <trkpt lat="48.37915" lon="-4.32296">
        <ele>38.8</ele>
        <time>2020-06-08T15:59:02Z</time>
      </trkpt>
      <trkpt lat="48.37916" lon="-4.32305">
        <ele>39</ele>
        <time>2020-06-08T15:59:03Z</time>
      </trkpt>
      <trkpt lat="48.37916" lon="-4.32314">
        <ele>39.1</ele>
        <time>2020-06-08T15:59:04Z</time>
      </trkpt>
      <trkpt lat="48.37916" lon="-4.32324">
        <ele>39.3</ele>
        <time>2020-06-08T15:59:05Z</time>
      </trkpt>
      <trkpt lat="48.37916" lon="-4.32333">
        <ele>39.4</ele>
        <time>2020-06-08T15:59:06Z</time>
      </trkpt>
      <trkpt lat="48.37916" lon="-4.32342">
        <ele>39.6</ele>
        <time>2020-06-08T15:59:07Z</time>
      </trkpt>
      <trkpt lat="48.37916" lon="-4.32351">
        <ele>39.7</ele>
        <time>2020-06-08T15:59:08Z</time>
      </trkpt>
      <trkpt lat="48.37916" lon="-4.32359">
        <ele>39.8</ele>
        <time>2020-06-08T15:59:09Z</time>
      </trkpt>
      <trkpt lat="48.37917" lon="-4.32367">
        <ele>39.9</ele>
        <time>2020-06-08T15:59:10Z</time>
      </trkpt>
      <trkpt lat="48.37917" lon="-4.32375">
        <ele>40</ele>
        <time>2020-06-08T15:59:11Z</time>
      </trkpt>
      <trkpt lat="48.37917" lon="-4.32382">
        <ele>40.1</ele>
        <time>2020-06-08T15:59:12Z</time>
      </trkpt>
      <trkpt lat="48.37917" lon="-4.3239">
        <ele>40.2</ele>
        <time>2020-06-08T15:59:13Z</time>
      </trkpt>
      <trkpt lat="48.37917" lon="-4.32399">
        <ele>40.3</ele>
        <time>2020-06-08T15:59:14Z</time>
      </trkpt>
      <trkpt lat="48.37916" lon="-4.32407">
        <ele>40.4</ele>
        <time>2020-06-08T15:59:15Z</time>
      </trkpt>
      <trkpt lat="48.37916" lon="-4.32415">
        <ele>40.5</ele>
        <time>2020-06-08T15:59:16Z</time>
      </trkpt>
      <trkpt lat="48.37916" lon="-4.32424">
        <ele>40.5</ele>
        <time>2020-06-08T15:59:17Z</time>
      </trkpt>
      <trkpt lat="48.37915" lon="-4.32431">
        <ele>40.6</ele>
        <time>2020-06-08T15:59:18Z</time>
      </trkpt>
      <trkpt lat="48.37915" lon="-4.32439">
        <ele>40.7</ele>
        <time>2020-06-08T15:59:19Z</time>
      </trkpt>
      <trkpt lat="48.37914" lon="-4.32448">
        <ele>40.8</ele>
        <time>2020-06-08T15:59:20Z</time>
      </trkpt>
      <trkpt lat="48.37913" lon="-4.32457">
        <ele>41</ele>
        <time>2020-06-08T15:59:21Z</time>
      </trkpt>
      <trkpt lat="48.37913" lon="-4.32465">
        <ele>41.1</ele>
        <time>2020-06-08T15:59:22Z</time>
      </trkpt>
      <trkpt lat="48.37912" lon="-4.32472">
        <ele>41.3</ele>
        <time>2020-06-08T15:59:23Z</time>
      </trkpt>
      <trkpt lat="48.37912" lon="-4.3248">
        <ele>41.5</ele>
        <time>2020-06-08T15:59:24Z</time>
      </trkpt>
      <trkpt lat="48.37911" lon="-4.32489">
        <ele>41.7</ele>
        <time>2020-06-08T15:59:25Z</time>
      </trkpt>
      <trkpt lat="48.37911" lon="-4.32497">
        <ele>41.8</ele>
        <time>2020-06-08T15:59:26Z</time>
      </trkpt>
      <trkpt lat="48.37911" lon="-4.32504">
        <ele>42</ele>
        <time>2020-06-08T15:59:27Z</time>
      </trkpt>
      <trkpt lat="48.3791" lon="-4.3251">
        <ele>42.1</ele>
        <time>2020-06-08T15:59:28Z</time>
      </trkpt>
      <trkpt lat="48.3791" lon="-4.32515">
        <ele>42.5</ele>
        <time>2020-06-08T15:59:29Z</time>
      </trkpt>
      <trkpt lat="48.37909" lon="-4.32524">
        <ele>42.9</ele>
        <time>2020-06-08T15:59:30Z</time>
      </trkpt>
      <trkpt lat="48.3791" lon="-4.32531">
        <ele>43.2</ele>
        <time>2020-06-08T15:59:31Z</time>
      </trkpt>
      <trkpt lat="48.3791" lon="-4.32538">
        <ele>43.5</ele>
        <time>2020-06-08T15:59:32Z</time>
      </trkpt>
      <trkpt lat="48.37911" lon="-4.32545">
        <ele>43.8</ele>
        <time>2020-06-08T15:59:33Z</time>
      </trkpt>
      <trkpt lat="48.37911" lon="-4.32552">
        <ele>44.1</ele>
        <time>2020-06-08T15:59:34Z</time>
      </trkpt>
      <trkpt lat="48.37912" lon="-4.32558">
        <ele>44.4</ele>
        <time>2020-06-08T15:59:35Z</time>
      </trkpt>
      <trkpt lat="48.37912" lon="-4.32565">
        <ele>44.7</ele>
        <time>2020-06-08T15:59:36Z</time>
      </trkpt>
      <trkpt lat="48.37913" lon="-4.32571">
        <ele>45</ele>
        <time>2020-06-08T15:59:37Z</time>
      </trkpt>
      <trkpt lat="48.37913" lon="-4.32577">
        <ele>45.2</ele>
        <time>2020-06-08T15:59:38Z</time>
      </trkpt>
      <trkpt lat="48.37913" lon="-4.32581">
        <ele>45.5</ele>
        <time>2020-06-08T15:59:39Z</time>
      </trkpt>
      <trkpt lat="48.37913" lon="-4.32588">
        <ele>45.8</ele>
        <time>2020-06-08T15:59:40Z</time>
      </trkpt>
      <trkpt lat="48.37913" lon="-4.32596">
        <ele>46.2</ele>
        <time>2020-06-08T15:59:41Z</time>
      </trkpt>
      <trkpt lat="48.37914" lon="-4.32603">
        <ele>46.5</ele>
        <time>2020-06-08T15:59:42Z</time>
      </trkpt>
      <trkpt lat="48.37915" lon="-4.32608">
        <ele>46.8</ele>
        <time>2020-06-08T15:59:43Z</time>
      </trkpt>
      <trkpt lat="48.37915" lon="-4.32613">
        <ele>47</ele>
        <time>2020-06-08T15:59:44Z</time>
      </trkpt>
      <trkpt lat="48.37915" lon="-4.32618">
        <ele>47.3</ele>
        <time>2020-06-08T15:59:45Z</time>
      </trkpt>
      <trkpt lat="48.37915" lon="-4.32625">
        <ele>47.7</ele>
        <time>2020-06-08T15:59:46Z</time>
      </trkpt>
      <trkpt lat="48.37915" lon="-4.3263">
        <ele>48</ele>
        <time>2020-06-08T15:59:47Z</time>
      </trkpt>
      <trkpt lat="48.37916" lon="-4.32635">
        <ele>48.3</ele>
        <time>2020-06-08T15:59:48Z</time>
      </trkpt>
      <trkpt lat="48.37916" lon="-4.32639">
        <ele>48.5</ele>
        <time>2020-06-08T15:59:49Z</time>
      </trkpt>
      <trkpt lat="48.37917" lon="-4.32645">
        <ele>48.8</ele>
        <time>2020-06-08T15:59:50Z</time>
      </trkpt>
      <trkpt lat="48.37918" lon="-4.32652">
        <ele>49.1</ele>
        <time>2020-06-08T15:59:51Z</time>
      </trkpt>
      <trkpt lat="48.37919" lon="-4.32656">
        <ele>49.3</ele>
        <time>2020-06-08T15:59:52Z</time>
      </trkpt>
      <trkpt lat="48.3792" lon="-4.32662">
        <ele>49.5</ele>
        <time>2020-06-08T15:59:53Z</time>
      </trkpt>
      <trkpt lat="48.37921" lon="-4.32667">
        <ele>49.7</ele>
        <time>2020-06-08T15:59:54Z</time>
      </trkpt>
      <trkpt lat="48.37922" lon="-4.32673">
        <ele>49.9</ele>
        <time>2020-06-08T15:59:55Z</time>
      </trkpt>
      <trkpt lat="48.37923" lon="-4.32681">
        <ele>50.2</ele>
        <time>2020-06-08T15:59:56Z</time>
      </trkpt>
      <trkpt lat="48.37924" lon="-4.32685">
        <ele>50.3</ele>
        <time>2020-06-08T15:59:57Z</time>
      </trkpt>
      <trkpt lat="48.37925" lon="-4.32689">
        <ele>50.5</ele>
        <time>2020-06-08T15:59:58Z</time>
      </trkpt>
      <trkpt lat="48.37926" lon="-4.32695">
        <ele>50.6</ele>
        <time>2020-06-08T15:59:59Z</time>
      </trkpt>
      <trkpt lat="48.37927" lon="-4.32701">
        <ele>50.8</ele>
        <time>2020-06-08T16:00:00Z</time>
      </trkpt>
      <trkpt lat="48.37928" lon="-4.32706">
        <ele>50.9</ele>
        <time>2020-06-08T16:00:01Z</time>
      </trkpt>
      <trkpt lat="48.37931" lon="-4.32714">
        <ele>51</ele>
        <time>2020-06-08T16:00:02Z</time>
      </trkpt>
      <trkpt lat="48.37932" lon="-4.32718">
        <ele>51.1</ele>
        <time>2020-06-08T16:00:03Z</time>
      </trkpt>
      <trkpt lat="48.37933" lon="-4.32723">
        <ele>51.2</ele>
        <time>2020-06-08T16:00:04Z</time>
      </trkpt>
      <trkpt lat="48.37934" lon="-4.32728">
        <ele>51.3</ele>
        <time>2020-06-08T16:00:05Z</time>
      </trkpt>
      <trkpt lat="48.37936" lon="-4.32734">
        <ele>51.4</ele>
        <time>2020-06-08T16:00:06Z</time>
      </trkpt>
      <trkpt lat="48.37938" lon="-4.32738">
        <ele>51.4</ele>
        <time>2020-06-08T16:00:07Z</time>
      </trkpt>
      <trkpt lat="48.37939" lon="-4.32743">
        <ele>51.5</ele>
        <time>2020-06-08T16:00:08Z</time>
      </trkpt>
      <trkpt lat="48.37941" lon="-4.32748">
        <ele>51.5</ele>
        <time>2020-06-08T16:00:09Z</time>
      </trkpt>
      <trkpt lat="48.37943" lon="-4.32753">
        <ele>51.6</ele>
        <time>2020-06-08T16:00:10Z</time>
      </trkpt>
      <trkpt lat="48.37944" lon="-4.32758">
        <ele>51.6</ele>
        <time>2020-06-08T16:00:11Z</time>
      </trkpt>
      <trkpt lat="48.37945" lon="-4.3276">
        <ele>51.6</ele>
        <time>2020-06-08T16:00:12Z</time>
      </trkpt>
      <trkpt lat="48.37946" lon="-4.32764">
        <ele>51.6</ele>
        <time>2020-06-08T16:00:13Z</time>
      </trkpt>
      <trkpt lat="48.37948" lon="-4.3277">
        <ele>51.6</ele>
        <time>2020-06-08T16:00:14Z</time>
      </trkpt>
      <trkpt lat="48.37949" lon="-4.32773">
        <ele>51.6</ele>
        <time>2020-06-08T16:00:15Z</time>
      </trkpt>
      <trkpt lat="48.37951" lon="-4.32777">
        <ele>51.5</ele>
        <time>2020-06-08T16:00:16Z</time>
      </trkpt>
      <trkpt lat="48.37953" lon="-4.32781">
        <ele>51.5</ele>
        <time>2020-06-08T16:00:17Z</time>
      </trkpt>
      <trkpt lat="48.37955" lon="-4.32785">
        <ele>51.5</ele>
        <time>2020-06-08T16:00:18Z</time>
      </trkpt>
      <trkpt lat="48.37957" lon="-4.32789">
        <ele>51.5</ele>
        <time>2020-06-08T16:00:19Z</time>
      </trkpt>
      <trkpt lat="48.37958" lon="-4.32794">
        <ele>51.5</ele>
        <time>2020-06-08T16:00:20Z</time>
      </trkpt>
      <trkpt lat="48.3796" lon="-4.32797">
        <ele>51.4</ele>
        <time>2020-06-08T16:00:21Z</time>
      </trkpt>
      <trkpt lat="48.37963" lon="-4.32804">
        <ele>51.4</ele>
        <time>2020-06-08T16:00:22Z</time>
      </trkpt>
      <trkpt lat="48.37966" lon="-4.32811">
        <ele>51.4</ele>
        <time>2020-06-08T16:00:23Z</time>
      </trkpt>
      <trkpt lat="48.37969" lon="-4.32814">
        <ele>51.3</ele>
        <time>2020-06-08T16:00:24Z</time>
      </trkpt>
      <trkpt lat="48.37971" lon="-4.32819">
        <ele>51.3</ele>
        <time>2020-06-08T16:00:25Z</time>
      </trkpt>
      <trkpt lat="48.37973" lon="-4.32825">
        <ele>51.3</ele>
        <time>2020-06-08T16:00:26Z</time>
      </trkpt>
      <trkpt lat="48.37975" lon="-4.32829">
        <ele>51.3</ele>
        <time>2020-06-08T16:00:27Z</time>
      </trkpt>
      <trkpt lat="48.37977" lon="-4.32835">
        <ele>51.2</ele>
        <time>2020-06-08T16:00:28Z</time>
      </trkpt>
      <trkpt lat="48.3798" lon="-4.3284">
        <ele>51.2</ele>
        <time>2020-06-08T16:00:29Z</time>
      </trkpt>
      <trkpt lat="48.37983" lon="-4.32848">
        <ele>51.2</ele>
        <time>2020-06-08T16:00:30Z</time>
      </trkpt>
      <trkpt lat="48.37986" lon="-4.32853">
        <ele>51.1</ele>
        <time>2020-06-08T16:00:31Z</time>
      </trkpt>
      <trkpt lat="48.3799" lon="-4.32859">
        <ele>51.1</ele>
        <time>2020-06-08T16:00:32Z</time>
      </trkpt>
      <trkpt lat="48.37992" lon="-4.32865">
        <ele>51.1</ele>
        <time>2020-06-08T16:00:33Z</time>
      </trkpt>
      <trkpt lat="48.37994" lon="-4.3287">
        <ele>51.1</ele>
        <time>2020-06-08T16:00:34Z</time>
      </trkpt>
      <trkpt lat="48.37997" lon="-4.32877">
        <ele>51.1</ele>
        <time>2020-06-08T16:00:35Z</time>
      </trkpt>
      <trkpt lat="48.37999" lon="-4.32882">
        <ele>51.1</ele>
        <time>2020-06-08T16:00:36Z</time>
      </trkpt>
      <trkpt lat="48.38002" lon="-4.32889">
        <ele>51.1</ele>
        <time>2020-06-08T16:00:37Z</time>
      </trkpt>
      <trkpt lat="48.38004" lon="-4.32894">
        <ele>51.1</ele>
        <time>2020-06-08T16:00:38Z</time>
      </trkpt>
      <trkpt lat="48.38007" lon="-4.32898">
        <ele>51.1</ele>
        <time>2020-06-08T16:00:39Z</time>
      </trkpt>
      <trkpt lat="48.38009" lon="-4.32903">
        <ele>51.2</ele>
        <time>2020-06-08T16:00:40Z</time>
      </trkpt>
      <trkpt lat="48.38013" lon="-4.3291">
        <ele>51.2</ele>
        <time>2020-06-08T16:00:41Z</time>
      </trkpt>
      <trkpt lat="48.38015" lon="-4.32914">
        <ele>51.3</ele>
        <time>2020-06-08T16:00:42Z</time>
      </trkpt>
      <trkpt lat="48.38018" lon="-4.32919">
        <ele>51.4</ele>
        <time>2020-06-08T16:00:43Z</time>
      </trkpt>
      <trkpt lat="48.38022" lon="-4.32926">
        <ele>51.6</ele>
        <time>2020-06-08T16:00:44Z</time>
      </trkpt>
      <trkpt lat="48.38025" lon="-4.32931">
        <ele>51.7</ele>
        <time>2020-06-08T16:00:45Z</time>
      </trkpt>
      <trkpt lat="48.38027" lon="-4.32934">
        <ele>51.8</ele>
        <time>2020-06-08T16:00:46Z</time>
      </trkpt>
      <trkpt lat="48.3803" lon="-4.32939">
        <ele>51.9</ele>
        <time>2020-06-08T16:00:47Z</time>
      </trkpt>
      <trkpt lat="48.38033" lon="-4.32945">
        <ele>52.1</ele>
        <time>2020-06-08T16:00:48Z</time>
      </trkpt>
      <trkpt lat="48.38037" lon="-4.32949">
        <ele>52.3</ele>
        <time>2020-06-08T16:00:49Z</time>
      </trkpt>
      <trkpt lat="48.3804" lon="-4.32953">
        <ele>52.5</ele>
        <time>2020-06-08T16:00:50Z</time>
      </trkpt>
      <trkpt lat="48.38043" lon="-4.32957">
        <ele>52.8</ele>
        <time>2020-06-08T16:00:51Z</time>
      </trkpt>
      <trkpt lat="48.38046" lon="-4.32962">
        <ele>52.8</ele>
        <time>2020-06-08T16:00:52Z</time>
      </trkpt>
      <trkpt lat="48.3805" lon="-4.32968">
        <ele>52.9</ele>
        <time>2020-06-08T16:00:53Z</time>
      </trkpt>
      <trkpt lat="48.38053" lon="-4.32971">
        <ele>53</ele>
        <time>2020-06-08T16:00:54Z</time>
      </trkpt>
      <trkpt lat="48.38058" lon="-4.32976">
        <ele>53</ele>
        <time>2020-06-08T16:00:55Z</time>
      </trkpt>
      <trkpt lat="48.3806" lon="-4.32979">
        <ele>53.3</ele>
        <time>2020-06-08T16:00:56Z</time>
      </trkpt>
      <trkpt lat="48.38062" lon="-4.32982">
        <ele>53.5</ele>
        <time>2020-06-08T16:00:57Z</time>
      </trkpt>
      <trkpt lat="48.38064" lon="-4.32986">
        <ele>53.7</ele>
        <time>2020-06-08T16:00:58Z</time>
      </trkpt>
      <trkpt lat="48.38067" lon="-4.32992">
        <ele>54</ele>
        <time>2020-06-08T16:00:59Z</time>
      </trkpt>
      <trkpt lat="48.38071" lon="-4.33">
        <ele>54.4</ele>
        <time>2020-06-08T16:01:00Z</time>
      </trkpt>
      <trkpt lat="48.38074" lon="-4.33006">
        <ele>54.7</ele>
        <time>2020-06-08T16:01:01Z</time>
      </trkpt>
      <trkpt lat="48.38077" lon="-4.3301">
        <ele>55</ele>
        <time>2020-06-08T16:01:02Z</time>
      </trkpt>
      <trkpt lat="48.38079" lon="-4.33014">
        <ele>55.3</ele>
        <time>2020-06-08T16:01:03Z</time>
      </trkpt>
      <trkpt lat="48.38082" lon="-4.33018">
        <ele>55.6</ele>
        <time>2020-06-08T16:01:04Z</time>
      </trkpt>
      <trkpt lat="48.38085" lon="-4.33023">
        <ele>55.9</ele>
        <time>2020-06-08T16:01:05Z</time>
      </trkpt>
      <trkpt lat="48.38089" lon="-4.33029">
        <ele>56.3</ele>
        <time>2020-06-08T16:01:06Z</time>
      </trkpt>
      <trkpt lat="48.38091" lon="-4.33033">
        <ele>56.6</ele>
        <time>2020-06-08T16:01:07Z</time>
      </trkpt>
      <trkpt lat="48.38094" lon="-4.33036">
        <ele>56.9</ele>
        <time>2020-06-08T16:01:08Z</time>
      </trkpt>
      <trkpt lat="48.38097" lon="-4.33042">
        <ele>57.3</ele>
        <time>2020-06-08T16:01:09Z</time>
      </trkpt>
      <trkpt lat="48.381" lon="-4.33047">
        <ele>57.6</ele>
        <time>2020-06-08T16:01:10Z</time>
      </trkpt>
      <trkpt lat="48.38103" lon="-4.33052">
        <ele>58</ele>
        <time>2020-06-08T16:01:11Z</time>
      </trkpt>
      <trkpt lat="48.38107" lon="-4.33057">
        <ele>58.4</ele>
        <time>2020-06-08T16:01:12Z</time>
      </trkpt>
      <trkpt lat="48.3811" lon="-4.33062">
        <ele>58.7</ele>
        <time>2020-06-08T16:01:13Z</time>
      </trkpt>
      <trkpt lat="48.38113" lon="-4.33067">
        <ele>59.1</ele>
        <time>2020-06-08T16:01:14Z</time>
      </trkpt>
      <trkpt lat="48.38116" lon="-4.33071">
        <ele>59.4</ele>
        <time>2020-06-08T16:01:15Z</time>
      </trkpt>
      <trkpt lat="48.3812" lon="-4.33076">
        <ele>59.8</ele>
        <time>2020-06-08T16:01:16Z</time>
      </trkpt>
      <trkpt lat="48.38122" lon="-4.33078">
        <ele>60</ele>
        <time>2020-06-08T16:01:17Z</time>
      </trkpt>
      <trkpt lat="48.38125" lon="-4.33084">
        <ele>60.4</ele>
        <time>2020-06-08T16:01:18Z</time>
      </trkpt>
      <trkpt lat="48.38128" lon="-4.33087">
        <ele>60.7</ele>
        <time>2020-06-08T16:01:19Z</time>
      </trkpt>
      <trkpt lat="48.38131" lon="-4.33092">
        <ele>61.1</ele>
        <time>2020-06-08T16:01:20Z</time>
      </trkpt>
      <trkpt lat="48.38135" lon="-4.33096">
        <ele>61.5</ele>
        <time>2020-06-08T16:01:21Z</time>
      </trkpt>
      <trkpt lat="48.38138" lon="-4.331">
        <ele>61.8</ele>
        <time>2020-06-08T16:01:22Z</time>
      </trkpt>
      <trkpt lat="48.3814" lon="-4.33105">
        <ele>62.1</ele>
        <time>2020-06-08T16:01:23Z</time>
      </trkpt>
      <trkpt lat="48.38142" lon="-4.33109">
        <ele>62.3</ele>
        <time>2020-06-08T16:01:24Z</time>
      </trkpt>
      <trkpt lat="48.38143" lon="-4.33111">
        <ele>62.4</ele>
        <time>2020-06-08T16:01:25Z</time>
      </trkpt>
      <trkpt lat="48.38146" lon="-4.33116">
        <ele>62.7</ele>
        <time>2020-06-08T16:01:26Z</time>
      </trkpt>
      <trkpt lat="48.38148" lon="-4.33119">
        <ele>62.9</ele>
        <time>2020-06-08T16:01:27Z</time>
      </trkpt>
      <trkpt lat="48.38149" lon="-4.33122">
        <ele>63</ele>
        <time>2020-06-08T16:01:28Z</time>
      </trkpt>
      <trkpt lat="48.38152" lon="-4.33127">
        <ele>63.2</ele>
        <time>2020-06-08T16:01:29Z</time>
      </trkpt>
      <trkpt lat="48.38154" lon="-4.3313">
        <ele>63.4</ele>
        <time>2020-06-08T16:01:30Z</time>
      </trkpt>
      <trkpt lat="48.38157" lon="-4.33135">
        <ele>63.6</ele>
        <time>2020-06-08T16:01:31Z</time>
      </trkpt>
      <trkpt lat="48.38158" lon="-4.33138">
        <ele>63.7</ele>
        <time>2020-06-08T16:01:32Z</time>
      </trkpt>
      <trkpt lat="48.38159" lon="-4.33142">
        <ele>63.8</ele>
        <time>2020-06-08T16:01:33Z</time>
      </trkpt>
      <trkpt lat="48.3816" lon="-4.33146">
        <ele>63.9</ele>
        <time>2020-06-08T16:01:34Z</time>
      </trkpt>
      <trkpt lat="48.38162" lon="-4.33151">
        <ele>64</ele>
        <time>2020-06-08T16:01:35Z</time>
      </trkpt>
      <trkpt lat="48.38164" lon="-4.33155">
        <ele>64.1</ele>
        <time>2020-06-08T16:01:36Z</time>
      </trkpt>
      <trkpt lat="48.38166" lon="-4.33158">
        <ele>64.2</ele>
        <time>2020-06-08T16:01:37Z</time>
      </trkpt>
      <trkpt lat="48.38169" lon="-4.33163">
        <ele>64.3</ele>
        <time>2020-06-08T16:01:38Z</time>
      </trkpt>
      <trkpt lat="48.3817" lon="-4.33165">
        <ele>64.3</ele>
        <time>2020-06-08T16:01:39Z</time>
      </trkpt>
      <trkpt lat="48.38171" lon="-4.33169">
        <ele>64.4</ele>
        <time>2020-06-08T16:01:40Z</time>
      </trkpt>
      <trkpt lat="48.38172" lon="-4.3317">
        <ele>64.4</ele>
        <time>2020-06-08T16:01:41Z</time>
      </trkpt>
      <trkpt lat="48.38174" lon="-4.33175">
        <ele>64.5</ele>
        <time>2020-06-08T16:01:42Z</time>
      </trkpt>
      <trkpt lat="48.38176" lon="-4.33181">
        <ele>64.6</ele>
        <time>2020-06-08T16:01:43Z</time>
      </trkpt>
      <trkpt lat="48.38178" lon="-4.33187">
        <ele>64.7</ele>
        <time>2020-06-08T16:01:44Z</time>
      </trkpt>
      <trkpt lat="48.3818" lon="-4.33192">
        <ele>64.8</ele>
        <time>2020-06-08T16:01:45Z</time>
      </trkpt>
      <trkpt lat="48.38181" lon="-4.33197">
        <ele>64.8</ele>
        <time>2020-06-08T16:01:46Z</time>
      </trkpt>
      <trkpt lat="48.38182" lon="-4.33204">
        <ele>64.9</ele>
        <time>2020-06-08T16:01:47Z</time>
      </trkpt>
      <trkpt lat="48.38184" lon="-4.33208">
        <ele>65</ele>
        <time>2020-06-08T16:01:48Z</time>
      </trkpt>
      <trkpt lat="48.38186" lon="-4.33214">
        <ele>65</ele>
        <time>2020-06-08T16:01:49Z</time>
      </trkpt>
      <trkpt lat="48.38188" lon="-4.33219">
        <ele>65</ele>
        <time>2020-06-08T16:01:50Z</time>
      </trkpt>
      <trkpt lat="48.38191" lon="-4.33224">
        <ele>65</ele>
        <time>2020-06-08T16:01:51Z</time>
      </trkpt>
      <trkpt lat="48.38192" lon="-4.33228">
        <ele>65</ele>
        <time>2020-06-08T16:01:52Z</time>
      </trkpt>
      <trkpt lat="48.38194" lon="-4.33233">
        <ele>65</ele>
        <time>2020-06-08T16:01:53Z</time>
      </trkpt>
      <trkpt lat="48.38196" lon="-4.33238">
        <ele>65</ele>
        <time>2020-06-08T16:01:54Z</time>
      </trkpt>
      <trkpt lat="48.38197" lon="-4.33243">
        <ele>65.1</ele>
        <time>2020-06-08T16:01:55Z</time>
      </trkpt>
      <trkpt lat="48.38199" lon="-4.33248">
        <ele>65.1</ele>
        <time>2020-06-08T16:01:56Z</time>
      </trkpt>
      <trkpt lat="48.382" lon="-4.33254">
        <ele>65.1</ele>
        <time>2020-06-08T16:01:57Z</time>
      </trkpt>
      <trkpt lat="48.38202" lon="-4.3326">
        <ele>65.1</ele>
        <time>2020-06-08T16:01:58Z</time>
      </trkpt>
      <trkpt lat="48.38204" lon="-4.33266">
        <ele>65.1</ele>
        <time>2020-06-08T16:01:59Z</time>
      </trkpt>
      <trkpt lat="48.38206" lon="-4.33272">
        <ele>65.2</ele>
        <time>2020-06-08T16:02:00Z</time>
      </trkpt>
      <trkpt lat="48.38208" lon="-4.33277">
        <ele>65.2</ele>
        <time>2020-06-08T16:02:01Z</time>
      </trkpt>
      <trkpt lat="48.3821" lon="-4.33283">
        <ele>65.3</ele>
        <time>2020-06-08T16:02:02Z</time>
      </trkpt>
      <trkpt lat="48.38212" lon="-4.33288">
        <ele>65.3</ele>
        <time>2020-06-08T16:02:03Z</time>
      </trkpt>
      <trkpt lat="48.38213" lon="-4.33294">
        <ele>65.3</ele>
        <time>2020-06-08T16:02:04Z</time>
      </trkpt>
      <trkpt lat="48.38214" lon="-4.333">
        <ele>65.4</ele>
        <time>2020-06-08T16:02:05Z</time>
      </trkpt>
      <trkpt lat="48.38215" lon="-4.33304">
        <ele>65.4</ele>
        <time>2020-06-08T16:02:06Z</time>
      </trkpt>
      <trkpt lat="48.38217" lon="-4.33309">
        <ele>65.4</ele>
        <time>2020-06-08T16:02:07Z</time>
      </trkpt>
      <trkpt lat="48.38218" lon="-4.33314">
        <ele>65.4</ele>
        <time>2020-06-08T16:02:08Z</time>
      </trkpt>
      <trkpt lat="48.3822" lon="-4.33318">
        <ele>65.5</ele>
        <time>2020-06-08T16:02:09Z</time>
      </trkpt>
      <trkpt lat="48.38222" lon="-4.33323">
        <ele>65.5</ele>
        <time>2020-06-08T16:02:10Z</time>
      </trkpt>
      <trkpt lat="48.38224" lon="-4.33329">
        <ele>65.5</ele>
        <time>2020-06-08T16:02:11Z</time>
      </trkpt>
      <trkpt lat="48.38226" lon="-4.33334">
        <ele>65.6</ele>
        <time>2020-06-08T16:02:12Z</time>
      </trkpt>
      <trkpt lat="48.38228" lon="-4.33339">
        <ele>65.6</ele>
        <time>2020-06-08T16:02:13Z</time>
      </trkpt>
      <trkpt lat="48.38231" lon="-4.33344">
        <ele>65.6</ele>
        <time>2020-06-08T16:02:14Z</time>
      </trkpt>
      <trkpt lat="48.38233" lon="-4.3335">
        <ele>65.6</ele>
        <time>2020-06-08T16:02:15Z</time>
      </trkpt>
      <trkpt lat="48.38235" lon="-4.33356">
        <ele>65.5</ele>
        <time>2020-06-08T16:02:16Z</time>
      </trkpt>
      <trkpt lat="48.38237" lon="-4.33363">
        <ele>65.5</ele>
        <time>2020-06-08T16:02:17Z</time>
      </trkpt>
      <trkpt lat="48.38239" lon="-4.3337">
        <ele>65.5</ele>
        <time>2020-06-08T16:02:18Z</time>
      </trkpt>
      <trkpt lat="48.3824" lon="-4.33375">
        <ele>65.6</ele>
        <time>2020-06-08T16:02:19Z</time>
      </trkpt>
      <trkpt lat="48.38241" lon="-4.33382">
        <ele>65.6</ele>
        <time>2020-06-08T16:02:20Z</time>
      </trkpt>
      <trkpt lat="48.38243" lon="-4.33389">
        <ele>65.6</ele>
        <time>2020-06-08T16:02:21Z</time>
      </trkpt>
      <trkpt lat="48.38245" lon="-4.33395">
        <ele>65.6</ele>
        <time>2020-06-08T16:02:22Z</time>
      </trkpt>
      <trkpt lat="48.38247" lon="-4.33402">
        <ele>65.7</ele>
        <time>2020-06-08T16:02:23Z</time>
      </trkpt>
      <trkpt lat="48.38249" lon="-4.33408">
        <ele>65.7</ele>
        <time>2020-06-08T16:02:24Z</time>
      </trkpt>
      <trkpt lat="48.3825" lon="-4.33416">
        <ele>65.8</ele>
        <time>2020-06-08T16:02:25Z</time>
      </trkpt>
      <trkpt lat="48.38251" lon="-4.33422">
        <ele>65.9</ele>
        <time>2020-06-08T16:02:26Z</time>
      </trkpt>
      <trkpt lat="48.38253" lon="-4.33431">
        <ele>65.9</ele>
        <time>2020-06-08T16:02:27Z</time>
      </trkpt>
      <trkpt lat="48.38255" lon="-4.33438">
        <ele>66</ele>
        <time>2020-06-08T16:02:28Z</time>
      </trkpt>
      <trkpt lat="48.38257" lon="-4.33445">
        <ele>66</ele>
        <time>2020-06-08T16:02:29Z</time>
      </trkpt>
      <trkpt lat="48.38258" lon="-4.3345">
        <ele>66</ele>
        <time>2020-06-08T16:02:30Z</time>
      </trkpt>
      <trkpt lat="48.38258" lon="-4.33457">
        <ele>66</ele>
        <time>2020-06-08T16:02:31Z</time>
      </trkpt>
      <trkpt lat="48.38259" lon="-4.33462">
        <ele>66.1</ele>
        <time>2020-06-08T16:02:32Z</time>
      </trkpt>
      <trkpt lat="48.3826" lon="-4.3347">
        <ele>66.1</ele>
        <time>2020-06-08T16:02:33Z</time>
      </trkpt>
      <trkpt lat="48.38261" lon="-4.33477">
        <ele>66.1</ele>
        <time>2020-06-08T16:02:34Z</time>
      </trkpt>
      <trkpt lat="48.38262" lon="-4.33485">
        <ele>66.2</ele>
        <time>2020-06-08T16:02:35Z</time>
      </trkpt>
      <trkpt lat="48.38262" lon="-4.33493">
        <ele>66.2</ele>
        <time>2020-06-08T16:02:36Z</time>
      </trkpt>
      <trkpt lat="48.38262" lon="-4.33501">
        <ele>66.3</ele>
        <time>2020-06-08T16:02:37Z</time>
      </trkpt>
      <trkpt lat="48.38263" lon="-4.33509">
        <ele>66.3</ele>
        <time>2020-06-08T16:02:38Z</time>
      </trkpt>
      <trkpt lat="48.38263" lon="-4.33516">
        <ele>66.3</ele>
        <time>2020-06-08T16:02:39Z</time>
      </trkpt>
      <trkpt lat="48.38262" lon="-4.33524">
        <ele>66.4</ele>
        <time>2020-06-08T16:02:40Z</time>
      </trkpt>
      <trkpt lat="48.38262" lon="-4.33531">
        <ele>66.5</ele>
        <time>2020-06-08T16:02:41Z</time>
      </trkpt>
      <trkpt lat="48.38262" lon="-4.33538">
        <ele>66.6</ele>
        <time>2020-06-08T16:02:42Z</time>
      </trkpt>
      <trkpt lat="48.38261" lon="-4.33546">
        <ele>66.8</ele>
        <time>2020-06-08T16:02:43Z</time>
      </trkpt>
      <trkpt lat="48.38261" lon="-4.33554">
        <ele>66.9</ele>
        <time>2020-06-08T16:02:44Z</time>
      </trkpt>
      <trkpt lat="48.38259" lon="-4.33562">
        <ele>67</ele>
        <time>2020-06-08T16:02:45Z</time>
      </trkpt>
      <trkpt lat="48.38258" lon="-4.33569">
        <ele>67.2</ele>
        <time>2020-06-08T16:02:46Z</time>
      </trkpt>
      <trkpt lat="48.38257" lon="-4.33577">
        <ele>67.3</ele>
        <time>2020-06-08T16:02:47Z</time>
      </trkpt>
      <trkpt lat="48.38256" lon="-4.33584">
        <ele>67.5</ele>
        <time>2020-06-08T16:02:48Z</time>
      </trkpt>
      <trkpt lat="48.38256" lon="-4.33591">
        <ele>67.7</ele>
        <time>2020-06-08T16:02:49Z</time>
      </trkpt>
      <trkpt lat="48.38255" lon="-4.33598">
        <ele>67.9</ele>
        <time>2020-06-08T16:02:50Z</time>
      </trkpt>
      <trkpt lat="48.38254" lon="-4.33602">
        <ele>68.1</ele>
        <time>2020-06-08T16:02:51Z</time>
      </trkpt>
      <trkpt lat="48.38252" lon="-4.3361">
        <ele>68.3</ele>
        <time>2020-06-08T16:02:52Z</time>
      </trkpt>
      <trkpt lat="48.38251" lon="-4.33615">
        <ele>68.5</ele>
        <time>2020-06-08T16:02:53Z</time>
      </trkpt>
      <trkpt lat="48.38249" lon="-4.33622">
        <ele>68.8</ele>
        <time>2020-06-08T16:02:54Z</time>
      </trkpt>
      <trkpt lat="48.38247" lon="-4.33628">
        <ele>69</ele>
        <time>2020-06-08T16:02:55Z</time>
      </trkpt>
      <trkpt lat="48.38244" lon="-4.33633">
        <ele>69.3</ele>
        <time>2020-06-08T16:02:56Z</time>
      </trkpt>
      <trkpt lat="48.38242" lon="-4.3364">
        <ele>69.5</ele>
        <time>2020-06-08T16:02:57Z</time>
      </trkpt>
      <trkpt lat="48.38241" lon="-4.33645">
        <ele>69.7</ele>
        <time>2020-06-08T16:02:58Z</time>
      </trkpt>
      <trkpt lat="48.38239" lon="-4.3365">
        <ele>70</ele>
        <time>2020-06-08T16:02:59Z</time>
      </trkpt>
      <trkpt lat="48.38237" lon="-4.33656">
        <ele>70.4</ele>
        <time>2020-06-08T16:03:00Z</time>
      </trkpt>
      <trkpt lat="48.38235" lon="-4.33661">
        <ele>70.6</ele>
        <time>2020-06-08T16:03:01Z</time>
      </trkpt>
      <trkpt lat="48.38233" lon="-4.33665">
        <ele>70.8</ele>
        <time>2020-06-08T16:03:02Z</time>
      </trkpt>
      <trkpt lat="48.3823" lon="-4.33671">
        <ele>71</ele>
        <time>2020-06-08T16:03:03Z</time>
      </trkpt>
      <trkpt lat="48.38228" lon="-4.33675">
        <ele>71.2</ele>
        <time>2020-06-08T16:03:04Z</time>
      </trkpt>
      <trkpt lat="48.38225" lon="-4.33679">
        <ele>71.4</ele>
        <time>2020-06-08T16:03:05Z</time>
      </trkpt>
      <trkpt lat="48.38223" lon="-4.33685">
        <ele>71.7</ele>
        <time>2020-06-08T16:03:06Z</time>
      </trkpt>
      <trkpt lat="48.38221" lon="-4.3369">
        <ele>71.9</ele>
        <time>2020-06-08T16:03:07Z</time>
      </trkpt>
      <trkpt lat="48.38219" lon="-4.33694">
        <ele>72.1</ele>
        <time>2020-06-08T16:03:08Z</time>
      </trkpt>
      <trkpt lat="48.38217" lon="-4.33697">
        <ele>72.2</ele>
        <time>2020-06-08T16:03:09Z</time>
      </trkpt>
      <trkpt lat="48.38214" lon="-4.33701">
        <ele>72.4</ele>
        <time>2020-06-08T16:03:10Z</time>
      </trkpt>
      <trkpt lat="48.38212" lon="-4.33704">
        <ele>72.6</ele>
        <time>2020-06-08T16:03:11Z</time>
      </trkpt>
      <trkpt lat="48.38209" lon="-4.33709">
        <ele>72.8</ele>
        <time>2020-06-08T16:03:12Z</time>
      </trkpt>
      <trkpt lat="48.38207" lon="-4.33714">
        <ele>73.1</ele>
        <time>2020-06-08T16:03:13Z</time>
      </trkpt>
      <trkpt lat="48.38205" lon="-4.33719">
        <ele>73.3</ele>
        <time>2020-06-08T16:03:14Z</time>
      </trkpt>
      <trkpt lat="48.38203" lon="-4.33723">
        <ele>73.5</ele>
        <time>2020-06-08T16:03:15Z</time>
      </trkpt>
      <trkpt lat="48.38201" lon="-4.33728">
        <ele>73.7</ele>
        <time>2020-06-08T16:03:16Z</time>
      </trkpt>
      <trkpt lat="48.38198" lon="-4.33733">
        <ele>74</ele>
        <time>2020-06-08T16:03:17Z</time>
      </trkpt>
      <trkpt lat="48.38196" lon="-4.33739">
        <ele>74.2</ele>
        <time>2020-06-08T16:03:18Z</time>
      </trkpt>
      <trkpt lat="48.38194" lon="-4.33742">
        <ele>74.4</ele>
        <time>2020-06-08T16:03:19Z</time>
      </trkpt>
      <trkpt lat="48.38192" lon="-4.33747">
        <ele>74.6</ele>
        <time>2020-06-08T16:03:20Z</time>
      </trkpt>
      <trkpt lat="48.3819" lon="-4.33752">
        <ele>74.8</ele>
        <time>2020-06-08T16:03:21Z</time>
      </trkpt>
      <trkpt lat="48.38188" lon="-4.33755">
        <ele>75</ele>
        <time>2020-06-08T16:03:22Z</time>
      </trkpt>
      <trkpt lat="48.38186" lon="-4.33759">
        <ele>75.2</ele>
        <time>2020-06-08T16:03:23Z</time>
      </trkpt>
      <trkpt lat="48.38184" lon="-4.33763">
        <ele>75.5</ele>
        <time>2020-06-08T16:03:24Z</time>
      </trkpt>
      <trkpt lat="48.38182" lon="-4.33768">
        <ele>75.7</ele>
        <time>2020-06-08T16:03:25Z</time>
      </trkpt>
      <trkpt lat="48.3818" lon="-4.33771">
        <ele>75.9</ele>
        <time>2020-06-08T16:03:26Z</time>
      </trkpt>
      <trkpt lat="48.38178" lon="-4.33776">
        <ele>76.1</ele>
        <time>2020-06-08T16:03:27Z</time>
      </trkpt>
      <trkpt lat="48.38176" lon="-4.33782">
        <ele>76.3</ele>
        <time>2020-06-08T16:03:28Z</time>
      </trkpt>
      <trkpt lat="48.38173" lon="-4.33788">
        <ele>76.6</ele>
        <time>2020-06-08T16:03:29Z</time>
      </trkpt>
      <trkpt lat="48.38172" lon="-4.3379">
        <ele>76.7</ele>
        <time>2020-06-08T16:03:30Z</time>
      </trkpt>
      <trkpt lat="48.3817" lon="-4.33794">
        <ele>76.9</ele>
        <time>2020-06-08T16:03:31Z</time>
      </trkpt>
      <trkpt lat="48.38169" lon="-4.33797">
        <ele>77</ele>
        <time>2020-06-08T16:03:32Z</time>
      </trkpt>
      <trkpt lat="48.38168" lon="-4.33802">
        <ele>77.2</ele>
        <time>2020-06-08T16:03:33Z</time>
      </trkpt>
      <trkpt lat="48.38166" lon="-4.33809">
        <ele>77.5</ele>
        <time>2020-06-08T16:03:34Z</time>
      </trkpt>
      <trkpt lat="48.38164" lon="-4.33812">
        <ele>77.6</ele>
        <time>2020-06-08T16:03:35Z</time>
      </trkpt>
      <trkpt lat="48.38163" lon="-4.33816">
        <ele>77.8</ele>
        <time>2020-06-08T16:03:36Z</time>
      </trkpt>
      <trkpt lat="48.38161" lon="-4.33821">
        <ele>78</ele>
        <time>2020-06-08T16:03:37Z</time>
      </trkpt>
      <trkpt lat="48.38159" lon="-4.33825">
        <ele>78.2</ele>
        <time>2020-06-08T16:03:38Z</time>
      </trkpt>
      <trkpt lat="48.38158" lon="-4.3383">
        <ele>78.3</ele>
        <time>2020-06-08T16:03:39Z</time>
      </trkpt>
      <trkpt lat="48.38156" lon="-4.33835">
        <ele>78.5</ele>
        <time>2020-06-08T16:03:40Z</time>
      </trkpt>
      <trkpt lat="48.38155" lon="-4.33839">
        <ele>78.6</ele>
        <time>2020-06-08T16:03:41Z</time>
      </trkpt>
      <trkpt lat="48.38153" lon="-4.33844">
        <ele>78.8</ele>
        <time>2020-06-08T16:03:42Z</time>
      </trkpt>
      <trkpt lat="48.38154" lon="-4.33848">
        <ele>79</ele>
        <time>2020-06-08T16:03:43Z</time>
      </trkpt>
      <trkpt lat="48.38154" lon="-4.33854">
        <ele>79.1</ele>
        <time>2020-06-08T16:03:44Z</time>
      </trkpt>
      <trkpt lat="48.38153" lon="-4.33858">
        <ele>79.3</ele>
        <time>2020-06-08T16:03:45Z</time>
      </trkpt>
      <trkpt lat="48.38152" lon="-4.33865">
        <ele>79.5</ele>
        <time>2020-06-08T16:03:46Z</time>
      </trkpt>
      <trkpt lat="48.38152" lon="-4.33867">
        <ele>79.6</ele>
        <time>2020-06-08T16:03:47Z</time>
      </trkpt>
      <trkpt lat="48.38152" lon="-4.33872">
        <ele>79.7</ele>
        <time>2020-06-08T16:03:48Z</time>
      </trkpt>
      <trkpt lat="48.3815" lon="-4.33875">
        <ele>79.9</ele>
        <time>2020-06-08T16:03:49Z</time>
      </trkpt>
      <trkpt lat="48.3815" lon="-4.3388">
        <ele>80.1</ele>
        <time>2020-06-08T16:03:50Z</time>
      </trkpt>
      <trkpt lat="48.38149" lon="-4.33886">
        <ele>80.3</ele>
        <time>2020-06-08T16:03:51Z</time>
      </trkpt>
      <trkpt lat="48.38148" lon="-4.33888">
        <ele>80.4</ele>
        <time>2020-06-08T16:03:52Z</time>
      </trkpt>
      <trkpt lat="48.38147" lon="-4.33893">
        <ele>80.6</ele>
        <time>2020-06-08T16:03:53Z</time>
      </trkpt>
      <trkpt lat="48.38146" lon="-4.33898">
        <ele>80.7</ele>
        <time>2020-06-08T16:03:54Z</time>
      </trkpt>
      <trkpt lat="48.38146" lon="-4.33903">
        <ele>80.9</ele>
        <time>2020-06-08T16:03:55Z</time>
      </trkpt>
      <trkpt lat="48.38145" lon="-4.33909">
        <ele>81.1</ele>
        <time>2020-06-08T16:03:56Z</time>
      </trkpt>
      <trkpt lat="48.38144" lon="-4.33914">
        <ele>81.3</ele>
        <time>2020-06-08T16:03:57Z</time>
      </trkpt>
      <trkpt lat="48.38143" lon="-4.33919">
        <ele>81.5</ele>
        <time>2020-06-08T16:03:58Z</time>
      </trkpt>
      <trkpt lat="48.38142" lon="-4.33924">
        <ele>81.6</ele>
        <time>2020-06-08T16:03:59Z</time>
      </trkpt>
      <trkpt lat="48.38142" lon="-4.33928">
        <ele>81.8</ele>
        <time>2020-06-08T16:04:00Z</time>
      </trkpt>
      <trkpt lat="48.38141" lon="-4.33935">
        <ele>82</ele>
        <time>2020-06-08T16:04:01Z</time>
      </trkpt>
      <trkpt lat="48.38141" lon="-4.33937">
        <ele>82.1</ele>
        <time>2020-06-08T16:04:02Z</time>
      </trkpt>
      <trkpt lat="48.38141" lon="-4.33942">
        <ele>82.2</ele>
        <time>2020-06-08T16:04:03Z</time>
      </trkpt>
      <trkpt lat="48.38141" lon="-4.33948">
        <ele>82.4</ele>
        <time>2020-06-08T16:04:04Z</time>
      </trkpt>
      <trkpt lat="48.3814" lon="-4.33953">
        <ele>82.5</ele>
        <time>2020-06-08T16:04:05Z</time>
      </trkpt>
      <trkpt lat="48.3814" lon="-4.33958">
        <ele>82.7</ele>
        <time>2020-06-08T16:04:06Z</time>
      </trkpt>
      <trkpt lat="48.3814" lon="-4.33963">
        <ele>82.9</ele>
        <time>2020-06-08T16:04:07Z</time>
      </trkpt>
      <trkpt lat="48.38139" lon="-4.33968">
        <ele>83</ele>
        <time>2020-06-08T16:04:08Z</time>
      </trkpt>
      <trkpt lat="48.38139" lon="-4.33974">
        <ele>83.2</ele>
        <time>2020-06-08T16:04:09Z</time>
      </trkpt>
      <trkpt lat="48.38139" lon="-4.3398">
        <ele>83.3</ele>
        <time>2020-06-08T16:04:10Z</time>
      </trkpt>
      <trkpt lat="48.38139" lon="-4.33985">
        <ele>83.5</ele>
        <time>2020-06-08T16:04:11Z</time>
      </trkpt>
      <trkpt lat="48.38139" lon="-4.3399">
        <ele>83.6</ele>
        <time>2020-06-08T16:04:12Z</time>
      </trkpt>
      <trkpt lat="48.38139" lon="-4.33997">
        <ele>83.8</ele>
        <time>2020-06-08T16:04:13Z</time>
      </trkpt>
      <trkpt lat="48.38139" lon="-4.34">
        <ele>83.9</ele>
        <time>2020-06-08T16:04:14Z</time>
      </trkpt>
      <trkpt lat="48.3814" lon="-4.34005">
        <ele>84.1</ele>
        <time>2020-06-08T16:04:15Z</time>
      </trkpt>
      <trkpt lat="48.3814" lon="-4.34011">
        <ele>84.2</ele>
        <time>2020-06-08T16:04:16Z</time>
      </trkpt>
      <trkpt lat="48.38139" lon="-4.34017">
        <ele>84.4</ele>
        <time>2020-06-08T16:04:17Z</time>
      </trkpt>
      <trkpt lat="48.38139" lon="-4.34021">
        <ele>84.5</ele>
        <time>2020-06-08T16:04:18Z</time>
      </trkpt>
      <trkpt lat="48.3814" lon="-4.34026">
        <ele>84.6</ele>
        <time>2020-06-08T16:04:19Z</time>
      </trkpt>
      <trkpt lat="48.3814" lon="-4.34031">
        <ele>84.8</ele>
        <time>2020-06-08T16:04:20Z</time>
      </trkpt>
      <trkpt lat="48.38139" lon="-4.34037">
        <ele>84.9</ele>
        <time>2020-06-08T16:04:21Z</time>
      </trkpt>
      <trkpt lat="48.38139" lon="-4.34043">
        <ele>85.1</ele>
        <time>2020-06-08T16:04:22Z</time>
      </trkpt>
      <trkpt lat="48.3814" lon="-4.34048">
        <ele>85.2</ele>
        <time>2020-06-08T16:04:23Z</time>
      </trkpt>
      <trkpt lat="48.38139" lon="-4.34053">
        <ele>85.4</ele>
        <time>2020-06-08T16:04:24Z</time>
      </trkpt>
      <trkpt lat="48.38139" lon="-4.34057">
        <ele>85.5</ele>
        <time>2020-06-08T16:04:25Z</time>
      </trkpt>
      <trkpt lat="48.38139" lon="-4.34062">
        <ele>85.6</ele>
        <time>2020-06-08T16:04:26Z</time>
      </trkpt>
      <trkpt lat="48.38138" lon="-4.34066">
        <ele>85.7</ele>
        <time>2020-06-08T16:04:27Z</time>
      </trkpt>
      <trkpt lat="48.38138" lon="-4.34071">
        <ele>85.8</ele>
        <time>2020-06-08T16:04:28Z</time>
      </trkpt>
      <trkpt lat="48.38138" lon="-4.34075">
        <ele>85.9</ele>
        <time>2020-06-08T16:04:29Z</time>
      </trkpt>
      <trkpt lat="48.38139" lon="-4.34081">
        <ele>86.1</ele>
        <time>2020-06-08T16:04:30Z</time>
      </trkpt>
      <trkpt lat="48.38139" lon="-4.34084">
        <ele>86.1</ele>
        <time>2020-06-08T16:04:31Z</time>
      </trkpt>
      <trkpt lat="48.38139" lon="-4.3409">
        <ele>86.4</ele>
        <time>2020-06-08T16:04:32Z</time>
      </trkpt>
      <trkpt lat="48.3814" lon="-4.34096">
        <ele>86.5</ele>
        <time>2020-06-08T16:04:33Z</time>
      </trkpt>
      <trkpt lat="48.38141" lon="-4.34102">
        <ele>86.7</ele>
        <time>2020-06-08T16:04:34Z</time>
      </trkpt>
      <trkpt lat="48.38141" lon="-4.34108">
        <ele>86.9</ele>
        <time>2020-06-08T16:04:35Z</time>
      </trkpt>
      <trkpt lat="48.38141" lon="-4.34113">
        <ele>87</ele>
        <time>2020-06-08T16:04:36Z</time>
      </trkpt>
      <trkpt lat="48.38141" lon="-4.34118">
        <ele>87.2</ele>
        <time>2020-06-08T16:04:37Z</time>
      </trkpt>
      <trkpt lat="48.3814" lon="-4.34125">
        <ele>87.4</ele>
        <time>2020-06-08T16:04:38Z</time>
      </trkpt>
      <trkpt lat="48.3814" lon="-4.3413">
        <ele>87.6</ele>
        <time>2020-06-08T16:04:39Z</time>
      </trkpt>
      <trkpt lat="48.3814" lon="-4.34136">
        <ele>87.7</ele>
        <time>2020-06-08T16:04:40Z</time>
      </trkpt>
      <trkpt lat="48.3814" lon="-4.3414">
        <ele>87.8</ele>
        <time>2020-06-08T16:04:41Z</time>
      </trkpt>
      <trkpt lat="48.3814" lon="-4.34145">
        <ele>88</ele>
        <time>2020-06-08T16:04:42Z</time>
      </trkpt>
      <trkpt lat="48.38141" lon="-4.3415">
        <ele>88.2</ele>
        <time>2020-06-08T16:04:43Z</time>
      </trkpt>
      <trkpt lat="48.38142" lon="-4.34155">
        <ele>88.3</ele>
        <time>2020-06-08T16:04:44Z</time>
      </trkpt>
      <trkpt lat="48.38141" lon="-4.34161">
        <ele>88.5</ele>
        <time>2020-06-08T16:04:45Z</time>
      </trkpt>
      <trkpt lat="48.3814" lon="-4.34167">
        <ele>88.7</ele>
        <time>2020-06-08T16:04:46Z</time>
      </trkpt>
      <trkpt lat="48.38141" lon="-4.34171">
        <ele>88.8</ele>
        <time>2020-06-08T16:04:47Z</time>
      </trkpt>
      <trkpt lat="48.38141" lon="-4.34177">
        <ele>89</ele>
        <time>2020-06-08T16:04:48Z</time>
      </trkpt>
      <trkpt lat="48.3814" lon="-4.34182">
        <ele>89.2</ele>
        <time>2020-06-08T16:04:49Z</time>
      </trkpt>
      <trkpt lat="48.38139" lon="-4.34187">
        <ele>89.3</ele>
        <time>2020-06-08T16:04:50Z</time>
      </trkpt>
      <trkpt lat="48.38139" lon="-4.34192">
        <ele>89.5</ele>
        <time>2020-06-08T16:04:51Z</time>
      </trkpt>
      <trkpt lat="48.38139" lon="-4.34196">
        <ele>89.6</ele>
        <time>2020-06-08T16:04:52Z</time>
      </trkpt>
      <trkpt lat="48.3814" lon="-4.34201">
        <ele>89.7</ele>
        <time>2020-06-08T16:04:53Z</time>
      </trkpt>
      <trkpt lat="48.3814" lon="-4.34206">
        <ele>89.9</ele>
        <time>2020-06-08T16:04:54Z</time>
      </trkpt>
      <trkpt lat="48.3814" lon="-4.34212">
        <ele>90.1</ele>
        <time>2020-06-08T16:04:55Z</time>
      </trkpt>
      <trkpt lat="48.38139" lon="-4.34218">
        <ele>90.3</ele>
        <time>2020-06-08T16:04:56Z</time>
      </trkpt>
      <trkpt lat="48.38138" lon="-4.34223">
        <ele>90.4</ele>
        <time>2020-06-08T16:04:57Z</time>
      </trkpt>
      <trkpt lat="48.38138" lon="-4.34228">
        <ele>90.6</ele>
        <time>2020-06-08T16:04:58Z</time>
      </trkpt>
      <trkpt lat="48.38137" lon="-4.34234">
        <ele>90.8</ele>
        <time>2020-06-08T16:04:59Z</time>
      </trkpt>
      <trkpt lat="48.38137" lon="-4.34239">
        <ele>91</ele>
        <time>2020-06-08T16:05:00Z</time>
      </trkpt>
      <trkpt lat="48.38136" lon="-4.34245">
        <ele>91.2</ele>
        <time>2020-06-08T16:05:01Z</time>
      </trkpt>
      <trkpt lat="48.38136" lon="-4.34251">
        <ele>91.4</ele>
        <time>2020-06-08T16:05:02Z</time>
      </trkpt>
      <trkpt lat="48.38135" lon="-4.34255">
        <ele>91.6</ele>
        <time>2020-06-08T16:05:03Z</time>
      </trkpt>
      <trkpt lat="48.38135" lon="-4.34261">
        <ele>91.8</ele>
        <time>2020-06-08T16:05:04Z</time>
      </trkpt>
      <trkpt lat="48.38134" lon="-4.34267">
        <ele>92</ele>
        <time>2020-06-08T16:05:05Z</time>
      </trkpt>
      <trkpt lat="48.38134" lon="-4.34272">
        <ele>92.1</ele>
        <time>2020-06-08T16:05:06Z</time>
      </trkpt>
      <trkpt lat="48.38134" lon="-4.34276">
        <ele>92.3</ele>
        <time>2020-06-08T16:05:07Z</time>
      </trkpt>
      <trkpt lat="48.38133" lon="-4.34281">
        <ele>92.5</ele>
        <time>2020-06-08T16:05:08Z</time>
      </trkpt>
      <trkpt lat="48.38132" lon="-4.34286">
        <ele>92.6</ele>
        <time>2020-06-08T16:05:09Z</time>
      </trkpt>
      <trkpt lat="48.38131" lon="-4.34291">
        <ele>92.8</ele>
        <time>2020-06-08T16:05:10Z</time>
      </trkpt>
      <trkpt lat="48.38132" lon="-4.34297">
        <ele>93</ele>
        <time>2020-06-08T16:05:11Z</time>
      </trkpt>
      <trkpt lat="48.38132" lon="-4.34302">
        <ele>93.1</ele>
        <time>2020-06-08T16:05:12Z</time>
      </trkpt>
      <trkpt lat="48.38131" lon="-4.34307">
        <ele>93.3</ele>
        <time>2020-06-08T16:05:13Z</time>
      </trkpt>
      <trkpt lat="48.38131" lon="-4.34312">
        <ele>93.4</ele>
        <time>2020-06-08T16:05:14Z</time>
      </trkpt>
      <trkpt lat="48.38131" lon="-4.34317">
        <ele>93.6</ele>
        <time>2020-06-08T16:05:15Z</time>
      </trkpt>
      <trkpt lat="48.38131" lon="-4.34324">
        <ele>93.9</ele>
        <time>2020-06-08T16:05:16Z</time>
      </trkpt>
      <trkpt lat="48.3813" lon="-4.34327">
        <ele>94</ele>
        <time>2020-06-08T16:05:17Z</time>
      </trkpt>
      <trkpt lat="48.38129" lon="-4.34332">
        <ele>94.1</ele>
        <time>2020-06-08T16:05:18Z</time>
      </trkpt>
      <trkpt lat="48.38128" lon="-4.34337">
        <ele>94.3</ele>
        <time>2020-06-08T16:05:19Z</time>
      </trkpt>
      <trkpt lat="48.38128" lon="-4.34343">
        <ele>94.5</ele>
        <time>2020-06-08T16:05:20Z</time>
      </trkpt>
      <trkpt lat="48.38127" lon="-4.34348">
        <ele>94.7</ele>
        <time>2020-06-08T16:05:21Z</time>
      </trkpt>
      <trkpt lat="48.38127" lon="-4.34353">
        <ele>94.8</ele>
        <time>2020-06-08T16:05:22Z</time>
      </trkpt>
      <trkpt lat="48.38127" lon="-4.3436">
        <ele>95</ele>
        <time>2020-06-08T16:05:23Z</time>
      </trkpt>
      <trkpt lat="48.38127" lon="-4.34365">
        <ele>95.2</ele>
        <time>2020-06-08T16:05:24Z</time>
      </trkpt>
      <trkpt lat="48.38126" lon="-4.34371">
        <ele>95.4</ele>
        <time>2020-06-08T16:05:25Z</time>
      </trkpt>
      <trkpt lat="48.38126" lon="-4.34376">
        <ele>95.5</ele>
        <time>2020-06-08T16:05:26Z</time>
      </trkpt>
      <trkpt lat="48.38126" lon="-4.34381">
        <ele>95.7</ele>
        <time>2020-06-08T16:05:27Z</time>
      </trkpt>
      <trkpt lat="48.38126" lon="-4.34386">
        <ele>95.8</ele>
        <time>2020-06-08T16:05:28Z</time>
      </trkpt>
      <trkpt lat="48.38126" lon="-4.34391">
        <ele>96</ele>
        <time>2020-06-08T16:05:29Z</time>
      </trkpt>
      <trkpt lat="48.38126" lon="-4.34397">
        <ele>96.1</ele>
        <time>2020-06-08T16:05:30Z</time>
      </trkpt>
      <trkpt lat="48.38126" lon="-4.34401">
        <ele>96.3</ele>
        <time>2020-06-08T16:05:31Z</time>
      </trkpt>
      <trkpt lat="48.38125" lon="-4.34406">
        <ele>96.4</ele>
        <time>2020-06-08T16:05:32Z</time>
      </trkpt>
      <trkpt lat="48.38125" lon="-4.34411">
        <ele>96.5</ele>
        <time>2020-06-08T16:05:33Z</time>
      </trkpt>
      <trkpt lat="48.38125" lon="-4.34416">
        <ele>96.6</ele>
        <time>2020-06-08T16:05:34Z</time>
      </trkpt>
      <trkpt lat="48.38124" lon="-4.3442">
        <ele>96.8</ele>
        <time>2020-06-08T16:05:35Z</time>
      </trkpt>
      <trkpt lat="48.38123" lon="-4.34425">
        <ele>96.9</ele>
        <time>2020-06-08T16:05:36Z</time>
      </trkpt>
      <trkpt lat="48.38122" lon="-4.34431">
        <ele>97.1</ele>
        <time>2020-06-08T16:05:37Z</time>
      </trkpt>
      <trkpt lat="48.38122" lon="-4.34438">
        <ele>97.2</ele>
        <time>2020-06-08T16:05:38Z</time>
      </trkpt>
      <trkpt lat="48.38122" lon="-4.34441">
        <ele>97.3</ele>
        <time>2020-06-08T16:05:39Z</time>
      </trkpt>
      <trkpt lat="48.38122" lon="-4.34446">
        <ele>97.5</ele>
        <time>2020-06-08T16:05:40Z</time>
      </trkpt>
      <trkpt lat="48.3812" lon="-4.34452">
        <ele>97.6</ele>
        <time>2020-06-08T16:05:41Z</time>
      </trkpt>
      <trkpt lat="48.3812" lon="-4.34457">
        <ele>97.7</ele>
        <time>2020-06-08T16:05:42Z</time>
      </trkpt>
      <trkpt lat="48.3812" lon="-4.34463">
        <ele>97.8</ele>
        <time>2020-06-08T16:05:43Z</time>
      </trkpt>
      <trkpt lat="48.3812" lon="-4.34469">
        <ele>98</ele>
        <time>2020-06-08T16:05:44Z</time>
      </trkpt>
      <trkpt lat="48.3812" lon="-4.34475">
        <ele>98.1</ele>
        <time>2020-06-08T16:05:45Z</time>
      </trkpt>
      <trkpt lat="48.3812" lon="-4.34479">
        <ele>98.2</ele>
        <time>2020-06-08T16:05:46Z</time>
      </trkpt>
      <trkpt lat="48.38119" lon="-4.34484">
        <ele>98.3</ele>
        <time>2020-06-08T16:05:47Z</time>
      </trkpt>
      <trkpt lat="48.38119" lon="-4.3449">
        <ele>98.4</ele>
        <time>2020-06-08T16:05:48Z</time>
      </trkpt>
      <trkpt lat="48.38119" lon="-4.34496">
        <ele>98.5</ele>
        <time>2020-06-08T16:05:49Z</time>
      </trkpt>
      <trkpt lat="48.38119" lon="-4.34502">
        <ele>98.6</ele>
        <time>2020-06-08T16:05:50Z</time>
      </trkpt>
      <trkpt lat="48.3812" lon="-4.34507">
        <ele>98.7</ele>
        <time>2020-06-08T16:05:51Z</time>
      </trkpt>
      <trkpt lat="48.3812" lon="-4.34514">
        <ele>98.8</ele>
        <time>2020-06-08T16:05:52Z</time>
      </trkpt>
      <trkpt lat="48.38119" lon="-4.34522">
        <ele>99</ele>
        <time>2020-06-08T16:05:53Z</time>
      </trkpt>
      <trkpt lat="48.3812" lon="-4.34528">
        <ele>99.1</ele>
        <time>2020-06-08T16:05:54Z</time>
      </trkpt>
      <trkpt lat="48.38121" lon="-4.34534">
        <ele>99.2</ele>
        <time>2020-06-08T16:05:55Z</time>
      </trkpt>
      <trkpt lat="48.38123" lon="-4.3454">
        <ele>99.3</ele>
        <time>2020-06-08T16:05:56Z</time>
      </trkpt>
      <trkpt lat="48.38124" lon="-4.34546">
        <ele>99.4</ele>
        <time>2020-06-08T16:05:57Z</time>
      </trkpt>
      <trkpt lat="48.38125" lon="-4.34551">
        <ele>99.5</ele>
        <time>2020-06-08T16:05:58Z</time>
      </trkpt>
      <trkpt lat="48.38126" lon="-4.34556">
        <ele>99.6</ele>
        <time>2020-06-08T16:05:59Z</time>
      </trkpt>
      <trkpt lat="48.38127" lon="-4.3456">
        <ele>99.7</ele>
        <time>2020-06-08T16:06:00Z</time>
      </trkpt>
      <trkpt lat="48.38128" lon="-4.34566">
        <ele>99.8</ele>
        <time>2020-06-08T16:06:01Z</time>
      </trkpt>
      <trkpt lat="48.38128" lon="-4.34572">
        <ele>99.9</ele>
        <time>2020-06-08T16:06:02Z</time>
      </trkpt>
      <trkpt lat="48.38128" lon="-4.34575">
        <ele>100</ele>
        <time>2020-06-08T16:06:03Z</time>
      </trkpt>
      <trkpt lat="48.38129" lon="-4.34579">
        <ele>100.1</ele>
        <time>2020-06-08T16:06:04Z</time>
      </trkpt>
      <trkpt lat="48.3813" lon="-4.34585">
        <ele>100.2</ele>
        <time>2020-06-08T16:06:05Z</time>
      </trkpt>
      <trkpt lat="48.38131" lon="-4.34591">
        <ele>100.4</ele>
        <time>2020-06-08T16:06:06Z</time>
      </trkpt>
      <trkpt lat="48.38133" lon="-4.34597">
        <ele>100.5</ele>
        <time>2020-06-08T16:06:07Z</time>
      </trkpt>
      <trkpt lat="48.38134" lon="-4.34602">
        <ele>100.7</ele>
        <time>2020-06-08T16:06:08Z</time>
      </trkpt>
      <trkpt lat="48.38135" lon="-4.34606">
        <ele>100.9</ele>
        <time>2020-06-08T16:06:09Z</time>
      </trkpt>
      <trkpt lat="48.38136" lon="-4.3461">
        <ele>101.1</ele>
        <time>2020-06-08T16:06:10Z</time>
      </trkpt>
      <trkpt lat="48.38137" lon="-4.34615">
        <ele>101.3</ele>
        <time>2020-06-08T16:06:11Z</time>
      </trkpt>
      <trkpt lat="48.38138" lon="-4.34619">
        <ele>101.5</ele>
        <time>2020-06-08T16:06:12Z</time>
      </trkpt>
      <trkpt lat="48.3814" lon="-4.34624">
        <ele>101.7</ele>
        <time>2020-06-08T16:06:13Z</time>
      </trkpt>
      <trkpt lat="48.38141" lon="-4.3463">
        <ele>101.9</ele>
        <time>2020-06-08T16:06:14Z</time>
      </trkpt>
      <trkpt lat="48.38142" lon="-4.34637">
        <ele>102.2</ele>
        <time>2020-06-08T16:06:15Z</time>
      </trkpt>
      <trkpt lat="48.38143" lon="-4.34643">
        <ele>102.4</ele>
        <time>2020-06-08T16:06:16Z</time>
      </trkpt>
      <trkpt lat="48.38144" lon="-4.34648">
        <ele>102.7</ele>
        <time>2020-06-08T16:06:17Z</time>
      </trkpt>
      <trkpt lat="48.38147" lon="-4.34655">
        <ele>103</ele>
        <time>2020-06-08T16:06:18Z</time>
      </trkpt>
      <trkpt lat="48.38147" lon="-4.34658">
        <ele>103.1</ele>
        <time>2020-06-08T16:06:19Z</time>
      </trkpt>
      <trkpt lat="48.38149" lon="-4.34664">
        <ele>103.3</ele>
        <time>2020-06-08T16:06:20Z</time>
      </trkpt>
      <trkpt lat="48.3815" lon="-4.34668">
        <ele>103.5</ele>
        <time>2020-06-08T16:06:21Z</time>
      </trkpt>
      <trkpt lat="48.38151" lon="-4.34673">
        <ele>103.7</ele>
        <time>2020-06-08T16:06:22Z</time>
      </trkpt>
      <trkpt lat="48.38153" lon="-4.34678">
        <ele>103.7</ele>
        <time>2020-06-08T16:06:23Z</time>
      </trkpt>
      <trkpt lat="48.38154" lon="-4.34683">
        <ele>103.8</ele>
        <time>2020-06-08T16:06:24Z</time>
      </trkpt>
      <trkpt lat="48.38155" lon="-4.34687">
        <ele>103.8</ele>
        <time>2020-06-08T16:06:25Z</time>
      </trkpt>
      <trkpt lat="48.38157" lon="-4.34693">
        <ele>104.1</ele>
        <time>2020-06-08T16:06:26Z</time>
      </trkpt>
      <trkpt lat="48.38158" lon="-4.34698">
        <ele>104.2</ele>
        <time>2020-06-08T16:06:27Z</time>
      </trkpt>
      <trkpt lat="48.3816" lon="-4.34702">
        <ele>104.3</ele>
        <time>2020-06-08T16:06:28Z</time>
      </trkpt>
      <trkpt lat="48.38161" lon="-4.34707">
        <ele>104.4</ele>
        <time>2020-06-08T16:06:29Z</time>
      </trkpt>
      <trkpt lat="48.38164" lon="-4.34712">
        <ele>104.6</ele>
        <time>2020-06-08T16:06:30Z</time>
      </trkpt>
      <trkpt lat="48.38165" lon="-4.34717">
        <ele>104.8</ele>
        <time>2020-06-08T16:06:31Z</time>
      </trkpt>
      <trkpt lat="48.38167" lon="-4.34724">
        <ele>105.1</ele>
        <time>2020-06-08T16:06:32Z</time>
      </trkpt>
      <trkpt lat="48.38168" lon="-4.34731">
        <ele>105.3</ele>
        <time>2020-06-08T16:06:33Z</time>
      </trkpt>
      <trkpt lat="48.3817" lon="-4.34737">
        <ele>105.4</ele>
        <time>2020-06-08T16:06:34Z</time>
      </trkpt>
      <trkpt lat="48.38171" lon="-4.34743">
        <ele>105.6</ele>
        <time>2020-06-08T16:06:35Z</time>
      </trkpt>
      <trkpt lat="48.38172" lon="-4.34749">
        <ele>105.8</ele>
        <time>2020-06-08T16:06:36Z</time>
      </trkpt>
      <trkpt lat="48.38173" lon="-4.34753">
        <ele>106</ele>
        <time>2020-06-08T16:06:37Z</time>
      </trkpt>
      <trkpt lat="48.38173" lon="-4.34757">
        <ele>106.1</ele>
        <time>2020-06-08T16:06:38Z</time>
      </trkpt>
      <trkpt lat="48.38175" lon="-4.34761">
        <ele>106.2</ele>
        <time>2020-06-08T16:06:39Z</time>
      </trkpt>
      <trkpt lat="48.38176" lon="-4.34766">
        <ele>106.4</ele>
        <time>2020-06-08T16:06:40Z</time>
      </trkpt>
      <trkpt lat="48.38177" lon="-4.34772">
        <ele>106.6</ele>
        <time>2020-06-08T16:06:41Z</time>
      </trkpt>
      <trkpt lat="48.38178" lon="-4.34776">
        <ele>106.7</ele>
        <time>2020-06-08T16:06:42Z</time>
      </trkpt>
      <trkpt lat="48.38179" lon="-4.3478">
        <ele>106.8</ele>
        <time>2020-06-08T16:06:43Z</time>
      </trkpt>
      <trkpt lat="48.38181" lon="-4.34785">
        <ele>107</ele>
        <time>2020-06-08T16:06:44Z</time>
      </trkpt>
      <trkpt lat="48.38182" lon="-4.3479">
        <ele>107.2</ele>
        <time>2020-06-08T16:06:45Z</time>
      </trkpt>
      <trkpt lat="48.38183" lon="-4.34793">
        <ele>107.2</ele>
        <time>2020-06-08T16:06:46Z</time>
      </trkpt>
      <trkpt lat="48.38184" lon="-4.348">
        <ele>107.5</ele>
        <time>2020-06-08T16:06:47Z</time>
      </trkpt>
      <trkpt lat="48.38185" lon="-4.34806">
        <ele>107.7</ele>
        <time>2020-06-08T16:06:48Z</time>
      </trkpt>
      <trkpt lat="48.38186" lon="-4.3481">
        <ele>107.8</ele>
        <time>2020-06-08T16:06:49Z</time>
      </trkpt>
      <trkpt lat="48.38188" lon="-4.34814">
        <ele>107.9</ele>
        <time>2020-06-08T16:06:50Z</time>
      </trkpt>
      <trkpt lat="48.38189" lon="-4.34815">
        <ele>107.9</ele>
        <time>2020-06-08T16:06:51Z</time>
      </trkpt>
      <trkpt lat="48.38191" lon="-4.34818">
        <ele>108</ele>
        <time>2020-06-08T16:06:52Z</time>
      </trkpt>
      <trkpt lat="48.38193" lon="-4.34821">
        <ele>108.1</ele>
        <time>2020-06-08T16:06:53Z</time>
      </trkpt>
      <trkpt lat="48.38196" lon="-4.34821">
        <ele>108.2</ele>
        <time>2020-06-08T16:06:54Z</time>
      </trkpt>
      <trkpt lat="48.38199" lon="-4.34822">
        <ele>108.3</ele>
        <time>2020-06-08T16:06:55Z</time>
      </trkpt>
      <trkpt lat="48.38202" lon="-4.34823">
        <ele>108.4</ele>
        <time>2020-06-08T16:06:56Z</time>
      </trkpt>
      <trkpt lat="48.38203" lon="-4.34823">
        <ele>108.5</ele>
        <time>2020-06-08T16:06:57Z</time>
      </trkpt>
      <trkpt lat="48.38207" lon="-4.34824">
        <ele>108.6</ele>
        <time>2020-06-08T16:06:58Z</time>
      </trkpt>
      <trkpt lat="48.38208" lon="-4.34825">
        <ele>108.7</ele>
        <time>2020-06-08T16:06:59Z</time>
      </trkpt>
      <trkpt lat="48.3821" lon="-4.34827">
        <ele>108.7</ele>
        <time>2020-06-08T16:07:00Z</time>
      </trkpt>
      <trkpt lat="48.38212" lon="-4.34832">
        <ele>108.8</ele>
        <time>2020-06-08T16:07:01Z</time>
      </trkpt>
      <trkpt lat="48.38213" lon="-4.34836">
        <ele>108.9</ele>
        <time>2020-06-08T16:07:02Z</time>
      </trkpt>
      <trkpt lat="48.38215" lon="-4.3484">
        <ele>109</ele>
        <time>2020-06-08T16:07:03Z</time>
      </trkpt>
      <trkpt lat="48.38217" lon="-4.34845">
        <ele>109</ele>
        <time>2020-06-08T16:07:04Z</time>
      </trkpt>
      <trkpt lat="48.38218" lon="-4.34847">
        <ele>109.1</ele>
        <time>2020-06-08T16:07:05Z</time>
      </trkpt>
      <trkpt lat="48.38219" lon="-4.34851">
        <ele>109.2</ele>
        <time>2020-06-08T16:07:06Z</time>
      </trkpt>
      <trkpt lat="48.3822" lon="-4.34855">
        <ele>109.2</ele>
        <time>2020-06-08T16:07:07Z</time>
      </trkpt>
      <trkpt lat="48.3822" lon="-4.34858">
        <ele>109.3</ele>
        <time>2020-06-08T16:07:08Z</time>
      </trkpt>
      <trkpt lat="48.3822" lon="-4.3486">
        <ele>109.3</ele>
        <time>2020-06-08T16:07:09Z</time>
      </trkpt>
      <trkpt lat="48.3822" lon="-4.3486">
        <ele>109.3</ele>
        <time>2020-06-08T16:07:10Z</time>
      </trkpt>
      <trkpt lat="48.38221" lon="-4.34861">
        <ele>109.3</ele>
        <time>2020-06-08T16:07:11Z</time>
      </trkpt>
      <trkpt lat="48.38221" lon="-4.3486">
        <ele>109.3</ele>
        <time>2020-06-08T16:07:12Z</time>
      </trkpt>
      <trkpt lat="48.38222" lon="-4.3486">
        <ele>109.3</ele>
        <time>2020-06-08T16:07:13Z</time>
      </trkpt>
      <trkpt lat="48.38221" lon="-4.34861">
        <ele>109.4</ele>
        <time>2020-06-08T16:07:14Z</time>
      </trkpt>
      <trkpt lat="48.3822" lon="-4.34861">
        <ele>109.4</ele>
        <time>2020-06-08T16:07:15Z</time>
      </trkpt>
      <trkpt lat="48.3822" lon="-4.34861">
        <ele>109.4</ele>
        <time>2020-06-08T16:07:16Z</time>
      </trkpt>
      <trkpt lat="48.3822" lon="-4.34861">
        <ele>109.4</ele>
        <time>2020-06-08T16:07:17Z</time>
      </trkpt>
      <trkpt lat="48.38221" lon="-4.34861">
        <ele>109.4</ele>
        <time>2020-06-08T16:07:18Z</time>
      </trkpt>
      <trkpt lat="48.38221" lon="-4.34862">
        <ele>109.4</ele>
        <time>2020-06-08T16:07:19Z</time>
      </trkpt>
      <trkpt lat="48.38221" lon="-4.34864">
        <ele>109.4</ele>
        <time>2020-06-08T16:07:20Z</time>
      </trkpt>
      <trkpt lat="48.38218" lon="-4.34869">
        <ele>109.5</ele>
        <time>2020-06-08T16:07:21Z</time>
      </trkpt>
      <trkpt lat="48.38216" lon="-4.34871">
        <ele>109.5</ele>
        <time>2020-06-08T16:07:22Z</time>
      </trkpt>
      <trkpt lat="48.38213" lon="-4.34876">
        <ele>109.5</ele>
        <time>2020-06-08T16:07:23Z</time>
      </trkpt>
      <trkpt lat="48.38211" lon="-4.34881">
        <ele>109.4</ele>
        <time>2020-06-08T16:07:24Z</time>
      </trkpt>
      <trkpt lat="48.38209" lon="-4.34886">
        <ele>109.4</ele>
        <time>2020-06-08T16:07:25Z</time>
      </trkpt>
      <trkpt lat="48.38206" lon="-4.34891">
        <ele>109.4</ele>
        <time>2020-06-08T16:07:26Z</time>
      </trkpt>
      <trkpt lat="48.38203" lon="-4.34895">
        <ele>109.2</ele>
        <time>2020-06-08T16:07:27Z</time>
      </trkpt>
      <trkpt lat="48.38197" lon="-4.34898">
        <ele>109</ele>
        <time>2020-06-08T16:07:28Z</time>
      </trkpt>
      <trkpt lat="48.38192" lon="-4.349">
        <ele>108.8</ele>
        <time>2020-06-08T16:07:29Z</time>
      </trkpt>
      <trkpt lat="48.38189" lon="-4.34906">
        <ele>108.4</ele>
        <time>2020-06-08T16:07:30Z</time>
      </trkpt>
      <trkpt lat="48.38188" lon="-4.34913">
        <ele>108.2</ele>
        <time>2020-06-08T16:07:31Z</time>
      </trkpt>
      <trkpt lat="48.38188" lon="-4.34919">
        <ele>108.1</ele>
        <time>2020-06-08T16:07:32Z</time>
      </trkpt>
      <trkpt lat="48.3819" lon="-4.34924">
        <ele>108</ele>
        <time>2020-06-08T16:07:33Z</time>
      </trkpt>
      <trkpt lat="48.38192" lon="-4.34927">
        <ele>107.9</ele>
        <time>2020-06-08T16:07:34Z</time>
      </trkpt>
      <trkpt lat="48.38194" lon="-4.3493">
        <ele>107.8</ele>
        <time>2020-06-08T16:07:35Z</time>
      </trkpt>
      <trkpt lat="48.38194" lon="-4.34932">
        <ele>107.8</ele>
        <time>2020-06-08T16:07:36Z</time>
      </trkpt>
      <trkpt lat="48.38194" lon="-4.34933">
        <ele>107.8</ele>
        <time>2020-06-08T16:07:37Z</time>
      </trkpt>
      <trkpt lat="48.38194" lon="-4.34934">
        <ele>107.8</ele>
        <time>2020-06-08T16:07:38Z</time>
      </trkpt>
      <trkpt lat="48.38194" lon="-4.34935">
        <ele>107.8</ele>
        <time>2020-06-08T16:07:39Z</time>
      </trkpt>
      <trkpt lat="48.38194" lon="-4.34936">
        <ele>107.8</ele>
        <time>2020-06-08T16:07:40Z</time>
      </trkpt>
      <trkpt lat="48.38194" lon="-4.34937">
        <ele>107.7</ele>
        <time>2020-06-08T16:07:41Z</time>
      </trkpt>
      <trkpt lat="48.38194" lon="-4.34938">
        <ele>107.7</ele>
        <time>2020-06-08T16:07:42Z</time>
      </trkpt>
      <trkpt lat="48.38194" lon="-4.34939">
        <ele>107.7</ele>
        <time>2020-06-08T16:07:43Z</time>
      </trkpt>
      <trkpt lat="48.38194" lon="-4.34939">
        <ele>107.7</ele>
        <time>2020-06-08T16:07:44Z</time>
      </trkpt>
      <trkpt lat="48.38194" lon="-4.3494">
        <ele>107.7</ele>
        <time>2020-06-08T16:07:45Z</time>
      </trkpt>
      <trkpt lat="48.38194" lon="-4.34941">
        <ele>107.7</ele>
        <time>2020-06-08T16:07:46Z</time>
      </trkpt>
      <trkpt lat="48.38194" lon="-4.34942">
        <ele>107.7</ele>
        <time>2020-06-08T16:07:47Z</time>
      </trkpt>
      <trkpt lat="48.38194" lon="-4.34943">
        <ele>107.6</ele>
        <time>2020-06-08T16:11:32Z</time>
      </trkpt>
      <trkpt lat="48.38194" lon="-4.34944">
        <ele>107.6</ele>
        <time>2020-06-08T16:11:33Z</time>
      </trkpt>
      <trkpt lat="48.38193" lon="-4.34948">
        <ele>107.6</ele>
        <time>2020-06-08T16:11:34Z</time>
      </trkpt>
      <trkpt lat="48.38193" lon="-4.34951">
        <ele>107.5</ele>
        <time>2020-06-08T16:11:35Z</time>
      </trkpt>
      <trkpt lat="48.38192" lon="-4.34956">
        <ele>107.5</ele>
        <time>2020-06-08T16:11:36Z</time>
      </trkpt>
      <trkpt lat="48.38192" lon="-4.34958">
        <ele>107.4</ele>
        <time>2020-06-08T16:11:37Z</time>
      </trkpt>
      <trkpt lat="48.38192" lon="-4.34962">
        <ele>107.4</ele>
        <time>2020-06-08T16:11:38Z</time>
      </trkpt>
      <trkpt lat="48.38193" lon="-4.34968">
        <ele>107.3</ele>
        <time>2020-06-08T16:11:39Z</time>
      </trkpt>
      <trkpt lat="48.38193" lon="-4.3497">
        <ele>107.3</ele>
        <time>2020-06-08T16:11:40Z</time>
      </trkpt>
      <trkpt lat="48.38194" lon="-4.34975">
        <ele>107.2</ele>
        <time>2020-06-08T16:11:41Z</time>
      </trkpt>
      <trkpt lat="48.38194" lon="-4.34981">
        <ele>107.2</ele>
        <time>2020-06-08T16:11:42Z</time>
      </trkpt>
      <trkpt lat="48.38193" lon="-4.34987">
        <ele>107.2</ele>
        <time>2020-06-08T16:11:43Z</time>
      </trkpt>
      <trkpt lat="48.38194" lon="-4.34991">
        <ele>107.2</ele>
        <time>2020-06-08T16:11:44Z</time>
      </trkpt>
      <trkpt lat="48.38194" lon="-4.34997">
        <ele>107.1</ele>
        <time>2020-06-08T16:11:45Z</time>
      </trkpt>
      <trkpt lat="48.38196" lon="-4.35003">
        <ele>107.1</ele>
        <time>2020-06-08T16:11:46Z</time>
      </trkpt>
      <trkpt lat="48.38197" lon="-4.35008">
        <ele>107.1</ele>
        <time>2020-06-08T16:11:47Z</time>
      </trkpt>
      <trkpt lat="48.38197" lon="-4.35014">
        <ele>107.1</ele>
        <time>2020-06-08T16:11:48Z</time>
      </trkpt>
      <trkpt lat="48.38197" lon="-4.35019">
        <ele>107.1</ele>
        <time>2020-06-08T16:11:49Z</time>
      </trkpt>
      <trkpt lat="48.38198" lon="-4.35025">
        <ele>107.1</ele>
        <time>2020-06-08T16:11:50Z</time>
      </trkpt>
      <trkpt lat="48.38199" lon="-4.35029">
        <ele>107</ele>
        <time>2020-06-08T16:11:51Z</time>
      </trkpt>
      <trkpt lat="48.38199" lon="-4.35034">
        <ele>107</ele>
        <time>2020-06-08T16:11:52Z</time>
      </trkpt>
      <trkpt lat="48.382" lon="-4.35038">
        <ele>107</ele>
        <time>2020-06-08T16:11:53Z</time>
      </trkpt>
      <trkpt lat="48.382" lon="-4.35044">
        <ele>107</ele>
        <time>2020-06-08T16:11:54Z</time>
      </trkpt>
      <trkpt lat="48.38201" lon="-4.35049">
        <ele>107</ele>
        <time>2020-06-08T16:11:55Z</time>
      </trkpt>
      <trkpt lat="48.38201" lon="-4.35054">
        <ele>107</ele>
        <time>2020-06-08T16:11:56Z</time>
      </trkpt>
      <trkpt lat="48.38202" lon="-4.3506">
        <ele>107.1</ele>
        <time>2020-06-08T16:11:57Z</time>
      </trkpt>
      <trkpt lat="48.38203" lon="-4.35066">
        <ele>107.1</ele>
        <time>2020-06-08T16:11:58Z</time>
      </trkpt>
      <trkpt lat="48.38202" lon="-4.3507">
        <ele>107.1</ele>
        <time>2020-06-08T16:11:59Z</time>
      </trkpt>
      <trkpt lat="48.38202" lon="-4.35078">
        <ele>107.2</ele>
        <time>2020-06-08T16:12:00Z</time>
      </trkpt>
      <trkpt lat="48.38202" lon="-4.35085">
        <ele>107.2</ele>
        <time>2020-06-08T16:12:01Z</time>
      </trkpt>
      <trkpt lat="48.38203" lon="-4.35091">
        <ele>107.3</ele>
        <time>2020-06-08T16:12:02Z</time>
      </trkpt>
      <trkpt lat="48.38203" lon="-4.35099">
        <ele>107.4</ele>
        <time>2020-06-08T16:12:03Z</time>
      </trkpt>
      <trkpt lat="48.38204" lon="-4.35106">
        <ele>107.5</ele>
        <time>2020-06-08T16:12:04Z</time>
      </trkpt>
      <trkpt lat="48.38204" lon="-4.35112">
        <ele>107.5</ele>
        <time>2020-06-08T16:12:05Z</time>
      </trkpt>
      <trkpt lat="48.38204" lon="-4.35119">
        <ele>107.6</ele>
        <time>2020-06-08T16:12:06Z</time>
      </trkpt>
      <trkpt lat="48.38204" lon="-4.35124">
        <ele>107.7</ele>
        <time>2020-06-08T16:12:07Z</time>
      </trkpt>
      <trkpt lat="48.38204" lon="-4.35129">
        <ele>107.7</ele>
        <time>2020-06-08T16:12:08Z</time>
      </trkpt>
      <trkpt lat="48.38203" lon="-4.35135">
        <ele>107.8</ele>
        <time>2020-06-08T16:12:09Z</time>
      </trkpt>
      <trkpt lat="48.38203" lon="-4.35141">
        <ele>107.8</ele>
        <time>2020-06-08T16:12:10Z</time>
      </trkpt>
      <trkpt lat="48.38203" lon="-4.35147">
        <ele>107.9</ele>
        <time>2020-06-08T16:12:11Z</time>
      </trkpt>
      <trkpt lat="48.38203" lon="-4.35152">
        <ele>108</ele>
        <time>2020-06-08T16:12:12Z</time>
      </trkpt>
      <trkpt lat="48.38202" lon="-4.35159">
        <ele>108</ele>
        <time>2020-06-08T16:12:13Z</time>
      </trkpt>
      <trkpt lat="48.38202" lon="-4.35165">
        <ele>108.1</ele>
        <time>2020-06-08T16:12:14Z</time>
      </trkpt>
      <trkpt lat="48.38202" lon="-4.35171">
        <ele>108.2</ele>
        <time>2020-06-08T16:12:15Z</time>
      </trkpt>
      <trkpt lat="48.38203" lon="-4.35175">
        <ele>108.2</ele>
        <time>2020-06-08T16:12:16Z</time>
      </trkpt>
      <trkpt lat="48.38202" lon="-4.35182">
        <ele>108.3</ele>
        <time>2020-06-08T16:12:17Z</time>
      </trkpt>
      <trkpt lat="48.38201" lon="-4.35188">
        <ele>108.4</ele>
        <time>2020-06-08T16:12:18Z</time>
      </trkpt>
      <trkpt lat="48.38201" lon="-4.35194">
        <ele>108.5</ele>
        <time>2020-06-08T16:12:19Z</time>
      </trkpt>
      <trkpt lat="48.38201" lon="-4.35199">
        <ele>108.5</ele>
        <time>2020-06-08T16:12:20Z</time>
      </trkpt>
      <trkpt lat="48.382" lon="-4.35204">
        <ele>108.6</ele>
        <time>2020-06-08T16:12:21Z</time>
      </trkpt>
      <trkpt lat="48.382" lon="-4.3521">
        <ele>108.6</ele>
        <time>2020-06-08T16:12:22Z</time>
      </trkpt>
      <trkpt lat="48.38199" lon="-4.35216">
        <ele>108.6</ele>
        <time>2020-06-08T16:12:23Z</time>
      </trkpt>
      <trkpt lat="48.38199" lon="-4.35222">
        <ele>108.7</ele>
        <time>2020-06-08T16:12:24Z</time>
      </trkpt>
      <trkpt lat="48.38198" lon="-4.35228">
        <ele>108.8</ele>
        <time>2020-06-08T16:12:25Z</time>
      </trkpt>
      <trkpt lat="48.38198" lon="-4.35233">
        <ele>108.8</ele>
        <time>2020-06-08T16:12:26Z</time>
      </trkpt>
      <trkpt lat="48.38197" lon="-4.35238">
        <ele>108.9</ele>
        <time>2020-06-08T16:12:27Z</time>
      </trkpt>
      <trkpt lat="48.38196" lon="-4.35244">
        <ele>108.9</ele>
        <time>2020-06-08T16:12:28Z</time>
      </trkpt>
      <trkpt lat="48.38195" lon="-4.3525">
        <ele>109</ele>
        <time>2020-06-08T16:12:29Z</time>
      </trkpt>
      <trkpt lat="48.38194" lon="-4.35256">
        <ele>109.1</ele>
        <time>2020-06-08T16:12:30Z</time>
      </trkpt>
      <trkpt lat="48.38193" lon="-4.35263">
        <ele>109.2</ele>
        <time>2020-06-08T16:12:31Z</time>
      </trkpt>
      <trkpt lat="48.38193" lon="-4.35269">
        <ele>109.3</ele>
        <time>2020-06-08T16:12:32Z</time>
      </trkpt>
      <trkpt lat="48.38193" lon="-4.35274">
        <ele>109.4</ele>
        <time>2020-06-08T16:12:33Z</time>
      </trkpt>
      <trkpt lat="48.38194" lon="-4.35281">
        <ele>109.5</ele>
        <time>2020-06-08T16:12:34Z</time>
      </trkpt>
      <trkpt lat="48.38195" lon="-4.35287">
        <ele>109.6</ele>
        <time>2020-06-08T16:12:35Z</time>
      </trkpt>
      <trkpt lat="48.38196" lon="-4.35293">
        <ele>109.6</ele>
        <time>2020-06-08T16:12:36Z</time>
      </trkpt>
      <trkpt lat="48.38196" lon="-4.35299">
        <ele>109.7</ele>
        <time>2020-06-08T16:12:37Z</time>
      </trkpt>
      <trkpt lat="48.38196" lon="-4.35305">
        <ele>109.8</ele>
        <time>2020-06-08T16:12:38Z</time>
      </trkpt>
      <trkpt lat="48.38196" lon="-4.35311">
        <ele>109.8</ele>
        <time>2020-06-08T16:12:39Z</time>
      </trkpt>
      <trkpt lat="48.38196" lon="-4.35318">
        <ele>109.9</ele>
        <time>2020-06-08T16:12:40Z</time>
      </trkpt>
      <trkpt lat="48.38195" lon="-4.35324">
        <ele>110</ele>
        <time>2020-06-08T16:12:41Z</time>
      </trkpt>
      <trkpt lat="48.38195" lon="-4.35329">
        <ele>110</ele>
        <time>2020-06-08T16:12:42Z</time>
      </trkpt>
      <trkpt lat="48.38194" lon="-4.35335">
        <ele>110.1</ele>
        <time>2020-06-08T16:12:43Z</time>
      </trkpt>
      <trkpt lat="48.38195" lon="-4.3534">
        <ele>110.1</ele>
        <time>2020-06-08T16:12:44Z</time>
      </trkpt>
      <trkpt lat="48.38195" lon="-4.35346">
        <ele>110.2</ele>
        <time>2020-06-08T16:12:45Z</time>
      </trkpt>
      <trkpt lat="48.38195" lon="-4.35351">
        <ele>110.2</ele>
        <time>2020-06-08T16:12:46Z</time>
      </trkpt>
      <trkpt lat="48.38195" lon="-4.35357">
        <ele>110.3</ele>
        <time>2020-06-08T16:12:47Z</time>
      </trkpt>
      <trkpt lat="48.38195" lon="-4.35364">
        <ele>110.3</ele>
        <time>2020-06-08T16:12:48Z</time>
      </trkpt>
      <trkpt lat="48.38194" lon="-4.3537">
        <ele>110.4</ele>
        <time>2020-06-08T16:12:49Z</time>
      </trkpt>
      <trkpt lat="48.38193" lon="-4.35377">
        <ele>110.5</ele>
        <time>2020-06-08T16:12:50Z</time>
      </trkpt>
      <trkpt lat="48.38192" lon="-4.35384">
        <ele>110.6</ele>
        <time>2020-06-08T16:12:51Z</time>
      </trkpt>
      <trkpt lat="48.38192" lon="-4.3539">
        <ele>110.6</ele>
        <time>2020-06-08T16:12:52Z</time>
      </trkpt>
      <trkpt lat="48.38191" lon="-4.35396">
        <ele>110.7</ele>
        <time>2020-06-08T16:12:53Z</time>
      </trkpt>
      <trkpt lat="48.38192" lon="-4.35401">
        <ele>110.8</ele>
        <time>2020-06-08T16:12:54Z</time>
      </trkpt>
      <trkpt lat="48.38192" lon="-4.35407">
        <ele>110.8</ele>
        <time>2020-06-08T16:12:55Z</time>
      </trkpt>
      <trkpt lat="48.38191" lon="-4.35413">
        <ele>110.9</ele>
        <time>2020-06-08T16:12:56Z</time>
      </trkpt>
      <trkpt lat="48.3819" lon="-4.3542">
        <ele>110.9</ele>
        <time>2020-06-08T16:12:57Z</time>
      </trkpt>
      <trkpt lat="48.38189" lon="-4.35426">
        <ele>111</ele>
        <time>2020-06-08T16:12:58Z</time>
      </trkpt>
      <trkpt lat="48.38188" lon="-4.35433">
        <ele>111.1</ele>
        <time>2020-06-08T16:12:59Z</time>
      </trkpt>
      <trkpt lat="48.38188" lon="-4.3544">
        <ele>111.1</ele>
        <time>2020-06-08T16:13:00Z</time>
      </trkpt>
      <trkpt lat="48.38188" lon="-4.35446">
        <ele>111.2</ele>
        <time>2020-06-08T16:13:01Z</time>
      </trkpt>
      <trkpt lat="48.38188" lon="-4.35453">
        <ele>111.3</ele>
        <time>2020-06-08T16:13:02Z</time>
      </trkpt>
      <trkpt lat="48.38189" lon="-4.35457">
        <ele>111.3</ele>
        <time>2020-06-08T16:13:03Z</time>
      </trkpt>
      <trkpt lat="48.38189" lon="-4.35464">
        <ele>111.4</ele>
        <time>2020-06-08T16:13:04Z</time>
      </trkpt>
      <trkpt lat="48.38188" lon="-4.3547">
        <ele>111.5</ele>
        <time>2020-06-08T16:13:05Z</time>
      </trkpt>
      <trkpt lat="48.38188" lon="-4.35476">
        <ele>111.5</ele>
        <time>2020-06-08T16:13:06Z</time>
      </trkpt>
      <trkpt lat="48.38188" lon="-4.35483">
        <ele>111.6</ele>
        <time>2020-06-08T16:13:07Z</time>
      </trkpt>
      <trkpt lat="48.38187" lon="-4.3549">
        <ele>111.7</ele>
        <time>2020-06-08T16:13:08Z</time>
      </trkpt>
      <trkpt lat="48.38188" lon="-4.35496">
        <ele>111.7</ele>
        <time>2020-06-08T16:13:09Z</time>
      </trkpt>
      <trkpt lat="48.38187" lon="-4.35504">
        <ele>111.8</ele>
        <time>2020-06-08T16:13:10Z</time>
      </trkpt>
      <trkpt lat="48.38187" lon="-4.3551">
        <ele>111.9</ele>
        <time>2020-06-08T16:13:11Z</time>
      </trkpt>
      <trkpt lat="48.38187" lon="-4.35516">
        <ele>112</ele>
        <time>2020-06-08T16:13:12Z</time>
      </trkpt>
      <trkpt lat="48.38187" lon="-4.35523">
        <ele>112.1</ele>
        <time>2020-06-08T16:13:13Z</time>
      </trkpt>
      <trkpt lat="48.38187" lon="-4.35528">
        <ele>112.1</ele>
        <time>2020-06-08T16:13:14Z</time>
      </trkpt>
      <trkpt lat="48.38187" lon="-4.35534">
        <ele>112.2</ele>
        <time>2020-06-08T16:13:15Z</time>
      </trkpt>
      <trkpt lat="48.38187" lon="-4.35539">
        <ele>112.3</ele>
        <time>2020-06-08T16:13:16Z</time>
      </trkpt>
      <trkpt lat="48.38187" lon="-4.35546">
        <ele>112.4</ele>
        <time>2020-06-08T16:13:17Z</time>
      </trkpt>
      <trkpt lat="48.38187" lon="-4.35552">
        <ele>112.5</ele>
        <time>2020-06-08T16:13:18Z</time>
      </trkpt>
      <trkpt lat="48.38187" lon="-4.35558">
        <ele>112.7</ele>
        <time>2020-06-08T16:13:19Z</time>
      </trkpt>
      <trkpt lat="48.38186" lon="-4.35564">
        <ele>112.8</ele>
        <time>2020-06-08T16:13:20Z</time>
      </trkpt>
      <trkpt lat="48.38186" lon="-4.3557">
        <ele>113</ele>
        <time>2020-06-08T16:13:21Z</time>
      </trkpt>
      <trkpt lat="48.38186" lon="-4.35575">
        <ele>113</ele>
        <time>2020-06-08T16:13:22Z</time>
      </trkpt>
      <trkpt lat="48.38186" lon="-4.35581">
        <ele>113.1</ele>
        <time>2020-06-08T16:13:23Z</time>
      </trkpt>
      <trkpt lat="48.38185" lon="-4.35588">
        <ele>113.1</ele>
        <time>2020-06-08T16:13:24Z</time>
      </trkpt>
      <trkpt lat="48.38185" lon="-4.35594">
        <ele>113.2</ele>
        <time>2020-06-08T16:13:25Z</time>
      </trkpt>
      <trkpt lat="48.38186" lon="-4.356">
        <ele>113.2</ele>
        <time>2020-06-08T16:13:26Z</time>
      </trkpt>
      <trkpt lat="48.38186" lon="-4.35606">
        <ele>113.4</ele>
        <time>2020-06-08T16:13:27Z</time>
      </trkpt>
      <trkpt lat="48.38185" lon="-4.35613">
        <ele>113.4</ele>
        <time>2020-06-08T16:13:28Z</time>
      </trkpt>
      <trkpt lat="48.38185" lon="-4.35619">
        <ele>113.5</ele>
        <time>2020-06-08T16:13:29Z</time>
      </trkpt>
      <trkpt lat="48.38186" lon="-4.35625">
        <ele>113.5</ele>
        <time>2020-06-08T16:13:30Z</time>
      </trkpt>
      <trkpt lat="48.38186" lon="-4.35631">
        <ele>113.6</ele>
        <time>2020-06-08T16:13:31Z</time>
      </trkpt>
      <trkpt lat="48.38187" lon="-4.35638">
        <ele>113.6</ele>
        <time>2020-06-08T16:13:32Z</time>
      </trkpt>
      <trkpt lat="48.38187" lon="-4.35644">
        <ele>113.8</ele>
        <time>2020-06-08T16:13:33Z</time>
      </trkpt>
      <trkpt lat="48.38187" lon="-4.3565">
        <ele>113.8</ele>
        <time>2020-06-08T16:13:34Z</time>
      </trkpt>
      <trkpt lat="48.38187" lon="-4.35657">
        <ele>113.8</ele>
        <time>2020-06-08T16:13:35Z</time>
      </trkpt>
      <trkpt lat="48.38186" lon="-4.35664">
        <ele>113.9</ele>
        <time>2020-06-08T16:13:36Z</time>
      </trkpt>
      <trkpt lat="48.38187" lon="-4.3567">
        <ele>114</ele>
        <time>2020-06-08T16:13:37Z</time>
      </trkpt>
      <trkpt lat="48.38187" lon="-4.35676">
        <ele>114.1</ele>
        <time>2020-06-08T16:13:38Z</time>
      </trkpt>
      <trkpt lat="48.38188" lon="-4.35683">
        <ele>114.2</ele>
        <time>2020-06-08T16:13:39Z</time>
      </trkpt>
      <trkpt lat="48.38188" lon="-4.35689">
        <ele>114.3</ele>
        <time>2020-06-08T16:13:40Z</time>
      </trkpt>
      <trkpt lat="48.38187" lon="-4.35695">
        <ele>114.4</ele>
        <time>2020-06-08T16:13:41Z</time>
      </trkpt>
      <trkpt lat="48.38185" lon="-4.35699">
        <ele>114.5</ele>
        <time>2020-06-08T16:13:42Z</time>
      </trkpt>
      <trkpt lat="48.38183" lon="-4.35703">
        <ele>114.6</ele>
        <time>2020-06-08T16:13:43Z</time>
      </trkpt>
      <trkpt lat="48.38182" lon="-4.35708">
        <ele>114.8</ele>
        <time>2020-06-08T16:13:44Z</time>
      </trkpt>
      <trkpt lat="48.38182" lon="-4.35713">
        <ele>114.8</ele>
        <time>2020-06-08T16:13:45Z</time>
      </trkpt>
      <trkpt lat="48.38182" lon="-4.35719">
        <ele>114.8</ele>
        <time>2020-06-08T16:13:46Z</time>
      </trkpt>
      <trkpt lat="48.38184" lon="-4.35725">
        <ele>114.9</ele>
        <time>2020-06-08T16:13:47Z</time>
      </trkpt>
      <trkpt lat="48.38186" lon="-4.3573">
        <ele>114.9</ele>
        <time>2020-06-08T16:13:48Z</time>
      </trkpt>
      <trkpt lat="48.38188" lon="-4.35736">
        <ele>114.9</ele>
        <time>2020-06-08T16:13:49Z</time>
      </trkpt>
      <trkpt lat="48.38189" lon="-4.35742">
        <ele>114.9</ele>
        <time>2020-06-08T16:13:50Z</time>
      </trkpt>
      <trkpt lat="48.38189" lon="-4.35748">
        <ele>115</ele>
        <time>2020-06-08T16:13:51Z</time>
      </trkpt>
      <trkpt lat="48.38188" lon="-4.35754">
        <ele>115</ele>
        <time>2020-06-08T16:13:52Z</time>
      </trkpt>
      <trkpt lat="48.38189" lon="-4.35761">
        <ele>115</ele>
        <time>2020-06-08T16:13:53Z</time>
      </trkpt>
      <trkpt lat="48.38189" lon="-4.35768">
        <ele>115.1</ele>
        <time>2020-06-08T16:13:54Z</time>
      </trkpt>
      <trkpt lat="48.38189" lon="-4.35775">
        <ele>115.1</ele>
        <time>2020-06-08T16:13:55Z</time>
      </trkpt>
      <trkpt lat="48.38189" lon="-4.35781">
        <ele>115.2</ele>
        <time>2020-06-08T16:13:56Z</time>
      </trkpt>
      <trkpt lat="48.38189" lon="-4.35789">
        <ele>115.3</ele>
        <time>2020-06-08T16:13:57Z</time>
      </trkpt>
      <trkpt lat="48.38189" lon="-4.35796">
        <ele>115.3</ele>
        <time>2020-06-08T16:13:58Z</time>
      </trkpt>
      <trkpt lat="48.38188" lon="-4.35804">
        <ele>115.3</ele>
        <time>2020-06-08T16:13:59Z</time>
      </trkpt>
      <trkpt lat="48.38189" lon="-4.35811">
        <ele>115.4</ele>
        <time>2020-06-08T16:14:00Z</time>
      </trkpt>
      <trkpt lat="48.3819" lon="-4.35818">
        <ele>115.4</ele>
        <time>2020-06-08T16:14:01Z</time>
      </trkpt>
      <trkpt lat="48.38191" lon="-4.35827">
        <ele>115.5</ele>
        <time>2020-06-08T16:14:02Z</time>
      </trkpt>
      <trkpt lat="48.38191" lon="-4.35835">
        <ele>115.5</ele>
        <time>2020-06-08T16:14:03Z</time>
      </trkpt>
      <trkpt lat="48.38189" lon="-4.35843">
        <ele>115.5</ele>
        <time>2020-06-08T16:14:04Z</time>
      </trkpt>
      <trkpt lat="48.3819" lon="-4.35848">
        <ele>115.6</ele>
        <time>2020-06-08T16:14:05Z</time>
      </trkpt>
      <trkpt lat="48.3819" lon="-4.35854">
        <ele>115.6</ele>
        <time>2020-06-08T16:14:06Z</time>
      </trkpt>
      <trkpt lat="48.3819" lon="-4.35862">
        <ele>115.6</ele>
        <time>2020-06-08T16:14:07Z</time>
      </trkpt>
      <trkpt lat="48.38189" lon="-4.35868">
        <ele>115.7</ele>
        <time>2020-06-08T16:14:08Z</time>
      </trkpt>
      <trkpt lat="48.38189" lon="-4.35876">
        <ele>115.7</ele>
        <time>2020-06-08T16:14:09Z</time>
      </trkpt>
      <trkpt lat="48.38189" lon="-4.35884">
        <ele>115.7</ele>
        <time>2020-06-08T16:14:10Z</time>
      </trkpt>
      <trkpt lat="48.38188" lon="-4.35893">
        <ele>115.7</ele>
        <time>2020-06-08T16:14:11Z</time>
      </trkpt>
      <trkpt lat="48.38187" lon="-4.359">
        <ele>115.7</ele>
        <time>2020-06-08T16:14:12Z</time>
      </trkpt>
      <trkpt lat="48.38187" lon="-4.35906">
        <ele>115.7</ele>
        <time>2020-06-08T16:14:13Z</time>
      </trkpt>
      <trkpt lat="48.38186" lon="-4.35914">
        <ele>115.7</ele>
        <time>2020-06-08T16:14:14Z</time>
      </trkpt>
      <trkpt lat="48.38185" lon="-4.35921">
        <ele>115.7</ele>
        <time>2020-06-08T16:14:15Z</time>
      </trkpt>
      <trkpt lat="48.38184" lon="-4.3593">
        <ele>115.7</ele>
        <time>2020-06-08T16:14:16Z</time>
      </trkpt>
      <trkpt lat="48.38184" lon="-4.35937">
        <ele>115.7</ele>
        <time>2020-06-08T16:14:17Z</time>
      </trkpt>
      <trkpt lat="48.38185" lon="-4.35943">
        <ele>115.8</ele>
        <time>2020-06-08T16:14:18Z</time>
      </trkpt>
      <trkpt lat="48.38185" lon="-4.35951">
        <ele>115.8</ele>
        <time>2020-06-08T16:14:19Z</time>
      </trkpt>
      <trkpt lat="48.38185" lon="-4.3596">
        <ele>115.9</ele>
        <time>2020-06-08T16:14:20Z</time>
      </trkpt>
      <trkpt lat="48.38184" lon="-4.35969">
        <ele>115.9</ele>
        <time>2020-06-08T16:14:21Z</time>
      </trkpt>
      <trkpt lat="48.38185" lon="-4.35979">
        <ele>116</ele>
        <time>2020-06-08T16:14:22Z</time>
      </trkpt>
      <trkpt lat="48.38185" lon="-4.35988">
        <ele>116</ele>
        <time>2020-06-08T16:14:23Z</time>
      </trkpt>
      <trkpt lat="48.38185" lon="-4.35996">
        <ele>115.9</ele>
        <time>2020-06-08T16:14:24Z</time>
      </trkpt>
      <trkpt lat="48.38184" lon="-4.36004">
        <ele>115.9</ele>
        <time>2020-06-08T16:14:25Z</time>
      </trkpt>
      <trkpt lat="48.38184" lon="-4.36011">
        <ele>115.9</ele>
        <time>2020-06-08T16:14:26Z</time>
      </trkpt>
      <trkpt lat="48.38184" lon="-4.36018">
        <ele>115.9</ele>
        <time>2020-06-08T16:14:27Z</time>
      </trkpt>
      <trkpt lat="48.38183" lon="-4.36026">
        <ele>115.9</ele>
        <time>2020-06-08T16:14:28Z</time>
      </trkpt>
      <trkpt lat="48.38182" lon="-4.36034">
        <ele>115.9</ele>
        <time>2020-06-08T16:14:29Z</time>
      </trkpt>
      <trkpt lat="48.38182" lon="-4.3604">
        <ele>116</ele>
        <time>2020-06-08T16:14:30Z</time>
      </trkpt>
      <trkpt lat="48.38182" lon="-4.36047">
        <ele>116</ele>
        <time>2020-06-08T16:14:31Z</time>
      </trkpt>
      <trkpt lat="48.38182" lon="-4.36056">
        <ele>116</ele>
        <time>2020-06-08T16:14:32Z</time>
      </trkpt>
      <trkpt lat="48.3818" lon="-4.36065">
        <ele>116.1</ele>
        <time>2020-06-08T16:14:33Z</time>
      </trkpt>
      <trkpt lat="48.3818" lon="-4.36073">
        <ele>116.1</ele>
        <time>2020-06-08T16:14:34Z</time>
      </trkpt>
      <trkpt lat="48.38179" lon="-4.36083">
        <ele>116.1</ele>
        <time>2020-06-08T16:14:35Z</time>
      </trkpt>
      <trkpt lat="48.38178" lon="-4.36093">
        <ele>116.1</ele>
        <time>2020-06-08T16:14:36Z</time>
      </trkpt>
      <trkpt lat="48.38177" lon="-4.361">
        <ele>116.1</ele>
        <time>2020-06-08T16:14:37Z</time>
      </trkpt>
      <trkpt lat="48.38177" lon="-4.36108">
        <ele>116.1</ele>
        <time>2020-06-08T16:14:38Z</time>
      </trkpt>
      <trkpt lat="48.38177" lon="-4.36115">
        <ele>116.2</ele>
        <time>2020-06-08T16:14:39Z</time>
      </trkpt>
      <trkpt lat="48.38176" lon="-4.36123">
        <ele>116.2</ele>
        <time>2020-06-08T16:14:40Z</time>
      </trkpt>
      <trkpt lat="48.38176" lon="-4.36131">
        <ele>116.2</ele>
        <time>2020-06-08T16:14:41Z</time>
      </trkpt>
      <trkpt lat="48.38175" lon="-4.36138">
        <ele>116.2</ele>
        <time>2020-06-08T16:14:42Z</time>
      </trkpt>
      <trkpt lat="48.38174" lon="-4.36146">
        <ele>116.2</ele>
        <time>2020-06-08T16:14:43Z</time>
      </trkpt>
      <trkpt lat="48.38174" lon="-4.36155">
        <ele>116.2</ele>
        <time>2020-06-08T16:14:44Z</time>
      </trkpt>
      <trkpt lat="48.38173" lon="-4.36164">
        <ele>116.3</ele>
        <time>2020-06-08T16:14:45Z</time>
      </trkpt>
      <trkpt lat="48.38173" lon="-4.36173">
        <ele>116.3</ele>
        <time>2020-06-08T16:14:46Z</time>
      </trkpt>
      <trkpt lat="48.38172" lon="-4.36181">
        <ele>116.3</ele>
        <time>2020-06-08T16:14:47Z</time>
      </trkpt>
      <trkpt lat="48.38172" lon="-4.36189">
        <ele>116.3</ele>
        <time>2020-06-08T16:14:48Z</time>
      </trkpt>
      <trkpt lat="48.38171" lon="-4.36197">
        <ele>116.3</ele>
        <time>2020-06-08T16:14:49Z</time>
      </trkpt>
      <trkpt lat="48.38171" lon="-4.36206">
        <ele>116.4</ele>
        <time>2020-06-08T16:14:50Z</time>
      </trkpt>
      <trkpt lat="48.3817" lon="-4.36214">
        <ele>116.4</ele>
        <time>2020-06-08T16:14:51Z</time>
      </trkpt>
      <trkpt lat="48.38169" lon="-4.36222">
        <ele>116.4</ele>
        <time>2020-06-08T16:14:52Z</time>
      </trkpt>
      <trkpt lat="48.38168" lon="-4.3623">
        <ele>116.4</ele>
        <time>2020-06-08T16:14:53Z</time>
      </trkpt>
      <trkpt lat="48.38167" lon="-4.36238">
        <ele>116.4</ele>
        <time>2020-06-08T16:14:54Z</time>
      </trkpt>
      <trkpt lat="48.38166" lon="-4.36248">
        <ele>116.5</ele>
        <time>2020-06-08T16:14:55Z</time>
      </trkpt>
      <trkpt lat="48.38164" lon="-4.36256">
        <ele>116.5</ele>
        <time>2020-06-08T16:14:56Z</time>
      </trkpt>
      <trkpt lat="48.38164" lon="-4.36264">
        <ele>116.5</ele>
        <time>2020-06-08T16:14:57Z</time>
      </trkpt>
      <trkpt lat="48.38163" lon="-4.36272">
        <ele>116.6</ele>
        <time>2020-06-08T16:14:58Z</time>
      </trkpt>
      <trkpt lat="48.38163" lon="-4.36281">
        <ele>116.6</ele>
        <time>2020-06-08T16:14:59Z</time>
      </trkpt>
      <trkpt lat="48.38162" lon="-4.36291">
        <ele>116.6</ele>
        <time>2020-06-08T16:15:00Z</time>
      </trkpt>
      <trkpt lat="48.38162" lon="-4.36299">
        <ele>116.6</ele>
        <time>2020-06-08T16:15:01Z</time>
      </trkpt>
      <trkpt lat="48.38163" lon="-4.36308">
        <ele>116.6</ele>
        <time>2020-06-08T16:15:02Z</time>
      </trkpt>
      <trkpt lat="48.38162" lon="-4.36315">
        <ele>116.7</ele>
        <time>2020-06-08T16:15:03Z</time>
      </trkpt>
      <trkpt lat="48.38162" lon="-4.36323">
        <ele>116.7</ele>
        <time>2020-06-08T16:15:04Z</time>
      </trkpt>
      <trkpt lat="48.38161" lon="-4.36332">
        <ele>116.7</ele>
        <time>2020-06-08T16:15:05Z</time>
      </trkpt>
      <trkpt lat="48.38161" lon="-4.3634">
        <ele>116.8</ele>
        <time>2020-06-08T16:15:06Z</time>
      </trkpt>
      <trkpt lat="48.3816" lon="-4.36348">
        <ele>116.8</ele>
        <time>2020-06-08T16:15:07Z</time>
      </trkpt>
      <trkpt lat="48.38159" lon="-4.36356">
        <ele>116.9</ele>
        <time>2020-06-08T16:15:08Z</time>
      </trkpt>
      <trkpt lat="48.38158" lon="-4.36365">
        <ele>116.9</ele>
        <time>2020-06-08T16:15:09Z</time>
      </trkpt>
      <trkpt lat="48.38157" lon="-4.36373">
        <ele>116.9</ele>
        <time>2020-06-08T16:15:10Z</time>
      </trkpt>
      <trkpt lat="48.38156" lon="-4.36383">
        <ele>116.9</ele>
        <time>2020-06-08T16:15:11Z</time>
      </trkpt>
      <trkpt lat="48.38155" lon="-4.36392">
        <ele>116.9</ele>
        <time>2020-06-08T16:15:12Z</time>
      </trkpt>
      <trkpt lat="48.38154" lon="-4.364">
        <ele>116.9</ele>
        <time>2020-06-08T16:15:13Z</time>
      </trkpt>
      <trkpt lat="48.38152" lon="-4.36409">
        <ele>116.9</ele>
        <time>2020-06-08T16:15:14Z</time>
      </trkpt>
      <trkpt lat="48.38151" lon="-4.36418">
        <ele>116.9</ele>
        <time>2020-06-08T16:15:15Z</time>
      </trkpt>
      <trkpt lat="48.3815" lon="-4.36427">
        <ele>116.9</ele>
        <time>2020-06-08T16:15:16Z</time>
      </trkpt>
      <trkpt lat="48.38149" lon="-4.36435">
        <ele>116.9</ele>
        <time>2020-06-08T16:15:17Z</time>
      </trkpt>
      <trkpt lat="48.38148" lon="-4.36443">
        <ele>116.9</ele>
        <time>2020-06-08T16:15:18Z</time>
      </trkpt>
      <trkpt lat="48.38148" lon="-4.36452">
        <ele>116.9</ele>
        <time>2020-06-08T16:15:19Z</time>
      </trkpt>
      <trkpt lat="48.38147" lon="-4.36461">
        <ele>116.9</ele>
        <time>2020-06-08T16:15:20Z</time>
      </trkpt>
      <trkpt lat="48.38147" lon="-4.36469">
        <ele>116.9</ele>
        <time>2020-06-08T16:15:21Z</time>
      </trkpt>
      <trkpt lat="48.38146" lon="-4.36478">
        <ele>116.9</ele>
        <time>2020-06-08T16:15:22Z</time>
      </trkpt>
      <trkpt lat="48.38146" lon="-4.36486">
        <ele>116.8</ele>
        <time>2020-06-08T16:15:23Z</time>
      </trkpt>
      <trkpt lat="48.38145" lon="-4.36494">
        <ele>116.8</ele>
        <time>2020-06-08T16:15:24Z</time>
      </trkpt>
      <trkpt lat="48.38144" lon="-4.36502">
        <ele>116.8</ele>
        <time>2020-06-08T16:15:25Z</time>
      </trkpt>
      <trkpt lat="48.38144" lon="-4.3651">
        <ele>116.8</ele>
        <time>2020-06-08T16:15:26Z</time>
      </trkpt>
      <trkpt lat="48.38143" lon="-4.36518">
        <ele>116.8</ele>
        <time>2020-06-08T16:15:27Z</time>
      </trkpt>
      <trkpt lat="48.38142" lon="-4.36527">
        <ele>116.8</ele>
        <time>2020-06-08T16:15:28Z</time>
      </trkpt>
      <trkpt lat="48.38142" lon="-4.36535">
        <ele>116.7</ele>
        <time>2020-06-08T16:15:29Z</time>
      </trkpt>
      <trkpt lat="48.38141" lon="-4.36544">
        <ele>116.7</ele>
        <time>2020-06-08T16:15:30Z</time>
      </trkpt>
      <trkpt lat="48.3814" lon="-4.36552">
        <ele>116.7</ele>
        <time>2020-06-08T16:15:31Z</time>
      </trkpt>
      <trkpt lat="48.3814" lon="-4.3656">
        <ele>116.7</ele>
        <time>2020-06-08T16:15:32Z</time>
      </trkpt>
      <trkpt lat="48.3814" lon="-4.36569">
        <ele>116.7</ele>
        <time>2020-06-08T16:15:33Z</time>
      </trkpt>
      <trkpt lat="48.38139" lon="-4.36578">
        <ele>116.7</ele>
        <time>2020-06-08T16:15:34Z</time>
      </trkpt>
      <trkpt lat="48.38138" lon="-4.36586">
        <ele>116.6</ele>
        <time>2020-06-08T16:15:35Z</time>
      </trkpt>
      <trkpt lat="48.38137" lon="-4.36595">
        <ele>116.6</ele>
        <time>2020-06-08T16:15:36Z</time>
      </trkpt>
      <trkpt lat="48.38136" lon="-4.36605">
        <ele>116.6</ele>
        <time>2020-06-08T16:15:37Z</time>
      </trkpt>
      <trkpt lat="48.38136" lon="-4.36613">
        <ele>116.5</ele>
        <time>2020-06-08T16:15:38Z</time>
      </trkpt>
      <trkpt lat="48.38135" lon="-4.36622">
        <ele>116.4</ele>
        <time>2020-06-08T16:15:39Z</time>
      </trkpt>
      <trkpt lat="48.38134" lon="-4.36631">
        <ele>116.4</ele>
        <time>2020-06-08T16:15:40Z</time>
      </trkpt>
      <trkpt lat="48.38133" lon="-4.36639">
        <ele>116.3</ele>
        <time>2020-06-08T16:15:41Z</time>
      </trkpt>
      <trkpt lat="48.38132" lon="-4.36648">
        <ele>116.2</ele>
        <time>2020-06-08T16:15:42Z</time>
      </trkpt>
      <trkpt lat="48.38131" lon="-4.36656">
        <ele>116.2</ele>
        <time>2020-06-08T16:15:43Z</time>
      </trkpt>
      <trkpt lat="48.3813" lon="-4.36666">
        <ele>116.1</ele>
        <time>2020-06-08T16:15:44Z</time>
      </trkpt>
      <trkpt lat="48.3813" lon="-4.36675">
        <ele>116</ele>
        <time>2020-06-08T16:15:45Z</time>
      </trkpt>
      <trkpt lat="48.38129" lon="-4.36684">
        <ele>116</ele>
        <time>2020-06-08T16:15:46Z</time>
      </trkpt>
      <trkpt lat="48.38128" lon="-4.36693">
        <ele>115.9</ele>
        <time>2020-06-08T16:15:47Z</time>
      </trkpt>
      <trkpt lat="48.38128" lon="-4.36701">
        <ele>115.8</ele>
        <time>2020-06-08T16:15:48Z</time>
      </trkpt>
      <trkpt lat="48.38128" lon="-4.36711">
        <ele>115.7</ele>
        <time>2020-06-08T16:15:49Z</time>
      </trkpt>
      <trkpt lat="48.38126" lon="-4.36721">
        <ele>115.5</ele>
        <time>2020-06-08T16:15:50Z</time>
      </trkpt>
      <trkpt lat="48.38126" lon="-4.36731">
        <ele>115.3</ele>
        <time>2020-06-08T16:15:51Z</time>
      </trkpt>
      <trkpt lat="48.38125" lon="-4.3674">
        <ele>115.2</ele>
        <time>2020-06-08T16:15:52Z</time>
      </trkpt>
      <trkpt lat="48.38124" lon="-4.36749">
        <ele>115</ele>
        <time>2020-06-08T16:15:53Z</time>
      </trkpt>
      <trkpt lat="48.38124" lon="-4.36759">
        <ele>114.8</ele>
        <time>2020-06-08T16:15:54Z</time>
      </trkpt>
      <trkpt lat="48.38124" lon="-4.36769">
        <ele>114.7</ele>
        <time>2020-06-08T16:15:55Z</time>
      </trkpt>
      <trkpt lat="48.38125" lon="-4.36779">
        <ele>114.5</ele>
        <time>2020-06-08T16:15:56Z</time>
      </trkpt>
      <trkpt lat="48.38124" lon="-4.3679">
        <ele>114.3</ele>
        <time>2020-06-08T16:15:57Z</time>
      </trkpt>
      <trkpt lat="48.38124" lon="-4.368">
        <ele>114.1</ele>
        <time>2020-06-08T16:15:58Z</time>
      </trkpt>
      <trkpt lat="48.38124" lon="-4.36811">
        <ele>113.8</ele>
        <time>2020-06-08T16:15:59Z</time>
      </trkpt>
      <trkpt lat="48.38124" lon="-4.36822">
        <ele>113.5</ele>
        <time>2020-06-08T16:16:00Z</time>
      </trkpt>
      <trkpt lat="48.38124" lon="-4.36834">
        <ele>113.2</ele>
        <time>2020-06-08T16:16:01Z</time>
      </trkpt>
      <trkpt lat="48.38124" lon="-4.36845">
        <ele>112.9</ele>
        <time>2020-06-08T16:16:02Z</time>
      </trkpt>
      <trkpt lat="48.38123" lon="-4.36857">
        <ele>112.6</ele>
        <time>2020-06-08T16:16:03Z</time>
      </trkpt>
      <trkpt lat="48.38124" lon="-4.36868">
        <ele>112.2</ele>
        <time>2020-06-08T16:16:04Z</time>
      </trkpt>
      <trkpt lat="48.38124" lon="-4.3688">
        <ele>111.9</ele>
        <time>2020-06-08T16:16:05Z</time>
      </trkpt>
      <trkpt lat="48.38124" lon="-4.36893">
        <ele>111.5</ele>
        <time>2020-06-08T16:16:06Z</time>
      </trkpt>
      <trkpt lat="48.38125" lon="-4.36905">
        <ele>111</ele>
        <time>2020-06-08T16:16:07Z</time>
      </trkpt>
      <trkpt lat="48.38125" lon="-4.36918">
        <ele>110.6</ele>
        <time>2020-06-08T16:16:08Z</time>
      </trkpt>
      <trkpt lat="48.38125" lon="-4.3693">
        <ele>110.1</ele>
        <time>2020-06-08T16:16:09Z</time>
      </trkpt>
      <trkpt lat="48.38126" lon="-4.36942">
        <ele>109.6</ele>
        <time>2020-06-08T16:16:10Z</time>
      </trkpt>
      <trkpt lat="48.38126" lon="-4.36954">
        <ele>109.1</ele>
        <time>2020-06-08T16:16:11Z</time>
      </trkpt>
      <trkpt lat="48.38126" lon="-4.36967">
        <ele>108.7</ele>
        <time>2020-06-08T16:16:12Z</time>
      </trkpt>
      <trkpt lat="48.38127" lon="-4.3698">
        <ele>108.3</ele>
        <time>2020-06-08T16:16:13Z</time>
      </trkpt>
      <trkpt lat="48.38129" lon="-4.36994">
        <ele>107.8</ele>
        <time>2020-06-08T16:16:14Z</time>
      </trkpt>
      <trkpt lat="48.3813" lon="-4.37008">
        <ele>107.4</ele>
        <time>2020-06-08T16:16:15Z</time>
      </trkpt>
      <trkpt lat="48.38132" lon="-4.37021">
        <ele>107</ele>
        <time>2020-06-08T16:16:16Z</time>
      </trkpt>
      <trkpt lat="48.38134" lon="-4.37035">
        <ele>106.5</ele>
        <time>2020-06-08T16:16:17Z</time>
      </trkpt>
      <trkpt lat="48.38135" lon="-4.37049">
        <ele>106.1</ele>
        <time>2020-06-08T16:16:18Z</time>
      </trkpt>
      <trkpt lat="48.38136" lon="-4.37063">
        <ele>105.6</ele>
        <time>2020-06-08T16:16:19Z</time>
      </trkpt>
      <trkpt lat="48.38137" lon="-4.37077">
        <ele>105.2</ele>
        <time>2020-06-08T16:16:20Z</time>
      </trkpt>
      <trkpt lat="48.38139" lon="-4.3709">
        <ele>104.7</ele>
        <time>2020-06-08T16:16:21Z</time>
      </trkpt>
      <trkpt lat="48.38142" lon="-4.37103">
        <ele>104.2</ele>
        <time>2020-06-08T16:16:22Z</time>
      </trkpt>
      <trkpt lat="48.38144" lon="-4.37117">
        <ele>103.7</ele>
        <time>2020-06-08T16:16:23Z</time>
      </trkpt>
      <trkpt lat="48.38145" lon="-4.37131">
        <ele>103.3</ele>
        <time>2020-06-08T16:16:24Z</time>
      </trkpt>
      <trkpt lat="48.38148" lon="-4.37144">
        <ele>102.9</ele>
        <time>2020-06-08T16:16:25Z</time>
      </trkpt>
      <trkpt lat="48.38151" lon="-4.37157">
        <ele>102.4</ele>
        <time>2020-06-08T16:16:26Z</time>
      </trkpt>
      <trkpt lat="48.38153" lon="-4.37171">
        <ele>102</ele>
        <time>2020-06-08T16:16:27Z</time>
      </trkpt>
      <trkpt lat="48.38156" lon="-4.37185">
        <ele>101.6</ele>
        <time>2020-06-08T16:16:28Z</time>
      </trkpt>
      <trkpt lat="48.38159" lon="-4.37199">
        <ele>101.3</ele>
        <time>2020-06-08T16:16:29Z</time>
      </trkpt>
      <trkpt lat="48.38162" lon="-4.37213">
        <ele>101</ele>
        <time>2020-06-08T16:16:30Z</time>
      </trkpt>
      <trkpt lat="48.38165" lon="-4.37227">
        <ele>100.7</ele>
        <time>2020-06-08T16:16:31Z</time>
      </trkpt>
      <trkpt lat="48.38169" lon="-4.37241">
        <ele>100.5</ele>
        <time>2020-06-08T16:16:32Z</time>
      </trkpt>
      <trkpt lat="48.38172" lon="-4.37255">
        <ele>100.3</ele>
        <time>2020-06-08T16:16:33Z</time>
      </trkpt>
      <trkpt lat="48.38176" lon="-4.37268">
        <ele>100.1</ele>
        <time>2020-06-08T16:16:34Z</time>
      </trkpt>
      <trkpt lat="48.3818" lon="-4.3728">
        <ele>100</ele>
        <time>2020-06-08T16:16:35Z</time>
      </trkpt>
      <trkpt lat="48.38183" lon="-4.37293">
        <ele>99.9</ele>
        <time>2020-06-08T16:16:36Z</time>
      </trkpt>
      <trkpt lat="48.38187" lon="-4.37306">
        <ele>99.8</ele>
        <time>2020-06-08T16:16:37Z</time>
      </trkpt>
      <trkpt lat="48.3819" lon="-4.37318">
        <ele>99.7</ele>
        <time>2020-06-08T16:16:38Z</time>
      </trkpt>
      <trkpt lat="48.38194" lon="-4.3733">
        <ele>99.5</ele>
        <time>2020-06-08T16:16:39Z</time>
      </trkpt>
      <trkpt lat="48.38198" lon="-4.37342">
        <ele>99.2</ele>
        <time>2020-06-08T16:16:40Z</time>
      </trkpt>
      <trkpt lat="48.38202" lon="-4.37353">
        <ele>99</ele>
        <time>2020-06-08T16:16:41Z</time>
      </trkpt>
      <trkpt lat="48.38206" lon="-4.37365">
        <ele>98.7</ele>
        <time>2020-06-08T16:16:42Z</time>
      </trkpt>
      <trkpt lat="48.3821" lon="-4.37378">
        <ele>98.4</ele>
        <time>2020-06-08T16:16:43Z</time>
      </trkpt>
      <trkpt lat="48.38214" lon="-4.3739">
        <ele>98.1</ele>
        <time>2020-06-08T16:16:44Z</time>
      </trkpt>
      <trkpt lat="48.38217" lon="-4.37403">
        <ele>97.8</ele>
        <time>2020-06-08T16:16:45Z</time>
      </trkpt>
      <trkpt lat="48.38221" lon="-4.37416">
        <ele>97.5</ele>
        <time>2020-06-08T16:16:46Z</time>
      </trkpt>
      <trkpt lat="48.38225" lon="-4.37429">
        <ele>97.1</ele>
        <time>2020-06-08T16:16:47Z</time>
      </trkpt>
      <trkpt lat="48.3823" lon="-4.37442">
        <ele>96.7</ele>
        <time>2020-06-08T16:16:48Z</time>
      </trkpt>
      <trkpt lat="48.38233" lon="-4.37455">
        <ele>96.4</ele>
        <time>2020-06-08T16:16:49Z</time>
      </trkpt>
      <trkpt lat="48.38237" lon="-4.37468">
        <ele>96.2</ele>
        <time>2020-06-08T16:16:50Z</time>
      </trkpt>
      <trkpt lat="48.3824" lon="-4.37481">
        <ele>95.9</ele>
        <time>2020-06-08T16:16:51Z</time>
      </trkpt>
      <trkpt lat="48.38244" lon="-4.37494">
        <ele>95.7</ele>
        <time>2020-06-08T16:16:52Z</time>
      </trkpt>
      <trkpt lat="48.38247" lon="-4.37506">
        <ele>95.4</ele>
        <time>2020-06-08T16:16:53Z</time>
      </trkpt>
      <trkpt lat="48.3825" lon="-4.37519">
        <ele>95.3</ele>
        <time>2020-06-08T16:16:54Z</time>
      </trkpt>
      <trkpt lat="48.38254" lon="-4.37531">
        <ele>95.1</ele>
        <time>2020-06-08T16:16:55Z</time>
      </trkpt>
      <trkpt lat="48.38257" lon="-4.37543">
        <ele>94.9</ele>
        <time>2020-06-08T16:16:56Z</time>
      </trkpt>
      <trkpt lat="48.3826" lon="-4.37554">
        <ele>94.9</ele>
        <time>2020-06-08T16:16:57Z</time>
      </trkpt>
      <trkpt lat="48.38263" lon="-4.37566">
        <ele>94.9</ele>
        <time>2020-06-08T16:16:58Z</time>
      </trkpt>
      <trkpt lat="48.38265" lon="-4.37577">
        <ele>94.9</ele>
        <time>2020-06-08T16:16:59Z</time>
      </trkpt>
      <trkpt lat="48.38267" lon="-4.37588">
        <ele>95</ele>
        <time>2020-06-08T16:17:00Z</time>
      </trkpt>
      <trkpt lat="48.3827" lon="-4.37598">
        <ele>95.1</ele>
        <time>2020-06-08T16:17:01Z</time>
      </trkpt>
      <trkpt lat="48.38272" lon="-4.37608">
        <ele>95.3</ele>
        <time>2020-06-08T16:17:02Z</time>
      </trkpt>
      <trkpt lat="48.38274" lon="-4.37618">
        <ele>95.5</ele>
        <time>2020-06-08T16:17:03Z</time>
      </trkpt>
      <trkpt lat="48.38276" lon="-4.37627">
        <ele>95.6</ele>
        <time>2020-06-08T16:17:04Z</time>
      </trkpt>
      <trkpt lat="48.38277" lon="-4.37637">
        <ele>95.8</ele>
        <time>2020-06-08T16:17:05Z</time>
      </trkpt>
      <trkpt lat="48.38278" lon="-4.37647">
        <ele>96</ele>
        <time>2020-06-08T16:17:06Z</time>
      </trkpt>
      <trkpt lat="48.38278" lon="-4.37657">
        <ele>96.2</ele>
        <time>2020-06-08T16:17:07Z</time>
      </trkpt>
      <trkpt lat="48.38278" lon="-4.37667">
        <ele>96.4</ele>
        <time>2020-06-08T16:17:08Z</time>
      </trkpt>
      <trkpt lat="48.38278" lon="-4.37676">
        <ele>96.6</ele>
        <time>2020-06-08T16:17:09Z</time>
      </trkpt>
      <trkpt lat="48.38278" lon="-4.37685">
        <ele>96.8</ele>
        <time>2020-06-08T16:17:10Z</time>
      </trkpt>
      <trkpt lat="48.38278" lon="-4.37693">
        <ele>96.9</ele>
        <time>2020-06-08T16:17:11Z</time>
      </trkpt>
      <trkpt lat="48.38279" lon="-4.37702">
        <ele>97.1</ele>
        <time>2020-06-08T16:17:12Z</time>
      </trkpt>
      <trkpt lat="48.3828" lon="-4.37709">
        <ele>97.3</ele>
        <time>2020-06-08T16:17:13Z</time>
      </trkpt>
      <trkpt lat="48.38282" lon="-4.37715">
        <ele>97.4</ele>
        <time>2020-06-08T16:17:14Z</time>
      </trkpt>
      <trkpt lat="48.38285" lon="-4.37718">
        <ele>97.6</ele>
        <time>2020-06-08T16:17:15Z</time>
      </trkpt>
      <trkpt lat="48.38289" lon="-4.37719">
        <ele>97.7</ele>
        <time>2020-06-08T16:17:16Z</time>
      </trkpt>
      <trkpt lat="48.38293" lon="-4.37719">
        <ele>98</ele>
        <time>2020-06-08T16:17:17Z</time>
      </trkpt>
      <trkpt lat="48.38296" lon="-4.3772">
        <ele>98</ele>
        <time>2020-06-08T16:17:18Z</time>
      </trkpt>
      <trkpt lat="48.38299" lon="-4.37722">
        <ele>98</ele>
        <time>2020-06-08T16:17:19Z</time>
      </trkpt>
      <trkpt lat="48.38303" lon="-4.37724">
        <ele>98.1</ele>
        <time>2020-06-08T16:17:20Z</time>
      </trkpt>
      <trkpt lat="48.38306" lon="-4.37726">
        <ele>98.1</ele>
        <time>2020-06-08T16:17:21Z</time>
      </trkpt>
      <trkpt lat="48.3831" lon="-4.37729">
        <ele>98.2</ele>
        <time>2020-06-08T16:17:22Z</time>
      </trkpt>
      <trkpt lat="48.38313" lon="-4.37734">
        <ele>98.3</ele>
        <time>2020-06-08T16:17:23Z</time>
      </trkpt>
      <trkpt lat="48.38316" lon="-4.37739">
        <ele>98.3</ele>
        <time>2020-06-08T16:17:24Z</time>
      </trkpt>
      <trkpt lat="48.38317" lon="-4.37746">
        <ele>98.4</ele>
        <time>2020-06-08T16:17:25Z</time>
      </trkpt>
      <trkpt lat="48.38318" lon="-4.37753">
        <ele>98.5</ele>
        <time>2020-06-08T16:17:26Z</time>
      </trkpt>
      <trkpt lat="48.38318" lon="-4.37761">
        <ele>98.6</ele>
        <time>2020-06-08T16:17:27Z</time>
      </trkpt>
      <trkpt lat="48.38316" lon="-4.37769">
        <ele>98.6</ele>
        <time>2020-06-08T16:17:28Z</time>
      </trkpt>
      <trkpt lat="48.38313" lon="-4.37777">
        <ele>98.6</ele>
        <time>2020-06-08T16:17:29Z</time>
      </trkpt>
      <trkpt lat="48.38309" lon="-4.37784">
        <ele>98.6</ele>
        <time>2020-06-08T16:17:30Z</time>
      </trkpt>
      <trkpt lat="48.38304" lon="-4.37792">
        <ele>98.6</ele>
        <time>2020-06-08T16:17:31Z</time>
      </trkpt>
      <trkpt lat="48.38301" lon="-4.37802">
        <ele>98.3</ele>
        <time>2020-06-08T16:17:32Z</time>
      </trkpt>
      <trkpt lat="48.38301" lon="-4.37812">
        <ele>98.1</ele>
        <time>2020-06-08T16:17:33Z</time>
      </trkpt>
      <trkpt lat="48.38302" lon="-4.37824">
        <ele>97.7</ele>
        <time>2020-06-08T16:17:34Z</time>
      </trkpt>
      <trkpt lat="48.38306" lon="-4.37835">
        <ele>97.4</ele>
        <time>2020-06-08T16:17:35Z</time>
      </trkpt>
      <trkpt lat="48.38312" lon="-4.37844">
        <ele>97</ele>
        <time>2020-06-08T16:17:36Z</time>
      </trkpt>
      <trkpt lat="48.38318" lon="-4.37852">
        <ele>96.8</ele>
        <time>2020-06-08T16:17:37Z</time>
      </trkpt>
      <trkpt lat="48.38324" lon="-4.3786">
        <ele>96.6</ele>
        <time>2020-06-08T16:17:38Z</time>
      </trkpt>
      <trkpt lat="48.38329" lon="-4.37868">
        <ele>96.4</ele>
        <time>2020-06-08T16:17:39Z</time>
      </trkpt>
      <trkpt lat="48.38334" lon="-4.37877">
        <ele>96.2</ele>
        <time>2020-06-08T16:17:40Z</time>
      </trkpt>
      <trkpt lat="48.38338" lon="-4.37887">
        <ele>96</ele>
        <time>2020-06-08T16:17:41Z</time>
      </trkpt>
      <trkpt lat="48.38343" lon="-4.37896">
        <ele>95.8</ele>
        <time>2020-06-08T16:17:42Z</time>
      </trkpt>
      <trkpt lat="48.38346" lon="-4.37906">
        <ele>95.4</ele>
        <time>2020-06-08T16:17:43Z</time>
      </trkpt>
      <trkpt lat="48.38349" lon="-4.37917">
        <ele>95.1</ele>
        <time>2020-06-08T16:17:44Z</time>
      </trkpt>
      <trkpt lat="48.3835" lon="-4.37928">
        <ele>94.8</ele>
        <time>2020-06-08T16:17:45Z</time>
      </trkpt>
      <trkpt lat="48.3835" lon="-4.3794">
        <ele>94.4</ele>
        <time>2020-06-08T16:17:46Z</time>
      </trkpt>
      <trkpt lat="48.3835" lon="-4.37951">
        <ele>94</ele>
        <time>2020-06-08T16:17:47Z</time>
      </trkpt>
      <trkpt lat="48.3835" lon="-4.37963">
        <ele>93.6</ele>
        <time>2020-06-08T16:17:48Z</time>
      </trkpt>
      <trkpt lat="48.38351" lon="-4.37973">
        <ele>93.3</ele>
        <time>2020-06-08T16:17:49Z</time>
      </trkpt>
      <trkpt lat="48.38351" lon="-4.37984">
        <ele>92.9</ele>
        <time>2020-06-08T16:17:50Z</time>
      </trkpt>
      <trkpt lat="48.38352" lon="-4.37995">
        <ele>92.5</ele>
        <time>2020-06-08T16:17:51Z</time>
      </trkpt>
      <trkpt lat="48.38352" lon="-4.38006">
        <ele>92.1</ele>
        <time>2020-06-08T16:17:52Z</time>
      </trkpt>
      <trkpt lat="48.38352" lon="-4.38017">
        <ele>91.7</ele>
        <time>2020-06-08T16:17:53Z</time>
      </trkpt>
      <trkpt lat="48.38352" lon="-4.38029">
        <ele>91.2</ele>
        <time>2020-06-08T16:17:54Z</time>
      </trkpt>
      <trkpt lat="48.38352" lon="-4.3804">
        <ele>90.8</ele>
        <time>2020-06-08T16:17:55Z</time>
      </trkpt>
      <trkpt lat="48.38353" lon="-4.38052">
        <ele>90.3</ele>
        <time>2020-06-08T16:17:56Z</time>
      </trkpt>
      <trkpt lat="48.38354" lon="-4.38063">
        <ele>89.9</ele>
        <time>2020-06-08T16:17:57Z</time>
      </trkpt>
      <trkpt lat="48.38354" lon="-4.38076">
        <ele>89.5</ele>
        <time>2020-06-08T16:17:58Z</time>
      </trkpt>
      <trkpt lat="48.38355" lon="-4.38088">
        <ele>89</ele>
        <time>2020-06-08T16:17:59Z</time>
      </trkpt>
      <trkpt lat="48.38356" lon="-4.38101">
        <ele>88.6</ele>
        <time>2020-06-08T16:18:00Z</time>
      </trkpt>
      <trkpt lat="48.38357" lon="-4.38113">
        <ele>88.2</ele>
        <time>2020-06-08T16:18:01Z</time>
      </trkpt>
      <trkpt lat="48.38358" lon="-4.38126">
        <ele>87.7</ele>
        <time>2020-06-08T16:18:02Z</time>
      </trkpt>
      <trkpt lat="48.38359" lon="-4.38138">
        <ele>87.3</ele>
        <time>2020-06-08T16:18:03Z</time>
      </trkpt>
      <trkpt lat="48.3836" lon="-4.3815">
        <ele>86.9</ele>
        <time>2020-06-08T16:18:04Z</time>
      </trkpt>
      <trkpt lat="48.3836" lon="-4.38162">
        <ele>86.5</ele>
        <time>2020-06-08T16:18:05Z</time>
      </trkpt>
      <trkpt lat="48.38361" lon="-4.38173">
        <ele>86.1</ele>
        <time>2020-06-08T16:18:06Z</time>
      </trkpt>
      <trkpt lat="48.38362" lon="-4.38185">
        <ele>85.7</ele>
        <time>2020-06-08T16:18:07Z</time>
      </trkpt>
      <trkpt lat="48.38362" lon="-4.38196">
        <ele>85.2</ele>
        <time>2020-06-08T16:18:08Z</time>
      </trkpt>
      <trkpt lat="48.38363" lon="-4.38207">
        <ele>84.8</ele>
        <time>2020-06-08T16:18:09Z</time>
      </trkpt>
      <trkpt lat="48.38364" lon="-4.38219">
        <ele>84.3</ele>
        <time>2020-06-08T16:18:10Z</time>
      </trkpt>
      <trkpt lat="48.38364" lon="-4.38231">
        <ele>83.8</ele>
        <time>2020-06-08T16:18:11Z</time>
      </trkpt>
      <trkpt lat="48.38366" lon="-4.38243">
        <ele>83.3</ele>
        <time>2020-06-08T16:18:12Z</time>
      </trkpt>
      <trkpt lat="48.38367" lon="-4.38256">
        <ele>82.9</ele>
        <time>2020-06-08T16:18:13Z</time>
      </trkpt>
      <trkpt lat="48.38368" lon="-4.38269">
        <ele>82.4</ele>
        <time>2020-06-08T16:18:14Z</time>
      </trkpt>
      <trkpt lat="48.38369" lon="-4.38282">
        <ele>81.9</ele>
        <time>2020-06-08T16:18:15Z</time>
      </trkpt>
      <trkpt lat="48.38371" lon="-4.38295">
        <ele>81.5</ele>
        <time>2020-06-08T16:18:16Z</time>
      </trkpt>
      <trkpt lat="48.38372" lon="-4.38308">
        <ele>81.1</ele>
        <time>2020-06-08T16:18:17Z</time>
      </trkpt>
      <trkpt lat="48.38374" lon="-4.38322">
        <ele>80.6</ele>
        <time>2020-06-08T16:18:18Z</time>
      </trkpt>
      <trkpt lat="48.38375" lon="-4.38336">
        <ele>80.1</ele>
        <time>2020-06-08T16:18:19Z</time>
      </trkpt>
      <trkpt lat="48.38377" lon="-4.3835">
        <ele>79.6</ele>
        <time>2020-06-08T16:18:20Z</time>
      </trkpt>
      <trkpt lat="48.38379" lon="-4.38365">
        <ele>79.1</ele>
        <time>2020-06-08T16:18:21Z</time>
      </trkpt>
      <trkpt lat="48.38381" lon="-4.3838">
        <ele>78.6</ele>
        <time>2020-06-08T16:18:22Z</time>
      </trkpt>
      <trkpt lat="48.38383" lon="-4.38395">
        <ele>78.2</ele>
        <time>2020-06-08T16:18:23Z</time>
      </trkpt>
      <trkpt lat="48.38384" lon="-4.3841">
        <ele>77.7</ele>
        <time>2020-06-08T16:18:24Z</time>
      </trkpt>
      <trkpt lat="48.38386" lon="-4.38425">
        <ele>77.2</ele>
        <time>2020-06-08T16:18:25Z</time>
      </trkpt>
      <trkpt lat="48.38387" lon="-4.38441">
        <ele>76.7</ele>
        <time>2020-06-08T16:18:26Z</time>
      </trkpt>
      <trkpt lat="48.38388" lon="-4.38456">
        <ele>76.3</ele>
        <time>2020-06-08T16:18:27Z</time>
      </trkpt>
      <trkpt lat="48.38389" lon="-4.38472">
        <ele>75.8</ele>
        <time>2020-06-08T16:18:28Z</time>
      </trkpt>
      <trkpt lat="48.3839" lon="-4.38487">
        <ele>75.3</ele>
        <time>2020-06-08T16:18:29Z</time>
      </trkpt>
      <trkpt lat="48.38391" lon="-4.38503">
        <ele>74.9</ele>
        <time>2020-06-08T16:18:30Z</time>
      </trkpt>
      <trkpt lat="48.38391" lon="-4.3852">
        <ele>74.4</ele>
        <time>2020-06-08T16:18:31Z</time>
      </trkpt>
      <trkpt lat="48.38391" lon="-4.38536">
        <ele>73.8</ele>
        <time>2020-06-08T16:18:32Z</time>
      </trkpt>
      <trkpt lat="48.38392" lon="-4.38553">
        <ele>73.3</ele>
        <time>2020-06-08T16:18:33Z</time>
      </trkpt>
      <trkpt lat="48.38391" lon="-4.38569">
        <ele>72.8</ele>
        <time>2020-06-08T16:18:34Z</time>
      </trkpt>
      <trkpt lat="48.3839" lon="-4.38586">
        <ele>72.2</ele>
        <time>2020-06-08T16:18:35Z</time>
      </trkpt>
      <trkpt lat="48.3839" lon="-4.38603">
        <ele>71.7</ele>
        <time>2020-06-08T16:18:36Z</time>
      </trkpt>
      <trkpt lat="48.38388" lon="-4.3862">
        <ele>71.1</ele>
        <time>2020-06-08T16:18:37Z</time>
      </trkpt>
      <trkpt lat="48.38387" lon="-4.38637">
        <ele>70.5</ele>
        <time>2020-06-08T16:18:38Z</time>
      </trkpt>
      <trkpt lat="48.38386" lon="-4.38654">
        <ele>69.9</ele>
        <time>2020-06-08T16:18:39Z</time>
      </trkpt>
      <trkpt lat="48.38386" lon="-4.38671">
        <ele>69.2</ele>
        <time>2020-06-08T16:18:40Z</time>
      </trkpt>
      <trkpt lat="48.38385" lon="-4.38689">
        <ele>68.6</ele>
        <time>2020-06-08T16:18:41Z</time>
      </trkpt>
      <trkpt lat="48.38384" lon="-4.38706">
        <ele>67.9</ele>
        <time>2020-06-08T16:18:42Z</time>
      </trkpt>
      <trkpt lat="48.38384" lon="-4.38724">
        <ele>67.3</ele>
        <time>2020-06-08T16:18:43Z</time>
      </trkpt>
      <trkpt lat="48.38383" lon="-4.38741">
        <ele>66.6</ele>
        <time>2020-06-08T16:18:44Z</time>
      </trkpt>
      <trkpt lat="48.38382" lon="-4.38759">
        <ele>65.9</ele>
        <time>2020-06-08T16:18:45Z</time>
      </trkpt>
      <trkpt lat="48.38381" lon="-4.38777">
        <ele>65.3</ele>
        <time>2020-06-08T16:18:46Z</time>
      </trkpt>
      <trkpt lat="48.3838" lon="-4.38795">
        <ele>64.6</ele>
        <time>2020-06-08T16:18:47Z</time>
      </trkpt>
      <trkpt lat="48.38379" lon="-4.38813">
        <ele>63.9</ele>
        <time>2020-06-08T16:18:48Z</time>
      </trkpt>
      <trkpt lat="48.38378" lon="-4.38831">
        <ele>63.2</ele>
        <time>2020-06-08T16:18:49Z</time>
      </trkpt>
      <trkpt lat="48.38377" lon="-4.3885">
        <ele>62.4</ele>
        <time>2020-06-08T16:18:50Z</time>
      </trkpt>
      <trkpt lat="48.38375" lon="-4.38868">
        <ele>61.7</ele>
        <time>2020-06-08T16:18:51Z</time>
      </trkpt>
      <trkpt lat="48.38374" lon="-4.38885">
        <ele>61.1</ele>
        <time>2020-06-08T16:18:52Z</time>
      </trkpt>
      <trkpt lat="48.38372" lon="-4.38903">
        <ele>60.4</ele>
        <time>2020-06-08T16:18:53Z</time>
      </trkpt>
      <trkpt lat="48.3837" lon="-4.38921">
        <ele>59.7</ele>
        <time>2020-06-08T16:18:54Z</time>
      </trkpt>
      <trkpt lat="48.38369" lon="-4.38938">
        <ele>59</ele>
        <time>2020-06-08T16:18:55Z</time>
      </trkpt>
      <trkpt lat="48.38368" lon="-4.38956">
        <ele>58.3</ele>
        <time>2020-06-08T16:18:56Z</time>
      </trkpt>
      <trkpt lat="48.38367" lon="-4.38973">
        <ele>57.6</ele>
        <time>2020-06-08T16:18:57Z</time>
      </trkpt>
      <trkpt lat="48.38367" lon="-4.3899">
        <ele>56.9</ele>
        <time>2020-06-08T16:18:58Z</time>
      </trkpt>
      <trkpt lat="48.38367" lon="-4.39008">
        <ele>56.3</ele>
        <time>2020-06-08T16:18:59Z</time>
      </trkpt>
      <trkpt lat="48.38367" lon="-4.39025">
        <ele>55.6</ele>
        <time>2020-06-08T16:19:00Z</time>
      </trkpt>
      <trkpt lat="48.38368" lon="-4.39043">
        <ele>54.9</ele>
        <time>2020-06-08T16:19:01Z</time>
      </trkpt>
      <trkpt lat="48.38369" lon="-4.39061">
        <ele>54.3</ele>
        <time>2020-06-08T16:19:02Z</time>
      </trkpt>
      <trkpt lat="48.3837" lon="-4.39078">
        <ele>53.6</ele>
        <time>2020-06-08T16:19:03Z</time>
      </trkpt>
      <trkpt lat="48.38371" lon="-4.39096">
        <ele>53</ele>
        <time>2020-06-08T16:19:04Z</time>
      </trkpt>
      <trkpt lat="48.38371" lon="-4.39114">
        <ele>52.5</ele>
        <time>2020-06-08T16:19:05Z</time>
      </trkpt>
      <trkpt lat="48.38371" lon="-4.39131">
        <ele>51.9</ele>
        <time>2020-06-08T16:19:06Z</time>
      </trkpt>
      <trkpt lat="48.38371" lon="-4.39149">
        <ele>51.4</ele>
        <time>2020-06-08T16:19:07Z</time>
      </trkpt>
      <trkpt lat="48.3837" lon="-4.39166">
        <ele>50.9</ele>
        <time>2020-06-08T16:19:08Z</time>
      </trkpt>
      <trkpt lat="48.38368" lon="-4.39183">
        <ele>50.4</ele>
        <time>2020-06-08T16:19:09Z</time>
      </trkpt>
      <trkpt lat="48.38367" lon="-4.392">
        <ele>49.9</ele>
        <time>2020-06-08T16:19:10Z</time>
      </trkpt>
      <trkpt lat="48.38365" lon="-4.39216">
        <ele>49.4</ele>
        <time>2020-06-08T16:19:11Z</time>
      </trkpt>
      <trkpt lat="48.38364" lon="-4.39232">
        <ele>48.8</ele>
        <time>2020-06-08T16:19:12Z</time>
      </trkpt>
      <trkpt lat="48.38362" lon="-4.39248">
        <ele>48.5</ele>
        <time>2020-06-08T16:19:13Z</time>
      </trkpt>
      <trkpt lat="48.38361" lon="-4.39264">
        <ele>48.1</ele>
        <time>2020-06-08T16:19:14Z</time>
      </trkpt>
      <trkpt lat="48.3836" lon="-4.3928">
        <ele>47.7</ele>
        <time>2020-06-08T16:19:15Z</time>
      </trkpt>
      <trkpt lat="48.38359" lon="-4.39296">
        <ele>47.3</ele>
        <time>2020-06-08T16:19:16Z</time>
      </trkpt>
      <trkpt lat="48.38358" lon="-4.39312">
        <ele>46.9</ele>
        <time>2020-06-08T16:19:17Z</time>
      </trkpt>
      <trkpt lat="48.38358" lon="-4.39328">
        <ele>46.5</ele>
        <time>2020-06-08T16:19:18Z</time>
      </trkpt>
      <trkpt lat="48.38357" lon="-4.39344">
        <ele>46.1</ele>
        <time>2020-06-08T16:19:19Z</time>
      </trkpt>
      <trkpt lat="48.38355" lon="-4.3936">
        <ele>45.8</ele>
        <time>2020-06-08T16:19:20Z</time>
      </trkpt>
      <trkpt lat="48.38354" lon="-4.39374">
        <ele>45.5</ele>
        <time>2020-06-08T16:19:21Z</time>
      </trkpt>
      <trkpt lat="48.38352" lon="-4.39388">
        <ele>45.3</ele>
        <time>2020-06-08T16:19:22Z</time>
      </trkpt>
      <trkpt lat="48.38351" lon="-4.394">
        <ele>45.1</ele>
        <time>2020-06-08T16:19:23Z</time>
      </trkpt>
      <trkpt lat="48.3835" lon="-4.3941">
        <ele>44.9</ele>
        <time>2020-06-08T16:19:24Z</time>
      </trkpt>
      <trkpt lat="48.38352" lon="-4.39419">
        <ele>44.8</ele>
        <time>2020-06-08T16:19:25Z</time>
      </trkpt>
      <trkpt lat="48.38355" lon="-4.39426">
        <ele>44.7</ele>
        <time>2020-06-08T16:19:26Z</time>
      </trkpt>
      <trkpt lat="48.3836" lon="-4.3943">
        <ele>44.7</ele>
        <time>2020-06-08T16:19:27Z</time>
      </trkpt>
      <trkpt lat="48.38366" lon="-4.39433">
        <ele>44.6</ele>
        <time>2020-06-08T16:19:28Z</time>
      </trkpt>
      <trkpt lat="48.38371" lon="-4.39438">
        <ele>44.5</ele>
        <time>2020-06-08T16:19:29Z</time>
      </trkpt>
      <trkpt lat="48.38376" lon="-4.39445">
        <ele>44.2</ele>
        <time>2020-06-08T16:19:30Z</time>
      </trkpt>
      <trkpt lat="48.38379" lon="-4.39454">
        <ele>43.8</ele>
        <time>2020-06-08T16:19:31Z</time>
      </trkpt>
      <trkpt lat="48.38379" lon="-4.39465">
        <ele>43.5</ele>
        <time>2020-06-08T16:19:32Z</time>
      </trkpt>
      <trkpt lat="48.38377" lon="-4.39475">
        <ele>43.1</ele>
        <time>2020-06-08T16:19:33Z</time>
      </trkpt>
      <trkpt lat="48.38373" lon="-4.39484">
        <ele>42.8</ele>
        <time>2020-06-08T16:19:34Z</time>
      </trkpt>
      <trkpt lat="48.38371" lon="-4.39492">
        <ele>42.4</ele>
        <time>2020-06-08T16:19:35Z</time>
      </trkpt>
      <trkpt lat="48.38368" lon="-4.395">
        <ele>42.2</ele>
        <time>2020-06-08T16:19:36Z</time>
      </trkpt>
      <trkpt lat="48.38366" lon="-4.39507">
        <ele>41.9</ele>
        <time>2020-06-08T16:19:37Z</time>
      </trkpt>
      <trkpt lat="48.38364" lon="-4.39515">
        <ele>41.6</ele>
        <time>2020-06-08T16:19:38Z</time>
      </trkpt>
      <trkpt lat="48.3836" lon="-4.39521">
        <ele>41.4</ele>
        <time>2020-06-08T16:19:39Z</time>
      </trkpt>
      <trkpt lat="48.38357" lon="-4.39527">
        <ele>41.1</ele>
        <time>2020-06-08T16:19:40Z</time>
      </trkpt>
      <trkpt lat="48.38354" lon="-4.39534">
        <ele>40.8</ele>
        <time>2020-06-08T16:19:41Z</time>
      </trkpt>
      <trkpt lat="48.38353" lon="-4.39542">
        <ele>40.6</ele>
        <time>2020-06-08T16:19:42Z</time>
      </trkpt>
      <trkpt lat="48.38352" lon="-4.39551">
        <ele>40.3</ele>
        <time>2020-06-08T16:19:43Z</time>
      </trkpt>
      <trkpt lat="48.38353" lon="-4.39561">
        <ele>40</ele>
        <time>2020-06-08T16:19:44Z</time>
      </trkpt>
      <trkpt lat="48.38355" lon="-4.3957">
        <ele>39.7</ele>
        <time>2020-06-08T16:19:45Z</time>
      </trkpt>
      <trkpt lat="48.38359" lon="-4.3958">
        <ele>39.4</ele>
        <time>2020-06-08T16:19:46Z</time>
      </trkpt>
      <trkpt lat="48.38362" lon="-4.3959">
        <ele>39.2</ele>
        <time>2020-06-08T16:19:47Z</time>
      </trkpt>
      <trkpt lat="48.38365" lon="-4.396">
        <ele>38.9</ele>
        <time>2020-06-08T16:19:48Z</time>
      </trkpt>
      <trkpt lat="48.38367" lon="-4.39611">
        <ele>38.6</ele>
        <time>2020-06-08T16:19:49Z</time>
      </trkpt>
      <trkpt lat="48.3837" lon="-4.39621">
        <ele>38.4</ele>
        <time>2020-06-08T16:19:50Z</time>
      </trkpt>
      <trkpt lat="48.38373" lon="-4.3963">
        <ele>38.3</ele>
        <time>2020-06-08T16:19:51Z</time>
      </trkpt>
      <trkpt lat="48.38377" lon="-4.39639">
        <ele>38.3</ele>
        <time>2020-06-08T16:19:52Z</time>
      </trkpt>
      <trkpt lat="48.3838" lon="-4.39647">
        <ele>38.2</ele>
        <time>2020-06-08T16:19:53Z</time>
      </trkpt>
      <trkpt lat="48.38383" lon="-4.39656">
        <ele>38.2</ele>
        <time>2020-06-08T16:19:54Z</time>
      </trkpt>
      <trkpt lat="48.38387" lon="-4.39664">
        <ele>38.2</ele>
        <time>2020-06-08T16:19:55Z</time>
      </trkpt>
      <trkpt lat="48.38391" lon="-4.39672">
        <ele>38.2</ele>
        <time>2020-06-08T16:19:56Z</time>
      </trkpt>
      <trkpt lat="48.38396" lon="-4.39678">
        <ele>38.2</ele>
        <time>2020-06-08T16:19:57Z</time>
      </trkpt>
      <trkpt lat="48.38401" lon="-4.39684">
        <ele>38.2</ele>
        <time>2020-06-08T16:19:58Z</time>
      </trkpt>
      <trkpt lat="48.38406" lon="-4.3969">
        <ele>38.2</ele>
        <time>2020-06-08T16:19:59Z</time>
      </trkpt>
      <trkpt lat="48.3841" lon="-4.39696">
        <ele>38.2</ele>
        <time>2020-06-08T16:20:00Z</time>
      </trkpt>
      <trkpt lat="48.38415" lon="-4.39701">
        <ele>38.2</ele>
        <time>2020-06-08T16:20:01Z</time>
      </trkpt>
      <trkpt lat="48.3842" lon="-4.39707">
        <ele>38.2</ele>
        <time>2020-06-08T16:20:02Z</time>
      </trkpt>
      <trkpt lat="48.38425" lon="-4.39713">
        <ele>38.2</ele>
        <time>2020-06-08T16:20:03Z</time>
      </trkpt>
      <trkpt lat="48.3843" lon="-4.39718">
        <ele>38.2</ele>
        <time>2020-06-08T16:20:04Z</time>
      </trkpt>
      <trkpt lat="48.38435" lon="-4.39722">
        <ele>38.3</ele>
        <time>2020-06-08T16:20:05Z</time>
      </trkpt>
      <trkpt lat="48.38439" lon="-4.39726">
        <ele>38.3</ele>
        <time>2020-06-08T16:20:06Z</time>
      </trkpt>
      <trkpt lat="48.38443" lon="-4.3973">
        <ele>38.3</ele>
        <time>2020-06-08T16:20:07Z</time>
      </trkpt>
      <trkpt lat="48.38448" lon="-4.39731">
        <ele>38.4</ele>
        <time>2020-06-08T16:20:08Z</time>
      </trkpt>
      <trkpt lat="48.38452" lon="-4.39733">
        <ele>38.4</ele>
        <time>2020-06-08T16:20:09Z</time>
      </trkpt>
      <trkpt lat="48.38455" lon="-4.39736">
        <ele>38.4</ele>
        <time>2020-06-08T16:20:10Z</time>
      </trkpt>
      <trkpt lat="48.38458" lon="-4.39739">
        <ele>38.5</ele>
        <time>2020-06-08T16:20:11Z</time>
      </trkpt>
      <trkpt lat="48.38461" lon="-4.39742">
        <ele>38.5</ele>
        <time>2020-06-08T16:20:12Z</time>
      </trkpt>
      <trkpt lat="48.38464" lon="-4.39744">
        <ele>38.5</ele>
        <time>2020-06-08T16:20:13Z</time>
      </trkpt>
      <trkpt lat="48.38466" lon="-4.39746">
        <ele>38.5</ele>
        <time>2020-06-08T16:20:14Z</time>
      </trkpt>
      <trkpt lat="48.38469" lon="-4.39746">
        <ele>38.6</ele>
        <time>2020-06-08T16:20:15Z</time>
      </trkpt>
      <trkpt lat="48.3847" lon="-4.39746">
        <ele>38.6</ele>
        <time>2020-06-08T16:20:16Z</time>
      </trkpt>
      <trkpt lat="48.3847" lon="-4.39745">
        <ele>38.6</ele>
        <time>2020-06-08T16:20:17Z</time>
      </trkpt>
      <trkpt lat="48.3847" lon="-4.39745">
        <ele>38.6</ele>
        <time>2020-06-08T16:20:18Z</time>
      </trkpt>
      <trkpt lat="48.3847" lon="-4.39744">
        <ele>38.6</ele>
        <time>2020-06-08T16:20:19Z</time>
      </trkpt>
      <trkpt lat="48.3847" lon="-4.39745">
        <ele>38.6</ele>
        <time>2020-06-08T16:20:20Z</time>
      </trkpt>
      <trkpt lat="48.3847" lon="-4.39746">
        <ele>38.6</ele>
        <time>2020-06-08T16:20:21Z</time>
      </trkpt>
      <trkpt lat="48.3847" lon="-4.39746">
        <ele>38.6</ele>
        <time>2020-06-08T16:20:22Z</time>
      </trkpt>
      <trkpt lat="48.3847" lon="-4.39746">
        <ele>38.6</ele>
        <time>2020-06-08T16:20:23Z</time>
      </trkpt>
      <trkpt lat="48.38471" lon="-4.39746">
        <ele>38.6</ele>
        <time>2020-06-08T16:20:24Z</time>
      </trkpt>
      <trkpt lat="48.3847" lon="-4.39746">
        <ele>38.6</ele>
        <time>2020-06-08T16:20:25Z</time>
      </trkpt>
      <trkpt lat="48.3847" lon="-4.39747">
        <ele>38.6</ele>
        <time>2020-06-08T16:20:26Z</time>
      </trkpt>
      <trkpt lat="48.3847" lon="-4.39747">
        <ele>38.6</ele>
        <time>2020-06-08T16:20:27Z</time>
      </trkpt>
      <trkpt lat="48.38477" lon="-4.39748">
        <ele>38.7</ele>
        <time>2020-06-08T16:24:14Z</time>
      </trkpt>
      <trkpt lat="48.38478" lon="-4.3975">
        <ele>38.7</ele>
        <time>2020-06-08T16:24:15Z</time>
      </trkpt>
      <trkpt lat="48.38481" lon="-4.39753">
        <ele>38.7</ele>
        <time>2020-06-08T16:24:16Z</time>
      </trkpt>
      <trkpt lat="48.38482" lon="-4.39753">
        <ele>38.7</ele>
        <time>2020-06-08T16:24:17Z</time>
      </trkpt>
      <trkpt lat="48.38483" lon="-4.39754">
        <ele>38.7</ele>
        <time>2020-06-08T16:24:18Z</time>
      </trkpt>
      <trkpt lat="48.38483" lon="-4.39755">
        <ele>38.7</ele>
        <time>2020-06-08T16:24:19Z</time>
      </trkpt>
      <trkpt lat="48.38483" lon="-4.39755">
        <ele>38.8</ele>
        <time>2020-06-08T16:24:20Z</time>
      </trkpt>
      <trkpt lat="48.38483" lon="-4.39755">
        <ele>38.8</ele>
        <time>2020-06-08T16:24:21Z</time>
      </trkpt>
      <trkpt lat="48.38483" lon="-4.39755">
        <ele>38.8</ele>
        <time>2020-06-08T16:24:22Z</time>
      </trkpt>
      <trkpt lat="48.38483" lon="-4.39755">
        <ele>38.8</ele>
        <time>2020-06-08T16:24:23Z</time>
      </trkpt>
      <trkpt lat="48.38483" lon="-4.39755">
        <ele>38.8</ele>
        <time>2020-06-08T16:24:24Z</time>
      </trkpt>
      <trkpt lat="48.38483" lon="-4.39755">
        <ele>38.8</ele>
        <time>2020-06-08T16:24:25Z</time>
      </trkpt>
      <trkpt lat="48.38483" lon="-4.39754">
        <ele>38.8</ele>
        <time>2020-06-08T16:24:26Z</time>
      </trkpt>
      <trkpt lat="48.38483" lon="-4.39754">
        <ele>38.8</ele>
        <time>2020-06-08T16:24:27Z</time>
      </trkpt>
      <trkpt lat="48.38483" lon="-4.39755">
        <ele>38.8</ele>
        <time>2020-06-08T16:24:28Z</time>
      </trkpt>
      <trkpt lat="48.38483" lon="-4.39755">
        <ele>38.8</ele>
        <time>2020-06-08T16:24:29Z</time>
      </trkpt>
      <trkpt lat="48.38486" lon="-4.39758">
        <ele>38.8</ele>
        <time>2020-06-08T16:24:35Z</time>
      </trkpt>
      <trkpt lat="48.38487" lon="-4.3976">
        <ele>38.8</ele>
        <time>2020-06-08T16:24:36Z</time>
      </trkpt>
      <trkpt lat="48.3849" lon="-4.39764">
        <ele>38.8</ele>
        <time>2020-06-08T16:24:37Z</time>
      </trkpt>
      <trkpt lat="48.38491" lon="-4.39765">
        <ele>38.8</ele>
        <time>2020-06-08T16:24:38Z</time>
      </trkpt>
      <trkpt lat="48.38493" lon="-4.39768">
        <ele>38.8</ele>
        <time>2020-06-08T16:24:39Z</time>
      </trkpt>
      <trkpt lat="48.38495" lon="-4.39771">
        <ele>38.8</ele>
        <time>2020-06-08T16:24:40Z</time>
      </trkpt>
      <trkpt lat="48.38498" lon="-4.39774">
        <ele>38.8</ele>
        <time>2020-06-08T16:24:41Z</time>
      </trkpt>
      <trkpt lat="48.38501" lon="-4.39777">
        <ele>38.8</ele>
        <time>2020-06-08T16:24:42Z</time>
      </trkpt>
      <trkpt lat="48.38504" lon="-4.39779">
        <ele>38.8</ele>
        <time>2020-06-08T16:24:43Z</time>
      </trkpt>
      <trkpt lat="48.38507" lon="-4.39782">
        <ele>38.8</ele>
        <time>2020-06-08T16:24:44Z</time>
      </trkpt>
      <trkpt lat="48.38509" lon="-4.39784">
        <ele>38.8</ele>
        <time>2020-06-08T16:24:45Z</time>
      </trkpt>
      <trkpt lat="48.38512" lon="-4.39786">
        <ele>38.7</ele>
        <time>2020-06-08T16:24:46Z</time>
      </trkpt>
      <trkpt lat="48.38515" lon="-4.39788">
        <ele>38.7</ele>
        <time>2020-06-08T16:24:47Z</time>
      </trkpt>
      <trkpt lat="48.38518" lon="-4.3979">
        <ele>38.7</ele>
        <time>2020-06-08T16:24:48Z</time>
      </trkpt>
      <trkpt lat="48.38521" lon="-4.39792">
        <ele>38.7</ele>
        <time>2020-06-08T16:24:49Z</time>
      </trkpt>
      <trkpt lat="48.38524" lon="-4.39795">
        <ele>38.7</ele>
        <time>2020-06-08T16:24:50Z</time>
      </trkpt>
      <trkpt lat="48.38528" lon="-4.39797">
        <ele>38.7</ele>
        <time>2020-06-08T16:24:51Z</time>
      </trkpt>
      <trkpt lat="48.38531" lon="-4.398">
        <ele>38.6</ele>
        <time>2020-06-08T16:24:52Z</time>
      </trkpt>
      <trkpt lat="48.38534" lon="-4.39803">
        <ele>38.6</ele>
        <time>2020-06-08T16:24:53Z</time>
      </trkpt>
      <trkpt lat="48.38537" lon="-4.39806">
        <ele>38.6</ele>
        <time>2020-06-08T16:24:54Z</time>
      </trkpt>
      <trkpt lat="48.3854" lon="-4.39808">
        <ele>38.6</ele>
        <time>2020-06-08T16:24:55Z</time>
      </trkpt>
      <trkpt lat="48.38544" lon="-4.39811">
        <ele>38.6</ele>
        <time>2020-06-08T16:24:56Z</time>
      </trkpt>
      <trkpt lat="48.38548" lon="-4.39814">
        <ele>38.6</ele>
        <time>2020-06-08T16:24:57Z</time>
      </trkpt>
      <trkpt lat="48.38552" lon="-4.39816">
        <ele>38.6</ele>
        <time>2020-06-08T16:24:58Z</time>
      </trkpt>
      <trkpt lat="48.38555" lon="-4.39819">
        <ele>38.6</ele>
        <time>2020-06-08T16:24:59Z</time>
      </trkpt>
      <trkpt lat="48.38558" lon="-4.39823">
        <ele>38.6</ele>
        <time>2020-06-08T16:25:00Z</time>
      </trkpt>
      <trkpt lat="48.38561" lon="-4.39826">
        <ele>38.6</ele>
        <time>2020-06-08T16:25:01Z</time>
      </trkpt>
      <trkpt lat="48.38564" lon="-4.39828">
        <ele>38.6</ele>
        <time>2020-06-08T16:25:02Z</time>
      </trkpt>
      <trkpt lat="48.38567" lon="-4.39831">
        <ele>38.6</ele>
        <time>2020-06-08T16:25:03Z</time>
      </trkpt>
      <trkpt lat="48.3857" lon="-4.39833">
        <ele>38.6</ele>
        <time>2020-06-08T16:25:04Z</time>
      </trkpt>
      <trkpt lat="48.38573" lon="-4.39836">
        <ele>38.6</ele>
        <time>2020-06-08T16:25:05Z</time>
      </trkpt>
      <trkpt lat="48.38576" lon="-4.39839">
        <ele>38.6</ele>
        <time>2020-06-08T16:25:06Z</time>
      </trkpt>
      <trkpt lat="48.38579" lon="-4.39842">
        <ele>38.6</ele>
        <time>2020-06-08T16:25:07Z</time>
      </trkpt>
      <trkpt lat="48.38582" lon="-4.39845">
        <ele>38.6</ele>
        <time>2020-06-08T16:25:08Z</time>
      </trkpt>
      <trkpt lat="48.38585" lon="-4.39848">
        <ele>38.6</ele>
        <time>2020-06-08T16:25:09Z</time>
      </trkpt>
      <trkpt lat="48.38588" lon="-4.39851">
        <ele>38.6</ele>
        <time>2020-06-08T16:25:10Z</time>
      </trkpt>
      <trkpt lat="48.38591" lon="-4.39853">
        <ele>38.6</ele>
        <time>2020-06-08T16:25:11Z</time>
      </trkpt>
      <trkpt lat="48.38594" lon="-4.39855">
        <ele>38.6</ele>
        <time>2020-06-08T16:25:12Z</time>
      </trkpt>
      <trkpt lat="48.38597" lon="-4.39858">
        <ele>38.6</ele>
        <time>2020-06-08T16:25:13Z</time>
      </trkpt>
      <trkpt lat="48.38598" lon="-4.39859">
        <ele>38.6</ele>
        <time>2020-06-08T16:25:14Z</time>
      </trkpt>
      <trkpt lat="48.38601" lon="-4.39862">
        <ele>38.6</ele>
        <time>2020-06-08T16:25:15Z</time>
      </trkpt>
      <trkpt lat="48.38604" lon="-4.39864">
        <ele>38.6</ele>
        <time>2020-06-08T16:25:16Z</time>
      </trkpt>
      <trkpt lat="48.38607" lon="-4.39866">
        <ele>38.6</ele>
        <time>2020-06-08T16:25:17Z</time>
      </trkpt>
      <trkpt lat="48.3861" lon="-4.39868">
        <ele>38.6</ele>
        <time>2020-06-08T16:25:18Z</time>
      </trkpt>
      <trkpt lat="48.38612" lon="-4.39869">
        <ele>38.6</ele>
        <time>2020-06-08T16:25:19Z</time>
      </trkpt>
      <trkpt lat="48.38614" lon="-4.39871">
        <ele>38.6</ele>
        <time>2020-06-08T16:25:20Z</time>
      </trkpt>
      <trkpt lat="48.38618" lon="-4.39873">
        <ele>38.6</ele>
        <time>2020-06-08T16:25:21Z</time>
      </trkpt>
      <trkpt lat="48.38619" lon="-4.39874">
        <ele>38.6</ele>
        <time>2020-06-08T16:25:22Z</time>
      </trkpt>
      <trkpt lat="48.38623" lon="-4.39876">
        <ele>38.6</ele>
        <time>2020-06-08T16:25:23Z</time>
      </trkpt>
      <trkpt lat="48.38624" lon="-4.39877">
        <ele>38.6</ele>
        <time>2020-06-08T16:25:24Z</time>
      </trkpt>
      <trkpt lat="48.38627" lon="-4.39879">
        <ele>38.6</ele>
        <time>2020-06-08T16:25:25Z</time>
      </trkpt>
      <trkpt lat="48.3863" lon="-4.39881">
        <ele>38.6</ele>
        <time>2020-06-08T16:25:26Z</time>
      </trkpt>
      <trkpt lat="48.38633" lon="-4.39884">
        <ele>38.6</ele>
        <time>2020-06-08T16:25:27Z</time>
      </trkpt>
      <trkpt lat="48.38636" lon="-4.39887">
        <ele>38.6</ele>
        <time>2020-06-08T16:25:28Z</time>
      </trkpt>
      <trkpt lat="48.38639" lon="-4.39889">
        <ele>38.6</ele>
        <time>2020-06-08T16:25:29Z</time>
      </trkpt>
      <trkpt lat="48.38642" lon="-4.39889">
        <ele>38.6</ele>
        <time>2020-06-08T16:25:30Z</time>
      </trkpt>
      <trkpt lat="48.38645" lon="-4.39891">
        <ele>38.6</ele>
        <time>2020-06-08T16:25:31Z</time>
      </trkpt>
      <trkpt lat="48.38648" lon="-4.39895">
        <ele>38.6</ele>
        <time>2020-06-08T16:25:32Z</time>
      </trkpt>
      <trkpt lat="48.38649" lon="-4.39897">
        <ele>38.6</ele>
        <time>2020-06-08T16:25:33Z</time>
      </trkpt>
      <trkpt lat="48.38651" lon="-4.39899">
        <ele>38.6</ele>
        <time>2020-06-08T16:25:34Z</time>
      </trkpt>
      <trkpt lat="48.38655" lon="-4.39901">
        <ele>38.6</ele>
        <time>2020-06-08T16:25:35Z</time>
      </trkpt>
      <trkpt lat="48.38656" lon="-4.39901">
        <ele>38.6</ele>
        <time>2020-06-08T16:25:36Z</time>
      </trkpt>
      <trkpt lat="48.38658" lon="-4.39902">
        <ele>38.6</ele>
        <time>2020-06-08T16:25:37Z</time>
      </trkpt>
      <trkpt lat="48.38659" lon="-4.39903">
        <ele>38.6</ele>
        <time>2020-06-08T16:25:38Z</time>
      </trkpt>
      <trkpt lat="48.38659" lon="-4.39904">
        <ele>38.6</ele>
        <time>2020-06-08T16:25:39Z</time>
      </trkpt>
      <trkpt lat="48.3866" lon="-4.39904">
        <ele>38.6</ele>
        <time>2020-06-08T16:25:40Z</time>
      </trkpt>
      <trkpt lat="48.3866" lon="-4.39905">
        <ele>38.6</ele>
        <time>2020-06-08T16:25:41Z</time>
      </trkpt>
      <trkpt lat="48.3866" lon="-4.39905">
        <ele>38.6</ele>
        <time>2020-06-08T16:25:42Z</time>
      </trkpt>
      <trkpt lat="48.3866" lon="-4.39905">
        <ele>38.6</ele>
        <time>2020-06-08T16:25:43Z</time>
      </trkpt>
      <trkpt lat="48.38661" lon="-4.39905">
        <ele>38.6</ele>
        <time>2020-06-08T16:25:44Z</time>
      </trkpt>
      <trkpt lat="48.38661" lon="-4.39905">
        <ele>38.6</ele>
        <time>2020-06-08T16:25:45Z</time>
      </trkpt>
      <trkpt lat="48.38661" lon="-4.39905">
        <ele>38.6</ele>
        <time>2020-06-08T16:25:46Z</time>
      </trkpt>
      <trkpt lat="48.38661" lon="-4.39905">
        <ele>38.6</ele>
        <time>2020-06-08T16:25:47Z</time>
      </trkpt>
      <trkpt lat="48.38662" lon="-4.39906">
        <ele>38.6</ele>
        <time>2020-06-08T16:25:48Z</time>
      </trkpt>
      <trkpt lat="48.38662" lon="-4.39906">
        <ele>38.6</ele>
        <time>2020-06-08T16:25:49Z</time>
      </trkpt>
      <trkpt lat="48.38662" lon="-4.39906">
        <ele>38.6</ele>
        <time>2020-06-08T16:25:50Z</time>
      </trkpt>
      <trkpt lat="48.38662" lon="-4.39906">
        <ele>38.6</ele>
        <time>2020-06-08T16:25:51Z</time>
      </trkpt>
      <trkpt lat="48.38663" lon="-4.39906">
        <ele>38.6</ele>
        <time>2020-06-08T16:25:52Z</time>
      </trkpt>
      <trkpt lat="48.38663" lon="-4.39906">
        <ele>38.6</ele>
        <time>2020-06-08T16:25:53Z</time>
      </trkpt>
      <trkpt lat="48.38663" lon="-4.39906">
        <ele>38.6</ele>
        <time>2020-06-08T16:25:54Z</time>
      </trkpt>
      <trkpt lat="48.38663" lon="-4.39907">
        <ele>38.6</ele>
        <time>2020-06-08T16:25:55Z</time>
      </trkpt>
      <trkpt lat="48.38664" lon="-4.39907">
        <ele>38.6</ele>
        <time>2020-06-08T16:25:56Z</time>
      </trkpt>
      <trkpt lat="48.38664" lon="-4.39907">
        <ele>38.6</ele>
        <time>2020-06-08T16:25:57Z</time>
      </trkpt>
      <trkpt lat="48.38664" lon="-4.39907">
        <ele>38.6</ele>
        <time>2020-06-08T16:25:58Z</time>
      </trkpt>
      <trkpt lat="48.38664" lon="-4.39907">
        <ele>38.6</ele>
        <time>2020-06-08T16:25:59Z</time>
      </trkpt>
      <trkpt lat="48.38665" lon="-4.39907">
        <ele>38.6</ele>
        <time>2020-06-08T16:26:00Z</time>
      </trkpt>
      <trkpt lat="48.38665" lon="-4.39908">
        <ele>38.6</ele>
        <time>2020-06-08T16:26:01Z</time>
      </trkpt>
      <trkpt lat="48.38665" lon="-4.39908">
        <ele>38.6</ele>
        <time>2020-06-08T16:26:02Z</time>
      </trkpt>
      <trkpt lat="48.38666" lon="-4.39908">
        <ele>38.6</ele>
        <time>2020-06-08T16:26:20Z</time>
      </trkpt>
      <trkpt lat="48.38666" lon="-4.39908">
        <ele>38.6</ele>
        <time>2020-06-08T16:26:21Z</time>
      </trkpt>
      <trkpt lat="48.38666" lon="-4.39908">
        <ele>38.6</ele>
        <time>2020-06-08T16:26:22Z</time>
      </trkpt>
      <trkpt lat="48.38669" lon="-4.39911">
        <ele>38.6</ele>
        <time>2020-06-08T16:26:23Z</time>
      </trkpt>
      <trkpt lat="48.3867" lon="-4.39912">
        <ele>38.6</ele>
        <time>2020-06-08T16:26:24Z</time>
      </trkpt>
      <trkpt lat="48.38673" lon="-4.39916">
        <ele>38.6</ele>
        <time>2020-06-08T16:26:25Z</time>
      </trkpt>
      <trkpt lat="48.38675" lon="-4.39918">
        <ele>38.6</ele>
        <time>2020-06-08T16:26:26Z</time>
      </trkpt>
      <trkpt lat="48.38677" lon="-4.39921">
        <ele>38.6</ele>
        <time>2020-06-08T16:26:27Z</time>
      </trkpt>
      <trkpt lat="48.3868" lon="-4.39923">
        <ele>38.6</ele>
        <time>2020-06-08T16:26:28Z</time>
      </trkpt>
      <trkpt lat="48.38683" lon="-4.39926">
        <ele>38.6</ele>
        <time>2020-06-08T16:26:29Z</time>
      </trkpt>
      <trkpt lat="48.38685" lon="-4.39929">
        <ele>38.6</ele>
        <time>2020-06-08T16:26:30Z</time>
      </trkpt>
      <trkpt lat="48.38688" lon="-4.39931">
        <ele>38.6</ele>
        <time>2020-06-08T16:26:31Z</time>
      </trkpt>
      <trkpt lat="48.38691" lon="-4.39934">
        <ele>38.6</ele>
        <time>2020-06-08T16:26:32Z</time>
      </trkpt>
      <trkpt lat="48.38694" lon="-4.39937">
        <ele>38.7</ele>
        <time>2020-06-08T16:26:33Z</time>
      </trkpt>
      <trkpt lat="48.38698" lon="-4.39939">
        <ele>38.7</ele>
        <time>2020-06-08T16:26:34Z</time>
      </trkpt>
      <trkpt lat="48.38701" lon="-4.39941">
        <ele>38.7</ele>
        <time>2020-06-08T16:26:35Z</time>
      </trkpt>
      <trkpt lat="48.38703" lon="-4.39944">
        <ele>38.7</ele>
        <time>2020-06-08T16:26:36Z</time>
      </trkpt>
      <trkpt lat="48.38706" lon="-4.39946">
        <ele>38.7</ele>
        <time>2020-06-08T16:26:37Z</time>
      </trkpt>
      <trkpt lat="48.38709" lon="-4.39949">
        <ele>38.7</ele>
        <time>2020-06-08T16:26:38Z</time>
      </trkpt>
      <trkpt lat="48.38711" lon="-4.39951">
        <ele>38.7</ele>
        <time>2020-06-08T16:26:39Z</time>
      </trkpt>
      <trkpt lat="48.38714" lon="-4.39953">
        <ele>38.7</ele>
        <time>2020-06-08T16:26:40Z</time>
      </trkpt>
      <trkpt lat="48.38717" lon="-4.39956">
        <ele>38.7</ele>
        <time>2020-06-08T16:26:41Z</time>
      </trkpt>
      <trkpt lat="48.3872" lon="-4.39959">
        <ele>38.7</ele>
        <time>2020-06-08T16:26:42Z</time>
      </trkpt>
      <trkpt lat="48.38724" lon="-4.39961">
        <ele>38.7</ele>
        <time>2020-06-08T16:26:43Z</time>
      </trkpt>
      <trkpt lat="48.38727" lon="-4.39964">
        <ele>38.7</ele>
        <time>2020-06-08T16:26:44Z</time>
      </trkpt>
      <trkpt lat="48.3873" lon="-4.39967">
        <ele>38.7</ele>
        <time>2020-06-08T16:26:45Z</time>
      </trkpt>
      <trkpt lat="48.38733" lon="-4.3997">
        <ele>38.7</ele>
        <time>2020-06-08T16:26:46Z</time>
      </trkpt>
      <trkpt lat="48.38737" lon="-4.39972">
        <ele>38.7</ele>
        <time>2020-06-08T16:26:47Z</time>
      </trkpt>
      <trkpt lat="48.3874" lon="-4.39974">
        <ele>38.7</ele>
        <time>2020-06-08T16:26:48Z</time>
      </trkpt>
      <trkpt lat="48.38744" lon="-4.39977">
        <ele>38.7</ele>
        <time>2020-06-08T16:26:49Z</time>
      </trkpt>
      <trkpt lat="48.38745" lon="-4.39978">
        <ele>38.7</ele>
        <time>2020-06-08T16:26:50Z</time>
      </trkpt>
      <trkpt lat="48.38748" lon="-4.3998">
        <ele>38.7</ele>
        <time>2020-06-08T16:26:51Z</time>
      </trkpt>
      <trkpt lat="48.38751" lon="-4.39982">
        <ele>38.7</ele>
        <time>2020-06-08T16:26:52Z</time>
      </trkpt>
      <trkpt lat="48.38755" lon="-4.39984">
        <ele>38.7</ele>
        <time>2020-06-08T16:26:53Z</time>
      </trkpt>
      <trkpt lat="48.38757" lon="-4.39986">
        <ele>38.7</ele>
        <time>2020-06-08T16:26:54Z</time>
      </trkpt>
      <trkpt lat="48.3876" lon="-4.39987">
        <ele>38.7</ele>
        <time>2020-06-08T16:26:55Z</time>
      </trkpt>
      <trkpt lat="48.38763" lon="-4.3999">
        <ele>38.7</ele>
        <time>2020-06-08T16:26:56Z</time>
      </trkpt>
      <trkpt lat="48.38765" lon="-4.39991">
        <ele>38.7</ele>
        <time>2020-06-08T16:26:57Z</time>
      </trkpt>
      <trkpt lat="48.38767" lon="-4.39994">
        <ele>38.7</ele>
        <time>2020-06-08T16:26:58Z</time>
      </trkpt>
      <trkpt lat="48.3877" lon="-4.39996">
        <ele>38.7</ele>
        <time>2020-06-08T16:26:59Z</time>
      </trkpt>
      <trkpt lat="48.38774" lon="-4.39999">
        <ele>38.6</ele>
        <time>2020-06-08T16:27:00Z</time>
      </trkpt>
      <trkpt lat="48.38776" lon="-4.40001">
        <ele>38.6</ele>
        <time>2020-06-08T16:27:01Z</time>
      </trkpt>
      <trkpt lat="48.38779" lon="-4.40005">
        <ele>38.6</ele>
        <time>2020-06-08T16:27:02Z</time>
      </trkpt>
      <trkpt lat="48.3878" lon="-4.40006">
        <ele>38.6</ele>
        <time>2020-06-08T16:27:03Z</time>
      </trkpt>
      <trkpt lat="48.38782" lon="-4.40009">
        <ele>38.6</ele>
        <time>2020-06-08T16:27:04Z</time>
      </trkpt>
      <trkpt lat="48.38785" lon="-4.40012">
        <ele>38.6</ele>
        <time>2020-06-08T16:27:05Z</time>
      </trkpt>
      <trkpt lat="48.38788" lon="-4.40014">
        <ele>38.6</ele>
        <time>2020-06-08T16:27:06Z</time>
      </trkpt>
      <trkpt lat="48.38791" lon="-4.40016">
        <ele>38.6</ele>
        <time>2020-06-08T16:27:07Z</time>
      </trkpt>
      <trkpt lat="48.38793" lon="-4.40018">
        <ele>38.6</ele>
        <time>2020-06-08T16:27:08Z</time>
      </trkpt>
      <trkpt lat="48.38796" lon="-4.4002">
        <ele>38.6</ele>
        <time>2020-06-08T16:27:09Z</time>
      </trkpt>
      <trkpt lat="48.38797" lon="-4.40022">
        <ele>38.6</ele>
        <time>2020-06-08T16:27:10Z</time>
      </trkpt>
      <trkpt lat="48.38799" lon="-4.40025">
        <ele>38.6</ele>
        <time>2020-06-08T16:27:11Z</time>
      </trkpt>
      <trkpt lat="48.38802" lon="-4.40028">
        <ele>38.6</ele>
        <time>2020-06-08T16:27:12Z</time>
      </trkpt>
      <trkpt lat="48.38803" lon="-4.40029">
        <ele>38.6</ele>
        <time>2020-06-08T16:27:13Z</time>
      </trkpt>
      <trkpt lat="48.38806" lon="-4.40032">
        <ele>38.6</ele>
        <time>2020-06-08T16:27:14Z</time>
      </trkpt>
      <trkpt lat="48.38807" lon="-4.40033">
        <ele>38.6</ele>
        <time>2020-06-08T16:27:15Z</time>
      </trkpt>
      <trkpt lat="48.38809" lon="-4.40035">
        <ele>38.6</ele>
        <time>2020-06-08T16:27:16Z</time>
      </trkpt>
      <trkpt lat="48.38813" lon="-4.40036">
        <ele>38.6</ele>
        <time>2020-06-08T16:27:17Z</time>
      </trkpt>
      <trkpt lat="48.38815" lon="-4.40037">
        <ele>38.6</ele>
        <time>2020-06-08T16:27:18Z</time>
      </trkpt>
      <trkpt lat="48.38818" lon="-4.40037">
        <ele>38.6</ele>
        <time>2020-06-08T16:27:19Z</time>
      </trkpt>
      <trkpt lat="48.38821" lon="-4.40038">
        <ele>38.6</ele>
        <time>2020-06-08T16:27:20Z</time>
      </trkpt>
      <trkpt lat="48.38822" lon="-4.40038">
        <ele>38.6</ele>
        <time>2020-06-08T16:27:21Z</time>
      </trkpt>
      <trkpt lat="48.38824" lon="-4.40041">
        <ele>38.6</ele>
        <time>2020-06-08T16:27:22Z</time>
      </trkpt>
      <trkpt lat="48.38825" lon="-4.40042">
        <ele>38.6</ele>
        <time>2020-06-08T16:27:23Z</time>
      </trkpt>
      <trkpt lat="48.38829" lon="-4.40045">
        <ele>38.6</ele>
        <time>2020-06-08T16:27:24Z</time>
      </trkpt>
      <trkpt lat="48.3883" lon="-4.40046">
        <ele>38.6</ele>
        <time>2020-06-08T16:27:25Z</time>
      </trkpt>
      <trkpt lat="48.38833" lon="-4.40049">
        <ele>38.7</ele>
        <time>2020-06-08T16:27:26Z</time>
      </trkpt>
      <trkpt lat="48.38834" lon="-4.40049">
        <ele>38.7</ele>
        <time>2020-06-08T16:27:27Z</time>
      </trkpt>
      <trkpt lat="48.38837" lon="-4.40052">
        <ele>38.7</ele>
        <time>2020-06-08T16:27:28Z</time>
      </trkpt>
      <trkpt lat="48.38839" lon="-4.40054">
        <ele>38.7</ele>
        <time>2020-06-08T16:27:29Z</time>
      </trkpt>
      <trkpt lat="48.38843" lon="-4.40057">
        <ele>38.7</ele>
        <time>2020-06-08T16:27:30Z</time>
      </trkpt>
      <trkpt lat="48.38845" lon="-4.40059">
        <ele>38.7</ele>
        <time>2020-06-08T16:27:31Z</time>
      </trkpt>
      <trkpt lat="48.38848" lon="-4.40061">
        <ele>38.7</ele>
        <time>2020-06-08T16:27:32Z</time>
      </trkpt>
      <trkpt lat="48.38849" lon="-4.40061">
        <ele>38.7</ele>
        <time>2020-06-08T16:27:33Z</time>
      </trkpt>
      <trkpt lat="48.38852" lon="-4.40064">
        <ele>38.7</ele>
        <time>2020-06-08T16:27:34Z</time>
      </trkpt>
      <trkpt lat="48.38855" lon="-4.40066">
        <ele>38.6</ele>
        <time>2020-06-08T16:27:35Z</time>
      </trkpt>
      <trkpt lat="48.38857" lon="-4.40069">
        <ele>38.6</ele>
        <time>2020-06-08T16:27:36Z</time>
      </trkpt>
      <trkpt lat="48.38859" lon="-4.40073">
        <ele>38.6</ele>
        <time>2020-06-08T16:27:37Z</time>
      </trkpt>
      <trkpt lat="48.38862" lon="-4.40078">
        <ele>38.6</ele>
        <time>2020-06-08T16:27:38Z</time>
      </trkpt>
      <trkpt lat="48.38863" lon="-4.40079">
        <ele>38.6</ele>
        <time>2020-06-08T16:27:39Z</time>
      </trkpt>
      <trkpt lat="48.38866" lon="-4.40082">
        <ele>38.6</ele>
        <time>2020-06-08T16:27:40Z</time>
      </trkpt>
      <trkpt lat="48.3887" lon="-4.40084">
        <ele>38.6</ele>
        <time>2020-06-08T16:27:41Z</time>
      </trkpt>
      <trkpt lat="48.38873" lon="-4.40086">
        <ele>38.6</ele>
        <time>2020-06-08T16:27:42Z</time>
      </trkpt>
      <trkpt lat="48.38876" lon="-4.40088">
        <ele>38.6</ele>
        <time>2020-06-08T16:27:43Z</time>
      </trkpt>
      <trkpt lat="48.38878" lon="-4.4009">
        <ele>38.6</ele>
        <time>2020-06-08T16:27:44Z</time>
      </trkpt>
      <trkpt lat="48.38881" lon="-4.40092">
        <ele>38.6</ele>
        <time>2020-06-08T16:27:45Z</time>
      </trkpt>
      <trkpt lat="48.38884" lon="-4.40095">
        <ele>38.6</ele>
        <time>2020-06-08T16:27:46Z</time>
      </trkpt>
      <trkpt lat="48.38887" lon="-4.40097">
        <ele>38.6</ele>
        <time>2020-06-08T16:27:47Z</time>
      </trkpt>
      <trkpt lat="48.3889" lon="-4.40099">
        <ele>38.6</ele>
        <time>2020-06-08T16:27:48Z</time>
      </trkpt>
      <trkpt lat="48.38893" lon="-4.40102">
        <ele>38.6</ele>
        <time>2020-06-08T16:27:49Z</time>
      </trkpt>
      <trkpt lat="48.38896" lon="-4.40105">
        <ele>38.6</ele>
        <time>2020-06-08T16:27:50Z</time>
      </trkpt>
      <trkpt lat="48.389" lon="-4.40109">
        <ele>38.6</ele>
        <time>2020-06-08T16:27:51Z</time>
      </trkpt>
      <trkpt lat="48.38902" lon="-4.40111">
        <ele>38.6</ele>
        <time>2020-06-08T16:27:52Z</time>
      </trkpt>
      <trkpt lat="48.38906" lon="-4.40114">
        <ele>38.6</ele>
        <time>2020-06-08T16:27:53Z</time>
      </trkpt>
      <trkpt lat="48.38907" lon="-4.40115">
        <ele>38.6</ele>
        <time>2020-06-08T16:27:54Z</time>
      </trkpt>
      <trkpt lat="48.3891" lon="-4.40118">
        <ele>38.5</ele>
        <time>2020-06-08T16:27:55Z</time>
      </trkpt>
      <trkpt lat="48.38913" lon="-4.40119">
        <ele>38.5</ele>
        <time>2020-06-08T16:27:56Z</time>
      </trkpt>
      <trkpt lat="48.38916" lon="-4.4012">
        <ele>38.5</ele>
        <time>2020-06-08T16:27:57Z</time>
      </trkpt>
      <trkpt lat="48.38916" lon="-4.4012">
        <ele>38.5</ele>
        <time>2020-06-08T16:27:58Z</time>
      </trkpt>
      <trkpt lat="48.38917" lon="-4.4012">
        <ele>38.5</ele>
        <time>2020-06-08T16:27:59Z</time>
      </trkpt>
      <trkpt lat="48.38917" lon="-4.40121">
        <ele>38.5</ele>
        <time>2020-06-08T16:28:00Z</time>
      </trkpt>
      <trkpt lat="48.38917" lon="-4.4012">
        <ele>38.5</ele>
        <time>2020-06-08T16:28:01Z</time>
      </trkpt>
      <trkpt lat="48.38916" lon="-4.40118">
        <ele>38.5</ele>
        <time>2020-06-08T16:28:02Z</time>
      </trkpt>
      <trkpt lat="48.38916" lon="-4.40118">
        <ele>38.5</ele>
        <time>2020-06-08T16:28:03Z</time>
      </trkpt>
      <trkpt lat="48.38916" lon="-4.40117">
        <ele>38.5</ele>
        <time>2020-06-08T16:28:04Z</time>
      </trkpt>
      <trkpt lat="48.38916" lon="-4.40117">
        <ele>38.5</ele>
        <time>2020-06-08T16:28:05Z</time>
      </trkpt>
      <trkpt lat="48.38916" lon="-4.40117">
        <ele>38.5</ele>
        <time>2020-06-08T16:28:06Z</time>
      </trkpt>
      <trkpt lat="48.38916" lon="-4.40117">
        <ele>38.5</ele>
        <time>2020-06-08T16:28:07Z</time>
      </trkpt>
      <trkpt lat="48.38916" lon="-4.40117">
        <ele>38.5</ele>
        <time>2020-06-08T16:28:08Z</time>
      </trkpt>
      <trkpt lat="48.38916" lon="-4.40117">
        <ele>38.5</ele>
        <time>2020-06-08T16:28:09Z</time>
      </trkpt>
      <trkpt lat="48.38915" lon="-4.40117">
        <ele>38.5</ele>
        <time>2020-06-08T16:28:10Z</time>
      </trkpt>
      <trkpt lat="48.38912" lon="-4.40103">
        <ele>38.5</ele>
        <time>2020-06-08T16:28:48Z</time>
      </trkpt>
      <trkpt lat="48.38912" lon="-4.40101">
        <ele>38.5</ele>
        <time>2020-06-08T16:28:49Z</time>
      </trkpt>
      <trkpt lat="48.38911" lon="-4.401">
        <ele>38.5</ele>
        <time>2020-06-08T16:28:50Z</time>
      </trkpt>
      <trkpt lat="48.3891" lon="-4.40098">
        <ele>38.5</ele>
        <time>2020-06-08T16:28:51Z</time>
      </trkpt>
      <trkpt lat="48.38909" lon="-4.40098">
        <ele>38.4</ele>
        <time>2020-06-08T16:28:52Z</time>
      </trkpt>
      <trkpt lat="48.38908" lon="-4.40097">
        <ele>38.4</ele>
        <time>2020-06-08T16:28:53Z</time>
      </trkpt>
      <trkpt lat="48.38907" lon="-4.40097">
        <ele>38.4</ele>
        <time>2020-06-08T16:28:54Z</time>
      </trkpt>
      <trkpt lat="48.38907" lon="-4.40097">
        <ele>38.4</ele>
        <time>2020-06-08T16:28:55Z</time>
      </trkpt>
      <trkpt lat="48.38905" lon="-4.40095">
        <ele>38.4</ele>
        <time>2020-06-08T16:28:56Z</time>
      </trkpt>
      <trkpt lat="48.38904" lon="-4.40095">
        <ele>38.4</ele>
        <time>2020-06-08T16:28:57Z</time>
      </trkpt>
      <trkpt lat="48.38902" lon="-4.40094">
        <ele>38.4</ele>
        <time>2020-06-08T16:28:58Z</time>
      </trkpt>
      <trkpt lat="48.38901" lon="-4.40094">
        <ele>38.4</ele>
        <time>2020-06-08T16:28:59Z</time>
      </trkpt>
      <trkpt lat="48.38899" lon="-4.40093">
        <ele>38.4</ele>
        <time>2020-06-08T16:29:00Z</time>
      </trkpt>
      <trkpt lat="48.38898" lon="-4.40093">
        <ele>38.4</ele>
        <time>2020-06-08T16:29:01Z</time>
      </trkpt>
      <trkpt lat="48.38897" lon="-4.40092">
        <ele>38.4</ele>
        <time>2020-06-08T16:29:02Z</time>
      </trkpt>
      <trkpt lat="48.38897" lon="-4.40093">
        <ele>38.4</ele>
        <time>2020-06-08T16:29:03Z</time>
      </trkpt>
      <trkpt lat="48.38897" lon="-4.40094">
        <ele>38.4</ele>
        <time>2020-06-08T16:29:04Z</time>
      </trkpt>
      <trkpt lat="48.38897" lon="-4.40094">
        <ele>38.4</ele>
        <time>2020-06-08T16:29:05Z</time>
      </trkpt>
      <trkpt lat="48.38897" lon="-4.40095">
        <ele>38.4</ele>
        <time>2020-06-08T16:29:06Z</time>
      </trkpt>
      <trkpt lat="48.38897" lon="-4.40096">
        <ele>38.4</ele>
        <time>2020-06-08T16:29:07Z</time>
      </trkpt>
      <trkpt lat="48.38897" lon="-4.40096">
        <ele>38.4</ele>
        <time>2020-06-08T16:29:08Z</time>
      </trkpt>
      <trkpt lat="48.38898" lon="-4.40096">
        <ele>38.4</ele>
        <time>2020-06-08T16:29:09Z</time>
      </trkpt>
      <trkpt lat="48.38898" lon="-4.40097">
        <ele>38.4</ele>
        <time>2020-06-08T16:29:10Z</time>
      </trkpt>
      <trkpt lat="48.38898" lon="-4.40098">
        <ele>38.4</ele>
        <time>2020-06-08T16:29:11Z</time>
      </trkpt>
      <trkpt lat="48.38899" lon="-4.40099">
        <ele>38.4</ele>
        <time>2020-06-08T16:29:12Z</time>
      </trkpt>
      <trkpt lat="48.38899" lon="-4.40099">
        <ele>38.4</ele>
        <time>2020-06-08T16:29:13Z</time>
      </trkpt>
      <trkpt lat="48.38899" lon="-4.40099">
        <ele>38.4</ele>
        <time>2020-06-08T16:29:14Z</time>
      </trkpt>
      <trkpt lat="48.389" lon="-4.40101">
        <ele>38.4</ele>
        <time>2020-06-08T16:29:15Z</time>
      </trkpt>
      <trkpt lat="48.389" lon="-4.40103">
        <ele>38.4</ele>
        <time>2020-06-08T16:29:16Z</time>
      </trkpt>
      <trkpt lat="48.38901" lon="-4.40104">
        <ele>38.4</ele>
        <time>2020-06-08T16:29:17Z</time>
      </trkpt>
      <trkpt lat="48.38902" lon="-4.40105">
        <ele>38.3</ele>
        <time>2020-06-08T16:29:18Z</time>
      </trkpt>
      <trkpt lat="48.38902" lon="-4.40106">
        <ele>38.3</ele>
        <time>2020-06-08T16:29:19Z</time>
      </trkpt>
      <trkpt lat="48.38903" lon="-4.40106">
        <ele>38.3</ele>
        <time>2020-06-08T16:29:20Z</time>
      </trkpt>
      <trkpt lat="48.38903" lon="-4.40107">
        <ele>38.3</ele>
        <time>2020-06-08T16:29:21Z</time>
      </trkpt>
      <trkpt lat="48.38904" lon="-4.40107">
        <ele>38.3</ele>
        <time>2020-06-08T16:29:22Z</time>
      </trkpt>
      <trkpt lat="48.38904" lon="-4.40107">
        <ele>38.3</ele>
        <time>2020-06-08T16:29:23Z</time>
      </trkpt>
      <trkpt lat="48.38918" lon="-4.40117">
        <ele>38.2</ele>
        <time>2020-06-08T16:30:17Z</time>
      </trkpt>
      <trkpt lat="48.38918" lon="-4.40117">
        <ele>38.2</ele>
        <time>2020-06-08T16:30:18Z</time>
      </trkpt>
      <trkpt lat="48.38918" lon="-4.40117">
        <ele>38.2</ele>
        <time>2020-06-08T16:30:19Z</time>
      </trkpt>
      <trkpt lat="48.38918" lon="-4.40117">
        <ele>38.2</ele>
        <time>2020-06-08T16:30:20Z</time>
      </trkpt>
      <trkpt lat="48.38918" lon="-4.40116">
        <ele>38.2</ele>
        <time>2020-06-08T16:30:21Z</time>
      </trkpt>
      <trkpt lat="48.38918" lon="-4.40116">
        <ele>38.2</ele>
        <time>2020-06-08T16:30:22Z</time>
      </trkpt>
      <trkpt lat="48.38918" lon="-4.40117">
        <ele>38.2</ele>
        <time>2020-06-08T16:30:23Z</time>
      </trkpt>
      <trkpt lat="48.38919" lon="-4.40117">
        <ele>38.2</ele>
        <time>2020-06-08T16:30:24Z</time>
      </trkpt>
      <trkpt lat="48.38919" lon="-4.40117">
        <ele>38.2</ele>
        <time>2020-06-08T16:30:25Z</time>
      </trkpt>
      <trkpt lat="48.38919" lon="-4.40117">
        <ele>38.2</ele>
        <time>2020-06-08T16:30:26Z</time>
      </trkpt>
      <trkpt lat="48.38919" lon="-4.40117">
        <ele>38.2</ele>
        <time>2020-06-08T16:30:27Z</time>
      </trkpt>
      <trkpt lat="48.38918" lon="-4.40124">
        <ele>38.2</ele>
        <time>2020-06-08T16:32:31Z</time>
      </trkpt>
      <trkpt lat="48.38919" lon="-4.40126">
        <ele>38.2</ele>
        <time>2020-06-08T16:32:32Z</time>
      </trkpt>
      <trkpt lat="48.38919" lon="-4.40126">
        <ele>38.2</ele>
        <time>2020-06-08T16:32:33Z</time>
      </trkpt>
      <trkpt lat="48.38921" lon="-4.40127">
        <ele>38.2</ele>
        <time>2020-06-08T16:32:34Z</time>
      </trkpt>
      <trkpt lat="48.38921" lon="-4.40128">
        <ele>38.2</ele>
        <time>2020-06-08T16:32:35Z</time>
      </trkpt>
      <trkpt lat="48.38922" lon="-4.40129">
        <ele>38.2</ele>
        <time>2020-06-08T16:32:36Z</time>
      </trkpt>
      <trkpt lat="48.38923" lon="-4.4013">
        <ele>38.2</ele>
        <time>2020-06-08T16:32:37Z</time>
      </trkpt>
      <trkpt lat="48.38924" lon="-4.40131">
        <ele>38.2</ele>
        <time>2020-06-08T16:32:38Z</time>
      </trkpt>
      <trkpt lat="48.38924" lon="-4.40132">
        <ele>38.2</ele>
        <time>2020-06-08T16:32:39Z</time>
      </trkpt>
      <trkpt lat="48.38925" lon="-4.40132">
        <ele>38.2</ele>
        <time>2020-06-08T16:32:40Z</time>
      </trkpt>
      <trkpt lat="48.38926" lon="-4.40133">
        <ele>38.2</ele>
        <time>2020-06-08T16:32:41Z</time>
      </trkpt>
      <trkpt lat="48.38926" lon="-4.40134">
        <ele>38.3</ele>
        <time>2020-06-08T16:32:42Z</time>
      </trkpt>
      <trkpt lat="48.38927" lon="-4.40135">
        <ele>38.3</ele>
        <time>2020-06-08T16:32:43Z</time>
      </trkpt>
      <trkpt lat="48.38928" lon="-4.40136">
        <ele>38.3</ele>
        <time>2020-06-08T16:32:44Z</time>
      </trkpt>
      <trkpt lat="48.38929" lon="-4.40136">
        <ele>38.3</ele>
        <time>2020-06-08T16:32:45Z</time>
      </trkpt>
      <trkpt lat="48.38929" lon="-4.40137">
        <ele>38.3</ele>
        <time>2020-06-08T16:35:41Z</time>
      </trkpt>
      <trkpt lat="48.3893" lon="-4.40138">
        <ele>38.3</ele>
        <time>2020-06-08T16:35:42Z</time>
      </trkpt>
      <trkpt lat="48.38932" lon="-4.40139">
        <ele>38.3</ele>
        <time>2020-06-08T16:35:43Z</time>
      </trkpt>
      <trkpt lat="48.38933" lon="-4.4014">
        <ele>38.3</ele>
        <time>2020-06-08T16:35:44Z</time>
      </trkpt>
      <trkpt lat="48.38936" lon="-4.40142">
        <ele>38.4</ele>
        <time>2020-06-08T16:35:45Z</time>
      </trkpt>
      <trkpt lat="48.38938" lon="-4.40145">
        <ele>38.4</ele>
        <time>2020-06-08T16:35:46Z</time>
      </trkpt>
      <trkpt lat="48.38939" lon="-4.40145">
        <ele>38.4</ele>
        <time>2020-06-08T16:35:47Z</time>
      </trkpt>
      <trkpt lat="48.38943" lon="-4.40147">
        <ele>38.3</ele>
        <time>2020-06-08T16:35:48Z</time>
      </trkpt>
      <trkpt lat="48.38944" lon="-4.40147">
        <ele>38.3</ele>
        <time>2020-06-08T16:35:49Z</time>
      </trkpt>
      <trkpt lat="48.38948" lon="-4.40149">
        <ele>38.2</ele>
        <time>2020-06-08T16:35:50Z</time>
      </trkpt>
      <trkpt lat="48.38949" lon="-4.40149">
        <ele>38.2</ele>
        <time>2020-06-08T16:35:51Z</time>
      </trkpt>
      <trkpt lat="48.38951" lon="-4.40152">
        <ele>38.1</ele>
        <time>2020-06-08T16:35:52Z</time>
      </trkpt>
      <trkpt lat="48.38951" lon="-4.40154">
        <ele>38.1</ele>
        <time>2020-06-08T16:35:53Z</time>
      </trkpt>
      <trkpt lat="48.38953" lon="-4.40156">
        <ele>38.1</ele>
        <time>2020-06-08T16:35:54Z</time>
      </trkpt>
      <trkpt lat="48.38954" lon="-4.40157">
        <ele>38</ele>
        <time>2020-06-08T16:35:55Z</time>
      </trkpt>
      <trkpt lat="48.38956" lon="-4.40158">
        <ele>38</ele>
        <time>2020-06-08T16:35:56Z</time>
      </trkpt>
      <trkpt lat="48.38957" lon="-4.40159">
        <ele>37.9</ele>
        <time>2020-06-08T16:35:57Z</time>
      </trkpt>
      <trkpt lat="48.38958" lon="-4.40161">
        <ele>37.9</ele>
        <time>2020-06-08T16:35:58Z</time>
      </trkpt>
      <trkpt lat="48.38959" lon="-4.40162">
        <ele>37.8</ele>
        <time>2020-06-08T16:35:59Z</time>
      </trkpt>
      <trkpt lat="48.38961" lon="-4.40164">
        <ele>37.8</ele>
        <time>2020-06-08T16:36:00Z</time>
      </trkpt>
      <trkpt lat="48.38964" lon="-4.40166">
        <ele>37.7</ele>
        <time>2020-06-08T16:36:01Z</time>
      </trkpt>
      <trkpt lat="48.38965" lon="-4.40167">
        <ele>37.7</ele>
        <time>2020-06-08T16:36:02Z</time>
      </trkpt>
      <trkpt lat="48.38966" lon="-4.40169">
        <ele>37.6</ele>
        <time>2020-06-08T16:36:03Z</time>
      </trkpt>
      <trkpt lat="48.38968" lon="-4.4017">
        <ele>37.5</ele>
        <time>2020-06-08T16:36:04Z</time>
      </trkpt>
      <trkpt lat="48.3897" lon="-4.40172">
        <ele>37.4</ele>
        <time>2020-06-08T16:36:05Z</time>
      </trkpt>
      <trkpt lat="48.38971" lon="-4.40172">
        <ele>37.4</ele>
        <time>2020-06-08T16:36:06Z</time>
      </trkpt>
      <trkpt lat="48.38974" lon="-4.40175">
        <ele>37.2</ele>
        <time>2020-06-08T16:36:07Z</time>
      </trkpt>
      <trkpt lat="48.38975" lon="-4.40177">
        <ele>37.2</ele>
        <time>2020-06-08T16:36:08Z</time>
      </trkpt>
      <trkpt lat="48.38978" lon="-4.40179">
        <ele>37</ele>
        <time>2020-06-08T16:36:09Z</time>
      </trkpt>
      <trkpt lat="48.3898" lon="-4.40179">
        <ele>36.9</ele>
        <time>2020-06-08T16:36:10Z</time>
      </trkpt>
      <trkpt lat="48.38983" lon="-4.40181">
        <ele>36.8</ele>
        <time>2020-06-08T16:36:11Z</time>
      </trkpt>
      <trkpt lat="48.38984" lon="-4.40182">
        <ele>36.7</ele>
        <time>2020-06-08T16:36:12Z</time>
      </trkpt>
      <trkpt lat="48.38988" lon="-4.40184">
        <ele>36.5</ele>
        <time>2020-06-08T16:36:13Z</time>
      </trkpt>
      <trkpt lat="48.3899" lon="-4.40185">
        <ele>36.4</ele>
        <time>2020-06-08T16:36:14Z</time>
      </trkpt>
      <trkpt lat="48.38994" lon="-4.40187">
        <ele>36.2</ele>
        <time>2020-06-08T16:36:15Z</time>
      </trkpt>
      <trkpt lat="48.38996" lon="-4.4019">
        <ele>36</ele>
        <time>2020-06-08T16:36:16Z</time>
      </trkpt>
      <trkpt lat="48.38999" lon="-4.40192">
        <ele>35.8</ele>
        <time>2020-06-08T16:36:17Z</time>
      </trkpt>
      <trkpt lat="48.39003" lon="-4.40195">
        <ele>35.5</ele>
        <time>2020-06-08T16:36:18Z</time>
      </trkpt>
      <trkpt lat="48.39007" lon="-4.40195">
        <ele>35.3</ele>
        <time>2020-06-08T16:36:19Z</time>
      </trkpt>
      <trkpt lat="48.3901" lon="-4.40197">
        <ele>35</ele>
        <time>2020-06-08T16:36:20Z</time>
      </trkpt>
      <trkpt lat="48.39013" lon="-4.40201">
        <ele>34.8</ele>
        <time>2020-06-08T16:36:21Z</time>
      </trkpt>
      <trkpt lat="48.39017" lon="-4.40205">
        <ele>34.4</ele>
        <time>2020-06-08T16:36:22Z</time>
      </trkpt>
      <trkpt lat="48.39021" lon="-4.40208">
        <ele>34.1</ele>
        <time>2020-06-08T16:36:23Z</time>
      </trkpt>
      <trkpt lat="48.39025" lon="-4.40213">
        <ele>33.8</ele>
        <time>2020-06-08T16:36:24Z</time>
      </trkpt>
      <trkpt lat="48.3903" lon="-4.40217">
        <ele>33.4</ele>
        <time>2020-06-08T16:36:25Z</time>
      </trkpt>
      <trkpt lat="48.39035" lon="-4.40221">
        <ele>33.1</ele>
        <time>2020-06-08T16:36:26Z</time>
      </trkpt>
      <trkpt lat="48.39038" lon="-4.40225">
        <ele>32.8</ele>
        <time>2020-06-08T16:36:27Z</time>
      </trkpt>
      <trkpt lat="48.39043" lon="-4.40228">
        <ele>32.5</ele>
        <time>2020-06-08T16:36:28Z</time>
      </trkpt>
      <trkpt lat="48.39048" lon="-4.40232">
        <ele>32.2</ele>
        <time>2020-06-08T16:36:29Z</time>
      </trkpt>
      <trkpt lat="48.39054" lon="-4.40235">
        <ele>31.8</ele>
        <time>2020-06-08T16:36:30Z</time>
      </trkpt>
      <trkpt lat="48.39058" lon="-4.4024">
        <ele>31.5</ele>
        <time>2020-06-08T16:36:31Z</time>
      </trkpt>
      <trkpt lat="48.39064" lon="-4.40243">
        <ele>31.2</ele>
        <time>2020-06-08T16:36:32Z</time>
      </trkpt>
      <trkpt lat="48.39068" lon="-4.40247">
        <ele>30.9</ele>
        <time>2020-06-08T16:36:33Z</time>
      </trkpt>
      <trkpt lat="48.39072" lon="-4.4025">
        <ele>30.6</ele>
        <time>2020-06-08T16:36:34Z</time>
      </trkpt>
      <trkpt lat="48.39076" lon="-4.40253">
        <ele>30.4</ele>
        <time>2020-06-08T16:36:35Z</time>
      </trkpt>
      <trkpt lat="48.39079" lon="-4.40256">
        <ele>30.2</ele>
        <time>2020-06-08T16:36:36Z</time>
      </trkpt>
      <trkpt lat="48.39082" lon="-4.40258">
        <ele>30.1</ele>
        <time>2020-06-08T16:36:37Z</time>
      </trkpt>
      <trkpt lat="48.39083" lon="-4.40259">
        <ele>30</ele>
        <time>2020-06-08T16:36:38Z</time>
      </trkpt>
      <trkpt lat="48.39085" lon="-4.40259">
        <ele>29.9</ele>
        <time>2020-06-08T16:36:39Z</time>
      </trkpt>
      <trkpt lat="48.39087" lon="-4.40257">
        <ele>29.8</ele>
        <time>2020-06-08T16:36:40Z</time>
      </trkpt>
      <trkpt lat="48.3909" lon="-4.40255">
        <ele>29.6</ele>
        <time>2020-06-08T16:36:41Z</time>
      </trkpt>
      <trkpt lat="48.39092" lon="-4.40255">
        <ele>29.5</ele>
        <time>2020-06-08T16:36:42Z</time>
      </trkpt>
      <trkpt lat="48.39095" lon="-4.40256">
        <ele>29.4</ele>
        <time>2020-06-08T16:36:43Z</time>
      </trkpt>
      <trkpt lat="48.39098" lon="-4.40258">
        <ele>29.2</ele>
        <time>2020-06-08T16:36:44Z</time>
      </trkpt>
      <trkpt lat="48.39102" lon="-4.40262">
        <ele>29</ele>
        <time>2020-06-08T16:36:45Z</time>
      </trkpt>
      <trkpt lat="48.39106" lon="-4.40266">
        <ele>28.8</ele>
        <time>2020-06-08T16:36:46Z</time>
      </trkpt>
      <trkpt lat="48.39109" lon="-4.40269">
        <ele>28.6</ele>
        <time>2020-06-08T16:36:47Z</time>
      </trkpt>
      <trkpt lat="48.39112" lon="-4.40273">
        <ele>28.4</ele>
        <time>2020-06-08T16:36:48Z</time>
      </trkpt>
      <trkpt lat="48.39116" lon="-4.40277">
        <ele>28.2</ele>
        <time>2020-06-08T16:36:49Z</time>
      </trkpt>
      <trkpt lat="48.3912" lon="-4.40281">
        <ele>28.1</ele>
        <time>2020-06-08T16:36:50Z</time>
      </trkpt>
      <trkpt lat="48.39124" lon="-4.40285">
        <ele>27.9</ele>
        <time>2020-06-08T16:36:51Z</time>
      </trkpt>
      <trkpt lat="48.39128" lon="-4.40289">
        <ele>27.8</ele>
        <time>2020-06-08T16:36:52Z</time>
      </trkpt>
      <trkpt lat="48.39131" lon="-4.40292">
        <ele>27.7</ele>
        <time>2020-06-08T16:36:53Z</time>
      </trkpt>
      <trkpt lat="48.39134" lon="-4.40294">
        <ele>27.6</ele>
        <time>2020-06-08T16:36:54Z</time>
      </trkpt>
      <trkpt lat="48.39137" lon="-4.40296">
        <ele>27.6</ele>
        <time>2020-06-08T16:36:55Z</time>
      </trkpt>
      <trkpt lat="48.39141" lon="-4.403">
        <ele>27.4</ele>
        <time>2020-06-08T16:36:56Z</time>
      </trkpt>
      <trkpt lat="48.39145" lon="-4.40303">
        <ele>27.3</ele>
        <time>2020-06-08T16:36:57Z</time>
      </trkpt>
      <trkpt lat="48.39149" lon="-4.40307">
        <ele>27.2</ele>
        <time>2020-06-08T16:36:58Z</time>
      </trkpt>
      <trkpt lat="48.39153" lon="-4.40311">
        <ele>27.1</ele>
        <time>2020-06-08T16:36:59Z</time>
      </trkpt>
      <trkpt lat="48.39156" lon="-4.40313">
        <ele>27</ele>
        <time>2020-06-08T16:37:00Z</time>
      </trkpt>
      <trkpt lat="48.39161" lon="-4.40318">
        <ele>26.8</ele>
        <time>2020-06-08T16:37:01Z</time>
      </trkpt>
      <trkpt lat="48.39164" lon="-4.40319">
        <ele>26.7</ele>
        <time>2020-06-08T16:37:02Z</time>
      </trkpt>
      <trkpt lat="48.39168" lon="-4.40321">
        <ele>26.6</ele>
        <time>2020-06-08T16:37:03Z</time>
      </trkpt>
      <trkpt lat="48.39171" lon="-4.40323">
        <ele>26.6</ele>
        <time>2020-06-08T16:37:04Z</time>
      </trkpt>
      <trkpt lat="48.39175" lon="-4.40325">
        <ele>26.5</ele>
        <time>2020-06-08T16:37:05Z</time>
      </trkpt>
      <trkpt lat="48.39178" lon="-4.40327">
        <ele>26.4</ele>
        <time>2020-06-08T16:37:06Z</time>
      </trkpt>
      <trkpt lat="48.39179" lon="-4.40328">
        <ele>26.3</ele>
        <time>2020-06-08T16:37:07Z</time>
      </trkpt>
      <trkpt lat="48.3918" lon="-4.40329">
        <ele>26.3</ele>
        <time>2020-06-08T16:37:08Z</time>
      </trkpt>
      <trkpt lat="48.39182" lon="-4.40331">
        <ele>26.3</ele>
        <time>2020-06-08T16:37:09Z</time>
      </trkpt>
      <trkpt lat="48.39184" lon="-4.40331">
        <ele>26.2</ele>
        <time>2020-06-08T16:37:10Z</time>
      </trkpt>
      <trkpt lat="48.39185" lon="-4.40332">
        <ele>26.2</ele>
        <time>2020-06-08T16:37:11Z</time>
      </trkpt>
      <trkpt lat="48.39188" lon="-4.40334">
        <ele>26.2</ele>
        <time>2020-06-08T16:37:12Z</time>
      </trkpt>
      <trkpt lat="48.3919" lon="-4.40335">
        <ele>26.2</ele>
        <time>2020-06-08T16:37:13Z</time>
      </trkpt>
      <trkpt lat="48.39191" lon="-4.40338">
        <ele>26.2</ele>
        <time>2020-06-08T16:37:14Z</time>
      </trkpt>
      <trkpt lat="48.39191" lon="-4.40339">
        <ele>26.2</ele>
        <time>2020-06-08T16:37:15Z</time>
      </trkpt>
      <trkpt lat="48.39192" lon="-4.4034">
        <ele>26.2</ele>
        <time>2020-06-08T16:37:16Z</time>
      </trkpt>
      <trkpt lat="48.3919" lon="-4.4034">
        <ele>26.2</ele>
        <time>2020-06-08T16:37:17Z</time>
      </trkpt>
      <trkpt lat="48.39189" lon="-4.40339">
        <ele>26.2</ele>
        <time>2020-06-08T16:37:18Z</time>
      </trkpt>
      <trkpt lat="48.39188" lon="-4.40339">
        <ele>26.2</ele>
        <time>2020-06-08T16:37:19Z</time>
      </trkpt>
      <trkpt lat="48.39188" lon="-4.40337">
        <ele>26.2</ele>
        <time>2020-06-08T16:37:20Z</time>
      </trkpt>
      <trkpt lat="48.39188" lon="-4.40337">
        <ele>26.2</ele>
        <time>2020-06-08T16:37:21Z</time>
      </trkpt>
      <trkpt lat="48.39188" lon="-4.40336">
        <ele>26.2</ele>
        <time>2020-06-08T16:37:22Z</time>
      </trkpt>
      <trkpt lat="48.39187" lon="-4.40335">
        <ele>26.2</ele>
        <time>2020-06-08T16:37:23Z</time>
      </trkpt>
      <trkpt lat="48.39188" lon="-4.40334">
        <ele>26.2</ele>
        <time>2020-06-08T16:37:24Z</time>
      </trkpt>
      <trkpt lat="48.39192" lon="-4.40336">
        <ele>26.3</ele>
        <time>2020-06-08T16:37:25Z</time>
      </trkpt>
      <trkpt lat="48.39194" lon="-4.40337">
        <ele>26.3</ele>
        <time>2020-06-08T16:37:26Z</time>
      </trkpt>
      <trkpt lat="48.39194" lon="-4.40338">
        <ele>26.3</ele>
        <time>2020-06-08T16:37:27Z</time>
      </trkpt>
      <trkpt lat="48.39194" lon="-4.4034">
        <ele>26.3</ele>
        <time>2020-06-08T16:37:28Z</time>
      </trkpt>
      <trkpt lat="48.39195" lon="-4.40341">
        <ele>26.3</ele>
        <time>2020-06-08T16:37:29Z</time>
      </trkpt>
      <trkpt lat="48.39197" lon="-4.40347">
        <ele>26.1</ele>
        <time>2020-06-08T16:37:30Z</time>
      </trkpt>
      <trkpt lat="48.39198" lon="-4.4035">
        <ele>26.1</ele>
        <time>2020-06-08T16:37:31Z</time>
      </trkpt>
      <trkpt lat="48.392" lon="-4.40355">
        <ele>26</ele>
        <time>2020-06-08T16:37:32Z</time>
      </trkpt>
      <trkpt lat="48.39203" lon="-4.40357">
        <ele>25.8</ele>
        <time>2020-06-08T16:37:33Z</time>
      </trkpt>
      <trkpt lat="48.39206" lon="-4.40359">
        <ele>25.7</ele>
        <time>2020-06-08T16:37:34Z</time>
      </trkpt>
      <trkpt lat="48.39209" lon="-4.40361">
        <ele>25.6</ele>
        <time>2020-06-08T16:37:35Z</time>
      </trkpt>
      <trkpt lat="48.39213" lon="-4.40363">
        <ele>25.5</ele>
        <time>2020-06-08T16:37:36Z</time>
      </trkpt>
      <trkpt lat="48.39216" lon="-4.40366">
        <ele>25.3</ele>
        <time>2020-06-08T16:37:37Z</time>
      </trkpt>
      <trkpt lat="48.39219" lon="-4.40369">
        <ele>25.2</ele>
        <time>2020-06-08T16:37:38Z</time>
      </trkpt>
      <trkpt lat="48.39223" lon="-4.40371">
        <ele>25</ele>
        <time>2020-06-08T16:37:39Z</time>
      </trkpt>
      <trkpt lat="48.39226" lon="-4.40373">
        <ele>24.9</ele>
        <time>2020-06-08T16:37:40Z</time>
      </trkpt>
      <trkpt lat="48.3923" lon="-4.40375">
        <ele>24.8</ele>
        <time>2020-06-08T16:37:41Z</time>
      </trkpt>
      <trkpt lat="48.39234" lon="-4.40377">
        <ele>24.7</ele>
        <time>2020-06-08T16:37:42Z</time>
      </trkpt>
      <trkpt lat="48.39238" lon="-4.4038">
        <ele>24.6</ele>
        <time>2020-06-08T16:37:43Z</time>
      </trkpt>
      <trkpt lat="48.39242" lon="-4.40383">
        <ele>24.5</ele>
        <time>2020-06-08T16:37:44Z</time>
      </trkpt>
      <trkpt lat="48.39246" lon="-4.40386">
        <ele>24.3</ele>
        <time>2020-06-08T16:37:45Z</time>
      </trkpt>
      <trkpt lat="48.39251" lon="-4.40389">
        <ele>24.2</ele>
        <time>2020-06-08T16:37:46Z</time>
      </trkpt>
      <trkpt lat="48.39255" lon="-4.40392">
        <ele>24.1</ele>
        <time>2020-06-08T16:37:47Z</time>
      </trkpt>
      <trkpt lat="48.39259" lon="-4.40396">
        <ele>24</ele>
        <time>2020-06-08T16:37:48Z</time>
      </trkpt>
      <trkpt lat="48.39263" lon="-4.40401">
        <ele>24</ele>
        <time>2020-06-08T16:37:49Z</time>
      </trkpt>
      <trkpt lat="48.39268" lon="-4.40405">
        <ele>23.9</ele>
        <time>2020-06-08T16:37:50Z</time>
      </trkpt>
      <trkpt lat="48.39273" lon="-4.40408">
        <ele>23.9</ele>
        <time>2020-06-08T16:37:51Z</time>
      </trkpt>
      <trkpt lat="48.39278" lon="-4.40412">
        <ele>23.9</ele>
        <time>2020-06-08T16:37:52Z</time>
      </trkpt>
      <trkpt lat="48.39284" lon="-4.40415">
        <ele>23.9</ele>
        <time>2020-06-08T16:37:53Z</time>
      </trkpt>
      <trkpt lat="48.39288" lon="-4.4042">
        <ele>24</ele>
        <time>2020-06-08T16:37:54Z</time>
      </trkpt>
      <trkpt lat="48.39292" lon="-4.40426">
        <ele>24</ele>
        <time>2020-06-08T16:37:55Z</time>
      </trkpt>
      <trkpt lat="48.39296" lon="-4.40432">
        <ele>24.1</ele>
        <time>2020-06-08T16:37:56Z</time>
      </trkpt>
      <trkpt lat="48.393" lon="-4.40439">
        <ele>24.2</ele>
        <time>2020-06-08T16:37:57Z</time>
      </trkpt>
      <trkpt lat="48.39304" lon="-4.40445">
        <ele>24.3</ele>
        <time>2020-06-08T16:37:58Z</time>
      </trkpt>
      <trkpt lat="48.39308" lon="-4.4045">
        <ele>24.5</ele>
        <time>2020-06-08T16:37:59Z</time>
      </trkpt>
      <trkpt lat="48.39313" lon="-4.40455">
        <ele>24.6</ele>
        <time>2020-06-08T16:38:00Z</time>
      </trkpt>
      <trkpt lat="48.39319" lon="-4.4046">
        <ele>24.8</ele>
        <time>2020-06-08T16:38:01Z</time>
      </trkpt>
      <trkpt lat="48.39324" lon="-4.40463">
        <ele>24.9</ele>
        <time>2020-06-08T16:38:02Z</time>
      </trkpt>
      <trkpt lat="48.39328" lon="-4.40466">
        <ele>25</ele>
        <time>2020-06-08T16:38:03Z</time>
      </trkpt>
      <trkpt lat="48.39332" lon="-4.40471">
        <ele>25.2</ele>
        <time>2020-06-08T16:38:04Z</time>
      </trkpt>
      <trkpt lat="48.39334" lon="-4.40475">
        <ele>25.3</ele>
        <time>2020-06-08T16:38:05Z</time>
      </trkpt>
      <trkpt lat="48.39338" lon="-4.4048">
        <ele>25.5</ele>
        <time>2020-06-08T16:38:06Z</time>
      </trkpt>
      <trkpt lat="48.39341" lon="-4.40485">
        <ele>25.6</ele>
        <time>2020-06-08T16:38:07Z</time>
      </trkpt>
      <trkpt lat="48.39344" lon="-4.40489">
        <ele>25.8</ele>
        <time>2020-06-08T16:38:08Z</time>
      </trkpt>
      <trkpt lat="48.39348" lon="-4.40495">
        <ele>26</ele>
        <time>2020-06-08T16:38:09Z</time>
      </trkpt>
      <trkpt lat="48.39351" lon="-4.405">
        <ele>26.2</ele>
        <time>2020-06-08T16:38:10Z</time>
      </trkpt>
      <trkpt lat="48.39354" lon="-4.40505">
        <ele>26.6</ele>
        <time>2020-06-08T16:38:11Z</time>
      </trkpt>
      <trkpt lat="48.39358" lon="-4.40509">
        <ele>26.9</ele>
        <time>2020-06-08T16:38:12Z</time>
      </trkpt>
      <trkpt lat="48.39361" lon="-4.40514">
        <ele>27.2</ele>
        <time>2020-06-08T16:38:13Z</time>
      </trkpt>
      <trkpt lat="48.39363" lon="-4.40518">
        <ele>27.4</ele>
        <time>2020-06-08T16:38:14Z</time>
      </trkpt>
      <trkpt lat="48.39366" lon="-4.40522">
        <ele>27.6</ele>
        <time>2020-06-08T16:38:15Z</time>
      </trkpt>
      <trkpt lat="48.39368" lon="-4.40525">
        <ele>27.8</ele>
        <time>2020-06-08T16:38:16Z</time>
      </trkpt>
      <trkpt lat="48.39371" lon="-4.40529">
        <ele>28</ele>
        <time>2020-06-08T16:38:17Z</time>
      </trkpt>
      <trkpt lat="48.39372" lon="-4.40533">
        <ele>28.2</ele>
        <time>2020-06-08T16:38:18Z</time>
      </trkpt>
      <trkpt lat="48.39376" lon="-4.40538">
        <ele>28.5</ele>
        <time>2020-06-08T16:38:19Z</time>
      </trkpt>
      <trkpt lat="48.39377" lon="-4.40542">
        <ele>28.7</ele>
        <time>2020-06-08T16:38:20Z</time>
      </trkpt>
      <trkpt lat="48.39379" lon="-4.40545">
        <ele>28.9</ele>
        <time>2020-06-08T16:38:21Z</time>
      </trkpt>
      <trkpt lat="48.39381" lon="-4.40548">
        <ele>29.1</ele>
        <time>2020-06-08T16:38:22Z</time>
      </trkpt>
      <trkpt lat="48.39384" lon="-4.40554">
        <ele>29.4</ele>
        <time>2020-06-08T16:38:23Z</time>
      </trkpt>
      <trkpt lat="48.39385" lon="-4.40556">
        <ele>29.5</ele>
        <time>2020-06-08T16:38:24Z</time>
      </trkpt>
      <trkpt lat="48.39387" lon="-4.4056">
        <ele>29.7</ele>
        <time>2020-06-08T16:38:25Z</time>
      </trkpt>
      <trkpt lat="48.39388" lon="-4.40564">
        <ele>29.9</ele>
        <time>2020-06-08T16:38:26Z</time>
      </trkpt>
      <trkpt lat="48.3939" lon="-4.40568">
        <ele>30.1</ele>
        <time>2020-06-08T16:38:27Z</time>
      </trkpt>
      <trkpt lat="48.39392" lon="-4.40572">
        <ele>30.3</ele>
        <time>2020-06-08T16:38:28Z</time>
      </trkpt>
      <trkpt lat="48.39394" lon="-4.40577">
        <ele>30.6</ele>
        <time>2020-06-08T16:38:29Z</time>
      </trkpt>
      <trkpt lat="48.39397" lon="-4.40582">
        <ele>30.8</ele>
        <time>2020-06-08T16:38:30Z</time>
      </trkpt>
      <trkpt lat="48.39399" lon="-4.40587">
        <ele>31</ele>
        <time>2020-06-08T16:38:31Z</time>
      </trkpt>
      <trkpt lat="48.394" lon="-4.40591">
        <ele>31.2</ele>
        <time>2020-06-08T16:38:32Z</time>
      </trkpt>
      <trkpt lat="48.39401" lon="-4.40595">
        <ele>31.3</ele>
        <time>2020-06-08T16:38:33Z</time>
      </trkpt>
      <trkpt lat="48.39403" lon="-4.406">
        <ele>31.5</ele>
        <time>2020-06-08T16:38:34Z</time>
      </trkpt>
      <trkpt lat="48.39404" lon="-4.40602">
        <ele>31.5</ele>
        <time>2020-06-08T16:38:35Z</time>
      </trkpt>
      <trkpt lat="48.39406" lon="-4.40606">
        <ele>31.7</ele>
        <time>2020-06-08T16:38:36Z</time>
      </trkpt>
      <trkpt lat="48.39407" lon="-4.40611">
        <ele>31.8</ele>
        <time>2020-06-08T16:38:37Z</time>
      </trkpt>
      <trkpt lat="48.3941" lon="-4.40615">
        <ele>32</ele>
        <time>2020-06-08T16:38:38Z</time>
      </trkpt>
      <trkpt lat="48.39411" lon="-4.40617">
        <ele>32.1</ele>
        <time>2020-06-08T16:38:39Z</time>
      </trkpt>
      <trkpt lat="48.39414" lon="-4.40621">
        <ele>32.2</ele>
        <time>2020-06-08T16:38:40Z</time>
      </trkpt>
      <trkpt lat="48.39415" lon="-4.40623">
        <ele>32.3</ele>
        <time>2020-06-08T16:38:41Z</time>
      </trkpt>
      <trkpt lat="48.39417" lon="-4.40626">
        <ele>32.4</ele>
        <time>2020-06-08T16:38:42Z</time>
      </trkpt>
      <trkpt lat="48.39418" lon="-4.4063">
        <ele>32.5</ele>
        <time>2020-06-08T16:38:43Z</time>
      </trkpt>
      <trkpt lat="48.3942" lon="-4.40634">
        <ele>32.6</ele>
        <time>2020-06-08T16:38:44Z</time>
      </trkpt>
      <trkpt lat="48.39421" lon="-4.40639">
        <ele>32.8</ele>
        <time>2020-06-08T16:38:45Z</time>
      </trkpt>
      <trkpt lat="48.39421" lon="-4.40642">
        <ele>32.8</ele>
        <time>2020-06-08T16:38:46Z</time>
      </trkpt>
      <trkpt lat="48.39423" lon="-4.40646">
        <ele>33</ele>
        <time>2020-06-08T16:38:47Z</time>
      </trkpt>
      <trkpt lat="48.39424" lon="-4.40652">
        <ele>33.1</ele>
        <time>2020-06-08T16:38:48Z</time>
      </trkpt>
      <trkpt lat="48.39426" lon="-4.40658">
        <ele>33.2</ele>
        <time>2020-06-08T16:38:49Z</time>
      </trkpt>
      <trkpt lat="48.39427" lon="-4.40661">
        <ele>33.3</ele>
        <time>2020-06-08T16:38:50Z</time>
      </trkpt>
      <trkpt lat="48.39428" lon="-4.40665">
        <ele>33.4</ele>
        <time>2020-06-08T16:38:51Z</time>
      </trkpt>
      <trkpt lat="48.3943" lon="-4.40669">
        <ele>33.5</ele>
        <time>2020-06-08T16:38:52Z</time>
      </trkpt>
      <trkpt lat="48.39432" lon="-4.40673">
        <ele>33.6</ele>
        <time>2020-06-08T16:38:53Z</time>
      </trkpt>
      <trkpt lat="48.39434" lon="-4.40677">
        <ele>33.7</ele>
        <time>2020-06-08T16:38:54Z</time>
      </trkpt>
      <trkpt lat="48.39435" lon="-4.40683">
        <ele>33.8</ele>
        <time>2020-06-08T16:38:55Z</time>
      </trkpt>
      <trkpt lat="48.39437" lon="-4.40688">
        <ele>33.9</ele>
        <time>2020-06-08T16:38:56Z</time>
      </trkpt>
      <trkpt lat="48.39438" lon="-4.40693">
        <ele>34</ele>
        <time>2020-06-08T16:38:57Z</time>
      </trkpt>
      <trkpt lat="48.39438" lon="-4.40695">
        <ele>34</ele>
        <time>2020-06-08T16:38:58Z</time>
      </trkpt>
      <trkpt lat="48.39439" lon="-4.40699">
        <ele>34</ele>
        <time>2020-06-08T16:38:59Z</time>
      </trkpt>
      <trkpt lat="48.39442" lon="-4.40703">
        <ele>34.1</ele>
        <time>2020-06-08T16:39:00Z</time>
      </trkpt>
      <trkpt lat="48.39443" lon="-4.40705">
        <ele>34.1</ele>
        <time>2020-06-08T16:39:01Z</time>
      </trkpt>
      <trkpt lat="48.39447" lon="-4.40709">
        <ele>34.1</ele>
        <time>2020-06-08T16:39:02Z</time>
      </trkpt>
      <trkpt lat="48.39449" lon="-4.40712">
        <ele>34.1</ele>
        <time>2020-06-08T16:39:03Z</time>
      </trkpt>
      <trkpt lat="48.39452" lon="-4.40715">
        <ele>34.2</ele>
        <time>2020-06-08T16:39:04Z</time>
      </trkpt>
      <trkpt lat="48.39453" lon="-4.40717">
        <ele>34.2</ele>
        <time>2020-06-08T16:39:05Z</time>
      </trkpt>
      <trkpt lat="48.39454" lon="-4.40718">
        <ele>34.2</ele>
        <time>2020-06-08T16:39:06Z</time>
      </trkpt>
      <trkpt lat="48.39454" lon="-4.40719">
        <ele>34.2</ele>
        <time>2020-06-08T16:39:07Z</time>
      </trkpt>
      <trkpt lat="48.39453" lon="-4.40717">
        <ele>34.2</ele>
        <time>2020-06-08T16:39:08Z</time>
      </trkpt>
      <trkpt lat="48.39453" lon="-4.40719">
        <ele>34.2</ele>
        <time>2020-06-08T16:39:09Z</time>
      </trkpt>
      <trkpt lat="48.39453" lon="-4.40719">
        <ele>34.2</ele>
        <time>2020-06-08T16:39:10Z</time>
      </trkpt>
      <trkpt lat="48.39453" lon="-4.40719">
        <ele>34.2</ele>
        <time>2020-06-08T16:39:11Z</time>
      </trkpt>
      <trkpt lat="48.39453" lon="-4.40718">
        <ele>34.2</ele>
        <time>2020-06-08T16:39:12Z</time>
      </trkpt>
      <trkpt lat="48.39452" lon="-4.40718">
        <ele>34.2</ele>
        <time>2020-06-08T16:39:13Z</time>
      </trkpt>
      <trkpt lat="48.39452" lon="-4.40718">
        <ele>34.2</ele>
        <time>2020-06-08T16:39:14Z</time>
      </trkpt>
      <trkpt lat="48.39452" lon="-4.40718">
        <ele>34.2</ele>
        <time>2020-06-08T16:39:15Z</time>
      </trkpt>
      <trkpt lat="48.39452" lon="-4.40718">
        <ele>34.2</ele>
        <time>2020-06-08T16:39:16Z</time>
      </trkpt>
      <trkpt lat="48.39452" lon="-4.40718">
        <ele>34.2</ele>
        <time>2020-06-08T16:39:17Z</time>
      </trkpt>
      <trkpt lat="48.39451" lon="-4.40722">
        <ele>34.3</ele>
        <time>2020-06-08T16:39:56Z</time>
      </trkpt>
      <trkpt lat="48.39451" lon="-4.40725">
        <ele>34.3</ele>
        <time>2020-06-08T16:39:57Z</time>
      </trkpt>
      <trkpt lat="48.39452" lon="-4.40729">
        <ele>34.3</ele>
        <time>2020-06-08T16:39:58Z</time>
      </trkpt>
      <trkpt lat="48.39452" lon="-4.40731">
        <ele>34.3</ele>
        <time>2020-06-08T16:39:59Z</time>
      </trkpt>
      <trkpt lat="48.39453" lon="-4.40736">
        <ele>34.3</ele>
        <time>2020-06-08T16:40:00Z</time>
      </trkpt>
      <trkpt lat="48.39454" lon="-4.40741">
        <ele>34.3</ele>
        <time>2020-06-08T16:40:01Z</time>
      </trkpt>
      <trkpt lat="48.39456" lon="-4.40747">
        <ele>34.3</ele>
        <time>2020-06-08T16:40:02Z</time>
      </trkpt>
      <trkpt lat="48.39458" lon="-4.40753">
        <ele>34.4</ele>
        <time>2020-06-08T16:40:03Z</time>
      </trkpt>
      <trkpt lat="48.3946" lon="-4.4076">
        <ele>34.3</ele>
        <time>2020-06-08T16:40:04Z</time>
      </trkpt>
      <trkpt lat="48.39462" lon="-4.40766">
        <ele>34.3</ele>
        <time>2020-06-08T16:40:05Z</time>
      </trkpt>
      <trkpt lat="48.39463" lon="-4.40774">
        <ele>34.3</ele>
        <time>2020-06-08T16:40:06Z</time>
      </trkpt>
      <trkpt lat="48.39465" lon="-4.40781">
        <ele>34.3</ele>
        <time>2020-06-08T16:40:07Z</time>
      </trkpt>
      <trkpt lat="48.39467" lon="-4.40787">
        <ele>34.3</ele>
        <time>2020-06-08T16:40:08Z</time>
      </trkpt>
      <trkpt lat="48.39469" lon="-4.40793">
        <ele>34.3</ele>
        <time>2020-06-08T16:40:09Z</time>
      </trkpt>
      <trkpt lat="48.39471" lon="-4.40799">
        <ele>34.3</ele>
        <time>2020-06-08T16:40:10Z</time>
      </trkpt>
      <trkpt lat="48.39473" lon="-4.40806">
        <ele>34.4</ele>
        <time>2020-06-08T16:40:11Z</time>
      </trkpt>
      <trkpt lat="48.39475" lon="-4.40813">
        <ele>34.3</ele>
        <time>2020-06-08T16:40:12Z</time>
      </trkpt>
      <trkpt lat="48.39477" lon="-4.40819">
        <ele>34.3</ele>
        <time>2020-06-08T16:40:13Z</time>
      </trkpt>
      <trkpt lat="48.3948" lon="-4.40825">
        <ele>34.3</ele>
        <time>2020-06-08T16:40:14Z</time>
      </trkpt>
      <trkpt lat="48.39483" lon="-4.40832">
        <ele>34.3</ele>
        <time>2020-06-08T16:40:15Z</time>
      </trkpt>
      <trkpt lat="48.39486" lon="-4.40837">
        <ele>34.3</ele>
        <time>2020-06-08T16:40:16Z</time>
      </trkpt>
      <trkpt lat="48.3949" lon="-4.40843">
        <ele>34.3</ele>
        <time>2020-06-08T16:40:17Z</time>
      </trkpt>
      <trkpt lat="48.39495" lon="-4.40847">
        <ele>34.3</ele>
        <time>2020-06-08T16:40:18Z</time>
      </trkpt>
      <trkpt lat="48.395" lon="-4.40849">
        <ele>34.1</ele>
        <time>2020-06-08T16:40:19Z</time>
      </trkpt>
      <trkpt lat="48.39505" lon="-4.40854">
        <ele>34</ele>
        <time>2020-06-08T16:40:20Z</time>
      </trkpt>
      <trkpt lat="48.39507" lon="-4.40861">
        <ele>34</ele>
        <time>2020-06-08T16:40:21Z</time>
      </trkpt>
      <trkpt lat="48.39508" lon="-4.40866">
        <ele>34</ele>
        <time>2020-06-08T16:40:22Z</time>
      </trkpt>
      <trkpt lat="48.39507" lon="-4.40873">
        <ele>34.1</ele>
        <time>2020-06-08T16:40:23Z</time>
      </trkpt>
      <trkpt lat="48.39505" lon="-4.40879">
        <ele>34.1</ele>
        <time>2020-06-08T16:40:24Z</time>
      </trkpt>
      <trkpt lat="48.39501" lon="-4.4088">
        <ele>34.1</ele>
        <time>2020-06-08T16:40:25Z</time>
      </trkpt>
      <trkpt lat="48.39497" lon="-4.40882">
        <ele>34.2</ele>
        <time>2020-06-08T16:40:26Z</time>
      </trkpt>
      <trkpt lat="48.39495" lon="-4.40886">
        <ele>34.1</ele>
        <time>2020-06-08T16:40:27Z</time>
      </trkpt>
      <trkpt lat="48.39495" lon="-4.40894">
        <ele>34.1</ele>
        <time>2020-06-08T16:40:28Z</time>
      </trkpt>
      <trkpt lat="48.39495" lon="-4.40901">
        <ele>34</ele>
        <time>2020-06-08T16:40:29Z</time>
      </trkpt>
      <trkpt lat="48.39496" lon="-4.40907">
        <ele>34</ele>
        <time>2020-06-08T16:40:30Z</time>
      </trkpt>
      <trkpt lat="48.39497" lon="-4.40914">
        <ele>34</ele>
        <time>2020-06-08T16:40:31Z</time>
      </trkpt>
      <trkpt lat="48.39498" lon="-4.4092">
        <ele>33.9</ele>
        <time>2020-06-08T16:40:32Z</time>
      </trkpt>
      <trkpt lat="48.39499" lon="-4.40928">
        <ele>33.8</ele>
        <time>2020-06-08T16:40:33Z</time>
      </trkpt>
      <trkpt lat="48.395" lon="-4.40936">
        <ele>33.8</ele>
        <time>2020-06-08T16:40:34Z</time>
      </trkpt>
      <trkpt lat="48.39502" lon="-4.40944">
        <ele>33.7</ele>
        <time>2020-06-08T16:40:35Z</time>
      </trkpt>
      <trkpt lat="48.39503" lon="-4.40952">
        <ele>33.7</ele>
        <time>2020-06-08T16:40:36Z</time>
      </trkpt>
      <trkpt lat="48.39504" lon="-4.40959">
        <ele>33.6</ele>
        <time>2020-06-08T16:40:37Z</time>
      </trkpt>
      <trkpt lat="48.39505" lon="-4.40965">
        <ele>33.6</ele>
        <time>2020-06-08T16:40:38Z</time>
      </trkpt>
      <trkpt lat="48.39508" lon="-4.40973">
        <ele>33.5</ele>
        <time>2020-06-08T16:40:39Z</time>
      </trkpt>
      <trkpt lat="48.39509" lon="-4.40982">
        <ele>33.4</ele>
        <time>2020-06-08T16:40:40Z</time>
      </trkpt>
      <trkpt lat="48.39511" lon="-4.4099">
        <ele>33.3</ele>
        <time>2020-06-08T16:40:41Z</time>
      </trkpt>
      <trkpt lat="48.39512" lon="-4.40996">
        <ele>33.2</ele>
        <time>2020-06-08T16:40:42Z</time>
      </trkpt>
      <trkpt lat="48.39514" lon="-4.41003">
        <ele>33.1</ele>
        <time>2020-06-08T16:40:43Z</time>
      </trkpt>
      <trkpt lat="48.39515" lon="-4.41009">
        <ele>33</ele>
        <time>2020-06-08T16:40:44Z</time>
      </trkpt>
      <trkpt lat="48.39516" lon="-4.41016">
        <ele>32.9</ele>
        <time>2020-06-08T16:40:45Z</time>
      </trkpt>
      <trkpt lat="48.39517" lon="-4.41023">
        <ele>32.8</ele>
        <time>2020-06-08T16:40:46Z</time>
      </trkpt>
      <trkpt lat="48.39518" lon="-4.41029">
        <ele>32.7</ele>
        <time>2020-06-08T16:40:47Z</time>
      </trkpt>
      <trkpt lat="48.39518" lon="-4.41033">
        <ele>32.7</ele>
        <time>2020-06-08T16:40:48Z</time>
      </trkpt>
      <trkpt lat="48.39518" lon="-4.41037">
        <ele>32.6</ele>
        <time>2020-06-08T16:40:49Z</time>
      </trkpt>
      <trkpt lat="48.3952" lon="-4.41044">
        <ele>32.6</ele>
        <time>2020-06-08T16:40:50Z</time>
      </trkpt>
      <trkpt lat="48.39521" lon="-4.41051">
        <ele>32.5</ele>
        <time>2020-06-08T16:40:51Z</time>
      </trkpt>
      <trkpt lat="48.39522" lon="-4.41058">
        <ele>32.4</ele>
        <time>2020-06-08T16:40:52Z</time>
      </trkpt>
      <trkpt lat="48.39523" lon="-4.41064">
        <ele>32.3</ele>
        <time>2020-06-08T16:40:53Z</time>
      </trkpt>
      <trkpt lat="48.39524" lon="-4.41071">
        <ele>32.2</ele>
        <time>2020-06-08T16:40:54Z</time>
      </trkpt>
      <trkpt lat="48.39525" lon="-4.41078">
        <ele>32.1</ele>
        <time>2020-06-08T16:40:55Z</time>
      </trkpt>
      <trkpt lat="48.39526" lon="-4.41086">
        <ele>32</ele>
        <time>2020-06-08T16:40:56Z</time>
      </trkpt>
      <trkpt lat="48.39528" lon="-4.41093">
        <ele>31.9</ele>
        <time>2020-06-08T16:40:57Z</time>
      </trkpt>
      <trkpt lat="48.39529" lon="-4.41101">
        <ele>31.8</ele>
        <time>2020-06-08T16:40:58Z</time>
      </trkpt>
      <trkpt lat="48.39529" lon="-4.41109">
        <ele>31.6</ele>
        <time>2020-06-08T16:40:59Z</time>
      </trkpt>
      <trkpt lat="48.3953" lon="-4.41117">
        <ele>31.4</ele>
        <time>2020-06-08T16:41:00Z</time>
      </trkpt>
      <trkpt lat="48.39531" lon="-4.41127">
        <ele>31.2</ele>
        <time>2020-06-08T16:41:01Z</time>
      </trkpt>
      <trkpt lat="48.39531" lon="-4.41134">
        <ele>31.2</ele>
        <time>2020-06-08T16:41:02Z</time>
      </trkpt>
      <trkpt lat="48.39531" lon="-4.41143">
        <ele>31</ele>
        <time>2020-06-08T16:41:03Z</time>
      </trkpt>
      <trkpt lat="48.39531" lon="-4.41152">
        <ele>30.9</ele>
        <time>2020-06-08T16:41:04Z</time>
      </trkpt>
      <trkpt lat="48.39532" lon="-4.4116">
        <ele>30.8</ele>
        <time>2020-06-08T16:41:05Z</time>
      </trkpt>
      <trkpt lat="48.39532" lon="-4.41168">
        <ele>30.6</ele>
        <time>2020-06-08T16:41:06Z</time>
      </trkpt>
      <trkpt lat="48.39532" lon="-4.41177">
        <ele>30.4</ele>
        <time>2020-06-08T16:41:07Z</time>
      </trkpt>
      <trkpt lat="48.39531" lon="-4.41188">
        <ele>30.2</ele>
        <time>2020-06-08T16:41:08Z</time>
      </trkpt>
      <trkpt lat="48.39531" lon="-4.41198">
        <ele>30</ele>
        <time>2020-06-08T16:41:09Z</time>
      </trkpt>
      <trkpt lat="48.39532" lon="-4.41208">
        <ele>29.9</ele>
        <time>2020-06-08T16:41:10Z</time>
      </trkpt>
      <trkpt lat="48.39532" lon="-4.41217">
        <ele>29.7</ele>
        <time>2020-06-08T16:41:11Z</time>
      </trkpt>
      <trkpt lat="48.39531" lon="-4.41227">
        <ele>29.5</ele>
        <time>2020-06-08T16:41:12Z</time>
      </trkpt>
      <trkpt lat="48.39531" lon="-4.41237">
        <ele>29.4</ele>
        <time>2020-06-08T16:41:13Z</time>
      </trkpt>
      <trkpt lat="48.39531" lon="-4.41246">
        <ele>29.2</ele>
        <time>2020-06-08T16:41:14Z</time>
      </trkpt>
      <trkpt lat="48.3953" lon="-4.41256">
        <ele>29</ele>
        <time>2020-06-08T16:41:15Z</time>
      </trkpt>
      <trkpt lat="48.39529" lon="-4.41265">
        <ele>28.8</ele>
        <time>2020-06-08T16:41:16Z</time>
      </trkpt>
      <trkpt lat="48.39529" lon="-4.41274">
        <ele>28.7</ele>
        <time>2020-06-08T16:41:17Z</time>
      </trkpt>
      <trkpt lat="48.39528" lon="-4.41283">
        <ele>28.5</ele>
        <time>2020-06-08T16:41:18Z</time>
      </trkpt>
      <trkpt lat="48.39527" lon="-4.41291">
        <ele>28.3</ele>
        <time>2020-06-08T16:41:19Z</time>
      </trkpt>
      <trkpt lat="48.39526" lon="-4.413">
        <ele>28.2</ele>
        <time>2020-06-08T16:41:20Z</time>
      </trkpt>
      <trkpt lat="48.39525" lon="-4.41309">
        <ele>28</ele>
        <time>2020-06-08T16:41:21Z</time>
      </trkpt>
      <trkpt lat="48.39524" lon="-4.41319">
        <ele>27.8</ele>
        <time>2020-06-08T16:41:22Z</time>
      </trkpt>
      <trkpt lat="48.39523" lon="-4.4133">
        <ele>27.5</ele>
        <time>2020-06-08T16:41:23Z</time>
      </trkpt>
      <trkpt lat="48.39523" lon="-4.41341">
        <ele>27.3</ele>
        <time>2020-06-08T16:41:24Z</time>
      </trkpt>
      <trkpt lat="48.39522" lon="-4.41351">
        <ele>27.1</ele>
        <time>2020-06-08T16:41:25Z</time>
      </trkpt>
      <trkpt lat="48.39521" lon="-4.41361">
        <ele>26.9</ele>
        <time>2020-06-08T16:41:26Z</time>
      </trkpt>
      <trkpt lat="48.39521" lon="-4.41371">
        <ele>26.6</ele>
        <time>2020-06-08T16:41:27Z</time>
      </trkpt>
      <trkpt lat="48.39521" lon="-4.41381">
        <ele>26.4</ele>
        <time>2020-06-08T16:41:28Z</time>
      </trkpt>
      <trkpt lat="48.39521" lon="-4.4139">
        <ele>26.2</ele>
        <time>2020-06-08T16:41:29Z</time>
      </trkpt>
      <trkpt lat="48.39521" lon="-4.414">
        <ele>25.9</ele>
        <time>2020-06-08T16:41:30Z</time>
      </trkpt>
      <trkpt lat="48.39521" lon="-4.4141">
        <ele>25.7</ele>
        <time>2020-06-08T16:41:31Z</time>
      </trkpt>
      <trkpt lat="48.39522" lon="-4.41421">
        <ele>25.4</ele>
        <time>2020-06-08T16:41:32Z</time>
      </trkpt>
      <trkpt lat="48.39525" lon="-4.41429">
        <ele>25.1</ele>
        <time>2020-06-08T16:41:33Z</time>
      </trkpt>
      <trkpt lat="48.39527" lon="-4.41438">
        <ele>24.9</ele>
        <time>2020-06-08T16:41:34Z</time>
      </trkpt>
      <trkpt lat="48.39529" lon="-4.41445">
        <ele>24.6</ele>
        <time>2020-06-08T16:41:35Z</time>
      </trkpt>
      <trkpt lat="48.39531" lon="-4.41453">
        <ele>24.4</ele>
        <time>2020-06-08T16:41:36Z</time>
      </trkpt>
      <trkpt lat="48.39532" lon="-4.41461">
        <ele>24.1</ele>
        <time>2020-06-08T16:41:37Z</time>
      </trkpt>
      <trkpt lat="48.39534" lon="-4.41471">
        <ele>23.8</ele>
        <time>2020-06-08T16:41:38Z</time>
      </trkpt>
      <trkpt lat="48.39536" lon="-4.41481">
        <ele>23.4</ele>
        <time>2020-06-08T16:41:39Z</time>
      </trkpt>
      <trkpt lat="48.39538" lon="-4.41493">
        <ele>23</ele>
        <time>2020-06-08T16:41:40Z</time>
      </trkpt>
      <trkpt lat="48.3954" lon="-4.41505">
        <ele>22.5</ele>
        <time>2020-06-08T16:41:41Z</time>
      </trkpt>
      <trkpt lat="48.39542" lon="-4.41517">
        <ele>22.1</ele>
        <time>2020-06-08T16:41:42Z</time>
      </trkpt>
      <trkpt lat="48.39543" lon="-4.4153">
        <ele>21.6</ele>
        <time>2020-06-08T16:41:43Z</time>
      </trkpt>
      <trkpt lat="48.39544" lon="-4.41542">
        <ele>21.2</ele>
        <time>2020-06-08T16:41:44Z</time>
      </trkpt>
      <trkpt lat="48.39546" lon="-4.41553">
        <ele>20.8</ele>
        <time>2020-06-08T16:41:45Z</time>
      </trkpt>
      <trkpt lat="48.39547" lon="-4.41562">
        <ele>20.5</ele>
        <time>2020-06-08T16:41:46Z</time>
      </trkpt>
      <trkpt lat="48.39548" lon="-4.4157">
        <ele>20.3</ele>
        <time>2020-06-08T16:41:47Z</time>
      </trkpt>
      <trkpt lat="48.39549" lon="-4.41577">
        <ele>20.1</ele>
        <time>2020-06-08T16:41:48Z</time>
      </trkpt>
      <trkpt lat="48.39551" lon="-4.41583">
        <ele>19.9</ele>
        <time>2020-06-08T16:41:49Z</time>
      </trkpt>
      <trkpt lat="48.39552" lon="-4.41589">
        <ele>19.7</ele>
        <time>2020-06-08T16:41:50Z</time>
      </trkpt>
      <trkpt lat="48.39554" lon="-4.41594">
        <ele>19.4</ele>
        <time>2020-06-08T16:41:51Z</time>
      </trkpt>
      <trkpt lat="48.39554" lon="-4.41602">
        <ele>19.1</ele>
        <time>2020-06-08T16:41:52Z</time>
      </trkpt>
      <trkpt lat="48.39552" lon="-4.4161">
        <ele>18.3</ele>
        <time>2020-06-08T16:41:53Z</time>
      </trkpt>
      <trkpt lat="48.39549" lon="-4.41618">
        <ele>17.8</ele>
        <time>2020-06-08T16:41:54Z</time>
      </trkpt>
      <trkpt lat="48.39548" lon="-4.41627">
        <ele>17.3</ele>
        <time>2020-06-08T16:41:55Z</time>
      </trkpt>
      <trkpt lat="48.39549" lon="-4.41636">
        <ele>16.7</ele>
        <time>2020-06-08T16:41:56Z</time>
      </trkpt>
      <trkpt lat="48.39551" lon="-4.41646">
        <ele>16.2</ele>
        <time>2020-06-08T16:41:57Z</time>
      </trkpt>
      <trkpt lat="48.39552" lon="-4.41656">
        <ele>15.6</ele>
        <time>2020-06-08T16:41:58Z</time>
      </trkpt>
      <trkpt lat="48.39553" lon="-4.41666">
        <ele>15.1</ele>
        <time>2020-06-08T16:41:59Z</time>
      </trkpt>
      <trkpt lat="48.39554" lon="-4.41677">
        <ele>14.5</ele>
        <time>2020-06-08T16:42:00Z</time>
      </trkpt>
      <trkpt lat="48.39555" lon="-4.41689">
        <ele>13.9</ele>
        <time>2020-06-08T16:42:01Z</time>
      </trkpt>
      <trkpt lat="48.39555" lon="-4.41701">
        <ele>13.4</ele>
        <time>2020-06-08T16:42:02Z</time>
      </trkpt>
      <trkpt lat="48.39557" lon="-4.41713">
        <ele>12.8</ele>
        <time>2020-06-08T16:42:03Z</time>
      </trkpt>
      <trkpt lat="48.39557" lon="-4.41726">
        <ele>12.2</ele>
        <time>2020-06-08T16:42:04Z</time>
      </trkpt>
      <trkpt lat="48.3956" lon="-4.41739">
        <ele>11.7</ele>
        <time>2020-06-08T16:42:05Z</time>
      </trkpt>
      <trkpt lat="48.39562" lon="-4.41752">
        <ele>11.1</ele>
        <time>2020-06-08T16:42:06Z</time>
      </trkpt>
      <trkpt lat="48.39564" lon="-4.41766">
        <ele>10.5</ele>
        <time>2020-06-08T16:42:07Z</time>
      </trkpt>
      <trkpt lat="48.39566" lon="-4.4178">
        <ele>9.9</ele>
        <time>2020-06-08T16:42:08Z</time>
      </trkpt>
      <trkpt lat="48.39569" lon="-4.41794">
        <ele>9.3</ele>
        <time>2020-06-08T16:42:09Z</time>
      </trkpt>
      <trkpt lat="48.39572" lon="-4.41808">
        <ele>8.6</ele>
        <time>2020-06-08T16:42:10Z</time>
      </trkpt>
      <trkpt lat="48.39575" lon="-4.41821">
        <ele>8.1</ele>
        <time>2020-06-08T16:42:11Z</time>
      </trkpt>
      <trkpt lat="48.39579" lon="-4.41833">
        <ele>7.7</ele>
        <time>2020-06-08T16:42:12Z</time>
      </trkpt>
      <trkpt lat="48.39583" lon="-4.41843">
        <ele>7.3</ele>
        <time>2020-06-08T16:42:13Z</time>
      </trkpt>
      <trkpt lat="48.39588" lon="-4.41854">
        <ele>7</ele>
        <time>2020-06-08T16:42:14Z</time>
      </trkpt>
      <trkpt lat="48.39592" lon="-4.41866">
        <ele>6.6</ele>
        <time>2020-06-08T16:42:15Z</time>
      </trkpt>
      <trkpt lat="48.39596" lon="-4.41877">
        <ele>6.2</ele>
        <time>2020-06-08T16:42:16Z</time>
      </trkpt>
      <trkpt lat="48.39601" lon="-4.41888">
        <ele>6.1</ele>
        <time>2020-06-08T16:42:17Z</time>
      </trkpt>
      <trkpt lat="48.39605" lon="-4.41899">
        <ele>6.1</ele>
        <time>2020-06-08T16:42:18Z</time>
      </trkpt>
      <trkpt lat="48.39609" lon="-4.41909">
        <ele>6</ele>
        <time>2020-06-08T16:42:19Z</time>
      </trkpt>
      <trkpt lat="48.39614" lon="-4.41919">
        <ele>6</ele>
        <time>2020-06-08T16:42:20Z</time>
      </trkpt>
      <trkpt lat="48.39618" lon="-4.41929">
        <ele>5.9</ele>
        <time>2020-06-08T16:42:21Z</time>
      </trkpt>
      <trkpt lat="48.39621" lon="-4.41938">
        <ele>5.9</ele>
        <time>2020-06-08T16:42:22Z</time>
      </trkpt>
      <trkpt lat="48.39624" lon="-4.41947">
        <ele>5.9</ele>
        <time>2020-06-08T16:42:23Z</time>
      </trkpt>
      <trkpt lat="48.39626" lon="-4.41955">
        <ele>5.9</ele>
        <time>2020-06-08T16:42:24Z</time>
      </trkpt>
      <trkpt lat="48.39631" lon="-4.41959">
        <ele>5.9</ele>
        <time>2020-06-08T16:42:25Z</time>
      </trkpt>
      <trkpt lat="48.39634" lon="-4.41965">
        <ele>5.8</ele>
        <time>2020-06-08T16:42:26Z</time>
      </trkpt>
      <trkpt lat="48.39637" lon="-4.4197">
        <ele>5.8</ele>
        <time>2020-06-08T16:42:27Z</time>
      </trkpt>
      <trkpt lat="48.39639" lon="-4.41974">
        <ele>5.8</ele>
        <time>2020-06-08T16:42:28Z</time>
      </trkpt>
      <trkpt lat="48.3964" lon="-4.41979">
        <ele>5.9</ele>
        <time>2020-06-08T16:42:29Z</time>
      </trkpt>
      <trkpt lat="48.39641" lon="-4.4198">
        <ele>5.9</ele>
        <time>2020-06-08T16:42:30Z</time>
      </trkpt>
      <trkpt lat="48.39643" lon="-4.41982">
        <ele>5.9</ele>
        <time>2020-06-08T16:42:31Z</time>
      </trkpt>
      <trkpt lat="48.39644" lon="-4.41982">
        <ele>5.9</ele>
        <time>2020-06-08T16:42:32Z</time>
      </trkpt>
      <trkpt lat="48.39648" lon="-4.41984">
        <ele>5.9</ele>
        <time>2020-06-08T16:42:33Z</time>
      </trkpt>
      <trkpt lat="48.39649" lon="-4.41985">
        <ele>5.9</ele>
        <time>2020-06-08T16:42:34Z</time>
      </trkpt>
      <trkpt lat="48.39651" lon="-4.41989">
        <ele>5.9</ele>
        <time>2020-06-08T16:42:35Z</time>
      </trkpt>
      <trkpt lat="48.39652" lon="-4.41993">
        <ele>5.9</ele>
        <time>2020-06-08T16:42:36Z</time>
      </trkpt>
      <trkpt lat="48.39654" lon="-4.41999">
        <ele>6</ele>
        <time>2020-06-08T16:42:37Z</time>
      </trkpt>
      <trkpt lat="48.39654" lon="-4.42005">
        <ele>6</ele>
        <time>2020-06-08T16:42:38Z</time>
      </trkpt>
      <trkpt lat="48.39656" lon="-4.42012">
        <ele>6</ele>
        <time>2020-06-08T16:42:39Z</time>
      </trkpt>
      <trkpt lat="48.39657" lon="-4.4202">
        <ele>6</ele>
        <time>2020-06-08T16:42:40Z</time>
      </trkpt>
      <trkpt lat="48.39659" lon="-4.42028">
        <ele>6</ele>
        <time>2020-06-08T16:42:41Z</time>
      </trkpt>
      <trkpt lat="48.39661" lon="-4.42036">
        <ele>5.8</ele>
        <time>2020-06-08T16:42:42Z</time>
      </trkpt>
      <trkpt lat="48.39665" lon="-4.42043">
        <ele>5.7</ele>
        <time>2020-06-08T16:42:43Z</time>
      </trkpt>
      <trkpt lat="48.39667" lon="-4.4205">
        <ele>5.5</ele>
        <time>2020-06-08T16:42:44Z</time>
      </trkpt>
      <trkpt lat="48.3967" lon="-4.42057">
        <ele>5.3</ele>
        <time>2020-06-08T16:42:45Z</time>
      </trkpt>
      <trkpt lat="48.39672" lon="-4.42064">
        <ele>5.1</ele>
        <time>2020-06-08T16:42:46Z</time>
      </trkpt>
      <trkpt lat="48.39674" lon="-4.42072">
        <ele>4.9</ele>
        <time>2020-06-08T16:42:47Z</time>
      </trkpt>
      <trkpt lat="48.39675" lon="-4.4208">
        <ele>4.7</ele>
        <time>2020-06-08T16:42:48Z</time>
      </trkpt>
      <trkpt lat="48.39677" lon="-4.42088">
        <ele>4.8</ele>
        <time>2020-06-08T16:42:49Z</time>
      </trkpt>
      <trkpt lat="48.39678" lon="-4.42096">
        <ele>4.9</ele>
        <time>2020-06-08T16:42:50Z</time>
      </trkpt>
      <trkpt lat="48.3968" lon="-4.42103">
        <ele>4.9</ele>
        <time>2020-06-08T16:42:51Z</time>
      </trkpt>
      <trkpt lat="48.39682" lon="-4.4211">
        <ele>5</ele>
        <time>2020-06-08T16:42:52Z</time>
      </trkpt>
      <trkpt lat="48.39684" lon="-4.42117">
        <ele>5</ele>
        <time>2020-06-08T16:42:53Z</time>
      </trkpt>
      <trkpt lat="48.39686" lon="-4.42125">
        <ele>5</ele>
        <time>2020-06-08T16:42:54Z</time>
      </trkpt>
      <trkpt lat="48.39689" lon="-4.42132">
        <ele>5</ele>
        <time>2020-06-08T16:42:55Z</time>
      </trkpt>
      <trkpt lat="48.3969" lon="-4.4214">
        <ele>5</ele>
        <time>2020-06-08T16:42:56Z</time>
      </trkpt>
      <trkpt lat="48.39692" lon="-4.42147">
        <ele>5</ele>
        <time>2020-06-08T16:42:57Z</time>
      </trkpt>
      <trkpt lat="48.39694" lon="-4.42155">
        <ele>5</ele>
        <time>2020-06-08T16:42:58Z</time>
      </trkpt>
      <trkpt lat="48.39697" lon="-4.42162">
        <ele>5</ele>
        <time>2020-06-08T16:42:59Z</time>
      </trkpt>
      <trkpt lat="48.397" lon="-4.4217">
        <ele>5</ele>
        <time>2020-06-08T16:43:00Z</time>
      </trkpt>
      <trkpt lat="48.39702" lon="-4.42177">
        <ele>5</ele>
        <time>2020-06-08T16:43:01Z</time>
      </trkpt>
      <trkpt lat="48.39706" lon="-4.42184">
        <ele>5</ele>
        <time>2020-06-08T16:43:02Z</time>
      </trkpt>
      <trkpt lat="48.39708" lon="-4.42192">
        <ele>5</ele>
        <time>2020-06-08T16:43:03Z</time>
      </trkpt>
      <trkpt lat="48.3971" lon="-4.422">
        <ele>5.1</ele>
        <time>2020-06-08T16:43:04Z</time>
      </trkpt>
      <trkpt lat="48.39712" lon="-4.42207">
        <ele>5</ele>
        <time>2020-06-08T16:43:05Z</time>
      </trkpt>
      <trkpt lat="48.39714" lon="-4.42215">
        <ele>5</ele>
        <time>2020-06-08T16:43:06Z</time>
      </trkpt>
      <trkpt lat="48.39716" lon="-4.42222">
        <ele>5</ele>
        <time>2020-06-08T16:43:07Z</time>
      </trkpt>
      <trkpt lat="48.39717" lon="-4.4223">
        <ele>4.9</ele>
        <time>2020-06-08T16:43:08Z</time>
      </trkpt>
      <trkpt lat="48.39717" lon="-4.42238">
        <ele>4.9</ele>
        <time>2020-06-08T16:43:09Z</time>
      </trkpt>
      <trkpt lat="48.39718" lon="-4.42245">
        <ele>4.9</ele>
        <time>2020-06-08T16:43:10Z</time>
      </trkpt>
      <trkpt lat="48.39719" lon="-4.42253">
        <ele>4.9</ele>
        <time>2020-06-08T16:43:11Z</time>
      </trkpt>
      <trkpt lat="48.39721" lon="-4.4226">
        <ele>4.9</ele>
        <time>2020-06-08T16:43:12Z</time>
      </trkpt>
      <trkpt lat="48.39723" lon="-4.42267">
        <ele>4.9</ele>
        <time>2020-06-08T16:43:13Z</time>
      </trkpt>
      <trkpt lat="48.39725" lon="-4.42274">
        <ele>5</ele>
        <time>2020-06-08T16:43:14Z</time>
      </trkpt>
      <trkpt lat="48.39728" lon="-4.42279">
        <ele>5.1</ele>
        <time>2020-06-08T16:43:15Z</time>
      </trkpt>
      <trkpt lat="48.39731" lon="-4.42285">
        <ele>5.2</ele>
        <time>2020-06-08T16:43:16Z</time>
      </trkpt>
      <trkpt lat="48.39733" lon="-4.42291">
        <ele>5.3</ele>
        <time>2020-06-08T16:43:17Z</time>
      </trkpt>
      <trkpt lat="48.39734" lon="-4.42297">
        <ele>5.4</ele>
        <time>2020-06-08T16:43:18Z</time>
      </trkpt>
      <trkpt lat="48.39736" lon="-4.42303">
        <ele>5.6</ele>
        <time>2020-06-08T16:43:19Z</time>
      </trkpt>
      <trkpt lat="48.39737" lon="-4.42309">
        <ele>5.7</ele>
        <time>2020-06-08T16:43:20Z</time>
      </trkpt>
      <trkpt lat="48.39739" lon="-4.42316">
        <ele>5.9</ele>
        <time>2020-06-08T16:43:21Z</time>
      </trkpt>
      <trkpt lat="48.3974" lon="-4.42323">
        <ele>6.1</ele>
        <time>2020-06-08T16:43:22Z</time>
      </trkpt>
      <trkpt lat="48.39742" lon="-4.4233">
        <ele>6.2</ele>
        <time>2020-06-08T16:43:23Z</time>
      </trkpt>
      <trkpt lat="48.39743" lon="-4.42337">
        <ele>6.3</ele>
        <time>2020-06-08T16:43:24Z</time>
      </trkpt>
      <trkpt lat="48.39745" lon="-4.42344">
        <ele>6.5</ele>
        <time>2020-06-08T16:43:25Z</time>
      </trkpt>
      <trkpt lat="48.39747" lon="-4.4235">
        <ele>6.6</ele>
        <time>2020-06-08T16:43:26Z</time>
      </trkpt>
      <trkpt lat="48.39748" lon="-4.42356">
        <ele>6.8</ele>
        <time>2020-06-08T16:43:27Z</time>
      </trkpt>
      <trkpt lat="48.3975" lon="-4.42361">
        <ele>7</ele>
        <time>2020-06-08T16:43:28Z</time>
      </trkpt>
      <trkpt lat="48.39751" lon="-4.42367">
        <ele>7.2</ele>
        <time>2020-06-08T16:43:29Z</time>
      </trkpt>
      <trkpt lat="48.39753" lon="-4.42372">
        <ele>7.3</ele>
        <time>2020-06-08T16:43:30Z</time>
      </trkpt>
      <trkpt lat="48.39754" lon="-4.42377">
        <ele>7.5</ele>
        <time>2020-06-08T16:43:31Z</time>
      </trkpt>
      <trkpt lat="48.39755" lon="-4.42382">
        <ele>7.6</ele>
        <time>2020-06-08T16:43:32Z</time>
      </trkpt>
      <trkpt lat="48.39756" lon="-4.42388">
        <ele>7.8</ele>
        <time>2020-06-08T16:43:33Z</time>
      </trkpt>
      <trkpt lat="48.39757" lon="-4.42393">
        <ele>7.9</ele>
        <time>2020-06-08T16:43:34Z</time>
      </trkpt>
      <trkpt lat="48.39758" lon="-4.42398">
        <ele>8.1</ele>
        <time>2020-06-08T16:43:35Z</time>
      </trkpt>
      <trkpt lat="48.39759" lon="-4.42402">
        <ele>8.2</ele>
        <time>2020-06-08T16:43:36Z</time>
      </trkpt>
      <trkpt lat="48.39759" lon="-4.42407">
        <ele>8.4</ele>
        <time>2020-06-08T16:43:37Z</time>
      </trkpt>
      <trkpt lat="48.39759" lon="-4.42408">
        <ele>8.4</ele>
        <time>2020-06-08T16:43:38Z</time>
      </trkpt>
      <trkpt lat="48.3976" lon="-4.42412">
        <ele>8.5</ele>
        <time>2020-06-08T16:43:39Z</time>
      </trkpt>
      <trkpt lat="48.39761" lon="-4.42414">
        <ele>8.6</ele>
        <time>2020-06-08T16:43:40Z</time>
      </trkpt>
      <trkpt lat="48.39761" lon="-4.42419">
        <ele>8.8</ele>
        <time>2020-06-08T16:43:41Z</time>
      </trkpt>
      <trkpt lat="48.39761" lon="-4.42421">
        <ele>8.8</ele>
        <time>2020-06-08T16:43:42Z</time>
      </trkpt>
      <trkpt lat="48.39762" lon="-4.42425">
        <ele>9</ele>
        <time>2020-06-08T16:43:43Z</time>
      </trkpt>
      <trkpt lat="48.39763" lon="-4.42427">
        <ele>9</ele>
        <time>2020-06-08T16:43:44Z</time>
      </trkpt>
      <trkpt lat="48.39764" lon="-4.42431">
        <ele>9.2</ele>
        <time>2020-06-08T16:43:45Z</time>
      </trkpt>
      <trkpt lat="48.39765" lon="-4.42432">
        <ele>9.2</ele>
        <time>2020-06-08T16:43:46Z</time>
      </trkpt>
      <trkpt lat="48.39766" lon="-4.42436">
        <ele>9.4</ele>
        <time>2020-06-08T16:43:47Z</time>
      </trkpt>
      <trkpt lat="48.39766" lon="-4.42438">
        <ele>9.4</ele>
        <time>2020-06-08T16:43:48Z</time>
      </trkpt>
      <trkpt lat="48.39767" lon="-4.42443">
        <ele>9.6</ele>
        <time>2020-06-08T16:43:49Z</time>
      </trkpt>
      <trkpt lat="48.39767" lon="-4.42445">
        <ele>9.7</ele>
        <time>2020-06-08T16:43:50Z</time>
      </trkpt>
      <trkpt lat="48.39769" lon="-4.4245">
        <ele>9.9</ele>
        <time>2020-06-08T16:43:51Z</time>
      </trkpt>
      <trkpt lat="48.39769" lon="-4.42451">
        <ele>9.9</ele>
        <time>2020-06-08T16:43:52Z</time>
      </trkpt>
      <trkpt lat="48.3977" lon="-4.42457">
        <ele>10.1</ele>
        <time>2020-06-08T16:43:53Z</time>
      </trkpt>
      <trkpt lat="48.3977" lon="-4.42458">
        <ele>10.2</ele>
        <time>2020-06-08T16:43:54Z</time>
      </trkpt>
      <trkpt lat="48.39773" lon="-4.42463">
        <ele>10.4</ele>
        <time>2020-06-08T16:43:55Z</time>
      </trkpt>
      <trkpt lat="48.39773" lon="-4.42465">
        <ele>10.5</ele>
        <time>2020-06-08T16:43:56Z</time>
      </trkpt>
      <trkpt lat="48.39775" lon="-4.42469">
        <ele>10.7</ele>
        <time>2020-06-08T16:43:57Z</time>
      </trkpt>
      <trkpt lat="48.39776" lon="-4.42473">
        <ele>10.8</ele>
        <time>2020-06-08T16:43:58Z</time>
      </trkpt>
      <trkpt lat="48.39778" lon="-4.42477">
        <ele>11</ele>
        <time>2020-06-08T16:43:59Z</time>
      </trkpt>
      <trkpt lat="48.39779" lon="-4.42482">
        <ele>11.2</ele>
        <time>2020-06-08T16:44:00Z</time>
      </trkpt>
      <trkpt lat="48.3978" lon="-4.42487">
        <ele>11.4</ele>
        <time>2020-06-08T16:44:01Z</time>
      </trkpt>
      <trkpt lat="48.39781" lon="-4.42492">
        <ele>11.5</ele>
        <time>2020-06-08T16:44:02Z</time>
      </trkpt>
      <trkpt lat="48.39782" lon="-4.42497">
        <ele>11.7</ele>
        <time>2020-06-08T16:44:03Z</time>
      </trkpt>
      <trkpt lat="48.39783" lon="-4.42502">
        <ele>11.9</ele>
        <time>2020-06-08T16:44:04Z</time>
      </trkpt>
      <trkpt lat="48.39784" lon="-4.42508">
        <ele>12</ele>
        <time>2020-06-08T16:44:05Z</time>
      </trkpt>
      <trkpt lat="48.39785" lon="-4.42513">
        <ele>12.2</ele>
        <time>2020-06-08T16:44:06Z</time>
      </trkpt>
      <trkpt lat="48.39786" lon="-4.42518">
        <ele>12.4</ele>
        <time>2020-06-08T16:44:07Z</time>
      </trkpt>
      <trkpt lat="48.39786" lon="-4.42524">
        <ele>12.5</ele>
        <time>2020-06-08T16:44:08Z</time>
      </trkpt>
      <trkpt lat="48.39786" lon="-4.42529">
        <ele>12.7</ele>
        <time>2020-06-08T16:44:09Z</time>
      </trkpt>
      <trkpt lat="48.39787" lon="-4.42534">
        <ele>12.8</ele>
        <time>2020-06-08T16:44:10Z</time>
      </trkpt>
      <trkpt lat="48.39787" lon="-4.42539">
        <ele>13</ele>
        <time>2020-06-08T16:44:11Z</time>
      </trkpt>
      <trkpt lat="48.39787" lon="-4.42544">
        <ele>13.2</ele>
        <time>2020-06-08T16:44:12Z</time>
      </trkpt>
      <trkpt lat="48.39787" lon="-4.42549">
        <ele>13.3</ele>
        <time>2020-06-08T16:44:13Z</time>
      </trkpt>
      <trkpt lat="48.39787" lon="-4.42553">
        <ele>13.4</ele>
        <time>2020-06-08T16:44:14Z</time>
      </trkpt>
      <trkpt lat="48.39787" lon="-4.42557">
        <ele>13.6</ele>
        <time>2020-06-08T16:44:15Z</time>
      </trkpt>
      <trkpt lat="48.39788" lon="-4.42561">
        <ele>13.7</ele>
        <time>2020-06-08T16:44:16Z</time>
      </trkpt>
      <trkpt lat="48.39788" lon="-4.42566">
        <ele>13.8</ele>
        <time>2020-06-08T16:44:17Z</time>
      </trkpt>
      <trkpt lat="48.39788" lon="-4.42571">
        <ele>14</ele>
        <time>2020-06-08T16:44:18Z</time>
      </trkpt>
      <trkpt lat="48.39787" lon="-4.42577">
        <ele>14.1</ele>
        <time>2020-06-08T16:44:19Z</time>
      </trkpt>
      <trkpt lat="48.39787" lon="-4.42582">
        <ele>14.2</ele>
        <time>2020-06-08T16:44:20Z</time>
      </trkpt>
      <trkpt lat="48.39787" lon="-4.42587">
        <ele>14.4</ele>
        <time>2020-06-08T16:44:21Z</time>
      </trkpt>
      <trkpt lat="48.39787" lon="-4.42593">
        <ele>14.5</ele>
        <time>2020-06-08T16:44:22Z</time>
      </trkpt>
      <trkpt lat="48.39787" lon="-4.42598">
        <ele>14.6</ele>
        <time>2020-06-08T16:44:23Z</time>
      </trkpt>
      <trkpt lat="48.39787" lon="-4.42603">
        <ele>14.8</ele>
        <time>2020-06-08T16:44:24Z</time>
      </trkpt>
      <trkpt lat="48.39787" lon="-4.42608">
        <ele>14.9</ele>
        <time>2020-06-08T16:44:25Z</time>
      </trkpt>
      <trkpt lat="48.39788" lon="-4.42613">
        <ele>15</ele>
        <time>2020-06-08T16:44:26Z</time>
      </trkpt>
      <trkpt lat="48.39787" lon="-4.42617">
        <ele>15.1</ele>
        <time>2020-06-08T16:44:27Z</time>
      </trkpt>
      <trkpt lat="48.39787" lon="-4.42622">
        <ele>15.2</ele>
        <time>2020-06-08T16:44:28Z</time>
      </trkpt>
      <trkpt lat="48.39788" lon="-4.42626">
        <ele>15.3</ele>
        <time>2020-06-08T16:44:29Z</time>
      </trkpt>
      <trkpt lat="48.39789" lon="-4.4263">
        <ele>15.4</ele>
        <time>2020-06-08T16:44:30Z</time>
      </trkpt>
      <trkpt lat="48.39789" lon="-4.42634">
        <ele>15.5</ele>
        <time>2020-06-08T16:44:31Z</time>
      </trkpt>
      <trkpt lat="48.39789" lon="-4.42639">
        <ele>15.5</ele>
        <time>2020-06-08T16:44:32Z</time>
      </trkpt>
      <trkpt lat="48.39789" lon="-4.42643">
        <ele>15.6</ele>
        <time>2020-06-08T16:44:33Z</time>
      </trkpt>
      <trkpt lat="48.39791" lon="-4.42648">
        <ele>15.7</ele>
        <time>2020-06-08T16:44:34Z</time>
      </trkpt>
      <trkpt lat="48.39791" lon="-4.42652">
        <ele>15.8</ele>
        <time>2020-06-08T16:44:35Z</time>
      </trkpt>
      <trkpt lat="48.39791" lon="-4.42657">
        <ele>15.8</ele>
        <time>2020-06-08T16:44:36Z</time>
      </trkpt>
      <trkpt lat="48.39791" lon="-4.42662">
        <ele>15.9</ele>
        <time>2020-06-08T16:44:37Z</time>
      </trkpt>
      <trkpt lat="48.39792" lon="-4.42667">
        <ele>16</ele>
        <time>2020-06-08T16:44:38Z</time>
      </trkpt>
      <trkpt lat="48.39791" lon="-4.42672">
        <ele>16.1</ele>
        <time>2020-06-08T16:44:39Z</time>
      </trkpt>
      <trkpt lat="48.3979" lon="-4.42678">
        <ele>16.1</ele>
        <time>2020-06-08T16:44:40Z</time>
      </trkpt>
      <trkpt lat="48.3979" lon="-4.42683">
        <ele>16.2</ele>
        <time>2020-06-08T16:44:41Z</time>
      </trkpt>
      <trkpt lat="48.39789" lon="-4.42688">
        <ele>16.2</ele>
        <time>2020-06-08T16:44:42Z</time>
      </trkpt>
      <trkpt lat="48.39789" lon="-4.42693">
        <ele>16.2</ele>
        <time>2020-06-08T16:44:43Z</time>
      </trkpt>
      <trkpt lat="48.39788" lon="-4.42698">
        <ele>16.3</ele>
        <time>2020-06-08T16:44:44Z</time>
      </trkpt>
      <trkpt lat="48.39788" lon="-4.42703">
        <ele>16.3</ele>
        <time>2020-06-08T16:44:45Z</time>
      </trkpt>
      <trkpt lat="48.39788" lon="-4.42708">
        <ele>16.3</ele>
        <time>2020-06-08T16:44:46Z</time>
      </trkpt>
      <trkpt lat="48.39788" lon="-4.42713">
        <ele>16.4</ele>
        <time>2020-06-08T16:44:47Z</time>
      </trkpt>
      <trkpt lat="48.39787" lon="-4.42718">
        <ele>16.4</ele>
        <time>2020-06-08T16:44:48Z</time>
      </trkpt>
      <trkpt lat="48.39787" lon="-4.42723">
        <ele>16.4</ele>
        <time>2020-06-08T16:44:49Z</time>
      </trkpt>
      <trkpt lat="48.39787" lon="-4.42727">
        <ele>16.4</ele>
        <time>2020-06-08T16:44:50Z</time>
      </trkpt>
      <trkpt lat="48.39787" lon="-4.42731">
        <ele>16.5</ele>
        <time>2020-06-08T16:44:51Z</time>
      </trkpt>
      <trkpt lat="48.39786" lon="-4.42736">
        <ele>16.5</ele>
        <time>2020-06-08T16:44:52Z</time>
      </trkpt>
      <trkpt lat="48.39786" lon="-4.42741">
        <ele>16.5</ele>
        <time>2020-06-08T16:44:53Z</time>
      </trkpt>
      <trkpt lat="48.39786" lon="-4.42747">
        <ele>16.6</ele>
        <time>2020-06-08T16:44:54Z</time>
      </trkpt>
      <trkpt lat="48.39785" lon="-4.42752">
        <ele>16.6</ele>
        <time>2020-06-08T16:44:55Z</time>
      </trkpt>
      <trkpt lat="48.39785" lon="-4.42757">
        <ele>16.7</ele>
        <time>2020-06-08T16:44:56Z</time>
      </trkpt>
      <trkpt lat="48.39785" lon="-4.42762">
        <ele>16.7</ele>
        <time>2020-06-08T16:44:57Z</time>
      </trkpt>
      <trkpt lat="48.39785" lon="-4.42767">
        <ele>16.7</ele>
        <time>2020-06-08T16:44:58Z</time>
      </trkpt>
      <trkpt lat="48.39785" lon="-4.42772">
        <ele>16.8</ele>
        <time>2020-06-08T16:44:59Z</time>
      </trkpt>
      <trkpt lat="48.39785" lon="-4.42776">
        <ele>16.8</ele>
        <time>2020-06-08T16:45:00Z</time>
      </trkpt>
      <trkpt lat="48.39785" lon="-4.42781">
        <ele>16.9</ele>
        <time>2020-06-08T16:45:01Z</time>
      </trkpt>
      <trkpt lat="48.39786" lon="-4.42783">
        <ele>16.9</ele>
        <time>2020-06-08T16:45:02Z</time>
      </trkpt>
      <trkpt lat="48.39785" lon="-4.42789">
        <ele>16.9</ele>
        <time>2020-06-08T16:45:03Z</time>
      </trkpt>
      <trkpt lat="48.39785" lon="-4.42791">
        <ele>16.9</ele>
        <time>2020-06-08T16:45:04Z</time>
      </trkpt>
      <trkpt lat="48.39784" lon="-4.42796">
        <ele>17</ele>
        <time>2020-06-08T16:45:05Z</time>
      </trkpt>
      <trkpt lat="48.39784" lon="-4.42798">
        <ele>17</ele>
        <time>2020-06-08T16:45:06Z</time>
      </trkpt>
      <trkpt lat="48.39784" lon="-4.42803">
        <ele>17</ele>
        <time>2020-06-08T16:45:07Z</time>
      </trkpt>
      <trkpt lat="48.39784" lon="-4.42804">
        <ele>17</ele>
        <time>2020-06-08T16:45:08Z</time>
      </trkpt>
      <trkpt lat="48.39784" lon="-4.4281">
        <ele>17</ele>
        <time>2020-06-08T16:45:09Z</time>
      </trkpt>
      <trkpt lat="48.39784" lon="-4.42812">
        <ele>17</ele>
        <time>2020-06-08T16:45:10Z</time>
      </trkpt>
      <trkpt lat="48.39782" lon="-4.42817">
        <ele>17.1</ele>
        <time>2020-06-08T16:45:11Z</time>
      </trkpt>
      <trkpt lat="48.39782" lon="-4.42819">
        <ele>17.1</ele>
        <time>2020-06-08T16:45:12Z</time>
      </trkpt>
      <trkpt lat="48.3978" lon="-4.42824">
        <ele>17.1</ele>
        <time>2020-06-08T16:45:13Z</time>
      </trkpt>
      <trkpt lat="48.3978" lon="-4.42826">
        <ele>17.1</ele>
        <time>2020-06-08T16:45:14Z</time>
      </trkpt>
      <trkpt lat="48.3978" lon="-4.42832">
        <ele>17.2</ele>
        <time>2020-06-08T16:45:15Z</time>
      </trkpt>
      <trkpt lat="48.3978" lon="-4.42834">
        <ele>17.2</ele>
        <time>2020-06-08T16:45:16Z</time>
      </trkpt>
      <trkpt lat="48.3978" lon="-4.42838">
        <ele>17.2</ele>
        <time>2020-06-08T16:45:17Z</time>
      </trkpt>
      <trkpt lat="48.3978" lon="-4.42842">
        <ele>17.3</ele>
        <time>2020-06-08T16:45:18Z</time>
      </trkpt>
      <trkpt lat="48.39781" lon="-4.42847">
        <ele>17.3</ele>
        <time>2020-06-08T16:45:19Z</time>
      </trkpt>
      <trkpt lat="48.39779" lon="-4.42851">
        <ele>17.3</ele>
        <time>2020-06-08T16:45:20Z</time>
      </trkpt>
      <trkpt lat="48.39778" lon="-4.42855">
        <ele>17.4</ele>
        <time>2020-06-08T16:45:21Z</time>
      </trkpt>
      <trkpt lat="48.39778" lon="-4.4286">
        <ele>17.4</ele>
        <time>2020-06-08T16:45:22Z</time>
      </trkpt>
      <trkpt lat="48.39778" lon="-4.42862">
        <ele>17.4</ele>
        <time>2020-06-08T16:45:23Z</time>
      </trkpt>
      <trkpt lat="48.39778" lon="-4.42867">
        <ele>17.4</ele>
        <time>2020-06-08T16:45:24Z</time>
      </trkpt>
      <trkpt lat="48.39778" lon="-4.42869">
        <ele>17.4</ele>
        <time>2020-06-08T16:45:25Z</time>
      </trkpt>
      <trkpt lat="48.39779" lon="-4.42875">
        <ele>17.4</ele>
        <time>2020-06-08T16:45:26Z</time>
      </trkpt>
      <trkpt lat="48.39779" lon="-4.42877">
        <ele>17.4</ele>
        <time>2020-06-08T16:45:27Z</time>
      </trkpt>
      <trkpt lat="48.39779" lon="-4.42881">
        <ele>17.5</ele>
        <time>2020-06-08T16:45:28Z</time>
      </trkpt>
      <trkpt lat="48.39778" lon="-4.42886">
        <ele>17.5</ele>
        <time>2020-06-08T16:45:29Z</time>
      </trkpt>
      <trkpt lat="48.39777" lon="-4.42891">
        <ele>17.5</ele>
        <time>2020-06-08T16:45:30Z</time>
      </trkpt>
      <trkpt lat="48.39777" lon="-4.42896">
        <ele>17.5</ele>
        <time>2020-06-08T16:45:31Z</time>
      </trkpt>
      <trkpt lat="48.39777" lon="-4.42901">
        <ele>17.5</ele>
        <time>2020-06-08T16:45:32Z</time>
      </trkpt>
      <trkpt lat="48.39777" lon="-4.42906">
        <ele>17.5</ele>
        <time>2020-06-08T16:45:33Z</time>
      </trkpt>
      <trkpt lat="48.39776" lon="-4.42911">
        <ele>17.5</ele>
        <time>2020-06-08T16:45:34Z</time>
      </trkpt>
      <trkpt lat="48.39776" lon="-4.42917">
        <ele>17.5</ele>
        <time>2020-06-08T16:45:35Z</time>
      </trkpt>
      <trkpt lat="48.39776" lon="-4.42922">
        <ele>17.5</ele>
        <time>2020-06-08T16:45:36Z</time>
      </trkpt>
      <trkpt lat="48.39775" lon="-4.42927">
        <ele>17.5</ele>
        <time>2020-06-08T16:45:37Z</time>
      </trkpt>
      <trkpt lat="48.39775" lon="-4.42932">
        <ele>17.5</ele>
        <time>2020-06-08T16:45:38Z</time>
      </trkpt>
      <trkpt lat="48.39774" lon="-4.42937">
        <ele>17.5</ele>
        <time>2020-06-08T16:45:39Z</time>
      </trkpt>
      <trkpt lat="48.39774" lon="-4.42942">
        <ele>17.5</ele>
        <time>2020-06-08T16:45:40Z</time>
      </trkpt>
      <trkpt lat="48.39773" lon="-4.42948">
        <ele>17.5</ele>
        <time>2020-06-08T16:45:41Z</time>
      </trkpt>
      <trkpt lat="48.39773" lon="-4.42954">
        <ele>17.5</ele>
        <time>2020-06-08T16:45:42Z</time>
      </trkpt>
      <trkpt lat="48.39773" lon="-4.42959">
        <ele>17.5</ele>
        <time>2020-06-08T16:45:43Z</time>
      </trkpt>
      <trkpt lat="48.39772" lon="-4.42965">
        <ele>17.4</ele>
        <time>2020-06-08T16:45:44Z</time>
      </trkpt>
      <trkpt lat="48.39772" lon="-4.4297">
        <ele>17.4</ele>
        <time>2020-06-08T16:45:45Z</time>
      </trkpt>
      <trkpt lat="48.39772" lon="-4.42974">
        <ele>17.4</ele>
        <time>2020-06-08T16:45:46Z</time>
      </trkpt>
      <trkpt lat="48.39772" lon="-4.42979">
        <ele>17.3</ele>
        <time>2020-06-08T16:45:47Z</time>
      </trkpt>
      <trkpt lat="48.39771" lon="-4.42985">
        <ele>17.3</ele>
        <time>2020-06-08T16:45:48Z</time>
      </trkpt>
      <trkpt lat="48.39771" lon="-4.4299">
        <ele>17.2</ele>
        <time>2020-06-08T16:45:49Z</time>
      </trkpt>
      <trkpt lat="48.3977" lon="-4.42995">
        <ele>17.2</ele>
        <time>2020-06-08T16:45:50Z</time>
      </trkpt>
      <trkpt lat="48.3977" lon="-4.43">
        <ele>17.1</ele>
        <time>2020-06-08T16:45:51Z</time>
      </trkpt>
      <trkpt lat="48.3977" lon="-4.43005">
        <ele>17</ele>
        <time>2020-06-08T16:45:52Z</time>
      </trkpt>
      <trkpt lat="48.39769" lon="-4.4301">
        <ele>17</ele>
        <time>2020-06-08T16:45:53Z</time>
      </trkpt>
      <trkpt lat="48.39769" lon="-4.43015">
        <ele>16.9</ele>
        <time>2020-06-08T16:45:54Z</time>
      </trkpt>
      <trkpt lat="48.39769" lon="-4.43016">
        <ele>16.9</ele>
        <time>2020-06-08T16:45:55Z</time>
      </trkpt>
      <trkpt lat="48.39769" lon="-4.43021">
        <ele>16.8</ele>
        <time>2020-06-08T16:45:56Z</time>
      </trkpt>
      <trkpt lat="48.39769" lon="-4.43023">
        <ele>16.8</ele>
        <time>2020-06-08T16:45:57Z</time>
      </trkpt>
      <trkpt lat="48.39768" lon="-4.43027">
        <ele>16.7</ele>
        <time>2020-06-08T16:45:58Z</time>
      </trkpt>
      <trkpt lat="48.39767" lon="-4.43033">
        <ele>16.6</ele>
        <time>2020-06-08T16:45:59Z</time>
      </trkpt>
      <trkpt lat="48.39767" lon="-4.43039">
        <ele>16.5</ele>
        <time>2020-06-08T16:46:00Z</time>
      </trkpt>
      <trkpt lat="48.39767" lon="-4.43046">
        <ele>16.3</ele>
        <time>2020-06-08T16:46:01Z</time>
      </trkpt>
      <trkpt lat="48.39766" lon="-4.43054">
        <ele>16.2</ele>
        <time>2020-06-08T16:46:02Z</time>
      </trkpt>
      <trkpt lat="48.39765" lon="-4.43062">
        <ele>16</ele>
        <time>2020-06-08T16:46:03Z</time>
      </trkpt>
      <trkpt lat="48.39765" lon="-4.4307">
        <ele>15.9</ele>
        <time>2020-06-08T16:46:04Z</time>
      </trkpt>
      <trkpt lat="48.39764" lon="-4.43078">
        <ele>15.8</ele>
        <time>2020-06-08T16:46:05Z</time>
      </trkpt>
      <trkpt lat="48.39763" lon="-4.43085">
        <ele>15.6</ele>
        <time>2020-06-08T16:46:06Z</time>
      </trkpt>
      <trkpt lat="48.39761" lon="-4.43093">
        <ele>15.5</ele>
        <time>2020-06-08T16:46:07Z</time>
      </trkpt>
      <trkpt lat="48.39759" lon="-4.43102">
        <ele>15.3</ele>
        <time>2020-06-08T16:46:08Z</time>
      </trkpt>
      <trkpt lat="48.39758" lon="-4.4311">
        <ele>15.1</ele>
        <time>2020-06-08T16:46:09Z</time>
      </trkpt>
      <trkpt lat="48.39756" lon="-4.43119">
        <ele>15</ele>
        <time>2020-06-08T16:46:10Z</time>
      </trkpt>
      <trkpt lat="48.39754" lon="-4.43128">
        <ele>14.8</ele>
        <time>2020-06-08T16:46:11Z</time>
      </trkpt>
      <trkpt lat="48.39753" lon="-4.43137">
        <ele>14.7</ele>
        <time>2020-06-08T16:46:12Z</time>
      </trkpt>
      <trkpt lat="48.39752" lon="-4.43146">
        <ele>14.6</ele>
        <time>2020-06-08T16:46:13Z</time>
      </trkpt>
      <trkpt lat="48.39751" lon="-4.43155">
        <ele>14.6</ele>
        <time>2020-06-08T16:46:14Z</time>
      </trkpt>
      <trkpt lat="48.39749" lon="-4.43165">
        <ele>14.5</ele>
        <time>2020-06-08T16:46:15Z</time>
      </trkpt>
      <trkpt lat="48.39747" lon="-4.43173">
        <ele>14.4</ele>
        <time>2020-06-08T16:46:16Z</time>
      </trkpt>
      <trkpt lat="48.39745" lon="-4.43182">
        <ele>14.3</ele>
        <time>2020-06-08T16:46:17Z</time>
      </trkpt>
      <trkpt lat="48.39743" lon="-4.43191">
        <ele>14.2</ele>
        <time>2020-06-08T16:46:18Z</time>
      </trkpt>
      <trkpt lat="48.39741" lon="-4.432">
        <ele>14</ele>
        <time>2020-06-08T16:46:19Z</time>
      </trkpt>
      <trkpt lat="48.39738" lon="-4.43209">
        <ele>13.9</ele>
        <time>2020-06-08T16:46:20Z</time>
      </trkpt>
      <trkpt lat="48.39736" lon="-4.43218">
        <ele>13.8</ele>
        <time>2020-06-08T16:46:21Z</time>
      </trkpt>
      <trkpt lat="48.39734" lon="-4.43227">
        <ele>13.8</ele>
        <time>2020-06-08T16:46:22Z</time>
      </trkpt>
      <trkpt lat="48.39732" lon="-4.43235">
        <ele>13.7</ele>
        <time>2020-06-08T16:46:23Z</time>
      </trkpt>
      <trkpt lat="48.39729" lon="-4.43243">
        <ele>13.6</ele>
        <time>2020-06-08T16:46:24Z</time>
      </trkpt>
      <trkpt lat="48.39727" lon="-4.43251">
        <ele>13.6</ele>
        <time>2020-06-08T16:46:25Z</time>
      </trkpt>
      <trkpt lat="48.39725" lon="-4.43259">
        <ele>13.5</ele>
        <time>2020-06-08T16:46:26Z</time>
      </trkpt>
      <trkpt lat="48.39723" lon="-4.43268">
        <ele>13.5</ele>
        <time>2020-06-08T16:46:27Z</time>
      </trkpt>
      <trkpt lat="48.39721" lon="-4.43276">
        <ele>13.5</ele>
        <time>2020-06-08T16:46:28Z</time>
      </trkpt>
      <trkpt lat="48.39719" lon="-4.43285">
        <ele>13.4</ele>
        <time>2020-06-08T16:46:29Z</time>
      </trkpt>
      <trkpt lat="48.39716" lon="-4.43292">
        <ele>13.3</ele>
        <time>2020-06-08T16:46:30Z</time>
      </trkpt>
      <trkpt lat="48.39714" lon="-4.43301">
        <ele>13.3</ele>
        <time>2020-06-08T16:46:31Z</time>
      </trkpt>
      <trkpt lat="48.39711" lon="-4.43309">
        <ele>13.2</ele>
        <time>2020-06-08T16:46:32Z</time>
      </trkpt>
      <trkpt lat="48.39708" lon="-4.43316">
        <ele>13.1</ele>
        <time>2020-06-08T16:46:33Z</time>
      </trkpt>
      <trkpt lat="48.39705" lon="-4.43324">
        <ele>13</ele>
        <time>2020-06-08T16:46:34Z</time>
      </trkpt>
      <trkpt lat="48.39702" lon="-4.43332">
        <ele>12.9</ele>
        <time>2020-06-08T16:46:35Z</time>
      </trkpt>
      <trkpt lat="48.39699" lon="-4.43339">
        <ele>12.8</ele>
        <time>2020-06-08T16:46:36Z</time>
      </trkpt>
      <trkpt lat="48.39696" lon="-4.43345">
        <ele>12.7</ele>
        <time>2020-06-08T16:46:37Z</time>
      </trkpt>
      <trkpt lat="48.39695" lon="-4.43351">
        <ele>12.6</ele>
        <time>2020-06-08T16:46:38Z</time>
      </trkpt>
      <trkpt lat="48.39693" lon="-4.43355">
        <ele>12.6</ele>
        <time>2020-06-08T16:46:39Z</time>
      </trkpt>
      <trkpt lat="48.39693" lon="-4.4336">
        <ele>12.5</ele>
        <time>2020-06-08T16:46:40Z</time>
      </trkpt>
      <trkpt lat="48.39691" lon="-4.43364">
        <ele>12.5</ele>
        <time>2020-06-08T16:46:41Z</time>
      </trkpt>
      <trkpt lat="48.39689" lon="-4.43368">
        <ele>12.3</ele>
        <time>2020-06-08T16:46:42Z</time>
      </trkpt>
      <trkpt lat="48.39687" lon="-4.43371">
        <ele>12.2</ele>
        <time>2020-06-08T16:46:43Z</time>
      </trkpt>
      <trkpt lat="48.39685" lon="-4.43374">
        <ele>12</ele>
        <time>2020-06-08T16:46:44Z</time>
      </trkpt>
      <trkpt lat="48.39683" lon="-4.43376">
        <ele>11.9</ele>
        <time>2020-06-08T16:46:45Z</time>
      </trkpt>
      <trkpt lat="48.39682" lon="-4.43376">
        <ele>11.9</ele>
        <time>2020-06-08T16:46:46Z</time>
      </trkpt>
      <trkpt lat="48.39682" lon="-4.43377">
        <ele>11.8</ele>
        <time>2020-06-08T16:46:47Z</time>
      </trkpt>
      <trkpt lat="48.39681" lon="-4.43378">
        <ele>11.8</ele>
        <time>2020-06-08T16:46:48Z</time>
      </trkpt>
      <trkpt lat="48.3968" lon="-4.43379">
        <ele>11.7</ele>
        <time>2020-06-08T16:46:49Z</time>
      </trkpt>
      <trkpt lat="48.39677" lon="-4.4338">
        <ele>11.6</ele>
        <time>2020-06-08T16:46:50Z</time>
      </trkpt>
      <trkpt lat="48.39676" lon="-4.43381">
        <ele>11.6</ele>
        <time>2020-06-08T16:46:51Z</time>
      </trkpt>
      <trkpt lat="48.39674" lon="-4.43384">
        <ele>11.4</ele>
        <time>2020-06-08T16:46:52Z</time>
      </trkpt>
      <trkpt lat="48.39672" lon="-4.43387">
        <ele>11.3</ele>
        <time>2020-06-08T16:46:53Z</time>
      </trkpt>
      <trkpt lat="48.39669" lon="-4.43389">
        <ele>11.2</ele>
        <time>2020-06-08T16:46:54Z</time>
      </trkpt>
      <trkpt lat="48.39665" lon="-4.43392">
        <ele>10.9</ele>
        <time>2020-06-08T16:46:55Z</time>
      </trkpt>
      <trkpt lat="48.39661" lon="-4.43396">
        <ele>10.7</ele>
        <time>2020-06-08T16:46:56Z</time>
      </trkpt>
      <trkpt lat="48.39656" lon="-4.43401">
        <ele>10.4</ele>
        <time>2020-06-08T16:46:57Z</time>
      </trkpt>
      <trkpt lat="48.39651" lon="-4.43405">
        <ele>10.1</ele>
        <time>2020-06-08T16:46:58Z</time>
      </trkpt>
      <trkpt lat="48.39646" lon="-4.43411">
        <ele>9.8</ele>
        <time>2020-06-08T16:46:59Z</time>
      </trkpt>
      <trkpt lat="48.39639" lon="-4.43414">
        <ele>9.4</ele>
        <time>2020-06-08T16:47:00Z</time>
      </trkpt>
      <trkpt lat="48.39632" lon="-4.43418">
        <ele>9.1</ele>
        <time>2020-06-08T16:47:01Z</time>
      </trkpt>
      <trkpt lat="48.39625" lon="-4.43422">
        <ele>8.8</ele>
        <time>2020-06-08T16:47:02Z</time>
      </trkpt>
      <trkpt lat="48.39618" lon="-4.43425">
        <ele>8.5</ele>
        <time>2020-06-08T16:47:03Z</time>
      </trkpt>
      <trkpt lat="48.39611" lon="-4.43428">
        <ele>8.2</ele>
        <time>2020-06-08T16:47:04Z</time>
      </trkpt>
      <trkpt lat="48.39604" lon="-4.4343">
        <ele>7.9</ele>
        <time>2020-06-08T16:47:05Z</time>
      </trkpt>
      <trkpt lat="48.39597" lon="-4.43433">
        <ele>7.8</ele>
        <time>2020-06-08T16:47:06Z</time>
      </trkpt>
      <trkpt lat="48.3959" lon="-4.43436">
        <ele>7.7</ele>
        <time>2020-06-08T16:47:07Z</time>
      </trkpt>
      <trkpt lat="48.39585" lon="-4.43438">
        <ele>7.6</ele>
        <time>2020-06-08T16:47:08Z</time>
      </trkpt>
      <trkpt lat="48.39581" lon="-4.4344">
        <ele>7.6</ele>
        <time>2020-06-08T16:47:09Z</time>
      </trkpt>
      <trkpt lat="48.39577" lon="-4.43441">
        <ele>7.6</ele>
        <time>2020-06-08T16:47:10Z</time>
      </trkpt>
      <trkpt lat="48.39574" lon="-4.43442">
        <ele>7.6</ele>
        <time>2020-06-08T16:47:11Z</time>
      </trkpt>
      <trkpt lat="48.39572" lon="-4.43443">
        <ele>7.6</ele>
        <time>2020-06-08T16:47:12Z</time>
      </trkpt>
      <trkpt lat="48.39571" lon="-4.43444">
        <ele>7.6</ele>
        <time>2020-06-08T16:47:13Z</time>
      </trkpt>
      <trkpt lat="48.3957" lon="-4.43445">
        <ele>7.6</ele>
        <time>2020-06-08T16:47:14Z</time>
      </trkpt>
      <trkpt lat="48.39568" lon="-4.43446">
        <ele>7.6</ele>
        <time>2020-06-08T16:47:15Z</time>
      </trkpt>
      <trkpt lat="48.39565" lon="-4.43446">
        <ele>7.6</ele>
        <time>2020-06-08T16:47:16Z</time>
      </trkpt>
      <trkpt lat="48.39564" lon="-4.43446">
        <ele>7.5</ele>
        <time>2020-06-08T16:47:17Z</time>
      </trkpt>
      <trkpt lat="48.39564" lon="-4.43441">
        <ele>7.6</ele>
        <time>2020-06-08T16:47:18Z</time>
      </trkpt>
      <trkpt lat="48.3956" lon="-4.43441">
        <ele>7.4</ele>
        <time>2020-06-08T16:47:19Z</time>
      </trkpt>
      <trkpt lat="48.39559" lon="-4.4344">
        <ele>7.4</ele>
        <time>2020-06-08T16:47:20Z</time>
      </trkpt>
      <trkpt lat="48.39556" lon="-4.43439">
        <ele>7.3</ele>
        <time>2020-06-08T16:47:21Z</time>
      </trkpt>
      <trkpt lat="48.39553" lon="-4.43437">
        <ele>7.2</ele>
        <time>2020-06-08T16:47:22Z</time>
      </trkpt>
      <trkpt lat="48.39551" lon="-4.43436">
        <ele>7.2</ele>
        <time>2020-06-08T16:47:23Z</time>
      </trkpt>
      <trkpt lat="48.39548" lon="-4.43433">
        <ele>7.1</ele>
        <time>2020-06-08T16:47:24Z</time>
      </trkpt>
      <trkpt lat="48.39547" lon="-4.43432">
        <ele>7.1</ele>
        <time>2020-06-08T16:47:25Z</time>
      </trkpt>
      <trkpt lat="48.39545" lon="-4.43428">
        <ele>7</ele>
        <time>2020-06-08T16:47:26Z</time>
      </trkpt>
      <trkpt lat="48.39542" lon="-4.43425">
        <ele>7</ele>
        <time>2020-06-08T16:47:27Z</time>
      </trkpt>
      <trkpt lat="48.3954" lon="-4.43423">
        <ele>6.9</ele>
        <time>2020-06-08T16:47:28Z</time>
      </trkpt>
      <trkpt lat="48.39539" lon="-4.43417">
        <ele>6.8</ele>
        <time>2020-06-08T16:47:29Z</time>
      </trkpt>
      <trkpt lat="48.39538" lon="-4.43415">
        <ele>6.8</ele>
        <time>2020-06-08T16:47:30Z</time>
      </trkpt>
      <trkpt lat="48.39537" lon="-4.43411">
        <ele>6.8</ele>
        <time>2020-06-08T16:47:31Z</time>
      </trkpt>
      <trkpt lat="48.39536" lon="-4.43406">
        <ele>6.8</ele>
        <time>2020-06-08T16:47:32Z</time>
      </trkpt>
      <trkpt lat="48.39536" lon="-4.43401">
        <ele>6.8</ele>
        <time>2020-06-08T16:47:33Z</time>
      </trkpt>
      <trkpt lat="48.39535" lon="-4.43395">
        <ele>6.7</ele>
        <time>2020-06-08T16:47:34Z</time>
      </trkpt>
      <trkpt lat="48.39535" lon="-4.43389">
        <ele>6.7</ele>
        <time>2020-06-08T16:47:35Z</time>
      </trkpt>
      <trkpt lat="48.39534" lon="-4.43384">
        <ele>6.7</ele>
        <time>2020-06-08T16:47:36Z</time>
      </trkpt>
      <trkpt lat="48.39534" lon="-4.43379">
        <ele>6.7</ele>
        <time>2020-06-08T16:47:37Z</time>
      </trkpt>
      <trkpt lat="48.39534" lon="-4.43374">
        <ele>6.7</ele>
        <time>2020-06-08T16:47:38Z</time>
      </trkpt>
      <trkpt lat="48.39535" lon="-4.43369">
        <ele>6.7</ele>
        <time>2020-06-08T16:47:39Z</time>
      </trkpt>
      <trkpt lat="48.39535" lon="-4.43364">
        <ele>6.7</ele>
        <time>2020-06-08T16:47:40Z</time>
      </trkpt>
      <trkpt lat="48.39535" lon="-4.4336">
        <ele>6.7</ele>
        <time>2020-06-08T16:47:41Z</time>
      </trkpt>
      <trkpt lat="48.39534" lon="-4.43356">
        <ele>6.7</ele>
        <time>2020-06-08T16:47:42Z</time>
      </trkpt>
      <trkpt lat="48.39533" lon="-4.43352">
        <ele>6.7</ele>
        <time>2020-06-08T16:47:43Z</time>
      </trkpt>
      <trkpt lat="48.3953" lon="-4.43348">
        <ele>6.7</ele>
        <time>2020-06-08T16:47:44Z</time>
      </trkpt>
      <trkpt lat="48.39527" lon="-4.43346">
        <ele>6.7</ele>
        <time>2020-06-08T16:47:45Z</time>
      </trkpt>
      <trkpt lat="48.39524" lon="-4.43345">
        <ele>6.7</ele>
        <time>2020-06-08T16:47:46Z</time>
      </trkpt>
      <trkpt lat="48.39521" lon="-4.43345">
        <ele>6.7</ele>
        <time>2020-06-08T16:47:47Z</time>
      </trkpt>
      <trkpt lat="48.39517" lon="-4.43346">
        <ele>6.8</ele>
        <time>2020-06-08T16:47:48Z</time>
      </trkpt>
      <trkpt lat="48.39514" lon="-4.43345">
        <ele>6.8</ele>
        <time>2020-06-08T16:47:49Z</time>
      </trkpt>
      <trkpt lat="48.3951" lon="-4.43345">
        <ele>6.8</ele>
        <time>2020-06-08T16:47:50Z</time>
      </trkpt>
      <trkpt lat="48.39507" lon="-4.43345">
        <ele>6.8</ele>
        <time>2020-06-08T16:47:51Z</time>
      </trkpt>
      <trkpt lat="48.39505" lon="-4.43345">
        <ele>6.8</ele>
        <time>2020-06-08T16:47:52Z</time>
      </trkpt>
      <trkpt lat="48.39502" lon="-4.43345">
        <ele>6.8</ele>
        <time>2020-06-08T16:47:53Z</time>
      </trkpt>
      <trkpt lat="48.39499" lon="-4.43343">
        <ele>6.8</ele>
        <time>2020-06-08T16:47:54Z</time>
      </trkpt>
      <trkpt lat="48.39496" lon="-4.43342">
        <ele>6.8</ele>
        <time>2020-06-08T16:47:55Z</time>
      </trkpt>
      <trkpt lat="48.39494" lon="-4.4334">
        <ele>6.8</ele>
        <time>2020-06-08T16:47:56Z</time>
      </trkpt>
      <trkpt lat="48.39491" lon="-4.43338">
        <ele>6.8</ele>
        <time>2020-06-08T16:47:57Z</time>
      </trkpt>
      <trkpt lat="48.39487" lon="-4.43338">
        <ele>6.8</ele>
        <time>2020-06-08T16:47:58Z</time>
      </trkpt>
      <trkpt lat="48.39484" lon="-4.43338">
        <ele>6.8</ele>
        <time>2020-06-08T16:47:59Z</time>
      </trkpt>
      <trkpt lat="48.3948" lon="-4.43338">
        <ele>6.8</ele>
        <time>2020-06-08T16:48:00Z</time>
      </trkpt>
      <trkpt lat="48.39477" lon="-4.43338">
        <ele>6.8</ele>
        <time>2020-06-08T16:48:01Z</time>
      </trkpt>
      <trkpt lat="48.39474" lon="-4.43338">
        <ele>6.8</ele>
        <time>2020-06-08T16:48:02Z</time>
      </trkpt>
      <trkpt lat="48.3947" lon="-4.43336">
        <ele>6.8</ele>
        <time>2020-06-08T16:48:03Z</time>
      </trkpt>
      <trkpt lat="48.39467" lon="-4.43336">
        <ele>6.8</ele>
        <time>2020-06-08T16:48:04Z</time>
      </trkpt>
      <trkpt lat="48.39464" lon="-4.43336">
        <ele>6.8</ele>
        <time>2020-06-08T16:48:05Z</time>
      </trkpt>
      <trkpt lat="48.3946" lon="-4.43336">
        <ele>6.8</ele>
        <time>2020-06-08T16:48:06Z</time>
      </trkpt>
      <trkpt lat="48.39457" lon="-4.43335">
        <ele>6.8</ele>
        <time>2020-06-08T16:48:07Z</time>
      </trkpt>
      <trkpt lat="48.39453" lon="-4.43335">
        <ele>6.8</ele>
        <time>2020-06-08T16:48:08Z</time>
      </trkpt>
      <trkpt lat="48.3945" lon="-4.43335">
        <ele>6.8</ele>
        <time>2020-06-08T16:48:09Z</time>
      </trkpt>
      <trkpt lat="48.39446" lon="-4.43335">
        <ele>6.8</ele>
        <time>2020-06-08T16:48:10Z</time>
      </trkpt>
      <trkpt lat="48.39442" lon="-4.43332">
        <ele>6.8</ele>
        <time>2020-06-08T16:48:11Z</time>
      </trkpt>
      <trkpt lat="48.39439" lon="-4.43331">
        <ele>6.7</ele>
        <time>2020-06-08T16:48:12Z</time>
      </trkpt>
      <trkpt lat="48.39435" lon="-4.4333">
        <ele>6.7</ele>
        <time>2020-06-08T16:48:13Z</time>
      </trkpt>
      <trkpt lat="48.39432" lon="-4.43331">
        <ele>6.7</ele>
        <time>2020-06-08T16:48:14Z</time>
      </trkpt>
      <trkpt lat="48.39429" lon="-4.4333">
        <ele>6.7</ele>
        <time>2020-06-08T16:48:15Z</time>
      </trkpt>
      <trkpt lat="48.39425" lon="-4.4333">
        <ele>6.7</ele>
        <time>2020-06-08T16:48:16Z</time>
      </trkpt>
      <trkpt lat="48.39422" lon="-4.43327">
        <ele>6.7</ele>
        <time>2020-06-08T16:48:17Z</time>
      </trkpt>
      <trkpt lat="48.39418" lon="-4.43326">
        <ele>6.6</ele>
        <time>2020-06-08T16:48:18Z</time>
      </trkpt>
      <trkpt lat="48.39414" lon="-4.43326">
        <ele>6.6</ele>
        <time>2020-06-08T16:48:19Z</time>
      </trkpt>
      <trkpt lat="48.3941" lon="-4.43327">
        <ele>6.6</ele>
        <time>2020-06-08T16:48:20Z</time>
      </trkpt>
      <trkpt lat="48.39407" lon="-4.43326">
        <ele>6.6</ele>
        <time>2020-06-08T16:48:21Z</time>
      </trkpt>
      <trkpt lat="48.39403" lon="-4.43324">
        <ele>6.6</ele>
        <time>2020-06-08T16:48:22Z</time>
      </trkpt>
      <trkpt lat="48.39399" lon="-4.43324">
        <ele>6.6</ele>
        <time>2020-06-08T16:48:23Z</time>
      </trkpt>
      <trkpt lat="48.39395" lon="-4.43324">
        <ele>6.5</ele>
        <time>2020-06-08T16:48:24Z</time>
      </trkpt>
      <trkpt lat="48.3939" lon="-4.43325">
        <ele>6.5</ele>
        <time>2020-06-08T16:48:25Z</time>
      </trkpt>
      <trkpt lat="48.39386" lon="-4.43325">
        <ele>6.5</ele>
        <time>2020-06-08T16:48:26Z</time>
      </trkpt>
      <trkpt lat="48.39382" lon="-4.43324">
        <ele>6.5</ele>
        <time>2020-06-08T16:48:27Z</time>
      </trkpt>
      <trkpt lat="48.39378" lon="-4.43323">
        <ele>6.5</ele>
        <time>2020-06-08T16:48:28Z</time>
      </trkpt>
      <trkpt lat="48.39374" lon="-4.43321">
        <ele>6.5</ele>
        <time>2020-06-08T16:48:29Z</time>
      </trkpt>
      <trkpt lat="48.3937" lon="-4.43321">
        <ele>6.5</ele>
        <time>2020-06-08T16:48:30Z</time>
      </trkpt>
      <trkpt lat="48.39366" lon="-4.4332">
        <ele>6.5</ele>
        <time>2020-06-08T16:48:31Z</time>
      </trkpt>
      <trkpt lat="48.39361" lon="-4.43319">
        <ele>6.5</ele>
        <time>2020-06-08T16:48:32Z</time>
      </trkpt>
      <trkpt lat="48.39357" lon="-4.43319">
        <ele>6.5</ele>
        <time>2020-06-08T16:48:33Z</time>
      </trkpt>
      <trkpt lat="48.39352" lon="-4.4332">
        <ele>6.4</ele>
        <time>2020-06-08T16:48:34Z</time>
      </trkpt>
      <trkpt lat="48.39348" lon="-4.43319">
        <ele>6.4</ele>
        <time>2020-06-08T16:48:35Z</time>
      </trkpt>
      <trkpt lat="48.39343" lon="-4.43318">
        <ele>6.4</ele>
        <time>2020-06-08T16:48:36Z</time>
      </trkpt>
      <trkpt lat="48.39339" lon="-4.43316">
        <ele>6.4</ele>
        <time>2020-06-08T16:48:37Z</time>
      </trkpt>
      <trkpt lat="48.39334" lon="-4.43316">
        <ele>6.4</ele>
        <time>2020-06-08T16:48:38Z</time>
      </trkpt>
      <trkpt lat="48.3933" lon="-4.43314">
        <ele>6.4</ele>
        <time>2020-06-08T16:48:39Z</time>
      </trkpt>
      <trkpt lat="48.39326" lon="-4.43313">
        <ele>6.4</ele>
        <time>2020-06-08T16:48:40Z</time>
      </trkpt>
      <trkpt lat="48.39323" lon="-4.4331">
        <ele>6.4</ele>
        <time>2020-06-08T16:48:41Z</time>
      </trkpt>
      <trkpt lat="48.39319" lon="-4.43309">
        <ele>6.4</ele>
        <time>2020-06-08T16:48:42Z</time>
      </trkpt>
      <trkpt lat="48.39315" lon="-4.43308">
        <ele>6.4</ele>
        <time>2020-06-08T16:48:43Z</time>
      </trkpt>
      <trkpt lat="48.39311" lon="-4.43306">
        <ele>6.4</ele>
        <time>2020-06-08T16:48:44Z</time>
      </trkpt>
      <trkpt lat="48.39307" lon="-4.43304">
        <ele>6.4</ele>
        <time>2020-06-08T16:48:45Z</time>
      </trkpt>
      <trkpt lat="48.39303" lon="-4.43303">
        <ele>6.4</ele>
        <time>2020-06-08T16:48:46Z</time>
      </trkpt>
      <trkpt lat="48.39299" lon="-4.43303">
        <ele>6.4</ele>
        <time>2020-06-08T16:48:47Z</time>
      </trkpt>
      <trkpt lat="48.39294" lon="-4.43303">
        <ele>6.4</ele>
        <time>2020-06-08T16:48:48Z</time>
      </trkpt>
      <trkpt lat="48.3929" lon="-4.43302">
        <ele>6.4</ele>
        <time>2020-06-08T16:48:49Z</time>
      </trkpt>
      <trkpt lat="48.39286" lon="-4.43302">
        <ele>6.4</ele>
        <time>2020-06-08T16:48:50Z</time>
      </trkpt>
      <trkpt lat="48.39283" lon="-4.43303">
        <ele>6.3</ele>
        <time>2020-06-08T16:48:51Z</time>
      </trkpt>
      <trkpt lat="48.39279" lon="-4.43302">
        <ele>6.3</ele>
        <time>2020-06-08T16:48:52Z</time>
      </trkpt>
      <trkpt lat="48.39277" lon="-4.43304">
        <ele>6.3</ele>
        <time>2020-06-08T16:48:53Z</time>
      </trkpt>
      <trkpt lat="48.39274" lon="-4.43307">
        <ele>6.3</ele>
        <time>2020-06-08T16:48:54Z</time>
      </trkpt>
      <trkpt lat="48.39272" lon="-4.43311">
        <ele>6.3</ele>
        <time>2020-06-08T16:48:55Z</time>
      </trkpt>
      <trkpt lat="48.39271" lon="-4.43316">
        <ele>6.3</ele>
        <time>2020-06-08T16:48:56Z</time>
      </trkpt>
      <trkpt lat="48.3927" lon="-4.4332">
        <ele>6.3</ele>
        <time>2020-06-08T16:48:57Z</time>
      </trkpt>
      <trkpt lat="48.3927" lon="-4.43325">
        <ele>6.2</ele>
        <time>2020-06-08T16:48:58Z</time>
      </trkpt>
      <trkpt lat="48.39269" lon="-4.4333">
        <ele>6.2</ele>
        <time>2020-06-08T16:48:59Z</time>
      </trkpt>
      <trkpt lat="48.39267" lon="-4.43334">
        <ele>6.2</ele>
        <time>2020-06-08T16:49:00Z</time>
      </trkpt>
      <trkpt lat="48.39266" lon="-4.43339">
        <ele>6.2</ele>
        <time>2020-06-08T16:49:01Z</time>
      </trkpt>
      <trkpt lat="48.39265" lon="-4.43344">
        <ele>6.2</ele>
        <time>2020-06-08T16:49:02Z</time>
      </trkpt>
      <trkpt lat="48.39265" lon="-4.43349">
        <ele>6.2</ele>
        <time>2020-06-08T16:49:03Z</time>
      </trkpt>
      <trkpt lat="48.39264" lon="-4.43354">
        <ele>6.1</ele>
        <time>2020-06-08T16:49:04Z</time>
      </trkpt>
      <trkpt lat="48.39264" lon="-4.43359">
        <ele>6.1</ele>
        <time>2020-06-08T16:49:05Z</time>
      </trkpt>
      <trkpt lat="48.39264" lon="-4.43364">
        <ele>6.1</ele>
        <time>2020-06-08T16:49:06Z</time>
      </trkpt>
      <trkpt lat="48.39264" lon="-4.43368">
        <ele>6.1</ele>
        <time>2020-06-08T16:49:07Z</time>
      </trkpt>
      <trkpt lat="48.39264" lon="-4.43373">
        <ele>6.1</ele>
        <time>2020-06-08T16:49:08Z</time>
      </trkpt>
      <trkpt lat="48.39263" lon="-4.43377">
        <ele>6.1</ele>
        <time>2020-06-08T16:49:09Z</time>
      </trkpt>
      <trkpt lat="48.39263" lon="-4.43382">
        <ele>6.1</ele>
        <time>2020-06-08T16:49:10Z</time>
      </trkpt>
      <trkpt lat="48.39262" lon="-4.43386">
        <ele>6.1</ele>
        <time>2020-06-08T16:49:11Z</time>
      </trkpt>
      <trkpt lat="48.39262" lon="-4.43391">
        <ele>6.1</ele>
        <time>2020-06-08T16:49:12Z</time>
      </trkpt>
      <trkpt lat="48.39262" lon="-4.43395">
        <ele>6.1</ele>
        <time>2020-06-08T16:49:13Z</time>
      </trkpt>
      <trkpt lat="48.39261" lon="-4.43399">
        <ele>6.1</ele>
        <time>2020-06-08T16:49:14Z</time>
      </trkpt>
      <trkpt lat="48.39259" lon="-4.43404">
        <ele>6.1</ele>
        <time>2020-06-08T16:49:15Z</time>
      </trkpt>
      <trkpt lat="48.39258" lon="-4.43405">
        <ele>6.1</ele>
        <time>2020-06-08T16:49:16Z</time>
      </trkpt>
      <trkpt lat="48.39254" lon="-4.43408">
        <ele>6.1</ele>
        <time>2020-06-08T16:49:17Z</time>
      </trkpt>
      <trkpt lat="48.39253" lon="-4.43408">
        <ele>6.1</ele>
        <time>2020-06-08T16:49:18Z</time>
      </trkpt>
      <trkpt lat="48.3925" lon="-4.43407">
        <ele>6.1</ele>
        <time>2020-06-08T16:49:19Z</time>
      </trkpt>
      <trkpt lat="48.39247" lon="-4.43406">
        <ele>6.1</ele>
        <time>2020-06-08T16:49:20Z</time>
      </trkpt>
      <trkpt lat="48.39244" lon="-4.43405">
        <ele>6.1</ele>
        <time>2020-06-08T16:49:21Z</time>
      </trkpt>
      <trkpt lat="48.39241" lon="-4.43405">
        <ele>6.1</ele>
        <time>2020-06-08T16:49:22Z</time>
      </trkpt>
      <trkpt lat="48.39238" lon="-4.43405">
        <ele>6.1</ele>
        <time>2020-06-08T16:49:23Z</time>
      </trkpt>
      <trkpt lat="48.39235" lon="-4.43406">
        <ele>6.1</ele>
        <time>2020-06-08T16:49:24Z</time>
      </trkpt>
      <trkpt lat="48.39232" lon="-4.43405">
        <ele>6.1</ele>
        <time>2020-06-08T16:49:25Z</time>
      </trkpt>
      <trkpt lat="48.39229" lon="-4.43404">
        <ele>6.1</ele>
        <time>2020-06-08T16:49:26Z</time>
      </trkpt>
      <trkpt lat="48.39227" lon="-4.43402">
        <ele>6.1</ele>
        <time>2020-06-08T16:49:27Z</time>
      </trkpt>
      <trkpt lat="48.39224" lon="-4.43401">
        <ele>6.1</ele>
        <time>2020-06-08T16:49:28Z</time>
      </trkpt>
      <trkpt lat="48.39221" lon="-4.434">
        <ele>6.2</ele>
        <time>2020-06-08T16:49:29Z</time>
      </trkpt>
      <trkpt lat="48.39217" lon="-4.43399">
        <ele>6.2</ele>
        <time>2020-06-08T16:49:30Z</time>
      </trkpt>
      <trkpt lat="48.39216" lon="-4.43399">
        <ele>6.2</ele>
        <time>2020-06-08T16:49:31Z</time>
      </trkpt>
      <trkpt lat="48.39213" lon="-4.43399">
        <ele>6.2</ele>
        <time>2020-06-08T16:49:32Z</time>
      </trkpt>
      <trkpt lat="48.39212" lon="-4.43399">
        <ele>6.2</ele>
        <time>2020-06-08T16:49:33Z</time>
      </trkpt>
      <trkpt lat="48.39209" lon="-4.43397">
        <ele>6.2</ele>
        <time>2020-06-08T16:49:34Z</time>
      </trkpt>
      <trkpt lat="48.39208" lon="-4.43396">
        <ele>6.2</ele>
        <time>2020-06-08T16:49:35Z</time>
      </trkpt>
      <trkpt lat="48.39206" lon="-4.43392">
        <ele>6.2</ele>
        <time>2020-06-08T16:49:36Z</time>
      </trkpt>
      <trkpt lat="48.39205" lon="-4.4339">
        <ele>6.3</ele>
        <time>2020-06-08T16:49:37Z</time>
      </trkpt>
      <trkpt lat="48.39205" lon="-4.43384">
        <ele>6.3</ele>
        <time>2020-06-08T16:49:38Z</time>
      </trkpt>
      <trkpt lat="48.39204" lon="-4.43382">
        <ele>6.3</ele>
        <time>2020-06-08T16:49:39Z</time>
      </trkpt>
      <trkpt lat="48.39204" lon="-4.43378">
        <ele>6.3</ele>
        <time>2020-06-08T16:49:40Z</time>
      </trkpt>
      <trkpt lat="48.39204" lon="-4.43374">
        <ele>6.3</ele>
        <time>2020-06-08T16:49:41Z</time>
      </trkpt>
      <trkpt lat="48.39204" lon="-4.43368">
        <ele>6.3</ele>
        <time>2020-06-08T16:49:42Z</time>
      </trkpt>
      <trkpt lat="48.39203" lon="-4.43367">
        <ele>6.3</ele>
        <time>2020-06-08T16:49:43Z</time>
      </trkpt>
      <trkpt lat="48.39202" lon="-4.43362">
        <ele>6.3</ele>
        <time>2020-06-08T16:49:44Z</time>
      </trkpt>
      <trkpt lat="48.39201" lon="-4.4336">
        <ele>6.3</ele>
        <time>2020-06-08T16:49:45Z</time>
      </trkpt>
      <trkpt lat="48.39199" lon="-4.43357">
        <ele>6.3</ele>
        <time>2020-06-08T16:49:46Z</time>
      </trkpt>
      <trkpt lat="48.39197" lon="-4.43355">
        <ele>6.3</ele>
        <time>2020-06-08T16:49:47Z</time>
      </trkpt>
      <trkpt lat="48.39193" lon="-4.43353">
        <ele>6.3</ele>
        <time>2020-06-08T16:49:48Z</time>
      </trkpt>
      <trkpt lat="48.3919" lon="-4.43352">
        <ele>6.3</ele>
        <time>2020-06-08T16:49:49Z</time>
      </trkpt>
      <trkpt lat="48.39187" lon="-4.43352">
        <ele>6.3</ele>
        <time>2020-06-08T16:49:50Z</time>
      </trkpt>
      <trkpt lat="48.39184" lon="-4.43353">
        <ele>6.3</ele>
        <time>2020-06-08T16:49:51Z</time>
      </trkpt>
      <trkpt lat="48.39181" lon="-4.43354">
        <ele>6.3</ele>
        <time>2020-06-08T16:49:52Z</time>
      </trkpt>
      <trkpt lat="48.39177" lon="-4.43354">
        <ele>6.3</ele>
        <time>2020-06-08T16:49:53Z</time>
      </trkpt>
      <trkpt lat="48.39174" lon="-4.43355">
        <ele>6.3</ele>
        <time>2020-06-08T16:49:54Z</time>
      </trkpt>
      <trkpt lat="48.3917" lon="-4.43355">
        <ele>6.3</ele>
        <time>2020-06-08T16:49:55Z</time>
      </trkpt>
      <trkpt lat="48.39167" lon="-4.43354">
        <ele>6.3</ele>
        <time>2020-06-08T16:49:56Z</time>
      </trkpt>
      <trkpt lat="48.39164" lon="-4.43353">
        <ele>6.4</ele>
        <time>2020-06-08T16:49:57Z</time>
      </trkpt>
      <trkpt lat="48.39161" lon="-4.43352">
        <ele>6.4</ele>
        <time>2020-06-08T16:49:58Z</time>
      </trkpt>
      <trkpt lat="48.39158" lon="-4.43352">
        <ele>6.4</ele>
        <time>2020-06-08T16:49:59Z</time>
      </trkpt>
      <trkpt lat="48.39155" lon="-4.43351">
        <ele>6.4</ele>
        <time>2020-06-08T16:50:00Z</time>
      </trkpt>
      <trkpt lat="48.39151" lon="-4.43351">
        <ele>6.4</ele>
        <time>2020-06-08T16:50:01Z</time>
      </trkpt>
      <trkpt lat="48.39148" lon="-4.43351">
        <ele>6.5</ele>
        <time>2020-06-08T16:50:02Z</time>
      </trkpt>
      <trkpt lat="48.39145" lon="-4.43353">
        <ele>6.5</ele>
        <time>2020-06-08T16:50:03Z</time>
      </trkpt>
      <trkpt lat="48.39141" lon="-4.43353">
        <ele>6.5</ele>
        <time>2020-06-08T16:50:04Z</time>
      </trkpt>
      <trkpt lat="48.39137" lon="-4.43352">
        <ele>6.5</ele>
        <time>2020-06-08T16:50:05Z</time>
      </trkpt>
      <trkpt lat="48.39134" lon="-4.43351">
        <ele>6.5</ele>
        <time>2020-06-08T16:50:06Z</time>
      </trkpt>
      <trkpt lat="48.39131" lon="-4.43351">
        <ele>6.5</ele>
        <time>2020-06-08T16:50:07Z</time>
      </trkpt>
      <trkpt lat="48.39127" lon="-4.43349">
        <ele>6.6</ele>
        <time>2020-06-08T16:50:08Z</time>
      </trkpt>
      <trkpt lat="48.39124" lon="-4.43349">
        <ele>6.6</ele>
        <time>2020-06-08T16:50:09Z</time>
      </trkpt>
      <trkpt lat="48.39121" lon="-4.4335">
        <ele>6.6</ele>
        <time>2020-06-08T16:50:10Z</time>
      </trkpt>
      <trkpt lat="48.39118" lon="-4.43349">
        <ele>6.6</ele>
        <time>2020-06-08T16:50:11Z</time>
      </trkpt>
      <trkpt lat="48.39115" lon="-4.43349">
        <ele>6.6</ele>
        <time>2020-06-08T16:50:12Z</time>
      </trkpt>
      <trkpt lat="48.39115" lon="-4.43348">
        <ele>6.6</ele>
        <time>2020-06-08T16:50:13Z</time>
      </trkpt>
      <trkpt lat="48.39114" lon="-4.43348">
        <ele>6.6</ele>
        <time>2020-06-08T16:50:14Z</time>
      </trkpt>
      <trkpt lat="48.39115" lon="-4.43348">
        <ele>6.6</ele>
        <time>2020-06-08T16:50:15Z</time>
      </trkpt>
      <trkpt lat="48.39115" lon="-4.43348">
        <ele>6.6</ele>
        <time>2020-06-08T16:50:16Z</time>
      </trkpt>
      <trkpt lat="48.39116" lon="-4.43347">
        <ele>6.6</ele>
        <time>2020-06-08T16:50:17Z</time>
      </trkpt>
      <trkpt lat="48.39116" lon="-4.43347">
        <ele>6.6</ele>
        <time>2020-06-08T16:50:18Z</time>
      </trkpt>
      <trkpt lat="48.39118" lon="-4.43347">
        <ele>6.6</ele>
        <time>2020-06-08T16:50:19Z</time>
      </trkpt>
      <trkpt lat="48.39121" lon="-4.43348">
        <ele>6.6</ele>
        <time>2020-06-08T16:50:20Z</time>
      </trkpt>
      <trkpt lat="48.39123" lon="-4.4335">
        <ele>6.6</ele>
        <time>2020-06-08T16:50:21Z</time>
      </trkpt>
      <trkpt lat="48.39124" lon="-4.4335">
        <ele>6.6</ele>
        <time>2020-06-08T16:50:22Z</time>
      </trkpt>
      <trkpt lat="48.39125" lon="-4.43349">
        <ele>6.6</ele>
        <time>2020-06-08T16:50:23Z</time>
      </trkpt>
      <trkpt lat="48.39124" lon="-4.43349">
        <ele>6.6</ele>
        <time>2020-06-08T16:50:24Z</time>
      </trkpt>
      <trkpt lat="48.39125" lon="-4.43349">
        <ele>6.6</ele>
        <time>2020-06-08T16:50:25Z</time>
      </trkpt>
      <trkpt lat="48.39126" lon="-4.43348">
        <ele>6.6</ele>
        <time>2020-06-08T16:50:26Z</time>
      </trkpt>
      <trkpt lat="48.39126" lon="-4.43348">
        <ele>6.6</ele>
        <time>2020-06-08T16:50:27Z</time>
      </trkpt>
      <trkpt lat="48.39127" lon="-4.43348">
        <ele>6.6</ele>
        <time>2020-06-08T16:50:28Z</time>
      </trkpt>
      <trkpt lat="48.39127" lon="-4.43347">
        <ele>6.6</ele>
        <time>2020-06-08T16:50:29Z</time>
      </trkpt>
      <trkpt lat="48.39129" lon="-4.43347">
        <ele>6.6</ele>
        <time>2020-06-08T16:50:30Z</time>
      </trkpt>
      <trkpt lat="48.3913" lon="-4.43347">
        <ele>6.6</ele>
        <time>2020-06-08T16:50:31Z</time>
      </trkpt>
      <trkpt lat="48.39131" lon="-4.43348">
        <ele>6.6</ele>
        <time>2020-06-08T16:50:32Z</time>
      </trkpt>
      <trkpt lat="48.39132" lon="-4.43348">
        <ele>6.6</ele>
        <time>2020-06-08T16:50:33Z</time>
      </trkpt>
      <trkpt lat="48.39131" lon="-4.43348">
        <ele>6.6</ele>
        <time>2020-06-08T16:50:34Z</time>
      </trkpt>
      <trkpt lat="48.3913" lon="-4.43348">
        <ele>6.6</ele>
        <time>2020-06-08T16:50:35Z</time>
      </trkpt>
      <trkpt lat="48.3913" lon="-4.4335">
        <ele>6.6</ele>
        <time>2020-06-08T16:50:36Z</time>
      </trkpt>
      <trkpt lat="48.39128" lon="-4.4335">
        <ele>6.6</ele>
        <time>2020-06-08T16:50:37Z</time>
      </trkpt>
      <trkpt lat="48.39125" lon="-4.43349">
        <ele>6.6</ele>
        <time>2020-06-08T16:50:38Z</time>
      </trkpt>
      <trkpt lat="48.39121" lon="-4.43348">
        <ele>6.6</ele>
        <time>2020-06-08T16:50:39Z</time>
      </trkpt>
      <trkpt lat="48.39116" lon="-4.43348">
        <ele>6.6</ele>
        <time>2020-06-08T16:50:40Z</time>
      </trkpt>
      <trkpt lat="48.39112" lon="-4.43349">
        <ele>6.6</ele>
        <time>2020-06-08T16:50:41Z</time>
      </trkpt>
      <trkpt lat="48.39107" lon="-4.43348">
        <ele>6.6</ele>
        <time>2020-06-08T16:50:42Z</time>
      </trkpt>
      <trkpt lat="48.39103" lon="-4.4335">
        <ele>6.6</ele>
        <time>2020-06-08T16:50:43Z</time>
      </trkpt>
      <trkpt lat="48.39098" lon="-4.43349">
        <ele>6.6</ele>
        <time>2020-06-08T16:50:44Z</time>
      </trkpt>
      <trkpt lat="48.39093" lon="-4.43348">
        <ele>6.7</ele>
        <time>2020-06-08T16:50:45Z</time>
      </trkpt>
      <trkpt lat="48.39088" lon="-4.43347">
        <ele>6.7</ele>
        <time>2020-06-08T16:50:46Z</time>
      </trkpt>
      <trkpt lat="48.39084" lon="-4.43347">
        <ele>6.7</ele>
        <time>2020-06-08T16:50:47Z</time>
      </trkpt>
      <trkpt lat="48.3908" lon="-4.43346">
        <ele>6.7</ele>
        <time>2020-06-08T16:50:48Z</time>
      </trkpt>
      <trkpt lat="48.39075" lon="-4.43345">
        <ele>6.8</ele>
        <time>2020-06-08T16:50:49Z</time>
      </trkpt>
      <trkpt lat="48.3907" lon="-4.43345">
        <ele>6.8</ele>
        <time>2020-06-08T16:50:50Z</time>
      </trkpt>
      <trkpt lat="48.39066" lon="-4.43344">
        <ele>6.8</ele>
        <time>2020-06-08T16:50:51Z</time>
      </trkpt>
      <trkpt lat="48.39062" lon="-4.43343">
        <ele>6.9</ele>
        <time>2020-06-08T16:50:52Z</time>
      </trkpt>
      <trkpt lat="48.39059" lon="-4.43341">
        <ele>6.9</ele>
        <time>2020-06-08T16:50:53Z</time>
      </trkpt>
      <trkpt lat="48.39056" lon="-4.43338">
        <ele>6.9</ele>
        <time>2020-06-08T16:50:54Z</time>
      </trkpt>
      <trkpt lat="48.39052" lon="-4.43339">
        <ele>6.9</ele>
        <time>2020-06-08T16:50:55Z</time>
      </trkpt>
      <trkpt lat="48.39048" lon="-4.43339">
        <ele>6.9</ele>
        <time>2020-06-08T16:50:56Z</time>
      </trkpt>
      <trkpt lat="48.39044" lon="-4.43336">
        <ele>6.9</ele>
        <time>2020-06-08T16:50:57Z</time>
      </trkpt>
      <trkpt lat="48.3904" lon="-4.43335">
        <ele>6.9</ele>
        <time>2020-06-08T16:50:58Z</time>
      </trkpt>
      <trkpt lat="48.39035" lon="-4.43334">
        <ele>6.9</ele>
        <time>2020-06-08T16:50:59Z</time>
      </trkpt>
      <trkpt lat="48.3903" lon="-4.43334">
        <ele>6.8</ele>
        <time>2020-06-08T16:51:00Z</time>
      </trkpt>
      <trkpt lat="48.39025" lon="-4.43334">
        <ele>6.8</ele>
        <time>2020-06-08T16:51:01Z</time>
      </trkpt>
      <trkpt lat="48.3902" lon="-4.43332">
        <ele>6.8</ele>
        <time>2020-06-08T16:51:02Z</time>
      </trkpt>
      <trkpt lat="48.39015" lon="-4.43333">
        <ele>6.8</ele>
        <time>2020-06-08T16:51:03Z</time>
      </trkpt>
      <trkpt lat="48.3901" lon="-4.43334">
        <ele>6.8</ele>
        <time>2020-06-08T16:51:04Z</time>
      </trkpt>
      <trkpt lat="48.39005" lon="-4.43334">
        <ele>6.8</ele>
        <time>2020-06-08T16:51:05Z</time>
      </trkpt>
      <trkpt lat="48.39" lon="-4.43334">
        <ele>6.8</ele>
        <time>2020-06-08T16:51:06Z</time>
      </trkpt>
      <trkpt lat="48.38995" lon="-4.43333">
        <ele>6.8</ele>
        <time>2020-06-08T16:51:07Z</time>
      </trkpt>
      <trkpt lat="48.38989" lon="-4.43331">
        <ele>6.8</ele>
        <time>2020-06-08T16:51:08Z</time>
      </trkpt>
      <trkpt lat="48.38984" lon="-4.4333">
        <ele>6.9</ele>
        <time>2020-06-08T16:51:09Z</time>
      </trkpt>
      <trkpt lat="48.38979" lon="-4.43329">
        <ele>6.9</ele>
        <time>2020-06-08T16:51:10Z</time>
      </trkpt>
      <trkpt lat="48.38974" lon="-4.43329">
        <ele>6.9</ele>
        <time>2020-06-08T16:51:11Z</time>
      </trkpt>
      <trkpt lat="48.38969" lon="-4.43328">
        <ele>6.9</ele>
        <time>2020-06-08T16:51:12Z</time>
      </trkpt>
      <trkpt lat="48.38964" lon="-4.43328">
        <ele>6.9</ele>
        <time>2020-06-08T16:51:13Z</time>
      </trkpt>
      <trkpt lat="48.3896" lon="-4.43328">
        <ele>6.9</ele>
        <time>2020-06-08T16:51:14Z</time>
      </trkpt>
      <trkpt lat="48.38955" lon="-4.43326">
        <ele>6.9</ele>
        <time>2020-06-08T16:51:15Z</time>
      </trkpt>
      <trkpt lat="48.38951" lon="-4.43325">
        <ele>6.9</ele>
        <time>2020-06-08T16:51:16Z</time>
      </trkpt>
      <trkpt lat="48.38948" lon="-4.43325">
        <ele>6.9</ele>
        <time>2020-06-08T16:51:17Z</time>
      </trkpt>
      <trkpt lat="48.38946" lon="-4.4333">
        <ele>6.9</ele>
        <time>2020-06-08T16:51:18Z</time>
      </trkpt>
      <trkpt lat="48.38947" lon="-4.43332">
        <ele>6.9</ele>
        <time>2020-06-08T16:51:19Z</time>
      </trkpt>
      <trkpt lat="48.38948" lon="-4.43338">
        <ele>6.9</ele>
        <time>2020-06-08T16:51:20Z</time>
      </trkpt>
      <trkpt lat="48.38948" lon="-4.43342">
        <ele>7</ele>
        <time>2020-06-08T16:51:21Z</time>
      </trkpt>
      <trkpt lat="48.38948" lon="-4.43346">
        <ele>7</ele>
        <time>2020-06-08T16:51:22Z</time>
      </trkpt>
      <trkpt lat="48.38948" lon="-4.43351">
        <ele>7</ele>
        <time>2020-06-08T16:51:23Z</time>
      </trkpt>
      <trkpt lat="48.38949" lon="-4.43356">
        <ele>7</ele>
        <time>2020-06-08T16:51:24Z</time>
      </trkpt>
      <trkpt lat="48.38949" lon="-4.43361">
        <ele>7.1</ele>
        <time>2020-06-08T16:51:25Z</time>
      </trkpt>
      <trkpt lat="48.38947" lon="-4.43366">
        <ele>7.1</ele>
        <time>2020-06-08T16:51:26Z</time>
      </trkpt>
      <trkpt lat="48.38944" lon="-4.43369">
        <ele>7.1</ele>
        <time>2020-06-08T16:51:27Z</time>
      </trkpt>
      <trkpt lat="48.38941" lon="-4.43371">
        <ele>7.1</ele>
        <time>2020-06-08T16:51:28Z</time>
      </trkpt>
      <trkpt lat="48.38939" lon="-4.43374">
        <ele>7.1</ele>
        <time>2020-06-08T16:51:29Z</time>
      </trkpt>
      <trkpt lat="48.38936" lon="-4.43377">
        <ele>7.1</ele>
        <time>2020-06-08T16:51:30Z</time>
      </trkpt>
      <trkpt lat="48.38933" lon="-4.4338">
        <ele>7.2</ele>
        <time>2020-06-08T16:51:31Z</time>
      </trkpt>
      <trkpt lat="48.38931" lon="-4.43383">
        <ele>7.2</ele>
        <time>2020-06-08T16:51:32Z</time>
      </trkpt>
      <trkpt lat="48.38928" lon="-4.43387">
        <ele>7.2</ele>
        <time>2020-06-08T16:51:33Z</time>
      </trkpt>
      <trkpt lat="48.38925" lon="-4.43391">
        <ele>7.2</ele>
        <time>2020-06-08T16:51:34Z</time>
      </trkpt>
      <trkpt lat="48.38922" lon="-4.43396">
        <ele>7.2</ele>
        <time>2020-06-08T16:51:35Z</time>
      </trkpt>
      <trkpt lat="48.38918" lon="-4.43398">
        <ele>7.3</ele>
        <time>2020-06-08T16:51:36Z</time>
      </trkpt>
      <trkpt lat="48.38915" lon="-4.434">
        <ele>7.3</ele>
        <time>2020-06-08T16:51:37Z</time>
      </trkpt>
      <trkpt lat="48.38913" lon="-4.43403">
        <ele>7.3</ele>
        <time>2020-06-08T16:51:38Z</time>
      </trkpt>
      <trkpt lat="48.3891" lon="-4.43406">
        <ele>7.3</ele>
        <time>2020-06-08T16:51:39Z</time>
      </trkpt>
      <trkpt lat="48.38908" lon="-4.43409">
        <ele>7.3</ele>
        <time>2020-06-08T16:51:40Z</time>
      </trkpt>
      <trkpt lat="48.38905" lon="-4.4341">
        <ele>7.4</ele>
        <time>2020-06-08T16:51:41Z</time>
      </trkpt>
      <trkpt lat="48.38903" lon="-4.43414">
        <ele>7.3</ele>
        <time>2020-06-08T16:51:42Z</time>
      </trkpt>
      <trkpt lat="48.38902" lon="-4.43418">
        <ele>7.4</ele>
        <time>2020-06-08T16:51:43Z</time>
      </trkpt>
      <trkpt lat="48.389" lon="-4.43421">
        <ele>7.4</ele>
        <time>2020-06-08T16:51:44Z</time>
      </trkpt>
      <trkpt lat="48.38898" lon="-4.43425">
        <ele>7.4</ele>
        <time>2020-06-08T16:51:45Z</time>
      </trkpt>
      <trkpt lat="48.38896" lon="-4.43429">
        <ele>7.4</ele>
        <time>2020-06-08T16:51:46Z</time>
      </trkpt>
      <trkpt lat="48.38894" lon="-4.43433">
        <ele>7.5</ele>
        <time>2020-06-08T16:51:47Z</time>
      </trkpt>
      <trkpt lat="48.3889" lon="-4.43435">
        <ele>7.5</ele>
        <time>2020-06-08T16:51:48Z</time>
      </trkpt>
      <trkpt lat="48.38887" lon="-4.43438">
        <ele>7.5</ele>
        <time>2020-06-08T16:51:49Z</time>
      </trkpt>
      <trkpt lat="48.38884" lon="-4.43442">
        <ele>7.6</ele>
        <time>2020-06-08T16:51:50Z</time>
      </trkpt>
      <trkpt lat="48.3888" lon="-4.43445">
        <ele>7.6</ele>
        <time>2020-06-08T16:51:51Z</time>
      </trkpt>
      <trkpt lat="48.38876" lon="-4.43447">
        <ele>7.6</ele>
        <time>2020-06-08T16:51:52Z</time>
      </trkpt>
      <trkpt lat="48.38872" lon="-4.43449">
        <ele>7.7</ele>
        <time>2020-06-08T16:51:53Z</time>
      </trkpt>
      <trkpt lat="48.38869" lon="-4.43452">
        <ele>7.7</ele>
        <time>2020-06-08T16:51:54Z</time>
      </trkpt>
      <trkpt lat="48.38865" lon="-4.43453">
        <ele>7.8</ele>
        <time>2020-06-08T16:51:55Z</time>
      </trkpt>
      <trkpt lat="48.38862" lon="-4.43456">
        <ele>7.8</ele>
        <time>2020-06-08T16:51:56Z</time>
      </trkpt>
      <trkpt lat="48.38858" lon="-4.43459">
        <ele>7.9</ele>
        <time>2020-06-08T16:51:57Z</time>
      </trkpt>
      <trkpt lat="48.38854" lon="-4.43462">
        <ele>7.9</ele>
        <time>2020-06-08T16:51:58Z</time>
      </trkpt>
      <trkpt lat="48.38851" lon="-4.43465">
        <ele>8</ele>
        <time>2020-06-08T16:51:59Z</time>
      </trkpt>
      <trkpt lat="48.38847" lon="-4.43467">
        <ele>8.1</ele>
        <time>2020-06-08T16:52:00Z</time>
      </trkpt>
      <trkpt lat="48.38844" lon="-4.43472">
        <ele>8.1</ele>
        <time>2020-06-08T16:52:01Z</time>
      </trkpt>
      <trkpt lat="48.38841" lon="-4.43475">
        <ele>8.2</ele>
        <time>2020-06-08T16:52:02Z</time>
      </trkpt>
      <trkpt lat="48.38838" lon="-4.43478">
        <ele>8.2</ele>
        <time>2020-06-08T16:52:03Z</time>
      </trkpt>
      <trkpt lat="48.38834" lon="-4.4348">
        <ele>8.2</ele>
        <time>2020-06-08T16:52:04Z</time>
      </trkpt>
      <trkpt lat="48.38831" lon="-4.43483">
        <ele>8.2</ele>
        <time>2020-06-08T16:52:05Z</time>
      </trkpt>
      <trkpt lat="48.38827" lon="-4.43487">
        <ele>8.3</ele>
        <time>2020-06-08T16:52:06Z</time>
      </trkpt>
      <trkpt lat="48.38824" lon="-4.43491">
        <ele>8.3</ele>
        <time>2020-06-08T16:52:07Z</time>
      </trkpt>
      <trkpt lat="48.3882" lon="-4.43494">
        <ele>8.3</ele>
        <time>2020-06-08T16:52:08Z</time>
      </trkpt>
      <trkpt lat="48.38816" lon="-4.43497">
        <ele>8.4</ele>
        <time>2020-06-08T16:52:09Z</time>
      </trkpt>
      <trkpt lat="48.38811" lon="-4.435">
        <ele>8.4</ele>
        <time>2020-06-08T16:52:10Z</time>
      </trkpt>
      <trkpt lat="48.38806" lon="-4.43502">
        <ele>8.5</ele>
        <time>2020-06-08T16:52:11Z</time>
      </trkpt>
      <trkpt lat="48.38801" lon="-4.43504">
        <ele>8.6</ele>
        <time>2020-06-08T16:52:12Z</time>
      </trkpt>
      <trkpt lat="48.38796" lon="-4.43507">
        <ele>8.6</ele>
        <time>2020-06-08T16:52:13Z</time>
      </trkpt>
      <trkpt lat="48.38792" lon="-4.43511">
        <ele>8.6</ele>
        <time>2020-06-08T16:52:14Z</time>
      </trkpt>
      <trkpt lat="48.38787" lon="-4.43514">
        <ele>8.5</ele>
        <time>2020-06-08T16:52:15Z</time>
      </trkpt>
      <trkpt lat="48.38783" lon="-4.43518">
        <ele>8.5</ele>
        <time>2020-06-08T16:52:16Z</time>
      </trkpt>
      <trkpt lat="48.38779" lon="-4.4352">
        <ele>8.5</ele>
        <time>2020-06-08T16:52:17Z</time>
      </trkpt>
      <trkpt lat="48.38775" lon="-4.43522">
        <ele>8.5</ele>
        <time>2020-06-08T16:52:18Z</time>
      </trkpt>
      <trkpt lat="48.38772" lon="-4.43525">
        <ele>8.5</ele>
        <time>2020-06-08T16:52:19Z</time>
      </trkpt>
      <trkpt lat="48.3877" lon="-4.43529">
        <ele>8.5</ele>
        <time>2020-06-08T16:52:20Z</time>
      </trkpt>
      <trkpt lat="48.38768" lon="-4.43532">
        <ele>8.4</ele>
        <time>2020-06-08T16:52:21Z</time>
      </trkpt>
      <trkpt lat="48.38766" lon="-4.43536">
        <ele>8.4</ele>
        <time>2020-06-08T16:52:22Z</time>
      </trkpt>
      <trkpt lat="48.38765" lon="-4.4354">
        <ele>8.4</ele>
        <time>2020-06-08T16:52:23Z</time>
      </trkpt>
      <trkpt lat="48.38761" lon="-4.43541">
        <ele>8.5</ele>
        <time>2020-06-08T16:52:24Z</time>
      </trkpt>
      <trkpt lat="48.38757" lon="-4.43541">
        <ele>8.5</ele>
        <time>2020-06-08T16:52:25Z</time>
      </trkpt>
      <trkpt lat="48.38754" lon="-4.43543">
        <ele>8.6</ele>
        <time>2020-06-08T16:52:26Z</time>
      </trkpt>
      <trkpt lat="48.38751" lon="-4.43545">
        <ele>8.6</ele>
        <time>2020-06-08T16:52:27Z</time>
      </trkpt>
      <trkpt lat="48.38748" lon="-4.43547">
        <ele>8.6</ele>
        <time>2020-06-08T16:52:28Z</time>
      </trkpt>
      <trkpt lat="48.38745" lon="-4.43549">
        <ele>8.7</ele>
        <time>2020-06-08T16:52:29Z</time>
      </trkpt>
      <trkpt lat="48.38742" lon="-4.43551">
        <ele>8.7</ele>
        <time>2020-06-08T16:52:30Z</time>
      </trkpt>
      <trkpt lat="48.38739" lon="-4.43554">
        <ele>8.8</ele>
        <time>2020-06-08T16:52:31Z</time>
      </trkpt>
      <trkpt lat="48.38736" lon="-4.43557">
        <ele>8.8</ele>
        <time>2020-06-08T16:52:32Z</time>
      </trkpt>
      <trkpt lat="48.38734" lon="-4.43559">
        <ele>8.8</ele>
        <time>2020-06-08T16:52:33Z</time>
      </trkpt>
      <trkpt lat="48.38731" lon="-4.43561">
        <ele>8.8</ele>
        <time>2020-06-08T16:52:34Z</time>
      </trkpt>
      <trkpt lat="48.38728" lon="-4.43563">
        <ele>8.8</ele>
        <time>2020-06-08T16:52:35Z</time>
      </trkpt>
      <trkpt lat="48.38725" lon="-4.43565">
        <ele>8.8</ele>
        <time>2020-06-08T16:52:36Z</time>
      </trkpt>
      <trkpt lat="48.38724" lon="-4.43566">
        <ele>8.8</ele>
        <time>2020-06-08T16:52:37Z</time>
      </trkpt>
      <trkpt lat="48.38722" lon="-4.43566">
        <ele>8.8</ele>
        <time>2020-06-08T16:52:38Z</time>
      </trkpt>
      <trkpt lat="48.3872" lon="-4.43566">
        <ele>8.8</ele>
        <time>2020-06-08T16:52:39Z</time>
      </trkpt>
      <trkpt lat="48.38719" lon="-4.43568">
        <ele>8.8</ele>
        <time>2020-06-08T16:52:40Z</time>
      </trkpt>
      <trkpt lat="48.38718" lon="-4.43569">
        <ele>8.8</ele>
        <time>2020-06-08T16:52:41Z</time>
      </trkpt>
      <trkpt lat="48.38717" lon="-4.43571">
        <ele>8.8</ele>
        <time>2020-06-08T16:52:42Z</time>
      </trkpt>
      <trkpt lat="48.38715" lon="-4.43572">
        <ele>8.8</ele>
        <time>2020-06-08T16:52:43Z</time>
      </trkpt>
      <trkpt lat="48.38713" lon="-4.43574">
        <ele>8.8</ele>
        <time>2020-06-08T16:52:44Z</time>
      </trkpt>
      <trkpt lat="48.38712" lon="-4.43574">
        <ele>8.8</ele>
        <time>2020-06-08T16:52:45Z</time>
      </trkpt>
      <trkpt lat="48.38711" lon="-4.43575">
        <ele>8.8</ele>
        <time>2020-06-08T16:52:46Z</time>
      </trkpt>
      <trkpt lat="48.38708" lon="-4.43578">
        <ele>8.8</ele>
        <time>2020-06-08T16:52:47Z</time>
      </trkpt>
      <trkpt lat="48.38707" lon="-4.43579">
        <ele>8.8</ele>
        <time>2020-06-08T16:52:48Z</time>
      </trkpt>
      <trkpt lat="48.38705" lon="-4.4358">
        <ele>8.8</ele>
        <time>2020-06-08T16:52:49Z</time>
      </trkpt>
      <trkpt lat="48.38704" lon="-4.4358">
        <ele>8.8</ele>
        <time>2020-06-08T16:52:50Z</time>
      </trkpt>
      <trkpt lat="48.38701" lon="-4.43581">
        <ele>8.7</ele>
        <time>2020-06-08T16:52:51Z</time>
      </trkpt>
      <trkpt lat="48.387" lon="-4.43581">
        <ele>8.7</ele>
        <time>2020-06-08T16:52:52Z</time>
      </trkpt>
      <trkpt lat="48.38696" lon="-4.43583">
        <ele>8.7</ele>
        <time>2020-06-08T16:52:53Z</time>
      </trkpt>
      <trkpt lat="48.38695" lon="-4.43583">
        <ele>8.7</ele>
        <time>2020-06-08T16:52:54Z</time>
      </trkpt>
      <trkpt lat="48.38692" lon="-4.43585">
        <ele>8.7</ele>
        <time>2020-06-08T16:52:55Z</time>
      </trkpt>
      <trkpt lat="48.38691" lon="-4.43586">
        <ele>8.7</ele>
        <time>2020-06-08T16:52:56Z</time>
      </trkpt>
      <trkpt lat="48.38689" lon="-4.43589">
        <ele>8.7</ele>
        <time>2020-06-08T16:52:57Z</time>
      </trkpt>
      <trkpt lat="48.38686" lon="-4.43591">
        <ele>8.7</ele>
        <time>2020-06-08T16:52:58Z</time>
      </trkpt>
      <trkpt lat="48.38685" lon="-4.43592">
        <ele>8.7</ele>
        <time>2020-06-08T16:52:59Z</time>
      </trkpt>
      <trkpt lat="48.38682" lon="-4.43592">
        <ele>8.6</ele>
        <time>2020-06-08T16:53:00Z</time>
      </trkpt>
      <trkpt lat="48.38681" lon="-4.43591">
        <ele>8.6</ele>
        <time>2020-06-08T16:53:01Z</time>
      </trkpt>
      <trkpt lat="48.3868" lon="-4.43591">
        <ele>8.6</ele>
        <time>2020-06-08T16:53:02Z</time>
      </trkpt>
      <trkpt lat="48.38679" lon="-4.43591">
        <ele>8.6</ele>
        <time>2020-06-08T16:53:03Z</time>
      </trkpt>
      <trkpt lat="48.38678" lon="-4.43589">
        <ele>8.6</ele>
        <time>2020-06-08T16:53:04Z</time>
      </trkpt>
      <trkpt lat="48.38679" lon="-4.43584">
        <ele>8.6</ele>
        <time>2020-06-08T16:53:05Z</time>
      </trkpt>
      <trkpt lat="48.38677" lon="-4.43583">
        <ele>8.6</ele>
        <time>2020-06-08T16:53:06Z</time>
      </trkpt>
      <trkpt lat="48.38676" lon="-4.43583">
        <ele>8.6</ele>
        <time>2020-06-08T16:53:07Z</time>
      </trkpt>
      <trkpt lat="48.38675" lon="-4.43583">
        <ele>8.6</ele>
        <time>2020-06-08T16:53:08Z</time>
      </trkpt>
      <trkpt lat="48.38674" lon="-4.43583">
        <ele>8.6</ele>
        <time>2020-06-08T16:53:09Z</time>
      </trkpt>
      <trkpt lat="48.38672" lon="-4.43583">
        <ele>8.6</ele>
        <time>2020-06-08T16:53:10Z</time>
      </trkpt>
      <trkpt lat="48.38671" lon="-4.43583">
        <ele>8.6</ele>
        <time>2020-06-08T16:53:11Z</time>
      </trkpt>
      <trkpt lat="48.3867" lon="-4.43583">
        <ele>8.6</ele>
        <time>2020-06-08T16:53:12Z</time>
      </trkpt>
      <trkpt lat="48.38669" lon="-4.43583">
        <ele>8.6</ele>
        <time>2020-06-08T16:53:13Z</time>
      </trkpt>
      <trkpt lat="48.38668" lon="-4.43583">
        <ele>8.6</ele>
        <time>2020-06-08T16:53:14Z</time>
      </trkpt>
      <trkpt lat="48.38666" lon="-4.43584">
        <ele>8.6</ele>
        <time>2020-06-08T16:53:15Z</time>
      </trkpt>
      <trkpt lat="48.38665" lon="-4.43584">
        <ele>8.6</ele>
        <time>2020-06-08T16:53:16Z</time>
      </trkpt>
      <trkpt lat="48.38664" lon="-4.43584">
        <ele>8.6</ele>
        <time>2020-06-08T16:54:07Z</time>
      </trkpt>
      <trkpt lat="48.38663" lon="-4.43584">
        <ele>8.6</ele>
        <time>2020-06-08T16:54:08Z</time>
      </trkpt>
      <trkpt lat="48.38662" lon="-4.43584">
        <ele>8.6</ele>
        <time>2020-06-08T16:54:09Z</time>
      </trkpt>
      <trkpt lat="48.3866" lon="-4.43585">
        <ele>8.6</ele>
        <time>2020-06-08T16:54:10Z</time>
      </trkpt>
      <trkpt lat="48.38659" lon="-4.43587">
        <ele>8.6</ele>
        <time>2020-06-08T16:54:11Z</time>
      </trkpt>
      <trkpt lat="48.38658" lon="-4.43588">
        <ele>8.6</ele>
        <time>2020-06-08T16:54:12Z</time>
      </trkpt>
      <trkpt lat="48.38656" lon="-4.43588">
        <ele>8.6</ele>
        <time>2020-06-08T16:54:13Z</time>
      </trkpt>
      <trkpt lat="48.38653" lon="-4.43588">
        <ele>8.6</ele>
        <time>2020-06-08T16:54:14Z</time>
      </trkpt>
      <trkpt lat="48.38651" lon="-4.43588">
        <ele>8.6</ele>
        <time>2020-06-08T16:54:15Z</time>
      </trkpt>
      <trkpt lat="48.38649" lon="-4.4359">
        <ele>8.6</ele>
        <time>2020-06-08T16:54:16Z</time>
      </trkpt>
      <trkpt lat="48.38645" lon="-4.43591">
        <ele>8.6</ele>
        <time>2020-06-08T16:54:17Z</time>
      </trkpt>
      <trkpt lat="48.38642" lon="-4.43593">
        <ele>8.6</ele>
        <time>2020-06-08T16:54:18Z</time>
      </trkpt>
      <trkpt lat="48.38642" lon="-4.43594">
        <ele>8.5</ele>
        <time>2020-06-08T16:54:19Z</time>
      </trkpt>
      <trkpt lat="48.38639" lon="-4.43596">
        <ele>8.5</ele>
        <time>2020-06-08T16:54:20Z</time>
      </trkpt>
      <trkpt lat="48.38638" lon="-4.43597">
        <ele>8.5</ele>
        <time>2020-06-08T16:54:21Z</time>
      </trkpt>
      <trkpt lat="48.38635" lon="-4.43599">
        <ele>8.5</ele>
        <time>2020-06-08T16:54:22Z</time>
      </trkpt>
      <trkpt lat="48.38633" lon="-4.43599">
        <ele>8.5</ele>
        <time>2020-06-08T16:54:23Z</time>
      </trkpt>
      <trkpt lat="48.38629" lon="-4.43601">
        <ele>8.5</ele>
        <time>2020-06-08T16:54:24Z</time>
      </trkpt>
      <trkpt lat="48.38628" lon="-4.43601">
        <ele>8.5</ele>
        <time>2020-06-08T16:54:25Z</time>
      </trkpt>
      <trkpt lat="48.38625" lon="-4.43603">
        <ele>8.4</ele>
        <time>2020-06-08T16:54:26Z</time>
      </trkpt>
      <trkpt lat="48.38622" lon="-4.43605">
        <ele>8.4</ele>
        <time>2020-06-08T16:54:27Z</time>
      </trkpt>
      <trkpt lat="48.38621" lon="-4.43606">
        <ele>8.4</ele>
        <time>2020-06-08T16:54:28Z</time>
      </trkpt>
      <trkpt lat="48.38618" lon="-4.43608">
        <ele>8.4</ele>
        <time>2020-06-08T16:54:29Z</time>
      </trkpt>
      <trkpt lat="48.38615" lon="-4.4361">
        <ele>8.3</ele>
        <time>2020-06-08T16:54:30Z</time>
      </trkpt>
      <trkpt lat="48.38612" lon="-4.4361">
        <ele>8.3</ele>
        <time>2020-06-08T16:54:31Z</time>
      </trkpt>
      <trkpt lat="48.38608" lon="-4.43609">
        <ele>8.2</ele>
        <time>2020-06-08T16:54:32Z</time>
      </trkpt>
      <trkpt lat="48.38605" lon="-4.4361">
        <ele>8.1</ele>
        <time>2020-06-08T16:54:33Z</time>
      </trkpt>
      <trkpt lat="48.38602" lon="-4.43611">
        <ele>8.1</ele>
        <time>2020-06-08T16:54:34Z</time>
      </trkpt>
      <trkpt lat="48.38599" lon="-4.43611">
        <ele>8</ele>
        <time>2020-06-08T16:54:35Z</time>
      </trkpt>
      <trkpt lat="48.38595" lon="-4.43612">
        <ele>8</ele>
        <time>2020-06-08T16:54:36Z</time>
      </trkpt>
      <trkpt lat="48.38592" lon="-4.43612">
        <ele>7.9</ele>
        <time>2020-06-08T16:54:37Z</time>
      </trkpt>
      <trkpt lat="48.38588" lon="-4.43613">
        <ele>7.8</ele>
        <time>2020-06-08T16:54:38Z</time>
      </trkpt>
      <trkpt lat="48.38585" lon="-4.43614">
        <ele>7.8</ele>
        <time>2020-06-08T16:54:39Z</time>
      </trkpt>
      <trkpt lat="48.38582" lon="-4.43616">
        <ele>7.7</ele>
        <time>2020-06-08T16:54:40Z</time>
      </trkpt>
      <trkpt lat="48.38578" lon="-4.43617">
        <ele>7.7</ele>
        <time>2020-06-08T16:54:41Z</time>
      </trkpt>
      <trkpt lat="48.38575" lon="-4.43618">
        <ele>7.7</ele>
        <time>2020-06-08T16:54:42Z</time>
      </trkpt>
      <trkpt lat="48.38572" lon="-4.43619">
        <ele>7.6</ele>
        <time>2020-06-08T16:54:43Z</time>
      </trkpt>
      <trkpt lat="48.38569" lon="-4.43621">
        <ele>7.6</ele>
        <time>2020-06-08T16:54:44Z</time>
      </trkpt>
      <trkpt lat="48.38565" lon="-4.43622">
        <ele>7.5</ele>
        <time>2020-06-08T16:54:45Z</time>
      </trkpt>
      <trkpt lat="48.38561" lon="-4.43622">
        <ele>7.5</ele>
        <time>2020-06-08T16:54:46Z</time>
      </trkpt>
      <trkpt lat="48.38557" lon="-4.43623">
        <ele>7.5</ele>
        <time>2020-06-08T16:54:47Z</time>
      </trkpt>
      <trkpt lat="48.38553" lon="-4.43624">
        <ele>7.4</ele>
        <time>2020-06-08T16:54:48Z</time>
      </trkpt>
      <trkpt lat="48.38549" lon="-4.43625">
        <ele>7.4</ele>
        <time>2020-06-08T16:54:49Z</time>
      </trkpt>
      <trkpt lat="48.38546" lon="-4.43627">
        <ele>7.4</ele>
        <time>2020-06-08T16:54:50Z</time>
      </trkpt>
      <trkpt lat="48.38543" lon="-4.43629">
        <ele>7.3</ele>
        <time>2020-06-08T16:54:51Z</time>
      </trkpt>
      <trkpt lat="48.3854" lon="-4.43634">
        <ele>7.3</ele>
        <time>2020-06-08T16:54:52Z</time>
      </trkpt>
      <trkpt lat="48.38537" lon="-4.43638">
        <ele>7.2</ele>
        <time>2020-06-08T16:54:53Z</time>
      </trkpt>
      <trkpt lat="48.38534" lon="-4.4364">
        <ele>7.2</ele>
        <time>2020-06-08T16:54:54Z</time>
      </trkpt>
      <trkpt lat="48.3853" lon="-4.43638">
        <ele>7.2</ele>
        <time>2020-06-08T16:54:55Z</time>
      </trkpt>
      <trkpt lat="48.38528" lon="-4.43632">
        <ele>7.2</ele>
        <time>2020-06-08T16:54:56Z</time>
      </trkpt>
      <trkpt lat="48.38528" lon="-4.43626">
        <ele>7.5</ele>
        <time>2020-06-08T16:54:57Z</time>
      </trkpt>
      <trkpt lat="48.3853" lon="-4.4362">
        <ele>7.6</ele>
        <time>2020-06-08T16:54:58Z</time>
      </trkpt>
      <trkpt lat="48.38533" lon="-4.43617">
        <ele>7.6</ele>
        <time>2020-06-08T16:54:59Z</time>
      </trkpt>
      <trkpt lat="48.38536" lon="-4.43617">
        <ele>7.6</ele>
        <time>2020-06-08T16:55:00Z</time>
      </trkpt>
      <trkpt lat="48.38539" lon="-4.4362">
        <ele>7.4</ele>
        <time>2020-06-08T16:55:01Z</time>
      </trkpt>
      <trkpt lat="48.3854" lon="-4.43621">
        <ele>7.4</ele>
        <time>2020-06-08T16:55:02Z</time>
      </trkpt>
      <trkpt lat="48.38541" lon="-4.43626">
        <ele>7.4</ele>
        <time>2020-06-08T16:55:03Z</time>
      </trkpt>
      <trkpt lat="48.38541" lon="-4.43628">
        <ele>7.4</ele>
        <time>2020-06-08T16:55:04Z</time>
      </trkpt>
      <trkpt lat="48.38542" lon="-4.43633">
        <ele>7.2</ele>
        <time>2020-06-08T16:55:05Z</time>
      </trkpt>
      <trkpt lat="48.38543" lon="-4.43637">
        <ele>7.2</ele>
        <time>2020-06-08T16:55:06Z</time>
      </trkpt>
      <trkpt lat="48.38545" lon="-4.43641">
        <ele>7.2</ele>
        <time>2020-06-08T16:55:07Z</time>
      </trkpt>
      <trkpt lat="48.38548" lon="-4.43643">
        <ele>7.2</ele>
        <time>2020-06-08T16:55:08Z</time>
      </trkpt>
      <trkpt lat="48.38552" lon="-4.43645">
        <ele>7.2</ele>
        <time>2020-06-08T16:55:09Z</time>
      </trkpt>
      <trkpt lat="48.38555" lon="-4.43646">
        <ele>7.2</ele>
        <time>2020-06-08T16:55:10Z</time>
      </trkpt>
      <trkpt lat="48.38559" lon="-4.43647">
        <ele>7.2</ele>
        <time>2020-06-08T16:55:11Z</time>
      </trkpt>
      <trkpt lat="48.38563" lon="-4.43649">
        <ele>7.2</ele>
        <time>2020-06-08T16:55:12Z</time>
      </trkpt>
      <trkpt lat="48.38567" lon="-4.43651">
        <ele>7.2</ele>
        <time>2020-06-08T16:55:13Z</time>
      </trkpt>
      <trkpt lat="48.3857" lon="-4.43653">
        <ele>7.2</ele>
        <time>2020-06-08T16:55:14Z</time>
      </trkpt>
      <trkpt lat="48.38574" lon="-4.43655">
        <ele>7.2</ele>
        <time>2020-06-08T16:55:15Z</time>
      </trkpt>
      <trkpt lat="48.38578" lon="-4.43656">
        <ele>7.3</ele>
        <time>2020-06-08T16:55:16Z</time>
      </trkpt>
      <trkpt lat="48.38581" lon="-4.43659">
        <ele>7.3</ele>
        <time>2020-06-08T16:55:17Z</time>
      </trkpt>
      <trkpt lat="48.38584" lon="-4.43661">
        <ele>7.3</ele>
        <time>2020-06-08T16:55:18Z</time>
      </trkpt>
      <trkpt lat="48.38588" lon="-4.43663">
        <ele>7.3</ele>
        <time>2020-06-08T16:55:19Z</time>
      </trkpt>
      <trkpt lat="48.38591" lon="-4.43666">
        <ele>7.4</ele>
        <time>2020-06-08T16:55:20Z</time>
      </trkpt>
      <trkpt lat="48.38594" lon="-4.43669">
        <ele>7.4</ele>
        <time>2020-06-08T16:55:21Z</time>
      </trkpt>
      <trkpt lat="48.38598" lon="-4.4367">
        <ele>7.4</ele>
        <time>2020-06-08T16:55:22Z</time>
      </trkpt>
      <trkpt lat="48.38602" lon="-4.43672">
        <ele>7.5</ele>
        <time>2020-06-08T16:55:23Z</time>
      </trkpt>
      <trkpt lat="48.38606" lon="-4.43674">
        <ele>7.5</ele>
        <time>2020-06-08T16:55:24Z</time>
      </trkpt>
      <trkpt lat="48.38609" lon="-4.43677">
        <ele>7.5</ele>
        <time>2020-06-08T16:55:25Z</time>
      </trkpt>
      <trkpt lat="48.38613" lon="-4.4368">
        <ele>7.6</ele>
        <time>2020-06-08T16:55:26Z</time>
      </trkpt>
      <trkpt lat="48.38617" lon="-4.43682">
        <ele>7.6</ele>
        <time>2020-06-08T16:55:27Z</time>
      </trkpt>
      <trkpt lat="48.38621" lon="-4.43684">
        <ele>7.6</ele>
        <time>2020-06-08T16:55:28Z</time>
      </trkpt>
      <trkpt lat="48.38625" lon="-4.43686">
        <ele>7.7</ele>
        <time>2020-06-08T16:55:29Z</time>
      </trkpt>
      <trkpt lat="48.38629" lon="-4.43688">
        <ele>7.7</ele>
        <time>2020-06-08T16:55:30Z</time>
      </trkpt>
      <trkpt lat="48.38632" lon="-4.43691">
        <ele>7.7</ele>
        <time>2020-06-08T16:55:31Z</time>
      </trkpt>
      <trkpt lat="48.38637" lon="-4.43693">
        <ele>7.7</ele>
        <time>2020-06-08T16:55:32Z</time>
      </trkpt>
      <trkpt lat="48.38641" lon="-4.43696">
        <ele>7.7</ele>
        <time>2020-06-08T16:55:33Z</time>
      </trkpt>
      <trkpt lat="48.38645" lon="-4.43698">
        <ele>7.9</ele>
        <time>2020-06-08T16:55:34Z</time>
      </trkpt>
      <trkpt lat="48.38648" lon="-4.437">
        <ele>7.9</ele>
        <time>2020-06-08T16:55:35Z</time>
      </trkpt>
      <trkpt lat="48.38652" lon="-4.43702">
        <ele>8</ele>
        <time>2020-06-08T16:55:36Z</time>
      </trkpt>
      <trkpt lat="48.38655" lon="-4.43704">
        <ele>8.1</ele>
        <time>2020-06-08T16:55:37Z</time>
      </trkpt>
      <trkpt lat="48.38658" lon="-4.43706">
        <ele>8.1</ele>
        <time>2020-06-08T16:55:38Z</time>
      </trkpt>
      <trkpt lat="48.38661" lon="-4.43709">
        <ele>8.2</ele>
        <time>2020-06-08T16:55:39Z</time>
      </trkpt>
      <trkpt lat="48.38664" lon="-4.4371">
        <ele>8.2</ele>
        <time>2020-06-08T16:55:40Z</time>
      </trkpt>
      <trkpt lat="48.38667" lon="-4.43712">
        <ele>8.3</ele>
        <time>2020-06-08T16:55:41Z</time>
      </trkpt>
      <trkpt lat="48.38671" lon="-4.43714">
        <ele>8.3</ele>
        <time>2020-06-08T16:55:42Z</time>
      </trkpt>
      <trkpt lat="48.38675" lon="-4.43716">
        <ele>8.4</ele>
        <time>2020-06-08T16:55:43Z</time>
      </trkpt>
      <trkpt lat="48.38679" lon="-4.43718">
        <ele>8.4</ele>
        <time>2020-06-08T16:55:44Z</time>
      </trkpt>
      <trkpt lat="48.38683" lon="-4.4372">
        <ele>8.4</ele>
        <time>2020-06-08T16:55:45Z</time>
      </trkpt>
      <trkpt lat="48.38687" lon="-4.43724">
        <ele>8.5</ele>
        <time>2020-06-08T16:55:46Z</time>
      </trkpt>
      <trkpt lat="48.38692" lon="-4.43727">
        <ele>8.5</ele>
        <time>2020-06-08T16:55:47Z</time>
      </trkpt>
      <trkpt lat="48.38696" lon="-4.4373">
        <ele>8.5</ele>
        <time>2020-06-08T16:55:48Z</time>
      </trkpt>
      <trkpt lat="48.387" lon="-4.43732">
        <ele>8.6</ele>
        <time>2020-06-08T16:55:49Z</time>
      </trkpt>
      <trkpt lat="48.38703" lon="-4.43733">
        <ele>8.6</ele>
        <time>2020-06-08T16:55:50Z</time>
      </trkpt>
      <trkpt lat="48.38707" lon="-4.43735">
        <ele>8.6</ele>
        <time>2020-06-08T16:55:51Z</time>
      </trkpt>
      <trkpt lat="48.38711" lon="-4.43737">
        <ele>8.6</ele>
        <time>2020-06-08T16:55:52Z</time>
      </trkpt>
      <trkpt lat="48.38714" lon="-4.43739">
        <ele>8.6</ele>
        <time>2020-06-08T16:55:53Z</time>
      </trkpt>
      <trkpt lat="48.38717" lon="-4.43741">
        <ele>8.6</ele>
        <time>2020-06-08T16:55:54Z</time>
      </trkpt>
      <trkpt lat="48.38721" lon="-4.43744">
        <ele>8.6</ele>
        <time>2020-06-08T16:55:55Z</time>
      </trkpt>
      <trkpt lat="48.38723" lon="-4.43745">
        <ele>8.6</ele>
        <time>2020-06-08T16:55:56Z</time>
      </trkpt>
      <trkpt lat="48.38727" lon="-4.43748">
        <ele>8.6</ele>
        <time>2020-06-08T16:55:57Z</time>
      </trkpt>
      <trkpt lat="48.38729" lon="-4.43749">
        <ele>8.7</ele>
        <time>2020-06-08T16:55:58Z</time>
      </trkpt>
      <trkpt lat="48.38732" lon="-4.43751">
        <ele>8.7</ele>
        <time>2020-06-08T16:55:59Z</time>
      </trkpt>
      <trkpt lat="48.38736" lon="-4.43753">
        <ele>8.7</ele>
        <time>2020-06-08T16:56:00Z</time>
      </trkpt>
      <trkpt lat="48.3874" lon="-4.43755">
        <ele>8.8</ele>
        <time>2020-06-08T16:56:01Z</time>
      </trkpt>
      <trkpt lat="48.38744" lon="-4.43757">
        <ele>8.8</ele>
        <time>2020-06-08T16:56:02Z</time>
      </trkpt>
      <trkpt lat="48.38747" lon="-4.43758">
        <ele>8.9</ele>
        <time>2020-06-08T16:56:03Z</time>
      </trkpt>
      <trkpt lat="48.3875" lon="-4.43761">
        <ele>8.9</ele>
        <time>2020-06-08T16:56:04Z</time>
      </trkpt>
      <trkpt lat="48.38754" lon="-4.43762">
        <ele>9</ele>
        <time>2020-06-08T16:56:05Z</time>
      </trkpt>
      <trkpt lat="48.38756" lon="-4.43764">
        <ele>9</ele>
        <time>2020-06-08T16:56:06Z</time>
      </trkpt>
      <trkpt lat="48.38759" lon="-4.43766">
        <ele>9.1</ele>
        <time>2020-06-08T16:56:07Z</time>
      </trkpt>
      <trkpt lat="48.38763" lon="-4.43769">
        <ele>9.1</ele>
        <time>2020-06-08T16:56:08Z</time>
      </trkpt>
      <trkpt lat="48.38765" lon="-4.4377">
        <ele>9.1</ele>
        <time>2020-06-08T16:56:09Z</time>
      </trkpt>
      <trkpt lat="48.38768" lon="-4.43772">
        <ele>9.2</ele>
        <time>2020-06-08T16:56:10Z</time>
      </trkpt>
      <trkpt lat="48.38771" lon="-4.43774">
        <ele>9.3</ele>
        <time>2020-06-08T16:56:11Z</time>
      </trkpt>
      <trkpt lat="48.38774" lon="-4.43777">
        <ele>9.3</ele>
        <time>2020-06-08T16:56:12Z</time>
      </trkpt>
      <trkpt lat="48.38777" lon="-4.43779">
        <ele>9.4</ele>
        <time>2020-06-08T16:56:13Z</time>
      </trkpt>
      <trkpt lat="48.3878" lon="-4.43782">
        <ele>9.4</ele>
        <time>2020-06-08T16:56:14Z</time>
      </trkpt>
      <trkpt lat="48.38783" lon="-4.43784">
        <ele>9.4</ele>
        <time>2020-06-08T16:56:15Z</time>
      </trkpt>
      <trkpt lat="48.38787" lon="-4.43787">
        <ele>9.5</ele>
        <time>2020-06-08T16:56:16Z</time>
      </trkpt>
      <trkpt lat="48.38789" lon="-4.43789">
        <ele>9.5</ele>
        <time>2020-06-08T16:56:17Z</time>
      </trkpt>
      <trkpt lat="48.38788" lon="-4.43795">
        <ele>9.6</ele>
        <time>2020-06-08T16:56:18Z</time>
      </trkpt>
      <trkpt lat="48.38788" lon="-4.43797">
        <ele>9.6</ele>
        <time>2020-06-08T16:56:19Z</time>
      </trkpt>
      <trkpt lat="48.3879" lon="-4.43803">
        <ele>9.6</ele>
        <time>2020-06-08T16:56:20Z</time>
      </trkpt>
      <trkpt lat="48.38791" lon="-4.43805">
        <ele>9.6</ele>
        <time>2020-06-08T16:56:21Z</time>
      </trkpt>
      <trkpt lat="48.38793" lon="-4.43808">
        <ele>9.7</ele>
        <time>2020-06-08T16:56:22Z</time>
      </trkpt>
      <trkpt lat="48.38796" lon="-4.43811">
        <ele>9.7</ele>
        <time>2020-06-08T16:56:23Z</time>
      </trkpt>
      <trkpt lat="48.388" lon="-4.43813">
        <ele>9.7</ele>
        <time>2020-06-08T16:56:24Z</time>
      </trkpt>
      <trkpt lat="48.38803" lon="-4.43815">
        <ele>9.9</ele>
        <time>2020-06-08T16:56:25Z</time>
      </trkpt>
      <trkpt lat="48.38806" lon="-4.43817">
        <ele>10</ele>
        <time>2020-06-08T16:56:26Z</time>
      </trkpt>
      <trkpt lat="48.38809" lon="-4.4382">
        <ele>10</ele>
        <time>2020-06-08T16:56:27Z</time>
      </trkpt>
      <trkpt lat="48.38812" lon="-4.43823">
        <ele>10</ele>
        <time>2020-06-08T16:56:28Z</time>
      </trkpt>
      <trkpt lat="48.38815" lon="-4.43826">
        <ele>10.1</ele>
        <time>2020-06-08T16:56:29Z</time>
      </trkpt>
      <trkpt lat="48.38817" lon="-4.43828">
        <ele>10.1</ele>
        <time>2020-06-08T16:56:30Z</time>
      </trkpt>
      <trkpt lat="48.3882" lon="-4.43831">
        <ele>10.1</ele>
        <time>2020-06-08T16:56:31Z</time>
      </trkpt>
      <trkpt lat="48.38823" lon="-4.43833">
        <ele>10.2</ele>
        <time>2020-06-08T16:56:32Z</time>
      </trkpt>
      <trkpt lat="48.38825" lon="-4.43835">
        <ele>10.2</ele>
        <time>2020-06-08T16:56:33Z</time>
      </trkpt>
      <trkpt lat="48.38828" lon="-4.43837">
        <ele>10.2</ele>
        <time>2020-06-08T16:56:34Z</time>
      </trkpt>
      <trkpt lat="48.38831" lon="-4.43839">
        <ele>10.2</ele>
        <time>2020-06-08T16:56:35Z</time>
      </trkpt>
      <trkpt lat="48.38833" lon="-4.4384">
        <ele>10.2</ele>
        <time>2020-06-08T16:56:36Z</time>
      </trkpt>
      <trkpt lat="48.38836" lon="-4.43842">
        <ele>10.3</ele>
        <time>2020-06-08T16:56:37Z</time>
      </trkpt>
      <trkpt lat="48.38837" lon="-4.43843">
        <ele>10.3</ele>
        <time>2020-06-08T16:56:38Z</time>
      </trkpt>
      <trkpt lat="48.3884" lon="-4.43846">
        <ele>10.3</ele>
        <time>2020-06-08T16:56:39Z</time>
      </trkpt>
      <trkpt lat="48.38843" lon="-4.43849">
        <ele>10.4</ele>
        <time>2020-06-08T16:56:40Z</time>
      </trkpt>
      <trkpt lat="48.38845" lon="-4.43852">
        <ele>10.4</ele>
        <time>2020-06-08T16:56:41Z</time>
      </trkpt>
      <trkpt lat="48.38848" lon="-4.43854">
        <ele>10.4</ele>
        <time>2020-06-08T16:56:42Z</time>
      </trkpt>
      <trkpt lat="48.38853" lon="-4.43857">
        <ele>10.5</ele>
        <time>2020-06-08T16:56:43Z</time>
      </trkpt>
      <trkpt lat="48.38857" lon="-4.4386">
        <ele>10.5</ele>
        <time>2020-06-08T16:56:44Z</time>
      </trkpt>
      <trkpt lat="48.38862" lon="-4.43864">
        <ele>10.5</ele>
        <time>2020-06-08T16:56:45Z</time>
      </trkpt>
      <trkpt lat="48.38866" lon="-4.43869">
        <ele>10.5</ele>
        <time>2020-06-08T16:56:46Z</time>
      </trkpt>
      <trkpt lat="48.38871" lon="-4.43873">
        <ele>10.5</ele>
        <time>2020-06-08T16:56:47Z</time>
      </trkpt>
      <trkpt lat="48.38875" lon="-4.43877">
        <ele>10.5</ele>
        <time>2020-06-08T16:56:48Z</time>
      </trkpt>
      <trkpt lat="48.38879" lon="-4.4388">
        <ele>10.5</ele>
        <time>2020-06-08T16:56:49Z</time>
      </trkpt>
      <trkpt lat="48.38883" lon="-4.43881">
        <ele>10.5</ele>
        <time>2020-06-08T16:56:50Z</time>
      </trkpt>
      <trkpt lat="48.38887" lon="-4.4388">
        <ele>10.3</ele>
        <time>2020-06-08T16:56:51Z</time>
      </trkpt>
      <trkpt lat="48.3889" lon="-4.43877">
        <ele>10.3</ele>
        <time>2020-06-08T16:56:52Z</time>
      </trkpt>
      <trkpt lat="48.3889" lon="-4.43876">
        <ele>10.3</ele>
        <time>2020-06-08T16:56:53Z</time>
      </trkpt>
      <trkpt lat="48.38892" lon="-4.43873">
        <ele>10.3</ele>
        <time>2020-06-08T16:56:54Z</time>
      </trkpt>
      <trkpt lat="48.38892" lon="-4.43872">
        <ele>10.3</ele>
        <time>2020-06-08T16:56:55Z</time>
      </trkpt>
      <trkpt lat="48.38893" lon="-4.43872">
        <ele>10.3</ele>
        <time>2020-06-08T16:56:56Z</time>
      </trkpt>
      <trkpt lat="48.38896" lon="-4.43874">
        <ele>10.3</ele>
        <time>2020-06-08T16:56:57Z</time>
      </trkpt>
      <trkpt lat="48.38897" lon="-4.43875">
        <ele>10.3</ele>
        <time>2020-06-08T16:56:58Z</time>
      </trkpt>
      <trkpt lat="48.38899" lon="-4.43877">
        <ele>10.3</ele>
        <time>2020-06-08T16:56:59Z</time>
      </trkpt>
      <trkpt lat="48.38902" lon="-4.43878">
        <ele>10.3</ele>
        <time>2020-06-08T16:57:00Z</time>
      </trkpt>
      <trkpt lat="48.38905" lon="-4.4388">
        <ele>10.3</ele>
        <time>2020-06-08T16:57:01Z</time>
      </trkpt>
      <trkpt lat="48.38908" lon="-4.43882">
        <ele>10.3</ele>
        <time>2020-06-08T16:57:02Z</time>
      </trkpt>
      <trkpt lat="48.38911" lon="-4.43884">
        <ele>10.2</ele>
        <time>2020-06-08T16:57:03Z</time>
      </trkpt>
      <trkpt lat="48.38913" lon="-4.43888">
        <ele>10.2</ele>
        <time>2020-06-08T16:57:04Z</time>
      </trkpt>
      <trkpt lat="48.38916" lon="-4.43894">
        <ele>10.2</ele>
        <time>2020-06-08T16:57:05Z</time>
      </trkpt>
      <trkpt lat="48.38918" lon="-4.439">
        <ele>10.1</ele>
        <time>2020-06-08T16:57:06Z</time>
      </trkpt>
      <trkpt lat="48.3892" lon="-4.43905">
        <ele>10.1</ele>
        <time>2020-06-08T16:57:07Z</time>
      </trkpt>
      <trkpt lat="48.38923" lon="-4.43911">
        <ele>10</ele>
        <time>2020-06-08T16:57:08Z</time>
      </trkpt>
      <trkpt lat="48.38924" lon="-4.43917">
        <ele>10</ele>
        <time>2020-06-08T16:57:09Z</time>
      </trkpt>
      <trkpt lat="48.38926" lon="-4.43923">
        <ele>9.9</ele>
        <time>2020-06-08T16:57:10Z</time>
      </trkpt>
      <trkpt lat="48.38927" lon="-4.4393">
        <ele>9.8</ele>
        <time>2020-06-08T16:57:11Z</time>
      </trkpt>
      <trkpt lat="48.38928" lon="-4.43937">
        <ele>9.8</ele>
        <time>2020-06-08T16:57:12Z</time>
      </trkpt>
      <trkpt lat="48.38929" lon="-4.43944">
        <ele>9.7</ele>
        <time>2020-06-08T16:57:13Z</time>
      </trkpt>
      <trkpt lat="48.3893" lon="-4.43951">
        <ele>9.7</ele>
        <time>2020-06-08T16:57:14Z</time>
      </trkpt>
      <trkpt lat="48.38932" lon="-4.43958">
        <ele>9.6</ele>
        <time>2020-06-08T16:57:15Z</time>
      </trkpt>
      <trkpt lat="48.38933" lon="-4.43965">
        <ele>9.6</ele>
        <time>2020-06-08T16:57:16Z</time>
      </trkpt>
      <trkpt lat="48.38933" lon="-4.43972">
        <ele>9.6</ele>
        <time>2020-06-08T16:57:17Z</time>
      </trkpt>
      <trkpt lat="48.38934" lon="-4.43978">
        <ele>9.5</ele>
        <time>2020-06-08T16:57:18Z</time>
      </trkpt>
      <trkpt lat="48.38934" lon="-4.43986">
        <ele>9.5</ele>
        <time>2020-06-08T16:57:19Z</time>
      </trkpt>
      <trkpt lat="48.38938" lon="-4.43992">
        <ele>9.5</ele>
        <time>2020-06-08T16:57:20Z</time>
      </trkpt>
      <trkpt lat="48.38942" lon="-4.43998">
        <ele>9.4</ele>
        <time>2020-06-08T16:57:21Z</time>
      </trkpt>
      <trkpt lat="48.38945" lon="-4.44004">
        <ele>9.3</ele>
        <time>2020-06-08T16:57:22Z</time>
      </trkpt>
      <trkpt lat="48.38948" lon="-4.44011">
        <ele>9.1</ele>
        <time>2020-06-08T16:57:23Z</time>
      </trkpt>
      <trkpt lat="48.3895" lon="-4.44017">
        <ele>9.1</ele>
        <time>2020-06-08T16:57:24Z</time>
      </trkpt>
      <trkpt lat="48.38952" lon="-4.44023">
        <ele>9</ele>
        <time>2020-06-08T16:57:25Z</time>
      </trkpt>
      <trkpt lat="48.38954" lon="-4.44029">
        <ele>9</ele>
        <time>2020-06-08T16:57:26Z</time>
      </trkpt>
      <trkpt lat="48.38957" lon="-4.44035">
        <ele>8.9</ele>
        <time>2020-06-08T16:57:27Z</time>
      </trkpt>
      <trkpt lat="48.38958" lon="-4.44042">
        <ele>8.9</ele>
        <time>2020-06-08T16:57:28Z</time>
      </trkpt>
      <trkpt lat="48.38958" lon="-4.44049">
        <ele>8.7</ele>
        <time>2020-06-08T16:57:29Z</time>
      </trkpt>
      <trkpt lat="48.38958" lon="-4.44056">
        <ele>8.6</ele>
        <time>2020-06-08T16:57:30Z</time>
      </trkpt>
      <trkpt lat="48.38959" lon="-4.44061">
        <ele>8.5</ele>
        <time>2020-06-08T16:57:31Z</time>
      </trkpt>
      <trkpt lat="48.38961" lon="-4.44067">
        <ele>8.5</ele>
        <time>2020-06-08T16:57:32Z</time>
      </trkpt>
      <trkpt lat="48.38962" lon="-4.44074">
        <ele>8.5</ele>
        <time>2020-06-08T16:57:33Z</time>
      </trkpt>
      <trkpt lat="48.38962" lon="-4.44081">
        <ele>8.5</ele>
        <time>2020-06-08T16:57:34Z</time>
      </trkpt>
      <trkpt lat="48.38962" lon="-4.44088">
        <ele>8.5</ele>
        <time>2020-06-08T16:57:35Z</time>
      </trkpt>
      <trkpt lat="48.38962" lon="-4.44093">
        <ele>8.8</ele>
        <time>2020-06-08T16:57:36Z</time>
      </trkpt>
      <trkpt lat="48.38961" lon="-4.441">
        <ele>8.8</ele>
        <time>2020-06-08T16:57:37Z</time>
      </trkpt>
      <trkpt lat="48.38959" lon="-4.44106">
        <ele>8.7</ele>
        <time>2020-06-08T16:57:38Z</time>
      </trkpt>
      <trkpt lat="48.38958" lon="-4.44112">
        <ele>8.3</ele>
        <time>2020-06-08T16:57:39Z</time>
      </trkpt>
      <trkpt lat="48.38959" lon="-4.44119">
        <ele>8.2</ele>
        <time>2020-06-08T16:57:40Z</time>
      </trkpt>
      <trkpt lat="48.38963" lon="-4.44126">
        <ele>8.2</ele>
        <time>2020-06-08T16:57:41Z</time>
      </trkpt>
      <trkpt lat="48.38965" lon="-4.44135">
        <ele>8.1</ele>
        <time>2020-06-08T16:57:42Z</time>
      </trkpt>
      <trkpt lat="48.38967" lon="-4.44142">
        <ele>8.1</ele>
        <time>2020-06-08T16:57:43Z</time>
      </trkpt>
      <trkpt lat="48.38969" lon="-4.4415">
        <ele>8</ele>
        <time>2020-06-08T16:57:44Z</time>
      </trkpt>
      <trkpt lat="48.3897" lon="-4.44157">
        <ele>7.9</ele>
        <time>2020-06-08T16:57:45Z</time>
      </trkpt>
      <trkpt lat="48.38972" lon="-4.44166">
        <ele>7.8</ele>
        <time>2020-06-08T16:57:46Z</time>
      </trkpt>
      <trkpt lat="48.38973" lon="-4.44175">
        <ele>7.7</ele>
        <time>2020-06-08T16:57:47Z</time>
      </trkpt>
      <trkpt lat="48.38975" lon="-4.44182">
        <ele>7.6</ele>
        <time>2020-06-08T16:57:48Z</time>
      </trkpt>
      <trkpt lat="48.38977" lon="-4.44189">
        <ele>7.6</ele>
        <time>2020-06-08T16:57:49Z</time>
      </trkpt>
      <trkpt lat="48.3898" lon="-4.44197">
        <ele>7.5</ele>
        <time>2020-06-08T16:57:50Z</time>
      </trkpt>
      <trkpt lat="48.38982" lon="-4.44204">
        <ele>7.5</ele>
        <time>2020-06-08T16:57:51Z</time>
      </trkpt>
      <trkpt lat="48.38985" lon="-4.44212">
        <ele>7.5</ele>
        <time>2020-06-08T16:57:52Z</time>
      </trkpt>
      <trkpt lat="48.38988" lon="-4.44219">
        <ele>7.4</ele>
        <time>2020-06-08T16:57:53Z</time>
      </trkpt>
      <trkpt lat="48.38991" lon="-4.44226">
        <ele>7.4</ele>
        <time>2020-06-08T16:57:54Z</time>
      </trkpt>
      <trkpt lat="48.38995" lon="-4.44232">
        <ele>7.4</ele>
        <time>2020-06-08T16:57:55Z</time>
      </trkpt>
      <trkpt lat="48.38997" lon="-4.4424">
        <ele>7.4</ele>
        <time>2020-06-08T16:57:56Z</time>
      </trkpt>
      <trkpt lat="48.39" lon="-4.44246">
        <ele>7.4</ele>
        <time>2020-06-08T16:57:57Z</time>
      </trkpt>
      <trkpt lat="48.39003" lon="-4.44252">
        <ele>7.4</ele>
        <time>2020-06-08T16:57:58Z</time>
      </trkpt>
      <trkpt lat="48.39007" lon="-4.44258">
        <ele>7.4</ele>
        <time>2020-06-08T16:57:59Z</time>
      </trkpt>
      <trkpt lat="48.3901" lon="-4.44265">
        <ele>7.4</ele>
        <time>2020-06-08T16:58:00Z</time>
      </trkpt>
      <trkpt lat="48.39012" lon="-4.44271">
        <ele>7.5</ele>
        <time>2020-06-08T16:58:01Z</time>
      </trkpt>
      <trkpt lat="48.39015" lon="-4.44278">
        <ele>7.5</ele>
        <time>2020-06-08T16:58:02Z</time>
      </trkpt>
      <trkpt lat="48.39018" lon="-4.44286">
        <ele>7.5</ele>
        <time>2020-06-08T16:58:03Z</time>
      </trkpt>
      <trkpt lat="48.39021" lon="-4.44292">
        <ele>7.5</ele>
        <time>2020-06-08T16:58:04Z</time>
      </trkpt>
      <trkpt lat="48.39024" lon="-4.44299">
        <ele>7.5</ele>
        <time>2020-06-08T16:58:05Z</time>
      </trkpt>
      <trkpt lat="48.39027" lon="-4.44306">
        <ele>7.6</ele>
        <time>2020-06-08T16:58:06Z</time>
      </trkpt>
      <trkpt lat="48.39029" lon="-4.44312">
        <ele>7.6</ele>
        <time>2020-06-08T16:58:07Z</time>
      </trkpt>
      <trkpt lat="48.39032" lon="-4.44317">
        <ele>7.5</ele>
        <time>2020-06-08T16:58:08Z</time>
      </trkpt>
      <trkpt lat="48.39034" lon="-4.44323">
        <ele>7.5</ele>
        <time>2020-06-08T16:58:09Z</time>
      </trkpt>
      <trkpt lat="48.39037" lon="-4.44329">
        <ele>7.4</ele>
        <time>2020-06-08T16:58:10Z</time>
      </trkpt>
      <trkpt lat="48.3904" lon="-4.44336">
        <ele>7.4</ele>
        <time>2020-06-08T16:58:11Z</time>
      </trkpt>
      <trkpt lat="48.39042" lon="-4.44342">
        <ele>7.3</ele>
        <time>2020-06-08T16:58:12Z</time>
      </trkpt>
      <trkpt lat="48.39045" lon="-4.44348">
        <ele>7.3</ele>
        <time>2020-06-08T16:58:13Z</time>
      </trkpt>
      <trkpt lat="48.39047" lon="-4.44354">
        <ele>7.3</ele>
        <time>2020-06-08T16:58:14Z</time>
      </trkpt>
      <trkpt lat="48.3905" lon="-4.4436">
        <ele>7.3</ele>
        <time>2020-06-08T16:58:15Z</time>
      </trkpt>
      <trkpt lat="48.39052" lon="-4.44367">
        <ele>7.3</ele>
        <time>2020-06-08T16:58:16Z</time>
      </trkpt>
      <trkpt lat="48.39054" lon="-4.44373">
        <ele>7.2</ele>
        <time>2020-06-08T16:58:17Z</time>
      </trkpt>
      <trkpt lat="48.39057" lon="-4.4438">
        <ele>7.2</ele>
        <time>2020-06-08T16:58:18Z</time>
      </trkpt>
      <trkpt lat="48.3906" lon="-4.44386">
        <ele>7.2</ele>
        <time>2020-06-08T16:58:19Z</time>
      </trkpt>
      <trkpt lat="48.39062" lon="-4.44392">
        <ele>7.2</ele>
        <time>2020-06-08T16:58:20Z</time>
      </trkpt>
      <trkpt lat="48.39065" lon="-4.44398">
        <ele>7.2</ele>
        <time>2020-06-08T16:58:21Z</time>
      </trkpt>
      <trkpt lat="48.39068" lon="-4.44405">
        <ele>7.2</ele>
        <time>2020-06-08T16:58:22Z</time>
      </trkpt>
      <trkpt lat="48.3907" lon="-4.44412">
        <ele>7.2</ele>
        <time>2020-06-08T16:58:23Z</time>
      </trkpt>
      <trkpt lat="48.39073" lon="-4.44418">
        <ele>7.2</ele>
        <time>2020-06-08T16:58:24Z</time>
      </trkpt>
      <trkpt lat="48.39075" lon="-4.44425">
        <ele>7.2</ele>
        <time>2020-06-08T16:58:25Z</time>
      </trkpt>
      <trkpt lat="48.39077" lon="-4.44432">
        <ele>7.2</ele>
        <time>2020-06-08T16:58:26Z</time>
      </trkpt>
      <trkpt lat="48.3908" lon="-4.44438">
        <ele>7.2</ele>
        <time>2020-06-08T16:58:27Z</time>
      </trkpt>
      <trkpt lat="48.39082" lon="-4.44445">
        <ele>7.2</ele>
        <time>2020-06-08T16:58:28Z</time>
      </trkpt>
      <trkpt lat="48.39085" lon="-4.44452">
        <ele>7.2</ele>
        <time>2020-06-08T16:58:29Z</time>
      </trkpt>
      <trkpt lat="48.39087" lon="-4.44458">
        <ele>7.2</ele>
        <time>2020-06-08T16:58:30Z</time>
      </trkpt>
      <trkpt lat="48.3909" lon="-4.44465">
        <ele>7.2</ele>
        <time>2020-06-08T16:58:31Z</time>
      </trkpt>
      <trkpt lat="48.39092" lon="-4.44471">
        <ele>7.2</ele>
        <time>2020-06-08T16:58:32Z</time>
      </trkpt>
      <trkpt lat="48.39095" lon="-4.44477">
        <ele>7.2</ele>
        <time>2020-06-08T16:58:33Z</time>
      </trkpt>
      <trkpt lat="48.39098" lon="-4.44484">
        <ele>7.2</ele>
        <time>2020-06-08T16:58:34Z</time>
      </trkpt>
      <trkpt lat="48.39101" lon="-4.44491">
        <ele>7.2</ele>
        <time>2020-06-08T16:58:35Z</time>
      </trkpt>
      <trkpt lat="48.39104" lon="-4.44498">
        <ele>7.2</ele>
        <time>2020-06-08T16:58:36Z</time>
      </trkpt>
      <trkpt lat="48.39107" lon="-4.44504">
        <ele>7.2</ele>
        <time>2020-06-08T16:58:37Z</time>
      </trkpt>
      <trkpt lat="48.3911" lon="-4.4451">
        <ele>7.2</ele>
        <time>2020-06-08T16:58:38Z</time>
      </trkpt>
      <trkpt lat="48.39113" lon="-4.44517">
        <ele>7.1</ele>
        <time>2020-06-08T16:58:39Z</time>
      </trkpt>
      <trkpt lat="48.39116" lon="-4.44523">
        <ele>7.1</ele>
        <time>2020-06-08T16:58:40Z</time>
      </trkpt>
      <trkpt lat="48.3912" lon="-4.4453">
        <ele>7.1</ele>
        <time>2020-06-08T16:58:41Z</time>
      </trkpt>
      <trkpt lat="48.39124" lon="-4.44536">
        <ele>7.1</ele>
        <time>2020-06-08T16:58:42Z</time>
      </trkpt>
      <trkpt lat="48.39128" lon="-4.44542">
        <ele>7</ele>
        <time>2020-06-08T16:58:43Z</time>
      </trkpt>
      <trkpt lat="48.39131" lon="-4.44548">
        <ele>7</ele>
        <time>2020-06-08T16:58:44Z</time>
      </trkpt>
      <trkpt lat="48.39135" lon="-4.44554">
        <ele>7</ele>
        <time>2020-06-08T16:58:45Z</time>
      </trkpt>
      <trkpt lat="48.39138" lon="-4.44561">
        <ele>7</ele>
        <time>2020-06-08T16:58:46Z</time>
      </trkpt>
      <trkpt lat="48.39141" lon="-4.44567">
        <ele>7.1</ele>
        <time>2020-06-08T16:58:47Z</time>
      </trkpt>
      <trkpt lat="48.39145" lon="-4.44573">
        <ele>7.1</ele>
        <time>2020-06-08T16:58:48Z</time>
      </trkpt>
      <trkpt lat="48.39148" lon="-4.44579">
        <ele>7.2</ele>
        <time>2020-06-08T16:58:49Z</time>
      </trkpt>
      <trkpt lat="48.39151" lon="-4.44586">
        <ele>7.1</ele>
        <time>2020-06-08T16:58:50Z</time>
      </trkpt>
      <trkpt lat="48.39152" lon="-4.44593">
        <ele>7</ele>
        <time>2020-06-08T16:58:51Z</time>
      </trkpt>
      <trkpt lat="48.39154" lon="-4.446">
        <ele>7</ele>
        <time>2020-06-08T16:58:52Z</time>
      </trkpt>
      <trkpt lat="48.39156" lon="-4.44606">
        <ele>6.9</ele>
        <time>2020-06-08T16:58:53Z</time>
      </trkpt>
      <trkpt lat="48.39157" lon="-4.44613">
        <ele>6.9</ele>
        <time>2020-06-08T16:58:54Z</time>
      </trkpt>
      <trkpt lat="48.39159" lon="-4.4462">
        <ele>6.9</ele>
        <time>2020-06-08T16:58:55Z</time>
      </trkpt>
      <trkpt lat="48.39161" lon="-4.44627">
        <ele>6.8</ele>
        <time>2020-06-08T16:58:56Z</time>
      </trkpt>
      <trkpt lat="48.39161" lon="-4.44635">
        <ele>6.7</ele>
        <time>2020-06-08T16:58:57Z</time>
      </trkpt>
      <trkpt lat="48.39161" lon="-4.44643">
        <ele>6.7</ele>
        <time>2020-06-08T16:58:58Z</time>
      </trkpt>
      <trkpt lat="48.39161" lon="-4.44652">
        <ele>6.7</ele>
        <time>2020-06-08T16:58:59Z</time>
      </trkpt>
      <trkpt lat="48.39163" lon="-4.4466">
        <ele>6.7</ele>
        <time>2020-06-08T16:59:00Z</time>
      </trkpt>
      <trkpt lat="48.39164" lon="-4.44668">
        <ele>6.7</ele>
        <time>2020-06-08T16:59:01Z</time>
      </trkpt>
      <trkpt lat="48.39164" lon="-4.44676">
        <ele>6.7</ele>
        <time>2020-06-08T16:59:02Z</time>
      </trkpt>
      <trkpt lat="48.39166" lon="-4.44684">
        <ele>6.8</ele>
        <time>2020-06-08T16:59:03Z</time>
      </trkpt>
      <trkpt lat="48.39167" lon="-4.44692">
        <ele>6.8</ele>
        <time>2020-06-08T16:59:04Z</time>
      </trkpt>
      <trkpt lat="48.39167" lon="-4.447">
        <ele>6.8</ele>
        <time>2020-06-08T16:59:05Z</time>
      </trkpt>
      <trkpt lat="48.39168" lon="-4.44708">
        <ele>6.8</ele>
        <time>2020-06-08T16:59:06Z</time>
      </trkpt>
      <trkpt lat="48.39168" lon="-4.44716">
        <ele>6.8</ele>
        <time>2020-06-08T16:59:07Z</time>
      </trkpt>
      <trkpt lat="48.39167" lon="-4.44724">
        <ele>6.8</ele>
        <time>2020-06-08T16:59:08Z</time>
      </trkpt>
      <trkpt lat="48.39167" lon="-4.44732">
        <ele>6.8</ele>
        <time>2020-06-08T16:59:09Z</time>
      </trkpt>
      <trkpt lat="48.39168" lon="-4.4474">
        <ele>6.8</ele>
        <time>2020-06-08T16:59:10Z</time>
      </trkpt>
      <trkpt lat="48.39167" lon="-4.44748">
        <ele>6.8</ele>
        <time>2020-06-08T16:59:11Z</time>
      </trkpt>
      <trkpt lat="48.39167" lon="-4.44757">
        <ele>6.8</ele>
        <time>2020-06-08T16:59:12Z</time>
      </trkpt>
      <trkpt lat="48.39165" lon="-4.44766">
        <ele>6.8</ele>
        <time>2020-06-08T16:59:13Z</time>
      </trkpt>
      <trkpt lat="48.39165" lon="-4.44775">
        <ele>6.8</ele>
        <time>2020-06-08T16:59:14Z</time>
      </trkpt>
      <trkpt lat="48.39164" lon="-4.44783">
        <ele>6.8</ele>
        <time>2020-06-08T16:59:15Z</time>
      </trkpt>
      <trkpt lat="48.39164" lon="-4.44792">
        <ele>6.8</ele>
        <time>2020-06-08T16:59:16Z</time>
      </trkpt>
      <trkpt lat="48.39163" lon="-4.448">
        <ele>6.8</ele>
        <time>2020-06-08T16:59:17Z</time>
      </trkpt>
      <trkpt lat="48.39161" lon="-4.44808">
        <ele>6.7</ele>
        <time>2020-06-08T16:59:18Z</time>
      </trkpt>
      <trkpt lat="48.3916" lon="-4.44816">
        <ele>6.7</ele>
        <time>2020-06-08T16:59:19Z</time>
      </trkpt>
      <trkpt lat="48.39158" lon="-4.44823">
        <ele>6.7</ele>
        <time>2020-06-08T16:59:20Z</time>
      </trkpt>
      <trkpt lat="48.39156" lon="-4.44831">
        <ele>6.7</ele>
        <time>2020-06-08T16:59:21Z</time>
      </trkpt>
      <trkpt lat="48.39154" lon="-4.44839">
        <ele>6.6</ele>
        <time>2020-06-08T16:59:22Z</time>
      </trkpt>
      <trkpt lat="48.39152" lon="-4.44847">
        <ele>6.6</ele>
        <time>2020-06-08T16:59:23Z</time>
      </trkpt>
      <trkpt lat="48.39149" lon="-4.44854">
        <ele>6.6</ele>
        <time>2020-06-08T16:59:24Z</time>
      </trkpt>
      <trkpt lat="48.39146" lon="-4.44861">
        <ele>6.5</ele>
        <time>2020-06-08T16:59:25Z</time>
      </trkpt>
      <trkpt lat="48.39144" lon="-4.44869">
        <ele>6.5</ele>
        <time>2020-06-08T16:59:26Z</time>
      </trkpt>
      <trkpt lat="48.39141" lon="-4.44877">
        <ele>6.5</ele>
        <time>2020-06-08T16:59:27Z</time>
      </trkpt>
      <trkpt lat="48.39139" lon="-4.44886">
        <ele>6.5</ele>
        <time>2020-06-08T16:59:28Z</time>
      </trkpt>
      <trkpt lat="48.39137" lon="-4.44895">
        <ele>6.5</ele>
        <time>2020-06-08T16:59:29Z</time>
      </trkpt>
      <trkpt lat="48.39134" lon="-4.44904">
        <ele>6.5</ele>
        <time>2020-06-08T16:59:30Z</time>
      </trkpt>
      <trkpt lat="48.39132" lon="-4.44912">
        <ele>6.6</ele>
        <time>2020-06-08T16:59:31Z</time>
      </trkpt>
      <trkpt lat="48.3913" lon="-4.4492">
        <ele>6.6</ele>
        <time>2020-06-08T16:59:32Z</time>
      </trkpt>
      <trkpt lat="48.39128" lon="-4.44928">
        <ele>6.6</ele>
        <time>2020-06-08T16:59:33Z</time>
      </trkpt>
      <trkpt lat="48.39125" lon="-4.44936">
        <ele>6.7</ele>
        <time>2020-06-08T16:59:34Z</time>
      </trkpt>
      <trkpt lat="48.39122" lon="-4.44944">
        <ele>6.7</ele>
        <time>2020-06-08T16:59:35Z</time>
      </trkpt>
      <trkpt lat="48.3912" lon="-4.44953">
        <ele>6.7</ele>
        <time>2020-06-08T16:59:36Z</time>
      </trkpt>
      <trkpt lat="48.39118" lon="-4.44961">
        <ele>6.7</ele>
        <time>2020-06-08T16:59:37Z</time>
      </trkpt>
      <trkpt lat="48.39115" lon="-4.44969">
        <ele>6.7</ele>
        <time>2020-06-08T16:59:38Z</time>
      </trkpt>
      <trkpt lat="48.39113" lon="-4.44977">
        <ele>6.7</ele>
        <time>2020-06-08T16:59:39Z</time>
      </trkpt>
      <trkpt lat="48.39111" lon="-4.44984">
        <ele>6.7</ele>
        <time>2020-06-08T16:59:40Z</time>
      </trkpt>
      <trkpt lat="48.39109" lon="-4.44993">
        <ele>6.7</ele>
        <time>2020-06-08T16:59:41Z</time>
      </trkpt>
      <trkpt lat="48.39107" lon="-4.45">
        <ele>6.7</ele>
        <time>2020-06-08T16:59:42Z</time>
      </trkpt>
      <trkpt lat="48.39104" lon="-4.45008">
        <ele>6.7</ele>
        <time>2020-06-08T16:59:43Z</time>
      </trkpt>
      <trkpt lat="48.39102" lon="-4.45016">
        <ele>6.7</ele>
        <time>2020-06-08T16:59:44Z</time>
      </trkpt>
      <trkpt lat="48.39099" lon="-4.45024">
        <ele>6.7</ele>
        <time>2020-06-08T16:59:45Z</time>
      </trkpt>
      <trkpt lat="48.39097" lon="-4.45032">
        <ele>6.7</ele>
        <time>2020-06-08T16:59:46Z</time>
      </trkpt>
      <trkpt lat="48.39095" lon="-4.45039">
        <ele>6.7</ele>
        <time>2020-06-08T16:59:47Z</time>
      </trkpt>
      <trkpt lat="48.39093" lon="-4.45047">
        <ele>6.7</ele>
        <time>2020-06-08T16:59:48Z</time>
      </trkpt>
      <trkpt lat="48.3909" lon="-4.45055">
        <ele>6.7</ele>
        <time>2020-06-08T16:59:49Z</time>
      </trkpt>
      <trkpt lat="48.39088" lon="-4.45063">
        <ele>6.7</ele>
        <time>2020-06-08T16:59:50Z</time>
      </trkpt>
      <trkpt lat="48.39086" lon="-4.45071">
        <ele>6.7</ele>
        <time>2020-06-08T16:59:51Z</time>
      </trkpt>
      <trkpt lat="48.39083" lon="-4.4508">
        <ele>6.6</ele>
        <time>2020-06-08T16:59:52Z</time>
      </trkpt>
      <trkpt lat="48.3908" lon="-4.45088">
        <ele>6.6</ele>
        <time>2020-06-08T16:59:53Z</time>
      </trkpt>
      <trkpt lat="48.39078" lon="-4.45096">
        <ele>6.6</ele>
        <time>2020-06-08T16:59:54Z</time>
      </trkpt>
      <trkpt lat="48.39075" lon="-4.45104">
        <ele>6.5</ele>
        <time>2020-06-08T16:59:55Z</time>
      </trkpt>
      <trkpt lat="48.39073" lon="-4.45112">
        <ele>6.5</ele>
        <time>2020-06-08T16:59:56Z</time>
      </trkpt>
      <trkpt lat="48.39071" lon="-4.4512">
        <ele>6.4</ele>
        <time>2020-06-08T16:59:57Z</time>
      </trkpt>
      <trkpt lat="48.39068" lon="-4.45127">
        <ele>6.4</ele>
        <time>2020-06-08T16:59:58Z</time>
      </trkpt>
      <trkpt lat="48.39066" lon="-4.45134">
        <ele>6.4</ele>
        <time>2020-06-08T16:59:59Z</time>
      </trkpt>
      <trkpt lat="48.39064" lon="-4.45141">
        <ele>6.4</ele>
        <time>2020-06-08T17:00:00Z</time>
      </trkpt>
      <trkpt lat="48.39062" lon="-4.45149">
        <ele>6.4</ele>
        <time>2020-06-08T17:00:01Z</time>
      </trkpt>
      <trkpt lat="48.3906" lon="-4.45157">
        <ele>6.4</ele>
        <time>2020-06-08T17:00:02Z</time>
      </trkpt>
      <trkpt lat="48.39058" lon="-4.45165">
        <ele>6.4</ele>
        <time>2020-06-08T17:00:03Z</time>
      </trkpt>
      <trkpt lat="48.39056" lon="-4.45173">
        <ele>6.4</ele>
        <time>2020-06-08T17:00:04Z</time>
      </trkpt>
      <trkpt lat="48.39053" lon="-4.45181">
        <ele>6.5</ele>
        <time>2020-06-08T17:00:05Z</time>
      </trkpt>
      <trkpt lat="48.39051" lon="-4.4519">
        <ele>6.6</ele>
        <time>2020-06-08T17:00:06Z</time>
      </trkpt>
      <trkpt lat="48.39049" lon="-4.45198">
        <ele>6.7</ele>
        <time>2020-06-08T17:00:07Z</time>
      </trkpt>
      <trkpt lat="48.39046" lon="-4.45207">
        <ele>6.7</ele>
        <time>2020-06-08T17:00:08Z</time>
      </trkpt>
      <trkpt lat="48.39043" lon="-4.45215">
        <ele>6.7</ele>
        <time>2020-06-08T17:00:09Z</time>
      </trkpt>
      <trkpt lat="48.3904" lon="-4.45223">
        <ele>6.7</ele>
        <time>2020-06-08T17:00:10Z</time>
      </trkpt>
      <trkpt lat="48.39038" lon="-4.45231">
        <ele>6.8</ele>
        <time>2020-06-08T17:00:11Z</time>
      </trkpt>
      <trkpt lat="48.39036" lon="-4.45239">
        <ele>6.8</ele>
        <time>2020-06-08T17:00:12Z</time>
      </trkpt>
      <trkpt lat="48.39033" lon="-4.45246">
        <ele>6.9</ele>
        <time>2020-06-08T17:00:13Z</time>
      </trkpt>
      <trkpt lat="48.39032" lon="-4.45253">
        <ele>6.9</ele>
        <time>2020-06-08T17:00:14Z</time>
      </trkpt>
      <trkpt lat="48.39031" lon="-4.45259">
        <ele>6.9</ele>
        <time>2020-06-08T17:00:15Z</time>
      </trkpt>
      <trkpt lat="48.39029" lon="-4.45266">
        <ele>7</ele>
        <time>2020-06-08T17:00:16Z</time>
      </trkpt>
      <trkpt lat="48.39027" lon="-4.45272">
        <ele>7</ele>
        <time>2020-06-08T17:00:17Z</time>
      </trkpt>
      <trkpt lat="48.39025" lon="-4.4528">
        <ele>7</ele>
        <time>2020-06-08T17:00:18Z</time>
      </trkpt>
      <trkpt lat="48.39023" lon="-4.45288">
        <ele>6.9</ele>
        <time>2020-06-08T17:00:19Z</time>
      </trkpt>
      <trkpt lat="48.3902" lon="-4.45295">
        <ele>6.9</ele>
        <time>2020-06-08T17:00:20Z</time>
      </trkpt>
      <trkpt lat="48.39018" lon="-4.45304">
        <ele>6.9</ele>
        <time>2020-06-08T17:00:21Z</time>
      </trkpt>
      <trkpt lat="48.39016" lon="-4.45312">
        <ele>6.8</ele>
        <time>2020-06-08T17:00:22Z</time>
      </trkpt>
      <trkpt lat="48.39014" lon="-4.4532">
        <ele>6.8</ele>
        <time>2020-06-08T17:00:23Z</time>
      </trkpt>
      <trkpt lat="48.39012" lon="-4.45329">
        <ele>6.8</ele>
        <time>2020-06-08T17:00:24Z</time>
      </trkpt>
      <trkpt lat="48.39009" lon="-4.45337">
        <ele>6.8</ele>
        <time>2020-06-08T17:00:25Z</time>
      </trkpt>
      <trkpt lat="48.39006" lon="-4.45344">
        <ele>6.8</ele>
        <time>2020-06-08T17:00:26Z</time>
      </trkpt>
      <trkpt lat="48.39003" lon="-4.45352">
        <ele>6.7</ele>
        <time>2020-06-08T17:00:27Z</time>
      </trkpt>
      <trkpt lat="48.39001" lon="-4.45359">
        <ele>6.7</ele>
        <time>2020-06-08T17:00:28Z</time>
      </trkpt>
      <trkpt lat="48.38999" lon="-4.45366">
        <ele>6.7</ele>
        <time>2020-06-08T17:00:29Z</time>
      </trkpt>
      <trkpt lat="48.38996" lon="-4.45375">
        <ele>6.7</ele>
        <time>2020-06-08T17:00:30Z</time>
      </trkpt>
      <trkpt lat="48.38994" lon="-4.45383">
        <ele>6.7</ele>
        <time>2020-06-08T17:00:31Z</time>
      </trkpt>
      <trkpt lat="48.38991" lon="-4.45392">
        <ele>6.7</ele>
        <time>2020-06-08T17:00:32Z</time>
      </trkpt>
      <trkpt lat="48.38989" lon="-4.454">
        <ele>6.7</ele>
        <time>2020-06-08T17:00:33Z</time>
      </trkpt>
      <trkpt lat="48.38986" lon="-4.45409">
        <ele>6.7</ele>
        <time>2020-06-08T17:00:34Z</time>
      </trkpt>
      <trkpt lat="48.38983" lon="-4.45417">
        <ele>6.7</ele>
        <time>2020-06-08T17:00:35Z</time>
      </trkpt>
      <trkpt lat="48.3898" lon="-4.45426">
        <ele>6.7</ele>
        <time>2020-06-08T17:00:36Z</time>
      </trkpt>
      <trkpt lat="48.38978" lon="-4.45434">
        <ele>6.7</ele>
        <time>2020-06-08T17:00:37Z</time>
      </trkpt>
      <trkpt lat="48.38975" lon="-4.45441">
        <ele>6.7</ele>
        <time>2020-06-08T17:00:38Z</time>
      </trkpt>
      <trkpt lat="48.38973" lon="-4.45449">
        <ele>6.7</ele>
        <time>2020-06-08T17:00:39Z</time>
      </trkpt>
      <trkpt lat="48.3897" lon="-4.45456">
        <ele>6.7</ele>
        <time>2020-06-08T17:00:40Z</time>
      </trkpt>
      <trkpt lat="48.38967" lon="-4.45464">
        <ele>6.7</ele>
        <time>2020-06-08T17:00:41Z</time>
      </trkpt>
      <trkpt lat="48.38965" lon="-4.45472">
        <ele>6.7</ele>
        <time>2020-06-08T17:00:42Z</time>
      </trkpt>
      <trkpt lat="48.38962" lon="-4.45479">
        <ele>6.7</ele>
        <time>2020-06-08T17:00:43Z</time>
      </trkpt>
      <trkpt lat="48.38959" lon="-4.45487">
        <ele>6.7</ele>
        <time>2020-06-08T17:00:44Z</time>
      </trkpt>
      <trkpt lat="48.38957" lon="-4.45495">
        <ele>6.7</ele>
        <time>2020-06-08T17:00:45Z</time>
      </trkpt>
      <trkpt lat="48.38954" lon="-4.45503">
        <ele>6.7</ele>
        <time>2020-06-08T17:00:46Z</time>
      </trkpt>
      <trkpt lat="48.38952" lon="-4.4551">
        <ele>6.7</ele>
        <time>2020-06-08T17:00:47Z</time>
      </trkpt>
      <trkpt lat="48.3895" lon="-4.45518">
        <ele>6.7</ele>
        <time>2020-06-08T17:00:48Z</time>
      </trkpt>
      <trkpt lat="48.38948" lon="-4.45526">
        <ele>6.6</ele>
        <time>2020-06-08T17:00:49Z</time>
      </trkpt>
      <trkpt lat="48.38946" lon="-4.45534">
        <ele>6.6</ele>
        <time>2020-06-08T17:00:50Z</time>
      </trkpt>
      <trkpt lat="48.38944" lon="-4.45542">
        <ele>6.6</ele>
        <time>2020-06-08T17:00:51Z</time>
      </trkpt>
      <trkpt lat="48.38941" lon="-4.45551">
        <ele>6.6</ele>
        <time>2020-06-08T17:00:52Z</time>
      </trkpt>
      <trkpt lat="48.38939" lon="-4.45559">
        <ele>6.6</ele>
        <time>2020-06-08T17:00:53Z</time>
      </trkpt>
      <trkpt lat="48.38936" lon="-4.45567">
        <ele>6.6</ele>
        <time>2020-06-08T17:00:54Z</time>
      </trkpt>
      <trkpt lat="48.38934" lon="-4.45576">
        <ele>6.6</ele>
        <time>2020-06-08T17:00:55Z</time>
      </trkpt>
      <trkpt lat="48.38932" lon="-4.45584">
        <ele>6.6</ele>
        <time>2020-06-08T17:00:56Z</time>
      </trkpt>
      <trkpt lat="48.38929" lon="-4.45591">
        <ele>6.6</ele>
        <time>2020-06-08T17:00:57Z</time>
      </trkpt>
      <trkpt lat="48.38927" lon="-4.45599">
        <ele>6.5</ele>
        <time>2020-06-08T17:00:58Z</time>
      </trkpt>
      <trkpt lat="48.38925" lon="-4.45608">
        <ele>6.5</ele>
        <time>2020-06-08T17:00:59Z</time>
      </trkpt>
      <trkpt lat="48.38922" lon="-4.45616">
        <ele>6.5</ele>
        <time>2020-06-08T17:01:00Z</time>
      </trkpt>
      <trkpt lat="48.38921" lon="-4.45625">
        <ele>6.5</ele>
        <time>2020-06-08T17:01:01Z</time>
      </trkpt>
      <trkpt lat="48.38918" lon="-4.45633">
        <ele>6.5</ele>
        <time>2020-06-08T17:01:02Z</time>
      </trkpt>
      <trkpt lat="48.38916" lon="-4.45642">
        <ele>6.5</ele>
        <time>2020-06-08T17:01:03Z</time>
      </trkpt>
      <trkpt lat="48.38913" lon="-4.45651">
        <ele>6.5</ele>
        <time>2020-06-08T17:01:04Z</time>
      </trkpt>
      <trkpt lat="48.38911" lon="-4.45659">
        <ele>6.5</ele>
        <time>2020-06-08T17:01:05Z</time>
      </trkpt>
      <trkpt lat="48.38908" lon="-4.45668">
        <ele>6.5</ele>
        <time>2020-06-08T17:01:06Z</time>
      </trkpt>
      <trkpt lat="48.38906" lon="-4.45676">
        <ele>6.6</ele>
        <time>2020-06-08T17:01:07Z</time>
      </trkpt>
      <trkpt lat="48.38903" lon="-4.45685">
        <ele>6.6</ele>
        <time>2020-06-08T17:01:08Z</time>
      </trkpt>
      <trkpt lat="48.38901" lon="-4.45692">
        <ele>6.6</ele>
        <time>2020-06-08T17:01:09Z</time>
      </trkpt>
      <trkpt lat="48.38899" lon="-4.45699">
        <ele>6.6</ele>
        <time>2020-06-08T17:01:10Z</time>
      </trkpt>
      <trkpt lat="48.38896" lon="-4.45706">
        <ele>6.6</ele>
        <time>2020-06-08T17:01:11Z</time>
      </trkpt>
      <trkpt lat="48.38894" lon="-4.45714">
        <ele>6.6</ele>
        <time>2020-06-08T17:01:12Z</time>
      </trkpt>
      <trkpt lat="48.38892" lon="-4.4572">
        <ele>6.7</ele>
        <time>2020-06-08T17:01:13Z</time>
      </trkpt>
      <trkpt lat="48.38891" lon="-4.45727">
        <ele>6.7</ele>
        <time>2020-06-08T17:01:14Z</time>
      </trkpt>
      <trkpt lat="48.38891" lon="-4.45734">
        <ele>6.7</ele>
        <time>2020-06-08T17:01:15Z</time>
      </trkpt>
      <trkpt lat="48.38891" lon="-4.45742">
        <ele>6.7</ele>
        <time>2020-06-08T17:01:16Z</time>
      </trkpt>
      <trkpt lat="48.38893" lon="-4.45751">
        <ele>6.7</ele>
        <time>2020-06-08T17:01:17Z</time>
      </trkpt>
      <trkpt lat="48.38895" lon="-4.45758">
        <ele>6.8</ele>
        <time>2020-06-08T17:01:18Z</time>
      </trkpt>
      <trkpt lat="48.38898" lon="-4.45765">
        <ele>6.9</ele>
        <time>2020-06-08T17:01:19Z</time>
      </trkpt>
      <trkpt lat="48.38902" lon="-4.4577">
        <ele>7</ele>
        <time>2020-06-08T17:01:20Z</time>
      </trkpt>
      <trkpt lat="48.38905" lon="-4.45775">
        <ele>7.1</ele>
        <time>2020-06-08T17:01:21Z</time>
      </trkpt>
      <trkpt lat="48.38908" lon="-4.4578">
        <ele>7.1</ele>
        <time>2020-06-08T17:01:22Z</time>
      </trkpt>
      <trkpt lat="48.3891" lon="-4.45785">
        <ele>7.2</ele>
        <time>2020-06-08T17:01:23Z</time>
      </trkpt>
      <trkpt lat="48.38912" lon="-4.4579">
        <ele>7.3</ele>
        <time>2020-06-08T17:01:24Z</time>
      </trkpt>
      <trkpt lat="48.38913" lon="-4.45796">
        <ele>7.4</ele>
        <time>2020-06-08T17:01:25Z</time>
      </trkpt>
      <trkpt lat="48.38914" lon="-4.458">
        <ele>7.4</ele>
        <time>2020-06-08T17:01:26Z</time>
      </trkpt>
      <trkpt lat="48.38914" lon="-4.45806">
        <ele>7.6</ele>
        <time>2020-06-08T17:01:27Z</time>
      </trkpt>
      <trkpt lat="48.38913" lon="-4.4581">
        <ele>7.7</ele>
        <time>2020-06-08T17:01:28Z</time>
      </trkpt>
      <trkpt lat="48.38912" lon="-4.45815">
        <ele>7.9</ele>
        <time>2020-06-08T17:01:29Z</time>
      </trkpt>
      <trkpt lat="48.3891" lon="-4.4582">
        <ele>8.1</ele>
        <time>2020-06-08T17:01:30Z</time>
      </trkpt>
      <trkpt lat="48.38908" lon="-4.45825">
        <ele>8.2</ele>
        <time>2020-06-08T17:01:31Z</time>
      </trkpt>
      <trkpt lat="48.38906" lon="-4.45829">
        <ele>8.3</ele>
        <time>2020-06-08T17:01:32Z</time>
      </trkpt>
      <trkpt lat="48.38903" lon="-4.45832">
        <ele>8.4</ele>
        <time>2020-06-08T17:01:33Z</time>
      </trkpt>
      <trkpt lat="48.38901" lon="-4.45837">
        <ele>8.5</ele>
        <time>2020-06-08T17:01:34Z</time>
      </trkpt>
      <trkpt lat="48.38903" lon="-4.45843">
        <ele>8.6</ele>
        <time>2020-06-08T17:01:35Z</time>
      </trkpt>
      <trkpt lat="48.38906" lon="-4.45847">
        <ele>8.6</ele>
        <time>2020-06-08T17:01:36Z</time>
      </trkpt>
      <trkpt lat="48.38909" lon="-4.45847">
        <ele>8.6</ele>
        <time>2020-06-08T17:01:37Z</time>
      </trkpt>
      <trkpt lat="48.38913" lon="-4.45846">
        <ele>8.6</ele>
        <time>2020-06-08T17:01:38Z</time>
      </trkpt>
      <trkpt lat="48.38917" lon="-4.45845">
        <ele>8.7</ele>
        <time>2020-06-08T17:01:39Z</time>
      </trkpt>
      <trkpt lat="48.3892" lon="-4.45845">
        <ele>8.8</ele>
        <time>2020-06-08T17:01:40Z</time>
      </trkpt>
      <trkpt lat="48.38924" lon="-4.45845">
        <ele>8.8</ele>
        <time>2020-06-08T17:01:41Z</time>
      </trkpt>
      <trkpt lat="48.38928" lon="-4.45846">
        <ele>8.9</ele>
        <time>2020-06-08T17:01:42Z</time>
      </trkpt>
      <trkpt lat="48.38932" lon="-4.45848">
        <ele>9</ele>
        <time>2020-06-08T17:01:43Z</time>
      </trkpt>
      <trkpt lat="48.38935" lon="-4.45852">
        <ele>9.1</ele>
        <time>2020-06-08T17:01:44Z</time>
      </trkpt>
      <trkpt lat="48.38938" lon="-4.45856">
        <ele>9.1</ele>
        <time>2020-06-08T17:01:45Z</time>
      </trkpt>
      <trkpt lat="48.38941" lon="-4.45861">
        <ele>9.2</ele>
        <time>2020-06-08T17:01:46Z</time>
      </trkpt>
      <trkpt lat="48.38942" lon="-4.45866">
        <ele>9.3</ele>
        <time>2020-06-08T17:01:47Z</time>
      </trkpt>
      <trkpt lat="48.38943" lon="-4.45872">
        <ele>9.4</ele>
        <time>2020-06-08T17:01:48Z</time>
      </trkpt>
      <trkpt lat="48.38944" lon="-4.45878">
        <ele>9.5</ele>
        <time>2020-06-08T17:01:49Z</time>
      </trkpt>
      <trkpt lat="48.38945" lon="-4.45884">
        <ele>9.5</ele>
        <time>2020-06-08T17:01:50Z</time>
      </trkpt>
      <trkpt lat="48.38946" lon="-4.4589">
        <ele>9.6</ele>
        <time>2020-06-08T17:01:51Z</time>
      </trkpt>
      <trkpt lat="48.38948" lon="-4.45894">
        <ele>9.6</ele>
        <time>2020-06-08T17:01:52Z</time>
      </trkpt>
      <trkpt lat="48.38951" lon="-4.45899">
        <ele>9.7</ele>
        <time>2020-06-08T17:01:53Z</time>
      </trkpt>
      <trkpt lat="48.38953" lon="-4.45903">
        <ele>9.7</ele>
        <time>2020-06-08T17:01:54Z</time>
      </trkpt>
      <trkpt lat="48.38955" lon="-4.45908">
        <ele>9.7</ele>
        <time>2020-06-08T17:01:55Z</time>
      </trkpt>
      <trkpt lat="48.38956" lon="-4.45912">
        <ele>9.8</ele>
        <time>2020-06-08T17:01:56Z</time>
      </trkpt>
      <trkpt lat="48.38958" lon="-4.45917">
        <ele>9.8</ele>
        <time>2020-06-08T17:01:57Z</time>
      </trkpt>
      <trkpt lat="48.38958" lon="-4.45923">
        <ele>9.8</ele>
        <time>2020-06-08T17:01:58Z</time>
      </trkpt>
      <trkpt lat="48.38958" lon="-4.45929">
        <ele>9.8</ele>
        <time>2020-06-08T17:01:59Z</time>
      </trkpt>
      <trkpt lat="48.38957" lon="-4.45936">
        <ele>9.7</ele>
        <time>2020-06-08T17:02:00Z</time>
      </trkpt>
      <trkpt lat="48.38955" lon="-4.45942">
        <ele>9.7</ele>
        <time>2020-06-08T17:02:01Z</time>
      </trkpt>
      <trkpt lat="48.38953" lon="-4.45948">
        <ele>9.6</ele>
        <time>2020-06-08T17:02:02Z</time>
      </trkpt>
      <trkpt lat="48.38951" lon="-4.45953">
        <ele>9.6</ele>
        <time>2020-06-08T17:02:03Z</time>
      </trkpt>
      <trkpt lat="48.38949" lon="-4.4596">
        <ele>9.5</ele>
        <time>2020-06-08T17:02:04Z</time>
      </trkpt>
      <trkpt lat="48.38948" lon="-4.45967">
        <ele>9.5</ele>
        <time>2020-06-08T17:02:05Z</time>
      </trkpt>
      <trkpt lat="48.38947" lon="-4.45974">
        <ele>9.4</ele>
        <time>2020-06-08T17:02:06Z</time>
      </trkpt>
      <trkpt lat="48.38946" lon="-4.45982">
        <ele>9.4</ele>
        <time>2020-06-08T17:02:07Z</time>
      </trkpt>
      <trkpt lat="48.38945" lon="-4.45989">
        <ele>9.3</ele>
        <time>2020-06-08T17:02:08Z</time>
      </trkpt>
      <trkpt lat="48.38944" lon="-4.45996">
        <ele>9.3</ele>
        <time>2020-06-08T17:02:09Z</time>
      </trkpt>
      <trkpt lat="48.38941" lon="-4.46003">
        <ele>9.3</ele>
        <time>2020-06-08T17:02:10Z</time>
      </trkpt>
      <trkpt lat="48.38938" lon="-4.4601">
        <ele>9.2</ele>
        <time>2020-06-08T17:02:11Z</time>
      </trkpt>
      <trkpt lat="48.38935" lon="-4.46018">
        <ele>9.2</ele>
        <time>2020-06-08T17:02:12Z</time>
      </trkpt>
      <trkpt lat="48.38933" lon="-4.46026">
        <ele>9.1</ele>
        <time>2020-06-08T17:02:13Z</time>
      </trkpt>
      <trkpt lat="48.3893" lon="-4.46033">
        <ele>9</ele>
        <time>2020-06-08T17:02:14Z</time>
      </trkpt>
      <trkpt lat="48.38926" lon="-4.46041">
        <ele>9</ele>
        <time>2020-06-08T17:02:15Z</time>
      </trkpt>
      <trkpt lat="48.38922" lon="-4.46049">
        <ele>8.9</ele>
        <time>2020-06-08T17:02:16Z</time>
      </trkpt>
      <trkpt lat="48.38919" lon="-4.46057">
        <ele>8.8</ele>
        <time>2020-06-08T17:02:17Z</time>
      </trkpt>
      <trkpt lat="48.38916" lon="-4.46065">
        <ele>8.8</ele>
        <time>2020-06-08T17:02:18Z</time>
      </trkpt>
      <trkpt lat="48.38911" lon="-4.46073">
        <ele>8.7</ele>
        <time>2020-06-08T17:02:19Z</time>
      </trkpt>
      <trkpt lat="48.38907" lon="-4.4608">
        <ele>8.7</ele>
        <time>2020-06-08T17:02:20Z</time>
      </trkpt>
      <trkpt lat="48.38903" lon="-4.46089">
        <ele>8.6</ele>
        <time>2020-06-08T17:02:21Z</time>
      </trkpt>
      <trkpt lat="48.38899" lon="-4.46096">
        <ele>8.5</ele>
        <time>2020-06-08T17:02:22Z</time>
      </trkpt>
      <trkpt lat="48.38894" lon="-4.46104">
        <ele>8.5</ele>
        <time>2020-06-08T17:02:23Z</time>
      </trkpt>
      <trkpt lat="48.3889" lon="-4.46112">
        <ele>8.4</ele>
        <time>2020-06-08T17:02:24Z</time>
      </trkpt>
      <trkpt lat="48.38886" lon="-4.4612">
        <ele>8.4</ele>
        <time>2020-06-08T17:02:25Z</time>
      </trkpt>
      <trkpt lat="48.38881" lon="-4.46128">
        <ele>8.3</ele>
        <time>2020-06-08T17:02:26Z</time>
      </trkpt>
      <trkpt lat="48.38877" lon="-4.46136">
        <ele>8.3</ele>
        <time>2020-06-08T17:02:27Z</time>
      </trkpt>
      <trkpt lat="48.38873" lon="-4.46145">
        <ele>8.3</ele>
        <time>2020-06-08T17:02:28Z</time>
      </trkpt>
      <trkpt lat="48.38869" lon="-4.46153">
        <ele>8.2</ele>
        <time>2020-06-08T17:02:29Z</time>
      </trkpt>
      <trkpt lat="48.38865" lon="-4.46161">
        <ele>8.2</ele>
        <time>2020-06-08T17:02:30Z</time>
      </trkpt>
      <trkpt lat="48.38861" lon="-4.4617">
        <ele>8.2</ele>
        <time>2020-06-08T17:02:31Z</time>
      </trkpt>
      <trkpt lat="48.38857" lon="-4.46178">
        <ele>8.2</ele>
        <time>2020-06-08T17:02:32Z</time>
      </trkpt>
      <trkpt lat="48.38853" lon="-4.46187">
        <ele>8.1</ele>
        <time>2020-06-08T17:02:33Z</time>
      </trkpt>
      <trkpt lat="48.38849" lon="-4.46196">
        <ele>8.1</ele>
        <time>2020-06-08T17:02:34Z</time>
      </trkpt>
      <trkpt lat="48.38845" lon="-4.46205">
        <ele>8.1</ele>
        <time>2020-06-08T17:02:35Z</time>
      </trkpt>
      <trkpt lat="48.38842" lon="-4.46214">
        <ele>8</ele>
        <time>2020-06-08T17:02:36Z</time>
      </trkpt>
      <trkpt lat="48.38838" lon="-4.46223">
        <ele>8</ele>
        <time>2020-06-08T17:02:37Z</time>
      </trkpt>
      <trkpt lat="48.38834" lon="-4.46232">
        <ele>8</ele>
        <time>2020-06-08T17:02:38Z</time>
      </trkpt>
      <trkpt lat="48.38831" lon="-4.46241">
        <ele>8</ele>
        <time>2020-06-08T17:02:39Z</time>
      </trkpt>
      <trkpt lat="48.38828" lon="-4.4625">
        <ele>8</ele>
        <time>2020-06-08T17:02:40Z</time>
      </trkpt>
      <trkpt lat="48.38824" lon="-4.46258">
        <ele>8</ele>
        <time>2020-06-08T17:02:41Z</time>
      </trkpt>
      <trkpt lat="48.38821" lon="-4.46267">
        <ele>8</ele>
        <time>2020-06-08T17:02:42Z</time>
      </trkpt>
      <trkpt lat="48.38817" lon="-4.46277">
        <ele>7.9</ele>
        <time>2020-06-08T17:02:43Z</time>
      </trkpt>
      <trkpt lat="48.38814" lon="-4.46286">
        <ele>7.8</ele>
        <time>2020-06-08T17:02:44Z</time>
      </trkpt>
      <trkpt lat="48.38811" lon="-4.46295">
        <ele>7.8</ele>
        <time>2020-06-08T17:02:45Z</time>
      </trkpt>
      <trkpt lat="48.38808" lon="-4.46304">
        <ele>7.7</ele>
        <time>2020-06-08T17:02:46Z</time>
      </trkpt>
      <trkpt lat="48.38805" lon="-4.46314">
        <ele>7.7</ele>
        <time>2020-06-08T17:02:47Z</time>
      </trkpt>
      <trkpt lat="48.38802" lon="-4.46322">
        <ele>7.6</ele>
        <time>2020-06-08T17:02:48Z</time>
      </trkpt>
      <trkpt lat="48.38799" lon="-4.46331">
        <ele>7.6</ele>
        <time>2020-06-08T17:02:49Z</time>
      </trkpt>
      <trkpt lat="48.38796" lon="-4.4634">
        <ele>7.6</ele>
        <time>2020-06-08T17:02:50Z</time>
      </trkpt>
      <trkpt lat="48.38793" lon="-4.46349">
        <ele>7.6</ele>
        <time>2020-06-08T17:02:51Z</time>
      </trkpt>
      <trkpt lat="48.38791" lon="-4.46358">
        <ele>7.6</ele>
        <time>2020-06-08T17:02:52Z</time>
      </trkpt>
      <trkpt lat="48.38788" lon="-4.46367">
        <ele>7.6</ele>
        <time>2020-06-08T17:02:53Z</time>
      </trkpt>
      <trkpt lat="48.38785" lon="-4.46376">
        <ele>7.6</ele>
        <time>2020-06-08T17:02:54Z</time>
      </trkpt>
      <trkpt lat="48.38783" lon="-4.46384">
        <ele>7.5</ele>
        <time>2020-06-08T17:02:55Z</time>
      </trkpt>
      <trkpt lat="48.3878" lon="-4.46393">
        <ele>7.5</ele>
        <time>2020-06-08T17:02:56Z</time>
      </trkpt>
      <trkpt lat="48.38778" lon="-4.46402">
        <ele>7.4</ele>
        <time>2020-06-08T17:02:57Z</time>
      </trkpt>
      <trkpt lat="48.38777" lon="-4.46411">
        <ele>7.4</ele>
        <time>2020-06-08T17:02:58Z</time>
      </trkpt>
      <trkpt lat="48.38774" lon="-4.4642">
        <ele>7.4</ele>
        <time>2020-06-08T17:02:59Z</time>
      </trkpt>
      <trkpt lat="48.38772" lon="-4.46429">
        <ele>7.4</ele>
        <time>2020-06-08T17:03:00Z</time>
      </trkpt>
      <trkpt lat="48.3877" lon="-4.46438">
        <ele>7.4</ele>
        <time>2020-06-08T17:03:01Z</time>
      </trkpt>
      <trkpt lat="48.38767" lon="-4.46447">
        <ele>7.4</ele>
        <time>2020-06-08T17:03:02Z</time>
      </trkpt>
      <trkpt lat="48.38765" lon="-4.46456">
        <ele>7.4</ele>
        <time>2020-06-08T17:03:03Z</time>
      </trkpt>
      <trkpt lat="48.38763" lon="-4.46465">
        <ele>7.4</ele>
        <time>2020-06-08T17:03:04Z</time>
      </trkpt>
      <trkpt lat="48.3876" lon="-4.46474">
        <ele>7.4</ele>
        <time>2020-06-08T17:03:05Z</time>
      </trkpt>
      <trkpt lat="48.38757" lon="-4.46483">
        <ele>7.4</ele>
        <time>2020-06-08T17:03:06Z</time>
      </trkpt>
      <trkpt lat="48.38755" lon="-4.46492">
        <ele>7.3</ele>
        <time>2020-06-08T17:03:07Z</time>
      </trkpt>
      <trkpt lat="48.38753" lon="-4.46501">
        <ele>7.3</ele>
        <time>2020-06-08T17:03:08Z</time>
      </trkpt>
      <trkpt lat="48.38751" lon="-4.46511">
        <ele>7.3</ele>
        <time>2020-06-08T17:03:09Z</time>
      </trkpt>
      <trkpt lat="48.38749" lon="-4.46521">
        <ele>7.3</ele>
        <time>2020-06-08T17:03:10Z</time>
      </trkpt>
      <trkpt lat="48.38747" lon="-4.4653">
        <ele>7.3</ele>
        <time>2020-06-08T17:03:11Z</time>
      </trkpt>
      <trkpt lat="48.38745" lon="-4.4654">
        <ele>7.3</ele>
        <time>2020-06-08T17:03:12Z</time>
      </trkpt>
      <trkpt lat="48.38743" lon="-4.4655">
        <ele>7.3</ele>
        <time>2020-06-08T17:03:13Z</time>
      </trkpt>
      <trkpt lat="48.38741" lon="-4.46559">
        <ele>7.3</ele>
        <time>2020-06-08T17:03:14Z</time>
      </trkpt>
      <trkpt lat="48.38739" lon="-4.46569">
        <ele>7.3</ele>
        <time>2020-06-08T17:03:15Z</time>
      </trkpt>
      <trkpt lat="48.38737" lon="-4.46578">
        <ele>7.3</ele>
        <time>2020-06-08T17:03:16Z</time>
      </trkpt>
      <trkpt lat="48.38736" lon="-4.46587">
        <ele>7.3</ele>
        <time>2020-06-08T17:03:17Z</time>
      </trkpt>
      <trkpt lat="48.38734" lon="-4.46596">
        <ele>7.3</ele>
        <time>2020-06-08T17:03:18Z</time>
      </trkpt>
      <trkpt lat="48.38733" lon="-4.46606">
        <ele>7.3</ele>
        <time>2020-06-08T17:03:19Z</time>
      </trkpt>
      <trkpt lat="48.38732" lon="-4.46615">
        <ele>7.3</ele>
        <time>2020-06-08T17:03:20Z</time>
      </trkpt>
      <trkpt lat="48.3873" lon="-4.46625">
        <ele>7.3</ele>
        <time>2020-06-08T17:03:21Z</time>
      </trkpt>
      <trkpt lat="48.38729" lon="-4.46635">
        <ele>7.4</ele>
        <time>2020-06-08T17:03:22Z</time>
      </trkpt>
      <trkpt lat="48.38728" lon="-4.46645">
        <ele>7.4</ele>
        <time>2020-06-08T17:03:23Z</time>
      </trkpt>
      <trkpt lat="48.38727" lon="-4.46654">
        <ele>7.4</ele>
        <time>2020-06-08T17:03:24Z</time>
      </trkpt>
      <trkpt lat="48.38725" lon="-4.46664">
        <ele>7.4</ele>
        <time>2020-06-08T17:03:25Z</time>
      </trkpt>
      <trkpt lat="48.38724" lon="-4.46673">
        <ele>7.4</ele>
        <time>2020-06-08T17:03:26Z</time>
      </trkpt>
      <trkpt lat="48.38722" lon="-4.46683">
        <ele>7.4</ele>
        <time>2020-06-08T17:03:27Z</time>
      </trkpt>
      <trkpt lat="48.3872" lon="-4.46692">
        <ele>7.5</ele>
        <time>2020-06-08T17:03:28Z</time>
      </trkpt>
      <trkpt lat="48.38719" lon="-4.46702">
        <ele>7.5</ele>
        <time>2020-06-08T17:03:29Z</time>
      </trkpt>
      <trkpt lat="48.38717" lon="-4.46711">
        <ele>7.4</ele>
        <time>2020-06-08T17:03:30Z</time>
      </trkpt>
      <trkpt lat="48.38716" lon="-4.46721">
        <ele>7.4</ele>
        <time>2020-06-08T17:03:31Z</time>
      </trkpt>
      <trkpt lat="48.38714" lon="-4.4673">
        <ele>7.4</ele>
        <time>2020-06-08T17:03:32Z</time>
      </trkpt>
      <trkpt lat="48.38713" lon="-4.4674">
        <ele>7.4</ele>
        <time>2020-06-08T17:03:33Z</time>
      </trkpt>
      <trkpt lat="48.38711" lon="-4.46749">
        <ele>7.4</ele>
        <time>2020-06-08T17:03:34Z</time>
      </trkpt>
      <trkpt lat="48.38709" lon="-4.46758">
        <ele>7.4</ele>
        <time>2020-06-08T17:03:35Z</time>
      </trkpt>
      <trkpt lat="48.38708" lon="-4.46767">
        <ele>7.4</ele>
        <time>2020-06-08T17:03:36Z</time>
      </trkpt>
      <trkpt lat="48.38706" lon="-4.46776">
        <ele>7.4</ele>
        <time>2020-06-08T17:03:37Z</time>
      </trkpt>
      <trkpt lat="48.38705" lon="-4.46784">
        <ele>7.4</ele>
        <time>2020-06-08T17:03:38Z</time>
      </trkpt>
      <trkpt lat="48.38704" lon="-4.46793">
        <ele>7.4</ele>
        <time>2020-06-08T17:03:39Z</time>
      </trkpt>
      <trkpt lat="48.38703" lon="-4.46801">
        <ele>7.4</ele>
        <time>2020-06-08T17:03:40Z</time>
      </trkpt>
      <trkpt lat="48.38702" lon="-4.46811">
        <ele>7.4</ele>
        <time>2020-06-08T17:03:41Z</time>
      </trkpt>
      <trkpt lat="48.387" lon="-4.4682">
        <ele>7.4</ele>
        <time>2020-06-08T17:03:42Z</time>
      </trkpt>
      <trkpt lat="48.38698" lon="-4.4683">
        <ele>7.4</ele>
        <time>2020-06-08T17:03:43Z</time>
      </trkpt>
      <trkpt lat="48.38697" lon="-4.46839">
        <ele>7.4</ele>
        <time>2020-06-08T17:03:44Z</time>
      </trkpt>
      <trkpt lat="48.38695" lon="-4.46848">
        <ele>7.4</ele>
        <time>2020-06-08T17:03:45Z</time>
      </trkpt>
      <trkpt lat="48.38694" lon="-4.46857">
        <ele>7.4</ele>
        <time>2020-06-08T17:03:46Z</time>
      </trkpt>
      <trkpt lat="48.38693" lon="-4.46866">
        <ele>7.5</ele>
        <time>2020-06-08T17:03:47Z</time>
      </trkpt>
      <trkpt lat="48.38691" lon="-4.46875">
        <ele>7.5</ele>
        <time>2020-06-08T17:03:48Z</time>
      </trkpt>
      <trkpt lat="48.3869" lon="-4.46884">
        <ele>7.5</ele>
        <time>2020-06-08T17:03:49Z</time>
      </trkpt>
      <trkpt lat="48.38689" lon="-4.46892">
        <ele>7.5</ele>
        <time>2020-06-08T17:03:50Z</time>
      </trkpt>
      <trkpt lat="48.38688" lon="-4.469">
        <ele>7.6</ele>
        <time>2020-06-08T17:03:51Z</time>
      </trkpt>
      <trkpt lat="48.38687" lon="-4.46909">
        <ele>7.6</ele>
        <time>2020-06-08T17:03:52Z</time>
      </trkpt>
      <trkpt lat="48.38685" lon="-4.46918">
        <ele>7.6</ele>
        <time>2020-06-08T17:03:53Z</time>
      </trkpt>
      <trkpt lat="48.38684" lon="-4.46927">
        <ele>7.6</ele>
        <time>2020-06-08T17:03:54Z</time>
      </trkpt>
      <trkpt lat="48.38683" lon="-4.46936">
        <ele>7.6</ele>
        <time>2020-06-08T17:03:55Z</time>
      </trkpt>
      <trkpt lat="48.38682" lon="-4.46943">
        <ele>7.6</ele>
        <time>2020-06-08T17:03:56Z</time>
      </trkpt>
      <trkpt lat="48.38681" lon="-4.46952">
        <ele>7.6</ele>
        <time>2020-06-08T17:03:57Z</time>
      </trkpt>
      <trkpt lat="48.38679" lon="-4.4696">
        <ele>7.6</ele>
        <time>2020-06-08T17:03:58Z</time>
      </trkpt>
      <trkpt lat="48.38678" lon="-4.46969">
        <ele>7.6</ele>
        <time>2020-06-08T17:03:59Z</time>
      </trkpt>
      <trkpt lat="48.38677" lon="-4.46977">
        <ele>7.6</ele>
        <time>2020-06-08T17:04:00Z</time>
      </trkpt>
      <trkpt lat="48.38675" lon="-4.46986">
        <ele>7.6</ele>
        <time>2020-06-08T17:04:01Z</time>
      </trkpt>
      <trkpt lat="48.38674" lon="-4.46995">
        <ele>7.7</ele>
        <time>2020-06-08T17:04:02Z</time>
      </trkpt>
      <trkpt lat="48.38672" lon="-4.47004">
        <ele>7.7</ele>
        <time>2020-06-08T17:04:03Z</time>
      </trkpt>
      <trkpt lat="48.38672" lon="-4.47012">
        <ele>7.7</ele>
        <time>2020-06-08T17:04:04Z</time>
      </trkpt>
      <trkpt lat="48.38671" lon="-4.47021">
        <ele>7.7</ele>
        <time>2020-06-08T17:04:05Z</time>
      </trkpt>
      <trkpt lat="48.3867" lon="-4.47029">
        <ele>7.7</ele>
        <time>2020-06-08T17:04:06Z</time>
      </trkpt>
      <trkpt lat="48.38668" lon="-4.47038">
        <ele>7.7</ele>
        <time>2020-06-08T17:04:07Z</time>
      </trkpt>
      <trkpt lat="48.38665" lon="-4.47045">
        <ele>7.7</ele>
        <time>2020-06-08T17:04:08Z</time>
      </trkpt>
      <trkpt lat="48.38662" lon="-4.47051">
        <ele>7.7</ele>
        <time>2020-06-08T17:04:09Z</time>
      </trkpt>
      <trkpt lat="48.38659" lon="-4.47058">
        <ele>7.7</ele>
        <time>2020-06-08T17:04:10Z</time>
      </trkpt>
      <trkpt lat="48.38656" lon="-4.47066">
        <ele>7.7</ele>
        <time>2020-06-08T17:04:11Z</time>
      </trkpt>
      <trkpt lat="48.38654" lon="-4.47074">
        <ele>7.7</ele>
        <time>2020-06-08T17:04:12Z</time>
      </trkpt>
      <trkpt lat="48.38652" lon="-4.47082">
        <ele>7.7</ele>
        <time>2020-06-08T17:04:13Z</time>
      </trkpt>
      <trkpt lat="48.3865" lon="-4.47091">
        <ele>7.7</ele>
        <time>2020-06-08T17:04:14Z</time>
      </trkpt>
      <trkpt lat="48.38648" lon="-4.47099">
        <ele>7.7</ele>
        <time>2020-06-08T17:04:15Z</time>
      </trkpt>
      <trkpt lat="48.38647" lon="-4.47108">
        <ele>7.7</ele>
        <time>2020-06-08T17:04:16Z</time>
      </trkpt>
      <trkpt lat="48.38645" lon="-4.47116">
        <ele>7.7</ele>
        <time>2020-06-08T17:04:17Z</time>
      </trkpt>
      <trkpt lat="48.38645" lon="-4.47124">
        <ele>7.8</ele>
        <time>2020-06-08T17:04:18Z</time>
      </trkpt>
      <trkpt lat="48.38646" lon="-4.47129">
        <ele>7.8</ele>
        <time>2020-06-08T17:04:19Z</time>
      </trkpt>
      <trkpt lat="48.38647" lon="-4.47135">
        <ele>7.8</ele>
        <time>2020-06-08T17:04:20Z</time>
      </trkpt>
      <trkpt lat="48.38648" lon="-4.47137">
        <ele>7.9</ele>
        <time>2020-06-08T17:04:21Z</time>
      </trkpt>
      <trkpt lat="48.38651" lon="-4.47139">
        <ele>7.9</ele>
        <time>2020-06-08T17:04:22Z</time>
      </trkpt>
      <trkpt lat="48.38654" lon="-4.47142">
        <ele>8.2</ele>
        <time>2020-06-08T17:04:23Z</time>
      </trkpt>
      <trkpt lat="48.38656" lon="-4.47145">
        <ele>8.2</ele>
        <time>2020-06-08T17:04:24Z</time>
      </trkpt>
      <trkpt lat="48.38656" lon="-4.47151">
        <ele>8.2</ele>
        <time>2020-06-08T17:04:25Z</time>
      </trkpt>
      <trkpt lat="48.38655" lon="-4.47153">
        <ele>8.1</ele>
        <time>2020-06-08T17:04:26Z</time>
      </trkpt>
      <trkpt lat="48.38654" lon="-4.47158">
        <ele>8.1</ele>
        <time>2020-06-08T17:04:27Z</time>
      </trkpt>
      <trkpt lat="48.38653" lon="-4.47163">
        <ele>8.1</ele>
        <time>2020-06-08T17:04:28Z</time>
      </trkpt>
      <trkpt lat="48.38652" lon="-4.4717">
        <ele>8</ele>
        <time>2020-06-08T17:04:29Z</time>
      </trkpt>
      <trkpt lat="48.38651" lon="-4.47176">
        <ele>7.9</ele>
        <time>2020-06-08T17:04:30Z</time>
      </trkpt>
      <trkpt lat="48.38651" lon="-4.47183">
        <ele>7.9</ele>
        <time>2020-06-08T17:04:31Z</time>
      </trkpt>
      <trkpt lat="48.38651" lon="-4.47191">
        <ele>7.8</ele>
        <time>2020-06-08T17:04:32Z</time>
      </trkpt>
      <trkpt lat="48.3865" lon="-4.47198">
        <ele>7.7</ele>
        <time>2020-06-08T17:04:33Z</time>
      </trkpt>
      <trkpt lat="48.38649" lon="-4.47206">
        <ele>7.7</ele>
        <time>2020-06-08T17:04:34Z</time>
      </trkpt>
      <trkpt lat="48.38647" lon="-4.47212">
        <ele>7.6</ele>
        <time>2020-06-08T17:04:35Z</time>
      </trkpt>
      <trkpt lat="48.38646" lon="-4.4722">
        <ele>7.6</ele>
        <time>2020-06-08T17:04:36Z</time>
      </trkpt>
      <trkpt lat="48.38644" lon="-4.47229">
        <ele>7.5</ele>
        <time>2020-06-08T17:04:37Z</time>
      </trkpt>
      <trkpt lat="48.38643" lon="-4.47237">
        <ele>7.4</ele>
        <time>2020-06-08T17:04:38Z</time>
      </trkpt>
      <trkpt lat="48.38642" lon="-4.47246">
        <ele>7.4</ele>
        <time>2020-06-08T17:04:39Z</time>
      </trkpt>
      <trkpt lat="48.38641" lon="-4.47255">
        <ele>7.3</ele>
        <time>2020-06-08T17:04:40Z</time>
      </trkpt>
      <trkpt lat="48.3864" lon="-4.47264">
        <ele>7.2</ele>
        <time>2020-06-08T17:04:41Z</time>
      </trkpt>
      <trkpt lat="48.38638" lon="-4.47272">
        <ele>7.2</ele>
        <time>2020-06-08T17:04:42Z</time>
      </trkpt>
      <trkpt lat="48.38637" lon="-4.47281">
        <ele>7.1</ele>
        <time>2020-06-08T17:04:43Z</time>
      </trkpt>
      <trkpt lat="48.38636" lon="-4.47289">
        <ele>7.1</ele>
        <time>2020-06-08T17:04:44Z</time>
      </trkpt>
      <trkpt lat="48.38635" lon="-4.47298">
        <ele>7.1</ele>
        <time>2020-06-08T17:04:45Z</time>
      </trkpt>
      <trkpt lat="48.38634" lon="-4.47307">
        <ele>7</ele>
        <time>2020-06-08T17:04:46Z</time>
      </trkpt>
      <trkpt lat="48.38634" lon="-4.47316">
        <ele>7</ele>
        <time>2020-06-08T17:04:47Z</time>
      </trkpt>
      <trkpt lat="48.38634" lon="-4.47325">
        <ele>7</ele>
        <time>2020-06-08T17:04:48Z</time>
      </trkpt>
      <trkpt lat="48.38632" lon="-4.47334">
        <ele>7</ele>
        <time>2020-06-08T17:04:49Z</time>
      </trkpt>
      <trkpt lat="48.38631" lon="-4.47343">
        <ele>7</ele>
        <time>2020-06-08T17:04:50Z</time>
      </trkpt>
      <trkpt lat="48.38628" lon="-4.47351">
        <ele>7</ele>
        <time>2020-06-08T17:04:51Z</time>
      </trkpt>
      <trkpt lat="48.38626" lon="-4.47359">
        <ele>7</ele>
        <time>2020-06-08T17:04:52Z</time>
      </trkpt>
      <trkpt lat="48.38622" lon="-4.47367">
        <ele>7</ele>
        <time>2020-06-08T17:04:53Z</time>
      </trkpt>
      <trkpt lat="48.3862" lon="-4.47377">
        <ele>6.9</ele>
        <time>2020-06-08T17:04:54Z</time>
      </trkpt>
      <trkpt lat="48.38618" lon="-4.47385">
        <ele>6.9</ele>
        <time>2020-06-08T17:04:55Z</time>
      </trkpt>
      <trkpt lat="48.38618" lon="-4.47394">
        <ele>6.9</ele>
        <time>2020-06-08T17:04:56Z</time>
      </trkpt>
      <trkpt lat="48.38615" lon="-4.47402">
        <ele>6.9</ele>
        <time>2020-06-08T17:04:57Z</time>
      </trkpt>
      <trkpt lat="48.38614" lon="-4.4741">
        <ele>6.9</ele>
        <time>2020-06-08T17:04:58Z</time>
      </trkpt>
      <trkpt lat="48.38613" lon="-4.47418">
        <ele>6.9</ele>
        <time>2020-06-08T17:04:59Z</time>
      </trkpt>
      <trkpt lat="48.38612" lon="-4.47427">
        <ele>6.9</ele>
        <time>2020-06-08T17:05:00Z</time>
      </trkpt>
      <trkpt lat="48.3861" lon="-4.47435">
        <ele>6.9</ele>
        <time>2020-06-08T17:05:01Z</time>
      </trkpt>
      <trkpt lat="48.38609" lon="-4.47443">
        <ele>6.9</ele>
        <time>2020-06-08T17:05:02Z</time>
      </trkpt>
      <trkpt lat="48.38607" lon="-4.47451">
        <ele>6.9</ele>
        <time>2020-06-08T17:05:03Z</time>
      </trkpt>
      <trkpt lat="48.38607" lon="-4.47459">
        <ele>6.9</ele>
        <time>2020-06-08T17:05:04Z</time>
      </trkpt>
      <trkpt lat="48.38606" lon="-4.47468">
        <ele>6.9</ele>
        <time>2020-06-08T17:05:05Z</time>
      </trkpt>
      <trkpt lat="48.38605" lon="-4.47476">
        <ele>6.9</ele>
        <time>2020-06-08T17:05:06Z</time>
      </trkpt>
      <trkpt lat="48.38603" lon="-4.47484">
        <ele>6.9</ele>
        <time>2020-06-08T17:05:07Z</time>
      </trkpt>
      <trkpt lat="48.38601" lon="-4.47492">
        <ele>6.9</ele>
        <time>2020-06-08T17:05:08Z</time>
      </trkpt>
      <trkpt lat="48.38599" lon="-4.475">
        <ele>6.9</ele>
        <time>2020-06-08T17:05:09Z</time>
      </trkpt>
      <trkpt lat="48.38598" lon="-4.47507">
        <ele>6.9</ele>
        <time>2020-06-08T17:05:10Z</time>
      </trkpt>
      <trkpt lat="48.38597" lon="-4.47513">
        <ele>6.9</ele>
        <time>2020-06-08T17:05:11Z</time>
      </trkpt>
      <trkpt lat="48.38597" lon="-4.47519">
        <ele>6.9</ele>
        <time>2020-06-08T17:05:12Z</time>
      </trkpt>
      <trkpt lat="48.38598" lon="-4.47526">
        <ele>7</ele>
        <time>2020-06-08T17:05:13Z</time>
      </trkpt>
      <trkpt lat="48.38596" lon="-4.47533">
        <ele>6.9</ele>
        <time>2020-06-08T17:05:14Z</time>
      </trkpt>
      <trkpt lat="48.38593" lon="-4.47538">
        <ele>6.7</ele>
        <time>2020-06-08T17:05:15Z</time>
      </trkpt>
      <trkpt lat="48.3859" lon="-4.47542">
        <ele>6.5</ele>
        <time>2020-06-08T17:05:16Z</time>
      </trkpt>
      <trkpt lat="48.38587" lon="-4.47548">
        <ele>6.5</ele>
        <time>2020-06-08T17:05:17Z</time>
      </trkpt>
      <trkpt lat="48.38585" lon="-4.47554">
        <ele>6.5</ele>
        <time>2020-06-08T17:05:18Z</time>
      </trkpt>
      <trkpt lat="48.38583" lon="-4.4756">
        <ele>6.4</ele>
        <time>2020-06-08T17:05:19Z</time>
      </trkpt>
      <trkpt lat="48.3858" lon="-4.47566">
        <ele>6.4</ele>
        <time>2020-06-08T17:05:20Z</time>
      </trkpt>
      <trkpt lat="48.38578" lon="-4.47573">
        <ele>6.3</ele>
        <time>2020-06-08T17:05:21Z</time>
      </trkpt>
      <trkpt lat="48.38577" lon="-4.4758">
        <ele>6.2</ele>
        <time>2020-06-08T17:05:22Z</time>
      </trkpt>
      <trkpt lat="48.38574" lon="-4.47586">
        <ele>6.2</ele>
        <time>2020-06-08T17:05:23Z</time>
      </trkpt>
      <trkpt lat="48.38573" lon="-4.47593">
        <ele>6.1</ele>
        <time>2020-06-08T17:05:24Z</time>
      </trkpt>
      <trkpt lat="48.38575" lon="-4.47597">
        <ele>6.5</ele>
        <time>2020-06-08T17:05:25Z</time>
      </trkpt>
      <trkpt lat="48.38579" lon="-4.47601">
        <ele>6.6</ele>
        <time>2020-06-08T17:05:26Z</time>
      </trkpt>
      <trkpt lat="48.38584" lon="-4.47603">
        <ele>6.7</ele>
        <time>2020-06-08T17:05:27Z</time>
      </trkpt>
      <trkpt lat="48.38588" lon="-4.47604">
        <ele>6.7</ele>
        <time>2020-06-08T17:05:28Z</time>
      </trkpt>
      <trkpt lat="48.38593" lon="-4.47605">
        <ele>6.7</ele>
        <time>2020-06-08T17:05:29Z</time>
      </trkpt>
      <trkpt lat="48.38597" lon="-4.47607">
        <ele>6.7</ele>
        <time>2020-06-08T17:05:30Z</time>
      </trkpt>
      <trkpt lat="48.38601" lon="-4.4761">
        <ele>6.8</ele>
        <time>2020-06-08T17:05:31Z</time>
      </trkpt>
      <trkpt lat="48.38605" lon="-4.47611">
        <ele>6.8</ele>
        <time>2020-06-08T17:05:32Z</time>
      </trkpt>
      <trkpt lat="48.38609" lon="-4.47614">
        <ele>6.9</ele>
        <time>2020-06-08T17:05:33Z</time>
      </trkpt>
      <trkpt lat="48.38614" lon="-4.47616">
        <ele>6.9</ele>
        <time>2020-06-08T17:05:34Z</time>
      </trkpt>
      <trkpt lat="48.38617" lon="-4.47619">
        <ele>6.9</ele>
        <time>2020-06-08T17:05:35Z</time>
      </trkpt>
      <trkpt lat="48.38621" lon="-4.4762">
        <ele>7</ele>
        <time>2020-06-08T17:05:36Z</time>
      </trkpt>
      <trkpt lat="48.38624" lon="-4.47622">
        <ele>7</ele>
        <time>2020-06-08T17:05:37Z</time>
      </trkpt>
      <trkpt lat="48.38628" lon="-4.47623">
        <ele>7.1</ele>
        <time>2020-06-08T17:05:38Z</time>
      </trkpt>
      <trkpt lat="48.3863" lon="-4.47626">
        <ele>7.1</ele>
        <time>2020-06-08T17:05:39Z</time>
      </trkpt>
      <trkpt lat="48.38631" lon="-4.47631">
        <ele>7.1</ele>
        <time>2020-06-08T17:05:40Z</time>
      </trkpt>
      <trkpt lat="48.38633" lon="-4.47637">
        <ele>7</ele>
        <time>2020-06-08T17:05:41Z</time>
      </trkpt>
      <trkpt lat="48.38632" lon="-4.47643">
        <ele>6.9</ele>
        <time>2020-06-08T17:05:42Z</time>
      </trkpt>
      <trkpt lat="48.3863" lon="-4.47649">
        <ele>6.9</ele>
        <time>2020-06-08T17:05:43Z</time>
      </trkpt>
      <trkpt lat="48.3863" lon="-4.47655">
        <ele>6.8</ele>
        <time>2020-06-08T17:05:44Z</time>
      </trkpt>
      <trkpt lat="48.3863" lon="-4.47663">
        <ele>6.7</ele>
        <time>2020-06-08T17:05:45Z</time>
      </trkpt>
      <trkpt lat="48.3863" lon="-4.47669">
        <ele>6.7</ele>
        <time>2020-06-08T17:05:46Z</time>
      </trkpt>
      <trkpt lat="48.38629" lon="-4.47677">
        <ele>6.6</ele>
        <time>2020-06-08T17:05:47Z</time>
      </trkpt>
      <trkpt lat="48.38629" lon="-4.47685">
        <ele>6.6</ele>
        <time>2020-06-08T17:05:48Z</time>
      </trkpt>
      <trkpt lat="48.38628" lon="-4.47692">
        <ele>6.6</ele>
        <time>2020-06-08T17:05:49Z</time>
      </trkpt>
      <trkpt lat="48.38626" lon="-4.477">
        <ele>6.7</ele>
        <time>2020-06-08T17:05:50Z</time>
      </trkpt>
      <trkpt lat="48.38625" lon="-4.47707">
        <ele>6.7</ele>
        <time>2020-06-08T17:05:51Z</time>
      </trkpt>
      <trkpt lat="48.38625" lon="-4.47715">
        <ele>6.7</ele>
        <time>2020-06-08T17:05:52Z</time>
      </trkpt>
      <trkpt lat="48.38624" lon="-4.47722">
        <ele>6.7</ele>
        <time>2020-06-08T17:05:53Z</time>
      </trkpt>
      <trkpt lat="48.38621" lon="-4.4773">
        <ele>6.7</ele>
        <time>2020-06-08T17:05:54Z</time>
      </trkpt>
      <trkpt lat="48.3862" lon="-4.47737">
        <ele>6.7</ele>
        <time>2020-06-08T17:05:55Z</time>
      </trkpt>
      <trkpt lat="48.38618" lon="-4.47744">
        <ele>6.6</ele>
        <time>2020-06-08T17:05:56Z</time>
      </trkpt>
      <trkpt lat="48.38617" lon="-4.47753">
        <ele>6.6</ele>
        <time>2020-06-08T17:05:57Z</time>
      </trkpt>
      <trkpt lat="48.38615" lon="-4.47761">
        <ele>6.6</ele>
        <time>2020-06-08T17:05:58Z</time>
      </trkpt>
      <trkpt lat="48.38614" lon="-4.47769">
        <ele>6.6</ele>
        <time>2020-06-08T17:05:59Z</time>
      </trkpt>
      <trkpt lat="48.38613" lon="-4.47778">
        <ele>6.6</ele>
        <time>2020-06-08T17:06:00Z</time>
      </trkpt>
      <trkpt lat="48.38612" lon="-4.47787">
        <ele>6.6</ele>
        <time>2020-06-08T17:06:01Z</time>
      </trkpt>
      <trkpt lat="48.38611" lon="-4.47796">
        <ele>6.6</ele>
        <time>2020-06-08T17:06:02Z</time>
      </trkpt>
      <trkpt lat="48.38608" lon="-4.47804">
        <ele>6.6</ele>
        <time>2020-06-08T17:06:03Z</time>
      </trkpt>
      <trkpt lat="48.38607" lon="-4.47813">
        <ele>6.6</ele>
        <time>2020-06-08T17:06:04Z</time>
      </trkpt>
      <trkpt lat="48.38606" lon="-4.47821">
        <ele>6.7</ele>
        <time>2020-06-08T17:06:05Z</time>
      </trkpt>
      <trkpt lat="48.38604" lon="-4.4783">
        <ele>6.7</ele>
        <time>2020-06-08T17:06:06Z</time>
      </trkpt>
      <trkpt lat="48.38604" lon="-4.47837">
        <ele>6.7</ele>
        <time>2020-06-08T17:06:07Z</time>
      </trkpt>
      <trkpt lat="48.38603" lon="-4.47845">
        <ele>6.7</ele>
        <time>2020-06-08T17:06:08Z</time>
      </trkpt>
      <trkpt lat="48.38602" lon="-4.47852">
        <ele>6.8</ele>
        <time>2020-06-08T17:06:09Z</time>
      </trkpt>
      <trkpt lat="48.386" lon="-4.47859">
        <ele>6.8</ele>
        <time>2020-06-08T17:06:10Z</time>
      </trkpt>
      <trkpt lat="48.38599" lon="-4.47865">
        <ele>6.8</ele>
        <time>2020-06-08T17:06:11Z</time>
      </trkpt>
      <trkpt lat="48.38597" lon="-4.47871">
        <ele>6.8</ele>
        <time>2020-06-08T17:06:12Z</time>
      </trkpt>
      <trkpt lat="48.38596" lon="-4.47878">
        <ele>6.9</ele>
        <time>2020-06-08T17:06:13Z</time>
      </trkpt>
      <trkpt lat="48.38595" lon="-4.47886">
        <ele>6.9</ele>
        <time>2020-06-08T17:06:14Z</time>
      </trkpt>
      <trkpt lat="48.38594" lon="-4.47893">
        <ele>6.9</ele>
        <time>2020-06-08T17:06:15Z</time>
      </trkpt>
      <trkpt lat="48.38593" lon="-4.479">
        <ele>7</ele>
        <time>2020-06-08T17:06:16Z</time>
      </trkpt>
      <trkpt lat="48.38592" lon="-4.47907">
        <ele>7</ele>
        <time>2020-06-08T17:06:17Z</time>
      </trkpt>
      <trkpt lat="48.38592" lon="-4.47913">
        <ele>7</ele>
        <time>2020-06-08T17:06:18Z</time>
      </trkpt>
      <trkpt lat="48.3859" lon="-4.47919">
        <ele>7</ele>
        <time>2020-06-08T17:06:19Z</time>
      </trkpt>
      <trkpt lat="48.38588" lon="-4.47925">
        <ele>7</ele>
        <time>2020-06-08T17:06:20Z</time>
      </trkpt>
      <trkpt lat="48.38587" lon="-4.47931">
        <ele>7.1</ele>
        <time>2020-06-08T17:06:21Z</time>
      </trkpt>
      <trkpt lat="48.38587" lon="-4.47938">
        <ele>7.1</ele>
        <time>2020-06-08T17:06:22Z</time>
      </trkpt>
      <trkpt lat="48.38586" lon="-4.47944">
        <ele>7.1</ele>
        <time>2020-06-08T17:06:23Z</time>
      </trkpt>
      <trkpt lat="48.38586" lon="-4.47948">
        <ele>7.1</ele>
        <time>2020-06-08T17:06:24Z</time>
      </trkpt>
      <trkpt lat="48.38584" lon="-4.47953">
        <ele>7.1</ele>
        <time>2020-06-08T17:06:25Z</time>
      </trkpt>
      <trkpt lat="48.38582" lon="-4.47958">
        <ele>7.1</ele>
        <time>2020-06-08T17:06:26Z</time>
      </trkpt>
      <trkpt lat="48.38581" lon="-4.47964">
        <ele>7.1</ele>
        <time>2020-06-08T17:06:27Z</time>
      </trkpt>
      <trkpt lat="48.38579" lon="-4.4797">
        <ele>7.2</ele>
        <time>2020-06-08T17:06:28Z</time>
      </trkpt>
      <trkpt lat="48.38577" lon="-4.47976">
        <ele>7.2</ele>
        <time>2020-06-08T17:06:29Z</time>
      </trkpt>
      <trkpt lat="48.38575" lon="-4.47982">
        <ele>7.2</ele>
        <time>2020-06-08T17:06:30Z</time>
      </trkpt>
      <trkpt lat="48.38573" lon="-4.47988">
        <ele>7.3</ele>
        <time>2020-06-08T17:06:31Z</time>
      </trkpt>
      <trkpt lat="48.3857" lon="-4.47994">
        <ele>7.3</ele>
        <time>2020-06-08T17:06:32Z</time>
      </trkpt>
      <trkpt lat="48.38568" lon="-4.48">
        <ele>7.3</ele>
        <time>2020-06-08T17:06:33Z</time>
      </trkpt>
      <trkpt lat="48.38566" lon="-4.48005">
        <ele>7.3</ele>
        <time>2020-06-08T17:06:34Z</time>
      </trkpt>
      <trkpt lat="48.38563" lon="-4.4801">
        <ele>7.4</ele>
        <time>2020-06-08T17:06:35Z</time>
      </trkpt>
      <trkpt lat="48.38561" lon="-4.48016">
        <ele>7.4</ele>
        <time>2020-06-08T17:06:36Z</time>
      </trkpt>
      <trkpt lat="48.38559" lon="-4.48022">
        <ele>7.4</ele>
        <time>2020-06-08T17:06:37Z</time>
      </trkpt>
      <trkpt lat="48.38557" lon="-4.48028">
        <ele>7.5</ele>
        <time>2020-06-08T17:06:38Z</time>
      </trkpt>
      <trkpt lat="48.38554" lon="-4.48034">
        <ele>7.5</ele>
        <time>2020-06-08T17:06:39Z</time>
      </trkpt>
      <trkpt lat="48.38553" lon="-4.48041">
        <ele>7.6</ele>
        <time>2020-06-08T17:06:40Z</time>
      </trkpt>
      <trkpt lat="48.38551" lon="-4.48047">
        <ele>7.7</ele>
        <time>2020-06-08T17:06:41Z</time>
      </trkpt>
      <trkpt lat="48.38549" lon="-4.48053">
        <ele>7.8</ele>
        <time>2020-06-08T17:06:42Z</time>
      </trkpt>
      <trkpt lat="48.38547" lon="-4.48059">
        <ele>7.9</ele>
        <time>2020-06-08T17:06:43Z</time>
      </trkpt>
      <trkpt lat="48.38545" lon="-4.48065">
        <ele>8</ele>
        <time>2020-06-08T17:06:44Z</time>
      </trkpt>
      <trkpt lat="48.38543" lon="-4.48071">
        <ele>8.1</ele>
        <time>2020-06-08T17:06:45Z</time>
      </trkpt>
      <trkpt lat="48.38541" lon="-4.48077">
        <ele>8.2</ele>
        <time>2020-06-08T17:06:46Z</time>
      </trkpt>
      <trkpt lat="48.38539" lon="-4.48082">
        <ele>8.3</ele>
        <time>2020-06-08T17:06:47Z</time>
      </trkpt>
      <trkpt lat="48.38536" lon="-4.48088">
        <ele>8.4</ele>
        <time>2020-06-08T17:06:48Z</time>
      </trkpt>
      <trkpt lat="48.38534" lon="-4.48093">
        <ele>8.5</ele>
        <time>2020-06-08T17:06:49Z</time>
      </trkpt>
      <trkpt lat="48.38531" lon="-4.48098">
        <ele>9.3</ele>
        <time>2020-06-08T17:06:50Z</time>
      </trkpt>
      <trkpt lat="48.3853" lon="-4.48104">
        <ele>9.2</ele>
        <time>2020-06-08T17:06:51Z</time>
      </trkpt>
      <trkpt lat="48.38527" lon="-4.48108">
        <ele>9.2</ele>
        <time>2020-06-08T17:06:52Z</time>
      </trkpt>
      <trkpt lat="48.38524" lon="-4.48112">
        <ele>9.2</ele>
        <time>2020-06-08T17:06:53Z</time>
      </trkpt>
      <trkpt lat="48.38521" lon="-4.48116">
        <ele>9.2</ele>
        <time>2020-06-08T17:06:54Z</time>
      </trkpt>
      <trkpt lat="48.38518" lon="-4.4812">
        <ele>9.2</ele>
        <time>2020-06-08T17:06:55Z</time>
      </trkpt>
      <trkpt lat="48.38514" lon="-4.48121">
        <ele>9.2</ele>
        <time>2020-06-08T17:06:56Z</time>
      </trkpt>
      <trkpt lat="48.3851" lon="-4.48124">
        <ele>9.1</ele>
        <time>2020-06-08T17:06:57Z</time>
      </trkpt>
      <trkpt lat="48.38506" lon="-4.48124">
        <ele>9.1</ele>
        <time>2020-06-08T17:06:58Z</time>
      </trkpt>
      <trkpt lat="48.38502" lon="-4.48124">
        <ele>9.1</ele>
        <time>2020-06-08T17:06:59Z</time>
      </trkpt>
      <trkpt lat="48.38499" lon="-4.48123">
        <ele>9.1</ele>
        <time>2020-06-08T17:07:00Z</time>
      </trkpt>
      <trkpt lat="48.38496" lon="-4.48121">
        <ele>9.1</ele>
        <time>2020-06-08T17:07:01Z</time>
      </trkpt>
      <trkpt lat="48.38493" lon="-4.48119">
        <ele>9.1</ele>
        <time>2020-06-08T17:07:02Z</time>
      </trkpt>
      <trkpt lat="48.3849" lon="-4.4812">
        <ele>9</ele>
        <time>2020-06-08T17:07:03Z</time>
      </trkpt>
      <trkpt lat="48.38486" lon="-4.48123">
        <ele>9</ele>
        <time>2020-06-08T17:07:04Z</time>
      </trkpt>
      <trkpt lat="48.38483" lon="-4.48126">
        <ele>9</ele>
        <time>2020-06-08T17:07:05Z</time>
      </trkpt>
      <trkpt lat="48.3848" lon="-4.48127">
        <ele>9</ele>
        <time>2020-06-08T17:07:06Z</time>
      </trkpt>
      <trkpt lat="48.38477" lon="-4.4813">
        <ele>8.9</ele>
        <time>2020-06-08T17:07:07Z</time>
      </trkpt>
      <trkpt lat="48.38474" lon="-4.48134">
        <ele>8.9</ele>
        <time>2020-06-08T17:07:08Z</time>
      </trkpt>
      <trkpt lat="48.38471" lon="-4.48141">
        <ele>8.9</ele>
        <time>2020-06-08T17:07:09Z</time>
      </trkpt>
      <trkpt lat="48.38468" lon="-4.48148">
        <ele>8.9</ele>
        <time>2020-06-08T17:07:10Z</time>
      </trkpt>
      <trkpt lat="48.38467" lon="-4.48155">
        <ele>8.8</ele>
        <time>2020-06-08T17:07:11Z</time>
      </trkpt>
      <trkpt lat="48.38464" lon="-4.48161">
        <ele>8.8</ele>
        <time>2020-06-08T17:07:12Z</time>
      </trkpt>
      <trkpt lat="48.38462" lon="-4.48167">
        <ele>8.8</ele>
        <time>2020-06-08T17:07:13Z</time>
      </trkpt>
      <trkpt lat="48.38461" lon="-4.48174">
        <ele>8.8</ele>
        <time>2020-06-08T17:07:14Z</time>
      </trkpt>
      <trkpt lat="48.38459" lon="-4.48181">
        <ele>8.8</ele>
        <time>2020-06-08T17:07:15Z</time>
      </trkpt>
      <trkpt lat="48.38458" lon="-4.48188">
        <ele>8.8</ele>
        <time>2020-06-08T17:07:16Z</time>
      </trkpt>
      <trkpt lat="48.38457" lon="-4.48196">
        <ele>8.8</ele>
        <time>2020-06-08T17:07:17Z</time>
      </trkpt>
      <trkpt lat="48.38456" lon="-4.48203">
        <ele>8.8</ele>
        <time>2020-06-08T17:07:18Z</time>
      </trkpt>
      <trkpt lat="48.38455" lon="-4.4821">
        <ele>8.8</ele>
        <time>2020-06-08T17:07:19Z</time>
      </trkpt>
      <trkpt lat="48.38453" lon="-4.48217">
        <ele>8.8</ele>
        <time>2020-06-08T17:07:20Z</time>
      </trkpt>
      <trkpt lat="48.38451" lon="-4.48224">
        <ele>8.8</ele>
        <time>2020-06-08T17:07:21Z</time>
      </trkpt>
      <trkpt lat="48.3845" lon="-4.48231">
        <ele>8.7</ele>
        <time>2020-06-08T17:07:22Z</time>
      </trkpt>
      <trkpt lat="48.38449" lon="-4.48238">
        <ele>8.7</ele>
        <time>2020-06-08T17:07:23Z</time>
      </trkpt>
      <trkpt lat="48.38448" lon="-4.48245">
        <ele>8.7</ele>
        <time>2020-06-08T17:07:24Z</time>
      </trkpt>
      <trkpt lat="48.38447" lon="-4.48252">
        <ele>8.7</ele>
        <time>2020-06-08T17:07:25Z</time>
      </trkpt>
      <trkpt lat="48.38446" lon="-4.4826">
        <ele>8.7</ele>
        <time>2020-06-08T17:07:26Z</time>
      </trkpt>
      <trkpt lat="48.38445" lon="-4.48268">
        <ele>8.7</ele>
        <time>2020-06-08T17:07:27Z</time>
      </trkpt>
      <trkpt lat="48.38444" lon="-4.48275">
        <ele>8.7</ele>
        <time>2020-06-08T17:07:28Z</time>
      </trkpt>
      <trkpt lat="48.38442" lon="-4.48281">
        <ele>8.7</ele>
        <time>2020-06-08T17:07:29Z</time>
      </trkpt>
      <trkpt lat="48.38441" lon="-4.48288">
        <ele>8.7</ele>
        <time>2020-06-08T17:07:30Z</time>
      </trkpt>
      <trkpt lat="48.3844" lon="-4.48296">
        <ele>8.7</ele>
        <time>2020-06-08T17:07:31Z</time>
      </trkpt>
      <trkpt lat="48.38438" lon="-4.48303">
        <ele>8.7</ele>
        <time>2020-06-08T17:07:32Z</time>
      </trkpt>
      <trkpt lat="48.38437" lon="-4.4831">
        <ele>8.7</ele>
        <time>2020-06-08T17:07:33Z</time>
      </trkpt>
      <trkpt lat="48.38435" lon="-4.48316">
        <ele>8.7</ele>
        <time>2020-06-08T17:07:34Z</time>
      </trkpt>
      <trkpt lat="48.38433" lon="-4.48323">
        <ele>8.8</ele>
        <time>2020-06-08T17:07:35Z</time>
      </trkpt>
      <trkpt lat="48.38432" lon="-4.4833">
        <ele>8.8</ele>
        <time>2020-06-08T17:07:36Z</time>
      </trkpt>
      <trkpt lat="48.3843" lon="-4.48336">
        <ele>8.8</ele>
        <time>2020-06-08T17:07:37Z</time>
      </trkpt>
      <trkpt lat="48.38428" lon="-4.48343">
        <ele>8.8</ele>
        <time>2020-06-08T17:07:38Z</time>
      </trkpt>
      <trkpt lat="48.38426" lon="-4.48349">
        <ele>8.8</ele>
        <time>2020-06-08T17:07:39Z</time>
      </trkpt>
      <trkpt lat="48.38425" lon="-4.48356">
        <ele>8.8</ele>
        <time>2020-06-08T17:07:40Z</time>
      </trkpt>
      <trkpt lat="48.38425" lon="-4.48362">
        <ele>8.8</ele>
        <time>2020-06-08T17:07:41Z</time>
      </trkpt>
      <trkpt lat="48.38424" lon="-4.48368">
        <ele>8.9</ele>
        <time>2020-06-08T17:07:42Z</time>
      </trkpt>
      <trkpt lat="48.38422" lon="-4.48374">
        <ele>8.9</ele>
        <time>2020-06-08T17:07:43Z</time>
      </trkpt>
      <trkpt lat="48.3842" lon="-4.48381">
        <ele>8.8</ele>
        <time>2020-06-08T17:07:44Z</time>
      </trkpt>
      <trkpt lat="48.38417" lon="-4.48387">
        <ele>8.8</ele>
        <time>2020-06-08T17:07:45Z</time>
      </trkpt>
      <trkpt lat="48.38416" lon="-4.48394">
        <ele>8.8</ele>
        <time>2020-06-08T17:07:46Z</time>
      </trkpt>
      <trkpt lat="48.38414" lon="-4.48401">
        <ele>8.8</ele>
        <time>2020-06-08T17:07:47Z</time>
      </trkpt>
      <trkpt lat="48.38412" lon="-4.48409">
        <ele>8.8</ele>
        <time>2020-06-08T17:07:48Z</time>
      </trkpt>
      <trkpt lat="48.3841" lon="-4.48415">
        <ele>8.8</ele>
        <time>2020-06-08T17:07:49Z</time>
      </trkpt>
      <trkpt lat="48.38409" lon="-4.48422">
        <ele>8.8</ele>
        <time>2020-06-08T17:07:50Z</time>
      </trkpt>
      <trkpt lat="48.38406" lon="-4.48428">
        <ele>8.7</ele>
        <time>2020-06-08T17:07:51Z</time>
      </trkpt>
      <trkpt lat="48.38404" lon="-4.48434">
        <ele>8.7</ele>
        <time>2020-06-08T17:07:52Z</time>
      </trkpt>
      <trkpt lat="48.38402" lon="-4.4844">
        <ele>8.7</ele>
        <time>2020-06-08T17:07:53Z</time>
      </trkpt>
      <trkpt lat="48.38399" lon="-4.48446">
        <ele>8.7</ele>
        <time>2020-06-08T17:07:54Z</time>
      </trkpt>
      <trkpt lat="48.38397" lon="-4.48453">
        <ele>8.7</ele>
        <time>2020-06-08T17:07:55Z</time>
      </trkpt>
      <trkpt lat="48.38396" lon="-4.4846">
        <ele>8.6</ele>
        <time>2020-06-08T17:07:56Z</time>
      </trkpt>
      <trkpt lat="48.38394" lon="-4.48467">
        <ele>8.6</ele>
        <time>2020-06-08T17:07:57Z</time>
      </trkpt>
      <trkpt lat="48.38392" lon="-4.48473">
        <ele>8.6</ele>
        <time>2020-06-08T17:07:58Z</time>
      </trkpt>
      <trkpt lat="48.3839" lon="-4.48479">
        <ele>8.6</ele>
        <time>2020-06-08T17:07:59Z</time>
      </trkpt>
      <trkpt lat="48.38387" lon="-4.48485">
        <ele>8.5</ele>
        <time>2020-06-08T17:08:00Z</time>
      </trkpt>
      <trkpt lat="48.38384" lon="-4.4849">
        <ele>8.5</ele>
        <time>2020-06-08T17:08:01Z</time>
      </trkpt>
      <trkpt lat="48.38382" lon="-4.48496">
        <ele>8.5</ele>
        <time>2020-06-08T17:08:02Z</time>
      </trkpt>
      <trkpt lat="48.38378" lon="-4.48503">
        <ele>8.5</ele>
        <time>2020-06-08T17:08:03Z</time>
      </trkpt>
      <trkpt lat="48.38375" lon="-4.48509">
        <ele>8.4</ele>
        <time>2020-06-08T17:08:04Z</time>
      </trkpt>
      <trkpt lat="48.38372" lon="-4.48515">
        <ele>8.4</ele>
        <time>2020-06-08T17:08:05Z</time>
      </trkpt>
      <trkpt lat="48.38369" lon="-4.48522">
        <ele>8.4</ele>
        <time>2020-06-08T17:08:06Z</time>
      </trkpt>
      <trkpt lat="48.38366" lon="-4.48528">
        <ele>8.4</ele>
        <time>2020-06-08T17:08:07Z</time>
      </trkpt>
      <trkpt lat="48.38364" lon="-4.48534">
        <ele>8.3</ele>
        <time>2020-06-08T17:08:08Z</time>
      </trkpt>
      <trkpt lat="48.38361" lon="-4.48541">
        <ele>8.3</ele>
        <time>2020-06-08T17:08:09Z</time>
      </trkpt>
      <trkpt lat="48.38359" lon="-4.48547">
        <ele>8.3</ele>
        <time>2020-06-08T17:08:10Z</time>
      </trkpt>
      <trkpt lat="48.38357" lon="-4.48553">
        <ele>8.3</ele>
        <time>2020-06-08T17:08:11Z</time>
      </trkpt>
      <trkpt lat="48.38355" lon="-4.48558">
        <ele>8.3</ele>
        <time>2020-06-08T17:08:12Z</time>
      </trkpt>
      <trkpt lat="48.38352" lon="-4.48563">
        <ele>8.3</ele>
        <time>2020-06-08T17:08:13Z</time>
      </trkpt>
      <trkpt lat="48.3835" lon="-4.48569">
        <ele>8.2</ele>
        <time>2020-06-08T17:08:14Z</time>
      </trkpt>
      <trkpt lat="48.38347" lon="-4.48574">
        <ele>8.2</ele>
        <time>2020-06-08T17:08:15Z</time>
      </trkpt>
      <trkpt lat="48.38346" lon="-4.4858">
        <ele>8.2</ele>
        <time>2020-06-08T17:08:16Z</time>
      </trkpt>
      <trkpt lat="48.38343" lon="-4.48586">
        <ele>8.3</ele>
        <time>2020-06-08T17:08:17Z</time>
      </trkpt>
      <trkpt lat="48.3834" lon="-4.48592">
        <ele>8.3</ele>
        <time>2020-06-08T17:08:18Z</time>
      </trkpt>
      <trkpt lat="48.38338" lon="-4.48595">
        <ele>8.3</ele>
        <time>2020-06-08T17:08:19Z</time>
      </trkpt>
      <trkpt lat="48.38335" lon="-4.48602">
        <ele>8.3</ele>
        <time>2020-06-08T17:08:20Z</time>
      </trkpt>
      <trkpt lat="48.38333" lon="-4.48606">
        <ele>8.4</ele>
        <time>2020-06-08T17:08:21Z</time>
      </trkpt>
      <trkpt lat="48.38331" lon="-4.48611">
        <ele>8.4</ele>
        <time>2020-06-08T17:08:22Z</time>
      </trkpt>
      <trkpt lat="48.38329" lon="-4.48616">
        <ele>8.4</ele>
        <time>2020-06-08T17:08:23Z</time>
      </trkpt>
      <trkpt lat="48.38328" lon="-4.48621">
        <ele>8.5</ele>
        <time>2020-06-08T17:08:24Z</time>
      </trkpt>
      <trkpt lat="48.38326" lon="-4.48625">
        <ele>8.6</ele>
        <time>2020-06-08T17:08:25Z</time>
      </trkpt>
      <trkpt lat="48.38325" lon="-4.4863">
        <ele>8.7</ele>
        <time>2020-06-08T17:08:26Z</time>
      </trkpt>
      <trkpt lat="48.38325" lon="-4.48635">
        <ele>8.8</ele>
        <time>2020-06-08T17:08:27Z</time>
      </trkpt>
      <trkpt lat="48.38324" lon="-4.48642">
        <ele>9</ele>
        <time>2020-06-08T17:08:28Z</time>
      </trkpt>
      <trkpt lat="48.38323" lon="-4.48649">
        <ele>9.1</ele>
        <time>2020-06-08T17:08:29Z</time>
      </trkpt>
      <trkpt lat="48.38322" lon="-4.48656">
        <ele>9.3</ele>
        <time>2020-06-08T17:08:30Z</time>
      </trkpt>
      <trkpt lat="48.38321" lon="-4.48661">
        <ele>9.4</ele>
        <time>2020-06-08T17:08:31Z</time>
      </trkpt>
      <trkpt lat="48.3832" lon="-4.48667">
        <ele>9.6</ele>
        <time>2020-06-08T17:08:32Z</time>
      </trkpt>
      <trkpt lat="48.38318" lon="-4.48672">
        <ele>9.7</ele>
        <time>2020-06-08T17:08:33Z</time>
      </trkpt>
      <trkpt lat="48.38317" lon="-4.48677">
        <ele>9.8</ele>
        <time>2020-06-08T17:08:34Z</time>
      </trkpt>
      <trkpt lat="48.38315" lon="-4.48683">
        <ele>10</ele>
        <time>2020-06-08T17:08:35Z</time>
      </trkpt>
      <trkpt lat="48.38314" lon="-4.48688">
        <ele>10.1</ele>
        <time>2020-06-08T17:08:36Z</time>
      </trkpt>
      <trkpt lat="48.38313" lon="-4.48694">
        <ele>10.3</ele>
        <time>2020-06-08T17:08:37Z</time>
      </trkpt>
      <trkpt lat="48.38312" lon="-4.48699">
        <ele>10.4</ele>
        <time>2020-06-08T17:08:38Z</time>
      </trkpt>
      <trkpt lat="48.3831" lon="-4.48704">
        <ele>10.6</ele>
        <time>2020-06-08T17:08:39Z</time>
      </trkpt>
      <trkpt lat="48.38309" lon="-4.4871">
        <ele>10.7</ele>
        <time>2020-06-08T17:08:40Z</time>
      </trkpt>
      <trkpt lat="48.38308" lon="-4.48716">
        <ele>11</ele>
        <time>2020-06-08T17:08:41Z</time>
      </trkpt>
      <trkpt lat="48.38307" lon="-4.48721">
        <ele>11.1</ele>
        <time>2020-06-08T17:08:42Z</time>
      </trkpt>
      <trkpt lat="48.38306" lon="-4.48727">
        <ele>11.3</ele>
        <time>2020-06-08T17:08:43Z</time>
      </trkpt>
      <trkpt lat="48.38304" lon="-4.48732">
        <ele>11.5</ele>
        <time>2020-06-08T17:08:44Z</time>
      </trkpt>
      <trkpt lat="48.38303" lon="-4.48737">
        <ele>11.7</ele>
        <time>2020-06-08T17:08:45Z</time>
      </trkpt>
      <trkpt lat="48.38301" lon="-4.48743">
        <ele>11.9</ele>
        <time>2020-06-08T17:08:46Z</time>
      </trkpt>
      <trkpt lat="48.383" lon="-4.48749">
        <ele>12.1</ele>
        <time>2020-06-08T17:08:47Z</time>
      </trkpt>
      <trkpt lat="48.38299" lon="-4.48755">
        <ele>12.2</ele>
        <time>2020-06-08T17:08:48Z</time>
      </trkpt>
      <trkpt lat="48.38298" lon="-4.48761">
        <ele>12.4</ele>
        <time>2020-06-08T17:08:49Z</time>
      </trkpt>
      <trkpt lat="48.38297" lon="-4.48767">
        <ele>12.5</ele>
        <time>2020-06-08T17:08:50Z</time>
      </trkpt>
      <trkpt lat="48.38296" lon="-4.48772">
        <ele>12.7</ele>
        <time>2020-06-08T17:08:51Z</time>
      </trkpt>
      <trkpt lat="48.38295" lon="-4.48777">
        <ele>12.8</ele>
        <time>2020-06-08T17:08:52Z</time>
      </trkpt>
      <trkpt lat="48.38295" lon="-4.48781">
        <ele>12.8</ele>
        <time>2020-06-08T17:08:53Z</time>
      </trkpt>
      <trkpt lat="48.38295" lon="-4.48783">
        <ele>12.8</ele>
        <time>2020-06-08T17:08:54Z</time>
      </trkpt>
      <trkpt lat="48.38297" lon="-4.48786">
        <ele>12.9</ele>
        <time>2020-06-08T17:08:55Z</time>
      </trkpt>
      <trkpt lat="48.38299" lon="-4.4879">
        <ele>13.1</ele>
        <time>2020-06-08T17:08:56Z</time>
      </trkpt>
      <trkpt lat="48.38301" lon="-4.48795">
        <ele>13.1</ele>
        <time>2020-06-08T17:08:57Z</time>
      </trkpt>
      <trkpt lat="48.38302" lon="-4.48799">
        <ele>13.1</ele>
        <time>2020-06-08T17:08:58Z</time>
      </trkpt>
      <trkpt lat="48.38302" lon="-4.48803">
        <ele>13.2</ele>
        <time>2020-06-08T17:08:59Z</time>
      </trkpt>
      <trkpt lat="48.38303" lon="-4.48807">
        <ele>13.2</ele>
        <time>2020-06-08T17:09:00Z</time>
      </trkpt>
      <trkpt lat="48.38302" lon="-4.48813">
        <ele>13.2</ele>
        <time>2020-06-08T17:09:01Z</time>
      </trkpt>
      <trkpt lat="48.38301" lon="-4.48817">
        <ele>13.2</ele>
        <time>2020-06-08T17:09:02Z</time>
      </trkpt>
      <trkpt lat="48.38299" lon="-4.48821">
        <ele>13.3</ele>
        <time>2020-06-08T17:09:03Z</time>
      </trkpt>
      <trkpt lat="48.38297" lon="-4.48827">
        <ele>13.4</ele>
        <time>2020-06-08T17:09:04Z</time>
      </trkpt>
      <trkpt lat="48.38296" lon="-4.48833">
        <ele>13.4</ele>
        <time>2020-06-08T17:09:05Z</time>
      </trkpt>
      <trkpt lat="48.38294" lon="-4.4884">
        <ele>13.5</ele>
        <time>2020-06-08T17:09:06Z</time>
      </trkpt>
      <trkpt lat="48.38293" lon="-4.48845">
        <ele>13.5</ele>
        <time>2020-06-08T17:09:07Z</time>
      </trkpt>
      <trkpt lat="48.38291" lon="-4.48851">
        <ele>13.5</ele>
        <time>2020-06-08T17:09:08Z</time>
      </trkpt>
      <trkpt lat="48.38291" lon="-4.48853">
        <ele>13.5</ele>
        <time>2020-06-08T17:09:09Z</time>
      </trkpt>
      <trkpt lat="48.38289" lon="-4.48858">
        <ele>13.5</ele>
        <time>2020-06-08T17:09:10Z</time>
      </trkpt>
      <trkpt lat="48.38287" lon="-4.48863">
        <ele>13.6</ele>
        <time>2020-06-08T17:09:11Z</time>
      </trkpt>
      <trkpt lat="48.38285" lon="-4.48868">
        <ele>13.6</ele>
        <time>2020-06-08T17:09:12Z</time>
      </trkpt>
      <trkpt lat="48.38283" lon="-4.48874">
        <ele>13.6</ele>
        <time>2020-06-08T17:09:13Z</time>
      </trkpt>
      <trkpt lat="48.38282" lon="-4.48878">
        <ele>13.7</ele>
        <time>2020-06-08T17:09:14Z</time>
      </trkpt>
      <trkpt lat="48.3828" lon="-4.48884">
        <ele>13.8</ele>
        <time>2020-06-08T17:09:15Z</time>
      </trkpt>
      <trkpt lat="48.38277" lon="-4.4889">
        <ele>14</ele>
        <time>2020-06-08T17:09:16Z</time>
      </trkpt>
      <trkpt lat="48.38275" lon="-4.48895">
        <ele>14.1</ele>
        <time>2020-06-08T17:09:17Z</time>
      </trkpt>
      <trkpt lat="48.38275" lon="-4.48899">
        <ele>14.2</ele>
        <time>2020-06-08T17:09:18Z</time>
      </trkpt>
      <trkpt lat="48.38274" lon="-4.48905">
        <ele>14.4</ele>
        <time>2020-06-08T17:09:19Z</time>
      </trkpt>
      <trkpt lat="48.38273" lon="-4.4891">
        <ele>14.5</ele>
        <time>2020-06-08T17:09:20Z</time>
      </trkpt>
      <trkpt lat="48.38271" lon="-4.48916">
        <ele>14.7</ele>
        <time>2020-06-08T17:09:21Z</time>
      </trkpt>
      <trkpt lat="48.3827" lon="-4.48921">
        <ele>14.8</ele>
        <time>2020-06-08T17:09:22Z</time>
      </trkpt>
      <trkpt lat="48.38269" lon="-4.48925">
        <ele>14.9</ele>
        <time>2020-06-08T17:09:23Z</time>
      </trkpt>
      <trkpt lat="48.38267" lon="-4.4893">
        <ele>15</ele>
        <time>2020-06-08T17:09:24Z</time>
      </trkpt>
      <trkpt lat="48.38266" lon="-4.48935">
        <ele>15.1</ele>
        <time>2020-06-08T17:09:25Z</time>
      </trkpt>
      <trkpt lat="48.38264" lon="-4.48939">
        <ele>15.2</ele>
        <time>2020-06-08T17:09:26Z</time>
      </trkpt>
      <trkpt lat="48.38261" lon="-4.48944">
        <ele>15.4</ele>
        <time>2020-06-08T17:09:27Z</time>
      </trkpt>
      <trkpt lat="48.38259" lon="-4.48949">
        <ele>15.5</ele>
        <time>2020-06-08T17:09:28Z</time>
      </trkpt>
      <trkpt lat="48.38258" lon="-4.48954">
        <ele>15.6</ele>
        <time>2020-06-08T17:09:29Z</time>
      </trkpt>
      <trkpt lat="48.38255" lon="-4.48961">
        <ele>15.8</ele>
        <time>2020-06-08T17:09:30Z</time>
      </trkpt>
      <trkpt lat="48.38253" lon="-4.48966">
        <ele>15.9</ele>
        <time>2020-06-08T17:09:31Z</time>
      </trkpt>
      <trkpt lat="48.38251" lon="-4.48971">
        <ele>16.1</ele>
        <time>2020-06-08T17:09:32Z</time>
      </trkpt>
      <trkpt lat="48.38249" lon="-4.48977">
        <ele>16.3</ele>
        <time>2020-06-08T17:09:33Z</time>
      </trkpt>
      <trkpt lat="48.38247" lon="-4.48982">
        <ele>16.4</ele>
        <time>2020-06-08T17:09:34Z</time>
      </trkpt>
      <trkpt lat="48.38245" lon="-4.48987">
        <ele>16.5</ele>
        <time>2020-06-08T17:09:35Z</time>
      </trkpt>
      <trkpt lat="48.38244" lon="-4.48993">
        <ele>16.7</ele>
        <time>2020-06-08T17:09:36Z</time>
      </trkpt>
      <trkpt lat="48.38243" lon="-4.48998">
        <ele>16.8</ele>
        <time>2020-06-08T17:09:37Z</time>
      </trkpt>
      <trkpt lat="48.3824" lon="-4.49004">
        <ele>17</ele>
        <time>2020-06-08T17:09:38Z</time>
      </trkpt>
      <trkpt lat="48.38238" lon="-4.4901">
        <ele>17.2</ele>
        <time>2020-06-08T17:09:39Z</time>
      </trkpt>
      <trkpt lat="48.38236" lon="-4.49016">
        <ele>17.4</ele>
        <time>2020-06-08T17:09:40Z</time>
      </trkpt>
      <trkpt lat="48.38234" lon="-4.49023">
        <ele>17.6</ele>
        <time>2020-06-08T17:09:41Z</time>
      </trkpt>
      <trkpt lat="48.38233" lon="-4.49029">
        <ele>17.7</ele>
        <time>2020-06-08T17:09:42Z</time>
      </trkpt>
      <trkpt lat="48.38231" lon="-4.49034">
        <ele>17.9</ele>
        <time>2020-06-08T17:09:43Z</time>
      </trkpt>
      <trkpt lat="48.38229" lon="-4.49039">
        <ele>18</ele>
        <time>2020-06-08T17:09:44Z</time>
      </trkpt>
      <trkpt lat="48.38226" lon="-4.49044">
        <ele>18.2</ele>
        <time>2020-06-08T17:09:45Z</time>
      </trkpt>
      <trkpt lat="48.38223" lon="-4.49049">
        <ele>18.4</ele>
        <time>2020-06-08T17:09:46Z</time>
      </trkpt>
      <trkpt lat="48.38221" lon="-4.49054">
        <ele>18.5</ele>
        <time>2020-06-08T17:09:47Z</time>
      </trkpt>
      <trkpt lat="48.38219" lon="-4.49059">
        <ele>18.6</ele>
        <time>2020-06-08T17:09:48Z</time>
      </trkpt>
      <trkpt lat="48.38217" lon="-4.49064">
        <ele>18.7</ele>
        <time>2020-06-08T17:09:49Z</time>
      </trkpt>
      <trkpt lat="48.38215" lon="-4.4907">
        <ele>18.9</ele>
        <time>2020-06-08T17:09:50Z</time>
      </trkpt>
      <trkpt lat="48.38214" lon="-4.49078">
        <ele>19</ele>
        <time>2020-06-08T17:09:51Z</time>
      </trkpt>
      <trkpt lat="48.38212" lon="-4.49083">
        <ele>19.1</ele>
        <time>2020-06-08T17:09:52Z</time>
      </trkpt>
      <trkpt lat="48.3821" lon="-4.49088">
        <ele>19.2</ele>
        <time>2020-06-08T17:09:53Z</time>
      </trkpt>
      <trkpt lat="48.38209" lon="-4.49094">
        <ele>19.3</ele>
        <time>2020-06-08T17:09:54Z</time>
      </trkpt>
      <trkpt lat="48.38206" lon="-4.49099">
        <ele>19.4</ele>
        <time>2020-06-08T17:09:55Z</time>
      </trkpt>
      <trkpt lat="48.38202" lon="-4.491">
        <ele>19.4</ele>
        <time>2020-06-08T17:09:56Z</time>
      </trkpt>
      <trkpt lat="48.382" lon="-4.49103">
        <ele>19.4</ele>
        <time>2020-06-08T17:09:57Z</time>
      </trkpt>
      <trkpt lat="48.38198" lon="-4.49108">
        <ele>19.4</ele>
        <time>2020-06-08T17:09:58Z</time>
      </trkpt>
      <trkpt lat="48.38196" lon="-4.49114">
        <ele>19.5</ele>
        <time>2020-06-08T17:09:59Z</time>
      </trkpt>
      <trkpt lat="48.38193" lon="-4.4912">
        <ele>19.5</ele>
        <time>2020-06-08T17:10:00Z</time>
      </trkpt>
      <trkpt lat="48.38191" lon="-4.49126">
        <ele>19.5</ele>
        <time>2020-06-08T17:10:01Z</time>
      </trkpt>
      <trkpt lat="48.38188" lon="-4.49131">
        <ele>19.5</ele>
        <time>2020-06-08T17:10:02Z</time>
      </trkpt>
      <trkpt lat="48.38186" lon="-4.49136">
        <ele>19.4</ele>
        <time>2020-06-08T17:10:03Z</time>
      </trkpt>
      <trkpt lat="48.38184" lon="-4.49143">
        <ele>19.7</ele>
        <time>2020-06-08T17:10:04Z</time>
      </trkpt>
      <trkpt lat="48.38182" lon="-4.49148">
        <ele>20</ele>
        <time>2020-06-08T17:10:05Z</time>
      </trkpt>
      <trkpt lat="48.3818" lon="-4.49154">
        <ele>20.3</ele>
        <time>2020-06-08T17:10:06Z</time>
      </trkpt>
      <trkpt lat="48.38179" lon="-4.49158">
        <ele>20.5</ele>
        <time>2020-06-08T17:10:07Z</time>
      </trkpt>
      <trkpt lat="48.38179" lon="-4.49163">
        <ele>20.7</ele>
        <time>2020-06-08T17:10:08Z</time>
      </trkpt>
      <trkpt lat="48.38181" lon="-4.49167">
        <ele>20.9</ele>
        <time>2020-06-08T17:10:09Z</time>
      </trkpt>
      <trkpt lat="48.38184" lon="-4.49171">
        <ele>21.2</ele>
        <time>2020-06-08T17:10:10Z</time>
      </trkpt>
      <trkpt lat="48.38187" lon="-4.49172">
        <ele>21.4</ele>
        <time>2020-06-08T17:10:11Z</time>
      </trkpt>
      <trkpt lat="48.38191" lon="-4.49174">
        <ele>21.7</ele>
        <time>2020-06-08T17:10:12Z</time>
      </trkpt>
      <trkpt lat="48.38194" lon="-4.49173">
        <ele>21.9</ele>
        <time>2020-06-08T17:10:13Z</time>
      </trkpt>
      <trkpt lat="48.38198" lon="-4.49172">
        <ele>22.2</ele>
        <time>2020-06-08T17:10:14Z</time>
      </trkpt>
      <trkpt lat="48.38201" lon="-4.4917">
        <ele>22.4</ele>
        <time>2020-06-08T17:10:15Z</time>
      </trkpt>
      <trkpt lat="48.38204" lon="-4.49169">
        <ele>22.6</ele>
        <time>2020-06-08T17:10:16Z</time>
      </trkpt>
      <trkpt lat="48.38207" lon="-4.49168">
        <ele>22.8</ele>
        <time>2020-06-08T17:10:17Z</time>
      </trkpt>
      <trkpt lat="48.3821" lon="-4.49167">
        <ele>23</ele>
        <time>2020-06-08T17:10:18Z</time>
      </trkpt>
      <trkpt lat="48.38212" lon="-4.49166">
        <ele>23.2</ele>
        <time>2020-06-08T17:10:19Z</time>
      </trkpt>
      <trkpt lat="48.38216" lon="-4.49164">
        <ele>23.5</ele>
        <time>2020-06-08T17:10:20Z</time>
      </trkpt>
      <trkpt lat="48.38219" lon="-4.49163">
        <ele>23.7</ele>
        <time>2020-06-08T17:10:21Z</time>
      </trkpt>
      <trkpt lat="48.38222" lon="-4.49162">
        <ele>24</ele>
        <time>2020-06-08T17:10:22Z</time>
      </trkpt>
      <trkpt lat="48.38226" lon="-4.4916">
        <ele>24.3</ele>
        <time>2020-06-08T17:10:23Z</time>
      </trkpt>
      <trkpt lat="48.38229" lon="-4.49159">
        <ele>24.6</ele>
        <time>2020-06-08T17:10:24Z</time>
      </trkpt>
      <trkpt lat="48.3823" lon="-4.49159">
        <ele>24.7</ele>
        <time>2020-06-08T17:10:25Z</time>
      </trkpt>
      <trkpt lat="48.38234" lon="-4.49159">
        <ele>24.9</ele>
        <time>2020-06-08T17:10:26Z</time>
      </trkpt>
      <trkpt lat="48.38237" lon="-4.49162">
        <ele>24.9</ele>
        <time>2020-06-08T17:10:27Z</time>
      </trkpt>
      <trkpt lat="48.38238" lon="-4.49163">
        <ele>24.9</ele>
        <time>2020-06-08T17:10:28Z</time>
      </trkpt>
      <trkpt lat="48.38241" lon="-4.49166">
        <ele>24.9</ele>
        <time>2020-06-08T17:10:29Z</time>
      </trkpt>
      <trkpt lat="48.38244" lon="-4.49168">
        <ele>24.9</ele>
        <time>2020-06-08T17:10:30Z</time>
      </trkpt>
      <trkpt lat="48.38247" lon="-4.49172">
        <ele>24.9</ele>
        <time>2020-06-08T17:10:31Z</time>
      </trkpt>
      <trkpt lat="48.3825" lon="-4.49176">
        <ele>25</ele>
        <time>2020-06-08T17:10:32Z</time>
      </trkpt>
      <trkpt lat="48.38252" lon="-4.4918">
        <ele>25</ele>
        <time>2020-06-08T17:10:33Z</time>
      </trkpt>
      <trkpt lat="48.38255" lon="-4.49183">
        <ele>25</ele>
        <time>2020-06-08T17:10:34Z</time>
      </trkpt>
      <trkpt lat="48.38258" lon="-4.49186">
        <ele>25</ele>
        <time>2020-06-08T17:10:35Z</time>
      </trkpt>
      <trkpt lat="48.3826" lon="-4.49186">
        <ele>25.2</ele>
        <time>2020-06-08T17:10:36Z</time>
      </trkpt>
      <trkpt lat="48.38264" lon="-4.49188">
        <ele>25.2</ele>
        <time>2020-06-08T17:10:37Z</time>
      </trkpt>
      <trkpt lat="48.38268" lon="-4.49187">
        <ele>25.3</ele>
        <time>2020-06-08T17:10:38Z</time>
      </trkpt>
      <trkpt lat="48.38271" lon="-4.49185">
        <ele>25.5</ele>
        <time>2020-06-08T17:10:39Z</time>
      </trkpt>
      <trkpt lat="48.38274" lon="-4.49182">
        <ele>25.6</ele>
        <time>2020-06-08T17:10:40Z</time>
      </trkpt>
      <trkpt lat="48.38277" lon="-4.49177">
        <ele>25.7</ele>
        <time>2020-06-08T17:10:41Z</time>
      </trkpt>
      <trkpt lat="48.38279" lon="-4.49173">
        <ele>25.8</ele>
        <time>2020-06-08T17:10:42Z</time>
      </trkpt>
      <trkpt lat="48.38281" lon="-4.49171">
        <ele>25.9</ele>
        <time>2020-06-08T17:10:43Z</time>
      </trkpt>
      <trkpt lat="48.38283" lon="-4.49169">
        <ele>26</ele>
        <time>2020-06-08T17:10:44Z</time>
      </trkpt>
      <trkpt lat="48.38284" lon="-4.49168">
        <ele>26.1</ele>
        <time>2020-06-08T17:10:45Z</time>
      </trkpt>
      <trkpt lat="48.38286" lon="-4.49165">
        <ele>26.2</ele>
        <time>2020-06-08T17:10:46Z</time>
      </trkpt>
      <trkpt lat="48.38287" lon="-4.49164">
        <ele>26.2</ele>
        <time>2020-06-08T17:10:47Z</time>
      </trkpt>
      <trkpt lat="48.3829" lon="-4.49161">
        <ele>26.3</ele>
        <time>2020-06-08T17:10:48Z</time>
      </trkpt>
      <trkpt lat="48.38291" lon="-4.49159">
        <ele>26.4</ele>
        <time>2020-06-08T17:10:49Z</time>
      </trkpt>
      <trkpt lat="48.38293" lon="-4.49156">
        <ele>26.5</ele>
        <time>2020-06-08T17:10:50Z</time>
      </trkpt>
      <trkpt lat="48.38294" lon="-4.49156">
        <ele>26.5</ele>
        <time>2020-06-08T17:10:51Z</time>
      </trkpt>
      <trkpt lat="48.38296" lon="-4.49153">
        <ele>26.6</ele>
        <time>2020-06-08T17:10:52Z</time>
      </trkpt>
      <trkpt lat="48.38296" lon="-4.49151">
        <ele>26.6</ele>
        <time>2020-06-08T17:10:53Z</time>
      </trkpt>
      <trkpt lat="48.38297" lon="-4.49149">
        <ele>26.7</ele>
        <time>2020-06-08T17:10:54Z</time>
      </trkpt>
      <trkpt lat="48.38298" lon="-4.49148">
        <ele>26.7</ele>
        <time>2020-06-08T17:10:55Z</time>
      </trkpt>
      <trkpt lat="48.38299" lon="-4.49148">
        <ele>26.8</ele>
        <time>2020-06-08T17:10:56Z</time>
      </trkpt>
      <trkpt lat="48.383" lon="-4.49146">
        <ele>26.8</ele>
        <time>2020-06-08T17:10:57Z</time>
      </trkpt>
      <trkpt lat="48.383" lon="-4.49144">
        <ele>26.9</ele>
        <time>2020-06-08T17:10:58Z</time>
      </trkpt>
      <trkpt lat="48.38301" lon="-4.4914">
        <ele>27</ele>
        <time>2020-06-08T17:10:59Z</time>
      </trkpt>
      <trkpt lat="48.38302" lon="-4.49139">
        <ele>27</ele>
        <time>2020-06-08T17:11:00Z</time>
      </trkpt>
      <trkpt lat="48.38302" lon="-4.49137">
        <ele>27.1</ele>
        <time>2020-06-08T17:11:01Z</time>
      </trkpt>
      <trkpt lat="48.38303" lon="-4.49136">
        <ele>27.1</ele>
        <time>2020-06-08T17:11:02Z</time>
      </trkpt>
      <trkpt lat="48.38304" lon="-4.49135">
        <ele>27.1</ele>
        <time>2020-06-08T17:11:03Z</time>
      </trkpt>
      <trkpt lat="48.38306" lon="-4.49135">
        <ele>27.2</ele>
        <time>2020-06-08T17:11:04Z</time>
      </trkpt>
      <trkpt lat="48.38307" lon="-4.49135">
        <ele>27.2</ele>
        <time>2020-06-08T17:11:05Z</time>
      </trkpt>
      <trkpt lat="48.38308" lon="-4.49135">
        <ele>27.3</ele>
        <time>2020-06-08T17:11:06Z</time>
      </trkpt>
      <trkpt lat="48.38312" lon="-4.49132">
        <ele>27.4</ele>
        <time>2020-06-08T17:11:07Z</time>
      </trkpt>
      <trkpt lat="48.38313" lon="-4.4913">
        <ele>27.5</ele>
        <time>2020-06-08T17:11:08Z</time>
      </trkpt>
      <trkpt lat="48.38316" lon="-4.49126">
        <ele>27.6</ele>
        <time>2020-06-08T17:11:09Z</time>
      </trkpt>
      <trkpt lat="48.38318" lon="-4.49121">
        <ele>27.7</ele>
        <time>2020-06-08T17:11:10Z</time>
      </trkpt>
      <trkpt lat="48.38321" lon="-4.49116">
        <ele>27.8</ele>
        <time>2020-06-08T17:11:11Z</time>
      </trkpt>
      <trkpt lat="48.38325" lon="-4.4911">
        <ele>28</ele>
        <time>2020-06-08T17:11:12Z</time>
      </trkpt>
      <trkpt lat="48.38328" lon="-4.49107">
        <ele>28.2</ele>
        <time>2020-06-08T17:11:13Z</time>
      </trkpt>
      <trkpt lat="48.38332" lon="-4.49103">
        <ele>28.4</ele>
        <time>2020-06-08T17:11:14Z</time>
      </trkpt>
      <trkpt lat="48.38337" lon="-4.49099">
        <ele>28.6</ele>
        <time>2020-06-08T17:11:15Z</time>
      </trkpt>
      <trkpt lat="48.38341" lon="-4.49095">
        <ele>28.8</ele>
        <time>2020-06-08T17:11:16Z</time>
      </trkpt>
      <trkpt lat="48.38345" lon="-4.49091">
        <ele>29</ele>
        <time>2020-06-08T17:11:17Z</time>
      </trkpt>
      <trkpt lat="48.38348" lon="-4.49088">
        <ele>29.2</ele>
        <time>2020-06-08T17:11:18Z</time>
      </trkpt>
      <trkpt lat="48.38351" lon="-4.49084">
        <ele>29.3</ele>
        <time>2020-06-08T17:11:19Z</time>
      </trkpt>
      <trkpt lat="48.38354" lon="-4.49081">
        <ele>29.5</ele>
        <time>2020-06-08T17:11:20Z</time>
      </trkpt>
      <trkpt lat="48.38358" lon="-4.49076">
        <ele>29.7</ele>
        <time>2020-06-08T17:11:21Z</time>
      </trkpt>
      <trkpt lat="48.38362" lon="-4.4907">
        <ele>30</ele>
        <time>2020-06-08T17:11:22Z</time>
      </trkpt>
      <trkpt lat="48.38365" lon="-4.49065">
        <ele>30.2</ele>
        <time>2020-06-08T17:11:23Z</time>
      </trkpt>
      <trkpt lat="48.38368" lon="-4.49063">
        <ele>30.4</ele>
        <time>2020-06-08T17:11:24Z</time>
      </trkpt>
      <trkpt lat="48.3837" lon="-4.4906">
        <ele>30.5</ele>
        <time>2020-06-08T17:11:25Z</time>
      </trkpt>
      <trkpt lat="48.38373" lon="-4.49059">
        <ele>30.7</ele>
        <time>2020-06-08T17:11:26Z</time>
      </trkpt>
      <trkpt lat="48.38376" lon="-4.49055">
        <ele>31</ele>
        <time>2020-06-08T17:11:27Z</time>
      </trkpt>
      <trkpt lat="48.38379" lon="-4.4905">
        <ele>31.2</ele>
        <time>2020-06-08T17:11:28Z</time>
      </trkpt>
      <trkpt lat="48.38382" lon="-4.49047">
        <ele>31.3</ele>
        <time>2020-06-08T17:11:29Z</time>
      </trkpt>
      <trkpt lat="48.38385" lon="-4.49044">
        <ele>31.7</ele>
        <time>2020-06-08T17:11:30Z</time>
      </trkpt>
      <trkpt lat="48.38389" lon="-4.49042">
        <ele>31.8</ele>
        <time>2020-06-08T17:11:31Z</time>
      </trkpt>
      <trkpt lat="48.38392" lon="-4.49039">
        <ele>32</ele>
        <time>2020-06-08T17:11:32Z</time>
      </trkpt>
      <trkpt lat="48.38396" lon="-4.49035">
        <ele>32.2</ele>
        <time>2020-06-08T17:11:33Z</time>
      </trkpt>
      <trkpt lat="48.38398" lon="-4.49032">
        <ele>32.3</ele>
        <time>2020-06-08T17:11:34Z</time>
      </trkpt>
      <trkpt lat="48.38401" lon="-4.49029">
        <ele>32.5</ele>
        <time>2020-06-08T17:11:35Z</time>
      </trkpt>
      <trkpt lat="48.38404" lon="-4.49025">
        <ele>32.6</ele>
        <time>2020-06-08T17:11:36Z</time>
      </trkpt>
      <trkpt lat="48.38407" lon="-4.4902">
        <ele>32.8</ele>
        <time>2020-06-08T17:11:37Z</time>
      </trkpt>
      <trkpt lat="48.38408" lon="-4.49016">
        <ele>33</ele>
        <time>2020-06-08T17:11:38Z</time>
      </trkpt>
      <trkpt lat="48.3841" lon="-4.49014">
        <ele>33.1</ele>
        <time>2020-06-08T17:11:39Z</time>
      </trkpt>
      <trkpt lat="48.38414" lon="-4.4901">
        <ele>33.3</ele>
        <time>2020-06-08T17:11:40Z</time>
      </trkpt>
      <trkpt lat="48.38415" lon="-4.49009">
        <ele>33.4</ele>
        <time>2020-06-08T17:11:41Z</time>
      </trkpt>
      <trkpt lat="48.38418" lon="-4.49006">
        <ele>33.6</ele>
        <time>2020-06-08T17:11:42Z</time>
      </trkpt>
      <trkpt lat="48.38421" lon="-4.49004">
        <ele>33.8</ele>
        <time>2020-06-08T17:11:43Z</time>
      </trkpt>
      <trkpt lat="48.38423" lon="-4.49001">
        <ele>34</ele>
        <time>2020-06-08T17:11:44Z</time>
      </trkpt>
      <trkpt lat="48.38426" lon="-4.48997">
        <ele>34.2</ele>
        <time>2020-06-08T17:11:45Z</time>
      </trkpt>
      <trkpt lat="48.38429" lon="-4.48993">
        <ele>34.4</ele>
        <time>2020-06-08T17:11:46Z</time>
      </trkpt>
      <trkpt lat="48.38432" lon="-4.4899">
        <ele>34.7</ele>
        <time>2020-06-08T17:11:47Z</time>
      </trkpt>
      <trkpt lat="48.38433" lon="-4.48988">
        <ele>34.8</ele>
        <time>2020-06-08T17:11:48Z</time>
      </trkpt>
      <trkpt lat="48.38436" lon="-4.48984">
        <ele>35</ele>
        <time>2020-06-08T17:11:49Z</time>
      </trkpt>
      <trkpt lat="48.38437" lon="-4.48981">
        <ele>35.2</ele>
        <time>2020-06-08T17:11:50Z</time>
      </trkpt>
      <trkpt lat="48.3844" lon="-4.48977">
        <ele>35.4</ele>
        <time>2020-06-08T17:11:51Z</time>
      </trkpt>
      <trkpt lat="48.38442" lon="-4.48973">
        <ele>35.6</ele>
        <time>2020-06-08T17:11:52Z</time>
      </trkpt>
      <trkpt lat="48.38444" lon="-4.4897">
        <ele>35.8</ele>
        <time>2020-06-08T17:11:53Z</time>
      </trkpt>
      <trkpt lat="48.38444" lon="-4.48967">
        <ele>35.9</ele>
        <time>2020-06-08T17:11:54Z</time>
      </trkpt>
      <trkpt lat="48.38445" lon="-4.48965">
        <ele>36</ele>
        <time>2020-06-08T17:11:55Z</time>
      </trkpt>
      <trkpt lat="48.38448" lon="-4.48963">
        <ele>36.2</ele>
        <time>2020-06-08T17:11:56Z</time>
      </trkpt>
      <trkpt lat="48.38449" lon="-4.48963">
        <ele>36.3</ele>
        <time>2020-06-08T17:11:57Z</time>
      </trkpt>
      <trkpt lat="48.38453" lon="-4.48961">
        <ele>36.7</ele>
        <time>2020-06-08T17:11:58Z</time>
      </trkpt>
      <trkpt lat="48.38454" lon="-4.4896">
        <ele>36.8</ele>
        <time>2020-06-08T17:11:59Z</time>
      </trkpt>
      <trkpt lat="48.38456" lon="-4.48958">
        <ele>36.9</ele>
        <time>2020-06-08T17:12:00Z</time>
      </trkpt>
      <trkpt lat="48.38459" lon="-4.48956">
        <ele>37</ele>
        <time>2020-06-08T17:12:01Z</time>
      </trkpt>
      <trkpt lat="48.38462" lon="-4.48955">
        <ele>37.1</ele>
        <time>2020-06-08T17:12:02Z</time>
      </trkpt>
      <trkpt lat="48.38465" lon="-4.48954">
        <ele>37.3</ele>
        <time>2020-06-08T17:12:03Z</time>
      </trkpt>
      <trkpt lat="48.38466" lon="-4.48953">
        <ele>37.4</ele>
        <time>2020-06-08T17:12:04Z</time>
      </trkpt>
      <trkpt lat="48.38468" lon="-4.48949">
        <ele>37.5</ele>
        <time>2020-06-08T17:12:05Z</time>
      </trkpt>
      <trkpt lat="48.3847" lon="-4.48946">
        <ele>37.6</ele>
        <time>2020-06-08T17:12:06Z</time>
      </trkpt>
      <trkpt lat="48.38473" lon="-4.48944">
        <ele>37.7</ele>
        <time>2020-06-08T17:12:07Z</time>
      </trkpt>
      <trkpt lat="48.38475" lon="-4.48941">
        <ele>37.8</ele>
        <time>2020-06-08T17:12:08Z</time>
      </trkpt>
      <trkpt lat="48.38478" lon="-4.48938">
        <ele>38</ele>
        <time>2020-06-08T17:12:09Z</time>
      </trkpt>
      <trkpt lat="48.38479" lon="-4.48932">
        <ele>38.1</ele>
        <time>2020-06-08T17:12:10Z</time>
      </trkpt>
      <trkpt lat="48.38482" lon="-4.48927">
        <ele>38.3</ele>
        <time>2020-06-08T17:12:11Z</time>
      </trkpt>
      <trkpt lat="48.38483" lon="-4.48925">
        <ele>38.3</ele>
        <time>2020-06-08T17:12:12Z</time>
      </trkpt>
      <trkpt lat="48.38484" lon="-4.48921">
        <ele>38.4</ele>
        <time>2020-06-08T17:12:13Z</time>
      </trkpt>
      <trkpt lat="48.38485" lon="-4.4892">
        <ele>38.5</ele>
        <time>2020-06-08T17:12:14Z</time>
      </trkpt>
      <trkpt lat="48.38486" lon="-4.48918">
        <ele>38.5</ele>
        <time>2020-06-08T17:12:15Z</time>
      </trkpt>
      <trkpt lat="48.38486" lon="-4.48918">
        <ele>38.6</ele>
        <time>2020-06-08T17:12:16Z</time>
      </trkpt>
      <trkpt lat="48.38485" lon="-4.48917">
        <ele>38.6</ele>
        <time>2020-06-08T17:12:17Z</time>
      </trkpt>
      <trkpt lat="48.38486" lon="-4.48916">
        <ele>38.6</ele>
        <time>2020-06-08T17:12:18Z</time>
      </trkpt>
      <trkpt lat="48.38487" lon="-4.48915">
        <ele>38.7</ele>
        <time>2020-06-08T17:12:19Z</time>
      </trkpt>
      <trkpt lat="48.38489" lon="-4.48915">
        <ele>38.7</ele>
        <time>2020-06-08T17:12:20Z</time>
      </trkpt>
      <trkpt lat="48.38488" lon="-4.48914">
        <ele>38.8</ele>
        <time>2020-06-08T17:12:21Z</time>
      </trkpt>
      <trkpt lat="48.38489" lon="-4.48914">
        <ele>38.8</ele>
        <time>2020-06-08T17:12:22Z</time>
      </trkpt>
      <trkpt lat="48.3849" lon="-4.48914">
        <ele>38.8</ele>
        <time>2020-06-08T17:12:23Z</time>
      </trkpt>
      <trkpt lat="48.38491" lon="-4.48913">
        <ele>38.9</ele>
        <time>2020-06-08T17:12:24Z</time>
      </trkpt>
      <trkpt lat="48.38492" lon="-4.48912">
        <ele>38.9</ele>
        <time>2020-06-08T17:12:25Z</time>
      </trkpt>
      <trkpt lat="48.38493" lon="-4.48911">
        <ele>39</ele>
        <time>2020-06-08T17:12:26Z</time>
      </trkpt>
      <trkpt lat="48.38493" lon="-4.48912">
        <ele>39</ele>
        <time>2020-06-08T17:12:27Z</time>
      </trkpt>
      <trkpt lat="48.38493" lon="-4.48912">
        <ele>39</ele>
        <time>2020-06-08T17:12:28Z</time>
      </trkpt>
      <trkpt lat="48.38494" lon="-4.48912">
        <ele>39</ele>
        <time>2020-06-08T17:12:29Z</time>
      </trkpt>
      <trkpt lat="48.38494" lon="-4.48912">
        <ele>39</ele>
        <time>2020-06-08T17:12:30Z</time>
      </trkpt>
      <trkpt lat="48.38495" lon="-4.48911">
        <ele>39.1</ele>
        <time>2020-06-08T17:12:31Z</time>
      </trkpt>
      <trkpt lat="48.38495" lon="-4.48912">
        <ele>39.1</ele>
        <time>2020-06-08T17:12:32Z</time>
      </trkpt>
      <trkpt lat="48.38496" lon="-4.48911">
        <ele>39.1</ele>
        <time>2020-06-08T17:12:33Z</time>
      </trkpt>
      <trkpt lat="48.38496" lon="-4.48911">
        <ele>39.1</ele>
        <time>2020-06-08T17:12:34Z</time>
      </trkpt>
      <trkpt lat="48.38497" lon="-4.4891">
        <ele>39.2</ele>
        <time>2020-06-08T17:12:35Z</time>
      </trkpt>
      <trkpt lat="48.38496" lon="-4.4891">
        <ele>39.2</ele>
        <time>2020-06-08T17:12:36Z</time>
      </trkpt>
      <trkpt lat="48.38495" lon="-4.48911">
        <ele>39.2</ele>
        <time>2020-06-08T17:12:37Z</time>
      </trkpt>
      <trkpt lat="48.38495" lon="-4.48912">
        <ele>39.2</ele>
        <time>2020-06-08T17:12:38Z</time>
      </trkpt>
      <trkpt lat="48.38494" lon="-4.48913">
        <ele>39.3</ele>
        <time>2020-06-08T17:12:39Z</time>
      </trkpt>
      <trkpt lat="48.38493" lon="-4.48914">
        <ele>39.3</ele>
        <time>2020-06-08T17:12:40Z</time>
      </trkpt>
      <trkpt lat="48.38493" lon="-4.48915">
        <ele>39.3</ele>
        <time>2020-06-08T17:12:41Z</time>
      </trkpt>
      <trkpt lat="48.38492" lon="-4.48916">
        <ele>39.4</ele>
        <time>2020-06-08T17:12:42Z</time>
      </trkpt>
      <trkpt lat="48.38491" lon="-4.48917">
        <ele>39.4</ele>
        <time>2020-06-08T17:12:43Z</time>
      </trkpt>
      <trkpt lat="48.38491" lon="-4.48917">
        <ele>39.5</ele>
        <time>2020-06-08T17:13:50Z</time>
      </trkpt>
      <trkpt lat="48.3849" lon="-4.48918">
        <ele>39.5</ele>
        <time>2020-06-08T17:13:51Z</time>
      </trkpt>
      <trkpt lat="48.38493" lon="-4.48922">
        <ele>39.5</ele>
        <time>2020-06-08T17:13:52Z</time>
      </trkpt>
      <trkpt lat="48.38496" lon="-4.48926">
        <ele>39.5</ele>
        <time>2020-06-08T17:13:53Z</time>
      </trkpt>
      <trkpt lat="48.38498" lon="-4.4893">
        <ele>39.5</ele>
        <time>2020-06-08T17:13:54Z</time>
      </trkpt>
      <trkpt lat="48.385" lon="-4.48935">
        <ele>39.5</ele>
        <time>2020-06-08T17:13:55Z</time>
      </trkpt>
      <trkpt lat="48.38502" lon="-4.4894">
        <ele>39.4</ele>
        <time>2020-06-08T17:13:56Z</time>
      </trkpt>
      <trkpt lat="48.38504" lon="-4.48944">
        <ele>39.4</ele>
        <time>2020-06-08T17:13:57Z</time>
      </trkpt>
      <trkpt lat="48.38506" lon="-4.48948">
        <ele>39.3</ele>
        <time>2020-06-08T17:13:58Z</time>
      </trkpt>
      <trkpt lat="48.38508" lon="-4.48952">
        <ele>39.3</ele>
        <time>2020-06-08T17:13:59Z</time>
      </trkpt>
      <trkpt lat="48.3851" lon="-4.48956">
        <ele>39.2</ele>
        <time>2020-06-08T17:14:00Z</time>
      </trkpt>
      <trkpt lat="48.38512" lon="-4.4896">
        <ele>39.2</ele>
        <time>2020-06-08T17:14:01Z</time>
      </trkpt>
      <trkpt lat="48.38515" lon="-4.48965">
        <ele>39.1</ele>
        <time>2020-06-08T17:14:02Z</time>
      </trkpt>
      <trkpt lat="48.38517" lon="-4.48969">
        <ele>39.1</ele>
        <time>2020-06-08T17:14:03Z</time>
      </trkpt>
      <trkpt lat="48.38519" lon="-4.48973">
        <ele>39.1</ele>
        <time>2020-06-08T17:14:04Z</time>
      </trkpt>
      <trkpt lat="48.38522" lon="-4.48976">
        <ele>39.1</ele>
        <time>2020-06-08T17:14:05Z</time>
      </trkpt>
      <trkpt lat="48.38523" lon="-4.48981">
        <ele>39</ele>
        <time>2020-06-08T17:14:06Z</time>
      </trkpt>
      <trkpt lat="48.38526" lon="-4.48985">
        <ele>39</ele>
        <time>2020-06-08T17:14:07Z</time>
      </trkpt>
      <trkpt lat="48.38529" lon="-4.48989">
        <ele>39</ele>
        <time>2020-06-08T17:14:08Z</time>
      </trkpt>
      <trkpt lat="48.38531" lon="-4.48993">
        <ele>39</ele>
        <time>2020-06-08T17:14:09Z</time>
      </trkpt>
      <trkpt lat="48.38534" lon="-4.48998">
        <ele>39</ele>
        <time>2020-06-08T17:14:10Z</time>
      </trkpt>
      <trkpt lat="48.38537" lon="-4.49002">
        <ele>39.1</ele>
        <time>2020-06-08T17:14:11Z</time>
      </trkpt>
      <trkpt lat="48.38539" lon="-4.49006">
        <ele>39.1</ele>
        <time>2020-06-08T17:14:12Z</time>
      </trkpt>
      <trkpt lat="48.38541" lon="-4.49009">
        <ele>39.2</ele>
        <time>2020-06-08T17:14:13Z</time>
      </trkpt>
      <trkpt lat="48.38543" lon="-4.49012">
        <ele>39</ele>
        <time>2020-06-08T17:14:14Z</time>
      </trkpt>
      <trkpt lat="48.38546" lon="-4.49016">
        <ele>38.8</ele>
        <time>2020-06-08T17:14:15Z</time>
      </trkpt>
      <trkpt lat="48.38548" lon="-4.49021">
        <ele>38.7</ele>
        <time>2020-06-08T17:14:16Z</time>
      </trkpt>
      <trkpt lat="48.38551" lon="-4.49026">
        <ele>38.5</ele>
        <time>2020-06-08T17:14:17Z</time>
      </trkpt>
      <trkpt lat="48.38554" lon="-4.4903">
        <ele>38.5</ele>
        <time>2020-06-08T17:14:18Z</time>
      </trkpt>
      <trkpt lat="48.38556" lon="-4.49033">
        <ele>38.5</ele>
        <time>2020-06-08T17:14:19Z</time>
      </trkpt>
      <trkpt lat="48.38558" lon="-4.49037">
        <ele>38.5</ele>
        <time>2020-06-08T17:14:20Z</time>
      </trkpt>
      <trkpt lat="48.3856" lon="-4.4904">
        <ele>38.5</ele>
        <time>2020-06-08T17:14:21Z</time>
      </trkpt>
      <trkpt lat="48.38563" lon="-4.49044">
        <ele>38.6</ele>
        <time>2020-06-08T17:14:22Z</time>
      </trkpt>
      <trkpt lat="48.38566" lon="-4.49047">
        <ele>38.6</ele>
        <time>2020-06-08T17:14:23Z</time>
      </trkpt>
      <trkpt lat="48.38569" lon="-4.49051">
        <ele>38.7</ele>
        <time>2020-06-08T17:14:24Z</time>
      </trkpt>
      <trkpt lat="48.38571" lon="-4.49054">
        <ele>38.7</ele>
        <time>2020-06-08T17:14:25Z</time>
      </trkpt>
      <trkpt lat="48.38574" lon="-4.49057">
        <ele>38.8</ele>
        <time>2020-06-08T17:14:26Z</time>
      </trkpt>
      <trkpt lat="48.38575" lon="-4.49058">
        <ele>38.8</ele>
        <time>2020-06-08T17:14:27Z</time>
      </trkpt>
      <trkpt lat="48.38578" lon="-4.49061">
        <ele>38.9</ele>
        <time>2020-06-08T17:14:28Z</time>
      </trkpt>
      <trkpt lat="48.38579" lon="-4.49063">
        <ele>38.9</ele>
        <time>2020-06-08T17:14:29Z</time>
      </trkpt>
      <trkpt lat="48.38582" lon="-4.49066">
        <ele>38.9</ele>
        <time>2020-06-08T17:14:30Z</time>
      </trkpt>
      <trkpt lat="48.38583" lon="-4.49067">
        <ele>38.9</ele>
        <time>2020-06-08T17:14:31Z</time>
      </trkpt>
      <trkpt lat="48.38585" lon="-4.49072">
        <ele>38.9</ele>
        <time>2020-06-08T17:14:32Z</time>
      </trkpt>
      <trkpt lat="48.38587" lon="-4.49074">
        <ele>38.7</ele>
        <time>2020-06-08T17:14:33Z</time>
      </trkpt>
      <trkpt lat="48.38589" lon="-4.49079">
        <ele>38.5</ele>
        <time>2020-06-08T17:14:34Z</time>
      </trkpt>
      <trkpt lat="48.38592" lon="-4.49085">
        <ele>38.2</ele>
        <time>2020-06-08T17:14:35Z</time>
      </trkpt>
      <trkpt lat="48.38595" lon="-4.4909">
        <ele>37.9</ele>
        <time>2020-06-08T17:14:36Z</time>
      </trkpt>
      <trkpt lat="48.38597" lon="-4.49095">
        <ele>37.6</ele>
        <time>2020-06-08T17:14:37Z</time>
      </trkpt>
      <trkpt lat="48.386" lon="-4.491">
        <ele>37.4</ele>
        <time>2020-06-08T17:14:38Z</time>
      </trkpt>
      <trkpt lat="48.38602" lon="-4.49105">
        <ele>37.1</ele>
        <time>2020-06-08T17:14:39Z</time>
      </trkpt>
      <trkpt lat="48.38605" lon="-4.49111">
        <ele>36.8</ele>
        <time>2020-06-08T17:14:40Z</time>
      </trkpt>
      <trkpt lat="48.38608" lon="-4.49116">
        <ele>36.5</ele>
        <time>2020-06-08T17:14:41Z</time>
      </trkpt>
      <trkpt lat="48.38611" lon="-4.49121">
        <ele>36.3</ele>
        <time>2020-06-08T17:14:42Z</time>
      </trkpt>
      <trkpt lat="48.38613" lon="-4.49124">
        <ele>36.1</ele>
        <time>2020-06-08T17:14:43Z</time>
      </trkpt>
      <trkpt lat="48.38614" lon="-4.49128">
        <ele>35.8</ele>
        <time>2020-06-08T17:14:44Z</time>
      </trkpt>
      <trkpt lat="48.38614" lon="-4.4913">
        <ele>35.8</ele>
        <time>2020-06-08T17:14:45Z</time>
      </trkpt>
      <trkpt lat="48.38615" lon="-4.49131">
        <ele>35.9</ele>
        <time>2020-06-08T17:14:46Z</time>
      </trkpt>
      <trkpt lat="48.38616" lon="-4.49133">
        <ele>35.9</ele>
        <time>2020-06-08T17:14:47Z</time>
      </trkpt>
      <trkpt lat="48.38616" lon="-4.49134">
        <ele>35.9</ele>
        <time>2020-06-08T17:14:48Z</time>
      </trkpt>
      <trkpt lat="48.38617" lon="-4.49135">
        <ele>36</ele>
        <time>2020-06-08T17:14:49Z</time>
      </trkpt>
      <trkpt lat="48.38617" lon="-4.49138">
        <ele>36</ele>
        <time>2020-06-08T17:14:50Z</time>
      </trkpt>
      <trkpt lat="48.38617" lon="-4.49139">
        <ele>36</ele>
        <time>2020-06-08T17:14:51Z</time>
      </trkpt>
      <trkpt lat="48.38617" lon="-4.4914">
        <ele>36</ele>
        <time>2020-06-08T17:14:52Z</time>
      </trkpt>
      <trkpt lat="48.38618" lon="-4.4914">
        <ele>36.1</ele>
        <time>2020-06-08T17:14:53Z</time>
      </trkpt>
      <trkpt lat="48.3862" lon="-4.4914">
        <ele>36.1</ele>
        <time>2020-06-08T17:14:54Z</time>
      </trkpt>
      <trkpt lat="48.38621" lon="-4.4914">
        <ele>36.1</ele>
        <time>2020-06-08T17:14:55Z</time>
      </trkpt>
      <trkpt lat="48.38622" lon="-4.49138">
        <ele>36.2</ele>
        <time>2020-06-08T17:14:56Z</time>
      </trkpt>
      <trkpt lat="48.38625" lon="-4.49136">
        <ele>36.2</ele>
        <time>2020-06-08T17:14:57Z</time>
      </trkpt>
      <trkpt lat="48.38627" lon="-4.49135">
        <ele>36.3</ele>
        <time>2020-06-08T17:14:58Z</time>
      </trkpt>
      <trkpt lat="48.38629" lon="-4.49132">
        <ele>36.3</ele>
        <time>2020-06-08T17:14:59Z</time>
      </trkpt>
      <trkpt lat="48.3863" lon="-4.49127">
        <ele>36.4</ele>
        <time>2020-06-08T17:15:00Z</time>
      </trkpt>
      <trkpt lat="48.38634" lon="-4.49124">
        <ele>36.5</ele>
        <time>2020-06-08T17:15:01Z</time>
      </trkpt>
      <trkpt lat="48.38636" lon="-4.49118">
        <ele>36.7</ele>
        <time>2020-06-08T17:15:02Z</time>
      </trkpt>
      <trkpt lat="48.38639" lon="-4.49112">
        <ele>36.8</ele>
        <time>2020-06-08T17:15:03Z</time>
      </trkpt>
      <trkpt lat="48.38642" lon="-4.49109">
        <ele>36.9</ele>
        <time>2020-06-08T17:15:04Z</time>
      </trkpt>
      <trkpt lat="48.38644" lon="-4.49105">
        <ele>37</ele>
        <time>2020-06-08T17:15:05Z</time>
      </trkpt>
      <trkpt lat="48.38647" lon="-4.49102">
        <ele>37.1</ele>
        <time>2020-06-08T17:15:06Z</time>
      </trkpt>
      <trkpt lat="48.3865" lon="-4.49098">
        <ele>37.2</ele>
        <time>2020-06-08T17:15:07Z</time>
      </trkpt>
      <trkpt lat="48.38653" lon="-4.49096">
        <ele>37.3</ele>
        <time>2020-06-08T17:15:08Z</time>
      </trkpt>
      <trkpt lat="48.38655" lon="-4.49094">
        <ele>37.3</ele>
        <time>2020-06-08T17:15:09Z</time>
      </trkpt>
      <trkpt lat="48.38658" lon="-4.4909">
        <ele>37.4</ele>
        <time>2020-06-08T17:15:10Z</time>
      </trkpt>
      <trkpt lat="48.38659" lon="-4.49089">
        <ele>37.5</ele>
        <time>2020-06-08T17:15:11Z</time>
      </trkpt>
      <trkpt lat="48.3866" lon="-4.49082">
        <ele>37.6</ele>
        <time>2020-06-08T17:15:12Z</time>
      </trkpt>
      <trkpt lat="48.38662" lon="-4.49077">
        <ele>37.7</ele>
        <time>2020-06-08T17:15:13Z</time>
      </trkpt>
      <trkpt lat="48.38662" lon="-4.49074">
        <ele>37.7</ele>
        <time>2020-06-08T17:15:14Z</time>
      </trkpt>
      <trkpt lat="48.38663" lon="-4.49068">
        <ele>37.8</ele>
        <time>2020-06-08T17:15:15Z</time>
      </trkpt>
      <trkpt lat="48.38668" lon="-4.4907">
        <ele>37.9</ele>
        <time>2020-06-08T17:15:16Z</time>
      </trkpt>
      <trkpt lat="48.38672" lon="-4.49069">
        <ele>38</ele>
        <time>2020-06-08T17:15:17Z</time>
      </trkpt>
      <trkpt lat="48.38675" lon="-4.49068">
        <ele>38.3</ele>
        <time>2020-06-08T17:15:18Z</time>
      </trkpt>
      <trkpt lat="48.38676" lon="-4.49067">
        <ele>38.3</ele>
        <time>2020-06-08T17:15:19Z</time>
      </trkpt>
      <trkpt lat="48.38678" lon="-4.49066">
        <ele>38.3</ele>
        <time>2020-06-08T17:15:20Z</time>
      </trkpt>
      <trkpt lat="48.38681" lon="-4.49063">
        <ele>38.3</ele>
        <time>2020-06-08T17:15:21Z</time>
      </trkpt>
      <trkpt lat="48.38684" lon="-4.49061">
        <ele>37.8</ele>
        <time>2020-06-08T17:15:22Z</time>
      </trkpt>
      <trkpt lat="48.38687" lon="-4.49059">
        <ele>37.8</ele>
        <time>2020-06-08T17:15:23Z</time>
      </trkpt>
      <trkpt lat="48.38691" lon="-4.49057">
        <ele>37.5</ele>
        <time>2020-06-08T17:15:24Z</time>
      </trkpt>
      <trkpt lat="48.38694" lon="-4.49053">
        <ele>37.5</ele>
        <time>2020-06-08T17:15:25Z</time>
      </trkpt>
      <trkpt lat="48.38696" lon="-4.49051">
        <ele>37.5</ele>
        <time>2020-06-08T17:15:26Z</time>
      </trkpt>
      <trkpt lat="48.38702" lon="-4.49053">
        <ele>37.6</ele>
        <time>2020-06-08T17:15:27Z</time>
      </trkpt>
      <trkpt lat="48.38705" lon="-4.49052">
        <ele>37.6</ele>
        <time>2020-06-08T17:15:28Z</time>
      </trkpt>
      <trkpt lat="48.38708" lon="-4.4905">
        <ele>37.6</ele>
        <time>2020-06-08T17:15:29Z</time>
      </trkpt>
      <trkpt lat="48.38711" lon="-4.49048">
        <ele>37.6</ele>
        <time>2020-06-08T17:15:30Z</time>
      </trkpt>
      <trkpt lat="48.38713" lon="-4.49044">
        <ele>37.7</ele>
        <time>2020-06-08T17:15:31Z</time>
      </trkpt>
      <trkpt lat="48.38717" lon="-4.49041">
        <ele>37.7</ele>
        <time>2020-06-08T17:15:32Z</time>
      </trkpt>
      <trkpt lat="48.3872" lon="-4.49038">
        <ele>37.7</ele>
        <time>2020-06-08T17:15:33Z</time>
      </trkpt>
      <trkpt lat="48.38722" lon="-4.49035">
        <ele>37.8</ele>
        <time>2020-06-08T17:15:34Z</time>
      </trkpt>
      <trkpt lat="48.38725" lon="-4.49031">
        <ele>37.8</ele>
        <time>2020-06-08T17:15:35Z</time>
      </trkpt>
      <trkpt lat="48.38728" lon="-4.49028">
        <ele>37.9</ele>
        <time>2020-06-08T17:15:36Z</time>
      </trkpt>
      <trkpt lat="48.38732" lon="-4.49025">
        <ele>37.9</ele>
        <time>2020-06-08T17:15:37Z</time>
      </trkpt>
      <trkpt lat="48.38735" lon="-4.49022">
        <ele>37.9</ele>
        <time>2020-06-08T17:15:38Z</time>
      </trkpt>
      <trkpt lat="48.38738" lon="-4.49019">
        <ele>37.9</ele>
        <time>2020-06-08T17:15:39Z</time>
      </trkpt>
      <trkpt lat="48.38741" lon="-4.49015">
        <ele>37.9</ele>
        <time>2020-06-08T17:15:40Z</time>
      </trkpt>
      <trkpt lat="48.38744" lon="-4.49012">
        <ele>37.9</ele>
        <time>2020-06-08T17:15:41Z</time>
      </trkpt>
      <trkpt lat="48.38747" lon="-4.49007">
        <ele>38</ele>
        <time>2020-06-08T17:15:42Z</time>
      </trkpt>
      <trkpt lat="48.38751" lon="-4.49002">
        <ele>38</ele>
        <time>2020-06-08T17:15:43Z</time>
      </trkpt>
      <trkpt lat="48.38754" lon="-4.48995">
        <ele>38.1</ele>
        <time>2020-06-08T17:15:44Z</time>
      </trkpt>
      <trkpt lat="48.38759" lon="-4.4898">
        <ele>38.2</ele>
        <time>2020-06-08T17:15:45Z</time>
      </trkpt>
      <trkpt lat="48.38762" lon="-4.48974">
        <ele>38.2</ele>
        <time>2020-06-08T17:15:46Z</time>
      </trkpt>
      <trkpt lat="48.38763" lon="-4.48968">
        <ele>38.3</ele>
        <time>2020-06-08T17:15:47Z</time>
      </trkpt>
      <trkpt lat="48.38766" lon="-4.48965">
        <ele>38.3</ele>
        <time>2020-06-08T17:15:48Z</time>
      </trkpt>
      <trkpt lat="48.38769" lon="-4.48961">
        <ele>38.3</ele>
        <time>2020-06-08T17:15:49Z</time>
      </trkpt>
      <trkpt lat="48.38771" lon="-4.48959">
        <ele>38.4</ele>
        <time>2020-06-08T17:15:50Z</time>
      </trkpt>
      <trkpt lat="48.38774" lon="-4.48954">
        <ele>38.4</ele>
        <time>2020-06-08T17:15:51Z</time>
      </trkpt>
      <trkpt lat="48.38777" lon="-4.48951">
        <ele>38.5</ele>
        <time>2020-06-08T17:15:52Z</time>
      </trkpt>
      <trkpt lat="48.3878" lon="-4.48947">
        <ele>38.6</ele>
        <time>2020-06-08T17:15:53Z</time>
      </trkpt>
      <trkpt lat="48.38782" lon="-4.48944">
        <ele>38.6</ele>
        <time>2020-06-08T17:15:54Z</time>
      </trkpt>
      <trkpt lat="48.38784" lon="-4.48941">
        <ele>38.7</ele>
        <time>2020-06-08T17:15:55Z</time>
      </trkpt>
      <trkpt lat="48.38787" lon="-4.48939">
        <ele>38.7</ele>
        <time>2020-06-08T17:15:56Z</time>
      </trkpt>
      <trkpt lat="48.38789" lon="-4.48936">
        <ele>38.8</ele>
        <time>2020-06-08T17:15:57Z</time>
      </trkpt>
      <trkpt lat="48.38791" lon="-4.48934">
        <ele>38.9</ele>
        <time>2020-06-08T17:15:58Z</time>
      </trkpt>
      <trkpt lat="48.38794" lon="-4.48932">
        <ele>39</ele>
        <time>2020-06-08T17:15:59Z</time>
      </trkpt>
      <trkpt lat="48.38797" lon="-4.48931">
        <ele>39.1</ele>
        <time>2020-06-08T17:16:00Z</time>
      </trkpt>
      <trkpt lat="48.388" lon="-4.48929">
        <ele>39.2</ele>
        <time>2020-06-08T17:16:01Z</time>
      </trkpt>
      <trkpt lat="48.38803" lon="-4.48929">
        <ele>39.2</ele>
        <time>2020-06-08T17:16:02Z</time>
      </trkpt>
      <trkpt lat="48.38804" lon="-4.48928">
        <ele>39.3</ele>
        <time>2020-06-08T17:16:03Z</time>
      </trkpt>
      <trkpt lat="48.38806" lon="-4.48926">
        <ele>39.3</ele>
        <time>2020-06-08T17:16:04Z</time>
      </trkpt>
      <trkpt lat="48.38806" lon="-4.48925">
        <ele>39.3</ele>
        <time>2020-06-08T17:16:05Z</time>
      </trkpt>
      <trkpt lat="48.38807" lon="-4.48924">
        <ele>39.4</ele>
        <time>2020-06-08T17:16:06Z</time>
      </trkpt>
      <trkpt lat="48.3881" lon="-4.48922">
        <ele>39.4</ele>
        <time>2020-06-08T17:16:07Z</time>
      </trkpt>
      <trkpt lat="48.38811" lon="-4.48921">
        <ele>39.5</ele>
        <time>2020-06-08T17:16:08Z</time>
      </trkpt>
      <trkpt lat="48.38813" lon="-4.48918">
        <ele>39.5</ele>
        <time>2020-06-08T17:16:09Z</time>
      </trkpt>
      <trkpt lat="48.38816" lon="-4.48914">
        <ele>39.6</ele>
        <time>2020-06-08T17:16:10Z</time>
      </trkpt>
      <trkpt lat="48.38818" lon="-4.4891">
        <ele>39.7</ele>
        <time>2020-06-08T17:16:11Z</time>
      </trkpt>
      <trkpt lat="48.38821" lon="-4.48906">
        <ele>39.8</ele>
        <time>2020-06-08T17:16:12Z</time>
      </trkpt>
      <trkpt lat="48.38829" lon="-4.48893">
        <ele>40.1</ele>
        <time>2020-06-08T17:16:13Z</time>
      </trkpt>
      <trkpt lat="48.38835" lon="-4.48883">
        <ele>40.4</ele>
        <time>2020-06-08T17:16:14Z</time>
      </trkpt>
      <trkpt lat="48.38839" lon="-4.48875">
        <ele>40.5</ele>
        <time>2020-06-08T17:16:15Z</time>
      </trkpt>
      <trkpt lat="48.38842" lon="-4.48867">
        <ele>40.7</ele>
        <time>2020-06-08T17:16:16Z</time>
      </trkpt>
      <trkpt lat="48.38847" lon="-4.48863">
        <ele>40.9</ele>
        <time>2020-06-08T17:16:17Z</time>
      </trkpt>
      <trkpt lat="48.38852" lon="-4.48861">
        <ele>40.9</ele>
        <time>2020-06-08T17:16:18Z</time>
      </trkpt>
      <trkpt lat="48.38855" lon="-4.48858">
        <ele>41.1</ele>
        <time>2020-06-08T17:16:19Z</time>
      </trkpt>
      <trkpt lat="48.38856" lon="-4.48856">
        <ele>41.1</ele>
        <time>2020-06-08T17:16:20Z</time>
      </trkpt>
      <trkpt lat="48.38855" lon="-4.48855">
        <ele>41.2</ele>
        <time>2020-06-08T17:16:21Z</time>
      </trkpt>
      <trkpt lat="48.38856" lon="-4.48854">
        <ele>41.2</ele>
        <time>2020-06-08T17:16:22Z</time>
      </trkpt>
      <trkpt lat="48.38857" lon="-4.48853">
        <ele>41.2</ele>
        <time>2020-06-08T17:16:23Z</time>
      </trkpt>
      <trkpt lat="48.38857" lon="-4.48852">
        <ele>41.2</ele>
        <time>2020-06-08T17:16:24Z</time>
      </trkpt>
      <trkpt lat="48.38858" lon="-4.48852">
        <ele>41.2</ele>
        <time>2020-06-08T17:16:25Z</time>
      </trkpt>
      <trkpt lat="48.38859" lon="-4.48852">
        <ele>41.2</ele>
        <time>2020-06-08T17:16:26Z</time>
      </trkpt>
      <trkpt lat="48.3886" lon="-4.48852">
        <ele>41.2</ele>
        <time>2020-06-08T17:16:27Z</time>
      </trkpt>
      <trkpt lat="48.38861" lon="-4.48852">
        <ele>41.2</ele>
        <time>2020-06-08T17:16:28Z</time>
      </trkpt>
      <trkpt lat="48.38861" lon="-4.48853">
        <ele>41.2</ele>
        <time>2020-06-08T17:16:29Z</time>
      </trkpt>
      <trkpt lat="48.3886" lon="-4.48852">
        <ele>41.2</ele>
        <time>2020-06-08T17:16:30Z</time>
      </trkpt>
      <trkpt lat="48.38859" lon="-4.48852">
        <ele>41.2</ele>
        <time>2020-06-08T17:16:31Z</time>
      </trkpt>
      <trkpt lat="48.38857" lon="-4.48852">
        <ele>41.2</ele>
        <time>2020-06-08T17:16:32Z</time>
      </trkpt>
      <trkpt lat="48.38857" lon="-4.48851">
        <ele>41.3</ele>
        <time>2020-06-08T17:16:33Z</time>
      </trkpt>
      <trkpt lat="48.38857" lon="-4.48848">
        <ele>41.3</ele>
        <time>2020-06-08T17:16:34Z</time>
      </trkpt>
      <trkpt lat="48.38856" lon="-4.48845">
        <ele>41.5</ele>
        <time>2020-06-08T17:16:35Z</time>
      </trkpt>
      <trkpt lat="48.38855" lon="-4.48844">
        <ele>41.5</ele>
        <time>2020-06-08T17:16:36Z</time>
      </trkpt>
      <trkpt lat="48.38855" lon="-4.48845">
        <ele>41.5</ele>
        <time>2020-06-08T17:16:37Z</time>
      </trkpt>
      <trkpt lat="48.38855" lon="-4.48847">
        <ele>41.5</ele>
        <time>2020-06-08T17:16:38Z</time>
      </trkpt>
      <trkpt lat="48.38856" lon="-4.48849">
        <ele>41.3</ele>
        <time>2020-06-08T17:16:39Z</time>
      </trkpt>
      <trkpt lat="48.38857" lon="-4.48849">
        <ele>41.3</ele>
        <time>2020-06-08T17:16:40Z</time>
      </trkpt>
      <trkpt lat="48.38857" lon="-4.48849">
        <ele>41.3</ele>
        <time>2020-06-08T17:16:41Z</time>
      </trkpt>
      <trkpt lat="48.38857" lon="-4.4885">
        <ele>41.3</ele>
        <time>2020-06-08T17:16:42Z</time>
      </trkpt>
      <trkpt lat="48.38858" lon="-4.4885">
        <ele>41.3</ele>
        <time>2020-06-08T17:16:43Z</time>
      </trkpt>
      <trkpt lat="48.38858" lon="-4.48849">
        <ele>41.3</ele>
        <time>2020-06-08T17:16:44Z</time>
      </trkpt>
      <trkpt lat="48.38858" lon="-4.48847">
        <ele>41.5</ele>
        <time>2020-06-08T17:16:45Z</time>
      </trkpt>
      <trkpt lat="48.38858" lon="-4.48846">
        <ele>41.5</ele>
        <time>2020-06-08T17:16:46Z</time>
      </trkpt>
      <trkpt lat="48.38854" lon="-4.48836">
        <ele>41.7</ele>
        <time>2020-06-08T17:22:05Z</time>
      </trkpt>
      <trkpt lat="48.38857" lon="-4.48834">
        <ele>41.9</ele>
        <time>2020-06-08T17:22:06Z</time>
      </trkpt>
      <trkpt lat="48.3886" lon="-4.48832">
        <ele>41.9</ele>
        <time>2020-06-08T17:22:07Z</time>
      </trkpt>
      <trkpt lat="48.38863" lon="-4.4883">
        <ele>42.1</ele>
        <time>2020-06-08T17:22:08Z</time>
      </trkpt>
      <trkpt lat="48.38866" lon="-4.48828">
        <ele>42.1</ele>
        <time>2020-06-08T17:22:09Z</time>
      </trkpt>
      <trkpt lat="48.38869" lon="-4.48825">
        <ele>42.3</ele>
        <time>2020-06-08T17:22:10Z</time>
      </trkpt>
      <trkpt lat="48.38872" lon="-4.48823">
        <ele>42.3</ele>
        <time>2020-06-08T17:22:11Z</time>
      </trkpt>
      <trkpt lat="48.38876" lon="-4.48821">
        <ele>42.4</ele>
        <time>2020-06-08T17:22:12Z</time>
      </trkpt>
      <trkpt lat="48.3888" lon="-4.48818">
        <ele>42.4</ele>
        <time>2020-06-08T17:22:13Z</time>
      </trkpt>
      <trkpt lat="48.38883" lon="-4.48813">
        <ele>42.5</ele>
        <time>2020-06-08T17:22:14Z</time>
      </trkpt>
      <trkpt lat="48.38887" lon="-4.48809">
        <ele>42.8</ele>
        <time>2020-06-08T17:22:15Z</time>
      </trkpt>
      <trkpt lat="48.3889" lon="-4.48803">
        <ele>42.9</ele>
        <time>2020-06-08T17:22:16Z</time>
      </trkpt>
      <trkpt lat="48.38894" lon="-4.48796">
        <ele>43.2</ele>
        <time>2020-06-08T17:22:17Z</time>
      </trkpt>
      <trkpt lat="48.38897" lon="-4.4879">
        <ele>43.3</ele>
        <time>2020-06-08T17:22:18Z</time>
      </trkpt>
      <trkpt lat="48.38902" lon="-4.48783">
        <ele>43.7</ele>
        <time>2020-06-08T17:22:19Z</time>
      </trkpt>
      <trkpt lat="48.38906" lon="-4.48774">
        <ele>44</ele>
        <time>2020-06-08T17:22:20Z</time>
      </trkpt>
      <trkpt lat="48.38908" lon="-4.48767">
        <ele>44.1</ele>
        <time>2020-06-08T17:22:21Z</time>
      </trkpt>
      <trkpt lat="48.3891" lon="-4.48764">
        <ele>44.3</ele>
        <time>2020-06-08T17:22:22Z</time>
      </trkpt>
      <trkpt lat="48.38911" lon="-4.48762">
        <ele>44.3</ele>
        <time>2020-06-08T17:22:23Z</time>
      </trkpt>
      <trkpt lat="48.38913" lon="-4.4876">
        <ele>44.4</ele>
        <time>2020-06-08T17:22:24Z</time>
      </trkpt>
      <trkpt lat="48.38915" lon="-4.48757">
        <ele>44.5</ele>
        <time>2020-06-08T17:22:25Z</time>
      </trkpt>
      <trkpt lat="48.38917" lon="-4.48754">
        <ele>44.5</ele>
        <time>2020-06-08T17:22:26Z</time>
      </trkpt>
      <trkpt lat="48.3892" lon="-4.48751">
        <ele>44.7</ele>
        <time>2020-06-08T17:22:27Z</time>
      </trkpt>
      <trkpt lat="48.38922" lon="-4.48747">
        <ele>44.8</ele>
        <time>2020-06-08T17:22:28Z</time>
      </trkpt>
      <trkpt lat="48.38925" lon="-4.48743">
        <ele>44.9</ele>
        <time>2020-06-08T17:22:29Z</time>
      </trkpt>
      <trkpt lat="48.38928" lon="-4.4874">
        <ele>45</ele>
        <time>2020-06-08T17:22:30Z</time>
      </trkpt>
      <trkpt lat="48.38931" lon="-4.48736">
        <ele>45.1</ele>
        <time>2020-06-08T17:22:31Z</time>
      </trkpt>
      <trkpt lat="48.38934" lon="-4.48731">
        <ele>45.2</ele>
        <time>2020-06-08T17:22:32Z</time>
      </trkpt>
      <trkpt lat="48.38938" lon="-4.48726">
        <ele>45.3</ele>
        <time>2020-06-08T17:22:33Z</time>
      </trkpt>
      <trkpt lat="48.38945" lon="-4.48714">
        <ele>45.5</ele>
        <time>2020-06-08T17:22:34Z</time>
      </trkpt>
      <trkpt lat="48.38948" lon="-4.48709">
        <ele>45.6</ele>
        <time>2020-06-08T17:22:35Z</time>
      </trkpt>
      <trkpt lat="48.38951" lon="-4.48705">
        <ele>45.7</ele>
        <time>2020-06-08T17:22:36Z</time>
      </trkpt>
      <trkpt lat="48.38954" lon="-4.48703">
        <ele>45.7</ele>
        <time>2020-06-08T17:22:37Z</time>
      </trkpt>
      <trkpt lat="48.38958" lon="-4.48701">
        <ele>45.7</ele>
        <time>2020-06-08T17:22:38Z</time>
      </trkpt>
      <trkpt lat="48.38959" lon="-4.48701">
        <ele>45.7</ele>
        <time>2020-06-08T17:22:39Z</time>
      </trkpt>
      <trkpt lat="48.38962" lon="-4.48699">
        <ele>45.7</ele>
        <time>2020-06-08T17:22:40Z</time>
      </trkpt>
      <trkpt lat="48.38965" lon="-4.48696">
        <ele>45.8</ele>
        <time>2020-06-08T17:22:41Z</time>
      </trkpt>
      <trkpt lat="48.38968" lon="-4.48697">
        <ele>45.8</ele>
        <time>2020-06-08T17:22:42Z</time>
      </trkpt>
      <trkpt lat="48.38971" lon="-4.48699">
        <ele>45.8</ele>
        <time>2020-06-08T17:22:43Z</time>
      </trkpt>
      <trkpt lat="48.38974" lon="-4.48703">
        <ele>45.8</ele>
        <time>2020-06-08T17:22:44Z</time>
      </trkpt>
      <trkpt lat="48.38976" lon="-4.48704">
        <ele>45.9</ele>
        <time>2020-06-08T17:22:45Z</time>
      </trkpt>
      <trkpt lat="48.38979" lon="-4.48705">
        <ele>46</ele>
        <time>2020-06-08T17:22:46Z</time>
      </trkpt>
      <trkpt lat="48.38981" lon="-4.48707">
        <ele>46</ele>
        <time>2020-06-08T17:22:47Z</time>
      </trkpt>
      <trkpt lat="48.38984" lon="-4.48707">
        <ele>46.1</ele>
        <time>2020-06-08T17:22:48Z</time>
      </trkpt>
      <trkpt lat="48.38987" lon="-4.48707">
        <ele>46.2</ele>
        <time>2020-06-08T17:22:49Z</time>
      </trkpt>
      <trkpt lat="48.38988" lon="-4.48706">
        <ele>46.2</ele>
        <time>2020-06-08T17:22:50Z</time>
      </trkpt>
      <trkpt lat="48.38992" lon="-4.48706">
        <ele>46.3</ele>
        <time>2020-06-08T17:22:51Z</time>
      </trkpt>
      <trkpt lat="48.38992" lon="-4.48706">
        <ele>46.4</ele>
        <time>2020-06-08T17:22:52Z</time>
      </trkpt>
      <trkpt lat="48.38992" lon="-4.48703">
        <ele>46.4</ele>
        <time>2020-06-08T17:22:53Z</time>
      </trkpt>
      <trkpt lat="48.38992" lon="-4.48702">
        <ele>46.4</ele>
        <time>2020-06-08T17:22:54Z</time>
      </trkpt>
      <trkpt lat="48.38992" lon="-4.487">
        <ele>46.4</ele>
        <time>2020-06-08T17:22:55Z</time>
      </trkpt>
      <trkpt lat="48.38992" lon="-4.48695">
        <ele>46.3</ele>
        <time>2020-06-08T17:22:56Z</time>
      </trkpt>
      <trkpt lat="48.38992" lon="-4.48694">
        <ele>46.3</ele>
        <time>2020-06-08T17:22:57Z</time>
      </trkpt>
      <trkpt lat="48.38992" lon="-4.48688">
        <ele>46.4</ele>
        <time>2020-06-08T17:22:58Z</time>
      </trkpt>
      <trkpt lat="48.38993" lon="-4.48687">
        <ele>46.4</ele>
        <time>2020-06-08T17:22:59Z</time>
      </trkpt>
      <trkpt lat="48.38994" lon="-4.48682">
        <ele>46.4</ele>
        <time>2020-06-08T17:23:00Z</time>
      </trkpt>
      <trkpt lat="48.38995" lon="-4.48681">
        <ele>46.5</ele>
        <time>2020-06-08T17:23:01Z</time>
      </trkpt>
      <trkpt lat="48.38995" lon="-4.48679">
        <ele>46.5</ele>
        <time>2020-06-08T17:23:02Z</time>
      </trkpt>
      <trkpt lat="48.38996" lon="-4.48677">
        <ele>46.5</ele>
        <time>2020-06-08T17:23:03Z</time>
      </trkpt>
      <trkpt lat="48.38998" lon="-4.48674">
        <ele>46.6</ele>
        <time>2020-06-08T17:23:04Z</time>
      </trkpt>
      <trkpt lat="48.38999" lon="-4.48672">
        <ele>46.6</ele>
        <time>2020-06-08T17:23:05Z</time>
      </trkpt>
      <trkpt lat="48.39002" lon="-4.48669">
        <ele>46.8</ele>
        <time>2020-06-08T17:23:06Z</time>
      </trkpt>
      <trkpt lat="48.39003" lon="-4.48668">
        <ele>46.8</ele>
        <time>2020-06-08T17:23:07Z</time>
      </trkpt>
      <trkpt lat="48.39006" lon="-4.48665">
        <ele>46.9</ele>
        <time>2020-06-08T17:23:08Z</time>
      </trkpt>
      <trkpt lat="48.39009" lon="-4.48662">
        <ele>47</ele>
        <time>2020-06-08T17:23:09Z</time>
      </trkpt>
      <trkpt lat="48.3901" lon="-4.48659">
        <ele>47.2</ele>
        <time>2020-06-08T17:23:10Z</time>
      </trkpt>
      <trkpt lat="48.39013" lon="-4.48655">
        <ele>47.3</ele>
        <time>2020-06-08T17:23:11Z</time>
      </trkpt>
      <trkpt lat="48.39015" lon="-4.48651">
        <ele>47.5</ele>
        <time>2020-06-08T17:23:12Z</time>
      </trkpt>
      <trkpt lat="48.39017" lon="-4.48648">
        <ele>47.5</ele>
        <time>2020-06-08T17:23:13Z</time>
      </trkpt>
      <trkpt lat="48.3902" lon="-4.48644">
        <ele>47.7</ele>
        <time>2020-06-08T17:23:14Z</time>
      </trkpt>
      <trkpt lat="48.39021" lon="-4.48642">
        <ele>47.9</ele>
        <time>2020-06-08T17:23:15Z</time>
      </trkpt>
      <trkpt lat="48.39022" lon="-4.48639">
        <ele>47.9</ele>
        <time>2020-06-08T17:23:16Z</time>
      </trkpt>
      <trkpt lat="48.39024" lon="-4.48636">
        <ele>48.2</ele>
        <time>2020-06-08T17:23:17Z</time>
      </trkpt>
      <trkpt lat="48.39027" lon="-4.4863">
        <ele>48.4</ele>
        <time>2020-06-08T17:23:18Z</time>
      </trkpt>
      <trkpt lat="48.39028" lon="-4.48628">
        <ele>48.4</ele>
        <time>2020-06-08T17:23:19Z</time>
      </trkpt>
      <trkpt lat="48.3903" lon="-4.48624">
        <ele>48.6</ele>
        <time>2020-06-08T17:23:20Z</time>
      </trkpt>
      <trkpt lat="48.39032" lon="-4.48621">
        <ele>48.7</ele>
        <time>2020-06-08T17:23:21Z</time>
      </trkpt>
      <trkpt lat="48.39036" lon="-4.48613">
        <ele>48.9</ele>
        <time>2020-06-08T17:23:22Z</time>
      </trkpt>
      <trkpt lat="48.39039" lon="-4.48609">
        <ele>49</ele>
        <time>2020-06-08T17:23:23Z</time>
      </trkpt>
      <trkpt lat="48.39041" lon="-4.48606">
        <ele>49.1</ele>
        <time>2020-06-08T17:23:24Z</time>
      </trkpt>
      <trkpt lat="48.39042" lon="-4.48601">
        <ele>49.1</ele>
        <time>2020-06-08T17:23:25Z</time>
      </trkpt>
      <trkpt lat="48.39042" lon="-4.48599">
        <ele>49.1</ele>
        <time>2020-06-08T17:23:26Z</time>
      </trkpt>
      <trkpt lat="48.39046" lon="-4.48597">
        <ele>49.4</ele>
        <time>2020-06-08T17:23:27Z</time>
      </trkpt>
      <trkpt lat="48.3905" lon="-4.48595">
        <ele>49.6</ele>
        <time>2020-06-08T17:23:28Z</time>
      </trkpt>
      <trkpt lat="48.39051" lon="-4.48593">
        <ele>49.6</ele>
        <time>2020-06-08T17:23:29Z</time>
      </trkpt>
      <trkpt lat="48.39053" lon="-4.4859">
        <ele>49.8</ele>
        <time>2020-06-08T17:23:30Z</time>
      </trkpt>
      <trkpt lat="48.39054" lon="-4.48589">
        <ele>49.8</ele>
        <time>2020-06-08T17:23:31Z</time>
      </trkpt>
      <trkpt lat="48.39057" lon="-4.48585">
        <ele>50.1</ele>
        <time>2020-06-08T17:23:32Z</time>
      </trkpt>
      <trkpt lat="48.39059" lon="-4.48582">
        <ele>50.2</ele>
        <time>2020-06-08T17:23:33Z</time>
      </trkpt>
      <trkpt lat="48.39062" lon="-4.4858">
        <ele>50.5</ele>
        <time>2020-06-08T17:23:34Z</time>
      </trkpt>
      <trkpt lat="48.39065" lon="-4.48577">
        <ele>50.7</ele>
        <time>2020-06-08T17:23:35Z</time>
      </trkpt>
      <trkpt lat="48.39067" lon="-4.48573">
        <ele>50.9</ele>
        <time>2020-06-08T17:23:36Z</time>
      </trkpt>
      <trkpt lat="48.39068" lon="-4.48572">
        <ele>51</ele>
        <time>2020-06-08T17:23:37Z</time>
      </trkpt>
      <trkpt lat="48.3907" lon="-4.48568">
        <ele>51.3</ele>
        <time>2020-06-08T17:23:38Z</time>
      </trkpt>
      <trkpt lat="48.39071" lon="-4.48566">
        <ele>51.3</ele>
        <time>2020-06-08T17:23:39Z</time>
      </trkpt>
      <trkpt lat="48.39074" lon="-4.48563">
        <ele>51.7</ele>
        <time>2020-06-08T17:23:40Z</time>
      </trkpt>
      <trkpt lat="48.39075" lon="-4.48561">
        <ele>51.8</ele>
        <time>2020-06-08T17:23:41Z</time>
      </trkpt>
      <trkpt lat="48.39077" lon="-4.48558">
        <ele>52.2</ele>
        <time>2020-06-08T17:23:42Z</time>
      </trkpt>
      <trkpt lat="48.39078" lon="-4.48556">
        <ele>52.2</ele>
        <time>2020-06-08T17:23:43Z</time>
      </trkpt>
      <trkpt lat="48.39079" lon="-4.48553">
        <ele>52.4</ele>
        <time>2020-06-08T17:23:44Z</time>
      </trkpt>
      <trkpt lat="48.39081" lon="-4.48549">
        <ele>52.8</ele>
        <time>2020-06-08T17:23:45Z</time>
      </trkpt>
      <trkpt lat="48.39082" lon="-4.48544">
        <ele>53</ele>
        <time>2020-06-08T17:23:46Z</time>
      </trkpt>
      <trkpt lat="48.39083" lon="-4.48542">
        <ele>53.3</ele>
        <time>2020-06-08T17:23:47Z</time>
      </trkpt>
      <trkpt lat="48.39083" lon="-4.48538">
        <ele>53.7</ele>
        <time>2020-06-08T17:23:48Z</time>
      </trkpt>
      <trkpt lat="48.39084" lon="-4.48533">
        <ele>54</ele>
        <time>2020-06-08T17:23:49Z</time>
      </trkpt>
      <trkpt lat="48.39084" lon="-4.4853">
        <ele>54</ele>
        <time>2020-06-08T17:23:50Z</time>
      </trkpt>
      <trkpt lat="48.39085" lon="-4.48525">
        <ele>54.7</ele>
        <time>2020-06-08T17:23:51Z</time>
      </trkpt>
      <trkpt lat="48.39086" lon="-4.48524">
        <ele>54.6</ele>
        <time>2020-06-08T17:23:52Z</time>
      </trkpt>
      <trkpt lat="48.39087" lon="-4.48519">
        <ele>55</ele>
        <time>2020-06-08T17:23:53Z</time>
      </trkpt>
      <trkpt lat="48.39087" lon="-4.48518">
        <ele>55</ele>
        <time>2020-06-08T17:23:54Z</time>
      </trkpt>
      <trkpt lat="48.39089" lon="-4.48513">
        <ele>55.3</ele>
        <time>2020-06-08T17:23:55Z</time>
      </trkpt>
      <trkpt lat="48.39089" lon="-4.48512">
        <ele>55.7</ele>
        <time>2020-06-08T17:23:56Z</time>
      </trkpt>
      <trkpt lat="48.3909" lon="-4.48507">
        <ele>55.9</ele>
        <time>2020-06-08T17:23:57Z</time>
      </trkpt>
      <trkpt lat="48.3909" lon="-4.48506">
        <ele>55.9</ele>
        <time>2020-06-08T17:23:58Z</time>
      </trkpt>
      <trkpt lat="48.39091" lon="-4.48505">
        <ele>55.9</ele>
        <time>2020-06-08T17:23:59Z</time>
      </trkpt>
      <trkpt lat="48.39092" lon="-4.48503">
        <ele>56.2</ele>
        <time>2020-06-08T17:24:00Z</time>
      </trkpt>
      <trkpt lat="48.39092" lon="-4.48502">
        <ele>56.2</ele>
        <time>2020-06-08T17:24:01Z</time>
      </trkpt>
      <trkpt lat="48.39091" lon="-4.485">
        <ele>56.1</ele>
        <time>2020-06-08T17:24:02Z</time>
      </trkpt>
      <trkpt lat="48.39091" lon="-4.48502">
        <ele>56.1</ele>
        <time>2020-06-08T17:24:03Z</time>
      </trkpt>
      <trkpt lat="48.39091" lon="-4.48501">
        <ele>56.1</ele>
        <time>2020-06-08T17:24:04Z</time>
      </trkpt>
      <trkpt lat="48.39091" lon="-4.48501">
        <ele>56.1</ele>
        <time>2020-06-08T17:24:05Z</time>
      </trkpt>
      <trkpt lat="48.39091" lon="-4.48501">
        <ele>56.1</ele>
        <time>2020-06-08T17:24:06Z</time>
      </trkpt>
      <trkpt lat="48.39091" lon="-4.48501">
        <ele>56.1</ele>
        <time>2020-06-08T17:24:07Z</time>
      </trkpt>
      <trkpt lat="48.39091" lon="-4.485">
        <ele>56.1</ele>
        <time>2020-06-08T17:24:08Z</time>
      </trkpt>
      <trkpt lat="48.39089" lon="-4.48499">
        <ele>56.3</ele>
        <time>2020-06-08T17:24:09Z</time>
      </trkpt>
      <trkpt lat="48.39089" lon="-4.48496">
        <ele>56.3</ele>
        <time>2020-06-08T17:24:10Z</time>
      </trkpt>
      <trkpt lat="48.39088" lon="-4.48494">
        <ele>56.5</ele>
        <time>2020-06-08T17:24:11Z</time>
      </trkpt>
      <trkpt lat="48.39088" lon="-4.48492">
        <ele>56.5</ele>
        <time>2020-06-08T17:24:12Z</time>
      </trkpt>
      <trkpt lat="48.39087" lon="-4.48489">
        <ele>56.6</ele>
        <time>2020-06-08T17:24:13Z</time>
      </trkpt>
      <trkpt lat="48.39086" lon="-4.48486">
        <ele>56.8</ele>
        <time>2020-06-08T17:24:14Z</time>
      </trkpt>
      <trkpt lat="48.39085" lon="-4.48485">
        <ele>56.7</ele>
        <time>2020-06-08T17:24:15Z</time>
      </trkpt>
      <trkpt lat="48.39084" lon="-4.48484">
        <ele>56.7</ele>
        <time>2020-06-08T17:24:16Z</time>
      </trkpt>
      <trkpt lat="48.39083" lon="-4.48484">
        <ele>56.7</ele>
        <time>2020-06-08T17:24:17Z</time>
      </trkpt>
      <trkpt lat="48.39082" lon="-4.48484">
        <ele>56.7</ele>
        <time>2020-06-08T17:24:18Z</time>
      </trkpt>
      <trkpt lat="48.3908" lon="-4.48481">
        <ele>56.7</ele>
        <time>2020-06-08T17:24:19Z</time>
      </trkpt>
      <trkpt lat="48.39079" lon="-4.4848">
        <ele>56.7</ele>
        <time>2020-06-08T17:24:20Z</time>
      </trkpt>
      <trkpt lat="48.39076" lon="-4.48479">
        <ele>56.7</ele>
        <time>2020-06-08T17:24:21Z</time>
      </trkpt>
      <trkpt lat="48.39075" lon="-4.48479">
        <ele>56.7</ele>
        <time>2020-06-08T17:24:22Z</time>
      </trkpt>
      <trkpt lat="48.39074" lon="-4.48481">
        <ele>56.6</ele>
        <time>2020-06-08T17:24:23Z</time>
      </trkpt>
      <trkpt lat="48.39072" lon="-4.48481">
        <ele>56.6</ele>
        <time>2020-06-08T17:24:24Z</time>
      </trkpt>
      <trkpt lat="48.39069" lon="-4.48479">
        <ele>56.5</ele>
        <time>2020-06-08T17:24:25Z</time>
      </trkpt>
      <trkpt lat="48.39069" lon="-4.48478">
        <ele>56.6</ele>
        <time>2020-06-08T17:24:26Z</time>
      </trkpt>
      <trkpt lat="48.39068" lon="-4.48475">
        <ele>56.6</ele>
        <time>2020-06-08T17:24:27Z</time>
      </trkpt>
      <trkpt lat="48.39069" lon="-4.48473">
        <ele>56.7</ele>
        <time>2020-06-08T17:24:28Z</time>
      </trkpt>
      <trkpt lat="48.39069" lon="-4.48472">
        <ele>56.7</ele>
        <time>2020-06-08T17:24:29Z</time>
      </trkpt>
      <trkpt lat="48.39069" lon="-4.48472">
        <ele>56.7</ele>
        <time>2020-06-08T17:24:30Z</time>
      </trkpt>
      <trkpt lat="48.39069" lon="-4.48472">
        <ele>56.7</ele>
        <time>2020-06-08T17:24:31Z</time>
      </trkpt>
      <trkpt lat="48.39071" lon="-4.48473">
        <ele>56.7</ele>
        <time>2020-06-08T17:24:32Z</time>
      </trkpt>
      <trkpt lat="48.39071" lon="-4.48473">
        <ele>56.7</ele>
        <time>2020-06-08T17:24:33Z</time>
      </trkpt>
      <trkpt lat="48.39072" lon="-4.48473">
        <ele>56.7</ele>
        <time>2020-06-08T17:24:34Z</time>
      </trkpt>
      <trkpt lat="48.39071" lon="-4.48473">
        <ele>56.7</ele>
        <time>2020-06-08T17:24:35Z</time>
      </trkpt>
      <trkpt lat="48.39071" lon="-4.48473">
        <ele>56.7</ele>
        <time>2020-06-08T17:24:36Z</time>
      </trkpt>
      <trkpt lat="48.39071" lon="-4.48472">
        <ele>56.7</ele>
        <time>2020-06-08T17:24:37Z</time>
      </trkpt>
      <trkpt lat="48.3907" lon="-4.48472">
        <ele>56.7</ele>
        <time>2020-06-08T17:24:38Z</time>
      </trkpt>
      <trkpt lat="48.3907" lon="-4.48472">
        <ele>56.7</ele>
        <time>2020-06-08T17:24:39Z</time>
      </trkpt>
      <trkpt lat="48.3907" lon="-4.48472">
        <ele>56.7</ele>
        <time>2020-06-08T17:24:40Z</time>
      </trkpt>
      <trkpt lat="48.3907" lon="-4.48472">
        <ele>56.7</ele>
        <time>2020-06-08T17:24:41Z</time>
      </trkpt>
      <trkpt lat="48.39069" lon="-4.48472">
        <ele>56.7</ele>
        <time>2020-06-08T17:24:42Z</time>
      </trkpt>
      <trkpt lat="48.39069" lon="-4.48472">
        <ele>56.7</ele>
        <time>2020-06-08T17:24:43Z</time>
      </trkpt>
      <trkpt lat="48.39069" lon="-4.48472">
        <ele>56.6</ele>
        <time>2020-06-08T17:24:44Z</time>
      </trkpt>
      <trkpt lat="48.39068" lon="-4.48471">
        <ele>56.6</ele>
        <time>2020-06-08T17:24:45Z</time>
      </trkpt>
      <trkpt lat="48.39068" lon="-4.48471">
        <ele>56.6</ele>
        <time>2020-06-08T17:24:46Z</time>
      </trkpt>
      <trkpt lat="48.39068" lon="-4.48471">
        <ele>56.6</ele>
        <time>2020-06-08T17:24:47Z</time>
      </trkpt>
      <trkpt lat="48.39067" lon="-4.48471">
        <ele>56.6</ele>
        <time>2020-06-08T17:24:48Z</time>
      </trkpt>
      <trkpt lat="48.39067" lon="-4.48472">
        <ele>56.6</ele>
        <time>2020-06-08T17:24:49Z</time>
      </trkpt>
      <trkpt lat="48.39069" lon="-4.48473">
        <ele>56.6</ele>
        <time>2020-06-08T17:24:50Z</time>
      </trkpt>
      <trkpt lat="48.39069" lon="-4.48473">
        <ele>56.6</ele>
        <time>2020-06-08T17:24:51Z</time>
      </trkpt>
      <trkpt lat="48.39069" lon="-4.48473">
        <ele>56.6</ele>
        <time>2020-06-08T17:24:52Z</time>
      </trkpt>
      <trkpt lat="48.39069" lon="-4.48473">
        <ele>56.6</ele>
        <time>2020-06-08T17:24:53Z</time>
      </trkpt>
      <trkpt lat="48.39069" lon="-4.48472">
        <ele>56.6</ele>
        <time>2020-06-08T17:24:54Z</time>
      </trkpt>
      <trkpt lat="48.3895" lon="-4.48512">
        <ele>51.2</ele>
        <time>2020-06-08T17:29:41Z</time>
      </trkpt>
      <trkpt lat="48.38956" lon="-4.48516">
        <ele>50.9</ele>
        <time>2020-06-08T17:29:42Z</time>
      </trkpt>
      <trkpt lat="48.38964" lon="-4.48512">
        <ele>51.2</ele>
        <time>2020-06-08T17:29:43Z</time>
      </trkpt>
      <trkpt lat="48.38969" lon="-4.4851">
        <ele>51.2</ele>
        <time>2020-06-08T17:29:44Z</time>
      </trkpt>
      <trkpt lat="48.38969" lon="-4.48509">
        <ele>51.2</ele>
        <time>2020-06-08T17:29:45Z</time>
      </trkpt>
      <trkpt lat="48.3897" lon="-4.48509">
        <ele>51.2</ele>
        <time>2020-06-08T17:29:46Z</time>
      </trkpt>
      <trkpt lat="48.38971" lon="-4.48508">
        <ele>51.2</ele>
        <time>2020-06-08T17:29:47Z</time>
      </trkpt>
      <trkpt lat="48.38972" lon="-4.48508">
        <ele>51.5</ele>
        <time>2020-06-08T17:29:48Z</time>
      </trkpt>
      <trkpt lat="48.38973" lon="-4.48507">
        <ele>51.5</ele>
        <time>2020-06-08T17:29:49Z</time>
      </trkpt>
      <trkpt lat="48.38974" lon="-4.48507">
        <ele>51.5</ele>
        <time>2020-06-08T17:29:50Z</time>
      </trkpt>
      <trkpt lat="48.38975" lon="-4.48506">
        <ele>51.5</ele>
        <time>2020-06-08T17:29:51Z</time>
      </trkpt>
      <trkpt lat="48.38976" lon="-4.48506">
        <ele>51.5</ele>
        <time>2020-06-08T17:29:52Z</time>
      </trkpt>
      <trkpt lat="48.38976" lon="-4.48505">
        <ele>51.5</ele>
        <time>2020-06-08T17:29:53Z</time>
      </trkpt>
      <trkpt lat="48.38979" lon="-4.48507">
        <ele>51.6</ele>
        <time>2020-06-08T17:29:54Z</time>
      </trkpt>
      <trkpt lat="48.38981" lon="-4.48507">
        <ele>51.6</ele>
        <time>2020-06-08T17:29:55Z</time>
      </trkpt>
      <trkpt lat="48.38983" lon="-4.48507">
        <ele>51.6</ele>
        <time>2020-06-08T17:29:56Z</time>
      </trkpt>
      <trkpt lat="48.38985" lon="-4.4851">
        <ele>51.4</ele>
        <time>2020-06-08T17:29:57Z</time>
      </trkpt>
      <trkpt lat="48.38988" lon="-4.48511">
        <ele>51.5</ele>
        <time>2020-06-08T17:29:58Z</time>
      </trkpt>
      <trkpt lat="48.3899" lon="-4.48512">
        <ele>51.6</ele>
        <time>2020-06-08T17:29:59Z</time>
      </trkpt>
      <trkpt lat="48.38993" lon="-4.48514">
        <ele>51.4</ele>
        <time>2020-06-08T17:30:00Z</time>
      </trkpt>
      <trkpt lat="48.39083" lon="-4.48464">
        <ele>56.8</ele>
        <time>2020-06-08T17:37:11Z</time>
      </trkpt>
      <trkpt lat="48.39083" lon="-4.48463">
        <ele>56.8</ele>
        <time>2020-06-08T17:37:12Z</time>
      </trkpt>
      <trkpt lat="48.39084" lon="-4.48462">
        <ele>56.8</ele>
        <time>2020-06-08T17:37:13Z</time>
      </trkpt>
      <trkpt lat="48.39083" lon="-4.48462">
        <ele>56.8</ele>
        <time>2020-06-08T17:37:14Z</time>
      </trkpt>
      <trkpt lat="48.39084" lon="-4.48462">
        <ele>56.8</ele>
        <time>2020-06-08T17:37:15Z</time>
      </trkpt>
      <trkpt lat="48.39084" lon="-4.48461">
        <ele>56.8</ele>
        <time>2020-06-08T17:37:16Z</time>
      </trkpt>
      <trkpt lat="48.39084" lon="-4.48461">
        <ele>56.8</ele>
        <time>2020-06-08T17:37:17Z</time>
      </trkpt>
      <trkpt lat="48.39084" lon="-4.48461">
        <ele>56.8</ele>
        <time>2020-06-08T17:37:18Z</time>
      </trkpt>
      <trkpt lat="48.39084" lon="-4.48461">
        <ele>56.8</ele>
        <time>2020-06-08T17:37:19Z</time>
      </trkpt>
      <trkpt lat="48.39084" lon="-4.48461">
        <ele>56.8</ele>
        <time>2020-06-08T17:37:20Z</time>
      </trkpt>
      <trkpt lat="48.39084" lon="-4.48461">
        <ele>56.8</ele>
        <time>2020-06-08T17:37:21Z</time>
      </trkpt>
      <trkpt lat="48.39084" lon="-4.48461">
        <ele>56.8</ele>
        <time>2020-06-08T17:37:22Z</time>
      </trkpt>
      <trkpt lat="48.39084" lon="-4.48461">
        <ele>56.8</ele>
        <time>2020-06-08T17:37:23Z</time>
      </trkpt>
      <trkpt lat="48.39084" lon="-4.48461">
        <ele>56.8</ele>
        <time>2020-06-08T17:37:24Z</time>
      </trkpt>
      <trkpt lat="48.39084" lon="-4.48461">
        <ele>56.8</ele>
        <time>2020-06-08T17:37:25Z</time>
      </trkpt>
      <trkpt lat="48.39084" lon="-4.48461">
        <ele>56.8</ele>
        <time>2020-06-08T17:37:26Z</time>
      </trkpt>
      <trkpt lat="48.39084" lon="-4.48461">
        <ele>56.8</ele>
        <time>2020-06-08T17:37:27Z</time>
      </trkpt>
      <trkpt lat="48.39077" lon="-4.48483">
        <ele>56.3</ele>
        <time>2020-06-08T17:41:40Z</time>
      </trkpt>
      <trkpt lat="48.39076" lon="-4.48484">
        <ele>56.3</ele>
        <time>2020-06-08T17:41:41Z</time>
      </trkpt>
      <trkpt lat="48.39076" lon="-4.48485">
        <ele>56.3</ele>
        <time>2020-06-08T17:41:42Z</time>
      </trkpt>
      <trkpt lat="48.39075" lon="-4.48487">
        <ele>56.2</ele>
        <time>2020-06-08T17:41:43Z</time>
      </trkpt>
      <trkpt lat="48.39075" lon="-4.48487">
        <ele>56.1</ele>
        <time>2020-06-08T17:41:44Z</time>
      </trkpt>
      <trkpt lat="48.39074" lon="-4.48489">
        <ele>56</ele>
        <time>2020-06-08T17:41:45Z</time>
      </trkpt>
      <trkpt lat="48.39074" lon="-4.4849">
        <ele>56</ele>
        <time>2020-06-08T17:41:46Z</time>
      </trkpt>
      <trkpt lat="48.39073" lon="-4.48492">
        <ele>55.8</ele>
        <time>2020-06-08T17:41:47Z</time>
      </trkpt>
      <trkpt lat="48.39073" lon="-4.48493">
        <ele>55.8</ele>
        <time>2020-06-08T17:41:48Z</time>
      </trkpt>
      <trkpt lat="48.39071" lon="-4.48496">
        <ele>55.5</ele>
        <time>2020-06-08T17:41:49Z</time>
      </trkpt>
      <trkpt lat="48.39071" lon="-4.48498">
        <ele>55.5</ele>
        <time>2020-06-08T17:41:50Z</time>
      </trkpt>
      <trkpt lat="48.39071" lon="-4.48499">
        <ele>55.5</ele>
        <time>2020-06-08T17:41:51Z</time>
      </trkpt>
      <trkpt lat="48.39071" lon="-4.48498">
        <ele>55.5</ele>
        <time>2020-06-08T17:41:52Z</time>
      </trkpt>
      <trkpt lat="48.39071" lon="-4.48497">
        <ele>55.5</ele>
        <time>2020-06-08T17:41:53Z</time>
      </trkpt>
      <trkpt lat="48.39071" lon="-4.48496">
        <ele>55.5</ele>
        <time>2020-06-08T17:41:54Z</time>
      </trkpt>
      <trkpt lat="48.39071" lon="-4.48495">
        <ele>55.7</ele>
        <time>2020-06-08T17:41:55Z</time>
      </trkpt>
      <trkpt lat="48.39071" lon="-4.48494">
        <ele>55.7</ele>
        <time>2020-06-08T17:41:56Z</time>
      </trkpt>
      <trkpt lat="48.39071" lon="-4.48493">
        <ele>55.7</ele>
        <time>2020-06-08T17:41:57Z</time>
      </trkpt>
      <trkpt lat="48.39071" lon="-4.48492">
        <ele>55.7</ele>
        <time>2020-06-08T17:41:58Z</time>
      </trkpt>
      <trkpt lat="48.39071" lon="-4.48491">
        <ele>55.9</ele>
        <time>2020-06-08T17:41:59Z</time>
      </trkpt>
      <trkpt lat="48.39072" lon="-4.48488">
        <ele>56</ele>
        <time>2020-06-08T17:42:00Z</time>
      </trkpt>
      <trkpt lat="48.39073" lon="-4.48487">
        <ele>56.1</ele>
        <time>2020-06-08T17:42:01Z</time>
      </trkpt>
      <trkpt lat="48.39073" lon="-4.48485">
        <ele>56.1</ele>
        <time>2020-06-08T17:42:02Z</time>
      </trkpt>
      <trkpt lat="48.39074" lon="-4.48484">
        <ele>56.1</ele>
        <time>2020-06-08T17:42:03Z</time>
      </trkpt>
      <trkpt lat="48.39076" lon="-4.48481">
        <ele>56.3</ele>
        <time>2020-06-08T17:42:04Z</time>
      </trkpt>
      <trkpt lat="48.39078" lon="-4.48478">
        <ele>56.5</ele>
        <time>2020-06-08T17:42:05Z</time>
      </trkpt>
      <trkpt lat="48.39078" lon="-4.48476">
        <ele>56.5</ele>
        <time>2020-06-08T17:42:06Z</time>
      </trkpt>
      <trkpt lat="48.39079" lon="-4.48475">
        <ele>56.5</ele>
        <time>2020-06-08T17:42:07Z</time>
      </trkpt>
      <trkpt lat="48.39079" lon="-4.48473">
        <ele>56.5</ele>
        <time>2020-06-08T17:42:08Z</time>
      </trkpt>
      <trkpt lat="48.39078" lon="-4.48471">
        <ele>56.5</ele>
        <time>2020-06-08T17:42:09Z</time>
      </trkpt>
      <trkpt lat="48.39078" lon="-4.48468">
        <ele>56.6</ele>
        <time>2020-06-08T17:42:10Z</time>
      </trkpt>
      <trkpt lat="48.39078" lon="-4.48468">
        <ele>56.6</ele>
        <time>2020-06-08T17:42:11Z</time>
      </trkpt>
      <trkpt lat="48.39078" lon="-4.48468">
        <ele>56.6</ele>
        <time>2020-06-08T17:42:12Z</time>
      </trkpt>
      <trkpt lat="48.39079" lon="-4.48464">
        <ele>56.6</ele>
        <time>2020-06-08T17:42:13Z</time>
      </trkpt>
      <trkpt lat="48.39079" lon="-4.48464">
        <ele>56.6</ele>
        <time>2020-06-08T17:42:14Z</time>
      </trkpt>
      <trkpt lat="48.3908" lon="-4.48463">
        <ele>56.6</ele>
        <time>2020-06-08T17:42:15Z</time>
      </trkpt>
      <trkpt lat="48.3908" lon="-4.48462">
        <ele>56.6</ele>
        <time>2020-06-08T17:42:16Z</time>
      </trkpt>
      <trkpt lat="48.3908" lon="-4.48462">
        <ele>56.6</ele>
        <time>2020-06-08T17:42:17Z</time>
      </trkpt>
      <trkpt lat="48.3908" lon="-4.48462">
        <ele>56.5</ele>
        <time>2020-06-08T17:42:18Z</time>
      </trkpt>
      <trkpt lat="48.39077" lon="-4.48463">
        <ele>56.5</ele>
        <time>2020-06-08T17:47:02Z</time>
      </trkpt>
      <trkpt lat="48.39077" lon="-4.48462">
        <ele>56.5</ele>
        <time>2020-06-08T17:47:03Z</time>
      </trkpt>
      <trkpt lat="48.39077" lon="-4.48461">
        <ele>56.5</ele>
        <time>2020-06-08T17:47:04Z</time>
      </trkpt>
      <trkpt lat="48.39076" lon="-4.4846">
        <ele>56.5</ele>
        <time>2020-06-08T17:47:05Z</time>
      </trkpt>
      <trkpt lat="48.39076" lon="-4.4846">
        <ele>56.5</ele>
        <time>2020-06-08T17:47:06Z</time>
      </trkpt>
      <trkpt lat="48.39076" lon="-4.48461">
        <ele>56.5</ele>
        <time>2020-06-08T17:47:07Z</time>
      </trkpt>
      <trkpt lat="48.39077" lon="-4.48463">
        <ele>56.5</ele>
        <time>2020-06-08T17:47:08Z</time>
      </trkpt>
      <trkpt lat="48.39077" lon="-4.48464">
        <ele>56.5</ele>
        <time>2020-06-08T17:47:09Z</time>
      </trkpt>
      <trkpt lat="48.39077" lon="-4.48466">
        <ele>56.5</ele>
        <time>2020-06-08T17:47:10Z</time>
      </trkpt>
      <trkpt lat="48.39077" lon="-4.48466">
        <ele>56.5</ele>
        <time>2020-06-08T17:47:11Z</time>
      </trkpt>
      <trkpt lat="48.39077" lon="-4.48467">
        <ele>56.5</ele>
        <time>2020-06-08T17:47:12Z</time>
      </trkpt>
      <trkpt lat="48.39077" lon="-4.48467">
        <ele>56.5</ele>
        <time>2020-06-08T17:47:13Z</time>
      </trkpt>
      <trkpt lat="48.39077" lon="-4.48467">
        <ele>56.4</ele>
        <time>2020-06-08T17:47:14Z</time>
      </trkpt>
      <trkpt lat="48.39077" lon="-4.48467">
        <ele>56.4</ele>
        <time>2020-06-08T17:47:15Z</time>
      </trkpt>
      <trkpt lat="48.39077" lon="-4.48468">
        <ele>56.4</ele>
        <time>2020-06-08T17:47:16Z</time>
      </trkpt>
      <trkpt lat="48.39077" lon="-4.48468">
        <ele>56.4</ele>
        <time>2020-06-08T17:47:17Z</time>
      </trkpt>
      <trkpt lat="48.39077" lon="-4.48468">
        <ele>56.4</ele>
        <time>2020-06-08T17:47:18Z</time>
      </trkpt>
      <trkpt lat="48.39076" lon="-4.48467">
        <ele>56.4</ele>
        <time>2020-06-08T17:47:19Z</time>
      </trkpt>
      <trkpt lat="48.39076" lon="-4.48465">
        <ele>56.4</ele>
        <time>2020-06-08T17:47:20Z</time>
      </trkpt>
      <trkpt lat="48.39076" lon="-4.48464">
        <ele>56.4</ele>
        <time>2020-06-08T17:47:21Z</time>
      </trkpt>
      <trkpt lat="48.39075" lon="-4.48463">
        <ele>56.4</ele>
        <time>2020-06-08T17:47:22Z</time>
      </trkpt>
      <trkpt lat="48.39075" lon="-4.48465">
        <ele>56.4</ele>
        <time>2020-06-08T17:47:23Z</time>
      </trkpt>
      <trkpt lat="48.39075" lon="-4.48465">
        <ele>56.4</ele>
        <time>2020-06-08T17:47:24Z</time>
      </trkpt>
      <trkpt lat="48.39075" lon="-4.48464">
        <ele>56.4</ele>
        <time>2020-06-08T17:47:25Z</time>
      </trkpt>
      <trkpt lat="48.39075" lon="-4.48465">
        <ele>56.4</ele>
        <time>2020-06-08T17:47:26Z</time>
      </trkpt>
      <trkpt lat="48.39076" lon="-4.48465">
        <ele>56.4</ele>
        <time>2020-06-08T17:47:27Z</time>
      </trkpt>
      <trkpt lat="48.39076" lon="-4.48465">
        <ele>56.4</ele>
        <time>2020-06-08T17:47:28Z</time>
      </trkpt>
      <trkpt lat="48.39076" lon="-4.48466">
        <ele>56.4</ele>
        <time>2020-06-08T17:47:29Z</time>
      </trkpt>
      <trkpt lat="48.39076" lon="-4.48465">
        <ele>56.4</ele>
        <time>2020-06-08T17:47:30Z</time>
      </trkpt>
      <trkpt lat="48.39076" lon="-4.48465">
        <ele>56.4</ele>
        <time>2020-06-08T17:47:31Z</time>
      </trkpt>
      <trkpt lat="48.39077" lon="-4.48465">
        <ele>56.4</ele>
        <time>2020-06-08T17:47:32Z</time>
      </trkpt>
      <trkpt lat="48.39077" lon="-4.48464">
        <ele>56.4</ele>
        <time>2020-06-08T17:47:33Z</time>
      </trkpt>
      <trkpt lat="48.39078" lon="-4.48463">
        <ele>56.4</ele>
        <time>2020-06-08T17:47:34Z</time>
      </trkpt>
      <trkpt lat="48.39078" lon="-4.48463">
        <ele>56.4</ele>
        <time>2020-06-08T17:47:35Z</time>
      </trkpt>
      <trkpt lat="48.39078" lon="-4.48463">
        <ele>56.4</ele>
        <time>2020-06-08T17:47:36Z</time>
      </trkpt>
      <trkpt lat="48.39078" lon="-4.48463">
        <ele>56.4</ele>
        <time>2020-06-08T17:47:37Z</time>
      </trkpt>
      <trkpt lat="48.39079" lon="-4.48462">
        <ele>56.4</ele>
        <time>2020-06-08T17:47:38Z</time>
      </trkpt>
      <trkpt lat="48.3908" lon="-4.4846">
        <ele>56.4</ele>
        <time>2020-06-08T17:47:39Z</time>
      </trkpt>
      <trkpt lat="48.39081" lon="-4.48459">
        <ele>56.4</ele>
        <time>2020-06-08T17:47:40Z</time>
      </trkpt>
      <trkpt lat="48.39083" lon="-4.48457">
        <ele>56.4</ele>
        <time>2020-06-08T17:47:41Z</time>
      </trkpt>
      <trkpt lat="48.39084" lon="-4.48456">
        <ele>56.4</ele>
        <time>2020-06-08T17:47:42Z</time>
      </trkpt>
      <trkpt lat="48.39085" lon="-4.48455">
        <ele>56.4</ele>
        <time>2020-06-08T17:47:43Z</time>
      </trkpt>
      <trkpt lat="48.39086" lon="-4.48456">
        <ele>56.5</ele>
        <time>2020-06-08T17:47:44Z</time>
      </trkpt>
      <trkpt lat="48.39087" lon="-4.48456">
        <ele>56.5</ele>
        <time>2020-06-08T17:47:45Z</time>
      </trkpt>
      <trkpt lat="48.39087" lon="-4.48457">
        <ele>56.5</ele>
        <time>2020-06-08T17:47:46Z</time>
      </trkpt>
      <trkpt lat="48.39087" lon="-4.48457">
        <ele>56.5</ele>
        <time>2020-06-08T17:47:47Z</time>
      </trkpt>
      <trkpt lat="48.39086" lon="-4.48458">
        <ele>56.5</ele>
        <time>2020-06-08T17:47:48Z</time>
      </trkpt>
      <trkpt lat="48.39086" lon="-4.48459">
        <ele>56.5</ele>
        <time>2020-06-08T17:47:49Z</time>
      </trkpt>
      <trkpt lat="48.39088" lon="-4.48459">
        <ele>56.5</ele>
        <time>2020-06-08T17:47:50Z</time>
      </trkpt>
      <trkpt lat="48.39088" lon="-4.48459">
        <ele>56.5</ele>
        <time>2020-06-08T17:47:51Z</time>
      </trkpt>
      <trkpt lat="48.39088" lon="-4.4846">
        <ele>56.5</ele>
        <time>2020-06-08T17:47:52Z</time>
      </trkpt>
      <trkpt lat="48.39089" lon="-4.4846">
        <ele>56.5</ele>
        <time>2020-06-08T17:47:53Z</time>
      </trkpt>
      <trkpt lat="48.39089" lon="-4.4846">
        <ele>56.5</ele>
        <time>2020-06-08T17:47:54Z</time>
      </trkpt>
      <trkpt lat="48.39089" lon="-4.4846">
        <ele>56.5</ele>
        <time>2020-06-08T17:47:55Z</time>
      </trkpt>
      <trkpt lat="48.39088" lon="-4.4846">
        <ele>56.4</ele>
        <time>2020-06-08T17:47:56Z</time>
      </trkpt>
      <trkpt lat="48.39089" lon="-4.48459">
        <ele>56.5</ele>
        <time>2020-06-08T17:47:57Z</time>
      </trkpt>
      <trkpt lat="48.39089" lon="-4.48459">
        <ele>56.4</ele>
        <time>2020-06-08T17:47:58Z</time>
      </trkpt>
      <trkpt lat="48.39089" lon="-4.48459">
        <ele>56.4</ele>
        <time>2020-06-08T17:47:59Z</time>
      </trkpt>
      <trkpt lat="48.39089" lon="-4.48459">
        <ele>56.4</ele>
        <time>2020-06-08T17:48:00Z</time>
      </trkpt>
      <trkpt lat="48.39089" lon="-4.48458">
        <ele>56.4</ele>
        <time>2020-06-08T17:48:01Z</time>
      </trkpt>
      <trkpt lat="48.39089" lon="-4.48458">
        <ele>56.4</ele>
        <time>2020-06-08T17:48:02Z</time>
      </trkpt>
      <trkpt lat="48.39089" lon="-4.48458">
        <ele>56.4</ele>
        <time>2020-06-08T17:48:03Z</time>
      </trkpt>
      <trkpt lat="48.3909" lon="-4.48458">
        <ele>56.4</ele>
        <time>2020-06-08T17:48:04Z</time>
      </trkpt>
      <trkpt lat="48.39091" lon="-4.48458">
        <ele>56.4</ele>
        <time>2020-06-08T17:48:05Z</time>
      </trkpt>
      <trkpt lat="48.3909" lon="-4.48457">
        <ele>56.4</ele>
        <time>2020-06-08T17:48:06Z</time>
      </trkpt>
      <trkpt lat="48.3909" lon="-4.48458">
        <ele>56.4</ele>
        <time>2020-06-08T17:48:07Z</time>
      </trkpt>
      <trkpt lat="48.3909" lon="-4.48458">
        <ele>56.4</ele>
        <time>2020-06-08T17:48:08Z</time>
      </trkpt>
      <trkpt lat="48.3909" lon="-4.48458">
        <ele>56.4</ele>
        <time>2020-06-08T17:48:09Z</time>
      </trkpt>
      <trkpt lat="48.39091" lon="-4.48457">
        <ele>56.4</ele>
        <time>2020-06-08T17:48:10Z</time>
      </trkpt>
      <trkpt lat="48.39091" lon="-4.48457">
        <ele>56.4</ele>
        <time>2020-06-08T17:48:11Z</time>
      </trkpt>
      <trkpt lat="48.39091" lon="-4.48457">
        <ele>56.4</ele>
        <time>2020-06-08T17:48:12Z</time>
      </trkpt>
      <trkpt lat="48.39091" lon="-4.48458">
        <ele>56.4</ele>
        <time>2020-06-08T17:48:13Z</time>
      </trkpt>
      <trkpt lat="48.39091" lon="-4.48459">
        <ele>56.4</ele>
        <time>2020-06-08T17:48:14Z</time>
      </trkpt>
      <trkpt lat="48.39091" lon="-4.48459">
        <ele>56.4</ele>
        <time>2020-06-08T17:48:15Z</time>
      </trkpt>
      <trkpt lat="48.3909" lon="-4.48458">
        <ele>56.4</ele>
        <time>2020-06-08T17:48:16Z</time>
      </trkpt>
      <trkpt lat="48.3909" lon="-4.48458">
        <ele>56.4</ele>
        <time>2020-06-08T17:48:17Z</time>
      </trkpt>
      <trkpt lat="48.3909" lon="-4.48457">
        <ele>56.4</ele>
        <time>2020-06-08T17:48:18Z</time>
      </trkpt>
      <trkpt lat="48.3909" lon="-4.48457">
        <ele>56.3</ele>
        <time>2020-06-08T17:48:19Z</time>
      </trkpt>
      <trkpt lat="48.3909" lon="-4.48456">
        <ele>56.3</ele>
        <time>2020-06-08T17:48:20Z</time>
      </trkpt>
      <trkpt lat="48.39089" lon="-4.48456">
        <ele>56.3</ele>
        <time>2020-06-08T17:48:21Z</time>
      </trkpt>
      <trkpt lat="48.39089" lon="-4.48457">
        <ele>56.3</ele>
        <time>2020-06-08T17:48:22Z</time>
      </trkpt>
      <trkpt lat="48.39089" lon="-4.48457">
        <ele>56.4</ele>
        <time>2020-06-08T17:48:23Z</time>
      </trkpt>
      <trkpt lat="48.39088" lon="-4.48457">
        <ele>56.3</ele>
        <time>2020-06-08T17:48:24Z</time>
      </trkpt>
      <trkpt lat="48.39088" lon="-4.48457">
        <ele>56.3</ele>
        <time>2020-06-08T17:48:25Z</time>
      </trkpt>
      <trkpt lat="48.39087" lon="-4.48457">
        <ele>56.3</ele>
        <time>2020-06-08T17:48:26Z</time>
      </trkpt>
      <trkpt lat="48.39087" lon="-4.48458">
        <ele>56.3</ele>
        <time>2020-06-08T17:48:27Z</time>
      </trkpt>
      <trkpt lat="48.39087" lon="-4.48457">
        <ele>56.3</ele>
        <time>2020-06-08T17:48:28Z</time>
      </trkpt>
      <trkpt lat="48.39088" lon="-4.48456">
        <ele>56.3</ele>
        <time>2020-06-08T17:48:29Z</time>
      </trkpt>
      <trkpt lat="48.39088" lon="-4.48457">
        <ele>56.3</ele>
        <time>2020-06-08T17:48:30Z</time>
      </trkpt>
      <trkpt lat="48.39087" lon="-4.48457">
        <ele>56.3</ele>
        <time>2020-06-08T17:48:31Z</time>
      </trkpt>
      <trkpt lat="48.39086" lon="-4.48458">
        <ele>56.3</ele>
        <time>2020-06-08T17:48:32Z</time>
      </trkpt>
      <trkpt lat="48.39087" lon="-4.48457">
        <ele>56.3</ele>
        <time>2020-06-08T17:48:33Z</time>
      </trkpt>
      <trkpt lat="48.39087" lon="-4.48457">
        <ele>56.3</ele>
        <time>2020-06-08T17:48:34Z</time>
      </trkpt>
      <trkpt lat="48.39086" lon="-4.48457">
        <ele>56.3</ele>
        <time>2020-06-08T17:48:35Z</time>
      </trkpt>
      <trkpt lat="48.39086" lon="-4.48458">
        <ele>56.3</ele>
        <time>2020-06-08T17:48:36Z</time>
      </trkpt>
      <trkpt lat="48.39086" lon="-4.48458">
        <ele>56.3</ele>
        <time>2020-06-08T17:48:37Z</time>
      </trkpt>
      <trkpt lat="48.39085" lon="-4.48459">
        <ele>56.3</ele>
        <time>2020-06-08T17:48:38Z</time>
      </trkpt>
      <trkpt lat="48.39085" lon="-4.48459">
        <ele>56.3</ele>
        <time>2020-06-08T17:48:39Z</time>
      </trkpt>
      <trkpt lat="48.39085" lon="-4.4846">
        <ele>56.3</ele>
        <time>2020-06-08T17:48:40Z</time>
      </trkpt>
      <trkpt lat="48.39084" lon="-4.48461">
        <ele>56.2</ele>
        <time>2020-06-08T17:48:41Z</time>
      </trkpt>
      <trkpt lat="48.39084" lon="-4.48462">
        <ele>56.2</ele>
        <time>2020-06-08T17:48:42Z</time>
      </trkpt>
      <trkpt lat="48.39083" lon="-4.48462">
        <ele>56.2</ele>
        <time>2020-06-08T17:48:43Z</time>
      </trkpt>
      <trkpt lat="48.39083" lon="-4.48463">
        <ele>56.2</ele>
        <time>2020-06-08T17:48:44Z</time>
      </trkpt>
      <trkpt lat="48.39083" lon="-4.48464">
        <ele>56.2</ele>
        <time>2020-06-08T17:48:45Z</time>
      </trkpt>
      <trkpt lat="48.39083" lon="-4.48464">
        <ele>56.2</ele>
        <time>2020-06-08T17:48:46Z</time>
      </trkpt>
      <trkpt lat="48.39083" lon="-4.48464">
        <ele>56.2</ele>
        <time>2020-06-08T17:48:47Z</time>
      </trkpt>
      <trkpt lat="48.39083" lon="-4.48465">
        <ele>56.2</ele>
        <time>2020-06-08T17:48:48Z</time>
      </trkpt>
      <trkpt lat="48.39083" lon="-4.48465">
        <ele>56.2</ele>
        <time>2020-06-08T17:48:49Z</time>
      </trkpt>
      <trkpt lat="48.39082" lon="-4.4846">
        <ele>56.2</ele>
        <time>2020-06-08T17:49:21Z</time>
      </trkpt>
      <trkpt lat="48.39082" lon="-4.48461">
        <ele>56.2</ele>
        <time>2020-06-08T17:49:22Z</time>
      </trkpt>
      <trkpt lat="48.39082" lon="-4.48462">
        <ele>56.2</ele>
        <time>2020-06-08T17:49:23Z</time>
      </trkpt>
      <trkpt lat="48.39081" lon="-4.48462">
        <ele>56.2</ele>
        <time>2020-06-08T17:49:24Z</time>
      </trkpt>
      <trkpt lat="48.3908" lon="-4.48462">
        <ele>56.1</ele>
        <time>2020-06-08T17:49:25Z</time>
      </trkpt>
      <trkpt lat="48.39079" lon="-4.48462">
        <ele>56.1</ele>
        <time>2020-06-08T17:49:26Z</time>
      </trkpt>
      <trkpt lat="48.39079" lon="-4.48463">
        <ele>56.1</ele>
        <time>2020-06-08T17:49:27Z</time>
      </trkpt>
      <trkpt lat="48.39078" lon="-4.48463">
        <ele>56.1</ele>
        <time>2020-06-08T17:49:28Z</time>
      </trkpt>
      <trkpt lat="48.39078" lon="-4.48463">
        <ele>56.1</ele>
        <time>2020-06-08T17:49:29Z</time>
      </trkpt>
      <trkpt lat="48.39078" lon="-4.48463">
        <ele>56.1</ele>
        <time>2020-06-08T17:49:30Z</time>
      </trkpt>
      <trkpt lat="48.39078" lon="-4.48462">
        <ele>56.1</ele>
        <time>2020-06-08T17:49:31Z</time>
      </trkpt>
      <trkpt lat="48.39074" lon="-4.48474">
        <ele>55.9</ele>
        <time>2020-06-08T17:53:50Z</time>
      </trkpt>
      <trkpt lat="48.39073" lon="-4.48473">
        <ele>55.9</ele>
        <time>2020-06-08T17:53:51Z</time>
      </trkpt>
      <trkpt lat="48.39073" lon="-4.48474">
        <ele>55.9</ele>
        <time>2020-06-08T17:53:52Z</time>
      </trkpt>
      <trkpt lat="48.39073" lon="-4.48476">
        <ele>55.9</ele>
        <time>2020-06-08T17:53:53Z</time>
      </trkpt>
      <trkpt lat="48.39072" lon="-4.48477">
        <ele>55.8</ele>
        <time>2020-06-08T17:53:54Z</time>
      </trkpt>
      <trkpt lat="48.3907" lon="-4.48477">
        <ele>55.8</ele>
        <time>2020-06-08T17:53:55Z</time>
      </trkpt>
      <trkpt lat="48.39069" lon="-4.48476">
        <ele>55.8</ele>
        <time>2020-06-08T17:53:56Z</time>
      </trkpt>
      <trkpt lat="48.39069" lon="-4.48475">
        <ele>55.8</ele>
        <time>2020-06-08T17:53:57Z</time>
      </trkpt>
      <trkpt lat="48.39068" lon="-4.48473">
        <ele>55.8</ele>
        <time>2020-06-08T17:53:58Z</time>
      </trkpt>
      <trkpt lat="48.39068" lon="-4.48472">
        <ele>55.8</ele>
        <time>2020-06-08T17:53:59Z</time>
      </trkpt>
      <trkpt lat="48.39068" lon="-4.48472">
        <ele>55.8</ele>
        <time>2020-06-08T17:54:00Z</time>
      </trkpt>
      <trkpt lat="48.39068" lon="-4.48471">
        <ele>55.8</ele>
        <time>2020-06-08T17:54:01Z</time>
      </trkpt>
      <trkpt lat="48.39068" lon="-4.48471">
        <ele>55.8</ele>
        <time>2020-06-08T17:54:02Z</time>
      </trkpt>
      <trkpt lat="48.39068" lon="-4.48472">
        <ele>55.8</ele>
        <time>2020-06-08T17:54:03Z</time>
      </trkpt>
      <trkpt lat="48.39067" lon="-4.48472">
        <ele>55.8</ele>
        <time>2020-06-08T17:54:04Z</time>
      </trkpt>
      <trkpt lat="48.39068" lon="-4.48473">
        <ele>55.8</ele>
        <time>2020-06-08T17:54:05Z</time>
      </trkpt>
      <trkpt lat="48.39067" lon="-4.48472">
        <ele>55.8</ele>
        <time>2020-06-08T17:54:06Z</time>
      </trkpt>
      <trkpt lat="48.39067" lon="-4.48472">
        <ele>55.8</ele>
        <time>2020-06-08T17:54:07Z</time>
      </trkpt>
      <trkpt lat="48.39067" lon="-4.48471">
        <ele>55.8</ele>
        <time>2020-06-08T17:54:08Z</time>
      </trkpt>
      <trkpt lat="48.39066" lon="-4.4847">
        <ele>55.8</ele>
        <time>2020-06-08T17:54:09Z</time>
      </trkpt>
      <trkpt lat="48.39066" lon="-4.4847">
        <ele>55.8</ele>
        <time>2020-06-08T17:54:10Z</time>
      </trkpt>
      <trkpt lat="48.39066" lon="-4.48469">
        <ele>55.8</ele>
        <time>2020-06-08T17:54:11Z</time>
      </trkpt>
      <trkpt lat="48.39077" lon="-4.48474">
        <ele>55.9</ele>
        <time>2020-06-08T17:56:30Z</time>
      </trkpt>
      <trkpt lat="48.39078" lon="-4.48477">
        <ele>55.9</ele>
        <time>2020-06-08T17:56:31Z</time>
      </trkpt>
      <trkpt lat="48.39079" lon="-4.4848">
        <ele>55.8</ele>
        <time>2020-06-08T17:56:32Z</time>
      </trkpt>
      <trkpt lat="48.3908" lon="-4.48481">
        <ele>55.8</ele>
        <time>2020-06-08T17:56:33Z</time>
      </trkpt>
      <trkpt lat="48.3908" lon="-4.48483">
        <ele>55.7</ele>
        <time>2020-06-08T17:56:34Z</time>
      </trkpt>
      <trkpt lat="48.39081" lon="-4.48486">
        <ele>55.7</ele>
        <time>2020-06-08T17:56:35Z</time>
      </trkpt>
      <trkpt lat="48.39081" lon="-4.4849">
        <ele>55.5</ele>
        <time>2020-06-08T17:56:36Z</time>
      </trkpt>
      <trkpt lat="48.39082" lon="-4.48492">
        <ele>55.4</ele>
        <time>2020-06-08T17:56:37Z</time>
      </trkpt>
      <trkpt lat="48.39083" lon="-4.48495">
        <ele>55.4</ele>
        <time>2020-06-08T17:56:38Z</time>
      </trkpt>
      <trkpt lat="48.39085" lon="-4.48499">
        <ele>55.2</ele>
        <time>2020-06-08T17:56:39Z</time>
      </trkpt>
      <trkpt lat="48.39086" lon="-4.48503">
        <ele>55</ele>
        <time>2020-06-08T17:56:40Z</time>
      </trkpt>
      <trkpt lat="48.39086" lon="-4.48505">
        <ele>54.7</ele>
        <time>2020-06-08T17:56:41Z</time>
      </trkpt>
      <trkpt lat="48.39086" lon="-4.48506">
        <ele>54.7</ele>
        <time>2020-06-08T17:56:42Z</time>
      </trkpt>
      <trkpt lat="48.39086" lon="-4.48508">
        <ele>54.8</ele>
        <time>2020-06-08T17:56:43Z</time>
      </trkpt>
      <trkpt lat="48.39086" lon="-4.48509">
        <ele>54.5</ele>
        <time>2020-06-08T17:56:44Z</time>
      </trkpt>
      <trkpt lat="48.39086" lon="-4.48508">
        <ele>54.4</ele>
        <time>2020-06-08T17:56:45Z</time>
      </trkpt>
      <trkpt lat="48.39085" lon="-4.48508">
        <ele>54.7</ele>
        <time>2020-06-08T17:56:46Z</time>
      </trkpt>
      <trkpt lat="48.39085" lon="-4.48508">
        <ele>54.7</ele>
        <time>2020-06-08T17:56:47Z</time>
      </trkpt>
      <trkpt lat="48.39085" lon="-4.48507">
        <ele>54.7</ele>
        <time>2020-06-08T17:56:48Z</time>
      </trkpt>
      <trkpt lat="48.39085" lon="-4.48507">
        <ele>54.7</ele>
        <time>2020-06-08T17:56:49Z</time>
      </trkpt>
      <trkpt lat="48.39085" lon="-4.48506">
        <ele>54.7</ele>
        <time>2020-06-08T17:56:50Z</time>
      </trkpt>
      <trkpt lat="48.39084" lon="-4.48506">
        <ele>54.7</ele>
        <time>2020-06-08T17:56:51Z</time>
      </trkpt>
      <trkpt lat="48.39084" lon="-4.48505">
        <ele>54.7</ele>
        <time>2020-06-08T17:56:52Z</time>
      </trkpt>
      <trkpt lat="48.39084" lon="-4.48505">
        <ele>54.7</ele>
        <time>2020-06-08T17:56:53Z</time>
      </trkpt>
      <trkpt lat="48.39084" lon="-4.48504">
        <ele>54.7</ele>
        <time>2020-06-08T17:56:54Z</time>
      </trkpt>
      <trkpt lat="48.39084" lon="-4.48504">
        <ele>54.9</ele>
        <time>2020-06-08T17:57:18Z</time>
      </trkpt>
      <trkpt lat="48.39083" lon="-4.48503">
        <ele>54.9</ele>
        <time>2020-06-08T17:57:19Z</time>
      </trkpt>
      <trkpt lat="48.39083" lon="-4.48503">
        <ele>54.9</ele>
        <time>2020-06-08T17:57:20Z</time>
      </trkpt>
      <trkpt lat="48.39085" lon="-4.48499">
        <ele>55.1</ele>
        <time>2020-06-08T17:57:21Z</time>
      </trkpt>
      <trkpt lat="48.39086" lon="-4.48498">
        <ele>55.2</ele>
        <time>2020-06-08T17:57:22Z</time>
      </trkpt>
      <trkpt lat="48.39089" lon="-4.48499">
        <ele>55.3</ele>
        <time>2020-06-08T17:57:23Z</time>
      </trkpt>
      <trkpt lat="48.39092" lon="-4.48501">
        <ele>55.1</ele>
        <time>2020-06-08T17:57:24Z</time>
      </trkpt>
      <trkpt lat="48.39092" lon="-4.48502">
        <ele>55.1</ele>
        <time>2020-06-08T17:57:25Z</time>
      </trkpt>
      <trkpt lat="48.39094" lon="-4.48502">
        <ele>55</ele>
        <time>2020-06-08T17:57:26Z</time>
      </trkpt>
      <trkpt lat="48.39094" lon="-4.48504">
        <ele>55</ele>
        <time>2020-06-08T17:57:27Z</time>
      </trkpt>
      <trkpt lat="48.39093" lon="-4.48506">
        <ele>54.9</ele>
        <time>2020-06-08T17:57:28Z</time>
      </trkpt>
      <trkpt lat="48.39092" lon="-4.48512">
        <ele>54.7</ele>
        <time>2020-06-08T17:57:29Z</time>
      </trkpt>
      <trkpt lat="48.39092" lon="-4.48514">
        <ele>54.7</ele>
        <time>2020-06-08T17:57:30Z</time>
      </trkpt>
      <trkpt lat="48.3909" lon="-4.4852">
        <ele>54.5</ele>
        <time>2020-06-08T17:57:31Z</time>
      </trkpt>
      <trkpt lat="48.3909" lon="-4.48528">
        <ele>54.3</ele>
        <time>2020-06-08T17:57:32Z</time>
      </trkpt>
      <trkpt lat="48.3909" lon="-4.48537">
        <ele>54</ele>
        <time>2020-06-08T17:57:33Z</time>
      </trkpt>
      <trkpt lat="48.39087" lon="-4.48546">
        <ele>53.7</ele>
        <time>2020-06-08T17:57:34Z</time>
      </trkpt>
      <trkpt lat="48.39084" lon="-4.48555">
        <ele>53.6</ele>
        <time>2020-06-08T17:57:35Z</time>
      </trkpt>
      <trkpt lat="48.39078" lon="-4.48563">
        <ele>53.2</ele>
        <time>2020-06-08T17:57:36Z</time>
      </trkpt>
      <trkpt lat="48.39072" lon="-4.4857">
        <ele>52.8</ele>
        <time>2020-06-08T17:57:37Z</time>
      </trkpt>
      <trkpt lat="48.39066" lon="-4.48578">
        <ele>52.4</ele>
        <time>2020-06-08T17:57:38Z</time>
      </trkpt>
      <trkpt lat="48.39061" lon="-4.48585">
        <ele>52.1</ele>
        <time>2020-06-08T17:57:39Z</time>
      </trkpt>
      <trkpt lat="48.39055" lon="-4.48593">
        <ele>51.8</ele>
        <time>2020-06-08T17:57:40Z</time>
      </trkpt>
      <trkpt lat="48.3905" lon="-4.486">
        <ele>51.8</ele>
        <time>2020-06-08T17:57:41Z</time>
      </trkpt>
      <trkpt lat="48.39046" lon="-4.48609">
        <ele>51.8</ele>
        <time>2020-06-08T17:57:42Z</time>
      </trkpt>
      <trkpt lat="48.39042" lon="-4.48617">
        <ele>51.8</ele>
        <time>2020-06-08T17:57:43Z</time>
      </trkpt>
      <trkpt lat="48.39038" lon="-4.48622">
        <ele>51.6</ele>
        <time>2020-06-08T17:57:44Z</time>
      </trkpt>
      <trkpt lat="48.39036" lon="-4.48627">
        <ele>51.5</ele>
        <time>2020-06-08T17:57:45Z</time>
      </trkpt>
      <trkpt lat="48.39033" lon="-4.48631">
        <ele>51.4</ele>
        <time>2020-06-08T17:57:46Z</time>
      </trkpt>
      <trkpt lat="48.3903" lon="-4.48635">
        <ele>51.3</ele>
        <time>2020-06-08T17:57:47Z</time>
      </trkpt>
      <trkpt lat="48.39025" lon="-4.4864">
        <ele>51.2</ele>
        <time>2020-06-08T17:57:48Z</time>
      </trkpt>
      <trkpt lat="48.3902" lon="-4.48643">
        <ele>51</ele>
        <time>2020-06-08T17:57:49Z</time>
      </trkpt>
      <trkpt lat="48.39017" lon="-4.48649">
        <ele>50.9</ele>
        <time>2020-06-08T17:57:50Z</time>
      </trkpt>
      <trkpt lat="48.39015" lon="-4.48653">
        <ele>50.8</ele>
        <time>2020-06-08T17:57:51Z</time>
      </trkpt>
      <trkpt lat="48.39014" lon="-4.48659">
        <ele>50.4</ele>
        <time>2020-06-08T17:57:52Z</time>
      </trkpt>
      <trkpt lat="48.39013" lon="-4.48664">
        <ele>50.4</ele>
        <time>2020-06-08T17:57:53Z</time>
      </trkpt>
      <trkpt lat="48.39013" lon="-4.4867">
        <ele>50.4</ele>
        <time>2020-06-08T17:57:54Z</time>
      </trkpt>
      <trkpt lat="48.39012" lon="-4.48672">
        <ele>50.5</ele>
        <time>2020-06-08T17:57:55Z</time>
      </trkpt>
      <trkpt lat="48.39012" lon="-4.48677">
        <ele>50.5</ele>
        <time>2020-06-08T17:57:56Z</time>
      </trkpt>
      <trkpt lat="48.39012" lon="-4.48682">
        <ele>50.5</ele>
        <time>2020-06-08T17:57:57Z</time>
      </trkpt>
      <trkpt lat="48.39011" lon="-4.48683">
        <ele>50.5</ele>
        <time>2020-06-08T17:57:58Z</time>
      </trkpt>
      <trkpt lat="48.39012" lon="-4.48684">
        <ele>50.5</ele>
        <time>2020-06-08T17:57:59Z</time>
      </trkpt>
      <trkpt lat="48.39012" lon="-4.48684">
        <ele>50.5</ele>
        <time>2020-06-08T17:58:00Z</time>
      </trkpt>
      <trkpt lat="48.39012" lon="-4.48683">
        <ele>50.5</ele>
        <time>2020-06-08T17:58:01Z</time>
      </trkpt>
      <trkpt lat="48.39011" lon="-4.48683">
        <ele>50.5</ele>
        <time>2020-06-08T17:58:02Z</time>
      </trkpt>
      <trkpt lat="48.39011" lon="-4.48683">
        <ele>50.5</ele>
        <time>2020-06-08T17:58:03Z</time>
      </trkpt>
      <trkpt lat="48.39011" lon="-4.48683">
        <ele>50.5</ele>
        <time>2020-06-08T17:58:04Z</time>
      </trkpt>
      <trkpt lat="48.39011" lon="-4.48683">
        <ele>50.5</ele>
        <time>2020-06-08T17:58:05Z</time>
      </trkpt>
      <trkpt lat="48.39011" lon="-4.48684">
        <ele>50.5</ele>
        <time>2020-06-08T17:58:06Z</time>
      </trkpt>
      <trkpt lat="48.3901" lon="-4.48684">
        <ele>50.6</ele>
        <time>2020-06-08T17:58:07Z</time>
      </trkpt>
      <trkpt lat="48.39009" lon="-4.48685">
        <ele>50.6</ele>
        <time>2020-06-08T17:58:08Z</time>
      </trkpt>
      <trkpt lat="48.39009" lon="-4.48685">
        <ele>50.6</ele>
        <time>2020-06-08T17:58:09Z</time>
      </trkpt>
      <trkpt lat="48.39009" lon="-4.48692">
        <ele>50.6</ele>
        <time>2020-06-08T17:58:14Z</time>
      </trkpt>
      <trkpt lat="48.39009" lon="-4.48695">
        <ele>50.6</ele>
        <time>2020-06-08T17:58:15Z</time>
      </trkpt>
      <trkpt lat="48.39008" lon="-4.487">
        <ele>50.5</ele>
        <time>2020-06-08T17:58:16Z</time>
      </trkpt>
      <trkpt lat="48.39008" lon="-4.48702">
        <ele>50.5</ele>
        <time>2020-06-08T17:58:17Z</time>
      </trkpt>
      <trkpt lat="48.3901" lon="-4.48705">
        <ele>50.5</ele>
        <time>2020-06-08T17:58:18Z</time>
      </trkpt>
      <trkpt lat="48.39011" lon="-4.48708">
        <ele>50.4</ele>
        <time>2020-06-08T17:58:19Z</time>
      </trkpt>
      <trkpt lat="48.39013" lon="-4.48707">
        <ele>50.6</ele>
        <time>2020-06-08T17:58:20Z</time>
      </trkpt>
      <trkpt lat="48.39017" lon="-4.48705">
        <ele>51</ele>
        <time>2020-06-08T17:58:21Z</time>
      </trkpt>
      <trkpt lat="48.39018" lon="-4.48705">
        <ele>51.1</ele>
        <time>2020-06-08T17:58:22Z</time>
      </trkpt>
      <trkpt lat="48.39021" lon="-4.48704">
        <ele>51.3</ele>
        <time>2020-06-08T17:58:23Z</time>
      </trkpt>
      <trkpt lat="48.39023" lon="-4.48702">
        <ele>51.5</ele>
        <time>2020-06-08T17:58:24Z</time>
      </trkpt>
      <trkpt lat="48.39027" lon="-4.48701">
        <ele>51.7</ele>
        <time>2020-06-08T17:58:25Z</time>
      </trkpt>
      <trkpt lat="48.39028" lon="-4.48701">
        <ele>51.7</ele>
        <time>2020-06-08T17:58:26Z</time>
      </trkpt>
      <trkpt lat="48.3903" lon="-4.48698">
        <ele>51.9</ele>
        <time>2020-06-08T17:58:27Z</time>
      </trkpt>
      <trkpt lat="48.39031" lon="-4.48698">
        <ele>51.9</ele>
        <time>2020-06-08T17:58:28Z</time>
      </trkpt>
      <trkpt lat="48.39033" lon="-4.48697">
        <ele>52</ele>
        <time>2020-06-08T17:58:29Z</time>
      </trkpt>
      <trkpt lat="48.39034" lon="-4.48697">
        <ele>52.1</ele>
        <time>2020-06-08T17:58:30Z</time>
      </trkpt>
      <trkpt lat="48.39035" lon="-4.48697">
        <ele>52.2</ele>
        <time>2020-06-08T17:58:31Z</time>
      </trkpt>
      <trkpt lat="48.39037" lon="-4.487">
        <ele>52.3</ele>
        <time>2020-06-08T17:58:32Z</time>
      </trkpt>
      <trkpt lat="48.39038" lon="-4.48701">
        <ele>52.3</ele>
        <time>2020-06-08T17:58:33Z</time>
      </trkpt>
      <trkpt lat="48.39039" lon="-4.48704">
        <ele>52.5</ele>
        <time>2020-06-08T17:58:34Z</time>
      </trkpt>
      <trkpt lat="48.3904" lon="-4.48705">
        <ele>52.5</ele>
        <time>2020-06-08T17:58:35Z</time>
      </trkpt>
      <trkpt lat="48.39041" lon="-4.48705">
        <ele>52.6</ele>
        <time>2020-06-08T17:58:36Z</time>
      </trkpt>
      <trkpt lat="48.39042" lon="-4.48705">
        <ele>52.7</ele>
        <time>2020-06-08T17:58:37Z</time>
      </trkpt>
      <trkpt lat="48.39044" lon="-4.48704">
        <ele>52.7</ele>
        <time>2020-06-08T17:58:38Z</time>
      </trkpt>
      <trkpt lat="48.39045" lon="-4.48704">
        <ele>52.8</ele>
        <time>2020-06-08T17:58:40Z</time>
      </trkpt>
      <trkpt lat="48.39046" lon="-4.48705">
        <ele>52.9</ele>
        <time>2020-06-08T17:58:41Z</time>
      </trkpt>
      <trkpt lat="48.39048" lon="-4.48705">
        <ele>53</ele>
        <time>2020-06-08T17:58:42Z</time>
      </trkpt>
      <trkpt lat="48.39049" lon="-4.48704">
        <ele>53.2</ele>
        <time>2020-06-08T17:58:43Z</time>
      </trkpt>
      <trkpt lat="48.3905" lon="-4.48703">
        <ele>53.2</ele>
        <time>2020-06-08T17:58:44Z</time>
      </trkpt>
      <trkpt lat="48.39051" lon="-4.48703">
        <ele>53.2</ele>
        <time>2020-06-08T17:58:45Z</time>
      </trkpt>
      <trkpt lat="48.39051" lon="-4.48701">
        <ele>53.2</ele>
        <time>2020-06-08T17:58:46Z</time>
      </trkpt>
      <trkpt lat="48.39051" lon="-4.48701">
        <ele>53.2</ele>
        <time>2020-06-08T17:58:47Z</time>
      </trkpt>
      <trkpt lat="48.39052" lon="-4.48702">
        <ele>53.2</ele>
        <time>2020-06-08T17:58:48Z</time>
      </trkpt>
      <trkpt lat="48.39052" lon="-4.48702">
        <ele>53.2</ele>
        <time>2020-06-08T17:58:49Z</time>
      </trkpt>
      <trkpt lat="48.39052" lon="-4.48701">
        <ele>53.2</ele>
        <time>2020-06-08T17:58:50Z</time>
      </trkpt>
      <trkpt lat="48.39052" lon="-4.48701">
        <ele>53.2</ele>
        <time>2020-06-08T17:58:51Z</time>
      </trkpt>
      <trkpt lat="48.39052" lon="-4.48701">
        <ele>53.2</ele>
        <time>2020-06-08T17:58:52Z</time>
      </trkpt>
      <trkpt lat="48.39052" lon="-4.48701">
        <ele>53.2</ele>
        <time>2020-06-08T17:58:53Z</time>
      </trkpt>
      <trkpt lat="48.39053" lon="-4.48701">
        <ele>53.2</ele>
        <time>2020-06-08T17:58:54Z</time>
      </trkpt>
      <trkpt lat="48.39053" lon="-4.48702">
        <ele>53.2</ele>
        <time>2020-06-08T17:58:55Z</time>
      </trkpt>
      <trkpt lat="48.39054" lon="-4.48703">
        <ele>53.2</ele>
        <time>2020-06-08T17:58:56Z</time>
      </trkpt>
      <trkpt lat="48.39054" lon="-4.48704">
        <ele>53.2</ele>
        <time>2020-06-08T17:58:57Z</time>
      </trkpt>
      <trkpt lat="48.39056" lon="-4.48705">
        <ele>53.2</ele>
        <time>2020-06-08T17:58:58Z</time>
      </trkpt>
      <trkpt lat="48.39058" lon="-4.48708">
        <ele>53.2</ele>
        <time>2020-06-08T17:58:59Z</time>
      </trkpt>
      <trkpt lat="48.39058" lon="-4.4871">
        <ele>53.1</ele>
        <time>2020-06-08T17:59:00Z</time>
      </trkpt>
      <trkpt lat="48.39062" lon="-4.48712">
        <ele>53.2</ele>
        <time>2020-06-08T17:59:01Z</time>
      </trkpt>
      <trkpt lat="48.39064" lon="-4.48714">
        <ele>53.2</ele>
        <time>2020-06-08T17:59:02Z</time>
      </trkpt>
      <trkpt lat="48.39065" lon="-4.48717">
        <ele>53.2</ele>
        <time>2020-06-08T17:59:03Z</time>
      </trkpt>
      <trkpt lat="48.39069" lon="-4.4872">
        <ele>53.3</ele>
        <time>2020-06-08T17:59:04Z</time>
      </trkpt>
      <trkpt lat="48.3907" lon="-4.48721">
        <ele>53.3</ele>
        <time>2020-06-08T17:59:05Z</time>
      </trkpt>
      <trkpt lat="48.39072" lon="-4.48725">
        <ele>53.3</ele>
        <time>2020-06-08T17:59:06Z</time>
      </trkpt>
      <trkpt lat="48.39074" lon="-4.48729">
        <ele>53.3</ele>
        <time>2020-06-08T17:59:07Z</time>
      </trkpt>
      <trkpt lat="48.39077" lon="-4.48732">
        <ele>53.5</ele>
        <time>2020-06-08T17:59:08Z</time>
      </trkpt>
      <trkpt lat="48.39079" lon="-4.48736">
        <ele>53.5</ele>
        <time>2020-06-08T17:59:09Z</time>
      </trkpt>
      <trkpt lat="48.39081" lon="-4.48739">
        <ele>53.6</ele>
        <time>2020-06-08T17:59:10Z</time>
      </trkpt>
      <trkpt lat="48.39083" lon="-4.48743">
        <ele>53.6</ele>
        <time>2020-06-08T17:59:11Z</time>
      </trkpt>
      <trkpt lat="48.39085" lon="-4.48746">
        <ele>53.7</ele>
        <time>2020-06-08T17:59:12Z</time>
      </trkpt>
      <trkpt lat="48.39087" lon="-4.4875">
        <ele>53.7</ele>
        <time>2020-06-08T17:59:13Z</time>
      </trkpt>
      <trkpt lat="48.39089" lon="-4.48755">
        <ele>53.8</ele>
        <time>2020-06-08T17:59:14Z</time>
      </trkpt>
      <trkpt lat="48.3909" lon="-4.48757">
        <ele>53.8</ele>
        <time>2020-06-08T17:59:15Z</time>
      </trkpt>
      <trkpt lat="48.39091" lon="-4.48761">
        <ele>53.8</ele>
        <time>2020-06-08T17:59:16Z</time>
      </trkpt>
      <trkpt lat="48.39093" lon="-4.48765">
        <ele>53.8</ele>
        <time>2020-06-08T17:59:17Z</time>
      </trkpt>
      <trkpt lat="48.39095" lon="-4.48769">
        <ele>53.9</ele>
        <time>2020-06-08T17:59:18Z</time>
      </trkpt>
      <trkpt lat="48.39095" lon="-4.48771">
        <ele>53.9</ele>
        <time>2020-06-08T17:59:19Z</time>
      </trkpt>
      <trkpt lat="48.39099" lon="-4.48772">
        <ele>53.9</ele>
        <time>2020-06-08T17:59:20Z</time>
      </trkpt>
      <trkpt lat="48.391" lon="-4.48776">
        <ele>54</ele>
        <time>2020-06-08T17:59:21Z</time>
      </trkpt>
      <trkpt lat="48.39103" lon="-4.48779">
        <ele>54</ele>
        <time>2020-06-08T17:59:22Z</time>
      </trkpt>
      <trkpt lat="48.39106" lon="-4.48783">
        <ele>54.1</ele>
        <time>2020-06-08T17:59:23Z</time>
      </trkpt>
      <trkpt lat="48.39109" lon="-4.48788">
        <ele>54.2</ele>
        <time>2020-06-08T17:59:24Z</time>
      </trkpt>
      <trkpt lat="48.39113" lon="-4.48792">
        <ele>54.2</ele>
        <time>2020-06-08T17:59:25Z</time>
      </trkpt>
      <trkpt lat="48.39117" lon="-4.48793">
        <ele>54.3</ele>
        <time>2020-06-08T17:59:26Z</time>
      </trkpt>
      <trkpt lat="48.3912" lon="-4.48795">
        <ele>54.4</ele>
        <time>2020-06-08T17:59:27Z</time>
      </trkpt>
      <trkpt lat="48.39122" lon="-4.48798">
        <ele>54.4</ele>
        <time>2020-06-08T17:59:28Z</time>
      </trkpt>
      <trkpt lat="48.39125" lon="-4.48803">
        <ele>54.5</ele>
        <time>2020-06-08T17:59:29Z</time>
      </trkpt>
      <trkpt lat="48.39126" lon="-4.48805">
        <ele>54.5</ele>
        <time>2020-06-08T17:59:30Z</time>
      </trkpt>
      <trkpt lat="48.39128" lon="-4.4881">
        <ele>54.4</ele>
        <time>2020-06-08T17:59:31Z</time>
      </trkpt>
      <trkpt lat="48.39128" lon="-4.48811">
        <ele>54.4</ele>
        <time>2020-06-08T17:59:32Z</time>
      </trkpt>
      <trkpt lat="48.39131" lon="-4.48814">
        <ele>54.3</ele>
        <time>2020-06-08T17:59:33Z</time>
      </trkpt>
      <trkpt lat="48.39132" lon="-4.4882">
        <ele>54.3</ele>
        <time>2020-06-08T17:59:34Z</time>
      </trkpt>
      <trkpt lat="48.39134" lon="-4.48825">
        <ele>54</ele>
        <time>2020-06-08T17:59:35Z</time>
      </trkpt>
      <trkpt lat="48.39133" lon="-4.48827">
        <ele>54</ele>
        <time>2020-06-08T17:59:36Z</time>
      </trkpt>
      <trkpt lat="48.39134" lon="-4.4883">
        <ele>54.1</ele>
        <time>2020-06-08T17:59:37Z</time>
      </trkpt>
      <trkpt lat="48.39136" lon="-4.48834">
        <ele>54.2</ele>
        <time>2020-06-08T17:59:38Z</time>
      </trkpt>
      <trkpt lat="48.39138" lon="-4.48835">
        <ele>54.2</ele>
        <time>2020-06-08T17:59:39Z</time>
      </trkpt>
      <trkpt lat="48.39138" lon="-4.48837">
        <ele>54.3</ele>
        <time>2020-06-08T17:59:40Z</time>
      </trkpt>
      <trkpt lat="48.39138" lon="-4.48838">
        <ele>54.3</ele>
        <time>2020-06-08T17:59:41Z</time>
      </trkpt>
      <trkpt lat="48.39138" lon="-4.48839">
        <ele>54.3</ele>
        <time>2020-06-08T17:59:42Z</time>
      </trkpt>
      <trkpt lat="48.39139" lon="-4.48843">
        <ele>54.4</ele>
        <time>2020-06-08T17:59:43Z</time>
      </trkpt>
      <trkpt lat="48.39141" lon="-4.48844">
        <ele>54.5</ele>
        <time>2020-06-08T17:59:44Z</time>
      </trkpt>
      <trkpt lat="48.39143" lon="-4.48843">
        <ele>54.4</ele>
        <time>2020-06-08T17:59:45Z</time>
      </trkpt>
      <trkpt lat="48.39146" lon="-4.48847">
        <ele>54.3</ele>
        <time>2020-06-08T17:59:46Z</time>
      </trkpt>
      <trkpt lat="48.39146" lon="-4.48848">
        <ele>54.3</ele>
        <time>2020-06-08T17:59:47Z</time>
      </trkpt>
      <trkpt lat="48.39147" lon="-4.48851">
        <ele>54.3</ele>
        <time>2020-06-08T17:59:48Z</time>
      </trkpt>
      <trkpt lat="48.39147" lon="-4.48853">
        <ele>54.3</ele>
        <time>2020-06-08T17:59:49Z</time>
      </trkpt>
      <trkpt lat="48.3915" lon="-4.48856">
        <ele>54.2</ele>
        <time>2020-06-08T17:59:50Z</time>
      </trkpt>
      <trkpt lat="48.39151" lon="-4.48856">
        <ele>54.2</ele>
        <time>2020-06-08T17:59:51Z</time>
      </trkpt>
      <trkpt lat="48.39153" lon="-4.48855">
        <ele>54.1</ele>
        <time>2020-06-08T17:59:52Z</time>
      </trkpt>
      <trkpt lat="48.39154" lon="-4.48855">
        <ele>54.1</ele>
        <time>2020-06-08T17:59:53Z</time>
      </trkpt>
      <trkpt lat="48.39157" lon="-4.48853">
        <ele>54</ele>
        <time>2020-06-08T17:59:54Z</time>
      </trkpt>
      <trkpt lat="48.39159" lon="-4.48852">
        <ele>54</ele>
        <time>2020-06-08T17:59:55Z</time>
      </trkpt>
      <trkpt lat="48.3916" lon="-4.4885">
        <ele>53.9</ele>
        <time>2020-06-08T17:59:56Z</time>
      </trkpt>
      <trkpt lat="48.39163" lon="-4.48852">
        <ele>53.9</ele>
        <time>2020-06-08T17:59:57Z</time>
      </trkpt>
      <trkpt lat="48.39165" lon="-4.48856">
        <ele>53.8</ele>
        <time>2020-06-08T17:59:58Z</time>
      </trkpt>
      <trkpt lat="48.39166" lon="-4.4886">
        <ele>53.7</ele>
        <time>2020-06-08T17:59:59Z</time>
      </trkpt>
      <trkpt lat="48.39168" lon="-4.48865">
        <ele>53.6</ele>
        <time>2020-06-08T18:00:00Z</time>
      </trkpt>
      <trkpt lat="48.39169" lon="-4.48867">
        <ele>53.6</ele>
        <time>2020-06-08T18:00:01Z</time>
      </trkpt>
      <trkpt lat="48.39171" lon="-4.48873">
        <ele>53.4</ele>
        <time>2020-06-08T18:00:02Z</time>
      </trkpt>
      <trkpt lat="48.39172" lon="-4.48875">
        <ele>53.4</ele>
        <time>2020-06-08T18:00:03Z</time>
      </trkpt>
      <trkpt lat="48.39173" lon="-4.48881">
        <ele>53.2</ele>
        <time>2020-06-08T18:00:04Z</time>
      </trkpt>
      <trkpt lat="48.39178" lon="-4.48892">
        <ele>52.8</ele>
        <time>2020-06-08T18:00:05Z</time>
      </trkpt>
      <trkpt lat="48.39181" lon="-4.48897">
        <ele>52.6</ele>
        <time>2020-06-08T18:00:06Z</time>
      </trkpt>
      <trkpt lat="48.39185" lon="-4.48906">
        <ele>52.3</ele>
        <time>2020-06-08T18:00:07Z</time>
      </trkpt>
      <trkpt lat="48.39189" lon="-4.48912">
        <ele>52.1</ele>
        <time>2020-06-08T18:00:08Z</time>
      </trkpt>
      <trkpt lat="48.39192" lon="-4.48917">
        <ele>51.9</ele>
        <time>2020-06-08T18:00:09Z</time>
      </trkpt>
      <trkpt lat="48.39195" lon="-4.48924">
        <ele>51.7</ele>
        <time>2020-06-08T18:00:10Z</time>
      </trkpt>
      <trkpt lat="48.39198" lon="-4.48932">
        <ele>51.4</ele>
        <time>2020-06-08T18:00:11Z</time>
      </trkpt>
      <trkpt lat="48.39201" lon="-4.4894">
        <ele>51.1</ele>
        <time>2020-06-08T18:00:12Z</time>
      </trkpt>
      <trkpt lat="48.39204" lon="-4.48946">
        <ele>50.9</ele>
        <time>2020-06-08T18:00:13Z</time>
      </trkpt>
      <trkpt lat="48.39209" lon="-4.48955">
        <ele>50.6</ele>
        <time>2020-06-08T18:00:14Z</time>
      </trkpt>
      <trkpt lat="48.39212" lon="-4.48962">
        <ele>50.4</ele>
        <time>2020-06-08T18:00:15Z</time>
      </trkpt>
      <trkpt lat="48.39214" lon="-4.48969">
        <ele>50.2</ele>
        <time>2020-06-08T18:00:16Z</time>
      </trkpt>
      <trkpt lat="48.39216" lon="-4.48975">
        <ele>50</ele>
        <time>2020-06-08T18:00:17Z</time>
      </trkpt>
      <trkpt lat="48.39219" lon="-4.48981">
        <ele>49.8</ele>
        <time>2020-06-08T18:00:18Z</time>
      </trkpt>
      <trkpt lat="48.39221" lon="-4.48987">
        <ele>49.6</ele>
        <time>2020-06-08T18:00:19Z</time>
      </trkpt>
      <trkpt lat="48.39226" lon="-4.48995">
        <ele>49.4</ele>
        <time>2020-06-08T18:00:20Z</time>
      </trkpt>
      <trkpt lat="48.39228" lon="-4.49003">
        <ele>49.2</ele>
        <time>2020-06-08T18:00:21Z</time>
      </trkpt>
      <trkpt lat="48.39232" lon="-4.49009">
        <ele>49</ele>
        <time>2020-06-08T18:00:22Z</time>
      </trkpt>
      <trkpt lat="48.39235" lon="-4.49016">
        <ele>48.6</ele>
        <time>2020-06-08T18:00:23Z</time>
      </trkpt>
      <trkpt lat="48.39238" lon="-4.49022">
        <ele>48.4</ele>
        <time>2020-06-08T18:00:24Z</time>
      </trkpt>
      <trkpt lat="48.39241" lon="-4.49029">
        <ele>48.3</ele>
        <time>2020-06-08T18:00:25Z</time>
      </trkpt>
      <trkpt lat="48.39246" lon="-4.49032">
        <ele>48</ele>
        <time>2020-06-08T18:00:26Z</time>
      </trkpt>
      <trkpt lat="48.3925" lon="-4.49037">
        <ele>47.8</ele>
        <time>2020-06-08T18:00:27Z</time>
      </trkpt>
      <trkpt lat="48.39254" lon="-4.49042">
        <ele>47.6</ele>
        <time>2020-06-08T18:00:28Z</time>
      </trkpt>
      <trkpt lat="48.3926" lon="-4.4905">
        <ele>47.3</ele>
        <time>2020-06-08T18:00:29Z</time>
      </trkpt>
      <trkpt lat="48.39264" lon="-4.49058">
        <ele>47</ele>
        <time>2020-06-08T18:00:30Z</time>
      </trkpt>
      <trkpt lat="48.39268" lon="-4.49065">
        <ele>46.8</ele>
        <time>2020-06-08T18:00:31Z</time>
      </trkpt>
      <trkpt lat="48.39272" lon="-4.49072">
        <ele>46.7</ele>
        <time>2020-06-08T18:00:32Z</time>
      </trkpt>
      <trkpt lat="48.39276" lon="-4.4908">
        <ele>46.4</ele>
        <time>2020-06-08T18:00:33Z</time>
      </trkpt>
      <trkpt lat="48.39279" lon="-4.4909">
        <ele>46.2</ele>
        <time>2020-06-08T18:00:34Z</time>
      </trkpt>
      <trkpt lat="48.39283" lon="-4.49099">
        <ele>46</ele>
        <time>2020-06-08T18:00:35Z</time>
      </trkpt>
      <trkpt lat="48.39287" lon="-4.49108">
        <ele>45.7</ele>
        <time>2020-06-08T18:00:36Z</time>
      </trkpt>
      <trkpt lat="48.39291" lon="-4.49117">
        <ele>45.4</ele>
        <time>2020-06-08T18:00:37Z</time>
      </trkpt>
      <trkpt lat="48.39296" lon="-4.49125">
        <ele>44.8</ele>
        <time>2020-06-08T18:00:38Z</time>
      </trkpt>
      <trkpt lat="48.39301" lon="-4.49135">
        <ele>44.2</ele>
        <time>2020-06-08T18:00:39Z</time>
      </trkpt>
      <trkpt lat="48.39306" lon="-4.49146">
        <ele>43.5</ele>
        <time>2020-06-08T18:00:40Z</time>
      </trkpt>
      <trkpt lat="48.39311" lon="-4.49157">
        <ele>42.8</ele>
        <time>2020-06-08T18:00:41Z</time>
      </trkpt>
      <trkpt lat="48.39316" lon="-4.49166">
        <ele>42.1</ele>
        <time>2020-06-08T18:00:42Z</time>
      </trkpt>
      <trkpt lat="48.3932" lon="-4.49174">
        <ele>41.6</ele>
        <time>2020-06-08T18:00:43Z</time>
      </trkpt>
      <trkpt lat="48.39324" lon="-4.49182">
        <ele>41.1</ele>
        <time>2020-06-08T18:00:44Z</time>
      </trkpt>
      <trkpt lat="48.39328" lon="-4.4919">
        <ele>40.7</ele>
        <time>2020-06-08T18:00:45Z</time>
      </trkpt>
      <trkpt lat="48.39332" lon="-4.49197">
        <ele>40.3</ele>
        <time>2020-06-08T18:00:46Z</time>
      </trkpt>
      <trkpt lat="48.39336" lon="-4.49204">
        <ele>40</ele>
        <time>2020-06-08T18:00:47Z</time>
      </trkpt>
      <trkpt lat="48.3934" lon="-4.4921">
        <ele>39.8</ele>
        <time>2020-06-08T18:00:48Z</time>
      </trkpt>
      <trkpt lat="48.39343" lon="-4.49215">
        <ele>39.6</ele>
        <time>2020-06-08T18:00:49Z</time>
      </trkpt>
      <trkpt lat="48.39346" lon="-4.49221">
        <ele>39.5</ele>
        <time>2020-06-08T18:00:50Z</time>
      </trkpt>
      <trkpt lat="48.39348" lon="-4.49226">
        <ele>39.3</ele>
        <time>2020-06-08T18:00:51Z</time>
      </trkpt>
      <trkpt lat="48.3935" lon="-4.49231">
        <ele>39.2</ele>
        <time>2020-06-08T18:00:52Z</time>
      </trkpt>
      <trkpt lat="48.39353" lon="-4.49235">
        <ele>39.1</ele>
        <time>2020-06-08T18:00:53Z</time>
      </trkpt>
      <trkpt lat="48.3936" lon="-4.49233">
        <ele>39.1</ele>
        <time>2020-06-08T18:00:54Z</time>
      </trkpt>
      <trkpt lat="48.39363" lon="-4.49237">
        <ele>39</ele>
        <time>2020-06-08T18:00:55Z</time>
      </trkpt>
      <trkpt lat="48.39365" lon="-4.49241">
        <ele>39</ele>
        <time>2020-06-08T18:00:56Z</time>
      </trkpt>
      <trkpt lat="48.39368" lon="-4.49245">
        <ele>39</ele>
        <time>2020-06-08T18:00:57Z</time>
      </trkpt>
      <trkpt lat="48.39369" lon="-4.4925">
        <ele>38.9</ele>
        <time>2020-06-08T18:00:58Z</time>
      </trkpt>
      <trkpt lat="48.39372" lon="-4.49256">
        <ele>38.9</ele>
        <time>2020-06-08T18:00:59Z</time>
      </trkpt>
      <trkpt lat="48.39374" lon="-4.4926">
        <ele>38.9</ele>
        <time>2020-06-08T18:01:00Z</time>
      </trkpt>
      <trkpt lat="48.39376" lon="-4.49266">
        <ele>38.8</ele>
        <time>2020-06-08T18:01:01Z</time>
      </trkpt>
      <trkpt lat="48.39378" lon="-4.49272">
        <ele>38.8</ele>
        <time>2020-06-08T18:01:02Z</time>
      </trkpt>
      <trkpt lat="48.3938" lon="-4.49277">
        <ele>38.8</ele>
        <time>2020-06-08T18:01:03Z</time>
      </trkpt>
      <trkpt lat="48.39382" lon="-4.49283">
        <ele>38.8</ele>
        <time>2020-06-08T18:01:04Z</time>
      </trkpt>
      <trkpt lat="48.39385" lon="-4.49287">
        <ele>38.8</ele>
        <time>2020-06-08T18:01:05Z</time>
      </trkpt>
      <trkpt lat="48.39389" lon="-4.49291">
        <ele>38.7</ele>
        <time>2020-06-08T18:01:06Z</time>
      </trkpt>
      <trkpt lat="48.39392" lon="-4.49295">
        <ele>38.6</ele>
        <time>2020-06-08T18:01:07Z</time>
      </trkpt>
      <trkpt lat="48.39395" lon="-4.49299">
        <ele>38.5</ele>
        <time>2020-06-08T18:01:08Z</time>
      </trkpt>
      <trkpt lat="48.39397" lon="-4.49304">
        <ele>38.4</ele>
        <time>2020-06-08T18:01:09Z</time>
      </trkpt>
      <trkpt lat="48.394" lon="-4.49308">
        <ele>38.3</ele>
        <time>2020-06-08T18:01:10Z</time>
      </trkpt>
      <trkpt lat="48.39402" lon="-4.49313">
        <ele>38.2</ele>
        <time>2020-06-08T18:01:11Z</time>
      </trkpt>
      <trkpt lat="48.39403" lon="-4.49319">
        <ele>38.2</ele>
        <time>2020-06-08T18:01:12Z</time>
      </trkpt>
      <trkpt lat="48.39405" lon="-4.49325">
        <ele>38.2</ele>
        <time>2020-06-08T18:01:13Z</time>
      </trkpt>
      <trkpt lat="48.39406" lon="-4.49331">
        <ele>38.2</ele>
        <time>2020-06-08T18:01:14Z</time>
      </trkpt>
      <trkpt lat="48.39408" lon="-4.49336">
        <ele>38.2</ele>
        <time>2020-06-08T18:01:15Z</time>
      </trkpt>
      <trkpt lat="48.3941" lon="-4.49341">
        <ele>38.2</ele>
        <time>2020-06-08T18:01:16Z</time>
      </trkpt>
      <trkpt lat="48.39412" lon="-4.49346">
        <ele>38.2</ele>
        <time>2020-06-08T18:01:17Z</time>
      </trkpt>
      <trkpt lat="48.39415" lon="-4.49351">
        <ele>38.1</ele>
        <time>2020-06-08T18:01:18Z</time>
      </trkpt>
      <trkpt lat="48.39415" lon="-4.49356">
        <ele>38.1</ele>
        <time>2020-06-08T18:01:19Z</time>
      </trkpt>
      <trkpt lat="48.39414" lon="-4.49362">
        <ele>38</ele>
        <time>2020-06-08T18:01:20Z</time>
      </trkpt>
      <trkpt lat="48.39412" lon="-4.49368">
        <ele>38</ele>
        <time>2020-06-08T18:01:21Z</time>
      </trkpt>
      <trkpt lat="48.3941" lon="-4.49373">
        <ele>38.1</ele>
        <time>2020-06-08T18:01:22Z</time>
      </trkpt>
      <trkpt lat="48.39409" lon="-4.49379">
        <ele>38.1</ele>
        <time>2020-06-08T18:01:23Z</time>
      </trkpt>
      <trkpt lat="48.39409" lon="-4.49385">
        <ele>38.1</ele>
        <time>2020-06-08T18:01:24Z</time>
      </trkpt>
      <trkpt lat="48.39407" lon="-4.49392">
        <ele>38.1</ele>
        <time>2020-06-08T18:01:25Z</time>
      </trkpt>
      <trkpt lat="48.39406" lon="-4.49398">
        <ele>38.2</ele>
        <time>2020-06-08T18:01:26Z</time>
      </trkpt>
      <trkpt lat="48.39406" lon="-4.49404">
        <ele>38.2</ele>
        <time>2020-06-08T18:01:27Z</time>
      </trkpt>
      <trkpt lat="48.39405" lon="-4.4941">
        <ele>38.3</ele>
        <time>2020-06-08T18:01:28Z</time>
      </trkpt>
      <trkpt lat="48.39404" lon="-4.49415">
        <ele>38.3</ele>
        <time>2020-06-08T18:01:29Z</time>
      </trkpt>
      <trkpt lat="48.39403" lon="-4.4942">
        <ele>38.4</ele>
        <time>2020-06-08T18:01:30Z</time>
      </trkpt>
      <trkpt lat="48.39402" lon="-4.49425">
        <ele>38.5</ele>
        <time>2020-06-08T18:01:31Z</time>
      </trkpt>
      <trkpt lat="48.39401" lon="-4.4943">
        <ele>38.5</ele>
        <time>2020-06-08T18:01:32Z</time>
      </trkpt>
      <trkpt lat="48.39401" lon="-4.49434">
        <ele>38.6</ele>
        <time>2020-06-08T18:01:33Z</time>
      </trkpt>
      <trkpt lat="48.394" lon="-4.49439">
        <ele>38.7</ele>
        <time>2020-06-08T18:01:34Z</time>
      </trkpt>
      <trkpt lat="48.394" lon="-4.49444">
        <ele>38.8</ele>
        <time>2020-06-08T18:01:35Z</time>
      </trkpt>
      <trkpt lat="48.39399" lon="-4.49449">
        <ele>38.9</ele>
        <time>2020-06-08T18:01:36Z</time>
      </trkpt>
      <trkpt lat="48.39398" lon="-4.49453">
        <ele>38.9</ele>
        <time>2020-06-08T18:01:37Z</time>
      </trkpt>
      <trkpt lat="48.39395" lon="-4.49456">
        <ele>39</ele>
        <time>2020-06-08T18:01:38Z</time>
      </trkpt>
      <trkpt lat="48.39394" lon="-4.49461">
        <ele>39.1</ele>
        <time>2020-06-08T18:01:39Z</time>
      </trkpt>
      <trkpt lat="48.39393" lon="-4.49465">
        <ele>39.2</ele>
        <time>2020-06-08T18:01:40Z</time>
      </trkpt>
      <trkpt lat="48.39392" lon="-4.49469">
        <ele>39.3</ele>
        <time>2020-06-08T18:01:41Z</time>
      </trkpt>
      <trkpt lat="48.39391" lon="-4.49473">
        <ele>39.4</ele>
        <time>2020-06-08T18:01:42Z</time>
      </trkpt>
      <trkpt lat="48.3939" lon="-4.49478">
        <ele>39.6</ele>
        <time>2020-06-08T18:01:43Z</time>
      </trkpt>
      <trkpt lat="48.39389" lon="-4.49482">
        <ele>39.8</ele>
        <time>2020-06-08T18:01:44Z</time>
      </trkpt>
      <trkpt lat="48.39388" lon="-4.49488">
        <ele>40.1</ele>
        <time>2020-06-08T18:01:45Z</time>
      </trkpt>
      <trkpt lat="48.39387" lon="-4.49493">
        <ele>40.4</ele>
        <time>2020-06-08T18:01:46Z</time>
      </trkpt>
      <trkpt lat="48.39387" lon="-4.49498">
        <ele>40.7</ele>
        <time>2020-06-08T18:01:47Z</time>
      </trkpt>
      <trkpt lat="48.39385" lon="-4.49504">
        <ele>41</ele>
        <time>2020-06-08T18:01:48Z</time>
      </trkpt>
      <trkpt lat="48.39385" lon="-4.49509">
        <ele>41.1</ele>
        <time>2020-06-08T18:01:49Z</time>
      </trkpt>
      <trkpt lat="48.39384" lon="-4.49516">
        <ele>41.2</ele>
        <time>2020-06-08T18:01:50Z</time>
      </trkpt>
      <trkpt lat="48.39383" lon="-4.49524">
        <ele>41.2</ele>
        <time>2020-06-08T18:01:51Z</time>
      </trkpt>
      <trkpt lat="48.39382" lon="-4.49531">
        <ele>41.3</ele>
        <time>2020-06-08T18:01:52Z</time>
      </trkpt>
      <trkpt lat="48.3938" lon="-4.49538">
        <ele>41.3</ele>
        <time>2020-06-08T18:01:53Z</time>
      </trkpt>
      <trkpt lat="48.39378" lon="-4.49545">
        <ele>41.4</ele>
        <time>2020-06-08T18:01:54Z</time>
      </trkpt>
      <trkpt lat="48.39376" lon="-4.49552">
        <ele>41.5</ele>
        <time>2020-06-08T18:01:55Z</time>
      </trkpt>
      <trkpt lat="48.39374" lon="-4.49559">
        <ele>41.5</ele>
        <time>2020-06-08T18:01:56Z</time>
      </trkpt>
      <trkpt lat="48.39373" lon="-4.49566">
        <ele>41.6</ele>
        <time>2020-06-08T18:01:57Z</time>
      </trkpt>
      <trkpt lat="48.39371" lon="-4.49573">
        <ele>41.6</ele>
        <time>2020-06-08T18:01:58Z</time>
      </trkpt>
      <trkpt lat="48.39369" lon="-4.4958">
        <ele>41.7</ele>
        <time>2020-06-08T18:01:59Z</time>
      </trkpt>
      <trkpt lat="48.39367" lon="-4.49586">
        <ele>41.9</ele>
        <time>2020-06-08T18:02:00Z</time>
      </trkpt>
      <trkpt lat="48.39366" lon="-4.49593">
        <ele>42.1</ele>
        <time>2020-06-08T18:02:01Z</time>
      </trkpt>
      <trkpt lat="48.39364" lon="-4.49601">
        <ele>42.3</ele>
        <time>2020-06-08T18:02:02Z</time>
      </trkpt>
      <trkpt lat="48.39362" lon="-4.49609">
        <ele>42.5</ele>
        <time>2020-06-08T18:02:03Z</time>
      </trkpt>
      <trkpt lat="48.3936" lon="-4.49616">
        <ele>42.6</ele>
        <time>2020-06-08T18:02:04Z</time>
      </trkpt>
      <trkpt lat="48.39358" lon="-4.49623">
        <ele>42.8</ele>
        <time>2020-06-08T18:02:05Z</time>
      </trkpt>
      <trkpt lat="48.39356" lon="-4.4963">
        <ele>43</ele>
        <time>2020-06-08T18:02:06Z</time>
      </trkpt>
      <trkpt lat="48.39355" lon="-4.49637">
        <ele>43.1</ele>
        <time>2020-06-08T18:02:07Z</time>
      </trkpt>
      <trkpt lat="48.39354" lon="-4.49644">
        <ele>43.3</ele>
        <time>2020-06-08T18:02:08Z</time>
      </trkpt>
      <trkpt lat="48.39352" lon="-4.49651">
        <ele>43.4</ele>
        <time>2020-06-08T18:02:09Z</time>
      </trkpt>
      <trkpt lat="48.39351" lon="-4.49658">
        <ele>43.6</ele>
        <time>2020-06-08T18:02:10Z</time>
      </trkpt>
      <trkpt lat="48.39349" lon="-4.49665">
        <ele>43.7</ele>
        <time>2020-06-08T18:02:11Z</time>
      </trkpt>
      <trkpt lat="48.39347" lon="-4.49671">
        <ele>43.9</ele>
        <time>2020-06-08T18:02:12Z</time>
      </trkpt>
      <trkpt lat="48.39346" lon="-4.49679">
        <ele>44</ele>
        <time>2020-06-08T18:02:13Z</time>
      </trkpt>
      <trkpt lat="48.39345" lon="-4.49686">
        <ele>44.2</ele>
        <time>2020-06-08T18:02:14Z</time>
      </trkpt>
      <trkpt lat="48.39344" lon="-4.49694">
        <ele>44.4</ele>
        <time>2020-06-08T18:02:15Z</time>
      </trkpt>
      <trkpt lat="48.39344" lon="-4.49701">
        <ele>44.6</ele>
        <time>2020-06-08T18:02:16Z</time>
      </trkpt>
      <trkpt lat="48.39342" lon="-4.49708">
        <ele>44.8</ele>
        <time>2020-06-08T18:02:17Z</time>
      </trkpt>
      <trkpt lat="48.39341" lon="-4.49715">
        <ele>45</ele>
        <time>2020-06-08T18:02:18Z</time>
      </trkpt>
      <trkpt lat="48.3934" lon="-4.49723">
        <ele>45.2</ele>
        <time>2020-06-08T18:02:19Z</time>
      </trkpt>
      <trkpt lat="48.39338" lon="-4.49729">
        <ele>45.4</ele>
        <time>2020-06-08T18:02:20Z</time>
      </trkpt>
      <trkpt lat="48.39336" lon="-4.49737">
        <ele>45.5</ele>
        <time>2020-06-08T18:02:21Z</time>
      </trkpt>
      <trkpt lat="48.39335" lon="-4.49744">
        <ele>45.7</ele>
        <time>2020-06-08T18:02:22Z</time>
      </trkpt>
      <trkpt lat="48.39334" lon="-4.49751">
        <ele>45.9</ele>
        <time>2020-06-08T18:02:23Z</time>
      </trkpt>
      <trkpt lat="48.39332" lon="-4.49758">
        <ele>46</ele>
        <time>2020-06-08T18:02:24Z</time>
      </trkpt>
      <trkpt lat="48.3933" lon="-4.49765">
        <ele>46.2</ele>
        <time>2020-06-08T18:02:25Z</time>
      </trkpt>
      <trkpt lat="48.39329" lon="-4.49772">
        <ele>46.4</ele>
        <time>2020-06-08T18:02:26Z</time>
      </trkpt>
      <trkpt lat="48.39328" lon="-4.49778">
        <ele>46.6</ele>
        <time>2020-06-08T18:02:27Z</time>
      </trkpt>
      <trkpt lat="48.39326" lon="-4.49787">
        <ele>46.8</ele>
        <time>2020-06-08T18:02:28Z</time>
      </trkpt>
      <trkpt lat="48.39325" lon="-4.49793">
        <ele>47</ele>
        <time>2020-06-08T18:02:29Z</time>
      </trkpt>
      <trkpt lat="48.39324" lon="-4.498">
        <ele>47.2</ele>
        <time>2020-06-08T18:02:30Z</time>
      </trkpt>
      <trkpt lat="48.39322" lon="-4.49806">
        <ele>47.4</ele>
        <time>2020-06-08T18:02:31Z</time>
      </trkpt>
      <trkpt lat="48.3932" lon="-4.49815">
        <ele>47.6</ele>
        <time>2020-06-08T18:02:32Z</time>
      </trkpt>
      <trkpt lat="48.39319" lon="-4.49822">
        <ele>47.8</ele>
        <time>2020-06-08T18:02:33Z</time>
      </trkpt>
      <trkpt lat="48.39318" lon="-4.4983">
        <ele>48</ele>
        <time>2020-06-08T18:02:34Z</time>
      </trkpt>
      <trkpt lat="48.39317" lon="-4.49836">
        <ele>48.1</ele>
        <time>2020-06-08T18:02:35Z</time>
      </trkpt>
      <trkpt lat="48.39315" lon="-4.49843">
        <ele>48.3</ele>
        <time>2020-06-08T18:02:36Z</time>
      </trkpt>
      <trkpt lat="48.39314" lon="-4.49848">
        <ele>48.4</ele>
        <time>2020-06-08T18:02:37Z</time>
      </trkpt>
      <trkpt lat="48.39312" lon="-4.49854">
        <ele>48.5</ele>
        <time>2020-06-08T18:02:38Z</time>
      </trkpt>
      <trkpt lat="48.39311" lon="-4.49861">
        <ele>48.6</ele>
        <time>2020-06-08T18:02:39Z</time>
      </trkpt>
      <trkpt lat="48.39309" lon="-4.49868">
        <ele>48.8</ele>
        <time>2020-06-08T18:02:40Z</time>
      </trkpt>
      <trkpt lat="48.39307" lon="-4.49875">
        <ele>49</ele>
        <time>2020-06-08T18:02:41Z</time>
      </trkpt>
      <trkpt lat="48.39306" lon="-4.49882">
        <ele>49.1</ele>
        <time>2020-06-08T18:02:42Z</time>
      </trkpt>
      <trkpt lat="48.39305" lon="-4.49888">
        <ele>49.3</ele>
        <time>2020-06-08T18:02:43Z</time>
      </trkpt>
      <trkpt lat="48.39304" lon="-4.49893">
        <ele>49.4</ele>
        <time>2020-06-08T18:02:44Z</time>
      </trkpt>
      <trkpt lat="48.39302" lon="-4.49901">
        <ele>49.6</ele>
        <time>2020-06-08T18:02:45Z</time>
      </trkpt>
      <trkpt lat="48.39302" lon="-4.49908">
        <ele>49.7</ele>
        <time>2020-06-08T18:02:46Z</time>
      </trkpt>
      <trkpt lat="48.393" lon="-4.49916">
        <ele>49.9</ele>
        <time>2020-06-08T18:02:47Z</time>
      </trkpt>
      <trkpt lat="48.39298" lon="-4.49923">
        <ele>50</ele>
        <time>2020-06-08T18:02:48Z</time>
      </trkpt>
      <trkpt lat="48.39297" lon="-4.49931">
        <ele>50.2</ele>
        <time>2020-06-08T18:02:49Z</time>
      </trkpt>
      <trkpt lat="48.39295" lon="-4.49939">
        <ele>50.3</ele>
        <time>2020-06-08T18:02:50Z</time>
      </trkpt>
      <trkpt lat="48.39293" lon="-4.49946">
        <ele>50.4</ele>
        <time>2020-06-08T18:02:51Z</time>
      </trkpt>
      <trkpt lat="48.39292" lon="-4.49953">
        <ele>50.6</ele>
        <time>2020-06-08T18:02:52Z</time>
      </trkpt>
      <trkpt lat="48.39291" lon="-4.49961">
        <ele>50.6</ele>
        <time>2020-06-08T18:02:53Z</time>
      </trkpt>
      <trkpt lat="48.3929" lon="-4.49967">
        <ele>50.7</ele>
        <time>2020-06-08T18:02:54Z</time>
      </trkpt>
      <trkpt lat="48.39288" lon="-4.49974">
        <ele>50.8</ele>
        <time>2020-06-08T18:02:55Z</time>
      </trkpt>
      <trkpt lat="48.39286" lon="-4.4998">
        <ele>50.8</ele>
        <time>2020-06-08T18:02:56Z</time>
      </trkpt>
      <trkpt lat="48.39284" lon="-4.49988">
        <ele>50.9</ele>
        <time>2020-06-08T18:02:57Z</time>
      </trkpt>
      <trkpt lat="48.39283" lon="-4.49996">
        <ele>51</ele>
        <time>2020-06-08T18:02:58Z</time>
      </trkpt>
      <trkpt lat="48.39282" lon="-4.50003">
        <ele>51.1</ele>
        <time>2020-06-08T18:02:59Z</time>
      </trkpt>
      <trkpt lat="48.3928" lon="-4.50011">
        <ele>51.2</ele>
        <time>2020-06-08T18:03:00Z</time>
      </trkpt>
      <trkpt lat="48.39279" lon="-4.50017">
        <ele>51.2</ele>
        <time>2020-06-08T18:03:01Z</time>
      </trkpt>
      <trkpt lat="48.39277" lon="-4.50025">
        <ele>51.3</ele>
        <time>2020-06-08T18:03:02Z</time>
      </trkpt>
      <trkpt lat="48.39275" lon="-4.50032">
        <ele>51.3</ele>
        <time>2020-06-08T18:03:03Z</time>
      </trkpt>
      <trkpt lat="48.39273" lon="-4.5004">
        <ele>51.3</ele>
        <time>2020-06-08T18:03:04Z</time>
      </trkpt>
      <trkpt lat="48.39271" lon="-4.50047">
        <ele>51.2</ele>
        <time>2020-06-08T18:03:05Z</time>
      </trkpt>
      <trkpt lat="48.39271" lon="-4.50057">
        <ele>51.2</ele>
        <time>2020-06-08T18:03:06Z</time>
      </trkpt>
      <trkpt lat="48.39269" lon="-4.50065">
        <ele>51.2</ele>
        <time>2020-06-08T18:03:07Z</time>
      </trkpt>
      <trkpt lat="48.39267" lon="-4.50074">
        <ele>51.2</ele>
        <time>2020-06-08T18:03:08Z</time>
      </trkpt>
      <trkpt lat="48.39265" lon="-4.50083">
        <ele>51.3</ele>
        <time>2020-06-08T18:03:09Z</time>
      </trkpt>
      <trkpt lat="48.39263" lon="-4.50091">
        <ele>51.3</ele>
        <time>2020-06-08T18:03:10Z</time>
      </trkpt>
      <trkpt lat="48.39261" lon="-4.50101">
        <ele>51.2</ele>
        <time>2020-06-08T18:03:11Z</time>
      </trkpt>
      <trkpt lat="48.39259" lon="-4.50108">
        <ele>51.1</ele>
        <time>2020-06-08T18:03:12Z</time>
      </trkpt>
      <trkpt lat="48.39257" lon="-4.50118">
        <ele>51</ele>
        <time>2020-06-08T18:03:13Z</time>
      </trkpt>
      <trkpt lat="48.39256" lon="-4.50127">
        <ele>51</ele>
        <time>2020-06-08T18:03:14Z</time>
      </trkpt>
      <trkpt lat="48.39255" lon="-4.50135">
        <ele>50.9</ele>
        <time>2020-06-08T18:03:15Z</time>
      </trkpt>
      <trkpt lat="48.39253" lon="-4.50145">
        <ele>50.8</ele>
        <time>2020-06-08T18:03:16Z</time>
      </trkpt>
      <trkpt lat="48.39251" lon="-4.50153">
        <ele>50.8</ele>
        <time>2020-06-08T18:03:17Z</time>
      </trkpt>
      <trkpt lat="48.39249" lon="-4.50164">
        <ele>50.7</ele>
        <time>2020-06-08T18:03:18Z</time>
      </trkpt>
      <trkpt lat="48.39247" lon="-4.50172">
        <ele>50.5</ele>
        <time>2020-06-08T18:03:19Z</time>
      </trkpt>
      <trkpt lat="48.39246" lon="-4.5018">
        <ele>50.4</ele>
        <time>2020-06-08T18:03:20Z</time>
      </trkpt>
      <trkpt lat="48.39243" lon="-4.5019">
        <ele>50.3</ele>
        <time>2020-06-08T18:03:21Z</time>
      </trkpt>
      <trkpt lat="48.39241" lon="-4.502">
        <ele>50.2</ele>
        <time>2020-06-08T18:03:22Z</time>
      </trkpt>
      <trkpt lat="48.39239" lon="-4.5021">
        <ele>50.1</ele>
        <time>2020-06-08T18:03:23Z</time>
      </trkpt>
      <trkpt lat="48.39237" lon="-4.5022">
        <ele>50</ele>
        <time>2020-06-08T18:03:24Z</time>
      </trkpt>
      <trkpt lat="48.39235" lon="-4.5023">
        <ele>49.8</ele>
        <time>2020-06-08T18:03:25Z</time>
      </trkpt>
      <trkpt lat="48.39233" lon="-4.50241">
        <ele>49.7</ele>
        <time>2020-06-08T18:03:26Z</time>
      </trkpt>
      <trkpt lat="48.39231" lon="-4.50251">
        <ele>49.5</ele>
        <time>2020-06-08T18:03:27Z</time>
      </trkpt>
      <trkpt lat="48.39228" lon="-4.50262">
        <ele>49.4</ele>
        <time>2020-06-08T18:03:28Z</time>
      </trkpt>
      <trkpt lat="48.39226" lon="-4.50273">
        <ele>49.2</ele>
        <time>2020-06-08T18:03:29Z</time>
      </trkpt>
      <trkpt lat="48.39224" lon="-4.50284">
        <ele>49.1</ele>
        <time>2020-06-08T18:03:30Z</time>
      </trkpt>
      <trkpt lat="48.39222" lon="-4.50295">
        <ele>48.9</ele>
        <time>2020-06-08T18:03:31Z</time>
      </trkpt>
      <trkpt lat="48.39219" lon="-4.50305">
        <ele>48.8</ele>
        <time>2020-06-08T18:03:32Z</time>
      </trkpt>
      <trkpt lat="48.39218" lon="-4.50315">
        <ele>48.7</ele>
        <time>2020-06-08T18:03:33Z</time>
      </trkpt>
      <trkpt lat="48.39216" lon="-4.50325">
        <ele>48.7</ele>
        <time>2020-06-08T18:03:34Z</time>
      </trkpt>
      <trkpt lat="48.39215" lon="-4.50335">
        <ele>48.7</ele>
        <time>2020-06-08T18:03:35Z</time>
      </trkpt>
      <trkpt lat="48.39213" lon="-4.50343">
        <ele>48.6</ele>
        <time>2020-06-08T18:03:36Z</time>
      </trkpt>
      <trkpt lat="48.39212" lon="-4.50351">
        <ele>48.6</ele>
        <time>2020-06-08T18:03:37Z</time>
      </trkpt>
      <trkpt lat="48.39211" lon="-4.50358">
        <ele>48.7</ele>
        <time>2020-06-08T18:03:38Z</time>
      </trkpt>
      <trkpt lat="48.39209" lon="-4.50364">
        <ele>48.8</ele>
        <time>2020-06-08T18:03:39Z</time>
      </trkpt>
      <trkpt lat="48.39207" lon="-4.50371">
        <ele>48.9</ele>
        <time>2020-06-08T18:03:40Z</time>
      </trkpt>
      <trkpt lat="48.39207" lon="-4.50378">
        <ele>48.9</ele>
        <time>2020-06-08T18:03:41Z</time>
      </trkpt>
      <trkpt lat="48.39207" lon="-4.50385">
        <ele>49</ele>
        <time>2020-06-08T18:03:42Z</time>
      </trkpt>
      <trkpt lat="48.39207" lon="-4.50391">
        <ele>49.1</ele>
        <time>2020-06-08T18:03:43Z</time>
      </trkpt>
      <trkpt lat="48.39207" lon="-4.50398">
        <ele>49.2</ele>
        <time>2020-06-08T18:03:44Z</time>
      </trkpt>
      <trkpt lat="48.39206" lon="-4.50405">
        <ele>49.3</ele>
        <time>2020-06-08T18:03:45Z</time>
      </trkpt>
      <trkpt lat="48.39205" lon="-4.5041">
        <ele>49.4</ele>
        <time>2020-06-08T18:03:46Z</time>
      </trkpt>
      <trkpt lat="48.39202" lon="-4.50415">
        <ele>49.4</ele>
        <time>2020-06-08T18:03:47Z</time>
      </trkpt>
      <trkpt lat="48.39199" lon="-4.5042">
        <ele>49.5</ele>
        <time>2020-06-08T18:03:48Z</time>
      </trkpt>
      <trkpt lat="48.39198" lon="-4.50426">
        <ele>49.6</ele>
        <time>2020-06-08T18:03:49Z</time>
      </trkpt>
      <trkpt lat="48.39198" lon="-4.50432">
        <ele>50.1</ele>
        <time>2020-06-08T18:03:50Z</time>
      </trkpt>
      <trkpt lat="48.39196" lon="-4.50438">
        <ele>50.2</ele>
        <time>2020-06-08T18:03:51Z</time>
      </trkpt>
      <trkpt lat="48.39194" lon="-4.50446">
        <ele>50.3</ele>
        <time>2020-06-08T18:03:52Z</time>
      </trkpt>
      <trkpt lat="48.39193" lon="-4.50454">
        <ele>50.4</ele>
        <time>2020-06-08T18:03:53Z</time>
      </trkpt>
      <trkpt lat="48.3919" lon="-4.50462">
        <ele>50.6</ele>
        <time>2020-06-08T18:03:54Z</time>
      </trkpt>
      <trkpt lat="48.39188" lon="-4.50469">
        <ele>50.8</ele>
        <time>2020-06-08T18:03:55Z</time>
      </trkpt>
      <trkpt lat="48.39184" lon="-4.50475">
        <ele>50.9</ele>
        <time>2020-06-08T18:03:56Z</time>
      </trkpt>
      <trkpt lat="48.39181" lon="-4.50482">
        <ele>51.1</ele>
        <time>2020-06-08T18:03:57Z</time>
      </trkpt>
      <trkpt lat="48.3918" lon="-4.50489">
        <ele>51.3</ele>
        <time>2020-06-08T18:03:58Z</time>
      </trkpt>
      <trkpt lat="48.39179" lon="-4.50496">
        <ele>51.4</ele>
        <time>2020-06-08T18:03:59Z</time>
      </trkpt>
      <trkpt lat="48.39178" lon="-4.50503">
        <ele>51.6</ele>
        <time>2020-06-08T18:04:00Z</time>
      </trkpt>
      <trkpt lat="48.39177" lon="-4.50511">
        <ele>51.7</ele>
        <time>2020-06-08T18:04:01Z</time>
      </trkpt>
      <trkpt lat="48.39176" lon="-4.50517">
        <ele>51.9</ele>
        <time>2020-06-08T18:04:02Z</time>
      </trkpt>
      <trkpt lat="48.39174" lon="-4.50525">
        <ele>52.1</ele>
        <time>2020-06-08T18:04:03Z</time>
      </trkpt>
      <trkpt lat="48.39174" lon="-4.50532">
        <ele>52.3</ele>
        <time>2020-06-08T18:04:04Z</time>
      </trkpt>
      <trkpt lat="48.39172" lon="-4.50539">
        <ele>52.5</ele>
        <time>2020-06-08T18:04:05Z</time>
      </trkpt>
      <trkpt lat="48.3917" lon="-4.50547">
        <ele>52.7</ele>
        <time>2020-06-08T18:04:06Z</time>
      </trkpt>
      <trkpt lat="48.39169" lon="-4.50553">
        <ele>52.9</ele>
        <time>2020-06-08T18:04:07Z</time>
      </trkpt>
      <trkpt lat="48.39167" lon="-4.5056">
        <ele>53.1</ele>
        <time>2020-06-08T18:04:08Z</time>
      </trkpt>
      <trkpt lat="48.39163" lon="-4.50566">
        <ele>53.3</ele>
        <time>2020-06-08T18:04:09Z</time>
      </trkpt>
      <trkpt lat="48.3916" lon="-4.50572">
        <ele>53.5</ele>
        <time>2020-06-08T18:04:10Z</time>
      </trkpt>
      <trkpt lat="48.39158" lon="-4.50577">
        <ele>53.7</ele>
        <time>2020-06-08T18:04:11Z</time>
      </trkpt>
      <trkpt lat="48.39157" lon="-4.50583">
        <ele>53.9</ele>
        <time>2020-06-08T18:04:12Z</time>
      </trkpt>
      <trkpt lat="48.39155" lon="-4.50588">
        <ele>54</ele>
        <time>2020-06-08T18:04:13Z</time>
      </trkpt>
      <trkpt lat="48.39154" lon="-4.50594">
        <ele>54.2</ele>
        <time>2020-06-08T18:04:14Z</time>
      </trkpt>
      <trkpt lat="48.39152" lon="-4.50599">
        <ele>54.3</ele>
        <time>2020-06-08T18:04:15Z</time>
      </trkpt>
      <trkpt lat="48.3915" lon="-4.50606">
        <ele>54.4</ele>
        <time>2020-06-08T18:04:16Z</time>
      </trkpt>
      <trkpt lat="48.39149" lon="-4.50613">
        <ele>54.5</ele>
        <time>2020-06-08T18:04:17Z</time>
      </trkpt>
      <trkpt lat="48.39147" lon="-4.50619">
        <ele>54.6</ele>
        <time>2020-06-08T18:04:18Z</time>
      </trkpt>
      <trkpt lat="48.39146" lon="-4.50624">
        <ele>54.7</ele>
        <time>2020-06-08T18:04:19Z</time>
      </trkpt>
      <trkpt lat="48.39144" lon="-4.50629">
        <ele>54.7</ele>
        <time>2020-06-08T18:04:20Z</time>
      </trkpt>
      <trkpt lat="48.39144" lon="-4.50633">
        <ele>54.8</ele>
        <time>2020-06-08T18:04:21Z</time>
      </trkpt>
      <trkpt lat="48.39143" lon="-4.50637">
        <ele>54.8</ele>
        <time>2020-06-08T18:04:22Z</time>
      </trkpt>
      <trkpt lat="48.39142" lon="-4.50642">
        <ele>54.8</ele>
        <time>2020-06-08T18:04:23Z</time>
      </trkpt>
      <trkpt lat="48.3914" lon="-4.50648">
        <ele>54.8</ele>
        <time>2020-06-08T18:04:24Z</time>
      </trkpt>
      <trkpt lat="48.39138" lon="-4.50655">
        <ele>54.9</ele>
        <time>2020-06-08T18:04:25Z</time>
      </trkpt>
      <trkpt lat="48.39137" lon="-4.50662">
        <ele>54.9</ele>
        <time>2020-06-08T18:04:26Z</time>
      </trkpt>
      <trkpt lat="48.39136" lon="-4.50668">
        <ele>55</ele>
        <time>2020-06-08T18:04:27Z</time>
      </trkpt>
      <trkpt lat="48.39135" lon="-4.50674">
        <ele>55</ele>
        <time>2020-06-08T18:04:28Z</time>
      </trkpt>
      <trkpt lat="48.39134" lon="-4.50679">
        <ele>55.1</ele>
        <time>2020-06-08T18:04:29Z</time>
      </trkpt>
      <trkpt lat="48.39131" lon="-4.50684">
        <ele>55.1</ele>
        <time>2020-06-08T18:04:30Z</time>
      </trkpt>
      <trkpt lat="48.3913" lon="-4.5069">
        <ele>55.2</ele>
        <time>2020-06-08T18:04:31Z</time>
      </trkpt>
      <trkpt lat="48.39129" lon="-4.50697">
        <ele>55.2</ele>
        <time>2020-06-08T18:04:32Z</time>
      </trkpt>
      <trkpt lat="48.39128" lon="-4.50704">
        <ele>55.3</ele>
        <time>2020-06-08T18:04:33Z</time>
      </trkpt>
      <trkpt lat="48.39127" lon="-4.50711">
        <ele>55.3</ele>
        <time>2020-06-08T18:04:34Z</time>
      </trkpt>
      <trkpt lat="48.39126" lon="-4.50718">
        <ele>55.4</ele>
        <time>2020-06-08T18:04:35Z</time>
      </trkpt>
      <trkpt lat="48.39122" lon="-4.50725">
        <ele>55.5</ele>
        <time>2020-06-08T18:04:36Z</time>
      </trkpt>
      <trkpt lat="48.3912" lon="-4.50733">
        <ele>55.6</ele>
        <time>2020-06-08T18:04:37Z</time>
      </trkpt>
      <trkpt lat="48.39117" lon="-4.5074">
        <ele>55.7</ele>
        <time>2020-06-08T18:04:38Z</time>
      </trkpt>
      <trkpt lat="48.39115" lon="-4.50747">
        <ele>55.8</ele>
        <time>2020-06-08T18:04:39Z</time>
      </trkpt>
      <trkpt lat="48.39114" lon="-4.50754">
        <ele>55.9</ele>
        <time>2020-06-08T18:04:40Z</time>
      </trkpt>
      <trkpt lat="48.39112" lon="-4.50761">
        <ele>56</ele>
        <time>2020-06-08T18:04:41Z</time>
      </trkpt>
      <trkpt lat="48.39111" lon="-4.50767">
        <ele>56.1</ele>
        <time>2020-06-08T18:04:42Z</time>
      </trkpt>
      <trkpt lat="48.39109" lon="-4.50774">
        <ele>56.2</ele>
        <time>2020-06-08T18:04:43Z</time>
      </trkpt>
      <trkpt lat="48.39108" lon="-4.50781">
        <ele>56.2</ele>
        <time>2020-06-08T18:04:44Z</time>
      </trkpt>
      <trkpt lat="48.39106" lon="-4.50788">
        <ele>56.3</ele>
        <time>2020-06-08T18:04:45Z</time>
      </trkpt>
      <trkpt lat="48.39104" lon="-4.50796">
        <ele>56.5</ele>
        <time>2020-06-08T18:04:46Z</time>
      </trkpt>
      <trkpt lat="48.39103" lon="-4.50804">
        <ele>56.6</ele>
        <time>2020-06-08T18:04:47Z</time>
      </trkpt>
      <trkpt lat="48.39101" lon="-4.5081">
        <ele>56.7</ele>
        <time>2020-06-08T18:04:48Z</time>
      </trkpt>
      <trkpt lat="48.39099" lon="-4.50817">
        <ele>56.8</ele>
        <time>2020-06-08T18:04:49Z</time>
      </trkpt>
      <trkpt lat="48.39098" lon="-4.50823">
        <ele>56.9</ele>
        <time>2020-06-08T18:04:50Z</time>
      </trkpt>
      <trkpt lat="48.39097" lon="-4.5083">
        <ele>56.9</ele>
        <time>2020-06-08T18:04:51Z</time>
      </trkpt>
      <trkpt lat="48.39096" lon="-4.50836">
        <ele>57</ele>
        <time>2020-06-08T18:04:52Z</time>
      </trkpt>
      <trkpt lat="48.39093" lon="-4.50843">
        <ele>57.2</ele>
        <time>2020-06-08T18:04:53Z</time>
      </trkpt>
      <trkpt lat="48.39093" lon="-4.5085">
        <ele>57.3</ele>
        <time>2020-06-08T18:04:54Z</time>
      </trkpt>
      <trkpt lat="48.39091" lon="-4.50856">
        <ele>57.5</ele>
        <time>2020-06-08T18:04:55Z</time>
      </trkpt>
      <trkpt lat="48.3909" lon="-4.50862">
        <ele>57.6</ele>
        <time>2020-06-08T18:04:56Z</time>
      </trkpt>
      <trkpt lat="48.39088" lon="-4.50869">
        <ele>57.8</ele>
        <time>2020-06-08T18:04:57Z</time>
      </trkpt>
      <trkpt lat="48.39087" lon="-4.50876">
        <ele>57.9</ele>
        <time>2020-06-08T18:04:58Z</time>
      </trkpt>
      <trkpt lat="48.39086" lon="-4.50884">
        <ele>58</ele>
        <time>2020-06-08T18:04:59Z</time>
      </trkpt>
      <trkpt lat="48.39085" lon="-4.50892">
        <ele>58.2</ele>
        <time>2020-06-08T18:05:00Z</time>
      </trkpt>
      <trkpt lat="48.39084" lon="-4.50899">
        <ele>58.4</ele>
        <time>2020-06-08T18:05:01Z</time>
      </trkpt>
      <trkpt lat="48.39085" lon="-4.50906">
        <ele>58.6</ele>
        <time>2020-06-08T18:05:02Z</time>
      </trkpt>
      <trkpt lat="48.39081" lon="-4.50912">
        <ele>58.8</ele>
        <time>2020-06-08T18:05:03Z</time>
      </trkpt>
      <trkpt lat="48.39082" lon="-4.50919">
        <ele>59</ele>
        <time>2020-06-08T18:05:04Z</time>
      </trkpt>
      <trkpt lat="48.39081" lon="-4.50926">
        <ele>59.2</ele>
        <time>2020-06-08T18:05:05Z</time>
      </trkpt>
      <trkpt lat="48.3908" lon="-4.50932">
        <ele>59.4</ele>
        <time>2020-06-08T18:05:06Z</time>
      </trkpt>
      <trkpt lat="48.39079" lon="-4.50938">
        <ele>59.6</ele>
        <time>2020-06-08T18:05:07Z</time>
      </trkpt>
      <trkpt lat="48.39079" lon="-4.50945">
        <ele>59.8</ele>
        <time>2020-06-08T18:05:08Z</time>
      </trkpt>
      <trkpt lat="48.39078" lon="-4.50951">
        <ele>60</ele>
        <time>2020-06-08T18:05:09Z</time>
      </trkpt>
      <trkpt lat="48.39079" lon="-4.50957">
        <ele>60.1</ele>
        <time>2020-06-08T18:05:10Z</time>
      </trkpt>
      <trkpt lat="48.39079" lon="-4.50962">
        <ele>60.3</ele>
        <time>2020-06-08T18:05:11Z</time>
      </trkpt>
      <trkpt lat="48.39079" lon="-4.50968">
        <ele>60.5</ele>
        <time>2020-06-08T18:05:12Z</time>
      </trkpt>
      <trkpt lat="48.39078" lon="-4.50974">
        <ele>60.7</ele>
        <time>2020-06-08T18:05:13Z</time>
      </trkpt>
      <trkpt lat="48.39078" lon="-4.50979">
        <ele>60.9</ele>
        <time>2020-06-08T18:05:14Z</time>
      </trkpt>
      <trkpt lat="48.39076" lon="-4.50984">
        <ele>61.1</ele>
        <time>2020-06-08T18:05:15Z</time>
      </trkpt>
      <trkpt lat="48.39075" lon="-4.5099">
        <ele>61.3</ele>
        <time>2020-06-08T18:05:16Z</time>
      </trkpt>
      <trkpt lat="48.39074" lon="-4.50996">
        <ele>61.5</ele>
        <time>2020-06-08T18:05:17Z</time>
      </trkpt>
      <trkpt lat="48.39074" lon="-4.51001">
        <ele>61.6</ele>
        <time>2020-06-08T18:05:18Z</time>
      </trkpt>
      <trkpt lat="48.39072" lon="-4.51005">
        <ele>61.8</ele>
        <time>2020-06-08T18:05:19Z</time>
      </trkpt>
      <trkpt lat="48.39071" lon="-4.5101">
        <ele>62</ele>
        <time>2020-06-08T18:05:20Z</time>
      </trkpt>
      <trkpt lat="48.3907" lon="-4.51016">
        <ele>62.1</ele>
        <time>2020-06-08T18:05:21Z</time>
      </trkpt>
      <trkpt lat="48.39068" lon="-4.51021">
        <ele>62.3</ele>
        <time>2020-06-08T18:05:22Z</time>
      </trkpt>
      <trkpt lat="48.39067" lon="-4.51026">
        <ele>62.4</ele>
        <time>2020-06-08T18:05:23Z</time>
      </trkpt>
      <trkpt lat="48.39066" lon="-4.51032">
        <ele>62.5</ele>
        <time>2020-06-08T18:05:24Z</time>
      </trkpt>
      <trkpt lat="48.39065" lon="-4.51037">
        <ele>62.7</ele>
        <time>2020-06-08T18:05:25Z</time>
      </trkpt>
      <trkpt lat="48.39065" lon="-4.51042">
        <ele>62.8</ele>
        <time>2020-06-08T18:05:26Z</time>
      </trkpt>
      <trkpt lat="48.39064" lon="-4.51047">
        <ele>62.9</ele>
        <time>2020-06-08T18:05:27Z</time>
      </trkpt>
      <trkpt lat="48.39063" lon="-4.51052">
        <ele>63</ele>
        <time>2020-06-08T18:05:28Z</time>
      </trkpt>
      <trkpt lat="48.39062" lon="-4.51057">
        <ele>63.2</ele>
        <time>2020-06-08T18:05:29Z</time>
      </trkpt>
      <trkpt lat="48.3906" lon="-4.51062">
        <ele>63.3</ele>
        <time>2020-06-08T18:05:30Z</time>
      </trkpt>
      <trkpt lat="48.39058" lon="-4.51067">
        <ele>63.5</ele>
        <time>2020-06-08T18:05:31Z</time>
      </trkpt>
      <trkpt lat="48.39056" lon="-4.51072">
        <ele>63.6</ele>
        <time>2020-06-08T18:05:32Z</time>
      </trkpt>
      <trkpt lat="48.39056" lon="-4.51077">
        <ele>63.7</ele>
        <time>2020-06-08T18:05:33Z</time>
      </trkpt>
      <trkpt lat="48.39055" lon="-4.51082">
        <ele>63.9</ele>
        <time>2020-06-08T18:05:34Z</time>
      </trkpt>
      <trkpt lat="48.39052" lon="-4.51086">
        <ele>64</ele>
        <time>2020-06-08T18:05:35Z</time>
      </trkpt>
      <trkpt lat="48.39051" lon="-4.51091">
        <ele>64.2</ele>
        <time>2020-06-08T18:05:36Z</time>
      </trkpt>
      <trkpt lat="48.39049" lon="-4.51096">
        <ele>64.4</ele>
        <time>2020-06-08T18:05:37Z</time>
      </trkpt>
      <trkpt lat="48.39048" lon="-4.51101">
        <ele>64.6</ele>
        <time>2020-06-08T18:05:38Z</time>
      </trkpt>
      <trkpt lat="48.39047" lon="-4.51107">
        <ele>64.8</ele>
        <time>2020-06-08T18:05:39Z</time>
      </trkpt>
      <trkpt lat="48.39045" lon="-4.51113">
        <ele>65</ele>
        <time>2020-06-08T18:05:40Z</time>
      </trkpt>
      <trkpt lat="48.39042" lon="-4.51118">
        <ele>65.1</ele>
        <time>2020-06-08T18:05:41Z</time>
      </trkpt>
      <trkpt lat="48.3904" lon="-4.51122">
        <ele>65.3</ele>
        <time>2020-06-08T18:05:42Z</time>
      </trkpt>
      <trkpt lat="48.39039" lon="-4.51127">
        <ele>65.4</ele>
        <time>2020-06-08T18:05:43Z</time>
      </trkpt>
      <trkpt lat="48.39037" lon="-4.51131">
        <ele>65.6</ele>
        <time>2020-06-08T18:05:44Z</time>
      </trkpt>
      <trkpt lat="48.39035" lon="-4.51137">
        <ele>65.7</ele>
        <time>2020-06-08T18:05:45Z</time>
      </trkpt>
      <trkpt lat="48.39033" lon="-4.51144">
        <ele>65.9</ele>
        <time>2020-06-08T18:05:46Z</time>
      </trkpt>
      <trkpt lat="48.39032" lon="-4.51149">
        <ele>66.1</ele>
        <time>2020-06-08T18:05:47Z</time>
      </trkpt>
      <trkpt lat="48.3903" lon="-4.51154">
        <ele>66.2</ele>
        <time>2020-06-08T18:05:48Z</time>
      </trkpt>
      <trkpt lat="48.39029" lon="-4.5116">
        <ele>66.3</ele>
        <time>2020-06-08T18:05:49Z</time>
      </trkpt>
      <trkpt lat="48.39026" lon="-4.51165">
        <ele>66.5</ele>
        <time>2020-06-08T18:05:50Z</time>
      </trkpt>
      <trkpt lat="48.39024" lon="-4.51169">
        <ele>66.6</ele>
        <time>2020-06-08T18:05:51Z</time>
      </trkpt>
      <trkpt lat="48.39022" lon="-4.51174">
        <ele>66.8</ele>
        <time>2020-06-08T18:05:52Z</time>
      </trkpt>
      <trkpt lat="48.3902" lon="-4.51178">
        <ele>66.9</ele>
        <time>2020-06-08T18:05:53Z</time>
      </trkpt>
      <trkpt lat="48.39017" lon="-4.51184">
        <ele>67.2</ele>
        <time>2020-06-08T18:05:54Z</time>
      </trkpt>
      <trkpt lat="48.39015" lon="-4.51189">
        <ele>67.4</ele>
        <time>2020-06-08T18:05:55Z</time>
      </trkpt>
      <trkpt lat="48.39012" lon="-4.51194">
        <ele>67.6</ele>
        <time>2020-06-08T18:05:56Z</time>
      </trkpt>
      <trkpt lat="48.39008" lon="-4.512">
        <ele>67.8</ele>
        <time>2020-06-08T18:05:57Z</time>
      </trkpt>
      <trkpt lat="48.39006" lon="-4.51207">
        <ele>68.1</ele>
        <time>2020-06-08T18:05:58Z</time>
      </trkpt>
      <trkpt lat="48.39004" lon="-4.51216">
        <ele>68.4</ele>
        <time>2020-06-08T18:05:59Z</time>
      </trkpt>
      <trkpt lat="48.39002" lon="-4.5122">
        <ele>68.5</ele>
        <time>2020-06-08T18:06:00Z</time>
      </trkpt>
      <trkpt lat="48.39001" lon="-4.51226">
        <ele>68.7</ele>
        <time>2020-06-08T18:06:01Z</time>
      </trkpt>
      <trkpt lat="48.38999" lon="-4.51229">
        <ele>68.8</ele>
        <time>2020-06-08T18:06:02Z</time>
      </trkpt>
      <trkpt lat="48.38997" lon="-4.51234">
        <ele>69</ele>
        <time>2020-06-08T18:06:03Z</time>
      </trkpt>
      <trkpt lat="48.38997" lon="-4.51236">
        <ele>69.1</ele>
        <time>2020-06-08T18:06:04Z</time>
      </trkpt>
      <trkpt lat="48.38993" lon="-4.51239">
        <ele>69.2</ele>
        <time>2020-06-08T18:06:05Z</time>
      </trkpt>
      <trkpt lat="48.38991" lon="-4.51243">
        <ele>69.4</ele>
        <time>2020-06-08T18:06:06Z</time>
      </trkpt>
      <trkpt lat="48.38989" lon="-4.51248">
        <ele>69.6</ele>
        <time>2020-06-08T18:06:07Z</time>
      </trkpt>
      <trkpt lat="48.38988" lon="-4.51254">
        <ele>69.7</ele>
        <time>2020-06-08T18:06:08Z</time>
      </trkpt>
      <trkpt lat="48.38986" lon="-4.51257">
        <ele>69.9</ele>
        <time>2020-06-08T18:06:09Z</time>
      </trkpt>
      <trkpt lat="48.38984" lon="-4.51262">
        <ele>70</ele>
        <time>2020-06-08T18:06:10Z</time>
      </trkpt>
      <trkpt lat="48.38981" lon="-4.51266">
        <ele>70.2</ele>
        <time>2020-06-08T18:06:11Z</time>
      </trkpt>
      <trkpt lat="48.3898" lon="-4.51268">
        <ele>70.3</ele>
        <time>2020-06-08T18:06:12Z</time>
      </trkpt>
      <trkpt lat="48.38978" lon="-4.51274">
        <ele>70.4</ele>
        <time>2020-06-08T18:06:13Z</time>
      </trkpt>
      <trkpt lat="48.38976" lon="-4.51279">
        <ele>70.6</ele>
        <time>2020-06-08T18:06:14Z</time>
      </trkpt>
      <trkpt lat="48.38974" lon="-4.51283">
        <ele>70.7</ele>
        <time>2020-06-08T18:06:15Z</time>
      </trkpt>
      <trkpt lat="48.38973" lon="-4.51288">
        <ele>70.9</ele>
        <time>2020-06-08T18:06:16Z</time>
      </trkpt>
      <trkpt lat="48.3897" lon="-4.51293">
        <ele>71</ele>
        <time>2020-06-08T18:06:17Z</time>
      </trkpt>
      <trkpt lat="48.38968" lon="-4.51297">
        <ele>71.1</ele>
        <time>2020-06-08T18:06:18Z</time>
      </trkpt>
      <trkpt lat="48.38967" lon="-4.51303">
        <ele>71.3</ele>
        <time>2020-06-08T18:06:19Z</time>
      </trkpt>
      <trkpt lat="48.38966" lon="-4.51305">
        <ele>71.3</ele>
        <time>2020-06-08T18:06:20Z</time>
      </trkpt>
      <trkpt lat="48.38964" lon="-4.5131">
        <ele>71.5</ele>
        <time>2020-06-08T18:06:21Z</time>
      </trkpt>
      <trkpt lat="48.38962" lon="-4.51315">
        <ele>71.6</ele>
        <time>2020-06-08T18:06:22Z</time>
      </trkpt>
      <trkpt lat="48.3896" lon="-4.5132">
        <ele>71.7</ele>
        <time>2020-06-08T18:06:23Z</time>
      </trkpt>
      <trkpt lat="48.38957" lon="-4.51325">
        <ele>71.8</ele>
        <time>2020-06-08T18:06:24Z</time>
      </trkpt>
      <trkpt lat="48.38955" lon="-4.51332">
        <ele>71.9</ele>
        <time>2020-06-08T18:06:25Z</time>
      </trkpt>
      <trkpt lat="48.38953" lon="-4.51337">
        <ele>72</ele>
        <time>2020-06-08T18:06:26Z</time>
      </trkpt>
      <trkpt lat="48.38951" lon="-4.51343">
        <ele>72.3</ele>
        <time>2020-06-08T18:06:27Z</time>
      </trkpt>
      <trkpt lat="48.38948" lon="-4.51347">
        <ele>72.4</ele>
        <time>2020-06-08T18:06:28Z</time>
      </trkpt>
      <trkpt lat="48.38947" lon="-4.51353">
        <ele>72.5</ele>
        <time>2020-06-08T18:06:29Z</time>
      </trkpt>
      <trkpt lat="48.38943" lon="-4.51359">
        <ele>72.7</ele>
        <time>2020-06-08T18:06:30Z</time>
      </trkpt>
      <trkpt lat="48.38942" lon="-4.51366">
        <ele>72.8</ele>
        <time>2020-06-08T18:06:31Z</time>
      </trkpt>
      <trkpt lat="48.3894" lon="-4.51369">
        <ele>72.9</ele>
        <time>2020-06-08T18:06:32Z</time>
      </trkpt>
      <trkpt lat="48.38938" lon="-4.51375">
        <ele>73</ele>
        <time>2020-06-08T18:06:33Z</time>
      </trkpt>
      <trkpt lat="48.38936" lon="-4.5138">
        <ele>73.1</ele>
        <time>2020-06-08T18:06:34Z</time>
      </trkpt>
      <trkpt lat="48.38935" lon="-4.51386">
        <ele>73.2</ele>
        <time>2020-06-08T18:06:35Z</time>
      </trkpt>
      <trkpt lat="48.38932" lon="-4.51391">
        <ele>73.3</ele>
        <time>2020-06-08T18:06:36Z</time>
      </trkpt>
      <trkpt lat="48.38929" lon="-4.51395">
        <ele>73.4</ele>
        <time>2020-06-08T18:06:37Z</time>
      </trkpt>
      <trkpt lat="48.38926" lon="-4.514">
        <ele>73.5</ele>
        <time>2020-06-08T18:06:38Z</time>
      </trkpt>
      <trkpt lat="48.38924" lon="-4.51405">
        <ele>73.6</ele>
        <time>2020-06-08T18:06:39Z</time>
      </trkpt>
      <trkpt lat="48.38922" lon="-4.5141">
        <ele>73.7</ele>
        <time>2020-06-08T18:06:40Z</time>
      </trkpt>
      <trkpt lat="48.3892" lon="-4.51416">
        <ele>73.8</ele>
        <time>2020-06-08T18:06:41Z</time>
      </trkpt>
      <trkpt lat="48.38918" lon="-4.51422">
        <ele>73.9</ele>
        <time>2020-06-08T18:06:42Z</time>
      </trkpt>
      <trkpt lat="48.38915" lon="-4.51428">
        <ele>73.9</ele>
        <time>2020-06-08T18:06:43Z</time>
      </trkpt>
      <trkpt lat="48.38914" lon="-4.51433">
        <ele>74</ele>
        <time>2020-06-08T18:06:44Z</time>
      </trkpt>
      <trkpt lat="48.38912" lon="-4.51439">
        <ele>74</ele>
        <time>2020-06-08T18:06:45Z</time>
      </trkpt>
      <trkpt lat="48.3891" lon="-4.51444">
        <ele>74.1</ele>
        <time>2020-06-08T18:06:46Z</time>
      </trkpt>
      <trkpt lat="48.38907" lon="-4.5145">
        <ele>74.1</ele>
        <time>2020-06-08T18:06:47Z</time>
      </trkpt>
      <trkpt lat="48.38905" lon="-4.51456">
        <ele>74.2</ele>
        <time>2020-06-08T18:06:48Z</time>
      </trkpt>
      <trkpt lat="48.38903" lon="-4.51463">
        <ele>74.2</ele>
        <time>2020-06-08T18:06:49Z</time>
      </trkpt>
      <trkpt lat="48.389" lon="-4.51468">
        <ele>74.2</ele>
        <time>2020-06-08T18:06:50Z</time>
      </trkpt>
      <trkpt lat="48.38899" lon="-4.51473">
        <ele>74.2</ele>
        <time>2020-06-08T18:06:51Z</time>
      </trkpt>
      <trkpt lat="48.38897" lon="-4.51476">
        <ele>74.2</ele>
        <time>2020-06-08T18:06:52Z</time>
      </trkpt>
      <trkpt lat="48.38894" lon="-4.51481">
        <ele>74.2</ele>
        <time>2020-06-08T18:06:53Z</time>
      </trkpt>
      <trkpt lat="48.38892" lon="-4.51486">
        <ele>74.2</ele>
        <time>2020-06-08T18:06:54Z</time>
      </trkpt>
      <trkpt lat="48.38888" lon="-4.51491">
        <ele>74.2</ele>
        <time>2020-06-08T18:06:55Z</time>
      </trkpt>
      <trkpt lat="48.38884" lon="-4.51497">
        <ele>74.2</ele>
        <time>2020-06-08T18:06:56Z</time>
      </trkpt>
      <trkpt lat="48.38882" lon="-4.51502">
        <ele>74.2</ele>
        <time>2020-06-08T18:06:57Z</time>
      </trkpt>
      <trkpt lat="48.38878" lon="-4.51507">
        <ele>74.2</ele>
        <time>2020-06-08T18:06:58Z</time>
      </trkpt>
      <trkpt lat="48.38876" lon="-4.51512">
        <ele>74.2</ele>
        <time>2020-06-08T18:06:59Z</time>
      </trkpt>
      <trkpt lat="48.38872" lon="-4.51518">
        <ele>74.2</ele>
        <time>2020-06-08T18:07:00Z</time>
      </trkpt>
      <trkpt lat="48.3887" lon="-4.51523">
        <ele>74.2</ele>
        <time>2020-06-08T18:07:01Z</time>
      </trkpt>
      <trkpt lat="48.38867" lon="-4.51528">
        <ele>74.1</ele>
        <time>2020-06-08T18:07:02Z</time>
      </trkpt>
      <trkpt lat="48.38864" lon="-4.51534">
        <ele>74.1</ele>
        <time>2020-06-08T18:07:03Z</time>
      </trkpt>
      <trkpt lat="48.3886" lon="-4.51538">
        <ele>74</ele>
        <time>2020-06-08T18:07:04Z</time>
      </trkpt>
      <trkpt lat="48.38857" lon="-4.51544">
        <ele>73.9</ele>
        <time>2020-06-08T18:07:05Z</time>
      </trkpt>
      <trkpt lat="48.38854" lon="-4.51551">
        <ele>73.8</ele>
        <time>2020-06-08T18:07:06Z</time>
      </trkpt>
      <trkpt lat="48.38851" lon="-4.51559">
        <ele>73.6</ele>
        <time>2020-06-08T18:07:07Z</time>
      </trkpt>
      <trkpt lat="48.38849" lon="-4.51567">
        <ele>73.4</ele>
        <time>2020-06-08T18:07:08Z</time>
      </trkpt>
      <trkpt lat="48.38846" lon="-4.51571">
        <ele>73.2</ele>
        <time>2020-06-08T18:07:09Z</time>
      </trkpt>
      <trkpt lat="48.38845" lon="-4.51574">
        <ele>73.1</ele>
        <time>2020-06-08T18:07:10Z</time>
      </trkpt>
      <trkpt lat="48.38843" lon="-4.51574">
        <ele>73</ele>
        <time>2020-06-08T18:07:11Z</time>
      </trkpt>
      <trkpt lat="48.38842" lon="-4.51578">
        <ele>72.9</ele>
        <time>2020-06-08T18:07:12Z</time>
      </trkpt>
      <trkpt lat="48.38842" lon="-4.5158">
        <ele>72.8</ele>
        <time>2020-06-08T18:07:13Z</time>
      </trkpt>
      <trkpt lat="48.38842" lon="-4.51582">
        <ele>72.8</ele>
        <time>2020-06-08T18:07:14Z</time>
      </trkpt>
      <trkpt lat="48.38838" lon="-4.51587">
        <ele>72.7</ele>
        <time>2020-06-08T18:07:15Z</time>
      </trkpt>
      <trkpt lat="48.38835" lon="-4.51591">
        <ele>72.7</ele>
        <time>2020-06-08T18:07:16Z</time>
      </trkpt>
      <trkpt lat="48.38833" lon="-4.51596">
        <ele>72.6</ele>
        <time>2020-06-08T18:07:17Z</time>
      </trkpt>
      <trkpt lat="48.3883" lon="-4.51599">
        <ele>72.6</ele>
        <time>2020-06-08T18:07:18Z</time>
      </trkpt>
      <trkpt lat="48.38827" lon="-4.51604">
        <ele>72.6</ele>
        <time>2020-06-08T18:07:19Z</time>
      </trkpt>
      <trkpt lat="48.38824" lon="-4.51609">
        <ele>72.6</ele>
        <time>2020-06-08T18:07:20Z</time>
      </trkpt>
      <trkpt lat="48.3882" lon="-4.51614">
        <ele>72.6</ele>
        <time>2020-06-08T18:07:21Z</time>
      </trkpt>
      <trkpt lat="48.38817" lon="-4.5162">
        <ele>72.6</ele>
        <time>2020-06-08T18:07:22Z</time>
      </trkpt>
      <trkpt lat="48.38813" lon="-4.51624">
        <ele>72.7</ele>
        <time>2020-06-08T18:07:23Z</time>
      </trkpt>
      <trkpt lat="48.3881" lon="-4.5163">
        <ele>72.8</ele>
        <time>2020-06-08T18:07:24Z</time>
      </trkpt>
      <trkpt lat="48.38807" lon="-4.51636">
        <ele>72.9</ele>
        <time>2020-06-08T18:07:25Z</time>
      </trkpt>
      <trkpt lat="48.38804" lon="-4.51642">
        <ele>73</ele>
        <time>2020-06-08T18:07:26Z</time>
      </trkpt>
      <trkpt lat="48.38802" lon="-4.51646">
        <ele>73.2</ele>
        <time>2020-06-08T18:07:27Z</time>
      </trkpt>
      <trkpt lat="48.388" lon="-4.51652">
        <ele>73.3</ele>
        <time>2020-06-08T18:07:28Z</time>
      </trkpt>
      <trkpt lat="48.38799" lon="-4.51657">
        <ele>73.5</ele>
        <time>2020-06-08T18:07:29Z</time>
      </trkpt>
      <trkpt lat="48.38797" lon="-4.51664">
        <ele>73.8</ele>
        <time>2020-06-08T18:07:30Z</time>
      </trkpt>
      <trkpt lat="48.38796" lon="-4.5167">
        <ele>74</ele>
        <time>2020-06-08T18:07:31Z</time>
      </trkpt>
      <trkpt lat="48.38794" lon="-4.51675">
        <ele>74.2</ele>
        <time>2020-06-08T18:07:32Z</time>
      </trkpt>
      <trkpt lat="48.38793" lon="-4.51683">
        <ele>74.5</ele>
        <time>2020-06-08T18:07:33Z</time>
      </trkpt>
      <trkpt lat="48.38792" lon="-4.51688">
        <ele>74.7</ele>
        <time>2020-06-08T18:07:34Z</time>
      </trkpt>
      <trkpt lat="48.38793" lon="-4.51694">
        <ele>74.9</ele>
        <time>2020-06-08T18:07:35Z</time>
      </trkpt>
      <trkpt lat="48.38792" lon="-4.517">
        <ele>75.2</ele>
        <time>2020-06-08T18:07:36Z</time>
      </trkpt>
      <trkpt lat="48.38791" lon="-4.51706">
        <ele>75.4</ele>
        <time>2020-06-08T18:07:37Z</time>
      </trkpt>
      <trkpt lat="48.38791" lon="-4.51713">
        <ele>75.7</ele>
        <time>2020-06-08T18:07:38Z</time>
      </trkpt>
      <trkpt lat="48.3879" lon="-4.51719">
        <ele>75.9</ele>
        <time>2020-06-08T18:07:39Z</time>
      </trkpt>
      <trkpt lat="48.38789" lon="-4.51725">
        <ele>76.2</ele>
        <time>2020-06-08T18:07:40Z</time>
      </trkpt>
      <trkpt lat="48.38788" lon="-4.51731">
        <ele>76.5</ele>
        <time>2020-06-08T18:07:41Z</time>
      </trkpt>
      <trkpt lat="48.38787" lon="-4.51736">
        <ele>76.7</ele>
        <time>2020-06-08T18:07:42Z</time>
      </trkpt>
      <trkpt lat="48.38785" lon="-4.51743">
        <ele>77</ele>
        <time>2020-06-08T18:07:43Z</time>
      </trkpt>
      <trkpt lat="48.38784" lon="-4.51749">
        <ele>77.3</ele>
        <time>2020-06-08T18:07:44Z</time>
      </trkpt>
      <trkpt lat="48.38784" lon="-4.51756">
        <ele>77.6</ele>
        <time>2020-06-08T18:07:45Z</time>
      </trkpt>
      <trkpt lat="48.38783" lon="-4.51761">
        <ele>77.9</ele>
        <time>2020-06-08T18:07:46Z</time>
      </trkpt>
      <trkpt lat="48.38783" lon="-4.51767">
        <ele>78.1</ele>
        <time>2020-06-08T18:07:47Z</time>
      </trkpt>
      <trkpt lat="48.38782" lon="-4.51771">
        <ele>78.3</ele>
        <time>2020-06-08T18:07:48Z</time>
      </trkpt>
      <trkpt lat="48.38781" lon="-4.51777">
        <ele>78.6</ele>
        <time>2020-06-08T18:07:49Z</time>
      </trkpt>
      <trkpt lat="48.38781" lon="-4.51783">
        <ele>78.9</ele>
        <time>2020-06-08T18:07:50Z</time>
      </trkpt>
      <trkpt lat="48.38781" lon="-4.51789">
        <ele>79.2</ele>
        <time>2020-06-08T18:07:51Z</time>
      </trkpt>
      <trkpt lat="48.38779" lon="-4.51795">
        <ele>79.5</ele>
        <time>2020-06-08T18:07:52Z</time>
      </trkpt>
      <trkpt lat="48.38778" lon="-4.51799">
        <ele>79.7</ele>
        <time>2020-06-08T18:07:53Z</time>
      </trkpt>
      <trkpt lat="48.38776" lon="-4.51805">
        <ele>80</ele>
        <time>2020-06-08T18:07:54Z</time>
      </trkpt>
      <trkpt lat="48.38775" lon="-4.5181">
        <ele>80.2</ele>
        <time>2020-06-08T18:07:55Z</time>
      </trkpt>
      <trkpt lat="48.38773" lon="-4.51815">
        <ele>80.3</ele>
        <time>2020-06-08T18:07:56Z</time>
      </trkpt>
      <trkpt lat="48.38772" lon="-4.51818">
        <ele>80.5</ele>
        <time>2020-06-08T18:07:57Z</time>
      </trkpt>
      <trkpt lat="48.38771" lon="-4.51823">
        <ele>80.7</ele>
        <time>2020-06-08T18:07:58Z</time>
      </trkpt>
      <trkpt lat="48.38769" lon="-4.51827">
        <ele>80.9</ele>
        <time>2020-06-08T18:07:59Z</time>
      </trkpt>
      <trkpt lat="48.38767" lon="-4.51831">
        <ele>81</ele>
        <time>2020-06-08T18:08:00Z</time>
      </trkpt>
      <trkpt lat="48.38765" lon="-4.51837">
        <ele>81.3</ele>
        <time>2020-06-08T18:08:01Z</time>
      </trkpt>
      <trkpt lat="48.38762" lon="-4.51842">
        <ele>81.5</ele>
        <time>2020-06-08T18:08:02Z</time>
      </trkpt>
      <trkpt lat="48.3876" lon="-4.51847">
        <ele>81.7</ele>
        <time>2020-06-08T18:08:03Z</time>
      </trkpt>
      <trkpt lat="48.38756" lon="-4.51851">
        <ele>81.8</ele>
        <time>2020-06-08T18:08:04Z</time>
      </trkpt>
      <trkpt lat="48.38755" lon="-4.51857">
        <ele>82</ele>
        <time>2020-06-08T18:08:05Z</time>
      </trkpt>
      <trkpt lat="48.38752" lon="-4.51861">
        <ele>82.2</ele>
        <time>2020-06-08T18:08:06Z</time>
      </trkpt>
      <trkpt lat="48.38748" lon="-4.51864">
        <ele>82.3</ele>
        <time>2020-06-08T18:08:07Z</time>
      </trkpt>
      <trkpt lat="48.38746" lon="-4.51868">
        <ele>82.6</ele>
        <time>2020-06-08T18:08:08Z</time>
      </trkpt>
      <trkpt lat="48.38744" lon="-4.51872">
        <ele>82.7</ele>
        <time>2020-06-08T18:08:09Z</time>
      </trkpt>
      <trkpt lat="48.38741" lon="-4.51875">
        <ele>82.9</ele>
        <time>2020-06-08T18:08:10Z</time>
      </trkpt>
      <trkpt lat="48.38738" lon="-4.51877">
        <ele>83</ele>
        <time>2020-06-08T18:08:11Z</time>
      </trkpt>
      <trkpt lat="48.38735" lon="-4.51881">
        <ele>83.1</ele>
        <time>2020-06-08T18:08:12Z</time>
      </trkpt>
      <trkpt lat="48.38733" lon="-4.51883">
        <ele>83.2</ele>
        <time>2020-06-08T18:08:13Z</time>
      </trkpt>
      <trkpt lat="48.38731" lon="-4.51886">
        <ele>83.3</ele>
        <time>2020-06-08T18:08:14Z</time>
      </trkpt>
      <trkpt lat="48.38729" lon="-4.51889">
        <ele>83.4</ele>
        <time>2020-06-08T18:08:15Z</time>
      </trkpt>
      <trkpt lat="48.38726" lon="-4.51893">
        <ele>83.5</ele>
        <time>2020-06-08T18:08:16Z</time>
      </trkpt>
      <trkpt lat="48.38722" lon="-4.51896">
        <ele>83.7</ele>
        <time>2020-06-08T18:08:17Z</time>
      </trkpt>
      <trkpt lat="48.38719" lon="-4.519">
        <ele>83.8</ele>
        <time>2020-06-08T18:08:18Z</time>
      </trkpt>
      <trkpt lat="48.38716" lon="-4.51904">
        <ele>84</ele>
        <time>2020-06-08T18:08:19Z</time>
      </trkpt>
      <trkpt lat="48.38713" lon="-4.51908">
        <ele>84.1</ele>
        <time>2020-06-08T18:08:20Z</time>
      </trkpt>
      <trkpt lat="48.38711" lon="-4.51911">
        <ele>84.2</ele>
        <time>2020-06-08T18:08:21Z</time>
      </trkpt>
      <trkpt lat="48.38708" lon="-4.51914">
        <ele>84.3</ele>
        <time>2020-06-08T18:08:22Z</time>
      </trkpt>
      <trkpt lat="48.38704" lon="-4.51916">
        <ele>84.5</ele>
        <time>2020-06-08T18:08:23Z</time>
      </trkpt>
      <trkpt lat="48.38701" lon="-4.51919">
        <ele>84.6</ele>
        <time>2020-06-08T18:08:24Z</time>
      </trkpt>
      <trkpt lat="48.38696" lon="-4.5192">
        <ele>84.7</ele>
        <time>2020-06-08T18:08:25Z</time>
      </trkpt>
      <trkpt lat="48.38693" lon="-4.51922">
        <ele>84.7</ele>
        <time>2020-06-08T18:08:26Z</time>
      </trkpt>
      <trkpt lat="48.3869" lon="-4.51926">
        <ele>84.8</ele>
        <time>2020-06-08T18:08:27Z</time>
      </trkpt>
      <trkpt lat="48.38689" lon="-4.51932">
        <ele>84.8</ele>
        <time>2020-06-08T18:08:28Z</time>
      </trkpt>
      <trkpt lat="48.38687" lon="-4.51939">
        <ele>84.9</ele>
        <time>2020-06-08T18:08:29Z</time>
      </trkpt>
      <trkpt lat="48.38685" lon="-4.51945">
        <ele>85</ele>
        <time>2020-06-08T18:08:30Z</time>
      </trkpt>
      <trkpt lat="48.38683" lon="-4.51953">
        <ele>85</ele>
        <time>2020-06-08T18:08:31Z</time>
      </trkpt>
      <trkpt lat="48.38682" lon="-4.51958">
        <ele>85.1</ele>
        <time>2020-06-08T18:08:32Z</time>
      </trkpt>
      <trkpt lat="48.38682" lon="-4.51965">
        <ele>85.1</ele>
        <time>2020-06-08T18:08:33Z</time>
      </trkpt>
      <trkpt lat="48.38682" lon="-4.51971">
        <ele>85.1</ele>
        <time>2020-06-08T18:08:34Z</time>
      </trkpt>
      <trkpt lat="48.38682" lon="-4.51977">
        <ele>85.2</ele>
        <time>2020-06-08T18:08:35Z</time>
      </trkpt>
      <trkpt lat="48.38683" lon="-4.51984">
        <ele>85.2</ele>
        <time>2020-06-08T18:08:36Z</time>
      </trkpt>
      <trkpt lat="48.38683" lon="-4.5199">
        <ele>85.2</ele>
        <time>2020-06-08T18:08:37Z</time>
      </trkpt>
      <trkpt lat="48.38686" lon="-4.51997">
        <ele>85.2</ele>
        <time>2020-06-08T18:08:38Z</time>
      </trkpt>
      <trkpt lat="48.38687" lon="-4.52003">
        <ele>85.3</ele>
        <time>2020-06-08T18:08:39Z</time>
      </trkpt>
      <trkpt lat="48.38688" lon="-4.52009">
        <ele>85.3</ele>
        <time>2020-06-08T18:08:40Z</time>
      </trkpt>
      <trkpt lat="48.3869" lon="-4.52016">
        <ele>85.4</ele>
        <time>2020-06-08T18:08:41Z</time>
      </trkpt>
      <trkpt lat="48.38691" lon="-4.52024">
        <ele>85.4</ele>
        <time>2020-06-08T18:08:42Z</time>
      </trkpt>
      <trkpt lat="48.38692" lon="-4.52032">
        <ele>85.5</ele>
        <time>2020-06-08T18:08:43Z</time>
      </trkpt>
      <trkpt lat="48.38694" lon="-4.52037">
        <ele>85.6</ele>
        <time>2020-06-08T18:08:44Z</time>
      </trkpt>
      <trkpt lat="48.38694" lon="-4.52044">
        <ele>85.6</ele>
        <time>2020-06-08T18:08:45Z</time>
      </trkpt>
      <trkpt lat="48.38695" lon="-4.52051">
        <ele>85.7</ele>
        <time>2020-06-08T18:08:46Z</time>
      </trkpt>
      <trkpt lat="48.38696" lon="-4.52057">
        <ele>85.7</ele>
        <time>2020-06-08T18:08:47Z</time>
      </trkpt>
      <trkpt lat="48.38698" lon="-4.52061">
        <ele>85.7</ele>
        <time>2020-06-08T18:08:48Z</time>
      </trkpt>
      <trkpt lat="48.387" lon="-4.52066">
        <ele>85.8</ele>
        <time>2020-06-08T18:08:49Z</time>
      </trkpt>
      <trkpt lat="48.38702" lon="-4.5207">
        <ele>85.8</ele>
        <time>2020-06-08T18:08:50Z</time>
      </trkpt>
      <trkpt lat="48.38704" lon="-4.52076">
        <ele>85.8</ele>
        <time>2020-06-08T18:08:51Z</time>
      </trkpt>
      <trkpt lat="48.38706" lon="-4.52082">
        <ele>85.8</ele>
        <time>2020-06-08T18:08:52Z</time>
      </trkpt>
      <trkpt lat="48.38707" lon="-4.52088">
        <ele>85.8</ele>
        <time>2020-06-08T18:08:53Z</time>
      </trkpt>
      <trkpt lat="48.38708" lon="-4.52091">
        <ele>85.8</ele>
        <time>2020-06-08T18:08:54Z</time>
      </trkpt>
      <trkpt lat="48.3871" lon="-4.52096">
        <ele>85.8</ele>
        <time>2020-06-08T18:08:55Z</time>
      </trkpt>
      <trkpt lat="48.38711" lon="-4.52103">
        <ele>85.8</ele>
        <time>2020-06-08T18:08:56Z</time>
      </trkpt>
      <trkpt lat="48.38712" lon="-4.5211">
        <ele>85.9</ele>
        <time>2020-06-08T18:08:57Z</time>
      </trkpt>
      <trkpt lat="48.38714" lon="-4.52117">
        <ele>85.9</ele>
        <time>2020-06-08T18:08:58Z</time>
      </trkpt>
      <trkpt lat="48.38716" lon="-4.52126">
        <ele>85.9</ele>
        <time>2020-06-08T18:08:59Z</time>
      </trkpt>
      <trkpt lat="48.38719" lon="-4.52134">
        <ele>86</ele>
        <time>2020-06-08T18:09:00Z</time>
      </trkpt>
      <trkpt lat="48.3872" lon="-4.52139">
        <ele>86</ele>
        <time>2020-06-08T18:09:01Z</time>
      </trkpt>
      <trkpt lat="48.38722" lon="-4.52146">
        <ele>86</ele>
        <time>2020-06-08T18:09:02Z</time>
      </trkpt>
      <trkpt lat="48.38723" lon="-4.52153">
        <ele>86.1</ele>
        <time>2020-06-08T18:09:03Z</time>
      </trkpt>
      <trkpt lat="48.38726" lon="-4.52159">
        <ele>86.2</ele>
        <time>2020-06-08T18:09:04Z</time>
      </trkpt>
      <trkpt lat="48.38728" lon="-4.52168">
        <ele>86.3</ele>
        <time>2020-06-08T18:09:05Z</time>
      </trkpt>
      <trkpt lat="48.38731" lon="-4.52174">
        <ele>86.4</ele>
        <time>2020-06-08T18:09:06Z</time>
      </trkpt>
      <trkpt lat="48.38734" lon="-4.5218">
        <ele>86.5</ele>
        <time>2020-06-08T18:09:07Z</time>
      </trkpt>
      <trkpt lat="48.38736" lon="-4.52187">
        <ele>86.6</ele>
        <time>2020-06-08T18:09:08Z</time>
      </trkpt>
      <trkpt lat="48.38738" lon="-4.52193">
        <ele>86.7</ele>
        <time>2020-06-08T18:09:09Z</time>
      </trkpt>
      <trkpt lat="48.3874" lon="-4.52199">
        <ele>86.8</ele>
        <time>2020-06-08T18:09:10Z</time>
      </trkpt>
      <trkpt lat="48.38741" lon="-4.52206">
        <ele>87</ele>
        <time>2020-06-08T18:09:11Z</time>
      </trkpt>
      <trkpt lat="48.38742" lon="-4.52215">
        <ele>87.1</ele>
        <time>2020-06-08T18:09:12Z</time>
      </trkpt>
      <trkpt lat="48.38744" lon="-4.52221">
        <ele>87.2</ele>
        <time>2020-06-08T18:09:13Z</time>
      </trkpt>
      <trkpt lat="48.38745" lon="-4.52226">
        <ele>87.4</ele>
        <time>2020-06-08T18:09:14Z</time>
      </trkpt>
      <trkpt lat="48.38747" lon="-4.52231">
        <ele>87.5</ele>
        <time>2020-06-08T18:09:15Z</time>
      </trkpt>
      <trkpt lat="48.38748" lon="-4.52236">
        <ele>87.6</ele>
        <time>2020-06-08T18:09:16Z</time>
      </trkpt>
      <trkpt lat="48.38749" lon="-4.52242">
        <ele>87.7</ele>
        <time>2020-06-08T18:09:17Z</time>
      </trkpt>
      <trkpt lat="48.3875" lon="-4.52248">
        <ele>87.8</ele>
        <time>2020-06-08T18:09:18Z</time>
      </trkpt>
      <trkpt lat="48.3875" lon="-4.52253">
        <ele>87.9</ele>
        <time>2020-06-08T18:09:19Z</time>
      </trkpt>
      <trkpt lat="48.38752" lon="-4.52257">
        <ele>88</ele>
        <time>2020-06-08T18:09:20Z</time>
      </trkpt>
      <trkpt lat="48.38752" lon="-4.52262">
        <ele>88.1</ele>
        <time>2020-06-08T18:09:21Z</time>
      </trkpt>
      <trkpt lat="48.38752" lon="-4.52267">
        <ele>88.3</ele>
        <time>2020-06-08T18:09:22Z</time>
      </trkpt>
      <trkpt lat="48.38753" lon="-4.52274">
        <ele>88.4</ele>
        <time>2020-06-08T18:09:23Z</time>
      </trkpt>
      <trkpt lat="48.38754" lon="-4.5228">
        <ele>88.7</ele>
        <time>2020-06-08T18:09:24Z</time>
      </trkpt>
      <trkpt lat="48.38755" lon="-4.52285">
        <ele>88.8</ele>
        <time>2020-06-08T18:09:25Z</time>
      </trkpt>
      <trkpt lat="48.38755" lon="-4.5229">
        <ele>88.9</ele>
        <time>2020-06-08T18:09:26Z</time>
      </trkpt>
      <trkpt lat="48.38754" lon="-4.52295">
        <ele>89</ele>
        <time>2020-06-08T18:09:27Z</time>
      </trkpt>
      <trkpt lat="48.38753" lon="-4.523">
        <ele>89.1</ele>
        <time>2020-06-08T18:09:28Z</time>
      </trkpt>
      <trkpt lat="48.38752" lon="-4.52305">
        <ele>89.3</ele>
        <time>2020-06-08T18:09:29Z</time>
      </trkpt>
      <trkpt lat="48.38752" lon="-4.52311">
        <ele>89.4</ele>
        <time>2020-06-08T18:09:30Z</time>
      </trkpt>
      <trkpt lat="48.38751" lon="-4.52318">
        <ele>89.5</ele>
        <time>2020-06-08T18:09:31Z</time>
      </trkpt>
      <trkpt lat="48.38751" lon="-4.52325">
        <ele>89.7</ele>
        <time>2020-06-08T18:09:32Z</time>
      </trkpt>
      <trkpt lat="48.3875" lon="-4.52331">
        <ele>89.8</ele>
        <time>2020-06-08T18:09:33Z</time>
      </trkpt>
      <trkpt lat="48.38748" lon="-4.52336">
        <ele>90</ele>
        <time>2020-06-08T18:09:34Z</time>
      </trkpt>
      <trkpt lat="48.38748" lon="-4.52341">
        <ele>90.1</ele>
        <time>2020-06-08T18:09:35Z</time>
      </trkpt>
      <trkpt lat="48.38747" lon="-4.52347">
        <ele>90.2</ele>
        <time>2020-06-08T18:09:36Z</time>
      </trkpt>
      <trkpt lat="48.38746" lon="-4.52352">
        <ele>90.4</ele>
        <time>2020-06-08T18:09:37Z</time>
      </trkpt>
      <trkpt lat="48.38745" lon="-4.52357">
        <ele>90.5</ele>
        <time>2020-06-08T18:09:38Z</time>
      </trkpt>
      <trkpt lat="48.38743" lon="-4.52363">
        <ele>90.6</ele>
        <time>2020-06-08T18:09:39Z</time>
      </trkpt>
      <trkpt lat="48.38743" lon="-4.52368">
        <ele>90.7</ele>
        <time>2020-06-08T18:09:40Z</time>
      </trkpt>
      <trkpt lat="48.38743" lon="-4.52374">
        <ele>90.9</ele>
        <time>2020-06-08T18:09:41Z</time>
      </trkpt>
      <trkpt lat="48.38742" lon="-4.5238">
        <ele>91</ele>
        <time>2020-06-08T18:09:42Z</time>
      </trkpt>
      <trkpt lat="48.38742" lon="-4.52385">
        <ele>91.1</ele>
        <time>2020-06-08T18:09:43Z</time>
      </trkpt>
      <trkpt lat="48.3874" lon="-4.5239">
        <ele>91.3</ele>
        <time>2020-06-08T18:09:44Z</time>
      </trkpt>
      <trkpt lat="48.38739" lon="-4.52395">
        <ele>91.4</ele>
        <time>2020-06-08T18:09:45Z</time>
      </trkpt>
      <trkpt lat="48.38739" lon="-4.52399">
        <ele>91.5</ele>
        <time>2020-06-08T18:09:46Z</time>
      </trkpt>
      <trkpt lat="48.38738" lon="-4.52407">
        <ele>91.7</ele>
        <time>2020-06-08T18:09:47Z</time>
      </trkpt>
      <trkpt lat="48.38737" lon="-4.52412">
        <ele>91.9</ele>
        <time>2020-06-08T18:09:48Z</time>
      </trkpt>
      <trkpt lat="48.38736" lon="-4.52418">
        <ele>92</ele>
        <time>2020-06-08T18:09:49Z</time>
      </trkpt>
      <trkpt lat="48.38735" lon="-4.52425">
        <ele>92.1</ele>
        <time>2020-06-08T18:09:50Z</time>
      </trkpt>
      <trkpt lat="48.38735" lon="-4.5243">
        <ele>92.3</ele>
        <time>2020-06-08T18:09:51Z</time>
      </trkpt>
      <trkpt lat="48.38734" lon="-4.52435">
        <ele>92.4</ele>
        <time>2020-06-08T18:09:52Z</time>
      </trkpt>
      <trkpt lat="48.38733" lon="-4.52441">
        <ele>92.5</ele>
        <time>2020-06-08T18:09:53Z</time>
      </trkpt>
      <trkpt lat="48.38733" lon="-4.52446">
        <ele>92.6</ele>
        <time>2020-06-08T18:09:54Z</time>
      </trkpt>
      <trkpt lat="48.38733" lon="-4.52452">
        <ele>92.8</ele>
        <time>2020-06-08T18:09:55Z</time>
      </trkpt>
      <trkpt lat="48.38732" lon="-4.52456">
        <ele>93</ele>
        <time>2020-06-08T18:09:56Z</time>
      </trkpt>
      <trkpt lat="48.38732" lon="-4.52461">
        <ele>93.1</ele>
        <time>2020-06-08T18:09:57Z</time>
      </trkpt>
      <trkpt lat="48.38732" lon="-4.52466">
        <ele>93.2</ele>
        <time>2020-06-08T18:09:58Z</time>
      </trkpt>
      <trkpt lat="48.38732" lon="-4.52471">
        <ele>93.3</ele>
        <time>2020-06-08T18:09:59Z</time>
      </trkpt>
      <trkpt lat="48.38731" lon="-4.52476">
        <ele>93.4</ele>
        <time>2020-06-08T18:10:00Z</time>
      </trkpt>
      <trkpt lat="48.3873" lon="-4.52481">
        <ele>93.4</ele>
        <time>2020-06-08T18:10:01Z</time>
      </trkpt>
      <trkpt lat="48.38727" lon="-4.52487">
        <ele>93.6</ele>
        <time>2020-06-08T18:10:02Z</time>
      </trkpt>
      <trkpt lat="48.38726" lon="-4.52493">
        <ele>93.7</ele>
        <time>2020-06-08T18:10:03Z</time>
      </trkpt>
      <trkpt lat="48.38725" lon="-4.52499">
        <ele>93.7</ele>
        <time>2020-06-08T18:10:04Z</time>
      </trkpt>
      <trkpt lat="48.38724" lon="-4.52504">
        <ele>93.8</ele>
        <time>2020-06-08T18:10:05Z</time>
      </trkpt>
      <trkpt lat="48.38724" lon="-4.5251">
        <ele>93.9</ele>
        <time>2020-06-08T18:10:06Z</time>
      </trkpt>
      <trkpt lat="48.38724" lon="-4.52513">
        <ele>93.9</ele>
        <time>2020-06-08T18:10:07Z</time>
      </trkpt>
      <trkpt lat="48.38723" lon="-4.52519">
        <ele>93.9</ele>
        <time>2020-06-08T18:10:08Z</time>
      </trkpt>
      <trkpt lat="48.38722" lon="-4.52523">
        <ele>94</ele>
        <time>2020-06-08T18:10:09Z</time>
      </trkpt>
      <trkpt lat="48.38721" lon="-4.52527">
        <ele>94</ele>
        <time>2020-06-08T18:10:10Z</time>
      </trkpt>
      <trkpt lat="48.38721" lon="-4.52532">
        <ele>94</ele>
        <time>2020-06-08T18:10:11Z</time>
      </trkpt>
      <trkpt lat="48.3872" lon="-4.52537">
        <ele>94.1</ele>
        <time>2020-06-08T18:10:12Z</time>
      </trkpt>
      <trkpt lat="48.38719" lon="-4.52541">
        <ele>94.1</ele>
        <time>2020-06-08T18:10:13Z</time>
      </trkpt>
      <trkpt lat="48.3872" lon="-4.52548">
        <ele>94.2</ele>
        <time>2020-06-08T18:10:14Z</time>
      </trkpt>
      <trkpt lat="48.38719" lon="-4.52551">
        <ele>94.2</ele>
        <time>2020-06-08T18:10:15Z</time>
      </trkpt>
      <trkpt lat="48.38718" lon="-4.52557">
        <ele>94.3</ele>
        <time>2020-06-08T18:10:16Z</time>
      </trkpt>
      <trkpt lat="48.38718" lon="-4.52564">
        <ele>94.4</ele>
        <time>2020-06-08T18:10:17Z</time>
      </trkpt>
      <trkpt lat="48.38717" lon="-4.52568">
        <ele>94.4</ele>
        <time>2020-06-08T18:10:18Z</time>
      </trkpt>
      <trkpt lat="48.38716" lon="-4.52573">
        <ele>94.5</ele>
        <time>2020-06-08T18:10:19Z</time>
      </trkpt>
      <trkpt lat="48.38716" lon="-4.52581">
        <ele>94.5</ele>
        <time>2020-06-08T18:10:20Z</time>
      </trkpt>
      <trkpt lat="48.38716" lon="-4.52586">
        <ele>94.6</ele>
        <time>2020-06-08T18:10:21Z</time>
      </trkpt>
      <trkpt lat="48.38715" lon="-4.52591">
        <ele>94.6</ele>
        <time>2020-06-08T18:10:22Z</time>
      </trkpt>
      <trkpt lat="48.38715" lon="-4.52596">
        <ele>94.6</ele>
        <time>2020-06-08T18:10:23Z</time>
      </trkpt>
      <trkpt lat="48.38715" lon="-4.52601">
        <ele>94.7</ele>
        <time>2020-06-08T18:10:24Z</time>
      </trkpt>
      <trkpt lat="48.38714" lon="-4.52606">
        <ele>94.7</ele>
        <time>2020-06-08T18:10:25Z</time>
      </trkpt>
      <trkpt lat="48.38713" lon="-4.52611">
        <ele>94.7</ele>
        <time>2020-06-08T18:10:26Z</time>
      </trkpt>
      <trkpt lat="48.38712" lon="-4.52617">
        <ele>94.7</ele>
        <time>2020-06-08T18:10:27Z</time>
      </trkpt>
      <trkpt lat="48.38711" lon="-4.52622">
        <ele>94.8</ele>
        <time>2020-06-08T18:10:28Z</time>
      </trkpt>
      <trkpt lat="48.3871" lon="-4.52627">
        <ele>94.8</ele>
        <time>2020-06-08T18:10:29Z</time>
      </trkpt>
      <trkpt lat="48.3871" lon="-4.52633">
        <ele>94.8</ele>
        <time>2020-06-08T18:10:30Z</time>
      </trkpt>
      <trkpt lat="48.38709" lon="-4.52638">
        <ele>94.9</ele>
        <time>2020-06-08T18:10:31Z</time>
      </trkpt>
      <trkpt lat="48.38708" lon="-4.52643">
        <ele>94.9</ele>
        <time>2020-06-08T18:10:32Z</time>
      </trkpt>
      <trkpt lat="48.38708" lon="-4.52644">
        <ele>94.9</ele>
        <time>2020-06-08T18:10:33Z</time>
      </trkpt>
      <trkpt lat="48.38707" lon="-4.52648">
        <ele>94.9</ele>
        <time>2020-06-08T18:10:34Z</time>
      </trkpt>
      <trkpt lat="48.38707" lon="-4.52649">
        <ele>94.9</ele>
        <time>2020-06-08T18:10:35Z</time>
      </trkpt>
      <trkpt lat="48.38708" lon="-4.52651">
        <ele>94.9</ele>
        <time>2020-06-08T18:10:36Z</time>
      </trkpt>
      <trkpt lat="48.38708" lon="-4.52653">
        <ele>94.9</ele>
        <time>2020-06-08T18:10:37Z</time>
      </trkpt>
      <trkpt lat="48.38708" lon="-4.52654">
        <ele>94.9</ele>
        <time>2020-06-08T18:10:38Z</time>
      </trkpt>
      <trkpt lat="48.38709" lon="-4.52655">
        <ele>94.9</ele>
        <time>2020-06-08T18:10:39Z</time>
      </trkpt>
      <trkpt lat="48.38709" lon="-4.52655">
        <ele>94.9</ele>
        <time>2020-06-08T18:10:40Z</time>
      </trkpt>
      <trkpt lat="48.38709" lon="-4.52656">
        <ele>94.9</ele>
        <time>2020-06-08T18:10:41Z</time>
      </trkpt>
      <trkpt lat="48.38709" lon="-4.52656">
        <ele>94.9</ele>
        <time>2020-06-08T18:10:42Z</time>
      </trkpt>
      <trkpt lat="48.38709" lon="-4.52657">
        <ele>94.9</ele>
        <time>2020-06-08T18:10:43Z</time>
      </trkpt>
      <trkpt lat="48.38709" lon="-4.52657">
        <ele>94.9</ele>
        <time>2020-06-08T18:10:44Z</time>
      </trkpt>
      <trkpt lat="48.38709" lon="-4.52658">
        <ele>94.9</ele>
        <time>2020-06-08T18:10:45Z</time>
      </trkpt>
      <trkpt lat="48.38709" lon="-4.52658">
        <ele>94.9</ele>
        <time>2020-06-08T18:10:46Z</time>
      </trkpt>
      <trkpt lat="48.38709" lon="-4.52659">
        <ele>94.9</ele>
        <time>2020-06-08T18:10:47Z</time>
      </trkpt>
      <trkpt lat="48.38709" lon="-4.52659">
        <ele>94.9</ele>
        <time>2020-06-08T18:10:48Z</time>
      </trkpt>
      <trkpt lat="48.38709" lon="-4.5266">
        <ele>94.9</ele>
        <time>2020-06-08T18:10:49Z</time>
      </trkpt>
      <trkpt lat="48.38709" lon="-4.5266">
        <ele>94.9</ele>
        <time>2020-06-08T18:19:45Z</time>
      </trkpt>
      <trkpt lat="48.3871" lon="-4.5266">
        <ele>94.9</ele>
        <time>2020-06-08T18:19:46Z</time>
      </trkpt>
      <trkpt lat="48.3871" lon="-4.52661">
        <ele>94.9</ele>
        <time>2020-06-08T18:19:47Z</time>
      </trkpt>
      <trkpt lat="48.3871" lon="-4.52666">
        <ele>94.8</ele>
        <time>2020-06-08T18:19:48Z</time>
      </trkpt>
      <trkpt lat="48.3871" lon="-4.52667">
        <ele>94.8</ele>
        <time>2020-06-08T18:19:49Z</time>
      </trkpt>
      <trkpt lat="48.38709" lon="-4.52672">
        <ele>94.8</ele>
        <time>2020-06-08T18:19:50Z</time>
      </trkpt>
      <trkpt lat="48.38709" lon="-4.52675">
        <ele>94.8</ele>
        <time>2020-06-08T18:19:51Z</time>
      </trkpt>
      <trkpt lat="48.38708" lon="-4.52679">
        <ele>94.8</ele>
        <time>2020-06-08T18:19:52Z</time>
      </trkpt>
      <trkpt lat="48.38706" lon="-4.52684">
        <ele>94.8</ele>
        <time>2020-06-08T18:19:53Z</time>
      </trkpt>
      <trkpt lat="48.38705" lon="-4.52688">
        <ele>94.8</ele>
        <time>2020-06-08T18:19:54Z</time>
      </trkpt>
      <trkpt lat="48.38705" lon="-4.52694">
        <ele>94.8</ele>
        <time>2020-06-08T18:19:55Z</time>
      </trkpt>
      <trkpt lat="48.38703" lon="-4.52699">
        <ele>94.8</ele>
        <time>2020-06-08T18:19:56Z</time>
      </trkpt>
      <trkpt lat="48.38703" lon="-4.52705">
        <ele>94.8</ele>
        <time>2020-06-08T18:19:57Z</time>
      </trkpt>
      <trkpt lat="48.38702" lon="-4.52711">
        <ele>94.8</ele>
        <time>2020-06-08T18:19:58Z</time>
      </trkpt>
      <trkpt lat="48.38701" lon="-4.52718">
        <ele>94.7</ele>
        <time>2020-06-08T18:19:59Z</time>
      </trkpt>
      <trkpt lat="48.387" lon="-4.52724">
        <ele>94.7</ele>
        <time>2020-06-08T18:20:00Z</time>
      </trkpt>
      <trkpt lat="48.38699" lon="-4.52732">
        <ele>94.7</ele>
        <time>2020-06-08T18:20:01Z</time>
      </trkpt>
      <trkpt lat="48.38698" lon="-4.52739">
        <ele>94.6</ele>
        <time>2020-06-08T18:20:02Z</time>
      </trkpt>
      <trkpt lat="48.38697" lon="-4.52746">
        <ele>94.6</ele>
        <time>2020-06-08T18:20:03Z</time>
      </trkpt>
      <trkpt lat="48.38696" lon="-4.52753">
        <ele>94.6</ele>
        <time>2020-06-08T18:20:04Z</time>
      </trkpt>
      <trkpt lat="48.38695" lon="-4.5276">
        <ele>94.6</ele>
        <time>2020-06-08T18:20:05Z</time>
      </trkpt>
      <trkpt lat="48.38694" lon="-4.52768">
        <ele>94.6</ele>
        <time>2020-06-08T18:20:06Z</time>
      </trkpt>
      <trkpt lat="48.38692" lon="-4.52775">
        <ele>94.6</ele>
        <time>2020-06-08T18:20:07Z</time>
      </trkpt>
      <trkpt lat="48.38692" lon="-4.5278">
        <ele>94.6</ele>
        <time>2020-06-08T18:20:08Z</time>
      </trkpt>
      <trkpt lat="48.38691" lon="-4.52788">
        <ele>94.6</ele>
        <time>2020-06-08T18:20:09Z</time>
      </trkpt>
      <trkpt lat="48.3869" lon="-4.52796">
        <ele>94.6</ele>
        <time>2020-06-08T18:20:10Z</time>
      </trkpt>
      <trkpt lat="48.38689" lon="-4.52804">
        <ele>94.6</ele>
        <time>2020-06-08T18:20:11Z</time>
      </trkpt>
      <trkpt lat="48.38688" lon="-4.5281">
        <ele>94.6</ele>
        <time>2020-06-08T18:20:12Z</time>
      </trkpt>
      <trkpt lat="48.38687" lon="-4.52815">
        <ele>94.6</ele>
        <time>2020-06-08T18:20:13Z</time>
      </trkpt>
      <trkpt lat="48.38686" lon="-4.5282">
        <ele>94.6</ele>
        <time>2020-06-08T18:20:14Z</time>
      </trkpt>
      <trkpt lat="48.38685" lon="-4.52826">
        <ele>94.6</ele>
        <time>2020-06-08T18:20:15Z</time>
      </trkpt>
      <trkpt lat="48.38686" lon="-4.5283">
        <ele>94.7</ele>
        <time>2020-06-08T18:20:16Z</time>
      </trkpt>
      <trkpt lat="48.38686" lon="-4.52835">
        <ele>94.8</ele>
        <time>2020-06-08T18:20:17Z</time>
      </trkpt>
      <trkpt lat="48.38684" lon="-4.5284">
        <ele>94.7</ele>
        <time>2020-06-08T18:20:18Z</time>
      </trkpt>
      <trkpt lat="48.38683" lon="-4.52842">
        <ele>94.7</ele>
        <time>2020-06-08T18:20:19Z</time>
      </trkpt>
      <trkpt lat="48.38684" lon="-4.52847">
        <ele>94.6</ele>
        <time>2020-06-08T18:20:20Z</time>
      </trkpt>
      <trkpt lat="48.38683" lon="-4.52851">
        <ele>94.6</ele>
        <time>2020-06-08T18:20:21Z</time>
      </trkpt>
      <trkpt lat="48.38682" lon="-4.52856">
        <ele>94.6</ele>
        <time>2020-06-08T18:20:22Z</time>
      </trkpt>
      <trkpt lat="48.3868" lon="-4.52861">
        <ele>94.5</ele>
        <time>2020-06-08T18:20:23Z</time>
      </trkpt>
      <trkpt lat="48.38679" lon="-4.52867">
        <ele>94.3</ele>
        <time>2020-06-08T18:20:24Z</time>
      </trkpt>
      <trkpt lat="48.38679" lon="-4.52868">
        <ele>94.3</ele>
        <time>2020-06-08T18:20:25Z</time>
      </trkpt>
      <trkpt lat="48.38678" lon="-4.52873">
        <ele>94.2</ele>
        <time>2020-06-08T18:20:26Z</time>
      </trkpt>
      <trkpt lat="48.38676" lon="-4.52877">
        <ele>94.2</ele>
        <time>2020-06-08T18:20:27Z</time>
      </trkpt>
      <trkpt lat="48.38673" lon="-4.52882">
        <ele>94.1</ele>
        <time>2020-06-08T18:20:28Z</time>
      </trkpt>
      <trkpt lat="48.38672" lon="-4.52884">
        <ele>94.1</ele>
        <time>2020-06-08T18:20:29Z</time>
      </trkpt>
      <trkpt lat="48.38672" lon="-4.52891">
        <ele>94</ele>
        <time>2020-06-08T18:20:30Z</time>
      </trkpt>
      <trkpt lat="48.38672" lon="-4.52898">
        <ele>94</ele>
        <time>2020-06-08T18:20:31Z</time>
      </trkpt>
      <trkpt lat="48.38672" lon="-4.52904">
        <ele>93.9</ele>
        <time>2020-06-08T18:20:32Z</time>
      </trkpt>
      <trkpt lat="48.38671" lon="-4.52911">
        <ele>93.9</ele>
        <time>2020-06-08T18:20:33Z</time>
      </trkpt>
      <trkpt lat="48.3867" lon="-4.52918">
        <ele>93.8</ele>
        <time>2020-06-08T18:20:34Z</time>
      </trkpt>
      <trkpt lat="48.38668" lon="-4.52925">
        <ele>93.8</ele>
        <time>2020-06-08T18:20:35Z</time>
      </trkpt>
      <trkpt lat="48.38666" lon="-4.52932">
        <ele>93.7</ele>
        <time>2020-06-08T18:20:36Z</time>
      </trkpt>
      <trkpt lat="48.38666" lon="-4.52939">
        <ele>93.7</ele>
        <time>2020-06-08T18:20:37Z</time>
      </trkpt>
      <trkpt lat="48.38665" lon="-4.52945">
        <ele>93.6</ele>
        <time>2020-06-08T18:20:38Z</time>
      </trkpt>
      <trkpt lat="48.38664" lon="-4.52952">
        <ele>93.6</ele>
        <time>2020-06-08T18:20:39Z</time>
      </trkpt>
      <trkpt lat="48.38662" lon="-4.5296">
        <ele>93.5</ele>
        <time>2020-06-08T18:20:40Z</time>
      </trkpt>
      <trkpt lat="48.38662" lon="-4.52968">
        <ele>93.5</ele>
        <time>2020-06-08T18:20:41Z</time>
      </trkpt>
      <trkpt lat="48.38661" lon="-4.52974">
        <ele>93.4</ele>
        <time>2020-06-08T18:20:42Z</time>
      </trkpt>
      <trkpt lat="48.38661" lon="-4.52981">
        <ele>93.4</ele>
        <time>2020-06-08T18:20:43Z</time>
      </trkpt>
      <trkpt lat="48.3866" lon="-4.52986">
        <ele>93.4</ele>
        <time>2020-06-08T18:20:44Z</time>
      </trkpt>
      <trkpt lat="48.3866" lon="-4.52994">
        <ele>93.3</ele>
        <time>2020-06-08T18:20:45Z</time>
      </trkpt>
      <trkpt lat="48.38659" lon="-4.53">
        <ele>93.3</ele>
        <time>2020-06-08T18:20:46Z</time>
      </trkpt>
      <trkpt lat="48.38658" lon="-4.53008">
        <ele>93.2</ele>
        <time>2020-06-08T18:20:47Z</time>
      </trkpt>
      <trkpt lat="48.38657" lon="-4.53016">
        <ele>93.1</ele>
        <time>2020-06-08T18:20:48Z</time>
      </trkpt>
      <trkpt lat="48.38655" lon="-4.53025">
        <ele>93.1</ele>
        <time>2020-06-08T18:20:49Z</time>
      </trkpt>
      <trkpt lat="48.38654" lon="-4.53033">
        <ele>93.1</ele>
        <time>2020-06-08T18:20:50Z</time>
      </trkpt>
      <trkpt lat="48.38654" lon="-4.53042">
        <ele>93.1</ele>
        <time>2020-06-08T18:20:51Z</time>
      </trkpt>
      <trkpt lat="48.38653" lon="-4.53051">
        <ele>93.1</ele>
        <time>2020-06-08T18:20:52Z</time>
      </trkpt>
      <trkpt lat="48.38652" lon="-4.53059">
        <ele>93.1</ele>
        <time>2020-06-08T18:20:53Z</time>
      </trkpt>
      <trkpt lat="48.38651" lon="-4.53067">
        <ele>93.1</ele>
        <time>2020-06-08T18:20:54Z</time>
      </trkpt>
      <trkpt lat="48.3865" lon="-4.53075">
        <ele>93.1</ele>
        <time>2020-06-08T18:20:55Z</time>
      </trkpt>
      <trkpt lat="48.38648" lon="-4.53083">
        <ele>93.1</ele>
        <time>2020-06-08T18:20:56Z</time>
      </trkpt>
      <trkpt lat="48.38646" lon="-4.5309">
        <ele>93.1</ele>
        <time>2020-06-08T18:20:57Z</time>
      </trkpt>
      <trkpt lat="48.38644" lon="-4.53098">
        <ele>93.1</ele>
        <time>2020-06-08T18:20:58Z</time>
      </trkpt>
      <trkpt lat="48.38643" lon="-4.53107">
        <ele>93.1</ele>
        <time>2020-06-08T18:20:59Z</time>
      </trkpt>
      <trkpt lat="48.38642" lon="-4.53117">
        <ele>93.2</ele>
        <time>2020-06-08T18:21:00Z</time>
      </trkpt>
      <trkpt lat="48.3864" lon="-4.53126">
        <ele>93.2</ele>
        <time>2020-06-08T18:21:01Z</time>
      </trkpt>
      <trkpt lat="48.38638" lon="-4.53135">
        <ele>93.3</ele>
        <time>2020-06-08T18:21:02Z</time>
      </trkpt>
      <trkpt lat="48.38637" lon="-4.53143">
        <ele>93.4</ele>
        <time>2020-06-08T18:21:03Z</time>
      </trkpt>
      <trkpt lat="48.38635" lon="-4.53152">
        <ele>93.5</ele>
        <time>2020-06-08T18:21:04Z</time>
      </trkpt>
      <trkpt lat="48.38634" lon="-4.53161">
        <ele>93.7</ele>
        <time>2020-06-08T18:21:05Z</time>
      </trkpt>
      <trkpt lat="48.38632" lon="-4.53169">
        <ele>93.8</ele>
        <time>2020-06-08T18:21:06Z</time>
      </trkpt>
      <trkpt lat="48.3863" lon="-4.53177">
        <ele>94</ele>
        <time>2020-06-08T18:21:07Z</time>
      </trkpt>
      <trkpt lat="48.38628" lon="-4.53186">
        <ele>94.1</ele>
        <time>2020-06-08T18:21:08Z</time>
      </trkpt>
      <trkpt lat="48.38628" lon="-4.53195">
        <ele>94.2</ele>
        <time>2020-06-08T18:21:09Z</time>
      </trkpt>
      <trkpt lat="48.38627" lon="-4.53204">
        <ele>94.4</ele>
        <time>2020-06-08T18:21:10Z</time>
      </trkpt>
      <trkpt lat="48.38625" lon="-4.53211">
        <ele>94.5</ele>
        <time>2020-06-08T18:21:11Z</time>
      </trkpt>
      <trkpt lat="48.38623" lon="-4.53217">
        <ele>94.6</ele>
        <time>2020-06-08T18:21:12Z</time>
      </trkpt>
      <trkpt lat="48.38622" lon="-4.53226">
        <ele>94.8</ele>
        <time>2020-06-08T18:21:13Z</time>
      </trkpt>
      <trkpt lat="48.3862" lon="-4.53235">
        <ele>95</ele>
        <time>2020-06-08T18:21:14Z</time>
      </trkpt>
      <trkpt lat="48.38619" lon="-4.53243">
        <ele>95.1</ele>
        <time>2020-06-08T18:21:15Z</time>
      </trkpt>
      <trkpt lat="48.38618" lon="-4.53251">
        <ele>95.3</ele>
        <time>2020-06-08T18:21:16Z</time>
      </trkpt>
      <trkpt lat="48.38617" lon="-4.53259">
        <ele>95.4</ele>
        <time>2020-06-08T18:21:17Z</time>
      </trkpt>
      <trkpt lat="48.38616" lon="-4.53266">
        <ele>95.5</ele>
        <time>2020-06-08T18:21:18Z</time>
      </trkpt>
      <trkpt lat="48.38616" lon="-4.53274">
        <ele>95.7</ele>
        <time>2020-06-08T18:21:19Z</time>
      </trkpt>
      <trkpt lat="48.38614" lon="-4.53282">
        <ele>95.8</ele>
        <time>2020-06-08T18:21:20Z</time>
      </trkpt>
      <trkpt lat="48.38613" lon="-4.53289">
        <ele>95.9</ele>
        <time>2020-06-08T18:21:21Z</time>
      </trkpt>
      <trkpt lat="48.38612" lon="-4.53295">
        <ele>96</ele>
        <time>2020-06-08T18:21:22Z</time>
      </trkpt>
      <trkpt lat="48.38612" lon="-4.53302">
        <ele>96.1</ele>
        <time>2020-06-08T18:21:23Z</time>
      </trkpt>
      <trkpt lat="48.38611" lon="-4.53308">
        <ele>96.2</ele>
        <time>2020-06-08T18:21:24Z</time>
      </trkpt>
      <trkpt lat="48.3861" lon="-4.53312">
        <ele>96.3</ele>
        <time>2020-06-08T18:21:25Z</time>
      </trkpt>
      <trkpt lat="48.3861" lon="-4.53319">
        <ele>96.4</ele>
        <time>2020-06-08T18:21:26Z</time>
      </trkpt>
      <trkpt lat="48.38608" lon="-4.53326">
        <ele>96.4</ele>
        <time>2020-06-08T18:21:27Z</time>
      </trkpt>
      <trkpt lat="48.38607" lon="-4.53331">
        <ele>96.4</ele>
        <time>2020-06-08T18:21:28Z</time>
      </trkpt>
      <trkpt lat="48.38607" lon="-4.53338">
        <ele>96.5</ele>
        <time>2020-06-08T18:21:29Z</time>
      </trkpt>
      <trkpt lat="48.38606" lon="-4.53343">
        <ele>96.5</ele>
        <time>2020-06-08T18:21:30Z</time>
      </trkpt>
      <trkpt lat="48.38605" lon="-4.53348">
        <ele>96.5</ele>
        <time>2020-06-08T18:21:31Z</time>
      </trkpt>
      <trkpt lat="48.38605" lon="-4.53354">
        <ele>96.5</ele>
        <time>2020-06-08T18:21:32Z</time>
      </trkpt>
      <trkpt lat="48.38604" lon="-4.53361">
        <ele>96.6</ele>
        <time>2020-06-08T18:21:33Z</time>
      </trkpt>
      <trkpt lat="48.38603" lon="-4.53369">
        <ele>96.6</ele>
        <time>2020-06-08T18:21:34Z</time>
      </trkpt>
      <trkpt lat="48.38601" lon="-4.53375">
        <ele>96.7</ele>
        <time>2020-06-08T18:21:35Z</time>
      </trkpt>
      <trkpt lat="48.38602" lon="-4.53382">
        <ele>96.7</ele>
        <time>2020-06-08T18:21:36Z</time>
      </trkpt>
      <trkpt lat="48.38602" lon="-4.53386">
        <ele>96.7</ele>
        <time>2020-06-08T18:21:37Z</time>
      </trkpt>
      <trkpt lat="48.38602" lon="-4.53393">
        <ele>96.8</ele>
        <time>2020-06-08T18:21:38Z</time>
      </trkpt>
      <trkpt lat="48.386" lon="-4.534">
        <ele>96.8</ele>
        <time>2020-06-08T18:21:39Z</time>
      </trkpt>
      <trkpt lat="48.38598" lon="-4.53406">
        <ele>96.8</ele>
        <time>2020-06-08T18:21:40Z</time>
      </trkpt>
      <trkpt lat="48.38597" lon="-4.53413">
        <ele>96.8</ele>
        <time>2020-06-08T18:21:41Z</time>
      </trkpt>
      <trkpt lat="48.38596" lon="-4.5342">
        <ele>96.9</ele>
        <time>2020-06-08T18:21:42Z</time>
      </trkpt>
      <trkpt lat="48.38594" lon="-4.53428">
        <ele>96.9</ele>
        <time>2020-06-08T18:21:43Z</time>
      </trkpt>
      <trkpt lat="48.38593" lon="-4.53436">
        <ele>97</ele>
        <time>2020-06-08T18:21:44Z</time>
      </trkpt>
      <trkpt lat="48.38592" lon="-4.53442">
        <ele>97</ele>
        <time>2020-06-08T18:21:45Z</time>
      </trkpt>
      <trkpt lat="48.38592" lon="-4.53448">
        <ele>97</ele>
        <time>2020-06-08T18:21:46Z</time>
      </trkpt>
      <trkpt lat="48.38591" lon="-4.53453">
        <ele>97</ele>
        <time>2020-06-08T18:21:47Z</time>
      </trkpt>
      <trkpt lat="48.38591" lon="-4.53455">
        <ele>97.1</ele>
        <time>2020-06-08T18:21:48Z</time>
      </trkpt>
      <trkpt lat="48.38589" lon="-4.5346">
        <ele>97.1</ele>
        <time>2020-06-08T18:21:49Z</time>
      </trkpt>
      <trkpt lat="48.38587" lon="-4.53465">
        <ele>97.1</ele>
        <time>2020-06-08T18:21:50Z</time>
      </trkpt>
      <trkpt lat="48.38585" lon="-4.53468">
        <ele>97.1</ele>
        <time>2020-06-08T18:21:51Z</time>
      </trkpt>
      <trkpt lat="48.38582" lon="-4.53473">
        <ele>97.1</ele>
        <time>2020-06-08T18:21:52Z</time>
      </trkpt>
      <trkpt lat="48.38581" lon="-4.53474">
        <ele>97.1</ele>
        <time>2020-06-08T18:21:53Z</time>
      </trkpt>
      <trkpt lat="48.38579" lon="-4.53479">
        <ele>97.1</ele>
        <time>2020-06-08T18:21:54Z</time>
      </trkpt>
      <trkpt lat="48.38577" lon="-4.53484">
        <ele>97.1</ele>
        <time>2020-06-08T18:21:55Z</time>
      </trkpt>
      <trkpt lat="48.38575" lon="-4.53488">
        <ele>97</ele>
        <time>2020-06-08T18:21:56Z</time>
      </trkpt>
      <trkpt lat="48.38573" lon="-4.53491">
        <ele>97</ele>
        <time>2020-06-08T18:21:57Z</time>
      </trkpt>
      <trkpt lat="48.38571" lon="-4.53494">
        <ele>97</ele>
        <time>2020-06-08T18:21:58Z</time>
      </trkpt>
      <trkpt lat="48.38567" lon="-4.53498">
        <ele>97</ele>
        <time>2020-06-08T18:21:59Z</time>
      </trkpt>
      <trkpt lat="48.38563" lon="-4.53502">
        <ele>97</ele>
        <time>2020-06-08T18:22:00Z</time>
      </trkpt>
      <trkpt lat="48.3856" lon="-4.53505">
        <ele>97</ele>
        <time>2020-06-08T18:22:01Z</time>
      </trkpt>
      <trkpt lat="48.38557" lon="-4.53507">
        <ele>97</ele>
        <time>2020-06-08T18:22:02Z</time>
      </trkpt>
      <trkpt lat="48.38554" lon="-4.5351">
        <ele>97.1</ele>
        <time>2020-06-08T18:22:03Z</time>
      </trkpt>
      <trkpt lat="48.38549" lon="-4.53513">
        <ele>97.1</ele>
        <time>2020-06-08T18:22:04Z</time>
      </trkpt>
      <trkpt lat="48.38544" lon="-4.53517">
        <ele>97.1</ele>
        <time>2020-06-08T18:22:05Z</time>
      </trkpt>
      <trkpt lat="48.38539" lon="-4.5352">
        <ele>97.2</ele>
        <time>2020-06-08T18:22:06Z</time>
      </trkpt>
      <trkpt lat="48.38534" lon="-4.53525">
        <ele>97.3</ele>
        <time>2020-06-08T18:22:07Z</time>
      </trkpt>
      <trkpt lat="48.3853" lon="-4.53528">
        <ele>97.3</ele>
        <time>2020-06-08T18:22:08Z</time>
      </trkpt>
      <trkpt lat="48.38525" lon="-4.53531">
        <ele>97.3</ele>
        <time>2020-06-08T18:22:09Z</time>
      </trkpt>
      <trkpt lat="48.38522" lon="-4.53536">
        <ele>97.3</ele>
        <time>2020-06-08T18:22:10Z</time>
      </trkpt>
      <trkpt lat="48.38517" lon="-4.53538">
        <ele>97.4</ele>
        <time>2020-06-08T18:22:11Z</time>
      </trkpt>
      <trkpt lat="48.38513" lon="-4.53543">
        <ele>97.4</ele>
        <time>2020-06-08T18:22:12Z</time>
      </trkpt>
      <trkpt lat="48.38509" lon="-4.53548">
        <ele>97.4</ele>
        <time>2020-06-08T18:22:13Z</time>
      </trkpt>
      <trkpt lat="48.38504" lon="-4.53553">
        <ele>97.4</ele>
        <time>2020-06-08T18:22:14Z</time>
      </trkpt>
      <trkpt lat="48.385" lon="-4.53559">
        <ele>97.4</ele>
        <time>2020-06-08T18:22:15Z</time>
      </trkpt>
      <trkpt lat="48.38495" lon="-4.53565">
        <ele>97.4</ele>
        <time>2020-06-08T18:22:16Z</time>
      </trkpt>
      <trkpt lat="48.3849" lon="-4.5357">
        <ele>97.5</ele>
        <time>2020-06-08T18:22:17Z</time>
      </trkpt>
      <trkpt lat="48.38485" lon="-4.53575">
        <ele>97.5</ele>
        <time>2020-06-08T18:22:18Z</time>
      </trkpt>
      <trkpt lat="48.38481" lon="-4.5358">
        <ele>97.5</ele>
        <time>2020-06-08T18:22:19Z</time>
      </trkpt>
      <trkpt lat="48.38477" lon="-4.53586">
        <ele>97.5</ele>
        <time>2020-06-08T18:22:20Z</time>
      </trkpt>
      <trkpt lat="48.38473" lon="-4.53591">
        <ele>97.5</ele>
        <time>2020-06-08T18:22:21Z</time>
      </trkpt>
      <trkpt lat="48.3847" lon="-4.53597">
        <ele>97.5</ele>
        <time>2020-06-08T18:22:22Z</time>
      </trkpt>
      <trkpt lat="48.38465" lon="-4.53603">
        <ele>97.5</ele>
        <time>2020-06-08T18:22:23Z</time>
      </trkpt>
      <trkpt lat="48.38461" lon="-4.53608">
        <ele>97.5</ele>
        <time>2020-06-08T18:22:24Z</time>
      </trkpt>
      <trkpt lat="48.38458" lon="-4.53611">
        <ele>97.5</ele>
        <time>2020-06-08T18:22:25Z</time>
      </trkpt>
      <trkpt lat="48.38454" lon="-4.53617">
        <ele>97.4</ele>
        <time>2020-06-08T18:22:26Z</time>
      </trkpt>
      <trkpt lat="48.38452" lon="-4.53623">
        <ele>97.4</ele>
        <time>2020-06-08T18:22:27Z</time>
      </trkpt>
      <trkpt lat="48.38449" lon="-4.53629">
        <ele>97.4</ele>
        <time>2020-06-08T18:22:28Z</time>
      </trkpt>
      <trkpt lat="48.38446" lon="-4.53635">
        <ele>97.3</ele>
        <time>2020-06-08T18:22:29Z</time>
      </trkpt>
      <trkpt lat="48.38443" lon="-4.53642">
        <ele>97.3</ele>
        <time>2020-06-08T18:22:30Z</time>
      </trkpt>
      <trkpt lat="48.3844" lon="-4.53648">
        <ele>97.2</ele>
        <time>2020-06-08T18:22:31Z</time>
      </trkpt>
      <trkpt lat="48.38438" lon="-4.53653">
        <ele>97.2</ele>
        <time>2020-06-08T18:22:32Z</time>
      </trkpt>
      <trkpt lat="48.38435" lon="-4.53659">
        <ele>97.2</ele>
        <time>2020-06-08T18:22:33Z</time>
      </trkpt>
      <trkpt lat="48.38431" lon="-4.53665">
        <ele>97.1</ele>
        <time>2020-06-08T18:22:34Z</time>
      </trkpt>
      <trkpt lat="48.38427" lon="-4.53673">
        <ele>97.1</ele>
        <time>2020-06-08T18:22:35Z</time>
      </trkpt>
      <trkpt lat="48.38423" lon="-4.53679">
        <ele>97</ele>
        <time>2020-06-08T18:22:36Z</time>
      </trkpt>
      <trkpt lat="48.38421" lon="-4.53686">
        <ele>97</ele>
        <time>2020-06-08T18:22:37Z</time>
      </trkpt>
      <trkpt lat="48.38417" lon="-4.53693">
        <ele>97</ele>
        <time>2020-06-08T18:22:38Z</time>
      </trkpt>
      <trkpt lat="48.38415" lon="-4.53701">
        <ele>97</ele>
        <time>2020-06-08T18:22:39Z</time>
      </trkpt>
      <trkpt lat="48.38413" lon="-4.53708">
        <ele>96.9</ele>
        <time>2020-06-08T18:22:40Z</time>
      </trkpt>
      <trkpt lat="48.3841" lon="-4.53715">
        <ele>96.9</ele>
        <time>2020-06-08T18:22:41Z</time>
      </trkpt>
      <trkpt lat="48.38406" lon="-4.53722">
        <ele>96.9</ele>
        <time>2020-06-08T18:22:42Z</time>
      </trkpt>
      <trkpt lat="48.38402" lon="-4.53729">
        <ele>96.8</ele>
        <time>2020-06-08T18:22:43Z</time>
      </trkpt>
      <trkpt lat="48.38398" lon="-4.53734">
        <ele>96.8</ele>
        <time>2020-06-08T18:22:44Z</time>
      </trkpt>
      <trkpt lat="48.38395" lon="-4.53741">
        <ele>96.7</ele>
        <time>2020-06-08T18:22:45Z</time>
      </trkpt>
      <trkpt lat="48.38392" lon="-4.53749">
        <ele>96.6</ele>
        <time>2020-06-08T18:22:46Z</time>
      </trkpt>
      <trkpt lat="48.38387" lon="-4.53756">
        <ele>96.6</ele>
        <time>2020-06-08T18:22:47Z</time>
      </trkpt>
      <trkpt lat="48.38383" lon="-4.53761">
        <ele>96.5</ele>
        <time>2020-06-08T18:22:48Z</time>
      </trkpt>
      <trkpt lat="48.38378" lon="-4.53766">
        <ele>96.5</ele>
        <time>2020-06-08T18:22:49Z</time>
      </trkpt>
      <trkpt lat="48.38374" lon="-4.53772">
        <ele>96.5</ele>
        <time>2020-06-08T18:22:50Z</time>
      </trkpt>
      <trkpt lat="48.3837" lon="-4.53777">
        <ele>96.4</ele>
        <time>2020-06-08T18:22:51Z</time>
      </trkpt>
      <trkpt lat="48.38366" lon="-4.53782">
        <ele>96.4</ele>
        <time>2020-06-08T18:22:52Z</time>
      </trkpt>
      <trkpt lat="48.38361" lon="-4.53787">
        <ele>96.4</ele>
        <time>2020-06-08T18:22:53Z</time>
      </trkpt>
      <trkpt lat="48.38356" lon="-4.53792">
        <ele>96.3</ele>
        <time>2020-06-08T18:22:54Z</time>
      </trkpt>
      <trkpt lat="48.38352" lon="-4.53796">
        <ele>96.3</ele>
        <time>2020-06-08T18:22:55Z</time>
      </trkpt>
      <trkpt lat="48.38348" lon="-4.53802">
        <ele>96.2</ele>
        <time>2020-06-08T18:22:56Z</time>
      </trkpt>
      <trkpt lat="48.38343" lon="-4.53807">
        <ele>96.2</ele>
        <time>2020-06-08T18:22:57Z</time>
      </trkpt>
      <trkpt lat="48.38339" lon="-4.53812">
        <ele>96.1</ele>
        <time>2020-06-08T18:22:58Z</time>
      </trkpt>
      <trkpt lat="48.38335" lon="-4.53816">
        <ele>96.1</ele>
        <time>2020-06-08T18:22:59Z</time>
      </trkpt>
      <trkpt lat="48.38328" lon="-4.53822">
        <ele>96</ele>
        <time>2020-06-08T18:23:00Z</time>
      </trkpt>
      <trkpt lat="48.38324" lon="-4.53827">
        <ele>96</ele>
        <time>2020-06-08T18:23:01Z</time>
      </trkpt>
      <trkpt lat="48.3832" lon="-4.53832">
        <ele>96</ele>
        <time>2020-06-08T18:23:02Z</time>
      </trkpt>
      <trkpt lat="48.38316" lon="-4.53837">
        <ele>96</ele>
        <time>2020-06-08T18:23:03Z</time>
      </trkpt>
      <trkpt lat="48.38312" lon="-4.53843">
        <ele>95.9</ele>
        <time>2020-06-08T18:23:04Z</time>
      </trkpt>
      <trkpt lat="48.38309" lon="-4.53847">
        <ele>95.9</ele>
        <time>2020-06-08T18:23:05Z</time>
      </trkpt>
      <trkpt lat="48.38305" lon="-4.53851">
        <ele>95.9</ele>
        <time>2020-06-08T18:23:06Z</time>
      </trkpt>
      <trkpt lat="48.38301" lon="-4.53857">
        <ele>95.8</ele>
        <time>2020-06-08T18:23:07Z</time>
      </trkpt>
      <trkpt lat="48.38297" lon="-4.53861">
        <ele>95.8</ele>
        <time>2020-06-08T18:23:08Z</time>
      </trkpt>
      <trkpt lat="48.38294" lon="-4.53867">
        <ele>95.8</ele>
        <time>2020-06-08T18:23:09Z</time>
      </trkpt>
      <trkpt lat="48.38292" lon="-4.53873">
        <ele>95.8</ele>
        <time>2020-06-08T18:23:10Z</time>
      </trkpt>
      <trkpt lat="48.38293" lon="-4.53881">
        <ele>95.8</ele>
        <time>2020-06-08T18:23:11Z</time>
      </trkpt>
      <trkpt lat="48.38293" lon="-4.53887">
        <ele>95.7</ele>
        <time>2020-06-08T18:23:12Z</time>
      </trkpt>
      <trkpt lat="48.38292" lon="-4.53894">
        <ele>95.7</ele>
        <time>2020-06-08T18:23:13Z</time>
      </trkpt>
      <trkpt lat="48.38292" lon="-4.53901">
        <ele>95.6</ele>
        <time>2020-06-08T18:23:14Z</time>
      </trkpt>
      <trkpt lat="48.38291" lon="-4.53909">
        <ele>95.5</ele>
        <time>2020-06-08T18:23:15Z</time>
      </trkpt>
      <trkpt lat="48.38291" lon="-4.53917">
        <ele>95.4</ele>
        <time>2020-06-08T18:23:16Z</time>
      </trkpt>
      <trkpt lat="48.3829" lon="-4.53926">
        <ele>95.3</ele>
        <time>2020-06-08T18:23:17Z</time>
      </trkpt>
      <trkpt lat="48.38289" lon="-4.53935">
        <ele>95.2</ele>
        <time>2020-06-08T18:23:18Z</time>
      </trkpt>
      <trkpt lat="48.38287" lon="-4.53944">
        <ele>95.2</ele>
        <time>2020-06-08T18:23:19Z</time>
      </trkpt>
      <trkpt lat="48.38287" lon="-4.53953">
        <ele>95.1</ele>
        <time>2020-06-08T18:23:20Z</time>
      </trkpt>
      <trkpt lat="48.38287" lon="-4.53963">
        <ele>94.9</ele>
        <time>2020-06-08T18:23:21Z</time>
      </trkpt>
      <trkpt lat="48.38287" lon="-4.53973">
        <ele>94.8</ele>
        <time>2020-06-08T18:23:22Z</time>
      </trkpt>
      <trkpt lat="48.38286" lon="-4.53981">
        <ele>94.7</ele>
        <time>2020-06-08T18:23:23Z</time>
      </trkpt>
      <trkpt lat="48.38286" lon="-4.53991">
        <ele>94.6</ele>
        <time>2020-06-08T18:23:24Z</time>
      </trkpt>
      <trkpt lat="48.38285" lon="-4.54">
        <ele>94.5</ele>
        <time>2020-06-08T18:23:25Z</time>
      </trkpt>
      <trkpt lat="48.38285" lon="-4.54009">
        <ele>94.4</ele>
        <time>2020-06-08T18:23:26Z</time>
      </trkpt>
      <trkpt lat="48.38284" lon="-4.54018">
        <ele>94.3</ele>
        <time>2020-06-08T18:23:27Z</time>
      </trkpt>
      <trkpt lat="48.38282" lon="-4.54026">
        <ele>94.2</ele>
        <time>2020-06-08T18:23:28Z</time>
      </trkpt>
      <trkpt lat="48.38282" lon="-4.54035">
        <ele>94.1</ele>
        <time>2020-06-08T18:23:29Z</time>
      </trkpt>
      <trkpt lat="48.38281" lon="-4.54043">
        <ele>94</ele>
        <time>2020-06-08T18:23:30Z</time>
      </trkpt>
      <trkpt lat="48.38282" lon="-4.54052">
        <ele>93.9</ele>
        <time>2020-06-08T18:23:31Z</time>
      </trkpt>
      <trkpt lat="48.38281" lon="-4.5406">
        <ele>93.8</ele>
        <time>2020-06-08T18:23:32Z</time>
      </trkpt>
      <trkpt lat="48.3828" lon="-4.5407">
        <ele>93.6</ele>
        <time>2020-06-08T18:23:33Z</time>
      </trkpt>
      <trkpt lat="48.38279" lon="-4.54079">
        <ele>93.4</ele>
        <time>2020-06-08T18:23:34Z</time>
      </trkpt>
      <trkpt lat="48.38279" lon="-4.54088">
        <ele>93.2</ele>
        <time>2020-06-08T18:23:35Z</time>
      </trkpt>
      <trkpt lat="48.38278" lon="-4.54098">
        <ele>93</ele>
        <time>2020-06-08T18:23:36Z</time>
      </trkpt>
      <trkpt lat="48.38278" lon="-4.54108">
        <ele>92.8</ele>
        <time>2020-06-08T18:23:37Z</time>
      </trkpt>
      <trkpt lat="48.38278" lon="-4.54119">
        <ele>92.6</ele>
        <time>2020-06-08T18:23:38Z</time>
      </trkpt>
      <trkpt lat="48.38278" lon="-4.5413">
        <ele>92.4</ele>
        <time>2020-06-08T18:23:39Z</time>
      </trkpt>
      <trkpt lat="48.38278" lon="-4.54141">
        <ele>92.2</ele>
        <time>2020-06-08T18:23:40Z</time>
      </trkpt>
      <trkpt lat="48.38277" lon="-4.54152">
        <ele>91.9</ele>
        <time>2020-06-08T18:23:41Z</time>
      </trkpt>
      <trkpt lat="48.38275" lon="-4.54162">
        <ele>91.6</ele>
        <time>2020-06-08T18:23:42Z</time>
      </trkpt>
      <trkpt lat="48.38273" lon="-4.54174">
        <ele>91.3</ele>
        <time>2020-06-08T18:23:43Z</time>
      </trkpt>
      <trkpt lat="48.38271" lon="-4.54184">
        <ele>91.1</ele>
        <time>2020-06-08T18:23:44Z</time>
      </trkpt>
      <trkpt lat="48.38269" lon="-4.54195">
        <ele>90.8</ele>
        <time>2020-06-08T18:23:45Z</time>
      </trkpt>
      <trkpt lat="48.38266" lon="-4.54205">
        <ele>90.6</ele>
        <time>2020-06-08T18:23:46Z</time>
      </trkpt>
      <trkpt lat="48.38263" lon="-4.54215">
        <ele>90.4</ele>
        <time>2020-06-08T18:23:47Z</time>
      </trkpt>
      <trkpt lat="48.38261" lon="-4.54224">
        <ele>90.2</ele>
        <time>2020-06-08T18:23:48Z</time>
      </trkpt>
      <trkpt lat="48.38257" lon="-4.54234">
        <ele>90.1</ele>
        <time>2020-06-08T18:23:49Z</time>
      </trkpt>
      <trkpt lat="48.38253" lon="-4.54242">
        <ele>89.9</ele>
        <time>2020-06-08T18:23:50Z</time>
      </trkpt>
      <trkpt lat="48.38248" lon="-4.5425">
        <ele>89.8</ele>
        <time>2020-06-08T18:23:51Z</time>
      </trkpt>
      <trkpt lat="48.38243" lon="-4.54257">
        <ele>89.7</ele>
        <time>2020-06-08T18:23:52Z</time>
      </trkpt>
      <trkpt lat="48.38238" lon="-4.54265">
        <ele>89.6</ele>
        <time>2020-06-08T18:23:53Z</time>
      </trkpt>
      <trkpt lat="48.38234" lon="-4.54272">
        <ele>89.4</ele>
        <time>2020-06-08T18:23:54Z</time>
      </trkpt>
      <trkpt lat="48.38229" lon="-4.54279">
        <ele>89.3</ele>
        <time>2020-06-08T18:23:55Z</time>
      </trkpt>
      <trkpt lat="48.38224" lon="-4.54285">
        <ele>89.2</ele>
        <time>2020-06-08T18:23:56Z</time>
      </trkpt>
      <trkpt lat="48.38219" lon="-4.54292">
        <ele>89.1</ele>
        <time>2020-06-08T18:23:57Z</time>
      </trkpt>
      <trkpt lat="48.38215" lon="-4.543">
        <ele>89</ele>
        <time>2020-06-08T18:23:58Z</time>
      </trkpt>
      <trkpt lat="48.38211" lon="-4.54309">
        <ele>88.9</ele>
        <time>2020-06-08T18:23:59Z</time>
      </trkpt>
      <trkpt lat="48.38207" lon="-4.54318">
        <ele>88.7</ele>
        <time>2020-06-08T18:24:00Z</time>
      </trkpt>
      <trkpt lat="48.38205" lon="-4.54328">
        <ele>88.5</ele>
        <time>2020-06-08T18:24:01Z</time>
      </trkpt>
      <trkpt lat="48.38203" lon="-4.54339">
        <ele>88.4</ele>
        <time>2020-06-08T18:24:02Z</time>
      </trkpt>
      <trkpt lat="48.38203" lon="-4.5435">
        <ele>88.2</ele>
        <time>2020-06-08T18:24:03Z</time>
      </trkpt>
      <trkpt lat="48.38202" lon="-4.54361">
        <ele>88</ele>
        <time>2020-06-08T18:24:04Z</time>
      </trkpt>
      <trkpt lat="48.38201" lon="-4.54371">
        <ele>87.8</ele>
        <time>2020-06-08T18:24:05Z</time>
      </trkpt>
      <trkpt lat="48.38201" lon="-4.54382">
        <ele>87.6</ele>
        <time>2020-06-08T18:24:06Z</time>
      </trkpt>
      <trkpt lat="48.382" lon="-4.54393">
        <ele>87.4</ele>
        <time>2020-06-08T18:24:07Z</time>
      </trkpt>
      <trkpt lat="48.38199" lon="-4.54404">
        <ele>87.3</ele>
        <time>2020-06-08T18:24:08Z</time>
      </trkpt>
      <trkpt lat="48.38198" lon="-4.54415">
        <ele>87.1</ele>
        <time>2020-06-08T18:24:09Z</time>
      </trkpt>
      <trkpt lat="48.38196" lon="-4.54426">
        <ele>86.9</ele>
        <time>2020-06-08T18:24:10Z</time>
      </trkpt>
      <trkpt lat="48.38195" lon="-4.54436">
        <ele>86.7</ele>
        <time>2020-06-08T18:24:11Z</time>
      </trkpt>
      <trkpt lat="48.38195" lon="-4.54447">
        <ele>86.6</ele>
        <time>2020-06-08T18:24:12Z</time>
      </trkpt>
      <trkpt lat="48.38193" lon="-4.54458">
        <ele>86.5</ele>
        <time>2020-06-08T18:24:13Z</time>
      </trkpt>
      <trkpt lat="48.38192" lon="-4.54468">
        <ele>86.4</ele>
        <time>2020-06-08T18:24:14Z</time>
      </trkpt>
      <trkpt lat="48.38191" lon="-4.54479">
        <ele>86.3</ele>
        <time>2020-06-08T18:24:15Z</time>
      </trkpt>
      <trkpt lat="48.3819" lon="-4.54489">
        <ele>86.2</ele>
        <time>2020-06-08T18:24:16Z</time>
      </trkpt>
      <trkpt lat="48.38189" lon="-4.54499">
        <ele>86.1</ele>
        <time>2020-06-08T18:24:17Z</time>
      </trkpt>
      <trkpt lat="48.38189" lon="-4.54509">
        <ele>86</ele>
        <time>2020-06-08T18:24:18Z</time>
      </trkpt>
      <trkpt lat="48.38188" lon="-4.54519">
        <ele>85.8</ele>
        <time>2020-06-08T18:24:19Z</time>
      </trkpt>
      <trkpt lat="48.38187" lon="-4.54529">
        <ele>85.6</ele>
        <time>2020-06-08T18:24:20Z</time>
      </trkpt>
      <trkpt lat="48.38187" lon="-4.54539">
        <ele>85.4</ele>
        <time>2020-06-08T18:24:21Z</time>
      </trkpt>
      <trkpt lat="48.38187" lon="-4.54549">
        <ele>85.2</ele>
        <time>2020-06-08T18:24:22Z</time>
      </trkpt>
      <trkpt lat="48.38187" lon="-4.5456">
        <ele>85</ele>
        <time>2020-06-08T18:24:23Z</time>
      </trkpt>
      <trkpt lat="48.38187" lon="-4.5457">
        <ele>84.7</ele>
        <time>2020-06-08T18:24:24Z</time>
      </trkpt>
      <trkpt lat="48.38186" lon="-4.54581">
        <ele>84.5</ele>
        <time>2020-06-08T18:24:25Z</time>
      </trkpt>
      <trkpt lat="48.38185" lon="-4.54591">
        <ele>84.4</ele>
        <time>2020-06-08T18:24:26Z</time>
      </trkpt>
      <trkpt lat="48.38184" lon="-4.54602">
        <ele>84.2</ele>
        <time>2020-06-08T18:24:27Z</time>
      </trkpt>
      <trkpt lat="48.38183" lon="-4.54611">
        <ele>84</ele>
        <time>2020-06-08T18:24:28Z</time>
      </trkpt>
      <trkpt lat="48.38181" lon="-4.54621">
        <ele>83.8</ele>
        <time>2020-06-08T18:24:29Z</time>
      </trkpt>
      <trkpt lat="48.38178" lon="-4.5463">
        <ele>83.7</ele>
        <time>2020-06-08T18:24:30Z</time>
      </trkpt>
      <trkpt lat="48.38174" lon="-4.54639">
        <ele>83.7</ele>
        <time>2020-06-08T18:24:31Z</time>
      </trkpt>
      <trkpt lat="48.3817" lon="-4.54647">
        <ele>83.6</ele>
        <time>2020-06-08T18:24:32Z</time>
      </trkpt>
      <trkpt lat="48.38166" lon="-4.54654">
        <ele>83.6</ele>
        <time>2020-06-08T18:24:33Z</time>
      </trkpt>
      <trkpt lat="48.38163" lon="-4.54662">
        <ele>83.5</ele>
        <time>2020-06-08T18:24:34Z</time>
      </trkpt>
      <trkpt lat="48.38158" lon="-4.54668">
        <ele>83.5</ele>
        <time>2020-06-08T18:24:35Z</time>
      </trkpt>
      <trkpt lat="48.38154" lon="-4.54674">
        <ele>83.4</ele>
        <time>2020-06-08T18:24:36Z</time>
      </trkpt>
      <trkpt lat="48.3815" lon="-4.54681">
        <ele>83.4</ele>
        <time>2020-06-08T18:24:37Z</time>
      </trkpt>
      <trkpt lat="48.38146" lon="-4.54689">
        <ele>83.4</ele>
        <time>2020-06-08T18:24:38Z</time>
      </trkpt>
      <trkpt lat="48.38142" lon="-4.54697">
        <ele>83.4</ele>
        <time>2020-06-08T18:24:39Z</time>
      </trkpt>
      <trkpt lat="48.38137" lon="-4.54703">
        <ele>83.4</ele>
        <time>2020-06-08T18:24:40Z</time>
      </trkpt>
      <trkpt lat="48.38134" lon="-4.5471">
        <ele>83.4</ele>
        <time>2020-06-08T18:24:41Z</time>
      </trkpt>
      <trkpt lat="48.3813" lon="-4.54717">
        <ele>83.4</ele>
        <time>2020-06-08T18:24:42Z</time>
      </trkpt>
      <trkpt lat="48.38126" lon="-4.54724">
        <ele>83.4</ele>
        <time>2020-06-08T18:24:43Z</time>
      </trkpt>
      <trkpt lat="48.38123" lon="-4.5473">
        <ele>83.4</ele>
        <time>2020-06-08T18:24:44Z</time>
      </trkpt>
      <trkpt lat="48.38119" lon="-4.54734">
        <ele>83.4</ele>
        <time>2020-06-08T18:24:45Z</time>
      </trkpt>
      <trkpt lat="48.38116" lon="-4.54739">
        <ele>83.4</ele>
        <time>2020-06-08T18:24:46Z</time>
      </trkpt>
      <trkpt lat="48.38112" lon="-4.54746">
        <ele>83.3</ele>
        <time>2020-06-08T18:24:47Z</time>
      </trkpt>
      <trkpt lat="48.38107" lon="-4.54754">
        <ele>83.2</ele>
        <time>2020-06-08T18:24:48Z</time>
      </trkpt>
      <trkpt lat="48.38102" lon="-4.54761">
        <ele>83.1</ele>
        <time>2020-06-08T18:24:49Z</time>
      </trkpt>
      <trkpt lat="48.38097" lon="-4.54769">
        <ele>83</ele>
        <time>2020-06-08T18:24:50Z</time>
      </trkpt>
      <trkpt lat="48.38093" lon="-4.54777">
        <ele>82.9</ele>
        <time>2020-06-08T18:24:51Z</time>
      </trkpt>
      <trkpt lat="48.38089" lon="-4.54787">
        <ele>82.8</ele>
        <time>2020-06-08T18:24:52Z</time>
      </trkpt>
      <trkpt lat="48.38085" lon="-4.54796">
        <ele>82.7</ele>
        <time>2020-06-08T18:24:53Z</time>
      </trkpt>
      <trkpt lat="48.38081" lon="-4.54805">
        <ele>82.6</ele>
        <time>2020-06-08T18:24:54Z</time>
      </trkpt>
      <trkpt lat="48.38077" lon="-4.54815">
        <ele>82.5</ele>
        <time>2020-06-08T18:24:55Z</time>
      </trkpt>
      <trkpt lat="48.38073" lon="-4.54824">
        <ele>82.3</ele>
        <time>2020-06-08T18:24:56Z</time>
      </trkpt>
      <trkpt lat="48.38068" lon="-4.54834">
        <ele>82</ele>
        <time>2020-06-08T18:24:57Z</time>
      </trkpt>
      <trkpt lat="48.38063" lon="-4.54845">
        <ele>81.7</ele>
        <time>2020-06-08T18:24:58Z</time>
      </trkpt>
      <trkpt lat="48.38059" lon="-4.54854">
        <ele>81.5</ele>
        <time>2020-06-08T18:24:59Z</time>
      </trkpt>
      <trkpt lat="48.38055" lon="-4.54863">
        <ele>81.3</ele>
        <time>2020-06-08T18:25:00Z</time>
      </trkpt>
      <trkpt lat="48.3805" lon="-4.54873">
        <ele>81.2</ele>
        <time>2020-06-08T18:25:01Z</time>
      </trkpt>
      <trkpt lat="48.38046" lon="-4.54883">
        <ele>81</ele>
        <time>2020-06-08T18:25:02Z</time>
      </trkpt>
      <trkpt lat="48.38042" lon="-4.54892">
        <ele>80.8</ele>
        <time>2020-06-08T18:25:03Z</time>
      </trkpt>
      <trkpt lat="48.38038" lon="-4.54901">
        <ele>80.6</ele>
        <time>2020-06-08T18:25:04Z</time>
      </trkpt>
      <trkpt lat="48.38033" lon="-4.54911">
        <ele>80.4</ele>
        <time>2020-06-08T18:25:05Z</time>
      </trkpt>
      <trkpt lat="48.38028" lon="-4.54919">
        <ele>80.3</ele>
        <time>2020-06-08T18:25:06Z</time>
      </trkpt>
      <trkpt lat="48.38023" lon="-4.54927">
        <ele>80.1</ele>
        <time>2020-06-08T18:25:07Z</time>
      </trkpt>
      <trkpt lat="48.38019" lon="-4.54936">
        <ele>80</ele>
        <time>2020-06-08T18:25:08Z</time>
      </trkpt>
      <trkpt lat="48.38014" lon="-4.54945">
        <ele>79.8</ele>
        <time>2020-06-08T18:25:09Z</time>
      </trkpt>
      <trkpt lat="48.38009" lon="-4.54953">
        <ele>79.7</ele>
        <time>2020-06-08T18:25:10Z</time>
      </trkpt>
      <trkpt lat="48.38004" lon="-4.54961">
        <ele>79.6</ele>
        <time>2020-06-08T18:25:11Z</time>
      </trkpt>
      <trkpt lat="48.37999" lon="-4.54969">
        <ele>79.5</ele>
        <time>2020-06-08T18:25:12Z</time>
      </trkpt>
      <trkpt lat="48.37995" lon="-4.54978">
        <ele>79.4</ele>
        <time>2020-06-08T18:25:13Z</time>
      </trkpt>
      <trkpt lat="48.3799" lon="-4.54986">
        <ele>79.4</ele>
        <time>2020-06-08T18:25:14Z</time>
      </trkpt>
      <trkpt lat="48.37986" lon="-4.54994">
        <ele>79.4</ele>
        <time>2020-06-08T18:25:15Z</time>
      </trkpt>
      <trkpt lat="48.37981" lon="-4.55002">
        <ele>79.5</ele>
        <time>2020-06-08T18:25:16Z</time>
      </trkpt>
      <trkpt lat="48.37977" lon="-4.5501">
        <ele>79.5</ele>
        <time>2020-06-08T18:25:17Z</time>
      </trkpt>
      <trkpt lat="48.37973" lon="-4.55019">
        <ele>79.6</ele>
        <time>2020-06-08T18:25:18Z</time>
      </trkpt>
      <trkpt lat="48.37969" lon="-4.55028">
        <ele>79.7</ele>
        <time>2020-06-08T18:25:19Z</time>
      </trkpt>
      <trkpt lat="48.37965" lon="-4.55035">
        <ele>79.7</ele>
        <time>2020-06-08T18:25:20Z</time>
      </trkpt>
      <trkpt lat="48.3796" lon="-4.55042">
        <ele>79.8</ele>
        <time>2020-06-08T18:25:21Z</time>
      </trkpt>
      <trkpt lat="48.37956" lon="-4.55051">
        <ele>79.9</ele>
        <time>2020-06-08T18:25:22Z</time>
      </trkpt>
      <trkpt lat="48.37952" lon="-4.55058">
        <ele>80</ele>
        <time>2020-06-08T18:25:23Z</time>
      </trkpt>
      <trkpt lat="48.37948" lon="-4.55066">
        <ele>80.1</ele>
        <time>2020-06-08T18:25:24Z</time>
      </trkpt>
      <trkpt lat="48.37945" lon="-4.55074">
        <ele>80.1</ele>
        <time>2020-06-08T18:25:25Z</time>
      </trkpt>
      <trkpt lat="48.37941" lon="-4.55081">
        <ele>80.3</ele>
        <time>2020-06-08T18:25:26Z</time>
      </trkpt>
      <trkpt lat="48.37937" lon="-4.55089">
        <ele>80.4</ele>
        <time>2020-06-08T18:25:27Z</time>
      </trkpt>
      <trkpt lat="48.37933" lon="-4.55096">
        <ele>80.5</ele>
        <time>2020-06-08T18:25:28Z</time>
      </trkpt>
      <trkpt lat="48.37929" lon="-4.55103">
        <ele>80.6</ele>
        <time>2020-06-08T18:25:29Z</time>
      </trkpt>
      <trkpt lat="48.37924" lon="-4.5511">
        <ele>80.7</ele>
        <time>2020-06-08T18:25:30Z</time>
      </trkpt>
      <trkpt lat="48.37919" lon="-4.55115">
        <ele>80.9</ele>
        <time>2020-06-08T18:25:31Z</time>
      </trkpt>
      <trkpt lat="48.37914" lon="-4.55121">
        <ele>81.1</ele>
        <time>2020-06-08T18:25:32Z</time>
      </trkpt>
      <trkpt lat="48.3791" lon="-4.55128">
        <ele>81.3</ele>
        <time>2020-06-08T18:25:33Z</time>
      </trkpt>
      <trkpt lat="48.37906" lon="-4.55134">
        <ele>81.4</ele>
        <time>2020-06-08T18:25:34Z</time>
      </trkpt>
      <trkpt lat="48.37901" lon="-4.55142">
        <ele>81.7</ele>
        <time>2020-06-08T18:25:35Z</time>
      </trkpt>
      <trkpt lat="48.37897" lon="-4.55149">
        <ele>81.9</ele>
        <time>2020-06-08T18:25:36Z</time>
      </trkpt>
      <trkpt lat="48.37893" lon="-4.55156">
        <ele>82.1</ele>
        <time>2020-06-08T18:25:37Z</time>
      </trkpt>
      <trkpt lat="48.37889" lon="-4.55163">
        <ele>82.3</ele>
        <time>2020-06-08T18:25:38Z</time>
      </trkpt>
      <trkpt lat="48.37885" lon="-4.5517">
        <ele>82.5</ele>
        <time>2020-06-08T18:25:39Z</time>
      </trkpt>
      <trkpt lat="48.37881" lon="-4.55178">
        <ele>82.7</ele>
        <time>2020-06-08T18:25:40Z</time>
      </trkpt>
      <trkpt lat="48.37877" lon="-4.55185">
        <ele>82.9</ele>
        <time>2020-06-08T18:25:41Z</time>
      </trkpt>
      <trkpt lat="48.37873" lon="-4.55192">
        <ele>83.1</ele>
        <time>2020-06-08T18:25:42Z</time>
      </trkpt>
      <trkpt lat="48.37869" lon="-4.55199">
        <ele>83.3</ele>
        <time>2020-06-08T18:25:43Z</time>
      </trkpt>
      <trkpt lat="48.37866" lon="-4.55206">
        <ele>83.5</ele>
        <time>2020-06-08T18:25:44Z</time>
      </trkpt>
      <trkpt lat="48.37864" lon="-4.55213">
        <ele>83.7</ele>
        <time>2020-06-08T18:25:45Z</time>
      </trkpt>
      <trkpt lat="48.37862" lon="-4.55221">
        <ele>83.8</ele>
        <time>2020-06-08T18:25:46Z</time>
      </trkpt>
      <trkpt lat="48.37859" lon="-4.5523">
        <ele>83.9</ele>
        <time>2020-06-08T18:25:47Z</time>
      </trkpt>
      <trkpt lat="48.37856" lon="-4.55239">
        <ele>84</ele>
        <time>2020-06-08T18:25:48Z</time>
      </trkpt>
      <trkpt lat="48.37853" lon="-4.55249">
        <ele>84.1</ele>
        <time>2020-06-08T18:25:49Z</time>
      </trkpt>
      <trkpt lat="48.3785" lon="-4.55257">
        <ele>84.2</ele>
        <time>2020-06-08T18:25:50Z</time>
      </trkpt>
      <trkpt lat="48.37849" lon="-4.55264">
        <ele>84.2</ele>
        <time>2020-06-08T18:25:51Z</time>
      </trkpt>
      <trkpt lat="48.37846" lon="-4.55271">
        <ele>84.3</ele>
        <time>2020-06-08T18:25:52Z</time>
      </trkpt>
      <trkpt lat="48.37844" lon="-4.55279">
        <ele>84.3</ele>
        <time>2020-06-08T18:25:53Z</time>
      </trkpt>
      <trkpt lat="48.37841" lon="-4.55288">
        <ele>84.4</ele>
        <time>2020-06-08T18:25:54Z</time>
      </trkpt>
      <trkpt lat="48.37838" lon="-4.55297">
        <ele>84.4</ele>
        <time>2020-06-08T18:25:55Z</time>
      </trkpt>
      <trkpt lat="48.37835" lon="-4.55306">
        <ele>84.4</ele>
        <time>2020-06-08T18:25:56Z</time>
      </trkpt>
      <trkpt lat="48.37833" lon="-4.55314">
        <ele>84.4</ele>
        <time>2020-06-08T18:25:57Z</time>
      </trkpt>
      <trkpt lat="48.3783" lon="-4.55323">
        <ele>84.5</ele>
        <time>2020-06-08T18:25:58Z</time>
      </trkpt>
      <trkpt lat="48.37828" lon="-4.55331">
        <ele>84.5</ele>
        <time>2020-06-08T18:25:59Z</time>
      </trkpt>
      <trkpt lat="48.37825" lon="-4.55339">
        <ele>84.4</ele>
        <time>2020-06-08T18:26:00Z</time>
      </trkpt>
      <trkpt lat="48.37823" lon="-4.55346">
        <ele>84.4</ele>
        <time>2020-06-08T18:26:01Z</time>
      </trkpt>
      <trkpt lat="48.37821" lon="-4.55355">
        <ele>84.4</ele>
        <time>2020-06-08T18:26:02Z</time>
      </trkpt>
      <trkpt lat="48.37819" lon="-4.55362">
        <ele>84.4</ele>
        <time>2020-06-08T18:26:03Z</time>
      </trkpt>
      <trkpt lat="48.37817" lon="-4.5537">
        <ele>84.4</ele>
        <time>2020-06-08T18:26:04Z</time>
      </trkpt>
      <trkpt lat="48.37814" lon="-4.55378">
        <ele>84.4</ele>
        <time>2020-06-08T18:26:05Z</time>
      </trkpt>
      <trkpt lat="48.37811" lon="-4.55386">
        <ele>84.5</ele>
        <time>2020-06-08T18:26:06Z</time>
      </trkpt>
      <trkpt lat="48.37808" lon="-4.55395">
        <ele>84.5</ele>
        <time>2020-06-08T18:26:07Z</time>
      </trkpt>
      <trkpt lat="48.37805" lon="-4.55403">
        <ele>84.5</ele>
        <time>2020-06-08T18:26:08Z</time>
      </trkpt>
      <trkpt lat="48.37802" lon="-4.5541">
        <ele>84.6</ele>
        <time>2020-06-08T18:26:09Z</time>
      </trkpt>
      <trkpt lat="48.37798" lon="-4.55417">
        <ele>84.7</ele>
        <time>2020-06-08T18:26:10Z</time>
      </trkpt>
      <trkpt lat="48.37795" lon="-4.55425">
        <ele>84.8</ele>
        <time>2020-06-08T18:26:11Z</time>
      </trkpt>
      <trkpt lat="48.37791" lon="-4.55434">
        <ele>85</ele>
        <time>2020-06-08T18:26:12Z</time>
      </trkpt>
      <trkpt lat="48.37787" lon="-4.55445">
        <ele>85.1</ele>
        <time>2020-06-08T18:26:13Z</time>
      </trkpt>
      <trkpt lat="48.37783" lon="-4.55453">
        <ele>85.3</ele>
        <time>2020-06-08T18:26:14Z</time>
      </trkpt>
      <trkpt lat="48.37779" lon="-4.55462">
        <ele>85.4</ele>
        <time>2020-06-08T18:26:15Z</time>
      </trkpt>
      <trkpt lat="48.37777" lon="-4.5547">
        <ele>85.4</ele>
        <time>2020-06-08T18:26:16Z</time>
      </trkpt>
      <trkpt lat="48.37775" lon="-4.55477">
        <ele>85.5</ele>
        <time>2020-06-08T18:26:17Z</time>
      </trkpt>
      <trkpt lat="48.37773" lon="-4.55487">
        <ele>85.6</ele>
        <time>2020-06-08T18:26:18Z</time>
      </trkpt>
      <trkpt lat="48.37771" lon="-4.55496">
        <ele>85.6</ele>
        <time>2020-06-08T18:26:19Z</time>
      </trkpt>
      <trkpt lat="48.37769" lon="-4.55505">
        <ele>85.7</ele>
        <time>2020-06-08T18:26:20Z</time>
      </trkpt>
      <trkpt lat="48.37767" lon="-4.55515">
        <ele>85.7</ele>
        <time>2020-06-08T18:26:21Z</time>
      </trkpt>
      <trkpt lat="48.37766" lon="-4.55525">
        <ele>85.8</ele>
        <time>2020-06-08T18:26:22Z</time>
      </trkpt>
      <trkpt lat="48.37765" lon="-4.55533">
        <ele>85.8</ele>
        <time>2020-06-08T18:26:23Z</time>
      </trkpt>
      <trkpt lat="48.37763" lon="-4.55541">
        <ele>85.9</ele>
        <time>2020-06-08T18:26:24Z</time>
      </trkpt>
      <trkpt lat="48.37762" lon="-4.5555">
        <ele>85.9</ele>
        <time>2020-06-08T18:26:25Z</time>
      </trkpt>
      <trkpt lat="48.3776" lon="-4.55559">
        <ele>85.9</ele>
        <time>2020-06-08T18:26:26Z</time>
      </trkpt>
      <trkpt lat="48.37759" lon="-4.55567">
        <ele>85.9</ele>
        <time>2020-06-08T18:26:27Z</time>
      </trkpt>
      <trkpt lat="48.37758" lon="-4.55577">
        <ele>85.9</ele>
        <time>2020-06-08T18:26:28Z</time>
      </trkpt>
      <trkpt lat="48.37756" lon="-4.55586">
        <ele>86</ele>
        <time>2020-06-08T18:26:29Z</time>
      </trkpt>
      <trkpt lat="48.37756" lon="-4.55596">
        <ele>86</ele>
        <time>2020-06-08T18:26:30Z</time>
      </trkpt>
      <trkpt lat="48.37755" lon="-4.55608">
        <ele>86.1</ele>
        <time>2020-06-08T18:26:31Z</time>
      </trkpt>
      <trkpt lat="48.37753" lon="-4.55614">
        <ele>86.1</ele>
        <time>2020-06-08T18:26:32Z</time>
      </trkpt>
      <trkpt lat="48.37752" lon="-4.55623">
        <ele>86.2</ele>
        <time>2020-06-08T18:26:33Z</time>
      </trkpt>
      <trkpt lat="48.37751" lon="-4.55632">
        <ele>86.3</ele>
        <time>2020-06-08T18:26:34Z</time>
      </trkpt>
      <trkpt lat="48.37751" lon="-4.5564">
        <ele>86.3</ele>
        <time>2020-06-08T18:26:35Z</time>
      </trkpt>
      <trkpt lat="48.3775" lon="-4.55648">
        <ele>86.4</ele>
        <time>2020-06-08T18:26:36Z</time>
      </trkpt>
      <trkpt lat="48.37749" lon="-4.55656">
        <ele>86.4</ele>
        <time>2020-06-08T18:26:37Z</time>
      </trkpt>
      <trkpt lat="48.37747" lon="-4.55664">
        <ele>86.5</ele>
        <time>2020-06-08T18:26:38Z</time>
      </trkpt>
      <trkpt lat="48.37745" lon="-4.55671">
        <ele>86.5</ele>
        <time>2020-06-08T18:26:39Z</time>
      </trkpt>
      <trkpt lat="48.3774" lon="-4.55678">
        <ele>86.6</ele>
        <time>2020-06-08T18:26:40Z</time>
      </trkpt>
      <trkpt lat="48.37735" lon="-4.55679">
        <ele>86.6</ele>
        <time>2020-06-08T18:26:41Z</time>
      </trkpt>
      <trkpt lat="48.37729" lon="-4.55679">
        <ele>86.7</ele>
        <time>2020-06-08T18:26:42Z</time>
      </trkpt>
      <trkpt lat="48.37723" lon="-4.5568">
        <ele>86.8</ele>
        <time>2020-06-08T18:26:43Z</time>
      </trkpt>
      <trkpt lat="48.37718" lon="-4.55679">
        <ele>86.9</ele>
        <time>2020-06-08T18:26:44Z</time>
      </trkpt>
      <trkpt lat="48.37712" lon="-4.55681">
        <ele>87</ele>
        <time>2020-06-08T18:26:45Z</time>
      </trkpt>
      <trkpt lat="48.37707" lon="-4.55681">
        <ele>87</ele>
        <time>2020-06-08T18:26:46Z</time>
      </trkpt>
      <trkpt lat="48.37702" lon="-4.55684">
        <ele>87</ele>
        <time>2020-06-08T18:26:47Z</time>
      </trkpt>
      <trkpt lat="48.37696" lon="-4.55687">
        <ele>87</ele>
        <time>2020-06-08T18:26:48Z</time>
      </trkpt>
      <trkpt lat="48.37692" lon="-4.55694">
        <ele>86.9</ele>
        <time>2020-06-08T18:26:49Z</time>
      </trkpt>
      <trkpt lat="48.37689" lon="-4.55703">
        <ele>86.9</ele>
        <time>2020-06-08T18:26:50Z</time>
      </trkpt>
      <trkpt lat="48.37687" lon="-4.55712">
        <ele>86.8</ele>
        <time>2020-06-08T18:26:51Z</time>
      </trkpt>
      <trkpt lat="48.37685" lon="-4.55721">
        <ele>86.8</ele>
        <time>2020-06-08T18:26:52Z</time>
      </trkpt>
      <trkpt lat="48.37684" lon="-4.55731">
        <ele>86.8</ele>
        <time>2020-06-08T18:26:53Z</time>
      </trkpt>
      <trkpt lat="48.37683" lon="-4.5574">
        <ele>86.8</ele>
        <time>2020-06-08T18:26:54Z</time>
      </trkpt>
      <trkpt lat="48.37682" lon="-4.55749">
        <ele>86.7</ele>
        <time>2020-06-08T18:26:55Z</time>
      </trkpt>
      <trkpt lat="48.37683" lon="-4.55759">
        <ele>86.7</ele>
        <time>2020-06-08T18:26:56Z</time>
      </trkpt>
      <trkpt lat="48.37684" lon="-4.55768">
        <ele>86.6</ele>
        <time>2020-06-08T18:26:57Z</time>
      </trkpt>
      <trkpt lat="48.37685" lon="-4.55778">
        <ele>86.5</ele>
        <time>2020-06-08T18:26:58Z</time>
      </trkpt>
      <trkpt lat="48.37686" lon="-4.55786">
        <ele>86.4</ele>
        <time>2020-06-08T18:26:59Z</time>
      </trkpt>
      <trkpt lat="48.37688" lon="-4.55794">
        <ele>86.4</ele>
        <time>2020-06-08T18:27:00Z</time>
      </trkpt>
      <trkpt lat="48.3769" lon="-4.55802">
        <ele>86.3</ele>
        <time>2020-06-08T18:27:01Z</time>
      </trkpt>
      <trkpt lat="48.37693" lon="-4.5581">
        <ele>86.2</ele>
        <time>2020-06-08T18:27:02Z</time>
      </trkpt>
      <trkpt lat="48.37696" lon="-4.55818">
        <ele>86</ele>
        <time>2020-06-08T18:27:03Z</time>
      </trkpt>
      <trkpt lat="48.37699" lon="-4.55828">
        <ele>85.8</ele>
        <time>2020-06-08T18:27:04Z</time>
      </trkpt>
      <trkpt lat="48.377" lon="-4.55837">
        <ele>85.6</ele>
        <time>2020-06-08T18:27:05Z</time>
      </trkpt>
      <trkpt lat="48.37702" lon="-4.55847">
        <ele>85.4</ele>
        <time>2020-06-08T18:27:06Z</time>
      </trkpt>
      <trkpt lat="48.37702" lon="-4.55858">
        <ele>85.1</ele>
        <time>2020-06-08T18:27:07Z</time>
      </trkpt>
      <trkpt lat="48.37702" lon="-4.55869">
        <ele>84.8</ele>
        <time>2020-06-08T18:27:08Z</time>
      </trkpt>
      <trkpt lat="48.37702" lon="-4.55881">
        <ele>84.5</ele>
        <time>2020-06-08T18:27:09Z</time>
      </trkpt>
      <trkpt lat="48.37701" lon="-4.55892">
        <ele>84.2</ele>
        <time>2020-06-08T18:27:10Z</time>
      </trkpt>
      <trkpt lat="48.37701" lon="-4.55903">
        <ele>83.5</ele>
        <time>2020-06-08T18:27:11Z</time>
      </trkpt>
      <trkpt lat="48.377" lon="-4.55914">
        <ele>83.3</ele>
        <time>2020-06-08T18:27:12Z</time>
      </trkpt>
      <trkpt lat="48.377" lon="-4.55927">
        <ele>83.2</ele>
        <time>2020-06-08T18:27:13Z</time>
      </trkpt>
      <trkpt lat="48.377" lon="-4.5594">
        <ele>83</ele>
        <time>2020-06-08T18:27:14Z</time>
      </trkpt>
      <trkpt lat="48.377" lon="-4.55953">
        <ele>82.8</ele>
        <time>2020-06-08T18:27:15Z</time>
      </trkpt>
      <trkpt lat="48.37701" lon="-4.55966">
        <ele>82.7</ele>
        <time>2020-06-08T18:27:16Z</time>
      </trkpt>
      <trkpt lat="48.37701" lon="-4.55977">
        <ele>82.6</ele>
        <time>2020-06-08T18:27:17Z</time>
      </trkpt>
      <trkpt lat="48.37702" lon="-4.55988">
        <ele>82.5</ele>
        <time>2020-06-08T18:27:18Z</time>
      </trkpt>
      <trkpt lat="48.37701" lon="-4.55998">
        <ele>82.5</ele>
        <time>2020-06-08T18:27:19Z</time>
      </trkpt>
      <trkpt lat="48.377" lon="-4.56008">
        <ele>82.5</ele>
        <time>2020-06-08T18:27:20Z</time>
      </trkpt>
      <trkpt lat="48.37698" lon="-4.56018">
        <ele>82.5</ele>
        <time>2020-06-08T18:27:21Z</time>
      </trkpt>
      <trkpt lat="48.37694" lon="-4.56026">
        <ele>82.7</ele>
        <time>2020-06-08T18:27:22Z</time>
      </trkpt>
      <trkpt lat="48.3769" lon="-4.56033">
        <ele>83</ele>
        <time>2020-06-08T18:27:23Z</time>
      </trkpt>
      <trkpt lat="48.37686" lon="-4.5604">
        <ele>83.2</ele>
        <time>2020-06-08T18:27:24Z</time>
      </trkpt>
      <trkpt lat="48.37683" lon="-4.56049">
        <ele>83.4</ele>
        <time>2020-06-08T18:27:25Z</time>
      </trkpt>
      <trkpt lat="48.3768" lon="-4.56057">
        <ele>83.6</ele>
        <time>2020-06-08T18:27:26Z</time>
      </trkpt>
      <trkpt lat="48.37676" lon="-4.56064">
        <ele>83.8</ele>
        <time>2020-06-08T18:27:27Z</time>
      </trkpt>
      <trkpt lat="48.37673" lon="-4.56072">
        <ele>84</ele>
        <time>2020-06-08T18:27:28Z</time>
      </trkpt>
      <trkpt lat="48.3767" lon="-4.5608">
        <ele>84.2</ele>
        <time>2020-06-08T18:27:29Z</time>
      </trkpt>
      <trkpt lat="48.37668" lon="-4.56088">
        <ele>84.4</ele>
        <time>2020-06-08T18:27:30Z</time>
      </trkpt>
      <trkpt lat="48.37665" lon="-4.56094">
        <ele>84.6</ele>
        <time>2020-06-08T18:27:31Z</time>
      </trkpt>
      <trkpt lat="48.37663" lon="-4.56101">
        <ele>84.8</ele>
        <time>2020-06-08T18:27:32Z</time>
      </trkpt>
      <trkpt lat="48.37662" lon="-4.56109">
        <ele>84.9</ele>
        <time>2020-06-08T18:27:33Z</time>
      </trkpt>
      <trkpt lat="48.3766" lon="-4.56116">
        <ele>85.1</ele>
        <time>2020-06-08T18:27:34Z</time>
      </trkpt>
      <trkpt lat="48.37657" lon="-4.56123">
        <ele>85.3</ele>
        <time>2020-06-08T18:27:35Z</time>
      </trkpt>
      <trkpt lat="48.37655" lon="-4.5613">
        <ele>85.5</ele>
        <time>2020-06-08T18:27:36Z</time>
      </trkpt>
      <trkpt lat="48.37653" lon="-4.56137">
        <ele>85.7</ele>
        <time>2020-06-08T18:27:37Z</time>
      </trkpt>
      <trkpt lat="48.3765" lon="-4.56144">
        <ele>85.9</ele>
        <time>2020-06-08T18:27:38Z</time>
      </trkpt>
      <trkpt lat="48.37648" lon="-4.56151">
        <ele>86.1</ele>
        <time>2020-06-08T18:27:39Z</time>
      </trkpt>
      <trkpt lat="48.37646" lon="-4.56159">
        <ele>86.2</ele>
        <time>2020-06-08T18:27:40Z</time>
      </trkpt>
      <trkpt lat="48.37644" lon="-4.56166">
        <ele>86.4</ele>
        <time>2020-06-08T18:27:41Z</time>
      </trkpt>
      <trkpt lat="48.37643" lon="-4.56173">
        <ele>86.6</ele>
        <time>2020-06-08T18:27:42Z</time>
      </trkpt>
      <trkpt lat="48.37641" lon="-4.5618">
        <ele>86.7</ele>
        <time>2020-06-08T18:27:43Z</time>
      </trkpt>
      <trkpt lat="48.3764" lon="-4.56186">
        <ele>86.8</ele>
        <time>2020-06-08T18:27:44Z</time>
      </trkpt>
      <trkpt lat="48.3764" lon="-4.56193">
        <ele>86.9</ele>
        <time>2020-06-08T18:27:45Z</time>
      </trkpt>
      <trkpt lat="48.37639" lon="-4.562">
        <ele>87</ele>
        <time>2020-06-08T18:27:46Z</time>
      </trkpt>
      <trkpt lat="48.37638" lon="-4.56206">
        <ele>87.2</ele>
        <time>2020-06-08T18:27:47Z</time>
      </trkpt>
      <trkpt lat="48.37637" lon="-4.56214">
        <ele>87.3</ele>
        <time>2020-06-08T18:27:48Z</time>
      </trkpt>
      <trkpt lat="48.37635" lon="-4.56221">
        <ele>87.4</ele>
        <time>2020-06-08T18:27:49Z</time>
      </trkpt>
      <trkpt lat="48.37632" lon="-4.56227">
        <ele>87.5</ele>
        <time>2020-06-08T18:27:50Z</time>
      </trkpt>
      <trkpt lat="48.3763" lon="-4.56235">
        <ele>87.6</ele>
        <time>2020-06-08T18:27:51Z</time>
      </trkpt>
      <trkpt lat="48.37628" lon="-4.56242">
        <ele>87.8</ele>
        <time>2020-06-08T18:27:52Z</time>
      </trkpt>
      <trkpt lat="48.37625" lon="-4.56249">
        <ele>87.9</ele>
        <time>2020-06-08T18:27:53Z</time>
      </trkpt>
      <trkpt lat="48.37623" lon="-4.56256">
        <ele>88</ele>
        <time>2020-06-08T18:27:54Z</time>
      </trkpt>
      <trkpt lat="48.37619" lon="-4.56261">
        <ele>88.2</ele>
        <time>2020-06-08T18:27:55Z</time>
      </trkpt>
      <trkpt lat="48.37616" lon="-4.56267">
        <ele>88.3</ele>
        <time>2020-06-08T18:27:56Z</time>
      </trkpt>
      <trkpt lat="48.37614" lon="-4.56274">
        <ele>88.4</ele>
        <time>2020-06-08T18:27:57Z</time>
      </trkpt>
      <trkpt lat="48.37613" lon="-4.56282">
        <ele>88.5</ele>
        <time>2020-06-08T18:27:58Z</time>
      </trkpt>
      <trkpt lat="48.3761" lon="-4.56288">
        <ele>88.6</ele>
        <time>2020-06-08T18:27:59Z</time>
      </trkpt>
      <trkpt lat="48.37608" lon="-4.56293">
        <ele>88.6</ele>
        <time>2020-06-08T18:28:00Z</time>
      </trkpt>
      <trkpt lat="48.37605" lon="-4.56298">
        <ele>88.7</ele>
        <time>2020-06-08T18:28:01Z</time>
      </trkpt>
      <trkpt lat="48.37604" lon="-4.56304">
        <ele>88.9</ele>
        <time>2020-06-08T18:28:02Z</time>
      </trkpt>
      <trkpt lat="48.37601" lon="-4.56311">
        <ele>89</ele>
        <time>2020-06-08T18:28:03Z</time>
      </trkpt>
      <trkpt lat="48.37598" lon="-4.56317">
        <ele>89.1</ele>
        <time>2020-06-08T18:28:04Z</time>
      </trkpt>
      <trkpt lat="48.37596" lon="-4.56325">
        <ele>89.2</ele>
        <time>2020-06-08T18:28:05Z</time>
      </trkpt>
      <trkpt lat="48.37592" lon="-4.56331">
        <ele>89.3</ele>
        <time>2020-06-08T18:28:06Z</time>
      </trkpt>
      <trkpt lat="48.37588" lon="-4.56337">
        <ele>89.3</ele>
        <time>2020-06-08T18:28:07Z</time>
      </trkpt>
      <trkpt lat="48.37586" lon="-4.56343">
        <ele>89.4</ele>
        <time>2020-06-08T18:28:08Z</time>
      </trkpt>
      <trkpt lat="48.37583" lon="-4.56348">
        <ele>89.5</ele>
        <time>2020-06-08T18:28:09Z</time>
      </trkpt>
      <trkpt lat="48.37579" lon="-4.56353">
        <ele>89.5</ele>
        <time>2020-06-08T18:28:10Z</time>
      </trkpt>
      <trkpt lat="48.37577" lon="-4.5636">
        <ele>89.6</ele>
        <time>2020-06-08T18:28:11Z</time>
      </trkpt>
      <trkpt lat="48.37574" lon="-4.56366">
        <ele>89.6</ele>
        <time>2020-06-08T18:28:12Z</time>
      </trkpt>
      <trkpt lat="48.37571" lon="-4.56373">
        <ele>89.7</ele>
        <time>2020-06-08T18:28:13Z</time>
      </trkpt>
      <trkpt lat="48.37569" lon="-4.56381">
        <ele>89.8</ele>
        <time>2020-06-08T18:28:14Z</time>
      </trkpt>
      <trkpt lat="48.37565" lon="-4.56387">
        <ele>89.8</ele>
        <time>2020-06-08T18:28:15Z</time>
      </trkpt>
      <trkpt lat="48.37563" lon="-4.56395">
        <ele>89.9</ele>
        <time>2020-06-08T18:28:16Z</time>
      </trkpt>
      <trkpt lat="48.3756" lon="-4.56401">
        <ele>89.9</ele>
        <time>2020-06-08T18:28:17Z</time>
      </trkpt>
      <trkpt lat="48.37557" lon="-4.56407">
        <ele>90</ele>
        <time>2020-06-08T18:28:18Z</time>
      </trkpt>
      <trkpt lat="48.37554" lon="-4.56414">
        <ele>90.1</ele>
        <time>2020-06-08T18:28:19Z</time>
      </trkpt>
      <trkpt lat="48.37551" lon="-4.56419">
        <ele>90.1</ele>
        <time>2020-06-08T18:28:20Z</time>
      </trkpt>
      <trkpt lat="48.37549" lon="-4.56426">
        <ele>90.1</ele>
        <time>2020-06-08T18:28:21Z</time>
      </trkpt>
      <trkpt lat="48.37546" lon="-4.56431">
        <ele>90.2</ele>
        <time>2020-06-08T18:28:22Z</time>
      </trkpt>
      <trkpt lat="48.37544" lon="-4.56438">
        <ele>90.2</ele>
        <time>2020-06-08T18:28:23Z</time>
      </trkpt>
      <trkpt lat="48.37542" lon="-4.56445">
        <ele>90.3</ele>
        <time>2020-06-08T18:28:24Z</time>
      </trkpt>
      <trkpt lat="48.37539" lon="-4.56451">
        <ele>90.3</ele>
        <time>2020-06-08T18:28:25Z</time>
      </trkpt>
      <trkpt lat="48.37537" lon="-4.56456">
        <ele>90.3</ele>
        <time>2020-06-08T18:28:26Z</time>
      </trkpt>
      <trkpt lat="48.37533" lon="-4.56461">
        <ele>90.3</ele>
        <time>2020-06-08T18:28:27Z</time>
      </trkpt>
      <trkpt lat="48.37528" lon="-4.56464">
        <ele>90.3</ele>
        <time>2020-06-08T18:28:28Z</time>
      </trkpt>
      <trkpt lat="48.37522" lon="-4.56463">
        <ele>90.2</ele>
        <time>2020-06-08T18:28:29Z</time>
      </trkpt>
      <trkpt lat="48.37516" lon="-4.56463">
        <ele>90.1</ele>
        <time>2020-06-08T18:28:30Z</time>
      </trkpt>
      <trkpt lat="48.3751" lon="-4.56463">
        <ele>89.9</ele>
        <time>2020-06-08T18:28:31Z</time>
      </trkpt>
      <trkpt lat="48.37504" lon="-4.56462">
        <ele>89.8</ele>
        <time>2020-06-08T18:28:32Z</time>
      </trkpt>
      <trkpt lat="48.37498" lon="-4.56459">
        <ele>89.6</ele>
        <time>2020-06-08T18:28:33Z</time>
      </trkpt>
      <trkpt lat="48.37493" lon="-4.56457">
        <ele>89.5</ele>
        <time>2020-06-08T18:28:34Z</time>
      </trkpt>
      <trkpt lat="48.37487" lon="-4.56454">
        <ele>89.3</ele>
        <time>2020-06-08T18:28:35Z</time>
      </trkpt>
      <trkpt lat="48.37481" lon="-4.56453">
        <ele>89.2</ele>
        <time>2020-06-08T18:28:36Z</time>
      </trkpt>
      <trkpt lat="48.37475" lon="-4.56451">
        <ele>89.1</ele>
        <time>2020-06-08T18:28:37Z</time>
      </trkpt>
      <trkpt lat="48.37471" lon="-4.56454">
        <ele>89</ele>
        <time>2020-06-08T18:28:38Z</time>
      </trkpt>
      <trkpt lat="48.37467" lon="-4.56461">
        <ele>88.8</ele>
        <time>2020-06-08T18:28:39Z</time>
      </trkpt>
      <trkpt lat="48.37464" lon="-4.56469">
        <ele>88.8</ele>
        <time>2020-06-08T18:28:40Z</time>
      </trkpt>
      <trkpt lat="48.37464" lon="-4.56477">
        <ele>88.8</ele>
        <time>2020-06-08T18:28:41Z</time>
      </trkpt>
      <trkpt lat="48.37463" lon="-4.56485">
        <ele>88.8</ele>
        <time>2020-06-08T18:28:42Z</time>
      </trkpt>
      <trkpt lat="48.37463" lon="-4.56493">
        <ele>88.8</ele>
        <time>2020-06-08T18:28:43Z</time>
      </trkpt>
      <trkpt lat="48.37462" lon="-4.56501">
        <ele>88.8</ele>
        <time>2020-06-08T18:28:44Z</time>
      </trkpt>
      <trkpt lat="48.3746" lon="-4.56509">
        <ele>88.8</ele>
        <time>2020-06-08T18:28:45Z</time>
      </trkpt>
      <trkpt lat="48.37459" lon="-4.56518">
        <ele>88.7</ele>
        <time>2020-06-08T18:28:46Z</time>
      </trkpt>
      <trkpt lat="48.37458" lon="-4.56526">
        <ele>88.7</ele>
        <time>2020-06-08T18:28:47Z</time>
      </trkpt>
      <trkpt lat="48.37456" lon="-4.56535">
        <ele>88.7</ele>
        <time>2020-06-08T18:28:48Z</time>
      </trkpt>
      <trkpt lat="48.37455" lon="-4.56544">
        <ele>88.6</ele>
        <time>2020-06-08T18:28:49Z</time>
      </trkpt>
      <trkpt lat="48.37452" lon="-4.56553">
        <ele>88.6</ele>
        <time>2020-06-08T18:28:50Z</time>
      </trkpt>
      <trkpt lat="48.3745" lon="-4.56561">
        <ele>88.5</ele>
        <time>2020-06-08T18:28:51Z</time>
      </trkpt>
      <trkpt lat="48.37448" lon="-4.5657">
        <ele>88.4</ele>
        <time>2020-06-08T18:28:52Z</time>
      </trkpt>
      <trkpt lat="48.37446" lon="-4.56579">
        <ele>88.4</ele>
        <time>2020-06-08T18:28:53Z</time>
      </trkpt>
      <trkpt lat="48.37445" lon="-4.56589">
        <ele>88.3</ele>
        <time>2020-06-08T18:28:54Z</time>
      </trkpt>
      <trkpt lat="48.37444" lon="-4.56599">
        <ele>88.2</ele>
        <time>2020-06-08T18:28:55Z</time>
      </trkpt>
      <trkpt lat="48.37442" lon="-4.56608">
        <ele>88.2</ele>
        <time>2020-06-08T18:28:56Z</time>
      </trkpt>
      <trkpt lat="48.37441" lon="-4.56618">
        <ele>88.1</ele>
        <time>2020-06-08T18:28:57Z</time>
      </trkpt>
      <trkpt lat="48.37439" lon="-4.56627">
        <ele>88</ele>
        <time>2020-06-08T18:28:58Z</time>
      </trkpt>
      <trkpt lat="48.37437" lon="-4.56636">
        <ele>88</ele>
        <time>2020-06-08T18:28:59Z</time>
      </trkpt>
      <trkpt lat="48.37435" lon="-4.56645">
        <ele>87.9</ele>
        <time>2020-06-08T18:29:00Z</time>
      </trkpt>
      <trkpt lat="48.37433" lon="-4.56654">
        <ele>87.8</ele>
        <time>2020-06-08T18:29:01Z</time>
      </trkpt>
      <trkpt lat="48.37431" lon="-4.56663">
        <ele>87.8</ele>
        <time>2020-06-08T18:29:02Z</time>
      </trkpt>
      <trkpt lat="48.37429" lon="-4.56672">
        <ele>87.7</ele>
        <time>2020-06-08T18:29:03Z</time>
      </trkpt>
      <trkpt lat="48.37426" lon="-4.56681">
        <ele>87.6</ele>
        <time>2020-06-08T18:29:04Z</time>
      </trkpt>
      <trkpt lat="48.37424" lon="-4.5669">
        <ele>87.6</ele>
        <time>2020-06-08T18:29:05Z</time>
      </trkpt>
      <trkpt lat="48.37421" lon="-4.56699">
        <ele>87.6</ele>
        <time>2020-06-08T18:29:06Z</time>
      </trkpt>
      <trkpt lat="48.37419" lon="-4.56708">
        <ele>87.5</ele>
        <time>2020-06-08T18:29:07Z</time>
      </trkpt>
      <trkpt lat="48.37417" lon="-4.56718">
        <ele>87.4</ele>
        <time>2020-06-08T18:29:08Z</time>
      </trkpt>
      <trkpt lat="48.37416" lon="-4.56728">
        <ele>87.3</ele>
        <time>2020-06-08T18:29:09Z</time>
      </trkpt>
      <trkpt lat="48.37414" lon="-4.56738">
        <ele>87.2</ele>
        <time>2020-06-08T18:29:10Z</time>
      </trkpt>
      <trkpt lat="48.37413" lon="-4.56747">
        <ele>87</ele>
        <time>2020-06-08T18:29:11Z</time>
      </trkpt>
      <trkpt lat="48.37411" lon="-4.56757">
        <ele>86.9</ele>
        <time>2020-06-08T18:29:12Z</time>
      </trkpt>
      <trkpt lat="48.3741" lon="-4.56766">
        <ele>86.8</ele>
        <time>2020-06-08T18:29:13Z</time>
      </trkpt>
      <trkpt lat="48.37409" lon="-4.56776">
        <ele>86.7</ele>
        <time>2020-06-08T18:29:14Z</time>
      </trkpt>
      <trkpt lat="48.37409" lon="-4.56785">
        <ele>86.6</ele>
        <time>2020-06-08T18:29:15Z</time>
      </trkpt>
      <trkpt lat="48.37409" lon="-4.56795">
        <ele>86.6</ele>
        <time>2020-06-08T18:29:16Z</time>
      </trkpt>
      <trkpt lat="48.37409" lon="-4.56804">
        <ele>86.5</ele>
        <time>2020-06-08T18:29:17Z</time>
      </trkpt>
      <trkpt lat="48.3741" lon="-4.56814">
        <ele>86.5</ele>
        <time>2020-06-08T18:29:18Z</time>
      </trkpt>
      <trkpt lat="48.37411" lon="-4.56823">
        <ele>86.6</ele>
        <time>2020-06-08T18:29:19Z</time>
      </trkpt>
      <trkpt lat="48.37413" lon="-4.56832">
        <ele>86.6</ele>
        <time>2020-06-08T18:29:20Z</time>
      </trkpt>
      <trkpt lat="48.37414" lon="-4.5684">
        <ele>86.6</ele>
        <time>2020-06-08T18:29:21Z</time>
      </trkpt>
      <trkpt lat="48.37415" lon="-4.56849">
        <ele>86.6</ele>
        <time>2020-06-08T18:29:22Z</time>
      </trkpt>
      <trkpt lat="48.37415" lon="-4.56857">
        <ele>86.6</ele>
        <time>2020-06-08T18:29:23Z</time>
      </trkpt>
      <trkpt lat="48.37413" lon="-4.56865">
        <ele>86.5</ele>
        <time>2020-06-08T18:29:24Z</time>
      </trkpt>
      <trkpt lat="48.37412" lon="-4.56873">
        <ele>86.5</ele>
        <time>2020-06-08T18:29:25Z</time>
      </trkpt>
      <trkpt lat="48.3741" lon="-4.56881">
        <ele>86.4</ele>
        <time>2020-06-08T18:29:26Z</time>
      </trkpt>
      <trkpt lat="48.3741" lon="-4.5689">
        <ele>86.4</ele>
        <time>2020-06-08T18:29:27Z</time>
      </trkpt>
      <trkpt lat="48.37409" lon="-4.56899">
        <ele>86.4</ele>
        <time>2020-06-08T18:29:28Z</time>
      </trkpt>
      <trkpt lat="48.37408" lon="-4.56909">
        <ele>86.3</ele>
        <time>2020-06-08T18:29:29Z</time>
      </trkpt>
      <trkpt lat="48.37408" lon="-4.56918">
        <ele>86.3</ele>
        <time>2020-06-08T18:29:30Z</time>
      </trkpt>
      <trkpt lat="48.37409" lon="-4.56928">
        <ele>86.3</ele>
        <time>2020-06-08T18:29:31Z</time>
      </trkpt>
      <trkpt lat="48.37407" lon="-4.56937">
        <ele>86.3</ele>
        <time>2020-06-08T18:29:32Z</time>
      </trkpt>
      <trkpt lat="48.37407" lon="-4.56947">
        <ele>86.3</ele>
        <time>2020-06-08T18:29:33Z</time>
      </trkpt>
      <trkpt lat="48.37408" lon="-4.56957">
        <ele>86.3</ele>
        <time>2020-06-08T18:29:34Z</time>
      </trkpt>
      <trkpt lat="48.37409" lon="-4.56967">
        <ele>86.3</ele>
        <time>2020-06-08T18:29:35Z</time>
      </trkpt>
      <trkpt lat="48.37409" lon="-4.56977">
        <ele>86.3</ele>
        <time>2020-06-08T18:29:36Z</time>
      </trkpt>
      <trkpt lat="48.37409" lon="-4.56987">
        <ele>86.3</ele>
        <time>2020-06-08T18:29:37Z</time>
      </trkpt>
      <trkpt lat="48.37409" lon="-4.56997">
        <ele>86.3</ele>
        <time>2020-06-08T18:29:38Z</time>
      </trkpt>
      <trkpt lat="48.37408" lon="-4.57006">
        <ele>86.2</ele>
        <time>2020-06-08T18:29:39Z</time>
      </trkpt>
      <trkpt lat="48.37408" lon="-4.57016">
        <ele>86.2</ele>
        <time>2020-06-08T18:29:40Z</time>
      </trkpt>
      <trkpt lat="48.37407" lon="-4.57026">
        <ele>86</ele>
        <time>2020-06-08T18:29:41Z</time>
      </trkpt>
      <trkpt lat="48.37408" lon="-4.57035">
        <ele>85.9</ele>
        <time>2020-06-08T18:29:42Z</time>
      </trkpt>
      <trkpt lat="48.37407" lon="-4.57045">
        <ele>85.7</ele>
        <time>2020-06-08T18:29:43Z</time>
      </trkpt>
      <trkpt lat="48.37407" lon="-4.57055">
        <ele>85.4</ele>
        <time>2020-06-08T18:29:44Z</time>
      </trkpt>
      <trkpt lat="48.37405" lon="-4.57064">
        <ele>85.2</ele>
        <time>2020-06-08T18:29:45Z</time>
      </trkpt>
      <trkpt lat="48.37404" lon="-4.57074">
        <ele>84.9</ele>
        <time>2020-06-08T18:29:46Z</time>
      </trkpt>
      <trkpt lat="48.37404" lon="-4.57085">
        <ele>84.6</ele>
        <time>2020-06-08T18:29:47Z</time>
      </trkpt>
      <trkpt lat="48.37403" lon="-4.57095">
        <ele>84.3</ele>
        <time>2020-06-08T18:29:48Z</time>
      </trkpt>
      <trkpt lat="48.37402" lon="-4.57106">
        <ele>84</ele>
        <time>2020-06-08T18:29:49Z</time>
      </trkpt>
      <trkpt lat="48.37401" lon="-4.57116">
        <ele>83.6</ele>
        <time>2020-06-08T18:29:50Z</time>
      </trkpt>
      <trkpt lat="48.374" lon="-4.57127">
        <ele>83.2</ele>
        <time>2020-06-08T18:29:51Z</time>
      </trkpt>
      <trkpt lat="48.37399" lon="-4.57139">
        <ele>83</ele>
        <time>2020-06-08T18:29:52Z</time>
      </trkpt>
      <trkpt lat="48.37398" lon="-4.5715">
        <ele>82.7</ele>
        <time>2020-06-08T18:29:53Z</time>
      </trkpt>
      <trkpt lat="48.37397" lon="-4.57161">
        <ele>82.5</ele>
        <time>2020-06-08T18:29:54Z</time>
      </trkpt>
      <trkpt lat="48.37395" lon="-4.57172">
        <ele>82.2</ele>
        <time>2020-06-08T18:29:55Z</time>
      </trkpt>
      <trkpt lat="48.37394" lon="-4.57183">
        <ele>82</ele>
        <time>2020-06-08T18:29:56Z</time>
      </trkpt>
      <trkpt lat="48.37393" lon="-4.57195">
        <ele>81.8</ele>
        <time>2020-06-08T18:29:57Z</time>
      </trkpt>
      <trkpt lat="48.37393" lon="-4.57207">
        <ele>81.5</ele>
        <time>2020-06-08T18:29:58Z</time>
      </trkpt>
      <trkpt lat="48.37392" lon="-4.57218">
        <ele>81.4</ele>
        <time>2020-06-08T18:29:59Z</time>
      </trkpt>
      <trkpt lat="48.37391" lon="-4.5723">
        <ele>81.1</ele>
        <time>2020-06-08T18:30:00Z</time>
      </trkpt>
      <trkpt lat="48.3739" lon="-4.57241">
        <ele>81.1</ele>
        <time>2020-06-08T18:30:01Z</time>
      </trkpt>
      <trkpt lat="48.3739" lon="-4.57252">
        <ele>81</ele>
        <time>2020-06-08T18:30:02Z</time>
      </trkpt>
      <trkpt lat="48.37389" lon="-4.57262">
        <ele>81</ele>
        <time>2020-06-08T18:30:03Z</time>
      </trkpt>
      <trkpt lat="48.37389" lon="-4.57272">
        <ele>81</ele>
        <time>2020-06-08T18:30:04Z</time>
      </trkpt>
      <trkpt lat="48.37388" lon="-4.57282">
        <ele>81</ele>
        <time>2020-06-08T18:30:05Z</time>
      </trkpt>
      <trkpt lat="48.37386" lon="-4.57291">
        <ele>81.1</ele>
        <time>2020-06-08T18:30:06Z</time>
      </trkpt>
      <trkpt lat="48.37385" lon="-4.573">
        <ele>81.3</ele>
        <time>2020-06-08T18:30:07Z</time>
      </trkpt>
      <trkpt lat="48.37383" lon="-4.57309">
        <ele>81.4</ele>
        <time>2020-06-08T18:30:08Z</time>
      </trkpt>
      <trkpt lat="48.37383" lon="-4.57318">
        <ele>81.6</ele>
        <time>2020-06-08T18:30:09Z</time>
      </trkpt>
      <trkpt lat="48.37383" lon="-4.57326">
        <ele>81.8</ele>
        <time>2020-06-08T18:30:10Z</time>
      </trkpt>
      <trkpt lat="48.37384" lon="-4.57333">
        <ele>82</ele>
        <time>2020-06-08T18:30:11Z</time>
      </trkpt>
      <trkpt lat="48.37386" lon="-4.5734">
        <ele>82.2</ele>
        <time>2020-06-08T18:30:12Z</time>
      </trkpt>
      <trkpt lat="48.3739" lon="-4.57345">
        <ele>82.5</ele>
        <time>2020-06-08T18:30:13Z</time>
      </trkpt>
      <trkpt lat="48.37394" lon="-4.57349">
        <ele>82.7</ele>
        <time>2020-06-08T18:30:14Z</time>
      </trkpt>
      <trkpt lat="48.37396" lon="-4.57353">
        <ele>82.8</ele>
        <time>2020-06-08T18:30:15Z</time>
      </trkpt>
      <trkpt lat="48.37398" lon="-4.57358">
        <ele>82.9</ele>
        <time>2020-06-08T18:30:16Z</time>
      </trkpt>
      <trkpt lat="48.37399" lon="-4.57362">
        <ele>83</ele>
        <time>2020-06-08T18:30:17Z</time>
      </trkpt>
      <trkpt lat="48.374" lon="-4.57366">
        <ele>83.2</ele>
        <time>2020-06-08T18:30:18Z</time>
      </trkpt>
      <trkpt lat="48.374" lon="-4.5737">
        <ele>83.2</ele>
        <time>2020-06-08T18:30:19Z</time>
      </trkpt>
      <trkpt lat="48.37398" lon="-4.57373">
        <ele>83.2</ele>
        <time>2020-06-08T18:30:20Z</time>
      </trkpt>
      <trkpt lat="48.37396" lon="-4.57378">
        <ele>83.1</ele>
        <time>2020-06-08T18:30:21Z</time>
      </trkpt>
      <trkpt lat="48.37395" lon="-4.57379">
        <ele>83.1</ele>
        <time>2020-06-08T18:30:22Z</time>
      </trkpt>
      <trkpt lat="48.37392" lon="-4.57381">
        <ele>83</ele>
        <time>2020-06-08T18:30:23Z</time>
      </trkpt>
      <trkpt lat="48.37389" lon="-4.57384">
        <ele>82.9</ele>
        <time>2020-06-08T18:30:24Z</time>
      </trkpt>
      <trkpt lat="48.37385" lon="-4.57389">
        <ele>82.8</ele>
        <time>2020-06-08T18:30:25Z</time>
      </trkpt>
      <trkpt lat="48.37382" lon="-4.57396">
        <ele>82.8</ele>
        <time>2020-06-08T18:30:26Z</time>
      </trkpt>
      <trkpt lat="48.3738" lon="-4.57403">
        <ele>82.8</ele>
        <time>2020-06-08T18:30:27Z</time>
      </trkpt>
      <trkpt lat="48.3738" lon="-4.57411">
        <ele>82.8</ele>
        <time>2020-06-08T18:30:28Z</time>
      </trkpt>
      <trkpt lat="48.3738" lon="-4.5742">
        <ele>82.9</ele>
        <time>2020-06-08T18:30:29Z</time>
      </trkpt>
      <trkpt lat="48.37378" lon="-4.57428">
        <ele>83</ele>
        <time>2020-06-08T18:30:30Z</time>
      </trkpt>
      <trkpt lat="48.37376" lon="-4.57437">
        <ele>83.1</ele>
        <time>2020-06-08T18:30:31Z</time>
      </trkpt>
      <trkpt lat="48.37377" lon="-4.57446">
        <ele>83.3</ele>
        <time>2020-06-08T18:30:32Z</time>
      </trkpt>
      <trkpt lat="48.37377" lon="-4.57455">
        <ele>83.4</ele>
        <time>2020-06-08T18:30:33Z</time>
      </trkpt>
      <trkpt lat="48.37377" lon="-4.57464">
        <ele>83.6</ele>
        <time>2020-06-08T18:30:34Z</time>
      </trkpt>
      <trkpt lat="48.37378" lon="-4.57474">
        <ele>83.7</ele>
        <time>2020-06-08T18:30:35Z</time>
      </trkpt>
      <trkpt lat="48.37378" lon="-4.57483">
        <ele>83.9</ele>
        <time>2020-06-08T18:30:36Z</time>
      </trkpt>
      <trkpt lat="48.37379" lon="-4.57492">
        <ele>84.1</ele>
        <time>2020-06-08T18:30:37Z</time>
      </trkpt>
      <trkpt lat="48.3738" lon="-4.57501">
        <ele>84.3</ele>
        <time>2020-06-08T18:30:38Z</time>
      </trkpt>
      <trkpt lat="48.37381" lon="-4.5751">
        <ele>84.4</ele>
        <time>2020-06-08T18:30:39Z</time>
      </trkpt>
      <trkpt lat="48.37382" lon="-4.5752">
        <ele>84.6</ele>
        <time>2020-06-08T18:30:40Z</time>
      </trkpt>
      <trkpt lat="48.37383" lon="-4.5753">
        <ele>84.8</ele>
        <time>2020-06-08T18:30:41Z</time>
      </trkpt>
      <trkpt lat="48.37383" lon="-4.57542">
        <ele>85</ele>
        <time>2020-06-08T18:30:42Z</time>
      </trkpt>
      <trkpt lat="48.37384" lon="-4.57552">
        <ele>85.2</ele>
        <time>2020-06-08T18:30:43Z</time>
      </trkpt>
      <trkpt lat="48.37385" lon="-4.57561">
        <ele>85.3</ele>
        <time>2020-06-08T18:30:44Z</time>
      </trkpt>
      <trkpt lat="48.37384" lon="-4.5757">
        <ele>85.5</ele>
        <time>2020-06-08T18:30:45Z</time>
      </trkpt>
      <trkpt lat="48.37385" lon="-4.57577">
        <ele>85.7</ele>
        <time>2020-06-08T18:30:46Z</time>
      </trkpt>
      <trkpt lat="48.37385" lon="-4.57585">
        <ele>85.8</ele>
        <time>2020-06-08T18:30:47Z</time>
      </trkpt>
      <trkpt lat="48.37385" lon="-4.57593">
        <ele>86</ele>
        <time>2020-06-08T18:30:48Z</time>
      </trkpt>
      <trkpt lat="48.37386" lon="-4.576">
        <ele>86.1</ele>
        <time>2020-06-08T18:30:49Z</time>
      </trkpt>
      <trkpt lat="48.37386" lon="-4.57609">
        <ele>86.2</ele>
        <time>2020-06-08T18:30:50Z</time>
      </trkpt>
      <trkpt lat="48.37386" lon="-4.57618">
        <ele>86.3</ele>
        <time>2020-06-08T18:30:51Z</time>
      </trkpt>
      <trkpt lat="48.37386" lon="-4.57627">
        <ele>86.4</ele>
        <time>2020-06-08T18:30:52Z</time>
      </trkpt>
      <trkpt lat="48.37385" lon="-4.57634">
        <ele>86.5</ele>
        <time>2020-06-08T18:30:53Z</time>
      </trkpt>
      <trkpt lat="48.37385" lon="-4.57644">
        <ele>86.6</ele>
        <time>2020-06-08T18:30:54Z</time>
      </trkpt>
      <trkpt lat="48.37383" lon="-4.57652">
        <ele>86.6</ele>
        <time>2020-06-08T18:30:55Z</time>
      </trkpt>
      <trkpt lat="48.37382" lon="-4.57661">
        <ele>86.7</ele>
        <time>2020-06-08T18:30:56Z</time>
      </trkpt>
      <trkpt lat="48.37382" lon="-4.57669">
        <ele>86.8</ele>
        <time>2020-06-08T18:30:57Z</time>
      </trkpt>
      <trkpt lat="48.37382" lon="-4.57677">
        <ele>86.8</ele>
        <time>2020-06-08T18:30:58Z</time>
      </trkpt>
      <trkpt lat="48.37382" lon="-4.57684">
        <ele>86.8</ele>
        <time>2020-06-08T18:30:59Z</time>
      </trkpt>
      <trkpt lat="48.37381" lon="-4.57692">
        <ele>86.9</ele>
        <time>2020-06-08T18:31:00Z</time>
      </trkpt>
      <trkpt lat="48.37379" lon="-4.57701">
        <ele>86.9</ele>
        <time>2020-06-08T18:31:01Z</time>
      </trkpt>
      <trkpt lat="48.37377" lon="-4.57709">
        <ele>87</ele>
        <time>2020-06-08T18:31:02Z</time>
      </trkpt>
      <trkpt lat="48.37375" lon="-4.57718">
        <ele>87</ele>
        <time>2020-06-08T18:31:03Z</time>
      </trkpt>
      <trkpt lat="48.37373" lon="-4.57725">
        <ele>87</ele>
        <time>2020-06-08T18:31:04Z</time>
      </trkpt>
      <trkpt lat="48.37371" lon="-4.57733">
        <ele>87.1</ele>
        <time>2020-06-08T18:31:05Z</time>
      </trkpt>
      <trkpt lat="48.3737" lon="-4.57741">
        <ele>87.1</ele>
        <time>2020-06-08T18:31:06Z</time>
      </trkpt>
      <trkpt lat="48.37366" lon="-4.57751">
        <ele>87.2</ele>
        <time>2020-06-08T18:31:07Z</time>
      </trkpt>
      <trkpt lat="48.37364" lon="-4.57759">
        <ele>87.3</ele>
        <time>2020-06-08T18:31:08Z</time>
      </trkpt>
      <trkpt lat="48.37363" lon="-4.57767">
        <ele>87.3</ele>
        <time>2020-06-08T18:31:09Z</time>
      </trkpt>
      <trkpt lat="48.37361" lon="-4.57774">
        <ele>87.3</ele>
        <time>2020-06-08T18:31:10Z</time>
      </trkpt>
      <trkpt lat="48.37359" lon="-4.57782">
        <ele>87.2</ele>
        <time>2020-06-08T18:31:11Z</time>
      </trkpt>
      <trkpt lat="48.37356" lon="-4.5779">
        <ele>87.2</ele>
        <time>2020-06-08T18:31:12Z</time>
      </trkpt>
      <trkpt lat="48.37352" lon="-4.57799">
        <ele>87.1</ele>
        <time>2020-06-08T18:31:13Z</time>
      </trkpt>
      <trkpt lat="48.37349" lon="-4.57807">
        <ele>87.1</ele>
        <time>2020-06-08T18:31:14Z</time>
      </trkpt>
      <trkpt lat="48.37345" lon="-4.57815">
        <ele>87</ele>
        <time>2020-06-08T18:31:15Z</time>
      </trkpt>
      <trkpt lat="48.37342" lon="-4.57823">
        <ele>87</ele>
        <time>2020-06-08T18:31:16Z</time>
      </trkpt>
      <trkpt lat="48.37339" lon="-4.57832">
        <ele>87</ele>
        <time>2020-06-08T18:31:17Z</time>
      </trkpt>
      <trkpt lat="48.37337" lon="-4.5784">
        <ele>86.9</ele>
        <time>2020-06-08T18:31:18Z</time>
      </trkpt>
      <trkpt lat="48.37335" lon="-4.57847">
        <ele>86.8</ele>
        <time>2020-06-08T18:31:19Z</time>
      </trkpt>
      <trkpt lat="48.37332" lon="-4.57852">
        <ele>86.8</ele>
        <time>2020-06-08T18:31:20Z</time>
      </trkpt>
      <trkpt lat="48.3733" lon="-4.57861">
        <ele>86.7</ele>
        <time>2020-06-08T18:31:21Z</time>
      </trkpt>
      <trkpt lat="48.37327" lon="-4.57868">
        <ele>86.6</ele>
        <time>2020-06-08T18:31:22Z</time>
      </trkpt>
      <trkpt lat="48.37323" lon="-4.57876">
        <ele>86.5</ele>
        <time>2020-06-08T18:31:23Z</time>
      </trkpt>
      <trkpt lat="48.37317" lon="-4.57884">
        <ele>86.3</ele>
        <time>2020-06-08T18:31:24Z</time>
      </trkpt>
      <trkpt lat="48.37313" lon="-4.57891">
        <ele>86.2</ele>
        <time>2020-06-08T18:31:25Z</time>
      </trkpt>
      <trkpt lat="48.37309" lon="-4.579">
        <ele>86</ele>
        <time>2020-06-08T18:31:26Z</time>
      </trkpt>
      <trkpt lat="48.37307" lon="-4.57909">
        <ele>85.9</ele>
        <time>2020-06-08T18:31:27Z</time>
      </trkpt>
      <trkpt lat="48.37304" lon="-4.57918">
        <ele>85.7</ele>
        <time>2020-06-08T18:31:28Z</time>
      </trkpt>
      <trkpt lat="48.373" lon="-4.57927">
        <ele>85.6</ele>
        <time>2020-06-08T18:31:29Z</time>
      </trkpt>
      <trkpt lat="48.37297" lon="-4.57936">
        <ele>85.4</ele>
        <time>2020-06-08T18:31:30Z</time>
      </trkpt>
      <trkpt lat="48.37293" lon="-4.57946">
        <ele>85.2</ele>
        <time>2020-06-08T18:31:31Z</time>
      </trkpt>
      <trkpt lat="48.3729" lon="-4.57955">
        <ele>85.1</ele>
        <time>2020-06-08T18:31:32Z</time>
      </trkpt>
      <trkpt lat="48.37289" lon="-4.57963">
        <ele>85</ele>
        <time>2020-06-08T18:31:33Z</time>
      </trkpt>
      <trkpt lat="48.3729" lon="-4.57972">
        <ele>85</ele>
        <time>2020-06-08T18:31:34Z</time>
      </trkpt>
      <trkpt lat="48.3729" lon="-4.5798">
        <ele>84.9</ele>
        <time>2020-06-08T18:31:35Z</time>
      </trkpt>
      <trkpt lat="48.37288" lon="-4.57987">
        <ele>84.7</ele>
        <time>2020-06-08T18:31:36Z</time>
      </trkpt>
      <trkpt lat="48.37285" lon="-4.57994">
        <ele>84.4</ele>
        <time>2020-06-08T18:31:37Z</time>
      </trkpt>
      <trkpt lat="48.37281" lon="-4.57999">
        <ele>84.1</ele>
        <time>2020-06-08T18:31:38Z</time>
      </trkpt>
      <trkpt lat="48.37276" lon="-4.58002">
        <ele>83.7</ele>
        <time>2020-06-08T18:31:39Z</time>
      </trkpt>
      <trkpt lat="48.3727" lon="-4.58007">
        <ele>83.3</ele>
        <time>2020-06-08T18:31:40Z</time>
      </trkpt>
      <trkpt lat="48.37265" lon="-4.58011">
        <ele>82.9</ele>
        <time>2020-06-08T18:31:41Z</time>
      </trkpt>
      <trkpt lat="48.37259" lon="-4.58016">
        <ele>82.5</ele>
        <time>2020-06-08T18:31:42Z</time>
      </trkpt>
      <trkpt lat="48.37253" lon="-4.58023">
        <ele>82.2</ele>
        <time>2020-06-08T18:31:43Z</time>
      </trkpt>
      <trkpt lat="48.37248" lon="-4.58033">
        <ele>81.7</ele>
        <time>2020-06-08T18:31:44Z</time>
      </trkpt>
      <trkpt lat="48.37245" lon="-4.58045">
        <ele>81.3</ele>
        <time>2020-06-08T18:31:45Z</time>
      </trkpt>
      <trkpt lat="48.37241" lon="-4.58055">
        <ele>81</ele>
        <time>2020-06-08T18:31:46Z</time>
      </trkpt>
      <trkpt lat="48.37237" lon="-4.58065">
        <ele>80.8</ele>
        <time>2020-06-08T18:31:47Z</time>
      </trkpt>
      <trkpt lat="48.37233" lon="-4.58075">
        <ele>80.5</ele>
        <time>2020-06-08T18:31:48Z</time>
      </trkpt>
      <trkpt lat="48.37228" lon="-4.58086">
        <ele>80.3</ele>
        <time>2020-06-08T18:31:49Z</time>
      </trkpt>
      <trkpt lat="48.37224" lon="-4.58095">
        <ele>80.1</ele>
        <time>2020-06-08T18:31:50Z</time>
      </trkpt>
      <trkpt lat="48.3722" lon="-4.58107">
        <ele>79.9</ele>
        <time>2020-06-08T18:31:51Z</time>
      </trkpt>
      <trkpt lat="48.37216" lon="-4.58117">
        <ele>79.8</ele>
        <time>2020-06-08T18:31:52Z</time>
      </trkpt>
      <trkpt lat="48.37212" lon="-4.58127">
        <ele>79.8</ele>
        <time>2020-06-08T18:31:53Z</time>
      </trkpt>
      <trkpt lat="48.37209" lon="-4.58136">
        <ele>79.7</ele>
        <time>2020-06-08T18:31:54Z</time>
      </trkpt>
      <trkpt lat="48.37206" lon="-4.58146">
        <ele>79.7</ele>
        <time>2020-06-08T18:31:55Z</time>
      </trkpt>
      <trkpt lat="48.37203" lon="-4.58156">
        <ele>79.6</ele>
        <time>2020-06-08T18:31:56Z</time>
      </trkpt>
      <trkpt lat="48.37201" lon="-4.58165">
        <ele>79.6</ele>
        <time>2020-06-08T18:31:57Z</time>
      </trkpt>
      <trkpt lat="48.37199" lon="-4.58175">
        <ele>79.6</ele>
        <time>2020-06-08T18:31:58Z</time>
      </trkpt>
      <trkpt lat="48.37197" lon="-4.58184">
        <ele>79.6</ele>
        <time>2020-06-08T18:31:59Z</time>
      </trkpt>
      <trkpt lat="48.37196" lon="-4.58193">
        <ele>79.6</ele>
        <time>2020-06-08T18:32:00Z</time>
      </trkpt>
      <trkpt lat="48.37196" lon="-4.58202">
        <ele>79.6</ele>
        <time>2020-06-08T18:32:01Z</time>
      </trkpt>
      <trkpt lat="48.37196" lon="-4.58211">
        <ele>79.7</ele>
        <time>2020-06-08T18:32:02Z</time>
      </trkpt>
      <trkpt lat="48.37196" lon="-4.58219">
        <ele>79.7</ele>
        <time>2020-06-08T18:32:03Z</time>
      </trkpt>
      <trkpt lat="48.37196" lon="-4.58226">
        <ele>79.7</ele>
        <time>2020-06-08T18:32:04Z</time>
      </trkpt>
      <trkpt lat="48.37194" lon="-4.58231">
        <ele>79.7</ele>
        <time>2020-06-08T18:32:05Z</time>
      </trkpt>
      <trkpt lat="48.3719" lon="-4.58235">
        <ele>79.7</ele>
        <time>2020-06-08T18:32:06Z</time>
      </trkpt>
      <trkpt lat="48.37186" lon="-4.58235">
        <ele>79.7</ele>
        <time>2020-06-08T18:32:07Z</time>
      </trkpt>
      <trkpt lat="48.37182" lon="-4.5824">
        <ele>79.8</ele>
        <time>2020-06-08T18:32:08Z</time>
      </trkpt>
      <trkpt lat="48.37181" lon="-4.58247">
        <ele>79.8</ele>
        <time>2020-06-08T18:32:09Z</time>
      </trkpt>
      <trkpt lat="48.3718" lon="-4.58254">
        <ele>79.9</ele>
        <time>2020-06-08T18:32:10Z</time>
      </trkpt>
      <trkpt lat="48.37179" lon="-4.58261">
        <ele>79.9</ele>
        <time>2020-06-08T18:32:11Z</time>
      </trkpt>
      <trkpt lat="48.37178" lon="-4.58268">
        <ele>79.9</ele>
        <time>2020-06-08T18:32:12Z</time>
      </trkpt>
      <trkpt lat="48.37176" lon="-4.58275">
        <ele>79.9</ele>
        <time>2020-06-08T18:32:13Z</time>
      </trkpt>
      <trkpt lat="48.37175" lon="-4.58282">
        <ele>80</ele>
        <time>2020-06-08T18:32:14Z</time>
      </trkpt>
      <trkpt lat="48.37173" lon="-4.58289">
        <ele>80</ele>
        <time>2020-06-08T18:32:15Z</time>
      </trkpt>
      <trkpt lat="48.37172" lon="-4.58297">
        <ele>80.1</ele>
        <time>2020-06-08T18:32:16Z</time>
      </trkpt>
      <trkpt lat="48.37169" lon="-4.58304">
        <ele>80.1</ele>
        <time>2020-06-08T18:32:17Z</time>
      </trkpt>
      <trkpt lat="48.37167" lon="-4.58311">
        <ele>80.2</ele>
        <time>2020-06-08T18:32:18Z</time>
      </trkpt>
      <trkpt lat="48.37166" lon="-4.5832">
        <ele>80.3</ele>
        <time>2020-06-08T18:32:19Z</time>
      </trkpt>
      <trkpt lat="48.37165" lon="-4.58329">
        <ele>80.4</ele>
        <time>2020-06-08T18:32:20Z</time>
      </trkpt>
      <trkpt lat="48.37162" lon="-4.58338">
        <ele>80.4</ele>
        <time>2020-06-08T18:32:21Z</time>
      </trkpt>
      <trkpt lat="48.3716" lon="-4.58347">
        <ele>80.4</ele>
        <time>2020-06-08T18:32:22Z</time>
      </trkpt>
      <trkpt lat="48.37158" lon="-4.58356">
        <ele>80.5</ele>
        <time>2020-06-08T18:32:23Z</time>
      </trkpt>
      <trkpt lat="48.37156" lon="-4.58365">
        <ele>80.5</ele>
        <time>2020-06-08T18:32:24Z</time>
      </trkpt>
      <trkpt lat="48.37153" lon="-4.58374">
        <ele>80.5</ele>
        <time>2020-06-08T18:32:25Z</time>
      </trkpt>
      <trkpt lat="48.3715" lon="-4.58383">
        <ele>80.5</ele>
        <time>2020-06-08T18:32:26Z</time>
      </trkpt>
      <trkpt lat="48.37147" lon="-4.58391">
        <ele>80.6</ele>
        <time>2020-06-08T18:32:27Z</time>
      </trkpt>
      <trkpt lat="48.37145" lon="-4.58399">
        <ele>80.6</ele>
        <time>2020-06-08T18:32:28Z</time>
      </trkpt>
      <trkpt lat="48.37142" lon="-4.58408">
        <ele>80.7</ele>
        <time>2020-06-08T18:32:29Z</time>
      </trkpt>
      <trkpt lat="48.37139" lon="-4.58416">
        <ele>80.7</ele>
        <time>2020-06-08T18:32:30Z</time>
      </trkpt>
      <trkpt lat="48.37137" lon="-4.58425">
        <ele>80.8</ele>
        <time>2020-06-08T18:32:31Z</time>
      </trkpt>
      <trkpt lat="48.37136" lon="-4.58433">
        <ele>80.8</ele>
        <time>2020-06-08T18:32:32Z</time>
      </trkpt>
      <trkpt lat="48.37135" lon="-4.58442">
        <ele>80.9</ele>
        <time>2020-06-08T18:32:33Z</time>
      </trkpt>
      <trkpt lat="48.37134" lon="-4.5845">
        <ele>81</ele>
        <time>2020-06-08T18:32:34Z</time>
      </trkpt>
      <trkpt lat="48.37133" lon="-4.58458">
        <ele>81</ele>
        <time>2020-06-08T18:32:35Z</time>
      </trkpt>
      <trkpt lat="48.37132" lon="-4.58466">
        <ele>81.1</ele>
        <time>2020-06-08T18:32:36Z</time>
      </trkpt>
      <trkpt lat="48.37131" lon="-4.58473">
        <ele>81.2</ele>
        <time>2020-06-08T18:32:37Z</time>
      </trkpt>
      <trkpt lat="48.37129" lon="-4.5848">
        <ele>81.3</ele>
        <time>2020-06-08T18:32:38Z</time>
      </trkpt>
      <trkpt lat="48.37128" lon="-4.58486">
        <ele>81.4</ele>
        <time>2020-06-08T18:32:39Z</time>
      </trkpt>
      <trkpt lat="48.37125" lon="-4.58492">
        <ele>81.5</ele>
        <time>2020-06-08T18:32:40Z</time>
      </trkpt>
      <trkpt lat="48.37123" lon="-4.58497">
        <ele>81.6</ele>
        <time>2020-06-08T18:32:41Z</time>
      </trkpt>
      <trkpt lat="48.3712" lon="-4.58503">
        <ele>81.7</ele>
        <time>2020-06-08T18:32:42Z</time>
      </trkpt>
      <trkpt lat="48.37118" lon="-4.58509">
        <ele>81.9</ele>
        <time>2020-06-08T18:32:43Z</time>
      </trkpt>
      <trkpt lat="48.37117" lon="-4.58516">
        <ele>82</ele>
        <time>2020-06-08T18:32:44Z</time>
      </trkpt>
      <trkpt lat="48.37115" lon="-4.58524">
        <ele>82.1</ele>
        <time>2020-06-08T18:32:45Z</time>
      </trkpt>
      <trkpt lat="48.37113" lon="-4.58531">
        <ele>82.3</ele>
        <time>2020-06-08T18:32:46Z</time>
      </trkpt>
      <trkpt lat="48.37113" lon="-4.58539">
        <ele>82.5</ele>
        <time>2020-06-08T18:32:47Z</time>
      </trkpt>
      <trkpt lat="48.37113" lon="-4.58547">
        <ele>82.7</ele>
        <time>2020-06-08T18:32:48Z</time>
      </trkpt>
      <trkpt lat="48.37115" lon="-4.58555">
        <ele>82.9</ele>
        <time>2020-06-08T18:32:49Z</time>
      </trkpt>
      <trkpt lat="48.37117" lon="-4.58561">
        <ele>83</ele>
        <time>2020-06-08T18:32:50Z</time>
      </trkpt>
      <trkpt lat="48.37119" lon="-4.58567">
        <ele>83.2</ele>
        <time>2020-06-08T18:32:51Z</time>
      </trkpt>
      <trkpt lat="48.37122" lon="-4.58573">
        <ele>83.4</ele>
        <time>2020-06-08T18:32:52Z</time>
      </trkpt>
      <trkpt lat="48.37124" lon="-4.58579">
        <ele>83.7</ele>
        <time>2020-06-08T18:32:53Z</time>
      </trkpt>
      <trkpt lat="48.37125" lon="-4.58586">
        <ele>83.9</ele>
        <time>2020-06-08T18:32:54Z</time>
      </trkpt>
      <trkpt lat="48.37126" lon="-4.58593">
        <ele>84.2</ele>
        <time>2020-06-08T18:32:55Z</time>
      </trkpt>
      <trkpt lat="48.37128" lon="-4.586">
        <ele>84.4</ele>
        <time>2020-06-08T18:32:56Z</time>
      </trkpt>
      <trkpt lat="48.37128" lon="-4.58607">
        <ele>84.7</ele>
        <time>2020-06-08T18:32:57Z</time>
      </trkpt>
      <trkpt lat="48.37129" lon="-4.58613">
        <ele>85</ele>
        <time>2020-06-08T18:32:58Z</time>
      </trkpt>
      <trkpt lat="48.37131" lon="-4.58619">
        <ele>85.2</ele>
        <time>2020-06-08T18:32:59Z</time>
      </trkpt>
      <trkpt lat="48.37134" lon="-4.58623">
        <ele>85.4</ele>
        <time>2020-06-08T18:33:00Z</time>
      </trkpt>
      <trkpt lat="48.37135" lon="-4.58628">
        <ele>85.6</ele>
        <time>2020-06-08T18:33:01Z</time>
      </trkpt>
      <trkpt lat="48.37136" lon="-4.58632">
        <ele>85.8</ele>
        <time>2020-06-08T18:33:02Z</time>
      </trkpt>
      <trkpt lat="48.37138" lon="-4.58636">
        <ele>86</ele>
        <time>2020-06-08T18:33:03Z</time>
      </trkpt>
      <trkpt lat="48.37139" lon="-4.5864">
        <ele>86.2</ele>
        <time>2020-06-08T18:33:04Z</time>
      </trkpt>
      <trkpt lat="48.37141" lon="-4.58645">
        <ele>86.4</ele>
        <time>2020-06-08T18:33:05Z</time>
      </trkpt>
      <trkpt lat="48.37143" lon="-4.58648">
        <ele>86.6</ele>
        <time>2020-06-08T18:33:06Z</time>
      </trkpt>
      <trkpt lat="48.37146" lon="-4.5865">
        <ele>86.8</ele>
        <time>2020-06-08T18:33:07Z</time>
      </trkpt>
      <trkpt lat="48.3715" lon="-4.58655">
        <ele>87</ele>
        <time>2020-06-08T18:33:08Z</time>
      </trkpt>
      <trkpt lat="48.37153" lon="-4.58658">
        <ele>87.3</ele>
        <time>2020-06-08T18:33:09Z</time>
      </trkpt>
      <trkpt lat="48.37156" lon="-4.5866">
        <ele>87.5</ele>
        <time>2020-06-08T18:33:10Z</time>
      </trkpt>
      <trkpt lat="48.37159" lon="-4.58664">
        <ele>87.7</ele>
        <time>2020-06-08T18:33:11Z</time>
      </trkpt>
      <trkpt lat="48.3716" lon="-4.58666">
        <ele>87.8</ele>
        <time>2020-06-08T18:33:12Z</time>
      </trkpt>
      <trkpt lat="48.37163" lon="-4.58669">
        <ele>88.1</ele>
        <time>2020-06-08T18:33:13Z</time>
      </trkpt>
      <trkpt lat="48.37164" lon="-4.58671">
        <ele>88.5</ele>
        <time>2020-06-08T18:33:14Z</time>
      </trkpt>
      <trkpt lat="48.37168" lon="-4.58674">
        <ele>88.8</ele>
        <time>2020-06-08T18:33:15Z</time>
      </trkpt>
      <trkpt lat="48.3717" lon="-4.58678">
        <ele>89.1</ele>
        <time>2020-06-08T18:33:16Z</time>
      </trkpt>
      <trkpt lat="48.37173" lon="-4.58681">
        <ele>89.3</ele>
        <time>2020-06-08T18:33:17Z</time>
      </trkpt>
      <trkpt lat="48.37176" lon="-4.58684">
        <ele>89.5</ele>
        <time>2020-06-08T18:33:18Z</time>
      </trkpt>
      <trkpt lat="48.37178" lon="-4.58686">
        <ele>89.7</ele>
        <time>2020-06-08T18:33:19Z</time>
      </trkpt>
      <trkpt lat="48.3718" lon="-4.58687">
        <ele>89.8</ele>
        <time>2020-06-08T18:33:20Z</time>
      </trkpt>
      <trkpt lat="48.37183" lon="-4.5869">
        <ele>90</ele>
        <time>2020-06-08T18:33:21Z</time>
      </trkpt>
      <trkpt lat="48.37186" lon="-4.58693">
        <ele>90.2</ele>
        <time>2020-06-08T18:33:22Z</time>
      </trkpt>
      <trkpt lat="48.37188" lon="-4.58695">
        <ele>90.4</ele>
        <time>2020-06-08T18:33:23Z</time>
      </trkpt>
      <trkpt lat="48.37191" lon="-4.58697">
        <ele>90.6</ele>
        <time>2020-06-08T18:33:24Z</time>
      </trkpt>
      <trkpt lat="48.37195" lon="-4.58699">
        <ele>90.8</ele>
        <time>2020-06-08T18:33:25Z</time>
      </trkpt>
      <trkpt lat="48.37197" lon="-4.58701">
        <ele>91</ele>
        <time>2020-06-08T18:33:26Z</time>
      </trkpt>
      <trkpt lat="48.372" lon="-4.58702">
        <ele>91.2</ele>
        <time>2020-06-08T18:33:27Z</time>
      </trkpt>
      <trkpt lat="48.37203" lon="-4.58703">
        <ele>91.4</ele>
        <time>2020-06-08T18:33:28Z</time>
      </trkpt>
      <trkpt lat="48.37208" lon="-4.58705">
        <ele>91.7</ele>
        <time>2020-06-08T18:33:29Z</time>
      </trkpt>
      <trkpt lat="48.3721" lon="-4.58708">
        <ele>91.9</ele>
        <time>2020-06-08T18:33:30Z</time>
      </trkpt>
      <trkpt lat="48.37214" lon="-4.5871">
        <ele>92.2</ele>
        <time>2020-06-08T18:33:31Z</time>
      </trkpt>
      <trkpt lat="48.37216" lon="-4.58712">
        <ele>92.3</ele>
        <time>2020-06-08T18:33:32Z</time>
      </trkpt>
      <trkpt lat="48.37219" lon="-4.58715">
        <ele>92.7</ele>
        <time>2020-06-08T18:33:33Z</time>
      </trkpt>
      <trkpt lat="48.37221" lon="-4.58719">
        <ele>92.7</ele>
        <time>2020-06-08T18:33:34Z</time>
      </trkpt>
      <trkpt lat="48.37222" lon="-4.58721">
        <ele>92.7</ele>
        <time>2020-06-08T18:33:35Z</time>
      </trkpt>
      <trkpt lat="48.37223" lon="-4.58725">
        <ele>92.7</ele>
        <time>2020-06-08T18:33:36Z</time>
      </trkpt>
      <trkpt lat="48.37225" lon="-4.5873">
        <ele>92.9</ele>
        <time>2020-06-08T18:33:37Z</time>
      </trkpt>
      <trkpt lat="48.37227" lon="-4.58735">
        <ele>93</ele>
        <time>2020-06-08T18:33:38Z</time>
      </trkpt>
      <trkpt lat="48.37228" lon="-4.58739">
        <ele>93.1</ele>
        <time>2020-06-08T18:33:39Z</time>
      </trkpt>
      <trkpt lat="48.3723" lon="-4.58743">
        <ele>93.3</ele>
        <time>2020-06-08T18:33:40Z</time>
      </trkpt>
      <trkpt lat="48.37233" lon="-4.58749">
        <ele>93.6</ele>
        <time>2020-06-08T18:33:41Z</time>
      </trkpt>
      <trkpt lat="48.37233" lon="-4.58753">
        <ele>93.7</ele>
        <time>2020-06-08T18:33:42Z</time>
      </trkpt>
      <trkpt lat="48.37233" lon="-4.58758">
        <ele>93.8</ele>
        <time>2020-06-08T18:33:43Z</time>
      </trkpt>
      <trkpt lat="48.37233" lon="-4.58759">
        <ele>93.8</ele>
        <time>2020-06-08T18:33:44Z</time>
      </trkpt>
      <trkpt lat="48.37231" lon="-4.58764">
        <ele>94</ele>
        <time>2020-06-08T18:33:45Z</time>
      </trkpt>
      <trkpt lat="48.3723" lon="-4.58765">
        <ele>94</ele>
        <time>2020-06-08T18:33:46Z</time>
      </trkpt>
      <trkpt lat="48.37229" lon="-4.58771">
        <ele>94.1</ele>
        <time>2020-06-08T18:33:47Z</time>
      </trkpt>
      <trkpt lat="48.37227" lon="-4.58772">
        <ele>94.2</ele>
        <time>2020-06-08T18:33:48Z</time>
      </trkpt>
      <trkpt lat="48.37226" lon="-4.58779">
        <ele>94.3</ele>
        <time>2020-06-08T18:33:49Z</time>
      </trkpt>
      <trkpt lat="48.37225" lon="-4.58784">
        <ele>93.9</ele>
        <time>2020-06-08T18:33:50Z</time>
      </trkpt>
      <trkpt lat="48.37224" lon="-4.58788">
        <ele>93.6</ele>
        <time>2020-06-08T18:33:51Z</time>
      </trkpt>
      <trkpt lat="48.37224" lon="-4.58794">
        <ele>93.4</ele>
        <time>2020-06-08T18:33:52Z</time>
      </trkpt>
      <trkpt lat="48.37223" lon="-4.58798">
        <ele>93.1</ele>
        <time>2020-06-08T18:33:53Z</time>
      </trkpt>
      <trkpt lat="48.37222" lon="-4.58804">
        <ele>92.6</ele>
        <time>2020-06-08T18:33:54Z</time>
      </trkpt>
      <trkpt lat="48.37221" lon="-4.5881">
        <ele>92.6</ele>
        <time>2020-06-08T18:33:55Z</time>
      </trkpt>
      <trkpt lat="48.37221" lon="-4.58816">
        <ele>92.6</ele>
        <time>2020-06-08T18:33:56Z</time>
      </trkpt>
      <trkpt lat="48.37221" lon="-4.58822">
        <ele>92.6</ele>
        <time>2020-06-08T18:33:57Z</time>
      </trkpt>
      <trkpt lat="48.37222" lon="-4.58828">
        <ele>92.6</ele>
        <time>2020-06-08T18:33:58Z</time>
      </trkpt>
      <trkpt lat="48.37222" lon="-4.58835">
        <ele>92.6</ele>
        <time>2020-06-08T18:33:59Z</time>
      </trkpt>
      <trkpt lat="48.37222" lon="-4.58837">
        <ele>92.6</ele>
        <time>2020-06-08T18:34:00Z</time>
      </trkpt>
      <trkpt lat="48.37222" lon="-4.58842">
        <ele>92.7</ele>
        <time>2020-06-08T18:34:01Z</time>
      </trkpt>
      <trkpt lat="48.37223" lon="-4.58847">
        <ele>92.8</ele>
        <time>2020-06-08T18:34:02Z</time>
      </trkpt>
      <trkpt lat="48.37223" lon="-4.58853">
        <ele>93.2</ele>
        <time>2020-06-08T18:34:03Z</time>
      </trkpt>
      <trkpt lat="48.37224" lon="-4.58859">
        <ele>93.3</ele>
        <time>2020-06-08T18:34:04Z</time>
      </trkpt>
      <trkpt lat="48.37224" lon="-4.58866">
        <ele>93.4</ele>
        <time>2020-06-08T18:34:05Z</time>
      </trkpt>
      <trkpt lat="48.37225" lon="-4.58869">
        <ele>93.4</ele>
        <time>2020-06-08T18:34:06Z</time>
      </trkpt>
      <trkpt lat="48.37226" lon="-4.58873">
        <ele>93.8</ele>
        <time>2020-06-08T18:34:07Z</time>
      </trkpt>
      <trkpt lat="48.37227" lon="-4.58878">
        <ele>93.8</ele>
        <time>2020-06-08T18:34:08Z</time>
      </trkpt>
      <trkpt lat="48.37228" lon="-4.58882">
        <ele>93.9</ele>
        <time>2020-06-08T18:34:09Z</time>
      </trkpt>
      <trkpt lat="48.37228" lon="-4.58888">
        <ele>93.9</ele>
        <time>2020-06-08T18:34:10Z</time>
      </trkpt>
      <trkpt lat="48.37229" lon="-4.58892">
        <ele>94</ele>
        <time>2020-06-08T18:34:11Z</time>
      </trkpt>
      <trkpt lat="48.37229" lon="-4.58896">
        <ele>94</ele>
        <time>2020-06-08T18:34:12Z</time>
      </trkpt>
      <trkpt lat="48.37229" lon="-4.58901">
        <ele>94</ele>
        <time>2020-06-08T18:34:13Z</time>
      </trkpt>
      <trkpt lat="48.37228" lon="-4.58905">
        <ele>94</ele>
        <time>2020-06-08T18:34:14Z</time>
      </trkpt>
      <trkpt lat="48.37228" lon="-4.5891">
        <ele>94.1</ele>
        <time>2020-06-08T18:34:15Z</time>
      </trkpt>
      <trkpt lat="48.37227" lon="-4.58915">
        <ele>94.1</ele>
        <time>2020-06-08T18:34:16Z</time>
      </trkpt>
      <trkpt lat="48.37226" lon="-4.58921">
        <ele>94.2</ele>
        <time>2020-06-08T18:34:17Z</time>
      </trkpt>
      <trkpt lat="48.37225" lon="-4.58924">
        <ele>94.2</ele>
        <time>2020-06-08T18:34:18Z</time>
      </trkpt>
      <trkpt lat="48.37224" lon="-4.58929">
        <ele>94.2</ele>
        <time>2020-06-08T18:34:19Z</time>
      </trkpt>
      <trkpt lat="48.37222" lon="-4.58935">
        <ele>94.2</ele>
        <time>2020-06-08T18:34:20Z</time>
      </trkpt>
      <trkpt lat="48.37221" lon="-4.58941">
        <ele>94.1</ele>
        <time>2020-06-08T18:34:21Z</time>
      </trkpt>
      <trkpt lat="48.37219" lon="-4.58947">
        <ele>94</ele>
        <time>2020-06-08T18:34:22Z</time>
      </trkpt>
      <trkpt lat="48.37218" lon="-4.58953">
        <ele>93.9</ele>
        <time>2020-06-08T18:34:23Z</time>
      </trkpt>
      <trkpt lat="48.37217" lon="-4.58956">
        <ele>93.9</ele>
        <time>2020-06-08T18:34:24Z</time>
      </trkpt>
      <trkpt lat="48.37215" lon="-4.58963">
        <ele>93.8</ele>
        <time>2020-06-08T18:34:25Z</time>
      </trkpt>
      <trkpt lat="48.37212" lon="-4.58969">
        <ele>93.7</ele>
        <time>2020-06-08T18:34:26Z</time>
      </trkpt>
      <trkpt lat="48.3721" lon="-4.58976">
        <ele>93.6</ele>
        <time>2020-06-08T18:34:27Z</time>
      </trkpt>
      <trkpt lat="48.37207" lon="-4.58983">
        <ele>93.6</ele>
        <time>2020-06-08T18:34:28Z</time>
      </trkpt>
      <trkpt lat="48.37204" lon="-4.58991">
        <ele>93.6</ele>
        <time>2020-06-08T18:34:29Z</time>
      </trkpt>
      <trkpt lat="48.37202" lon="-4.58998">
        <ele>93.6</ele>
        <time>2020-06-08T18:34:30Z</time>
      </trkpt>
      <trkpt lat="48.372" lon="-4.59002">
        <ele>93.6</ele>
        <time>2020-06-08T18:34:31Z</time>
      </trkpt>
      <trkpt lat="48.37199" lon="-4.59009">
        <ele>93.6</ele>
        <time>2020-06-08T18:34:32Z</time>
      </trkpt>
      <trkpt lat="48.37197" lon="-4.59015">
        <ele>93.5</ele>
        <time>2020-06-08T18:34:33Z</time>
      </trkpt>
      <trkpt lat="48.37195" lon="-4.59019">
        <ele>93.5</ele>
        <time>2020-06-08T18:34:34Z</time>
      </trkpt>
      <trkpt lat="48.37194" lon="-4.59026">
        <ele>93.5</ele>
        <time>2020-06-08T18:34:35Z</time>
      </trkpt>
      <trkpt lat="48.37193" lon="-4.59031">
        <ele>93.5</ele>
        <time>2020-06-08T18:34:36Z</time>
      </trkpt>
      <trkpt lat="48.37193" lon="-4.59038">
        <ele>93.5</ele>
        <time>2020-06-08T18:34:37Z</time>
      </trkpt>
      <trkpt lat="48.37195" lon="-4.59043">
        <ele>93.5</ele>
        <time>2020-06-08T18:34:38Z</time>
      </trkpt>
      <trkpt lat="48.37202" lon="-4.5905">
        <ele>93.4</ele>
        <time>2020-06-08T18:34:39Z</time>
      </trkpt>
      <trkpt lat="48.37207" lon="-4.59055">
        <ele>93.4</ele>
        <time>2020-06-08T18:34:40Z</time>
      </trkpt>
      <trkpt lat="48.3721" lon="-4.59058">
        <ele>93.4</ele>
        <time>2020-06-08T18:34:41Z</time>
      </trkpt>
      <trkpt lat="48.37214" lon="-4.59064">
        <ele>93.3</ele>
        <time>2020-06-08T18:34:42Z</time>
      </trkpt>
      <trkpt lat="48.37216" lon="-4.59069">
        <ele>93.2</ele>
        <time>2020-06-08T18:34:43Z</time>
      </trkpt>
      <trkpt lat="48.37219" lon="-4.59074">
        <ele>93.2</ele>
        <time>2020-06-08T18:34:44Z</time>
      </trkpt>
      <trkpt lat="48.37222" lon="-4.59079">
        <ele>93.1</ele>
        <time>2020-06-08T18:34:45Z</time>
      </trkpt>
      <trkpt lat="48.37225" lon="-4.59085">
        <ele>93.1</ele>
        <time>2020-06-08T18:34:46Z</time>
      </trkpt>
      <trkpt lat="48.37228" lon="-4.59089">
        <ele>93.1</ele>
        <time>2020-06-08T18:34:47Z</time>
      </trkpt>
      <trkpt lat="48.3723" lon="-4.59094">
        <ele>93</ele>
        <time>2020-06-08T18:34:48Z</time>
      </trkpt>
      <trkpt lat="48.37232" lon="-4.59097">
        <ele>93</ele>
        <time>2020-06-08T18:34:49Z</time>
      </trkpt>
      <trkpt lat="48.37233" lon="-4.59098">
        <ele>93</ele>
        <time>2020-06-08T18:34:50Z</time>
      </trkpt>
      <trkpt lat="48.37232" lon="-4.59103">
        <ele>93</ele>
        <time>2020-06-08T18:34:51Z</time>
      </trkpt>
      <trkpt lat="48.3723" lon="-4.59106">
        <ele>93.1</ele>
        <time>2020-06-08T18:34:52Z</time>
      </trkpt>
      <trkpt lat="48.37228" lon="-4.59107">
        <ele>93.1</ele>
        <time>2020-06-08T18:34:53Z</time>
      </trkpt>
      <trkpt lat="48.37227" lon="-4.59111">
        <ele>93.1</ele>
        <time>2020-06-08T18:34:54Z</time>
      </trkpt>
      <trkpt lat="48.37228" lon="-4.59119">
        <ele>93.1</ele>
        <time>2020-06-08T18:34:55Z</time>
      </trkpt>
      <trkpt lat="48.37231" lon="-4.59125">
        <ele>93.2</ele>
        <time>2020-06-08T18:34:56Z</time>
      </trkpt>
      <trkpt lat="48.3723" lon="-4.5913">
        <ele>93.2</ele>
        <time>2020-06-08T18:34:57Z</time>
      </trkpt>
      <trkpt lat="48.37229" lon="-4.59136">
        <ele>93.2</ele>
        <time>2020-06-08T18:34:58Z</time>
      </trkpt>
      <trkpt lat="48.37227" lon="-4.59141">
        <ele>93.2</ele>
        <time>2020-06-08T18:34:59Z</time>
      </trkpt>
      <trkpt lat="48.37227" lon="-4.59147">
        <ele>93</ele>
        <time>2020-06-08T18:35:00Z</time>
      </trkpt>
      <trkpt lat="48.37227" lon="-4.59154">
        <ele>92.9</ele>
        <time>2020-06-08T18:35:01Z</time>
      </trkpt>
      <trkpt lat="48.37228" lon="-4.5916">
        <ele>92.9</ele>
        <time>2020-06-08T18:35:02Z</time>
      </trkpt>
      <trkpt lat="48.37231" lon="-4.59165">
        <ele>92.8</ele>
        <time>2020-06-08T18:35:03Z</time>
      </trkpt>
      <trkpt lat="48.37234" lon="-4.59172">
        <ele>92.8</ele>
        <time>2020-06-08T18:35:04Z</time>
      </trkpt>
      <trkpt lat="48.37237" lon="-4.59175">
        <ele>92.8</ele>
        <time>2020-06-08T18:35:05Z</time>
      </trkpt>
      <trkpt lat="48.37242" lon="-4.59179">
        <ele>92.8</ele>
        <time>2020-06-08T18:35:06Z</time>
      </trkpt>
      <trkpt lat="48.37246" lon="-4.59183">
        <ele>92.8</ele>
        <time>2020-06-08T18:35:07Z</time>
      </trkpt>
      <trkpt lat="48.3725" lon="-4.59185">
        <ele>92.7</ele>
        <time>2020-06-08T18:35:08Z</time>
      </trkpt>
      <trkpt lat="48.37254" lon="-4.59187">
        <ele>92.7</ele>
        <time>2020-06-08T18:35:09Z</time>
      </trkpt>
      <trkpt lat="48.37258" lon="-4.59189">
        <ele>92.7</ele>
        <time>2020-06-08T18:35:10Z</time>
      </trkpt>
      <trkpt lat="48.37262" lon="-4.59192">
        <ele>92.7</ele>
        <time>2020-06-08T18:35:11Z</time>
      </trkpt>
      <trkpt lat="48.37264" lon="-4.59193">
        <ele>92.7</ele>
        <time>2020-06-08T18:35:12Z</time>
      </trkpt>
      <trkpt lat="48.37267" lon="-4.59195">
        <ele>92.7</ele>
        <time>2020-06-08T18:35:13Z</time>
      </trkpt>
      <trkpt lat="48.3727" lon="-4.59196">
        <ele>92.6</ele>
        <time>2020-06-08T18:35:14Z</time>
      </trkpt>
      <trkpt lat="48.37274" lon="-4.59199">
        <ele>92.6</ele>
        <time>2020-06-08T18:35:15Z</time>
      </trkpt>
      <trkpt lat="48.37278" lon="-4.59203">
        <ele>92.6</ele>
        <time>2020-06-08T18:35:16Z</time>
      </trkpt>
      <trkpt lat="48.37282" lon="-4.59207">
        <ele>92.5</ele>
        <time>2020-06-08T18:35:17Z</time>
      </trkpt>
      <trkpt lat="48.37286" lon="-4.5921">
        <ele>92.5</ele>
        <time>2020-06-08T18:35:18Z</time>
      </trkpt>
      <trkpt lat="48.37291" lon="-4.59213">
        <ele>92.5</ele>
        <time>2020-06-08T18:35:19Z</time>
      </trkpt>
      <trkpt lat="48.37296" lon="-4.59218">
        <ele>92.4</ele>
        <time>2020-06-08T18:35:20Z</time>
      </trkpt>
      <trkpt lat="48.37301" lon="-4.5922">
        <ele>92.4</ele>
        <time>2020-06-08T18:35:21Z</time>
      </trkpt>
      <trkpt lat="48.37307" lon="-4.59222">
        <ele>92.3</ele>
        <time>2020-06-08T18:35:22Z</time>
      </trkpt>
      <trkpt lat="48.37312" lon="-4.59227">
        <ele>92.2</ele>
        <time>2020-06-08T18:35:23Z</time>
      </trkpt>
      <trkpt lat="48.37317" lon="-4.59231">
        <ele>92.1</ele>
        <time>2020-06-08T18:35:24Z</time>
      </trkpt>
      <trkpt lat="48.37322" lon="-4.59235">
        <ele>92</ele>
        <time>2020-06-08T18:35:25Z</time>
      </trkpt>
      <trkpt lat="48.37328" lon="-4.59239">
        <ele>91.9</ele>
        <time>2020-06-08T18:35:26Z</time>
      </trkpt>
      <trkpt lat="48.37332" lon="-4.59242">
        <ele>91.8</ele>
        <time>2020-06-08T18:35:27Z</time>
      </trkpt>
      <trkpt lat="48.37335" lon="-4.59247">
        <ele>91.8</ele>
        <time>2020-06-08T18:35:28Z</time>
      </trkpt>
      <trkpt lat="48.37341" lon="-4.59249">
        <ele>91.7</ele>
        <time>2020-06-08T18:35:29Z</time>
      </trkpt>
      <trkpt lat="48.37346" lon="-4.59251">
        <ele>91.6</ele>
        <time>2020-06-08T18:35:30Z</time>
      </trkpt>
      <trkpt lat="48.3735" lon="-4.59254">
        <ele>91.5</ele>
        <time>2020-06-08T18:35:31Z</time>
      </trkpt>
      <trkpt lat="48.37355" lon="-4.59258">
        <ele>91.4</ele>
        <time>2020-06-08T18:35:32Z</time>
      </trkpt>
      <trkpt lat="48.37359" lon="-4.59262">
        <ele>91.2</ele>
        <time>2020-06-08T18:35:33Z</time>
      </trkpt>
      <trkpt lat="48.37363" lon="-4.59267">
        <ele>91.1</ele>
        <time>2020-06-08T18:35:34Z</time>
      </trkpt>
      <trkpt lat="48.37367" lon="-4.59275">
        <ele>90.9</ele>
        <time>2020-06-08T18:35:35Z</time>
      </trkpt>
      <trkpt lat="48.3737" lon="-4.59282">
        <ele>90.7</ele>
        <time>2020-06-08T18:35:36Z</time>
      </trkpt>
      <trkpt lat="48.37371" lon="-4.5929">
        <ele>90.6</ele>
        <time>2020-06-08T18:35:37Z</time>
      </trkpt>
      <trkpt lat="48.37373" lon="-4.59296">
        <ele>90.5</ele>
        <time>2020-06-08T18:35:38Z</time>
      </trkpt>
      <trkpt lat="48.37375" lon="-4.59303">
        <ele>90.5</ele>
        <time>2020-06-08T18:35:39Z</time>
      </trkpt>
      <trkpt lat="48.37377" lon="-4.59311">
        <ele>90.3</ele>
        <time>2020-06-08T18:35:40Z</time>
      </trkpt>
      <trkpt lat="48.37379" lon="-4.59319">
        <ele>90.2</ele>
        <time>2020-06-08T18:35:41Z</time>
      </trkpt>
      <trkpt lat="48.37381" lon="-4.59325">
        <ele>90</ele>
        <time>2020-06-08T18:35:42Z</time>
      </trkpt>
      <trkpt lat="48.37384" lon="-4.59333">
        <ele>89.8</ele>
        <time>2020-06-08T18:35:43Z</time>
      </trkpt>
      <trkpt lat="48.37386" lon="-4.59341">
        <ele>89.6</ele>
        <time>2020-06-08T18:35:44Z</time>
      </trkpt>
      <trkpt lat="48.37388" lon="-4.59349">
        <ele>89.4</ele>
        <time>2020-06-08T18:35:45Z</time>
      </trkpt>
      <trkpt lat="48.37391" lon="-4.5936">
        <ele>89.1</ele>
        <time>2020-06-08T18:35:46Z</time>
      </trkpt>
      <trkpt lat="48.37393" lon="-4.5937">
        <ele>88.8</ele>
        <time>2020-06-08T18:35:47Z</time>
      </trkpt>
      <trkpt lat="48.37396" lon="-4.59379">
        <ele>88.5</ele>
        <time>2020-06-08T18:35:48Z</time>
      </trkpt>
      <trkpt lat="48.37399" lon="-4.59389">
        <ele>88.2</ele>
        <time>2020-06-08T18:35:49Z</time>
      </trkpt>
      <trkpt lat="48.37402" lon="-4.59399">
        <ele>87.9</ele>
        <time>2020-06-08T18:35:50Z</time>
      </trkpt>
      <trkpt lat="48.37405" lon="-4.5941">
        <ele>87.6</ele>
        <time>2020-06-08T18:35:51Z</time>
      </trkpt>
      <trkpt lat="48.37407" lon="-4.5942">
        <ele>87.3</ele>
        <time>2020-06-08T18:35:52Z</time>
      </trkpt>
      <trkpt lat="48.37408" lon="-4.59428">
        <ele>87.1</ele>
        <time>2020-06-08T18:35:53Z</time>
      </trkpt>
      <trkpt lat="48.37408" lon="-4.59435">
        <ele>86.9</ele>
        <time>2020-06-08T18:35:54Z</time>
      </trkpt>
      <trkpt lat="48.37409" lon="-4.59442">
        <ele>86.7</ele>
        <time>2020-06-08T18:35:55Z</time>
      </trkpt>
      <trkpt lat="48.37412" lon="-4.59448">
        <ele>86.5</ele>
        <time>2020-06-08T18:35:56Z</time>
      </trkpt>
      <trkpt lat="48.37415" lon="-4.59455">
        <ele>86.2</ele>
        <time>2020-06-08T18:35:57Z</time>
      </trkpt>
      <trkpt lat="48.37417" lon="-4.59463">
        <ele>86</ele>
        <time>2020-06-08T18:35:58Z</time>
      </trkpt>
      <trkpt lat="48.37419" lon="-4.59471">
        <ele>85.8</ele>
        <time>2020-06-08T18:35:59Z</time>
      </trkpt>
      <trkpt lat="48.37422" lon="-4.59477">
        <ele>85.6</ele>
        <time>2020-06-08T18:36:00Z</time>
      </trkpt>
      <trkpt lat="48.37424" lon="-4.59484">
        <ele>85.4</ele>
        <time>2020-06-08T18:36:01Z</time>
      </trkpt>
      <trkpt lat="48.37426" lon="-4.59492">
        <ele>85.1</ele>
        <time>2020-06-08T18:36:02Z</time>
      </trkpt>
      <trkpt lat="48.37429" lon="-4.59498">
        <ele>85</ele>
        <time>2020-06-08T18:36:03Z</time>
      </trkpt>
      <trkpt lat="48.37432" lon="-4.59506">
        <ele>84.8</ele>
        <time>2020-06-08T18:36:04Z</time>
      </trkpt>
      <trkpt lat="48.37434" lon="-4.59515">
        <ele>84.6</ele>
        <time>2020-06-08T18:36:05Z</time>
      </trkpt>
      <trkpt lat="48.37437" lon="-4.59524">
        <ele>84.4</ele>
        <time>2020-06-08T18:36:06Z</time>
      </trkpt>
      <trkpt lat="48.3744" lon="-4.59532">
        <ele>84.1</ele>
        <time>2020-06-08T18:36:07Z</time>
      </trkpt>
      <trkpt lat="48.37442" lon="-4.59539">
        <ele>83.9</ele>
        <time>2020-06-08T18:36:08Z</time>
      </trkpt>
      <trkpt lat="48.37445" lon="-4.59547">
        <ele>83.7</ele>
        <time>2020-06-08T18:36:09Z</time>
      </trkpt>
      <trkpt lat="48.37448" lon="-4.59554">
        <ele>83.5</ele>
        <time>2020-06-08T18:36:10Z</time>
      </trkpt>
      <trkpt lat="48.37453" lon="-4.59561">
        <ele>83.3</ele>
        <time>2020-06-08T18:36:11Z</time>
      </trkpt>
      <trkpt lat="48.37458" lon="-4.59568">
        <ele>83</ele>
        <time>2020-06-08T18:36:12Z</time>
      </trkpt>
      <trkpt lat="48.37465" lon="-4.59575">
        <ele>82.7</ele>
        <time>2020-06-08T18:36:13Z</time>
      </trkpt>
      <trkpt lat="48.3747" lon="-4.59579">
        <ele>82.5</ele>
        <time>2020-06-08T18:36:14Z</time>
      </trkpt>
      <trkpt lat="48.37476" lon="-4.59586">
        <ele>82.2</ele>
        <time>2020-06-08T18:36:15Z</time>
      </trkpt>
      <trkpt lat="48.37482" lon="-4.59593">
        <ele>81.9</ele>
        <time>2020-06-08T18:36:16Z</time>
      </trkpt>
      <trkpt lat="48.37487" lon="-4.59597">
        <ele>81.6</ele>
        <time>2020-06-08T18:36:17Z</time>
      </trkpt>
      <trkpt lat="48.37493" lon="-4.59601">
        <ele>81.4</ele>
        <time>2020-06-08T18:36:18Z</time>
      </trkpt>
      <trkpt lat="48.37499" lon="-4.59607">
        <ele>81.1</ele>
        <time>2020-06-08T18:36:19Z</time>
      </trkpt>
      <trkpt lat="48.37505" lon="-4.59612">
        <ele>80.8</ele>
        <time>2020-06-08T18:36:20Z</time>
      </trkpt>
      <trkpt lat="48.37511" lon="-4.59617">
        <ele>80.5</ele>
        <time>2020-06-08T18:36:21Z</time>
      </trkpt>
      <trkpt lat="48.37517" lon="-4.59623">
        <ele>80.3</ele>
        <time>2020-06-08T18:36:22Z</time>
      </trkpt>
      <trkpt lat="48.37524" lon="-4.5963">
        <ele>80</ele>
        <time>2020-06-08T18:36:23Z</time>
      </trkpt>
      <trkpt lat="48.37531" lon="-4.59636">
        <ele>79.7</ele>
        <time>2020-06-08T18:36:24Z</time>
      </trkpt>
      <trkpt lat="48.37539" lon="-4.59643">
        <ele>79.5</ele>
        <time>2020-06-08T18:36:25Z</time>
      </trkpt>
      <trkpt lat="48.37546" lon="-4.59649">
        <ele>79.3</ele>
        <time>2020-06-08T18:36:26Z</time>
      </trkpt>
      <trkpt lat="48.37553" lon="-4.59654">
        <ele>79.1</ele>
        <time>2020-06-08T18:36:27Z</time>
      </trkpt>
      <trkpt lat="48.3756" lon="-4.59658">
        <ele>79</ele>
        <time>2020-06-08T18:36:28Z</time>
      </trkpt>
      <trkpt lat="48.37566" lon="-4.59663">
        <ele>79</ele>
        <time>2020-06-08T18:36:29Z</time>
      </trkpt>
      <trkpt lat="48.37572" lon="-4.59667">
        <ele>78.9</ele>
        <time>2020-06-08T18:36:30Z</time>
      </trkpt>
      <trkpt lat="48.37578" lon="-4.5967">
        <ele>78.8</ele>
        <time>2020-06-08T18:36:31Z</time>
      </trkpt>
      <trkpt lat="48.37584" lon="-4.59671">
        <ele>78.7</ele>
        <time>2020-06-08T18:36:32Z</time>
      </trkpt>
      <trkpt lat="48.37589" lon="-4.59675">
        <ele>78.6</ele>
        <time>2020-06-08T18:36:33Z</time>
      </trkpt>
      <trkpt lat="48.37592" lon="-4.59682">
        <ele>78.6</ele>
        <time>2020-06-08T18:36:34Z</time>
      </trkpt>
      <trkpt lat="48.37597" lon="-4.59688">
        <ele>78.5</ele>
        <time>2020-06-08T18:36:35Z</time>
      </trkpt>
      <trkpt lat="48.37603" lon="-4.59693">
        <ele>78.4</ele>
        <time>2020-06-08T18:36:36Z</time>
      </trkpt>
      <trkpt lat="48.37609" lon="-4.59695">
        <ele>78.3</ele>
        <time>2020-06-08T18:36:37Z</time>
      </trkpt>
      <trkpt lat="48.37614" lon="-4.59701">
        <ele>78.3</ele>
        <time>2020-06-08T18:36:38Z</time>
      </trkpt>
      <trkpt lat="48.37619" lon="-4.59706">
        <ele>78.2</ele>
        <time>2020-06-08T18:36:39Z</time>
      </trkpt>
      <trkpt lat="48.37625" lon="-4.5971">
        <ele>78.2</ele>
        <time>2020-06-08T18:36:40Z</time>
      </trkpt>
      <trkpt lat="48.37631" lon="-4.59714">
        <ele>78.2</ele>
        <time>2020-06-08T18:36:41Z</time>
      </trkpt>
      <trkpt lat="48.37637" lon="-4.59718">
        <ele>78.2</ele>
        <time>2020-06-08T18:36:42Z</time>
      </trkpt>
      <trkpt lat="48.37643" lon="-4.59723">
        <ele>78.1</ele>
        <time>2020-06-08T18:36:43Z</time>
      </trkpt>
      <trkpt lat="48.37649" lon="-4.59727">
        <ele>78.1</ele>
        <time>2020-06-08T18:36:44Z</time>
      </trkpt>
      <trkpt lat="48.37656" lon="-4.59732">
        <ele>78</ele>
        <time>2020-06-08T18:36:45Z</time>
      </trkpt>
      <trkpt lat="48.37662" lon="-4.59736">
        <ele>78</ele>
        <time>2020-06-08T18:36:46Z</time>
      </trkpt>
      <trkpt lat="48.37668" lon="-4.59741">
        <ele>77.9</ele>
        <time>2020-06-08T18:36:47Z</time>
      </trkpt>
      <trkpt lat="48.37674" lon="-4.59745">
        <ele>77.9</ele>
        <time>2020-06-08T18:36:48Z</time>
      </trkpt>
      <trkpt lat="48.37679" lon="-4.5975">
        <ele>77.8</ele>
        <time>2020-06-08T18:36:49Z</time>
      </trkpt>
      <trkpt lat="48.37685" lon="-4.59753">
        <ele>77.8</ele>
        <time>2020-06-08T18:36:50Z</time>
      </trkpt>
      <trkpt lat="48.37691" lon="-4.59757">
        <ele>77.8</ele>
        <time>2020-06-08T18:36:51Z</time>
      </trkpt>
      <trkpt lat="48.37697" lon="-4.59761">
        <ele>77.7</ele>
        <time>2020-06-08T18:36:52Z</time>
      </trkpt>
      <trkpt lat="48.37702" lon="-4.59767">
        <ele>77.7</ele>
        <time>2020-06-08T18:36:53Z</time>
      </trkpt>
      <trkpt lat="48.37709" lon="-4.5977">
        <ele>77.7</ele>
        <time>2020-06-08T18:36:54Z</time>
      </trkpt>
      <trkpt lat="48.37715" lon="-4.59775">
        <ele>77.7</ele>
        <time>2020-06-08T18:36:55Z</time>
      </trkpt>
      <trkpt lat="48.37721" lon="-4.59781">
        <ele>77.7</ele>
        <time>2020-06-08T18:36:56Z</time>
      </trkpt>
      <trkpt lat="48.37727" lon="-4.59786">
        <ele>77.7</ele>
        <time>2020-06-08T18:36:57Z</time>
      </trkpt>
      <trkpt lat="48.37733" lon="-4.59791">
        <ele>77.7</ele>
        <time>2020-06-08T18:36:58Z</time>
      </trkpt>
      <trkpt lat="48.37739" lon="-4.59795">
        <ele>77.7</ele>
        <time>2020-06-08T18:36:59Z</time>
      </trkpt>
      <trkpt lat="48.37745" lon="-4.59799">
        <ele>77.6</ele>
        <time>2020-06-08T18:37:00Z</time>
      </trkpt>
      <trkpt lat="48.37751" lon="-4.59804">
        <ele>77.6</ele>
        <time>2020-06-08T18:37:01Z</time>
      </trkpt>
      <trkpt lat="48.37757" lon="-4.5981">
        <ele>77.5</ele>
        <time>2020-06-08T18:37:02Z</time>
      </trkpt>
      <trkpt lat="48.37762" lon="-4.59815">
        <ele>77.4</ele>
        <time>2020-06-08T18:37:03Z</time>
      </trkpt>
      <trkpt lat="48.37768" lon="-4.59822">
        <ele>77.3</ele>
        <time>2020-06-08T18:37:04Z</time>
      </trkpt>
      <trkpt lat="48.37773" lon="-4.59828">
        <ele>77.2</ele>
        <time>2020-06-08T18:37:05Z</time>
      </trkpt>
      <trkpt lat="48.37778" lon="-4.59833">
        <ele>77.2</ele>
        <time>2020-06-08T18:37:06Z</time>
      </trkpt>
      <trkpt lat="48.37783" lon="-4.59839">
        <ele>77.1</ele>
        <time>2020-06-08T18:37:07Z</time>
      </trkpt>
      <trkpt lat="48.37787" lon="-4.59845">
        <ele>77.1</ele>
        <time>2020-06-08T18:37:08Z</time>
      </trkpt>
      <trkpt lat="48.37792" lon="-4.59852">
        <ele>77</ele>
        <time>2020-06-08T18:37:09Z</time>
      </trkpt>
      <trkpt lat="48.37796" lon="-4.59859">
        <ele>76.9</ele>
        <time>2020-06-08T18:37:10Z</time>
      </trkpt>
      <trkpt lat="48.378" lon="-4.59867">
        <ele>76.9</ele>
        <time>2020-06-08T18:37:11Z</time>
      </trkpt>
      <trkpt lat="48.37805" lon="-4.59874">
        <ele>76.8</ele>
        <time>2020-06-08T18:37:12Z</time>
      </trkpt>
      <trkpt lat="48.3781" lon="-4.59882">
        <ele>76.7</ele>
        <time>2020-06-08T18:37:13Z</time>
      </trkpt>
      <trkpt lat="48.37815" lon="-4.59888">
        <ele>76.7</ele>
        <time>2020-06-08T18:37:14Z</time>
      </trkpt>
      <trkpt lat="48.37821" lon="-4.59895">
        <ele>76.6</ele>
        <time>2020-06-08T18:37:15Z</time>
      </trkpt>
      <trkpt lat="48.37826" lon="-4.599">
        <ele>76.6</ele>
        <time>2020-06-08T18:37:16Z</time>
      </trkpt>
      <trkpt lat="48.37832" lon="-4.59907">
        <ele>76.6</ele>
        <time>2020-06-08T18:37:17Z</time>
      </trkpt>
      <trkpt lat="48.37838" lon="-4.59912">
        <ele>76.5</ele>
        <time>2020-06-08T18:37:18Z</time>
      </trkpt>
      <trkpt lat="48.37844" lon="-4.59917">
        <ele>76.5</ele>
        <time>2020-06-08T18:37:19Z</time>
      </trkpt>
      <trkpt lat="48.3785" lon="-4.59921">
        <ele>76.4</ele>
        <time>2020-06-08T18:37:20Z</time>
      </trkpt>
      <trkpt lat="48.37855" lon="-4.59927">
        <ele>76.4</ele>
        <time>2020-06-08T18:37:21Z</time>
      </trkpt>
      <trkpt lat="48.3786" lon="-4.59933">
        <ele>76.3</ele>
        <time>2020-06-08T18:37:22Z</time>
      </trkpt>
      <trkpt lat="48.37865" lon="-4.59938">
        <ele>76.3</ele>
        <time>2020-06-08T18:37:23Z</time>
      </trkpt>
      <trkpt lat="48.3787" lon="-4.59943">
        <ele>76.3</ele>
        <time>2020-06-08T18:37:24Z</time>
      </trkpt>
      <trkpt lat="48.37875" lon="-4.59947">
        <ele>76.2</ele>
        <time>2020-06-08T18:37:25Z</time>
      </trkpt>
      <trkpt lat="48.37878" lon="-4.59953">
        <ele>76.2</ele>
        <time>2020-06-08T18:37:26Z</time>
      </trkpt>
      <trkpt lat="48.37878" lon="-4.59958">
        <ele>76.2</ele>
        <time>2020-06-08T18:37:27Z</time>
      </trkpt>
      <trkpt lat="48.37879" lon="-4.59962">
        <ele>76.2</ele>
        <time>2020-06-08T18:37:28Z</time>
      </trkpt>
      <trkpt lat="48.37882" lon="-4.59966">
        <ele>76.2</ele>
        <time>2020-06-08T18:37:29Z</time>
      </trkpt>
      <trkpt lat="48.37882" lon="-4.59967">
        <ele>76.2</ele>
        <time>2020-06-08T18:37:30Z</time>
      </trkpt>
      <trkpt lat="48.37882" lon="-4.59971">
        <ele>75.9</ele>
        <time>2020-06-08T18:37:31Z</time>
      </trkpt>
      <trkpt lat="48.37879" lon="-4.59974">
        <ele>75.7</ele>
        <time>2020-06-08T18:37:32Z</time>
      </trkpt>
      <trkpt lat="48.37875" lon="-4.59976">
        <ele>75.5</ele>
        <time>2020-06-08T18:37:33Z</time>
      </trkpt>
      <trkpt lat="48.37871" lon="-4.59979">
        <ele>75.3</ele>
        <time>2020-06-08T18:37:34Z</time>
      </trkpt>
      <trkpt lat="48.37867" lon="-4.59981">
        <ele>75</ele>
        <time>2020-06-08T18:37:35Z</time>
      </trkpt>
      <trkpt lat="48.37862" lon="-4.59985">
        <ele>74.7</ele>
        <time>2020-06-08T18:37:36Z</time>
      </trkpt>
      <trkpt lat="48.37858" lon="-4.59989">
        <ele>74.5</ele>
        <time>2020-06-08T18:37:37Z</time>
      </trkpt>
      <trkpt lat="48.37854" lon="-4.59996">
        <ele>74.5</ele>
        <time>2020-06-08T18:37:38Z</time>
      </trkpt>
      <trkpt lat="48.37851" lon="-4.60002">
        <ele>74.4</ele>
        <time>2020-06-08T18:37:39Z</time>
      </trkpt>
      <trkpt lat="48.37852" lon="-4.6001">
        <ele>74.4</ele>
        <time>2020-06-08T18:37:40Z</time>
      </trkpt>
      <trkpt lat="48.37853" lon="-4.60018">
        <ele>74.4</ele>
        <time>2020-06-08T18:37:41Z</time>
      </trkpt>
      <trkpt lat="48.37852" lon="-4.60026">
        <ele>74.4</ele>
        <time>2020-06-08T18:37:42Z</time>
      </trkpt>
      <trkpt lat="48.3785" lon="-4.60034">
        <ele>73.6</ele>
        <time>2020-06-08T18:37:43Z</time>
      </trkpt>
      <trkpt lat="48.37847" lon="-4.60042">
        <ele>73.4</ele>
        <time>2020-06-08T18:37:44Z</time>
      </trkpt>
      <trkpt lat="48.37844" lon="-4.60051">
        <ele>73.1</ele>
        <time>2020-06-08T18:37:45Z</time>
      </trkpt>
      <trkpt lat="48.37842" lon="-4.6006">
        <ele>72.8</ele>
        <time>2020-06-08T18:37:46Z</time>
      </trkpt>
      <trkpt lat="48.37841" lon="-4.6007">
        <ele>72.5</ele>
        <time>2020-06-08T18:37:47Z</time>
      </trkpt>
      <trkpt lat="48.37842" lon="-4.60081">
        <ele>72.2</ele>
        <time>2020-06-08T18:37:48Z</time>
      </trkpt>
      <trkpt lat="48.37844" lon="-4.60092">
        <ele>71.8</ele>
        <time>2020-06-08T18:37:49Z</time>
      </trkpt>
      <trkpt lat="48.37846" lon="-4.60103">
        <ele>71.4</ele>
        <time>2020-06-08T18:37:50Z</time>
      </trkpt>
      <trkpt lat="48.37848" lon="-4.60114">
        <ele>71.1</ele>
        <time>2020-06-08T18:37:51Z</time>
      </trkpt>
      <trkpt lat="48.3785" lon="-4.60126">
        <ele>70.7</ele>
        <time>2020-06-08T18:37:52Z</time>
      </trkpt>
      <trkpt lat="48.37851" lon="-4.60137">
        <ele>70.4</ele>
        <time>2020-06-08T18:37:53Z</time>
      </trkpt>
      <trkpt lat="48.37853" lon="-4.60149">
        <ele>70</ele>
        <time>2020-06-08T18:37:54Z</time>
      </trkpt>
      <trkpt lat="48.37855" lon="-4.6016">
        <ele>69.6</ele>
        <time>2020-06-08T18:37:55Z</time>
      </trkpt>
      <trkpt lat="48.37857" lon="-4.60172">
        <ele>69.3</ele>
        <time>2020-06-08T18:37:56Z</time>
      </trkpt>
      <trkpt lat="48.37859" lon="-4.60184">
        <ele>68.9</ele>
        <time>2020-06-08T18:37:57Z</time>
      </trkpt>
      <trkpt lat="48.3786" lon="-4.60196">
        <ele>68.6</ele>
        <time>2020-06-08T18:37:58Z</time>
      </trkpt>
      <trkpt lat="48.37861" lon="-4.60208">
        <ele>68.3</ele>
        <time>2020-06-08T18:37:59Z</time>
      </trkpt>
      <trkpt lat="48.37863" lon="-4.60221">
        <ele>68.1</ele>
        <time>2020-06-08T18:38:00Z</time>
      </trkpt>
      <trkpt lat="48.37866" lon="-4.60232">
        <ele>67.9</ele>
        <time>2020-06-08T18:38:01Z</time>
      </trkpt>
      <trkpt lat="48.3787" lon="-4.60244">
        <ele>67.7</ele>
        <time>2020-06-08T18:38:02Z</time>
      </trkpt>
      <trkpt lat="48.37873" lon="-4.60256">
        <ele>67.5</ele>
        <time>2020-06-08T18:38:03Z</time>
      </trkpt>
      <trkpt lat="48.37876" lon="-4.60267">
        <ele>67.3</ele>
        <time>2020-06-08T18:38:04Z</time>
      </trkpt>
      <trkpt lat="48.3788" lon="-4.60278">
        <ele>67.2</ele>
        <time>2020-06-08T18:38:05Z</time>
      </trkpt>
      <trkpt lat="48.37883" lon="-4.60289">
        <ele>67.2</ele>
        <time>2020-06-08T18:38:06Z</time>
      </trkpt>
      <trkpt lat="48.37887" lon="-4.60299">
        <ele>67.2</ele>
        <time>2020-06-08T18:38:07Z</time>
      </trkpt>
      <trkpt lat="48.37891" lon="-4.60309">
        <ele>67.2</ele>
        <time>2020-06-08T18:38:08Z</time>
      </trkpt>
      <trkpt lat="48.37895" lon="-4.60319">
        <ele>67.3</ele>
        <time>2020-06-08T18:38:09Z</time>
      </trkpt>
      <trkpt lat="48.37899" lon="-4.60328">
        <ele>67.3</ele>
        <time>2020-06-08T18:38:10Z</time>
      </trkpt>
      <trkpt lat="48.37902" lon="-4.60338">
        <ele>67.4</ele>
        <time>2020-06-08T18:38:11Z</time>
      </trkpt>
      <trkpt lat="48.37906" lon="-4.60348">
        <ele>67.4</ele>
        <time>2020-06-08T18:38:12Z</time>
      </trkpt>
      <trkpt lat="48.3791" lon="-4.60357">
        <ele>67.4</ele>
        <time>2020-06-08T18:38:13Z</time>
      </trkpt>
      <trkpt lat="48.37914" lon="-4.60365">
        <ele>67.3</ele>
        <time>2020-06-08T18:38:14Z</time>
      </trkpt>
      <trkpt lat="48.37918" lon="-4.60374">
        <ele>67.3</ele>
        <time>2020-06-08T18:38:15Z</time>
      </trkpt>
      <trkpt lat="48.37923" lon="-4.60381">
        <ele>67.4</ele>
        <time>2020-06-08T18:38:16Z</time>
      </trkpt>
      <trkpt lat="48.37928" lon="-4.60389">
        <ele>67.5</ele>
        <time>2020-06-08T18:38:17Z</time>
      </trkpt>
      <trkpt lat="48.37932" lon="-4.60396">
        <ele>67.6</ele>
        <time>2020-06-08T18:38:18Z</time>
      </trkpt>
      <trkpt lat="48.37937" lon="-4.60403">
        <ele>67.7</ele>
        <time>2020-06-08T18:38:19Z</time>
      </trkpt>
      <trkpt lat="48.37942" lon="-4.6041">
        <ele>67.8</ele>
        <time>2020-06-08T18:38:20Z</time>
      </trkpt>
      <trkpt lat="48.37947" lon="-4.60417">
        <ele>67.9</ele>
        <time>2020-06-08T18:38:21Z</time>
      </trkpt>
      <trkpt lat="48.37952" lon="-4.60424">
        <ele>68</ele>
        <time>2020-06-08T18:38:22Z</time>
      </trkpt>
      <trkpt lat="48.37957" lon="-4.6043">
        <ele>68.1</ele>
        <time>2020-06-08T18:38:23Z</time>
      </trkpt>
      <trkpt lat="48.37962" lon="-4.60435">
        <ele>68.2</ele>
        <time>2020-06-08T18:38:24Z</time>
      </trkpt>
      <trkpt lat="48.37967" lon="-4.60442">
        <ele>68.4</ele>
        <time>2020-06-08T18:38:25Z</time>
      </trkpt>
      <trkpt lat="48.37972" lon="-4.60448">
        <ele>68.5</ele>
        <time>2020-06-08T18:38:26Z</time>
      </trkpt>
      <trkpt lat="48.37977" lon="-4.60455">
        <ele>68.5</ele>
        <time>2020-06-08T18:38:27Z</time>
      </trkpt>
      <trkpt lat="48.37982" lon="-4.6046">
        <ele>68.6</ele>
        <time>2020-06-08T18:38:28Z</time>
      </trkpt>
      <trkpt lat="48.37987" lon="-4.60465">
        <ele>68.7</ele>
        <time>2020-06-08T18:38:29Z</time>
      </trkpt>
      <trkpt lat="48.37992" lon="-4.60471">
        <ele>68.8</ele>
        <time>2020-06-08T18:38:30Z</time>
      </trkpt>
      <trkpt lat="48.37996" lon="-4.60478">
        <ele>68.9</ele>
        <time>2020-06-08T18:38:31Z</time>
      </trkpt>
      <trkpt lat="48.38001" lon="-4.60485">
        <ele>68.9</ele>
        <time>2020-06-08T18:38:32Z</time>
      </trkpt>
      <trkpt lat="48.38006" lon="-4.60491">
        <ele>69</ele>
        <time>2020-06-08T18:38:33Z</time>
      </trkpt>
      <trkpt lat="48.38011" lon="-4.60497">
        <ele>69.1</ele>
        <time>2020-06-08T18:38:34Z</time>
      </trkpt>
      <trkpt lat="48.38016" lon="-4.60503">
        <ele>69.2</ele>
        <time>2020-06-08T18:38:35Z</time>
      </trkpt>
      <trkpt lat="48.38021" lon="-4.60508">
        <ele>69.2</ele>
        <time>2020-06-08T18:38:36Z</time>
      </trkpt>
      <trkpt lat="48.38026" lon="-4.60514">
        <ele>69.3</ele>
        <time>2020-06-08T18:38:37Z</time>
      </trkpt>
      <trkpt lat="48.3803" lon="-4.60521">
        <ele>69.4</ele>
        <time>2020-06-08T18:38:38Z</time>
      </trkpt>
      <trkpt lat="48.38035" lon="-4.60527">
        <ele>69.5</ele>
        <time>2020-06-08T18:38:39Z</time>
      </trkpt>
      <trkpt lat="48.3804" lon="-4.60532">
        <ele>69.6</ele>
        <time>2020-06-08T18:38:40Z</time>
      </trkpt>
      <trkpt lat="48.38045" lon="-4.60538">
        <ele>69.7</ele>
        <time>2020-06-08T18:38:41Z</time>
      </trkpt>
      <trkpt lat="48.3805" lon="-4.60544">
        <ele>69.8</ele>
        <time>2020-06-08T18:38:42Z</time>
      </trkpt>
      <trkpt lat="48.38055" lon="-4.6055">
        <ele>69.9</ele>
        <time>2020-06-08T18:38:43Z</time>
      </trkpt>
      <trkpt lat="48.38059" lon="-4.60557">
        <ele>70</ele>
        <time>2020-06-08T18:38:44Z</time>
      </trkpt>
      <trkpt lat="48.38064" lon="-4.60563">
        <ele>70.2</ele>
        <time>2020-06-08T18:38:45Z</time>
      </trkpt>
      <trkpt lat="48.38068" lon="-4.6057">
        <ele>70.3</ele>
        <time>2020-06-08T18:38:46Z</time>
      </trkpt>
      <trkpt lat="48.38073" lon="-4.60576">
        <ele>70.5</ele>
        <time>2020-06-08T18:38:47Z</time>
      </trkpt>
      <trkpt lat="48.38078" lon="-4.60582">
        <ele>70.6</ele>
        <time>2020-06-08T18:38:48Z</time>
      </trkpt>
      <trkpt lat="48.38082" lon="-4.60587">
        <ele>70.8</ele>
        <time>2020-06-08T18:38:49Z</time>
      </trkpt>
      <trkpt lat="48.38086" lon="-4.60594">
        <ele>70.9</ele>
        <time>2020-06-08T18:38:50Z</time>
      </trkpt>
      <trkpt lat="48.38091" lon="-4.606">
        <ele>71.1</ele>
        <time>2020-06-08T18:38:51Z</time>
      </trkpt>
      <trkpt lat="48.38094" lon="-4.60606">
        <ele>71.2</ele>
        <time>2020-06-08T18:38:52Z</time>
      </trkpt>
      <trkpt lat="48.38098" lon="-4.60612">
        <ele>71.3</ele>
        <time>2020-06-08T18:38:53Z</time>
      </trkpt>
      <trkpt lat="48.38102" lon="-4.60618">
        <ele>71.5</ele>
        <time>2020-06-08T18:38:54Z</time>
      </trkpt>
      <trkpt lat="48.38105" lon="-4.60625">
        <ele>71.6</ele>
        <time>2020-06-08T18:38:55Z</time>
      </trkpt>
      <trkpt lat="48.38108" lon="-4.6063">
        <ele>71.7</ele>
        <time>2020-06-08T18:38:56Z</time>
      </trkpt>
      <trkpt lat="48.38111" lon="-4.60636">
        <ele>71.7</ele>
        <time>2020-06-08T18:38:57Z</time>
      </trkpt>
      <trkpt lat="48.38115" lon="-4.60639">
        <ele>71.7</ele>
        <time>2020-06-08T18:38:58Z</time>
      </trkpt>
      <trkpt lat="48.38118" lon="-4.60645">
        <ele>71.8</ele>
        <time>2020-06-08T18:38:59Z</time>
      </trkpt>
      <trkpt lat="48.3812" lon="-4.6065">
        <ele>71.8</ele>
        <time>2020-06-08T18:39:00Z</time>
      </trkpt>
      <trkpt lat="48.38123" lon="-4.60655">
        <ele>71.8</ele>
        <time>2020-06-08T18:39:01Z</time>
      </trkpt>
      <trkpt lat="48.38126" lon="-4.60661">
        <ele>71.8</ele>
        <time>2020-06-08T18:39:02Z</time>
      </trkpt>
      <trkpt lat="48.38129" lon="-4.60665">
        <ele>71.8</ele>
        <time>2020-06-08T18:39:03Z</time>
      </trkpt>
      <trkpt lat="48.38132" lon="-4.60672">
        <ele>71.8</ele>
        <time>2020-06-08T18:39:04Z</time>
      </trkpt>
      <trkpt lat="48.38134" lon="-4.60677">
        <ele>71.8</ele>
        <time>2020-06-08T18:39:05Z</time>
      </trkpt>
      <trkpt lat="48.38136" lon="-4.60683">
        <ele>71.9</ele>
        <time>2020-06-08T18:39:06Z</time>
      </trkpt>
      <trkpt lat="48.38137" lon="-4.60687">
        <ele>71.9</ele>
        <time>2020-06-08T18:39:07Z</time>
      </trkpt>
      <trkpt lat="48.38139" lon="-4.60692">
        <ele>71.9</ele>
        <time>2020-06-08T18:39:08Z</time>
      </trkpt>
      <trkpt lat="48.38142" lon="-4.60698">
        <ele>71.9</ele>
        <time>2020-06-08T18:39:09Z</time>
      </trkpt>
      <trkpt lat="48.38143" lon="-4.60703">
        <ele>71.9</ele>
        <time>2020-06-08T18:39:10Z</time>
      </trkpt>
      <trkpt lat="48.38146" lon="-4.6071">
        <ele>71.9</ele>
        <time>2020-06-08T18:39:11Z</time>
      </trkpt>
      <trkpt lat="48.38146" lon="-4.60715">
        <ele>71.9</ele>
        <time>2020-06-08T18:39:12Z</time>
      </trkpt>
      <trkpt lat="48.38148" lon="-4.60721">
        <ele>71.9</ele>
        <time>2020-06-08T18:39:13Z</time>
      </trkpt>
      <trkpt lat="48.3815" lon="-4.60729">
        <ele>71.8</ele>
        <time>2020-06-08T18:39:14Z</time>
      </trkpt>
      <trkpt lat="48.3815" lon="-4.60733">
        <ele>71.8</ele>
        <time>2020-06-08T18:39:15Z</time>
      </trkpt>
      <trkpt lat="48.38152" lon="-4.6074">
        <ele>71.8</ele>
        <time>2020-06-08T18:39:16Z</time>
      </trkpt>
      <trkpt lat="48.38154" lon="-4.60747">
        <ele>71.7</ele>
        <time>2020-06-08T18:39:17Z</time>
      </trkpt>
      <trkpt lat="48.38156" lon="-4.60753">
        <ele>71.7</ele>
        <time>2020-06-08T18:39:18Z</time>
      </trkpt>
      <trkpt lat="48.38158" lon="-4.6076">
        <ele>71.6</ele>
        <time>2020-06-08T18:39:19Z</time>
      </trkpt>
      <trkpt lat="48.3816" lon="-4.60767">
        <ele>71.6</ele>
        <time>2020-06-08T18:39:20Z</time>
      </trkpt>
      <trkpt lat="48.38162" lon="-4.60774">
        <ele>71.5</ele>
        <time>2020-06-08T18:39:21Z</time>
      </trkpt>
      <trkpt lat="48.38163" lon="-4.60782">
        <ele>71.5</ele>
        <time>2020-06-08T18:39:22Z</time>
      </trkpt>
      <trkpt lat="48.38165" lon="-4.60787">
        <ele>71.5</ele>
        <time>2020-06-08T18:39:23Z</time>
      </trkpt>
      <trkpt lat="48.38166" lon="-4.60793">
        <ele>71.5</ele>
        <time>2020-06-08T18:39:24Z</time>
      </trkpt>
      <trkpt lat="48.38167" lon="-4.608">
        <ele>71.5</ele>
        <time>2020-06-08T18:39:25Z</time>
      </trkpt>
      <trkpt lat="48.38169" lon="-4.60807">
        <ele>71.5</ele>
        <time>2020-06-08T18:39:26Z</time>
      </trkpt>
      <trkpt lat="48.3817" lon="-4.60813">
        <ele>71.5</ele>
        <time>2020-06-08T18:39:27Z</time>
      </trkpt>
      <trkpt lat="48.38171" lon="-4.60822">
        <ele>71.5</ele>
        <time>2020-06-08T18:39:28Z</time>
      </trkpt>
      <trkpt lat="48.38172" lon="-4.60829">
        <ele>71.5</ele>
        <time>2020-06-08T18:39:29Z</time>
      </trkpt>
      <trkpt lat="48.38173" lon="-4.60837">
        <ele>71.5</ele>
        <time>2020-06-08T18:39:30Z</time>
      </trkpt>
      <trkpt lat="48.38174" lon="-4.60841">
        <ele>71.5</ele>
        <time>2020-06-08T18:39:31Z</time>
      </trkpt>
      <trkpt lat="48.38176" lon="-4.60849">
        <ele>71.6</ele>
        <time>2020-06-08T18:39:32Z</time>
      </trkpt>
      <trkpt lat="48.38179" lon="-4.60856">
        <ele>71.6</ele>
        <time>2020-06-08T18:39:33Z</time>
      </trkpt>
      <trkpt lat="48.38179" lon="-4.60863">
        <ele>71.6</ele>
        <time>2020-06-08T18:39:34Z</time>
      </trkpt>
      <trkpt lat="48.38181" lon="-4.60869">
        <ele>71.7</ele>
        <time>2020-06-08T18:39:35Z</time>
      </trkpt>
      <trkpt lat="48.38182" lon="-4.60876">
        <ele>71.7</ele>
        <time>2020-06-08T18:39:36Z</time>
      </trkpt>
      <trkpt lat="48.38184" lon="-4.60883">
        <ele>71.8</ele>
        <time>2020-06-08T18:39:37Z</time>
      </trkpt>
      <trkpt lat="48.38186" lon="-4.60889">
        <ele>71.8</ele>
        <time>2020-06-08T18:39:38Z</time>
      </trkpt>
      <trkpt lat="48.38188" lon="-4.60896">
        <ele>71.9</ele>
        <time>2020-06-08T18:39:39Z</time>
      </trkpt>
      <trkpt lat="48.3819" lon="-4.60901">
        <ele>71.9</ele>
        <time>2020-06-08T18:39:40Z</time>
      </trkpt>
      <trkpt lat="48.38191" lon="-4.60907">
        <ele>72</ele>
        <time>2020-06-08T18:39:41Z</time>
      </trkpt>
      <trkpt lat="48.38192" lon="-4.60912">
        <ele>72.1</ele>
        <time>2020-06-08T18:39:42Z</time>
      </trkpt>
      <trkpt lat="48.38195" lon="-4.60917">
        <ele>72.1</ele>
        <time>2020-06-08T18:39:43Z</time>
      </trkpt>
      <trkpt lat="48.382" lon="-4.60922">
        <ele>72.3</ele>
        <time>2020-06-08T18:39:44Z</time>
      </trkpt>
      <trkpt lat="48.38205" lon="-4.60924">
        <ele>72.4</ele>
        <time>2020-06-08T18:39:45Z</time>
      </trkpt>
      <trkpt lat="48.38208" lon="-4.60927">
        <ele>72.5</ele>
        <time>2020-06-08T18:39:46Z</time>
      </trkpt>
      <trkpt lat="48.38212" lon="-4.60929">
        <ele>72.6</ele>
        <time>2020-06-08T18:39:47Z</time>
      </trkpt>
      <trkpt lat="48.38214" lon="-4.60933">
        <ele>73.9</ele>
        <time>2020-06-08T18:39:48Z</time>
      </trkpt>
      <trkpt lat="48.38216" lon="-4.60937">
        <ele>73.8</ele>
        <time>2020-06-08T18:39:49Z</time>
      </trkpt>
      <trkpt lat="48.38217" lon="-4.60943">
        <ele>73.8</ele>
        <time>2020-06-08T18:39:50Z</time>
      </trkpt>
      <trkpt lat="48.38217" lon="-4.60944">
        <ele>73.8</ele>
        <time>2020-06-08T18:39:51Z</time>
      </trkpt>
      <trkpt lat="48.38217" lon="-4.60946">
        <ele>73.8</ele>
        <time>2020-06-08T18:39:52Z</time>
      </trkpt>
      <trkpt lat="48.38217" lon="-4.60946">
        <ele>73.8</ele>
        <time>2020-06-08T18:39:53Z</time>
      </trkpt>
      <trkpt lat="48.38217" lon="-4.60946">
        <ele>73.8</ele>
        <time>2020-06-08T18:39:54Z</time>
      </trkpt>
      <trkpt lat="48.38217" lon="-4.60946">
        <ele>73.8</ele>
        <time>2020-06-08T18:39:55Z</time>
      </trkpt>
      <trkpt lat="48.38217" lon="-4.60945">
        <ele>73.8</ele>
        <time>2020-06-08T18:39:56Z</time>
      </trkpt>
      <trkpt lat="48.38217" lon="-4.60946">
        <ele>73.8</ele>
        <time>2020-06-08T18:39:57Z</time>
      </trkpt>
      <trkpt lat="48.38217" lon="-4.60947">
        <ele>73.7</ele>
        <time>2020-06-08T18:39:58Z</time>
      </trkpt>
      <trkpt lat="48.38217" lon="-4.60947">
        <ele>73.7</ele>
        <time>2020-06-08T18:39:59Z</time>
      </trkpt>
      <trkpt lat="48.38217" lon="-4.60947">
        <ele>73.7</ele>
        <time>2020-06-08T18:40:00Z</time>
      </trkpt>
      <trkpt lat="48.38218" lon="-4.60948">
        <ele>73.7</ele>
        <time>2020-06-08T18:40:01Z</time>
      </trkpt>
      <trkpt lat="48.38217" lon="-4.60946">
        <ele>73.7</ele>
        <time>2020-06-08T18:40:02Z</time>
      </trkpt>
      <trkpt lat="48.38217" lon="-4.60946">
        <ele>73.7</ele>
        <time>2020-06-08T18:40:03Z</time>
      </trkpt>
      <trkpt lat="48.38217" lon="-4.60947">
        <ele>73.7</ele>
        <time>2020-06-08T18:40:04Z</time>
      </trkpt>
      <trkpt lat="48.38217" lon="-4.60947">
        <ele>73.7</ele>
        <time>2020-06-08T18:40:05Z</time>
      </trkpt>
      <trkpt lat="48.38217" lon="-4.60947">
        <ele>73.7</ele>
        <time>2020-06-08T18:40:06Z</time>
      </trkpt>
      <trkpt lat="48.38217" lon="-4.60945">
        <ele>73.6</ele>
        <time>2020-06-08T18:40:07Z</time>
      </trkpt>
      <trkpt lat="48.38216" lon="-4.60946">
        <ele>73.6</ele>
        <time>2020-06-08T18:40:08Z</time>
      </trkpt>
      <trkpt lat="48.38216" lon="-4.60945">
        <ele>73.6</ele>
        <time>2020-06-08T18:40:09Z</time>
      </trkpt>
      <trkpt lat="48.38216" lon="-4.60945">
        <ele>73.6</ele>
        <time>2020-06-08T18:40:10Z</time>
      </trkpt>
      <trkpt lat="48.38216" lon="-4.60946">
        <ele>73.6</ele>
        <time>2020-06-08T18:40:11Z</time>
      </trkpt>
      <trkpt lat="48.38216" lon="-4.60946">
        <ele>73.6</ele>
        <time>2020-06-08T18:40:12Z</time>
      </trkpt>
      <trkpt lat="48.38216" lon="-4.60946">
        <ele>73.6</ele>
        <time>2020-06-08T18:40:13Z</time>
      </trkpt>
      <trkpt lat="48.38216" lon="-4.60946">
        <ele>73.6</ele>
        <time>2020-06-08T18:40:14Z</time>
      </trkpt>
      <trkpt lat="48.38216" lon="-4.60946">
        <ele>73.6</ele>
        <time>2020-06-08T18:40:15Z</time>
      </trkpt>
      <trkpt lat="48.38215" lon="-4.60952">
        <ele>73.5</ele>
        <time>2020-06-08T18:42:05Z</time>
      </trkpt>
      <trkpt lat="48.38214" lon="-4.60954">
        <ele>73.5</ele>
        <time>2020-06-08T18:42:06Z</time>
      </trkpt>
      <trkpt lat="48.38212" lon="-4.60958">
        <ele>73.5</ele>
        <time>2020-06-08T18:42:07Z</time>
      </trkpt>
      <trkpt lat="48.38211" lon="-4.60962">
        <ele>73.4</ele>
        <time>2020-06-08T18:42:08Z</time>
      </trkpt>
      <trkpt lat="48.38209" lon="-4.60966">
        <ele>73.4</ele>
        <time>2020-06-08T18:42:09Z</time>
      </trkpt>
      <trkpt lat="48.38209" lon="-4.60973">
        <ele>73.5</ele>
        <time>2020-06-08T18:42:10Z</time>
      </trkpt>
      <trkpt lat="48.38209" lon="-4.60981">
        <ele>73.5</ele>
        <time>2020-06-08T18:42:11Z</time>
      </trkpt>
      <trkpt lat="48.3821" lon="-4.60987">
        <ele>73.5</ele>
        <time>2020-06-08T18:42:12Z</time>
      </trkpt>
      <trkpt lat="48.38211" lon="-4.60994">
        <ele>73.6</ele>
        <time>2020-06-08T18:42:13Z</time>
      </trkpt>
      <trkpt lat="48.38211" lon="-4.61001">
        <ele>73.6</ele>
        <time>2020-06-08T18:42:14Z</time>
      </trkpt>
      <trkpt lat="48.38213" lon="-4.61008">
        <ele>73.6</ele>
        <time>2020-06-08T18:42:15Z</time>
      </trkpt>
      <trkpt lat="48.38214" lon="-4.61015">
        <ele>73.7</ele>
        <time>2020-06-08T18:42:16Z</time>
      </trkpt>
      <trkpt lat="48.38215" lon="-4.61025">
        <ele>73.8</ele>
        <time>2020-06-08T18:42:17Z</time>
      </trkpt>
      <trkpt lat="48.38216" lon="-4.61031">
        <ele>73.8</ele>
        <time>2020-06-08T18:42:18Z</time>
      </trkpt>
      <trkpt lat="48.38215" lon="-4.6104">
        <ele>73.9</ele>
        <time>2020-06-08T18:42:19Z</time>
      </trkpt>
      <trkpt lat="48.38216" lon="-4.61048">
        <ele>74</ele>
        <time>2020-06-08T18:42:20Z</time>
      </trkpt>
      <trkpt lat="48.38217" lon="-4.61055">
        <ele>74</ele>
        <time>2020-06-08T18:42:21Z</time>
      </trkpt>
      <trkpt lat="48.38217" lon="-4.61063">
        <ele>74.1</ele>
        <time>2020-06-08T18:42:22Z</time>
      </trkpt>
      <trkpt lat="48.38217" lon="-4.61071">
        <ele>74.1</ele>
        <time>2020-06-08T18:42:23Z</time>
      </trkpt>
      <trkpt lat="48.38216" lon="-4.61079">
        <ele>74.2</ele>
        <time>2020-06-08T18:42:24Z</time>
      </trkpt>
      <trkpt lat="48.38214" lon="-4.61087">
        <ele>74.2</ele>
        <time>2020-06-08T18:42:25Z</time>
      </trkpt>
      <trkpt lat="48.38211" lon="-4.61095">
        <ele>74.2</ele>
        <time>2020-06-08T18:42:26Z</time>
      </trkpt>
      <trkpt lat="48.38209" lon="-4.61103">
        <ele>74.2</ele>
        <time>2020-06-08T18:42:27Z</time>
      </trkpt>
      <trkpt lat="48.38208" lon="-4.61112">
        <ele>74.2</ele>
        <time>2020-06-08T18:42:28Z</time>
      </trkpt>
      <trkpt lat="48.38209" lon="-4.61122">
        <ele>74.2</ele>
        <time>2020-06-08T18:42:29Z</time>
      </trkpt>
      <trkpt lat="48.38208" lon="-4.6113">
        <ele>74.2</ele>
        <time>2020-06-08T18:42:30Z</time>
      </trkpt>
      <trkpt lat="48.38207" lon="-4.61139">
        <ele>74.2</ele>
        <time>2020-06-08T18:42:31Z</time>
      </trkpt>
      <trkpt lat="48.38206" lon="-4.61147">
        <ele>74.2</ele>
        <time>2020-06-08T18:42:32Z</time>
      </trkpt>
      <trkpt lat="48.38205" lon="-4.61154">
        <ele>74.2</ele>
        <time>2020-06-08T18:42:33Z</time>
      </trkpt>
      <trkpt lat="48.38204" lon="-4.61163">
        <ele>74.3</ele>
        <time>2020-06-08T18:42:34Z</time>
      </trkpt>
      <trkpt lat="48.38204" lon="-4.61172">
        <ele>74.3</ele>
        <time>2020-06-08T18:42:35Z</time>
      </trkpt>
      <trkpt lat="48.38203" lon="-4.6118">
        <ele>74.3</ele>
        <time>2020-06-08T18:42:36Z</time>
      </trkpt>
      <trkpt lat="48.38204" lon="-4.61188">
        <ele>74.4</ele>
        <time>2020-06-08T18:42:37Z</time>
      </trkpt>
      <trkpt lat="48.38204" lon="-4.61196">
        <ele>74.3</ele>
        <time>2020-06-08T18:42:38Z</time>
      </trkpt>
      <trkpt lat="48.38204" lon="-4.61203">
        <ele>74.3</ele>
        <time>2020-06-08T18:42:39Z</time>
      </trkpt>
      <trkpt lat="48.38202" lon="-4.61209">
        <ele>74.3</ele>
        <time>2020-06-08T18:42:40Z</time>
      </trkpt>
      <trkpt lat="48.382" lon="-4.61215">
        <ele>74.3</ele>
        <time>2020-06-08T18:42:41Z</time>
      </trkpt>
      <trkpt lat="48.38197" lon="-4.61223">
        <ele>74.3</ele>
        <time>2020-06-08T18:42:42Z</time>
      </trkpt>
      <trkpt lat="48.38195" lon="-4.61231">
        <ele>74.4</ele>
        <time>2020-06-08T18:42:43Z</time>
      </trkpt>
      <trkpt lat="48.38193" lon="-4.61239">
        <ele>74.4</ele>
        <time>2020-06-08T18:42:44Z</time>
      </trkpt>
      <trkpt lat="48.38191" lon="-4.61249">
        <ele>74.5</ele>
        <time>2020-06-08T18:42:45Z</time>
      </trkpt>
      <trkpt lat="48.38188" lon="-4.61256">
        <ele>74.5</ele>
        <time>2020-06-08T18:42:46Z</time>
      </trkpt>
      <trkpt lat="48.38187" lon="-4.61265">
        <ele>74.6</ele>
        <time>2020-06-08T18:42:47Z</time>
      </trkpt>
      <trkpt lat="48.38185" lon="-4.61274">
        <ele>74.6</ele>
        <time>2020-06-08T18:42:48Z</time>
      </trkpt>
      <trkpt lat="48.38183" lon="-4.61285">
        <ele>74.7</ele>
        <time>2020-06-08T18:42:49Z</time>
      </trkpt>
      <trkpt lat="48.38182" lon="-4.61295">
        <ele>74.8</ele>
        <time>2020-06-08T18:42:50Z</time>
      </trkpt>
      <trkpt lat="48.38179" lon="-4.61302">
        <ele>74.9</ele>
        <time>2020-06-08T18:42:51Z</time>
      </trkpt>
      <trkpt lat="48.38178" lon="-4.61313">
        <ele>75</ele>
        <time>2020-06-08T18:42:52Z</time>
      </trkpt>
      <trkpt lat="48.38177" lon="-4.6132">
        <ele>75</ele>
        <time>2020-06-08T18:42:53Z</time>
      </trkpt>
      <trkpt lat="48.38175" lon="-4.6133">
        <ele>75.1</ele>
        <time>2020-06-08T18:42:54Z</time>
      </trkpt>
      <trkpt lat="48.38173" lon="-4.61337">
        <ele>75.2</ele>
        <time>2020-06-08T18:42:55Z</time>
      </trkpt>
      <trkpt lat="48.38172" lon="-4.61345">
        <ele>75.3</ele>
        <time>2020-06-08T18:42:56Z</time>
      </trkpt>
      <trkpt lat="48.38171" lon="-4.61353">
        <ele>75.3</ele>
        <time>2020-06-08T18:42:57Z</time>
      </trkpt>
      <trkpt lat="48.3817" lon="-4.61361">
        <ele>75.4</ele>
        <time>2020-06-08T18:42:58Z</time>
      </trkpt>
      <trkpt lat="48.38168" lon="-4.6137">
        <ele>75.5</ele>
        <time>2020-06-08T18:42:59Z</time>
      </trkpt>
      <trkpt lat="48.38167" lon="-4.61374">
        <ele>75.5</ele>
        <time>2020-06-08T18:43:00Z</time>
      </trkpt>
      <trkpt lat="48.38166" lon="-4.61381">
        <ele>75.6</ele>
        <time>2020-06-08T18:43:01Z</time>
      </trkpt>
      <trkpt lat="48.38168" lon="-4.61387">
        <ele>75.6</ele>
        <time>2020-06-08T18:43:02Z</time>
      </trkpt>
      <trkpt lat="48.38169" lon="-4.61394">
        <ele>75.6</ele>
        <time>2020-06-08T18:43:03Z</time>
      </trkpt>
      <trkpt lat="48.38168" lon="-4.614">
        <ele>75.6</ele>
        <time>2020-06-08T18:43:04Z</time>
      </trkpt>
      <trkpt lat="48.38167" lon="-4.61404">
        <ele>75.6</ele>
        <time>2020-06-08T18:43:05Z</time>
      </trkpt>
      <trkpt lat="48.38163" lon="-4.61408">
        <ele>75.6</ele>
        <time>2020-06-08T18:43:06Z</time>
      </trkpt>
      <trkpt lat="48.38161" lon="-4.61414">
        <ele>75.6</ele>
        <time>2020-06-08T18:43:07Z</time>
      </trkpt>
      <trkpt lat="48.3816" lon="-4.61422">
        <ele>75.6</ele>
        <time>2020-06-08T18:43:08Z</time>
      </trkpt>
      <trkpt lat="48.38158" lon="-4.6143">
        <ele>75.6</ele>
        <time>2020-06-08T18:43:09Z</time>
      </trkpt>
      <trkpt lat="48.38156" lon="-4.61436">
        <ele>75.6</ele>
        <time>2020-06-08T18:43:10Z</time>
      </trkpt>
      <trkpt lat="48.38154" lon="-4.61442">
        <ele>75.6</ele>
        <time>2020-06-08T18:43:11Z</time>
      </trkpt>
      <trkpt lat="48.38153" lon="-4.61451">
        <ele>75.6</ele>
        <time>2020-06-08T18:43:12Z</time>
      </trkpt>
      <trkpt lat="48.38151" lon="-4.61459">
        <ele>75.7</ele>
        <time>2020-06-08T18:43:13Z</time>
      </trkpt>
      <trkpt lat="48.3815" lon="-4.61468">
        <ele>75.7</ele>
        <time>2020-06-08T18:43:14Z</time>
      </trkpt>
      <trkpt lat="48.38149" lon="-4.61476">
        <ele>75.8</ele>
        <time>2020-06-08T18:43:15Z</time>
      </trkpt>
      <trkpt lat="48.38149" lon="-4.61484">
        <ele>75.8</ele>
        <time>2020-06-08T18:43:16Z</time>
      </trkpt>
      <trkpt lat="48.38149" lon="-4.61494">
        <ele>75.9</ele>
        <time>2020-06-08T18:43:17Z</time>
      </trkpt>
      <trkpt lat="48.38149" lon="-4.61502">
        <ele>75.9</ele>
        <time>2020-06-08T18:43:18Z</time>
      </trkpt>
      <trkpt lat="48.38149" lon="-4.61511">
        <ele>75.9</ele>
        <time>2020-06-08T18:43:19Z</time>
      </trkpt>
      <trkpt lat="48.38149" lon="-4.61521">
        <ele>76</ele>
        <time>2020-06-08T18:43:20Z</time>
      </trkpt>
      <trkpt lat="48.38149" lon="-4.6153">
        <ele>76</ele>
        <time>2020-06-08T18:43:21Z</time>
      </trkpt>
      <trkpt lat="48.38149" lon="-4.61536">
        <ele>75.9</ele>
        <time>2020-06-08T18:43:22Z</time>
      </trkpt>
      <trkpt lat="48.38149" lon="-4.61544">
        <ele>75.9</ele>
        <time>2020-06-08T18:43:23Z</time>
      </trkpt>
      <trkpt lat="48.3815" lon="-4.61552">
        <ele>75.9</ele>
        <time>2020-06-08T18:43:24Z</time>
      </trkpt>
      <trkpt lat="48.38151" lon="-4.6156">
        <ele>75.9</ele>
        <time>2020-06-08T18:43:25Z</time>
      </trkpt>
      <trkpt lat="48.38152" lon="-4.61568">
        <ele>75.8</ele>
        <time>2020-06-08T18:43:26Z</time>
      </trkpt>
      <trkpt lat="48.38153" lon="-4.61577">
        <ele>75.8</ele>
        <time>2020-06-08T18:43:27Z</time>
      </trkpt>
      <trkpt lat="48.38154" lon="-4.61585">
        <ele>75.8</ele>
        <time>2020-06-08T18:43:28Z</time>
      </trkpt>
      <trkpt lat="48.38157" lon="-4.61593">
        <ele>75.8</ele>
        <time>2020-06-08T18:43:29Z</time>
      </trkpt>
      <trkpt lat="48.3816" lon="-4.616">
        <ele>75.8</ele>
        <time>2020-06-08T18:43:30Z</time>
      </trkpt>
      <trkpt lat="48.38162" lon="-4.61604">
        <ele>75.7</ele>
        <time>2020-06-08T18:43:31Z</time>
      </trkpt>
      <trkpt lat="48.38163" lon="-4.61608">
        <ele>75.7</ele>
        <time>2020-06-08T18:43:32Z</time>
      </trkpt>
      <trkpt lat="48.38163" lon="-4.61613">
        <ele>75.6</ele>
        <time>2020-06-08T18:43:33Z</time>
      </trkpt>
      <trkpt lat="48.38162" lon="-4.61618">
        <ele>75.5</ele>
        <time>2020-06-08T18:43:34Z</time>
      </trkpt>
      <trkpt lat="48.38159" lon="-4.61621">
        <ele>75.3</ele>
        <time>2020-06-08T18:43:35Z</time>
      </trkpt>
      <trkpt lat="48.38156" lon="-4.61628">
        <ele>75.1</ele>
        <time>2020-06-08T18:43:36Z</time>
      </trkpt>
      <trkpt lat="48.38155" lon="-4.61634">
        <ele>74.9</ele>
        <time>2020-06-08T18:43:37Z</time>
      </trkpt>
      <trkpt lat="48.38155" lon="-4.61643">
        <ele>74.7</ele>
        <time>2020-06-08T18:43:38Z</time>
      </trkpt>
      <trkpt lat="48.38157" lon="-4.61652">
        <ele>74.5</ele>
        <time>2020-06-08T18:43:39Z</time>
      </trkpt>
      <trkpt lat="48.38157" lon="-4.6166">
        <ele>74.3</ele>
        <time>2020-06-08T18:43:40Z</time>
      </trkpt>
      <trkpt lat="48.38158" lon="-4.61669">
        <ele>74</ele>
        <time>2020-06-08T18:43:41Z</time>
      </trkpt>
      <trkpt lat="48.38159" lon="-4.61678">
        <ele>73.7</ele>
        <time>2020-06-08T18:43:42Z</time>
      </trkpt>
      <trkpt lat="48.3816" lon="-4.61688">
        <ele>73.5</ele>
        <time>2020-06-08T18:43:43Z</time>
      </trkpt>
      <trkpt lat="48.3816" lon="-4.61697">
        <ele>73.2</ele>
        <time>2020-06-08T18:43:44Z</time>
      </trkpt>
      <trkpt lat="48.38162" lon="-4.61708">
        <ele>72.9</ele>
        <time>2020-06-08T18:43:45Z</time>
      </trkpt>
      <trkpt lat="48.38162" lon="-4.61719">
        <ele>72.6</ele>
        <time>2020-06-08T18:43:46Z</time>
      </trkpt>
      <trkpt lat="48.38162" lon="-4.61729">
        <ele>72.3</ele>
        <time>2020-06-08T18:43:47Z</time>
      </trkpt>
      <trkpt lat="48.38162" lon="-4.6174">
        <ele>71.9</ele>
        <time>2020-06-08T18:43:48Z</time>
      </trkpt>
      <trkpt lat="48.38162" lon="-4.6175">
        <ele>71.4</ele>
        <time>2020-06-08T18:43:49Z</time>
      </trkpt>
      <trkpt lat="48.38163" lon="-4.6176">
        <ele>70.9</ele>
        <time>2020-06-08T18:43:50Z</time>
      </trkpt>
      <trkpt lat="48.38163" lon="-4.61771">
        <ele>70.5</ele>
        <time>2020-06-08T18:43:51Z</time>
      </trkpt>
      <trkpt lat="48.38164" lon="-4.61784">
        <ele>69.9</ele>
        <time>2020-06-08T18:43:52Z</time>
      </trkpt>
      <trkpt lat="48.38164" lon="-4.61795">
        <ele>69.4</ele>
        <time>2020-06-08T18:43:53Z</time>
      </trkpt>
      <trkpt lat="48.38165" lon="-4.61808">
        <ele>68.9</ele>
        <time>2020-06-08T18:43:54Z</time>
      </trkpt>
      <trkpt lat="48.38165" lon="-4.6182">
        <ele>68.5</ele>
        <time>2020-06-08T18:43:55Z</time>
      </trkpt>
      <trkpt lat="48.38165" lon="-4.61832">
        <ele>68.3</ele>
        <time>2020-06-08T18:43:56Z</time>
      </trkpt>
      <trkpt lat="48.38167" lon="-4.61844">
        <ele>68.1</ele>
        <time>2020-06-08T18:43:57Z</time>
      </trkpt>
      <trkpt lat="48.38168" lon="-4.61856">
        <ele>68</ele>
        <time>2020-06-08T18:43:58Z</time>
      </trkpt>
      <trkpt lat="48.38169" lon="-4.61867">
        <ele>67.8</ele>
        <time>2020-06-08T18:43:59Z</time>
      </trkpt>
      <trkpt lat="48.3817" lon="-4.61878">
        <ele>67.8</ele>
        <time>2020-06-08T18:44:00Z</time>
      </trkpt>
      <trkpt lat="48.38171" lon="-4.61889">
        <ele>67.7</ele>
        <time>2020-06-08T18:44:01Z</time>
      </trkpt>
      <trkpt lat="48.38172" lon="-4.619">
        <ele>67.7</ele>
        <time>2020-06-08T18:44:02Z</time>
      </trkpt>
      <trkpt lat="48.38173" lon="-4.61911">
        <ele>67.6</ele>
        <time>2020-06-08T18:44:03Z</time>
      </trkpt>
      <trkpt lat="48.38173" lon="-4.61921">
        <ele>67.6</ele>
        <time>2020-06-08T18:44:04Z</time>
      </trkpt>
      <trkpt lat="48.38172" lon="-4.61932">
        <ele>67.6</ele>
        <time>2020-06-08T18:44:05Z</time>
      </trkpt>
      <trkpt lat="48.38172" lon="-4.61942">
        <ele>67.7</ele>
        <time>2020-06-08T18:44:06Z</time>
      </trkpt>
      <trkpt lat="48.38173" lon="-4.61951">
        <ele>67.7</ele>
        <time>2020-06-08T18:44:07Z</time>
      </trkpt>
      <trkpt lat="48.38172" lon="-4.61961">
        <ele>67.7</ele>
        <time>2020-06-08T18:44:08Z</time>
      </trkpt>
      <trkpt lat="48.38171" lon="-4.61971">
        <ele>67.9</ele>
        <time>2020-06-08T18:44:09Z</time>
      </trkpt>
      <trkpt lat="48.38172" lon="-4.61979">
        <ele>67.9</ele>
        <time>2020-06-08T18:44:10Z</time>
      </trkpt>
      <trkpt lat="48.38172" lon="-4.61988">
        <ele>68</ele>
        <time>2020-06-08T18:44:11Z</time>
      </trkpt>
      <trkpt lat="48.38172" lon="-4.61996">
        <ele>68</ele>
        <time>2020-06-08T18:44:12Z</time>
      </trkpt>
      <trkpt lat="48.38172" lon="-4.62004">
        <ele>68.1</ele>
        <time>2020-06-08T18:44:13Z</time>
      </trkpt>
      <trkpt lat="48.38172" lon="-4.62012">
        <ele>68.1</ele>
        <time>2020-06-08T18:44:14Z</time>
      </trkpt>
      <trkpt lat="48.38172" lon="-4.6202">
        <ele>68.2</ele>
        <time>2020-06-08T18:44:15Z</time>
      </trkpt>
      <trkpt lat="48.38172" lon="-4.62028">
        <ele>68.2</ele>
        <time>2020-06-08T18:44:16Z</time>
      </trkpt>
      <trkpt lat="48.38173" lon="-4.62035">
        <ele>68.3</ele>
        <time>2020-06-08T18:44:17Z</time>
      </trkpt>
      <trkpt lat="48.38173" lon="-4.62041">
        <ele>68.4</ele>
        <time>2020-06-08T18:44:18Z</time>
      </trkpt>
      <trkpt lat="48.38174" lon="-4.62048">
        <ele>68.5</ele>
        <time>2020-06-08T18:44:19Z</time>
      </trkpt>
      <trkpt lat="48.38176" lon="-4.62054">
        <ele>68.7</ele>
        <time>2020-06-08T18:44:20Z</time>
      </trkpt>
      <trkpt lat="48.38177" lon="-4.62059">
        <ele>68.8</ele>
        <time>2020-06-08T18:44:21Z</time>
      </trkpt>
      <trkpt lat="48.38178" lon="-4.62064">
        <ele>68.9</ele>
        <time>2020-06-08T18:44:22Z</time>
      </trkpt>
      <trkpt lat="48.38179" lon="-4.62069">
        <ele>69</ele>
        <time>2020-06-08T18:44:23Z</time>
      </trkpt>
      <trkpt lat="48.38181" lon="-4.62074">
        <ele>69.2</ele>
        <time>2020-06-08T18:44:24Z</time>
      </trkpt>
      <trkpt lat="48.38183" lon="-4.62079">
        <ele>69.3</ele>
        <time>2020-06-08T18:44:25Z</time>
      </trkpt>
      <trkpt lat="48.38185" lon="-4.62084">
        <ele>69.4</ele>
        <time>2020-06-08T18:44:26Z</time>
      </trkpt>
      <trkpt lat="48.38185" lon="-4.62089">
        <ele>69.6</ele>
        <time>2020-06-08T18:44:27Z</time>
      </trkpt>
      <trkpt lat="48.38185" lon="-4.62091">
        <ele>69.6</ele>
        <time>2020-06-08T18:44:28Z</time>
      </trkpt>
      <trkpt lat="48.38186" lon="-4.62095">
        <ele>69.7</ele>
        <time>2020-06-08T18:44:29Z</time>
      </trkpt>
      <trkpt lat="48.38188" lon="-4.621">
        <ele>69.9</ele>
        <time>2020-06-08T18:44:30Z</time>
      </trkpt>
      <trkpt lat="48.3819" lon="-4.62103">
        <ele>70</ele>
        <time>2020-06-08T18:44:31Z</time>
      </trkpt>
      <trkpt lat="48.38192" lon="-4.62107">
        <ele>70.2</ele>
        <time>2020-06-08T18:44:32Z</time>
      </trkpt>
      <trkpt lat="48.38194" lon="-4.6211">
        <ele>70.3</ele>
        <time>2020-06-08T18:44:33Z</time>
      </trkpt>
      <trkpt lat="48.38197" lon="-4.62113">
        <ele>70.5</ele>
        <time>2020-06-08T18:44:34Z</time>
      </trkpt>
      <trkpt lat="48.382" lon="-4.62112">
        <ele>70.6</ele>
        <time>2020-06-08T18:44:35Z</time>
      </trkpt>
      <trkpt lat="48.38203" lon="-4.62113">
        <ele>70.8</ele>
        <time>2020-06-08T18:44:36Z</time>
      </trkpt>
      <trkpt lat="48.38206" lon="-4.62116">
        <ele>70.9</ele>
        <time>2020-06-08T18:44:37Z</time>
      </trkpt>
      <trkpt lat="48.38209" lon="-4.62119">
        <ele>71.1</ele>
        <time>2020-06-08T18:44:38Z</time>
      </trkpt>
      <trkpt lat="48.38212" lon="-4.62123">
        <ele>71.2</ele>
        <time>2020-06-08T18:44:39Z</time>
      </trkpt>
      <trkpt lat="48.38214" lon="-4.62127">
        <ele>71.4</ele>
        <time>2020-06-08T18:44:40Z</time>
      </trkpt>
      <trkpt lat="48.38216" lon="-4.62132">
        <ele>71.6</ele>
        <time>2020-06-08T18:44:41Z</time>
      </trkpt>
      <trkpt lat="48.38219" lon="-4.62137">
        <ele>71.7</ele>
        <time>2020-06-08T18:44:42Z</time>
      </trkpt>
      <trkpt lat="48.38223" lon="-4.62142">
        <ele>71.8</ele>
        <time>2020-06-08T18:44:43Z</time>
      </trkpt>
      <trkpt lat="48.38226" lon="-4.62147">
        <ele>72</ele>
        <time>2020-06-08T18:44:44Z</time>
      </trkpt>
      <trkpt lat="48.38228" lon="-4.62153">
        <ele>72</ele>
        <time>2020-06-08T18:44:45Z</time>
      </trkpt>
      <trkpt lat="48.3823" lon="-4.62159">
        <ele>72.1</ele>
        <time>2020-06-08T18:44:46Z</time>
      </trkpt>
      <trkpt lat="48.38232" lon="-4.62164">
        <ele>72.1</ele>
        <time>2020-06-08T18:44:47Z</time>
      </trkpt>
      <trkpt lat="48.38234" lon="-4.6217">
        <ele>72.2</ele>
        <time>2020-06-08T18:44:48Z</time>
      </trkpt>
      <trkpt lat="48.38236" lon="-4.62176">
        <ele>72.4</ele>
        <time>2020-06-08T18:44:49Z</time>
      </trkpt>
      <trkpt lat="48.38238" lon="-4.62182">
        <ele>72.5</ele>
        <time>2020-06-08T18:44:50Z</time>
      </trkpt>
      <trkpt lat="48.3824" lon="-4.62187">
        <ele>72.6</ele>
        <time>2020-06-08T18:44:51Z</time>
      </trkpt>
      <trkpt lat="48.38242" lon="-4.62191">
        <ele>72.7</ele>
        <time>2020-06-08T18:44:52Z</time>
      </trkpt>
      <trkpt lat="48.38243" lon="-4.62196">
        <ele>72.9</ele>
        <time>2020-06-08T18:44:53Z</time>
      </trkpt>
      <trkpt lat="48.38246" lon="-4.622">
        <ele>72.9</ele>
        <time>2020-06-08T18:44:54Z</time>
      </trkpt>
      <trkpt lat="48.38248" lon="-4.62205">
        <ele>72.8</ele>
        <time>2020-06-08T18:44:55Z</time>
      </trkpt>
      <trkpt lat="48.3825" lon="-4.62211">
        <ele>72.8</ele>
        <time>2020-06-08T18:44:56Z</time>
      </trkpt>
      <trkpt lat="48.38253" lon="-4.62217">
        <ele>72.7</ele>
        <time>2020-06-08T18:44:57Z</time>
      </trkpt>
      <trkpt lat="48.38256" lon="-4.62224">
        <ele>72.6</ele>
        <time>2020-06-08T18:44:58Z</time>
      </trkpt>
      <trkpt lat="48.3826" lon="-4.62228">
        <ele>72.6</ele>
        <time>2020-06-08T18:44:59Z</time>
      </trkpt>
      <trkpt lat="48.38263" lon="-4.62235">
        <ele>72.5</ele>
        <time>2020-06-08T18:45:00Z</time>
      </trkpt>
      <trkpt lat="48.38268" lon="-4.6224">
        <ele>72.5</ele>
        <time>2020-06-08T18:45:01Z</time>
      </trkpt>
      <trkpt lat="48.38272" lon="-4.62246">
        <ele>72.4</ele>
        <time>2020-06-08T18:45:02Z</time>
      </trkpt>
      <trkpt lat="48.38276" lon="-4.62252">
        <ele>72.3</ele>
        <time>2020-06-08T18:45:03Z</time>
      </trkpt>
      <trkpt lat="48.38281" lon="-4.62258">
        <ele>72.2</ele>
        <time>2020-06-08T18:45:04Z</time>
      </trkpt>
      <trkpt lat="48.38284" lon="-4.62265">
        <ele>72.1</ele>
        <time>2020-06-08T18:45:05Z</time>
      </trkpt>
      <trkpt lat="48.38289" lon="-4.62272">
        <ele>72</ele>
        <time>2020-06-08T18:45:06Z</time>
      </trkpt>
      <trkpt lat="48.38294" lon="-4.62276">
        <ele>72</ele>
        <time>2020-06-08T18:45:07Z</time>
      </trkpt>
      <trkpt lat="48.383" lon="-4.62281">
        <ele>71.9</ele>
        <time>2020-06-08T18:45:08Z</time>
      </trkpt>
      <trkpt lat="48.38305" lon="-4.62286">
        <ele>71.8</ele>
        <time>2020-06-08T18:45:09Z</time>
      </trkpt>
      <trkpt lat="48.3831" lon="-4.62292">
        <ele>71.7</ele>
        <time>2020-06-08T18:45:10Z</time>
      </trkpt>
      <trkpt lat="48.38316" lon="-4.62298">
        <ele>71.6</ele>
        <time>2020-06-08T18:45:11Z</time>
      </trkpt>
      <trkpt lat="48.38322" lon="-4.62302">
        <ele>71.5</ele>
        <time>2020-06-08T18:45:12Z</time>
      </trkpt>
      <trkpt lat="48.38328" lon="-4.62306">
        <ele>71.4</ele>
        <time>2020-06-08T18:45:13Z</time>
      </trkpt>
      <trkpt lat="48.38334" lon="-4.62309">
        <ele>71.2</ele>
        <time>2020-06-08T18:45:14Z</time>
      </trkpt>
      <trkpt lat="48.38339" lon="-4.62312">
        <ele>71.1</ele>
        <time>2020-06-08T18:45:15Z</time>
      </trkpt>
      <trkpt lat="48.38344" lon="-4.62316">
        <ele>70.9</ele>
        <time>2020-06-08T18:45:16Z</time>
      </trkpt>
      <trkpt lat="48.3835" lon="-4.62319">
        <ele>70.6</ele>
        <time>2020-06-08T18:45:17Z</time>
      </trkpt>
      <trkpt lat="48.38356" lon="-4.62323">
        <ele>70.3</ele>
        <time>2020-06-08T18:45:18Z</time>
      </trkpt>
      <trkpt lat="48.38362" lon="-4.62326">
        <ele>69.8</ele>
        <time>2020-06-08T18:45:19Z</time>
      </trkpt>
      <trkpt lat="48.38369" lon="-4.62331">
        <ele>69.3</ele>
        <time>2020-06-08T18:45:20Z</time>
      </trkpt>
      <trkpt lat="48.38375" lon="-4.62337">
        <ele>68.6</ele>
        <time>2020-06-08T18:45:21Z</time>
      </trkpt>
      <trkpt lat="48.38383" lon="-4.62342">
        <ele>67.9</ele>
        <time>2020-06-08T18:45:22Z</time>
      </trkpt>
      <trkpt lat="48.3839" lon="-4.62348">
        <ele>67.1</ele>
        <time>2020-06-08T18:45:23Z</time>
      </trkpt>
      <trkpt lat="48.38399" lon="-4.62353">
        <ele>66.1</ele>
        <time>2020-06-08T18:45:24Z</time>
      </trkpt>
      <trkpt lat="48.38408" lon="-4.6236">
        <ele>65.2</ele>
        <time>2020-06-08T18:45:25Z</time>
      </trkpt>
      <trkpt lat="48.38417" lon="-4.62368">
        <ele>64.4</ele>
        <time>2020-06-08T18:45:26Z</time>
      </trkpt>
      <trkpt lat="48.38426" lon="-4.62377">
        <ele>63.7</ele>
        <time>2020-06-08T18:45:27Z</time>
      </trkpt>
      <trkpt lat="48.38434" lon="-4.62387">
        <ele>63</ele>
        <time>2020-06-08T18:45:28Z</time>
      </trkpt>
      <trkpt lat="48.38442" lon="-4.62398">
        <ele>62.5</ele>
        <time>2020-06-08T18:45:29Z</time>
      </trkpt>
      <trkpt lat="48.3845" lon="-4.62409">
        <ele>62.1</ele>
        <time>2020-06-08T18:45:30Z</time>
      </trkpt>
      <trkpt lat="48.38457" lon="-4.6242">
        <ele>61.7</ele>
        <time>2020-06-08T18:45:31Z</time>
      </trkpt>
      <trkpt lat="48.38466" lon="-4.62428">
        <ele>61.5</ele>
        <time>2020-06-08T18:45:32Z</time>
      </trkpt>
      <trkpt lat="48.38473" lon="-4.62438">
        <ele>61.4</ele>
        <time>2020-06-08T18:45:33Z</time>
      </trkpt>
      <trkpt lat="48.3848" lon="-4.62448">
        <ele>61.4</ele>
        <time>2020-06-08T18:45:34Z</time>
      </trkpt>
      <trkpt lat="48.38487" lon="-4.62458">
        <ele>61.5</ele>
        <time>2020-06-08T18:45:35Z</time>
      </trkpt>
      <trkpt lat="48.38493" lon="-4.62468">
        <ele>61.6</ele>
        <time>2020-06-08T18:45:36Z</time>
      </trkpt>
      <trkpt lat="48.385" lon="-4.62476">
        <ele>61.7</ele>
        <time>2020-06-08T18:45:37Z</time>
      </trkpt>
      <trkpt lat="48.38507" lon="-4.62485">
        <ele>61.7</ele>
        <time>2020-06-08T18:45:38Z</time>
      </trkpt>
      <trkpt lat="48.38513" lon="-4.62492">
        <ele>61.7</ele>
        <time>2020-06-08T18:45:39Z</time>
      </trkpt>
      <trkpt lat="48.3852" lon="-4.625">
        <ele>61.6</ele>
        <time>2020-06-08T18:45:40Z</time>
      </trkpt>
      <trkpt lat="48.38526" lon="-4.62508">
        <ele>61.6</ele>
        <time>2020-06-08T18:45:41Z</time>
      </trkpt>
      <trkpt lat="48.38532" lon="-4.62516">
        <ele>61.4</ele>
        <time>2020-06-08T18:45:42Z</time>
      </trkpt>
      <trkpt lat="48.38538" lon="-4.62524">
        <ele>61.3</ele>
        <time>2020-06-08T18:45:43Z</time>
      </trkpt>
      <trkpt lat="48.38543" lon="-4.62533">
        <ele>61.2</ele>
        <time>2020-06-08T18:45:44Z</time>
      </trkpt>
      <trkpt lat="48.38548" lon="-4.62542">
        <ele>61</ele>
        <time>2020-06-08T18:45:45Z</time>
      </trkpt>
      <trkpt lat="48.38554" lon="-4.62552">
        <ele>60.8</ele>
        <time>2020-06-08T18:45:46Z</time>
      </trkpt>
      <trkpt lat="48.38558" lon="-4.62562">
        <ele>60.5</ele>
        <time>2020-06-08T18:45:47Z</time>
      </trkpt>
      <trkpt lat="48.38563" lon="-4.62573">
        <ele>60.2</ele>
        <time>2020-06-08T18:45:48Z</time>
      </trkpt>
      <trkpt lat="48.38567" lon="-4.62584">
        <ele>59.9</ele>
        <time>2020-06-08T18:45:49Z</time>
      </trkpt>
      <trkpt lat="48.38571" lon="-4.62596">
        <ele>59.5</ele>
        <time>2020-06-08T18:45:50Z</time>
      </trkpt>
      <trkpt lat="48.38576" lon="-4.62608">
        <ele>59.1</ele>
        <time>2020-06-08T18:45:51Z</time>
      </trkpt>
      <trkpt lat="48.3858" lon="-4.62619">
        <ele>58.7</ele>
        <time>2020-06-08T18:45:52Z</time>
      </trkpt>
      <trkpt lat="48.38585" lon="-4.62631">
        <ele>58.3</ele>
        <time>2020-06-08T18:45:53Z</time>
      </trkpt>
      <trkpt lat="48.38589" lon="-4.62643">
        <ele>57.8</ele>
        <time>2020-06-08T18:45:54Z</time>
      </trkpt>
      <trkpt lat="48.38594" lon="-4.62655">
        <ele>57.3</ele>
        <time>2020-06-08T18:45:55Z</time>
      </trkpt>
      <trkpt lat="48.38599" lon="-4.62666">
        <ele>56.8</ele>
        <time>2020-06-08T18:45:56Z</time>
      </trkpt>
      <trkpt lat="48.38604" lon="-4.62678">
        <ele>56.3</ele>
        <time>2020-06-08T18:45:57Z</time>
      </trkpt>
      <trkpt lat="48.38609" lon="-4.6269">
        <ele>55.7</ele>
        <time>2020-06-08T18:45:58Z</time>
      </trkpt>
      <trkpt lat="48.38614" lon="-4.62702">
        <ele>55.2</ele>
        <time>2020-06-08T18:45:59Z</time>
      </trkpt>
      <trkpt lat="48.38619" lon="-4.62714">
        <ele>54.6</ele>
        <time>2020-06-08T18:46:00Z</time>
      </trkpt>
      <trkpt lat="48.38625" lon="-4.62725">
        <ele>54</ele>
        <time>2020-06-08T18:46:01Z</time>
      </trkpt>
      <trkpt lat="48.38631" lon="-4.62735">
        <ele>53.4</ele>
        <time>2020-06-08T18:46:02Z</time>
      </trkpt>
      <trkpt lat="48.38638" lon="-4.62745">
        <ele>52.9</ele>
        <time>2020-06-08T18:46:03Z</time>
      </trkpt>
      <trkpt lat="48.38646" lon="-4.62754">
        <ele>52.4</ele>
        <time>2020-06-08T18:46:04Z</time>
      </trkpt>
      <trkpt lat="48.38654" lon="-4.62763">
        <ele>51.9</ele>
        <time>2020-06-08T18:46:05Z</time>
      </trkpt>
      <trkpt lat="48.38663" lon="-4.6277">
        <ele>51.4</ele>
        <time>2020-06-08T18:46:06Z</time>
      </trkpt>
      <trkpt lat="48.38671" lon="-4.62778">
        <ele>51</ele>
        <time>2020-06-08T18:46:07Z</time>
      </trkpt>
      <trkpt lat="48.3868" lon="-4.62786">
        <ele>50.6</ele>
        <time>2020-06-08T18:46:08Z</time>
      </trkpt>
      <trkpt lat="48.38689" lon="-4.62793">
        <ele>50.2</ele>
        <time>2020-06-08T18:46:09Z</time>
      </trkpt>
      <trkpt lat="48.38698" lon="-4.62802">
        <ele>49.9</ele>
        <time>2020-06-08T18:46:10Z</time>
      </trkpt>
      <trkpt lat="48.38706" lon="-4.62812">
        <ele>49.6</ele>
        <time>2020-06-08T18:46:11Z</time>
      </trkpt>
      <trkpt lat="48.38713" lon="-4.62822">
        <ele>49.4</ele>
        <time>2020-06-08T18:46:12Z</time>
      </trkpt>
      <trkpt lat="48.38721" lon="-4.62833">
        <ele>49.1</ele>
        <time>2020-06-08T18:46:13Z</time>
      </trkpt>
      <trkpt lat="48.3873" lon="-4.62842">
        <ele>48.8</ele>
        <time>2020-06-08T18:46:14Z</time>
      </trkpt>
      <trkpt lat="48.38737" lon="-4.62853">
        <ele>48.6</ele>
        <time>2020-06-08T18:46:15Z</time>
      </trkpt>
      <trkpt lat="48.38745" lon="-4.62863">
        <ele>48.5</ele>
        <time>2020-06-08T18:46:16Z</time>
      </trkpt>
      <trkpt lat="48.38753" lon="-4.62873">
        <ele>48.4</ele>
        <time>2020-06-08T18:46:17Z</time>
      </trkpt>
      <trkpt lat="48.3876" lon="-4.62883">
        <ele>48.4</ele>
        <time>2020-06-08T18:46:18Z</time>
      </trkpt>
      <trkpt lat="48.38768" lon="-4.62891">
        <ele>48.4</ele>
        <time>2020-06-08T18:46:19Z</time>
      </trkpt>
      <trkpt lat="48.38775" lon="-4.62901">
        <ele>48.4</ele>
        <time>2020-06-08T18:46:20Z</time>
      </trkpt>
      <trkpt lat="48.38782" lon="-4.6291">
        <ele>48.4</ele>
        <time>2020-06-08T18:46:21Z</time>
      </trkpt>
      <trkpt lat="48.3879" lon="-4.62917">
        <ele>48.6</ele>
        <time>2020-06-08T18:46:22Z</time>
      </trkpt>
      <trkpt lat="48.38797" lon="-4.62926">
        <ele>48.7</ele>
        <time>2020-06-08T18:46:23Z</time>
      </trkpt>
      <trkpt lat="48.38803" lon="-4.62934">
        <ele>48.9</ele>
        <time>2020-06-08T18:46:24Z</time>
      </trkpt>
      <trkpt lat="48.3881" lon="-4.6294">
        <ele>49</ele>
        <time>2020-06-08T18:46:25Z</time>
      </trkpt>
      <trkpt lat="48.38816" lon="-4.62948">
        <ele>49.1</ele>
        <time>2020-06-08T18:46:26Z</time>
      </trkpt>
      <trkpt lat="48.38823" lon="-4.62955">
        <ele>49.2</ele>
        <time>2020-06-08T18:46:27Z</time>
      </trkpt>
      <trkpt lat="48.38829" lon="-4.62963">
        <ele>49.3</ele>
        <time>2020-06-08T18:46:28Z</time>
      </trkpt>
      <trkpt lat="48.38835" lon="-4.6297">
        <ele>49.4</ele>
        <time>2020-06-08T18:46:29Z</time>
      </trkpt>
      <trkpt lat="48.3884" lon="-4.62978">
        <ele>49.5</ele>
        <time>2020-06-08T18:46:30Z</time>
      </trkpt>
      <trkpt lat="48.38845" lon="-4.62986">
        <ele>49.5</ele>
        <time>2020-06-08T18:46:31Z</time>
      </trkpt>
      <trkpt lat="48.3885" lon="-4.62994">
        <ele>49.6</ele>
        <time>2020-06-08T18:46:32Z</time>
      </trkpt>
      <trkpt lat="48.38854" lon="-4.63">
        <ele>49.6</ele>
        <time>2020-06-08T18:46:33Z</time>
      </trkpt>
      <trkpt lat="48.38859" lon="-4.63007">
        <ele>49.7</ele>
        <time>2020-06-08T18:46:34Z</time>
      </trkpt>
      <trkpt lat="48.38863" lon="-4.63014">
        <ele>49.6</ele>
        <time>2020-06-08T18:46:35Z</time>
      </trkpt>
      <trkpt lat="48.38866" lon="-4.63021">
        <ele>49.6</ele>
        <time>2020-06-08T18:46:36Z</time>
      </trkpt>
      <trkpt lat="48.38869" lon="-4.63029">
        <ele>49.5</ele>
        <time>2020-06-08T18:46:37Z</time>
      </trkpt>
      <trkpt lat="48.38871" lon="-4.63037">
        <ele>49.5</ele>
        <time>2020-06-08T18:46:38Z</time>
      </trkpt>
      <trkpt lat="48.38873" lon="-4.63045">
        <ele>49.4</ele>
        <time>2020-06-08T18:46:39Z</time>
      </trkpt>
      <trkpt lat="48.38874" lon="-4.63054">
        <ele>49.4</ele>
        <time>2020-06-08T18:46:40Z</time>
      </trkpt>
      <trkpt lat="48.38875" lon="-4.63062">
        <ele>49.3</ele>
        <time>2020-06-08T18:46:41Z</time>
      </trkpt>
      <trkpt lat="48.38875" lon="-4.63071">
        <ele>49.3</ele>
        <time>2020-06-08T18:46:42Z</time>
      </trkpt>
      <trkpt lat="48.38875" lon="-4.6308">
        <ele>49.3</ele>
        <time>2020-06-08T18:46:43Z</time>
      </trkpt>
      <trkpt lat="48.38875" lon="-4.63089">
        <ele>49.1</ele>
        <time>2020-06-08T18:46:44Z</time>
      </trkpt>
      <trkpt lat="48.38874" lon="-4.63099">
        <ele>48.9</ele>
        <time>2020-06-08T18:46:45Z</time>
      </trkpt>
      <trkpt lat="48.38873" lon="-4.63108">
        <ele>48.8</ele>
        <time>2020-06-08T18:46:46Z</time>
      </trkpt>
      <trkpt lat="48.38872" lon="-4.63117">
        <ele>48.6</ele>
        <time>2020-06-08T18:46:47Z</time>
      </trkpt>
      <trkpt lat="48.38872" lon="-4.63127">
        <ele>48.4</ele>
        <time>2020-06-08T18:46:48Z</time>
      </trkpt>
      <trkpt lat="48.38871" lon="-4.63136">
        <ele>48.2</ele>
        <time>2020-06-08T18:46:49Z</time>
      </trkpt>
      <trkpt lat="48.3887" lon="-4.63146">
        <ele>47.9</ele>
        <time>2020-06-08T18:46:50Z</time>
      </trkpt>
      <trkpt lat="48.38869" lon="-4.63155">
        <ele>47.7</ele>
        <time>2020-06-08T18:46:51Z</time>
      </trkpt>
      <trkpt lat="48.38869" lon="-4.63165">
        <ele>47.4</ele>
        <time>2020-06-08T18:46:52Z</time>
      </trkpt>
      <trkpt lat="48.38869" lon="-4.63175">
        <ele>47.2</ele>
        <time>2020-06-08T18:46:53Z</time>
      </trkpt>
      <trkpt lat="48.38868" lon="-4.63185">
        <ele>46.9</ele>
        <time>2020-06-08T18:46:54Z</time>
      </trkpt>
      <trkpt lat="48.38868" lon="-4.63194">
        <ele>46.6</ele>
        <time>2020-06-08T18:46:55Z</time>
      </trkpt>
      <trkpt lat="48.38868" lon="-4.63204">
        <ele>46.4</ele>
        <time>2020-06-08T18:46:56Z</time>
      </trkpt>
      <trkpt lat="48.38868" lon="-4.63214">
        <ele>46.1</ele>
        <time>2020-06-08T18:46:57Z</time>
      </trkpt>
      <trkpt lat="48.38868" lon="-4.63225">
        <ele>45.8</ele>
        <time>2020-06-08T18:46:58Z</time>
      </trkpt>
      <trkpt lat="48.38869" lon="-4.63235">
        <ele>45.4</ele>
        <time>2020-06-08T18:46:59Z</time>
      </trkpt>
      <trkpt lat="48.38869" lon="-4.63246">
        <ele>45</ele>
        <time>2020-06-08T18:47:00Z</time>
      </trkpt>
      <trkpt lat="48.3887" lon="-4.63257">
        <ele>44.7</ele>
        <time>2020-06-08T18:47:01Z</time>
      </trkpt>
      <trkpt lat="48.3887" lon="-4.63268">
        <ele>44.3</ele>
        <time>2020-06-08T18:47:02Z</time>
      </trkpt>
      <trkpt lat="48.3887" lon="-4.6328">
        <ele>43.9</ele>
        <time>2020-06-08T18:47:03Z</time>
      </trkpt>
      <trkpt lat="48.38871" lon="-4.63292">
        <ele>43.6</ele>
        <time>2020-06-08T18:47:04Z</time>
      </trkpt>
      <trkpt lat="48.38872" lon="-4.63305">
        <ele>43.3</ele>
        <time>2020-06-08T18:47:05Z</time>
      </trkpt>
      <trkpt lat="48.38872" lon="-4.63318">
        <ele>43</ele>
        <time>2020-06-08T18:47:06Z</time>
      </trkpt>
      <trkpt lat="48.38872" lon="-4.63331">
        <ele>42.8</ele>
        <time>2020-06-08T18:47:07Z</time>
      </trkpt>
      <trkpt lat="48.38874" lon="-4.63343">
        <ele>42.7</ele>
        <time>2020-06-08T18:47:08Z</time>
      </trkpt>
      <trkpt lat="48.38875" lon="-4.63357">
        <ele>42.7</ele>
        <time>2020-06-08T18:47:09Z</time>
      </trkpt>
      <trkpt lat="48.38876" lon="-4.6337">
        <ele>42.6</ele>
        <time>2020-06-08T18:47:10Z</time>
      </trkpt>
      <trkpt lat="48.38877" lon="-4.63384">
        <ele>42.4</ele>
        <time>2020-06-08T18:47:11Z</time>
      </trkpt>
      <trkpt lat="48.38878" lon="-4.63397">
        <ele>42.3</ele>
        <time>2020-06-08T18:47:12Z</time>
      </trkpt>
      <trkpt lat="48.3888" lon="-4.6341">
        <ele>42.2</ele>
        <time>2020-06-08T18:47:13Z</time>
      </trkpt>
      <trkpt lat="48.3888" lon="-4.63424">
        <ele>42.1</ele>
        <time>2020-06-08T18:47:14Z</time>
      </trkpt>
      <trkpt lat="48.38881" lon="-4.63437">
        <ele>42</ele>
        <time>2020-06-08T18:47:15Z</time>
      </trkpt>
      <trkpt lat="48.38883" lon="-4.6345">
        <ele>41.9</ele>
        <time>2020-06-08T18:47:16Z</time>
      </trkpt>
      <trkpt lat="48.38884" lon="-4.63463">
        <ele>41.9</ele>
        <time>2020-06-08T18:47:17Z</time>
      </trkpt>
      <trkpt lat="48.38885" lon="-4.63477">
        <ele>41.9</ele>
        <time>2020-06-08T18:47:18Z</time>
      </trkpt>
      <trkpt lat="48.38886" lon="-4.63489">
        <ele>41.9</ele>
        <time>2020-06-08T18:47:19Z</time>
      </trkpt>
      <trkpt lat="48.38887" lon="-4.63501">
        <ele>42</ele>
        <time>2020-06-08T18:47:20Z</time>
      </trkpt>
      <trkpt lat="48.38888" lon="-4.63512">
        <ele>42.1</ele>
        <time>2020-06-08T18:47:21Z</time>
      </trkpt>
      <trkpt lat="48.38889" lon="-4.63524">
        <ele>42.3</ele>
        <time>2020-06-08T18:47:22Z</time>
      </trkpt>
      <trkpt lat="48.38889" lon="-4.63536">
        <ele>42.6</ele>
        <time>2020-06-08T18:47:23Z</time>
      </trkpt>
      <trkpt lat="48.38889" lon="-4.63546">
        <ele>42.8</ele>
        <time>2020-06-08T18:47:24Z</time>
      </trkpt>
      <trkpt lat="48.3889" lon="-4.63557">
        <ele>43.1</ele>
        <time>2020-06-08T18:47:25Z</time>
      </trkpt>
      <trkpt lat="48.38891" lon="-4.63567">
        <ele>43.3</ele>
        <time>2020-06-08T18:47:26Z</time>
      </trkpt>
      <trkpt lat="48.38891" lon="-4.63577">
        <ele>43.6</ele>
        <time>2020-06-08T18:47:27Z</time>
      </trkpt>
      <trkpt lat="48.38892" lon="-4.63586">
        <ele>43.9</ele>
        <time>2020-06-08T18:47:28Z</time>
      </trkpt>
      <trkpt lat="48.38892" lon="-4.63595">
        <ele>44.3</ele>
        <time>2020-06-08T18:47:29Z</time>
      </trkpt>
      <trkpt lat="48.38893" lon="-4.63603">
        <ele>44.6</ele>
        <time>2020-06-08T18:47:30Z</time>
      </trkpt>
      <trkpt lat="48.38894" lon="-4.63612">
        <ele>44.9</ele>
        <time>2020-06-08T18:47:31Z</time>
      </trkpt>
      <trkpt lat="48.38894" lon="-4.6362">
        <ele>45.2</ele>
        <time>2020-06-08T18:47:32Z</time>
      </trkpt>
      <trkpt lat="48.38894" lon="-4.63628">
        <ele>45.5</ele>
        <time>2020-06-08T18:47:33Z</time>
      </trkpt>
      <trkpt lat="48.38894" lon="-4.63636">
        <ele>45.8</ele>
        <time>2020-06-08T18:47:34Z</time>
      </trkpt>
      <trkpt lat="48.38894" lon="-4.63643">
        <ele>46.1</ele>
        <time>2020-06-08T18:47:35Z</time>
      </trkpt>
      <trkpt lat="48.38894" lon="-4.63651">
        <ele>46.4</ele>
        <time>2020-06-08T18:47:36Z</time>
      </trkpt>
      <trkpt lat="48.38895" lon="-4.63658">
        <ele>46.6</ele>
        <time>2020-06-08T18:47:37Z</time>
      </trkpt>
      <trkpt lat="48.38895" lon="-4.63665">
        <ele>46.9</ele>
        <time>2020-06-08T18:47:38Z</time>
      </trkpt>
      <trkpt lat="48.38895" lon="-4.63672">
        <ele>47.2</ele>
        <time>2020-06-08T18:47:39Z</time>
      </trkpt>
      <trkpt lat="48.38894" lon="-4.63679">
        <ele>47.4</ele>
        <time>2020-06-08T18:47:40Z</time>
      </trkpt>
      <trkpt lat="48.38893" lon="-4.63686">
        <ele>47.7</ele>
        <time>2020-06-08T18:47:41Z</time>
      </trkpt>
      <trkpt lat="48.38892" lon="-4.63695">
        <ele>48</ele>
        <time>2020-06-08T18:47:42Z</time>
      </trkpt>
      <trkpt lat="48.38893" lon="-4.63705">
        <ele>48.3</ele>
        <time>2020-06-08T18:47:43Z</time>
      </trkpt>
      <trkpt lat="48.38892" lon="-4.63712">
        <ele>48.6</ele>
        <time>2020-06-08T18:47:44Z</time>
      </trkpt>
      <trkpt lat="48.38891" lon="-4.6372">
        <ele>48.8</ele>
        <time>2020-06-08T18:47:45Z</time>
      </trkpt>
      <trkpt lat="48.3889" lon="-4.63728">
        <ele>49</ele>
        <time>2020-06-08T18:47:46Z</time>
      </trkpt>
      <trkpt lat="48.38889" lon="-4.63735">
        <ele>49.3</ele>
        <time>2020-06-08T18:47:47Z</time>
      </trkpt>
      <trkpt lat="48.38889" lon="-4.6374">
        <ele>49.4</ele>
        <time>2020-06-08T18:47:48Z</time>
      </trkpt>
      <trkpt lat="48.38891" lon="-4.63748">
        <ele>49.7</ele>
        <time>2020-06-08T18:47:49Z</time>
      </trkpt>
      <trkpt lat="48.38891" lon="-4.63757">
        <ele>49.9</ele>
        <time>2020-06-08T18:47:50Z</time>
      </trkpt>
      <trkpt lat="48.38891" lon="-4.63765">
        <ele>50.2</ele>
        <time>2020-06-08T18:47:51Z</time>
      </trkpt>
      <trkpt lat="48.38891" lon="-4.63773">
        <ele>50.4</ele>
        <time>2020-06-08T18:47:52Z</time>
      </trkpt>
      <trkpt lat="48.38891" lon="-4.63778">
        <ele>50.6</ele>
        <time>2020-06-08T18:47:53Z</time>
      </trkpt>
      <trkpt lat="48.38893" lon="-4.63786">
        <ele>50.8</ele>
        <time>2020-06-08T18:47:54Z</time>
      </trkpt>
      <trkpt lat="48.38893" lon="-4.63792">
        <ele>51</ele>
        <time>2020-06-08T18:47:55Z</time>
      </trkpt>
      <trkpt lat="48.38895" lon="-4.63799">
        <ele>51.2</ele>
        <time>2020-06-08T18:47:56Z</time>
      </trkpt>
      <trkpt lat="48.38896" lon="-4.63806">
        <ele>51.4</ele>
        <time>2020-06-08T18:47:57Z</time>
      </trkpt>
      <trkpt lat="48.38896" lon="-4.63808">
        <ele>51.5</ele>
        <time>2020-06-08T18:47:58Z</time>
      </trkpt>
      <trkpt lat="48.38897" lon="-4.63815">
        <ele>51.7</ele>
        <time>2020-06-08T18:47:59Z</time>
      </trkpt>
      <trkpt lat="48.38897" lon="-4.63821">
        <ele>51.9</ele>
        <time>2020-06-08T18:48:00Z</time>
      </trkpt>
      <trkpt lat="48.38897" lon="-4.63825">
        <ele>52.1</ele>
        <time>2020-06-08T18:48:01Z</time>
      </trkpt>
      <trkpt lat="48.38896" lon="-4.63826">
        <ele>52.1</ele>
        <time>2020-06-08T18:48:02Z</time>
      </trkpt>
      <trkpt lat="48.38897" lon="-4.6383">
        <ele>52.3</ele>
        <time>2020-06-08T18:48:03Z</time>
      </trkpt>
      <trkpt lat="48.38897" lon="-4.63835">
        <ele>52.4</ele>
        <time>2020-06-08T18:48:04Z</time>
      </trkpt>
      <trkpt lat="48.38897" lon="-4.6384">
        <ele>52.6</ele>
        <time>2020-06-08T18:48:05Z</time>
      </trkpt>
      <trkpt lat="48.38897" lon="-4.63846">
        <ele>52.9</ele>
        <time>2020-06-08T18:48:06Z</time>
      </trkpt>
      <trkpt lat="48.38897" lon="-4.63848">
        <ele>53</ele>
        <time>2020-06-08T18:48:07Z</time>
      </trkpt>
      <trkpt lat="48.38896" lon="-4.63855">
        <ele>53.2</ele>
        <time>2020-06-08T18:48:08Z</time>
      </trkpt>
      <trkpt lat="48.38897" lon="-4.63861">
        <ele>53.4</ele>
        <time>2020-06-08T18:48:09Z</time>
      </trkpt>
      <trkpt lat="48.38897" lon="-4.63862">
        <ele>53.5</ele>
        <time>2020-06-08T18:48:10Z</time>
      </trkpt>
      <trkpt lat="48.38897" lon="-4.63865">
        <ele>53.6</ele>
        <time>2020-06-08T18:48:11Z</time>
      </trkpt>
      <trkpt lat="48.38898" lon="-4.63867">
        <ele>53.7</ele>
        <time>2020-06-08T18:48:12Z</time>
      </trkpt>
      <trkpt lat="48.38898" lon="-4.63872">
        <ele>53.9</ele>
        <time>2020-06-08T18:48:13Z</time>
      </trkpt>
      <trkpt lat="48.38898" lon="-4.63874">
        <ele>53.9</ele>
        <time>2020-06-08T18:48:14Z</time>
      </trkpt>
      <trkpt lat="48.38898" lon="-4.63879">
        <ele>54.1</ele>
        <time>2020-06-08T18:48:15Z</time>
      </trkpt>
      <trkpt lat="48.38898" lon="-4.63881">
        <ele>54.2</ele>
        <time>2020-06-08T18:48:16Z</time>
      </trkpt>
      <trkpt lat="48.38897" lon="-4.63886">
        <ele>54.4</ele>
        <time>2020-06-08T18:48:17Z</time>
      </trkpt>
      <trkpt lat="48.38897" lon="-4.63888">
        <ele>54.4</ele>
        <time>2020-06-08T18:48:18Z</time>
      </trkpt>
      <trkpt lat="48.38897" lon="-4.63893">
        <ele>54.6</ele>
        <time>2020-06-08T18:48:19Z</time>
      </trkpt>
      <trkpt lat="48.38897" lon="-4.63895">
        <ele>54.7</ele>
        <time>2020-06-08T18:48:20Z</time>
      </trkpt>
      <trkpt lat="48.38898" lon="-4.639">
        <ele>54.8</ele>
        <time>2020-06-08T18:48:21Z</time>
      </trkpt>
      <trkpt lat="48.38898" lon="-4.63906">
        <ele>55</ele>
        <time>2020-06-08T18:48:22Z</time>
      </trkpt>
      <trkpt lat="48.38898" lon="-4.63907">
        <ele>55</ele>
        <time>2020-06-08T18:48:23Z</time>
      </trkpt>
      <trkpt lat="48.38898" lon="-4.63912">
        <ele>55.2</ele>
        <time>2020-06-08T18:48:24Z</time>
      </trkpt>
      <trkpt lat="48.38898" lon="-4.63918">
        <ele>55.3</ele>
        <time>2020-06-08T18:48:25Z</time>
      </trkpt>
      <trkpt lat="48.38899" lon="-4.63921">
        <ele>55.4</ele>
        <time>2020-06-08T18:48:26Z</time>
      </trkpt>
      <trkpt lat="48.38898" lon="-4.63926">
        <ele>55.6</ele>
        <time>2020-06-08T18:48:27Z</time>
      </trkpt>
      <trkpt lat="48.38898" lon="-4.63933">
        <ele>55.7</ele>
        <time>2020-06-08T18:48:28Z</time>
      </trkpt>
      <trkpt lat="48.38898" lon="-4.63941">
        <ele>55.9</ele>
        <time>2020-06-08T18:48:29Z</time>
      </trkpt>
      <trkpt lat="48.38899" lon="-4.63948">
        <ele>56</ele>
        <time>2020-06-08T18:48:30Z</time>
      </trkpt>
      <trkpt lat="48.38898" lon="-4.63955">
        <ele>56.2</ele>
        <time>2020-06-08T18:48:31Z</time>
      </trkpt>
      <trkpt lat="48.38897" lon="-4.63962">
        <ele>56.3</ele>
        <time>2020-06-08T18:48:32Z</time>
      </trkpt>
      <trkpt lat="48.38897" lon="-4.6397">
        <ele>56.5</ele>
        <time>2020-06-08T18:48:33Z</time>
      </trkpt>
      <trkpt lat="48.38897" lon="-4.63976">
        <ele>56.6</ele>
        <time>2020-06-08T18:48:34Z</time>
      </trkpt>
      <trkpt lat="48.38896" lon="-4.63982">
        <ele>56.8</ele>
        <time>2020-06-08T18:48:35Z</time>
      </trkpt>
      <trkpt lat="48.38895" lon="-4.63989">
        <ele>56.9</ele>
        <time>2020-06-08T18:48:36Z</time>
      </trkpt>
      <trkpt lat="48.38893" lon="-4.63996">
        <ele>57</ele>
        <time>2020-06-08T18:48:37Z</time>
      </trkpt>
      <trkpt lat="48.38891" lon="-4.64">
        <ele>57.1</ele>
        <time>2020-06-08T18:48:38Z</time>
      </trkpt>
      <trkpt lat="48.3889" lon="-4.64007">
        <ele>57.3</ele>
        <time>2020-06-08T18:48:39Z</time>
      </trkpt>
      <trkpt lat="48.3889" lon="-4.64013">
        <ele>57.4</ele>
        <time>2020-06-08T18:48:40Z</time>
      </trkpt>
      <trkpt lat="48.3889" lon="-4.64019">
        <ele>57.5</ele>
        <time>2020-06-08T18:48:41Z</time>
      </trkpt>
      <trkpt lat="48.38889" lon="-4.64025">
        <ele>57.7</ele>
        <time>2020-06-08T18:48:42Z</time>
      </trkpt>
      <trkpt lat="48.38887" lon="-4.64031">
        <ele>57.8</ele>
        <time>2020-06-08T18:48:43Z</time>
      </trkpt>
      <trkpt lat="48.38886" lon="-4.64037">
        <ele>57.9</ele>
        <time>2020-06-08T18:48:44Z</time>
      </trkpt>
      <trkpt lat="48.38886" lon="-4.64044">
        <ele>58.1</ele>
        <time>2020-06-08T18:48:45Z</time>
      </trkpt>
      <trkpt lat="48.38886" lon="-4.64049">
        <ele>58.2</ele>
        <time>2020-06-08T18:48:46Z</time>
      </trkpt>
      <trkpt lat="48.38885" lon="-4.64055">
        <ele>58.4</ele>
        <time>2020-06-08T18:48:47Z</time>
      </trkpt>
      <trkpt lat="48.38884" lon="-4.6406">
        <ele>58.5</ele>
        <time>2020-06-08T18:48:48Z</time>
      </trkpt>
      <trkpt lat="48.38883" lon="-4.64066">
        <ele>58.7</ele>
        <time>2020-06-08T18:48:49Z</time>
      </trkpt>
      <trkpt lat="48.38883" lon="-4.64072">
        <ele>58.8</ele>
        <time>2020-06-08T18:48:50Z</time>
      </trkpt>
      <trkpt lat="48.38882" lon="-4.64077">
        <ele>59</ele>
        <time>2020-06-08T18:48:51Z</time>
      </trkpt>
      <trkpt lat="48.38882" lon="-4.64083">
        <ele>59.2</ele>
        <time>2020-06-08T18:48:52Z</time>
      </trkpt>
      <trkpt lat="48.38882" lon="-4.64088">
        <ele>59.4</ele>
        <time>2020-06-08T18:48:53Z</time>
      </trkpt>
      <trkpt lat="48.38882" lon="-4.64093">
        <ele>59.5</ele>
        <time>2020-06-08T18:48:54Z</time>
      </trkpt>
      <trkpt lat="48.38882" lon="-4.64098">
        <ele>59.7</ele>
        <time>2020-06-08T18:48:55Z</time>
      </trkpt>
      <trkpt lat="48.38881" lon="-4.64102">
        <ele>59.9</ele>
        <time>2020-06-08T18:48:56Z</time>
      </trkpt>
      <trkpt lat="48.38881" lon="-4.64108">
        <ele>60.1</ele>
        <time>2020-06-08T18:48:57Z</time>
      </trkpt>
      <trkpt lat="48.3888" lon="-4.64114">
        <ele>60.3</ele>
        <time>2020-06-08T18:48:58Z</time>
      </trkpt>
      <trkpt lat="48.3888" lon="-4.6412">
        <ele>60.5</ele>
        <time>2020-06-08T18:48:59Z</time>
      </trkpt>
      <trkpt lat="48.3888" lon="-4.64127">
        <ele>60.8</ele>
        <time>2020-06-08T18:49:00Z</time>
      </trkpt>
      <trkpt lat="48.3888" lon="-4.64133">
        <ele>61</ele>
        <time>2020-06-08T18:49:01Z</time>
      </trkpt>
      <trkpt lat="48.38879" lon="-4.6414">
        <ele>61.2</ele>
        <time>2020-06-08T18:49:02Z</time>
      </trkpt>
      <trkpt lat="48.38879" lon="-4.64146">
        <ele>61.4</ele>
        <time>2020-06-08T18:49:03Z</time>
      </trkpt>
      <trkpt lat="48.38879" lon="-4.64155">
        <ele>61.7</ele>
        <time>2020-06-08T18:49:04Z</time>
      </trkpt>
      <trkpt lat="48.38879" lon="-4.64162">
        <ele>62</ele>
        <time>2020-06-08T18:49:05Z</time>
      </trkpt>
      <trkpt lat="48.38878" lon="-4.64166">
        <ele>62.2</ele>
        <time>2020-06-08T18:49:06Z</time>
      </trkpt>
      <trkpt lat="48.38878" lon="-4.64171">
        <ele>62.4</ele>
        <time>2020-06-08T18:49:07Z</time>
      </trkpt>
      <trkpt lat="48.38878" lon="-4.64177">
        <ele>62.6</ele>
        <time>2020-06-08T18:49:08Z</time>
      </trkpt>
      <trkpt lat="48.38878" lon="-4.64179">
        <ele>62.7</ele>
        <time>2020-06-08T18:49:09Z</time>
      </trkpt>
      <trkpt lat="48.38879" lon="-4.64184">
        <ele>62.9</ele>
        <time>2020-06-08T18:49:10Z</time>
      </trkpt>
      <trkpt lat="48.38879" lon="-4.64186">
        <ele>63</ele>
        <time>2020-06-08T18:49:11Z</time>
      </trkpt>
      <trkpt lat="48.38879" lon="-4.64192">
        <ele>63.3</ele>
        <time>2020-06-08T18:49:12Z</time>
      </trkpt>
      <trkpt lat="48.38879" lon="-4.64194">
        <ele>63.4</ele>
        <time>2020-06-08T18:49:13Z</time>
      </trkpt>
      <trkpt lat="48.3888" lon="-4.642">
        <ele>63.6</ele>
        <time>2020-06-08T18:49:14Z</time>
      </trkpt>
      <trkpt lat="48.38879" lon="-4.64207">
        <ele>63.9</ele>
        <time>2020-06-08T18:49:15Z</time>
      </trkpt>
      <trkpt lat="48.3888" lon="-4.64214">
        <ele>64.3</ele>
        <time>2020-06-08T18:49:16Z</time>
      </trkpt>
      <trkpt lat="48.3888" lon="-4.64219">
        <ele>64.5</ele>
        <time>2020-06-08T18:49:17Z</time>
      </trkpt>
      <trkpt lat="48.38879" lon="-4.64224">
        <ele>64.8</ele>
        <time>2020-06-08T18:49:18Z</time>
      </trkpt>
      <trkpt lat="48.38878" lon="-4.64232">
        <ele>65.2</ele>
        <time>2020-06-08T18:49:19Z</time>
      </trkpt>
      <trkpt lat="48.38878" lon="-4.64239">
        <ele>65.6</ele>
        <time>2020-06-08T18:49:20Z</time>
      </trkpt>
      <trkpt lat="48.38878" lon="-4.64245">
        <ele>66</ele>
        <time>2020-06-08T18:49:21Z</time>
      </trkpt>
      <trkpt lat="48.38878" lon="-4.6425">
        <ele>66.3</ele>
        <time>2020-06-08T18:49:22Z</time>
      </trkpt>
      <trkpt lat="48.38877" lon="-4.64256">
        <ele>66.6</ele>
        <time>2020-06-08T18:49:23Z</time>
      </trkpt>
      <trkpt lat="48.38876" lon="-4.64262">
        <ele>66.9</ele>
        <time>2020-06-08T18:49:24Z</time>
      </trkpt>
      <trkpt lat="48.38875" lon="-4.64268">
        <ele>67.3</ele>
        <time>2020-06-08T18:49:25Z</time>
      </trkpt>
      <trkpt lat="48.38875" lon="-4.64274">
        <ele>67.6</ele>
        <time>2020-06-08T18:49:26Z</time>
      </trkpt>
      <trkpt lat="48.38874" lon="-4.64279">
        <ele>67.9</ele>
        <time>2020-06-08T18:49:27Z</time>
      </trkpt>
      <trkpt lat="48.38873" lon="-4.64285">
        <ele>68.3</ele>
        <time>2020-06-08T18:49:28Z</time>
      </trkpt>
      <trkpt lat="48.38871" lon="-4.64291">
        <ele>68.6</ele>
        <time>2020-06-08T18:49:29Z</time>
      </trkpt>
      <trkpt lat="48.3887" lon="-4.64296">
        <ele>68.9</ele>
        <time>2020-06-08T18:49:30Z</time>
      </trkpt>
      <trkpt lat="48.38868" lon="-4.64304">
        <ele>69.3</ele>
        <time>2020-06-08T18:49:31Z</time>
      </trkpt>
      <trkpt lat="48.38867" lon="-4.64312">
        <ele>69.8</ele>
        <time>2020-06-08T18:49:32Z</time>
      </trkpt>
      <trkpt lat="48.38864" lon="-4.64319">
        <ele>70.2</ele>
        <time>2020-06-08T18:49:33Z</time>
      </trkpt>
      <trkpt lat="48.38863" lon="-4.64326">
        <ele>70.5</ele>
        <time>2020-06-08T18:49:34Z</time>
      </trkpt>
      <trkpt lat="48.38862" lon="-4.64332">
        <ele>70.8</ele>
        <time>2020-06-08T18:49:35Z</time>
      </trkpt>
      <trkpt lat="48.38861" lon="-4.64341">
        <ele>71.1</ele>
        <time>2020-06-08T18:49:36Z</time>
      </trkpt>
      <trkpt lat="48.38861" lon="-4.64349">
        <ele>71.4</ele>
        <time>2020-06-08T18:49:37Z</time>
      </trkpt>
      <trkpt lat="48.3886" lon="-4.64356">
        <ele>71.6</ele>
        <time>2020-06-08T18:49:38Z</time>
      </trkpt>
      <trkpt lat="48.38859" lon="-4.64363">
        <ele>71.9</ele>
        <time>2020-06-08T18:49:39Z</time>
      </trkpt>
      <trkpt lat="48.38859" lon="-4.6437">
        <ele>72</ele>
        <time>2020-06-08T18:49:40Z</time>
      </trkpt>
      <trkpt lat="48.38858" lon="-4.64375">
        <ele>72.2</ele>
        <time>2020-06-08T18:49:41Z</time>
      </trkpt>
      <trkpt lat="48.38858" lon="-4.64382">
        <ele>72.4</ele>
        <time>2020-06-08T18:49:42Z</time>
      </trkpt>
      <trkpt lat="48.38857" lon="-4.64387">
        <ele>72.5</ele>
        <time>2020-06-08T18:49:43Z</time>
      </trkpt>
      <trkpt lat="48.38855" lon="-4.64391">
        <ele>72.6</ele>
        <time>2020-06-08T18:49:44Z</time>
      </trkpt>
      <trkpt lat="48.38854" lon="-4.64396">
        <ele>72.7</ele>
        <time>2020-06-08T18:49:45Z</time>
      </trkpt>
      <trkpt lat="48.38853" lon="-4.644">
        <ele>72.8</ele>
        <time>2020-06-08T18:49:46Z</time>
      </trkpt>
      <trkpt lat="48.38851" lon="-4.64404">
        <ele>72.9</ele>
        <time>2020-06-08T18:49:47Z</time>
      </trkpt>
      <trkpt lat="48.3885" lon="-4.64408">
        <ele>73</ele>
        <time>2020-06-08T18:49:48Z</time>
      </trkpt>
      <trkpt lat="48.38848" lon="-4.64413">
        <ele>73.1</ele>
        <time>2020-06-08T18:49:49Z</time>
      </trkpt>
      <trkpt lat="48.38848" lon="-4.64414">
        <ele>73.1</ele>
        <time>2020-06-08T18:49:50Z</time>
      </trkpt>
      <trkpt lat="48.38849" lon="-4.6442">
        <ele>73.2</ele>
        <time>2020-06-08T18:49:51Z</time>
      </trkpt>
      <trkpt lat="48.38848" lon="-4.64424">
        <ele>73.3</ele>
        <time>2020-06-08T18:49:52Z</time>
      </trkpt>
      <trkpt lat="48.38848" lon="-4.64425">
        <ele>73.3</ele>
        <time>2020-06-08T18:49:53Z</time>
      </trkpt>
      <trkpt lat="48.38848" lon="-4.64431">
        <ele>73.3</ele>
        <time>2020-06-08T18:49:54Z</time>
      </trkpt>
      <trkpt lat="48.38848" lon="-4.64433">
        <ele>73.3</ele>
        <time>2020-06-08T18:49:55Z</time>
      </trkpt>
      <trkpt lat="48.38846" lon="-4.64437">
        <ele>73.4</ele>
        <time>2020-06-08T18:49:56Z</time>
      </trkpt>
      <trkpt lat="48.38844" lon="-4.64442">
        <ele>73.4</ele>
        <time>2020-06-08T18:49:57Z</time>
      </trkpt>
      <trkpt lat="48.38844" lon="-4.64445">
        <ele>73.4</ele>
        <time>2020-06-08T18:49:58Z</time>
      </trkpt>
      <trkpt lat="48.38843" lon="-4.64449">
        <ele>73.5</ele>
        <time>2020-06-08T18:49:59Z</time>
      </trkpt>
      <trkpt lat="48.38842" lon="-4.64453">
        <ele>73.5</ele>
        <time>2020-06-08T18:50:00Z</time>
      </trkpt>
      <trkpt lat="48.3884" lon="-4.64457">
        <ele>73.6</ele>
        <time>2020-06-08T18:50:01Z</time>
      </trkpt>
      <trkpt lat="48.38839" lon="-4.6446">
        <ele>73.6</ele>
        <time>2020-06-08T18:50:02Z</time>
      </trkpt>
      <trkpt lat="48.38837" lon="-4.64464">
        <ele>73.6</ele>
        <time>2020-06-08T18:50:03Z</time>
      </trkpt>
      <trkpt lat="48.38837" lon="-4.64465">
        <ele>73.6</ele>
        <time>2020-06-08T18:50:04Z</time>
      </trkpt>
      <trkpt lat="48.38836" lon="-4.6447">
        <ele>73.8</ele>
        <time>2020-06-08T18:50:05Z</time>
      </trkpt>
      <trkpt lat="48.38836" lon="-4.64472">
        <ele>73.8</ele>
        <time>2020-06-08T18:50:06Z</time>
      </trkpt>
      <trkpt lat="48.38837" lon="-4.64477">
        <ele>73.9</ele>
        <time>2020-06-08T18:50:07Z</time>
      </trkpt>
      <trkpt lat="48.38837" lon="-4.64479">
        <ele>73.9</ele>
        <time>2020-06-08T18:50:08Z</time>
      </trkpt>
      <trkpt lat="48.38838" lon="-4.64484">
        <ele>74</ele>
        <time>2020-06-08T18:50:09Z</time>
      </trkpt>
      <trkpt lat="48.38838" lon="-4.64485">
        <ele>74</ele>
        <time>2020-06-08T18:50:10Z</time>
      </trkpt>
      <trkpt lat="48.38837" lon="-4.64488">
        <ele>74</ele>
        <time>2020-06-08T18:50:11Z</time>
      </trkpt>
      <trkpt lat="48.38837" lon="-4.6449">
        <ele>74</ele>
        <time>2020-06-08T18:50:12Z</time>
      </trkpt>
      <trkpt lat="48.38837" lon="-4.64494">
        <ele>74.1</ele>
        <time>2020-06-08T18:50:13Z</time>
      </trkpt>
      <trkpt lat="48.38837" lon="-4.64494">
        <ele>74.1</ele>
        <time>2020-06-08T18:50:14Z</time>
      </trkpt>
      <trkpt lat="48.38838" lon="-4.64494">
        <ele>74.1</ele>
        <time>2020-06-08T18:50:15Z</time>
      </trkpt>
      <trkpt lat="48.38839" lon="-4.64496">
        <ele>74.1</ele>
        <time>2020-06-08T18:50:16Z</time>
      </trkpt>
      <trkpt lat="48.38839" lon="-4.64496">
        <ele>74.1</ele>
        <time>2020-06-08T18:50:17Z</time>
      </trkpt>
      <trkpt lat="48.38839" lon="-4.64496">
        <ele>74.1</ele>
        <time>2020-06-08T18:50:18Z</time>
      </trkpt>
      <trkpt lat="48.38839" lon="-4.64496">
        <ele>74.1</ele>
        <time>2020-06-08T18:50:19Z</time>
      </trkpt>
      <trkpt lat="48.3884" lon="-4.64497">
        <ele>74.1</ele>
        <time>2020-06-08T18:50:20Z</time>
      </trkpt>
      <trkpt lat="48.3884" lon="-4.64499">
        <ele>74.1</ele>
        <time>2020-06-08T18:50:21Z</time>
      </trkpt>
      <trkpt lat="48.38839" lon="-4.645">
        <ele>74.2</ele>
        <time>2020-06-08T18:50:22Z</time>
      </trkpt>
      <trkpt lat="48.38839" lon="-4.64501">
        <ele>74.2</ele>
        <time>2020-06-08T18:50:23Z</time>
      </trkpt>
      <trkpt lat="48.38838" lon="-4.64503">
        <ele>74.2</ele>
        <time>2020-06-08T18:50:24Z</time>
      </trkpt>
      <trkpt lat="48.38838" lon="-4.64504">
        <ele>74.2</ele>
        <time>2020-06-08T18:50:25Z</time>
      </trkpt>
      <trkpt lat="48.38837" lon="-4.64505">
        <ele>74.2</ele>
        <time>2020-06-08T18:51:23Z</time>
      </trkpt>
      <trkpt lat="48.38837" lon="-4.64507">
        <ele>74.2</ele>
        <time>2020-06-08T18:51:24Z</time>
      </trkpt>
      <trkpt lat="48.38836" lon="-4.64511">
        <ele>74.3</ele>
        <time>2020-06-08T18:51:25Z</time>
      </trkpt>
      <trkpt lat="48.38836" lon="-4.64513">
        <ele>74.3</ele>
        <time>2020-06-08T18:51:26Z</time>
      </trkpt>
      <trkpt lat="48.38836" lon="-4.64518">
        <ele>74.4</ele>
        <time>2020-06-08T18:51:27Z</time>
      </trkpt>
      <trkpt lat="48.38835" lon="-4.64524">
        <ele>74.4</ele>
        <time>2020-06-08T18:51:28Z</time>
      </trkpt>
      <trkpt lat="48.38835" lon="-4.6453">
        <ele>74.5</ele>
        <time>2020-06-08T18:51:29Z</time>
      </trkpt>
      <trkpt lat="48.38835" lon="-4.64536">
        <ele>74.6</ele>
        <time>2020-06-08T18:51:30Z</time>
      </trkpt>
      <trkpt lat="48.38837" lon="-4.64542">
        <ele>74.7</ele>
        <time>2020-06-08T18:51:31Z</time>
      </trkpt>
      <trkpt lat="48.38837" lon="-4.64548">
        <ele>74.8</ele>
        <time>2020-06-08T18:51:32Z</time>
      </trkpt>
      <trkpt lat="48.38837" lon="-4.64555">
        <ele>74.9</ele>
        <time>2020-06-08T18:51:33Z</time>
      </trkpt>
      <trkpt lat="48.38837" lon="-4.64562">
        <ele>74.9</ele>
        <time>2020-06-08T18:51:34Z</time>
      </trkpt>
      <trkpt lat="48.38836" lon="-4.64568">
        <ele>75</ele>
        <time>2020-06-08T18:51:35Z</time>
      </trkpt>
      <trkpt lat="48.38836" lon="-4.64573">
        <ele>75.1</ele>
        <time>2020-06-08T18:51:36Z</time>
      </trkpt>
      <trkpt lat="48.38836" lon="-4.6458">
        <ele>75.2</ele>
        <time>2020-06-08T18:51:37Z</time>
      </trkpt>
      <trkpt lat="48.38837" lon="-4.64587">
        <ele>75.3</ele>
        <time>2020-06-08T18:51:38Z</time>
      </trkpt>
      <trkpt lat="48.38837" lon="-4.64594">
        <ele>75.3</ele>
        <time>2020-06-08T18:51:39Z</time>
      </trkpt>
      <trkpt lat="48.38837" lon="-4.64602">
        <ele>75.4</ele>
        <time>2020-06-08T18:51:40Z</time>
      </trkpt>
      <trkpt lat="48.38836" lon="-4.64609">
        <ele>75.5</ele>
        <time>2020-06-08T18:51:41Z</time>
      </trkpt>
      <trkpt lat="48.38837" lon="-4.64617">
        <ele>75.6</ele>
        <time>2020-06-08T18:51:42Z</time>
      </trkpt>
      <trkpt lat="48.38836" lon="-4.64623">
        <ele>75.8</ele>
        <time>2020-06-08T18:51:43Z</time>
      </trkpt>
      <trkpt lat="48.38836" lon="-4.6463">
        <ele>75.9</ele>
        <time>2020-06-08T18:51:44Z</time>
      </trkpt>
      <trkpt lat="48.38836" lon="-4.64636">
        <ele>76</ele>
        <time>2020-06-08T18:51:45Z</time>
      </trkpt>
      <trkpt lat="48.38836" lon="-4.64643">
        <ele>76.1</ele>
        <time>2020-06-08T18:51:46Z</time>
      </trkpt>
      <trkpt lat="48.38835" lon="-4.6465">
        <ele>76.2</ele>
        <time>2020-06-08T18:51:47Z</time>
      </trkpt>
      <trkpt lat="48.38836" lon="-4.64658">
        <ele>76.4</ele>
        <time>2020-06-08T18:51:48Z</time>
      </trkpt>
      <trkpt lat="48.38834" lon="-4.64663">
        <ele>76.5</ele>
        <time>2020-06-08T18:51:49Z</time>
      </trkpt>
      <trkpt lat="48.38833" lon="-4.6467">
        <ele>76.6</ele>
        <time>2020-06-08T18:51:50Z</time>
      </trkpt>
      <trkpt lat="48.38833" lon="-4.64677">
        <ele>76.8</ele>
        <time>2020-06-08T18:51:51Z</time>
      </trkpt>
      <trkpt lat="48.38833" lon="-4.64684">
        <ele>76.9</ele>
        <time>2020-06-08T18:51:52Z</time>
      </trkpt>
      <trkpt lat="48.38833" lon="-4.6469">
        <ele>77.1</ele>
        <time>2020-06-08T18:51:53Z</time>
      </trkpt>
      <trkpt lat="48.38833" lon="-4.64696">
        <ele>77.2</ele>
        <time>2020-06-08T18:51:54Z</time>
      </trkpt>
      <trkpt lat="48.38833" lon="-4.64702">
        <ele>77.4</ele>
        <time>2020-06-08T18:51:55Z</time>
      </trkpt>
      <trkpt lat="48.38833" lon="-4.6471">
        <ele>77.6</ele>
        <time>2020-06-08T18:51:56Z</time>
      </trkpt>
      <trkpt lat="48.38833" lon="-4.64718">
        <ele>77.7</ele>
        <time>2020-06-08T18:51:57Z</time>
      </trkpt>
      <trkpt lat="48.38833" lon="-4.64725">
        <ele>77.8</ele>
        <time>2020-06-08T18:51:58Z</time>
      </trkpt>
      <trkpt lat="48.38835" lon="-4.64732">
        <ele>77.9</ele>
        <time>2020-06-08T18:51:59Z</time>
      </trkpt>
      <trkpt lat="48.38836" lon="-4.64738">
        <ele>78</ele>
        <time>2020-06-08T18:52:00Z</time>
      </trkpt>
      <trkpt lat="48.38837" lon="-4.64744">
        <ele>78.2</ele>
        <time>2020-06-08T18:52:01Z</time>
      </trkpt>
      <trkpt lat="48.38838" lon="-4.6475">
        <ele>78.3</ele>
        <time>2020-06-08T18:52:02Z</time>
      </trkpt>
      <trkpt lat="48.38839" lon="-4.64756">
        <ele>78.4</ele>
        <time>2020-06-08T18:52:03Z</time>
      </trkpt>
      <trkpt lat="48.3884" lon="-4.64762">
        <ele>78.6</ele>
        <time>2020-06-08T18:52:04Z</time>
      </trkpt>
      <trkpt lat="48.38842" lon="-4.64767">
        <ele>78.7</ele>
        <time>2020-06-08T18:52:05Z</time>
      </trkpt>
      <trkpt lat="48.38843" lon="-4.64773">
        <ele>78.8</ele>
        <time>2020-06-08T18:52:06Z</time>
      </trkpt>
      <trkpt lat="48.38845" lon="-4.64779">
        <ele>78.8</ele>
        <time>2020-06-08T18:52:07Z</time>
      </trkpt>
      <trkpt lat="48.38846" lon="-4.64785">
        <ele>78.9</ele>
        <time>2020-06-08T18:52:08Z</time>
      </trkpt>
      <trkpt lat="48.38849" lon="-4.64791">
        <ele>79</ele>
        <time>2020-06-08T18:52:09Z</time>
      </trkpt>
      <trkpt lat="48.38849" lon="-4.64797">
        <ele>79.1</ele>
        <time>2020-06-08T18:52:10Z</time>
      </trkpt>
      <trkpt lat="48.38851" lon="-4.64803">
        <ele>79.2</ele>
        <time>2020-06-08T18:52:11Z</time>
      </trkpt>
      <trkpt lat="48.38852" lon="-4.6481">
        <ele>79.3</ele>
        <time>2020-06-08T18:52:12Z</time>
      </trkpt>
      <trkpt lat="48.38854" lon="-4.64818">
        <ele>79.4</ele>
        <time>2020-06-08T18:52:13Z</time>
      </trkpt>
      <trkpt lat="48.38855" lon="-4.64824">
        <ele>79.5</ele>
        <time>2020-06-08T18:52:14Z</time>
      </trkpt>
      <trkpt lat="48.38859" lon="-4.64829">
        <ele>79.6</ele>
        <time>2020-06-08T18:52:15Z</time>
      </trkpt>
      <trkpt lat="48.38862" lon="-4.64834">
        <ele>79.6</ele>
        <time>2020-06-08T18:52:16Z</time>
      </trkpt>
      <trkpt lat="48.38865" lon="-4.64841">
        <ele>79.7</ele>
        <time>2020-06-08T18:52:17Z</time>
      </trkpt>
      <trkpt lat="48.38868" lon="-4.64848">
        <ele>79.8</ele>
        <time>2020-06-08T18:52:18Z</time>
      </trkpt>
      <trkpt lat="48.3887" lon="-4.64854">
        <ele>79.9</ele>
        <time>2020-06-08T18:52:19Z</time>
      </trkpt>
      <trkpt lat="48.38874" lon="-4.64859">
        <ele>80</ele>
        <time>2020-06-08T18:52:20Z</time>
      </trkpt>
      <trkpt lat="48.38876" lon="-4.64865">
        <ele>80.1</ele>
        <time>2020-06-08T18:52:21Z</time>
      </trkpt>
      <trkpt lat="48.38878" lon="-4.64871">
        <ele>80.2</ele>
        <time>2020-06-08T18:52:22Z</time>
      </trkpt>
      <trkpt lat="48.3888" lon="-4.64878">
        <ele>80.3</ele>
        <time>2020-06-08T18:52:23Z</time>
      </trkpt>
      <trkpt lat="48.38883" lon="-4.64884">
        <ele>80.5</ele>
        <time>2020-06-08T18:52:24Z</time>
      </trkpt>
      <trkpt lat="48.38885" lon="-4.6489">
        <ele>80.6</ele>
        <time>2020-06-08T18:52:25Z</time>
      </trkpt>
      <trkpt lat="48.38887" lon="-4.64896">
        <ele>80.7</ele>
        <time>2020-06-08T18:52:26Z</time>
      </trkpt>
      <trkpt lat="48.38889" lon="-4.64902">
        <ele>80.8</ele>
        <time>2020-06-08T18:52:27Z</time>
      </trkpt>
      <trkpt lat="48.38891" lon="-4.64908">
        <ele>81</ele>
        <time>2020-06-08T18:52:28Z</time>
      </trkpt>
      <trkpt lat="48.38893" lon="-4.64914">
        <ele>81.1</ele>
        <time>2020-06-08T18:52:29Z</time>
      </trkpt>
      <trkpt lat="48.38894" lon="-4.64921">
        <ele>81.2</ele>
        <time>2020-06-08T18:52:30Z</time>
      </trkpt>
      <trkpt lat="48.38897" lon="-4.64928">
        <ele>81.3</ele>
        <time>2020-06-08T18:52:31Z</time>
      </trkpt>
      <trkpt lat="48.38899" lon="-4.64935">
        <ele>81.4</ele>
        <time>2020-06-08T18:52:32Z</time>
      </trkpt>
      <trkpt lat="48.389" lon="-4.64942">
        <ele>81.5</ele>
        <time>2020-06-08T18:52:33Z</time>
      </trkpt>
      <trkpt lat="48.38902" lon="-4.6495">
        <ele>81.6</ele>
        <time>2020-06-08T18:52:34Z</time>
      </trkpt>
      <trkpt lat="48.38903" lon="-4.64956">
        <ele>81.7</ele>
        <time>2020-06-08T18:52:35Z</time>
      </trkpt>
      <trkpt lat="48.38904" lon="-4.64963">
        <ele>81.8</ele>
        <time>2020-06-08T18:52:36Z</time>
      </trkpt>
      <trkpt lat="48.38906" lon="-4.64971">
        <ele>81.9</ele>
        <time>2020-06-08T18:52:37Z</time>
      </trkpt>
      <trkpt lat="48.38908" lon="-4.64978">
        <ele>82</ele>
        <time>2020-06-08T18:52:38Z</time>
      </trkpt>
      <trkpt lat="48.38908" lon="-4.64983">
        <ele>82.1</ele>
        <time>2020-06-08T18:52:39Z</time>
      </trkpt>
      <trkpt lat="48.38909" lon="-4.64991">
        <ele>82.2</ele>
        <time>2020-06-08T18:52:40Z</time>
      </trkpt>
      <trkpt lat="48.3891" lon="-4.64998">
        <ele>82.3</ele>
        <time>2020-06-08T18:52:41Z</time>
      </trkpt>
      <trkpt lat="48.3891" lon="-4.65005">
        <ele>82.5</ele>
        <time>2020-06-08T18:52:42Z</time>
      </trkpt>
      <trkpt lat="48.38911" lon="-4.65013">
        <ele>82.6</ele>
        <time>2020-06-08T18:52:43Z</time>
      </trkpt>
      <trkpt lat="48.38911" lon="-4.65021">
        <ele>82.8</ele>
        <time>2020-06-08T18:52:44Z</time>
      </trkpt>
      <trkpt lat="48.38912" lon="-4.6503">
        <ele>82.9</ele>
        <time>2020-06-08T18:52:45Z</time>
      </trkpt>
      <trkpt lat="48.38912" lon="-4.65037">
        <ele>83</ele>
        <time>2020-06-08T18:52:46Z</time>
      </trkpt>
      <trkpt lat="48.38914" lon="-4.65045">
        <ele>83.2</ele>
        <time>2020-06-08T18:52:47Z</time>
      </trkpt>
      <trkpt lat="48.38914" lon="-4.65051">
        <ele>83.2</ele>
        <time>2020-06-08T18:52:48Z</time>
      </trkpt>
      <trkpt lat="48.38915" lon="-4.65058">
        <ele>83.3</ele>
        <time>2020-06-08T18:52:49Z</time>
      </trkpt>
      <trkpt lat="48.38915" lon="-4.65066">
        <ele>83.4</ele>
        <time>2020-06-08T18:52:50Z</time>
      </trkpt>
      <trkpt lat="48.38915" lon="-4.65074">
        <ele>83.5</ele>
        <time>2020-06-08T18:52:51Z</time>
      </trkpt>
      <trkpt lat="48.38917" lon="-4.65083">
        <ele>83.7</ele>
        <time>2020-06-08T18:52:52Z</time>
      </trkpt>
      <trkpt lat="48.38918" lon="-4.65092">
        <ele>83.8</ele>
        <time>2020-06-08T18:52:53Z</time>
      </trkpt>
      <trkpt lat="48.38918" lon="-4.651">
        <ele>83.9</ele>
        <time>2020-06-08T18:52:54Z</time>
      </trkpt>
      <trkpt lat="48.38918" lon="-4.65107">
        <ele>83.9</ele>
        <time>2020-06-08T18:52:55Z</time>
      </trkpt>
      <trkpt lat="48.38919" lon="-4.65114">
        <ele>83.9</ele>
        <time>2020-06-08T18:52:56Z</time>
      </trkpt>
      <trkpt lat="48.38921" lon="-4.65123">
        <ele>83.9</ele>
        <time>2020-06-08T18:52:57Z</time>
      </trkpt>
      <trkpt lat="48.38922" lon="-4.65131">
        <ele>83.9</ele>
        <time>2020-06-08T18:52:58Z</time>
      </trkpt>
      <trkpt lat="48.38922" lon="-4.65137">
        <ele>83.8</ele>
        <time>2020-06-08T18:52:59Z</time>
      </trkpt>
      <trkpt lat="48.38923" lon="-4.65146">
        <ele>83.8</ele>
        <time>2020-06-08T18:53:00Z</time>
      </trkpt>
      <trkpt lat="48.38924" lon="-4.65152">
        <ele>83.8</ele>
        <time>2020-06-08T18:53:01Z</time>
      </trkpt>
      <trkpt lat="48.38925" lon="-4.65161">
        <ele>83.8</ele>
        <time>2020-06-08T18:53:02Z</time>
      </trkpt>
      <trkpt lat="48.38926" lon="-4.6517">
        <ele>83.7</ele>
        <time>2020-06-08T18:53:03Z</time>
      </trkpt>
      <trkpt lat="48.38928" lon="-4.65179">
        <ele>83.7</ele>
        <time>2020-06-08T18:53:04Z</time>
      </trkpt>
      <trkpt lat="48.38929" lon="-4.65188">
        <ele>83.7</ele>
        <time>2020-06-08T18:53:05Z</time>
      </trkpt>
      <trkpt lat="48.38931" lon="-4.65198">
        <ele>83.7</ele>
        <time>2020-06-08T18:53:06Z</time>
      </trkpt>
      <trkpt lat="48.38932" lon="-4.65208">
        <ele>83.7</ele>
        <time>2020-06-08T18:53:07Z</time>
      </trkpt>
      <trkpt lat="48.38933" lon="-4.65217">
        <ele>83.7</ele>
        <time>2020-06-08T18:53:08Z</time>
      </trkpt>
      <trkpt lat="48.38934" lon="-4.65225">
        <ele>83.7</ele>
        <time>2020-06-08T18:53:09Z</time>
      </trkpt>
      <trkpt lat="48.38935" lon="-4.65234">
        <ele>83.7</ele>
        <time>2020-06-08T18:53:10Z</time>
      </trkpt>
      <trkpt lat="48.38936" lon="-4.65244">
        <ele>83.6</ele>
        <time>2020-06-08T18:53:11Z</time>
      </trkpt>
      <trkpt lat="48.38936" lon="-4.65254">
        <ele>83.6</ele>
        <time>2020-06-08T18:53:12Z</time>
      </trkpt>
      <trkpt lat="48.38935" lon="-4.65263">
        <ele>83.6</ele>
        <time>2020-06-08T18:53:13Z</time>
      </trkpt>
      <trkpt lat="48.38936" lon="-4.65274">
        <ele>83.7</ele>
        <time>2020-06-08T18:53:14Z</time>
      </trkpt>
      <trkpt lat="48.38936" lon="-4.65284">
        <ele>83.7</ele>
        <time>2020-06-08T18:53:15Z</time>
      </trkpt>
      <trkpt lat="48.38937" lon="-4.6529">
        <ele>83.8</ele>
        <time>2020-06-08T18:53:16Z</time>
      </trkpt>
      <trkpt lat="48.38939" lon="-4.65297">
        <ele>83.9</ele>
        <time>2020-06-08T18:53:17Z</time>
      </trkpt>
      <trkpt lat="48.38939" lon="-4.65304">
        <ele>84</ele>
        <time>2020-06-08T18:53:18Z</time>
      </trkpt>
      <trkpt lat="48.38939" lon="-4.65312">
        <ele>84.1</ele>
        <time>2020-06-08T18:53:19Z</time>
      </trkpt>
      <trkpt lat="48.3894" lon="-4.65321">
        <ele>84.2</ele>
        <time>2020-06-08T18:53:20Z</time>
      </trkpt>
      <trkpt lat="48.38939" lon="-4.65328">
        <ele>84.3</ele>
        <time>2020-06-08T18:53:21Z</time>
      </trkpt>
      <trkpt lat="48.38939" lon="-4.65335">
        <ele>84.5</ele>
        <time>2020-06-08T18:53:22Z</time>
      </trkpt>
      <trkpt lat="48.38938" lon="-4.65342">
        <ele>84.6</ele>
        <time>2020-06-08T18:53:23Z</time>
      </trkpt>
      <trkpt lat="48.38939" lon="-4.6535">
        <ele>84.7</ele>
        <time>2020-06-08T18:53:24Z</time>
      </trkpt>
      <trkpt lat="48.38937" lon="-4.65356">
        <ele>84.8</ele>
        <time>2020-06-08T18:53:25Z</time>
      </trkpt>
      <trkpt lat="48.38936" lon="-4.65363">
        <ele>84.9</ele>
        <time>2020-06-08T18:53:26Z</time>
      </trkpt>
      <trkpt lat="48.38936" lon="-4.65372">
        <ele>85.1</ele>
        <time>2020-06-08T18:53:27Z</time>
      </trkpt>
      <trkpt lat="48.38936" lon="-4.65381">
        <ele>85.3</ele>
        <time>2020-06-08T18:53:28Z</time>
      </trkpt>
      <trkpt lat="48.38935" lon="-4.65389">
        <ele>85.4</ele>
        <time>2020-06-08T18:53:29Z</time>
      </trkpt>
      <trkpt lat="48.38934" lon="-4.65397">
        <ele>85.6</ele>
        <time>2020-06-08T18:53:30Z</time>
      </trkpt>
      <trkpt lat="48.38933" lon="-4.65406">
        <ele>85.8</ele>
        <time>2020-06-08T18:53:31Z</time>
      </trkpt>
      <trkpt lat="48.38931" lon="-4.65412">
        <ele>86</ele>
        <time>2020-06-08T18:53:32Z</time>
      </trkpt>
      <trkpt lat="48.3893" lon="-4.6542">
        <ele>86.2</ele>
        <time>2020-06-08T18:53:33Z</time>
      </trkpt>
      <trkpt lat="48.3893" lon="-4.65428">
        <ele>86.4</ele>
        <time>2020-06-08T18:53:34Z</time>
      </trkpt>
      <trkpt lat="48.38928" lon="-4.65434">
        <ele>86.6</ele>
        <time>2020-06-08T18:53:35Z</time>
      </trkpt>
      <trkpt lat="48.38928" lon="-4.65443">
        <ele>86.8</ele>
        <time>2020-06-08T18:53:36Z</time>
      </trkpt>
      <trkpt lat="48.38927" lon="-4.65449">
        <ele>87</ele>
        <time>2020-06-08T18:53:37Z</time>
      </trkpt>
      <trkpt lat="48.38926" lon="-4.65457">
        <ele>87.2</ele>
        <time>2020-06-08T18:53:38Z</time>
      </trkpt>
      <trkpt lat="48.38925" lon="-4.65464">
        <ele>87.4</ele>
        <time>2020-06-08T18:53:39Z</time>
      </trkpt>
      <trkpt lat="48.38924" lon="-4.65473">
        <ele>87.6</ele>
        <time>2020-06-08T18:53:40Z</time>
      </trkpt>
      <trkpt lat="48.38923" lon="-4.65481">
        <ele>87.9</ele>
        <time>2020-06-08T18:53:41Z</time>
      </trkpt>
      <trkpt lat="48.38922" lon="-4.65489">
        <ele>88.1</ele>
        <time>2020-06-08T18:53:42Z</time>
      </trkpt>
      <trkpt lat="48.3892" lon="-4.65496">
        <ele>88.3</ele>
        <time>2020-06-08T18:53:43Z</time>
      </trkpt>
      <trkpt lat="48.38919" lon="-4.65504">
        <ele>88.6</ele>
        <time>2020-06-08T18:53:44Z</time>
      </trkpt>
      <trkpt lat="48.38919" lon="-4.65511">
        <ele>88.8</ele>
        <time>2020-06-08T18:53:45Z</time>
      </trkpt>
      <trkpt lat="48.38918" lon="-4.65518">
        <ele>89</ele>
        <time>2020-06-08T18:53:46Z</time>
      </trkpt>
      <trkpt lat="48.38918" lon="-4.65525">
        <ele>89.2</ele>
        <time>2020-06-08T18:53:47Z</time>
      </trkpt>
      <trkpt lat="48.38917" lon="-4.65532">
        <ele>89.5</ele>
        <time>2020-06-08T18:53:48Z</time>
      </trkpt>
      <trkpt lat="48.38917" lon="-4.65538">
        <ele>89.7</ele>
        <time>2020-06-08T18:53:49Z</time>
      </trkpt>
      <trkpt lat="48.38917" lon="-4.65545">
        <ele>89.9</ele>
        <time>2020-06-08T18:53:50Z</time>
      </trkpt>
      <trkpt lat="48.38918" lon="-4.65553">
        <ele>90.2</ele>
        <time>2020-06-08T18:53:51Z</time>
      </trkpt>
      <trkpt lat="48.38919" lon="-4.6556">
        <ele>90.5</ele>
        <time>2020-06-08T18:53:52Z</time>
      </trkpt>
      <trkpt lat="48.38918" lon="-4.65566">
        <ele>90.7</ele>
        <time>2020-06-08T18:53:53Z</time>
      </trkpt>
      <trkpt lat="48.38918" lon="-4.65573">
        <ele>91</ele>
        <time>2020-06-08T18:53:54Z</time>
      </trkpt>
      <trkpt lat="48.38919" lon="-4.65578">
        <ele>91.2</ele>
        <time>2020-06-08T18:53:55Z</time>
      </trkpt>
      <trkpt lat="48.38919" lon="-4.65585">
        <ele>91.5</ele>
        <time>2020-06-08T18:53:56Z</time>
      </trkpt>
      <trkpt lat="48.38919" lon="-4.65592">
        <ele>91.8</ele>
        <time>2020-06-08T18:53:57Z</time>
      </trkpt>
      <trkpt lat="48.38921" lon="-4.65599">
        <ele>92.1</ele>
        <time>2020-06-08T18:53:58Z</time>
      </trkpt>
      <trkpt lat="48.38922" lon="-4.65605">
        <ele>92.3</ele>
        <time>2020-06-08T18:53:59Z</time>
      </trkpt>
      <trkpt lat="48.38923" lon="-4.6561">
        <ele>92.6</ele>
        <time>2020-06-08T18:54:00Z</time>
      </trkpt>
      <trkpt lat="48.38924" lon="-4.65616">
        <ele>92.9</ele>
        <time>2020-06-08T18:54:01Z</time>
      </trkpt>
      <trkpt lat="48.38926" lon="-4.65622">
        <ele>93.2</ele>
        <time>2020-06-08T18:54:02Z</time>
      </trkpt>
      <trkpt lat="48.38926" lon="-4.65627">
        <ele>93.4</ele>
        <time>2020-06-08T18:54:03Z</time>
      </trkpt>
      <trkpt lat="48.38927" lon="-4.65633">
        <ele>93.6</ele>
        <time>2020-06-08T18:54:04Z</time>
      </trkpt>
      <trkpt lat="48.38927" lon="-4.65637">
        <ele>93.8</ele>
        <time>2020-06-08T18:54:05Z</time>
      </trkpt>
      <trkpt lat="48.38929" lon="-4.65642">
        <ele>94.1</ele>
        <time>2020-06-08T18:54:06Z</time>
      </trkpt>
      <trkpt lat="48.38931" lon="-4.65649">
        <ele>94.4</ele>
        <time>2020-06-08T18:54:07Z</time>
      </trkpt>
      <trkpt lat="48.38933" lon="-4.65655">
        <ele>94.6</ele>
        <time>2020-06-08T18:54:08Z</time>
      </trkpt>
      <trkpt lat="48.38935" lon="-4.65661">
        <ele>94.9</ele>
        <time>2020-06-08T18:54:09Z</time>
      </trkpt>
      <trkpt lat="48.38935" lon="-4.65667">
        <ele>95.1</ele>
        <time>2020-06-08T18:54:10Z</time>
      </trkpt>
      <trkpt lat="48.38937" lon="-4.65673">
        <ele>95.4</ele>
        <time>2020-06-08T18:54:11Z</time>
      </trkpt>
      <trkpt lat="48.38938" lon="-4.6568">
        <ele>95.6</ele>
        <time>2020-06-08T18:54:12Z</time>
      </trkpt>
      <trkpt lat="48.38939" lon="-4.65685">
        <ele>95.8</ele>
        <time>2020-06-08T18:54:13Z</time>
      </trkpt>
      <trkpt lat="48.3894" lon="-4.65691">
        <ele>96</ele>
        <time>2020-06-08T18:54:14Z</time>
      </trkpt>
      <trkpt lat="48.38941" lon="-4.65698">
        <ele>96.2</ele>
        <time>2020-06-08T18:54:15Z</time>
      </trkpt>
      <trkpt lat="48.38943" lon="-4.65704">
        <ele>96.5</ele>
        <time>2020-06-08T18:54:16Z</time>
      </trkpt>
      <trkpt lat="48.38945" lon="-4.6571">
        <ele>96.7</ele>
        <time>2020-06-08T18:54:17Z</time>
      </trkpt>
      <trkpt lat="48.38947" lon="-4.65715">
        <ele>96.9</ele>
        <time>2020-06-08T18:54:18Z</time>
      </trkpt>
      <trkpt lat="48.38947" lon="-4.6572">
        <ele>97</ele>
        <time>2020-06-08T18:54:19Z</time>
      </trkpt>
      <trkpt lat="48.38948" lon="-4.65726">
        <ele>97.3</ele>
        <time>2020-06-08T18:54:20Z</time>
      </trkpt>
      <trkpt lat="48.38949" lon="-4.65729">
        <ele>97.4</ele>
        <time>2020-06-08T18:54:21Z</time>
      </trkpt>
      <trkpt lat="48.3895" lon="-4.65735">
        <ele>97.6</ele>
        <time>2020-06-08T18:54:22Z</time>
      </trkpt>
      <trkpt lat="48.38951" lon="-4.6574">
        <ele>97.8</ele>
        <time>2020-06-08T18:54:23Z</time>
      </trkpt>
      <trkpt lat="48.38952" lon="-4.65745">
        <ele>97.9</ele>
        <time>2020-06-08T18:54:24Z</time>
      </trkpt>
      <trkpt lat="48.38953" lon="-4.65749">
        <ele>98</ele>
        <time>2020-06-08T18:54:25Z</time>
      </trkpt>
      <trkpt lat="48.38954" lon="-4.65754">
        <ele>98.2</ele>
        <time>2020-06-08T18:54:26Z</time>
      </trkpt>
      <trkpt lat="48.38956" lon="-4.65759">
        <ele>98.4</ele>
        <time>2020-06-08T18:54:27Z</time>
      </trkpt>
      <trkpt lat="48.38957" lon="-4.65766">
        <ele>98.6</ele>
        <time>2020-06-08T18:54:28Z</time>
      </trkpt>
      <trkpt lat="48.38958" lon="-4.65768">
        <ele>98.6</ele>
        <time>2020-06-08T18:54:29Z</time>
      </trkpt>
      <trkpt lat="48.3896" lon="-4.65774">
        <ele>98.8</ele>
        <time>2020-06-08T18:54:30Z</time>
      </trkpt>
      <trkpt lat="48.38961" lon="-4.6578">
        <ele>98.9</ele>
        <time>2020-06-08T18:54:31Z</time>
      </trkpt>
      <trkpt lat="48.38961" lon="-4.65787">
        <ele>99.1</ele>
        <time>2020-06-08T18:54:32Z</time>
      </trkpt>
      <trkpt lat="48.38963" lon="-4.65793">
        <ele>99.2</ele>
        <time>2020-06-08T18:54:33Z</time>
      </trkpt>
      <trkpt lat="48.38963" lon="-4.65799">
        <ele>99.3</ele>
        <time>2020-06-08T18:54:34Z</time>
      </trkpt>
      <trkpt lat="48.38964" lon="-4.65806">
        <ele>99.4</ele>
        <time>2020-06-08T18:54:35Z</time>
      </trkpt>
      <trkpt lat="48.38965" lon="-4.65812">
        <ele>99.6</ele>
        <time>2020-06-08T18:54:36Z</time>
      </trkpt>
      <trkpt lat="48.38966" lon="-4.65817">
        <ele>99.6</ele>
        <time>2020-06-08T18:54:37Z</time>
      </trkpt>
      <trkpt lat="48.38966" lon="-4.65823">
        <ele>99.7</ele>
        <time>2020-06-08T18:54:38Z</time>
      </trkpt>
      <trkpt lat="48.38967" lon="-4.65829">
        <ele>99.8</ele>
        <time>2020-06-08T18:54:39Z</time>
      </trkpt>
      <trkpt lat="48.38967" lon="-4.65833">
        <ele>99.9</ele>
        <time>2020-06-08T18:54:40Z</time>
      </trkpt>
      <trkpt lat="48.38967" lon="-4.65839">
        <ele>100</ele>
        <time>2020-06-08T18:54:41Z</time>
      </trkpt>
      <trkpt lat="48.38968" lon="-4.65845">
        <ele>100</ele>
        <time>2020-06-08T18:54:42Z</time>
      </trkpt>
      <trkpt lat="48.38967" lon="-4.6585">
        <ele>100.1</ele>
        <time>2020-06-08T18:54:43Z</time>
      </trkpt>
      <trkpt lat="48.38967" lon="-4.65856">
        <ele>100.2</ele>
        <time>2020-06-08T18:54:44Z</time>
      </trkpt>
      <trkpt lat="48.38967" lon="-4.65863">
        <ele>100.3</ele>
        <time>2020-06-08T18:54:45Z</time>
      </trkpt>
      <trkpt lat="48.38967" lon="-4.65871">
        <ele>100.4</ele>
        <time>2020-06-08T18:54:46Z</time>
      </trkpt>
      <trkpt lat="48.38967" lon="-4.65877">
        <ele>100.4</ele>
        <time>2020-06-08T18:54:47Z</time>
      </trkpt>
      <trkpt lat="48.38968" lon="-4.65884">
        <ele>100.5</ele>
        <time>2020-06-08T18:54:48Z</time>
      </trkpt>
      <trkpt lat="48.38968" lon="-4.6589">
        <ele>100.5</ele>
        <time>2020-06-08T18:54:49Z</time>
      </trkpt>
      <trkpt lat="48.38967" lon="-4.65896">
        <ele>100.6</ele>
        <time>2020-06-08T18:54:50Z</time>
      </trkpt>
      <trkpt lat="48.38967" lon="-4.65902">
        <ele>100.6</ele>
        <time>2020-06-08T18:54:51Z</time>
      </trkpt>
      <trkpt lat="48.38967" lon="-4.65906">
        <ele>100.6</ele>
        <time>2020-06-08T18:54:52Z</time>
      </trkpt>
      <trkpt lat="48.38967" lon="-4.65913">
        <ele>100.6</ele>
        <time>2020-06-08T18:54:53Z</time>
      </trkpt>
      <trkpt lat="48.38968" lon="-4.6592">
        <ele>100.6</ele>
        <time>2020-06-08T18:54:54Z</time>
      </trkpt>
      <trkpt lat="48.38967" lon="-4.65925">
        <ele>100.6</ele>
        <time>2020-06-08T18:54:55Z</time>
      </trkpt>
      <trkpt lat="48.38968" lon="-4.65934">
        <ele>100.6</ele>
        <time>2020-06-08T18:54:56Z</time>
      </trkpt>
      <trkpt lat="48.38969" lon="-4.6594">
        <ele>100.6</ele>
        <time>2020-06-08T18:54:57Z</time>
      </trkpt>
      <trkpt lat="48.38969" lon="-4.65945">
        <ele>100.6</ele>
        <time>2020-06-08T18:54:58Z</time>
      </trkpt>
      <trkpt lat="48.38971" lon="-4.65954">
        <ele>100.5</ele>
        <time>2020-06-08T18:54:59Z</time>
      </trkpt>
      <trkpt lat="48.38972" lon="-4.65959">
        <ele>100.5</ele>
        <time>2020-06-08T18:55:00Z</time>
      </trkpt>
      <trkpt lat="48.38975" lon="-4.65962">
        <ele>100.5</ele>
        <time>2020-06-08T18:55:01Z</time>
      </trkpt>
      <trkpt lat="48.38976" lon="-4.65969">
        <ele>100.5</ele>
        <time>2020-06-08T18:55:02Z</time>
      </trkpt>
      <trkpt lat="48.38977" lon="-4.65977">
        <ele>100.5</ele>
        <time>2020-06-08T18:55:03Z</time>
      </trkpt>
      <trkpt lat="48.38979" lon="-4.65985">
        <ele>100.4</ele>
        <time>2020-06-08T18:55:04Z</time>
      </trkpt>
      <trkpt lat="48.3898" lon="-4.65991">
        <ele>100.4</ele>
        <time>2020-06-08T18:55:05Z</time>
      </trkpt>
      <trkpt lat="48.38982" lon="-4.65998">
        <ele>100.4</ele>
        <time>2020-06-08T18:55:06Z</time>
      </trkpt>
      <trkpt lat="48.38983" lon="-4.66004">
        <ele>100.3</ele>
        <time>2020-06-08T18:55:07Z</time>
      </trkpt>
      <trkpt lat="48.38984" lon="-4.6601">
        <ele>100.3</ele>
        <time>2020-06-08T18:55:08Z</time>
      </trkpt>
      <trkpt lat="48.38984" lon="-4.66015">
        <ele>100.3</ele>
        <time>2020-06-08T18:55:09Z</time>
      </trkpt>
      <trkpt lat="48.38986" lon="-4.66022">
        <ele>100.2</ele>
        <time>2020-06-08T18:55:10Z</time>
      </trkpt>
      <trkpt lat="48.38989" lon="-4.66028">
        <ele>100.2</ele>
        <time>2020-06-08T18:55:11Z</time>
      </trkpt>
      <trkpt lat="48.3899" lon="-4.66033">
        <ele>100.1</ele>
        <time>2020-06-08T18:55:12Z</time>
      </trkpt>
      <trkpt lat="48.38992" lon="-4.66038">
        <ele>100.1</ele>
        <time>2020-06-08T18:55:13Z</time>
      </trkpt>
      <trkpt lat="48.38994" lon="-4.66043">
        <ele>100.1</ele>
        <time>2020-06-08T18:55:14Z</time>
      </trkpt>
      <trkpt lat="48.38997" lon="-4.66048">
        <ele>100</ele>
        <time>2020-06-08T18:55:15Z</time>
      </trkpt>
      <trkpt lat="48.39" lon="-4.66053">
        <ele>100</ele>
        <time>2020-06-08T18:55:16Z</time>
      </trkpt>
      <trkpt lat="48.39002" lon="-4.66058">
        <ele>100</ele>
        <time>2020-06-08T18:55:17Z</time>
      </trkpt>
      <trkpt lat="48.39005" lon="-4.66063">
        <ele>99.9</ele>
        <time>2020-06-08T18:55:18Z</time>
      </trkpt>
      <trkpt lat="48.39007" lon="-4.6607">
        <ele>99.9</ele>
        <time>2020-06-08T18:55:19Z</time>
      </trkpt>
      <trkpt lat="48.39008" lon="-4.66075">
        <ele>99.8</ele>
        <time>2020-06-08T18:55:20Z</time>
      </trkpt>
      <trkpt lat="48.3901" lon="-4.66079">
        <ele>99.8</ele>
        <time>2020-06-08T18:55:21Z</time>
      </trkpt>
      <trkpt lat="48.39012" lon="-4.66083">
        <ele>99.8</ele>
        <time>2020-06-08T18:55:22Z</time>
      </trkpt>
      <trkpt lat="48.39014" lon="-4.66087">
        <ele>99.7</ele>
        <time>2020-06-08T18:55:23Z</time>
      </trkpt>
      <trkpt lat="48.39016" lon="-4.6609">
        <ele>99.7</ele>
        <time>2020-06-08T18:55:24Z</time>
      </trkpt>
      <trkpt lat="48.39018" lon="-4.66095">
        <ele>99.7</ele>
        <time>2020-06-08T18:55:25Z</time>
      </trkpt>
      <trkpt lat="48.39019" lon="-4.66097">
        <ele>99.7</ele>
        <time>2020-06-08T18:55:26Z</time>
      </trkpt>
      <trkpt lat="48.39022" lon="-4.66101">
        <ele>99.7</ele>
        <time>2020-06-08T18:55:27Z</time>
      </trkpt>
      <trkpt lat="48.39024" lon="-4.66105">
        <ele>99.6</ele>
        <time>2020-06-08T18:55:28Z</time>
      </trkpt>
      <trkpt lat="48.39025" lon="-4.66106">
        <ele>99.6</ele>
        <time>2020-06-08T18:55:29Z</time>
      </trkpt>
      <trkpt lat="48.39027" lon="-4.6611">
        <ele>99.6</ele>
        <time>2020-06-08T18:55:30Z</time>
      </trkpt>
      <trkpt lat="48.39028" lon="-4.66112">
        <ele>99.6</ele>
        <time>2020-06-08T18:55:31Z</time>
      </trkpt>
      <trkpt lat="48.39027" lon="-4.66117">
        <ele>99.5</ele>
        <time>2020-06-08T18:55:32Z</time>
      </trkpt>
      <trkpt lat="48.39026" lon="-4.66118">
        <ele>99.5</ele>
        <time>2020-06-08T18:55:33Z</time>
      </trkpt>
      <trkpt lat="48.39026" lon="-4.66121">
        <ele>99.5</ele>
        <time>2020-06-08T18:55:34Z</time>
      </trkpt>
      <trkpt lat="48.39025" lon="-4.66123">
        <ele>99.5</ele>
        <time>2020-06-08T18:55:35Z</time>
      </trkpt>
      <trkpt lat="48.39024" lon="-4.66125">
        <ele>99.5</ele>
        <time>2020-06-08T18:55:36Z</time>
      </trkpt>
      <trkpt lat="48.39024" lon="-4.66127">
        <ele>99.5</ele>
        <time>2020-06-08T18:55:37Z</time>
      </trkpt>
      <trkpt lat="48.39025" lon="-4.66128">
        <ele>99.5</ele>
        <time>2020-06-08T18:55:38Z</time>
      </trkpt>
      <trkpt lat="48.39025" lon="-4.66129">
        <ele>99.5</ele>
        <time>2020-06-08T18:55:39Z</time>
      </trkpt>
      <trkpt lat="48.39025" lon="-4.66131">
        <ele>99.5</ele>
        <time>2020-06-08T18:55:40Z</time>
      </trkpt>
      <trkpt lat="48.39025" lon="-4.66132">
        <ele>99.5</ele>
        <time>2020-06-08T18:55:41Z</time>
      </trkpt>
      <trkpt lat="48.39026" lon="-4.66133">
        <ele>99.5</ele>
        <time>2020-06-08T18:55:42Z</time>
      </trkpt>
      <trkpt lat="48.39026" lon="-4.66135">
        <ele>99.5</ele>
        <time>2020-06-08T18:55:43Z</time>
      </trkpt>
      <trkpt lat="48.39026" lon="-4.66136">
        <ele>99.5</ele>
        <time>2020-06-08T18:55:44Z</time>
      </trkpt>
      <trkpt lat="48.39026" lon="-4.66137">
        <ele>99.5</ele>
        <time>2020-06-08T18:55:45Z</time>
      </trkpt>
      <trkpt lat="48.39026" lon="-4.66139">
        <ele>99.4</ele>
        <time>2020-06-08T18:55:46Z</time>
      </trkpt>
      <trkpt lat="48.39027" lon="-4.6614">
        <ele>99.4</ele>
        <time>2020-06-08T18:55:47Z</time>
      </trkpt>
      <trkpt lat="48.39027" lon="-4.66141">
        <ele>99.4</ele>
        <time>2020-06-08T18:56:10Z</time>
      </trkpt>
      <trkpt lat="48.39027" lon="-4.66142">
        <ele>99.4</ele>
        <time>2020-06-08T18:56:11Z</time>
      </trkpt>
      <trkpt lat="48.39028" lon="-4.6615">
        <ele>99.4</ele>
        <time>2020-06-08T18:56:12Z</time>
      </trkpt>
      <trkpt lat="48.3903" lon="-4.66159">
        <ele>99.5</ele>
        <time>2020-06-08T18:56:13Z</time>
      </trkpt>
      <trkpt lat="48.39031" lon="-4.66168">
        <ele>99.5</ele>
        <time>2020-06-08T18:56:14Z</time>
      </trkpt>
      <trkpt lat="48.39031" lon="-4.66177">
        <ele>99.5</ele>
        <time>2020-06-08T18:56:15Z</time>
      </trkpt>
      <trkpt lat="48.39031" lon="-4.66186">
        <ele>99.5</ele>
        <time>2020-06-08T18:56:16Z</time>
      </trkpt>
      <trkpt lat="48.39032" lon="-4.66197">
        <ele>99.5</ele>
        <time>2020-06-08T18:56:17Z</time>
      </trkpt>
      <trkpt lat="48.39033" lon="-4.66207">
        <ele>99.5</ele>
        <time>2020-06-08T18:56:18Z</time>
      </trkpt>
      <trkpt lat="48.39035" lon="-4.66213">
        <ele>99.5</ele>
        <time>2020-06-08T18:56:19Z</time>
      </trkpt>
      <trkpt lat="48.39036" lon="-4.66221">
        <ele>99.4</ele>
        <time>2020-06-08T18:56:20Z</time>
      </trkpt>
      <trkpt lat="48.39038" lon="-4.66229">
        <ele>99.3</ele>
        <time>2020-06-08T18:56:21Z</time>
      </trkpt>
      <trkpt lat="48.39039" lon="-4.66237">
        <ele>99.3</ele>
        <time>2020-06-08T18:56:22Z</time>
      </trkpt>
      <trkpt lat="48.39041" lon="-4.66247">
        <ele>99.2</ele>
        <time>2020-06-08T18:56:23Z</time>
      </trkpt>
      <trkpt lat="48.39042" lon="-4.66256">
        <ele>99.1</ele>
        <time>2020-06-08T18:56:24Z</time>
      </trkpt>
      <trkpt lat="48.39044" lon="-4.66266">
        <ele>99</ele>
        <time>2020-06-08T18:56:25Z</time>
      </trkpt>
      <trkpt lat="48.39044" lon="-4.66275">
        <ele>98.9</ele>
        <time>2020-06-08T18:56:26Z</time>
      </trkpt>
      <trkpt lat="48.39046" lon="-4.66286">
        <ele>98.8</ele>
        <time>2020-06-08T18:56:27Z</time>
      </trkpt>
      <trkpt lat="48.39047" lon="-4.66295">
        <ele>98.7</ele>
        <time>2020-06-08T18:56:28Z</time>
      </trkpt>
      <trkpt lat="48.39049" lon="-4.66303">
        <ele>98.6</ele>
        <time>2020-06-08T18:56:29Z</time>
      </trkpt>
      <trkpt lat="48.39051" lon="-4.66311">
        <ele>98.6</ele>
        <time>2020-06-08T18:56:30Z</time>
      </trkpt>
      <trkpt lat="48.39052" lon="-4.6632">
        <ele>98.5</ele>
        <time>2020-06-08T18:56:31Z</time>
      </trkpt>
      <trkpt lat="48.39054" lon="-4.66327">
        <ele>98.5</ele>
        <time>2020-06-08T18:56:32Z</time>
      </trkpt>
      <trkpt lat="48.39055" lon="-4.66336">
        <ele>98.4</ele>
        <time>2020-06-08T18:56:33Z</time>
      </trkpt>
      <trkpt lat="48.39057" lon="-4.66346">
        <ele>98.4</ele>
        <time>2020-06-08T18:56:34Z</time>
      </trkpt>
      <trkpt lat="48.39058" lon="-4.66355">
        <ele>98.3</ele>
        <time>2020-06-08T18:56:35Z</time>
      </trkpt>
      <trkpt lat="48.39059" lon="-4.66364">
        <ele>98.3</ele>
        <time>2020-06-08T18:56:36Z</time>
      </trkpt>
      <trkpt lat="48.3906" lon="-4.66371">
        <ele>98.2</ele>
        <time>2020-06-08T18:56:37Z</time>
      </trkpt>
      <trkpt lat="48.39061" lon="-4.66379">
        <ele>98.2</ele>
        <time>2020-06-08T18:56:38Z</time>
      </trkpt>
      <trkpt lat="48.39064" lon="-4.6639">
        <ele>98.2</ele>
        <time>2020-06-08T18:56:39Z</time>
      </trkpt>
      <trkpt lat="48.39065" lon="-4.66398">
        <ele>98.1</ele>
        <time>2020-06-08T18:56:40Z</time>
      </trkpt>
      <trkpt lat="48.39067" lon="-4.66407">
        <ele>98.1</ele>
        <time>2020-06-08T18:56:41Z</time>
      </trkpt>
      <trkpt lat="48.39068" lon="-4.66415">
        <ele>98</ele>
        <time>2020-06-08T18:56:42Z</time>
      </trkpt>
      <trkpt lat="48.3907" lon="-4.66426">
        <ele>98</ele>
        <time>2020-06-08T18:56:43Z</time>
      </trkpt>
      <trkpt lat="48.39071" lon="-4.66431">
        <ele>97.9</ele>
        <time>2020-06-08T18:56:44Z</time>
      </trkpt>
      <trkpt lat="48.39073" lon="-4.6644">
        <ele>97.9</ele>
        <time>2020-06-08T18:56:45Z</time>
      </trkpt>
      <trkpt lat="48.39074" lon="-4.66449">
        <ele>97.9</ele>
        <time>2020-06-08T18:56:46Z</time>
      </trkpt>
      <trkpt lat="48.39076" lon="-4.66458">
        <ele>97.8</ele>
        <time>2020-06-08T18:56:47Z</time>
      </trkpt>
      <trkpt lat="48.39076" lon="-4.66466">
        <ele>97.8</ele>
        <time>2020-06-08T18:56:48Z</time>
      </trkpt>
      <trkpt lat="48.39078" lon="-4.66474">
        <ele>97.8</ele>
        <time>2020-06-08T18:56:49Z</time>
      </trkpt>
      <trkpt lat="48.39079" lon="-4.66482">
        <ele>97.7</ele>
        <time>2020-06-08T18:56:50Z</time>
      </trkpt>
      <trkpt lat="48.39081" lon="-4.66491">
        <ele>97.7</ele>
        <time>2020-06-08T18:56:51Z</time>
      </trkpt>
      <trkpt lat="48.39083" lon="-4.665">
        <ele>97.7</ele>
        <time>2020-06-08T18:56:52Z</time>
      </trkpt>
      <trkpt lat="48.39084" lon="-4.66508">
        <ele>97.6</ele>
        <time>2020-06-08T18:56:53Z</time>
      </trkpt>
      <trkpt lat="48.39086" lon="-4.66516">
        <ele>97.6</ele>
        <time>2020-06-08T18:56:54Z</time>
      </trkpt>
      <trkpt lat="48.39087" lon="-4.66525">
        <ele>97.6</ele>
        <time>2020-06-08T18:56:55Z</time>
      </trkpt>
      <trkpt lat="48.39088" lon="-4.66534">
        <ele>97.6</ele>
        <time>2020-06-08T18:56:56Z</time>
      </trkpt>
      <trkpt lat="48.39089" lon="-4.66543">
        <ele>97.6</ele>
        <time>2020-06-08T18:56:57Z</time>
      </trkpt>
      <trkpt lat="48.39091" lon="-4.66554">
        <ele>97.6</ele>
        <time>2020-06-08T18:56:58Z</time>
      </trkpt>
      <trkpt lat="48.39092" lon="-4.66563">
        <ele>97.5</ele>
        <time>2020-06-08T18:56:59Z</time>
      </trkpt>
      <trkpt lat="48.39093" lon="-4.66572">
        <ele>97.5</ele>
        <time>2020-06-08T18:57:00Z</time>
      </trkpt>
      <trkpt lat="48.39094" lon="-4.66581">
        <ele>97.4</ele>
        <time>2020-06-08T18:57:01Z</time>
      </trkpt>
      <trkpt lat="48.39095" lon="-4.6659">
        <ele>97.4</ele>
        <time>2020-06-08T18:57:02Z</time>
      </trkpt>
      <trkpt lat="48.39095" lon="-4.66599">
        <ele>97.3</ele>
        <time>2020-06-08T18:57:03Z</time>
      </trkpt>
      <trkpt lat="48.39097" lon="-4.66608">
        <ele>97.3</ele>
        <time>2020-06-08T18:57:04Z</time>
      </trkpt>
      <trkpt lat="48.39098" lon="-4.66617">
        <ele>97.3</ele>
        <time>2020-06-08T18:57:05Z</time>
      </trkpt>
      <trkpt lat="48.39099" lon="-4.66624">
        <ele>97.2</ele>
        <time>2020-06-08T18:57:06Z</time>
      </trkpt>
      <trkpt lat="48.39101" lon="-4.66633">
        <ele>97.2</ele>
        <time>2020-06-08T18:57:07Z</time>
      </trkpt>
      <trkpt lat="48.39102" lon="-4.66642">
        <ele>97.2</ele>
        <time>2020-06-08T18:57:08Z</time>
      </trkpt>
      <trkpt lat="48.39102" lon="-4.66649">
        <ele>97.1</ele>
        <time>2020-06-08T18:57:09Z</time>
      </trkpt>
      <trkpt lat="48.39104" lon="-4.6666">
        <ele>97.1</ele>
        <time>2020-06-08T18:57:10Z</time>
      </trkpt>
      <trkpt lat="48.39105" lon="-4.66669">
        <ele>97</ele>
        <time>2020-06-08T18:57:11Z</time>
      </trkpt>
      <trkpt lat="48.39105" lon="-4.66676">
        <ele>97</ele>
        <time>2020-06-08T18:57:12Z</time>
      </trkpt>
      <trkpt lat="48.39107" lon="-4.66687">
        <ele>96.9</ele>
        <time>2020-06-08T18:57:13Z</time>
      </trkpt>
      <trkpt lat="48.39107" lon="-4.66693">
        <ele>96.9</ele>
        <time>2020-06-08T18:57:14Z</time>
      </trkpt>
      <trkpt lat="48.39107" lon="-4.66702">
        <ele>96.9</ele>
        <time>2020-06-08T18:57:15Z</time>
      </trkpt>
      <trkpt lat="48.39108" lon="-4.66711">
        <ele>96.9</ele>
        <time>2020-06-08T18:57:16Z</time>
      </trkpt>
      <trkpt lat="48.39108" lon="-4.66721">
        <ele>96.8</ele>
        <time>2020-06-08T18:57:17Z</time>
      </trkpt>
      <trkpt lat="48.39107" lon="-4.66729">
        <ele>96.6</ele>
        <time>2020-06-08T18:57:18Z</time>
      </trkpt>
      <trkpt lat="48.39107" lon="-4.6674">
        <ele>96.4</ele>
        <time>2020-06-08T18:57:19Z</time>
      </trkpt>
      <trkpt lat="48.39105" lon="-4.6675">
        <ele>96.2</ele>
        <time>2020-06-08T18:57:20Z</time>
      </trkpt>
      <trkpt lat="48.39103" lon="-4.6676">
        <ele>96</ele>
        <time>2020-06-08T18:57:21Z</time>
      </trkpt>
      <trkpt lat="48.39102" lon="-4.66769">
        <ele>95.9</ele>
        <time>2020-06-08T18:57:22Z</time>
      </trkpt>
      <trkpt lat="48.39099" lon="-4.66775">
        <ele>95.8</ele>
        <time>2020-06-08T18:57:23Z</time>
      </trkpt>
      <trkpt lat="48.39098" lon="-4.66786">
        <ele>95.6</ele>
        <time>2020-06-08T18:57:24Z</time>
      </trkpt>
      <trkpt lat="48.39098" lon="-4.66795">
        <ele>95.5</ele>
        <time>2020-06-08T18:57:25Z</time>
      </trkpt>
      <trkpt lat="48.39097" lon="-4.66805">
        <ele>95.3</ele>
        <time>2020-06-08T18:57:26Z</time>
      </trkpt>
      <trkpt lat="48.39095" lon="-4.66814">
        <ele>95.2</ele>
        <time>2020-06-08T18:57:27Z</time>
      </trkpt>
      <trkpt lat="48.39093" lon="-4.66822">
        <ele>95.1</ele>
        <time>2020-06-08T18:57:28Z</time>
      </trkpt>
      <trkpt lat="48.39092" lon="-4.66831">
        <ele>95</ele>
        <time>2020-06-08T18:57:29Z</time>
      </trkpt>
      <trkpt lat="48.3909" lon="-4.6684">
        <ele>94.8</ele>
        <time>2020-06-08T18:57:30Z</time>
      </trkpt>
      <trkpt lat="48.39088" lon="-4.66851">
        <ele>94.7</ele>
        <time>2020-06-08T18:57:31Z</time>
      </trkpt>
      <trkpt lat="48.39087" lon="-4.6686">
        <ele>94.6</ele>
        <time>2020-06-08T18:57:32Z</time>
      </trkpt>
      <trkpt lat="48.39085" lon="-4.66871">
        <ele>94.4</ele>
        <time>2020-06-08T18:57:33Z</time>
      </trkpt>
      <trkpt lat="48.39084" lon="-4.66882">
        <ele>94.2</ele>
        <time>2020-06-08T18:57:34Z</time>
      </trkpt>
      <trkpt lat="48.39084" lon="-4.66894">
        <ele>94.1</ele>
        <time>2020-06-08T18:57:35Z</time>
      </trkpt>
      <trkpt lat="48.39083" lon="-4.66905">
        <ele>93.9</ele>
        <time>2020-06-08T18:57:36Z</time>
      </trkpt>
      <trkpt lat="48.39084" lon="-4.66914">
        <ele>93.8</ele>
        <time>2020-06-08T18:57:37Z</time>
      </trkpt>
      <trkpt lat="48.39084" lon="-4.66925">
        <ele>93.7</ele>
        <time>2020-06-08T18:57:38Z</time>
      </trkpt>
      <trkpt lat="48.39085" lon="-4.66935">
        <ele>93.6</ele>
        <time>2020-06-08T18:57:39Z</time>
      </trkpt>
      <trkpt lat="48.39086" lon="-4.66945">
        <ele>93.5</ele>
        <time>2020-06-08T18:57:40Z</time>
      </trkpt>
      <trkpt lat="48.39086" lon="-4.66955">
        <ele>93.4</ele>
        <time>2020-06-08T18:57:41Z</time>
      </trkpt>
      <trkpt lat="48.39087" lon="-4.66964">
        <ele>93.3</ele>
        <time>2020-06-08T18:57:42Z</time>
      </trkpt>
      <trkpt lat="48.39088" lon="-4.66974">
        <ele>93.3</ele>
        <time>2020-06-08T18:57:43Z</time>
      </trkpt>
      <trkpt lat="48.39088" lon="-4.66985">
        <ele>93.2</ele>
        <time>2020-06-08T18:57:44Z</time>
      </trkpt>
      <trkpt lat="48.39088" lon="-4.66995">
        <ele>93.2</ele>
        <time>2020-06-08T18:57:45Z</time>
      </trkpt>
      <trkpt lat="48.39088" lon="-4.67004">
        <ele>93.2</ele>
        <time>2020-06-08T18:57:46Z</time>
      </trkpt>
      <trkpt lat="48.39089" lon="-4.67016">
        <ele>93.2</ele>
        <time>2020-06-08T18:57:47Z</time>
      </trkpt>
      <trkpt lat="48.39089" lon="-4.67026">
        <ele>93.2</ele>
        <time>2020-06-08T18:57:48Z</time>
      </trkpt>
      <trkpt lat="48.39089" lon="-4.67035">
        <ele>93.2</ele>
        <time>2020-06-08T18:57:49Z</time>
      </trkpt>
      <trkpt lat="48.39091" lon="-4.67043">
        <ele>93.2</ele>
        <time>2020-06-08T18:57:50Z</time>
      </trkpt>
      <trkpt lat="48.39092" lon="-4.6705">
        <ele>93.2</ele>
        <time>2020-06-08T18:57:51Z</time>
      </trkpt>
      <trkpt lat="48.39093" lon="-4.67056">
        <ele>93.3</ele>
        <time>2020-06-08T18:57:52Z</time>
      </trkpt>
      <trkpt lat="48.39095" lon="-4.67063">
        <ele>93.3</ele>
        <time>2020-06-08T18:57:53Z</time>
      </trkpt>
      <trkpt lat="48.39096" lon="-4.6707">
        <ele>93.3</ele>
        <time>2020-06-08T18:57:54Z</time>
      </trkpt>
      <trkpt lat="48.39097" lon="-4.67077">
        <ele>93.2</ele>
        <time>2020-06-08T18:57:55Z</time>
      </trkpt>
      <trkpt lat="48.39098" lon="-4.67083">
        <ele>93.1</ele>
        <time>2020-06-08T18:57:56Z</time>
      </trkpt>
      <trkpt lat="48.39099" lon="-4.6709">
        <ele>92.9</ele>
        <time>2020-06-08T18:57:57Z</time>
      </trkpt>
      <trkpt lat="48.391" lon="-4.67097">
        <ele>92.7</ele>
        <time>2020-06-08T18:57:58Z</time>
      </trkpt>
      <trkpt lat="48.39102" lon="-4.67104">
        <ele>92.5</ele>
        <time>2020-06-08T18:57:59Z</time>
      </trkpt>
      <trkpt lat="48.39104" lon="-4.67111">
        <ele>92.4</ele>
        <time>2020-06-08T18:58:00Z</time>
      </trkpt>
      <trkpt lat="48.39107" lon="-4.67118">
        <ele>92.2</ele>
        <time>2020-06-08T18:58:01Z</time>
      </trkpt>
      <trkpt lat="48.39109" lon="-4.67125">
        <ele>92.1</ele>
        <time>2020-06-08T18:58:02Z</time>
      </trkpt>
      <trkpt lat="48.39112" lon="-4.67133">
        <ele>91.9</ele>
        <time>2020-06-08T18:58:03Z</time>
      </trkpt>
      <trkpt lat="48.39113" lon="-4.67141">
        <ele>91.8</ele>
        <time>2020-06-08T18:58:04Z</time>
      </trkpt>
      <trkpt lat="48.39115" lon="-4.67149">
        <ele>91.7</ele>
        <time>2020-06-08T18:58:05Z</time>
      </trkpt>
      <trkpt lat="48.39116" lon="-4.67157">
        <ele>91.7</ele>
        <time>2020-06-08T18:58:06Z</time>
      </trkpt>
      <trkpt lat="48.39114" lon="-4.67165">
        <ele>91.6</ele>
        <time>2020-06-08T18:58:07Z</time>
      </trkpt>
      <trkpt lat="48.39115" lon="-4.67173">
        <ele>91.5</ele>
        <time>2020-06-08T18:58:08Z</time>
      </trkpt>
      <trkpt lat="48.39115" lon="-4.67181">
        <ele>91.4</ele>
        <time>2020-06-08T18:58:09Z</time>
      </trkpt>
      <trkpt lat="48.39116" lon="-4.67188">
        <ele>91.3</ele>
        <time>2020-06-08T18:58:10Z</time>
      </trkpt>
      <trkpt lat="48.39116" lon="-4.67195">
        <ele>91.2</ele>
        <time>2020-06-08T18:58:11Z</time>
      </trkpt>
      <trkpt lat="48.39113" lon="-4.67201">
        <ele>91.2</ele>
        <time>2020-06-08T18:58:12Z</time>
      </trkpt>
      <trkpt lat="48.39112" lon="-4.67208">
        <ele>91.1</ele>
        <time>2020-06-08T18:58:13Z</time>
      </trkpt>
      <trkpt lat="48.39111" lon="-4.67215">
        <ele>91</ele>
        <time>2020-06-08T18:58:14Z</time>
      </trkpt>
      <trkpt lat="48.3911" lon="-4.67222">
        <ele>90.9</ele>
        <time>2020-06-08T18:58:15Z</time>
      </trkpt>
      <trkpt lat="48.39109" lon="-4.6723">
        <ele>90.8</ele>
        <time>2020-06-08T18:58:16Z</time>
      </trkpt>
      <trkpt lat="48.39108" lon="-4.67237">
        <ele>90.8</ele>
        <time>2020-06-08T18:58:17Z</time>
      </trkpt>
      <trkpt lat="48.39109" lon="-4.67245">
        <ele>90.7</ele>
        <time>2020-06-08T18:58:18Z</time>
      </trkpt>
      <trkpt lat="48.39108" lon="-4.67252">
        <ele>90.6</ele>
        <time>2020-06-08T18:58:19Z</time>
      </trkpt>
      <trkpt lat="48.39108" lon="-4.67259">
        <ele>90.6</ele>
        <time>2020-06-08T18:58:20Z</time>
      </trkpt>
      <trkpt lat="48.39108" lon="-4.67266">
        <ele>90.5</ele>
        <time>2020-06-08T18:58:21Z</time>
      </trkpt>
      <trkpt lat="48.39109" lon="-4.67273">
        <ele>90.4</ele>
        <time>2020-06-08T18:58:22Z</time>
      </trkpt>
      <trkpt lat="48.3911" lon="-4.6728">
        <ele>90.4</ele>
        <time>2020-06-08T18:58:23Z</time>
      </trkpt>
      <trkpt lat="48.39111" lon="-4.67287">
        <ele>90.3</ele>
        <time>2020-06-08T18:58:24Z</time>
      </trkpt>
      <trkpt lat="48.39112" lon="-4.67294">
        <ele>90.2</ele>
        <time>2020-06-08T18:58:25Z</time>
      </trkpt>
      <trkpt lat="48.39113" lon="-4.67301">
        <ele>90.2</ele>
        <time>2020-06-08T18:58:26Z</time>
      </trkpt>
      <trkpt lat="48.39113" lon="-4.67308">
        <ele>90.1</ele>
        <time>2020-06-08T18:58:27Z</time>
      </trkpt>
      <trkpt lat="48.39112" lon="-4.67315">
        <ele>90.1</ele>
        <time>2020-06-08T18:58:28Z</time>
      </trkpt>
      <trkpt lat="48.39112" lon="-4.67322">
        <ele>90</ele>
        <time>2020-06-08T18:58:29Z</time>
      </trkpt>
      <trkpt lat="48.39112" lon="-4.67329">
        <ele>90</ele>
        <time>2020-06-08T18:58:30Z</time>
      </trkpt>
      <trkpt lat="48.39112" lon="-4.67336">
        <ele>89.9</ele>
        <time>2020-06-08T18:58:31Z</time>
      </trkpt>
      <trkpt lat="48.39113" lon="-4.67344">
        <ele>89.9</ele>
        <time>2020-06-08T18:58:32Z</time>
      </trkpt>
      <trkpt lat="48.39114" lon="-4.67352">
        <ele>89.8</ele>
        <time>2020-06-08T18:58:33Z</time>
      </trkpt>
      <trkpt lat="48.39115" lon="-4.6736">
        <ele>89.8</ele>
        <time>2020-06-08T18:58:34Z</time>
      </trkpt>
      <trkpt lat="48.39114" lon="-4.67368">
        <ele>89.8</ele>
        <time>2020-06-08T18:58:35Z</time>
      </trkpt>
      <trkpt lat="48.39114" lon="-4.67376">
        <ele>89.8</ele>
        <time>2020-06-08T18:58:36Z</time>
      </trkpt>
      <trkpt lat="48.39115" lon="-4.67385">
        <ele>89.7</ele>
        <time>2020-06-08T18:58:37Z</time>
      </trkpt>
      <trkpt lat="48.39116" lon="-4.67393">
        <ele>89.7</ele>
        <time>2020-06-08T18:58:38Z</time>
      </trkpt>
      <trkpt lat="48.39117" lon="-4.67402">
        <ele>89.6</ele>
        <time>2020-06-08T18:58:39Z</time>
      </trkpt>
      <trkpt lat="48.39115" lon="-4.6741">
        <ele>89.5</ele>
        <time>2020-06-08T18:58:40Z</time>
      </trkpt>
      <trkpt lat="48.39112" lon="-4.67418">
        <ele>89.4</ele>
        <time>2020-06-08T18:58:41Z</time>
      </trkpt>
      <trkpt lat="48.39109" lon="-4.67426">
        <ele>89.3</ele>
        <time>2020-06-08T18:58:42Z</time>
      </trkpt>
      <trkpt lat="48.39107" lon="-4.67435">
        <ele>89.2</ele>
        <time>2020-06-08T18:58:43Z</time>
      </trkpt>
      <trkpt lat="48.39105" lon="-4.67443">
        <ele>89.2</ele>
        <time>2020-06-08T18:58:44Z</time>
      </trkpt>
      <trkpt lat="48.39103" lon="-4.67451">
        <ele>89.1</ele>
        <time>2020-06-08T18:58:45Z</time>
      </trkpt>
      <trkpt lat="48.39101" lon="-4.6746">
        <ele>89</ele>
        <time>2020-06-08T18:58:46Z</time>
      </trkpt>
      <trkpt lat="48.39099" lon="-4.67468">
        <ele>88.9</ele>
        <time>2020-06-08T18:58:47Z</time>
      </trkpt>
      <trkpt lat="48.39098" lon="-4.67478">
        <ele>88.9</ele>
        <time>2020-06-08T18:58:48Z</time>
      </trkpt>
      <trkpt lat="48.39096" lon="-4.67488">
        <ele>88.8</ele>
        <time>2020-06-08T18:58:49Z</time>
      </trkpt>
      <trkpt lat="48.39094" lon="-4.67497">
        <ele>88.7</ele>
        <time>2020-06-08T18:58:50Z</time>
      </trkpt>
      <trkpt lat="48.39092" lon="-4.67505">
        <ele>88.7</ele>
        <time>2020-06-08T18:58:51Z</time>
      </trkpt>
      <trkpt lat="48.3909" lon="-4.67513">
        <ele>88.6</ele>
        <time>2020-06-08T18:58:52Z</time>
      </trkpt>
      <trkpt lat="48.39088" lon="-4.67521">
        <ele>88.5</ele>
        <time>2020-06-08T18:58:53Z</time>
      </trkpt>
      <trkpt lat="48.39086" lon="-4.6753">
        <ele>88.4</ele>
        <time>2020-06-08T18:58:54Z</time>
      </trkpt>
      <trkpt lat="48.39084" lon="-4.67538">
        <ele>88.3</ele>
        <time>2020-06-08T18:58:55Z</time>
      </trkpt>
      <trkpt lat="48.39082" lon="-4.67546">
        <ele>88.2</ele>
        <time>2020-06-08T18:58:56Z</time>
      </trkpt>
      <trkpt lat="48.39079" lon="-4.67553">
        <ele>88.1</ele>
        <time>2020-06-08T18:58:57Z</time>
      </trkpt>
      <trkpt lat="48.39077" lon="-4.67562">
        <ele>88.1</ele>
        <time>2020-06-08T18:58:58Z</time>
      </trkpt>
      <trkpt lat="48.39076" lon="-4.67571">
        <ele>88</ele>
        <time>2020-06-08T18:58:59Z</time>
      </trkpt>
      <trkpt lat="48.39074" lon="-4.6758">
        <ele>88</ele>
        <time>2020-06-08T18:59:00Z</time>
      </trkpt>
      <trkpt lat="48.39072" lon="-4.67589">
        <ele>88</ele>
        <time>2020-06-08T18:59:01Z</time>
      </trkpt>
      <trkpt lat="48.3907" lon="-4.67597">
        <ele>87.9</ele>
        <time>2020-06-08T18:59:02Z</time>
      </trkpt>
      <trkpt lat="48.3907" lon="-4.67607">
        <ele>87.8</ele>
        <time>2020-06-08T18:59:03Z</time>
      </trkpt>
      <trkpt lat="48.3907" lon="-4.67617">
        <ele>87.7</ele>
        <time>2020-06-08T18:59:04Z</time>
      </trkpt>
      <trkpt lat="48.39073" lon="-4.67627">
        <ele>87.3</ele>
        <time>2020-06-08T18:59:05Z</time>
      </trkpt>
      <trkpt lat="48.39078" lon="-4.67634">
        <ele>87.1</ele>
        <time>2020-06-08T18:59:06Z</time>
      </trkpt>
      <trkpt lat="48.39084" lon="-4.6764">
        <ele>86.9</ele>
        <time>2020-06-08T18:59:07Z</time>
      </trkpt>
      <trkpt lat="48.3909" lon="-4.67646">
        <ele>86.7</ele>
        <time>2020-06-08T18:59:08Z</time>
      </trkpt>
      <trkpt lat="48.39096" lon="-4.67653">
        <ele>86.6</ele>
        <time>2020-06-08T18:59:09Z</time>
      </trkpt>
      <trkpt lat="48.39102" lon="-4.67659">
        <ele>86.4</ele>
        <time>2020-06-08T18:59:10Z</time>
      </trkpt>
      <trkpt lat="48.39107" lon="-4.67666">
        <ele>86.3</ele>
        <time>2020-06-08T18:59:11Z</time>
      </trkpt>
      <trkpt lat="48.39113" lon="-4.67672">
        <ele>86.1</ele>
        <time>2020-06-08T18:59:12Z</time>
      </trkpt>
      <trkpt lat="48.39119" lon="-4.67679">
        <ele>86</ele>
        <time>2020-06-08T18:59:13Z</time>
      </trkpt>
      <trkpt lat="48.39124" lon="-4.67687">
        <ele>85.9</ele>
        <time>2020-06-08T18:59:14Z</time>
      </trkpt>
      <trkpt lat="48.39129" lon="-4.67694">
        <ele>85.9</ele>
        <time>2020-06-08T18:59:15Z</time>
      </trkpt>
      <trkpt lat="48.39135" lon="-4.67701">
        <ele>85.8</ele>
        <time>2020-06-08T18:59:16Z</time>
      </trkpt>
      <trkpt lat="48.3914" lon="-4.67708">
        <ele>85.8</ele>
        <time>2020-06-08T18:59:17Z</time>
      </trkpt>
      <trkpt lat="48.39145" lon="-4.67715">
        <ele>85.7</ele>
        <time>2020-06-08T18:59:18Z</time>
      </trkpt>
      <trkpt lat="48.3915" lon="-4.67722">
        <ele>85.7</ele>
        <time>2020-06-08T18:59:19Z</time>
      </trkpt>
      <trkpt lat="48.39155" lon="-4.6773">
        <ele>85.7</ele>
        <time>2020-06-08T18:59:20Z</time>
      </trkpt>
      <trkpt lat="48.3916" lon="-4.67736">
        <ele>85.6</ele>
        <time>2020-06-08T18:59:21Z</time>
      </trkpt>
      <trkpt lat="48.39165" lon="-4.67743">
        <ele>85.6</ele>
        <time>2020-06-08T18:59:22Z</time>
      </trkpt>
      <trkpt lat="48.3917" lon="-4.6775">
        <ele>85.7</ele>
        <time>2020-06-08T18:59:23Z</time>
      </trkpt>
      <trkpt lat="48.39175" lon="-4.67756">
        <ele>85.7</ele>
        <time>2020-06-08T18:59:24Z</time>
      </trkpt>
      <trkpt lat="48.39179" lon="-4.67763">
        <ele>85.8</ele>
        <time>2020-06-08T18:59:25Z</time>
      </trkpt>
      <trkpt lat="48.39183" lon="-4.67769">
        <ele>85.9</ele>
        <time>2020-06-08T18:59:26Z</time>
      </trkpt>
      <trkpt lat="48.39185" lon="-4.67775">
        <ele>86</ele>
        <time>2020-06-08T18:59:27Z</time>
      </trkpt>
      <trkpt lat="48.39187" lon="-4.6778">
        <ele>86</ele>
        <time>2020-06-08T18:59:28Z</time>
      </trkpt>
      <trkpt lat="48.39187" lon="-4.67786">
        <ele>86</ele>
        <time>2020-06-08T18:59:29Z</time>
      </trkpt>
      <trkpt lat="48.39186" lon="-4.67793">
        <ele>86</ele>
        <time>2020-06-08T18:59:30Z</time>
      </trkpt>
      <trkpt lat="48.39183" lon="-4.67797">
        <ele>85.9</ele>
        <time>2020-06-08T18:59:31Z</time>
      </trkpt>
      <trkpt lat="48.3918" lon="-4.67802">
        <ele>85.9</ele>
        <time>2020-06-08T18:59:32Z</time>
      </trkpt>
      <trkpt lat="48.39176" lon="-4.67806">
        <ele>85.9</ele>
        <time>2020-06-08T18:59:33Z</time>
      </trkpt>
      <trkpt lat="48.39172" lon="-4.67811">
        <ele>85.9</ele>
        <time>2020-06-08T18:59:34Z</time>
      </trkpt>
      <trkpt lat="48.39169" lon="-4.67814">
        <ele>85.9</ele>
        <time>2020-06-08T18:59:35Z</time>
      </trkpt>
      <trkpt lat="48.39165" lon="-4.67818">
        <ele>86</ele>
        <time>2020-06-08T18:59:36Z</time>
      </trkpt>
      <trkpt lat="48.39161" lon="-4.67822">
        <ele>86</ele>
        <time>2020-06-08T18:59:37Z</time>
      </trkpt>
      <trkpt lat="48.39157" lon="-4.67826">
        <ele>86</ele>
        <time>2020-06-08T18:59:38Z</time>
      </trkpt>
      <trkpt lat="48.39154" lon="-4.67832">
        <ele>86</ele>
        <time>2020-06-08T18:59:39Z</time>
      </trkpt>
      <trkpt lat="48.3915" lon="-4.67836">
        <ele>86.1</ele>
        <time>2020-06-08T18:59:40Z</time>
      </trkpt>
      <trkpt lat="48.39146" lon="-4.67841">
        <ele>86.2</ele>
        <time>2020-06-08T18:59:41Z</time>
      </trkpt>
      <trkpt lat="48.39142" lon="-4.67844">
        <ele>86.2</ele>
        <time>2020-06-08T18:59:42Z</time>
      </trkpt>
      <trkpt lat="48.39138" lon="-4.6785">
        <ele>86.3</ele>
        <time>2020-06-08T18:59:43Z</time>
      </trkpt>
      <trkpt lat="48.39134" lon="-4.67854">
        <ele>86.4</ele>
        <time>2020-06-08T18:59:44Z</time>
      </trkpt>
      <trkpt lat="48.3913" lon="-4.67858">
        <ele>86.5</ele>
        <time>2020-06-08T18:59:45Z</time>
      </trkpt>
      <trkpt lat="48.39127" lon="-4.67864">
        <ele>86.5</ele>
        <time>2020-06-08T18:59:46Z</time>
      </trkpt>
      <trkpt lat="48.39124" lon="-4.6787">
        <ele>86.6</ele>
        <time>2020-06-08T18:59:47Z</time>
      </trkpt>
      <trkpt lat="48.39121" lon="-4.67876">
        <ele>86.7</ele>
        <time>2020-06-08T18:59:48Z</time>
      </trkpt>
      <trkpt lat="48.39118" lon="-4.67881">
        <ele>86.7</ele>
        <time>2020-06-08T18:59:49Z</time>
      </trkpt>
      <trkpt lat="48.39115" lon="-4.67887">
        <ele>86.8</ele>
        <time>2020-06-08T18:59:50Z</time>
      </trkpt>
      <trkpt lat="48.39112" lon="-4.67893">
        <ele>86.8</ele>
        <time>2020-06-08T18:59:51Z</time>
      </trkpt>
      <trkpt lat="48.39109" lon="-4.67899">
        <ele>86.9</ele>
        <time>2020-06-08T18:59:52Z</time>
      </trkpt>
      <trkpt lat="48.39106" lon="-4.67906">
        <ele>86.9</ele>
        <time>2020-06-08T18:59:53Z</time>
      </trkpt>
      <trkpt lat="48.39102" lon="-4.67912">
        <ele>87</ele>
        <time>2020-06-08T18:59:54Z</time>
      </trkpt>
      <trkpt lat="48.39099" lon="-4.67918">
        <ele>87.1</ele>
        <time>2020-06-08T18:59:55Z</time>
      </trkpt>
      <trkpt lat="48.39095" lon="-4.67924">
        <ele>87.2</ele>
        <time>2020-06-08T18:59:56Z</time>
      </trkpt>
      <trkpt lat="48.39091" lon="-4.67929">
        <ele>87.2</ele>
        <time>2020-06-08T18:59:57Z</time>
      </trkpt>
      <trkpt lat="48.39088" lon="-4.67936">
        <ele>87.3</ele>
        <time>2020-06-08T18:59:58Z</time>
      </trkpt>
      <trkpt lat="48.39085" lon="-4.67942">
        <ele>87.4</ele>
        <time>2020-06-08T18:59:59Z</time>
      </trkpt>
      <trkpt lat="48.39082" lon="-4.67949">
        <ele>87.4</ele>
        <time>2020-06-08T19:00:00Z</time>
      </trkpt>
      <trkpt lat="48.3908" lon="-4.67956">
        <ele>87.4</ele>
        <time>2020-06-08T19:00:01Z</time>
      </trkpt>
      <trkpt lat="48.39076" lon="-4.67963">
        <ele>87.3</ele>
        <time>2020-06-08T19:00:02Z</time>
      </trkpt>
      <trkpt lat="48.39073" lon="-4.67969">
        <ele>87.3</ele>
        <time>2020-06-08T19:00:03Z</time>
      </trkpt>
      <trkpt lat="48.3907" lon="-4.67977">
        <ele>87.3</ele>
        <time>2020-06-08T19:00:04Z</time>
      </trkpt>
      <trkpt lat="48.39067" lon="-4.67984">
        <ele>87.4</ele>
        <time>2020-06-08T19:00:05Z</time>
      </trkpt>
      <trkpt lat="48.39064" lon="-4.67991">
        <ele>87.4</ele>
        <time>2020-06-08T19:00:06Z</time>
      </trkpt>
      <trkpt lat="48.39061" lon="-4.67998">
        <ele>87.5</ele>
        <time>2020-06-08T19:00:07Z</time>
      </trkpt>
      <trkpt lat="48.39058" lon="-4.68006">
        <ele>87.5</ele>
        <time>2020-06-08T19:00:08Z</time>
      </trkpt>
      <trkpt lat="48.39055" lon="-4.68014">
        <ele>87.5</ele>
        <time>2020-06-08T19:00:09Z</time>
      </trkpt>
      <trkpt lat="48.39052" lon="-4.68022">
        <ele>87.6</ele>
        <time>2020-06-08T19:00:10Z</time>
      </trkpt>
      <trkpt lat="48.39048" lon="-4.68029">
        <ele>87.6</ele>
        <time>2020-06-08T19:00:11Z</time>
      </trkpt>
      <trkpt lat="48.39044" lon="-4.68036">
        <ele>87.6</ele>
        <time>2020-06-08T19:00:12Z</time>
      </trkpt>
      <trkpt lat="48.3904" lon="-4.68043">
        <ele>87.6</ele>
        <time>2020-06-08T19:00:13Z</time>
      </trkpt>
      <trkpt lat="48.39036" lon="-4.6805">
        <ele>87.6</ele>
        <time>2020-06-08T19:00:14Z</time>
      </trkpt>
      <trkpt lat="48.39032" lon="-4.68057">
        <ele>87.6</ele>
        <time>2020-06-08T19:00:15Z</time>
      </trkpt>
      <trkpt lat="48.39028" lon="-4.68065">
        <ele>87.6</ele>
        <time>2020-06-08T19:00:16Z</time>
      </trkpt>
      <trkpt lat="48.39024" lon="-4.68073">
        <ele>87.6</ele>
        <time>2020-06-08T19:00:17Z</time>
      </trkpt>
      <trkpt lat="48.39019" lon="-4.68081">
        <ele>87.6</ele>
        <time>2020-06-08T19:00:18Z</time>
      </trkpt>
      <trkpt lat="48.39015" lon="-4.68089">
        <ele>87.6</ele>
        <time>2020-06-08T19:00:19Z</time>
      </trkpt>
      <trkpt lat="48.39011" lon="-4.68099">
        <ele>87.6</ele>
        <time>2020-06-08T19:00:20Z</time>
      </trkpt>
      <trkpt lat="48.39007" lon="-4.68108">
        <ele>87.6</ele>
        <time>2020-06-08T19:00:21Z</time>
      </trkpt>
      <trkpt lat="48.39004" lon="-4.68117">
        <ele>87.7</ele>
        <time>2020-06-08T19:00:22Z</time>
      </trkpt>
      <trkpt lat="48.39" lon="-4.68125">
        <ele>87.7</ele>
        <time>2020-06-08T19:00:23Z</time>
      </trkpt>
      <trkpt lat="48.38996" lon="-4.68134">
        <ele>87.7</ele>
        <time>2020-06-08T19:00:24Z</time>
      </trkpt>
      <trkpt lat="48.38992" lon="-4.68144">
        <ele>87.8</ele>
        <time>2020-06-08T19:00:25Z</time>
      </trkpt>
      <trkpt lat="48.3899" lon="-4.68154">
        <ele>87.8</ele>
        <time>2020-06-08T19:00:26Z</time>
      </trkpt>
      <trkpt lat="48.38987" lon="-4.68163">
        <ele>87.8</ele>
        <time>2020-06-08T19:00:27Z</time>
      </trkpt>
      <trkpt lat="48.38983" lon="-4.68171">
        <ele>87.8</ele>
        <time>2020-06-08T19:00:28Z</time>
      </trkpt>
      <trkpt lat="48.3898" lon="-4.68181">
        <ele>87.7</ele>
        <time>2020-06-08T19:00:29Z</time>
      </trkpt>
      <trkpt lat="48.38977" lon="-4.68191">
        <ele>87.6</ele>
        <time>2020-06-08T19:00:30Z</time>
      </trkpt>
      <trkpt lat="48.38975" lon="-4.682">
        <ele>87.5</ele>
        <time>2020-06-08T19:00:31Z</time>
      </trkpt>
      <trkpt lat="48.38972" lon="-4.6821">
        <ele>87.4</ele>
        <time>2020-06-08T19:00:32Z</time>
      </trkpt>
      <trkpt lat="48.38969" lon="-4.68219">
        <ele>87.4</ele>
        <time>2020-06-08T19:00:33Z</time>
      </trkpt>
      <trkpt lat="48.38965" lon="-4.68227">
        <ele>87.4</ele>
        <time>2020-06-08T19:00:34Z</time>
      </trkpt>
      <trkpt lat="48.38963" lon="-4.68236">
        <ele>87.3</ele>
        <time>2020-06-08T19:00:35Z</time>
      </trkpt>
      <trkpt lat="48.38961" lon="-4.68245">
        <ele>87.3</ele>
        <time>2020-06-08T19:00:36Z</time>
      </trkpt>
      <trkpt lat="48.38958" lon="-4.68254">
        <ele>87.3</ele>
        <time>2020-06-08T19:00:37Z</time>
      </trkpt>
      <trkpt lat="48.38956" lon="-4.68264">
        <ele>87.3</ele>
        <time>2020-06-08T19:00:38Z</time>
      </trkpt>
      <trkpt lat="48.38954" lon="-4.68273">
        <ele>87.3</ele>
        <time>2020-06-08T19:00:39Z</time>
      </trkpt>
      <trkpt lat="48.3895" lon="-4.68282">
        <ele>87.3</ele>
        <time>2020-06-08T19:00:40Z</time>
      </trkpt>
      <trkpt lat="48.38948" lon="-4.68291">
        <ele>87.3</ele>
        <time>2020-06-08T19:00:41Z</time>
      </trkpt>
      <trkpt lat="48.38945" lon="-4.68301">
        <ele>87.3</ele>
        <time>2020-06-08T19:00:42Z</time>
      </trkpt>
      <trkpt lat="48.38942" lon="-4.6831">
        <ele>87.3</ele>
        <time>2020-06-08T19:00:43Z</time>
      </trkpt>
      <trkpt lat="48.38939" lon="-4.68319">
        <ele>87.3</ele>
        <time>2020-06-08T19:00:44Z</time>
      </trkpt>
      <trkpt lat="48.38936" lon="-4.68328">
        <ele>87.3</ele>
        <time>2020-06-08T19:00:45Z</time>
      </trkpt>
      <trkpt lat="48.38934" lon="-4.68337">
        <ele>87.3</ele>
        <time>2020-06-08T19:00:46Z</time>
      </trkpt>
      <trkpt lat="48.38931" lon="-4.68346">
        <ele>87.3</ele>
        <time>2020-06-08T19:00:47Z</time>
      </trkpt>
      <trkpt lat="48.38928" lon="-4.68355">
        <ele>87.3</ele>
        <time>2020-06-08T19:00:48Z</time>
      </trkpt>
      <trkpt lat="48.38925" lon="-4.68364">
        <ele>87.2</ele>
        <time>2020-06-08T19:00:49Z</time>
      </trkpt>
      <trkpt lat="48.38923" lon="-4.68373">
        <ele>87.1</ele>
        <time>2020-06-08T19:00:50Z</time>
      </trkpt>
      <trkpt lat="48.3892" lon="-4.68383">
        <ele>87</ele>
        <time>2020-06-08T19:00:51Z</time>
      </trkpt>
      <trkpt lat="48.38917" lon="-4.68392">
        <ele>87</ele>
        <time>2020-06-08T19:00:52Z</time>
      </trkpt>
      <trkpt lat="48.38914" lon="-4.68401">
        <ele>86.9</ele>
        <time>2020-06-08T19:00:53Z</time>
      </trkpt>
      <trkpt lat="48.38911" lon="-4.6841">
        <ele>86.8</ele>
        <time>2020-06-08T19:00:54Z</time>
      </trkpt>
      <trkpt lat="48.38907" lon="-4.6842">
        <ele>86.7</ele>
        <time>2020-06-08T19:00:55Z</time>
      </trkpt>
      <trkpt lat="48.38904" lon="-4.6843">
        <ele>86.6</ele>
        <time>2020-06-08T19:00:56Z</time>
      </trkpt>
      <trkpt lat="48.38901" lon="-4.6844">
        <ele>86.4</ele>
        <time>2020-06-08T19:00:57Z</time>
      </trkpt>
      <trkpt lat="48.38899" lon="-4.6845">
        <ele>86.3</ele>
        <time>2020-06-08T19:00:58Z</time>
      </trkpt>
      <trkpt lat="48.38896" lon="-4.6846">
        <ele>86.2</ele>
        <time>2020-06-08T19:00:59Z</time>
      </trkpt>
      <trkpt lat="48.38893" lon="-4.6847">
        <ele>86.1</ele>
        <time>2020-06-08T19:01:00Z</time>
      </trkpt>
      <trkpt lat="48.38889" lon="-4.6848">
        <ele>86</ele>
        <time>2020-06-08T19:01:01Z</time>
      </trkpt>
      <trkpt lat="48.38886" lon="-4.6849">
        <ele>85.9</ele>
        <time>2020-06-08T19:01:02Z</time>
      </trkpt>
      <trkpt lat="48.38883" lon="-4.685">
        <ele>85.8</ele>
        <time>2020-06-08T19:01:03Z</time>
      </trkpt>
      <trkpt lat="48.38879" lon="-4.6851">
        <ele>85.7</ele>
        <time>2020-06-08T19:01:04Z</time>
      </trkpt>
      <trkpt lat="48.38877" lon="-4.68521">
        <ele>85.5</ele>
        <time>2020-06-08T19:01:05Z</time>
      </trkpt>
      <trkpt lat="48.38875" lon="-4.68532">
        <ele>85.4</ele>
        <time>2020-06-08T19:01:06Z</time>
      </trkpt>
      <trkpt lat="48.38871" lon="-4.68542">
        <ele>85.3</ele>
        <time>2020-06-08T19:01:07Z</time>
      </trkpt>
      <trkpt lat="48.38867" lon="-4.68552">
        <ele>85.1</ele>
        <time>2020-06-08T19:01:08Z</time>
      </trkpt>
      <trkpt lat="48.38864" lon="-4.68562">
        <ele>85</ele>
        <time>2020-06-08T19:01:09Z</time>
      </trkpt>
      <trkpt lat="48.38861" lon="-4.68572">
        <ele>84.9</ele>
        <time>2020-06-08T19:01:10Z</time>
      </trkpt>
      <trkpt lat="48.38858" lon="-4.68582">
        <ele>84.8</ele>
        <time>2020-06-08T19:01:11Z</time>
      </trkpt>
      <trkpt lat="48.38855" lon="-4.68593">
        <ele>84.7</ele>
        <time>2020-06-08T19:01:12Z</time>
      </trkpt>
      <trkpt lat="48.38852" lon="-4.68603">
        <ele>84.5</ele>
        <time>2020-06-08T19:01:13Z</time>
      </trkpt>
      <trkpt lat="48.38848" lon="-4.68613">
        <ele>84.4</ele>
        <time>2020-06-08T19:01:14Z</time>
      </trkpt>
      <trkpt lat="48.38845" lon="-4.68623">
        <ele>84.2</ele>
        <time>2020-06-08T19:01:15Z</time>
      </trkpt>
      <trkpt lat="48.38842" lon="-4.68633">
        <ele>84</ele>
        <time>2020-06-08T19:01:16Z</time>
      </trkpt>
      <trkpt lat="48.38838" lon="-4.68644">
        <ele>83.9</ele>
        <time>2020-06-08T19:01:17Z</time>
      </trkpt>
      <trkpt lat="48.38835" lon="-4.68654">
        <ele>83.7</ele>
        <time>2020-06-08T19:01:18Z</time>
      </trkpt>
      <trkpt lat="48.38832" lon="-4.68665">
        <ele>83.5</ele>
        <time>2020-06-08T19:01:19Z</time>
      </trkpt>
      <trkpt lat="48.38829" lon="-4.68676">
        <ele>83.4</ele>
        <time>2020-06-08T19:01:20Z</time>
      </trkpt>
      <trkpt lat="48.38826" lon="-4.68687">
        <ele>83.2</ele>
        <time>2020-06-08T19:01:21Z</time>
      </trkpt>
      <trkpt lat="48.38823" lon="-4.68698">
        <ele>83.2</ele>
        <time>2020-06-08T19:01:22Z</time>
      </trkpt>
      <trkpt lat="48.3882" lon="-4.68708">
        <ele>83.2</ele>
        <time>2020-06-08T19:01:23Z</time>
      </trkpt>
      <trkpt lat="48.38817" lon="-4.68719">
        <ele>83</ele>
        <time>2020-06-08T19:01:24Z</time>
      </trkpt>
      <trkpt lat="48.38815" lon="-4.6873">
        <ele>82.7</ele>
        <time>2020-06-08T19:01:25Z</time>
      </trkpt>
      <trkpt lat="48.38812" lon="-4.68741">
        <ele>82.5</ele>
        <time>2020-06-08T19:01:26Z</time>
      </trkpt>
      <trkpt lat="48.38809" lon="-4.68752">
        <ele>82.2</ele>
        <time>2020-06-08T19:01:27Z</time>
      </trkpt>
      <trkpt lat="48.38806" lon="-4.68762">
        <ele>82.1</ele>
        <time>2020-06-08T19:01:28Z</time>
      </trkpt>
      <trkpt lat="48.38803" lon="-4.68772">
        <ele>81.9</ele>
        <time>2020-06-08T19:01:29Z</time>
      </trkpt>
      <trkpt lat="48.38799" lon="-4.68782">
        <ele>81.8</ele>
        <time>2020-06-08T19:01:30Z</time>
      </trkpt>
      <trkpt lat="48.38797" lon="-4.68793">
        <ele>81.6</ele>
        <time>2020-06-08T19:01:31Z</time>
      </trkpt>
      <trkpt lat="48.38794" lon="-4.68804">
        <ele>81.4</ele>
        <time>2020-06-08T19:01:32Z</time>
      </trkpt>
      <trkpt lat="48.38792" lon="-4.68815">
        <ele>81.2</ele>
        <time>2020-06-08T19:01:33Z</time>
      </trkpt>
      <trkpt lat="48.38789" lon="-4.68826">
        <ele>80.9</ele>
        <time>2020-06-08T19:01:34Z</time>
      </trkpt>
      <trkpt lat="48.38786" lon="-4.68838">
        <ele>80.6</ele>
        <time>2020-06-08T19:01:35Z</time>
      </trkpt>
      <trkpt lat="48.38783" lon="-4.68849">
        <ele>80.4</ele>
        <time>2020-06-08T19:01:36Z</time>
      </trkpt>
      <trkpt lat="48.38779" lon="-4.68859">
        <ele>80.1</ele>
        <time>2020-06-08T19:01:37Z</time>
      </trkpt>
      <trkpt lat="48.38775" lon="-4.68871">
        <ele>79.9</ele>
        <time>2020-06-08T19:01:38Z</time>
      </trkpt>
      <trkpt lat="48.38772" lon="-4.68882">
        <ele>79.7</ele>
        <time>2020-06-08T19:01:39Z</time>
      </trkpt>
      <trkpt lat="48.38768" lon="-4.68893">
        <ele>79.5</ele>
        <time>2020-06-08T19:01:40Z</time>
      </trkpt>
      <trkpt lat="48.38764" lon="-4.68905">
        <ele>79.3</ele>
        <time>2020-06-08T19:01:41Z</time>
      </trkpt>
      <trkpt lat="48.38761" lon="-4.68917">
        <ele>79.1</ele>
        <time>2020-06-08T19:01:42Z</time>
      </trkpt>
      <trkpt lat="48.38757" lon="-4.68929">
        <ele>78.9</ele>
        <time>2020-06-08T19:01:43Z</time>
      </trkpt>
      <trkpt lat="48.38753" lon="-4.68941">
        <ele>78.6</ele>
        <time>2020-06-08T19:01:44Z</time>
      </trkpt>
      <trkpt lat="48.3875" lon="-4.68953">
        <ele>78.4</ele>
        <time>2020-06-08T19:01:45Z</time>
      </trkpt>
      <trkpt lat="48.38745" lon="-4.68965">
        <ele>78.2</ele>
        <time>2020-06-08T19:01:46Z</time>
      </trkpt>
      <trkpt lat="48.38741" lon="-4.68977">
        <ele>78</ele>
        <time>2020-06-08T19:01:47Z</time>
      </trkpt>
      <trkpt lat="48.38737" lon="-4.6899">
        <ele>77.7</ele>
        <time>2020-06-08T19:01:48Z</time>
      </trkpt>
      <trkpt lat="48.38733" lon="-4.69002">
        <ele>77.5</ele>
        <time>2020-06-08T19:01:49Z</time>
      </trkpt>
      <trkpt lat="48.38729" lon="-4.69014">
        <ele>77.2</ele>
        <time>2020-06-08T19:01:50Z</time>
      </trkpt>
      <trkpt lat="48.38724" lon="-4.69026">
        <ele>77</ele>
        <time>2020-06-08T19:01:51Z</time>
      </trkpt>
      <trkpt lat="48.38719" lon="-4.69037">
        <ele>76.8</ele>
        <time>2020-06-08T19:01:52Z</time>
      </trkpt>
      <trkpt lat="48.38715" lon="-4.6905">
        <ele>76.6</ele>
        <time>2020-06-08T19:01:53Z</time>
      </trkpt>
      <trkpt lat="48.38711" lon="-4.69063">
        <ele>76.3</ele>
        <time>2020-06-08T19:01:54Z</time>
      </trkpt>
      <trkpt lat="48.38707" lon="-4.69075">
        <ele>76</ele>
        <time>2020-06-08T19:01:55Z</time>
      </trkpt>
      <trkpt lat="48.38703" lon="-4.69088">
        <ele>75.8</ele>
        <time>2020-06-08T19:01:56Z</time>
      </trkpt>
      <trkpt lat="48.38699" lon="-4.69101">
        <ele>75.6</ele>
        <time>2020-06-08T19:01:57Z</time>
      </trkpt>
      <trkpt lat="48.38695" lon="-4.69114">
        <ele>75.3</ele>
        <time>2020-06-08T19:01:58Z</time>
      </trkpt>
      <trkpt lat="48.38692" lon="-4.69127">
        <ele>75</ele>
        <time>2020-06-08T19:01:59Z</time>
      </trkpt>
      <trkpt lat="48.38687" lon="-4.6914">
        <ele>74.8</ele>
        <time>2020-06-08T19:02:00Z</time>
      </trkpt>
      <trkpt lat="48.38684" lon="-4.69153">
        <ele>74.5</ele>
        <time>2020-06-08T19:02:01Z</time>
      </trkpt>
      <trkpt lat="48.38681" lon="-4.69167">
        <ele>74.3</ele>
        <time>2020-06-08T19:02:02Z</time>
      </trkpt>
      <trkpt lat="48.38678" lon="-4.69181">
        <ele>74</ele>
        <time>2020-06-08T19:02:03Z</time>
      </trkpt>
      <trkpt lat="48.38676" lon="-4.69194">
        <ele>73.9</ele>
        <time>2020-06-08T19:02:04Z</time>
      </trkpt>
      <trkpt lat="48.38673" lon="-4.69208">
        <ele>73.8</ele>
        <time>2020-06-08T19:02:05Z</time>
      </trkpt>
      <trkpt lat="48.38669" lon="-4.69221">
        <ele>73.7</ele>
        <time>2020-06-08T19:02:06Z</time>
      </trkpt>
      <trkpt lat="48.38666" lon="-4.69234">
        <ele>73.7</ele>
        <time>2020-06-08T19:02:07Z</time>
      </trkpt>
      <trkpt lat="48.38664" lon="-4.69248">
        <ele>73.6</ele>
        <time>2020-06-08T19:02:08Z</time>
      </trkpt>
      <trkpt lat="48.38662" lon="-4.69261">
        <ele>73.6</ele>
        <time>2020-06-08T19:02:09Z</time>
      </trkpt>
      <trkpt lat="48.3866" lon="-4.69275">
        <ele>73.5</ele>
        <time>2020-06-08T19:02:10Z</time>
      </trkpt>
      <trkpt lat="48.38657" lon="-4.69288">
        <ele>73.5</ele>
        <time>2020-06-08T19:02:11Z</time>
      </trkpt>
      <trkpt lat="48.38655" lon="-4.69301">
        <ele>73.4</ele>
        <time>2020-06-08T19:02:12Z</time>
      </trkpt>
      <trkpt lat="48.38652" lon="-4.69313">
        <ele>73.2</ele>
        <time>2020-06-08T19:02:13Z</time>
      </trkpt>
      <trkpt lat="48.3865" lon="-4.69325">
        <ele>73.1</ele>
        <time>2020-06-08T19:02:14Z</time>
      </trkpt>
      <trkpt lat="48.38648" lon="-4.69338">
        <ele>72.9</ele>
        <time>2020-06-08T19:02:15Z</time>
      </trkpt>
      <trkpt lat="48.38646" lon="-4.6935">
        <ele>72.9</ele>
        <time>2020-06-08T19:02:16Z</time>
      </trkpt>
      <trkpt lat="48.38644" lon="-4.69363">
        <ele>72.8</ele>
        <time>2020-06-08T19:02:17Z</time>
      </trkpt>
      <trkpt lat="48.38642" lon="-4.69375">
        <ele>72.8</ele>
        <time>2020-06-08T19:02:18Z</time>
      </trkpt>
      <trkpt lat="48.3864" lon="-4.69386">
        <ele>72.8</ele>
        <time>2020-06-08T19:02:19Z</time>
      </trkpt>
      <trkpt lat="48.38638" lon="-4.69398">
        <ele>72.8</ele>
        <time>2020-06-08T19:02:20Z</time>
      </trkpt>
      <trkpt lat="48.38637" lon="-4.6941">
        <ele>72.7</ele>
        <time>2020-06-08T19:02:21Z</time>
      </trkpt>
      <trkpt lat="48.38636" lon="-4.69421">
        <ele>72.7</ele>
        <time>2020-06-08T19:02:22Z</time>
      </trkpt>
      <trkpt lat="48.38634" lon="-4.69432">
        <ele>72.7</ele>
        <time>2020-06-08T19:02:23Z</time>
      </trkpt>
      <trkpt lat="48.38632" lon="-4.69443">
        <ele>72.7</ele>
        <time>2020-06-08T19:02:24Z</time>
      </trkpt>
      <trkpt lat="48.38631" lon="-4.69454">
        <ele>72.7</ele>
        <time>2020-06-08T19:02:25Z</time>
      </trkpt>
      <trkpt lat="48.3863" lon="-4.69465">
        <ele>72.6</ele>
        <time>2020-06-08T19:02:26Z</time>
      </trkpt>
      <trkpt lat="48.38629" lon="-4.69475">
        <ele>72.6</ele>
        <time>2020-06-08T19:02:27Z</time>
      </trkpt>
      <trkpt lat="48.38628" lon="-4.69485">
        <ele>72.6</ele>
        <time>2020-06-08T19:02:28Z</time>
      </trkpt>
      <trkpt lat="48.38626" lon="-4.69496">
        <ele>72.5</ele>
        <time>2020-06-08T19:02:29Z</time>
      </trkpt>
      <trkpt lat="48.38625" lon="-4.69506">
        <ele>72.5</ele>
        <time>2020-06-08T19:02:30Z</time>
      </trkpt>
      <trkpt lat="48.38623" lon="-4.69517">
        <ele>72.3</ele>
        <time>2020-06-08T19:02:31Z</time>
      </trkpt>
      <trkpt lat="48.38621" lon="-4.69528">
        <ele>72.2</ele>
        <time>2020-06-08T19:02:32Z</time>
      </trkpt>
      <trkpt lat="48.3862" lon="-4.69539">
        <ele>72</ele>
        <time>2020-06-08T19:02:33Z</time>
      </trkpt>
      <trkpt lat="48.38619" lon="-4.69551">
        <ele>71.8</ele>
        <time>2020-06-08T19:02:34Z</time>
      </trkpt>
      <trkpt lat="48.38618" lon="-4.69563">
        <ele>71.7</ele>
        <time>2020-06-08T19:02:35Z</time>
      </trkpt>
      <trkpt lat="48.38616" lon="-4.69575">
        <ele>71.5</ele>
        <time>2020-06-08T19:02:36Z</time>
      </trkpt>
      <trkpt lat="48.38615" lon="-4.69587">
        <ele>71.3</ele>
        <time>2020-06-08T19:02:37Z</time>
      </trkpt>
      <trkpt lat="48.38613" lon="-4.69599">
        <ele>71.2</ele>
        <time>2020-06-08T19:02:38Z</time>
      </trkpt>
      <trkpt lat="48.38611" lon="-4.69611">
        <ele>71</ele>
        <time>2020-06-08T19:02:39Z</time>
      </trkpt>
      <trkpt lat="48.38609" lon="-4.69623">
        <ele>70.9</ele>
        <time>2020-06-08T19:02:40Z</time>
      </trkpt>
      <trkpt lat="48.38608" lon="-4.69635">
        <ele>70.9</ele>
        <time>2020-06-08T19:02:41Z</time>
      </trkpt>
      <trkpt lat="48.38606" lon="-4.69647">
        <ele>70.8</ele>
        <time>2020-06-08T19:02:42Z</time>
      </trkpt>
      <trkpt lat="48.38605" lon="-4.69659">
        <ele>70.7</ele>
        <time>2020-06-08T19:02:43Z</time>
      </trkpt>
      <trkpt lat="48.38603" lon="-4.69672">
        <ele>70.6</ele>
        <time>2020-06-08T19:02:44Z</time>
      </trkpt>
      <trkpt lat="48.38602" lon="-4.69684">
        <ele>70.5</ele>
        <time>2020-06-08T19:02:45Z</time>
      </trkpt>
      <trkpt lat="48.386" lon="-4.69695">
        <ele>70.3</ele>
        <time>2020-06-08T19:02:46Z</time>
      </trkpt>
      <trkpt lat="48.38597" lon="-4.69707">
        <ele>70.2</ele>
        <time>2020-06-08T19:02:47Z</time>
      </trkpt>
      <trkpt lat="48.38593" lon="-4.69719">
        <ele>70.1</ele>
        <time>2020-06-08T19:02:48Z</time>
      </trkpt>
      <trkpt lat="48.38591" lon="-4.69731">
        <ele>70</ele>
        <time>2020-06-08T19:02:49Z</time>
      </trkpt>
      <trkpt lat="48.3859" lon="-4.69743">
        <ele>69.9</ele>
        <time>2020-06-08T19:02:50Z</time>
      </trkpt>
      <trkpt lat="48.3859" lon="-4.69755">
        <ele>69.8</ele>
        <time>2020-06-08T19:02:51Z</time>
      </trkpt>
      <trkpt lat="48.38587" lon="-4.69766">
        <ele>69.7</ele>
        <time>2020-06-08T19:02:52Z</time>
      </trkpt>
      <trkpt lat="48.38585" lon="-4.69778">
        <ele>69.6</ele>
        <time>2020-06-08T19:02:53Z</time>
      </trkpt>
      <trkpt lat="48.38583" lon="-4.69789">
        <ele>69.5</ele>
        <time>2020-06-08T19:02:54Z</time>
      </trkpt>
      <trkpt lat="48.38581" lon="-4.69801">
        <ele>69.4</ele>
        <time>2020-06-08T19:02:55Z</time>
      </trkpt>
      <trkpt lat="48.38578" lon="-4.69812">
        <ele>69.3</ele>
        <time>2020-06-08T19:02:56Z</time>
      </trkpt>
      <trkpt lat="48.38576" lon="-4.69824">
        <ele>69.2</ele>
        <time>2020-06-08T19:02:57Z</time>
      </trkpt>
      <trkpt lat="48.38574" lon="-4.69835">
        <ele>69.1</ele>
        <time>2020-06-08T19:02:58Z</time>
      </trkpt>
      <trkpt lat="48.38572" lon="-4.69846">
        <ele>69.1</ele>
        <time>2020-06-08T19:02:59Z</time>
      </trkpt>
      <trkpt lat="48.3857" lon="-4.69858">
        <ele>69</ele>
        <time>2020-06-08T19:03:00Z</time>
      </trkpt>
      <trkpt lat="48.38568" lon="-4.69869">
        <ele>69</ele>
        <time>2020-06-08T19:03:01Z</time>
      </trkpt>
      <trkpt lat="48.38567" lon="-4.69881">
        <ele>69</ele>
        <time>2020-06-08T19:03:02Z</time>
      </trkpt>
      <trkpt lat="48.38566" lon="-4.69893">
        <ele>69</ele>
        <time>2020-06-08T19:03:03Z</time>
      </trkpt>
      <trkpt lat="48.38565" lon="-4.69905">
        <ele>68.9</ele>
        <time>2020-06-08T19:03:04Z</time>
      </trkpt>
      <trkpt lat="48.38564" lon="-4.69917">
        <ele>68.9</ele>
        <time>2020-06-08T19:03:05Z</time>
      </trkpt>
      <trkpt lat="48.38564" lon="-4.69928">
        <ele>68.8</ele>
        <time>2020-06-08T19:03:06Z</time>
      </trkpt>
      <trkpt lat="48.38563" lon="-4.6994">
        <ele>68.8</ele>
        <time>2020-06-08T19:03:07Z</time>
      </trkpt>
      <trkpt lat="48.38562" lon="-4.69952">
        <ele>68.8</ele>
        <time>2020-06-08T19:03:08Z</time>
      </trkpt>
      <trkpt lat="48.38562" lon="-4.69964">
        <ele>68.8</ele>
        <time>2020-06-08T19:03:09Z</time>
      </trkpt>
      <trkpt lat="48.38562" lon="-4.69975">
        <ele>68.7</ele>
        <time>2020-06-08T19:03:10Z</time>
      </trkpt>
      <trkpt lat="48.38562" lon="-4.69987">
        <ele>68.7</ele>
        <time>2020-06-08T19:03:11Z</time>
      </trkpt>
      <trkpt lat="48.38561" lon="-4.69998">
        <ele>68.7</ele>
        <time>2020-06-08T19:03:12Z</time>
      </trkpt>
      <trkpt lat="48.38561" lon="-4.7001">
        <ele>68.7</ele>
        <time>2020-06-08T19:03:13Z</time>
      </trkpt>
      <trkpt lat="48.3856" lon="-4.70022">
        <ele>68.8</ele>
        <time>2020-06-08T19:03:14Z</time>
      </trkpt>
      <trkpt lat="48.3856" lon="-4.70034">
        <ele>68.8</ele>
        <time>2020-06-08T19:03:15Z</time>
      </trkpt>
      <trkpt lat="48.3856" lon="-4.70045">
        <ele>68.9</ele>
        <time>2020-06-08T19:03:16Z</time>
      </trkpt>
      <trkpt lat="48.38559" lon="-4.70057">
        <ele>68.9</ele>
        <time>2020-06-08T19:03:17Z</time>
      </trkpt>
      <trkpt lat="48.38559" lon="-4.70068">
        <ele>69</ele>
        <time>2020-06-08T19:03:18Z</time>
      </trkpt>
      <trkpt lat="48.38559" lon="-4.7008">
        <ele>69</ele>
        <time>2020-06-08T19:03:19Z</time>
      </trkpt>
      <trkpt lat="48.38558" lon="-4.70091">
        <ele>69.1</ele>
        <time>2020-06-08T19:03:20Z</time>
      </trkpt>
      <trkpt lat="48.38557" lon="-4.70102">
        <ele>69.3</ele>
        <time>2020-06-08T19:03:21Z</time>
      </trkpt>
      <trkpt lat="48.38556" lon="-4.70113">
        <ele>69.5</ele>
        <time>2020-06-08T19:03:22Z</time>
      </trkpt>
      <trkpt lat="48.38556" lon="-4.70124">
        <ele>69.6</ele>
        <time>2020-06-08T19:03:23Z</time>
      </trkpt>
      <trkpt lat="48.38555" lon="-4.70134">
        <ele>69.6</ele>
        <time>2020-06-08T19:03:24Z</time>
      </trkpt>
      <trkpt lat="48.38553" lon="-4.70145">
        <ele>69.6</ele>
        <time>2020-06-08T19:03:25Z</time>
      </trkpt>
      <trkpt lat="48.3855" lon="-4.70154">
        <ele>69.6</ele>
        <time>2020-06-08T19:03:26Z</time>
      </trkpt>
      <trkpt lat="48.38547" lon="-4.70164">
        <ele>69.7</ele>
        <time>2020-06-08T19:03:27Z</time>
      </trkpt>
      <trkpt lat="48.38544" lon="-4.70173">
        <ele>69.7</ele>
        <time>2020-06-08T19:03:28Z</time>
      </trkpt>
      <trkpt lat="48.38541" lon="-4.70182">
        <ele>69.7</ele>
        <time>2020-06-08T19:03:29Z</time>
      </trkpt>
      <trkpt lat="48.38538" lon="-4.70191">
        <ele>69.7</ele>
        <time>2020-06-08T19:03:30Z</time>
      </trkpt>
      <trkpt lat="48.38535" lon="-4.70201">
        <ele>69.7</ele>
        <time>2020-06-08T19:03:31Z</time>
      </trkpt>
      <trkpt lat="48.38532" lon="-4.7021">
        <ele>69.7</ele>
        <time>2020-06-08T19:03:32Z</time>
      </trkpt>
      <trkpt lat="48.38528" lon="-4.70219">
        <ele>69.7</ele>
        <time>2020-06-08T19:03:33Z</time>
      </trkpt>
      <trkpt lat="48.38525" lon="-4.70228">
        <ele>69.6</ele>
        <time>2020-06-08T19:03:34Z</time>
      </trkpt>
      <trkpt lat="48.38521" lon="-4.70237">
        <ele>69.6</ele>
        <time>2020-06-08T19:03:35Z</time>
      </trkpt>
      <trkpt lat="48.38518" lon="-4.70247">
        <ele>69.5</ele>
        <time>2020-06-08T19:03:36Z</time>
      </trkpt>
      <trkpt lat="48.38515" lon="-4.70256">
        <ele>69.4</ele>
        <time>2020-06-08T19:03:37Z</time>
      </trkpt>
      <trkpt lat="48.38511" lon="-4.70265">
        <ele>69.2</ele>
        <time>2020-06-08T19:03:38Z</time>
      </trkpt>
      <trkpt lat="48.38508" lon="-4.70275">
        <ele>69.1</ele>
        <time>2020-06-08T19:03:39Z</time>
      </trkpt>
      <trkpt lat="48.38504" lon="-4.70284">
        <ele>69</ele>
        <time>2020-06-08T19:03:40Z</time>
      </trkpt>
      <trkpt lat="48.38499" lon="-4.70293">
        <ele>68.8</ele>
        <time>2020-06-08T19:03:41Z</time>
      </trkpt>
      <trkpt lat="48.38495" lon="-4.70303">
        <ele>68.6</ele>
        <time>2020-06-08T19:03:42Z</time>
      </trkpt>
      <trkpt lat="48.38492" lon="-4.70313">
        <ele>68.4</ele>
        <time>2020-06-08T19:03:43Z</time>
      </trkpt>
      <trkpt lat="48.38487" lon="-4.70323">
        <ele>68.2</ele>
        <time>2020-06-08T19:03:44Z</time>
      </trkpt>
      <trkpt lat="48.38483" lon="-4.70333">
        <ele>67.9</ele>
        <time>2020-06-08T19:03:45Z</time>
      </trkpt>
      <trkpt lat="48.38479" lon="-4.70343">
        <ele>67.6</ele>
        <time>2020-06-08T19:03:46Z</time>
      </trkpt>
      <trkpt lat="48.38475" lon="-4.70354">
        <ele>67.2</ele>
        <time>2020-06-08T19:03:47Z</time>
      </trkpt>
      <trkpt lat="48.3847" lon="-4.70364">
        <ele>66.9</ele>
        <time>2020-06-08T19:03:48Z</time>
      </trkpt>
      <trkpt lat="48.38465" lon="-4.70375">
        <ele>66.6</ele>
        <time>2020-06-08T19:03:49Z</time>
      </trkpt>
      <trkpt lat="48.38459" lon="-4.70384">
        <ele>66.2</ele>
        <time>2020-06-08T19:03:50Z</time>
      </trkpt>
      <trkpt lat="48.38452" lon="-4.70393">
        <ele>65.7</ele>
        <time>2020-06-08T19:03:51Z</time>
      </trkpt>
      <trkpt lat="48.38446" lon="-4.70403">
        <ele>65.3</ele>
        <time>2020-06-08T19:03:52Z</time>
      </trkpt>
      <trkpt lat="48.3844" lon="-4.70413">
        <ele>64.8</ele>
        <time>2020-06-08T19:03:53Z</time>
      </trkpt>
      <trkpt lat="48.38434" lon="-4.70424">
        <ele>64.3</ele>
        <time>2020-06-08T19:03:54Z</time>
      </trkpt>
      <trkpt lat="48.38429" lon="-4.70436">
        <ele>63.8</ele>
        <time>2020-06-08T19:03:55Z</time>
      </trkpt>
      <trkpt lat="48.38423" lon="-4.70447">
        <ele>63.3</ele>
        <time>2020-06-08T19:03:56Z</time>
      </trkpt>
      <trkpt lat="48.38416" lon="-4.70458">
        <ele>62.9</ele>
        <time>2020-06-08T19:03:57Z</time>
      </trkpt>
      <trkpt lat="48.38409" lon="-4.70468">
        <ele>62.4</ele>
        <time>2020-06-08T19:03:58Z</time>
      </trkpt>
      <trkpt lat="48.38403" lon="-4.70478">
        <ele>62.1</ele>
        <time>2020-06-08T19:03:59Z</time>
      </trkpt>
      <trkpt lat="48.38396" lon="-4.7049">
        <ele>61.8</ele>
        <time>2020-06-08T19:04:00Z</time>
      </trkpt>
      <trkpt lat="48.38391" lon="-4.70502">
        <ele>61.5</ele>
        <time>2020-06-08T19:04:01Z</time>
      </trkpt>
      <trkpt lat="48.38385" lon="-4.70513">
        <ele>61.1</ele>
        <time>2020-06-08T19:04:02Z</time>
      </trkpt>
      <trkpt lat="48.38378" lon="-4.70524">
        <ele>60.8</ele>
        <time>2020-06-08T19:04:03Z</time>
      </trkpt>
      <trkpt lat="48.38372" lon="-4.70535">
        <ele>60.5</ele>
        <time>2020-06-08T19:04:04Z</time>
      </trkpt>
      <trkpt lat="48.38365" lon="-4.70545">
        <ele>60.3</ele>
        <time>2020-06-08T19:04:05Z</time>
      </trkpt>
      <trkpt lat="48.38359" lon="-4.70556">
        <ele>60.1</ele>
        <time>2020-06-08T19:04:06Z</time>
      </trkpt>
      <trkpt lat="48.38353" lon="-4.70567">
        <ele>59.8</ele>
        <time>2020-06-08T19:04:07Z</time>
      </trkpt>
      <trkpt lat="48.38346" lon="-4.70578">
        <ele>59.6</ele>
        <time>2020-06-08T19:04:08Z</time>
      </trkpt>
      <trkpt lat="48.38341" lon="-4.70589">
        <ele>59.4</ele>
        <time>2020-06-08T19:04:09Z</time>
      </trkpt>
      <trkpt lat="48.38334" lon="-4.70599">
        <ele>59.3</ele>
        <time>2020-06-08T19:04:10Z</time>
      </trkpt>
      <trkpt lat="48.38328" lon="-4.70609">
        <ele>59.2</ele>
        <time>2020-06-08T19:04:11Z</time>
      </trkpt>
      <trkpt lat="48.38322" lon="-4.70619">
        <ele>59.1</ele>
        <time>2020-06-08T19:04:12Z</time>
      </trkpt>
      <trkpt lat="48.38316" lon="-4.7063">
        <ele>59</ele>
        <time>2020-06-08T19:04:13Z</time>
      </trkpt>
      <trkpt lat="48.38311" lon="-4.70641">
        <ele>58.9</ele>
        <time>2020-06-08T19:04:14Z</time>
      </trkpt>
      <trkpt lat="48.38305" lon="-4.70651">
        <ele>58.9</ele>
        <time>2020-06-08T19:04:15Z</time>
      </trkpt>
      <trkpt lat="48.38299" lon="-4.70661">
        <ele>58.8</ele>
        <time>2020-06-08T19:04:16Z</time>
      </trkpt>
      <trkpt lat="48.38293" lon="-4.70671">
        <ele>58.6</ele>
        <time>2020-06-08T19:04:17Z</time>
      </trkpt>
      <trkpt lat="48.38288" lon="-4.70682">
        <ele>58.5</ele>
        <time>2020-06-08T19:04:18Z</time>
      </trkpt>
      <trkpt lat="48.38283" lon="-4.70692">
        <ele>58.3</ele>
        <time>2020-06-08T19:04:19Z</time>
      </trkpt>
      <trkpt lat="48.38279" lon="-4.70704">
        <ele>58.1</ele>
        <time>2020-06-08T19:04:20Z</time>
      </trkpt>
      <trkpt lat="48.38273" lon="-4.70715">
        <ele>57.9</ele>
        <time>2020-06-08T19:04:21Z</time>
      </trkpt>
      <trkpt lat="48.38268" lon="-4.70725">
        <ele>57.8</ele>
        <time>2020-06-08T19:04:22Z</time>
      </trkpt>
      <trkpt lat="48.38262" lon="-4.70735">
        <ele>57.8</ele>
        <time>2020-06-08T19:04:23Z</time>
      </trkpt>
      <trkpt lat="48.38257" lon="-4.70745">
        <ele>57.8</ele>
        <time>2020-06-08T19:04:24Z</time>
      </trkpt>
      <trkpt lat="48.38252" lon="-4.70756">
        <ele>57.7</ele>
        <time>2020-06-08T19:04:25Z</time>
      </trkpt>
      <trkpt lat="48.38248" lon="-4.70767">
        <ele>57.7</ele>
        <time>2020-06-08T19:04:26Z</time>
      </trkpt>
      <trkpt lat="48.38243" lon="-4.70778">
        <ele>57.7</ele>
        <time>2020-06-08T19:04:27Z</time>
      </trkpt>
      <trkpt lat="48.38239" lon="-4.70789">
        <ele>57.7</ele>
        <time>2020-06-08T19:04:28Z</time>
      </trkpt>
      <trkpt lat="48.38234" lon="-4.70799">
        <ele>57.7</ele>
        <time>2020-06-08T19:04:29Z</time>
      </trkpt>
      <trkpt lat="48.38229" lon="-4.70809">
        <ele>57.7</ele>
        <time>2020-06-08T19:04:30Z</time>
      </trkpt>
      <trkpt lat="48.38224" lon="-4.7082">
        <ele>57.7</ele>
        <time>2020-06-08T19:04:31Z</time>
      </trkpt>
      <trkpt lat="48.38219" lon="-4.7083">
        <ele>57.8</ele>
        <time>2020-06-08T19:04:32Z</time>
      </trkpt>
      <trkpt lat="48.38215" lon="-4.70841">
        <ele>57.8</ele>
        <time>2020-06-08T19:04:33Z</time>
      </trkpt>
      <trkpt lat="48.3821" lon="-4.7085">
        <ele>57.9</ele>
        <time>2020-06-08T19:04:34Z</time>
      </trkpt>
      <trkpt lat="48.38205" lon="-4.7086">
        <ele>58</ele>
        <time>2020-06-08T19:04:35Z</time>
      </trkpt>
      <trkpt lat="48.38201" lon="-4.7087">
        <ele>58.1</ele>
        <time>2020-06-08T19:04:36Z</time>
      </trkpt>
      <trkpt lat="48.38196" lon="-4.7088">
        <ele>58.2</ele>
        <time>2020-06-08T19:04:37Z</time>
      </trkpt>
      <trkpt lat="48.38192" lon="-4.70889">
        <ele>58.2</ele>
        <time>2020-06-08T19:04:38Z</time>
      </trkpt>
      <trkpt lat="48.38188" lon="-4.70899">
        <ele>58.3</ele>
        <time>2020-06-08T19:04:39Z</time>
      </trkpt>
      <trkpt lat="48.38183" lon="-4.70907">
        <ele>58.4</ele>
        <time>2020-06-08T19:04:40Z</time>
      </trkpt>
      <trkpt lat="48.38178" lon="-4.70916">
        <ele>58.4</ele>
        <time>2020-06-08T19:04:41Z</time>
      </trkpt>
      <trkpt lat="48.38174" lon="-4.70925">
        <ele>58.4</ele>
        <time>2020-06-08T19:04:42Z</time>
      </trkpt>
      <trkpt lat="48.3817" lon="-4.70934">
        <ele>58.4</ele>
        <time>2020-06-08T19:04:43Z</time>
      </trkpt>
      <trkpt lat="48.38166" lon="-4.70943">
        <ele>58.4</ele>
        <time>2020-06-08T19:04:44Z</time>
      </trkpt>
      <trkpt lat="48.38162" lon="-4.70952">
        <ele>58.4</ele>
        <time>2020-06-08T19:04:45Z</time>
      </trkpt>
      <trkpt lat="48.38157" lon="-4.70961">
        <ele>58.5</ele>
        <time>2020-06-08T19:04:46Z</time>
      </trkpt>
      <trkpt lat="48.38153" lon="-4.70969">
        <ele>58.5</ele>
        <time>2020-06-08T19:04:47Z</time>
      </trkpt>
      <trkpt lat="48.38149" lon="-4.70978">
        <ele>58.5</ele>
        <time>2020-06-08T19:04:48Z</time>
      </trkpt>
      <trkpt lat="48.38145" lon="-4.70987">
        <ele>58.6</ele>
        <time>2020-06-08T19:04:49Z</time>
      </trkpt>
      <trkpt lat="48.38141" lon="-4.70997">
        <ele>58.6</ele>
        <time>2020-06-08T19:04:50Z</time>
      </trkpt>
      <trkpt lat="48.38138" lon="-4.71005">
        <ele>58.6</ele>
        <time>2020-06-08T19:04:51Z</time>
      </trkpt>
      <trkpt lat="48.38134" lon="-4.71014">
        <ele>58.7</ele>
        <time>2020-06-08T19:04:52Z</time>
      </trkpt>
      <trkpt lat="48.38129" lon="-4.71022">
        <ele>58.7</ele>
        <time>2020-06-08T19:04:53Z</time>
      </trkpt>
      <trkpt lat="48.38126" lon="-4.71031">
        <ele>58.7</ele>
        <time>2020-06-08T19:04:54Z</time>
      </trkpt>
      <trkpt lat="48.38122" lon="-4.71039">
        <ele>58.8</ele>
        <time>2020-06-08T19:04:55Z</time>
      </trkpt>
      <trkpt lat="48.38117" lon="-4.71048">
        <ele>58.8</ele>
        <time>2020-06-08T19:04:56Z</time>
      </trkpt>
      <trkpt lat="48.38113" lon="-4.71056">
        <ele>58.8</ele>
        <time>2020-06-08T19:04:57Z</time>
      </trkpt>
      <trkpt lat="48.38109" lon="-4.71065">
        <ele>58.9</ele>
        <time>2020-06-08T19:04:58Z</time>
      </trkpt>
      <trkpt lat="48.38106" lon="-4.71074">
        <ele>58.9</ele>
        <time>2020-06-08T19:04:59Z</time>
      </trkpt>
      <trkpt lat="48.38102" lon="-4.71082">
        <ele>58.9</ele>
        <time>2020-06-08T19:05:00Z</time>
      </trkpt>
      <trkpt lat="48.38097" lon="-4.71091">
        <ele>58.9</ele>
        <time>2020-06-08T19:05:01Z</time>
      </trkpt>
      <trkpt lat="48.38093" lon="-4.711">
        <ele>58.9</ele>
        <time>2020-06-08T19:05:02Z</time>
      </trkpt>
      <trkpt lat="48.38089" lon="-4.71108">
        <ele>58.9</ele>
        <time>2020-06-08T19:05:03Z</time>
      </trkpt>
      <trkpt lat="48.38085" lon="-4.71116">
        <ele>58.9</ele>
        <time>2020-06-08T19:05:04Z</time>
      </trkpt>
      <trkpt lat="48.38081" lon="-4.71125">
        <ele>58.9</ele>
        <time>2020-06-08T19:05:05Z</time>
      </trkpt>
      <trkpt lat="48.38077" lon="-4.71134">
        <ele>58.8</ele>
        <time>2020-06-08T19:05:06Z</time>
      </trkpt>
      <trkpt lat="48.38073" lon="-4.71142">
        <ele>58.8</ele>
        <time>2020-06-08T19:05:07Z</time>
      </trkpt>
      <trkpt lat="48.38069" lon="-4.71151">
        <ele>58.8</ele>
        <time>2020-06-08T19:05:08Z</time>
      </trkpt>
      <trkpt lat="48.38065" lon="-4.7116">
        <ele>58.7</ele>
        <time>2020-06-08T19:05:09Z</time>
      </trkpt>
      <trkpt lat="48.38061" lon="-4.71169">
        <ele>58.7</ele>
        <time>2020-06-08T19:05:10Z</time>
      </trkpt>
      <trkpt lat="48.38058" lon="-4.71178">
        <ele>58.7</ele>
        <time>2020-06-08T19:05:11Z</time>
      </trkpt>
      <trkpt lat="48.38054" lon="-4.71188">
        <ele>58.7</ele>
        <time>2020-06-08T19:05:12Z</time>
      </trkpt>
      <trkpt lat="48.38051" lon="-4.71197">
        <ele>58.7</ele>
        <time>2020-06-08T19:05:13Z</time>
      </trkpt>
      <trkpt lat="48.38048" lon="-4.71207">
        <ele>58.7</ele>
        <time>2020-06-08T19:05:14Z</time>
      </trkpt>
      <trkpt lat="48.38044" lon="-4.71217">
        <ele>58.6</ele>
        <time>2020-06-08T19:05:15Z</time>
      </trkpt>
      <trkpt lat="48.38041" lon="-4.71227">
        <ele>58.6</ele>
        <time>2020-06-08T19:05:16Z</time>
      </trkpt>
      <trkpt lat="48.38038" lon="-4.71236">
        <ele>58.6</ele>
        <time>2020-06-08T19:05:17Z</time>
      </trkpt>
      <trkpt lat="48.38036" lon="-4.71246">
        <ele>58.5</ele>
        <time>2020-06-08T19:05:18Z</time>
      </trkpt>
      <trkpt lat="48.38033" lon="-4.71256">
        <ele>58.5</ele>
        <time>2020-06-08T19:05:19Z</time>
      </trkpt>
      <trkpt lat="48.38031" lon="-4.71265">
        <ele>58.5</ele>
        <time>2020-06-08T19:05:20Z</time>
      </trkpt>
      <trkpt lat="48.38029" lon="-4.71275">
        <ele>58.5</ele>
        <time>2020-06-08T19:05:21Z</time>
      </trkpt>
      <trkpt lat="48.38027" lon="-4.71284">
        <ele>58.5</ele>
        <time>2020-06-08T19:05:22Z</time>
      </trkpt>
      <trkpt lat="48.38023" lon="-4.71293">
        <ele>58.5</ele>
        <time>2020-06-08T19:05:23Z</time>
      </trkpt>
      <trkpt lat="48.38019" lon="-4.71301">
        <ele>58.5</ele>
        <time>2020-06-08T19:05:24Z</time>
      </trkpt>
      <trkpt lat="48.38016" lon="-4.71309">
        <ele>58.5</ele>
        <time>2020-06-08T19:05:25Z</time>
      </trkpt>
      <trkpt lat="48.38013" lon="-4.71319">
        <ele>58.5</ele>
        <time>2020-06-08T19:05:26Z</time>
      </trkpt>
      <trkpt lat="48.3801" lon="-4.71328">
        <ele>58.6</ele>
        <time>2020-06-08T19:05:27Z</time>
      </trkpt>
      <trkpt lat="48.38007" lon="-4.71338">
        <ele>58.6</ele>
        <time>2020-06-08T19:05:28Z</time>
      </trkpt>
      <trkpt lat="48.38005" lon="-4.71347">
        <ele>58.6</ele>
        <time>2020-06-08T19:05:29Z</time>
      </trkpt>
      <trkpt lat="48.38001" lon="-4.71356">
        <ele>58.7</ele>
        <time>2020-06-08T19:05:30Z</time>
      </trkpt>
      <trkpt lat="48.37999" lon="-4.71365">
        <ele>58.7</ele>
        <time>2020-06-08T19:05:31Z</time>
      </trkpt>
      <trkpt lat="48.37996" lon="-4.71374">
        <ele>58.8</ele>
        <time>2020-06-08T19:05:32Z</time>
      </trkpt>
      <trkpt lat="48.37993" lon="-4.71383">
        <ele>58.8</ele>
        <time>2020-06-08T19:05:33Z</time>
      </trkpt>
      <trkpt lat="48.3799" lon="-4.71391">
        <ele>58.8</ele>
        <time>2020-06-08T19:05:34Z</time>
      </trkpt>
      <trkpt lat="48.37988" lon="-4.71401">
        <ele>58.8</ele>
        <time>2020-06-08T19:05:35Z</time>
      </trkpt>
      <trkpt lat="48.37986" lon="-4.7141">
        <ele>58.8</ele>
        <time>2020-06-08T19:05:36Z</time>
      </trkpt>
      <trkpt lat="48.37984" lon="-4.71419">
        <ele>58.8</ele>
        <time>2020-06-08T19:05:37Z</time>
      </trkpt>
      <trkpt lat="48.37981" lon="-4.71428">
        <ele>58.8</ele>
        <time>2020-06-08T19:05:38Z</time>
      </trkpt>
      <trkpt lat="48.37979" lon="-4.71437">
        <ele>58.8</ele>
        <time>2020-06-08T19:05:39Z</time>
      </trkpt>
      <trkpt lat="48.37975" lon="-4.71445">
        <ele>58.7</ele>
        <time>2020-06-08T19:05:40Z</time>
      </trkpt>
      <trkpt lat="48.37972" lon="-4.71454">
        <ele>58.7</ele>
        <time>2020-06-08T19:05:41Z</time>
      </trkpt>
      <trkpt lat="48.37968" lon="-4.71462">
        <ele>58.7</ele>
        <time>2020-06-08T19:05:42Z</time>
      </trkpt>
      <trkpt lat="48.37966" lon="-4.71472">
        <ele>58.6</ele>
        <time>2020-06-08T19:05:43Z</time>
      </trkpt>
      <trkpt lat="48.37964" lon="-4.71482">
        <ele>58.7</ele>
        <time>2020-06-08T19:05:44Z</time>
      </trkpt>
      <trkpt lat="48.37961" lon="-4.71491">
        <ele>58.7</ele>
        <time>2020-06-08T19:05:45Z</time>
      </trkpt>
      <trkpt lat="48.37958" lon="-4.715">
        <ele>58.8</ele>
        <time>2020-06-08T19:05:46Z</time>
      </trkpt>
      <trkpt lat="48.37954" lon="-4.71509">
        <ele>58.8</ele>
        <time>2020-06-08T19:05:47Z</time>
      </trkpt>
      <trkpt lat="48.37951" lon="-4.71518">
        <ele>58.6</ele>
        <time>2020-06-08T19:05:48Z</time>
      </trkpt>
      <trkpt lat="48.37948" lon="-4.71527">
        <ele>58.4</ele>
        <time>2020-06-08T19:05:49Z</time>
      </trkpt>
      <trkpt lat="48.37946" lon="-4.71535">
        <ele>58.2</ele>
        <time>2020-06-08T19:05:50Z</time>
      </trkpt>
      <trkpt lat="48.37944" lon="-4.71543">
        <ele>58.1</ele>
        <time>2020-06-08T19:05:51Z</time>
      </trkpt>
      <trkpt lat="48.37941" lon="-4.71551">
        <ele>58.1</ele>
        <time>2020-06-08T19:05:52Z</time>
      </trkpt>
      <trkpt lat="48.37938" lon="-4.71559">
        <ele>58</ele>
        <time>2020-06-08T19:05:53Z</time>
      </trkpt>
      <trkpt lat="48.37936" lon="-4.71567">
        <ele>58</ele>
        <time>2020-06-08T19:05:54Z</time>
      </trkpt>
      <trkpt lat="48.37933" lon="-4.71575">
        <ele>58</ele>
        <time>2020-06-08T19:05:55Z</time>
      </trkpt>
      <trkpt lat="48.3793" lon="-4.71583">
        <ele>57.9</ele>
        <time>2020-06-08T19:05:56Z</time>
      </trkpt>
      <trkpt lat="48.37927" lon="-4.71591">
        <ele>57.9</ele>
        <time>2020-06-08T19:05:57Z</time>
      </trkpt>
      <trkpt lat="48.37925" lon="-4.71599">
        <ele>57.9</ele>
        <time>2020-06-08T19:05:58Z</time>
      </trkpt>
      <trkpt lat="48.37924" lon="-4.71609">
        <ele>57.8</ele>
        <time>2020-06-08T19:05:59Z</time>
      </trkpt>
      <trkpt lat="48.37922" lon="-4.71617">
        <ele>57.8</ele>
        <time>2020-06-08T19:06:00Z</time>
      </trkpt>
      <trkpt lat="48.37919" lon="-4.71625">
        <ele>57.8</ele>
        <time>2020-06-08T19:06:01Z</time>
      </trkpt>
      <trkpt lat="48.37916" lon="-4.71632">
        <ele>57.8</ele>
        <time>2020-06-08T19:06:02Z</time>
      </trkpt>
      <trkpt lat="48.37912" lon="-4.7164">
        <ele>57.8</ele>
        <time>2020-06-08T19:06:03Z</time>
      </trkpt>
      <trkpt lat="48.3791" lon="-4.71648">
        <ele>57.8</ele>
        <time>2020-06-08T19:06:04Z</time>
      </trkpt>
      <trkpt lat="48.37907" lon="-4.71657">
        <ele>57.8</ele>
        <time>2020-06-08T19:06:05Z</time>
      </trkpt>
      <trkpt lat="48.37904" lon="-4.71665">
        <ele>57.8</ele>
        <time>2020-06-08T19:06:06Z</time>
      </trkpt>
      <trkpt lat="48.37901" lon="-4.71672">
        <ele>57.8</ele>
        <time>2020-06-08T19:06:07Z</time>
      </trkpt>
      <trkpt lat="48.37898" lon="-4.71679">
        <ele>57.8</ele>
        <time>2020-06-08T19:06:08Z</time>
      </trkpt>
      <trkpt lat="48.37895" lon="-4.71687">
        <ele>57.8</ele>
        <time>2020-06-08T19:06:09Z</time>
      </trkpt>
      <trkpt lat="48.37893" lon="-4.71695">
        <ele>57.7</ele>
        <time>2020-06-08T19:06:10Z</time>
      </trkpt>
      <trkpt lat="48.3789" lon="-4.71704">
        <ele>57.7</ele>
        <time>2020-06-08T19:06:11Z</time>
      </trkpt>
      <trkpt lat="48.37887" lon="-4.71712">
        <ele>57.6</ele>
        <time>2020-06-08T19:06:12Z</time>
      </trkpt>
      <trkpt lat="48.37884" lon="-4.7172">
        <ele>57.6</ele>
        <time>2020-06-08T19:06:13Z</time>
      </trkpt>
      <trkpt lat="48.37881" lon="-4.71728">
        <ele>57.5</ele>
        <time>2020-06-08T19:06:14Z</time>
      </trkpt>
      <trkpt lat="48.37878" lon="-4.71735">
        <ele>57.5</ele>
        <time>2020-06-08T19:06:15Z</time>
      </trkpt>
      <trkpt lat="48.37875" lon="-4.71743">
        <ele>57.5</ele>
        <time>2020-06-08T19:06:16Z</time>
      </trkpt>
      <trkpt lat="48.37872" lon="-4.71752">
        <ele>57.5</ele>
        <time>2020-06-08T19:06:17Z</time>
      </trkpt>
      <trkpt lat="48.37869" lon="-4.71761">
        <ele>57.5</ele>
        <time>2020-06-08T19:06:18Z</time>
      </trkpt>
      <trkpt lat="48.37866" lon="-4.71769">
        <ele>57.5</ele>
        <time>2020-06-08T19:06:19Z</time>
      </trkpt>
      <trkpt lat="48.37862" lon="-4.71776">
        <ele>57.4</ele>
        <time>2020-06-08T19:06:20Z</time>
      </trkpt>
      <trkpt lat="48.37858" lon="-4.71783">
        <ele>57.3</ele>
        <time>2020-06-08T19:06:21Z</time>
      </trkpt>
      <trkpt lat="48.37854" lon="-4.71791">
        <ele>57.2</ele>
        <time>2020-06-08T19:06:22Z</time>
      </trkpt>
      <trkpt lat="48.37852" lon="-4.71798">
        <ele>57.1</ele>
        <time>2020-06-08T19:06:23Z</time>
      </trkpt>
      <trkpt lat="48.37849" lon="-4.71806">
        <ele>57</ele>
        <time>2020-06-08T19:06:24Z</time>
      </trkpt>
      <trkpt lat="48.37846" lon="-4.71814">
        <ele>56.9</ele>
        <time>2020-06-08T19:06:25Z</time>
      </trkpt>
      <trkpt lat="48.37843" lon="-4.71822">
        <ele>56.9</ele>
        <time>2020-06-08T19:06:26Z</time>
      </trkpt>
      <trkpt lat="48.37839" lon="-4.7183">
        <ele>56.8</ele>
        <time>2020-06-08T19:06:27Z</time>
      </trkpt>
      <trkpt lat="48.37835" lon="-4.71837">
        <ele>56.7</ele>
        <time>2020-06-08T19:06:28Z</time>
      </trkpt>
      <trkpt lat="48.37831" lon="-4.71846">
        <ele>56.6</ele>
        <time>2020-06-08T19:06:29Z</time>
      </trkpt>
      <trkpt lat="48.37827" lon="-4.71854">
        <ele>56.5</ele>
        <time>2020-06-08T19:06:30Z</time>
      </trkpt>
      <trkpt lat="48.37824" lon="-4.71862">
        <ele>56.4</ele>
        <time>2020-06-08T19:06:31Z</time>
      </trkpt>
      <trkpt lat="48.37821" lon="-4.71871">
        <ele>56.3</ele>
        <time>2020-06-08T19:06:32Z</time>
      </trkpt>
      <trkpt lat="48.37818" lon="-4.71879">
        <ele>56.2</ele>
        <time>2020-06-08T19:06:33Z</time>
      </trkpt>
      <trkpt lat="48.37814" lon="-4.71887">
        <ele>56.2</ele>
        <time>2020-06-08T19:06:34Z</time>
      </trkpt>
      <trkpt lat="48.3781" lon="-4.71896">
        <ele>56.2</ele>
        <time>2020-06-08T19:06:35Z</time>
      </trkpt>
      <trkpt lat="48.37806" lon="-4.71903">
        <ele>56.2</ele>
        <time>2020-06-08T19:06:36Z</time>
      </trkpt>
      <trkpt lat="48.37803" lon="-4.71911">
        <ele>56.2</ele>
        <time>2020-06-08T19:06:37Z</time>
      </trkpt>
      <trkpt lat="48.378" lon="-4.71919">
        <ele>56.2</ele>
        <time>2020-06-08T19:06:38Z</time>
      </trkpt>
      <trkpt lat="48.37797" lon="-4.71927">
        <ele>56.1</ele>
        <time>2020-06-08T19:06:39Z</time>
      </trkpt>
      <trkpt lat="48.37794" lon="-4.71935">
        <ele>56.1</ele>
        <time>2020-06-08T19:06:40Z</time>
      </trkpt>
      <trkpt lat="48.37791" lon="-4.71943">
        <ele>56</ele>
        <time>2020-06-08T19:06:41Z</time>
      </trkpt>
      <trkpt lat="48.37787" lon="-4.71952">
        <ele>55.9</ele>
        <time>2020-06-08T19:06:42Z</time>
      </trkpt>
      <trkpt lat="48.37784" lon="-4.71961">
        <ele>55.8</ele>
        <time>2020-06-08T19:06:43Z</time>
      </trkpt>
      <trkpt lat="48.3778" lon="-4.71969">
        <ele>55.8</ele>
        <time>2020-06-08T19:06:44Z</time>
      </trkpt>
      <trkpt lat="48.37776" lon="-4.71978">
        <ele>55.7</ele>
        <time>2020-06-08T19:06:45Z</time>
      </trkpt>
      <trkpt lat="48.37772" lon="-4.71986">
        <ele>55.6</ele>
        <time>2020-06-08T19:06:46Z</time>
      </trkpt>
      <trkpt lat="48.37767" lon="-4.71995">
        <ele>55.6</ele>
        <time>2020-06-08T19:06:47Z</time>
      </trkpt>
      <trkpt lat="48.37764" lon="-4.72004">
        <ele>55.5</ele>
        <time>2020-06-08T19:06:48Z</time>
      </trkpt>
      <trkpt lat="48.3776" lon="-4.72014">
        <ele>55.5</ele>
        <time>2020-06-08T19:06:49Z</time>
      </trkpt>
      <trkpt lat="48.37756" lon="-4.72023">
        <ele>55.4</ele>
        <time>2020-06-08T19:06:50Z</time>
      </trkpt>
      <trkpt lat="48.37752" lon="-4.72032">
        <ele>55.3</ele>
        <time>2020-06-08T19:06:51Z</time>
      </trkpt>
      <trkpt lat="48.37748" lon="-4.72041">
        <ele>55.2</ele>
        <time>2020-06-08T19:06:52Z</time>
      </trkpt>
      <trkpt lat="48.37744" lon="-4.7205">
        <ele>55.1</ele>
        <time>2020-06-08T19:06:53Z</time>
      </trkpt>
      <trkpt lat="48.3774" lon="-4.72058">
        <ele>55.1</ele>
        <time>2020-06-08T19:06:54Z</time>
      </trkpt>
      <trkpt lat="48.37736" lon="-4.72067">
        <ele>55</ele>
        <time>2020-06-08T19:06:55Z</time>
      </trkpt>
      <trkpt lat="48.37732" lon="-4.72076">
        <ele>54.9</ele>
        <time>2020-06-08T19:06:56Z</time>
      </trkpt>
      <trkpt lat="48.37728" lon="-4.72085">
        <ele>54.8</ele>
        <time>2020-06-08T19:06:57Z</time>
      </trkpt>
      <trkpt lat="48.37724" lon="-4.72094">
        <ele>54.7</ele>
        <time>2020-06-08T19:06:58Z</time>
      </trkpt>
      <trkpt lat="48.3772" lon="-4.72103">
        <ele>54.6</ele>
        <time>2020-06-08T19:06:59Z</time>
      </trkpt>
      <trkpt lat="48.37716" lon="-4.72112">
        <ele>54.6</ele>
        <time>2020-06-08T19:07:00Z</time>
      </trkpt>
      <trkpt lat="48.37712" lon="-4.7212">
        <ele>54.5</ele>
        <time>2020-06-08T19:07:01Z</time>
      </trkpt>
      <trkpt lat="48.37707" lon="-4.72128">
        <ele>54.4</ele>
        <time>2020-06-08T19:07:02Z</time>
      </trkpt>
      <trkpt lat="48.37703" lon="-4.72136">
        <ele>54.3</ele>
        <time>2020-06-08T19:07:03Z</time>
      </trkpt>
      <trkpt lat="48.37698" lon="-4.72144">
        <ele>54.3</ele>
        <time>2020-06-08T19:07:04Z</time>
      </trkpt>
      <trkpt lat="48.37693" lon="-4.72152">
        <ele>54.2</ele>
        <time>2020-06-08T19:07:05Z</time>
      </trkpt>
      <trkpt lat="48.37689" lon="-4.72162">
        <ele>54.1</ele>
        <time>2020-06-08T19:07:06Z</time>
      </trkpt>
      <trkpt lat="48.37684" lon="-4.72172">
        <ele>54</ele>
        <time>2020-06-08T19:07:07Z</time>
      </trkpt>
      <trkpt lat="48.3768" lon="-4.72181">
        <ele>53.8</ele>
        <time>2020-06-08T19:07:08Z</time>
      </trkpt>
      <trkpt lat="48.37675" lon="-4.7219">
        <ele>53.7</ele>
        <time>2020-06-08T19:07:09Z</time>
      </trkpt>
      <trkpt lat="48.3767" lon="-4.722">
        <ele>53.3</ele>
        <time>2020-06-08T19:07:10Z</time>
      </trkpt>
      <trkpt lat="48.37665" lon="-4.72209">
        <ele>53</ele>
        <time>2020-06-08T19:07:11Z</time>
      </trkpt>
      <trkpt lat="48.37661" lon="-4.72219">
        <ele>52.8</ele>
        <time>2020-06-08T19:07:12Z</time>
      </trkpt>
      <trkpt lat="48.37655" lon="-4.72228">
        <ele>52.6</ele>
        <time>2020-06-08T19:07:13Z</time>
      </trkpt>
      <trkpt lat="48.3765" lon="-4.72237">
        <ele>52.4</ele>
        <time>2020-06-08T19:07:14Z</time>
      </trkpt>
      <trkpt lat="48.37645" lon="-4.72246">
        <ele>52.3</ele>
        <time>2020-06-08T19:07:15Z</time>
      </trkpt>
      <trkpt lat="48.3764" lon="-4.72256">
        <ele>52.1</ele>
        <time>2020-06-08T19:07:16Z</time>
      </trkpt>
      <trkpt lat="48.37635" lon="-4.72266">
        <ele>52</ele>
        <time>2020-06-08T19:07:17Z</time>
      </trkpt>
      <trkpt lat="48.3763" lon="-4.72276">
        <ele>51.9</ele>
        <time>2020-06-08T19:07:18Z</time>
      </trkpt>
      <trkpt lat="48.37625" lon="-4.72285">
        <ele>51.8</ele>
        <time>2020-06-08T19:07:19Z</time>
      </trkpt>
      <trkpt lat="48.37619" lon="-4.72294">
        <ele>51.7</ele>
        <time>2020-06-08T19:07:20Z</time>
      </trkpt>
      <trkpt lat="48.37613" lon="-4.72304">
        <ele>51.6</ele>
        <time>2020-06-08T19:07:21Z</time>
      </trkpt>
      <trkpt lat="48.37608" lon="-4.72313">
        <ele>51.5</ele>
        <time>2020-06-08T19:07:22Z</time>
      </trkpt>
      <trkpt lat="48.37603" lon="-4.72323">
        <ele>51.4</ele>
        <time>2020-06-08T19:07:23Z</time>
      </trkpt>
      <trkpt lat="48.37599" lon="-4.72333">
        <ele>51.3</ele>
        <time>2020-06-08T19:07:24Z</time>
      </trkpt>
      <trkpt lat="48.37594" lon="-4.72343">
        <ele>51.1</ele>
        <time>2020-06-08T19:07:25Z</time>
      </trkpt>
      <trkpt lat="48.37588" lon="-4.72352">
        <ele>50.9</ele>
        <time>2020-06-08T19:07:26Z</time>
      </trkpt>
      <trkpt lat="48.37583" lon="-4.7236">
        <ele>50.8</ele>
        <time>2020-06-08T19:07:27Z</time>
      </trkpt>
      <trkpt lat="48.37578" lon="-4.72369">
        <ele>50.7</ele>
        <time>2020-06-08T19:07:28Z</time>
      </trkpt>
      <trkpt lat="48.37573" lon="-4.72379">
        <ele>50.7</ele>
        <time>2020-06-08T19:07:29Z</time>
      </trkpt>
      <trkpt lat="48.37568" lon="-4.72388">
        <ele>50.6</ele>
        <time>2020-06-08T19:07:30Z</time>
      </trkpt>
      <trkpt lat="48.37564" lon="-4.72398">
        <ele>50.5</ele>
        <time>2020-06-08T19:07:31Z</time>
      </trkpt>
      <trkpt lat="48.37559" lon="-4.72407">
        <ele>50.3</ele>
        <time>2020-06-08T19:07:32Z</time>
      </trkpt>
      <trkpt lat="48.37554" lon="-4.72416">
        <ele>50.1</ele>
        <time>2020-06-08T19:07:33Z</time>
      </trkpt>
      <trkpt lat="48.3755" lon="-4.72426">
        <ele>49.9</ele>
        <time>2020-06-08T19:07:34Z</time>
      </trkpt>
      <trkpt lat="48.37545" lon="-4.72435">
        <ele>49.7</ele>
        <time>2020-06-08T19:07:35Z</time>
      </trkpt>
      <trkpt lat="48.3754" lon="-4.72445">
        <ele>49.5</ele>
        <time>2020-06-08T19:07:36Z</time>
      </trkpt>
      <trkpt lat="48.37535" lon="-4.72454">
        <ele>49.3</ele>
        <time>2020-06-08T19:07:37Z</time>
      </trkpt>
      <trkpt lat="48.3753" lon="-4.72463">
        <ele>49.2</ele>
        <time>2020-06-08T19:07:38Z</time>
      </trkpt>
      <trkpt lat="48.37525" lon="-4.72472">
        <ele>49</ele>
        <time>2020-06-08T19:07:39Z</time>
      </trkpt>
      <trkpt lat="48.3752" lon="-4.72481">
        <ele>48.9</ele>
        <time>2020-06-08T19:07:40Z</time>
      </trkpt>
      <trkpt lat="48.37515" lon="-4.7249">
        <ele>48.9</ele>
        <time>2020-06-08T19:07:41Z</time>
      </trkpt>
      <trkpt lat="48.37509" lon="-4.72499">
        <ele>48.8</ele>
        <time>2020-06-08T19:07:42Z</time>
      </trkpt>
      <trkpt lat="48.37504" lon="-4.72508">
        <ele>48.5</ele>
        <time>2020-06-08T19:07:43Z</time>
      </trkpt>
      <trkpt lat="48.37499" lon="-4.72518">
        <ele>48.2</ele>
        <time>2020-06-08T19:07:44Z</time>
      </trkpt>
      <trkpt lat="48.37494" lon="-4.72528">
        <ele>48</ele>
        <time>2020-06-08T19:07:45Z</time>
      </trkpt>
      <trkpt lat="48.37489" lon="-4.72537">
        <ele>47.7</ele>
        <time>2020-06-08T19:07:46Z</time>
      </trkpt>
      <trkpt lat="48.37483" lon="-4.72547">
        <ele>47.5</ele>
        <time>2020-06-08T19:07:47Z</time>
      </trkpt>
      <trkpt lat="48.37477" lon="-4.72556">
        <ele>47.3</ele>
        <time>2020-06-08T19:07:48Z</time>
      </trkpt>
      <trkpt lat="48.37472" lon="-4.72565">
        <ele>47.1</ele>
        <time>2020-06-08T19:07:49Z</time>
      </trkpt>
      <trkpt lat="48.37467" lon="-4.72575">
        <ele>46.9</ele>
        <time>2020-06-08T19:07:50Z</time>
      </trkpt>
      <trkpt lat="48.37462" lon="-4.72585">
        <ele>46.7</ele>
        <time>2020-06-08T19:07:51Z</time>
      </trkpt>
      <trkpt lat="48.37457" lon="-4.72595">
        <ele>46.5</ele>
        <time>2020-06-08T19:07:52Z</time>
      </trkpt>
      <trkpt lat="48.37452" lon="-4.72606">
        <ele>46.3</ele>
        <time>2020-06-08T19:07:53Z</time>
      </trkpt>
      <trkpt lat="48.37447" lon="-4.72615">
        <ele>46.1</ele>
        <time>2020-06-08T19:07:54Z</time>
      </trkpt>
      <trkpt lat="48.37442" lon="-4.72624">
        <ele>45.8</ele>
        <time>2020-06-08T19:07:55Z</time>
      </trkpt>
      <trkpt lat="48.37436" lon="-4.72633">
        <ele>45.7</ele>
        <time>2020-06-08T19:07:56Z</time>
      </trkpt>
      <trkpt lat="48.37431" lon="-4.72642">
        <ele>45.5</ele>
        <time>2020-06-08T19:07:57Z</time>
      </trkpt>
      <trkpt lat="48.37426" lon="-4.72652">
        <ele>45.3</ele>
        <time>2020-06-08T19:07:58Z</time>
      </trkpt>
      <trkpt lat="48.3742" lon="-4.72661">
        <ele>45.1</ele>
        <time>2020-06-08T19:07:59Z</time>
      </trkpt>
      <trkpt lat="48.37416" lon="-4.72671">
        <ele>44.8</ele>
        <time>2020-06-08T19:08:00Z</time>
      </trkpt>
      <trkpt lat="48.3741" lon="-4.7268">
        <ele>44.6</ele>
        <time>2020-06-08T19:08:01Z</time>
      </trkpt>
      <trkpt lat="48.37403" lon="-4.72689">
        <ele>44.3</ele>
        <time>2020-06-08T19:08:02Z</time>
      </trkpt>
      <trkpt lat="48.37397" lon="-4.72699">
        <ele>44</ele>
        <time>2020-06-08T19:08:03Z</time>
      </trkpt>
      <trkpt lat="48.37393" lon="-4.7271">
        <ele>43.8</ele>
        <time>2020-06-08T19:08:04Z</time>
      </trkpt>
      <trkpt lat="48.37388" lon="-4.72719">
        <ele>43.7</ele>
        <time>2020-06-08T19:08:05Z</time>
      </trkpt>
      <trkpt lat="48.37384" lon="-4.72728">
        <ele>43.5</ele>
        <time>2020-06-08T19:08:06Z</time>
      </trkpt>
      <trkpt lat="48.37378" lon="-4.72737">
        <ele>43.4</ele>
        <time>2020-06-08T19:08:07Z</time>
      </trkpt>
      <trkpt lat="48.37372" lon="-4.72746">
        <ele>43.3</ele>
        <time>2020-06-08T19:08:08Z</time>
      </trkpt>
      <trkpt lat="48.37367" lon="-4.72756">
        <ele>43.2</ele>
        <time>2020-06-08T19:08:09Z</time>
      </trkpt>
      <trkpt lat="48.37361" lon="-4.72764">
        <ele>43.2</ele>
        <time>2020-06-08T19:08:10Z</time>
      </trkpt>
      <trkpt lat="48.37356" lon="-4.72773">
        <ele>43.1</ele>
        <time>2020-06-08T19:08:11Z</time>
      </trkpt>
      <trkpt lat="48.37352" lon="-4.72782">
        <ele>43.1</ele>
        <time>2020-06-08T19:08:12Z</time>
      </trkpt>
      <trkpt lat="48.37346" lon="-4.72791">
        <ele>43.1</ele>
        <time>2020-06-08T19:08:13Z</time>
      </trkpt>
      <trkpt lat="48.37341" lon="-4.72799">
        <ele>43.1</ele>
        <time>2020-06-08T19:08:14Z</time>
      </trkpt>
      <trkpt lat="48.37337" lon="-4.72808">
        <ele>43</ele>
        <time>2020-06-08T19:08:15Z</time>
      </trkpt>
      <trkpt lat="48.37332" lon="-4.72818">
        <ele>43</ele>
        <time>2020-06-08T19:08:16Z</time>
      </trkpt>
      <trkpt lat="48.37327" lon="-4.72826">
        <ele>43</ele>
        <time>2020-06-08T19:08:17Z</time>
      </trkpt>
      <trkpt lat="48.37323" lon="-4.72833">
        <ele>43</ele>
        <time>2020-06-08T19:08:18Z</time>
      </trkpt>
      <trkpt lat="48.37318" lon="-4.72841">
        <ele>43</ele>
        <time>2020-06-08T19:08:19Z</time>
      </trkpt>
      <trkpt lat="48.37313" lon="-4.72849">
        <ele>43</ele>
        <time>2020-06-08T19:08:20Z</time>
      </trkpt>
      <trkpt lat="48.37309" lon="-4.72859">
        <ele>42.9</ele>
        <time>2020-06-08T19:08:21Z</time>
      </trkpt>
      <trkpt lat="48.37304" lon="-4.72867">
        <ele>42.9</ele>
        <time>2020-06-08T19:08:22Z</time>
      </trkpt>
      <trkpt lat="48.37299" lon="-4.72875">
        <ele>42.8</ele>
        <time>2020-06-08T19:08:23Z</time>
      </trkpt>
      <trkpt lat="48.37295" lon="-4.72883">
        <ele>42.6</ele>
        <time>2020-06-08T19:08:24Z</time>
      </trkpt>
      <trkpt lat="48.37291" lon="-4.72893">
        <ele>42.5</ele>
        <time>2020-06-08T19:08:25Z</time>
      </trkpt>
      <trkpt lat="48.37286" lon="-4.72901">
        <ele>42.4</ele>
        <time>2020-06-08T19:08:26Z</time>
      </trkpt>
      <trkpt lat="48.37282" lon="-4.7291">
        <ele>42.2</ele>
        <time>2020-06-08T19:08:27Z</time>
      </trkpt>
      <trkpt lat="48.37277" lon="-4.72919">
        <ele>42.1</ele>
        <time>2020-06-08T19:08:28Z</time>
      </trkpt>
      <trkpt lat="48.37272" lon="-4.72928">
        <ele>41.9</ele>
        <time>2020-06-08T19:08:29Z</time>
      </trkpt>
      <trkpt lat="48.37266" lon="-4.72935">
        <ele>41.8</ele>
        <time>2020-06-08T19:08:30Z</time>
      </trkpt>
      <trkpt lat="48.37261" lon="-4.72944">
        <ele>41.7</ele>
        <time>2020-06-08T19:08:31Z</time>
      </trkpt>
      <trkpt lat="48.37256" lon="-4.72952">
        <ele>41.6</ele>
        <time>2020-06-08T19:08:32Z</time>
      </trkpt>
      <trkpt lat="48.37252" lon="-4.72962">
        <ele>41.5</ele>
        <time>2020-06-08T19:08:33Z</time>
      </trkpt>
      <trkpt lat="48.37247" lon="-4.72971">
        <ele>41.4</ele>
        <time>2020-06-08T19:08:34Z</time>
      </trkpt>
      <trkpt lat="48.37243" lon="-4.7298">
        <ele>41.3</ele>
        <time>2020-06-08T19:08:35Z</time>
      </trkpt>
      <trkpt lat="48.37238" lon="-4.72988">
        <ele>41.2</ele>
        <time>2020-06-08T19:08:36Z</time>
      </trkpt>
      <trkpt lat="48.37233" lon="-4.72997">
        <ele>41.1</ele>
        <time>2020-06-08T19:08:37Z</time>
      </trkpt>
      <trkpt lat="48.37229" lon="-4.73007">
        <ele>41</ele>
        <time>2020-06-08T19:08:38Z</time>
      </trkpt>
      <trkpt lat="48.37224" lon="-4.73016">
        <ele>40.8</ele>
        <time>2020-06-08T19:08:39Z</time>
      </trkpt>
      <trkpt lat="48.37219" lon="-4.73025">
        <ele>40.6</ele>
        <time>2020-06-08T19:08:40Z</time>
      </trkpt>
      <trkpt lat="48.37213" lon="-4.73034">
        <ele>40.3</ele>
        <time>2020-06-08T19:08:41Z</time>
      </trkpt>
      <trkpt lat="48.37207" lon="-4.73042">
        <ele>40.2</ele>
        <time>2020-06-08T19:08:42Z</time>
      </trkpt>
      <trkpt lat="48.37201" lon="-4.7305">
        <ele>40.1</ele>
        <time>2020-06-08T19:08:43Z</time>
      </trkpt>
      <trkpt lat="48.37195" lon="-4.7306">
        <ele>40</ele>
        <time>2020-06-08T19:08:44Z</time>
      </trkpt>
      <trkpt lat="48.37189" lon="-4.73068">
        <ele>39.8</ele>
        <time>2020-06-08T19:08:45Z</time>
      </trkpt>
      <trkpt lat="48.37184" lon="-4.73076">
        <ele>39.6</ele>
        <time>2020-06-08T19:08:46Z</time>
      </trkpt>
      <trkpt lat="48.37178" lon="-4.73084">
        <ele>39.5</ele>
        <time>2020-06-08T19:08:47Z</time>
      </trkpt>
      <trkpt lat="48.37173" lon="-4.73092">
        <ele>39.4</ele>
        <time>2020-06-08T19:08:48Z</time>
      </trkpt>
      <trkpt lat="48.37167" lon="-4.73099">
        <ele>39.4</ele>
        <time>2020-06-08T19:08:49Z</time>
      </trkpt>
      <trkpt lat="48.37162" lon="-4.73106">
        <ele>39.4</ele>
        <time>2020-06-08T19:08:50Z</time>
      </trkpt>
      <trkpt lat="48.37157" lon="-4.73112">
        <ele>39.5</ele>
        <time>2020-06-08T19:08:51Z</time>
      </trkpt>
      <trkpt lat="48.37152" lon="-4.7312">
        <ele>39.5</ele>
        <time>2020-06-08T19:08:52Z</time>
      </trkpt>
      <trkpt lat="48.37147" lon="-4.73126">
        <ele>39.6</ele>
        <time>2020-06-08T19:08:53Z</time>
      </trkpt>
      <trkpt lat="48.37142" lon="-4.73134">
        <ele>39.6</ele>
        <time>2020-06-08T19:08:54Z</time>
      </trkpt>
      <trkpt lat="48.37137" lon="-4.7314">
        <ele>39.7</ele>
        <time>2020-06-08T19:08:55Z</time>
      </trkpt>
      <trkpt lat="48.37131" lon="-4.73147">
        <ele>39.8</ele>
        <time>2020-06-08T19:08:56Z</time>
      </trkpt>
      <trkpt lat="48.37126" lon="-4.73153">
        <ele>39.9</ele>
        <time>2020-06-08T19:08:57Z</time>
      </trkpt>
      <trkpt lat="48.37121" lon="-4.73159">
        <ele>40</ele>
        <time>2020-06-08T19:08:58Z</time>
      </trkpt>
      <trkpt lat="48.37117" lon="-4.73166">
        <ele>40.1</ele>
        <time>2020-06-08T19:08:59Z</time>
      </trkpt>
      <trkpt lat="48.37112" lon="-4.73172">
        <ele>40.2</ele>
        <time>2020-06-08T19:09:00Z</time>
      </trkpt>
      <trkpt lat="48.37107" lon="-4.73178">
        <ele>40.4</ele>
        <time>2020-06-08T19:09:01Z</time>
      </trkpt>
      <trkpt lat="48.37103" lon="-4.73184">
        <ele>40.5</ele>
        <time>2020-06-08T19:09:02Z</time>
      </trkpt>
      <trkpt lat="48.37098" lon="-4.73189">
        <ele>40.7</ele>
        <time>2020-06-08T19:09:03Z</time>
      </trkpt>
      <trkpt lat="48.37094" lon="-4.73195">
        <ele>40.9</ele>
        <time>2020-06-08T19:09:04Z</time>
      </trkpt>
      <trkpt lat="48.3709" lon="-4.73201">
        <ele>41</ele>
        <time>2020-06-08T19:09:05Z</time>
      </trkpt>
      <trkpt lat="48.37086" lon="-4.73206">
        <ele>41.1</ele>
        <time>2020-06-08T19:09:06Z</time>
      </trkpt>
      <trkpt lat="48.37082" lon="-4.7321">
        <ele>41.3</ele>
        <time>2020-06-08T19:09:07Z</time>
      </trkpt>
      <trkpt lat="48.37079" lon="-4.73215">
        <ele>41.4</ele>
        <time>2020-06-08T19:09:08Z</time>
      </trkpt>
      <trkpt lat="48.37076" lon="-4.73219">
        <ele>41.5</ele>
        <time>2020-06-08T19:09:09Z</time>
      </trkpt>
      <trkpt lat="48.37072" lon="-4.73223">
        <ele>41.6</ele>
        <time>2020-06-08T19:09:10Z</time>
      </trkpt>
      <trkpt lat="48.37069" lon="-4.73228">
        <ele>41.7</ele>
        <time>2020-06-08T19:09:11Z</time>
      </trkpt>
      <trkpt lat="48.37065" lon="-4.73232">
        <ele>41.8</ele>
        <time>2020-06-08T19:09:12Z</time>
      </trkpt>
      <trkpt lat="48.37061" lon="-4.73237">
        <ele>41.9</ele>
        <time>2020-06-08T19:09:13Z</time>
      </trkpt>
      <trkpt lat="48.37057" lon="-4.73241">
        <ele>42</ele>
        <time>2020-06-08T19:09:14Z</time>
      </trkpt>
      <trkpt lat="48.37052" lon="-4.73245">
        <ele>42</ele>
        <time>2020-06-08T19:09:15Z</time>
      </trkpt>
      <trkpt lat="48.37048" lon="-4.73248">
        <ele>42</ele>
        <time>2020-06-08T19:09:16Z</time>
      </trkpt>
      <trkpt lat="48.37044" lon="-4.73252">
        <ele>42</ele>
        <time>2020-06-08T19:09:17Z</time>
      </trkpt>
      <trkpt lat="48.3704" lon="-4.73257">
        <ele>42</ele>
        <time>2020-06-08T19:09:18Z</time>
      </trkpt>
      <trkpt lat="48.37036" lon="-4.73262">
        <ele>42.1</ele>
        <time>2020-06-08T19:09:19Z</time>
      </trkpt>
      <trkpt lat="48.37031" lon="-4.73267">
        <ele>42.1</ele>
        <time>2020-06-08T19:09:20Z</time>
      </trkpt>
      <trkpt lat="48.37027" lon="-4.73271">
        <ele>42.1</ele>
        <time>2020-06-08T19:09:21Z</time>
      </trkpt>
      <trkpt lat="48.37023" lon="-4.73277">
        <ele>42.1</ele>
        <time>2020-06-08T19:09:22Z</time>
      </trkpt>
      <trkpt lat="48.37018" lon="-4.73282">
        <ele>42.1</ele>
        <time>2020-06-08T19:09:23Z</time>
      </trkpt>
      <trkpt lat="48.37014" lon="-4.73286">
        <ele>42.2</ele>
        <time>2020-06-08T19:09:24Z</time>
      </trkpt>
      <trkpt lat="48.3701" lon="-4.73292">
        <ele>42.2</ele>
        <time>2020-06-08T19:09:25Z</time>
      </trkpt>
      <trkpt lat="48.37005" lon="-4.73297">
        <ele>42.1</ele>
        <time>2020-06-08T19:09:26Z</time>
      </trkpt>
      <trkpt lat="48.37001" lon="-4.73304">
        <ele>42.1</ele>
        <time>2020-06-08T19:09:27Z</time>
      </trkpt>
      <trkpt lat="48.36996" lon="-4.73308">
        <ele>42.1</ele>
        <time>2020-06-08T19:09:28Z</time>
      </trkpt>
      <trkpt lat="48.36992" lon="-4.73314">
        <ele>42</ele>
        <time>2020-06-08T19:09:29Z</time>
      </trkpt>
      <trkpt lat="48.36987" lon="-4.73319">
        <ele>42</ele>
        <time>2020-06-08T19:09:30Z</time>
      </trkpt>
      <trkpt lat="48.36982" lon="-4.73324">
        <ele>41.9</ele>
        <time>2020-06-08T19:09:31Z</time>
      </trkpt>
      <trkpt lat="48.36977" lon="-4.73328">
        <ele>41.9</ele>
        <time>2020-06-08T19:09:32Z</time>
      </trkpt>
      <trkpt lat="48.36972" lon="-4.73334">
        <ele>41.8</ele>
        <time>2020-06-08T19:09:33Z</time>
      </trkpt>
      <trkpt lat="48.36966" lon="-4.73339">
        <ele>41.8</ele>
        <time>2020-06-08T19:09:34Z</time>
      </trkpt>
      <trkpt lat="48.3696" lon="-4.73343">
        <ele>41.7</ele>
        <time>2020-06-08T19:09:35Z</time>
      </trkpt>
      <trkpt lat="48.36955" lon="-4.7335">
        <ele>41.6</ele>
        <time>2020-06-08T19:09:36Z</time>
      </trkpt>
      <trkpt lat="48.3695" lon="-4.73355">
        <ele>41.6</ele>
        <time>2020-06-08T19:09:37Z</time>
      </trkpt>
      <trkpt lat="48.36945" lon="-4.73361">
        <ele>41.5</ele>
        <time>2020-06-08T19:09:38Z</time>
      </trkpt>
      <trkpt lat="48.3694" lon="-4.73367">
        <ele>41.4</ele>
        <time>2020-06-08T19:09:39Z</time>
      </trkpt>
      <trkpt lat="48.36935" lon="-4.73372">
        <ele>41.4</ele>
        <time>2020-06-08T19:09:40Z</time>
      </trkpt>
      <trkpt lat="48.36929" lon="-4.73378">
        <ele>41.3</ele>
        <time>2020-06-08T19:09:41Z</time>
      </trkpt>
      <trkpt lat="48.36924" lon="-4.73382">
        <ele>41.2</ele>
        <time>2020-06-08T19:09:42Z</time>
      </trkpt>
      <trkpt lat="48.36918" lon="-4.73387">
        <ele>41.1</ele>
        <time>2020-06-08T19:09:43Z</time>
      </trkpt>
      <trkpt lat="48.36913" lon="-4.73393">
        <ele>41</ele>
        <time>2020-06-08T19:09:44Z</time>
      </trkpt>
      <trkpt lat="48.36908" lon="-4.734">
        <ele>40.9</ele>
        <time>2020-06-08T19:09:45Z</time>
      </trkpt>
      <trkpt lat="48.36902" lon="-4.73406">
        <ele>40.8</ele>
        <time>2020-06-08T19:09:46Z</time>
      </trkpt>
      <trkpt lat="48.36897" lon="-4.73413">
        <ele>40.7</ele>
        <time>2020-06-08T19:09:47Z</time>
      </trkpt>
      <trkpt lat="48.36891" lon="-4.73419">
        <ele>40.6</ele>
        <time>2020-06-08T19:09:48Z</time>
      </trkpt>
      <trkpt lat="48.36886" lon="-4.73425">
        <ele>40.5</ele>
        <time>2020-06-08T19:09:49Z</time>
      </trkpt>
      <trkpt lat="48.3688" lon="-4.73432">
        <ele>40.3</ele>
        <time>2020-06-08T19:09:50Z</time>
      </trkpt>
      <trkpt lat="48.36875" lon="-4.73438">
        <ele>40.2</ele>
        <time>2020-06-08T19:09:51Z</time>
      </trkpt>
      <trkpt lat="48.3687" lon="-4.73445">
        <ele>40.1</ele>
        <time>2020-06-08T19:09:52Z</time>
      </trkpt>
      <trkpt lat="48.36864" lon="-4.73452">
        <ele>39.9</ele>
        <time>2020-06-08T19:09:53Z</time>
      </trkpt>
      <trkpt lat="48.36858" lon="-4.73458">
        <ele>39.8</ele>
        <time>2020-06-08T19:09:54Z</time>
      </trkpt>
      <trkpt lat="48.36852" lon="-4.73464">
        <ele>39.7</ele>
        <time>2020-06-08T19:09:55Z</time>
      </trkpt>
      <trkpt lat="48.36847" lon="-4.73471">
        <ele>39.5</ele>
        <time>2020-06-08T19:09:56Z</time>
      </trkpt>
      <trkpt lat="48.36842" lon="-4.73479">
        <ele>39.4</ele>
        <time>2020-06-08T19:09:57Z</time>
      </trkpt>
      <trkpt lat="48.36836" lon="-4.73487">
        <ele>39.2</ele>
        <time>2020-06-08T19:09:58Z</time>
      </trkpt>
      <trkpt lat="48.36831" lon="-4.73495">
        <ele>39</ele>
        <time>2020-06-08T19:09:59Z</time>
      </trkpt>
      <trkpt lat="48.36826" lon="-4.73504">
        <ele>38.9</ele>
        <time>2020-06-08T19:10:00Z</time>
      </trkpt>
      <trkpt lat="48.3682" lon="-4.73512">
        <ele>38.8</ele>
        <time>2020-06-08T19:10:01Z</time>
      </trkpt>
      <trkpt lat="48.36815" lon="-4.7352">
        <ele>38.7</ele>
        <time>2020-06-08T19:10:02Z</time>
      </trkpt>
      <trkpt lat="48.3681" lon="-4.7353">
        <ele>38.6</ele>
        <time>2020-06-08T19:10:03Z</time>
      </trkpt>
      <trkpt lat="48.36806" lon="-4.73539">
        <ele>38.5</ele>
        <time>2020-06-08T19:10:04Z</time>
      </trkpt>
      <trkpt lat="48.36802" lon="-4.73549">
        <ele>38.4</ele>
        <time>2020-06-08T19:10:05Z</time>
      </trkpt>
      <trkpt lat="48.36798" lon="-4.73559">
        <ele>38.4</ele>
        <time>2020-06-08T19:10:06Z</time>
      </trkpt>
      <trkpt lat="48.36794" lon="-4.73569">
        <ele>38.3</ele>
        <time>2020-06-08T19:10:07Z</time>
      </trkpt>
      <trkpt lat="48.36791" lon="-4.7358">
        <ele>38.2</ele>
        <time>2020-06-08T19:10:08Z</time>
      </trkpt>
      <trkpt lat="48.36788" lon="-4.73591">
        <ele>38.2</ele>
        <time>2020-06-08T19:10:09Z</time>
      </trkpt>
      <trkpt lat="48.36784" lon="-4.73602">
        <ele>38.1</ele>
        <time>2020-06-08T19:10:10Z</time>
      </trkpt>
      <trkpt lat="48.36781" lon="-4.73612">
        <ele>38</ele>
        <time>2020-06-08T19:10:11Z</time>
      </trkpt>
      <trkpt lat="48.36778" lon="-4.73622">
        <ele>37.9</ele>
        <time>2020-06-08T19:10:12Z</time>
      </trkpt>
      <trkpt lat="48.36775" lon="-4.73632">
        <ele>37.7</ele>
        <time>2020-06-08T19:10:13Z</time>
      </trkpt>
      <trkpt lat="48.36773" lon="-4.73643">
        <ele>37.7</ele>
        <time>2020-06-08T19:10:14Z</time>
      </trkpt>
      <trkpt lat="48.3677" lon="-4.73653">
        <ele>37.7</ele>
        <time>2020-06-08T19:10:15Z</time>
      </trkpt>
      <trkpt lat="48.36768" lon="-4.73663">
        <ele>37.7</ele>
        <time>2020-06-08T19:10:16Z</time>
      </trkpt>
      <trkpt lat="48.36766" lon="-4.73673">
        <ele>37.7</ele>
        <time>2020-06-08T19:10:17Z</time>
      </trkpt>
      <trkpt lat="48.36763" lon="-4.73683">
        <ele>37.7</ele>
        <time>2020-06-08T19:10:18Z</time>
      </trkpt>
      <trkpt lat="48.3676" lon="-4.73693">
        <ele>37.7</ele>
        <time>2020-06-08T19:10:19Z</time>
      </trkpt>
      <trkpt lat="48.36757" lon="-4.73702">
        <ele>37.7</ele>
        <time>2020-06-08T19:10:20Z</time>
      </trkpt>
      <trkpt lat="48.36755" lon="-4.73711">
        <ele>37.8</ele>
        <time>2020-06-08T19:10:21Z</time>
      </trkpt>
      <trkpt lat="48.36753" lon="-4.73721">
        <ele>37.8</ele>
        <time>2020-06-08T19:10:22Z</time>
      </trkpt>
      <trkpt lat="48.3675" lon="-4.73731">
        <ele>37.8</ele>
        <time>2020-06-08T19:10:23Z</time>
      </trkpt>
      <trkpt lat="48.36748" lon="-4.73741">
        <ele>37.8</ele>
        <time>2020-06-08T19:10:24Z</time>
      </trkpt>
      <trkpt lat="48.36745" lon="-4.7375">
        <ele>37.8</ele>
        <time>2020-06-08T19:10:25Z</time>
      </trkpt>
      <trkpt lat="48.36741" lon="-4.73758">
        <ele>37.8</ele>
        <time>2020-06-08T19:10:26Z</time>
      </trkpt>
      <trkpt lat="48.36738" lon="-4.73768">
        <ele>37.8</ele>
        <time>2020-06-08T19:10:27Z</time>
      </trkpt>
      <trkpt lat="48.36735" lon="-4.73777">
        <ele>37.8</ele>
        <time>2020-06-08T19:10:28Z</time>
      </trkpt>
      <trkpt lat="48.36732" lon="-4.73786">
        <ele>37.8</ele>
        <time>2020-06-08T19:10:29Z</time>
      </trkpt>
      <trkpt lat="48.36729" lon="-4.73795">
        <ele>37.7</ele>
        <time>2020-06-08T19:10:30Z</time>
      </trkpt>
      <trkpt lat="48.36726" lon="-4.73805">
        <ele>37.7</ele>
        <time>2020-06-08T19:10:31Z</time>
      </trkpt>
      <trkpt lat="48.36723" lon="-4.73814">
        <ele>37.7</ele>
        <time>2020-06-08T19:10:32Z</time>
      </trkpt>
      <trkpt lat="48.36719" lon="-4.73823">
        <ele>37.6</ele>
        <time>2020-06-08T19:10:33Z</time>
      </trkpt>
      <trkpt lat="48.36716" lon="-4.73832">
        <ele>37.6</ele>
        <time>2020-06-08T19:10:34Z</time>
      </trkpt>
      <trkpt lat="48.36713" lon="-4.73842">
        <ele>37.5</ele>
        <time>2020-06-08T19:10:35Z</time>
      </trkpt>
      <trkpt lat="48.3671" lon="-4.73851">
        <ele>37.5</ele>
        <time>2020-06-08T19:10:36Z</time>
      </trkpt>
      <trkpt lat="48.36707" lon="-4.73861">
        <ele>37.4</ele>
        <time>2020-06-08T19:10:37Z</time>
      </trkpt>
      <trkpt lat="48.36704" lon="-4.73871">
        <ele>37.3</ele>
        <time>2020-06-08T19:10:38Z</time>
      </trkpt>
      <trkpt lat="48.36701" lon="-4.7388">
        <ele>37.2</ele>
        <time>2020-06-08T19:10:39Z</time>
      </trkpt>
      <trkpt lat="48.36698" lon="-4.73889">
        <ele>36.7</ele>
        <time>2020-06-08T19:10:40Z</time>
      </trkpt>
      <trkpt lat="48.36694" lon="-4.73898">
        <ele>36.5</ele>
        <time>2020-06-08T19:10:41Z</time>
      </trkpt>
      <trkpt lat="48.3669" lon="-4.73908">
        <ele>36.4</ele>
        <time>2020-06-08T19:10:42Z</time>
      </trkpt>
      <trkpt lat="48.36687" lon="-4.73917">
        <ele>36.3</ele>
        <time>2020-06-08T19:10:43Z</time>
      </trkpt>
      <trkpt lat="48.36683" lon="-4.73927">
        <ele>36.2</ele>
        <time>2020-06-08T19:10:44Z</time>
      </trkpt>
      <trkpt lat="48.3668" lon="-4.73937">
        <ele>36.2</ele>
        <time>2020-06-08T19:10:45Z</time>
      </trkpt>
      <trkpt lat="48.36677" lon="-4.73946">
        <ele>36.1</ele>
        <time>2020-06-08T19:10:46Z</time>
      </trkpt>
      <trkpt lat="48.36674" lon="-4.73956">
        <ele>36</ele>
        <time>2020-06-08T19:10:47Z</time>
      </trkpt>
      <trkpt lat="48.36671" lon="-4.73965">
        <ele>36</ele>
        <time>2020-06-08T19:10:48Z</time>
      </trkpt>
      <trkpt lat="48.36668" lon="-4.73975">
        <ele>36</ele>
        <time>2020-06-08T19:10:49Z</time>
      </trkpt>
      <trkpt lat="48.36664" lon="-4.73983">
        <ele>36</ele>
        <time>2020-06-08T19:10:50Z</time>
      </trkpt>
      <trkpt lat="48.36661" lon="-4.73993">
        <ele>36</ele>
        <time>2020-06-08T19:10:51Z</time>
      </trkpt>
      <trkpt lat="48.36658" lon="-4.74002">
        <ele>36</ele>
        <time>2020-06-08T19:10:52Z</time>
      </trkpt>
      <trkpt lat="48.36655" lon="-4.74012">
        <ele>35.9</ele>
        <time>2020-06-08T19:10:53Z</time>
      </trkpt>
      <trkpt lat="48.36652" lon="-4.74021">
        <ele>35.8</ele>
        <time>2020-06-08T19:10:54Z</time>
      </trkpt>
      <trkpt lat="48.36648" lon="-4.7403">
        <ele>35.7</ele>
        <time>2020-06-08T19:10:55Z</time>
      </trkpt>
      <trkpt lat="48.36644" lon="-4.7404">
        <ele>35.7</ele>
        <time>2020-06-08T19:10:56Z</time>
      </trkpt>
      <trkpt lat="48.36641" lon="-4.74049">
        <ele>35.5</ele>
        <time>2020-06-08T19:10:57Z</time>
      </trkpt>
      <trkpt lat="48.36638" lon="-4.74059">
        <ele>35.4</ele>
        <time>2020-06-08T19:10:58Z</time>
      </trkpt>
      <trkpt lat="48.36636" lon="-4.74069">
        <ele>35.3</ele>
        <time>2020-06-08T19:10:59Z</time>
      </trkpt>
      <trkpt lat="48.36632" lon="-4.74079">
        <ele>35.2</ele>
        <time>2020-06-08T19:11:00Z</time>
      </trkpt>
      <trkpt lat="48.36629" lon="-4.74088">
        <ele>35.1</ele>
        <time>2020-06-08T19:11:01Z</time>
      </trkpt>
      <trkpt lat="48.36624" lon="-4.74097">
        <ele>35</ele>
        <time>2020-06-08T19:11:02Z</time>
      </trkpt>
      <trkpt lat="48.36621" lon="-4.74107">
        <ele>34.9</ele>
        <time>2020-06-08T19:11:03Z</time>
      </trkpt>
      <trkpt lat="48.36617" lon="-4.74117">
        <ele>34.8</ele>
        <time>2020-06-08T19:11:04Z</time>
      </trkpt>
      <trkpt lat="48.36614" lon="-4.74127">
        <ele>34.6</ele>
        <time>2020-06-08T19:11:05Z</time>
      </trkpt>
      <trkpt lat="48.3661" lon="-4.74136">
        <ele>34.5</ele>
        <time>2020-06-08T19:11:06Z</time>
      </trkpt>
      <trkpt lat="48.36606" lon="-4.74146">
        <ele>34.3</ele>
        <time>2020-06-08T19:11:07Z</time>
      </trkpt>
      <trkpt lat="48.36602" lon="-4.74156">
        <ele>34.2</ele>
        <time>2020-06-08T19:11:08Z</time>
      </trkpt>
      <trkpt lat="48.36598" lon="-4.74165">
        <ele>34.2</ele>
        <time>2020-06-08T19:11:09Z</time>
      </trkpt>
      <trkpt lat="48.36593" lon="-4.74175">
        <ele>34</ele>
        <time>2020-06-08T19:11:10Z</time>
      </trkpt>
      <trkpt lat="48.36588" lon="-4.74184">
        <ele>33.9</ele>
        <time>2020-06-08T19:11:11Z</time>
      </trkpt>
      <trkpt lat="48.36584" lon="-4.74194">
        <ele>33.7</ele>
        <time>2020-06-08T19:11:12Z</time>
      </trkpt>
      <trkpt lat="48.36579" lon="-4.74204">
        <ele>33.4</ele>
        <time>2020-06-08T19:11:13Z</time>
      </trkpt>
      <trkpt lat="48.36574" lon="-4.74213">
        <ele>33.2</ele>
        <time>2020-06-08T19:11:14Z</time>
      </trkpt>
      <trkpt lat="48.36569" lon="-4.74222">
        <ele>33</ele>
        <time>2020-06-08T19:11:15Z</time>
      </trkpt>
      <trkpt lat="48.36564" lon="-4.74232">
        <ele>32.8</ele>
        <time>2020-06-08T19:11:16Z</time>
      </trkpt>
      <trkpt lat="48.36559" lon="-4.74242">
        <ele>32.5</ele>
        <time>2020-06-08T19:11:17Z</time>
      </trkpt>
      <trkpt lat="48.36554" lon="-4.74251">
        <ele>32.3</ele>
        <time>2020-06-08T19:11:18Z</time>
      </trkpt>
      <trkpt lat="48.36548" lon="-4.74261">
        <ele>32</ele>
        <time>2020-06-08T19:11:19Z</time>
      </trkpt>
      <trkpt lat="48.36543" lon="-4.74271">
        <ele>31.7</ele>
        <time>2020-06-08T19:11:20Z</time>
      </trkpt>
      <trkpt lat="48.36538" lon="-4.74281">
        <ele>31.4</ele>
        <time>2020-06-08T19:11:21Z</time>
      </trkpt>
      <trkpt lat="48.36532" lon="-4.74291">
        <ele>31.1</ele>
        <time>2020-06-08T19:11:22Z</time>
      </trkpt>
      <trkpt lat="48.36527" lon="-4.74302">
        <ele>30.8</ele>
        <time>2020-06-08T19:11:23Z</time>
      </trkpt>
      <trkpt lat="48.36523" lon="-4.74313">
        <ele>30.5</ele>
        <time>2020-06-08T19:11:24Z</time>
      </trkpt>
      <trkpt lat="48.36518" lon="-4.74325">
        <ele>30.1</ele>
        <time>2020-06-08T19:11:25Z</time>
      </trkpt>
      <trkpt lat="48.36514" lon="-4.74336">
        <ele>29.8</ele>
        <time>2020-06-08T19:11:26Z</time>
      </trkpt>
      <trkpt lat="48.36509" lon="-4.74348">
        <ele>29.4</ele>
        <time>2020-06-08T19:11:27Z</time>
      </trkpt>
      <trkpt lat="48.36504" lon="-4.7436">
        <ele>29</ele>
        <time>2020-06-08T19:11:28Z</time>
      </trkpt>
      <trkpt lat="48.36499" lon="-4.74372">
        <ele>28.7</ele>
        <time>2020-06-08T19:11:29Z</time>
      </trkpt>
      <trkpt lat="48.36494" lon="-4.74384">
        <ele>28.4</ele>
        <time>2020-06-08T19:11:30Z</time>
      </trkpt>
      <trkpt lat="48.36489" lon="-4.74396">
        <ele>28</ele>
        <time>2020-06-08T19:11:31Z</time>
      </trkpt>
      <trkpt lat="48.36484" lon="-4.74408">
        <ele>27.7</ele>
        <time>2020-06-08T19:11:32Z</time>
      </trkpt>
      <trkpt lat="48.36479" lon="-4.7442">
        <ele>27.5</ele>
        <time>2020-06-08T19:11:33Z</time>
      </trkpt>
      <trkpt lat="48.36475" lon="-4.74433">
        <ele>27.5</ele>
        <time>2020-06-08T19:11:34Z</time>
      </trkpt>
      <trkpt lat="48.36471" lon="-4.74446">
        <ele>27.5</ele>
        <time>2020-06-08T19:11:35Z</time>
      </trkpt>
      <trkpt lat="48.36467" lon="-4.74459">
        <ele>27.2</ele>
        <time>2020-06-08T19:11:36Z</time>
      </trkpt>
      <trkpt lat="48.36464" lon="-4.74472">
        <ele>27</ele>
        <time>2020-06-08T19:11:37Z</time>
      </trkpt>
      <trkpt lat="48.36461" lon="-4.74484">
        <ele>26.9</ele>
        <time>2020-06-08T19:11:38Z</time>
      </trkpt>
      <trkpt lat="48.36458" lon="-4.74497">
        <ele>26.8</ele>
        <time>2020-06-08T19:11:39Z</time>
      </trkpt>
      <trkpt lat="48.36454" lon="-4.7451">
        <ele>26.7</ele>
        <time>2020-06-08T19:11:40Z</time>
      </trkpt>
      <trkpt lat="48.36451" lon="-4.74522">
        <ele>26.7</ele>
        <time>2020-06-08T19:11:41Z</time>
      </trkpt>
      <trkpt lat="48.36448" lon="-4.74533">
        <ele>26.7</ele>
        <time>2020-06-08T19:11:42Z</time>
      </trkpt>
      <trkpt lat="48.36445" lon="-4.74544">
        <ele>26.7</ele>
        <time>2020-06-08T19:11:43Z</time>
      </trkpt>
      <trkpt lat="48.36442" lon="-4.74555">
        <ele>26.7</ele>
        <time>2020-06-08T19:11:44Z</time>
      </trkpt>
      <trkpt lat="48.36439" lon="-4.74566">
        <ele>26.7</ele>
        <time>2020-06-08T19:11:45Z</time>
      </trkpt>
      <trkpt lat="48.36436" lon="-4.74577">
        <ele>26.7</ele>
        <time>2020-06-08T19:11:46Z</time>
      </trkpt>
      <trkpt lat="48.36434" lon="-4.74587">
        <ele>26.7</ele>
        <time>2020-06-08T19:11:47Z</time>
      </trkpt>
      <trkpt lat="48.36432" lon="-4.74597">
        <ele>26.7</ele>
        <time>2020-06-08T19:11:48Z</time>
      </trkpt>
      <trkpt lat="48.36429" lon="-4.74607">
        <ele>26.7</ele>
        <time>2020-06-08T19:11:49Z</time>
      </trkpt>
      <trkpt lat="48.36427" lon="-4.74618">
        <ele>26.7</ele>
        <time>2020-06-08T19:11:50Z</time>
      </trkpt>
      <trkpt lat="48.36424" lon="-4.74627">
        <ele>26.7</ele>
        <time>2020-06-08T19:11:51Z</time>
      </trkpt>
      <trkpt lat="48.36422" lon="-4.74637">
        <ele>26.7</ele>
        <time>2020-06-08T19:11:52Z</time>
      </trkpt>
      <trkpt lat="48.36419" lon="-4.74646">
        <ele>26.7</ele>
        <time>2020-06-08T19:11:53Z</time>
      </trkpt>
      <trkpt lat="48.36417" lon="-4.74655">
        <ele>26.7</ele>
        <time>2020-06-08T19:11:54Z</time>
      </trkpt>
      <trkpt lat="48.36414" lon="-4.74664">
        <ele>26.6</ele>
        <time>2020-06-08T19:11:55Z</time>
      </trkpt>
      <trkpt lat="48.36412" lon="-4.74673">
        <ele>26.5</ele>
        <time>2020-06-08T19:11:56Z</time>
      </trkpt>
      <trkpt lat="48.3641" lon="-4.74682">
        <ele>26.5</ele>
        <time>2020-06-08T19:11:57Z</time>
      </trkpt>
      <trkpt lat="48.36407" lon="-4.74691">
        <ele>26.4</ele>
        <time>2020-06-08T19:11:58Z</time>
      </trkpt>
      <trkpt lat="48.36405" lon="-4.74701">
        <ele>26.3</ele>
        <time>2020-06-08T19:11:59Z</time>
      </trkpt>
      <trkpt lat="48.36403" lon="-4.7471">
        <ele>26.3</ele>
        <time>2020-06-08T19:12:00Z</time>
      </trkpt>
      <trkpt lat="48.364" lon="-4.74719">
        <ele>26.3</ele>
        <time>2020-06-08T19:12:01Z</time>
      </trkpt>
      <trkpt lat="48.36396" lon="-4.74728">
        <ele>26.3</ele>
        <time>2020-06-08T19:12:02Z</time>
      </trkpt>
      <trkpt lat="48.36392" lon="-4.74736">
        <ele>26.3</ele>
        <time>2020-06-08T19:12:03Z</time>
      </trkpt>
      <trkpt lat="48.36388" lon="-4.74743">
        <ele>26.3</ele>
        <time>2020-06-08T19:12:04Z</time>
      </trkpt>
      <trkpt lat="48.36382" lon="-4.74748">
        <ele>26.3</ele>
        <time>2020-06-08T19:12:05Z</time>
      </trkpt>
      <trkpt lat="48.36376" lon="-4.74752">
        <ele>26.4</ele>
        <time>2020-06-08T19:12:06Z</time>
      </trkpt>
      <trkpt lat="48.3637" lon="-4.74755">
        <ele>26.4</ele>
        <time>2020-06-08T19:12:07Z</time>
      </trkpt>
      <trkpt lat="48.36365" lon="-4.74758">
        <ele>26.6</ele>
        <time>2020-06-08T19:12:08Z</time>
      </trkpt>
      <trkpt lat="48.36359" lon="-4.74759">
        <ele>26.7</ele>
        <time>2020-06-08T19:12:09Z</time>
      </trkpt>
      <trkpt lat="48.36354" lon="-4.74761">
        <ele>26.9</ele>
        <time>2020-06-08T19:12:10Z</time>
      </trkpt>
      <trkpt lat="48.36349" lon="-4.74763">
        <ele>27</ele>
        <time>2020-06-08T19:12:11Z</time>
      </trkpt>
      <trkpt lat="48.36344" lon="-4.74765">
        <ele>27.1</ele>
        <time>2020-06-08T19:12:12Z</time>
      </trkpt>
      <trkpt lat="48.3634" lon="-4.74766">
        <ele>27.2</ele>
        <time>2020-06-08T19:12:13Z</time>
      </trkpt>
      <trkpt lat="48.36337" lon="-4.74766">
        <ele>27.3</ele>
        <time>2020-06-08T19:12:14Z</time>
      </trkpt>
      <trkpt lat="48.36333" lon="-4.74767">
        <ele>27.4</ele>
        <time>2020-06-08T19:12:15Z</time>
      </trkpt>
      <trkpt lat="48.36329" lon="-4.74768">
        <ele>27.5</ele>
        <time>2020-06-08T19:12:16Z</time>
      </trkpt>
      <trkpt lat="48.36324" lon="-4.74769">
        <ele>27.6</ele>
        <time>2020-06-08T19:12:17Z</time>
      </trkpt>
      <trkpt lat="48.36319" lon="-4.74767">
        <ele>27.7</ele>
        <time>2020-06-08T19:12:18Z</time>
      </trkpt>
      <trkpt lat="48.36315" lon="-4.74768">
        <ele>27.8</ele>
        <time>2020-06-08T19:12:19Z</time>
      </trkpt>
      <trkpt lat="48.3631" lon="-4.74769">
        <ele>27.9</ele>
        <time>2020-06-08T19:12:20Z</time>
      </trkpt>
      <trkpt lat="48.36305" lon="-4.74768">
        <ele>28</ele>
        <time>2020-06-08T19:12:21Z</time>
      </trkpt>
      <trkpt lat="48.36301" lon="-4.74769">
        <ele>28.1</ele>
        <time>2020-06-08T19:12:22Z</time>
      </trkpt>
      <trkpt lat="48.36296" lon="-4.7477">
        <ele>28.1</ele>
        <time>2020-06-08T19:12:23Z</time>
      </trkpt>
      <trkpt lat="48.36291" lon="-4.74772">
        <ele>28.2</ele>
        <time>2020-06-08T19:12:24Z</time>
      </trkpt>
      <trkpt lat="48.36287" lon="-4.74772">
        <ele>28.2</ele>
        <time>2020-06-08T19:12:25Z</time>
      </trkpt>
      <trkpt lat="48.36281" lon="-4.74772">
        <ele>28.2</ele>
        <time>2020-06-08T19:12:26Z</time>
      </trkpt>
      <trkpt lat="48.36275" lon="-4.74771">
        <ele>28.1</ele>
        <time>2020-06-08T19:12:27Z</time>
      </trkpt>
      <trkpt lat="48.36269" lon="-4.74771">
        <ele>28</ele>
        <time>2020-06-08T19:12:28Z</time>
      </trkpt>
      <trkpt lat="48.36263" lon="-4.74772">
        <ele>27.8</ele>
        <time>2020-06-08T19:12:29Z</time>
      </trkpt>
      <trkpt lat="48.36258" lon="-4.74773">
        <ele>27.6</ele>
        <time>2020-06-08T19:12:30Z</time>
      </trkpt>
      <trkpt lat="48.36251" lon="-4.74774">
        <ele>27.3</ele>
        <time>2020-06-08T19:12:31Z</time>
      </trkpt>
      <trkpt lat="48.36245" lon="-4.74775">
        <ele>27</ele>
        <time>2020-06-08T19:12:32Z</time>
      </trkpt>
      <trkpt lat="48.36238" lon="-4.74776">
        <ele>26.7</ele>
        <time>2020-06-08T19:12:33Z</time>
      </trkpt>
      <trkpt lat="48.36231" lon="-4.74777">
        <ele>26.4</ele>
        <time>2020-06-08T19:12:34Z</time>
      </trkpt>
      <trkpt lat="48.36223" lon="-4.74777">
        <ele>26.1</ele>
        <time>2020-06-08T19:12:35Z</time>
      </trkpt>
      <trkpt lat="48.36215" lon="-4.74777">
        <ele>25.6</ele>
        <time>2020-06-08T19:12:36Z</time>
      </trkpt>
      <trkpt lat="48.36207" lon="-4.74778">
        <ele>25.2</ele>
        <time>2020-06-08T19:12:37Z</time>
      </trkpt>
      <trkpt lat="48.36199" lon="-4.74779">
        <ele>24.7</ele>
        <time>2020-06-08T19:12:38Z</time>
      </trkpt>
      <trkpt lat="48.36189" lon="-4.74778">
        <ele>24.1</ele>
        <time>2020-06-08T19:12:39Z</time>
      </trkpt>
      <trkpt lat="48.36179" lon="-4.74779">
        <ele>23.3</ele>
        <time>2020-06-08T19:12:40Z</time>
      </trkpt>
      <trkpt lat="48.36169" lon="-4.74779">
        <ele>22.5</ele>
        <time>2020-06-08T19:12:41Z</time>
      </trkpt>
      <trkpt lat="48.36159" lon="-4.7478">
        <ele>21.8</ele>
        <time>2020-06-08T19:12:42Z</time>
      </trkpt>
      <trkpt lat="48.36148" lon="-4.7478">
        <ele>21.1</ele>
        <time>2020-06-08T19:12:43Z</time>
      </trkpt>
      <trkpt lat="48.36138" lon="-4.74781">
        <ele>20.5</ele>
        <time>2020-06-08T19:12:44Z</time>
      </trkpt>
      <trkpt lat="48.36127" lon="-4.74781">
        <ele>20</ele>
        <time>2020-06-08T19:12:45Z</time>
      </trkpt>
      <trkpt lat="48.36116" lon="-4.7478">
        <ele>19.4</ele>
        <time>2020-06-08T19:12:46Z</time>
      </trkpt>
      <trkpt lat="48.36106" lon="-4.74778">
        <ele>18.9</ele>
        <time>2020-06-08T19:12:47Z</time>
      </trkpt>
      <trkpt lat="48.36095" lon="-4.74778">
        <ele>18.4</ele>
        <time>2020-06-08T19:12:48Z</time>
      </trkpt>
      <trkpt lat="48.36084" lon="-4.74778">
        <ele>18</ele>
        <time>2020-06-08T19:12:49Z</time>
      </trkpt>
      <trkpt lat="48.36074" lon="-4.7478">
        <ele>17.4</ele>
        <time>2020-06-08T19:12:50Z</time>
      </trkpt>
      <trkpt lat="48.36064" lon="-4.74784">
        <ele>16.8</ele>
        <time>2020-06-08T19:12:51Z</time>
      </trkpt>
      <trkpt lat="48.36055" lon="-4.74788">
        <ele>16.1</ele>
        <time>2020-06-08T19:12:52Z</time>
      </trkpt>
      <trkpt lat="48.36047" lon="-4.74795">
        <ele>15.4</ele>
        <time>2020-06-08T19:12:53Z</time>
      </trkpt>
      <trkpt lat="48.36042" lon="-4.74805">
        <ele>14.8</ele>
        <time>2020-06-08T19:12:54Z</time>
      </trkpt>
      <trkpt lat="48.3604" lon="-4.74818">
        <ele>14.1</ele>
        <time>2020-06-08T19:12:55Z</time>
      </trkpt>
      <trkpt lat="48.36038" lon="-4.74832">
        <ele>13.4</ele>
        <time>2020-06-08T19:12:56Z</time>
      </trkpt>
      <trkpt lat="48.3604" lon="-4.74845">
        <ele>12.9</ele>
        <time>2020-06-08T19:12:57Z</time>
      </trkpt>
      <trkpt lat="48.36045" lon="-4.74858">
        <ele>12.2</ele>
        <time>2020-06-08T19:12:58Z</time>
      </trkpt>
      <trkpt lat="48.36052" lon="-4.74868">
        <ele>11.7</ele>
        <time>2020-06-08T19:12:59Z</time>
      </trkpt>
      <trkpt lat="48.3606" lon="-4.74878">
        <ele>11.1</ele>
        <time>2020-06-08T19:13:00Z</time>
      </trkpt>
      <trkpt lat="48.36069" lon="-4.74882">
        <ele>10.7</ele>
        <time>2020-06-08T19:13:01Z</time>
      </trkpt>
      <trkpt lat="48.36078" lon="-4.74885">
        <ele>10.2</ele>
        <time>2020-06-08T19:13:02Z</time>
      </trkpt>
      <trkpt lat="48.36086" lon="-4.74892">
        <ele>9.8</ele>
        <time>2020-06-08T19:13:03Z</time>
      </trkpt>
      <trkpt lat="48.36092" lon="-4.74901">
        <ele>9.3</ele>
        <time>2020-06-08T19:13:04Z</time>
      </trkpt>
      <trkpt lat="48.36099" lon="-4.74913">
        <ele>8.6</ele>
        <time>2020-06-08T19:13:05Z</time>
      </trkpt>
      <trkpt lat="48.36102" lon="-4.74926">
        <ele>7.9</ele>
        <time>2020-06-08T19:13:06Z</time>
      </trkpt>
      <trkpt lat="48.36102" lon="-4.74939">
        <ele>7.3</ele>
        <time>2020-06-08T19:13:07Z</time>
      </trkpt>
      <trkpt lat="48.36101" lon="-4.74954">
        <ele>6.6</ele>
        <time>2020-06-08T19:13:08Z</time>
      </trkpt>
      <trkpt lat="48.36097" lon="-4.74966">
        <ele>6</ele>
        <time>2020-06-08T19:13:09Z</time>
      </trkpt>
      <trkpt lat="48.36091" lon="-4.74978">
        <ele>5.3</ele>
        <time>2020-06-08T19:13:10Z</time>
      </trkpt>
      <trkpt lat="48.36084" lon="-4.74987">
        <ele>5.2</ele>
        <time>2020-06-08T19:13:11Z</time>
      </trkpt>
      <trkpt lat="48.36075" lon="-4.74995">
        <ele>5</ele>
        <time>2020-06-08T19:13:12Z</time>
      </trkpt>
      <trkpt lat="48.36067" lon="-4.75002">
        <ele>4.5</ele>
        <time>2020-06-08T19:13:13Z</time>
      </trkpt>
      <trkpt lat="48.36059" lon="-4.7501">
        <ele>4.1</ele>
        <time>2020-06-08T19:13:14Z</time>
      </trkpt>
      <trkpt lat="48.3605" lon="-4.75018">
        <ele>3.9</ele>
        <time>2020-06-08T19:13:15Z</time>
      </trkpt>
      <trkpt lat="48.36043" lon="-4.75025">
        <ele>3.7</ele>
        <time>2020-06-08T19:13:16Z</time>
      </trkpt>
      <trkpt lat="48.36035" lon="-4.75033">
        <ele>3.7</ele>
        <time>2020-06-08T19:13:17Z</time>
      </trkpt>
      <trkpt lat="48.36028" lon="-4.75041">
        <ele>3.7</ele>
        <time>2020-06-08T19:13:18Z</time>
      </trkpt>
      <trkpt lat="48.36021" lon="-4.75048">
        <ele>3.8</ele>
        <time>2020-06-08T19:13:19Z</time>
      </trkpt>
      <trkpt lat="48.36014" lon="-4.75055">
        <ele>3.8</ele>
        <time>2020-06-08T19:13:20Z</time>
      </trkpt>
      <trkpt lat="48.36008" lon="-4.75062">
        <ele>3.9</ele>
        <time>2020-06-08T19:13:21Z</time>
      </trkpt>
      <trkpt lat="48.36002" lon="-4.75068">
        <ele>4</ele>
        <time>2020-06-08T19:13:22Z</time>
      </trkpt>
      <trkpt lat="48.35995" lon="-4.75074">
        <ele>4.1</ele>
        <time>2020-06-08T19:13:23Z</time>
      </trkpt>
      <trkpt lat="48.35989" lon="-4.75081">
        <ele>4.2</ele>
        <time>2020-06-08T19:13:24Z</time>
      </trkpt>
      <trkpt lat="48.35983" lon="-4.75086">
        <ele>4.3</ele>
        <time>2020-06-08T19:13:25Z</time>
      </trkpt>
      <trkpt lat="48.35977" lon="-4.75092">
        <ele>4.4</ele>
        <time>2020-06-08T19:13:26Z</time>
      </trkpt>
      <trkpt lat="48.35972" lon="-4.75096">
        <ele>4.5</ele>
        <time>2020-06-08T19:13:27Z</time>
      </trkpt>
      <trkpt lat="48.35967" lon="-4.751">
        <ele>4.6</ele>
        <time>2020-06-08T19:13:28Z</time>
      </trkpt>
      <trkpt lat="48.35961" lon="-4.75105">
        <ele>4.6</ele>
        <time>2020-06-08T19:13:29Z</time>
      </trkpt>
      <trkpt lat="48.35957" lon="-4.75111">
        <ele>4.6</ele>
        <time>2020-06-08T19:13:30Z</time>
      </trkpt>
      <trkpt lat="48.35955" lon="-4.75119">
        <ele>4.5</ele>
        <time>2020-06-08T19:13:31Z</time>
      </trkpt>
      <trkpt lat="48.35954" lon="-4.75128">
        <ele>4.4</ele>
        <time>2020-06-08T19:13:32Z</time>
      </trkpt>
      <trkpt lat="48.35955" lon="-4.75136">
        <ele>4.4</ele>
        <time>2020-06-08T19:13:33Z</time>
      </trkpt>
      <trkpt lat="48.35955" lon="-4.75145">
        <ele>4.3</ele>
        <time>2020-06-08T19:13:34Z</time>
      </trkpt>
      <trkpt lat="48.35955" lon="-4.75153">
        <ele>4.2</ele>
        <time>2020-06-08T19:13:35Z</time>
      </trkpt>
      <trkpt lat="48.35955" lon="-4.75163">
        <ele>4.2</ele>
        <time>2020-06-08T19:13:36Z</time>
      </trkpt>
      <trkpt lat="48.35955" lon="-4.75172">
        <ele>4.1</ele>
        <time>2020-06-08T19:13:37Z</time>
      </trkpt>
      <trkpt lat="48.35954" lon="-4.75182">
        <ele>4.1</ele>
        <time>2020-06-08T19:13:38Z</time>
      </trkpt>
      <trkpt lat="48.35954" lon="-4.75192">
        <ele>4.1</ele>
        <time>2020-06-08T19:13:39Z</time>
      </trkpt>
      <trkpt lat="48.35954" lon="-4.75202">
        <ele>4.1</ele>
        <time>2020-06-08T19:13:40Z</time>
      </trkpt>
      <trkpt lat="48.35953" lon="-4.75213">
        <ele>4.2</ele>
        <time>2020-06-08T19:13:41Z</time>
      </trkpt>
      <trkpt lat="48.35952" lon="-4.75224">
        <ele>4.2</ele>
        <time>2020-06-08T19:13:42Z</time>
      </trkpt>
      <trkpt lat="48.35952" lon="-4.75234">
        <ele>4.1</ele>
        <time>2020-06-08T19:13:43Z</time>
      </trkpt>
      <trkpt lat="48.3595" lon="-4.75245">
        <ele>4.1</ele>
        <time>2020-06-08T19:13:44Z</time>
      </trkpt>
      <trkpt lat="48.3595" lon="-4.75256">
        <ele>4.1</ele>
        <time>2020-06-08T19:13:45Z</time>
      </trkpt>
      <trkpt lat="48.35949" lon="-4.75268">
        <ele>4.1</ele>
        <time>2020-06-08T19:13:46Z</time>
      </trkpt>
      <trkpt lat="48.35947" lon="-4.75279">
        <ele>4.2</ele>
        <time>2020-06-08T19:13:47Z</time>
      </trkpt>
      <trkpt lat="48.35945" lon="-4.75289">
        <ele>4.3</ele>
        <time>2020-06-08T19:13:48Z</time>
      </trkpt>
      <trkpt lat="48.35944" lon="-4.753">
        <ele>4.4</ele>
        <time>2020-06-08T19:13:49Z</time>
      </trkpt>
      <trkpt lat="48.35944" lon="-4.75312">
        <ele>4.6</ele>
        <time>2020-06-08T19:13:50Z</time>
      </trkpt>
      <trkpt lat="48.35943" lon="-4.75322">
        <ele>4.7</ele>
        <time>2020-06-08T19:13:51Z</time>
      </trkpt>
      <trkpt lat="48.35941" lon="-4.75333">
        <ele>4.8</ele>
        <time>2020-06-08T19:13:52Z</time>
      </trkpt>
      <trkpt lat="48.35941" lon="-4.75343">
        <ele>5</ele>
        <time>2020-06-08T19:13:53Z</time>
      </trkpt>
      <trkpt lat="48.3594" lon="-4.75353">
        <ele>5.2</ele>
        <time>2020-06-08T19:13:54Z</time>
      </trkpt>
      <trkpt lat="48.35939" lon="-4.75363">
        <ele>5.3</ele>
        <time>2020-06-08T19:13:55Z</time>
      </trkpt>
      <trkpt lat="48.35939" lon="-4.75373">
        <ele>5.4</ele>
        <time>2020-06-08T19:13:56Z</time>
      </trkpt>
      <trkpt lat="48.35938" lon="-4.75383">
        <ele>5.6</ele>
        <time>2020-06-08T19:13:57Z</time>
      </trkpt>
      <trkpt lat="48.35936" lon="-4.75393">
        <ele>5.7</ele>
        <time>2020-06-08T19:13:58Z</time>
      </trkpt>
      <trkpt lat="48.35936" lon="-4.75403">
        <ele>5.9</ele>
        <time>2020-06-08T19:13:59Z</time>
      </trkpt>
      <trkpt lat="48.35934" lon="-4.75412">
        <ele>6</ele>
        <time>2020-06-08T19:14:00Z</time>
      </trkpt>
      <trkpt lat="48.35933" lon="-4.75422">
        <ele>6.2</ele>
        <time>2020-06-08T19:14:01Z</time>
      </trkpt>
      <trkpt lat="48.35932" lon="-4.75431">
        <ele>6.3</ele>
        <time>2020-06-08T19:14:02Z</time>
      </trkpt>
      <trkpt lat="48.35931" lon="-4.7544">
        <ele>6.4</ele>
        <time>2020-06-08T19:14:03Z</time>
      </trkpt>
      <trkpt lat="48.35931" lon="-4.75449">
        <ele>6.5</ele>
        <time>2020-06-08T19:14:04Z</time>
      </trkpt>
      <trkpt lat="48.3593" lon="-4.75457">
        <ele>6.6</ele>
        <time>2020-06-08T19:14:05Z</time>
      </trkpt>
      <trkpt lat="48.35929" lon="-4.75466">
        <ele>6.6</ele>
        <time>2020-06-08T19:14:06Z</time>
      </trkpt>
      <trkpt lat="48.35929" lon="-4.75474">
        <ele>6.7</ele>
        <time>2020-06-08T19:14:07Z</time>
      </trkpt>
      <trkpt lat="48.35927" lon="-4.75482">
        <ele>6.7</ele>
        <time>2020-06-08T19:14:08Z</time>
      </trkpt>
      <trkpt lat="48.35926" lon="-4.75491">
        <ele>6.7</ele>
        <time>2020-06-08T19:14:09Z</time>
      </trkpt>
      <trkpt lat="48.35925" lon="-4.75501">
        <ele>6.6</ele>
        <time>2020-06-08T19:14:10Z</time>
      </trkpt>
      <trkpt lat="48.35924" lon="-4.7551">
        <ele>6.6</ele>
        <time>2020-06-08T19:14:11Z</time>
      </trkpt>
      <trkpt lat="48.35922" lon="-4.75519">
        <ele>6.5</ele>
        <time>2020-06-08T19:14:12Z</time>
      </trkpt>
      <trkpt lat="48.3592" lon="-4.7553">
        <ele>6.4</ele>
        <time>2020-06-08T19:14:13Z</time>
      </trkpt>
      <trkpt lat="48.35918" lon="-4.75541">
        <ele>6.3</ele>
        <time>2020-06-08T19:14:14Z</time>
      </trkpt>
      <trkpt lat="48.35916" lon="-4.75552">
        <ele>6.1</ele>
        <time>2020-06-08T19:14:15Z</time>
      </trkpt>
      <trkpt lat="48.35914" lon="-4.75563">
        <ele>6</ele>
        <time>2020-06-08T19:14:16Z</time>
      </trkpt>
      <trkpt lat="48.35913" lon="-4.75574">
        <ele>5.9</ele>
        <time>2020-06-08T19:14:17Z</time>
      </trkpt>
      <trkpt lat="48.35911" lon="-4.75586">
        <ele>5.8</ele>
        <time>2020-06-08T19:14:18Z</time>
      </trkpt>
      <trkpt lat="48.35908" lon="-4.75598">
        <ele>5.7</ele>
        <time>2020-06-08T19:14:19Z</time>
      </trkpt>
      <trkpt lat="48.35906" lon="-4.7561">
        <ele>5.6</ele>
        <time>2020-06-08T19:14:20Z</time>
      </trkpt>
      <trkpt lat="48.35904" lon="-4.75622">
        <ele>5.4</ele>
        <time>2020-06-08T19:14:21Z</time>
      </trkpt>
      <trkpt lat="48.35903" lon="-4.75634">
        <ele>5.3</ele>
        <time>2020-06-08T19:14:22Z</time>
      </trkpt>
      <trkpt lat="48.35903" lon="-4.75647">
        <ele>5.1</ele>
        <time>2020-06-08T19:14:23Z</time>
      </trkpt>
      <trkpt lat="48.35903" lon="-4.75658">
        <ele>5</ele>
        <time>2020-06-08T19:14:24Z</time>
      </trkpt>
      <trkpt lat="48.35903" lon="-4.75671">
        <ele>4.9</ele>
        <time>2020-06-08T19:14:25Z</time>
      </trkpt>
      <trkpt lat="48.35904" lon="-4.75683">
        <ele>5</ele>
        <time>2020-06-08T19:14:26Z</time>
      </trkpt>
      <trkpt lat="48.35906" lon="-4.75695">
        <ele>5</ele>
        <time>2020-06-08T19:14:27Z</time>
      </trkpt>
      <trkpt lat="48.35907" lon="-4.75706">
        <ele>5</ele>
        <time>2020-06-08T19:14:28Z</time>
      </trkpt>
      <trkpt lat="48.35908" lon="-4.75718">
        <ele>5.1</ele>
        <time>2020-06-08T19:14:29Z</time>
      </trkpt>
      <trkpt lat="48.3591" lon="-4.75729">
        <ele>5.1</ele>
        <time>2020-06-08T19:14:30Z</time>
      </trkpt>
      <trkpt lat="48.35911" lon="-4.7574">
        <ele>5.1</ele>
        <time>2020-06-08T19:14:31Z</time>
      </trkpt>
      <trkpt lat="48.35912" lon="-4.7575">
        <ele>5.1</ele>
        <time>2020-06-08T19:14:32Z</time>
      </trkpt>
      <trkpt lat="48.35913" lon="-4.7576">
        <ele>5.1</ele>
        <time>2020-06-08T19:14:33Z</time>
      </trkpt>
      <trkpt lat="48.35914" lon="-4.75771">
        <ele>5.1</ele>
        <time>2020-06-08T19:14:34Z</time>
      </trkpt>
      <trkpt lat="48.35915" lon="-4.75781">
        <ele>5.2</ele>
        <time>2020-06-08T19:14:35Z</time>
      </trkpt>
      <trkpt lat="48.35916" lon="-4.75792">
        <ele>5.3</ele>
        <time>2020-06-08T19:14:36Z</time>
      </trkpt>
      <trkpt lat="48.35915" lon="-4.75803">
        <ele>5.3</ele>
        <time>2020-06-08T19:14:37Z</time>
      </trkpt>
      <trkpt lat="48.35916" lon="-4.75814">
        <ele>5.3</ele>
        <time>2020-06-08T19:14:38Z</time>
      </trkpt>
      <trkpt lat="48.35918" lon="-4.75824">
        <ele>5</ele>
        <time>2020-06-08T19:14:39Z</time>
      </trkpt>
      <trkpt lat="48.35919" lon="-4.75836">
        <ele>4.8</ele>
        <time>2020-06-08T19:14:40Z</time>
      </trkpt>
      <trkpt lat="48.3592" lon="-4.75847">
        <ele>4.7</ele>
        <time>2020-06-08T19:14:41Z</time>
      </trkpt>
      <trkpt lat="48.35921" lon="-4.75858">
        <ele>4.7</ele>
        <time>2020-06-08T19:14:42Z</time>
      </trkpt>
      <trkpt lat="48.35922" lon="-4.75869">
        <ele>4.7</ele>
        <time>2020-06-08T19:14:43Z</time>
      </trkpt>
      <trkpt lat="48.35922" lon="-4.75879">
        <ele>4.8</ele>
        <time>2020-06-08T19:14:44Z</time>
      </trkpt>
      <trkpt lat="48.35923" lon="-4.7589">
        <ele>4.9</ele>
        <time>2020-06-08T19:14:45Z</time>
      </trkpt>
      <trkpt lat="48.35924" lon="-4.759">
        <ele>5</ele>
        <time>2020-06-08T19:14:46Z</time>
      </trkpt>
      <trkpt lat="48.35925" lon="-4.7591">
        <ele>5.1</ele>
        <time>2020-06-08T19:14:47Z</time>
      </trkpt>
      <trkpt lat="48.35926" lon="-4.7592">
        <ele>5.2</ele>
        <time>2020-06-08T19:14:48Z</time>
      </trkpt>
      <trkpt lat="48.35926" lon="-4.75929">
        <ele>5.4</ele>
        <time>2020-06-08T19:14:49Z</time>
      </trkpt>
      <trkpt lat="48.35927" lon="-4.75939">
        <ele>5.5</ele>
        <time>2020-06-08T19:14:50Z</time>
      </trkpt>
      <trkpt lat="48.35928" lon="-4.75948">
        <ele>5.5</ele>
        <time>2020-06-08T19:14:51Z</time>
      </trkpt>
      <trkpt lat="48.35929" lon="-4.75958">
        <ele>5.6</ele>
        <time>2020-06-08T19:14:52Z</time>
      </trkpt>
      <trkpt lat="48.35929" lon="-4.75968">
        <ele>5.6</ele>
        <time>2020-06-08T19:14:53Z</time>
      </trkpt>
      <trkpt lat="48.3593" lon="-4.75977">
        <ele>5.6</ele>
        <time>2020-06-08T19:14:54Z</time>
      </trkpt>
      <trkpt lat="48.3593" lon="-4.75987">
        <ele>5.7</ele>
        <time>2020-06-08T19:14:55Z</time>
      </trkpt>
      <trkpt lat="48.35932" lon="-4.75996">
        <ele>5.7</ele>
        <time>2020-06-08T19:14:56Z</time>
      </trkpt>
      <trkpt lat="48.35932" lon="-4.76006">
        <ele>5.8</ele>
        <time>2020-06-08T19:14:57Z</time>
      </trkpt>
      <trkpt lat="48.35933" lon="-4.76015">
        <ele>5.9</ele>
        <time>2020-06-08T19:14:58Z</time>
      </trkpt>
      <trkpt lat="48.35934" lon="-4.76024">
        <ele>6</ele>
        <time>2020-06-08T19:14:59Z</time>
      </trkpt>
      <trkpt lat="48.35935" lon="-4.76033">
        <ele>6</ele>
        <time>2020-06-08T19:15:00Z</time>
      </trkpt>
      <trkpt lat="48.35935" lon="-4.76041">
        <ele>6.1</ele>
        <time>2020-06-08T19:15:01Z</time>
      </trkpt>
      <trkpt lat="48.35935" lon="-4.7605">
        <ele>6.2</ele>
        <time>2020-06-08T19:15:02Z</time>
      </trkpt>
      <trkpt lat="48.35936" lon="-4.76058">
        <ele>6.3</ele>
        <time>2020-06-08T19:15:03Z</time>
      </trkpt>
      <trkpt lat="48.35935" lon="-4.76066">
        <ele>6.4</ele>
        <time>2020-06-08T19:15:04Z</time>
      </trkpt>
      <trkpt lat="48.35936" lon="-4.76073">
        <ele>6.4</ele>
        <time>2020-06-08T19:15:05Z</time>
      </trkpt>
      <trkpt lat="48.35937" lon="-4.7608">
        <ele>6.5</ele>
        <time>2020-06-08T19:15:06Z</time>
      </trkpt>
      <trkpt lat="48.35938" lon="-4.76087">
        <ele>6.5</ele>
        <time>2020-06-08T19:15:07Z</time>
      </trkpt>
      <trkpt lat="48.3594" lon="-4.76094">
        <ele>6.5</ele>
        <time>2020-06-08T19:15:08Z</time>
      </trkpt>
      <trkpt lat="48.3594" lon="-4.76102">
        <ele>6.4</ele>
        <time>2020-06-08T19:15:09Z</time>
      </trkpt>
      <trkpt lat="48.35942" lon="-4.76109">
        <ele>6.4</ele>
        <time>2020-06-08T19:15:10Z</time>
      </trkpt>
      <trkpt lat="48.35941" lon="-4.76116">
        <ele>6.3</ele>
        <time>2020-06-08T19:15:11Z</time>
      </trkpt>
      <trkpt lat="48.35941" lon="-4.76124">
        <ele>6.3</ele>
        <time>2020-06-08T19:15:12Z</time>
      </trkpt>
      <trkpt lat="48.35941" lon="-4.76131">
        <ele>6.2</ele>
        <time>2020-06-08T19:15:13Z</time>
      </trkpt>
      <trkpt lat="48.35942" lon="-4.7614">
        <ele>6.1</ele>
        <time>2020-06-08T19:15:14Z</time>
      </trkpt>
      <trkpt lat="48.35942" lon="-4.76148">
        <ele>6</ele>
        <time>2020-06-08T19:15:15Z</time>
      </trkpt>
      <trkpt lat="48.35942" lon="-4.76157">
        <ele>5.9</ele>
        <time>2020-06-08T19:15:16Z</time>
      </trkpt>
      <trkpt lat="48.35942" lon="-4.76166">
        <ele>5.7</ele>
        <time>2020-06-08T19:15:17Z</time>
      </trkpt>
      <trkpt lat="48.35942" lon="-4.76177">
        <ele>5.5</ele>
        <time>2020-06-08T19:15:18Z</time>
      </trkpt>
      <trkpt lat="48.35943" lon="-4.76187">
        <ele>5.3</ele>
        <time>2020-06-08T19:15:19Z</time>
      </trkpt>
      <trkpt lat="48.35944" lon="-4.76198">
        <ele>5.1</ele>
        <time>2020-06-08T19:15:20Z</time>
      </trkpt>
      <trkpt lat="48.35946" lon="-4.7621">
        <ele>5</ele>
        <time>2020-06-08T19:15:21Z</time>
      </trkpt>
      <trkpt lat="48.35948" lon="-4.76221">
        <ele>4.9</ele>
        <time>2020-06-08T19:15:22Z</time>
      </trkpt>
      <trkpt lat="48.35948" lon="-4.76233">
        <ele>4.8</ele>
        <time>2020-06-08T19:15:23Z</time>
      </trkpt>
      <trkpt lat="48.35948" lon="-4.76244">
        <ele>4.7</ele>
        <time>2020-06-08T19:15:24Z</time>
      </trkpt>
      <trkpt lat="48.35949" lon="-4.76255">
        <ele>4.5</ele>
        <time>2020-06-08T19:15:25Z</time>
      </trkpt>
      <trkpt lat="48.35949" lon="-4.76267">
        <ele>4.5</ele>
        <time>2020-06-08T19:15:26Z</time>
      </trkpt>
      <trkpt lat="48.3595" lon="-4.76279">
        <ele>4.4</ele>
        <time>2020-06-08T19:15:27Z</time>
      </trkpt>
      <trkpt lat="48.3595" lon="-4.7629">
        <ele>4.3</ele>
        <time>2020-06-08T19:15:28Z</time>
      </trkpt>
      <trkpt lat="48.35952" lon="-4.76302">
        <ele>4.3</ele>
        <time>2020-06-08T19:15:29Z</time>
      </trkpt>
      <trkpt lat="48.35953" lon="-4.76313">
        <ele>4.3</ele>
        <time>2020-06-08T19:15:30Z</time>
      </trkpt>
      <trkpt lat="48.35955" lon="-4.76323">
        <ele>4.3</ele>
        <time>2020-06-08T19:15:31Z</time>
      </trkpt>
      <trkpt lat="48.35957" lon="-4.76334">
        <ele>4.3</ele>
        <time>2020-06-08T19:15:32Z</time>
      </trkpt>
      <trkpt lat="48.35958" lon="-4.76345">
        <ele>4.4</ele>
        <time>2020-06-08T19:15:33Z</time>
      </trkpt>
      <trkpt lat="48.35959" lon="-4.76355">
        <ele>4.4</ele>
        <time>2020-06-08T19:15:34Z</time>
      </trkpt>
      <trkpt lat="48.35961" lon="-4.76365">
        <ele>4.5</ele>
        <time>2020-06-08T19:15:35Z</time>
      </trkpt>
      <trkpt lat="48.35963" lon="-4.76374">
        <ele>4.7</ele>
        <time>2020-06-08T19:15:36Z</time>
      </trkpt>
      <trkpt lat="48.35965" lon="-4.76383">
        <ele>4.8</ele>
        <time>2020-06-08T19:15:37Z</time>
      </trkpt>
      <trkpt lat="48.35967" lon="-4.76392">
        <ele>5</ele>
        <time>2020-06-08T19:15:38Z</time>
      </trkpt>
      <trkpt lat="48.35968" lon="-4.76401">
        <ele>5.1</ele>
        <time>2020-06-08T19:15:39Z</time>
      </trkpt>
      <trkpt lat="48.3597" lon="-4.7641">
        <ele>5.4</ele>
        <time>2020-06-08T19:15:40Z</time>
      </trkpt>
      <trkpt lat="48.3597" lon="-4.76418">
        <ele>5.7</ele>
        <time>2020-06-08T19:15:41Z</time>
      </trkpt>
      <trkpt lat="48.35972" lon="-4.76425">
        <ele>5.9</ele>
        <time>2020-06-08T19:15:42Z</time>
      </trkpt>
      <trkpt lat="48.35973" lon="-4.76432">
        <ele>6.1</ele>
        <time>2020-06-08T19:15:43Z</time>
      </trkpt>
      <trkpt lat="48.35975" lon="-4.76439">
        <ele>6.4</ele>
        <time>2020-06-08T19:15:44Z</time>
      </trkpt>
      <trkpt lat="48.35975" lon="-4.76446">
        <ele>6.6</ele>
        <time>2020-06-08T19:15:45Z</time>
      </trkpt>
      <trkpt lat="48.35977" lon="-4.76452">
        <ele>6.8</ele>
        <time>2020-06-08T19:15:46Z</time>
      </trkpt>
      <trkpt lat="48.35979" lon="-4.76458">
        <ele>7.1</ele>
        <time>2020-06-08T19:15:47Z</time>
      </trkpt>
      <trkpt lat="48.35981" lon="-4.76464">
        <ele>7.4</ele>
        <time>2020-06-08T19:15:48Z</time>
      </trkpt>
      <trkpt lat="48.35982" lon="-4.76471">
        <ele>7.6</ele>
        <time>2020-06-08T19:15:49Z</time>
      </trkpt>
      <trkpt lat="48.35983" lon="-4.76477">
        <ele>7.9</ele>
        <time>2020-06-08T19:15:50Z</time>
      </trkpt>
      <trkpt lat="48.35985" lon="-4.76483">
        <ele>8.2</ele>
        <time>2020-06-08T19:15:51Z</time>
      </trkpt>
      <trkpt lat="48.35987" lon="-4.76488">
        <ele>8.4</ele>
        <time>2020-06-08T19:15:52Z</time>
      </trkpt>
      <trkpt lat="48.35988" lon="-4.76494">
        <ele>8.7</ele>
        <time>2020-06-08T19:15:53Z</time>
      </trkpt>
      <trkpt lat="48.35988" lon="-4.76501">
        <ele>9</ele>
        <time>2020-06-08T19:15:54Z</time>
      </trkpt>
      <trkpt lat="48.3599" lon="-4.76506">
        <ele>9.2</ele>
        <time>2020-06-08T19:15:55Z</time>
      </trkpt>
      <trkpt lat="48.3599" lon="-4.76512">
        <ele>9.5</ele>
        <time>2020-06-08T19:15:56Z</time>
      </trkpt>
      <trkpt lat="48.35992" lon="-4.76518">
        <ele>9.7</ele>
        <time>2020-06-08T19:15:57Z</time>
      </trkpt>
      <trkpt lat="48.35994" lon="-4.76524">
        <ele>10</ele>
        <time>2020-06-08T19:15:58Z</time>
      </trkpt>
      <trkpt lat="48.35994" lon="-4.7653">
        <ele>10.2</ele>
        <time>2020-06-08T19:15:59Z</time>
      </trkpt>
      <trkpt lat="48.35995" lon="-4.76536">
        <ele>10.5</ele>
        <time>2020-06-08T19:16:00Z</time>
      </trkpt>
      <trkpt lat="48.35996" lon="-4.76542">
        <ele>10.7</ele>
        <time>2020-06-08T19:16:01Z</time>
      </trkpt>
      <trkpt lat="48.35998" lon="-4.76547">
        <ele>10.8</ele>
        <time>2020-06-08T19:16:02Z</time>
      </trkpt>
      <trkpt lat="48.35999" lon="-4.76552">
        <ele>11</ele>
        <time>2020-06-08T19:16:03Z</time>
      </trkpt>
      <trkpt lat="48.35999" lon="-4.76558">
        <ele>11.2</ele>
        <time>2020-06-08T19:16:04Z</time>
      </trkpt>
      <trkpt lat="48.36001" lon="-4.76564">
        <ele>11.4</ele>
        <time>2020-06-08T19:16:05Z</time>
      </trkpt>
      <trkpt lat="48.36002" lon="-4.7657">
        <ele>11.6</ele>
        <time>2020-06-08T19:16:06Z</time>
      </trkpt>
      <trkpt lat="48.36003" lon="-4.76577">
        <ele>11.8</ele>
        <time>2020-06-08T19:16:07Z</time>
      </trkpt>
      <trkpt lat="48.36004" lon="-4.76581">
        <ele>12</ele>
        <time>2020-06-08T19:16:08Z</time>
      </trkpt>
      <trkpt lat="48.36005" lon="-4.76586">
        <ele>12.2</ele>
        <time>2020-06-08T19:16:09Z</time>
      </trkpt>
      <trkpt lat="48.36006" lon="-4.7659">
        <ele>12.3</ele>
        <time>2020-06-08T19:16:10Z</time>
      </trkpt>
      <trkpt lat="48.36008" lon="-4.76597">
        <ele>12.6</ele>
        <time>2020-06-08T19:16:11Z</time>
      </trkpt>
      <trkpt lat="48.36009" lon="-4.76604">
        <ele>12.8</ele>
        <time>2020-06-08T19:16:12Z</time>
      </trkpt>
      <trkpt lat="48.36009" lon="-4.76608">
        <ele>13</ele>
        <time>2020-06-08T19:16:13Z</time>
      </trkpt>
      <trkpt lat="48.3601" lon="-4.76612">
        <ele>13.2</ele>
        <time>2020-06-08T19:16:14Z</time>
      </trkpt>
      <trkpt lat="48.36011" lon="-4.76617">
        <ele>13.3</ele>
        <time>2020-06-08T19:16:15Z</time>
      </trkpt>
      <trkpt lat="48.36012" lon="-4.76623">
        <ele>13.6</ele>
        <time>2020-06-08T19:16:16Z</time>
      </trkpt>
      <trkpt lat="48.36012" lon="-4.76628">
        <ele>13.8</ele>
        <time>2020-06-08T19:16:17Z</time>
      </trkpt>
      <trkpt lat="48.36013" lon="-4.76634">
        <ele>14</ele>
        <time>2020-06-08T19:16:18Z</time>
      </trkpt>
      <trkpt lat="48.36014" lon="-4.76636">
        <ele>14.1</ele>
        <time>2020-06-08T19:16:19Z</time>
      </trkpt>
      <trkpt lat="48.36016" lon="-4.76641">
        <ele>14.3</ele>
        <time>2020-06-08T19:16:20Z</time>
      </trkpt>
      <trkpt lat="48.36017" lon="-4.76646">
        <ele>14.5</ele>
        <time>2020-06-08T19:16:21Z</time>
      </trkpt>
      <trkpt lat="48.36017" lon="-4.76651">
        <ele>14.7</ele>
        <time>2020-06-08T19:16:22Z</time>
      </trkpt>
      <trkpt lat="48.36017" lon="-4.76653">
        <ele>14.7</ele>
        <time>2020-06-08T19:16:23Z</time>
      </trkpt>
      <trkpt lat="48.36018" lon="-4.7666">
        <ele>15</ele>
        <time>2020-06-08T19:16:24Z</time>
      </trkpt>
      <trkpt lat="48.36018" lon="-4.76665">
        <ele>15.1</ele>
        <time>2020-06-08T19:16:25Z</time>
      </trkpt>
      <trkpt lat="48.3602" lon="-4.76669">
        <ele>15.3</ele>
        <time>2020-06-08T19:16:26Z</time>
      </trkpt>
      <trkpt lat="48.36021" lon="-4.76674">
        <ele>15.4</ele>
        <time>2020-06-08T19:16:27Z</time>
      </trkpt>
      <trkpt lat="48.36021" lon="-4.76679">
        <ele>15.6</ele>
        <time>2020-06-08T19:16:28Z</time>
      </trkpt>
      <trkpt lat="48.36022" lon="-4.76684">
        <ele>15.8</ele>
        <time>2020-06-08T19:16:29Z</time>
      </trkpt>
      <trkpt lat="48.36023" lon="-4.76692">
        <ele>16</ele>
        <time>2020-06-08T19:16:30Z</time>
      </trkpt>
      <trkpt lat="48.36024" lon="-4.76698">
        <ele>16.2</ele>
        <time>2020-06-08T19:16:31Z</time>
      </trkpt>
      <trkpt lat="48.36025" lon="-4.76702">
        <ele>16.3</ele>
        <time>2020-06-08T19:16:32Z</time>
      </trkpt>
      <trkpt lat="48.36027" lon="-4.76708">
        <ele>16.5</ele>
        <time>2020-06-08T19:16:33Z</time>
      </trkpt>
      <trkpt lat="48.36028" lon="-4.76713">
        <ele>16.7</ele>
        <time>2020-06-08T19:16:34Z</time>
      </trkpt>
      <trkpt lat="48.36028" lon="-4.76715">
        <ele>16.7</ele>
        <time>2020-06-08T19:16:35Z</time>
      </trkpt>
      <trkpt lat="48.36029" lon="-4.7672">
        <ele>16.9</ele>
        <time>2020-06-08T19:16:36Z</time>
      </trkpt>
      <trkpt lat="48.3603" lon="-4.76726">
        <ele>17.1</ele>
        <time>2020-06-08T19:16:37Z</time>
      </trkpt>
      <trkpt lat="48.36031" lon="-4.76732">
        <ele>17.4</ele>
        <time>2020-06-08T19:16:38Z</time>
      </trkpt>
      <trkpt lat="48.36033" lon="-4.76738">
        <ele>17.6</ele>
        <time>2020-06-08T19:16:39Z</time>
      </trkpt>
      <trkpt lat="48.36033" lon="-4.76744">
        <ele>17.8</ele>
        <time>2020-06-08T19:16:40Z</time>
      </trkpt>
      <trkpt lat="48.36035" lon="-4.76749">
        <ele>17.9</ele>
        <time>2020-06-08T19:16:41Z</time>
      </trkpt>
      <trkpt lat="48.36035" lon="-4.76754">
        <ele>18.1</ele>
        <time>2020-06-08T19:16:42Z</time>
      </trkpt>
      <trkpt lat="48.36036" lon="-4.7676">
        <ele>18.3</ele>
        <time>2020-06-08T19:16:43Z</time>
      </trkpt>
      <trkpt lat="48.36036" lon="-4.76766">
        <ele>18.5</ele>
        <time>2020-06-08T19:16:44Z</time>
      </trkpt>
      <trkpt lat="48.36038" lon="-4.7677">
        <ele>18.7</ele>
        <time>2020-06-08T19:16:45Z</time>
      </trkpt>
      <trkpt lat="48.36039" lon="-4.76778">
        <ele>18.9</ele>
        <time>2020-06-08T19:16:46Z</time>
      </trkpt>
      <trkpt lat="48.3604" lon="-4.76782">
        <ele>19</ele>
        <time>2020-06-08T19:16:47Z</time>
      </trkpt>
      <trkpt lat="48.36041" lon="-4.76787">
        <ele>19.2</ele>
        <time>2020-06-08T19:16:48Z</time>
      </trkpt>
      <trkpt lat="48.36042" lon="-4.76792">
        <ele>19.4</ele>
        <time>2020-06-08T19:16:49Z</time>
      </trkpt>
      <trkpt lat="48.36043" lon="-4.76798">
        <ele>19.6</ele>
        <time>2020-06-08T19:16:50Z</time>
      </trkpt>
      <trkpt lat="48.36045" lon="-4.76803">
        <ele>19.7</ele>
        <time>2020-06-08T19:16:51Z</time>
      </trkpt>
      <trkpt lat="48.36046" lon="-4.76808">
        <ele>19.9</ele>
        <time>2020-06-08T19:16:52Z</time>
      </trkpt>
      <trkpt lat="48.36048" lon="-4.76814">
        <ele>20.2</ele>
        <time>2020-06-08T19:16:53Z</time>
      </trkpt>
      <trkpt lat="48.36048" lon="-4.76819">
        <ele>20.4</ele>
        <time>2020-06-08T19:16:54Z</time>
      </trkpt>
      <trkpt lat="48.3605" lon="-4.76826">
        <ele>20.6</ele>
        <time>2020-06-08T19:16:55Z</time>
      </trkpt>
      <trkpt lat="48.36051" lon="-4.76832">
        <ele>20.8</ele>
        <time>2020-06-08T19:16:56Z</time>
      </trkpt>
      <trkpt lat="48.36051" lon="-4.76835">
        <ele>20.9</ele>
        <time>2020-06-08T19:16:57Z</time>
      </trkpt>
      <trkpt lat="48.36052" lon="-4.76841">
        <ele>21.1</ele>
        <time>2020-06-08T19:16:58Z</time>
      </trkpt>
      <trkpt lat="48.36052" lon="-4.76843">
        <ele>21.2</ele>
        <time>2020-06-08T19:16:59Z</time>
      </trkpt>
      <trkpt lat="48.36053" lon="-4.76849">
        <ele>21.4</ele>
        <time>2020-06-08T19:17:00Z</time>
      </trkpt>
      <trkpt lat="48.36054" lon="-4.76853">
        <ele>21.6</ele>
        <time>2020-06-08T19:17:01Z</time>
      </trkpt>
      <trkpt lat="48.36055" lon="-4.76859">
        <ele>21.8</ele>
        <time>2020-06-08T19:17:02Z</time>
      </trkpt>
      <trkpt lat="48.36055" lon="-4.76864">
        <ele>22</ele>
        <time>2020-06-08T19:17:03Z</time>
      </trkpt>
      <trkpt lat="48.36056" lon="-4.76869">
        <ele>22.2</ele>
        <time>2020-06-08T19:17:04Z</time>
      </trkpt>
      <trkpt lat="48.36056" lon="-4.76875">
        <ele>22.5</ele>
        <time>2020-06-08T19:17:05Z</time>
      </trkpt>
      <trkpt lat="48.36057" lon="-4.7688">
        <ele>22.6</ele>
        <time>2020-06-08T19:17:06Z</time>
      </trkpt>
      <trkpt lat="48.36058" lon="-4.76886">
        <ele>22.8</ele>
        <time>2020-06-08T19:17:07Z</time>
      </trkpt>
      <trkpt lat="48.36059" lon="-4.7689">
        <ele>23</ele>
        <time>2020-06-08T19:17:08Z</time>
      </trkpt>
      <trkpt lat="48.36061" lon="-4.76895">
        <ele>23.2</ele>
        <time>2020-06-08T19:17:09Z</time>
      </trkpt>
      <trkpt lat="48.36063" lon="-4.76901">
        <ele>23.4</ele>
        <time>2020-06-08T19:17:10Z</time>
      </trkpt>
      <trkpt lat="48.36064" lon="-4.76905">
        <ele>23.5</ele>
        <time>2020-06-08T19:17:11Z</time>
      </trkpt>
      <trkpt lat="48.36065" lon="-4.76911">
        <ele>23.7</ele>
        <time>2020-06-08T19:17:12Z</time>
      </trkpt>
      <trkpt lat="48.36065" lon="-4.76917">
        <ele>23.9</ele>
        <time>2020-06-08T19:17:13Z</time>
      </trkpt>
      <trkpt lat="48.36066" lon="-4.76923">
        <ele>24.1</ele>
        <time>2020-06-08T19:17:14Z</time>
      </trkpt>
      <trkpt lat="48.36067" lon="-4.76928">
        <ele>24.3</ele>
        <time>2020-06-08T19:17:15Z</time>
      </trkpt>
      <trkpt lat="48.36069" lon="-4.76933">
        <ele>24.4</ele>
        <time>2020-06-08T19:17:16Z</time>
      </trkpt>
      <trkpt lat="48.36069" lon="-4.76937">
        <ele>24.6</ele>
        <time>2020-06-08T19:17:17Z</time>
      </trkpt>
      <trkpt lat="48.3607" lon="-4.76944">
        <ele>24.8</ele>
        <time>2020-06-08T19:17:18Z</time>
      </trkpt>
      <trkpt lat="48.36071" lon="-4.76949">
        <ele>24.9</ele>
        <time>2020-06-08T19:17:19Z</time>
      </trkpt>
      <trkpt lat="48.36072" lon="-4.76953">
        <ele>25</ele>
        <time>2020-06-08T19:17:20Z</time>
      </trkpt>
      <trkpt lat="48.36072" lon="-4.76958">
        <ele>25.2</ele>
        <time>2020-06-08T19:17:21Z</time>
      </trkpt>
      <trkpt lat="48.36073" lon="-4.76964">
        <ele>25.4</ele>
        <time>2020-06-08T19:17:22Z</time>
      </trkpt>
      <trkpt lat="48.36074" lon="-4.7697">
        <ele>25.5</ele>
        <time>2020-06-08T19:17:23Z</time>
      </trkpt>
      <trkpt lat="48.36076" lon="-4.76976">
        <ele>25.7</ele>
        <time>2020-06-08T19:17:24Z</time>
      </trkpt>
      <trkpt lat="48.36076" lon="-4.76979">
        <ele>25.8</ele>
        <time>2020-06-08T19:17:25Z</time>
      </trkpt>
      <trkpt lat="48.36077" lon="-4.76984">
        <ele>26</ele>
        <time>2020-06-08T19:17:26Z</time>
      </trkpt>
      <trkpt lat="48.36078" lon="-4.76989">
        <ele>26.1</ele>
        <time>2020-06-08T19:17:27Z</time>
      </trkpt>
      <trkpt lat="48.36079" lon="-4.76995">
        <ele>26.3</ele>
        <time>2020-06-08T19:17:28Z</time>
      </trkpt>
      <trkpt lat="48.3608" lon="-4.76998">
        <ele>26.4</ele>
        <time>2020-06-08T19:17:29Z</time>
      </trkpt>
      <trkpt lat="48.36081" lon="-4.77004">
        <ele>26.6</ele>
        <time>2020-06-08T19:17:30Z</time>
      </trkpt>
      <trkpt lat="48.36082" lon="-4.77009">
        <ele>26.7</ele>
        <time>2020-06-08T19:17:31Z</time>
      </trkpt>
      <trkpt lat="48.36083" lon="-4.77014">
        <ele>26.8</ele>
        <time>2020-06-08T19:17:32Z</time>
      </trkpt>
      <trkpt lat="48.36085" lon="-4.77018">
        <ele>27</ele>
        <time>2020-06-08T19:17:33Z</time>
      </trkpt>
      <trkpt lat="48.36087" lon="-4.77025">
        <ele>27.1</ele>
        <time>2020-06-08T19:17:34Z</time>
      </trkpt>
      <trkpt lat="48.36087" lon="-4.77027">
        <ele>27.1</ele>
        <time>2020-06-08T19:17:35Z</time>
      </trkpt>
      <trkpt lat="48.36089" lon="-4.77031">
        <ele>27.1</ele>
        <time>2020-06-08T19:17:36Z</time>
      </trkpt>
      <trkpt lat="48.36089" lon="-4.77032">
        <ele>27.1</ele>
        <time>2020-06-08T19:17:37Z</time>
      </trkpt>
      <trkpt lat="48.3609" lon="-4.77038">
        <ele>27</ele>
        <time>2020-06-08T19:17:38Z</time>
      </trkpt>
      <trkpt lat="48.36091" lon="-4.77044">
        <ele>27.1</ele>
        <time>2020-06-08T19:17:39Z</time>
      </trkpt>
      <trkpt lat="48.36091" lon="-4.77047">
        <ele>27.1</ele>
        <time>2020-06-08T19:17:40Z</time>
      </trkpt>
      <trkpt lat="48.36089" lon="-4.7705">
        <ele>27.1</ele>
        <time>2020-06-08T19:17:41Z</time>
      </trkpt>
      <trkpt lat="48.36088" lon="-4.77054">
        <ele>27.1</ele>
        <time>2020-06-08T19:17:42Z</time>
      </trkpt>
      <trkpt lat="48.36088" lon="-4.7706">
        <ele>27.2</ele>
        <time>2020-06-08T19:17:43Z</time>
      </trkpt>
      <trkpt lat="48.36086" lon="-4.77065">
        <ele>27.2</ele>
        <time>2020-06-08T19:17:44Z</time>
      </trkpt>
      <trkpt lat="48.36086" lon="-4.77071">
        <ele>27.3</ele>
        <time>2020-06-08T19:17:45Z</time>
      </trkpt>
      <trkpt lat="48.36085" lon="-4.77078">
        <ele>27.3</ele>
        <time>2020-06-08T19:17:46Z</time>
      </trkpt>
      <trkpt lat="48.36084" lon="-4.77085">
        <ele>27.4</ele>
        <time>2020-06-08T19:17:47Z</time>
      </trkpt>
      <trkpt lat="48.36083" lon="-4.77092">
        <ele>27.4</ele>
        <time>2020-06-08T19:17:48Z</time>
      </trkpt>
      <trkpt lat="48.36082" lon="-4.77098">
        <ele>27.4</ele>
        <time>2020-06-08T19:17:49Z</time>
      </trkpt>
      <trkpt lat="48.3608" lon="-4.77104">
        <ele>27.4</ele>
        <time>2020-06-08T19:17:50Z</time>
      </trkpt>
      <trkpt lat="48.36079" lon="-4.77111">
        <ele>27.4</ele>
        <time>2020-06-08T19:17:51Z</time>
      </trkpt>
      <trkpt lat="48.36078" lon="-4.77117">
        <ele>27.4</ele>
        <time>2020-06-08T19:17:52Z</time>
      </trkpt>
      <trkpt lat="48.36078" lon="-4.77124">
        <ele>27.5</ele>
        <time>2020-06-08T19:17:53Z</time>
      </trkpt>
      <trkpt lat="48.36076" lon="-4.77132">
        <ele>27.5</ele>
        <time>2020-06-08T19:17:54Z</time>
      </trkpt>
      <trkpt lat="48.36076" lon="-4.77139">
        <ele>27.5</ele>
        <time>2020-06-08T19:17:55Z</time>
      </trkpt>
      <trkpt lat="48.36076" lon="-4.77147">
        <ele>27.6</ele>
        <time>2020-06-08T19:17:56Z</time>
      </trkpt>
      <trkpt lat="48.36074" lon="-4.77155">
        <ele>27.6</ele>
        <time>2020-06-08T19:17:57Z</time>
      </trkpt>
      <trkpt lat="48.36073" lon="-4.77163">
        <ele>27.6</ele>
        <time>2020-06-08T19:17:58Z</time>
      </trkpt>
      <trkpt lat="48.36071" lon="-4.77169">
        <ele>27.5</ele>
        <time>2020-06-08T19:17:59Z</time>
      </trkpt>
      <trkpt lat="48.36069" lon="-4.77177">
        <ele>27.5</ele>
        <time>2020-06-08T19:18:00Z</time>
      </trkpt>
      <trkpt lat="48.36068" lon="-4.77184">
        <ele>27.5</ele>
        <time>2020-06-08T19:18:01Z</time>
      </trkpt>
      <trkpt lat="48.36066" lon="-4.77193">
        <ele>27.5</ele>
        <time>2020-06-08T19:18:02Z</time>
      </trkpt>
      <trkpt lat="48.36064" lon="-4.772">
        <ele>27.4</ele>
        <time>2020-06-08T19:18:03Z</time>
      </trkpt>
      <trkpt lat="48.36062" lon="-4.77207">
        <ele>27.4</ele>
        <time>2020-06-08T19:18:04Z</time>
      </trkpt>
      <trkpt lat="48.3606" lon="-4.77215">
        <ele>27.4</ele>
        <time>2020-06-08T19:18:05Z</time>
      </trkpt>
      <trkpt lat="48.36059" lon="-4.77222">
        <ele>27.4</ele>
        <time>2020-06-08T19:18:06Z</time>
      </trkpt>
      <trkpt lat="48.36057" lon="-4.77229">
        <ele>27.3</ele>
        <time>2020-06-08T19:18:07Z</time>
      </trkpt>
      <trkpt lat="48.36055" lon="-4.77237">
        <ele>27.3</ele>
        <time>2020-06-08T19:18:08Z</time>
      </trkpt>
      <trkpt lat="48.36053" lon="-4.77244">
        <ele>27.3</ele>
        <time>2020-06-08T19:18:09Z</time>
      </trkpt>
      <trkpt lat="48.36051" lon="-4.77253">
        <ele>27.3</ele>
        <time>2020-06-08T19:18:10Z</time>
      </trkpt>
      <trkpt lat="48.36048" lon="-4.7726">
        <ele>27.2</ele>
        <time>2020-06-08T19:18:11Z</time>
      </trkpt>
      <trkpt lat="48.36045" lon="-4.77266">
        <ele>27.2</ele>
        <time>2020-06-08T19:18:12Z</time>
      </trkpt>
      <trkpt lat="48.36042" lon="-4.77274">
        <ele>27.1</ele>
        <time>2020-06-08T19:18:13Z</time>
      </trkpt>
      <trkpt lat="48.36041" lon="-4.77282">
        <ele>27.1</ele>
        <time>2020-06-08T19:18:14Z</time>
      </trkpt>
      <trkpt lat="48.3604" lon="-4.77291">
        <ele>27</ele>
        <time>2020-06-08T19:18:15Z</time>
      </trkpt>
      <trkpt lat="48.36038" lon="-4.77299">
        <ele>26.9</ele>
        <time>2020-06-08T19:18:16Z</time>
      </trkpt>
      <trkpt lat="48.36036" lon="-4.77306">
        <ele>26.8</ele>
        <time>2020-06-08T19:18:17Z</time>
      </trkpt>
      <trkpt lat="48.36034" lon="-4.77314">
        <ele>26.8</ele>
        <time>2020-06-08T19:18:18Z</time>
      </trkpt>
      <trkpt lat="48.36031" lon="-4.77322">
        <ele>26.7</ele>
        <time>2020-06-08T19:18:19Z</time>
      </trkpt>
      <trkpt lat="48.36028" lon="-4.77329">
        <ele>26.6</ele>
        <time>2020-06-08T19:18:20Z</time>
      </trkpt>
      <trkpt lat="48.36025" lon="-4.77337">
        <ele>26.6</ele>
        <time>2020-06-08T19:18:21Z</time>
      </trkpt>
      <trkpt lat="48.36021" lon="-4.77345">
        <ele>26.5</ele>
        <time>2020-06-08T19:18:22Z</time>
      </trkpt>
      <trkpt lat="48.36018" lon="-4.77353">
        <ele>26.5</ele>
        <time>2020-06-08T19:18:23Z</time>
      </trkpt>
      <trkpt lat="48.36016" lon="-4.7736">
        <ele>26.4</ele>
        <time>2020-06-08T19:18:24Z</time>
      </trkpt>
      <trkpt lat="48.36014" lon="-4.77368">
        <ele>26.3</ele>
        <time>2020-06-08T19:18:25Z</time>
      </trkpt>
      <trkpt lat="48.36011" lon="-4.77371">
        <ele>26.3</ele>
        <time>2020-06-08T19:18:26Z</time>
      </trkpt>
      <trkpt lat="48.36009" lon="-4.77374">
        <ele>26.3</ele>
        <time>2020-06-08T19:18:27Z</time>
      </trkpt>
      <trkpt lat="48.36007" lon="-4.77371">
        <ele>26.3</ele>
        <time>2020-06-08T19:18:28Z</time>
      </trkpt>
      <trkpt lat="48.36005" lon="-4.77367">
        <ele>26.4</ele>
        <time>2020-06-08T19:18:29Z</time>
      </trkpt>
      <trkpt lat="48.36003" lon="-4.77363">
        <ele>26.5</ele>
        <time>2020-06-08T19:18:30Z</time>
      </trkpt>
      <trkpt lat="48.36002" lon="-4.77362">
        <ele>26.5</ele>
        <time>2020-06-08T19:18:31Z</time>
      </trkpt>
      <trkpt lat="48.35999" lon="-4.77358">
        <ele>26.6</ele>
        <time>2020-06-08T19:18:32Z</time>
      </trkpt>
      <trkpt lat="48.35998" lon="-4.77356">
        <ele>26.6</ele>
        <time>2020-06-08T19:18:33Z</time>
      </trkpt>
      <trkpt lat="48.35995" lon="-4.77353">
        <ele>26.7</ele>
        <time>2020-06-08T19:18:34Z</time>
      </trkpt>
      <trkpt lat="48.35993" lon="-4.7735">
        <ele>26.8</ele>
        <time>2020-06-08T19:18:35Z</time>
      </trkpt>
      <trkpt lat="48.3599" lon="-4.77347">
        <ele>26.9</ele>
        <time>2020-06-08T19:18:36Z</time>
      </trkpt>
      <trkpt lat="48.35986" lon="-4.77343">
        <ele>27.1</ele>
        <time>2020-06-08T19:18:37Z</time>
      </trkpt>
      <trkpt lat="48.35982" lon="-4.7734">
        <ele>27.2</ele>
        <time>2020-06-08T19:18:38Z</time>
      </trkpt>
      <trkpt lat="48.3598" lon="-4.77337">
        <ele>27.3</ele>
        <time>2020-06-08T19:18:39Z</time>
      </trkpt>
      <trkpt lat="48.35977" lon="-4.77335">
        <ele>27.4</ele>
        <time>2020-06-08T19:18:40Z</time>
      </trkpt>
      <trkpt lat="48.35974" lon="-4.77331">
        <ele>27.5</ele>
        <time>2020-06-08T19:18:41Z</time>
      </trkpt>
      <trkpt lat="48.35971" lon="-4.77329">
        <ele>27.6</ele>
        <time>2020-06-08T19:18:42Z</time>
      </trkpt>
      <trkpt lat="48.35967" lon="-4.77326">
        <ele>27.8</ele>
        <time>2020-06-08T19:18:43Z</time>
      </trkpt>
      <trkpt lat="48.35962" lon="-4.77324">
        <ele>28</ele>
        <time>2020-06-08T19:18:44Z</time>
      </trkpt>
      <trkpt lat="48.35957" lon="-4.77323">
        <ele>28.1</ele>
        <time>2020-06-08T19:18:45Z</time>
      </trkpt>
      <trkpt lat="48.35953" lon="-4.77326">
        <ele>28.3</ele>
        <time>2020-06-08T19:18:46Z</time>
      </trkpt>
      <trkpt lat="48.35952" lon="-4.77332">
        <ele>28.4</ele>
        <time>2020-06-08T19:18:47Z</time>
      </trkpt>
      <trkpt lat="48.35953" lon="-4.77338">
        <ele>28.6</ele>
        <time>2020-06-08T19:18:48Z</time>
      </trkpt>
      <trkpt lat="48.35953" lon="-4.77344">
        <ele>28.6</ele>
        <time>2020-06-08T19:18:49Z</time>
      </trkpt>
      <trkpt lat="48.35954" lon="-4.77345">
        <ele>28.5</ele>
        <time>2020-06-08T19:18:50Z</time>
      </trkpt>
      <trkpt lat="48.35956" lon="-4.77347">
        <ele>28.4</ele>
        <time>2020-06-08T19:18:51Z</time>
      </trkpt>
      <trkpt lat="48.35956" lon="-4.77347">
        <ele>28.4</ele>
        <time>2020-06-08T19:18:52Z</time>
      </trkpt>
      <trkpt lat="48.35956" lon="-4.77347">
        <ele>28.4</ele>
        <time>2020-06-08T19:18:53Z</time>
      </trkpt>
      <trkpt lat="48.35955" lon="-4.77346">
        <ele>28.4</ele>
        <time>2020-06-08T19:18:54Z</time>
      </trkpt>
      <trkpt lat="48.35954" lon="-4.77345">
        <ele>28.3</ele>
        <time>2020-06-08T19:18:55Z</time>
      </trkpt>
      <trkpt lat="48.35954" lon="-4.77345">
        <ele>28.3</ele>
        <time>2020-06-08T19:18:56Z</time>
      </trkpt>
      <trkpt lat="48.35954" lon="-4.77345">
        <ele>28.3</ele>
        <time>2020-06-08T19:18:57Z</time>
      </trkpt>
      <trkpt lat="48.35955" lon="-4.77345">
        <ele>28.3</ele>
        <time>2020-06-08T19:18:58Z</time>
      </trkpt>
      <trkpt lat="48.35955" lon="-4.77345">
        <ele>28.3</ele>
        <time>2020-06-08T19:18:59Z</time>
      </trkpt>
      <trkpt lat="48.35955" lon="-4.77346">
        <ele>28.3</ele>
        <time>2020-06-08T19:19:00Z</time>
      </trkpt>
      <trkpt lat="48.35956" lon="-4.77346">
        <ele>28.2</ele>
        <time>2020-06-08T19:19:01Z</time>
      </trkpt>
      <trkpt lat="48.35956" lon="-4.77348">
        <ele>28.2</ele>
        <time>2020-06-08T19:19:02Z</time>
      </trkpt>
      <trkpt lat="48.35956" lon="-4.77349">
        <ele>28.2</ele>
        <time>2020-06-08T19:19:03Z</time>
      </trkpt>
      <trkpt lat="48.35957" lon="-4.77349">
        <ele>28.2</ele>
        <time>2020-06-08T19:19:04Z</time>
      </trkpt>
      <trkpt lat="48.35957" lon="-4.77349">
        <ele>28.1</ele>
        <time>2020-06-08T19:19:05Z</time>
      </trkpt>
      <trkpt lat="48.35957" lon="-4.77349">
        <ele>28.1</ele>
        <time>2020-06-08T19:19:06Z</time>
      </trkpt>
      <trkpt lat="48.35958" lon="-4.77349">
        <ele>28.1</ele>
        <time>2020-06-08T19:19:07Z</time>
      </trkpt>
      <trkpt lat="48.35958" lon="-4.77349">
        <ele>28.1</ele>
        <time>2020-06-08T19:19:08Z</time>
      </trkpt>
      <trkpt lat="48.35958" lon="-4.77349">
        <ele>28.1</ele>
        <time>2020-06-08T19:19:09Z</time>
      </trkpt>
      <trkpt lat="48.35958" lon="-4.77349">
        <ele>28.1</ele>
        <time>2020-06-08T19:19:10Z</time>
      </trkpt>
      <trkpt lat="48.35958" lon="-4.77348">
        <ele>28.1</ele>
        <time>2020-06-08T19:19:11Z</time>
      </trkpt>
      <trkpt lat="48.35958" lon="-4.77348">
        <ele>28.1</ele>
        <time>2020-06-08T19:19:12Z</time>
      </trkpt>
      <trkpt lat="48.35959" lon="-4.77347">
        <ele>28.1</ele>
        <time>2020-06-08T19:19:13Z</time>
      </trkpt>
      <trkpt lat="48.35959" lon="-4.77347">
        <ele>28</ele>
        <time>2020-06-08T19:19:14Z</time>
      </trkpt>
      <trkpt lat="48.35959" lon="-4.77346">
        <ele>28</ele>
        <time>2020-06-08T19:19:15Z</time>
      </trkpt>
      <trkpt lat="48.3596" lon="-4.77345">
        <ele>28</ele>
        <time>2020-06-08T19:19:16Z</time>
      </trkpt>
      <trkpt lat="48.3596" lon="-4.77345">
        <ele>28</ele>
        <time>2020-06-08T19:19:17Z</time>
      </trkpt>
      <trkpt lat="48.3596" lon="-4.77344">
        <ele>28</ele>
        <time>2020-06-08T19:19:18Z</time>
      </trkpt>
      <trkpt lat="48.3596" lon="-4.77343">
        <ele>28</ele>
        <time>2020-06-08T19:19:19Z</time>
      </trkpt>
      <trkpt lat="48.35961" lon="-4.77343">
        <ele>28</ele>
        <time>2020-06-08T19:19:20Z</time>
      </trkpt>
      <trkpt lat="48.35961" lon="-4.77342">
        <ele>27.9</ele>
        <time>2020-06-08T19:19:21Z</time>
      </trkpt>
      <trkpt lat="48.35961" lon="-4.77342">
        <ele>27.9</ele>
        <time>2020-06-08T19:19:22Z</time>
      </trkpt>
      <trkpt lat="48.35962" lon="-4.77341">
        <ele>27.9</ele>
        <time>2020-06-08T19:19:23Z</time>
      </trkpt>
      <trkpt lat="48.35962" lon="-4.7734">
        <ele>27.9</ele>
        <time>2020-06-08T19:19:24Z</time>
      </trkpt>
      <trkpt lat="48.35962" lon="-4.7734">
        <ele>27.9</ele>
        <time>2020-06-08T19:19:25Z</time>
      </trkpt>
      <trkpt lat="48.35962" lon="-4.77339">
        <ele>27.9</ele>
        <time>2020-06-08T19:21:55Z</time>
      </trkpt>
      <trkpt lat="48.35963" lon="-4.77338">
        <ele>27.8</ele>
        <time>2020-06-08T19:21:56Z</time>
      </trkpt>
      <trkpt lat="48.35966" lon="-4.77336">
        <ele>27.7</ele>
        <time>2020-06-08T19:21:57Z</time>
      </trkpt>
      <trkpt lat="48.35967" lon="-4.77336">
        <ele>27.7</ele>
        <time>2020-06-08T19:21:58Z</time>
      </trkpt>
      <trkpt lat="48.35968" lon="-4.77335">
        <ele>27.6</ele>
        <time>2020-06-08T19:21:59Z</time>
      </trkpt>
      <trkpt lat="48.3597" lon="-4.77335">
        <ele>27.6</ele>
        <time>2020-06-08T19:22:00Z</time>
      </trkpt>
      <trkpt lat="48.35973" lon="-4.77335">
        <ele>27.5</ele>
        <time>2020-06-08T19:22:01Z</time>
      </trkpt>
      <trkpt lat="48.35974" lon="-4.77335">
        <ele>27.5</ele>
        <time>2020-06-08T19:22:02Z</time>
      </trkpt>
      <trkpt lat="48.35977" lon="-4.77335">
        <ele>27.4</ele>
        <time>2020-06-08T19:22:03Z</time>
      </trkpt>
      <trkpt lat="48.3598" lon="-4.77336">
        <ele>27.3</ele>
        <time>2020-06-08T19:22:04Z</time>
      </trkpt>
      <trkpt lat="48.35982" lon="-4.77339">
        <ele>27.2</ele>
        <time>2020-06-08T19:22:05Z</time>
      </trkpt>
      <trkpt lat="48.35985" lon="-4.77341">
        <ele>27.1</ele>
        <time>2020-06-08T19:22:06Z</time>
      </trkpt>
      <trkpt lat="48.35987" lon="-4.77345">
        <ele>27</ele>
        <time>2020-06-08T19:22:07Z</time>
      </trkpt>
      <trkpt lat="48.35989" lon="-4.77348">
        <ele>26.9</ele>
        <time>2020-06-08T19:22:08Z</time>
      </trkpt>
      <trkpt lat="48.35992" lon="-4.77352">
        <ele>26.8</ele>
        <time>2020-06-08T19:22:09Z</time>
      </trkpt>
      <trkpt lat="48.35995" lon="-4.77356">
        <ele>26.7</ele>
        <time>2020-06-08T19:22:10Z</time>
      </trkpt>
      <trkpt lat="48.35997" lon="-4.77361">
        <ele>26.6</ele>
        <time>2020-06-08T19:22:11Z</time>
      </trkpt>
      <trkpt lat="48.36" lon="-4.77365">
        <ele>26.5</ele>
        <time>2020-06-08T19:22:12Z</time>
      </trkpt>
      <trkpt lat="48.36002" lon="-4.77367">
        <ele>26.5</ele>
        <time>2020-06-08T19:22:13Z</time>
      </trkpt>
      <trkpt lat="48.36005" lon="-4.7737">
        <ele>26.4</ele>
        <time>2020-06-08T19:22:14Z</time>
      </trkpt>
      <trkpt lat="48.36006" lon="-4.7737">
        <ele>26.4</ele>
        <time>2020-06-08T19:22:15Z</time>
      </trkpt>
      <trkpt lat="48.36009" lon="-4.77368">
        <ele>26.3</ele>
        <time>2020-06-08T19:22:16Z</time>
      </trkpt>
      <trkpt lat="48.3601" lon="-4.77367">
        <ele>26.3</ele>
        <time>2020-06-08T19:22:17Z</time>
      </trkpt>
      <trkpt lat="48.36011" lon="-4.77367">
        <ele>26.3</ele>
        <time>2020-06-08T19:22:18Z</time>
      </trkpt>
      <trkpt lat="48.36012" lon="-4.77364">
        <ele>26.3</ele>
        <time>2020-06-08T19:22:19Z</time>
      </trkpt>
      <trkpt lat="48.36013" lon="-4.7736">
        <ele>26.4</ele>
        <time>2020-06-08T19:22:20Z</time>
      </trkpt>
      <trkpt lat="48.36015" lon="-4.77355">
        <ele>26.4</ele>
        <time>2020-06-08T19:22:21Z</time>
      </trkpt>
      <trkpt lat="48.36017" lon="-4.77351">
        <ele>26.5</ele>
        <time>2020-06-08T19:22:22Z</time>
      </trkpt>
      <trkpt lat="48.36019" lon="-4.77346">
        <ele>26.5</ele>
        <time>2020-06-08T19:22:23Z</time>
      </trkpt>
      <trkpt lat="48.36021" lon="-4.7734">
        <ele>26.6</ele>
        <time>2020-06-08T19:22:24Z</time>
      </trkpt>
      <trkpt lat="48.36023" lon="-4.77335">
        <ele>26.6</ele>
        <time>2020-06-08T19:22:25Z</time>
      </trkpt>
      <trkpt lat="48.36024" lon="-4.77328">
        <ele>26.6</ele>
        <time>2020-06-08T19:22:26Z</time>
      </trkpt>
      <trkpt lat="48.36026" lon="-4.77322">
        <ele>26.7</ele>
        <time>2020-06-08T19:22:27Z</time>
      </trkpt>
      <trkpt lat="48.36028" lon="-4.77317">
        <ele>26.7</ele>
        <time>2020-06-08T19:22:28Z</time>
      </trkpt>
      <trkpt lat="48.3603" lon="-4.77314">
        <ele>26.8</ele>
        <time>2020-06-08T19:22:29Z</time>
      </trkpt>
      <trkpt lat="48.36032" lon="-4.77309">
        <ele>26.8</ele>
        <time>2020-06-08T19:22:30Z</time>
      </trkpt>
      <trkpt lat="48.36033" lon="-4.77303">
        <ele>26.9</ele>
        <time>2020-06-08T19:22:31Z</time>
      </trkpt>
      <trkpt lat="48.36035" lon="-4.77297">
        <ele>26.9</ele>
        <time>2020-06-08T19:22:32Z</time>
      </trkpt>
      <trkpt lat="48.36037" lon="-4.77291">
        <ele>27</ele>
        <time>2020-06-08T19:22:33Z</time>
      </trkpt>
      <trkpt lat="48.36039" lon="-4.77284">
        <ele>27</ele>
        <time>2020-06-08T19:22:34Z</time>
      </trkpt>
      <trkpt lat="48.3604" lon="-4.77278">
        <ele>27.1</ele>
        <time>2020-06-08T19:22:35Z</time>
      </trkpt>
      <trkpt lat="48.36042" lon="-4.77272">
        <ele>27.1</ele>
        <time>2020-06-08T19:22:36Z</time>
      </trkpt>
      <trkpt lat="48.36044" lon="-4.77266">
        <ele>27.2</ele>
        <time>2020-06-08T19:22:37Z</time>
      </trkpt>
      <trkpt lat="48.36045" lon="-4.7726">
        <ele>27.2</ele>
        <time>2020-06-08T19:22:38Z</time>
      </trkpt>
      <trkpt lat="48.36046" lon="-4.77255">
        <ele>27.2</ele>
        <time>2020-06-08T19:22:39Z</time>
      </trkpt>
      <trkpt lat="48.36048" lon="-4.7725">
        <ele>27.3</ele>
        <time>2020-06-08T19:22:40Z</time>
      </trkpt>
      <trkpt lat="48.3605" lon="-4.77244">
        <ele>27.3</ele>
        <time>2020-06-08T19:22:41Z</time>
      </trkpt>
      <trkpt lat="48.36052" lon="-4.77239">
        <ele>27.3</ele>
        <time>2020-06-08T19:22:42Z</time>
      </trkpt>
      <trkpt lat="48.36054" lon="-4.77232">
        <ele>27.3</ele>
        <time>2020-06-08T19:22:43Z</time>
      </trkpt>
      <trkpt lat="48.36055" lon="-4.77226">
        <ele>27.4</ele>
        <time>2020-06-08T19:22:44Z</time>
      </trkpt>
      <trkpt lat="48.36057" lon="-4.77219">
        <ele>27.4</ele>
        <time>2020-06-08T19:22:45Z</time>
      </trkpt>
      <trkpt lat="48.36059" lon="-4.77213">
        <ele>27.4</ele>
        <time>2020-06-08T19:22:46Z</time>
      </trkpt>
      <trkpt lat="48.3606" lon="-4.77208">
        <ele>27.4</ele>
        <time>2020-06-08T19:22:47Z</time>
      </trkpt>
      <trkpt lat="48.36063" lon="-4.77201">
        <ele>27.4</ele>
        <time>2020-06-08T19:22:48Z</time>
      </trkpt>
      <trkpt lat="48.36065" lon="-4.77195">
        <ele>27.5</ele>
        <time>2020-06-08T19:22:49Z</time>
      </trkpt>
      <trkpt lat="48.36067" lon="-4.77188">
        <ele>27.5</ele>
        <time>2020-06-08T19:22:50Z</time>
      </trkpt>
      <trkpt lat="48.36068" lon="-4.77182">
        <ele>27.5</ele>
        <time>2020-06-08T19:22:51Z</time>
      </trkpt>
      <trkpt lat="48.3607" lon="-4.77175">
        <ele>27.5</ele>
        <time>2020-06-08T19:22:52Z</time>
      </trkpt>
      <trkpt lat="48.36071" lon="-4.77169">
        <ele>27.5</ele>
        <time>2020-06-08T19:22:53Z</time>
      </trkpt>
      <trkpt lat="48.36072" lon="-4.77162">
        <ele>27.6</ele>
        <time>2020-06-08T19:22:54Z</time>
      </trkpt>
      <trkpt lat="48.36073" lon="-4.77154">
        <ele>27.6</ele>
        <time>2020-06-08T19:22:55Z</time>
      </trkpt>
      <trkpt lat="48.36074" lon="-4.77147">
        <ele>27.6</ele>
        <time>2020-06-08T19:22:56Z</time>
      </trkpt>
      <trkpt lat="48.36075" lon="-4.7714">
        <ele>27.5</ele>
        <time>2020-06-08T19:22:57Z</time>
      </trkpt>
      <trkpt lat="48.36077" lon="-4.77132">
        <ele>27.5</ele>
        <time>2020-06-08T19:22:58Z</time>
      </trkpt>
      <trkpt lat="48.36079" lon="-4.77125">
        <ele>27.5</ele>
        <time>2020-06-08T19:22:59Z</time>
      </trkpt>
      <trkpt lat="48.3608" lon="-4.77118">
        <ele>27.4</ele>
        <time>2020-06-08T19:23:00Z</time>
      </trkpt>
      <trkpt lat="48.36081" lon="-4.7711">
        <ele>27.4</ele>
        <time>2020-06-08T19:23:01Z</time>
      </trkpt>
      <trkpt lat="48.36082" lon="-4.77104">
        <ele>27.4</ele>
        <time>2020-06-08T19:23:02Z</time>
      </trkpt>
      <trkpt lat="48.36083" lon="-4.77097">
        <ele>27.4</ele>
        <time>2020-06-08T19:23:03Z</time>
      </trkpt>
      <trkpt lat="48.36084" lon="-4.7709">
        <ele>27.4</ele>
        <time>2020-06-08T19:23:04Z</time>
      </trkpt>
      <trkpt lat="48.36084" lon="-4.77084">
        <ele>27.4</ele>
        <time>2020-06-08T19:23:05Z</time>
      </trkpt>
      <trkpt lat="48.36085" lon="-4.77078">
        <ele>27.3</ele>
        <time>2020-06-08T19:23:06Z</time>
      </trkpt>
      <trkpt lat="48.36085" lon="-4.77072">
        <ele>27.3</ele>
        <time>2020-06-08T19:23:07Z</time>
      </trkpt>
      <trkpt lat="48.36087" lon="-4.77067">
        <ele>27.2</ele>
        <time>2020-06-08T19:23:08Z</time>
      </trkpt>
      <trkpt lat="48.36088" lon="-4.7706">
        <ele>27.1</ele>
        <time>2020-06-08T19:23:09Z</time>
      </trkpt>
      <trkpt lat="48.36087" lon="-4.77055">
        <ele>27.1</ele>
        <time>2020-06-08T19:23:10Z</time>
      </trkpt>
      <trkpt lat="48.36088" lon="-4.77048">
        <ele>27.1</ele>
        <time>2020-06-08T19:23:11Z</time>
      </trkpt>
      <trkpt lat="48.36088" lon="-4.77045">
        <ele>27</ele>
        <time>2020-06-08T19:23:12Z</time>
      </trkpt>
      <trkpt lat="48.36089" lon="-4.7704">
        <ele>27</ele>
        <time>2020-06-08T19:23:13Z</time>
      </trkpt>
      <trkpt lat="48.36089" lon="-4.77038">
        <ele>27</ele>
        <time>2020-06-08T19:23:14Z</time>
      </trkpt>
      <trkpt lat="48.3609" lon="-4.77035">
        <ele>27</ele>
        <time>2020-06-08T19:23:15Z</time>
      </trkpt>
      <trkpt lat="48.3609" lon="-4.77033">
        <ele>27</ele>
        <time>2020-06-08T19:23:16Z</time>
      </trkpt>
      <trkpt lat="48.36091" lon="-4.77029">
        <ele>27.1</ele>
        <time>2020-06-08T19:23:17Z</time>
      </trkpt>
      <trkpt lat="48.36091" lon="-4.77027">
        <ele>27.1</ele>
        <time>2020-06-08T19:23:18Z</time>
      </trkpt>
      <trkpt lat="48.36088" lon="-4.77025">
        <ele>27.1</ele>
        <time>2020-06-08T19:23:19Z</time>
      </trkpt>
      <trkpt lat="48.36085" lon="-4.77024">
        <ele>27.1</ele>
        <time>2020-06-08T19:23:20Z</time>
      </trkpt>
      <trkpt lat="48.36082" lon="-4.77025">
        <ele>27.1</ele>
        <time>2020-06-08T19:23:21Z</time>
      </trkpt>
      <trkpt lat="48.3608" lon="-4.77028">
        <ele>27.2</ele>
        <time>2020-06-08T19:23:22Z</time>
      </trkpt>
      <trkpt lat="48.36079" lon="-4.77031">
        <ele>27.2</ele>
        <time>2020-06-08T19:23:23Z</time>
      </trkpt>
      <trkpt lat="48.36078" lon="-4.77032">
        <ele>27.2</ele>
        <time>2020-06-08T19:23:24Z</time>
      </trkpt>
      <trkpt lat="48.36078" lon="-4.77033">
        <ele>27.2</ele>
        <time>2020-06-08T19:23:25Z</time>
      </trkpt>
      <trkpt lat="48.36078" lon="-4.77032">
        <ele>27.2</ele>
        <time>2020-06-08T19:23:26Z</time>
      </trkpt>
      <trkpt lat="48.36078" lon="-4.77032">
        <ele>27.2</ele>
        <time>2020-06-08T19:23:27Z</time>
      </trkpt>
      <trkpt lat="48.36078" lon="-4.77032">
        <ele>27.2</ele>
        <time>2020-06-08T19:23:28Z</time>
      </trkpt>
      <trkpt lat="48.36078" lon="-4.77032">
        <ele>27.2</ele>
        <time>2020-06-08T19:23:29Z</time>
      </trkpt>
      <trkpt lat="48.36078" lon="-4.77032">
        <ele>27.2</ele>
        <time>2020-06-08T19:23:30Z</time>
      </trkpt>
      <trkpt lat="48.36078" lon="-4.77032">
        <ele>27.2</ele>
        <time>2020-06-08T19:23:31Z</time>
      </trkpt>
      <trkpt lat="48.36078" lon="-4.77032">
        <ele>27.2</ele>
        <time>2020-06-08T19:23:32Z</time>
      </trkpt>
      <trkpt lat="48.36077" lon="-4.77032">
        <ele>27.2</ele>
        <time>2020-06-08T19:23:33Z</time>
      </trkpt>
      <trkpt lat="48.36078" lon="-4.77032">
        <ele>27.2</ele>
        <time>2020-06-08T19:23:34Z</time>
      </trkpt>
      <trkpt lat="48.36078" lon="-4.77031">
        <ele>27.2</ele>
        <time>2020-06-08T19:23:35Z</time>
      </trkpt>
      <trkpt lat="48.36078" lon="-4.77031">
        <ele>27.2</ele>
        <time>2020-06-08T19:23:36Z</time>
      </trkpt>
      <trkpt lat="48.36078" lon="-4.77031">
        <ele>27.2</ele>
        <time>2020-06-08T19:23:37Z</time>
      </trkpt>
      <trkpt lat="48.36078" lon="-4.77031">
        <ele>27.2</ele>
        <time>2020-06-08T19:23:38Z</time>
      </trkpt>
      <trkpt lat="48.36078" lon="-4.77031">
        <ele>27.2</ele>
        <time>2020-06-08T19:23:39Z</time>
      </trkpt>
      <trkpt lat="48.36078" lon="-4.77031">
        <ele>27.2</ele>
        <time>2020-06-08T19:23:40Z</time>
      </trkpt>
      <trkpt lat="48.36078" lon="-4.77031">
        <ele>27.2</ele>
        <time>2020-06-08T19:23:41Z</time>
      </trkpt>
      <trkpt lat="48.36077" lon="-4.77031">
        <ele>27.2</ele>
        <time>2020-06-08T19:23:42Z</time>
      </trkpt>
      <trkpt lat="48.36078" lon="-4.77031">
        <ele>27.2</ele>
        <time>2020-06-08T19:23:43Z</time>
      </trkpt>
      <trkpt lat="48.36077" lon="-4.77031">
        <ele>27.2</ele>
        <time>2020-06-08T19:23:44Z</time>
      </trkpt>
      <trkpt lat="48.3608" lon="-4.77037">
        <ele>27.2</ele>
        <time>2020-06-08T19:24:03Z</time>
      </trkpt>
      <trkpt lat="48.3608" lon="-4.77037">
        <ele>27.2</ele>
        <time>2020-06-08T19:24:04Z</time>
      </trkpt>
      <trkpt lat="48.36081" lon="-4.77037">
        <ele>27.2</ele>
        <time>2020-06-08T19:24:05Z</time>
      </trkpt>
      <trkpt lat="48.36081" lon="-4.77037">
        <ele>27.2</ele>
        <time>2020-06-08T19:24:06Z</time>
      </trkpt>
      <trkpt lat="48.36081" lon="-4.77037">
        <ele>27.2</ele>
        <time>2020-06-08T19:24:07Z</time>
      </trkpt>
      <trkpt lat="48.36082" lon="-4.77037">
        <ele>27.2</ele>
        <time>2020-06-08T19:24:08Z</time>
      </trkpt>
      <trkpt lat="48.36082" lon="-4.77037">
        <ele>27.2</ele>
        <time>2020-06-08T19:24:09Z</time>
      </trkpt>
      <trkpt lat="48.36082" lon="-4.77037">
        <ele>27.2</ele>
        <time>2020-06-08T19:24:10Z</time>
      </trkpt>
      <trkpt lat="48.36082" lon="-4.77037">
        <ele>27.2</ele>
        <time>2020-06-08T19:24:11Z</time>
      </trkpt>
      <trkpt lat="48.36082" lon="-4.77037">
        <ele>27.2</ele>
        <time>2020-06-08T19:24:12Z</time>
      </trkpt>
      <trkpt lat="48.36082" lon="-4.77036">
        <ele>27.2</ele>
        <time>2020-06-08T19:24:13Z</time>
      </trkpt>
      <trkpt lat="48.36082" lon="-4.77036">
        <ele>27.2</ele>
        <time>2020-06-08T19:24:14Z</time>
      </trkpt>
      <trkpt lat="48.36082" lon="-4.77036">
        <ele>27.2</ele>
        <time>2020-06-08T19:24:15Z</time>
      </trkpt>
      <trkpt lat="48.36082" lon="-4.77036">
        <ele>27.2</ele>
        <time>2020-06-08T19:24:16Z</time>
      </trkpt>
      <trkpt lat="48.36082" lon="-4.77036">
        <ele>27.2</ele>
        <time>2020-06-08T19:24:17Z</time>
      </trkpt>
      <trkpt lat="48.36083" lon="-4.77036">
        <ele>27.2</ele>
        <time>2020-06-08T19:24:18Z</time>
      </trkpt>
      <trkpt lat="48.36083" lon="-4.77036">
        <ele>27.2</ele>
        <time>2020-06-08T19:24:19Z</time>
      </trkpt>
      <trkpt lat="48.36083" lon="-4.77036">
        <ele>27.2</ele>
        <time>2020-06-08T19:24:20Z</time>
      </trkpt>
      <trkpt lat="48.36083" lon="-4.77036">
        <ele>27.2</ele>
        <time>2020-06-08T19:24:21Z</time>
      </trkpt>
      <trkpt lat="48.36083" lon="-4.77036">
        <ele>27.2</ele>
        <time>2020-06-08T19:24:22Z</time>
      </trkpt>
      <trkpt lat="48.36083" lon="-4.77036">
        <ele>27.2</ele>
        <time>2020-06-08T19:24:23Z</time>
      </trkpt>
      <trkpt lat="48.36083" lon="-4.77036">
        <ele>27.2</ele>
        <time>2020-06-08T19:24:24Z</time>
      </trkpt>
      <trkpt lat="48.36072" lon="-4.77043">
        <ele>27.2</ele>
        <time>2020-06-08T19:25:46Z</time>
      </trkpt>
      <trkpt lat="48.36072" lon="-4.77043">
        <ele>27.2</ele>
        <time>2020-06-08T19:25:47Z</time>
      </trkpt>
      <trkpt lat="48.36072" lon="-4.77043">
        <ele>27.2</ele>
        <time>2020-06-08T19:25:48Z</time>
      </trkpt>
      <trkpt lat="48.36071" lon="-4.77044">
        <ele>27.2</ele>
        <time>2020-06-08T19:25:49Z</time>
      </trkpt>
      <trkpt lat="48.3607" lon="-4.77044">
        <ele>27.2</ele>
        <time>2020-06-08T19:25:50Z</time>
      </trkpt>
      <trkpt lat="48.3607" lon="-4.77043">
        <ele>27.2</ele>
        <time>2020-06-08T19:25:51Z</time>
      </trkpt>
      <trkpt lat="48.3607" lon="-4.77041">
        <ele>27.2</ele>
        <time>2020-06-08T19:25:52Z</time>
      </trkpt>
      <trkpt lat="48.3607" lon="-4.7704">
        <ele>27.2</ele>
        <time>2020-06-08T19:25:53Z</time>
      </trkpt>
      <trkpt lat="48.3607" lon="-4.77039">
        <ele>27.2</ele>
        <time>2020-06-08T19:25:54Z</time>
      </trkpt>
      <trkpt lat="48.3607" lon="-4.77038">
        <ele>27.2</ele>
        <time>2020-06-08T19:25:55Z</time>
      </trkpt>
      <trkpt lat="48.36071" lon="-4.77037">
        <ele>27.2</ele>
        <time>2020-06-08T19:25:56Z</time>
      </trkpt>
      <trkpt lat="48.36071" lon="-4.77036">
        <ele>27.2</ele>
        <time>2020-06-08T19:25:57Z</time>
      </trkpt>
      <trkpt lat="48.36073" lon="-4.77034">
        <ele>27.2</ele>
        <time>2020-06-08T19:25:58Z</time>
      </trkpt>
      <trkpt lat="48.36075" lon="-4.77033">
        <ele>27.2</ele>
        <time>2020-06-08T19:25:59Z</time>
      </trkpt>
      <trkpt lat="48.36076" lon="-4.77032">
        <ele>27.2</ele>
        <time>2020-06-08T19:26:00Z</time>
      </trkpt>
      <trkpt lat="48.36076" lon="-4.77032">
        <ele>27.2</ele>
        <time>2020-06-08T19:26:01Z</time>
      </trkpt>
      <trkpt lat="48.36076" lon="-4.77033">
        <ele>27.2</ele>
        <time>2020-06-08T19:26:02Z</time>
      </trkpt>
      <trkpt lat="48.36077" lon="-4.77033">
        <ele>27.2</ele>
        <time>2020-06-08T19:26:03Z</time>
      </trkpt>
      <trkpt lat="48.36077" lon="-4.77032">
        <ele>27.2</ele>
        <time>2020-06-08T19:26:04Z</time>
      </trkpt>
      <trkpt lat="48.36077" lon="-4.77032">
        <ele>27.2</ele>
        <time>2020-06-08T19:26:05Z</time>
      </trkpt>
      <trkpt lat="48.36076" lon="-4.77032">
        <ele>27.2</ele>
        <time>2020-06-08T19:26:06Z</time>
      </trkpt>
      <trkpt lat="48.36075" lon="-4.77032">
        <ele>27.2</ele>
        <time>2020-06-08T19:26:07Z</time>
      </trkpt>
      <trkpt lat="48.36075" lon="-4.77032">
        <ele>27.2</ele>
        <time>2020-06-08T19:26:08Z</time>
      </trkpt>
      <trkpt lat="48.36074" lon="-4.77031">
        <ele>27.2</ele>
        <time>2020-06-08T19:26:09Z</time>
      </trkpt>
      <trkpt lat="48.36073" lon="-4.77032">
        <ele>27.2</ele>
        <time>2020-06-08T19:26:10Z</time>
      </trkpt>
      <trkpt lat="48.36072" lon="-4.77032">
        <ele>27.2</ele>
        <time>2020-06-08T19:26:11Z</time>
      </trkpt>
      <trkpt lat="48.36072" lon="-4.77032">
        <ele>27.2</ele>
        <time>2020-06-08T19:26:12Z</time>
      </trkpt>
      <trkpt lat="48.36072" lon="-4.77032">
        <ele>27.2</ele>
        <time>2020-06-08T19:26:13Z</time>
      </trkpt>
      <trkpt lat="48.36072" lon="-4.77033">
        <ele>27.2</ele>
        <time>2020-06-08T19:26:14Z</time>
      </trkpt>
      <trkpt lat="48.36072" lon="-4.77033">
        <ele>27.2</ele>
        <time>2020-06-08T19:26:15Z</time>
      </trkpt>
      <trkpt lat="48.36073" lon="-4.77033">
        <ele>27.2</ele>
        <time>2020-06-08T19:26:16Z</time>
      </trkpt>
      <trkpt lat="48.36074" lon="-4.77033">
        <ele>27.2</ele>
        <time>2020-06-08T19:26:17Z</time>
      </trkpt>
      <trkpt lat="48.36074" lon="-4.77033">
        <ele>27.2</ele>
        <time>2020-06-08T19:26:18Z</time>
      </trkpt>
      <trkpt lat="48.36074" lon="-4.77034">
        <ele>27.2</ele>
        <time>2020-06-08T19:26:19Z</time>
      </trkpt>
      <trkpt lat="48.36074" lon="-4.77033">
        <ele>27.2</ele>
        <time>2020-06-08T19:26:20Z</time>
      </trkpt>
      <trkpt lat="48.36074" lon="-4.77034">
        <ele>27.2</ele>
        <time>2020-06-08T19:26:21Z</time>
      </trkpt>
      <trkpt lat="48.36074" lon="-4.77034">
        <ele>27.2</ele>
        <time>2020-06-08T19:26:22Z</time>
      </trkpt>
      <trkpt lat="48.36074" lon="-4.77034">
        <ele>27.2</ele>
        <time>2020-06-08T19:26:23Z</time>
      </trkpt>
      <trkpt lat="48.36075" lon="-4.77034">
        <ele>27.2</ele>
        <time>2020-06-08T19:26:24Z</time>
      </trkpt>
      <trkpt lat="48.36079" lon="-4.77037">
        <ele>27.2</ele>
        <time>2020-06-08T19:27:33Z</time>
      </trkpt>
      <trkpt lat="48.3608" lon="-4.77037">
        <ele>27.2</ele>
        <time>2020-06-08T19:27:34Z</time>
      </trkpt>
      <trkpt lat="48.36083" lon="-4.77034">
        <ele>27</ele>
        <time>2020-06-08T19:27:35Z</time>
      </trkpt>
      <trkpt lat="48.36083" lon="-4.77033">
        <ele>27</ele>
        <time>2020-06-08T19:27:36Z</time>
      </trkpt>
      <trkpt lat="48.36086" lon="-4.77029">
        <ele>27.1</ele>
        <time>2020-06-08T19:27:37Z</time>
      </trkpt>
      <trkpt lat="48.36087" lon="-4.77028">
        <ele>27</ele>
        <time>2020-06-08T19:27:38Z</time>
      </trkpt>
      <trkpt lat="48.3609" lon="-4.77026">
        <ele>27</ele>
        <time>2020-06-08T19:27:39Z</time>
      </trkpt>
      <trkpt lat="48.36093" lon="-4.77023">
        <ele>26.9</ele>
        <time>2020-06-08T19:27:40Z</time>
      </trkpt>
      <trkpt lat="48.36096" lon="-4.7702">
        <ele>26.7</ele>
        <time>2020-06-08T19:27:41Z</time>
      </trkpt>
      <trkpt lat="48.36098" lon="-4.77016">
        <ele>26.5</ele>
        <time>2020-06-08T19:27:42Z</time>
      </trkpt>
      <trkpt lat="48.36101" lon="-4.77007">
        <ele>26.1</ele>
        <time>2020-06-08T19:27:43Z</time>
      </trkpt>
      <trkpt lat="48.36103" lon="-4.77">
        <ele>25.8</ele>
        <time>2020-06-08T19:27:44Z</time>
      </trkpt>
      <trkpt lat="48.36104" lon="-4.76993">
        <ele>25.5</ele>
        <time>2020-06-08T19:27:45Z</time>
      </trkpt>
      <trkpt lat="48.36106" lon="-4.76985">
        <ele>25.1</ele>
        <time>2020-06-08T19:27:46Z</time>
      </trkpt>
      <trkpt lat="48.36108" lon="-4.76976">
        <ele>24.7</ele>
        <time>2020-06-08T19:27:47Z</time>
      </trkpt>
      <trkpt lat="48.3611" lon="-4.76967">
        <ele>24.2</ele>
        <time>2020-06-08T19:27:48Z</time>
      </trkpt>
      <trkpt lat="48.36112" lon="-4.76958">
        <ele>23.7</ele>
        <time>2020-06-08T19:27:49Z</time>
      </trkpt>
      <trkpt lat="48.36112" lon="-4.76949">
        <ele>23.3</ele>
        <time>2020-06-08T19:27:50Z</time>
      </trkpt>
      <trkpt lat="48.36116" lon="-4.76937">
        <ele>22.6</ele>
        <time>2020-06-08T19:27:51Z</time>
      </trkpt>
      <trkpt lat="48.36118" lon="-4.76927">
        <ele>22</ele>
        <time>2020-06-08T19:27:52Z</time>
      </trkpt>
      <trkpt lat="48.36121" lon="-4.76918">
        <ele>21.4</ele>
        <time>2020-06-08T19:27:53Z</time>
      </trkpt>
      <trkpt lat="48.36122" lon="-4.76905">
        <ele>20.7</ele>
        <time>2020-06-08T19:27:54Z</time>
      </trkpt>
      <trkpt lat="48.36124" lon="-4.76894">
        <ele>20.1</ele>
        <time>2020-06-08T19:27:55Z</time>
      </trkpt>
      <trkpt lat="48.36125" lon="-4.76883">
        <ele>19.4</ele>
        <time>2020-06-08T19:27:56Z</time>
      </trkpt>
      <trkpt lat="48.36127" lon="-4.76871">
        <ele>18.6</ele>
        <time>2020-06-08T19:27:57Z</time>
      </trkpt>
      <trkpt lat="48.36129" lon="-4.76858">
        <ele>17.8</ele>
        <time>2020-06-08T19:27:58Z</time>
      </trkpt>
      <trkpt lat="48.36131" lon="-4.76846">
        <ele>17</ele>
        <time>2020-06-08T19:27:59Z</time>
      </trkpt>
      <trkpt lat="48.36131" lon="-4.76834">
        <ele>16.3</ele>
        <time>2020-06-08T19:28:00Z</time>
      </trkpt>
      <trkpt lat="48.3613" lon="-4.76822">
        <ele>15.6</ele>
        <time>2020-06-08T19:28:01Z</time>
      </trkpt>
      <trkpt lat="48.36131" lon="-4.76812">
        <ele>14.9</ele>
        <time>2020-06-08T19:28:02Z</time>
      </trkpt>
      <trkpt lat="48.36131" lon="-4.76801">
        <ele>14.2</ele>
        <time>2020-06-08T19:28:03Z</time>
      </trkpt>
      <trkpt lat="48.36131" lon="-4.76791">
        <ele>13.6</ele>
        <time>2020-06-08T19:28:04Z</time>
      </trkpt>
      <trkpt lat="48.36132" lon="-4.76783">
        <ele>13</ele>
        <time>2020-06-08T19:28:05Z</time>
      </trkpt>
      <trkpt lat="48.36132" lon="-4.76775">
        <ele>12.5</ele>
        <time>2020-06-08T19:28:06Z</time>
      </trkpt>
      <trkpt lat="48.36132" lon="-4.76769">
        <ele>12.1</ele>
        <time>2020-06-08T19:28:07Z</time>
      </trkpt>
      <trkpt lat="48.36132" lon="-4.76762">
        <ele>11.7</ele>
        <time>2020-06-08T19:28:08Z</time>
      </trkpt>
      <trkpt lat="48.36131" lon="-4.76756">
        <ele>11.2</ele>
        <time>2020-06-08T19:28:09Z</time>
      </trkpt>
      <trkpt lat="48.36131" lon="-4.76747">
        <ele>10.6</ele>
        <time>2020-06-08T19:28:10Z</time>
      </trkpt>
      <trkpt lat="48.36131" lon="-4.76738">
        <ele>9.9</ele>
        <time>2020-06-08T19:28:11Z</time>
      </trkpt>
      <trkpt lat="48.36133" lon="-4.76731">
        <ele>9.4</ele>
        <time>2020-06-08T19:28:12Z</time>
      </trkpt>
      <trkpt lat="48.36133" lon="-4.76726">
        <ele>9.1</ele>
        <time>2020-06-08T19:28:13Z</time>
      </trkpt>
      <trkpt lat="48.36134" lon="-4.76722">
        <ele>8.8</ele>
        <time>2020-06-08T19:28:14Z</time>
      </trkpt>
      <trkpt lat="48.36136" lon="-4.76718">
        <ele>8.4</ele>
        <time>2020-06-08T19:28:15Z</time>
      </trkpt>
      <trkpt lat="48.36138" lon="-4.76717">
        <ele>8.3</ele>
        <time>2020-06-08T19:28:16Z</time>
      </trkpt>
      <trkpt lat="48.36141" lon="-4.76715">
        <ele>6.8</ele>
        <time>2020-06-08T19:28:17Z</time>
      </trkpt>
      <trkpt lat="48.36145" lon="-4.76713">
        <ele>6.2</ele>
        <time>2020-06-08T19:28:18Z</time>
      </trkpt>
      <trkpt lat="48.36149" lon="-4.76712">
        <ele>5.6</ele>
        <time>2020-06-08T19:28:19Z</time>
      </trkpt>
      <trkpt lat="48.36154" lon="-4.76711">
        <ele>5</ele>
        <time>2020-06-08T19:28:20Z</time>
      </trkpt>
      <trkpt lat="48.36158" lon="-4.7671">
        <ele>4.5</ele>
        <time>2020-06-08T19:28:21Z</time>
      </trkpt>
      <trkpt lat="48.36162" lon="-4.76709">
        <ele>4.1</ele>
        <time>2020-06-08T19:28:22Z</time>
      </trkpt>
      <trkpt lat="48.36165" lon="-4.76711">
        <ele>3.8</ele>
        <time>2020-06-08T19:28:23Z</time>
      </trkpt>
      <trkpt lat="48.36168" lon="-4.76709">
        <ele>3.5</ele>
        <time>2020-06-08T19:28:24Z</time>
      </trkpt>
      <trkpt lat="48.3617" lon="-4.76709">
        <ele>3.3</ele>
        <time>2020-06-08T19:28:25Z</time>
      </trkpt>
      <trkpt lat="48.36171" lon="-4.7671">
        <ele>3.3</ele>
        <time>2020-06-08T19:28:26Z</time>
      </trkpt>
      <trkpt lat="48.36172" lon="-4.76711">
        <ele>3.3</ele>
        <time>2020-06-08T19:28:27Z</time>
      </trkpt>
      <trkpt lat="48.36173" lon="-4.76712">
        <ele>3.3</ele>
        <time>2020-06-08T19:28:28Z</time>
      </trkpt>
      <trkpt lat="48.36173" lon="-4.76713">
        <ele>3.3</ele>
        <time>2020-06-08T19:28:29Z</time>
      </trkpt>
      <trkpt lat="48.36173" lon="-4.76713">
        <ele>3.3</ele>
        <time>2020-06-08T19:28:30Z</time>
      </trkpt>
      <trkpt lat="48.36174" lon="-4.76712">
        <ele>3.3</ele>
        <time>2020-06-08T19:28:31Z</time>
      </trkpt>
      <trkpt lat="48.36174" lon="-4.76713">
        <ele>3.3</ele>
        <time>2020-06-08T19:28:32Z</time>
      </trkpt>
      <trkpt lat="48.36174" lon="-4.76713">
        <ele>3.3</ele>
        <time>2020-06-08T19:28:33Z</time>
      </trkpt>
      <trkpt lat="48.36174" lon="-4.76713">
        <ele>3.3</ele>
        <time>2020-06-08T19:28:34Z</time>
      </trkpt>
      <trkpt lat="48.36174" lon="-4.76714">
        <ele>3.3</ele>
        <time>2020-06-08T19:28:35Z</time>
      </trkpt>
      <trkpt lat="48.36174" lon="-4.76714">
        <ele>3.3</ele>
        <time>2020-06-08T19:28:36Z</time>
      </trkpt>
      <trkpt lat="48.36173" lon="-4.76715">
        <ele>3.3</ele>
        <time>2020-06-08T19:28:37Z</time>
      </trkpt>
      <trkpt lat="48.36173" lon="-4.76715">
        <ele>3.3</ele>
        <time>2020-06-08T19:28:38Z</time>
      </trkpt>
      <trkpt lat="48.36173" lon="-4.76716">
        <ele>3.3</ele>
        <time>2020-06-08T19:28:39Z</time>
      </trkpt>
      <trkpt lat="48.36173" lon="-4.76716">
        <ele>3.3</ele>
        <time>2020-06-08T19:28:40Z</time>
      </trkpt>
      <trkpt lat="48.36175" lon="-4.76708">
        <ele>3.3</ele>
        <time>2020-06-08T19:29:04Z</time>
      </trkpt>
      <trkpt lat="48.36176" lon="-4.76707">
        <ele>3.3</ele>
        <time>2020-06-08T19:29:05Z</time>
      </trkpt>
      <trkpt lat="48.36177" lon="-4.76705">
        <ele>3.3</ele>
        <time>2020-06-08T19:29:06Z</time>
      </trkpt>
      <trkpt lat="48.3618" lon="-4.76705">
        <ele>3.3</ele>
        <time>2020-06-08T19:29:07Z</time>
      </trkpt>
      <trkpt lat="48.36181" lon="-4.76705">
        <ele>3.3</ele>
        <time>2020-06-08T19:29:08Z</time>
      </trkpt>
      <trkpt lat="48.36184" lon="-4.76702">
        <ele>3.2</ele>
        <time>2020-06-08T19:29:09Z</time>
      </trkpt>
      <trkpt lat="48.36186" lon="-4.76702">
        <ele>3.2</ele>
        <time>2020-06-08T19:29:10Z</time>
      </trkpt>
      <trkpt lat="48.36189" lon="-4.76699">
        <ele>3.2</ele>
        <time>2020-06-08T19:29:11Z</time>
      </trkpt>
      <trkpt lat="48.36191" lon="-4.76699">
        <ele>3.2</ele>
        <time>2020-06-08T19:29:12Z</time>
      </trkpt>
      <trkpt lat="48.36193" lon="-4.76699">
        <ele>3.2</ele>
        <time>2020-06-08T19:29:13Z</time>
      </trkpt>
      <trkpt lat="48.36196" lon="-4.76698">
        <ele>3.2</ele>
        <time>2020-06-08T19:29:14Z</time>
      </trkpt>
      <trkpt lat="48.362" lon="-4.76698">
        <ele>3.2</ele>
        <time>2020-06-08T19:29:15Z</time>
      </trkpt>
      <trkpt lat="48.36201" lon="-4.76697">
        <ele>3.2</ele>
        <time>2020-06-08T19:29:16Z</time>
      </trkpt>
      <trkpt lat="48.36205" lon="-4.76695">
        <ele>3.2</ele>
        <time>2020-06-08T19:29:17Z</time>
      </trkpt>
      <trkpt lat="48.36206" lon="-4.76694">
        <ele>3.2</ele>
        <time>2020-06-08T19:29:18Z</time>
      </trkpt>
      <trkpt lat="48.36209" lon="-4.76693">
        <ele>3.2</ele>
        <time>2020-06-08T19:29:19Z</time>
      </trkpt>
      <trkpt lat="48.36211" lon="-4.76691">
        <ele>3.2</ele>
        <time>2020-06-08T19:29:20Z</time>
      </trkpt>
      <trkpt lat="48.36214" lon="-4.7669">
        <ele>3.2</ele>
        <time>2020-06-08T19:29:21Z</time>
      </trkpt>
      <trkpt lat="48.36217" lon="-4.76688">
        <ele>3.2</ele>
        <time>2020-06-08T19:29:22Z</time>
      </trkpt>
      <trkpt lat="48.3622" lon="-4.76686">
        <ele>3.2</ele>
        <time>2020-06-08T19:29:23Z</time>
      </trkpt>
      <trkpt lat="48.36223" lon="-4.76684">
        <ele>3.3</ele>
        <time>2020-06-08T19:29:24Z</time>
      </trkpt>
      <trkpt lat="48.36225" lon="-4.76682">
        <ele>3.3</ele>
        <time>2020-06-08T19:29:25Z</time>
      </trkpt>
      <trkpt lat="48.36228" lon="-4.7668">
        <ele>3.3</ele>
        <time>2020-06-08T19:29:26Z</time>
      </trkpt>
      <trkpt lat="48.36231" lon="-4.76679">
        <ele>3.3</ele>
        <time>2020-06-08T19:29:27Z</time>
      </trkpt>
      <trkpt lat="48.36234" lon="-4.76677">
        <ele>3.3</ele>
        <time>2020-06-08T19:29:28Z</time>
      </trkpt>
      <trkpt lat="48.36237" lon="-4.76676">
        <ele>3.3</ele>
        <time>2020-06-08T19:29:29Z</time>
      </trkpt>
      <trkpt lat="48.3624" lon="-4.76674">
        <ele>3.3</ele>
        <time>2020-06-08T19:29:30Z</time>
      </trkpt>
      <trkpt lat="48.36241" lon="-4.76673">
        <ele>3.3</ele>
        <time>2020-06-08T19:29:31Z</time>
      </trkpt>
      <trkpt lat="48.36245" lon="-4.7667">
        <ele>3.4</ele>
        <time>2020-06-08T19:29:32Z</time>
      </trkpt>
      <trkpt lat="48.36246" lon="-4.7667">
        <ele>3.4</ele>
        <time>2020-06-08T19:29:33Z</time>
      </trkpt>
      <trkpt lat="48.36249" lon="-4.76668">
        <ele>3.4</ele>
        <time>2020-06-08T19:29:34Z</time>
      </trkpt>
      <trkpt lat="48.3625" lon="-4.76668">
        <ele>3.4</ele>
        <time>2020-06-08T19:29:35Z</time>
      </trkpt>
      <trkpt lat="48.36252" lon="-4.76667">
        <ele>3.4</ele>
        <time>2020-06-08T19:29:36Z</time>
      </trkpt>
      <trkpt lat="48.36254" lon="-4.76667">
        <ele>3.4</ele>
        <time>2020-06-08T19:29:37Z</time>
      </trkpt>
      <trkpt lat="48.36255" lon="-4.76666">
        <ele>3.4</ele>
        <time>2020-06-08T19:29:38Z</time>
      </trkpt>
      <trkpt lat="48.36256" lon="-4.76666">
        <ele>3.4</ele>
        <time>2020-06-08T19:29:39Z</time>
      </trkpt>
      <trkpt lat="48.36257" lon="-4.76665">
        <ele>3.4</ele>
        <time>2020-06-08T19:29:40Z</time>
      </trkpt>
      <trkpt lat="48.36257" lon="-4.76665">
        <ele>3.4</ele>
        <time>2020-06-08T19:29:41Z</time>
      </trkpt>
      <trkpt lat="48.36257" lon="-4.76665">
        <ele>3.4</ele>
        <time>2020-06-08T19:29:42Z</time>
      </trkpt>
      <trkpt lat="48.36257" lon="-4.76664">
        <ele>3.4</ele>
        <time>2020-06-08T19:29:43Z</time>
      </trkpt>
      <trkpt lat="48.36257" lon="-4.76662">
        <ele>3.4</ele>
        <time>2020-06-08T19:29:44Z</time>
      </trkpt>
      <trkpt lat="48.36257" lon="-4.76664">
        <ele>3.4</ele>
        <time>2020-06-08T19:29:45Z</time>
      </trkpt>
      <trkpt lat="48.36257" lon="-4.76663">
        <ele>3.4</ele>
        <time>2020-06-08T19:29:46Z</time>
      </trkpt>
      <trkpt lat="48.36257" lon="-4.76663">
        <ele>3.4</ele>
        <time>2020-06-08T19:29:47Z</time>
      </trkpt>
      <trkpt lat="48.36257" lon="-4.76662">
        <ele>3.4</ele>
        <time>2020-06-08T19:29:48Z</time>
      </trkpt>
      <trkpt lat="48.36257" lon="-4.76661">
        <ele>3.4</ele>
        <time>2020-06-08T19:29:49Z</time>
      </trkpt>
      <trkpt lat="48.36257" lon="-4.76661">
        <ele>3.4</ele>
        <time>2020-06-08T19:29:50Z</time>
      </trkpt>
      <trkpt lat="48.36263" lon="-4.76662">
        <ele>3.5</ele>
        <time>2020-06-08T19:32:15Z</time>
      </trkpt>
      <trkpt lat="48.36265" lon="-4.76662">
        <ele>3.5</ele>
        <time>2020-06-08T19:32:16Z</time>
      </trkpt>
      <trkpt lat="48.36266" lon="-4.76661">
        <ele>3.5</ele>
        <time>2020-06-08T19:32:17Z</time>
      </trkpt>
      <trkpt lat="48.36267" lon="-4.76661">
        <ele>3.5</ele>
        <time>2020-06-08T19:32:18Z</time>
      </trkpt>
      <trkpt lat="48.36268" lon="-4.76661">
        <ele>3.5</ele>
        <time>2020-06-08T19:32:19Z</time>
      </trkpt>
      <trkpt lat="48.36269" lon="-4.7666">
        <ele>3.5</ele>
        <time>2020-06-08T19:32:20Z</time>
      </trkpt>
      <trkpt lat="48.36271" lon="-4.76659">
        <ele>3.5</ele>
        <time>2020-06-08T19:32:21Z</time>
      </trkpt>
      <trkpt lat="48.36272" lon="-4.76658">
        <ele>3.5</ele>
        <time>2020-06-08T19:32:22Z</time>
      </trkpt>
      <trkpt lat="48.36273" lon="-4.76657">
        <ele>3.5</ele>
        <time>2020-06-08T19:32:23Z</time>
      </trkpt>
      <trkpt lat="48.36273" lon="-4.76657">
        <ele>3.5</ele>
        <time>2020-06-08T19:32:24Z</time>
      </trkpt>
      <trkpt lat="48.36274" lon="-4.76656">
        <ele>3.5</ele>
        <time>2020-06-08T19:32:25Z</time>
      </trkpt>
      <trkpt lat="48.36275" lon="-4.76655">
        <ele>3.5</ele>
        <time>2020-06-08T19:32:26Z</time>
      </trkpt>
      <trkpt lat="48.36275" lon="-4.76655">
        <ele>3.5</ele>
        <time>2020-06-08T19:32:27Z</time>
      </trkpt>
      <trkpt lat="48.36276" lon="-4.76655">
        <ele>3.5</ele>
        <time>2020-06-08T19:32:28Z</time>
      </trkpt>
      <trkpt lat="48.36276" lon="-4.76655">
        <ele>3.5</ele>
        <time>2020-06-08T19:32:29Z</time>
      </trkpt>
      <trkpt lat="48.36276" lon="-4.76655">
        <ele>3.5</ele>
        <time>2020-06-08T19:32:30Z</time>
      </trkpt>
      <trkpt lat="48.36276" lon="-4.76655">
        <ele>3.5</ele>
        <time>2020-06-08T19:32:31Z</time>
      </trkpt>
      <trkpt lat="48.36276" lon="-4.76654">
        <ele>3.6</ele>
        <time>2020-06-08T19:32:32Z</time>
      </trkpt>
      <trkpt lat="48.36276" lon="-4.76653">
        <ele>3.6</ele>
        <time>2020-06-08T19:32:33Z</time>
      </trkpt>
      <trkpt lat="48.36277" lon="-4.76652">
        <ele>3.6</ele>
        <time>2020-06-08T19:32:34Z</time>
      </trkpt>
      <trkpt lat="48.36277" lon="-4.76653">
        <ele>3.6</ele>
        <time>2020-06-08T19:32:35Z</time>
      </trkpt>
      <trkpt lat="48.36277" lon="-4.76651">
        <ele>3.6</ele>
        <time>2020-06-08T19:32:36Z</time>
      </trkpt>
      <trkpt lat="48.36277" lon="-4.76651">
        <ele>3.6</ele>
        <time>2020-06-08T19:32:37Z</time>
      </trkpt>
      <trkpt lat="48.36277" lon="-4.76651">
        <ele>3.6</ele>
        <time>2020-06-08T19:32:38Z</time>
      </trkpt>
      <trkpt lat="48.36277" lon="-4.7665">
        <ele>3.6</ele>
        <time>2020-06-08T19:32:39Z</time>
      </trkpt>
      <trkpt lat="48.36281" lon="-4.76652">
        <ele>3.6</ele>
        <time>2020-06-08T19:32:44Z</time>
      </trkpt>
      <trkpt lat="48.36281" lon="-4.76653">
        <ele>3.6</ele>
        <time>2020-06-08T19:32:45Z</time>
      </trkpt>
      <trkpt lat="48.36282" lon="-4.76652">
        <ele>3.6</ele>
        <time>2020-06-08T19:32:46Z</time>
      </trkpt>
      <trkpt lat="48.36282" lon="-4.76652">
        <ele>3.6</ele>
        <time>2020-06-08T19:32:47Z</time>
      </trkpt>
      <trkpt lat="48.36283" lon="-4.76651">
        <ele>3.6</ele>
        <time>2020-06-08T19:32:48Z</time>
      </trkpt>
      <trkpt lat="48.36285" lon="-4.76651">
        <ele>3.6</ele>
        <time>2020-06-08T19:32:49Z</time>
      </trkpt>
      <trkpt lat="48.36286" lon="-4.7665">
        <ele>3.6</ele>
        <time>2020-06-08T19:32:50Z</time>
      </trkpt>
      <trkpt lat="48.36289" lon="-4.76649">
        <ele>3.6</ele>
        <time>2020-06-08T19:32:51Z</time>
      </trkpt>
      <trkpt lat="48.3629" lon="-4.76649">
        <ele>3.6</ele>
        <time>2020-06-08T19:32:52Z</time>
      </trkpt>
      <trkpt lat="48.36293" lon="-4.76647">
        <ele>3.6</ele>
        <time>2020-06-08T19:32:53Z</time>
      </trkpt>
      <trkpt lat="48.36294" lon="-4.76646">
        <ele>3.6</ele>
        <time>2020-06-08T19:32:54Z</time>
      </trkpt>
      <trkpt lat="48.36298" lon="-4.76643">
        <ele>3.5</ele>
        <time>2020-06-08T19:32:55Z</time>
      </trkpt>
      <trkpt lat="48.36299" lon="-4.76642">
        <ele>3.5</ele>
        <time>2020-06-08T19:32:56Z</time>
      </trkpt>
      <trkpt lat="48.36302" lon="-4.76639">
        <ele>3.5</ele>
        <time>2020-06-08T19:32:57Z</time>
      </trkpt>
      <trkpt lat="48.36303" lon="-4.76638">
        <ele>3.5</ele>
        <time>2020-06-08T19:32:58Z</time>
      </trkpt>
      <trkpt lat="48.36306" lon="-4.76638">
        <ele>3.5</ele>
        <time>2020-06-08T19:32:59Z</time>
      </trkpt>
      <trkpt lat="48.36307" lon="-4.76638">
        <ele>3.5</ele>
        <time>2020-06-08T19:33:00Z</time>
      </trkpt>
      <trkpt lat="48.3631" lon="-4.76635">
        <ele>3.5</ele>
        <time>2020-06-08T19:33:01Z</time>
      </trkpt>
      <trkpt lat="48.3631" lon="-4.76634">
        <ele>3.5</ele>
        <time>2020-06-08T19:33:02Z</time>
      </trkpt>
      <trkpt lat="48.36314" lon="-4.76632">
        <ele>3.6</ele>
        <time>2020-06-08T19:33:03Z</time>
      </trkpt>
      <trkpt lat="48.36315" lon="-4.76631">
        <ele>3.6</ele>
        <time>2020-06-08T19:33:04Z</time>
      </trkpt>
      <trkpt lat="48.36318" lon="-4.76629">
        <ele>3.6</ele>
        <time>2020-06-08T19:33:05Z</time>
      </trkpt>
      <trkpt lat="48.3632" lon="-4.76628">
        <ele>3.6</ele>
        <time>2020-06-08T19:33:06Z</time>
      </trkpt>
      <trkpt lat="48.36322" lon="-4.76627">
        <ele>3.6</ele>
        <time>2020-06-08T19:33:07Z</time>
      </trkpt>
      <trkpt lat="48.36325" lon="-4.76625">
        <ele>3.6</ele>
        <time>2020-06-08T19:33:08Z</time>
      </trkpt>
      <trkpt lat="48.36328" lon="-4.76623">
        <ele>3.6</ele>
        <time>2020-06-08T19:33:09Z</time>
      </trkpt>
      <trkpt lat="48.3633" lon="-4.76621">
        <ele>3.7</ele>
        <time>2020-06-08T19:33:10Z</time>
      </trkpt>
      <trkpt lat="48.36333" lon="-4.76618">
        <ele>3.7</ele>
        <time>2020-06-08T19:33:11Z</time>
      </trkpt>
      <trkpt lat="48.36336" lon="-4.76617">
        <ele>3.7</ele>
        <time>2020-06-08T19:33:12Z</time>
      </trkpt>
      <trkpt lat="48.3634" lon="-4.76615">
        <ele>3.7</ele>
        <time>2020-06-08T19:33:13Z</time>
      </trkpt>
      <trkpt lat="48.36341" lon="-4.76614">
        <ele>3.7</ele>
        <time>2020-06-08T19:33:14Z</time>
      </trkpt>
      <trkpt lat="48.36344" lon="-4.76614">
        <ele>3.7</ele>
        <time>2020-06-08T19:33:15Z</time>
      </trkpt>
      <trkpt lat="48.36348" lon="-4.76612">
        <ele>3.7</ele>
        <time>2020-06-08T19:33:16Z</time>
      </trkpt>
      <trkpt lat="48.36349" lon="-4.76612">
        <ele>3.7</ele>
        <time>2020-06-08T19:33:17Z</time>
      </trkpt>
      <trkpt lat="48.36352" lon="-4.76609">
        <ele>3.7</ele>
        <time>2020-06-08T19:33:18Z</time>
      </trkpt>
      <trkpt lat="48.36353" lon="-4.76608">
        <ele>3.7</ele>
        <time>2020-06-08T19:33:19Z</time>
      </trkpt>
      <trkpt lat="48.36356" lon="-4.76606">
        <ele>3.7</ele>
        <time>2020-06-08T19:33:20Z</time>
      </trkpt>
      <trkpt lat="48.36357" lon="-4.76606">
        <ele>3.7</ele>
        <time>2020-06-08T19:33:21Z</time>
      </trkpt>
      <trkpt lat="48.36361" lon="-4.76603">
        <ele>3.8</ele>
        <time>2020-06-08T19:33:22Z</time>
      </trkpt>
      <trkpt lat="48.36362" lon="-4.76602">
        <ele>3.8</ele>
        <time>2020-06-08T19:33:23Z</time>
      </trkpt>
      <trkpt lat="48.36364" lon="-4.76602">
        <ele>3.8</ele>
        <time>2020-06-08T19:33:24Z</time>
      </trkpt>
      <trkpt lat="48.36365" lon="-4.76599">
        <ele>3.8</ele>
        <time>2020-06-08T19:33:25Z</time>
      </trkpt>
      <trkpt lat="48.36365" lon="-4.76595">
        <ele>3.8</ele>
        <time>2020-06-08T19:33:26Z</time>
      </trkpt>
      <trkpt lat="48.36365" lon="-4.76593">
        <ele>3.9</ele>
        <time>2020-06-08T19:33:27Z</time>
      </trkpt>
      <trkpt lat="48.36365" lon="-4.76588">
        <ele>4</ele>
        <time>2020-06-08T19:33:28Z</time>
      </trkpt>
      <trkpt lat="48.36365" lon="-4.76586">
        <ele>4</ele>
        <time>2020-06-08T19:33:29Z</time>
      </trkpt>
      <trkpt lat="48.36366" lon="-4.76582">
        <ele>4.1</ele>
        <time>2020-06-08T19:33:30Z</time>
      </trkpt>
      <trkpt lat="48.36367" lon="-4.76581">
        <ele>4.2</ele>
        <time>2020-06-08T19:33:31Z</time>
      </trkpt>
      <trkpt lat="48.36368" lon="-4.76576">
        <ele>4.3</ele>
        <time>2020-06-08T19:33:32Z</time>
      </trkpt>
      <trkpt lat="48.36368" lon="-4.76574">
        <ele>4.3</ele>
        <time>2020-06-08T19:33:33Z</time>
      </trkpt>
      <trkpt lat="48.36368" lon="-4.76568">
        <ele>4.4</ele>
        <time>2020-06-08T19:33:34Z</time>
      </trkpt>
      <trkpt lat="48.36368" lon="-4.76566">
        <ele>4.5</ele>
        <time>2020-06-08T19:33:35Z</time>
      </trkpt>
      <trkpt lat="48.36368" lon="-4.76561">
        <ele>4.7</ele>
        <time>2020-06-08T19:33:36Z</time>
      </trkpt>
      <trkpt lat="48.36368" lon="-4.76559">
        <ele>4.7</ele>
        <time>2020-06-08T19:33:37Z</time>
      </trkpt>
      <trkpt lat="48.36369" lon="-4.76554">
        <ele>4.9</ele>
        <time>2020-06-08T19:33:38Z</time>
      </trkpt>
      <trkpt lat="48.36369" lon="-4.76552">
        <ele>4.9</ele>
        <time>2020-06-08T19:33:39Z</time>
      </trkpt>
      <trkpt lat="48.3637" lon="-4.76548">
        <ele>5.1</ele>
        <time>2020-06-08T19:33:40Z</time>
      </trkpt>
      <trkpt lat="48.36371" lon="-4.76547">
        <ele>5.2</ele>
        <time>2020-06-08T19:33:41Z</time>
      </trkpt>
      <trkpt lat="48.36372" lon="-4.76545">
        <ele>5.3</ele>
        <time>2020-06-08T19:33:42Z</time>
      </trkpt>
      <trkpt lat="48.36373" lon="-4.76543">
        <ele>5.4</ele>
        <time>2020-06-08T19:33:43Z</time>
      </trkpt>
      <trkpt lat="48.36375" lon="-4.76543">
        <ele>5.5</ele>
        <time>2020-06-08T19:33:44Z</time>
      </trkpt>
      <trkpt lat="48.36377" lon="-4.76541">
        <ele>5.7</ele>
        <time>2020-06-08T19:33:45Z</time>
      </trkpt>
      <trkpt lat="48.36379" lon="-4.76539">
        <ele>5.9</ele>
        <time>2020-06-08T19:33:46Z</time>
      </trkpt>
      <trkpt lat="48.3638" lon="-4.76538">
        <ele>6</ele>
        <time>2020-06-08T19:33:47Z</time>
      </trkpt>
      <trkpt lat="48.36383" lon="-4.76536">
        <ele>6.3</ele>
        <time>2020-06-08T19:33:48Z</time>
      </trkpt>
      <trkpt lat="48.36384" lon="-4.76535">
        <ele>6.4</ele>
        <time>2020-06-08T19:33:49Z</time>
      </trkpt>
      <trkpt lat="48.36388" lon="-4.76536">
        <ele>6.7</ele>
        <time>2020-06-08T19:33:50Z</time>
      </trkpt>
      <trkpt lat="48.36388" lon="-4.76536">
        <ele>6.8</ele>
        <time>2020-06-08T19:33:51Z</time>
      </trkpt>
      <trkpt lat="48.3639" lon="-4.76536">
        <ele>6.9</ele>
        <time>2020-06-08T19:33:52Z</time>
      </trkpt>
      <trkpt lat="48.36391" lon="-4.76537">
        <ele>7</ele>
        <time>2020-06-08T19:33:53Z</time>
      </trkpt>
      <trkpt lat="48.36392" lon="-4.76537">
        <ele>7.1</ele>
        <time>2020-06-08T19:33:54Z</time>
      </trkpt>
      <trkpt lat="48.36392" lon="-4.76539">
        <ele>7.2</ele>
        <time>2020-06-08T19:33:55Z</time>
      </trkpt>
      <trkpt lat="48.36393" lon="-4.76537">
        <ele>7.4</ele>
        <time>2020-06-08T19:33:56Z</time>
      </trkpt>
      <trkpt lat="48.36394" lon="-4.76537">
        <ele>7.5</ele>
        <time>2020-06-08T19:33:57Z</time>
      </trkpt>
      <trkpt lat="48.36395" lon="-4.76537">
        <ele>7.6</ele>
        <time>2020-06-08T19:33:58Z</time>
      </trkpt>
      <trkpt lat="48.36395" lon="-4.76537">
        <ele>7.7</ele>
        <time>2020-06-08T19:33:59Z</time>
      </trkpt>
      <trkpt lat="48.36396" lon="-4.76537">
        <ele>7.7</ele>
        <time>2020-06-08T19:34:00Z</time>
      </trkpt>
      <trkpt lat="48.36396" lon="-4.76537">
        <ele>7.7</ele>
        <time>2020-06-08T19:34:01Z</time>
      </trkpt>
      <trkpt lat="48.36396" lon="-4.76537">
        <ele>7.8</ele>
        <time>2020-06-08T19:34:02Z</time>
      </trkpt>
      <trkpt lat="48.36396" lon="-4.76537">
        <ele>7.8</ele>
        <time>2020-06-08T19:34:03Z</time>
      </trkpt>
      <trkpt lat="48.36397" lon="-4.76538">
        <ele>7.8</ele>
        <time>2020-06-08T19:34:04Z</time>
      </trkpt>
      <trkpt lat="48.36397" lon="-4.76537">
        <ele>7.9</ele>
        <time>2020-06-08T19:34:05Z</time>
      </trkpt>
      <trkpt lat="48.36398" lon="-4.76539">
        <ele>8.1</ele>
        <time>2020-06-08T19:34:06Z</time>
      </trkpt>
      <trkpt lat="48.364" lon="-4.76539">
        <ele>8.3</ele>
        <time>2020-06-08T19:34:07Z</time>
      </trkpt>
      <trkpt lat="48.36401" lon="-4.76539">
        <ele>8.5</ele>
        <time>2020-06-08T19:34:08Z</time>
      </trkpt>
      <trkpt lat="48.36402" lon="-4.7654">
        <ele>8.6</ele>
        <time>2020-06-08T19:34:09Z</time>
      </trkpt>
      <trkpt lat="48.36404" lon="-4.7654">
        <ele>8.9</ele>
        <time>2020-06-08T19:34:10Z</time>
      </trkpt>
      <trkpt lat="48.36405" lon="-4.76541">
        <ele>9.1</ele>
        <time>2020-06-08T19:34:11Z</time>
      </trkpt>
      <trkpt lat="48.36407" lon="-4.76541">
        <ele>9.3</ele>
        <time>2020-06-08T19:34:12Z</time>
      </trkpt>
      <trkpt lat="48.36409" lon="-4.76541">
        <ele>9.5</ele>
        <time>2020-06-08T19:34:13Z</time>
      </trkpt>
      <trkpt lat="48.36412" lon="-4.76541">
        <ele>9.9</ele>
        <time>2020-06-08T19:34:14Z</time>
      </trkpt>
      <trkpt lat="48.36414" lon="-4.76541">
        <ele>10.1</ele>
        <time>2020-06-08T19:34:15Z</time>
      </trkpt>
      <trkpt lat="48.36417" lon="-4.76542">
        <ele>10.5</ele>
        <time>2020-06-08T19:34:16Z</time>
      </trkpt>
      <trkpt lat="48.36418" lon="-4.76542">
        <ele>10.6</ele>
        <time>2020-06-08T19:34:17Z</time>
      </trkpt>
      <trkpt lat="48.3642" lon="-4.76542">
        <ele>11</ele>
        <time>2020-06-08T19:34:18Z</time>
      </trkpt>
      <trkpt lat="48.36421" lon="-4.76541">
        <ele>12.2</ele>
        <time>2020-06-08T19:34:19Z</time>
      </trkpt>
      <trkpt lat="48.36423" lon="-4.76537">
        <ele>12.5</ele>
        <time>2020-06-08T19:34:20Z</time>
      </trkpt>
      <trkpt lat="48.36426" lon="-4.76534">
        <ele>12.8</ele>
        <time>2020-06-08T19:34:21Z</time>
      </trkpt>
      <trkpt lat="48.36426" lon="-4.76533">
        <ele>12.8</ele>
        <time>2020-06-08T19:34:22Z</time>
      </trkpt>
      <trkpt lat="48.36427" lon="-4.7653">
        <ele>13</ele>
        <time>2020-06-08T19:34:23Z</time>
      </trkpt>
      <trkpt lat="48.36428" lon="-4.76529">
        <ele>13.1</ele>
        <time>2020-06-08T19:34:24Z</time>
      </trkpt>
      <trkpt lat="48.36429" lon="-4.76527">
        <ele>13.2</ele>
        <time>2020-06-08T19:34:25Z</time>
      </trkpt>
      <trkpt lat="48.3643" lon="-4.76526">
        <ele>13.3</ele>
        <time>2020-06-08T19:34:26Z</time>
      </trkpt>
      <trkpt lat="48.36431" lon="-4.76525">
        <ele>13.4</ele>
        <time>2020-06-08T19:34:27Z</time>
      </trkpt>
      <trkpt lat="48.36431" lon="-4.76523">
        <ele>13.5</ele>
        <time>2020-06-08T19:34:28Z</time>
      </trkpt>
      <trkpt lat="48.36432" lon="-4.7652">
        <ele>13.6</ele>
        <time>2020-06-08T19:34:29Z</time>
      </trkpt>
      <trkpt lat="48.36433" lon="-4.76515">
        <ele>13.9</ele>
        <time>2020-06-08T19:34:30Z</time>
      </trkpt>
      <trkpt lat="48.36433" lon="-4.76513">
        <ele>14</ele>
        <time>2020-06-08T19:34:31Z</time>
      </trkpt>
      <trkpt lat="48.36434" lon="-4.76511">
        <ele>14.1</ele>
        <time>2020-06-08T19:34:32Z</time>
      </trkpt>
      <trkpt lat="48.36434" lon="-4.76508">
        <ele>14.3</ele>
        <time>2020-06-08T19:34:33Z</time>
      </trkpt>
      <trkpt lat="48.36435" lon="-4.76504">
        <ele>14.5</ele>
        <time>2020-06-08T19:34:34Z</time>
      </trkpt>
      <trkpt lat="48.36435" lon="-4.76503">
        <ele>14.6</ele>
        <time>2020-06-08T19:34:35Z</time>
      </trkpt>
      <trkpt lat="48.36437" lon="-4.76497">
        <ele>14.9</ele>
        <time>2020-06-08T19:34:36Z</time>
      </trkpt>
      <trkpt lat="48.36437" lon="-4.76495">
        <ele>15.1</ele>
        <time>2020-06-08T19:34:37Z</time>
      </trkpt>
      <trkpt lat="48.36437" lon="-4.76489">
        <ele>15.4</ele>
        <time>2020-06-08T19:34:38Z</time>
      </trkpt>
      <trkpt lat="48.36437" lon="-4.76487">
        <ele>15.6</ele>
        <time>2020-06-08T19:34:39Z</time>
      </trkpt>
      <trkpt lat="48.36438" lon="-4.76482">
        <ele>15.9</ele>
        <time>2020-06-08T19:34:40Z</time>
      </trkpt>
      <trkpt lat="48.36438" lon="-4.7648">
        <ele>16.1</ele>
        <time>2020-06-08T19:34:41Z</time>
      </trkpt>
      <trkpt lat="48.36438" lon="-4.76478">
        <ele>16.3</ele>
        <time>2020-06-08T19:34:42Z</time>
      </trkpt>
      <trkpt lat="48.36439" lon="-4.76476">
        <ele>16.4</ele>
        <time>2020-06-08T19:34:43Z</time>
      </trkpt>
      <trkpt lat="48.36441" lon="-4.76472">
        <ele>16.9</ele>
        <time>2020-06-08T19:34:44Z</time>
      </trkpt>
      <trkpt lat="48.36441" lon="-4.76471">
        <ele>17</ele>
        <time>2020-06-08T19:34:45Z</time>
      </trkpt>
      <trkpt lat="48.36444" lon="-4.76469">
        <ele>17.3</ele>
        <time>2020-06-08T19:34:46Z</time>
      </trkpt>
      <trkpt lat="48.36445" lon="-4.76468">
        <ele>17.4</ele>
        <time>2020-06-08T19:34:47Z</time>
      </trkpt>
      <trkpt lat="48.36448" lon="-4.76467">
        <ele>17.7</ele>
        <time>2020-06-08T19:34:48Z</time>
      </trkpt>
      <trkpt lat="48.36449" lon="-4.76467">
        <ele>17.8</ele>
        <time>2020-06-08T19:34:49Z</time>
      </trkpt>
      <trkpt lat="48.36453" lon="-4.76466">
        <ele>18.1</ele>
        <time>2020-06-08T19:34:50Z</time>
      </trkpt>
      <trkpt lat="48.36454" lon="-4.76466">
        <ele>18.2</ele>
        <time>2020-06-08T19:34:51Z</time>
      </trkpt>
      <trkpt lat="48.36457" lon="-4.76464">
        <ele>18.4</ele>
        <time>2020-06-08T19:34:52Z</time>
      </trkpt>
      <trkpt lat="48.3646" lon="-4.76464">
        <ele>18.7</ele>
        <time>2020-06-08T19:34:53Z</time>
      </trkpt>
      <trkpt lat="48.36463" lon="-4.76464">
        <ele>19</ele>
        <time>2020-06-08T19:34:54Z</time>
      </trkpt>
      <trkpt lat="48.36465" lon="-4.76464">
        <ele>19.1</ele>
        <time>2020-06-08T19:34:55Z</time>
      </trkpt>
      <trkpt lat="48.36468" lon="-4.76464">
        <ele>19.3</ele>
        <time>2020-06-08T19:34:56Z</time>
      </trkpt>
      <trkpt lat="48.36469" lon="-4.76464">
        <ele>19.7</ele>
        <time>2020-06-08T19:34:57Z</time>
      </trkpt>
      <trkpt lat="48.36472" lon="-4.76464">
        <ele>20</ele>
        <time>2020-06-08T19:34:58Z</time>
      </trkpt>
      <trkpt lat="48.36473" lon="-4.76463">
        <ele>20.1</ele>
        <time>2020-06-08T19:34:59Z</time>
      </trkpt>
      <trkpt lat="48.36476" lon="-4.76462">
        <ele>20.4</ele>
        <time>2020-06-08T19:35:00Z</time>
      </trkpt>
      <trkpt lat="48.3648" lon="-4.76461">
        <ele>20.7</ele>
        <time>2020-06-08T19:35:01Z</time>
      </trkpt>
      <trkpt lat="48.36481" lon="-4.76461">
        <ele>20.8</ele>
        <time>2020-06-08T19:35:02Z</time>
      </trkpt>
      <trkpt lat="48.36484" lon="-4.7646">
        <ele>21</ele>
        <time>2020-06-08T19:35:03Z</time>
      </trkpt>
      <trkpt lat="48.36485" lon="-4.76459">
        <ele>21.1</ele>
        <time>2020-06-08T19:35:04Z</time>
      </trkpt>
      <trkpt lat="48.36488" lon="-4.76457">
        <ele>21.4</ele>
        <time>2020-06-08T19:35:05Z</time>
      </trkpt>
      <trkpt lat="48.36489" lon="-4.76456">
        <ele>21.5</ele>
        <time>2020-06-08T19:35:06Z</time>
      </trkpt>
      <trkpt lat="48.36492" lon="-4.76455">
        <ele>21.7</ele>
        <time>2020-06-08T19:35:07Z</time>
      </trkpt>
      <trkpt lat="48.36494" lon="-4.76454">
        <ele>21.9</ele>
        <time>2020-06-08T19:35:08Z</time>
      </trkpt>
      <trkpt lat="48.36497" lon="-4.76451">
        <ele>22.1</ele>
        <time>2020-06-08T19:35:09Z</time>
      </trkpt>
      <trkpt lat="48.36498" lon="-4.7645">
        <ele>22.2</ele>
        <time>2020-06-08T19:35:10Z</time>
      </trkpt>
      <trkpt lat="48.36501" lon="-4.76447">
        <ele>22.4</ele>
        <time>2020-06-08T19:35:11Z</time>
      </trkpt>
      <trkpt lat="48.36504" lon="-4.76444">
        <ele>22.7</ele>
        <time>2020-06-08T19:35:12Z</time>
      </trkpt>
      <trkpt lat="48.36505" lon="-4.76444">
        <ele>22.8</ele>
        <time>2020-06-08T19:35:13Z</time>
      </trkpt>
      <trkpt lat="48.36507" lon="-4.76443">
        <ele>23</ele>
        <time>2020-06-08T19:35:14Z</time>
      </trkpt>
      <trkpt lat="48.3651" lon="-4.76442">
        <ele>23.2</ele>
        <time>2020-06-08T19:35:15Z</time>
      </trkpt>
      <trkpt lat="48.36512" lon="-4.76441">
        <ele>23.3</ele>
        <time>2020-06-08T19:35:16Z</time>
      </trkpt>
      <trkpt lat="48.36513" lon="-4.7644">
        <ele>23.4</ele>
        <time>2020-06-08T19:35:17Z</time>
      </trkpt>
      <trkpt lat="48.36516" lon="-4.76438">
        <ele>23.7</ele>
        <time>2020-06-08T19:35:18Z</time>
      </trkpt>
      <trkpt lat="48.36517" lon="-4.76437">
        <ele>23.7</ele>
        <time>2020-06-08T19:35:19Z</time>
      </trkpt>
      <trkpt lat="48.3652" lon="-4.76436">
        <ele>24</ele>
        <time>2020-06-08T19:35:20Z</time>
      </trkpt>
      <trkpt lat="48.36521" lon="-4.76435">
        <ele>24.1</ele>
        <time>2020-06-08T19:35:21Z</time>
      </trkpt>
      <trkpt lat="48.36525" lon="-4.76434">
        <ele>24.3</ele>
        <time>2020-06-08T19:35:22Z</time>
      </trkpt>
      <trkpt lat="48.36526" lon="-4.76434">
        <ele>24.4</ele>
        <time>2020-06-08T19:35:23Z</time>
      </trkpt>
      <trkpt lat="48.36529" lon="-4.76433">
        <ele>24.6</ele>
        <time>2020-06-08T19:35:24Z</time>
      </trkpt>
      <trkpt lat="48.3653" lon="-4.76432">
        <ele>24.6</ele>
        <time>2020-06-08T19:35:25Z</time>
      </trkpt>
      <trkpt lat="48.36533" lon="-4.76431">
        <ele>24.8</ele>
        <time>2020-06-08T19:35:26Z</time>
      </trkpt>
      <trkpt lat="48.36534" lon="-4.7643">
        <ele>24.9</ele>
        <time>2020-06-08T19:35:27Z</time>
      </trkpt>
      <trkpt lat="48.36537" lon="-4.76431">
        <ele>25.1</ele>
        <time>2020-06-08T19:35:28Z</time>
      </trkpt>
      <trkpt lat="48.36538" lon="-4.7643">
        <ele>25.2</ele>
        <time>2020-06-08T19:35:29Z</time>
      </trkpt>
      <trkpt lat="48.36541" lon="-4.7643">
        <ele>25.4</ele>
        <time>2020-06-08T19:35:30Z</time>
      </trkpt>
      <trkpt lat="48.36544" lon="-4.76429">
        <ele>25.6</ele>
        <time>2020-06-08T19:35:31Z</time>
      </trkpt>
      <trkpt lat="48.36544" lon="-4.76429">
        <ele>25.6</ele>
        <time>2020-06-08T19:35:32Z</time>
      </trkpt>
      <trkpt lat="48.36546" lon="-4.76426">
        <ele>25.8</ele>
        <time>2020-06-08T19:35:33Z</time>
      </trkpt>
      <trkpt lat="48.36548" lon="-4.76422">
        <ele>26.1</ele>
        <time>2020-06-08T19:35:34Z</time>
      </trkpt>
      <trkpt lat="48.3655" lon="-4.76417">
        <ele>26.4</ele>
        <time>2020-06-08T19:35:35Z</time>
      </trkpt>
      <trkpt lat="48.36551" lon="-4.76415">
        <ele>26.5</ele>
        <time>2020-06-08T19:35:36Z</time>
      </trkpt>
      <trkpt lat="48.36551" lon="-4.7641">
        <ele>26.6</ele>
        <time>2020-06-08T19:35:37Z</time>
      </trkpt>
      <trkpt lat="48.36551" lon="-4.76409">
        <ele>26.7</ele>
        <time>2020-06-08T19:35:38Z</time>
      </trkpt>
      <trkpt lat="48.36552" lon="-4.76404">
        <ele>26.9</ele>
        <time>2020-06-08T19:35:39Z</time>
      </trkpt>
      <trkpt lat="48.36552" lon="-4.76402">
        <ele>27</ele>
        <time>2020-06-08T19:35:40Z</time>
      </trkpt>
      <trkpt lat="48.36553" lon="-4.76398">
        <ele>27.1</ele>
        <time>2020-06-08T19:35:41Z</time>
      </trkpt>
      <trkpt lat="48.36553" lon="-4.76393">
        <ele>27.3</ele>
        <time>2020-06-08T19:35:42Z</time>
      </trkpt>
      <trkpt lat="48.36554" lon="-4.76387">
        <ele>27.4</ele>
        <time>2020-06-08T19:35:43Z</time>
      </trkpt>
      <trkpt lat="48.36554" lon="-4.76385">
        <ele>27.5</ele>
        <time>2020-06-08T19:35:44Z</time>
      </trkpt>
      <trkpt lat="48.36554" lon="-4.7638">
        <ele>27.7</ele>
        <time>2020-06-08T19:35:45Z</time>
      </trkpt>
      <trkpt lat="48.36554" lon="-4.76378">
        <ele>27.8</ele>
        <time>2020-06-08T19:35:46Z</time>
      </trkpt>
      <trkpt lat="48.36555" lon="-4.76371">
        <ele>28</ele>
        <time>2020-06-08T19:35:47Z</time>
      </trkpt>
      <trkpt lat="48.36556" lon="-4.76369">
        <ele>28.1</ele>
        <time>2020-06-08T19:35:48Z</time>
      </trkpt>
      <trkpt lat="48.36557" lon="-4.76364">
        <ele>28.3</ele>
        <time>2020-06-08T19:35:49Z</time>
      </trkpt>
      <trkpt lat="48.36558" lon="-4.76362">
        <ele>28.3</ele>
        <time>2020-06-08T19:35:50Z</time>
      </trkpt>
      <trkpt lat="48.36558" lon="-4.76358">
        <ele>28.5</ele>
        <time>2020-06-08T19:35:51Z</time>
      </trkpt>
      <trkpt lat="48.36558" lon="-4.76354">
        <ele>28.6</ele>
        <time>2020-06-08T19:35:52Z</time>
      </trkpt>
      <trkpt lat="48.36557" lon="-4.76352">
        <ele>28.7</ele>
        <time>2020-06-08T19:35:53Z</time>
      </trkpt>
      <trkpt lat="48.36558" lon="-4.76346">
        <ele>28.9</ele>
        <time>2020-06-08T19:35:54Z</time>
      </trkpt>
      <trkpt lat="48.36558" lon="-4.76344">
        <ele>29</ele>
        <time>2020-06-08T19:35:55Z</time>
      </trkpt>
      <trkpt lat="48.36558" lon="-4.7634">
        <ele>29.1</ele>
        <time>2020-06-08T19:35:56Z</time>
      </trkpt>
      <trkpt lat="48.36559" lon="-4.76334">
        <ele>29.3</ele>
        <time>2020-06-08T19:35:57Z</time>
      </trkpt>
      <trkpt lat="48.36559" lon="-4.76331">
        <ele>29.4</ele>
        <time>2020-06-08T19:35:58Z</time>
      </trkpt>
      <trkpt lat="48.36559" lon="-4.76327">
        <ele>29.5</ele>
        <time>2020-06-08T19:35:59Z</time>
      </trkpt>
      <trkpt lat="48.3656" lon="-4.76321">
        <ele>29.8</ele>
        <time>2020-06-08T19:36:00Z</time>
      </trkpt>
      <trkpt lat="48.36561" lon="-4.76318">
        <ele>29.8</ele>
        <time>2020-06-08T19:36:01Z</time>
      </trkpt>
      <trkpt lat="48.36561" lon="-4.76314">
        <ele>30</ele>
        <time>2020-06-08T19:36:02Z</time>
      </trkpt>
      <trkpt lat="48.36562" lon="-4.76309">
        <ele>30.1</ele>
        <time>2020-06-08T19:36:03Z</time>
      </trkpt>
      <trkpt lat="48.36562" lon="-4.76303">
        <ele>30.3</ele>
        <time>2020-06-08T19:36:04Z</time>
      </trkpt>
      <trkpt lat="48.36562" lon="-4.76301">
        <ele>30.4</ele>
        <time>2020-06-08T19:36:05Z</time>
      </trkpt>
      <trkpt lat="48.36562" lon="-4.76296">
        <ele>30.6</ele>
        <time>2020-06-08T19:36:06Z</time>
      </trkpt>
      <trkpt lat="48.36563" lon="-4.76291">
        <ele>30.7</ele>
        <time>2020-06-08T19:36:07Z</time>
      </trkpt>
      <trkpt lat="48.36564" lon="-4.76286">
        <ele>30.8</ele>
        <time>2020-06-08T19:36:08Z</time>
      </trkpt>
      <trkpt lat="48.36564" lon="-4.76284">
        <ele>30.9</ele>
        <time>2020-06-08T19:36:09Z</time>
      </trkpt>
      <trkpt lat="48.36564" lon="-4.76278">
        <ele>31</ele>
        <time>2020-06-08T19:36:10Z</time>
      </trkpt>
      <trkpt lat="48.36564" lon="-4.76273">
        <ele>31.1</ele>
        <time>2020-06-08T19:36:11Z</time>
      </trkpt>
      <trkpt lat="48.36564" lon="-4.76267">
        <ele>31.2</ele>
        <time>2020-06-08T19:36:12Z</time>
      </trkpt>
      <trkpt lat="48.36565" lon="-4.76262">
        <ele>31.3</ele>
        <time>2020-06-08T19:36:13Z</time>
      </trkpt>
      <trkpt lat="48.36566" lon="-4.76257">
        <ele>31.3</ele>
        <time>2020-06-08T19:36:14Z</time>
      </trkpt>
      <trkpt lat="48.36567" lon="-4.76252">
        <ele>31.4</ele>
        <time>2020-06-08T19:36:15Z</time>
      </trkpt>
      <trkpt lat="48.36567" lon="-4.76246">
        <ele>31.5</ele>
        <time>2020-06-08T19:36:16Z</time>
      </trkpt>
      <trkpt lat="48.36568" lon="-4.76241">
        <ele>31.6</ele>
        <time>2020-06-08T19:36:17Z</time>
      </trkpt>
      <trkpt lat="48.36571" lon="-4.76235">
        <ele>31.6</ele>
        <time>2020-06-08T19:36:18Z</time>
      </trkpt>
      <trkpt lat="48.36572" lon="-4.76228">
        <ele>31.6</ele>
        <time>2020-06-08T19:36:19Z</time>
      </trkpt>
      <trkpt lat="48.36573" lon="-4.76222">
        <ele>31.7</ele>
        <time>2020-06-08T19:36:20Z</time>
      </trkpt>
      <trkpt lat="48.36575" lon="-4.76217">
        <ele>31.7</ele>
        <time>2020-06-08T19:36:21Z</time>
      </trkpt>
      <trkpt lat="48.36577" lon="-4.7621">
        <ele>31.7</ele>
        <time>2020-06-08T19:36:22Z</time>
      </trkpt>
      <trkpt lat="48.36578" lon="-4.76206">
        <ele>31.8</ele>
        <time>2020-06-08T19:36:23Z</time>
      </trkpt>
      <trkpt lat="48.36582" lon="-4.762">
        <ele>31.8</ele>
        <time>2020-06-08T19:36:24Z</time>
      </trkpt>
      <trkpt lat="48.36585" lon="-4.76196">
        <ele>31.8</ele>
        <time>2020-06-08T19:36:25Z</time>
      </trkpt>
      <trkpt lat="48.36589" lon="-4.76191">
        <ele>31.9</ele>
        <time>2020-06-08T19:36:26Z</time>
      </trkpt>
      <trkpt lat="48.36593" lon="-4.76186">
        <ele>31.9</ele>
        <time>2020-06-08T19:36:27Z</time>
      </trkpt>
      <trkpt lat="48.36597" lon="-4.76182">
        <ele>32</ele>
        <time>2020-06-08T19:36:28Z</time>
      </trkpt>
      <trkpt lat="48.36602" lon="-4.76178">
        <ele>31.9</ele>
        <time>2020-06-08T19:36:29Z</time>
      </trkpt>
      <trkpt lat="48.36606" lon="-4.76173">
        <ele>31.9</ele>
        <time>2020-06-08T19:36:30Z</time>
      </trkpt>
      <trkpt lat="48.3661" lon="-4.7617">
        <ele>31.9</ele>
        <time>2020-06-08T19:36:31Z</time>
      </trkpt>
      <trkpt lat="48.36615" lon="-4.76165">
        <ele>31.9</ele>
        <time>2020-06-08T19:36:32Z</time>
      </trkpt>
      <trkpt lat="48.3662" lon="-4.76158">
        <ele>31.9</ele>
        <time>2020-06-08T19:36:33Z</time>
      </trkpt>
      <trkpt lat="48.36625" lon="-4.76153">
        <ele>31.8</ele>
        <time>2020-06-08T19:36:34Z</time>
      </trkpt>
      <trkpt lat="48.36628" lon="-4.76148">
        <ele>31.8</ele>
        <time>2020-06-08T19:36:35Z</time>
      </trkpt>
      <trkpt lat="48.36632" lon="-4.76142">
        <ele>31.7</ele>
        <time>2020-06-08T19:36:36Z</time>
      </trkpt>
      <trkpt lat="48.36636" lon="-4.76137">
        <ele>31.6</ele>
        <time>2020-06-08T19:36:37Z</time>
      </trkpt>
      <trkpt lat="48.36639" lon="-4.76132">
        <ele>31.5</ele>
        <time>2020-06-08T19:36:38Z</time>
      </trkpt>
      <trkpt lat="48.36643" lon="-4.76128">
        <ele>31.5</ele>
        <time>2020-06-08T19:36:39Z</time>
      </trkpt>
      <trkpt lat="48.36647" lon="-4.76123">
        <ele>31.4</ele>
        <time>2020-06-08T19:36:40Z</time>
      </trkpt>
      <trkpt lat="48.3665" lon="-4.76118">
        <ele>31.4</ele>
        <time>2020-06-08T19:36:41Z</time>
      </trkpt>
      <trkpt lat="48.36654" lon="-4.76112">
        <ele>31.3</ele>
        <time>2020-06-08T19:36:42Z</time>
      </trkpt>
      <trkpt lat="48.36659" lon="-4.76106">
        <ele>31.3</ele>
        <time>2020-06-08T19:36:43Z</time>
      </trkpt>
      <trkpt lat="48.36664" lon="-4.761">
        <ele>31.3</ele>
        <time>2020-06-08T19:36:44Z</time>
      </trkpt>
      <trkpt lat="48.36667" lon="-4.76094">
        <ele>31.3</ele>
        <time>2020-06-08T19:36:45Z</time>
      </trkpt>
      <trkpt lat="48.3667" lon="-4.76089">
        <ele>31.2</ele>
        <time>2020-06-08T19:36:46Z</time>
      </trkpt>
      <trkpt lat="48.36673" lon="-4.76084">
        <ele>31.2</ele>
        <time>2020-06-08T19:36:47Z</time>
      </trkpt>
      <trkpt lat="48.36676" lon="-4.76078">
        <ele>31.2</ele>
        <time>2020-06-08T19:36:48Z</time>
      </trkpt>
      <trkpt lat="48.3668" lon="-4.76073">
        <ele>31.2</ele>
        <time>2020-06-08T19:36:49Z</time>
      </trkpt>
      <trkpt lat="48.36683" lon="-4.76067">
        <ele>31.2</ele>
        <time>2020-06-08T19:36:50Z</time>
      </trkpt>
      <trkpt lat="48.36687" lon="-4.76062">
        <ele>31.2</ele>
        <time>2020-06-08T19:36:51Z</time>
      </trkpt>
      <trkpt lat="48.36692" lon="-4.76057">
        <ele>31.2</ele>
        <time>2020-06-08T19:36:52Z</time>
      </trkpt>
      <trkpt lat="48.36696" lon="-4.76053">
        <ele>31.2</ele>
        <time>2020-06-08T19:36:53Z</time>
      </trkpt>
      <trkpt lat="48.367" lon="-4.76047">
        <ele>31.2</ele>
        <time>2020-06-08T19:36:54Z</time>
      </trkpt>
      <trkpt lat="48.36704" lon="-4.76044">
        <ele>31.1</ele>
        <time>2020-06-08T19:36:55Z</time>
      </trkpt>
      <trkpt lat="48.36708" lon="-4.76038">
        <ele>31.1</ele>
        <time>2020-06-08T19:36:56Z</time>
      </trkpt>
      <trkpt lat="48.36712" lon="-4.76033">
        <ele>31</ele>
        <time>2020-06-08T19:36:57Z</time>
      </trkpt>
      <trkpt lat="48.36716" lon="-4.76028">
        <ele>31</ele>
        <time>2020-06-08T19:36:58Z</time>
      </trkpt>
      <trkpt lat="48.36721" lon="-4.76023">
        <ele>30.9</ele>
        <time>2020-06-08T19:36:59Z</time>
      </trkpt>
      <trkpt lat="48.36724" lon="-4.76019">
        <ele>30.8</ele>
        <time>2020-06-08T19:37:00Z</time>
      </trkpt>
      <trkpt lat="48.36728" lon="-4.76012">
        <ele>30.7</ele>
        <time>2020-06-08T19:37:01Z</time>
      </trkpt>
      <trkpt lat="48.36732" lon="-4.76006">
        <ele>30.6</ele>
        <time>2020-06-08T19:37:02Z</time>
      </trkpt>
      <trkpt lat="48.36736" lon="-4.75999">
        <ele>30.6</ele>
        <time>2020-06-08T19:37:03Z</time>
      </trkpt>
      <trkpt lat="48.3674" lon="-4.75993">
        <ele>30.6</ele>
        <time>2020-06-08T19:37:04Z</time>
      </trkpt>
      <trkpt lat="48.36744" lon="-4.75987">
        <ele>30.6</ele>
        <time>2020-06-08T19:37:05Z</time>
      </trkpt>
      <trkpt lat="48.36748" lon="-4.75981">
        <ele>30.6</ele>
        <time>2020-06-08T19:37:06Z</time>
      </trkpt>
      <trkpt lat="48.36753" lon="-4.75974">
        <ele>30.6</ele>
        <time>2020-06-08T19:37:07Z</time>
      </trkpt>
      <trkpt lat="48.36758" lon="-4.75967">
        <ele>30.5</ele>
        <time>2020-06-08T19:37:08Z</time>
      </trkpt>
      <trkpt lat="48.36762" lon="-4.7596">
        <ele>30.5</ele>
        <time>2020-06-08T19:37:09Z</time>
      </trkpt>
      <trkpt lat="48.36767" lon="-4.75954">
        <ele>30.4</ele>
        <time>2020-06-08T19:37:10Z</time>
      </trkpt>
      <trkpt lat="48.36771" lon="-4.75948">
        <ele>30.4</ele>
        <time>2020-06-08T19:37:11Z</time>
      </trkpt>
      <trkpt lat="48.36775" lon="-4.75941">
        <ele>30.4</ele>
        <time>2020-06-08T19:37:12Z</time>
      </trkpt>
      <trkpt lat="48.36779" lon="-4.75935">
        <ele>30.3</ele>
        <time>2020-06-08T19:37:13Z</time>
      </trkpt>
      <trkpt lat="48.36783" lon="-4.75929">
        <ele>30.3</ele>
        <time>2020-06-08T19:37:14Z</time>
      </trkpt>
      <trkpt lat="48.36787" lon="-4.75924">
        <ele>30.3</ele>
        <time>2020-06-08T19:37:15Z</time>
      </trkpt>
      <trkpt lat="48.36791" lon="-4.75919">
        <ele>30.3</ele>
        <time>2020-06-08T19:37:16Z</time>
      </trkpt>
      <trkpt lat="48.36794" lon="-4.75914">
        <ele>30.2</ele>
        <time>2020-06-08T19:37:17Z</time>
      </trkpt>
      <trkpt lat="48.36798" lon="-4.75908">
        <ele>30.2</ele>
        <time>2020-06-08T19:37:18Z</time>
      </trkpt>
      <trkpt lat="48.36802" lon="-4.75902">
        <ele>30.2</ele>
        <time>2020-06-08T19:37:19Z</time>
      </trkpt>
      <trkpt lat="48.36806" lon="-4.75895">
        <ele>30.2</ele>
        <time>2020-06-08T19:37:20Z</time>
      </trkpt>
      <trkpt lat="48.36811" lon="-4.75889">
        <ele>30.2</ele>
        <time>2020-06-08T19:37:21Z</time>
      </trkpt>
      <trkpt lat="48.36815" lon="-4.75883">
        <ele>30.2</ele>
        <time>2020-06-08T19:37:22Z</time>
      </trkpt>
      <trkpt lat="48.36819" lon="-4.75878">
        <ele>30.2</ele>
        <time>2020-06-08T19:37:23Z</time>
      </trkpt>
      <trkpt lat="48.36823" lon="-4.75871">
        <ele>30.3</ele>
        <time>2020-06-08T19:37:24Z</time>
      </trkpt>
      <trkpt lat="48.36827" lon="-4.75866">
        <ele>30.3</ele>
        <time>2020-06-08T19:37:25Z</time>
      </trkpt>
      <trkpt lat="48.36832" lon="-4.7586">
        <ele>30.4</ele>
        <time>2020-06-08T19:37:26Z</time>
      </trkpt>
      <trkpt lat="48.36837" lon="-4.75855">
        <ele>30.4</ele>
        <time>2020-06-08T19:37:27Z</time>
      </trkpt>
      <trkpt lat="48.3684" lon="-4.75849">
        <ele>30.4</ele>
        <time>2020-06-08T19:37:28Z</time>
      </trkpt>
      <trkpt lat="48.36843" lon="-4.75845">
        <ele>30.5</ele>
        <time>2020-06-08T19:37:29Z</time>
      </trkpt>
      <trkpt lat="48.36847" lon="-4.7584">
        <ele>30.5</ele>
        <time>2020-06-08T19:37:30Z</time>
      </trkpt>
      <trkpt lat="48.36851" lon="-4.75834">
        <ele>30.6</ele>
        <time>2020-06-08T19:37:31Z</time>
      </trkpt>
      <trkpt lat="48.36853" lon="-4.75829">
        <ele>30.6</ele>
        <time>2020-06-08T19:37:32Z</time>
      </trkpt>
      <trkpt lat="48.36857" lon="-4.75825">
        <ele>30.6</ele>
        <time>2020-06-08T19:37:33Z</time>
      </trkpt>
      <trkpt lat="48.36861" lon="-4.7582">
        <ele>30.6</ele>
        <time>2020-06-08T19:37:34Z</time>
      </trkpt>
      <trkpt lat="48.36865" lon="-4.75814">
        <ele>30.6</ele>
        <time>2020-06-08T19:37:35Z</time>
      </trkpt>
      <trkpt lat="48.36869" lon="-4.75807">
        <ele>30.6</ele>
        <time>2020-06-08T19:37:36Z</time>
      </trkpt>
      <trkpt lat="48.36874" lon="-4.75801">
        <ele>30.6</ele>
        <time>2020-06-08T19:37:37Z</time>
      </trkpt>
      <trkpt lat="48.36878" lon="-4.75795">
        <ele>30.5</ele>
        <time>2020-06-08T19:37:38Z</time>
      </trkpt>
      <trkpt lat="48.36883" lon="-4.75789">
        <ele>30.5</ele>
        <time>2020-06-08T19:37:39Z</time>
      </trkpt>
      <trkpt lat="48.36887" lon="-4.75784">
        <ele>30.4</ele>
        <time>2020-06-08T19:37:40Z</time>
      </trkpt>
      <trkpt lat="48.36891" lon="-4.75778">
        <ele>30.4</ele>
        <time>2020-06-08T19:37:41Z</time>
      </trkpt>
      <trkpt lat="48.36896" lon="-4.75771">
        <ele>30.3</ele>
        <time>2020-06-08T19:37:42Z</time>
      </trkpt>
      <trkpt lat="48.369" lon="-4.75765">
        <ele>30.3</ele>
        <time>2020-06-08T19:37:43Z</time>
      </trkpt>
      <trkpt lat="48.36904" lon="-4.75758">
        <ele>30.2</ele>
        <time>2020-06-08T19:37:44Z</time>
      </trkpt>
      <trkpt lat="48.36908" lon="-4.75753">
        <ele>30.1</ele>
        <time>2020-06-08T19:37:45Z</time>
      </trkpt>
      <trkpt lat="48.36912" lon="-4.75748">
        <ele>30.1</ele>
        <time>2020-06-08T19:37:46Z</time>
      </trkpt>
      <trkpt lat="48.36917" lon="-4.75742">
        <ele>30</ele>
        <time>2020-06-08T19:37:47Z</time>
      </trkpt>
      <trkpt lat="48.36922" lon="-4.75736">
        <ele>29.9</ele>
        <time>2020-06-08T19:37:48Z</time>
      </trkpt>
      <trkpt lat="48.36925" lon="-4.75729">
        <ele>29.9</ele>
        <time>2020-06-08T19:37:49Z</time>
      </trkpt>
      <trkpt lat="48.3693" lon="-4.75722">
        <ele>29.8</ele>
        <time>2020-06-08T19:37:50Z</time>
      </trkpt>
      <trkpt lat="48.36934" lon="-4.75717">
        <ele>29.8</ele>
        <time>2020-06-08T19:37:51Z</time>
      </trkpt>
      <trkpt lat="48.36938" lon="-4.75711">
        <ele>29.7</ele>
        <time>2020-06-08T19:37:52Z</time>
      </trkpt>
      <trkpt lat="48.36944" lon="-4.75705">
        <ele>29.7</ele>
        <time>2020-06-08T19:37:53Z</time>
      </trkpt>
      <trkpt lat="48.36949" lon="-4.75699">
        <ele>29.7</ele>
        <time>2020-06-08T19:37:54Z</time>
      </trkpt>
      <trkpt lat="48.36954" lon="-4.75691">
        <ele>29.7</ele>
        <time>2020-06-08T19:37:55Z</time>
      </trkpt>
      <trkpt lat="48.36959" lon="-4.75686">
        <ele>29.7</ele>
        <time>2020-06-08T19:37:56Z</time>
      </trkpt>
      <trkpt lat="48.36963" lon="-4.75679">
        <ele>29.7</ele>
        <time>2020-06-08T19:37:57Z</time>
      </trkpt>
      <trkpt lat="48.36967" lon="-4.75674">
        <ele>29.7</ele>
        <time>2020-06-08T19:37:58Z</time>
      </trkpt>
      <trkpt lat="48.36972" lon="-4.75668">
        <ele>29.7</ele>
        <time>2020-06-08T19:37:59Z</time>
      </trkpt>
      <trkpt lat="48.36976" lon="-4.75664">
        <ele>29.8</ele>
        <time>2020-06-08T19:38:00Z</time>
      </trkpt>
      <trkpt lat="48.3698" lon="-4.75657">
        <ele>29.8</ele>
        <time>2020-06-08T19:38:01Z</time>
      </trkpt>
      <trkpt lat="48.36985" lon="-4.75652">
        <ele>29.8</ele>
        <time>2020-06-08T19:38:02Z</time>
      </trkpt>
      <trkpt lat="48.3699" lon="-4.75645">
        <ele>29.8</ele>
        <time>2020-06-08T19:38:03Z</time>
      </trkpt>
      <trkpt lat="48.36994" lon="-4.75639">
        <ele>29.8</ele>
        <time>2020-06-08T19:38:04Z</time>
      </trkpt>
      <trkpt lat="48.36998" lon="-4.75633">
        <ele>29.9</ele>
        <time>2020-06-08T19:38:05Z</time>
      </trkpt>
      <trkpt lat="48.37002" lon="-4.75627">
        <ele>29.9</ele>
        <time>2020-06-08T19:38:06Z</time>
      </trkpt>
      <trkpt lat="48.37006" lon="-4.7562">
        <ele>29.9</ele>
        <time>2020-06-08T19:38:07Z</time>
      </trkpt>
      <trkpt lat="48.37011" lon="-4.75614">
        <ele>29.9</ele>
        <time>2020-06-08T19:38:08Z</time>
      </trkpt>
      <trkpt lat="48.37017" lon="-4.75606">
        <ele>30.1</ele>
        <time>2020-06-08T19:38:09Z</time>
      </trkpt>
      <trkpt lat="48.37021" lon="-4.75599">
        <ele>30.1</ele>
        <time>2020-06-08T19:38:10Z</time>
      </trkpt>
      <trkpt lat="48.37026" lon="-4.75593">
        <ele>30.1</ele>
        <time>2020-06-08T19:38:11Z</time>
      </trkpt>
      <trkpt lat="48.37029" lon="-4.75588">
        <ele>30.1</ele>
        <time>2020-06-08T19:38:12Z</time>
      </trkpt>
      <trkpt lat="48.37033" lon="-4.75581">
        <ele>30.1</ele>
        <time>2020-06-08T19:38:13Z</time>
      </trkpt>
      <trkpt lat="48.37037" lon="-4.75574">
        <ele>30.1</ele>
        <time>2020-06-08T19:38:14Z</time>
      </trkpt>
      <trkpt lat="48.3704" lon="-4.75568">
        <ele>30.2</ele>
        <time>2020-06-08T19:38:15Z</time>
      </trkpt>
      <trkpt lat="48.37044" lon="-4.75562">
        <ele>30.2</ele>
        <time>2020-06-08T19:38:16Z</time>
      </trkpt>
      <trkpt lat="48.37048" lon="-4.75555">
        <ele>30.3</ele>
        <time>2020-06-08T19:38:17Z</time>
      </trkpt>
      <trkpt lat="48.37052" lon="-4.75549">
        <ele>30.3</ele>
        <time>2020-06-08T19:38:18Z</time>
      </trkpt>
      <trkpt lat="48.37057" lon="-4.75543">
        <ele>30.3</ele>
        <time>2020-06-08T19:38:19Z</time>
      </trkpt>
      <trkpt lat="48.37062" lon="-4.75536">
        <ele>30.4</ele>
        <time>2020-06-08T19:38:20Z</time>
      </trkpt>
      <trkpt lat="48.37066" lon="-4.7553">
        <ele>30.4</ele>
        <time>2020-06-08T19:38:21Z</time>
      </trkpt>
      <trkpt lat="48.3707" lon="-4.75526">
        <ele>30.4</ele>
        <time>2020-06-08T19:38:22Z</time>
      </trkpt>
      <trkpt lat="48.37074" lon="-4.75519">
        <ele>30.5</ele>
        <time>2020-06-08T19:38:23Z</time>
      </trkpt>
      <trkpt lat="48.37078" lon="-4.75513">
        <ele>30.5</ele>
        <time>2020-06-08T19:38:24Z</time>
      </trkpt>
      <trkpt lat="48.37081" lon="-4.75508">
        <ele>30.4</ele>
        <time>2020-06-08T19:38:25Z</time>
      </trkpt>
      <trkpt lat="48.37085" lon="-4.75503">
        <ele>30.4</ele>
        <time>2020-06-08T19:38:26Z</time>
      </trkpt>
      <trkpt lat="48.37089" lon="-4.75498">
        <ele>30.4</ele>
        <time>2020-06-08T19:38:27Z</time>
      </trkpt>
      <trkpt lat="48.37093" lon="-4.75492">
        <ele>30.3</ele>
        <time>2020-06-08T19:38:28Z</time>
      </trkpt>
      <trkpt lat="48.37098" lon="-4.75486">
        <ele>30.2</ele>
        <time>2020-06-08T19:38:29Z</time>
      </trkpt>
      <trkpt lat="48.37102" lon="-4.75481">
        <ele>30.2</ele>
        <time>2020-06-08T19:38:30Z</time>
      </trkpt>
      <trkpt lat="48.37107" lon="-4.75475">
        <ele>30.2</ele>
        <time>2020-06-08T19:38:31Z</time>
      </trkpt>
      <trkpt lat="48.37111" lon="-4.7547">
        <ele>30.1</ele>
        <time>2020-06-08T19:38:32Z</time>
      </trkpt>
      <trkpt lat="48.37114" lon="-4.75465">
        <ele>30.1</ele>
        <time>2020-06-08T19:38:33Z</time>
      </trkpt>
      <trkpt lat="48.37117" lon="-4.75459">
        <ele>30.1</ele>
        <time>2020-06-08T19:38:34Z</time>
      </trkpt>
      <trkpt lat="48.37122" lon="-4.75452">
        <ele>30</ele>
        <time>2020-06-08T19:38:35Z</time>
      </trkpt>
      <trkpt lat="48.37126" lon="-4.75446">
        <ele>30</ele>
        <time>2020-06-08T19:38:36Z</time>
      </trkpt>
      <trkpt lat="48.37131" lon="-4.7544">
        <ele>29.9</ele>
        <time>2020-06-08T19:38:37Z</time>
      </trkpt>
      <trkpt lat="48.37134" lon="-4.75434">
        <ele>29.9</ele>
        <time>2020-06-08T19:38:38Z</time>
      </trkpt>
      <trkpt lat="48.37139" lon="-4.75427">
        <ele>29.8</ele>
        <time>2020-06-08T19:38:39Z</time>
      </trkpt>
      <trkpt lat="48.37143" lon="-4.75422">
        <ele>29.8</ele>
        <time>2020-06-08T19:38:40Z</time>
      </trkpt>
      <trkpt lat="48.37147" lon="-4.75416">
        <ele>29.8</ele>
        <time>2020-06-08T19:38:41Z</time>
      </trkpt>
      <trkpt lat="48.37151" lon="-4.75411">
        <ele>29.8</ele>
        <time>2020-06-08T19:38:42Z</time>
      </trkpt>
      <trkpt lat="48.37156" lon="-4.75405">
        <ele>29.9</ele>
        <time>2020-06-08T19:38:43Z</time>
      </trkpt>
      <trkpt lat="48.37161" lon="-4.75399">
        <ele>30</ele>
        <time>2020-06-08T19:38:44Z</time>
      </trkpt>
      <trkpt lat="48.37164" lon="-4.75393">
        <ele>30</ele>
        <time>2020-06-08T19:38:45Z</time>
      </trkpt>
      <trkpt lat="48.37166" lon="-4.7539">
        <ele>30.1</ele>
        <time>2020-06-08T19:38:46Z</time>
      </trkpt>
      <trkpt lat="48.3717" lon="-4.75383">
        <ele>30.1</ele>
        <time>2020-06-08T19:38:47Z</time>
      </trkpt>
      <trkpt lat="48.37175" lon="-4.75375">
        <ele>30.2</ele>
        <time>2020-06-08T19:38:48Z</time>
      </trkpt>
      <trkpt lat="48.3718" lon="-4.75369">
        <ele>30.3</ele>
        <time>2020-06-08T19:38:49Z</time>
      </trkpt>
      <trkpt lat="48.37185" lon="-4.75362">
        <ele>30.4</ele>
        <time>2020-06-08T19:38:50Z</time>
      </trkpt>
      <trkpt lat="48.37189" lon="-4.75356">
        <ele>30.5</ele>
        <time>2020-06-08T19:38:51Z</time>
      </trkpt>
      <trkpt lat="48.37194" lon="-4.75351">
        <ele>30.5</ele>
        <time>2020-06-08T19:38:52Z</time>
      </trkpt>
      <trkpt lat="48.37198" lon="-4.75344">
        <ele>30.6</ele>
        <time>2020-06-08T19:38:53Z</time>
      </trkpt>
      <trkpt lat="48.37202" lon="-4.75339">
        <ele>30.6</ele>
        <time>2020-06-08T19:38:54Z</time>
      </trkpt>
      <trkpt lat="48.37206" lon="-4.75332">
        <ele>30.7</ele>
        <time>2020-06-08T19:38:55Z</time>
      </trkpt>
      <trkpt lat="48.3721" lon="-4.75326">
        <ele>30.7</ele>
        <time>2020-06-08T19:38:56Z</time>
      </trkpt>
      <trkpt lat="48.37214" lon="-4.75321">
        <ele>30.8</ele>
        <time>2020-06-08T19:38:57Z</time>
      </trkpt>
      <trkpt lat="48.37218" lon="-4.75315">
        <ele>30.8</ele>
        <time>2020-06-08T19:38:58Z</time>
      </trkpt>
      <trkpt lat="48.37222" lon="-4.75308">
        <ele>30.9</ele>
        <time>2020-06-08T19:38:59Z</time>
      </trkpt>
      <trkpt lat="48.37226" lon="-4.75302">
        <ele>31</ele>
        <time>2020-06-08T19:39:00Z</time>
      </trkpt>
      <trkpt lat="48.37229" lon="-4.75297">
        <ele>31</ele>
        <time>2020-06-08T19:39:01Z</time>
      </trkpt>
      <trkpt lat="48.37233" lon="-4.75293">
        <ele>31.1</ele>
        <time>2020-06-08T19:39:02Z</time>
      </trkpt>
      <trkpt lat="48.37237" lon="-4.75287">
        <ele>31.2</ele>
        <time>2020-06-08T19:39:03Z</time>
      </trkpt>
      <trkpt lat="48.37241" lon="-4.75281">
        <ele>31.3</ele>
        <time>2020-06-08T19:39:04Z</time>
      </trkpt>
      <trkpt lat="48.37245" lon="-4.75276">
        <ele>31.4</ele>
        <time>2020-06-08T19:39:05Z</time>
      </trkpt>
      <trkpt lat="48.37248" lon="-4.7527">
        <ele>31.5</ele>
        <time>2020-06-08T19:39:06Z</time>
      </trkpt>
      <trkpt lat="48.37252" lon="-4.75264">
        <ele>31.6</ele>
        <time>2020-06-08T19:39:07Z</time>
      </trkpt>
      <trkpt lat="48.37255" lon="-4.75258">
        <ele>31.8</ele>
        <time>2020-06-08T19:39:08Z</time>
      </trkpt>
      <trkpt lat="48.37259" lon="-4.75254">
        <ele>31.9</ele>
        <time>2020-06-08T19:39:09Z</time>
      </trkpt>
      <trkpt lat="48.37264" lon="-4.75251">
        <ele>32</ele>
        <time>2020-06-08T19:39:10Z</time>
      </trkpt>
      <trkpt lat="48.37267" lon="-4.75248">
        <ele>32.1</ele>
        <time>2020-06-08T19:39:11Z</time>
      </trkpt>
      <trkpt lat="48.37271" lon="-4.75243">
        <ele>32.3</ele>
        <time>2020-06-08T19:39:12Z</time>
      </trkpt>
      <trkpt lat="48.37274" lon="-4.75241">
        <ele>32.4</ele>
        <time>2020-06-08T19:39:13Z</time>
      </trkpt>
      <trkpt lat="48.37277" lon="-4.75238">
        <ele>32.4</ele>
        <time>2020-06-08T19:39:14Z</time>
      </trkpt>
      <trkpt lat="48.37282" lon="-4.75239">
        <ele>32.6</ele>
        <time>2020-06-08T19:39:15Z</time>
      </trkpt>
      <trkpt lat="48.37286" lon="-4.75239">
        <ele>31.8</ele>
        <time>2020-06-08T19:39:16Z</time>
      </trkpt>
      <trkpt lat="48.3729" lon="-4.75244">
        <ele>31.4</ele>
        <time>2020-06-08T19:39:17Z</time>
      </trkpt>
      <trkpt lat="48.37294" lon="-4.7525">
        <ele>31.1</ele>
        <time>2020-06-08T19:39:18Z</time>
      </trkpt>
      <trkpt lat="48.37297" lon="-4.75257">
        <ele>30.8</ele>
        <time>2020-06-08T19:39:19Z</time>
      </trkpt>
      <trkpt lat="48.373" lon="-4.75265">
        <ele>30.5</ele>
        <time>2020-06-08T19:39:20Z</time>
      </trkpt>
      <trkpt lat="48.37304" lon="-4.75273">
        <ele>30.2</ele>
        <time>2020-06-08T19:39:21Z</time>
      </trkpt>
      <trkpt lat="48.37307" lon="-4.7528">
        <ele>29.9</ele>
        <time>2020-06-08T19:39:22Z</time>
      </trkpt>
      <trkpt lat="48.3731" lon="-4.75289">
        <ele>29.7</ele>
        <time>2020-06-08T19:39:23Z</time>
      </trkpt>
      <trkpt lat="48.37313" lon="-4.75298">
        <ele>29.4</ele>
        <time>2020-06-08T19:39:24Z</time>
      </trkpt>
      <trkpt lat="48.37317" lon="-4.75307">
        <ele>29.2</ele>
        <time>2020-06-08T19:39:25Z</time>
      </trkpt>
      <trkpt lat="48.37321" lon="-4.75316">
        <ele>29</ele>
        <time>2020-06-08T19:39:26Z</time>
      </trkpt>
      <trkpt lat="48.37324" lon="-4.75324">
        <ele>28.9</ele>
        <time>2020-06-08T19:39:27Z</time>
      </trkpt>
      <trkpt lat="48.37328" lon="-4.75333">
        <ele>28.7</ele>
        <time>2020-06-08T19:39:28Z</time>
      </trkpt>
      <trkpt lat="48.37331" lon="-4.75343">
        <ele>28.5</ele>
        <time>2020-06-08T19:39:29Z</time>
      </trkpt>
      <trkpt lat="48.37335" lon="-4.75352">
        <ele>28.4</ele>
        <time>2020-06-08T19:39:30Z</time>
      </trkpt>
      <trkpt lat="48.37339" lon="-4.75361">
        <ele>28.2</ele>
        <time>2020-06-08T19:39:31Z</time>
      </trkpt>
      <trkpt lat="48.37343" lon="-4.75369">
        <ele>28.1</ele>
        <time>2020-06-08T19:39:32Z</time>
      </trkpt>
      <trkpt lat="48.37346" lon="-4.75379">
        <ele>27.9</ele>
        <time>2020-06-08T19:39:33Z</time>
      </trkpt>
      <trkpt lat="48.3735" lon="-4.75389">
        <ele>27.8</ele>
        <time>2020-06-08T19:39:34Z</time>
      </trkpt>
      <trkpt lat="48.37353" lon="-4.75399">
        <ele>27.7</ele>
        <time>2020-06-08T19:39:35Z</time>
      </trkpt>
      <trkpt lat="48.37356" lon="-4.75409">
        <ele>27.6</ele>
        <time>2020-06-08T19:39:36Z</time>
      </trkpt>
      <trkpt lat="48.37359" lon="-4.75419">
        <ele>27.7</ele>
        <time>2020-06-08T19:39:37Z</time>
      </trkpt>
      <trkpt lat="48.37362" lon="-4.75429">
        <ele>27.8</ele>
        <time>2020-06-08T19:39:38Z</time>
      </trkpt>
      <trkpt lat="48.37365" lon="-4.75439">
        <ele>28</ele>
        <time>2020-06-08T19:39:39Z</time>
      </trkpt>
      <trkpt lat="48.37367" lon="-4.75449">
        <ele>28</ele>
        <time>2020-06-08T19:39:40Z</time>
      </trkpt>
      <trkpt lat="48.37369" lon="-4.75459">
        <ele>27.9</ele>
        <time>2020-06-08T19:39:41Z</time>
      </trkpt>
      <trkpt lat="48.37372" lon="-4.75469">
        <ele>27.9</ele>
        <time>2020-06-08T19:39:42Z</time>
      </trkpt>
      <trkpt lat="48.37374" lon="-4.75479">
        <ele>27.8</ele>
        <time>2020-06-08T19:39:43Z</time>
      </trkpt>
      <trkpt lat="48.37377" lon="-4.75488">
        <ele>27.8</ele>
        <time>2020-06-08T19:39:44Z</time>
      </trkpt>
      <trkpt lat="48.37379" lon="-4.75498">
        <ele>27.8</ele>
        <time>2020-06-08T19:39:45Z</time>
      </trkpt>
      <trkpt lat="48.37381" lon="-4.75507">
        <ele>27.7</ele>
        <time>2020-06-08T19:39:46Z</time>
      </trkpt>
      <trkpt lat="48.37384" lon="-4.75516">
        <ele>27.7</ele>
        <time>2020-06-08T19:39:47Z</time>
      </trkpt>
      <trkpt lat="48.37386" lon="-4.75526">
        <ele>27.7</ele>
        <time>2020-06-08T19:39:48Z</time>
      </trkpt>
      <trkpt lat="48.37388" lon="-4.75535">
        <ele>27.6</ele>
        <time>2020-06-08T19:39:49Z</time>
      </trkpt>
      <trkpt lat="48.37391" lon="-4.75543">
        <ele>27.6</ele>
        <time>2020-06-08T19:39:50Z</time>
      </trkpt>
      <trkpt lat="48.37394" lon="-4.75552">
        <ele>27.6</ele>
        <time>2020-06-08T19:39:51Z</time>
      </trkpt>
      <trkpt lat="48.37396" lon="-4.75562">
        <ele>27.5</ele>
        <time>2020-06-08T19:39:52Z</time>
      </trkpt>
      <trkpt lat="48.37398" lon="-4.75571">
        <ele>27.5</ele>
        <time>2020-06-08T19:39:53Z</time>
      </trkpt>
      <trkpt lat="48.374" lon="-4.7558">
        <ele>27.5</ele>
        <time>2020-06-08T19:39:54Z</time>
      </trkpt>
      <trkpt lat="48.37403" lon="-4.75589">
        <ele>27.4</ele>
        <time>2020-06-08T19:39:55Z</time>
      </trkpt>
      <trkpt lat="48.37406" lon="-4.75597">
        <ele>27.3</ele>
        <time>2020-06-08T19:39:56Z</time>
      </trkpt>
      <trkpt lat="48.37408" lon="-4.75606">
        <ele>27.3</ele>
        <time>2020-06-08T19:39:57Z</time>
      </trkpt>
      <trkpt lat="48.3741" lon="-4.75615">
        <ele>27.2</ele>
        <time>2020-06-08T19:39:58Z</time>
      </trkpt>
      <trkpt lat="48.37412" lon="-4.75624">
        <ele>27.2</ele>
        <time>2020-06-08T19:39:59Z</time>
      </trkpt>
      <trkpt lat="48.37414" lon="-4.75633">
        <ele>27.1</ele>
        <time>2020-06-08T19:40:00Z</time>
      </trkpt>
      <trkpt lat="48.37417" lon="-4.75642">
        <ele>27.1</ele>
        <time>2020-06-08T19:40:01Z</time>
      </trkpt>
      <trkpt lat="48.37419" lon="-4.75651">
        <ele>27</ele>
        <time>2020-06-08T19:40:02Z</time>
      </trkpt>
      <trkpt lat="48.37421" lon="-4.7566">
        <ele>26.9</ele>
        <time>2020-06-08T19:40:03Z</time>
      </trkpt>
      <trkpt lat="48.37424" lon="-4.75669">
        <ele>26.9</ele>
        <time>2020-06-08T19:40:04Z</time>
      </trkpt>
      <trkpt lat="48.37426" lon="-4.75679">
        <ele>26.8</ele>
        <time>2020-06-08T19:40:05Z</time>
      </trkpt>
      <trkpt lat="48.37428" lon="-4.75689">
        <ele>26.8</ele>
        <time>2020-06-08T19:40:06Z</time>
      </trkpt>
      <trkpt lat="48.3743" lon="-4.75698">
        <ele>26.7</ele>
        <time>2020-06-08T19:40:07Z</time>
      </trkpt>
      <trkpt lat="48.37433" lon="-4.75707">
        <ele>26.7</ele>
        <time>2020-06-08T19:40:08Z</time>
      </trkpt>
      <trkpt lat="48.37435" lon="-4.75716">
        <ele>26.6</ele>
        <time>2020-06-08T19:40:09Z</time>
      </trkpt>
      <trkpt lat="48.37437" lon="-4.75725">
        <ele>26.6</ele>
        <time>2020-06-08T19:40:10Z</time>
      </trkpt>
      <trkpt lat="48.37439" lon="-4.75734">
        <ele>26.6</ele>
        <time>2020-06-08T19:40:11Z</time>
      </trkpt>
      <trkpt lat="48.37441" lon="-4.75743">
        <ele>26.6</ele>
        <time>2020-06-08T19:40:12Z</time>
      </trkpt>
      <trkpt lat="48.37443" lon="-4.75753">
        <ele>26.6</ele>
        <time>2020-06-08T19:40:13Z</time>
      </trkpt>
      <trkpt lat="48.37445" lon="-4.75762">
        <ele>26.5</ele>
        <time>2020-06-08T19:40:14Z</time>
      </trkpt>
      <trkpt lat="48.37447" lon="-4.7577">
        <ele>26.5</ele>
        <time>2020-06-08T19:40:15Z</time>
      </trkpt>
      <trkpt lat="48.3745" lon="-4.7578">
        <ele>26.5</ele>
        <time>2020-06-08T19:40:16Z</time>
      </trkpt>
      <trkpt lat="48.37452" lon="-4.75789">
        <ele>26.5</ele>
        <time>2020-06-08T19:40:17Z</time>
      </trkpt>
      <trkpt lat="48.37454" lon="-4.75799">
        <ele>26.5</ele>
        <time>2020-06-08T19:40:18Z</time>
      </trkpt>
      <trkpt lat="48.37456" lon="-4.75809">
        <ele>26.6</ele>
        <time>2020-06-08T19:40:19Z</time>
      </trkpt>
      <trkpt lat="48.37458" lon="-4.75818">
        <ele>26.7</ele>
        <time>2020-06-08T19:40:20Z</time>
      </trkpt>
      <trkpt lat="48.3746" lon="-4.75827">
        <ele>26.8</ele>
        <time>2020-06-08T19:40:21Z</time>
      </trkpt>
      <trkpt lat="48.37461" lon="-4.75836">
        <ele>26.8</ele>
        <time>2020-06-08T19:40:22Z</time>
      </trkpt>
      <trkpt lat="48.37462" lon="-4.75845">
        <ele>26.9</ele>
        <time>2020-06-08T19:40:23Z</time>
      </trkpt>
      <trkpt lat="48.37464" lon="-4.75854">
        <ele>26.9</ele>
        <time>2020-06-08T19:40:24Z</time>
      </trkpt>
      <trkpt lat="48.37465" lon="-4.75863">
        <ele>27</ele>
        <time>2020-06-08T19:40:25Z</time>
      </trkpt>
      <trkpt lat="48.37465" lon="-4.75873">
        <ele>27.1</ele>
        <time>2020-06-08T19:40:26Z</time>
      </trkpt>
      <trkpt lat="48.37465" lon="-4.75882">
        <ele>27.2</ele>
        <time>2020-06-08T19:40:27Z</time>
      </trkpt>
      <trkpt lat="48.37467" lon="-4.7589">
        <ele>27.3</ele>
        <time>2020-06-08T19:40:28Z</time>
      </trkpt>
      <trkpt lat="48.37467" lon="-4.759">
        <ele>27.4</ele>
        <time>2020-06-08T19:40:29Z</time>
      </trkpt>
      <trkpt lat="48.37467" lon="-4.75908">
        <ele>27.5</ele>
        <time>2020-06-08T19:40:30Z</time>
      </trkpt>
      <trkpt lat="48.37468" lon="-4.75917">
        <ele>27.6</ele>
        <time>2020-06-08T19:40:31Z</time>
      </trkpt>
      <trkpt lat="48.37468" lon="-4.75925">
        <ele>27.7</ele>
        <time>2020-06-08T19:40:32Z</time>
      </trkpt>
      <trkpt lat="48.37469" lon="-4.75933">
        <ele>27.7</ele>
        <time>2020-06-08T19:40:33Z</time>
      </trkpt>
      <trkpt lat="48.3747" lon="-4.75942">
        <ele>27.8</ele>
        <time>2020-06-08T19:40:34Z</time>
      </trkpt>
      <trkpt lat="48.37472" lon="-4.7595">
        <ele>27.8</ele>
        <time>2020-06-08T19:40:35Z</time>
      </trkpt>
      <trkpt lat="48.37474" lon="-4.75958">
        <ele>27.8</ele>
        <time>2020-06-08T19:40:36Z</time>
      </trkpt>
      <trkpt lat="48.37477" lon="-4.75965">
        <ele>27.9</ele>
        <time>2020-06-08T19:40:37Z</time>
      </trkpt>
      <trkpt lat="48.37479" lon="-4.75973">
        <ele>27.9</ele>
        <time>2020-06-08T19:40:38Z</time>
      </trkpt>
      <trkpt lat="48.37484" lon="-4.7598">
        <ele>27.9</ele>
        <time>2020-06-08T19:40:39Z</time>
      </trkpt>
      <trkpt lat="48.37487" lon="-4.75987">
        <ele>27.9</ele>
        <time>2020-06-08T19:40:40Z</time>
      </trkpt>
      <trkpt lat="48.3749" lon="-4.75994">
        <ele>28</ele>
        <time>2020-06-08T19:40:41Z</time>
      </trkpt>
      <trkpt lat="48.37494" lon="-4.76">
        <ele>28</ele>
        <time>2020-06-08T19:40:42Z</time>
      </trkpt>
      <trkpt lat="48.37497" lon="-4.76007">
        <ele>28.1</ele>
        <time>2020-06-08T19:40:43Z</time>
      </trkpt>
      <trkpt lat="48.37501" lon="-4.76013">
        <ele>28.2</ele>
        <time>2020-06-08T19:40:44Z</time>
      </trkpt>
      <trkpt lat="48.37505" lon="-4.76018">
        <ele>28.2</ele>
        <time>2020-06-08T19:40:45Z</time>
      </trkpt>
      <trkpt lat="48.37509" lon="-4.76024">
        <ele>28.2</ele>
        <time>2020-06-08T19:40:46Z</time>
      </trkpt>
      <trkpt lat="48.37514" lon="-4.76028">
        <ele>28.3</ele>
        <time>2020-06-08T19:40:47Z</time>
      </trkpt>
      <trkpt lat="48.37519" lon="-4.76029">
        <ele>28.3</ele>
        <time>2020-06-08T19:40:48Z</time>
      </trkpt>
      <trkpt lat="48.37524" lon="-4.76033">
        <ele>28.3</ele>
        <time>2020-06-08T19:40:49Z</time>
      </trkpt>
      <trkpt lat="48.37529" lon="-4.76036">
        <ele>28.3</ele>
        <time>2020-06-08T19:40:50Z</time>
      </trkpt>
      <trkpt lat="48.37535" lon="-4.76038">
        <ele>28.3</ele>
        <time>2020-06-08T19:40:51Z</time>
      </trkpt>
      <trkpt lat="48.3754" lon="-4.76041">
        <ele>28.3</ele>
        <time>2020-06-08T19:40:52Z</time>
      </trkpt>
      <trkpt lat="48.37545" lon="-4.76043">
        <ele>28.4</ele>
        <time>2020-06-08T19:40:53Z</time>
      </trkpt>
      <trkpt lat="48.3755" lon="-4.76045">
        <ele>28.5</ele>
        <time>2020-06-08T19:40:54Z</time>
      </trkpt>
      <trkpt lat="48.37555" lon="-4.76046">
        <ele>28.7</ele>
        <time>2020-06-08T19:40:55Z</time>
      </trkpt>
      <trkpt lat="48.3756" lon="-4.76047">
        <ele>28.8</ele>
        <time>2020-06-08T19:40:56Z</time>
      </trkpt>
      <trkpt lat="48.37565" lon="-4.76049">
        <ele>28.9</ele>
        <time>2020-06-08T19:40:57Z</time>
      </trkpt>
      <trkpt lat="48.3757" lon="-4.76051">
        <ele>29.1</ele>
        <time>2020-06-08T19:40:58Z</time>
      </trkpt>
      <trkpt lat="48.37575" lon="-4.76054">
        <ele>29.2</ele>
        <time>2020-06-08T19:40:59Z</time>
      </trkpt>
      <trkpt lat="48.3758" lon="-4.76054">
        <ele>29.3</ele>
        <time>2020-06-08T19:41:00Z</time>
      </trkpt>
      <trkpt lat="48.37585" lon="-4.76056">
        <ele>29.4</ele>
        <time>2020-06-08T19:41:01Z</time>
      </trkpt>
      <trkpt lat="48.37589" lon="-4.76057">
        <ele>29.5</ele>
        <time>2020-06-08T19:41:02Z</time>
      </trkpt>
      <trkpt lat="48.37594" lon="-4.76056">
        <ele>29.5</ele>
        <time>2020-06-08T19:41:03Z</time>
      </trkpt>
      <trkpt lat="48.37598" lon="-4.76055">
        <ele>29.6</ele>
        <time>2020-06-08T19:41:04Z</time>
      </trkpt>
      <trkpt lat="48.37603" lon="-4.76057">
        <ele>29.7</ele>
        <time>2020-06-08T19:41:05Z</time>
      </trkpt>
      <trkpt lat="48.37607" lon="-4.76058">
        <ele>29.7</ele>
        <time>2020-06-08T19:41:06Z</time>
      </trkpt>
      <trkpt lat="48.37612" lon="-4.76059">
        <ele>29.8</ele>
        <time>2020-06-08T19:41:07Z</time>
      </trkpt>
      <trkpt lat="48.37617" lon="-4.76059">
        <ele>29.8</ele>
        <time>2020-06-08T19:41:08Z</time>
      </trkpt>
      <trkpt lat="48.37623" lon="-4.7606">
        <ele>29.9</ele>
        <time>2020-06-08T19:41:09Z</time>
      </trkpt>
      <trkpt lat="48.37628" lon="-4.76061">
        <ele>29.9</ele>
        <time>2020-06-08T19:41:10Z</time>
      </trkpt>
      <trkpt lat="48.37632" lon="-4.76063">
        <ele>30</ele>
        <time>2020-06-08T19:41:11Z</time>
      </trkpt>
      <trkpt lat="48.37638" lon="-4.76062">
        <ele>30</ele>
        <time>2020-06-08T19:41:12Z</time>
      </trkpt>
      <trkpt lat="48.37643" lon="-4.76062">
        <ele>30</ele>
        <time>2020-06-08T19:41:13Z</time>
      </trkpt>
      <trkpt lat="48.37648" lon="-4.76062">
        <ele>30</ele>
        <time>2020-06-08T19:41:14Z</time>
      </trkpt>
      <trkpt lat="48.37652" lon="-4.76063">
        <ele>30</ele>
        <time>2020-06-08T19:41:15Z</time>
      </trkpt>
      <trkpt lat="48.37657" lon="-4.76063">
        <ele>30</ele>
        <time>2020-06-08T19:41:16Z</time>
      </trkpt>
      <trkpt lat="48.3766" lon="-4.76064">
        <ele>30</ele>
        <time>2020-06-08T19:41:17Z</time>
      </trkpt>
      <trkpt lat="48.37665" lon="-4.76065">
        <ele>30</ele>
        <time>2020-06-08T19:41:18Z</time>
      </trkpt>
      <trkpt lat="48.3767" lon="-4.76068">
        <ele>30</ele>
        <time>2020-06-08T19:41:19Z</time>
      </trkpt>
      <trkpt lat="48.37675" lon="-4.76069">
        <ele>30</ele>
        <time>2020-06-08T19:41:20Z</time>
      </trkpt>
      <trkpt lat="48.3768" lon="-4.76069">
        <ele>30.1</ele>
        <time>2020-06-08T19:41:21Z</time>
      </trkpt>
      <trkpt lat="48.37685" lon="-4.7607">
        <ele>30.1</ele>
        <time>2020-06-08T19:41:22Z</time>
      </trkpt>
      <trkpt lat="48.3769" lon="-4.7607">
        <ele>30.1</ele>
        <time>2020-06-08T19:41:23Z</time>
      </trkpt>
      <trkpt lat="48.37695" lon="-4.7607">
        <ele>30.1</ele>
        <time>2020-06-08T19:41:24Z</time>
      </trkpt>
      <trkpt lat="48.37699" lon="-4.76072">
        <ele>30.1</ele>
        <time>2020-06-08T19:41:25Z</time>
      </trkpt>
      <trkpt lat="48.37704" lon="-4.76073">
        <ele>30.1</ele>
        <time>2020-06-08T19:41:26Z</time>
      </trkpt>
      <trkpt lat="48.37709" lon="-4.76073">
        <ele>30.1</ele>
        <time>2020-06-08T19:41:27Z</time>
      </trkpt>
      <trkpt lat="48.37714" lon="-4.76072">
        <ele>30.2</ele>
        <time>2020-06-08T19:41:28Z</time>
      </trkpt>
      <trkpt lat="48.37719" lon="-4.76072">
        <ele>30.2</ele>
        <time>2020-06-08T19:41:29Z</time>
      </trkpt>
      <trkpt lat="48.37724" lon="-4.76072">
        <ele>30.2</ele>
        <time>2020-06-08T19:41:30Z</time>
      </trkpt>
      <trkpt lat="48.37729" lon="-4.76072">
        <ele>30.2</ele>
        <time>2020-06-08T19:41:31Z</time>
      </trkpt>
      <trkpt lat="48.37734" lon="-4.7607">
        <ele>30.2</ele>
        <time>2020-06-08T19:41:32Z</time>
      </trkpt>
      <trkpt lat="48.37738" lon="-4.76068">
        <ele>30.2</ele>
        <time>2020-06-08T19:41:33Z</time>
      </trkpt>
      <trkpt lat="48.37743" lon="-4.76064">
        <ele>30.2</ele>
        <time>2020-06-08T19:41:34Z</time>
      </trkpt>
      <trkpt lat="48.37748" lon="-4.76062">
        <ele>30.2</ele>
        <time>2020-06-08T19:41:35Z</time>
      </trkpt>
      <trkpt lat="48.37753" lon="-4.76059">
        <ele>30.2</ele>
        <time>2020-06-08T19:41:36Z</time>
      </trkpt>
      <trkpt lat="48.37757" lon="-4.76056">
        <ele>30.1</ele>
        <time>2020-06-08T19:41:37Z</time>
      </trkpt>
      <trkpt lat="48.37762" lon="-4.76054">
        <ele>30.1</ele>
        <time>2020-06-08T19:41:38Z</time>
      </trkpt>
      <trkpt lat="48.37767" lon="-4.76051">
        <ele>30.1</ele>
        <time>2020-06-08T19:41:39Z</time>
      </trkpt>
      <trkpt lat="48.37772" lon="-4.76048">
        <ele>30.1</ele>
        <time>2020-06-08T19:41:40Z</time>
      </trkpt>
      <trkpt lat="48.37777" lon="-4.76045">
        <ele>30.1</ele>
        <time>2020-06-08T19:41:41Z</time>
      </trkpt>
      <trkpt lat="48.37782" lon="-4.76042">
        <ele>30.1</ele>
        <time>2020-06-08T19:41:42Z</time>
      </trkpt>
      <trkpt lat="48.37787" lon="-4.76039">
        <ele>30</ele>
        <time>2020-06-08T19:41:43Z</time>
      </trkpt>
      <trkpt lat="48.37792" lon="-4.76037">
        <ele>30</ele>
        <time>2020-06-08T19:41:44Z</time>
      </trkpt>
      <trkpt lat="48.37797" lon="-4.76035">
        <ele>30.1</ele>
        <time>2020-06-08T19:41:45Z</time>
      </trkpt>
      <trkpt lat="48.37802" lon="-4.76032">
        <ele>30.1</ele>
        <time>2020-06-08T19:41:46Z</time>
      </trkpt>
      <trkpt lat="48.37807" lon="-4.76028">
        <ele>30.1</ele>
        <time>2020-06-08T19:41:47Z</time>
      </trkpt>
      <trkpt lat="48.37813" lon="-4.76026">
        <ele>29.8</ele>
        <time>2020-06-08T19:41:48Z</time>
      </trkpt>
      <trkpt lat="48.37819" lon="-4.76023">
        <ele>29.7</ele>
        <time>2020-06-08T19:41:49Z</time>
      </trkpt>
      <trkpt lat="48.37824" lon="-4.76019">
        <ele>29.6</ele>
        <time>2020-06-08T19:41:50Z</time>
      </trkpt>
      <trkpt lat="48.37829" lon="-4.76015">
        <ele>29.5</ele>
        <time>2020-06-08T19:41:51Z</time>
      </trkpt>
      <trkpt lat="48.37834" lon="-4.76012">
        <ele>29.4</ele>
        <time>2020-06-08T19:41:52Z</time>
      </trkpt>
      <trkpt lat="48.3784" lon="-4.76008">
        <ele>29.2</ele>
        <time>2020-06-08T19:41:53Z</time>
      </trkpt>
      <trkpt lat="48.37847" lon="-4.76005">
        <ele>29.1</ele>
        <time>2020-06-08T19:41:54Z</time>
      </trkpt>
      <trkpt lat="48.37853" lon="-4.76002">
        <ele>29</ele>
        <time>2020-06-08T19:41:55Z</time>
      </trkpt>
      <trkpt lat="48.37859" lon="-4.75999">
        <ele>29</ele>
        <time>2020-06-08T19:41:56Z</time>
      </trkpt>
      <trkpt lat="48.37865" lon="-4.75994">
        <ele>28.9</ele>
        <time>2020-06-08T19:41:57Z</time>
      </trkpt>
      <trkpt lat="48.3787" lon="-4.7599">
        <ele>28.9</ele>
        <time>2020-06-08T19:41:58Z</time>
      </trkpt>
      <trkpt lat="48.37875" lon="-4.75986">
        <ele>28.9</ele>
        <time>2020-06-08T19:41:59Z</time>
      </trkpt>
      <trkpt lat="48.37881" lon="-4.75984">
        <ele>28.9</ele>
        <time>2020-06-08T19:42:00Z</time>
      </trkpt>
      <trkpt lat="48.37886" lon="-4.7598">
        <ele>28.8</ele>
        <time>2020-06-08T19:42:01Z</time>
      </trkpt>
      <trkpt lat="48.37891" lon="-4.75977">
        <ele>28.8</ele>
        <time>2020-06-08T19:42:02Z</time>
      </trkpt>
      <trkpt lat="48.37896" lon="-4.75975">
        <ele>28.8</ele>
        <time>2020-06-08T19:42:03Z</time>
      </trkpt>
      <trkpt lat="48.37901" lon="-4.75974">
        <ele>28.8</ele>
        <time>2020-06-08T19:42:04Z</time>
      </trkpt>
      <trkpt lat="48.37907" lon="-4.75973">
        <ele>28.7</ele>
        <time>2020-06-08T19:42:05Z</time>
      </trkpt>
      <trkpt lat="48.37913" lon="-4.75973">
        <ele>28.7</ele>
        <time>2020-06-08T19:42:06Z</time>
      </trkpt>
      <trkpt lat="48.37918" lon="-4.75973">
        <ele>28.6</ele>
        <time>2020-06-08T19:42:07Z</time>
      </trkpt>
      <trkpt lat="48.37924" lon="-4.75975">
        <ele>28.5</ele>
        <time>2020-06-08T19:42:08Z</time>
      </trkpt>
      <trkpt lat="48.3793" lon="-4.75976">
        <ele>28.4</ele>
        <time>2020-06-08T19:42:09Z</time>
      </trkpt>
      <trkpt lat="48.37936" lon="-4.75976">
        <ele>28.2</ele>
        <time>2020-06-08T19:42:10Z</time>
      </trkpt>
      <trkpt lat="48.37942" lon="-4.75977">
        <ele>28.1</ele>
        <time>2020-06-08T19:42:11Z</time>
      </trkpt>
      <trkpt lat="48.37948" lon="-4.75978">
        <ele>28.1</ele>
        <time>2020-06-08T19:42:12Z</time>
      </trkpt>
      <trkpt lat="48.37955" lon="-4.75977">
        <ele>28</ele>
        <time>2020-06-08T19:42:13Z</time>
      </trkpt>
      <trkpt lat="48.37961" lon="-4.75977">
        <ele>28</ele>
        <time>2020-06-08T19:42:14Z</time>
      </trkpt>
      <trkpt lat="48.37967" lon="-4.75979">
        <ele>28.1</ele>
        <time>2020-06-08T19:42:15Z</time>
      </trkpt>
      <trkpt lat="48.37973" lon="-4.75981">
        <ele>28.2</ele>
        <time>2020-06-08T19:42:16Z</time>
      </trkpt>
      <trkpt lat="48.37979" lon="-4.75981">
        <ele>28.4</ele>
        <time>2020-06-08T19:42:17Z</time>
      </trkpt>
      <trkpt lat="48.37984" lon="-4.75982">
        <ele>28.5</ele>
        <time>2020-06-08T19:42:18Z</time>
      </trkpt>
      <trkpt lat="48.3799" lon="-4.75983">
        <ele>28.7</ele>
        <time>2020-06-08T19:42:19Z</time>
      </trkpt>
      <trkpt lat="48.37995" lon="-4.75982">
        <ele>28.9</ele>
        <time>2020-06-08T19:42:20Z</time>
      </trkpt>
      <trkpt lat="48.38" lon="-4.75983">
        <ele>29.1</ele>
        <time>2020-06-08T19:42:21Z</time>
      </trkpt>
      <trkpt lat="48.38005" lon="-4.75985">
        <ele>29.3</ele>
        <time>2020-06-08T19:42:22Z</time>
      </trkpt>
      <trkpt lat="48.38009" lon="-4.75986">
        <ele>29.5</ele>
        <time>2020-06-08T19:42:23Z</time>
      </trkpt>
      <trkpt lat="48.38013" lon="-4.75988">
        <ele>29.7</ele>
        <time>2020-06-08T19:42:24Z</time>
      </trkpt>
      <trkpt lat="48.38017" lon="-4.7599">
        <ele>29.8</ele>
        <time>2020-06-08T19:42:25Z</time>
      </trkpt>
      <trkpt lat="48.3802" lon="-4.75992">
        <ele>29.9</ele>
        <time>2020-06-08T19:42:26Z</time>
      </trkpt>
      <trkpt lat="48.38023" lon="-4.75996">
        <ele>30.1</ele>
        <time>2020-06-08T19:42:27Z</time>
      </trkpt>
      <trkpt lat="48.38027" lon="-4.75998">
        <ele>30.2</ele>
        <time>2020-06-08T19:42:28Z</time>
      </trkpt>
      <trkpt lat="48.3803" lon="-4.76">
        <ele>30.3</ele>
        <time>2020-06-08T19:42:29Z</time>
      </trkpt>
      <trkpt lat="48.38034" lon="-4.76002">
        <ele>30.5</ele>
        <time>2020-06-08T19:42:30Z</time>
      </trkpt>
      <trkpt lat="48.38038" lon="-4.76005">
        <ele>30.6</ele>
        <time>2020-06-08T19:42:31Z</time>
      </trkpt>
      <trkpt lat="48.38041" lon="-4.76007">
        <ele>30.7</ele>
        <time>2020-06-08T19:42:32Z</time>
      </trkpt>
      <trkpt lat="48.38045" lon="-4.7601">
        <ele>30.8</ele>
        <time>2020-06-08T19:42:33Z</time>
      </trkpt>
      <trkpt lat="48.38048" lon="-4.76013">
        <ele>30.9</ele>
        <time>2020-06-08T19:42:34Z</time>
      </trkpt>
      <trkpt lat="48.38051" lon="-4.76018">
        <ele>30.9</ele>
        <time>2020-06-08T19:42:35Z</time>
      </trkpt>
      <trkpt lat="48.38054" lon="-4.76022">
        <ele>31</ele>
        <time>2020-06-08T19:42:36Z</time>
      </trkpt>
      <trkpt lat="48.38057" lon="-4.76026">
        <ele>31</ele>
        <time>2020-06-08T19:42:37Z</time>
      </trkpt>
      <trkpt lat="48.38061" lon="-4.76029">
        <ele>31</ele>
        <time>2020-06-08T19:42:38Z</time>
      </trkpt>
      <trkpt lat="48.38064" lon="-4.76033">
        <ele>31</ele>
        <time>2020-06-08T19:42:39Z</time>
      </trkpt>
      <trkpt lat="48.38067" lon="-4.76038">
        <ele>31</ele>
        <time>2020-06-08T19:42:40Z</time>
      </trkpt>
      <trkpt lat="48.3807" lon="-4.76041">
        <ele>30.9</ele>
        <time>2020-06-08T19:42:41Z</time>
      </trkpt>
      <trkpt lat="48.38073" lon="-4.76044">
        <ele>30.8</ele>
        <time>2020-06-08T19:42:42Z</time>
      </trkpt>
      <trkpt lat="48.38076" lon="-4.76047">
        <ele>30.8</ele>
        <time>2020-06-08T19:42:43Z</time>
      </trkpt>
      <trkpt lat="48.38079" lon="-4.76051">
        <ele>30.7</ele>
        <time>2020-06-08T19:42:44Z</time>
      </trkpt>
      <trkpt lat="48.38082" lon="-4.76053">
        <ele>30.7</ele>
        <time>2020-06-08T19:42:45Z</time>
      </trkpt>
      <trkpt lat="48.38085" lon="-4.76058">
        <ele>30.6</ele>
        <time>2020-06-08T19:42:46Z</time>
      </trkpt>
      <trkpt lat="48.38089" lon="-4.76062">
        <ele>30.4</ele>
        <time>2020-06-08T19:42:47Z</time>
      </trkpt>
      <trkpt lat="48.38093" lon="-4.76066">
        <ele>30.2</ele>
        <time>2020-06-08T19:42:48Z</time>
      </trkpt>
      <trkpt lat="48.38098" lon="-4.7607">
        <ele>29.9</ele>
        <time>2020-06-08T19:42:49Z</time>
      </trkpt>
      <trkpt lat="48.38103" lon="-4.76075">
        <ele>29.3</ele>
        <time>2020-06-08T19:42:50Z</time>
      </trkpt>
      <trkpt lat="48.38108" lon="-4.76083">
        <ele>28.4</ele>
        <time>2020-06-08T19:42:51Z</time>
      </trkpt>
      <trkpt lat="48.38112" lon="-4.76092">
        <ele>27.5</ele>
        <time>2020-06-08T19:42:52Z</time>
      </trkpt>
      <trkpt lat="48.38117" lon="-4.76102">
        <ele>26.4</ele>
        <time>2020-06-08T19:42:53Z</time>
      </trkpt>
      <trkpt lat="48.38121" lon="-4.76113">
        <ele>25.3</ele>
        <time>2020-06-08T19:42:54Z</time>
      </trkpt>
      <trkpt lat="48.3812" lon="-4.76128">
        <ele>24</ele>
        <time>2020-06-08T19:42:55Z</time>
      </trkpt>
      <trkpt lat="48.38123" lon="-4.76139">
        <ele>22.9</ele>
        <time>2020-06-08T19:42:56Z</time>
      </trkpt>
      <trkpt lat="48.38126" lon="-4.76151">
        <ele>21.7</ele>
        <time>2020-06-08T19:42:57Z</time>
      </trkpt>
      <trkpt lat="48.38129" lon="-4.76162">
        <ele>20.6</ele>
        <time>2020-06-08T19:42:58Z</time>
      </trkpt>
      <trkpt lat="48.38132" lon="-4.76172">
        <ele>19.6</ele>
        <time>2020-06-08T19:42:59Z</time>
      </trkpt>
      <trkpt lat="48.38134" lon="-4.76182">
        <ele>18.6</ele>
        <time>2020-06-08T19:43:00Z</time>
      </trkpt>
      <trkpt lat="48.38137" lon="-4.76191">
        <ele>17.7</ele>
        <time>2020-06-08T19:43:01Z</time>
      </trkpt>
      <trkpt lat="48.38139" lon="-4.762">
        <ele>16.9</ele>
        <time>2020-06-08T19:43:02Z</time>
      </trkpt>
      <trkpt lat="48.38142" lon="-4.76209">
        <ele>16.1</ele>
        <time>2020-06-08T19:43:03Z</time>
      </trkpt>
      <trkpt lat="48.38144" lon="-4.76217">
        <ele>15.2</ele>
        <time>2020-06-08T19:43:04Z</time>
      </trkpt>
      <trkpt lat="48.38146" lon="-4.76225">
        <ele>14.5</ele>
        <time>2020-06-08T19:43:05Z</time>
      </trkpt>
      <trkpt lat="48.38149" lon="-4.76233">
        <ele>13.7</ele>
        <time>2020-06-08T19:43:06Z</time>
      </trkpt>
      <trkpt lat="48.3815" lon="-4.76241">
        <ele>12.9</ele>
        <time>2020-06-08T19:43:07Z</time>
      </trkpt>
      <trkpt lat="48.38152" lon="-4.76248">
        <ele>12.3</ele>
        <time>2020-06-08T19:43:08Z</time>
      </trkpt>
      <trkpt lat="48.38153" lon="-4.76253">
        <ele>11.8</ele>
        <time>2020-06-08T19:43:09Z</time>
      </trkpt>
      <trkpt lat="48.38155" lon="-4.76257">
        <ele>11.4</ele>
        <time>2020-06-08T19:43:10Z</time>
      </trkpt>
      <trkpt lat="48.38157" lon="-4.76259">
        <ele>11</ele>
        <time>2020-06-08T19:43:11Z</time>
      </trkpt>
      <trkpt lat="48.38161" lon="-4.76258">
        <ele>10.5</ele>
        <time>2020-06-08T19:43:12Z</time>
      </trkpt>
      <trkpt lat="48.38165" lon="-4.76253">
        <ele>10</ele>
        <time>2020-06-08T19:43:13Z</time>
      </trkpt>
      <trkpt lat="48.3817" lon="-4.76247">
        <ele>9.5</ele>
        <time>2020-06-08T19:43:14Z</time>
      </trkpt>
      <trkpt lat="48.38176" lon="-4.7624">
        <ele>9.1</ele>
        <time>2020-06-08T19:43:15Z</time>
      </trkpt>
      <trkpt lat="48.3818" lon="-4.76231">
        <ele>8.7</ele>
        <time>2020-06-08T19:43:16Z</time>
      </trkpt>
      <trkpt lat="48.38185" lon="-4.76223">
        <ele>8.4</ele>
        <time>2020-06-08T19:43:17Z</time>
      </trkpt>
      <trkpt lat="48.38191" lon="-4.76216">
        <ele>8.1</ele>
        <time>2020-06-08T19:43:18Z</time>
      </trkpt>
      <trkpt lat="48.38196" lon="-4.76209">
        <ele>7.8</ele>
        <time>2020-06-08T19:43:19Z</time>
      </trkpt>
      <trkpt lat="48.38201" lon="-4.76204">
        <ele>7.6</ele>
        <time>2020-06-08T19:43:20Z</time>
      </trkpt>
      <trkpt lat="48.38206" lon="-4.76199">
        <ele>7.4</ele>
        <time>2020-06-08T19:43:21Z</time>
      </trkpt>
      <trkpt lat="48.3821" lon="-4.76196">
        <ele>7.3</ele>
        <time>2020-06-08T19:43:22Z</time>
      </trkpt>
      <trkpt lat="48.38215" lon="-4.76193">
        <ele>7.3</ele>
        <time>2020-06-08T19:43:23Z</time>
      </trkpt>
      <trkpt lat="48.38219" lon="-4.76191">
        <ele>7.3</ele>
        <time>2020-06-08T19:43:24Z</time>
      </trkpt>
      <trkpt lat="48.38223" lon="-4.76189">
        <ele>7.3</ele>
        <time>2020-06-08T19:43:25Z</time>
      </trkpt>
      <trkpt lat="48.38227" lon="-4.76186">
        <ele>7.4</ele>
        <time>2020-06-08T19:43:26Z</time>
      </trkpt>
      <trkpt lat="48.3823" lon="-4.76184">
        <ele>7.4</ele>
        <time>2020-06-08T19:43:27Z</time>
      </trkpt>
      <trkpt lat="48.38233" lon="-4.76183">
        <ele>7.4</ele>
        <time>2020-06-08T19:43:28Z</time>
      </trkpt>
      <trkpt lat="48.38237" lon="-4.76183">
        <ele>7.5</ele>
        <time>2020-06-08T19:43:29Z</time>
      </trkpt>
      <trkpt lat="48.3824" lon="-4.76181">
        <ele>7.5</ele>
        <time>2020-06-08T19:43:30Z</time>
      </trkpt>
      <trkpt lat="48.38243" lon="-4.76179">
        <ele>7.7</ele>
        <time>2020-06-08T19:43:31Z</time>
      </trkpt>
      <trkpt lat="48.38246" lon="-4.76178">
        <ele>7.9</ele>
        <time>2020-06-08T19:43:32Z</time>
      </trkpt>
      <trkpt lat="48.38249" lon="-4.76178">
        <ele>8</ele>
        <time>2020-06-08T19:43:33Z</time>
      </trkpt>
      <trkpt lat="48.38252" lon="-4.76178">
        <ele>8.2</ele>
        <time>2020-06-08T19:43:34Z</time>
      </trkpt>
      <trkpt lat="48.38255" lon="-4.76178">
        <ele>8.3</ele>
        <time>2020-06-08T19:43:35Z</time>
      </trkpt>
      <trkpt lat="48.38258" lon="-4.76177">
        <ele>8.5</ele>
        <time>2020-06-08T19:43:36Z</time>
      </trkpt>
      <trkpt lat="48.38261" lon="-4.76176">
        <ele>8.6</ele>
        <time>2020-06-08T19:43:37Z</time>
      </trkpt>
      <trkpt lat="48.38263" lon="-4.76175">
        <ele>8.8</ele>
        <time>2020-06-08T19:43:38Z</time>
      </trkpt>
      <trkpt lat="48.38266" lon="-4.76172">
        <ele>8.9</ele>
        <time>2020-06-08T19:43:39Z</time>
      </trkpt>
      <trkpt lat="48.3827" lon="-4.76171">
        <ele>9.1</ele>
        <time>2020-06-08T19:43:40Z</time>
      </trkpt>
      <trkpt lat="48.38271" lon="-4.7617">
        <ele>9.2</ele>
        <time>2020-06-08T19:43:41Z</time>
      </trkpt>
      <trkpt lat="48.38274" lon="-4.76168">
        <ele>9.4</ele>
        <time>2020-06-08T19:43:42Z</time>
      </trkpt>
      <trkpt lat="48.38277" lon="-4.76168">
        <ele>9.5</ele>
        <time>2020-06-08T19:43:43Z</time>
      </trkpt>
      <trkpt lat="48.38279" lon="-4.76167">
        <ele>9.7</ele>
        <time>2020-06-08T19:43:44Z</time>
      </trkpt>
      <trkpt lat="48.38282" lon="-4.76166">
        <ele>9.8</ele>
        <time>2020-06-08T19:43:45Z</time>
      </trkpt>
      <trkpt lat="48.38285" lon="-4.76166">
        <ele>10</ele>
        <time>2020-06-08T19:43:46Z</time>
      </trkpt>
      <trkpt lat="48.38288" lon="-4.76163">
        <ele>10.2</ele>
        <time>2020-06-08T19:43:47Z</time>
      </trkpt>
      <trkpt lat="48.38288" lon="-4.76162">
        <ele>10.2</ele>
        <time>2020-06-08T19:43:48Z</time>
      </trkpt>
      <trkpt lat="48.38292" lon="-4.76163">
        <ele>10.3</ele>
        <time>2020-06-08T19:43:49Z</time>
      </trkpt>
      <trkpt lat="48.38293" lon="-4.76164">
        <ele>10.4</ele>
        <time>2020-06-08T19:43:50Z</time>
      </trkpt>
      <trkpt lat="48.38296" lon="-4.76161">
        <ele>10.5</ele>
        <time>2020-06-08T19:43:51Z</time>
      </trkpt>
      <trkpt lat="48.38297" lon="-4.76161">
        <ele>10.6</ele>
        <time>2020-06-08T19:43:52Z</time>
      </trkpt>
      <trkpt lat="48.38301" lon="-4.76163">
        <ele>10.7</ele>
        <time>2020-06-08T19:43:53Z</time>
      </trkpt>
      <trkpt lat="48.38302" lon="-4.76163">
        <ele>10.8</ele>
        <time>2020-06-08T19:43:54Z</time>
      </trkpt>
      <trkpt lat="48.38304" lon="-4.76163">
        <ele>11.1</ele>
        <time>2020-06-08T19:43:55Z</time>
      </trkpt>
      <trkpt lat="48.38305" lon="-4.76165">
        <ele>11.2</ele>
        <time>2020-06-08T19:43:56Z</time>
      </trkpt>
      <trkpt lat="48.38308" lon="-4.76166">
        <ele>11.4</ele>
        <time>2020-06-08T19:43:57Z</time>
      </trkpt>
      <trkpt lat="48.38309" lon="-4.76167">
        <ele>11.4</ele>
        <time>2020-06-08T19:43:58Z</time>
      </trkpt>
      <trkpt lat="48.38311" lon="-4.7617">
        <ele>11.6</ele>
        <time>2020-06-08T19:43:59Z</time>
      </trkpt>
      <trkpt lat="48.38312" lon="-4.76171">
        <ele>11.6</ele>
        <time>2020-06-08T19:44:00Z</time>
      </trkpt>
      <trkpt lat="48.38314" lon="-4.76173">
        <ele>11.8</ele>
        <time>2020-06-08T19:44:01Z</time>
      </trkpt>
      <trkpt lat="48.38315" lon="-4.76174">
        <ele>11.8</ele>
        <time>2020-06-08T19:44:02Z</time>
      </trkpt>
      <trkpt lat="48.38317" lon="-4.76177">
        <ele>12</ele>
        <time>2020-06-08T19:44:03Z</time>
      </trkpt>
      <trkpt lat="48.38318" lon="-4.76178">
        <ele>12</ele>
        <time>2020-06-08T19:44:04Z</time>
      </trkpt>
      <trkpt lat="48.3832" lon="-4.76182">
        <ele>12.2</ele>
        <time>2020-06-08T19:44:05Z</time>
      </trkpt>
      <trkpt lat="48.3832" lon="-4.76184">
        <ele>12.3</ele>
        <time>2020-06-08T19:44:06Z</time>
      </trkpt>
      <trkpt lat="48.38322" lon="-4.76188">
        <ele>12.4</ele>
        <time>2020-06-08T19:44:07Z</time>
      </trkpt>
      <trkpt lat="48.38323" lon="-4.76189">
        <ele>12.5</ele>
        <time>2020-06-08T19:44:08Z</time>
      </trkpt>
      <trkpt lat="48.38326" lon="-4.76191">
        <ele>12.6</ele>
        <time>2020-06-08T19:44:09Z</time>
      </trkpt>
      <trkpt lat="48.38326" lon="-4.76192">
        <ele>12.7</ele>
        <time>2020-06-08T19:44:10Z</time>
      </trkpt>
      <trkpt lat="48.38329" lon="-4.76193">
        <ele>12.9</ele>
        <time>2020-06-08T19:44:11Z</time>
      </trkpt>
      <trkpt lat="48.3833" lon="-4.76194">
        <ele>12.9</ele>
        <time>2020-06-08T19:44:12Z</time>
      </trkpt>
      <trkpt lat="48.38332" lon="-4.76194">
        <ele>13.2</ele>
        <time>2020-06-08T19:44:13Z</time>
      </trkpt>
      <trkpt lat="48.38333" lon="-4.76197">
        <ele>13.3</ele>
        <time>2020-06-08T19:44:14Z</time>
      </trkpt>
      <trkpt lat="48.38333" lon="-4.762">
        <ele>13.5</ele>
        <time>2020-06-08T19:44:15Z</time>
      </trkpt>
      <trkpt lat="48.38335" lon="-4.76201">
        <ele>13.7</ele>
        <time>2020-06-08T19:44:16Z</time>
      </trkpt>
      <trkpt lat="48.38336" lon="-4.76203">
        <ele>13.9</ele>
        <time>2020-06-08T19:44:17Z</time>
      </trkpt>
      <trkpt lat="48.38337" lon="-4.76204">
        <ele>14.1</ele>
        <time>2020-06-08T19:44:18Z</time>
      </trkpt>
      <trkpt lat="48.38339" lon="-4.76205">
        <ele>14.2</ele>
        <time>2020-06-08T19:44:19Z</time>
      </trkpt>
      <trkpt lat="48.3834" lon="-4.76206">
        <ele>14.4</ele>
        <time>2020-06-08T19:44:20Z</time>
      </trkpt>
      <trkpt lat="48.38342" lon="-4.76207">
        <ele>14.6</ele>
        <time>2020-06-08T19:44:21Z</time>
      </trkpt>
      <trkpt lat="48.38343" lon="-4.76209">
        <ele>14.8</ele>
        <time>2020-06-08T19:44:22Z</time>
      </trkpt>
      <trkpt lat="48.38345" lon="-4.76211">
        <ele>15</ele>
        <time>2020-06-08T19:44:23Z</time>
      </trkpt>
      <trkpt lat="48.38345" lon="-4.76213">
        <ele>15.2</ele>
        <time>2020-06-08T19:44:24Z</time>
      </trkpt>
      <trkpt lat="48.38346" lon="-4.76214">
        <ele>15.4</ele>
        <time>2020-06-08T19:44:25Z</time>
      </trkpt>
      <trkpt lat="48.38347" lon="-4.76216">
        <ele>15.6</ele>
        <time>2020-06-08T19:44:26Z</time>
      </trkpt>
      <trkpt lat="48.38348" lon="-4.76218">
        <ele>15.8</ele>
        <time>2020-06-08T19:44:27Z</time>
      </trkpt>
      <trkpt lat="48.38349" lon="-4.76219">
        <ele>16</ele>
        <time>2020-06-08T19:44:28Z</time>
      </trkpt>
      <trkpt lat="48.3835" lon="-4.7622">
        <ele>16.2</ele>
        <time>2020-06-08T19:44:29Z</time>
      </trkpt>
      <trkpt lat="48.38351" lon="-4.76222">
        <ele>16.4</ele>
        <time>2020-06-08T19:44:30Z</time>
      </trkpt>
      <trkpt lat="48.38352" lon="-4.76221">
        <ele>16.6</ele>
        <time>2020-06-08T19:44:31Z</time>
      </trkpt>
      <trkpt lat="48.38354" lon="-4.76221">
        <ele>16.8</ele>
        <time>2020-06-08T19:44:32Z</time>
      </trkpt>
      <trkpt lat="48.38356" lon="-4.76221">
        <ele>17.1</ele>
        <time>2020-06-08T19:44:33Z</time>
      </trkpt>
      <trkpt lat="48.38357" lon="-4.76222">
        <ele>17.3</ele>
        <time>2020-06-08T19:44:34Z</time>
      </trkpt>
      <trkpt lat="48.38358" lon="-4.76224">
        <ele>17.5</ele>
        <time>2020-06-08T19:44:35Z</time>
      </trkpt>
      <trkpt lat="48.38359" lon="-4.76225">
        <ele>17.7</ele>
        <time>2020-06-08T19:44:36Z</time>
      </trkpt>
      <trkpt lat="48.3836" lon="-4.76225">
        <ele>17.9</ele>
        <time>2020-06-08T19:44:37Z</time>
      </trkpt>
      <trkpt lat="48.38361" lon="-4.76226">
        <ele>18.1</ele>
        <time>2020-06-08T19:44:38Z</time>
      </trkpt>
      <trkpt lat="48.38363" lon="-4.76227">
        <ele>18.4</ele>
        <time>2020-06-08T19:44:39Z</time>
      </trkpt>
      <trkpt lat="48.38364" lon="-4.76228">
        <ele>18.7</ele>
        <time>2020-06-08T19:44:40Z</time>
      </trkpt>
      <trkpt lat="48.38366" lon="-4.76228">
        <ele>18.9</ele>
        <time>2020-06-08T19:44:41Z</time>
      </trkpt>
      <trkpt lat="48.38367" lon="-4.76229">
        <ele>19.1</ele>
        <time>2020-06-08T19:44:42Z</time>
      </trkpt>
      <trkpt lat="48.38368" lon="-4.7623">
        <ele>19.4</ele>
        <time>2020-06-08T19:44:43Z</time>
      </trkpt>
      <trkpt lat="48.3837" lon="-4.7623">
        <ele>19.6</ele>
        <time>2020-06-08T19:44:44Z</time>
      </trkpt>
      <trkpt lat="48.38371" lon="-4.76228">
        <ele>19.8</ele>
        <time>2020-06-08T19:44:45Z</time>
      </trkpt>
      <trkpt lat="48.38373" lon="-4.76228">
        <ele>20.1</ele>
        <time>2020-06-08T19:44:46Z</time>
      </trkpt>
      <trkpt lat="48.38374" lon="-4.76227">
        <ele>20.3</ele>
        <time>2020-06-08T19:44:47Z</time>
      </trkpt>
      <trkpt lat="48.38375" lon="-4.76227">
        <ele>20.5</ele>
        <time>2020-06-08T19:44:48Z</time>
      </trkpt>
      <trkpt lat="48.38376" lon="-4.76227">
        <ele>20.6</ele>
        <time>2020-06-08T19:44:49Z</time>
      </trkpt>
      <trkpt lat="48.38377" lon="-4.76228">
        <ele>20.9</ele>
        <time>2020-06-08T19:44:50Z</time>
      </trkpt>
      <trkpt lat="48.38379" lon="-4.7623">
        <ele>21.4</ele>
        <time>2020-06-08T19:44:51Z</time>
      </trkpt>
      <trkpt lat="48.3838" lon="-4.7623">
        <ele>21.5</ele>
        <time>2020-06-08T19:44:52Z</time>
      </trkpt>
      <trkpt lat="48.38382" lon="-4.76229">
        <ele>21.9</ele>
        <time>2020-06-08T19:44:53Z</time>
      </trkpt>
      <trkpt lat="48.38383" lon="-4.76228">
        <ele>22.1</ele>
        <time>2020-06-08T19:44:54Z</time>
      </trkpt>
      <trkpt lat="48.38384" lon="-4.76227">
        <ele>22.3</ele>
        <time>2020-06-08T19:44:55Z</time>
      </trkpt>
      <trkpt lat="48.38386" lon="-4.76224">
        <ele>22.8</ele>
        <time>2020-06-08T19:44:56Z</time>
      </trkpt>
      <trkpt lat="48.38387" lon="-4.76223">
        <ele>23</ele>
        <time>2020-06-08T19:44:57Z</time>
      </trkpt>
      <trkpt lat="48.38388" lon="-4.76222">
        <ele>23.3</ele>
        <time>2020-06-08T19:44:58Z</time>
      </trkpt>
      <trkpt lat="48.3839" lon="-4.76223">
        <ele>23.6</ele>
        <time>2020-06-08T19:44:59Z</time>
      </trkpt>
      <trkpt lat="48.38391" lon="-4.76223">
        <ele>23.8</ele>
        <time>2020-06-08T19:45:00Z</time>
      </trkpt>
      <trkpt lat="48.38392" lon="-4.76224">
        <ele>24</ele>
        <time>2020-06-08T19:45:01Z</time>
      </trkpt>
      <trkpt lat="48.38393" lon="-4.76223">
        <ele>24.3</ele>
        <time>2020-06-08T19:45:02Z</time>
      </trkpt>
      <trkpt lat="48.38395" lon="-4.76222">
        <ele>24.6</ele>
        <time>2020-06-08T19:45:03Z</time>
      </trkpt>
      <trkpt lat="48.38396" lon="-4.76222">
        <ele>24.8</ele>
        <time>2020-06-08T19:45:04Z</time>
      </trkpt>
      <trkpt lat="48.38397" lon="-4.76222">
        <ele>24.9</ele>
        <time>2020-06-08T19:45:05Z</time>
      </trkpt>
      <trkpt lat="48.38398" lon="-4.76221">
        <ele>25.2</ele>
        <time>2020-06-08T19:45:06Z</time>
      </trkpt>
      <trkpt lat="48.38399" lon="-4.76221">
        <ele>25.4</ele>
        <time>2020-06-08T19:45:07Z</time>
      </trkpt>
      <trkpt lat="48.384" lon="-4.76221">
        <ele>25.6</ele>
        <time>2020-06-08T19:45:08Z</time>
      </trkpt>
      <trkpt lat="48.38402" lon="-4.76219">
        <ele>26</ele>
        <time>2020-06-08T19:45:09Z</time>
      </trkpt>
      <trkpt lat="48.38403" lon="-4.76218">
        <ele>26.1</ele>
        <time>2020-06-08T19:45:10Z</time>
      </trkpt>
      <trkpt lat="48.38403" lon="-4.76218">
        <ele>26.3</ele>
        <time>2020-06-08T19:45:11Z</time>
      </trkpt>
      <trkpt lat="48.38405" lon="-4.76218">
        <ele>26.5</ele>
        <time>2020-06-08T19:45:12Z</time>
      </trkpt>
      <trkpt lat="48.38406" lon="-4.76216">
        <ele>26.8</ele>
        <time>2020-06-08T19:45:13Z</time>
      </trkpt>
      <trkpt lat="48.38407" lon="-4.76215">
        <ele>27</ele>
        <time>2020-06-08T19:45:14Z</time>
      </trkpt>
      <trkpt lat="48.38408" lon="-4.76215">
        <ele>27.2</ele>
        <time>2020-06-08T19:45:15Z</time>
      </trkpt>
      <trkpt lat="48.38409" lon="-4.76214">
        <ele>27.3</ele>
        <time>2020-06-08T19:45:16Z</time>
      </trkpt>
      <trkpt lat="48.38411" lon="-4.76214">
        <ele>27.6</ele>
        <time>2020-06-08T19:45:17Z</time>
      </trkpt>
      <trkpt lat="48.38412" lon="-4.76214">
        <ele>27.9</ele>
        <time>2020-06-08T19:45:18Z</time>
      </trkpt>
      <trkpt lat="48.38414" lon="-4.76213">
        <ele>28.2</ele>
        <time>2020-06-08T19:45:19Z</time>
      </trkpt>
      <trkpt lat="48.38415" lon="-4.76212">
        <ele>28.4</ele>
        <time>2020-06-08T19:45:20Z</time>
      </trkpt>
      <trkpt lat="48.38418" lon="-4.76211">
        <ele>28.7</ele>
        <time>2020-06-08T19:45:21Z</time>
      </trkpt>
      <trkpt lat="48.38418" lon="-4.76211">
        <ele>28.8</ele>
        <time>2020-06-08T19:45:22Z</time>
      </trkpt>
      <trkpt lat="48.38419" lon="-4.76212">
        <ele>29</ele>
        <time>2020-06-08T19:45:23Z</time>
      </trkpt>
      <trkpt lat="48.38421" lon="-4.76213">
        <ele>29.3</ele>
        <time>2020-06-08T19:45:24Z</time>
      </trkpt>
      <trkpt lat="48.38423" lon="-4.76214">
        <ele>29.6</ele>
        <time>2020-06-08T19:45:25Z</time>
      </trkpt>
      <trkpt lat="48.38424" lon="-4.76214">
        <ele>29.8</ele>
        <time>2020-06-08T19:45:26Z</time>
      </trkpt>
      <trkpt lat="48.38427" lon="-4.76213">
        <ele>30.2</ele>
        <time>2020-06-08T19:45:27Z</time>
      </trkpt>
      <trkpt lat="48.38428" lon="-4.76213">
        <ele>30.3</ele>
        <time>2020-06-08T19:45:28Z</time>
      </trkpt>
      <trkpt lat="48.38429" lon="-4.76211">
        <ele>30.6</ele>
        <time>2020-06-08T19:45:29Z</time>
      </trkpt>
      <trkpt lat="48.38431" lon="-4.7621">
        <ele>30.8</ele>
        <time>2020-06-08T19:45:30Z</time>
      </trkpt>
      <trkpt lat="48.38431" lon="-4.76209">
        <ele>30.9</ele>
        <time>2020-06-08T19:45:31Z</time>
      </trkpt>
      <trkpt lat="48.38432" lon="-4.76209">
        <ele>31</ele>
        <time>2020-06-08T19:45:32Z</time>
      </trkpt>
      <trkpt lat="48.38433" lon="-4.76209">
        <ele>31.2</ele>
        <time>2020-06-08T19:45:33Z</time>
      </trkpt>
      <trkpt lat="48.38435" lon="-4.76209">
        <ele>31.4</ele>
        <time>2020-06-08T19:45:34Z</time>
      </trkpt>
      <trkpt lat="48.38436" lon="-4.76209">
        <ele>31.6</ele>
        <time>2020-06-08T19:45:35Z</time>
      </trkpt>
      <trkpt lat="48.38439" lon="-4.7621">
        <ele>31.9</ele>
        <time>2020-06-08T19:45:36Z</time>
      </trkpt>
      <trkpt lat="48.3844" lon="-4.7621">
        <ele>32</ele>
        <time>2020-06-08T19:45:37Z</time>
      </trkpt>
      <trkpt lat="48.3844" lon="-4.76209">
        <ele>32.1</ele>
        <time>2020-06-08T19:45:38Z</time>
      </trkpt>
      <trkpt lat="48.38443" lon="-4.76209">
        <ele>32.6</ele>
        <time>2020-06-08T19:45:39Z</time>
      </trkpt>
      <trkpt lat="48.38444" lon="-4.76209">
        <ele>32.7</ele>
        <time>2020-06-08T19:45:40Z</time>
      </trkpt>
      <trkpt lat="48.38447" lon="-4.7621">
        <ele>33</ele>
        <time>2020-06-08T19:45:41Z</time>
      </trkpt>
      <trkpt lat="48.38448" lon="-4.76211">
        <ele>33.1</ele>
        <time>2020-06-08T19:45:42Z</time>
      </trkpt>
      <trkpt lat="48.38449" lon="-4.76211">
        <ele>33.3</ele>
        <time>2020-06-08T19:45:43Z</time>
      </trkpt>
      <trkpt lat="48.3845" lon="-4.76212">
        <ele>33.4</ele>
        <time>2020-06-08T19:45:44Z</time>
      </trkpt>
      <trkpt lat="48.38452" lon="-4.76212">
        <ele>33.7</ele>
        <time>2020-06-08T19:45:45Z</time>
      </trkpt>
      <trkpt lat="48.38453" lon="-4.7621">
        <ele>33.9</ele>
        <time>2020-06-08T19:45:46Z</time>
      </trkpt>
      <trkpt lat="48.38454" lon="-4.76209">
        <ele>34</ele>
        <time>2020-06-08T19:45:47Z</time>
      </trkpt>
      <trkpt lat="48.38456" lon="-4.76209">
        <ele>34.2</ele>
        <time>2020-06-08T19:45:48Z</time>
      </trkpt>
      <trkpt lat="48.38457" lon="-4.76208">
        <ele>34.3</ele>
        <time>2020-06-08T19:45:49Z</time>
      </trkpt>
      <trkpt lat="48.38458" lon="-4.76207">
        <ele>34.5</ele>
        <time>2020-06-08T19:45:50Z</time>
      </trkpt>
      <trkpt lat="48.38459" lon="-4.76207">
        <ele>34.7</ele>
        <time>2020-06-08T19:45:51Z</time>
      </trkpt>
      <trkpt lat="48.38461" lon="-4.76207">
        <ele>34.8</ele>
        <time>2020-06-08T19:45:52Z</time>
      </trkpt>
      <trkpt lat="48.38462" lon="-4.76207">
        <ele>34.9</ele>
        <time>2020-06-08T19:45:53Z</time>
      </trkpt>
      <trkpt lat="48.38464" lon="-4.76207">
        <ele>35.1</ele>
        <time>2020-06-08T19:45:54Z</time>
      </trkpt>
      <trkpt lat="48.38465" lon="-4.76207">
        <ele>35.3</ele>
        <time>2020-06-08T19:45:55Z</time>
      </trkpt>
      <trkpt lat="48.38466" lon="-4.76208">
        <ele>35.4</ele>
        <time>2020-06-08T19:45:56Z</time>
      </trkpt>
      <trkpt lat="48.38467" lon="-4.76208">
        <ele>35.5</ele>
        <time>2020-06-08T19:45:57Z</time>
      </trkpt>
      <trkpt lat="48.38469" lon="-4.76207">
        <ele>35.6</ele>
        <time>2020-06-08T19:45:58Z</time>
      </trkpt>
      <trkpt lat="48.3847" lon="-4.76207">
        <ele>35.8</ele>
        <time>2020-06-08T19:45:59Z</time>
      </trkpt>
      <trkpt lat="48.38472" lon="-4.76206">
        <ele>36</ele>
        <time>2020-06-08T19:46:00Z</time>
      </trkpt>
      <trkpt lat="48.38473" lon="-4.76205">
        <ele>36.1</ele>
        <time>2020-06-08T19:46:01Z</time>
      </trkpt>
      <trkpt lat="48.38474" lon="-4.76205">
        <ele>36.2</ele>
        <time>2020-06-08T19:46:02Z</time>
      </trkpt>
      <trkpt lat="48.38476" lon="-4.76204">
        <ele>36.3</ele>
        <time>2020-06-08T19:46:03Z</time>
      </trkpt>
      <trkpt lat="48.38477" lon="-4.76204">
        <ele>36.4</ele>
        <time>2020-06-08T19:46:04Z</time>
      </trkpt>
      <trkpt lat="48.38479" lon="-4.76204">
        <ele>36.5</ele>
        <time>2020-06-08T19:46:05Z</time>
      </trkpt>
      <trkpt lat="48.3848" lon="-4.76204">
        <ele>36.6</ele>
        <time>2020-06-08T19:46:06Z</time>
      </trkpt>
      <trkpt lat="48.38481" lon="-4.76205">
        <ele>36.7</ele>
        <time>2020-06-08T19:46:07Z</time>
      </trkpt>
      <trkpt lat="48.38482" lon="-4.76205">
        <ele>36.8</ele>
        <time>2020-06-08T19:46:08Z</time>
      </trkpt>
      <trkpt lat="48.38484" lon="-4.76205">
        <ele>37</ele>
        <time>2020-06-08T19:46:09Z</time>
      </trkpt>
      <trkpt lat="48.38486" lon="-4.76205">
        <ele>37.1</ele>
        <time>2020-06-08T19:46:10Z</time>
      </trkpt>
      <trkpt lat="48.38487" lon="-4.76205">
        <ele>37.1</ele>
        <time>2020-06-08T19:46:11Z</time>
      </trkpt>
      <trkpt lat="48.38489" lon="-4.76204">
        <ele>37.2</ele>
        <time>2020-06-08T19:46:12Z</time>
      </trkpt>
      <trkpt lat="48.3849" lon="-4.76204">
        <ele>37.3</ele>
        <time>2020-06-08T19:46:13Z</time>
      </trkpt>
      <trkpt lat="48.38491" lon="-4.76204">
        <ele>37.4</ele>
        <time>2020-06-08T19:46:14Z</time>
      </trkpt>
      <trkpt lat="48.38493" lon="-4.76204">
        <ele>37.5</ele>
        <time>2020-06-08T19:46:15Z</time>
      </trkpt>
      <trkpt lat="48.38494" lon="-4.76204">
        <ele>37.5</ele>
        <time>2020-06-08T19:46:16Z</time>
      </trkpt>
      <trkpt lat="48.38495" lon="-4.76205">
        <ele>37.6</ele>
        <time>2020-06-08T19:46:17Z</time>
      </trkpt>
      <trkpt lat="48.38497" lon="-4.76206">
        <ele>37.7</ele>
        <time>2020-06-08T19:46:18Z</time>
      </trkpt>
      <trkpt lat="48.38499" lon="-4.76206">
        <ele>37.7</ele>
        <time>2020-06-08T19:46:19Z</time>
      </trkpt>
      <trkpt lat="48.385" lon="-4.76205">
        <ele>37.8</ele>
        <time>2020-06-08T19:46:20Z</time>
      </trkpt>
      <trkpt lat="48.38501" lon="-4.76206">
        <ele>37.8</ele>
        <time>2020-06-08T19:46:21Z</time>
      </trkpt>
      <trkpt lat="48.38503" lon="-4.76206">
        <ele>37.9</ele>
        <time>2020-06-08T19:46:22Z</time>
      </trkpt>
      <trkpt lat="48.38504" lon="-4.76205">
        <ele>37.9</ele>
        <time>2020-06-08T19:46:23Z</time>
      </trkpt>
      <trkpt lat="48.38505" lon="-4.76205">
        <ele>38</ele>
        <time>2020-06-08T19:46:24Z</time>
      </trkpt>
      <trkpt lat="48.38506" lon="-4.76204">
        <ele>38</ele>
        <time>2020-06-08T19:46:25Z</time>
      </trkpt>
      <trkpt lat="48.38507" lon="-4.76204">
        <ele>38</ele>
        <time>2020-06-08T19:46:26Z</time>
      </trkpt>
      <trkpt lat="48.38508" lon="-4.76204">
        <ele>38</ele>
        <time>2020-06-08T19:46:27Z</time>
      </trkpt>
      <trkpt lat="48.38509" lon="-4.76204">
        <ele>38</ele>
        <time>2020-06-08T19:46:28Z</time>
      </trkpt>
      <trkpt lat="48.3851" lon="-4.76204">
        <ele>38.1</ele>
        <time>2020-06-08T19:46:29Z</time>
      </trkpt>
      <trkpt lat="48.3851" lon="-4.76204">
        <ele>38.1</ele>
        <time>2020-06-08T19:46:30Z</time>
      </trkpt>
      <trkpt lat="48.38509" lon="-4.76204">
        <ele>38.1</ele>
        <time>2020-06-08T19:46:31Z</time>
      </trkpt>
      <trkpt lat="48.38509" lon="-4.76204">
        <ele>38.1</ele>
        <time>2020-06-08T19:46:32Z</time>
      </trkpt>
      <trkpt lat="48.38509" lon="-4.76204">
        <ele>38.1</ele>
        <time>2020-06-08T19:46:33Z</time>
      </trkpt>
      <trkpt lat="48.38509" lon="-4.76204">
        <ele>38.1</ele>
        <time>2020-06-08T19:46:34Z</time>
      </trkpt>
      <trkpt lat="48.38509" lon="-4.76204">
        <ele>38.1</ele>
        <time>2020-06-08T19:46:35Z</time>
      </trkpt>
      <trkpt lat="48.3851" lon="-4.76204">
        <ele>38.1</ele>
        <time>2020-06-08T19:46:36Z</time>
      </trkpt>
      <trkpt lat="48.3851" lon="-4.76204">
        <ele>38.1</ele>
        <time>2020-06-08T19:46:37Z</time>
      </trkpt>
      <trkpt lat="48.3851" lon="-4.76204">
        <ele>38.1</ele>
        <time>2020-06-08T19:46:38Z</time>
      </trkpt>
      <trkpt lat="48.3851" lon="-4.76204">
        <ele>38.1</ele>
        <time>2020-06-08T19:46:39Z</time>
      </trkpt>
      <trkpt lat="48.38514" lon="-4.76203">
        <ele>38.1</ele>
        <time>2020-06-08T19:48:41Z</time>
      </trkpt>
      <trkpt lat="48.38516" lon="-4.76202">
        <ele>38.1</ele>
        <time>2020-06-08T19:48:42Z</time>
      </trkpt>
      <trkpt lat="48.38519" lon="-4.76201">
        <ele>38.2</ele>
        <time>2020-06-08T19:48:43Z</time>
      </trkpt>
      <trkpt lat="48.3852" lon="-4.76201">
        <ele>38.2</ele>
        <time>2020-06-08T19:48:44Z</time>
      </trkpt>
      <trkpt lat="48.38524" lon="-4.76199">
        <ele>38.3</ele>
        <time>2020-06-08T19:48:45Z</time>
      </trkpt>
      <trkpt lat="48.38525" lon="-4.76199">
        <ele>38.3</ele>
        <time>2020-06-08T19:48:46Z</time>
      </trkpt>
      <trkpt lat="48.38528" lon="-4.76198">
        <ele>38.4</ele>
        <time>2020-06-08T19:48:47Z</time>
      </trkpt>
      <trkpt lat="48.38529" lon="-4.76198">
        <ele>38.4</ele>
        <time>2020-06-08T19:48:48Z</time>
      </trkpt>
      <trkpt lat="48.38533" lon="-4.76197">
        <ele>38.4</ele>
        <time>2020-06-08T19:48:49Z</time>
      </trkpt>
      <trkpt lat="48.38534" lon="-4.76197">
        <ele>38.4</ele>
        <time>2020-06-08T19:48:50Z</time>
      </trkpt>
      <trkpt lat="48.38538" lon="-4.76196">
        <ele>38.5</ele>
        <time>2020-06-08T19:48:51Z</time>
      </trkpt>
      <trkpt lat="48.38541" lon="-4.76196">
        <ele>38.5</ele>
        <time>2020-06-08T19:48:52Z</time>
      </trkpt>
      <trkpt lat="48.38544" lon="-4.76195">
        <ele>38.5</ele>
        <time>2020-06-08T19:48:53Z</time>
      </trkpt>
      <trkpt lat="48.38548" lon="-4.76194">
        <ele>38.6</ele>
        <time>2020-06-08T19:48:54Z</time>
      </trkpt>
      <trkpt lat="48.3855" lon="-4.76194">
        <ele>38.6</ele>
        <time>2020-06-08T19:48:55Z</time>
      </trkpt>
      <trkpt lat="48.38553" lon="-4.76194">
        <ele>38.6</ele>
        <time>2020-06-08T19:48:56Z</time>
      </trkpt>
      <trkpt lat="48.38556" lon="-4.76192">
        <ele>38.6</ele>
        <time>2020-06-08T19:48:57Z</time>
      </trkpt>
      <trkpt lat="48.3856" lon="-4.76192">
        <ele>38.6</ele>
        <time>2020-06-08T19:48:58Z</time>
      </trkpt>
      <trkpt lat="48.38561" lon="-4.76192">
        <ele>38.6</ele>
        <time>2020-06-08T19:48:59Z</time>
      </trkpt>
      <trkpt lat="48.38565" lon="-4.76192">
        <ele>38.6</ele>
        <time>2020-06-08T19:49:00Z</time>
      </trkpt>
      <trkpt lat="48.38567" lon="-4.76191">
        <ele>38.6</ele>
        <time>2020-06-08T19:49:01Z</time>
      </trkpt>
      <trkpt lat="48.3857" lon="-4.76193">
        <ele>38.6</ele>
        <time>2020-06-08T19:49:02Z</time>
      </trkpt>
      <trkpt lat="48.38573" lon="-4.76193">
        <ele>38.6</ele>
        <time>2020-06-08T19:49:03Z</time>
      </trkpt>
      <trkpt lat="48.38577" lon="-4.76193">
        <ele>38.6</ele>
        <time>2020-06-08T19:49:04Z</time>
      </trkpt>
      <trkpt lat="48.3858" lon="-4.76192">
        <ele>38.6</ele>
        <time>2020-06-08T19:49:05Z</time>
      </trkpt>
      <trkpt lat="48.38583" lon="-4.76192">
        <ele>38.6</ele>
        <time>2020-06-08T19:49:06Z</time>
      </trkpt>
      <trkpt lat="48.38586" lon="-4.76193">
        <ele>38.7</ele>
        <time>2020-06-08T19:49:07Z</time>
      </trkpt>
      <trkpt lat="48.38589" lon="-4.76192">
        <ele>38.7</ele>
        <time>2020-06-08T19:49:08Z</time>
      </trkpt>
      <trkpt lat="48.38593" lon="-4.76191">
        <ele>38.7</ele>
        <time>2020-06-08T19:49:09Z</time>
      </trkpt>
      <trkpt lat="48.38597" lon="-4.76191">
        <ele>38.7</ele>
        <time>2020-06-08T19:49:10Z</time>
      </trkpt>
      <trkpt lat="48.38601" lon="-4.7619">
        <ele>38.7</ele>
        <time>2020-06-08T19:49:11Z</time>
      </trkpt>
      <trkpt lat="48.38605" lon="-4.7619">
        <ele>38.7</ele>
        <time>2020-06-08T19:49:12Z</time>
      </trkpt>
      <trkpt lat="48.3861" lon="-4.76188">
        <ele>38.7</ele>
        <time>2020-06-08T19:49:13Z</time>
      </trkpt>
      <trkpt lat="48.38614" lon="-4.76187">
        <ele>38.7</ele>
        <time>2020-06-08T19:49:14Z</time>
      </trkpt>
      <trkpt lat="48.38617" lon="-4.76187">
        <ele>38.7</ele>
        <time>2020-06-08T19:49:15Z</time>
      </trkpt>
      <trkpt lat="48.38621" lon="-4.76186">
        <ele>38.7</ele>
        <time>2020-06-08T19:49:16Z</time>
      </trkpt>
      <trkpt lat="48.38625" lon="-4.76187">
        <ele>38.7</ele>
        <time>2020-06-08T19:49:17Z</time>
      </trkpt>
      <trkpt lat="48.38629" lon="-4.76185">
        <ele>38.8</ele>
        <time>2020-06-08T19:49:18Z</time>
      </trkpt>
      <trkpt lat="48.38633" lon="-4.76185">
        <ele>38.8</ele>
        <time>2020-06-08T19:49:19Z</time>
      </trkpt>
      <trkpt lat="48.38638" lon="-4.76186">
        <ele>38.8</ele>
        <time>2020-06-08T19:49:20Z</time>
      </trkpt>
      <trkpt lat="48.38642" lon="-4.76187">
        <ele>38.8</ele>
        <time>2020-06-08T19:49:21Z</time>
      </trkpt>
      <trkpt lat="48.38646" lon="-4.76188">
        <ele>38.9</ele>
        <time>2020-06-08T19:49:22Z</time>
      </trkpt>
      <trkpt lat="48.3865" lon="-4.76188">
        <ele>38.9</ele>
        <time>2020-06-08T19:49:23Z</time>
      </trkpt>
      <trkpt lat="48.38655" lon="-4.76188">
        <ele>39</ele>
        <time>2020-06-08T19:49:24Z</time>
      </trkpt>
      <trkpt lat="48.3866" lon="-4.7619">
        <ele>39</ele>
        <time>2020-06-08T19:49:25Z</time>
      </trkpt>
      <trkpt lat="48.38664" lon="-4.7619">
        <ele>39</ele>
        <time>2020-06-08T19:49:26Z</time>
      </trkpt>
      <trkpt lat="48.38667" lon="-4.76189">
        <ele>39</ele>
        <time>2020-06-08T19:49:27Z</time>
      </trkpt>
      <trkpt lat="48.3867" lon="-4.76189">
        <ele>39</ele>
        <time>2020-06-08T19:49:28Z</time>
      </trkpt>
      <trkpt lat="48.38675" lon="-4.7619">
        <ele>39</ele>
        <time>2020-06-08T19:49:29Z</time>
      </trkpt>
      <trkpt lat="48.38676" lon="-4.7619">
        <ele>39</ele>
        <time>2020-06-08T19:49:30Z</time>
      </trkpt>
      <trkpt lat="48.3868" lon="-4.76191">
        <ele>39</ele>
        <time>2020-06-08T19:49:31Z</time>
      </trkpt>
      <trkpt lat="48.38681" lon="-4.76191">
        <ele>39</ele>
        <time>2020-06-08T19:49:32Z</time>
      </trkpt>
      <trkpt lat="48.38684" lon="-4.76192">
        <ele>39.1</ele>
        <time>2020-06-08T19:49:33Z</time>
      </trkpt>
      <trkpt lat="48.38687" lon="-4.76191">
        <ele>39.1</ele>
        <time>2020-06-08T19:49:34Z</time>
      </trkpt>
      <trkpt lat="48.38691" lon="-4.76191">
        <ele>39.1</ele>
        <time>2020-06-08T19:49:35Z</time>
      </trkpt>
      <trkpt lat="48.38694" lon="-4.76192">
        <ele>39.1</ele>
        <time>2020-06-08T19:49:36Z</time>
      </trkpt>
      <trkpt lat="48.38698" lon="-4.76192">
        <ele>39.1</ele>
        <time>2020-06-08T19:49:37Z</time>
      </trkpt>
      <trkpt lat="48.38702" lon="-4.76193">
        <ele>39.1</ele>
        <time>2020-06-08T19:49:38Z</time>
      </trkpt>
      <trkpt lat="48.38706" lon="-4.76193">
        <ele>39</ele>
        <time>2020-06-08T19:49:39Z</time>
      </trkpt>
      <trkpt lat="48.3871" lon="-4.76194">
        <ele>39</ele>
        <time>2020-06-08T19:49:40Z</time>
      </trkpt>
      <trkpt lat="48.38714" lon="-4.76194">
        <ele>39</ele>
        <time>2020-06-08T19:49:41Z</time>
      </trkpt>
      <trkpt lat="48.38718" lon="-4.76193">
        <ele>39</ele>
        <time>2020-06-08T19:49:42Z</time>
      </trkpt>
      <trkpt lat="48.38722" lon="-4.76194">
        <ele>38.9</ele>
        <time>2020-06-08T19:49:43Z</time>
      </trkpt>
      <trkpt lat="48.38726" lon="-4.76195">
        <ele>38.9</ele>
        <time>2020-06-08T19:49:44Z</time>
      </trkpt>
      <trkpt lat="48.3873" lon="-4.76195">
        <ele>38.8</ele>
        <time>2020-06-08T19:49:45Z</time>
      </trkpt>
      <trkpt lat="48.38734" lon="-4.76195">
        <ele>38.8</ele>
        <time>2020-06-08T19:49:46Z</time>
      </trkpt>
      <trkpt lat="48.38738" lon="-4.76195">
        <ele>38.8</ele>
        <time>2020-06-08T19:49:47Z</time>
      </trkpt>
      <trkpt lat="48.38743" lon="-4.76195">
        <ele>38.7</ele>
        <time>2020-06-08T19:49:48Z</time>
      </trkpt>
      <trkpt lat="48.38747" lon="-4.76195">
        <ele>38.7</ele>
        <time>2020-06-08T19:49:49Z</time>
      </trkpt>
      <trkpt lat="48.38751" lon="-4.76196">
        <ele>38.7</ele>
        <time>2020-06-08T19:49:50Z</time>
      </trkpt>
      <trkpt lat="48.38756" lon="-4.76197">
        <ele>38.6</ele>
        <time>2020-06-08T19:49:51Z</time>
      </trkpt>
      <trkpt lat="48.38761" lon="-4.76197">
        <ele>38.6</ele>
        <time>2020-06-08T19:49:52Z</time>
      </trkpt>
      <trkpt lat="48.38766" lon="-4.76197">
        <ele>38.6</ele>
        <time>2020-06-08T19:49:53Z</time>
      </trkpt>
      <trkpt lat="48.38771" lon="-4.76198">
        <ele>38.5</ele>
        <time>2020-06-08T19:49:54Z</time>
      </trkpt>
      <trkpt lat="48.38777" lon="-4.76198">
        <ele>38.5</ele>
        <time>2020-06-08T19:49:55Z</time>
      </trkpt>
      <trkpt lat="48.38783" lon="-4.76199">
        <ele>38.4</ele>
        <time>2020-06-08T19:49:56Z</time>
      </trkpt>
      <trkpt lat="48.38788" lon="-4.76197">
        <ele>38.3</ele>
        <time>2020-06-08T19:49:57Z</time>
      </trkpt>
      <trkpt lat="48.38793" lon="-4.76199">
        <ele>38.3</ele>
        <time>2020-06-08T19:49:58Z</time>
      </trkpt>
      <trkpt lat="48.38798" lon="-4.762">
        <ele>38.3</ele>
        <time>2020-06-08T19:49:59Z</time>
      </trkpt>
      <trkpt lat="48.38804" lon="-4.762">
        <ele>38.3</ele>
        <time>2020-06-08T19:50:00Z</time>
      </trkpt>
      <trkpt lat="48.38809" lon="-4.76201">
        <ele>38.3</ele>
        <time>2020-06-08T19:50:01Z</time>
      </trkpt>
      <trkpt lat="48.38814" lon="-4.762">
        <ele>38.3</ele>
        <time>2020-06-08T19:50:02Z</time>
      </trkpt>
      <trkpt lat="48.38819" lon="-4.76201">
        <ele>38.4</ele>
        <time>2020-06-08T19:50:03Z</time>
      </trkpt>
      <trkpt lat="48.38823" lon="-4.76202">
        <ele>38.4</ele>
        <time>2020-06-08T19:50:04Z</time>
      </trkpt>
      <trkpt lat="48.38828" lon="-4.76204">
        <ele>38.5</ele>
        <time>2020-06-08T19:50:05Z</time>
      </trkpt>
      <trkpt lat="48.38834" lon="-4.76205">
        <ele>38.5</ele>
        <time>2020-06-08T19:50:06Z</time>
      </trkpt>
      <trkpt lat="48.3884" lon="-4.76207">
        <ele>38.5</ele>
        <time>2020-06-08T19:50:07Z</time>
      </trkpt>
      <trkpt lat="48.38845" lon="-4.76209">
        <ele>38.6</ele>
        <time>2020-06-08T19:50:08Z</time>
      </trkpt>
      <trkpt lat="48.38849" lon="-4.76212">
        <ele>38.6</ele>
        <time>2020-06-08T19:50:09Z</time>
      </trkpt>
      <trkpt lat="48.38854" lon="-4.76213">
        <ele>38.7</ele>
        <time>2020-06-08T19:50:10Z</time>
      </trkpt>
      <trkpt lat="48.38859" lon="-4.76216">
        <ele>38.8</ele>
        <time>2020-06-08T19:50:11Z</time>
      </trkpt>
      <trkpt lat="48.38864" lon="-4.76217">
        <ele>39</ele>
        <time>2020-06-08T19:50:12Z</time>
      </trkpt>
      <trkpt lat="48.3887" lon="-4.76219">
        <ele>39.1</ele>
        <time>2020-06-08T19:50:13Z</time>
      </trkpt>
      <trkpt lat="48.38874" lon="-4.7622">
        <ele>39.3</ele>
        <time>2020-06-08T19:50:14Z</time>
      </trkpt>
      <trkpt lat="48.38878" lon="-4.76222">
        <ele>39.4</ele>
        <time>2020-06-08T19:50:15Z</time>
      </trkpt>
      <trkpt lat="48.38884" lon="-4.76223">
        <ele>39.6</ele>
        <time>2020-06-08T19:50:16Z</time>
      </trkpt>
      <trkpt lat="48.38889" lon="-4.76226">
        <ele>39.8</ele>
        <time>2020-06-08T19:50:17Z</time>
      </trkpt>
      <trkpt lat="48.38893" lon="-4.76228">
        <ele>39.9</ele>
        <time>2020-06-08T19:50:18Z</time>
      </trkpt>
      <trkpt lat="48.38897" lon="-4.7623">
        <ele>40</ele>
        <time>2020-06-08T19:50:19Z</time>
      </trkpt>
      <trkpt lat="48.38901" lon="-4.76231">
        <ele>40.1</ele>
        <time>2020-06-08T19:50:20Z</time>
      </trkpt>
      <trkpt lat="48.38905" lon="-4.76235">
        <ele>40.3</ele>
        <time>2020-06-08T19:50:21Z</time>
      </trkpt>
      <trkpt lat="48.38909" lon="-4.76234">
        <ele>40.4</ele>
        <time>2020-06-08T19:50:22Z</time>
      </trkpt>
      <trkpt lat="48.38912" lon="-4.76235">
        <ele>40.5</ele>
        <time>2020-06-08T19:50:23Z</time>
      </trkpt>
      <trkpt lat="48.38916" lon="-4.76237">
        <ele>40.6</ele>
        <time>2020-06-08T19:50:24Z</time>
      </trkpt>
      <trkpt lat="48.3892" lon="-4.76238">
        <ele>40.7</ele>
        <time>2020-06-08T19:50:25Z</time>
      </trkpt>
      <trkpt lat="48.38924" lon="-4.76239">
        <ele>40.8</ele>
        <time>2020-06-08T19:50:26Z</time>
      </trkpt>
      <trkpt lat="48.38928" lon="-4.76242">
        <ele>40.9</ele>
        <time>2020-06-08T19:50:27Z</time>
      </trkpt>
      <trkpt lat="48.38932" lon="-4.76243">
        <ele>41</ele>
        <time>2020-06-08T19:50:28Z</time>
      </trkpt>
      <trkpt lat="48.38936" lon="-4.76244">
        <ele>41</ele>
        <time>2020-06-08T19:50:29Z</time>
      </trkpt>
      <trkpt lat="48.38939" lon="-4.76247">
        <ele>41.1</ele>
        <time>2020-06-08T19:50:30Z</time>
      </trkpt>
      <trkpt lat="48.38944" lon="-4.76248">
        <ele>41.2</ele>
        <time>2020-06-08T19:50:31Z</time>
      </trkpt>
      <trkpt lat="48.38947" lon="-4.76248">
        <ele>41.2</ele>
        <time>2020-06-08T19:50:32Z</time>
      </trkpt>
      <trkpt lat="48.38951" lon="-4.76249">
        <ele>41.2</ele>
        <time>2020-06-08T19:50:33Z</time>
      </trkpt>
      <trkpt lat="48.38954" lon="-4.7625">
        <ele>41.2</ele>
        <time>2020-06-08T19:50:34Z</time>
      </trkpt>
      <trkpt lat="48.38958" lon="-4.76251">
        <ele>41.3</ele>
        <time>2020-06-08T19:50:35Z</time>
      </trkpt>
      <trkpt lat="48.38962" lon="-4.7625">
        <ele>41.3</ele>
        <time>2020-06-08T19:50:36Z</time>
      </trkpt>
      <trkpt lat="48.38966" lon="-4.7625">
        <ele>41.4</ele>
        <time>2020-06-08T19:50:37Z</time>
      </trkpt>
      <trkpt lat="48.38971" lon="-4.76251">
        <ele>41.5</ele>
        <time>2020-06-08T19:50:38Z</time>
      </trkpt>
      <trkpt lat="48.38976" lon="-4.7625">
        <ele>41.6</ele>
        <time>2020-06-08T19:50:39Z</time>
      </trkpt>
      <trkpt lat="48.3898" lon="-4.7625">
        <ele>41.7</ele>
        <time>2020-06-08T19:50:40Z</time>
      </trkpt>
      <trkpt lat="48.38984" lon="-4.76251">
        <ele>41.8</ele>
        <time>2020-06-08T19:50:41Z</time>
      </trkpt>
      <trkpt lat="48.38988" lon="-4.76251">
        <ele>41.8</ele>
        <time>2020-06-08T19:50:42Z</time>
      </trkpt>
      <trkpt lat="48.38991" lon="-4.76252">
        <ele>41.9</ele>
        <time>2020-06-08T19:50:43Z</time>
      </trkpt>
      <trkpt lat="48.38995" lon="-4.76252">
        <ele>41.9</ele>
        <time>2020-06-08T19:50:44Z</time>
      </trkpt>
      <trkpt lat="48.38999" lon="-4.76252">
        <ele>42</ele>
        <time>2020-06-08T19:50:45Z</time>
      </trkpt>
      <trkpt lat="48.39004" lon="-4.76252">
        <ele>42.1</ele>
        <time>2020-06-08T19:50:46Z</time>
      </trkpt>
      <trkpt lat="48.39009" lon="-4.76252">
        <ele>42.1</ele>
        <time>2020-06-08T19:50:47Z</time>
      </trkpt>
      <trkpt lat="48.39014" lon="-4.76251">
        <ele>42.2</ele>
        <time>2020-06-08T19:50:48Z</time>
      </trkpt>
      <trkpt lat="48.39018" lon="-4.76251">
        <ele>42.2</ele>
        <time>2020-06-08T19:50:49Z</time>
      </trkpt>
      <trkpt lat="48.39023" lon="-4.7625">
        <ele>42.3</ele>
        <time>2020-06-08T19:50:50Z</time>
      </trkpt>
      <trkpt lat="48.39028" lon="-4.76249">
        <ele>42.3</ele>
        <time>2020-06-08T19:50:51Z</time>
      </trkpt>
      <trkpt lat="48.39031" lon="-4.76247">
        <ele>42.4</ele>
        <time>2020-06-08T19:50:52Z</time>
      </trkpt>
      <trkpt lat="48.39036" lon="-4.76247">
        <ele>42.4</ele>
        <time>2020-06-08T19:50:53Z</time>
      </trkpt>
      <trkpt lat="48.39041" lon="-4.76245">
        <ele>42.5</ele>
        <time>2020-06-08T19:50:54Z</time>
      </trkpt>
      <trkpt lat="48.39045" lon="-4.76244">
        <ele>42.6</ele>
        <time>2020-06-08T19:50:55Z</time>
      </trkpt>
      <trkpt lat="48.39049" lon="-4.76243">
        <ele>42.6</ele>
        <time>2020-06-08T19:50:56Z</time>
      </trkpt>
      <trkpt lat="48.39054" lon="-4.76241">
        <ele>42.7</ele>
        <time>2020-06-08T19:50:57Z</time>
      </trkpt>
      <trkpt lat="48.39058" lon="-4.7624">
        <ele>42.8</ele>
        <time>2020-06-08T19:50:58Z</time>
      </trkpt>
      <trkpt lat="48.39062" lon="-4.76236">
        <ele>42.8</ele>
        <time>2020-06-08T19:50:59Z</time>
      </trkpt>
      <trkpt lat="48.39066" lon="-4.76235">
        <ele>42.9</ele>
        <time>2020-06-08T19:51:00Z</time>
      </trkpt>
      <trkpt lat="48.39071" lon="-4.76232">
        <ele>42.9</ele>
        <time>2020-06-08T19:51:01Z</time>
      </trkpt>
      <trkpt lat="48.39075" lon="-4.7623">
        <ele>43</ele>
        <time>2020-06-08T19:51:02Z</time>
      </trkpt>
      <trkpt lat="48.39079" lon="-4.76229">
        <ele>43</ele>
        <time>2020-06-08T19:51:03Z</time>
      </trkpt>
      <trkpt lat="48.39083" lon="-4.76228">
        <ele>43</ele>
        <time>2020-06-08T19:51:04Z</time>
      </trkpt>
      <trkpt lat="48.39087" lon="-4.76225">
        <ele>43</ele>
        <time>2020-06-08T19:51:05Z</time>
      </trkpt>
      <trkpt lat="48.39092" lon="-4.76224">
        <ele>43.1</ele>
        <time>2020-06-08T19:51:06Z</time>
      </trkpt>
      <trkpt lat="48.39096" lon="-4.76222">
        <ele>43.1</ele>
        <time>2020-06-08T19:51:07Z</time>
      </trkpt>
      <trkpt lat="48.39101" lon="-4.76221">
        <ele>43.1</ele>
        <time>2020-06-08T19:51:08Z</time>
      </trkpt>
      <trkpt lat="48.39105" lon="-4.7622">
        <ele>43.1</ele>
        <time>2020-06-08T19:51:09Z</time>
      </trkpt>
      <trkpt lat="48.3911" lon="-4.76218">
        <ele>43.1</ele>
        <time>2020-06-08T19:51:10Z</time>
      </trkpt>
      <trkpt lat="48.39114" lon="-4.76216">
        <ele>43.1</ele>
        <time>2020-06-08T19:51:11Z</time>
      </trkpt>
      <trkpt lat="48.39118" lon="-4.76213">
        <ele>43.1</ele>
        <time>2020-06-08T19:51:12Z</time>
      </trkpt>
      <trkpt lat="48.39123" lon="-4.76211">
        <ele>43.1</ele>
        <time>2020-06-08T19:51:13Z</time>
      </trkpt>
      <trkpt lat="48.39127" lon="-4.76208">
        <ele>43.1</ele>
        <time>2020-06-08T19:51:14Z</time>
      </trkpt>
      <trkpt lat="48.39132" lon="-4.76206">
        <ele>43.1</ele>
        <time>2020-06-08T19:51:15Z</time>
      </trkpt>
      <trkpt lat="48.39135" lon="-4.76204">
        <ele>43.1</ele>
        <time>2020-06-08T19:51:16Z</time>
      </trkpt>
      <trkpt lat="48.39139" lon="-4.76202">
        <ele>43.1</ele>
        <time>2020-06-08T19:51:17Z</time>
      </trkpt>
      <trkpt lat="48.39144" lon="-4.76201">
        <ele>43.1</ele>
        <time>2020-06-08T19:51:18Z</time>
      </trkpt>
      <trkpt lat="48.39148" lon="-4.762">
        <ele>43.1</ele>
        <time>2020-06-08T19:51:19Z</time>
      </trkpt>
      <trkpt lat="48.39152" lon="-4.76198">
        <ele>43.1</ele>
        <time>2020-06-08T19:51:20Z</time>
      </trkpt>
      <trkpt lat="48.39157" lon="-4.76197">
        <ele>43.1</ele>
        <time>2020-06-08T19:51:21Z</time>
      </trkpt>
      <trkpt lat="48.39162" lon="-4.76195">
        <ele>43.1</ele>
        <time>2020-06-08T19:51:22Z</time>
      </trkpt>
      <trkpt lat="48.39167" lon="-4.76193">
        <ele>43.1</ele>
        <time>2020-06-08T19:51:23Z</time>
      </trkpt>
      <trkpt lat="48.39173" lon="-4.76192">
        <ele>43.1</ele>
        <time>2020-06-08T19:51:24Z</time>
      </trkpt>
      <trkpt lat="48.39177" lon="-4.76191">
        <ele>43.1</ele>
        <time>2020-06-08T19:51:25Z</time>
      </trkpt>
      <trkpt lat="48.39182" lon="-4.76189">
        <ele>43.1</ele>
        <time>2020-06-08T19:51:26Z</time>
      </trkpt>
      <trkpt lat="48.39187" lon="-4.76189">
        <ele>43.1</ele>
        <time>2020-06-08T19:51:27Z</time>
      </trkpt>
      <trkpt lat="48.39192" lon="-4.76188">
        <ele>43.2</ele>
        <time>2020-06-08T19:51:28Z</time>
      </trkpt>
      <trkpt lat="48.39197" lon="-4.76188">
        <ele>43.2</ele>
        <time>2020-06-08T19:51:29Z</time>
      </trkpt>
      <trkpt lat="48.39202" lon="-4.76187">
        <ele>43.3</ele>
        <time>2020-06-08T19:51:30Z</time>
      </trkpt>
      <trkpt lat="48.39207" lon="-4.76187">
        <ele>43.4</ele>
        <time>2020-06-08T19:51:31Z</time>
      </trkpt>
      <trkpt lat="48.39213" lon="-4.76186">
        <ele>43.5</ele>
        <time>2020-06-08T19:51:32Z</time>
      </trkpt>
      <trkpt lat="48.39218" lon="-4.76186">
        <ele>43.6</ele>
        <time>2020-06-08T19:51:33Z</time>
      </trkpt>
      <trkpt lat="48.39222" lon="-4.76187">
        <ele>43.6</ele>
        <time>2020-06-08T19:51:34Z</time>
      </trkpt>
      <trkpt lat="48.39227" lon="-4.76186">
        <ele>43.6</ele>
        <time>2020-06-08T19:51:35Z</time>
      </trkpt>
      <trkpt lat="48.39232" lon="-4.76185">
        <ele>43.6</ele>
        <time>2020-06-08T19:51:36Z</time>
      </trkpt>
      <trkpt lat="48.39236" lon="-4.76182">
        <ele>43.6</ele>
        <time>2020-06-08T19:51:37Z</time>
      </trkpt>
      <trkpt lat="48.3924" lon="-4.76182">
        <ele>43.6</ele>
        <time>2020-06-08T19:51:38Z</time>
      </trkpt>
      <trkpt lat="48.39245" lon="-4.76183">
        <ele>43.6</ele>
        <time>2020-06-08T19:51:39Z</time>
      </trkpt>
      <trkpt lat="48.3925" lon="-4.76183">
        <ele>43.6</ele>
        <time>2020-06-08T19:51:40Z</time>
      </trkpt>
      <trkpt lat="48.39254" lon="-4.76181">
        <ele>43.6</ele>
        <time>2020-06-08T19:51:41Z</time>
      </trkpt>
      <trkpt lat="48.39258" lon="-4.7618">
        <ele>43.6</ele>
        <time>2020-06-08T19:51:42Z</time>
      </trkpt>
      <trkpt lat="48.39262" lon="-4.7618">
        <ele>43.6</ele>
        <time>2020-06-08T19:51:43Z</time>
      </trkpt>
      <trkpt lat="48.39267" lon="-4.76178">
        <ele>43.7</ele>
        <time>2020-06-08T19:51:44Z</time>
      </trkpt>
      <trkpt lat="48.39272" lon="-4.76176">
        <ele>43.7</ele>
        <time>2020-06-08T19:51:45Z</time>
      </trkpt>
      <trkpt lat="48.39277" lon="-4.76173">
        <ele>43.8</ele>
        <time>2020-06-08T19:51:46Z</time>
      </trkpt>
      <trkpt lat="48.39282" lon="-4.76172">
        <ele>43.8</ele>
        <time>2020-06-08T19:51:47Z</time>
      </trkpt>
      <trkpt lat="48.39287" lon="-4.7617">
        <ele>43.9</ele>
        <time>2020-06-08T19:51:48Z</time>
      </trkpt>
      <trkpt lat="48.39291" lon="-4.76169">
        <ele>44</ele>
        <time>2020-06-08T19:51:49Z</time>
      </trkpt>
      <trkpt lat="48.39295" lon="-4.76166">
        <ele>44</ele>
        <time>2020-06-08T19:51:50Z</time>
      </trkpt>
      <trkpt lat="48.39299" lon="-4.76164">
        <ele>44.1</ele>
        <time>2020-06-08T19:51:51Z</time>
      </trkpt>
      <trkpt lat="48.39302" lon="-4.7616">
        <ele>44.1</ele>
        <time>2020-06-08T19:51:52Z</time>
      </trkpt>
      <trkpt lat="48.39306" lon="-4.76158">
        <ele>44.2</ele>
        <time>2020-06-08T19:51:53Z</time>
      </trkpt>
      <trkpt lat="48.3931" lon="-4.76155">
        <ele>44.2</ele>
        <time>2020-06-08T19:51:54Z</time>
      </trkpt>
      <trkpt lat="48.39313" lon="-4.76153">
        <ele>44.3</ele>
        <time>2020-06-08T19:51:55Z</time>
      </trkpt>
      <trkpt lat="48.39317" lon="-4.76152">
        <ele>44.3</ele>
        <time>2020-06-08T19:51:56Z</time>
      </trkpt>
      <trkpt lat="48.3932" lon="-4.76149">
        <ele>44.4</ele>
        <time>2020-06-08T19:51:57Z</time>
      </trkpt>
      <trkpt lat="48.39324" lon="-4.76147">
        <ele>44.4</ele>
        <time>2020-06-08T19:51:58Z</time>
      </trkpt>
      <trkpt lat="48.39328" lon="-4.76145">
        <ele>44.5</ele>
        <time>2020-06-08T19:51:59Z</time>
      </trkpt>
      <trkpt lat="48.39332" lon="-4.76142">
        <ele>44.6</ele>
        <time>2020-06-08T19:52:00Z</time>
      </trkpt>
      <trkpt lat="48.39337" lon="-4.76139">
        <ele>44.7</ele>
        <time>2020-06-08T19:52:01Z</time>
      </trkpt>
      <trkpt lat="48.39341" lon="-4.76136">
        <ele>44.8</ele>
        <time>2020-06-08T19:52:02Z</time>
      </trkpt>
      <trkpt lat="48.39345" lon="-4.76133">
        <ele>44.9</ele>
        <time>2020-06-08T19:52:03Z</time>
      </trkpt>
      <trkpt lat="48.39349" lon="-4.76132">
        <ele>44.9</ele>
        <time>2020-06-08T19:52:04Z</time>
      </trkpt>
      <trkpt lat="48.39353" lon="-4.76131">
        <ele>45</ele>
        <time>2020-06-08T19:52:05Z</time>
      </trkpt>
      <trkpt lat="48.39357" lon="-4.76129">
        <ele>45.1</ele>
        <time>2020-06-08T19:52:06Z</time>
      </trkpt>
      <trkpt lat="48.39361" lon="-4.76126">
        <ele>45.2</ele>
        <time>2020-06-08T19:52:07Z</time>
      </trkpt>
      <trkpt lat="48.39365" lon="-4.76124">
        <ele>45.3</ele>
        <time>2020-06-08T19:52:08Z</time>
      </trkpt>
      <trkpt lat="48.39368" lon="-4.76122">
        <ele>45.4</ele>
        <time>2020-06-08T19:52:09Z</time>
      </trkpt>
      <trkpt lat="48.39372" lon="-4.7612">
        <ele>45.5</ele>
        <time>2020-06-08T19:52:10Z</time>
      </trkpt>
      <trkpt lat="48.39375" lon="-4.76118">
        <ele>45.5</ele>
        <time>2020-06-08T19:52:11Z</time>
      </trkpt>
      <trkpt lat="48.39379" lon="-4.76117">
        <ele>45.6</ele>
        <time>2020-06-08T19:52:12Z</time>
      </trkpt>
      <trkpt lat="48.39382" lon="-4.76114">
        <ele>45.7</ele>
        <time>2020-06-08T19:52:13Z</time>
      </trkpt>
      <trkpt lat="48.39386" lon="-4.76112">
        <ele>45.8</ele>
        <time>2020-06-08T19:52:14Z</time>
      </trkpt>
      <trkpt lat="48.3939" lon="-4.7611">
        <ele>45.9</ele>
        <time>2020-06-08T19:52:15Z</time>
      </trkpt>
      <trkpt lat="48.39394" lon="-4.76108">
        <ele>45.9</ele>
        <time>2020-06-08T19:52:16Z</time>
      </trkpt>
      <trkpt lat="48.39397" lon="-4.76107">
        <ele>46</ele>
        <time>2020-06-08T19:52:17Z</time>
      </trkpt>
      <trkpt lat="48.39401" lon="-4.76105">
        <ele>46.1</ele>
        <time>2020-06-08T19:52:18Z</time>
      </trkpt>
      <trkpt lat="48.39404" lon="-4.76102">
        <ele>46.2</ele>
        <time>2020-06-08T19:52:19Z</time>
      </trkpt>
      <trkpt lat="48.39408" lon="-4.761">
        <ele>46.3</ele>
        <time>2020-06-08T19:52:20Z</time>
      </trkpt>
      <trkpt lat="48.39412" lon="-4.76098">
        <ele>46.4</ele>
        <time>2020-06-08T19:52:21Z</time>
      </trkpt>
      <trkpt lat="48.39415" lon="-4.76096">
        <ele>46.4</ele>
        <time>2020-06-08T19:52:22Z</time>
      </trkpt>
      <trkpt lat="48.39419" lon="-4.76096">
        <ele>46.5</ele>
        <time>2020-06-08T19:52:23Z</time>
      </trkpt>
      <trkpt lat="48.39422" lon="-4.76093">
        <ele>46.6</ele>
        <time>2020-06-08T19:52:24Z</time>
      </trkpt>
      <trkpt lat="48.39426" lon="-4.76092">
        <ele>46.7</ele>
        <time>2020-06-08T19:52:25Z</time>
      </trkpt>
      <trkpt lat="48.39431" lon="-4.76092">
        <ele>46.7</ele>
        <time>2020-06-08T19:52:26Z</time>
      </trkpt>
      <trkpt lat="48.39435" lon="-4.76091">
        <ele>46.8</ele>
        <time>2020-06-08T19:52:27Z</time>
      </trkpt>
      <trkpt lat="48.3944" lon="-4.76087">
        <ele>46.9</ele>
        <time>2020-06-08T19:52:28Z</time>
      </trkpt>
      <trkpt lat="48.39443" lon="-4.76085">
        <ele>47</ele>
        <time>2020-06-08T19:52:29Z</time>
      </trkpt>
      <trkpt lat="48.39447" lon="-4.76084">
        <ele>47.1</ele>
        <time>2020-06-08T19:52:30Z</time>
      </trkpt>
      <trkpt lat="48.39449" lon="-4.76085">
        <ele>47.2</ele>
        <time>2020-06-08T19:52:31Z</time>
      </trkpt>
      <trkpt lat="48.39453" lon="-4.76083">
        <ele>47.2</ele>
        <time>2020-06-08T19:52:32Z</time>
      </trkpt>
      <trkpt lat="48.39457" lon="-4.76082">
        <ele>47.3</ele>
        <time>2020-06-08T19:52:33Z</time>
      </trkpt>
      <trkpt lat="48.39461" lon="-4.76082">
        <ele>47.3</ele>
        <time>2020-06-08T19:52:34Z</time>
      </trkpt>
      <trkpt lat="48.39465" lon="-4.76081">
        <ele>47.4</ele>
        <time>2020-06-08T19:52:35Z</time>
      </trkpt>
      <trkpt lat="48.39469" lon="-4.76081">
        <ele>47.4</ele>
        <time>2020-06-08T19:52:36Z</time>
      </trkpt>
      <trkpt lat="48.39474" lon="-4.76083">
        <ele>47.5</ele>
        <time>2020-06-08T19:52:37Z</time>
      </trkpt>
      <trkpt lat="48.39478" lon="-4.76083">
        <ele>47.6</ele>
        <time>2020-06-08T19:52:38Z</time>
      </trkpt>
      <trkpt lat="48.39482" lon="-4.76084">
        <ele>47.6</ele>
        <time>2020-06-08T19:52:39Z</time>
      </trkpt>
      <trkpt lat="48.39485" lon="-4.76085">
        <ele>47.7</ele>
        <time>2020-06-08T19:52:40Z</time>
      </trkpt>
      <trkpt lat="48.39489" lon="-4.76085">
        <ele>47.7</ele>
        <time>2020-06-08T19:52:41Z</time>
      </trkpt>
      <trkpt lat="48.39493" lon="-4.76086">
        <ele>47.8</ele>
        <time>2020-06-08T19:52:42Z</time>
      </trkpt>
      <trkpt lat="48.39496" lon="-4.76087">
        <ele>47.8</ele>
        <time>2020-06-08T19:52:43Z</time>
      </trkpt>
      <trkpt lat="48.39499" lon="-4.76087">
        <ele>47.9</ele>
        <time>2020-06-08T19:52:44Z</time>
      </trkpt>
      <trkpt lat="48.39502" lon="-4.76087">
        <ele>47.9</ele>
        <time>2020-06-08T19:52:45Z</time>
      </trkpt>
      <trkpt lat="48.39506" lon="-4.76088">
        <ele>48</ele>
        <time>2020-06-08T19:52:46Z</time>
      </trkpt>
      <trkpt lat="48.3951" lon="-4.76088">
        <ele>48.1</ele>
        <time>2020-06-08T19:52:47Z</time>
      </trkpt>
      <trkpt lat="48.39514" lon="-4.76088">
        <ele>48.1</ele>
        <time>2020-06-08T19:52:48Z</time>
      </trkpt>
      <trkpt lat="48.39518" lon="-4.76089">
        <ele>48.2</ele>
        <time>2020-06-08T19:52:49Z</time>
      </trkpt>
      <trkpt lat="48.39522" lon="-4.76091">
        <ele>48.3</ele>
        <time>2020-06-08T19:52:50Z</time>
      </trkpt>
      <trkpt lat="48.39526" lon="-4.76092">
        <ele>48.3</ele>
        <time>2020-06-08T19:52:51Z</time>
      </trkpt>
      <trkpt lat="48.39531" lon="-4.76094">
        <ele>48.4</ele>
        <time>2020-06-08T19:52:52Z</time>
      </trkpt>
      <trkpt lat="48.39534" lon="-4.76096">
        <ele>48.5</ele>
        <time>2020-06-08T19:52:53Z</time>
      </trkpt>
      <trkpt lat="48.39538" lon="-4.76097">
        <ele>48.5</ele>
        <time>2020-06-08T19:52:54Z</time>
      </trkpt>
      <trkpt lat="48.39542" lon="-4.76097">
        <ele>48.6</ele>
        <time>2020-06-08T19:52:55Z</time>
      </trkpt>
      <trkpt lat="48.39546" lon="-4.761">
        <ele>48.6</ele>
        <time>2020-06-08T19:52:56Z</time>
      </trkpt>
      <trkpt lat="48.39549" lon="-4.76101">
        <ele>48.7</ele>
        <time>2020-06-08T19:52:57Z</time>
      </trkpt>
      <trkpt lat="48.39553" lon="-4.76102">
        <ele>48.7</ele>
        <time>2020-06-08T19:52:58Z</time>
      </trkpt>
      <trkpt lat="48.39557" lon="-4.76102">
        <ele>48.8</ele>
        <time>2020-06-08T19:52:59Z</time>
      </trkpt>
      <trkpt lat="48.39561" lon="-4.76103">
        <ele>48.8</ele>
        <time>2020-06-08T19:53:00Z</time>
      </trkpt>
      <trkpt lat="48.39565" lon="-4.76103">
        <ele>48.9</ele>
        <time>2020-06-08T19:53:01Z</time>
      </trkpt>
      <trkpt lat="48.39569" lon="-4.76105">
        <ele>48.9</ele>
        <time>2020-06-08T19:53:02Z</time>
      </trkpt>
      <trkpt lat="48.39573" lon="-4.76105">
        <ele>48.9</ele>
        <time>2020-06-08T19:53:03Z</time>
      </trkpt>
      <trkpt lat="48.39576" lon="-4.76108">
        <ele>49</ele>
        <time>2020-06-08T19:53:04Z</time>
      </trkpt>
      <trkpt lat="48.3958" lon="-4.76109">
        <ele>48.9</ele>
        <time>2020-06-08T19:53:05Z</time>
      </trkpt>
      <trkpt lat="48.39584" lon="-4.7611">
        <ele>48.9</ele>
        <time>2020-06-08T19:53:06Z</time>
      </trkpt>
      <trkpt lat="48.39589" lon="-4.76111">
        <ele>48.9</ele>
        <time>2020-06-08T19:53:07Z</time>
      </trkpt>
      <trkpt lat="48.39593" lon="-4.76111">
        <ele>48.9</ele>
        <time>2020-06-08T19:53:08Z</time>
      </trkpt>
      <trkpt lat="48.39597" lon="-4.76112">
        <ele>48.8</ele>
        <time>2020-06-08T19:53:09Z</time>
      </trkpt>
      <trkpt lat="48.39602" lon="-4.76114">
        <ele>48.8</ele>
        <time>2020-06-08T19:53:10Z</time>
      </trkpt>
      <trkpt lat="48.39606" lon="-4.76115">
        <ele>48.8</ele>
        <time>2020-06-08T19:53:11Z</time>
      </trkpt>
      <trkpt lat="48.39611" lon="-4.76115">
        <ele>48.8</ele>
        <time>2020-06-08T19:53:12Z</time>
      </trkpt>
      <trkpt lat="48.39616" lon="-4.76116">
        <ele>48.7</ele>
        <time>2020-06-08T19:53:13Z</time>
      </trkpt>
      <trkpt lat="48.3962" lon="-4.76118">
        <ele>48.6</ele>
        <time>2020-06-08T19:53:14Z</time>
      </trkpt>
      <trkpt lat="48.39625" lon="-4.7612">
        <ele>48.5</ele>
        <time>2020-06-08T19:53:15Z</time>
      </trkpt>
      <trkpt lat="48.3963" lon="-4.7612">
        <ele>48.4</ele>
        <time>2020-06-08T19:53:16Z</time>
      </trkpt>
      <trkpt lat="48.39636" lon="-4.76121">
        <ele>48.3</ele>
        <time>2020-06-08T19:53:17Z</time>
      </trkpt>
      <trkpt lat="48.39642" lon="-4.76122">
        <ele>48.1</ele>
        <time>2020-06-08T19:53:18Z</time>
      </trkpt>
      <trkpt lat="48.39647" lon="-4.76124">
        <ele>48</ele>
        <time>2020-06-08T19:53:19Z</time>
      </trkpt>
      <trkpt lat="48.39653" lon="-4.76126">
        <ele>47.8</ele>
        <time>2020-06-08T19:53:20Z</time>
      </trkpt>
      <trkpt lat="48.3966" lon="-4.76128">
        <ele>47.7</ele>
        <time>2020-06-08T19:53:21Z</time>
      </trkpt>
      <trkpt lat="48.39665" lon="-4.7613">
        <ele>47.6</ele>
        <time>2020-06-08T19:53:22Z</time>
      </trkpt>
      <trkpt lat="48.3967" lon="-4.76135">
        <ele>47.5</ele>
        <time>2020-06-08T19:53:23Z</time>
      </trkpt>
      <trkpt lat="48.39677" lon="-4.76138">
        <ele>47.3</ele>
        <time>2020-06-08T19:53:24Z</time>
      </trkpt>
      <trkpt lat="48.39681" lon="-4.76143">
        <ele>47</ele>
        <time>2020-06-08T19:53:25Z</time>
      </trkpt>
      <trkpt lat="48.39686" lon="-4.76146">
        <ele>46.9</ele>
        <time>2020-06-08T19:53:26Z</time>
      </trkpt>
      <trkpt lat="48.39691" lon="-4.76152">
        <ele>47</ele>
        <time>2020-06-08T19:53:27Z</time>
      </trkpt>
      <trkpt lat="48.39696" lon="-4.76155">
        <ele>47</ele>
        <time>2020-06-08T19:53:28Z</time>
      </trkpt>
      <trkpt lat="48.39701" lon="-4.76159">
        <ele>47</ele>
        <time>2020-06-08T19:53:29Z</time>
      </trkpt>
      <trkpt lat="48.39706" lon="-4.76162">
        <ele>47</ele>
        <time>2020-06-08T19:53:30Z</time>
      </trkpt>
      <trkpt lat="48.39711" lon="-4.76165">
        <ele>47</ele>
        <time>2020-06-08T19:53:31Z</time>
      </trkpt>
      <trkpt lat="48.39716" lon="-4.7617">
        <ele>47</ele>
        <time>2020-06-08T19:53:32Z</time>
      </trkpt>
      <trkpt lat="48.3972" lon="-4.76173">
        <ele>47</ele>
        <time>2020-06-08T19:53:33Z</time>
      </trkpt>
      <trkpt lat="48.39724" lon="-4.76176">
        <ele>47</ele>
        <time>2020-06-08T19:53:34Z</time>
      </trkpt>
      <trkpt lat="48.39728" lon="-4.76179">
        <ele>47.1</ele>
        <time>2020-06-08T19:53:35Z</time>
      </trkpt>
      <trkpt lat="48.39733" lon="-4.76183">
        <ele>47.1</ele>
        <time>2020-06-08T19:53:36Z</time>
      </trkpt>
      <trkpt lat="48.39737" lon="-4.76185">
        <ele>47.2</ele>
        <time>2020-06-08T19:53:37Z</time>
      </trkpt>
      <trkpt lat="48.39742" lon="-4.76188">
        <ele>47.2</ele>
        <time>2020-06-08T19:53:38Z</time>
      </trkpt>
      <trkpt lat="48.39746" lon="-4.7619">
        <ele>47.3</ele>
        <time>2020-06-08T19:53:39Z</time>
      </trkpt>
      <trkpt lat="48.3975" lon="-4.76194">
        <ele>47.4</ele>
        <time>2020-06-08T19:53:40Z</time>
      </trkpt>
      <trkpt lat="48.39754" lon="-4.76194">
        <ele>47.4</ele>
        <time>2020-06-08T19:53:41Z</time>
      </trkpt>
      <trkpt lat="48.39759" lon="-4.76197">
        <ele>47.5</ele>
        <time>2020-06-08T19:53:42Z</time>
      </trkpt>
      <trkpt lat="48.39763" lon="-4.76199">
        <ele>47.5</ele>
        <time>2020-06-08T19:53:43Z</time>
      </trkpt>
      <trkpt lat="48.39767" lon="-4.76201">
        <ele>47.6</ele>
        <time>2020-06-08T19:53:44Z</time>
      </trkpt>
      <trkpt lat="48.39772" lon="-4.76204">
        <ele>47.7</ele>
        <time>2020-06-08T19:53:45Z</time>
      </trkpt>
      <trkpt lat="48.39777" lon="-4.76206">
        <ele>47.8</ele>
        <time>2020-06-08T19:53:46Z</time>
      </trkpt>
      <trkpt lat="48.39781" lon="-4.76208">
        <ele>47.9</ele>
        <time>2020-06-08T19:53:47Z</time>
      </trkpt>
      <trkpt lat="48.39784" lon="-4.7621">
        <ele>48</ele>
        <time>2020-06-08T19:53:48Z</time>
      </trkpt>
      <trkpt lat="48.39788" lon="-4.76211">
        <ele>48.1</ele>
        <time>2020-06-08T19:53:49Z</time>
      </trkpt>
      <trkpt lat="48.39792" lon="-4.76213">
        <ele>48.2</ele>
        <time>2020-06-08T19:53:50Z</time>
      </trkpt>
      <trkpt lat="48.39795" lon="-4.76215">
        <ele>48.2</ele>
        <time>2020-06-08T19:53:51Z</time>
      </trkpt>
      <trkpt lat="48.39799" lon="-4.76214">
        <ele>48.2</ele>
        <time>2020-06-08T19:53:52Z</time>
      </trkpt>
      <trkpt lat="48.39802" lon="-4.76214">
        <ele>48.3</ele>
        <time>2020-06-08T19:53:53Z</time>
      </trkpt>
      <trkpt lat="48.39805" lon="-4.76216">
        <ele>48.3</ele>
        <time>2020-06-08T19:53:54Z</time>
      </trkpt>
      <trkpt lat="48.39809" lon="-4.76219">
        <ele>48.4</ele>
        <time>2020-06-08T19:53:55Z</time>
      </trkpt>
      <trkpt lat="48.39813" lon="-4.76221">
        <ele>48.5</ele>
        <time>2020-06-08T19:53:56Z</time>
      </trkpt>
      <trkpt lat="48.39816" lon="-4.76223">
        <ele>48.6</ele>
        <time>2020-06-08T19:53:57Z</time>
      </trkpt>
      <trkpt lat="48.3982" lon="-4.76225">
        <ele>48.7</ele>
        <time>2020-06-08T19:53:58Z</time>
      </trkpt>
      <trkpt lat="48.39824" lon="-4.76227">
        <ele>48.8</ele>
        <time>2020-06-08T19:53:59Z</time>
      </trkpt>
      <trkpt lat="48.39827" lon="-4.76227">
        <ele>48.9</ele>
        <time>2020-06-08T19:54:00Z</time>
      </trkpt>
      <trkpt lat="48.39831" lon="-4.76228">
        <ele>49</ele>
        <time>2020-06-08T19:54:01Z</time>
      </trkpt>
      <trkpt lat="48.39834" lon="-4.7623">
        <ele>49.2</ele>
        <time>2020-06-08T19:54:02Z</time>
      </trkpt>
      <trkpt lat="48.39838" lon="-4.7623">
        <ele>49.3</ele>
        <time>2020-06-08T19:54:03Z</time>
      </trkpt>
      <trkpt lat="48.39842" lon="-4.76231">
        <ele>49.5</ele>
        <time>2020-06-08T19:54:04Z</time>
      </trkpt>
      <trkpt lat="48.39846" lon="-4.76232">
        <ele>49.6</ele>
        <time>2020-06-08T19:54:05Z</time>
      </trkpt>
      <trkpt lat="48.39849" lon="-4.76233">
        <ele>49.7</ele>
        <time>2020-06-08T19:54:06Z</time>
      </trkpt>
      <trkpt lat="48.39852" lon="-4.76233">
        <ele>49.9</ele>
        <time>2020-06-08T19:54:07Z</time>
      </trkpt>
      <trkpt lat="48.39856" lon="-4.76233">
        <ele>50</ele>
        <time>2020-06-08T19:54:08Z</time>
      </trkpt>
      <trkpt lat="48.3986" lon="-4.76233">
        <ele>50.1</ele>
        <time>2020-06-08T19:54:09Z</time>
      </trkpt>
      <trkpt lat="48.39864" lon="-4.76233">
        <ele>50.2</ele>
        <time>2020-06-08T19:54:10Z</time>
      </trkpt>
      <trkpt lat="48.39867" lon="-4.76232">
        <ele>50.3</ele>
        <time>2020-06-08T19:54:11Z</time>
      </trkpt>
      <trkpt lat="48.39871" lon="-4.7623">
        <ele>50.4</ele>
        <time>2020-06-08T19:54:12Z</time>
      </trkpt>
      <trkpt lat="48.39875" lon="-4.7623">
        <ele>50.5</ele>
        <time>2020-06-08T19:54:13Z</time>
      </trkpt>
      <trkpt lat="48.39879" lon="-4.76228">
        <ele>50.6</ele>
        <time>2020-06-08T19:54:14Z</time>
      </trkpt>
      <trkpt lat="48.39882" lon="-4.76226">
        <ele>50.6</ele>
        <time>2020-06-08T19:54:15Z</time>
      </trkpt>
      <trkpt lat="48.39885" lon="-4.76224">
        <ele>50.7</ele>
        <time>2020-06-08T19:54:16Z</time>
      </trkpt>
      <trkpt lat="48.39889" lon="-4.76222">
        <ele>50.8</ele>
        <time>2020-06-08T19:54:17Z</time>
      </trkpt>
      <trkpt lat="48.39893" lon="-4.7622">
        <ele>50.9</ele>
        <time>2020-06-08T19:54:18Z</time>
      </trkpt>
      <trkpt lat="48.39897" lon="-4.76217">
        <ele>51</ele>
        <time>2020-06-08T19:54:19Z</time>
      </trkpt>
      <trkpt lat="48.39901" lon="-4.76215">
        <ele>51.1</ele>
        <time>2020-06-08T19:54:20Z</time>
      </trkpt>
      <trkpt lat="48.39906" lon="-4.76212">
        <ele>51.1</ele>
        <time>2020-06-08T19:54:21Z</time>
      </trkpt>
      <trkpt lat="48.3991" lon="-4.76209">
        <ele>51.2</ele>
        <time>2020-06-08T19:54:22Z</time>
      </trkpt>
      <trkpt lat="48.39915" lon="-4.76206">
        <ele>51.3</ele>
        <time>2020-06-08T19:54:23Z</time>
      </trkpt>
      <trkpt lat="48.39919" lon="-4.76204">
        <ele>51.3</ele>
        <time>2020-06-08T19:54:24Z</time>
      </trkpt>
      <trkpt lat="48.39922" lon="-4.76201">
        <ele>51.4</ele>
        <time>2020-06-08T19:54:25Z</time>
      </trkpt>
      <trkpt lat="48.39925" lon="-4.76198">
        <ele>51.4</ele>
        <time>2020-06-08T19:54:26Z</time>
      </trkpt>
      <trkpt lat="48.39928" lon="-4.76195">
        <ele>51.4</ele>
        <time>2020-06-08T19:54:27Z</time>
      </trkpt>
      <trkpt lat="48.39932" lon="-4.76192">
        <ele>51.4</ele>
        <time>2020-06-08T19:54:28Z</time>
      </trkpt>
      <trkpt lat="48.39935" lon="-4.7619">
        <ele>51.5</ele>
        <time>2020-06-08T19:54:29Z</time>
      </trkpt>
      <trkpt lat="48.39939" lon="-4.76187">
        <ele>51.5</ele>
        <time>2020-06-08T19:54:30Z</time>
      </trkpt>
      <trkpt lat="48.39943" lon="-4.76184">
        <ele>51.6</ele>
        <time>2020-06-08T19:54:31Z</time>
      </trkpt>
      <trkpt lat="48.39947" lon="-4.76181">
        <ele>51.6</ele>
        <time>2020-06-08T19:54:32Z</time>
      </trkpt>
      <trkpt lat="48.39951" lon="-4.76178">
        <ele>51.7</ele>
        <time>2020-06-08T19:54:33Z</time>
      </trkpt>
      <trkpt lat="48.39954" lon="-4.76175">
        <ele>51.7</ele>
        <time>2020-06-08T19:54:34Z</time>
      </trkpt>
      <trkpt lat="48.39957" lon="-4.76173">
        <ele>51.8</ele>
        <time>2020-06-08T19:54:35Z</time>
      </trkpt>
      <trkpt lat="48.39962" lon="-4.7617">
        <ele>51.9</ele>
        <time>2020-06-08T19:54:36Z</time>
      </trkpt>
      <trkpt lat="48.39966" lon="-4.76168">
        <ele>52</ele>
        <time>2020-06-08T19:54:37Z</time>
      </trkpt>
      <trkpt lat="48.3997" lon="-4.76164">
        <ele>52</ele>
        <time>2020-06-08T19:54:38Z</time>
      </trkpt>
      <trkpt lat="48.39975" lon="-4.76162">
        <ele>52.1</ele>
        <time>2020-06-08T19:54:39Z</time>
      </trkpt>
      <trkpt lat="48.39979" lon="-4.7616">
        <ele>52.2</ele>
        <time>2020-06-08T19:54:40Z</time>
      </trkpt>
      <trkpt lat="48.39982" lon="-4.76157">
        <ele>52.3</ele>
        <time>2020-06-08T19:54:41Z</time>
      </trkpt>
      <trkpt lat="48.39986" lon="-4.76156">
        <ele>52.4</ele>
        <time>2020-06-08T19:54:42Z</time>
      </trkpt>
      <trkpt lat="48.3999" lon="-4.76154">
        <ele>52.5</ele>
        <time>2020-06-08T19:54:43Z</time>
      </trkpt>
      <trkpt lat="48.39994" lon="-4.76153">
        <ele>52.6</ele>
        <time>2020-06-08T19:54:44Z</time>
      </trkpt>
      <trkpt lat="48.39997" lon="-4.76151">
        <ele>52.6</ele>
        <time>2020-06-08T19:54:45Z</time>
      </trkpt>
      <trkpt lat="48.40001" lon="-4.7615">
        <ele>52.7</ele>
        <time>2020-06-08T19:54:46Z</time>
      </trkpt>
      <trkpt lat="48.40005" lon="-4.7615">
        <ele>52.7</ele>
        <time>2020-06-08T19:54:47Z</time>
      </trkpt>
      <trkpt lat="48.40009" lon="-4.76151">
        <ele>52.8</ele>
        <time>2020-06-08T19:54:48Z</time>
      </trkpt>
      <trkpt lat="48.40013" lon="-4.76149">
        <ele>52.9</ele>
        <time>2020-06-08T19:54:49Z</time>
      </trkpt>
      <trkpt lat="48.40016" lon="-4.76149">
        <ele>52.9</ele>
        <time>2020-06-08T19:54:50Z</time>
      </trkpt>
      <trkpt lat="48.4002" lon="-4.76148">
        <ele>53</ele>
        <time>2020-06-08T19:54:51Z</time>
      </trkpt>
      <trkpt lat="48.40024" lon="-4.76149">
        <ele>53.1</ele>
        <time>2020-06-08T19:54:52Z</time>
      </trkpt>
      <trkpt lat="48.40029" lon="-4.7615">
        <ele>53.1</ele>
        <time>2020-06-08T19:54:53Z</time>
      </trkpt>
      <trkpt lat="48.40032" lon="-4.7615">
        <ele>53.2</ele>
        <time>2020-06-08T19:54:54Z</time>
      </trkpt>
      <trkpt lat="48.40036" lon="-4.76152">
        <ele>53.2</ele>
        <time>2020-06-08T19:54:55Z</time>
      </trkpt>
      <trkpt lat="48.40039" lon="-4.76153">
        <ele>53.3</ele>
        <time>2020-06-08T19:54:56Z</time>
      </trkpt>
      <trkpt lat="48.40043" lon="-4.76154">
        <ele>53.3</ele>
        <time>2020-06-08T19:54:57Z</time>
      </trkpt>
      <trkpt lat="48.40046" lon="-4.76154">
        <ele>53.4</ele>
        <time>2020-06-08T19:54:58Z</time>
      </trkpt>
      <trkpt lat="48.40049" lon="-4.76155">
        <ele>53.4</ele>
        <time>2020-06-08T19:54:59Z</time>
      </trkpt>
      <trkpt lat="48.40052" lon="-4.76157">
        <ele>53.5</ele>
        <time>2020-06-08T19:55:00Z</time>
      </trkpt>
      <trkpt lat="48.40057" lon="-4.76158">
        <ele>53.5</ele>
        <time>2020-06-08T19:55:01Z</time>
      </trkpt>
      <trkpt lat="48.4006" lon="-4.76158">
        <ele>53.6</ele>
        <time>2020-06-08T19:55:02Z</time>
      </trkpt>
      <trkpt lat="48.40064" lon="-4.7616">
        <ele>53.7</ele>
        <time>2020-06-08T19:55:03Z</time>
      </trkpt>
      <trkpt lat="48.40069" lon="-4.76161">
        <ele>53.7</ele>
        <time>2020-06-08T19:55:04Z</time>
      </trkpt>
      <trkpt lat="48.40073" lon="-4.76162">
        <ele>53.7</ele>
        <time>2020-06-08T19:55:05Z</time>
      </trkpt>
      <trkpt lat="48.40077" lon="-4.76163">
        <ele>53.7</ele>
        <time>2020-06-08T19:55:06Z</time>
      </trkpt>
      <trkpt lat="48.40081" lon="-4.76164">
        <ele>53.7</ele>
        <time>2020-06-08T19:55:07Z</time>
      </trkpt>
      <trkpt lat="48.40085" lon="-4.76165">
        <ele>53.7</ele>
        <time>2020-06-08T19:55:08Z</time>
      </trkpt>
      <trkpt lat="48.4009" lon="-4.76167">
        <ele>53.7</ele>
        <time>2020-06-08T19:55:09Z</time>
      </trkpt>
      <trkpt lat="48.40095" lon="-4.76166">
        <ele>53.7</ele>
        <time>2020-06-08T19:55:10Z</time>
      </trkpt>
      <trkpt lat="48.401" lon="-4.76169">
        <ele>53.7</ele>
        <time>2020-06-08T19:55:11Z</time>
      </trkpt>
      <trkpt lat="48.40104" lon="-4.76171">
        <ele>53.7</ele>
        <time>2020-06-08T19:55:12Z</time>
      </trkpt>
      <trkpt lat="48.40109" lon="-4.76172">
        <ele>53.6</ele>
        <time>2020-06-08T19:55:13Z</time>
      </trkpt>
      <trkpt lat="48.40114" lon="-4.76174">
        <ele>53.6</ele>
        <time>2020-06-08T19:55:14Z</time>
      </trkpt>
      <trkpt lat="48.40119" lon="-4.76176">
        <ele>53.6</ele>
        <time>2020-06-08T19:55:15Z</time>
      </trkpt>
      <trkpt lat="48.40123" lon="-4.76177">
        <ele>53.6</ele>
        <time>2020-06-08T19:55:16Z</time>
      </trkpt>
      <trkpt lat="48.40127" lon="-4.76178">
        <ele>53.5</ele>
        <time>2020-06-08T19:55:17Z</time>
      </trkpt>
      <trkpt lat="48.40131" lon="-4.76179">
        <ele>53.5</ele>
        <time>2020-06-08T19:55:18Z</time>
      </trkpt>
      <trkpt lat="48.40136" lon="-4.76179">
        <ele>53.5</ele>
        <time>2020-06-08T19:55:19Z</time>
      </trkpt>
      <trkpt lat="48.40141" lon="-4.76179">
        <ele>53.4</ele>
        <time>2020-06-08T19:55:20Z</time>
      </trkpt>
      <trkpt lat="48.40146" lon="-4.76179">
        <ele>53.4</ele>
        <time>2020-06-08T19:55:21Z</time>
      </trkpt>
      <trkpt lat="48.4015" lon="-4.76179">
        <ele>53.3</ele>
        <time>2020-06-08T19:55:22Z</time>
      </trkpt>
      <trkpt lat="48.40155" lon="-4.76178">
        <ele>53.2</ele>
        <time>2020-06-08T19:55:23Z</time>
      </trkpt>
      <trkpt lat="48.4016" lon="-4.76179">
        <ele>53.1</ele>
        <time>2020-06-08T19:55:24Z</time>
      </trkpt>
      <trkpt lat="48.40165" lon="-4.7618">
        <ele>53</ele>
        <time>2020-06-08T19:55:25Z</time>
      </trkpt>
      <trkpt lat="48.40172" lon="-4.76183">
        <ele>52.9</ele>
        <time>2020-06-08T19:55:26Z</time>
      </trkpt>
      <trkpt lat="48.40177" lon="-4.76182">
        <ele>52.8</ele>
        <time>2020-06-08T19:55:27Z</time>
      </trkpt>
      <trkpt lat="48.40183" lon="-4.76182">
        <ele>52.7</ele>
        <time>2020-06-08T19:55:28Z</time>
      </trkpt>
      <trkpt lat="48.40188" lon="-4.76183">
        <ele>52.6</ele>
        <time>2020-06-08T19:55:29Z</time>
      </trkpt>
      <trkpt lat="48.40195" lon="-4.76181">
        <ele>52.5</ele>
        <time>2020-06-08T19:55:30Z</time>
      </trkpt>
      <trkpt lat="48.40201" lon="-4.76181">
        <ele>52.3</ele>
        <time>2020-06-08T19:55:31Z</time>
      </trkpt>
      <trkpt lat="48.40207" lon="-4.7618">
        <ele>52.2</ele>
        <time>2020-06-08T19:55:32Z</time>
      </trkpt>
      <trkpt lat="48.40214" lon="-4.76179">
        <ele>52.1</ele>
        <time>2020-06-08T19:55:33Z</time>
      </trkpt>
      <trkpt lat="48.4022" lon="-4.76178">
        <ele>52</ele>
        <time>2020-06-08T19:55:34Z</time>
      </trkpt>
      <trkpt lat="48.40226" lon="-4.76177">
        <ele>51.9</ele>
        <time>2020-06-08T19:55:35Z</time>
      </trkpt>
      <trkpt lat="48.40233" lon="-4.76175">
        <ele>51.8</ele>
        <time>2020-06-08T19:55:36Z</time>
      </trkpt>
      <trkpt lat="48.40239" lon="-4.76175">
        <ele>51.7</ele>
        <time>2020-06-08T19:55:37Z</time>
      </trkpt>
      <trkpt lat="48.40246" lon="-4.76174">
        <ele>51.5</ele>
        <time>2020-06-08T19:55:38Z</time>
      </trkpt>
      <trkpt lat="48.40252" lon="-4.76173">
        <ele>51.4</ele>
        <time>2020-06-08T19:55:39Z</time>
      </trkpt>
      <trkpt lat="48.40258" lon="-4.76172">
        <ele>51.3</ele>
        <time>2020-06-08T19:55:40Z</time>
      </trkpt>
      <trkpt lat="48.40264" lon="-4.76172">
        <ele>51.3</ele>
        <time>2020-06-08T19:55:41Z</time>
      </trkpt>
      <trkpt lat="48.4027" lon="-4.76172">
        <ele>51.2</ele>
        <time>2020-06-08T19:55:42Z</time>
      </trkpt>
      <trkpt lat="48.40276" lon="-4.76171">
        <ele>51.1</ele>
        <time>2020-06-08T19:55:43Z</time>
      </trkpt>
      <trkpt lat="48.40282" lon="-4.7617">
        <ele>51.1</ele>
        <time>2020-06-08T19:55:44Z</time>
      </trkpt>
      <trkpt lat="48.40288" lon="-4.76169">
        <ele>51</ele>
        <time>2020-06-08T19:55:45Z</time>
      </trkpt>
      <trkpt lat="48.40295" lon="-4.76167">
        <ele>50.9</ele>
        <time>2020-06-08T19:55:46Z</time>
      </trkpt>
      <trkpt lat="48.403" lon="-4.76166">
        <ele>50.9</ele>
        <time>2020-06-08T19:55:47Z</time>
      </trkpt>
      <trkpt lat="48.40305" lon="-4.76166">
        <ele>50.9</ele>
        <time>2020-06-08T19:55:48Z</time>
      </trkpt>
      <trkpt lat="48.40312" lon="-4.76165">
        <ele>50.9</ele>
        <time>2020-06-08T19:55:49Z</time>
      </trkpt>
      <trkpt lat="48.40317" lon="-4.76163">
        <ele>50.8</ele>
        <time>2020-06-08T19:55:50Z</time>
      </trkpt>
      <trkpt lat="48.40323" lon="-4.76162">
        <ele>50.8</ele>
        <time>2020-06-08T19:55:51Z</time>
      </trkpt>
      <trkpt lat="48.40328" lon="-4.76162">
        <ele>50.8</ele>
        <time>2020-06-08T19:55:52Z</time>
      </trkpt>
      <trkpt lat="48.40334" lon="-4.76162">
        <ele>50.8</ele>
        <time>2020-06-08T19:55:53Z</time>
      </trkpt>
      <trkpt lat="48.4034" lon="-4.76161">
        <ele>50.8</ele>
        <time>2020-06-08T19:55:54Z</time>
      </trkpt>
      <trkpt lat="48.40346" lon="-4.76159">
        <ele>50.9</ele>
        <time>2020-06-08T19:55:55Z</time>
      </trkpt>
      <trkpt lat="48.40352" lon="-4.76158">
        <ele>50.9</ele>
        <time>2020-06-08T19:55:56Z</time>
      </trkpt>
      <trkpt lat="48.40358" lon="-4.76158">
        <ele>51</ele>
        <time>2020-06-08T19:55:57Z</time>
      </trkpt>
      <trkpt lat="48.40363" lon="-4.76157">
        <ele>51</ele>
        <time>2020-06-08T19:55:58Z</time>
      </trkpt>
      <trkpt lat="48.40369" lon="-4.76157">
        <ele>51.1</ele>
        <time>2020-06-08T19:55:59Z</time>
      </trkpt>
      <trkpt lat="48.40374" lon="-4.76156">
        <ele>51.1</ele>
        <time>2020-06-08T19:56:00Z</time>
      </trkpt>
      <trkpt lat="48.40379" lon="-4.76155">
        <ele>51.2</ele>
        <time>2020-06-08T19:56:01Z</time>
      </trkpt>
      <trkpt lat="48.40384" lon="-4.76153">
        <ele>51.2</ele>
        <time>2020-06-08T19:56:02Z</time>
      </trkpt>
      <trkpt lat="48.40388" lon="-4.76153">
        <ele>51.2</ele>
        <time>2020-06-08T19:56:03Z</time>
      </trkpt>
      <trkpt lat="48.40395" lon="-4.76153">
        <ele>51.3</ele>
        <time>2020-06-08T19:56:04Z</time>
      </trkpt>
      <trkpt lat="48.404" lon="-4.76152">
        <ele>51.3</ele>
        <time>2020-06-08T19:56:05Z</time>
      </trkpt>
      <trkpt lat="48.40405" lon="-4.76152">
        <ele>51.4</ele>
        <time>2020-06-08T19:56:06Z</time>
      </trkpt>
      <trkpt lat="48.4041" lon="-4.76152">
        <ele>51.5</ele>
        <time>2020-06-08T19:56:07Z</time>
      </trkpt>
      <trkpt lat="48.40415" lon="-4.76151">
        <ele>51.6</ele>
        <time>2020-06-08T19:56:08Z</time>
      </trkpt>
      <trkpt lat="48.4042" lon="-4.7615">
        <ele>51.7</ele>
        <time>2020-06-08T19:56:09Z</time>
      </trkpt>
      <trkpt lat="48.40424" lon="-4.7615">
        <ele>51.8</ele>
        <time>2020-06-08T19:56:10Z</time>
      </trkpt>
      <trkpt lat="48.40428" lon="-4.76149">
        <ele>51.8</ele>
        <time>2020-06-08T19:56:11Z</time>
      </trkpt>
      <trkpt lat="48.40434" lon="-4.76149">
        <ele>51.9</ele>
        <time>2020-06-08T19:56:12Z</time>
      </trkpt>
      <trkpt lat="48.4044" lon="-4.76149">
        <ele>52</ele>
        <time>2020-06-08T19:56:13Z</time>
      </trkpt>
      <trkpt lat="48.40445" lon="-4.76148">
        <ele>52.1</ele>
        <time>2020-06-08T19:56:14Z</time>
      </trkpt>
      <trkpt lat="48.40451" lon="-4.76148">
        <ele>52.1</ele>
        <time>2020-06-08T19:56:15Z</time>
      </trkpt>
      <trkpt lat="48.40456" lon="-4.76148">
        <ele>52.2</ele>
        <time>2020-06-08T19:56:16Z</time>
      </trkpt>
      <trkpt lat="48.40462" lon="-4.76148">
        <ele>52.3</ele>
        <time>2020-06-08T19:56:17Z</time>
      </trkpt>
      <trkpt lat="48.40469" lon="-4.76148">
        <ele>52.4</ele>
        <time>2020-06-08T19:56:18Z</time>
      </trkpt>
      <trkpt lat="48.40474" lon="-4.76148">
        <ele>52.5</ele>
        <time>2020-06-08T19:56:19Z</time>
      </trkpt>
      <trkpt lat="48.4048" lon="-4.76147">
        <ele>52.6</ele>
        <time>2020-06-08T19:56:20Z</time>
      </trkpt>
      <trkpt lat="48.40484" lon="-4.76147">
        <ele>52.7</ele>
        <time>2020-06-08T19:56:21Z</time>
      </trkpt>
      <trkpt lat="48.4049" lon="-4.76146">
        <ele>52.8</ele>
        <time>2020-06-08T19:56:22Z</time>
      </trkpt>
      <trkpt lat="48.40493" lon="-4.76146">
        <ele>52.9</ele>
        <time>2020-06-08T19:56:23Z</time>
      </trkpt>
      <trkpt lat="48.40498" lon="-4.76145">
        <ele>53.1</ele>
        <time>2020-06-08T19:56:24Z</time>
      </trkpt>
      <trkpt lat="48.40501" lon="-4.76144">
        <ele>53.2</ele>
        <time>2020-06-08T19:56:25Z</time>
      </trkpt>
      <trkpt lat="48.40505" lon="-4.76143">
        <ele>53.3</ele>
        <time>2020-06-08T19:56:26Z</time>
      </trkpt>
      <trkpt lat="48.40509" lon="-4.76144">
        <ele>53.3</ele>
        <time>2020-06-08T19:56:27Z</time>
      </trkpt>
      <trkpt lat="48.40512" lon="-4.76143">
        <ele>53.4</ele>
        <time>2020-06-08T19:56:28Z</time>
      </trkpt>
      <trkpt lat="48.40517" lon="-4.76144">
        <ele>53.5</ele>
        <time>2020-06-08T19:56:29Z</time>
      </trkpt>
      <trkpt lat="48.40523" lon="-4.76143">
        <ele>53.7</ele>
        <time>2020-06-08T19:56:30Z</time>
      </trkpt>
      <trkpt lat="48.40529" lon="-4.76143">
        <ele>53.8</ele>
        <time>2020-06-08T19:56:31Z</time>
      </trkpt>
      <trkpt lat="48.40531" lon="-4.76144">
        <ele>53.9</ele>
        <time>2020-06-08T19:56:32Z</time>
      </trkpt>
      <trkpt lat="48.40536" lon="-4.76146">
        <ele>54</ele>
        <time>2020-06-08T19:56:33Z</time>
      </trkpt>
      <trkpt lat="48.40541" lon="-4.76146">
        <ele>54.2</ele>
        <time>2020-06-08T19:56:34Z</time>
      </trkpt>
      <trkpt lat="48.40545" lon="-4.76146">
        <ele>54.3</ele>
        <time>2020-06-08T19:56:35Z</time>
      </trkpt>
      <trkpt lat="48.40548" lon="-4.76146">
        <ele>54.4</ele>
        <time>2020-06-08T19:56:36Z</time>
      </trkpt>
      <trkpt lat="48.40552" lon="-4.76146">
        <ele>54.6</ele>
        <time>2020-06-08T19:56:37Z</time>
      </trkpt>
      <trkpt lat="48.40556" lon="-4.76147">
        <ele>54.7</ele>
        <time>2020-06-08T19:56:38Z</time>
      </trkpt>
      <trkpt lat="48.40559" lon="-4.76146">
        <ele>54.8</ele>
        <time>2020-06-08T19:56:39Z</time>
      </trkpt>
      <trkpt lat="48.40563" lon="-4.76145">
        <ele>54.9</ele>
        <time>2020-06-08T19:56:40Z</time>
      </trkpt>
      <trkpt lat="48.40568" lon="-4.76147">
        <ele>55</ele>
        <time>2020-06-08T19:56:41Z</time>
      </trkpt>
      <trkpt lat="48.40571" lon="-4.76148">
        <ele>55.1</ele>
        <time>2020-06-08T19:56:42Z</time>
      </trkpt>
      <trkpt lat="48.40574" lon="-4.7615">
        <ele>55.1</ele>
        <time>2020-06-08T19:56:43Z</time>
      </trkpt>
      <trkpt lat="48.40577" lon="-4.76152">
        <ele>55</ele>
        <time>2020-06-08T19:56:44Z</time>
      </trkpt>
      <trkpt lat="48.40578" lon="-4.76152">
        <ele>55</ele>
        <time>2020-06-08T19:56:45Z</time>
      </trkpt>
      <trkpt lat="48.40581" lon="-4.76151">
        <ele>55</ele>
        <time>2020-06-08T19:56:46Z</time>
      </trkpt>
      <trkpt lat="48.40582" lon="-4.76151">
        <ele>55</ele>
        <time>2020-06-08T19:56:47Z</time>
      </trkpt>
      <trkpt lat="48.40583" lon="-4.76153">
        <ele>55</ele>
        <time>2020-06-08T19:56:48Z</time>
      </trkpt>
      <trkpt lat="48.40583" lon="-4.76154">
        <ele>54.9</ele>
        <time>2020-06-08T19:56:49Z</time>
      </trkpt>
      <trkpt lat="48.40582" lon="-4.76157">
        <ele>54.9</ele>
        <time>2020-06-08T19:56:50Z</time>
      </trkpt>
      <trkpt lat="48.40582" lon="-4.76158">
        <ele>54.9</ele>
        <time>2020-06-08T19:56:51Z</time>
      </trkpt>
      <trkpt lat="48.40582" lon="-4.7616">
        <ele>54.9</ele>
        <time>2020-06-08T19:56:52Z</time>
      </trkpt>
      <trkpt lat="48.40581" lon="-4.76159">
        <ele>54.9</ele>
        <time>2020-06-08T19:56:53Z</time>
      </trkpt>
      <trkpt lat="48.4058" lon="-4.76159">
        <ele>54.9</ele>
        <time>2020-06-08T19:56:54Z</time>
      </trkpt>
      <trkpt lat="48.40581" lon="-4.7616">
        <ele>54.9</ele>
        <time>2020-06-08T19:56:55Z</time>
      </trkpt>
      <trkpt lat="48.4058" lon="-4.7616">
        <ele>54.9</ele>
        <time>2020-06-08T19:56:56Z</time>
      </trkpt>
      <trkpt lat="48.4058" lon="-4.76161">
        <ele>54.9</ele>
        <time>2020-06-08T19:56:57Z</time>
      </trkpt>
      <trkpt lat="48.4058" lon="-4.7616">
        <ele>54.9</ele>
        <time>2020-06-08T19:56:58Z</time>
      </trkpt>
      <trkpt lat="48.40581" lon="-4.76161">
        <ele>54.9</ele>
        <time>2020-06-08T19:56:59Z</time>
      </trkpt>
      <trkpt lat="48.4058" lon="-4.7616">
        <ele>54.8</ele>
        <time>2020-06-08T19:57:00Z</time>
      </trkpt>
      <trkpt lat="48.4058" lon="-4.76161">
        <ele>54.8</ele>
        <time>2020-06-08T19:57:01Z</time>
      </trkpt>
      <trkpt lat="48.40579" lon="-4.76161">
        <ele>54.8</ele>
        <time>2020-06-08T19:57:02Z</time>
      </trkpt>
      <trkpt lat="48.40579" lon="-4.76162">
        <ele>54.8</ele>
        <time>2020-06-08T19:57:03Z</time>
      </trkpt>
      <trkpt lat="48.40579" lon="-4.76163">
        <ele>54.8</ele>
        <time>2020-06-08T19:57:04Z</time>
      </trkpt>
      <trkpt lat="48.40579" lon="-4.76164">
        <ele>54.8</ele>
        <time>2020-06-08T19:57:05Z</time>
      </trkpt>
      <trkpt lat="48.40579" lon="-4.76165">
        <ele>54.8</ele>
        <time>2020-06-08T19:57:06Z</time>
      </trkpt>
      <trkpt lat="48.40579" lon="-4.76166">
        <ele>54.8</ele>
        <time>2020-06-08T19:57:07Z</time>
      </trkpt>
      <trkpt lat="48.4058" lon="-4.76168">
        <ele>54.8</ele>
        <time>2020-06-08T19:57:08Z</time>
      </trkpt>
      <trkpt lat="48.4058" lon="-4.76169">
        <ele>54.8</ele>
        <time>2020-06-08T19:57:09Z</time>
      </trkpt>
      <trkpt lat="48.4058" lon="-4.7617">
        <ele>54.8</ele>
        <time>2020-06-08T19:57:10Z</time>
      </trkpt>
      <trkpt lat="48.4058" lon="-4.76171">
        <ele>54.8</ele>
        <time>2020-06-08T19:57:11Z</time>
      </trkpt>
      <trkpt lat="48.40581" lon="-4.76173">
        <ele>54.8</ele>
        <time>2020-06-08T19:57:47Z</time>
      </trkpt>
      <trkpt lat="48.40581" lon="-4.76174">
        <ele>54.8</ele>
        <time>2020-06-08T19:57:48Z</time>
      </trkpt>
      <trkpt lat="48.40582" lon="-4.76179">
        <ele>54.7</ele>
        <time>2020-06-08T19:57:49Z</time>
      </trkpt>
      <trkpt lat="48.40583" lon="-4.76185">
        <ele>54.7</ele>
        <time>2020-06-08T19:57:50Z</time>
      </trkpt>
      <trkpt lat="48.40583" lon="-4.76191">
        <ele>54.7</ele>
        <time>2020-06-08T19:57:51Z</time>
      </trkpt>
      <trkpt lat="48.40583" lon="-4.76197">
        <ele>54.7</ele>
        <time>2020-06-08T19:57:52Z</time>
      </trkpt>
      <trkpt lat="48.40584" lon="-4.76203">
        <ele>54.7</ele>
        <time>2020-06-08T19:57:53Z</time>
      </trkpt>
      <trkpt lat="48.40584" lon="-4.76208">
        <ele>54.7</ele>
        <time>2020-06-08T19:57:54Z</time>
      </trkpt>
      <trkpt lat="48.40585" lon="-4.76214">
        <ele>54.7</ele>
        <time>2020-06-08T19:57:55Z</time>
      </trkpt>
      <trkpt lat="48.40586" lon="-4.7622">
        <ele>54.7</ele>
        <time>2020-06-08T19:57:56Z</time>
      </trkpt>
      <trkpt lat="48.40587" lon="-4.76226">
        <ele>54.7</ele>
        <time>2020-06-08T19:57:57Z</time>
      </trkpt>
      <trkpt lat="48.40588" lon="-4.76232">
        <ele>54.7</ele>
        <time>2020-06-08T19:57:58Z</time>
      </trkpt>
      <trkpt lat="48.40589" lon="-4.76239">
        <ele>54.6</ele>
        <time>2020-06-08T19:57:59Z</time>
      </trkpt>
      <trkpt lat="48.40589" lon="-4.76246">
        <ele>54.6</ele>
        <time>2020-06-08T19:58:00Z</time>
      </trkpt>
      <trkpt lat="48.4059" lon="-4.76254">
        <ele>54.6</ele>
        <time>2020-06-08T19:58:01Z</time>
      </trkpt>
      <trkpt lat="48.40591" lon="-4.76259">
        <ele>54.6</ele>
        <time>2020-06-08T19:58:02Z</time>
      </trkpt>
      <trkpt lat="48.40591" lon="-4.76267">
        <ele>54.6</ele>
        <time>2020-06-08T19:58:03Z</time>
      </trkpt>
      <trkpt lat="48.40591" lon="-4.76275">
        <ele>54.6</ele>
        <time>2020-06-08T19:58:04Z</time>
      </trkpt>
      <trkpt lat="48.40591" lon="-4.76282">
        <ele>54.6</ele>
        <time>2020-06-08T19:58:05Z</time>
      </trkpt>
      <trkpt lat="48.40592" lon="-4.7629">
        <ele>54.6</ele>
        <time>2020-06-08T19:58:06Z</time>
      </trkpt>
      <trkpt lat="48.40592" lon="-4.76297">
        <ele>54.6</ele>
        <time>2020-06-08T19:58:07Z</time>
      </trkpt>
      <trkpt lat="48.40593" lon="-4.76304">
        <ele>54.7</ele>
        <time>2020-06-08T19:58:08Z</time>
      </trkpt>
      <trkpt lat="48.40595" lon="-4.7631">
        <ele>54.8</ele>
        <time>2020-06-08T19:58:09Z</time>
      </trkpt>
      <trkpt lat="48.40597" lon="-4.76316">
        <ele>54.8</ele>
        <time>2020-06-08T19:58:10Z</time>
      </trkpt>
      <trkpt lat="48.40601" lon="-4.76323">
        <ele>54.8</ele>
        <time>2020-06-08T19:58:11Z</time>
      </trkpt>
      <trkpt lat="48.40605" lon="-4.76329">
        <ele>54.8</ele>
        <time>2020-06-08T19:58:12Z</time>
      </trkpt>
      <trkpt lat="48.40609" lon="-4.76335">
        <ele>54.7</ele>
        <time>2020-06-08T19:58:13Z</time>
      </trkpt>
      <trkpt lat="48.40613" lon="-4.7634">
        <ele>54.7</ele>
        <time>2020-06-08T19:58:14Z</time>
      </trkpt>
      <trkpt lat="48.40617" lon="-4.76347">
        <ele>54.6</ele>
        <time>2020-06-08T19:58:15Z</time>
      </trkpt>
      <trkpt lat="48.40621" lon="-4.76352">
        <ele>54.6</ele>
        <time>2020-06-08T19:58:16Z</time>
      </trkpt>
      <trkpt lat="48.40625" lon="-4.76357">
        <ele>54.6</ele>
        <time>2020-06-08T19:58:17Z</time>
      </trkpt>
      <trkpt lat="48.40629" lon="-4.76361">
        <ele>54.6</ele>
        <time>2020-06-08T19:58:18Z</time>
      </trkpt>
      <trkpt lat="48.40633" lon="-4.76366">
        <ele>54.6</ele>
        <time>2020-06-08T19:58:19Z</time>
      </trkpt>
      <trkpt lat="48.40637" lon="-4.7637">
        <ele>54.6</ele>
        <time>2020-06-08T19:58:20Z</time>
      </trkpt>
      <trkpt lat="48.40642" lon="-4.76377">
        <ele>54.5</ele>
        <time>2020-06-08T19:58:21Z</time>
      </trkpt>
      <trkpt lat="48.40645" lon="-4.76384">
        <ele>54.5</ele>
        <time>2020-06-08T19:58:22Z</time>
      </trkpt>
      <trkpt lat="48.40648" lon="-4.7639">
        <ele>54.5</ele>
        <time>2020-06-08T19:58:23Z</time>
      </trkpt>
      <trkpt lat="48.40652" lon="-4.76396">
        <ele>54.5</ele>
        <time>2020-06-08T19:58:24Z</time>
      </trkpt>
      <trkpt lat="48.40656" lon="-4.76402">
        <ele>54.5</ele>
        <time>2020-06-08T19:58:25Z</time>
      </trkpt>
      <trkpt lat="48.40659" lon="-4.76407">
        <ele>54.5</ele>
        <time>2020-06-08T19:58:26Z</time>
      </trkpt>
      <trkpt lat="48.40663" lon="-4.76414">
        <ele>54.5</ele>
        <time>2020-06-08T19:58:27Z</time>
      </trkpt>
      <trkpt lat="48.40668" lon="-4.76422">
        <ele>54.5</ele>
        <time>2020-06-08T19:58:28Z</time>
      </trkpt>
      <trkpt lat="48.40671" lon="-4.76428">
        <ele>54.5</ele>
        <time>2020-06-08T19:58:29Z</time>
      </trkpt>
      <trkpt lat="48.40675" lon="-4.76435">
        <ele>54.5</ele>
        <time>2020-06-08T19:58:30Z</time>
      </trkpt>
      <trkpt lat="48.40679" lon="-4.76442">
        <ele>54.5</ele>
        <time>2020-06-08T19:58:31Z</time>
      </trkpt>
      <trkpt lat="48.40683" lon="-4.76447">
        <ele>54.5</ele>
        <time>2020-06-08T19:58:32Z</time>
      </trkpt>
      <trkpt lat="48.40687" lon="-4.76451">
        <ele>54.5</ele>
        <time>2020-06-08T19:58:33Z</time>
      </trkpt>
      <trkpt lat="48.40692" lon="-4.76456">
        <ele>54.5</ele>
        <time>2020-06-08T19:58:34Z</time>
      </trkpt>
      <trkpt lat="48.40697" lon="-4.76461">
        <ele>54.5</ele>
        <time>2020-06-08T19:58:35Z</time>
      </trkpt>
      <trkpt lat="48.40703" lon="-4.76468">
        <ele>54.5</ele>
        <time>2020-06-08T19:58:36Z</time>
      </trkpt>
      <trkpt lat="48.40707" lon="-4.76473">
        <ele>54.5</ele>
        <time>2020-06-08T19:58:37Z</time>
      </trkpt>
      <trkpt lat="48.4071" lon="-4.76477">
        <ele>54.5</ele>
        <time>2020-06-08T19:58:38Z</time>
      </trkpt>
      <trkpt lat="48.40714" lon="-4.76481">
        <ele>54.5</ele>
        <time>2020-06-08T19:58:39Z</time>
      </trkpt>
      <trkpt lat="48.40718" lon="-4.76487">
        <ele>54.4</ele>
        <time>2020-06-08T19:58:40Z</time>
      </trkpt>
      <trkpt lat="48.40721" lon="-4.76497">
        <ele>54.5</ele>
        <time>2020-06-08T19:58:41Z</time>
      </trkpt>
      <trkpt lat="48.40722" lon="-4.76508">
        <ele>54.5</ele>
        <time>2020-06-08T19:58:42Z</time>
      </trkpt>
      <trkpt lat="48.40723" lon="-4.76517">
        <ele>54.5</ele>
        <time>2020-06-08T19:58:43Z</time>
      </trkpt>
      <trkpt lat="48.40723" lon="-4.76528">
        <ele>54.5</ele>
        <time>2020-06-08T19:58:44Z</time>
      </trkpt>
      <trkpt lat="48.40723" lon="-4.76538">
        <ele>54.5</ele>
        <time>2020-06-08T19:58:45Z</time>
      </trkpt>
      <trkpt lat="48.40723" lon="-4.76549">
        <ele>54.4</ele>
        <time>2020-06-08T19:58:46Z</time>
      </trkpt>
      <trkpt lat="48.40723" lon="-4.76559">
        <ele>54.4</ele>
        <time>2020-06-08T19:58:47Z</time>
      </trkpt>
      <trkpt lat="48.40723" lon="-4.7657">
        <ele>54.3</ele>
        <time>2020-06-08T19:58:48Z</time>
      </trkpt>
      <trkpt lat="48.40723" lon="-4.76578">
        <ele>54.2</ele>
        <time>2020-06-08T19:58:49Z</time>
      </trkpt>
      <trkpt lat="48.40723" lon="-4.76588">
        <ele>54.1</ele>
        <time>2020-06-08T19:58:50Z</time>
      </trkpt>
      <trkpt lat="48.40722" lon="-4.76597">
        <ele>54</ele>
        <time>2020-06-08T19:58:51Z</time>
      </trkpt>
      <trkpt lat="48.40723" lon="-4.76609">
        <ele>54</ele>
        <time>2020-06-08T19:58:52Z</time>
      </trkpt>
      <trkpt lat="48.40724" lon="-4.7662">
        <ele>53.9</ele>
        <time>2020-06-08T19:58:53Z</time>
      </trkpt>
      <trkpt lat="48.40725" lon="-4.76632">
        <ele>53.8</ele>
        <time>2020-06-08T19:58:54Z</time>
      </trkpt>
      <trkpt lat="48.40726" lon="-4.76643">
        <ele>53.7</ele>
        <time>2020-06-08T19:58:55Z</time>
      </trkpt>
      <trkpt lat="48.40727" lon="-4.76655">
        <ele>53.6</ele>
        <time>2020-06-08T19:58:56Z</time>
      </trkpt>
      <trkpt lat="48.40728" lon="-4.76666">
        <ele>53.6</ele>
        <time>2020-06-08T19:58:57Z</time>
      </trkpt>
      <trkpt lat="48.4073" lon="-4.76678">
        <ele>53.5</ele>
        <time>2020-06-08T19:58:58Z</time>
      </trkpt>
      <trkpt lat="48.40731" lon="-4.76689">
        <ele>53.4</ele>
        <time>2020-06-08T19:58:59Z</time>
      </trkpt>
      <trkpt lat="48.40732" lon="-4.76702">
        <ele>53.3</ele>
        <time>2020-06-08T19:59:00Z</time>
      </trkpt>
      <trkpt lat="48.40734" lon="-4.76714">
        <ele>53.2</ele>
        <time>2020-06-08T19:59:01Z</time>
      </trkpt>
      <trkpt lat="48.40735" lon="-4.76726">
        <ele>53.1</ele>
        <time>2020-06-08T19:59:02Z</time>
      </trkpt>
      <trkpt lat="48.40738" lon="-4.76738">
        <ele>53</ele>
        <time>2020-06-08T19:59:03Z</time>
      </trkpt>
      <trkpt lat="48.40739" lon="-4.76749">
        <ele>53</ele>
        <time>2020-06-08T19:59:04Z</time>
      </trkpt>
      <trkpt lat="48.40742" lon="-4.76761">
        <ele>52.9</ele>
        <time>2020-06-08T19:59:05Z</time>
      </trkpt>
      <trkpt lat="48.40744" lon="-4.76772">
        <ele>52.9</ele>
        <time>2020-06-08T19:59:06Z</time>
      </trkpt>
      <trkpt lat="48.40746" lon="-4.76783">
        <ele>52.9</ele>
        <time>2020-06-08T19:59:07Z</time>
      </trkpt>
      <trkpt lat="48.40748" lon="-4.76794">
        <ele>53</ele>
        <time>2020-06-08T19:59:08Z</time>
      </trkpt>
      <trkpt lat="48.4075" lon="-4.76805">
        <ele>53</ele>
        <time>2020-06-08T19:59:09Z</time>
      </trkpt>
      <trkpt lat="48.40752" lon="-4.76816">
        <ele>53</ele>
        <time>2020-06-08T19:59:10Z</time>
      </trkpt>
      <trkpt lat="48.40754" lon="-4.76828">
        <ele>52.9</ele>
        <time>2020-06-08T19:59:11Z</time>
      </trkpt>
      <trkpt lat="48.40756" lon="-4.76839">
        <ele>52.8</ele>
        <time>2020-06-08T19:59:12Z</time>
      </trkpt>
      <trkpt lat="48.40758" lon="-4.76851">
        <ele>52.7</ele>
        <time>2020-06-08T19:59:13Z</time>
      </trkpt>
      <trkpt lat="48.4076" lon="-4.76863">
        <ele>52.6</ele>
        <time>2020-06-08T19:59:14Z</time>
      </trkpt>
      <trkpt lat="48.40761" lon="-4.76875">
        <ele>52.5</ele>
        <time>2020-06-08T19:59:15Z</time>
      </trkpt>
      <trkpt lat="48.40763" lon="-4.76886">
        <ele>52.2</ele>
        <time>2020-06-08T19:59:16Z</time>
      </trkpt>
      <trkpt lat="48.40765" lon="-4.76898">
        <ele>52</ele>
        <time>2020-06-08T19:59:17Z</time>
      </trkpt>
      <trkpt lat="48.40767" lon="-4.7691">
        <ele>51.8</ele>
        <time>2020-06-08T19:59:18Z</time>
      </trkpt>
      <trkpt lat="48.40769" lon="-4.76922">
        <ele>51.5</ele>
        <time>2020-06-08T19:59:19Z</time>
      </trkpt>
      <trkpt lat="48.4077" lon="-4.76934">
        <ele>51.3</ele>
        <time>2020-06-08T19:59:20Z</time>
      </trkpt>
      <trkpt lat="48.40772" lon="-4.76946">
        <ele>51</ele>
        <time>2020-06-08T19:59:21Z</time>
      </trkpt>
      <trkpt lat="48.40774" lon="-4.76957">
        <ele>50.8</ele>
        <time>2020-06-08T19:59:22Z</time>
      </trkpt>
      <trkpt lat="48.40775" lon="-4.76969">
        <ele>50.6</ele>
        <time>2020-06-08T19:59:23Z</time>
      </trkpt>
      <trkpt lat="48.40775" lon="-4.7698">
        <ele>50.3</ele>
        <time>2020-06-08T19:59:24Z</time>
      </trkpt>
      <trkpt lat="48.40776" lon="-4.76991">
        <ele>50</ele>
        <time>2020-06-08T19:59:25Z</time>
      </trkpt>
      <trkpt lat="48.40776" lon="-4.77002">
        <ele>49.7</ele>
        <time>2020-06-08T19:59:26Z</time>
      </trkpt>
      <trkpt lat="48.40776" lon="-4.77014">
        <ele>49.3</ele>
        <time>2020-06-08T19:59:27Z</time>
      </trkpt>
      <trkpt lat="48.40776" lon="-4.77026">
        <ele>48.9</ele>
        <time>2020-06-08T19:59:28Z</time>
      </trkpt>
      <trkpt lat="48.40776" lon="-4.77037">
        <ele>48.5</ele>
        <time>2020-06-08T19:59:29Z</time>
      </trkpt>
      <trkpt lat="48.40777" lon="-4.77049">
        <ele>48</ele>
        <time>2020-06-08T19:59:30Z</time>
      </trkpt>
      <trkpt lat="48.40778" lon="-4.77062">
        <ele>47.3</ele>
        <time>2020-06-08T19:59:31Z</time>
      </trkpt>
      <trkpt lat="48.40778" lon="-4.77074">
        <ele>46.9</ele>
        <time>2020-06-08T19:59:32Z</time>
      </trkpt>
      <trkpt lat="48.40779" lon="-4.77087">
        <ele>46.3</ele>
        <time>2020-06-08T19:59:33Z</time>
      </trkpt>
      <trkpt lat="48.40781" lon="-4.77101">
        <ele>45.7</ele>
        <time>2020-06-08T19:59:34Z</time>
      </trkpt>
      <trkpt lat="48.40781" lon="-4.77115">
        <ele>44.9</ele>
        <time>2020-06-08T19:59:35Z</time>
      </trkpt>
      <trkpt lat="48.40782" lon="-4.77129">
        <ele>44.5</ele>
        <time>2020-06-08T19:59:36Z</time>
      </trkpt>
      <trkpt lat="48.40783" lon="-4.77144">
        <ele>44.1</ele>
        <time>2020-06-08T19:59:37Z</time>
      </trkpt>
      <trkpt lat="48.40784" lon="-4.77159">
        <ele>43.4</ele>
        <time>2020-06-08T19:59:38Z</time>
      </trkpt>
      <trkpt lat="48.40784" lon="-4.77173">
        <ele>42.7</ele>
        <time>2020-06-08T19:59:39Z</time>
      </trkpt>
      <trkpt lat="48.40785" lon="-4.77186">
        <ele>41.8</ele>
        <time>2020-06-08T19:59:40Z</time>
      </trkpt>
      <trkpt lat="48.40786" lon="-4.77199">
        <ele>40.9</ele>
        <time>2020-06-08T19:59:41Z</time>
      </trkpt>
      <trkpt lat="48.40786" lon="-4.77211">
        <ele>40</ele>
        <time>2020-06-08T19:59:42Z</time>
      </trkpt>
      <trkpt lat="48.40787" lon="-4.77222">
        <ele>39.1</ele>
        <time>2020-06-08T19:59:43Z</time>
      </trkpt>
      <trkpt lat="48.40788" lon="-4.77232">
        <ele>38.3</ele>
        <time>2020-06-08T19:59:44Z</time>
      </trkpt>
      <trkpt lat="48.40789" lon="-4.77242">
        <ele>37.4</ele>
        <time>2020-06-08T19:59:45Z</time>
      </trkpt>
      <trkpt lat="48.4079" lon="-4.7725">
        <ele>36.6</ele>
        <time>2020-06-08T19:59:46Z</time>
      </trkpt>
      <trkpt lat="48.40791" lon="-4.77259">
        <ele>35.8</ele>
        <time>2020-06-08T19:59:47Z</time>
      </trkpt>
      <trkpt lat="48.40792" lon="-4.77266">
        <ele>35.1</ele>
        <time>2020-06-08T19:59:48Z</time>
      </trkpt>
      <trkpt lat="48.40793" lon="-4.77273">
        <ele>34.4</ele>
        <time>2020-06-08T19:59:49Z</time>
      </trkpt>
      <trkpt lat="48.40794" lon="-4.77279">
        <ele>33.9</ele>
        <time>2020-06-08T19:59:50Z</time>
      </trkpt>
      <trkpt lat="48.40796" lon="-4.77284">
        <ele>33.2</ele>
        <time>2020-06-08T19:59:51Z</time>
      </trkpt>
      <trkpt lat="48.408" lon="-4.77288">
        <ele>32.5</ele>
        <time>2020-06-08T19:59:52Z</time>
      </trkpt>
      <trkpt lat="48.40805" lon="-4.77291">
        <ele>31.5</ele>
        <time>2020-06-08T19:59:53Z</time>
      </trkpt>
      <trkpt lat="48.40812" lon="-4.7729">
        <ele>30.4</ele>
        <time>2020-06-08T19:59:54Z</time>
      </trkpt>
      <trkpt lat="48.40819" lon="-4.7729">
        <ele>29.3</ele>
        <time>2020-06-08T19:59:55Z</time>
      </trkpt>
      <trkpt lat="48.40828" lon="-4.77289">
        <ele>28.1</ele>
        <time>2020-06-08T19:59:56Z</time>
      </trkpt>
      <trkpt lat="48.40837" lon="-4.77287">
        <ele>26.7</ele>
        <time>2020-06-08T19:59:57Z</time>
      </trkpt>
      <trkpt lat="48.40845" lon="-4.77285">
        <ele>25.5</ele>
        <time>2020-06-08T19:59:58Z</time>
      </trkpt>
      <trkpt lat="48.40854" lon="-4.77283">
        <ele>24.2</ele>
        <time>2020-06-08T19:59:59Z</time>
      </trkpt>
      <trkpt lat="48.40863" lon="-4.77282">
        <ele>23</ele>
        <time>2020-06-08T20:00:00Z</time>
      </trkpt>
      <trkpt lat="48.40871" lon="-4.77282">
        <ele>21.7</ele>
        <time>2020-06-08T20:00:01Z</time>
      </trkpt>
      <trkpt lat="48.4088" lon="-4.77283">
        <ele>20.4</ele>
        <time>2020-06-08T20:00:02Z</time>
      </trkpt>
      <trkpt lat="48.40887" lon="-4.77287">
        <ele>19</ele>
        <time>2020-06-08T20:00:03Z</time>
      </trkpt>
      <trkpt lat="48.40894" lon="-4.77292">
        <ele>17.7</ele>
        <time>2020-06-08T20:00:04Z</time>
      </trkpt>
      <trkpt lat="48.409" lon="-4.773">
        <ele>16.2</ele>
        <time>2020-06-08T20:00:05Z</time>
      </trkpt>
      <trkpt lat="48.40904" lon="-4.77312">
        <ele>14.8</ele>
        <time>2020-06-08T20:00:06Z</time>
      </trkpt>
      <trkpt lat="48.40907" lon="-4.77325">
        <ele>13.6</ele>
        <time>2020-06-08T20:00:07Z</time>
      </trkpt>
      <trkpt lat="48.4091" lon="-4.7734">
        <ele>12.6</ele>
        <time>2020-06-08T20:00:08Z</time>
      </trkpt>
      <trkpt lat="48.40913" lon="-4.77355">
        <ele>11.8</ele>
        <time>2020-06-08T20:00:09Z</time>
      </trkpt>
      <trkpt lat="48.40916" lon="-4.77371">
        <ele>10.9</ele>
        <time>2020-06-08T20:00:10Z</time>
      </trkpt>
      <trkpt lat="48.40919" lon="-4.77387">
        <ele>10.1</ele>
        <time>2020-06-08T20:00:11Z</time>
      </trkpt>
      <trkpt lat="48.40921" lon="-4.77403">
        <ele>9.4</ele>
        <time>2020-06-08T20:00:12Z</time>
      </trkpt>
      <trkpt lat="48.40924" lon="-4.77419">
        <ele>9</ele>
        <time>2020-06-08T20:00:13Z</time>
      </trkpt>
      <trkpt lat="48.40927" lon="-4.77435">
        <ele>8.6</ele>
        <time>2020-06-08T20:00:14Z</time>
      </trkpt>
      <trkpt lat="48.40929" lon="-4.7745">
        <ele>8.5</ele>
        <time>2020-06-08T20:00:15Z</time>
      </trkpt>
      <trkpt lat="48.40932" lon="-4.77465">
        <ele>8.5</ele>
        <time>2020-06-08T20:00:16Z</time>
      </trkpt>
      <trkpt lat="48.40934" lon="-4.77479">
        <ele>8.6</ele>
        <time>2020-06-08T20:00:17Z</time>
      </trkpt>
      <trkpt lat="48.40935" lon="-4.77493">
        <ele>8.8</ele>
        <time>2020-06-08T20:00:18Z</time>
      </trkpt>
      <trkpt lat="48.40937" lon="-4.77507">
        <ele>9</ele>
        <time>2020-06-08T20:00:19Z</time>
      </trkpt>
      <trkpt lat="48.40938" lon="-4.77519">
        <ele>9.3</ele>
        <time>2020-06-08T20:00:20Z</time>
      </trkpt>
      <trkpt lat="48.40939" lon="-4.77532">
        <ele>9.5</ele>
        <time>2020-06-08T20:00:21Z</time>
      </trkpt>
      <trkpt lat="48.40941" lon="-4.77544">
        <ele>9.7</ele>
        <time>2020-06-08T20:00:22Z</time>
      </trkpt>
      <trkpt lat="48.40942" lon="-4.77555">
        <ele>10.2</ele>
        <time>2020-06-08T20:00:23Z</time>
      </trkpt>
      <trkpt lat="48.40944" lon="-4.77565">
        <ele>10.7</ele>
        <time>2020-06-08T20:00:24Z</time>
      </trkpt>
      <trkpt lat="48.40945" lon="-4.77575">
        <ele>11.1</ele>
        <time>2020-06-08T20:00:25Z</time>
      </trkpt>
      <trkpt lat="48.40947" lon="-4.77585">
        <ele>11.6</ele>
        <time>2020-06-08T20:00:26Z</time>
      </trkpt>
      <trkpt lat="48.40949" lon="-4.77593">
        <ele>12</ele>
        <time>2020-06-08T20:00:27Z</time>
      </trkpt>
      <trkpt lat="48.4095" lon="-4.77602">
        <ele>12.5</ele>
        <time>2020-06-08T20:00:28Z</time>
      </trkpt>
      <trkpt lat="48.4095" lon="-4.7761">
        <ele>12.9</ele>
        <time>2020-06-08T20:00:29Z</time>
      </trkpt>
      <trkpt lat="48.4095" lon="-4.77617">
        <ele>13.4</ele>
        <time>2020-06-08T20:00:30Z</time>
      </trkpt>
      <trkpt lat="48.4095" lon="-4.77625">
        <ele>13.8</ele>
        <time>2020-06-08T20:00:31Z</time>
      </trkpt>
      <trkpt lat="48.40951" lon="-4.77632">
        <ele>14.2</ele>
        <time>2020-06-08T20:00:32Z</time>
      </trkpt>
      <trkpt lat="48.40952" lon="-4.77638">
        <ele>14.6</ele>
        <time>2020-06-08T20:00:33Z</time>
      </trkpt>
      <trkpt lat="48.40952" lon="-4.77644">
        <ele>14.9</ele>
        <time>2020-06-08T20:00:34Z</time>
      </trkpt>
      <trkpt lat="48.40953" lon="-4.77649">
        <ele>15.2</ele>
        <time>2020-06-08T20:00:35Z</time>
      </trkpt>
      <trkpt lat="48.40952" lon="-4.77654">
        <ele>15.5</ele>
        <time>2020-06-08T20:00:36Z</time>
      </trkpt>
      <trkpt lat="48.40951" lon="-4.77658">
        <ele>15.7</ele>
        <time>2020-06-08T20:00:37Z</time>
      </trkpt>
      <trkpt lat="48.40952" lon="-4.77663">
        <ele>16</ele>
        <time>2020-06-08T20:00:38Z</time>
      </trkpt>
      <trkpt lat="48.40953" lon="-4.77668">
        <ele>16.2</ele>
        <time>2020-06-08T20:00:39Z</time>
      </trkpt>
      <trkpt lat="48.40954" lon="-4.77673">
        <ele>16.5</ele>
        <time>2020-06-08T20:00:40Z</time>
      </trkpt>
      <trkpt lat="48.40954" lon="-4.77677">
        <ele>16.8</ele>
        <time>2020-06-08T20:00:41Z</time>
      </trkpt>
      <trkpt lat="48.40955" lon="-4.77681">
        <ele>17</ele>
        <time>2020-06-08T20:00:42Z</time>
      </trkpt>
      <trkpt lat="48.40956" lon="-4.77686">
        <ele>17.2</ele>
        <time>2020-06-08T20:00:43Z</time>
      </trkpt>
      <trkpt lat="48.40956" lon="-4.7769">
        <ele>17.4</ele>
        <time>2020-06-08T20:00:44Z</time>
      </trkpt>
      <trkpt lat="48.40956" lon="-4.77695">
        <ele>17.6</ele>
        <time>2020-06-08T20:00:45Z</time>
      </trkpt>
      <trkpt lat="48.40956" lon="-4.77699">
        <ele>17.8</ele>
        <time>2020-06-08T20:00:46Z</time>
      </trkpt>
      <trkpt lat="48.40956" lon="-4.77704">
        <ele>18</ele>
        <time>2020-06-08T20:00:47Z</time>
      </trkpt>
      <trkpt lat="48.40957" lon="-4.77708">
        <ele>18.2</ele>
        <time>2020-06-08T20:00:48Z</time>
      </trkpt>
      <trkpt lat="48.40959" lon="-4.77713">
        <ele>18.4</ele>
        <time>2020-06-08T20:00:49Z</time>
      </trkpt>
      <trkpt lat="48.40959" lon="-4.77717">
        <ele>18.6</ele>
        <time>2020-06-08T20:00:50Z</time>
      </trkpt>
      <trkpt lat="48.40961" lon="-4.77721">
        <ele>18.8</ele>
        <time>2020-06-08T20:00:51Z</time>
      </trkpt>
      <trkpt lat="48.40961" lon="-4.77726">
        <ele>19</ele>
        <time>2020-06-08T20:00:52Z</time>
      </trkpt>
      <trkpt lat="48.40962" lon="-4.7773">
        <ele>19.2</ele>
        <time>2020-06-08T20:00:53Z</time>
      </trkpt>
      <trkpt lat="48.40962" lon="-4.77736">
        <ele>19.4</ele>
        <time>2020-06-08T20:00:54Z</time>
      </trkpt>
      <trkpt lat="48.40963" lon="-4.7774">
        <ele>19.6</ele>
        <time>2020-06-08T20:00:55Z</time>
      </trkpt>
      <trkpt lat="48.40965" lon="-4.77744">
        <ele>19.8</ele>
        <time>2020-06-08T20:00:56Z</time>
      </trkpt>
      <trkpt lat="48.40966" lon="-4.77748">
        <ele>20</ele>
        <time>2020-06-08T20:00:57Z</time>
      </trkpt>
      <trkpt lat="48.40967" lon="-4.77754">
        <ele>20.2</ele>
        <time>2020-06-08T20:00:58Z</time>
      </trkpt>
      <trkpt lat="48.40968" lon="-4.77756">
        <ele>20.3</ele>
        <time>2020-06-08T20:00:59Z</time>
      </trkpt>
      <trkpt lat="48.40969" lon="-4.7776">
        <ele>20.5</ele>
        <time>2020-06-08T20:01:00Z</time>
      </trkpt>
      <trkpt lat="48.4097" lon="-4.77767">
        <ele>20.8</ele>
        <time>2020-06-08T20:01:01Z</time>
      </trkpt>
      <trkpt lat="48.40972" lon="-4.77771">
        <ele>20.9</ele>
        <time>2020-06-08T20:01:02Z</time>
      </trkpt>
      <trkpt lat="48.40974" lon="-4.77774">
        <ele>21.1</ele>
        <time>2020-06-08T20:01:03Z</time>
      </trkpt>
      <trkpt lat="48.40975" lon="-4.7778">
        <ele>21.3</ele>
        <time>2020-06-08T20:01:04Z</time>
      </trkpt>
      <trkpt lat="48.40975" lon="-4.77782">
        <ele>21.3</ele>
        <time>2020-06-08T20:01:05Z</time>
      </trkpt>
      <trkpt lat="48.40976" lon="-4.77785">
        <ele>21.5</ele>
        <time>2020-06-08T20:01:06Z</time>
      </trkpt>
      <trkpt lat="48.40978" lon="-4.77791">
        <ele>21.7</ele>
        <time>2020-06-08T20:01:07Z</time>
      </trkpt>
      <trkpt lat="48.40978" lon="-4.77794">
        <ele>21.7</ele>
        <time>2020-06-08T20:01:08Z</time>
      </trkpt>
      <trkpt lat="48.4098" lon="-4.77799">
        <ele>21.9</ele>
        <time>2020-06-08T20:01:09Z</time>
      </trkpt>
      <trkpt lat="48.40981" lon="-4.77804">
        <ele>22.2</ele>
        <time>2020-06-08T20:01:10Z</time>
      </trkpt>
      <trkpt lat="48.40982" lon="-4.77809">
        <ele>22.3</ele>
        <time>2020-06-08T20:01:11Z</time>
      </trkpt>
      <trkpt lat="48.40984" lon="-4.77814">
        <ele>22.5</ele>
        <time>2020-06-08T20:01:12Z</time>
      </trkpt>
      <trkpt lat="48.40985" lon="-4.77816">
        <ele>22.5</ele>
        <time>2020-06-08T20:01:13Z</time>
      </trkpt>
      <trkpt lat="48.40986" lon="-4.77822">
        <ele>22.7</ele>
        <time>2020-06-08T20:01:14Z</time>
      </trkpt>
      <trkpt lat="48.40987" lon="-4.77824">
        <ele>22.8</ele>
        <time>2020-06-08T20:01:15Z</time>
      </trkpt>
      <trkpt lat="48.40989" lon="-4.77829">
        <ele>22.9</ele>
        <time>2020-06-08T20:01:16Z</time>
      </trkpt>
      <trkpt lat="48.40991" lon="-4.77832">
        <ele>23.1</ele>
        <time>2020-06-08T20:01:17Z</time>
      </trkpt>
      <trkpt lat="48.40994" lon="-4.77838">
        <ele>23.2</ele>
        <time>2020-06-08T20:01:18Z</time>
      </trkpt>
      <trkpt lat="48.40996" lon="-4.77841">
        <ele>23.3</ele>
        <time>2020-06-08T20:01:19Z</time>
      </trkpt>
      <trkpt lat="48.40998" lon="-4.77845">
        <ele>23.4</ele>
        <time>2020-06-08T20:01:20Z</time>
      </trkpt>
      <trkpt lat="48.41" lon="-4.77849">
        <ele>23.6</ele>
        <time>2020-06-08T20:01:21Z</time>
      </trkpt>
      <trkpt lat="48.41003" lon="-4.77854">
        <ele>23.7</ele>
        <time>2020-06-08T20:01:22Z</time>
      </trkpt>
      <trkpt lat="48.41006" lon="-4.77859">
        <ele>23.9</ele>
        <time>2020-06-08T20:01:23Z</time>
      </trkpt>
      <trkpt lat="48.41008" lon="-4.77864">
        <ele>24</ele>
        <time>2020-06-08T20:01:24Z</time>
      </trkpt>
      <trkpt lat="48.41011" lon="-4.7787">
        <ele>24.2</ele>
        <time>2020-06-08T20:01:25Z</time>
      </trkpt>
      <trkpt lat="48.41013" lon="-4.77873">
        <ele>24.3</ele>
        <time>2020-06-08T20:01:26Z</time>
      </trkpt>
      <trkpt lat="48.41016" lon="-4.77876">
        <ele>24.4</ele>
        <time>2020-06-08T20:01:27Z</time>
      </trkpt>
      <trkpt lat="48.41019" lon="-4.77879">
        <ele>24.6</ele>
        <time>2020-06-08T20:01:28Z</time>
      </trkpt>
      <trkpt lat="48.41022" lon="-4.77884">
        <ele>24.7</ele>
        <time>2020-06-08T20:01:29Z</time>
      </trkpt>
      <trkpt lat="48.41026" lon="-4.7789">
        <ele>25</ele>
        <time>2020-06-08T20:01:30Z</time>
      </trkpt>
      <trkpt lat="48.41028" lon="-4.77893">
        <ele>25.1</ele>
        <time>2020-06-08T20:01:31Z</time>
      </trkpt>
      <trkpt lat="48.41031" lon="-4.77897">
        <ele>25.2</ele>
        <time>2020-06-08T20:01:32Z</time>
      </trkpt>
      <trkpt lat="48.41034" lon="-4.779">
        <ele>25.4</ele>
        <time>2020-06-08T20:01:33Z</time>
      </trkpt>
      <trkpt lat="48.41036" lon="-4.77904">
        <ele>25.5</ele>
        <time>2020-06-08T20:01:34Z</time>
      </trkpt>
      <trkpt lat="48.4104" lon="-4.77907">
        <ele>25.7</ele>
        <time>2020-06-08T20:01:35Z</time>
      </trkpt>
      <trkpt lat="48.41042" lon="-4.77908">
        <ele>25.8</ele>
        <time>2020-06-08T20:01:36Z</time>
      </trkpt>
      <trkpt lat="48.41046" lon="-4.7791">
        <ele>25.9</ele>
        <time>2020-06-08T20:01:37Z</time>
      </trkpt>
      <trkpt lat="48.41049" lon="-4.77913">
        <ele>26.1</ele>
        <time>2020-06-08T20:01:38Z</time>
      </trkpt>
      <trkpt lat="48.41052" lon="-4.77915">
        <ele>26.2</ele>
        <time>2020-06-08T20:01:39Z</time>
      </trkpt>
      <trkpt lat="48.41055" lon="-4.77917">
        <ele>26.4</ele>
        <time>2020-06-08T20:01:40Z</time>
      </trkpt>
      <trkpt lat="48.41058" lon="-4.77921">
        <ele>26.5</ele>
        <time>2020-06-08T20:01:41Z</time>
      </trkpt>
      <trkpt lat="48.4106" lon="-4.77922">
        <ele>26.7</ele>
        <time>2020-06-08T20:01:42Z</time>
      </trkpt>
      <trkpt lat="48.41064" lon="-4.77924">
        <ele>26.9</ele>
        <time>2020-06-08T20:01:43Z</time>
      </trkpt>
      <trkpt lat="48.41068" lon="-4.77926">
        <ele>27</ele>
        <time>2020-06-08T20:01:44Z</time>
      </trkpt>
      <trkpt lat="48.41069" lon="-4.77927">
        <ele>27.1</ele>
        <time>2020-06-08T20:01:45Z</time>
      </trkpt>
      <trkpt lat="48.41073" lon="-4.7793">
        <ele>27.3</ele>
        <time>2020-06-08T20:01:46Z</time>
      </trkpt>
      <trkpt lat="48.41073" lon="-4.77931">
        <ele>27.4</ele>
        <time>2020-06-08T20:01:47Z</time>
      </trkpt>
      <trkpt lat="48.41076" lon="-4.77932">
        <ele>27.5</ele>
        <time>2020-06-08T20:01:48Z</time>
      </trkpt>
      <trkpt lat="48.41079" lon="-4.77935">
        <ele>27.7</ele>
        <time>2020-06-08T20:01:49Z</time>
      </trkpt>
      <trkpt lat="48.41082" lon="-4.77936">
        <ele>27.8</ele>
        <time>2020-06-08T20:01:50Z</time>
      </trkpt>
      <trkpt lat="48.41085" lon="-4.77938">
        <ele>27.9</ele>
        <time>2020-06-08T20:01:51Z</time>
      </trkpt>
      <trkpt lat="48.41088" lon="-4.77939">
        <ele>28.1</ele>
        <time>2020-06-08T20:01:52Z</time>
      </trkpt>
      <trkpt lat="48.41091" lon="-4.77939">
        <ele>28.2</ele>
        <time>2020-06-08T20:01:53Z</time>
      </trkpt>
      <trkpt lat="48.41093" lon="-4.77939">
        <ele>28.3</ele>
        <time>2020-06-08T20:01:54Z</time>
      </trkpt>
      <trkpt lat="48.41096" lon="-4.77939">
        <ele>28.4</ele>
        <time>2020-06-08T20:01:55Z</time>
      </trkpt>
      <trkpt lat="48.41099" lon="-4.77941">
        <ele>28.5</ele>
        <time>2020-06-08T20:01:56Z</time>
      </trkpt>
      <trkpt lat="48.41101" lon="-4.77943">
        <ele>28.6</ele>
        <time>2020-06-08T20:01:57Z</time>
      </trkpt>
      <trkpt lat="48.41105" lon="-4.77944">
        <ele>28.7</ele>
        <time>2020-06-08T20:01:58Z</time>
      </trkpt>
      <trkpt lat="48.41108" lon="-4.77944">
        <ele>28.9</ele>
        <time>2020-06-08T20:01:59Z</time>
      </trkpt>
      <trkpt lat="48.41111" lon="-4.77943">
        <ele>29</ele>
        <time>2020-06-08T20:02:00Z</time>
      </trkpt>
      <trkpt lat="48.41112" lon="-4.77943">
        <ele>29</ele>
        <time>2020-06-08T20:02:01Z</time>
      </trkpt>
      <trkpt lat="48.41115" lon="-4.77944">
        <ele>29.1</ele>
        <time>2020-06-08T20:02:02Z</time>
      </trkpt>
      <trkpt lat="48.4112" lon="-4.77945">
        <ele>29.3</ele>
        <time>2020-06-08T20:02:03Z</time>
      </trkpt>
      <trkpt lat="48.41123" lon="-4.77946">
        <ele>29.4</ele>
        <time>2020-06-08T20:02:04Z</time>
      </trkpt>
      <trkpt lat="48.41126" lon="-4.77947">
        <ele>29.6</ele>
        <time>2020-06-08T20:02:05Z</time>
      </trkpt>
      <trkpt lat="48.41131" lon="-4.77948">
        <ele>29.8</ele>
        <time>2020-06-08T20:02:06Z</time>
      </trkpt>
      <trkpt lat="48.41134" lon="-4.77949">
        <ele>29.9</ele>
        <time>2020-06-08T20:02:07Z</time>
      </trkpt>
      <trkpt lat="48.41137" lon="-4.7795">
        <ele>30</ele>
        <time>2020-06-08T20:02:08Z</time>
      </trkpt>
      <trkpt lat="48.41138" lon="-4.7795">
        <ele>30.1</ele>
        <time>2020-06-08T20:02:09Z</time>
      </trkpt>
      <trkpt lat="48.41142" lon="-4.7795">
        <ele>30.2</ele>
        <time>2020-06-08T20:02:10Z</time>
      </trkpt>
      <trkpt lat="48.41143" lon="-4.77951">
        <ele>30.2</ele>
        <time>2020-06-08T20:02:11Z</time>
      </trkpt>
      <trkpt lat="48.41147" lon="-4.7795">
        <ele>30.4</ele>
        <time>2020-06-08T20:02:12Z</time>
      </trkpt>
      <trkpt lat="48.41149" lon="-4.77949">
        <ele>30.4</ele>
        <time>2020-06-08T20:02:13Z</time>
      </trkpt>
      <trkpt lat="48.41152" lon="-4.77952">
        <ele>30.6</ele>
        <time>2020-06-08T20:02:14Z</time>
      </trkpt>
      <trkpt lat="48.41156" lon="-4.77953">
        <ele>30.7</ele>
        <time>2020-06-08T20:02:15Z</time>
      </trkpt>
      <trkpt lat="48.41159" lon="-4.77954">
        <ele>30.8</ele>
        <time>2020-06-08T20:02:16Z</time>
      </trkpt>
      <trkpt lat="48.41163" lon="-4.77955">
        <ele>30.9</ele>
        <time>2020-06-08T20:02:17Z</time>
      </trkpt>
      <trkpt lat="48.41164" lon="-4.77955">
        <ele>31</ele>
        <time>2020-06-08T20:02:18Z</time>
      </trkpt>
      <trkpt lat="48.41167" lon="-4.77956">
        <ele>31.1</ele>
        <time>2020-06-08T20:02:19Z</time>
      </trkpt>
      <trkpt lat="48.41168" lon="-4.77956">
        <ele>31.1</ele>
        <time>2020-06-08T20:02:20Z</time>
      </trkpt>
      <trkpt lat="48.41171" lon="-4.77955">
        <ele>31.2</ele>
        <time>2020-06-08T20:02:21Z</time>
      </trkpt>
      <trkpt lat="48.41174" lon="-4.77956">
        <ele>31.3</ele>
        <time>2020-06-08T20:02:22Z</time>
      </trkpt>
      <trkpt lat="48.41175" lon="-4.77956">
        <ele>31.3</ele>
        <time>2020-06-08T20:02:23Z</time>
      </trkpt>
      <trkpt lat="48.41178" lon="-4.77957">
        <ele>31.4</ele>
        <time>2020-06-08T20:02:24Z</time>
      </trkpt>
      <trkpt lat="48.41182" lon="-4.77959">
        <ele>31.5</ele>
        <time>2020-06-08T20:02:25Z</time>
      </trkpt>
      <trkpt lat="48.41183" lon="-4.7796">
        <ele>31.5</ele>
        <time>2020-06-08T20:02:26Z</time>
      </trkpt>
      <trkpt lat="48.41185" lon="-4.77963">
        <ele>31.6</ele>
        <time>2020-06-08T20:02:27Z</time>
      </trkpt>
      <trkpt lat="48.41186" lon="-4.77964">
        <ele>31.6</ele>
        <time>2020-06-08T20:02:28Z</time>
      </trkpt>
      <trkpt lat="48.41187" lon="-4.77968">
        <ele>31.7</ele>
        <time>2020-06-08T20:02:29Z</time>
      </trkpt>
      <trkpt lat="48.41187" lon="-4.7797">
        <ele>31.7</ele>
        <time>2020-06-08T20:02:30Z</time>
      </trkpt>
      <trkpt lat="48.41186" lon="-4.77971">
        <ele>31.7</ele>
        <time>2020-06-08T20:02:31Z</time>
      </trkpt>
      <trkpt lat="48.41184" lon="-4.77969">
        <ele>31.7</ele>
        <time>2020-06-08T20:02:32Z</time>
      </trkpt>
      <trkpt lat="48.41183" lon="-4.77966">
        <ele>31.6</ele>
        <time>2020-06-08T20:02:33Z</time>
      </trkpt>
      <trkpt lat="48.41183" lon="-4.77963">
        <ele>31.6</ele>
        <time>2020-06-08T20:02:34Z</time>
      </trkpt>
      <trkpt lat="48.41183" lon="-4.77961">
        <ele>31.6</ele>
        <time>2020-06-08T20:02:35Z</time>
      </trkpt>
      <trkpt lat="48.41183" lon="-4.77958">
        <ele>31.6</ele>
        <time>2020-06-08T20:02:36Z</time>
      </trkpt>
      <trkpt lat="48.41183" lon="-4.77956">
        <ele>31.6</ele>
        <time>2020-06-08T20:02:37Z</time>
      </trkpt>
      <trkpt lat="48.41183" lon="-4.77954">
        <ele>31.6</ele>
        <time>2020-06-08T20:02:38Z</time>
      </trkpt>
      <trkpt lat="48.41184" lon="-4.77954">
        <ele>31.6</ele>
        <time>2020-06-08T20:02:39Z</time>
      </trkpt>
      <trkpt lat="48.41186" lon="-4.77956">
        <ele>31.6</ele>
        <time>2020-06-08T20:02:40Z</time>
      </trkpt>
      <trkpt lat="48.41187" lon="-4.77957">
        <ele>31.6</ele>
        <time>2020-06-08T20:02:41Z</time>
      </trkpt>
      <trkpt lat="48.41188" lon="-4.77959">
        <ele>31.6</ele>
        <time>2020-06-08T20:02:42Z</time>
      </trkpt>
      <trkpt lat="48.41188" lon="-4.77962">
        <ele>31.6</ele>
        <time>2020-06-08T20:02:43Z</time>
      </trkpt>
      <trkpt lat="48.41188" lon="-4.77964">
        <ele>31.6</ele>
        <time>2020-06-08T20:02:44Z</time>
      </trkpt>
      <trkpt lat="48.41188" lon="-4.77965">
        <ele>31.6</ele>
        <time>2020-06-08T20:02:45Z</time>
      </trkpt>
      <trkpt lat="48.41188" lon="-4.7797">
        <ele>31.7</ele>
        <time>2020-06-08T20:02:46Z</time>
      </trkpt>
      <trkpt lat="48.41187" lon="-4.77975">
        <ele>31.7</ele>
        <time>2020-06-08T20:02:47Z</time>
      </trkpt>
      <trkpt lat="48.41187" lon="-4.77977">
        <ele>31.7</ele>
        <time>2020-06-08T20:02:48Z</time>
      </trkpt>
      <trkpt lat="48.41187" lon="-4.77983">
        <ele>31.7</ele>
        <time>2020-06-08T20:02:49Z</time>
      </trkpt>
      <trkpt lat="48.41187" lon="-4.77986">
        <ele>31.8</ele>
        <time>2020-06-08T20:02:50Z</time>
      </trkpt>
      <trkpt lat="48.41188" lon="-4.77993">
        <ele>31.8</ele>
        <time>2020-06-08T20:02:51Z</time>
      </trkpt>
      <trkpt lat="48.41188" lon="-4.77998">
        <ele>31.8</ele>
        <time>2020-06-08T20:02:52Z</time>
      </trkpt>
      <trkpt lat="48.41189" lon="-4.78003">
        <ele>31.9</ele>
        <time>2020-06-08T20:02:53Z</time>
      </trkpt>
      <trkpt lat="48.4119" lon="-4.78009">
        <ele>32</ele>
        <time>2020-06-08T20:02:54Z</time>
      </trkpt>
      <trkpt lat="48.4119" lon="-4.78016">
        <ele>32</ele>
        <time>2020-06-08T20:02:55Z</time>
      </trkpt>
      <trkpt lat="48.41191" lon="-4.78024">
        <ele>32.1</ele>
        <time>2020-06-08T20:02:56Z</time>
      </trkpt>
      <trkpt lat="48.41193" lon="-4.78032">
        <ele>32.3</ele>
        <time>2020-06-08T20:02:57Z</time>
      </trkpt>
      <trkpt lat="48.41193" lon="-4.78039">
        <ele>32.4</ele>
        <time>2020-06-08T20:02:58Z</time>
      </trkpt>
      <trkpt lat="48.41194" lon="-4.78046">
        <ele>32.5</ele>
        <time>2020-06-08T20:02:59Z</time>
      </trkpt>
      <trkpt lat="48.41194" lon="-4.78053">
        <ele>32.6</ele>
        <time>2020-06-08T20:03:00Z</time>
      </trkpt>
      <trkpt lat="48.41195" lon="-4.7806">
        <ele>32.8</ele>
        <time>2020-06-08T20:03:01Z</time>
      </trkpt>
      <trkpt lat="48.41195" lon="-4.78069">
        <ele>32.9</ele>
        <time>2020-06-08T20:03:02Z</time>
      </trkpt>
      <trkpt lat="48.41196" lon="-4.78075">
        <ele>33</ele>
        <time>2020-06-08T20:03:03Z</time>
      </trkpt>
      <trkpt lat="48.41197" lon="-4.78081">
        <ele>33.2</ele>
        <time>2020-06-08T20:03:04Z</time>
      </trkpt>
      <trkpt lat="48.41197" lon="-4.78088">
        <ele>33.3</ele>
        <time>2020-06-08T20:03:05Z</time>
      </trkpt>
      <trkpt lat="48.41197" lon="-4.78095">
        <ele>33.4</ele>
        <time>2020-06-08T20:03:06Z</time>
      </trkpt>
      <trkpt lat="48.41198" lon="-4.78103">
        <ele>33.6</ele>
        <time>2020-06-08T20:03:07Z</time>
      </trkpt>
      <trkpt lat="48.41197" lon="-4.7811">
        <ele>33.7</ele>
        <time>2020-06-08T20:03:08Z</time>
      </trkpt>
      <trkpt lat="48.41196" lon="-4.78118">
        <ele>33.9</ele>
        <time>2020-06-08T20:03:09Z</time>
      </trkpt>
      <trkpt lat="48.41194" lon="-4.78126">
        <ele>34</ele>
        <time>2020-06-08T20:03:10Z</time>
      </trkpt>
      <trkpt lat="48.41193" lon="-4.78133">
        <ele>34.2</ele>
        <time>2020-06-08T20:03:11Z</time>
      </trkpt>
      <trkpt lat="48.41192" lon="-4.78143">
        <ele>34.3</ele>
        <time>2020-06-08T20:03:12Z</time>
      </trkpt>
      <trkpt lat="48.4119" lon="-4.78152">
        <ele>34.5</ele>
        <time>2020-06-08T20:03:13Z</time>
      </trkpt>
      <trkpt lat="48.41191" lon="-4.78159">
        <ele>34.7</ele>
        <time>2020-06-08T20:03:14Z</time>
      </trkpt>
      <trkpt lat="48.41189" lon="-4.78167">
        <ele>34.8</ele>
        <time>2020-06-08T20:03:15Z</time>
      </trkpt>
      <trkpt lat="48.41189" lon="-4.78176">
        <ele>35</ele>
        <time>2020-06-08T20:03:16Z</time>
      </trkpt>
      <trkpt lat="48.41189" lon="-4.78185">
        <ele>35.2</ele>
        <time>2020-06-08T20:03:17Z</time>
      </trkpt>
      <trkpt lat="48.41189" lon="-4.78193">
        <ele>35.5</ele>
        <time>2020-06-08T20:03:18Z</time>
      </trkpt>
      <trkpt lat="48.41189" lon="-4.782">
        <ele>35.7</ele>
        <time>2020-06-08T20:03:19Z</time>
      </trkpt>
      <trkpt lat="48.41189" lon="-4.78208">
        <ele>35.9</ele>
        <time>2020-06-08T20:03:20Z</time>
      </trkpt>
      <trkpt lat="48.4119" lon="-4.78217">
        <ele>36.2</ele>
        <time>2020-06-08T20:03:21Z</time>
      </trkpt>
      <trkpt lat="48.41191" lon="-4.78225">
        <ele>36.5</ele>
        <time>2020-06-08T20:03:22Z</time>
      </trkpt>
      <trkpt lat="48.41193" lon="-4.78232">
        <ele>36.7</ele>
        <time>2020-06-08T20:03:23Z</time>
      </trkpt>
      <trkpt lat="48.41195" lon="-4.78239">
        <ele>37</ele>
        <time>2020-06-08T20:03:24Z</time>
      </trkpt>
      <trkpt lat="48.41197" lon="-4.78245">
        <ele>37.3</ele>
        <time>2020-06-08T20:03:25Z</time>
      </trkpt>
      <trkpt lat="48.412" lon="-4.78252">
        <ele>37.5</ele>
        <time>2020-06-08T20:03:26Z</time>
      </trkpt>
      <trkpt lat="48.41203" lon="-4.78257">
        <ele>37.8</ele>
        <time>2020-06-08T20:03:27Z</time>
      </trkpt>
      <trkpt lat="48.41204" lon="-4.78263">
        <ele>38</ele>
        <time>2020-06-08T20:03:28Z</time>
      </trkpt>
      <trkpt lat="48.41205" lon="-4.78269">
        <ele>38.2</ele>
        <time>2020-06-08T20:03:29Z</time>
      </trkpt>
      <trkpt lat="48.41206" lon="-4.78275">
        <ele>38.4</ele>
        <time>2020-06-08T20:03:30Z</time>
      </trkpt>
      <trkpt lat="48.41208" lon="-4.78281">
        <ele>38.6</ele>
        <time>2020-06-08T20:03:31Z</time>
      </trkpt>
      <trkpt lat="48.41208" lon="-4.78284">
        <ele>38.7</ele>
        <time>2020-06-08T20:03:32Z</time>
      </trkpt>
      <trkpt lat="48.41209" lon="-4.78291">
        <ele>38.9</ele>
        <time>2020-06-08T20:03:33Z</time>
      </trkpt>
      <trkpt lat="48.41209" lon="-4.78298">
        <ele>39.1</ele>
        <time>2020-06-08T20:03:34Z</time>
      </trkpt>
      <trkpt lat="48.4121" lon="-4.78304">
        <ele>39.3</ele>
        <time>2020-06-08T20:03:35Z</time>
      </trkpt>
      <trkpt lat="48.4121" lon="-4.78309">
        <ele>39.4</ele>
        <time>2020-06-08T20:03:36Z</time>
      </trkpt>
      <trkpt lat="48.4121" lon="-4.78315">
        <ele>39.6</ele>
        <time>2020-06-08T20:03:37Z</time>
      </trkpt>
      <trkpt lat="48.4121" lon="-4.78321">
        <ele>39.8</ele>
        <time>2020-06-08T20:03:38Z</time>
      </trkpt>
      <trkpt lat="48.41211" lon="-4.78327">
        <ele>40</ele>
        <time>2020-06-08T20:03:39Z</time>
      </trkpt>
      <trkpt lat="48.41211" lon="-4.78334">
        <ele>40.1</ele>
        <time>2020-06-08T20:03:40Z</time>
      </trkpt>
      <trkpt lat="48.41211" lon="-4.7834">
        <ele>40.2</ele>
        <time>2020-06-08T20:03:41Z</time>
      </trkpt>
      <trkpt lat="48.4121" lon="-4.78346">
        <ele>40.3</ele>
        <time>2020-06-08T20:03:42Z</time>
      </trkpt>
      <trkpt lat="48.41209" lon="-4.7835">
        <ele>40.3</ele>
        <time>2020-06-08T20:03:43Z</time>
      </trkpt>
      <trkpt lat="48.4121" lon="-4.78358">
        <ele>40.4</ele>
        <time>2020-06-08T20:03:44Z</time>
      </trkpt>
      <trkpt lat="48.41209" lon="-4.78364">
        <ele>40.5</ele>
        <time>2020-06-08T20:03:45Z</time>
      </trkpt>
      <trkpt lat="48.41209" lon="-4.7837">
        <ele>40.6</ele>
        <time>2020-06-08T20:03:46Z</time>
      </trkpt>
      <trkpt lat="48.4121" lon="-4.78377">
        <ele>40.6</ele>
        <time>2020-06-08T20:03:47Z</time>
      </trkpt>
      <trkpt lat="48.4121" lon="-4.78381">
        <ele>40.7</ele>
        <time>2020-06-08T20:03:48Z</time>
      </trkpt>
      <trkpt lat="48.41211" lon="-4.78387">
        <ele>40.7</ele>
        <time>2020-06-08T20:03:49Z</time>
      </trkpt>
      <trkpt lat="48.41212" lon="-4.78392">
        <ele>40.7</ele>
        <time>2020-06-08T20:03:50Z</time>
      </trkpt>
      <trkpt lat="48.41212" lon="-4.784">
        <ele>40.7</ele>
        <time>2020-06-08T20:03:51Z</time>
      </trkpt>
      <trkpt lat="48.41212" lon="-4.78406">
        <ele>40.7</ele>
        <time>2020-06-08T20:03:52Z</time>
      </trkpt>
      <trkpt lat="48.41211" lon="-4.78413">
        <ele>40.7</ele>
        <time>2020-06-08T20:03:53Z</time>
      </trkpt>
      <trkpt lat="48.41212" lon="-4.78419">
        <ele>40.6</ele>
        <time>2020-06-08T20:03:54Z</time>
      </trkpt>
      <trkpt lat="48.41212" lon="-4.78426">
        <ele>40.6</ele>
        <time>2020-06-08T20:03:55Z</time>
      </trkpt>
      <trkpt lat="48.41211" lon="-4.78431">
        <ele>40.6</ele>
        <time>2020-06-08T20:03:56Z</time>
      </trkpt>
      <trkpt lat="48.41212" lon="-4.78438">
        <ele>40.5</ele>
        <time>2020-06-08T20:03:57Z</time>
      </trkpt>
      <trkpt lat="48.41213" lon="-4.78446">
        <ele>40.5</ele>
        <time>2020-06-08T20:03:58Z</time>
      </trkpt>
      <trkpt lat="48.41212" lon="-4.78456">
        <ele>40.4</ele>
        <time>2020-06-08T20:03:59Z</time>
      </trkpt>
      <trkpt lat="48.41212" lon="-4.78463">
        <ele>40.3</ele>
        <time>2020-06-08T20:04:00Z</time>
      </trkpt>
      <trkpt lat="48.41212" lon="-4.78472">
        <ele>40.2</ele>
        <time>2020-06-08T20:04:01Z</time>
      </trkpt>
      <trkpt lat="48.41212" lon="-4.78481">
        <ele>40.1</ele>
        <time>2020-06-08T20:04:02Z</time>
      </trkpt>
      <trkpt lat="48.41212" lon="-4.78487">
        <ele>40</ele>
        <time>2020-06-08T20:04:03Z</time>
      </trkpt>
      <trkpt lat="48.41213" lon="-4.78497">
        <ele>39.9</ele>
        <time>2020-06-08T20:04:04Z</time>
      </trkpt>
      <trkpt lat="48.41213" lon="-4.78504">
        <ele>39.8</ele>
        <time>2020-06-08T20:04:05Z</time>
      </trkpt>
      <trkpt lat="48.41213" lon="-4.78513">
        <ele>39.7</ele>
        <time>2020-06-08T20:04:06Z</time>
      </trkpt>
      <trkpt lat="48.41213" lon="-4.78524">
        <ele>39.5</ele>
        <time>2020-06-08T20:04:07Z</time>
      </trkpt>
      <trkpt lat="48.41215" lon="-4.78534">
        <ele>39.3</ele>
        <time>2020-06-08T20:04:08Z</time>
      </trkpt>
      <trkpt lat="48.41215" lon="-4.78545">
        <ele>39.2</ele>
        <time>2020-06-08T20:04:09Z</time>
      </trkpt>
      <trkpt lat="48.41216" lon="-4.78554">
        <ele>39</ele>
        <time>2020-06-08T20:04:10Z</time>
      </trkpt>
      <trkpt lat="48.41216" lon="-4.78565">
        <ele>38.8</ele>
        <time>2020-06-08T20:04:11Z</time>
      </trkpt>
      <trkpt lat="48.41217" lon="-4.78573">
        <ele>38.7</ele>
        <time>2020-06-08T20:04:12Z</time>
      </trkpt>
      <trkpt lat="48.41219" lon="-4.78583">
        <ele>38.6</ele>
        <time>2020-06-08T20:04:13Z</time>
      </trkpt>
      <trkpt lat="48.4122" lon="-4.78594">
        <ele>38.4</ele>
        <time>2020-06-08T20:04:14Z</time>
      </trkpt>
      <trkpt lat="48.41221" lon="-4.78605">
        <ele>38.3</ele>
        <time>2020-06-08T20:04:15Z</time>
      </trkpt>
      <trkpt lat="48.41222" lon="-4.78616">
        <ele>38.1</ele>
        <time>2020-06-08T20:04:16Z</time>
      </trkpt>
      <trkpt lat="48.41224" lon="-4.78627">
        <ele>38</ele>
        <time>2020-06-08T20:04:17Z</time>
      </trkpt>
      <trkpt lat="48.41226" lon="-4.78637">
        <ele>37.8</ele>
        <time>2020-06-08T20:04:18Z</time>
      </trkpt>
      <trkpt lat="48.41228" lon="-4.78646">
        <ele>37.7</ele>
        <time>2020-06-08T20:04:19Z</time>
      </trkpt>
      <trkpt lat="48.4123" lon="-4.78657">
        <ele>37.5</ele>
        <time>2020-06-08T20:04:20Z</time>
      </trkpt>
      <trkpt lat="48.41232" lon="-4.78667">
        <ele>37.4</ele>
        <time>2020-06-08T20:04:21Z</time>
      </trkpt>
      <trkpt lat="48.41234" lon="-4.78678">
        <ele>37.2</ele>
        <time>2020-06-08T20:04:22Z</time>
      </trkpt>
      <trkpt lat="48.41236" lon="-4.78688">
        <ele>37.1</ele>
        <time>2020-06-08T20:04:23Z</time>
      </trkpt>
      <trkpt lat="48.41237" lon="-4.78698">
        <ele>36.9</ele>
        <time>2020-06-08T20:04:24Z</time>
      </trkpt>
      <trkpt lat="48.41238" lon="-4.78709">
        <ele>36.7</ele>
        <time>2020-06-08T20:04:25Z</time>
      </trkpt>
      <trkpt lat="48.4124" lon="-4.78719">
        <ele>36.5</ele>
        <time>2020-06-08T20:04:26Z</time>
      </trkpt>
      <trkpt lat="48.41242" lon="-4.78729">
        <ele>36.3</ele>
        <time>2020-06-08T20:04:27Z</time>
      </trkpt>
      <trkpt lat="48.41244" lon="-4.78739">
        <ele>36.1</ele>
        <time>2020-06-08T20:04:28Z</time>
      </trkpt>
      <trkpt lat="48.41246" lon="-4.78749">
        <ele>36</ele>
        <time>2020-06-08T20:04:29Z</time>
      </trkpt>
      <trkpt lat="48.41248" lon="-4.78759">
        <ele>35.8</ele>
        <time>2020-06-08T20:04:30Z</time>
      </trkpt>
      <trkpt lat="48.41249" lon="-4.78769">
        <ele>35.7</ele>
        <time>2020-06-08T20:04:31Z</time>
      </trkpt>
      <trkpt lat="48.41251" lon="-4.78779">
        <ele>35.6</ele>
        <time>2020-06-08T20:04:32Z</time>
      </trkpt>
      <trkpt lat="48.41253" lon="-4.78789">
        <ele>35.5</ele>
        <time>2020-06-08T20:04:33Z</time>
      </trkpt>
      <trkpt lat="48.41255" lon="-4.78798">
        <ele>35.5</ele>
        <time>2020-06-08T20:04:34Z</time>
      </trkpt>
      <trkpt lat="48.41257" lon="-4.78807">
        <ele>35.4</ele>
        <time>2020-06-08T20:04:35Z</time>
      </trkpt>
      <trkpt lat="48.41259" lon="-4.78816">
        <ele>35.4</ele>
        <time>2020-06-08T20:04:36Z</time>
      </trkpt>
      <trkpt lat="48.4126" lon="-4.78825">
        <ele>35.4</ele>
        <time>2020-06-08T20:04:37Z</time>
      </trkpt>
      <trkpt lat="48.41262" lon="-4.78834">
        <ele>35.4</ele>
        <time>2020-06-08T20:04:38Z</time>
      </trkpt>
      <trkpt lat="48.41264" lon="-4.78842">
        <ele>35.4</ele>
        <time>2020-06-08T20:04:39Z</time>
      </trkpt>
      <trkpt lat="48.41265" lon="-4.7885">
        <ele>35.5</ele>
        <time>2020-06-08T20:04:40Z</time>
      </trkpt>
      <trkpt lat="48.41265" lon="-4.78858">
        <ele>35.5</ele>
        <time>2020-06-08T20:04:41Z</time>
      </trkpt>
      <trkpt lat="48.41267" lon="-4.78865">
        <ele>35.6</ele>
        <time>2020-06-08T20:04:42Z</time>
      </trkpt>
      <trkpt lat="48.41269" lon="-4.78871">
        <ele>35.6</ele>
        <time>2020-06-08T20:04:43Z</time>
      </trkpt>
      <trkpt lat="48.41272" lon="-4.78877">
        <ele>35.7</ele>
        <time>2020-06-08T20:04:44Z</time>
      </trkpt>
      <trkpt lat="48.41273" lon="-4.78883">
        <ele>35.7</ele>
        <time>2020-06-08T20:04:45Z</time>
      </trkpt>
      <trkpt lat="48.41277" lon="-4.78887">
        <ele>35.8</ele>
        <time>2020-06-08T20:04:46Z</time>
      </trkpt>
      <trkpt lat="48.41279" lon="-4.78893">
        <ele>35.8</ele>
        <time>2020-06-08T20:04:47Z</time>
      </trkpt>
      <trkpt lat="48.41283" lon="-4.78897">
        <ele>35.8</ele>
        <time>2020-06-08T20:04:48Z</time>
      </trkpt>
      <trkpt lat="48.41288" lon="-4.78898">
        <ele>35.9</ele>
        <time>2020-06-08T20:04:49Z</time>
      </trkpt>
      <trkpt lat="48.41293" lon="-4.78894">
        <ele>35.9</ele>
        <time>2020-06-08T20:04:50Z</time>
      </trkpt>
      <trkpt lat="48.41297" lon="-4.78892">
        <ele>36</ele>
        <time>2020-06-08T20:04:51Z</time>
      </trkpt>
      <trkpt lat="48.41302" lon="-4.78891">
        <ele>36.1</ele>
        <time>2020-06-08T20:04:52Z</time>
      </trkpt>
      <trkpt lat="48.41307" lon="-4.78889">
        <ele>36.3</ele>
        <time>2020-06-08T20:04:53Z</time>
      </trkpt>
      <trkpt lat="48.41311" lon="-4.78887">
        <ele>36.4</ele>
        <time>2020-06-08T20:04:54Z</time>
      </trkpt>
      <trkpt lat="48.41316" lon="-4.78884">
        <ele>36.5</ele>
        <time>2020-06-08T20:04:55Z</time>
      </trkpt>
      <trkpt lat="48.4132" lon="-4.78883">
        <ele>36.7</ele>
        <time>2020-06-08T20:04:56Z</time>
      </trkpt>
      <trkpt lat="48.41324" lon="-4.78881">
        <ele>36.9</ele>
        <time>2020-06-08T20:04:57Z</time>
      </trkpt>
      <trkpt lat="48.41329" lon="-4.78881">
        <ele>37.1</ele>
        <time>2020-06-08T20:04:58Z</time>
      </trkpt>
      <trkpt lat="48.41333" lon="-4.78879">
        <ele>37.4</ele>
        <time>2020-06-08T20:04:59Z</time>
      </trkpt>
      <trkpt lat="48.41338" lon="-4.78877">
        <ele>37.6</ele>
        <time>2020-06-08T20:05:00Z</time>
      </trkpt>
      <trkpt lat="48.41342" lon="-4.78875">
        <ele>37.9</ele>
        <time>2020-06-08T20:05:01Z</time>
      </trkpt>
      <trkpt lat="48.41346" lon="-4.78874">
        <ele>38.2</ele>
        <time>2020-06-08T20:05:02Z</time>
      </trkpt>
      <trkpt lat="48.41349" lon="-4.78873">
        <ele>38.4</ele>
        <time>2020-06-08T20:05:03Z</time>
      </trkpt>
      <trkpt lat="48.41353" lon="-4.78872">
        <ele>38.7</ele>
        <time>2020-06-08T20:05:04Z</time>
      </trkpt>
      <trkpt lat="48.41357" lon="-4.78872">
        <ele>39</ele>
        <time>2020-06-08T20:05:05Z</time>
      </trkpt>
      <trkpt lat="48.41362" lon="-4.78872">
        <ele>39.3</ele>
        <time>2020-06-08T20:05:06Z</time>
      </trkpt>
      <trkpt lat="48.41366" lon="-4.78871">
        <ele>39.6</ele>
        <time>2020-06-08T20:05:07Z</time>
      </trkpt>
      <trkpt lat="48.41369" lon="-4.78869">
        <ele>39.9</ele>
        <time>2020-06-08T20:05:08Z</time>
      </trkpt>
      <trkpt lat="48.41373" lon="-4.78869">
        <ele>40.2</ele>
        <time>2020-06-08T20:05:09Z</time>
      </trkpt>
      <trkpt lat="48.41377" lon="-4.78868">
        <ele>40.5</ele>
        <time>2020-06-08T20:05:10Z</time>
      </trkpt>
      <trkpt lat="48.4138" lon="-4.78867">
        <ele>40.7</ele>
        <time>2020-06-08T20:05:11Z</time>
      </trkpt>
      <trkpt lat="48.41384" lon="-4.78867">
        <ele>41</ele>
        <time>2020-06-08T20:05:12Z</time>
      </trkpt>
      <trkpt lat="48.41388" lon="-4.78866">
        <ele>41.3</ele>
        <time>2020-06-08T20:05:13Z</time>
      </trkpt>
      <trkpt lat="48.41392" lon="-4.78866">
        <ele>41.6</ele>
        <time>2020-06-08T20:05:14Z</time>
      </trkpt>
      <trkpt lat="48.41396" lon="-4.78865">
        <ele>41.9</ele>
        <time>2020-06-08T20:05:15Z</time>
      </trkpt>
      <trkpt lat="48.414" lon="-4.78863">
        <ele>42.2</ele>
        <time>2020-06-08T20:05:16Z</time>
      </trkpt>
      <trkpt lat="48.41403" lon="-4.78861">
        <ele>42.4</ele>
        <time>2020-06-08T20:05:17Z</time>
      </trkpt>
      <trkpt lat="48.41407" lon="-4.78859">
        <ele>42.6</ele>
        <time>2020-06-08T20:05:18Z</time>
      </trkpt>
      <trkpt lat="48.4141" lon="-4.78858">
        <ele>42.8</ele>
        <time>2020-06-08T20:05:19Z</time>
      </trkpt>
      <trkpt lat="48.41414" lon="-4.78856">
        <ele>43.1</ele>
        <time>2020-06-08T20:05:20Z</time>
      </trkpt>
      <trkpt lat="48.41416" lon="-4.78855">
        <ele>43.1</ele>
        <time>2020-06-08T20:05:21Z</time>
      </trkpt>
      <trkpt lat="48.41419" lon="-4.78854">
        <ele>43.3</ele>
        <time>2020-06-08T20:05:22Z</time>
      </trkpt>
      <trkpt lat="48.41422" lon="-4.78853">
        <ele>43.5</ele>
        <time>2020-06-08T20:05:23Z</time>
      </trkpt>
      <trkpt lat="48.41425" lon="-4.78852">
        <ele>43.7</ele>
        <time>2020-06-08T20:05:24Z</time>
      </trkpt>
      <trkpt lat="48.41428" lon="-4.78851">
        <ele>43.8</ele>
        <time>2020-06-08T20:05:25Z</time>
      </trkpt>
      <trkpt lat="48.41432" lon="-4.78851">
        <ele>44.3</ele>
        <time>2020-06-08T20:05:26Z</time>
      </trkpt>
      <trkpt lat="48.41433" lon="-4.78851">
        <ele>44.3</ele>
        <time>2020-06-08T20:05:27Z</time>
      </trkpt>
      <trkpt lat="48.41437" lon="-4.78852">
        <ele>44.3</ele>
        <time>2020-06-08T20:05:28Z</time>
      </trkpt>
      <trkpt lat="48.4144" lon="-4.78854">
        <ele>44.3</ele>
        <time>2020-06-08T20:05:29Z</time>
      </trkpt>
      <trkpt lat="48.41442" lon="-4.78855">
        <ele>44.3</ele>
        <time>2020-06-08T20:05:30Z</time>
      </trkpt>
      <trkpt lat="48.41445" lon="-4.78857">
        <ele>44.3</ele>
        <time>2020-06-08T20:05:31Z</time>
      </trkpt>
      <trkpt lat="48.41447" lon="-4.78858">
        <ele>44.3</ele>
        <time>2020-06-08T20:05:32Z</time>
      </trkpt>
      <trkpt lat="48.41448" lon="-4.78864">
        <ele>43.5</ele>
        <time>2020-06-08T20:05:33Z</time>
      </trkpt>
      <trkpt lat="48.41449" lon="-4.78866">
        <ele>43.3</ele>
        <time>2020-06-08T20:05:34Z</time>
      </trkpt>
      <trkpt lat="48.4145" lon="-4.7887">
        <ele>43</ele>
        <time>2020-06-08T20:05:35Z</time>
      </trkpt>
      <trkpt lat="48.41451" lon="-4.78876">
        <ele>42.7</ele>
        <time>2020-06-08T20:05:36Z</time>
      </trkpt>
      <trkpt lat="48.4145" lon="-4.78885">
        <ele>42</ele>
        <time>2020-06-08T20:05:37Z</time>
      </trkpt>
      <trkpt lat="48.41451" lon="-4.78895">
        <ele>41.4</ele>
        <time>2020-06-08T20:05:38Z</time>
      </trkpt>
      <trkpt lat="48.41452" lon="-4.78906">
        <ele>40.7</ele>
        <time>2020-06-08T20:05:39Z</time>
      </trkpt>
      <trkpt lat="48.41453" lon="-4.78918">
        <ele>39.9</ele>
        <time>2020-06-08T20:05:40Z</time>
      </trkpt>
      <trkpt lat="48.41453" lon="-4.7893">
        <ele>39.1</ele>
        <time>2020-06-08T20:05:41Z</time>
      </trkpt>
      <trkpt lat="48.41454" lon="-4.78944">
        <ele>38.2</ele>
        <time>2020-06-08T20:05:42Z</time>
      </trkpt>
      <trkpt lat="48.41455" lon="-4.78958">
        <ele>37.3</ele>
        <time>2020-06-08T20:05:43Z</time>
      </trkpt>
      <trkpt lat="48.41456" lon="-4.78971">
        <ele>36.5</ele>
        <time>2020-06-08T20:05:44Z</time>
      </trkpt>
      <trkpt lat="48.41458" lon="-4.78987">
        <ele>35.6</ele>
        <time>2020-06-08T20:05:45Z</time>
      </trkpt>
      <trkpt lat="48.41459" lon="-4.79002">
        <ele>34.6</ele>
        <time>2020-06-08T20:05:46Z</time>
      </trkpt>
      <trkpt lat="48.4146" lon="-4.79018">
        <ele>33.6</ele>
        <time>2020-06-08T20:05:47Z</time>
      </trkpt>
      <trkpt lat="48.41462" lon="-4.79033">
        <ele>32.6</ele>
        <time>2020-06-08T20:05:48Z</time>
      </trkpt>
      <trkpt lat="48.41463" lon="-4.79049">
        <ele>31.6</ele>
        <time>2020-06-08T20:05:49Z</time>
      </trkpt>
      <trkpt lat="48.41464" lon="-4.79065">
        <ele>30.9</ele>
        <time>2020-06-08T20:05:50Z</time>
      </trkpt>
      <trkpt lat="48.41465" lon="-4.7908">
        <ele>30.1</ele>
        <time>2020-06-08T20:05:51Z</time>
      </trkpt>
      <trkpt lat="48.41466" lon="-4.79096">
        <ele>29.5</ele>
        <time>2020-06-08T20:05:52Z</time>
      </trkpt>
      <trkpt lat="48.41467" lon="-4.79112">
        <ele>28.9</ele>
        <time>2020-06-08T20:05:53Z</time>
      </trkpt>
      <trkpt lat="48.41468" lon="-4.79128">
        <ele>28.5</ele>
        <time>2020-06-08T20:05:54Z</time>
      </trkpt>
      <trkpt lat="48.41469" lon="-4.79144">
        <ele>28.4</ele>
        <time>2020-06-08T20:05:55Z</time>
      </trkpt>
      <trkpt lat="48.41471" lon="-4.79159">
        <ele>28.4</ele>
        <time>2020-06-08T20:05:56Z</time>
      </trkpt>
      <trkpt lat="48.41472" lon="-4.79174">
        <ele>28.6</ele>
        <time>2020-06-08T20:05:57Z</time>
      </trkpt>
      <trkpt lat="48.41473" lon="-4.79189">
        <ele>28.9</ele>
        <time>2020-06-08T20:05:58Z</time>
      </trkpt>
      <trkpt lat="48.41475" lon="-4.79202">
        <ele>29.2</ele>
        <time>2020-06-08T20:05:59Z</time>
      </trkpt>
      <trkpt lat="48.41477" lon="-4.79214">
        <ele>29.5</ele>
        <time>2020-06-08T20:06:00Z</time>
      </trkpt>
      <trkpt lat="48.41477" lon="-4.79225">
        <ele>29.7</ele>
        <time>2020-06-08T20:06:01Z</time>
      </trkpt>
      <trkpt lat="48.41477" lon="-4.79236">
        <ele>29.9</ele>
        <time>2020-06-08T20:06:02Z</time>
      </trkpt>
      <trkpt lat="48.41477" lon="-4.79245">
        <ele>29.8</ele>
        <time>2020-06-08T20:06:03Z</time>
      </trkpt>
      <trkpt lat="48.41478" lon="-4.79253">
        <ele>30.1</ele>
        <time>2020-06-08T20:06:04Z</time>
      </trkpt>
      <trkpt lat="48.41479" lon="-4.79261">
        <ele>30.3</ele>
        <time>2020-06-08T20:06:05Z</time>
      </trkpt>
      <trkpt lat="48.41479" lon="-4.79267">
        <ele>30.5</ele>
        <time>2020-06-08T20:06:06Z</time>
      </trkpt>
      <trkpt lat="48.4148" lon="-4.79273">
        <ele>30.7</ele>
        <time>2020-06-08T20:06:07Z</time>
      </trkpt>
      <trkpt lat="48.41481" lon="-4.79279">
        <ele>30.8</ele>
        <time>2020-06-08T20:06:08Z</time>
      </trkpt>
      <trkpt lat="48.41482" lon="-4.79284">
        <ele>31</ele>
        <time>2020-06-08T20:06:09Z</time>
      </trkpt>
      <trkpt lat="48.41482" lon="-4.79286">
        <ele>31</ele>
        <time>2020-06-08T20:06:10Z</time>
      </trkpt>
      <trkpt lat="48.41481" lon="-4.79292">
        <ele>31.1</ele>
        <time>2020-06-08T20:06:11Z</time>
      </trkpt>
      <trkpt lat="48.41481" lon="-4.79294">
        <ele>31.2</ele>
        <time>2020-06-08T20:06:12Z</time>
      </trkpt>
      <trkpt lat="48.41482" lon="-4.79299">
        <ele>31.3</ele>
        <time>2020-06-08T20:06:13Z</time>
      </trkpt>
      <trkpt lat="48.41483" lon="-4.793">
        <ele>31.3</ele>
        <time>2020-06-08T20:06:14Z</time>
      </trkpt>
      <trkpt lat="48.41483" lon="-4.79304">
        <ele>31.4</ele>
        <time>2020-06-08T20:06:15Z</time>
      </trkpt>
      <trkpt lat="48.41484" lon="-4.79309">
        <ele>31.5</ele>
        <time>2020-06-08T20:06:16Z</time>
      </trkpt>
      <trkpt lat="48.41484" lon="-4.79313">
        <ele>31.5</ele>
        <time>2020-06-08T20:06:17Z</time>
      </trkpt>
      <trkpt lat="48.41484" lon="-4.79319">
        <ele>31.6</ele>
        <time>2020-06-08T20:06:18Z</time>
      </trkpt>
      <trkpt lat="48.41485" lon="-4.7932">
        <ele>31.6</ele>
        <time>2020-06-08T20:06:19Z</time>
      </trkpt>
      <trkpt lat="48.41486" lon="-4.79326">
        <ele>31.7</ele>
        <time>2020-06-08T20:06:20Z</time>
      </trkpt>
      <trkpt lat="48.41485" lon="-4.79328">
        <ele>31.7</ele>
        <time>2020-06-08T20:06:21Z</time>
      </trkpt>
      <trkpt lat="48.41486" lon="-4.79333">
        <ele>31.8</ele>
        <time>2020-06-08T20:06:22Z</time>
      </trkpt>
      <trkpt lat="48.41486" lon="-4.79334">
        <ele>31.8</ele>
        <time>2020-06-08T20:06:23Z</time>
      </trkpt>
      <trkpt lat="48.41486" lon="-4.79339">
        <ele>31.8</ele>
        <time>2020-06-08T20:06:24Z</time>
      </trkpt>
      <trkpt lat="48.41486" lon="-4.79341">
        <ele>31.8</ele>
        <time>2020-06-08T20:06:25Z</time>
      </trkpt>
      <trkpt lat="48.41486" lon="-4.79346">
        <ele>31.8</ele>
        <time>2020-06-08T20:06:26Z</time>
      </trkpt>
      <trkpt lat="48.41486" lon="-4.79347">
        <ele>31.8</ele>
        <time>2020-06-08T20:06:27Z</time>
      </trkpt>
      <trkpt lat="48.41488" lon="-4.79351">
        <ele>31.7</ele>
        <time>2020-06-08T20:06:28Z</time>
      </trkpt>
      <trkpt lat="48.41489" lon="-4.79352">
        <ele>31.7</ele>
        <time>2020-06-08T20:06:29Z</time>
      </trkpt>
      <trkpt lat="48.41489" lon="-4.79357">
        <ele>31.7</ele>
        <time>2020-06-08T20:06:30Z</time>
      </trkpt>
      <trkpt lat="48.41489" lon="-4.79359">
        <ele>31.6</ele>
        <time>2020-06-08T20:06:31Z</time>
      </trkpt>
      <trkpt lat="48.41489" lon="-4.79363">
        <ele>31.6</ele>
        <time>2020-06-08T20:06:32Z</time>
      </trkpt>
      <trkpt lat="48.41489" lon="-4.79365">
        <ele>31.5</ele>
        <time>2020-06-08T20:06:33Z</time>
      </trkpt>
      <trkpt lat="48.41489" lon="-4.79369">
        <ele>31.4</ele>
        <time>2020-06-08T20:06:34Z</time>
      </trkpt>
      <trkpt lat="48.4149" lon="-4.7937">
        <ele>31.4</ele>
        <time>2020-06-08T20:06:35Z</time>
      </trkpt>
      <trkpt lat="48.41489" lon="-4.79374">
        <ele>31.4</ele>
        <time>2020-06-08T20:06:36Z</time>
      </trkpt>
      <trkpt lat="48.41488" lon="-4.79376">
        <ele>31.4</ele>
        <time>2020-06-08T20:06:37Z</time>
      </trkpt>
      <trkpt lat="48.41487" lon="-4.79378">
        <ele>31.4</ele>
        <time>2020-06-08T20:06:38Z</time>
      </trkpt>
      <trkpt lat="48.41486" lon="-4.79381">
        <ele>31.4</ele>
        <time>2020-06-08T20:06:40Z</time>
      </trkpt>
      <trkpt lat="48.41486" lon="-4.79385">
        <ele>31.4</ele>
        <time>2020-06-08T20:06:41Z</time>
      </trkpt>
      <trkpt lat="48.41486" lon="-4.79387">
        <ele>31.4</ele>
        <time>2020-06-08T20:06:42Z</time>
      </trkpt>
      <trkpt lat="48.41484" lon="-4.79386">
        <ele>31.4</ele>
        <time>2020-06-08T20:06:43Z</time>
      </trkpt>
      <trkpt lat="48.41483" lon="-4.79385">
        <ele>31.4</ele>
        <time>2020-06-08T20:06:44Z</time>
      </trkpt>
      <trkpt lat="48.41482" lon="-4.79384">
        <ele>31.5</ele>
        <time>2020-06-08T20:06:45Z</time>
      </trkpt>
      <trkpt lat="48.41479" lon="-4.79384">
        <ele>31.5</ele>
        <time>2020-06-08T20:06:46Z</time>
      </trkpt>
      <trkpt lat="48.41477" lon="-4.79384">
        <ele>31.5</ele>
        <time>2020-06-08T20:06:47Z</time>
      </trkpt>
      <trkpt lat="48.41475" lon="-4.79387">
        <ele>31.6</ele>
        <time>2020-06-08T20:06:48Z</time>
      </trkpt>
      <trkpt lat="48.41474" lon="-4.79388">
        <ele>31.6</ele>
        <time>2020-06-08T20:06:49Z</time>
      </trkpt>
      <trkpt lat="48.41472" lon="-4.79393">
        <ele>31.7</ele>
        <time>2020-06-08T20:06:50Z</time>
      </trkpt>
      <trkpt lat="48.41471" lon="-4.79395">
        <ele>31.7</ele>
        <time>2020-06-08T20:06:51Z</time>
      </trkpt>
      <trkpt lat="48.4147" lon="-4.79399">
        <ele>31.7</ele>
        <time>2020-06-08T20:06:52Z</time>
      </trkpt>
      <trkpt lat="48.41469" lon="-4.79403">
        <ele>31.8</ele>
        <time>2020-06-08T20:06:53Z</time>
      </trkpt>
      <trkpt lat="48.41467" lon="-4.79407">
        <ele>31.8</ele>
        <time>2020-06-08T20:06:54Z</time>
      </trkpt>
      <trkpt lat="48.41467" lon="-4.79411">
        <ele>31.9</ele>
        <time>2020-06-08T20:06:55Z</time>
      </trkpt>
      <trkpt lat="48.41466" lon="-4.79416">
        <ele>31.9</ele>
        <time>2020-06-08T20:06:56Z</time>
      </trkpt>
      <trkpt lat="48.41464" lon="-4.7942">
        <ele>32</ele>
        <time>2020-06-08T20:06:57Z</time>
      </trkpt>
      <trkpt lat="48.41463" lon="-4.79424">
        <ele>32</ele>
        <time>2020-06-08T20:06:58Z</time>
      </trkpt>
      <trkpt lat="48.41462" lon="-4.79429">
        <ele>32.1</ele>
        <time>2020-06-08T20:06:59Z</time>
      </trkpt>
      <trkpt lat="48.41461" lon="-4.79433">
        <ele>32.1</ele>
        <time>2020-06-08T20:07:00Z</time>
      </trkpt>
      <trkpt lat="48.41461" lon="-4.79437">
        <ele>32.2</ele>
        <time>2020-06-08T20:07:01Z</time>
      </trkpt>
      <trkpt lat="48.41463" lon="-4.79445">
        <ele>32.3</ele>
        <time>2020-06-08T20:07:02Z</time>
      </trkpt>
      <trkpt lat="48.41462" lon="-4.79448">
        <ele>32.3</ele>
        <time>2020-06-08T20:07:03Z</time>
      </trkpt>
      <trkpt lat="48.41462" lon="-4.79453">
        <ele>32.4</ele>
        <time>2020-06-08T20:07:04Z</time>
      </trkpt>
      <trkpt lat="48.41462" lon="-4.79454">
        <ele>32.3</ele>
        <time>2020-06-08T20:07:05Z</time>
      </trkpt>
      <trkpt lat="48.41463" lon="-4.79455">
        <ele>32.1</ele>
        <time>2020-06-08T20:07:06Z</time>
      </trkpt>
      <trkpt lat="48.41465" lon="-4.79456">
        <ele>31.7</ele>
        <time>2020-06-08T20:07:07Z</time>
      </trkpt>
      <trkpt lat="48.41466" lon="-4.79459">
        <ele>31.3</ele>
        <time>2020-06-08T20:07:08Z</time>
      </trkpt>
      <trkpt lat="48.41466" lon="-4.79461">
        <ele>31.1</ele>
        <time>2020-06-08T20:07:09Z</time>
      </trkpt>
      <trkpt lat="48.41467" lon="-4.79462">
        <ele>31</ele>
        <time>2020-06-08T20:07:10Z</time>
      </trkpt>
      <trkpt lat="48.41468" lon="-4.79462">
        <ele>30.9</ele>
        <time>2020-06-08T20:07:11Z</time>
      </trkpt>
      <trkpt lat="48.41467" lon="-4.79461">
        <ele>30.8</ele>
        <time>2020-06-08T20:07:12Z</time>
      </trkpt>
      <trkpt lat="48.41467" lon="-4.79461">
        <ele>30.7</ele>
        <time>2020-06-08T20:07:13Z</time>
      </trkpt>
      <trkpt lat="48.41467" lon="-4.7946">
        <ele>30.7</ele>
        <time>2020-06-08T20:07:14Z</time>
      </trkpt>
      <trkpt lat="48.41467" lon="-4.79461">
        <ele>30.6</ele>
        <time>2020-06-08T20:07:15Z</time>
      </trkpt>
      <trkpt lat="48.41467" lon="-4.79461">
        <ele>30.5</ele>
        <time>2020-06-08T20:07:16Z</time>
      </trkpt>
      <trkpt lat="48.41467" lon="-4.79462">
        <ele>30.5</ele>
        <time>2020-06-08T20:07:17Z</time>
      </trkpt>
      <trkpt lat="48.41467" lon="-4.79462">
        <ele>30.4</ele>
        <time>2020-06-08T20:07:18Z</time>
      </trkpt>
      <trkpt lat="48.41467" lon="-4.79462">
        <ele>30.4</ele>
        <time>2020-06-08T20:07:19Z</time>
      </trkpt>
      <trkpt lat="48.41468" lon="-4.79462">
        <ele>30.4</ele>
        <time>2020-06-08T20:07:20Z</time>
      </trkpt>
      <trkpt lat="48.41467" lon="-4.79462">
        <ele>30.3</ele>
        <time>2020-06-08T20:07:21Z</time>
      </trkpt>
      <trkpt lat="48.41467" lon="-4.79463">
        <ele>30.2</ele>
        <time>2020-06-08T20:07:22Z</time>
      </trkpt>
      <trkpt lat="48.41467" lon="-4.79463">
        <ele>30.2</ele>
        <time>2020-06-08T20:07:23Z</time>
      </trkpt>
      <trkpt lat="48.41467" lon="-4.79463">
        <ele>30.1</ele>
        <time>2020-06-08T20:07:24Z</time>
      </trkpt>
      <trkpt lat="48.41468" lon="-4.79463">
        <ele>30.1</ele>
        <time>2020-06-08T20:07:25Z</time>
      </trkpt>
      <trkpt lat="48.41468" lon="-4.79468">
        <ele>29.5</ele>
        <time>2020-06-08T20:07:50Z</time>
      </trkpt>
      <trkpt lat="48.41469" lon="-4.79469">
        <ele>29.4</ele>
        <time>2020-06-08T20:07:51Z</time>
      </trkpt>
      <trkpt lat="48.41468" lon="-4.79468">
        <ele>29.3</ele>
        <time>2020-06-08T20:07:52Z</time>
      </trkpt>
      <trkpt lat="48.41468" lon="-4.79467">
        <ele>29.2</ele>
        <time>2020-06-08T20:07:53Z</time>
      </trkpt>
      <trkpt lat="48.41468" lon="-4.79467">
        <ele>29.2</ele>
        <time>2020-06-08T20:07:54Z</time>
      </trkpt>
      <trkpt lat="48.41468" lon="-4.79467">
        <ele>29.1</ele>
        <time>2020-06-08T20:07:55Z</time>
      </trkpt>
      <trkpt lat="48.41468" lon="-4.79467">
        <ele>29</ele>
        <time>2020-06-08T20:07:56Z</time>
      </trkpt>
      <trkpt lat="48.41469" lon="-4.79467">
        <ele>28.8</ele>
        <time>2020-06-08T20:07:57Z</time>
      </trkpt>
      <trkpt lat="48.41469" lon="-4.79468">
        <ele>28.8</ele>
        <time>2020-06-08T20:07:58Z</time>
      </trkpt>
      <trkpt lat="48.41469" lon="-4.79467">
        <ele>28.8</ele>
        <time>2020-06-08T20:07:59Z</time>
      </trkpt>
      <trkpt lat="48.41469" lon="-4.79467">
        <ele>28.7</ele>
        <time>2020-06-08T20:08:00Z</time>
      </trkpt>
      <trkpt lat="48.41468" lon="-4.79467">
        <ele>28.6</ele>
        <time>2020-06-08T20:08:01Z</time>
      </trkpt>
    </trkseg>
  </trk>
</gpx>